<?xml version="1.0" encoding="UTF-8" standalone="no" ?>
<gpx xmlns="http://www.topografix.com/GPX/1/1" xmlns:xsi="http://www.w3.org/2001/XMLSchema-instance" xsi:schemaLocation="http://www.topografix.com/GPX/1/1 http://www.topografix.com/GPX/1/1/gpx.xsd" version="1.1" creator="VisuGPX - https://www.visugpx.com">
  <metadata>
    <name>Lurs - Ganagobie</name>
  </metadata>
  <trk>
    <name><![CDATA[Lurs - Ganagobie_1]]></name>
    <trkseg>
      <trkpt lat="43.96761" lon="5.88891">
        <ele>577</ele>
        <time>2020-10-05T08:12:10.000Z</time>
      </trkpt>
      <trkpt lat="43.96761" lon="5.88891">
        <ele>578</ele>
        <time>2020-10-05T08:12:13.000Z</time>
      </trkpt>
      <trkpt lat="43.96761" lon="5.88891">
        <ele>577</ele>
        <time>2020-10-05T08:12:14.000Z</time>
      </trkpt>
      <trkpt lat="43.96761" lon="5.88893">
        <ele>578</ele>
        <time>2020-10-05T08:12:15.000Z</time>
      </trkpt>
      <trkpt lat="43.96761" lon="5.88892">
        <ele>573</ele>
        <time>2020-10-05T08:12:16.000Z</time>
      </trkpt>
      <trkpt lat="43.96761" lon="5.88892">
        <ele>571</ele>
        <time>2020-10-05T08:12:17.000Z</time>
      </trkpt>
      <trkpt lat="43.96762" lon="5.88892">
        <ele>569</ele>
        <time>2020-10-05T08:12:18.000Z</time>
      </trkpt>
      <trkpt lat="43.96762" lon="5.88893">
        <ele>569</ele>
        <time>2020-10-05T08:12:19.000Z</time>
      </trkpt>
      <trkpt lat="43.96762" lon="5.88893">
        <ele>568</ele>
        <time>2020-10-05T08:12:20.000Z</time>
      </trkpt>
      <trkpt lat="43.96762" lon="5.88893">
        <ele>569</ele>
        <time>2020-10-05T08:12:21.000Z</time>
      </trkpt>
      <trkpt lat="43.96762" lon="5.88893">
        <ele>569</ele>
        <time>2020-10-05T08:12:22.000Z</time>
      </trkpt>
      <trkpt lat="43.96762" lon="5.88894">
        <ele>570</ele>
        <time>2020-10-05T08:12:23.000Z</time>
      </trkpt>
      <trkpt lat="43.96762" lon="5.88894">
        <ele>570</ele>
        <time>2020-10-05T08:12:24.000Z</time>
      </trkpt>
      <trkpt lat="43.96762" lon="5.88895">
        <ele>571</ele>
        <time>2020-10-05T08:12:25.000Z</time>
      </trkpt>
      <trkpt lat="43.96762" lon="5.88895">
        <ele>571</ele>
        <time>2020-10-05T08:12:26.000Z</time>
      </trkpt>
      <trkpt lat="43.96763" lon="5.88894">
        <ele>570</ele>
        <time>2020-10-05T08:12:27.000Z</time>
      </trkpt>
      <trkpt lat="43.96763" lon="5.88893">
        <ele>570</ele>
        <time>2020-10-05T08:12:28.000Z</time>
      </trkpt>
      <trkpt lat="43.96763" lon="5.88892">
        <ele>571</ele>
        <time>2020-10-05T08:12:29.000Z</time>
      </trkpt>
      <trkpt lat="43.96764" lon="5.88892">
        <ele>571</ele>
        <time>2020-10-05T08:12:30.000Z</time>
      </trkpt>
      <trkpt lat="43.96764" lon="5.88891">
        <ele>572</ele>
        <time>2020-10-05T08:12:31.000Z</time>
      </trkpt>
      <trkpt lat="43.96764" lon="5.8889">
        <ele>571</ele>
        <time>2020-10-05T08:12:32.000Z</time>
      </trkpt>
      <trkpt lat="43.96764" lon="5.8889">
        <ele>572</ele>
        <time>2020-10-05T08:12:33.000Z</time>
      </trkpt>
      <trkpt lat="43.96764" lon="5.8889">
        <ele>573</ele>
        <time>2020-10-05T08:12:34.000Z</time>
      </trkpt>
      <trkpt lat="43.96764" lon="5.88889">
        <ele>572</ele>
        <time>2020-10-05T08:12:35.000Z</time>
      </trkpt>
      <trkpt lat="43.96764" lon="5.88889">
        <ele>572</ele>
        <time>2020-10-05T08:12:36.000Z</time>
      </trkpt>
      <trkpt lat="43.96764" lon="5.88889">
        <ele>573</ele>
        <time>2020-10-05T08:12:37.000Z</time>
      </trkpt>
      <trkpt lat="43.96764" lon="5.88889">
        <ele>575</ele>
        <time>2020-10-05T08:12:38.000Z</time>
      </trkpt>
      <trkpt lat="43.96764" lon="5.8889">
        <ele>576</ele>
        <time>2020-10-05T08:12:39.000Z</time>
      </trkpt>
      <trkpt lat="43.96763" lon="5.8889">
        <ele>576</ele>
        <time>2020-10-05T08:12:40.000Z</time>
      </trkpt>
      <trkpt lat="43.96763" lon="5.8889">
        <ele>576</ele>
        <time>2020-10-05T08:12:41.000Z</time>
      </trkpt>
      <trkpt lat="43.96763" lon="5.8889">
        <ele>576</ele>
        <time>2020-10-05T08:12:42.000Z</time>
      </trkpt>
      <trkpt lat="43.96763" lon="5.8889">
        <ele>576</ele>
        <time>2020-10-05T08:12:43.000Z</time>
      </trkpt>
      <trkpt lat="43.96763" lon="5.8889">
        <ele>576</ele>
        <time>2020-10-05T08:12:44.000Z</time>
      </trkpt>
      <trkpt lat="43.96763" lon="5.8889">
        <ele>576</ele>
        <time>2020-10-05T08:12:45.000Z</time>
      </trkpt>
      <trkpt lat="43.96763" lon="5.8889">
        <ele>577</ele>
        <time>2020-10-05T08:12:46.000Z</time>
      </trkpt>
      <trkpt lat="43.96763" lon="5.8889">
        <ele>577</ele>
        <time>2020-10-05T08:12:47.000Z</time>
      </trkpt>
      <trkpt lat="43.96763" lon="5.8889">
        <ele>577</ele>
        <time>2020-10-05T08:12:48.000Z</time>
      </trkpt>
      <trkpt lat="43.96763" lon="5.8889">
        <ele>577</ele>
        <time>2020-10-05T08:12:49.000Z</time>
      </trkpt>
      <trkpt lat="43.96763" lon="5.8889">
        <ele>577</ele>
        <time>2020-10-05T08:12:50.000Z</time>
      </trkpt>
      <trkpt lat="43.96763" lon="5.8889">
        <ele>578</ele>
        <time>2020-10-05T08:12:51.000Z</time>
      </trkpt>
      <trkpt lat="43.96762" lon="5.8889">
        <ele>578</ele>
        <time>2020-10-05T08:12:52.000Z</time>
      </trkpt>
      <trkpt lat="43.96762" lon="5.8889">
        <ele>578</ele>
        <time>2020-10-05T08:12:53.000Z</time>
      </trkpt>
      <trkpt lat="43.96762" lon="5.8889">
        <ele>578</ele>
        <time>2020-10-05T08:12:54.000Z</time>
      </trkpt>
      <trkpt lat="43.96762" lon="5.8889">
        <ele>578</ele>
        <time>2020-10-05T08:12:55.000Z</time>
      </trkpt>
      <trkpt lat="43.96762" lon="5.8889">
        <ele>578</ele>
        <time>2020-10-05T08:12:56.000Z</time>
      </trkpt>
      <trkpt lat="43.96762" lon="5.8889">
        <ele>578</ele>
        <time>2020-10-05T08:12:57.000Z</time>
      </trkpt>
      <trkpt lat="43.96762" lon="5.8889">
        <ele>579</ele>
        <time>2020-10-05T08:12:58.000Z</time>
      </trkpt>
      <trkpt lat="43.96762" lon="5.8889">
        <ele>579</ele>
        <time>2020-10-05T08:12:59.000Z</time>
      </trkpt>
      <trkpt lat="43.96762" lon="5.8889">
        <ele>579</ele>
        <time>2020-10-05T08:13:00.000Z</time>
      </trkpt>
      <trkpt lat="43.96762" lon="5.8889">
        <ele>579</ele>
        <time>2020-10-05T08:13:01.000Z</time>
      </trkpt>
      <trkpt lat="43.96762" lon="5.8889">
        <ele>579</ele>
        <time>2020-10-05T08:13:02.000Z</time>
      </trkpt>
      <trkpt lat="43.96762" lon="5.8889">
        <ele>579</ele>
        <time>2020-10-05T08:13:03.000Z</time>
      </trkpt>
      <trkpt lat="43.96762" lon="5.8889">
        <ele>579</ele>
        <time>2020-10-05T08:13:04.000Z</time>
      </trkpt>
      <trkpt lat="43.96762" lon="5.8889">
        <ele>579</ele>
        <time>2020-10-05T08:13:05.000Z</time>
      </trkpt>
      <trkpt lat="43.96762" lon="5.8889">
        <ele>578</ele>
        <time>2020-10-05T08:13:06.000Z</time>
      </trkpt>
      <trkpt lat="43.96762" lon="5.8889">
        <ele>578</ele>
        <time>2020-10-05T08:13:07.000Z</time>
      </trkpt>
      <trkpt lat="43.96762" lon="5.8889">
        <ele>578</ele>
        <time>2020-10-05T08:13:08.000Z</time>
      </trkpt>
      <trkpt lat="43.96761" lon="5.8889">
        <ele>578</ele>
        <time>2020-10-05T08:13:09.000Z</time>
      </trkpt>
      <trkpt lat="43.96761" lon="5.8889">
        <ele>578</ele>
        <time>2020-10-05T08:13:10.000Z</time>
      </trkpt>
      <trkpt lat="43.96761" lon="5.8889">
        <ele>578</ele>
        <time>2020-10-05T08:13:11.000Z</time>
      </trkpt>
      <trkpt lat="43.96761" lon="5.8889">
        <ele>578</ele>
        <time>2020-10-05T08:13:12.000Z</time>
      </trkpt>
      <trkpt lat="43.96761" lon="5.8889">
        <ele>578</ele>
        <time>2020-10-05T08:13:13.000Z</time>
      </trkpt>
      <trkpt lat="43.96761" lon="5.8889">
        <ele>578</ele>
        <time>2020-10-05T08:13:14.000Z</time>
      </trkpt>
      <trkpt lat="43.96761" lon="5.8889">
        <ele>578</ele>
        <time>2020-10-05T08:13:15.000Z</time>
      </trkpt>
      <trkpt lat="43.96761" lon="5.8889">
        <ele>578</ele>
        <time>2020-10-05T08:13:16.000Z</time>
      </trkpt>
      <trkpt lat="43.96761" lon="5.8889">
        <ele>578</ele>
        <time>2020-10-05T08:13:17.000Z</time>
      </trkpt>
      <trkpt lat="43.96761" lon="5.8889">
        <ele>578</ele>
        <time>2020-10-05T08:13:18.000Z</time>
      </trkpt>
      <trkpt lat="43.96761" lon="5.8889">
        <ele>577</ele>
        <time>2020-10-05T08:13:19.000Z</time>
      </trkpt>
      <trkpt lat="43.96761" lon="5.8889">
        <ele>577</ele>
        <time>2020-10-05T08:13:20.000Z</time>
      </trkpt>
      <trkpt lat="43.96761" lon="5.8889">
        <ele>577</ele>
        <time>2020-10-05T08:13:21.000Z</time>
      </trkpt>
      <trkpt lat="43.96761" lon="5.8889">
        <ele>577</ele>
        <time>2020-10-05T08:13:22.000Z</time>
      </trkpt>
      <trkpt lat="43.96761" lon="5.8889">
        <ele>577</ele>
        <time>2020-10-05T08:13:23.000Z</time>
      </trkpt>
      <trkpt lat="43.96761" lon="5.8889">
        <ele>577</ele>
        <time>2020-10-05T08:13:24.000Z</time>
      </trkpt>
      <trkpt lat="43.96761" lon="5.8889">
        <ele>577</ele>
        <time>2020-10-05T08:13:25.000Z</time>
      </trkpt>
      <trkpt lat="43.96761" lon="5.8889">
        <ele>577</ele>
        <time>2020-10-05T08:13:26.000Z</time>
      </trkpt>
      <trkpt lat="43.96761" lon="5.8889">
        <ele>577</ele>
        <time>2020-10-05T08:13:27.000Z</time>
      </trkpt>
      <trkpt lat="43.96761" lon="5.8889">
        <ele>577</ele>
        <time>2020-10-05T08:13:28.000Z</time>
      </trkpt>
      <trkpt lat="43.96761" lon="5.8889">
        <ele>577</ele>
        <time>2020-10-05T08:13:29.000Z</time>
      </trkpt>
      <trkpt lat="43.96761" lon="5.8889">
        <ele>577</ele>
        <time>2020-10-05T08:13:30.000Z</time>
      </trkpt>
      <trkpt lat="43.96761" lon="5.8889">
        <ele>577</ele>
        <time>2020-10-05T08:13:31.000Z</time>
      </trkpt>
      <trkpt lat="43.96761" lon="5.8889">
        <ele>577</ele>
        <time>2020-10-05T08:13:32.000Z</time>
      </trkpt>
      <trkpt lat="43.96761" lon="5.8889">
        <ele>577</ele>
        <time>2020-10-05T08:13:33.000Z</time>
      </trkpt>
      <trkpt lat="43.96761" lon="5.8889">
        <ele>577</ele>
        <time>2020-10-05T08:13:34.000Z</time>
      </trkpt>
      <trkpt lat="43.96761" lon="5.8889">
        <ele>577</ele>
        <time>2020-10-05T08:13:35.000Z</time>
      </trkpt>
      <trkpt lat="43.96761" lon="5.8889">
        <ele>577</ele>
        <time>2020-10-05T08:13:36.000Z</time>
      </trkpt>
      <trkpt lat="43.96761" lon="5.88891">
        <ele>577</ele>
        <time>2020-10-05T08:13:37.000Z</time>
      </trkpt>
      <trkpt lat="43.96761" lon="5.88891">
        <ele>577</ele>
        <time>2020-10-05T08:13:38.000Z</time>
      </trkpt>
      <trkpt lat="43.96761" lon="5.88891">
        <ele>577</ele>
        <time>2020-10-05T08:13:39.000Z</time>
      </trkpt>
      <trkpt lat="43.96761" lon="5.88892">
        <ele>577</ele>
        <time>2020-10-05T08:13:40.000Z</time>
      </trkpt>
      <trkpt lat="43.96761" lon="5.88892">
        <ele>577</ele>
        <time>2020-10-05T08:13:41.000Z</time>
      </trkpt>
      <trkpt lat="43.96761" lon="5.88893">
        <ele>577</ele>
        <time>2020-10-05T08:13:42.000Z</time>
      </trkpt>
      <trkpt lat="43.96761" lon="5.88893">
        <ele>577</ele>
        <time>2020-10-05T08:13:43.000Z</time>
      </trkpt>
      <trkpt lat="43.96761" lon="5.88893">
        <ele>577</ele>
        <time>2020-10-05T08:13:44.000Z</time>
      </trkpt>
      <trkpt lat="43.96761" lon="5.88893">
        <ele>577</ele>
        <time>2020-10-05T08:13:45.000Z</time>
      </trkpt>
      <trkpt lat="43.96761" lon="5.88893">
        <ele>577</ele>
        <time>2020-10-05T08:13:46.000Z</time>
      </trkpt>
      <trkpt lat="43.96761" lon="5.88893">
        <ele>577</ele>
        <time>2020-10-05T08:13:47.000Z</time>
      </trkpt>
      <trkpt lat="43.96761" lon="5.88893">
        <ele>577</ele>
        <time>2020-10-05T08:13:48.000Z</time>
      </trkpt>
      <trkpt lat="43.96761" lon="5.88893">
        <ele>577</ele>
        <time>2020-10-05T08:13:49.000Z</time>
      </trkpt>
      <trkpt lat="43.96761" lon="5.88893">
        <ele>578</ele>
        <time>2020-10-05T08:13:50.000Z</time>
      </trkpt>
      <trkpt lat="43.96761" lon="5.88893">
        <ele>578</ele>
        <time>2020-10-05T08:13:51.000Z</time>
      </trkpt>
      <trkpt lat="43.96761" lon="5.88893">
        <ele>578</ele>
        <time>2020-10-05T08:13:52.000Z</time>
      </trkpt>
      <trkpt lat="43.96761" lon="5.88893">
        <ele>578</ele>
        <time>2020-10-05T08:13:53.000Z</time>
      </trkpt>
      <trkpt lat="43.96761" lon="5.88893">
        <ele>578</ele>
        <time>2020-10-05T08:13:54.000Z</time>
      </trkpt>
      <trkpt lat="43.96761" lon="5.88893">
        <ele>578</ele>
        <time>2020-10-05T08:13:55.000Z</time>
      </trkpt>
      <trkpt lat="43.96761" lon="5.88893">
        <ele>578</ele>
        <time>2020-10-05T08:13:56.000Z</time>
      </trkpt>
      <trkpt lat="43.96761" lon="5.88893">
        <ele>578</ele>
        <time>2020-10-05T08:13:57.000Z</time>
      </trkpt>
      <trkpt lat="43.96761" lon="5.88893">
        <ele>578</ele>
        <time>2020-10-05T08:13:58.000Z</time>
      </trkpt>
      <trkpt lat="43.96761" lon="5.88893">
        <ele>578</ele>
        <time>2020-10-05T08:13:59.000Z</time>
      </trkpt>
      <trkpt lat="43.96761" lon="5.88893">
        <ele>578</ele>
        <time>2020-10-05T08:14:00.000Z</time>
      </trkpt>
      <trkpt lat="43.96761" lon="5.88894">
        <ele>578</ele>
        <time>2020-10-05T08:14:01.000Z</time>
      </trkpt>
      <trkpt lat="43.96761" lon="5.88894">
        <ele>578</ele>
        <time>2020-10-05T08:14:02.000Z</time>
      </trkpt>
      <trkpt lat="43.96761" lon="5.88895">
        <ele>578</ele>
        <time>2020-10-05T08:14:03.000Z</time>
      </trkpt>
      <trkpt lat="43.96761" lon="5.88895">
        <ele>578</ele>
        <time>2020-10-05T08:14:04.000Z</time>
      </trkpt>
      <trkpt lat="43.96761" lon="5.88895">
        <ele>578</ele>
        <time>2020-10-05T08:14:05.000Z</time>
      </trkpt>
      <trkpt lat="43.96762" lon="5.88895">
        <ele>578</ele>
        <time>2020-10-05T08:14:06.000Z</time>
      </trkpt>
      <trkpt lat="43.96762" lon="5.88895">
        <ele>578</ele>
        <time>2020-10-05T08:14:07.000Z</time>
      </trkpt>
      <trkpt lat="43.96762" lon="5.88895">
        <ele>578</ele>
        <time>2020-10-05T08:14:08.000Z</time>
      </trkpt>
      <trkpt lat="43.96762" lon="5.88895">
        <ele>578</ele>
        <time>2020-10-05T08:14:09.000Z</time>
      </trkpt>
      <trkpt lat="43.96762" lon="5.88895">
        <ele>578</ele>
        <time>2020-10-05T08:14:10.000Z</time>
      </trkpt>
      <trkpt lat="43.96762" lon="5.88895">
        <ele>578</ele>
        <time>2020-10-05T08:14:11.000Z</time>
      </trkpt>
      <trkpt lat="43.96762" lon="5.88895">
        <ele>578</ele>
        <time>2020-10-05T08:14:12.000Z</time>
      </trkpt>
      <trkpt lat="43.96762" lon="5.88895">
        <ele>578</ele>
        <time>2020-10-05T08:14:13.000Z</time>
      </trkpt>
      <trkpt lat="43.96762" lon="5.88895">
        <ele>578</ele>
        <time>2020-10-05T08:14:14.000Z</time>
      </trkpt>
      <trkpt lat="43.96762" lon="5.88895">
        <ele>578</ele>
        <time>2020-10-05T08:14:15.000Z</time>
      </trkpt>
      <trkpt lat="43.96762" lon="5.88895">
        <ele>578</ele>
        <time>2020-10-05T08:14:16.000Z</time>
      </trkpt>
      <trkpt lat="43.96762" lon="5.88895">
        <ele>578</ele>
        <time>2020-10-05T08:14:17.000Z</time>
      </trkpt>
      <trkpt lat="43.96762" lon="5.88895">
        <ele>578</ele>
        <time>2020-10-05T08:14:18.000Z</time>
      </trkpt>
      <trkpt lat="43.96762" lon="5.88896">
        <ele>578</ele>
        <time>2020-10-05T08:14:19.000Z</time>
      </trkpt>
      <trkpt lat="43.96762" lon="5.88896">
        <ele>578</ele>
        <time>2020-10-05T08:14:20.000Z</time>
      </trkpt>
      <trkpt lat="43.96762" lon="5.88896">
        <ele>578</ele>
        <time>2020-10-05T08:14:21.000Z</time>
      </trkpt>
      <trkpt lat="43.96762" lon="5.88896">
        <ele>578</ele>
        <time>2020-10-05T08:14:22.000Z</time>
      </trkpt>
      <trkpt lat="43.96762" lon="5.88896">
        <ele>578</ele>
        <time>2020-10-05T08:14:23.000Z</time>
      </trkpt>
      <trkpt lat="43.96762" lon="5.88896">
        <ele>578</ele>
        <time>2020-10-05T08:14:24.000Z</time>
      </trkpt>
      <trkpt lat="43.96762" lon="5.88896">
        <ele>578</ele>
        <time>2020-10-05T08:14:25.000Z</time>
      </trkpt>
      <trkpt lat="43.96762" lon="5.88896">
        <ele>578</ele>
        <time>2020-10-05T08:14:26.000Z</time>
      </trkpt>
      <trkpt lat="43.96762" lon="5.88896">
        <ele>578</ele>
        <time>2020-10-05T08:14:27.000Z</time>
      </trkpt>
      <trkpt lat="43.96762" lon="5.88896">
        <ele>578</ele>
        <time>2020-10-05T08:14:28.000Z</time>
      </trkpt>
      <trkpt lat="43.96762" lon="5.88896">
        <ele>578</ele>
        <time>2020-10-05T08:14:29.000Z</time>
      </trkpt>
      <trkpt lat="43.96762" lon="5.88896">
        <ele>578</ele>
        <time>2020-10-05T08:14:30.000Z</time>
      </trkpt>
      <trkpt lat="43.96762" lon="5.88896">
        <ele>578</ele>
        <time>2020-10-05T08:14:31.000Z</time>
      </trkpt>
      <trkpt lat="43.96762" lon="5.88896">
        <ele>578</ele>
        <time>2020-10-05T08:14:32.000Z</time>
      </trkpt>
      <trkpt lat="43.96762" lon="5.88896">
        <ele>578</ele>
        <time>2020-10-05T08:14:33.000Z</time>
      </trkpt>
      <trkpt lat="43.96762" lon="5.88896">
        <ele>578</ele>
        <time>2020-10-05T08:14:34.000Z</time>
      </trkpt>
      <trkpt lat="43.96762" lon="5.88896">
        <ele>578</ele>
        <time>2020-10-05T08:14:35.000Z</time>
      </trkpt>
      <trkpt lat="43.96762" lon="5.88896">
        <ele>578</ele>
        <time>2020-10-05T08:14:36.000Z</time>
      </trkpt>
      <trkpt lat="43.96762" lon="5.88896">
        <ele>578</ele>
        <time>2020-10-05T08:14:37.000Z</time>
      </trkpt>
      <trkpt lat="43.96762" lon="5.88896">
        <ele>578</ele>
        <time>2020-10-05T08:14:38.000Z</time>
      </trkpt>
      <trkpt lat="43.96762" lon="5.88896">
        <ele>578</ele>
        <time>2020-10-05T08:14:39.000Z</time>
      </trkpt>
      <trkpt lat="43.96762" lon="5.88896">
        <ele>578</ele>
        <time>2020-10-05T08:14:40.000Z</time>
      </trkpt>
      <trkpt lat="43.96762" lon="5.88896">
        <ele>578</ele>
        <time>2020-10-05T08:14:41.000Z</time>
      </trkpt>
      <trkpt lat="43.96762" lon="5.88896">
        <ele>578</ele>
        <time>2020-10-05T08:14:42.000Z</time>
      </trkpt>
      <trkpt lat="43.96762" lon="5.88896">
        <ele>578</ele>
        <time>2020-10-05T08:14:43.000Z</time>
      </trkpt>
      <trkpt lat="43.96762" lon="5.88896">
        <ele>578</ele>
        <time>2020-10-05T08:14:44.000Z</time>
      </trkpt>
      <trkpt lat="43.96762" lon="5.88896">
        <ele>578</ele>
        <time>2020-10-05T08:14:45.000Z</time>
      </trkpt>
      <trkpt lat="43.96762" lon="5.88896">
        <ele>578</ele>
        <time>2020-10-05T08:14:46.000Z</time>
      </trkpt>
      <trkpt lat="43.96762" lon="5.88896">
        <ele>578</ele>
        <time>2020-10-05T08:14:47.000Z</time>
      </trkpt>
      <trkpt lat="43.96762" lon="5.88896">
        <ele>578</ele>
        <time>2020-10-05T08:14:48.000Z</time>
      </trkpt>
      <trkpt lat="43.96762" lon="5.88896">
        <ele>578</ele>
        <time>2020-10-05T08:14:49.000Z</time>
      </trkpt>
      <trkpt lat="43.96762" lon="5.88895">
        <ele>578</ele>
        <time>2020-10-05T08:14:50.000Z</time>
      </trkpt>
      <trkpt lat="43.96763" lon="5.88894">
        <ele>578</ele>
        <time>2020-10-05T08:14:51.000Z</time>
      </trkpt>
      <trkpt lat="43.96763" lon="5.88893">
        <ele>579</ele>
        <time>2020-10-05T08:14:52.000Z</time>
      </trkpt>
      <trkpt lat="43.96763" lon="5.88892">
        <ele>579</ele>
        <time>2020-10-05T08:14:53.000Z</time>
      </trkpt>
      <trkpt lat="43.96763" lon="5.88892">
        <ele>579</ele>
        <time>2020-10-05T08:14:54.000Z</time>
      </trkpt>
      <trkpt lat="43.96763" lon="5.88892">
        <ele>579</ele>
        <time>2020-10-05T08:14:55.000Z</time>
      </trkpt>
      <trkpt lat="43.96763" lon="5.88892">
        <ele>579</ele>
        <time>2020-10-05T08:14:56.000Z</time>
      </trkpt>
      <trkpt lat="43.96763" lon="5.88892">
        <ele>579</ele>
        <time>2020-10-05T08:14:57.000Z</time>
      </trkpt>
      <trkpt lat="43.96763" lon="5.88891">
        <ele>579</ele>
        <time>2020-10-05T08:14:58.000Z</time>
      </trkpt>
      <trkpt lat="43.96763" lon="5.88892">
        <ele>579</ele>
        <time>2020-10-05T08:14:59.000Z</time>
      </trkpt>
      <trkpt lat="43.96763" lon="5.88892">
        <ele>579</ele>
        <time>2020-10-05T08:15:00.000Z</time>
      </trkpt>
      <trkpt lat="43.96763" lon="5.88892">
        <ele>579</ele>
        <time>2020-10-05T08:15:01.000Z</time>
      </trkpt>
      <trkpt lat="43.96763" lon="5.88892">
        <ele>579</ele>
        <time>2020-10-05T08:15:02.000Z</time>
      </trkpt>
      <trkpt lat="43.96763" lon="5.88893">
        <ele>579</ele>
        <time>2020-10-05T08:15:03.000Z</time>
      </trkpt>
      <trkpt lat="43.96762" lon="5.88894">
        <ele>578</ele>
        <time>2020-10-05T08:15:04.000Z</time>
      </trkpt>
      <trkpt lat="43.96762" lon="5.88895">
        <ele>578</ele>
        <time>2020-10-05T08:15:05.000Z</time>
      </trkpt>
      <trkpt lat="43.96762" lon="5.88895">
        <ele>578</ele>
        <time>2020-10-05T08:15:06.000Z</time>
      </trkpt>
      <trkpt lat="43.96761" lon="5.88896">
        <ele>578</ele>
        <time>2020-10-05T08:15:07.000Z</time>
      </trkpt>
      <trkpt lat="43.96761" lon="5.88896">
        <ele>578</ele>
        <time>2020-10-05T08:15:08.000Z</time>
      </trkpt>
      <trkpt lat="43.96761" lon="5.88896">
        <ele>578</ele>
        <time>2020-10-05T08:15:09.000Z</time>
      </trkpt>
      <trkpt lat="43.96761" lon="5.88896">
        <ele>578</ele>
        <time>2020-10-05T08:15:10.000Z</time>
      </trkpt>
      <trkpt lat="43.96761" lon="5.88897">
        <ele>578</ele>
        <time>2020-10-05T08:15:11.000Z</time>
      </trkpt>
      <trkpt lat="43.96761" lon="5.88897">
        <ele>578</ele>
        <time>2020-10-05T08:15:12.000Z</time>
      </trkpt>
      <trkpt lat="43.9676" lon="5.88897">
        <ele>578</ele>
        <time>2020-10-05T08:15:13.000Z</time>
      </trkpt>
      <trkpt lat="43.9676" lon="5.88897">
        <ele>578</ele>
        <time>2020-10-05T08:15:14.000Z</time>
      </trkpt>
      <trkpt lat="43.96759" lon="5.88897">
        <ele>578</ele>
        <time>2020-10-05T08:15:15.000Z</time>
      </trkpt>
      <trkpt lat="43.96759" lon="5.88897">
        <ele>578</ele>
        <time>2020-10-05T08:15:16.000Z</time>
      </trkpt>
      <trkpt lat="43.9676" lon="5.88897">
        <ele>578</ele>
        <time>2020-10-05T08:15:17.000Z</time>
      </trkpt>
      <trkpt lat="43.9676" lon="5.88897">
        <ele>578</ele>
        <time>2020-10-05T08:15:18.000Z</time>
      </trkpt>
      <trkpt lat="43.9676" lon="5.88897">
        <ele>579</ele>
        <time>2020-10-05T08:15:19.000Z</time>
      </trkpt>
      <trkpt lat="43.9676" lon="5.88898">
        <ele>579</ele>
        <time>2020-10-05T08:15:20.000Z</time>
      </trkpt>
      <trkpt lat="43.9676" lon="5.88898">
        <ele>579</ele>
        <time>2020-10-05T08:15:21.000Z</time>
      </trkpt>
      <trkpt lat="43.9676" lon="5.88898">
        <ele>579</ele>
        <time>2020-10-05T08:15:22.000Z</time>
      </trkpt>
      <trkpt lat="43.9676" lon="5.88898">
        <ele>579</ele>
        <time>2020-10-05T08:15:23.000Z</time>
      </trkpt>
      <trkpt lat="43.9676" lon="5.88898">
        <ele>579</ele>
        <time>2020-10-05T08:15:24.000Z</time>
      </trkpt>
      <trkpt lat="43.9676" lon="5.88898">
        <ele>579</ele>
        <time>2020-10-05T08:15:25.000Z</time>
      </trkpt>
      <trkpt lat="43.9676" lon="5.88897">
        <ele>579</ele>
        <time>2020-10-05T08:15:26.000Z</time>
      </trkpt>
      <trkpt lat="43.9676" lon="5.88897">
        <ele>579</ele>
        <time>2020-10-05T08:15:27.000Z</time>
      </trkpt>
      <trkpt lat="43.9676" lon="5.88897">
        <ele>579</ele>
        <time>2020-10-05T08:15:28.000Z</time>
      </trkpt>
      <trkpt lat="43.9676" lon="5.88897">
        <ele>579</ele>
        <time>2020-10-05T08:15:29.000Z</time>
      </trkpt>
      <trkpt lat="43.9676" lon="5.88898">
        <ele>579</ele>
        <time>2020-10-05T08:15:30.000Z</time>
      </trkpt>
      <trkpt lat="43.9676" lon="5.88898">
        <ele>579</ele>
        <time>2020-10-05T08:15:31.000Z</time>
      </trkpt>
      <trkpt lat="43.9676" lon="5.88898">
        <ele>579</ele>
        <time>2020-10-05T08:15:32.000Z</time>
      </trkpt>
      <trkpt lat="43.9676" lon="5.88899">
        <ele>579</ele>
        <time>2020-10-05T08:15:33.000Z</time>
      </trkpt>
      <trkpt lat="43.9676" lon="5.88899">
        <ele>579</ele>
        <time>2020-10-05T08:15:34.000Z</time>
      </trkpt>
      <trkpt lat="43.9676" lon="5.88899">
        <ele>579</ele>
        <time>2020-10-05T08:15:35.000Z</time>
      </trkpt>
      <trkpt lat="43.9676" lon="5.88899">
        <ele>579</ele>
        <time>2020-10-05T08:15:36.000Z</time>
      </trkpt>
      <trkpt lat="43.9676" lon="5.88899">
        <ele>579</ele>
        <time>2020-10-05T08:15:37.000Z</time>
      </trkpt>
      <trkpt lat="43.96761" lon="5.88899">
        <ele>579</ele>
        <time>2020-10-05T08:15:38.000Z</time>
      </trkpt>
      <trkpt lat="43.96762" lon="5.889">
        <ele>579</ele>
        <time>2020-10-05T08:15:39.000Z</time>
      </trkpt>
      <trkpt lat="43.96763" lon="5.889">
        <ele>579</ele>
        <time>2020-10-05T08:15:40.000Z</time>
      </trkpt>
      <trkpt lat="43.96764" lon="5.88901">
        <ele>579</ele>
        <time>2020-10-05T08:15:41.000Z</time>
      </trkpt>
      <trkpt lat="43.96765" lon="5.88902">
        <ele>579</ele>
        <time>2020-10-05T08:15:42.000Z</time>
      </trkpt>
      <trkpt lat="43.96766" lon="5.88902">
        <ele>579</ele>
        <time>2020-10-05T08:15:43.000Z</time>
      </trkpt>
      <trkpt lat="43.96767" lon="5.88903">
        <ele>579</ele>
        <time>2020-10-05T08:15:44.000Z</time>
      </trkpt>
      <trkpt lat="43.96768" lon="5.88903">
        <ele>579</ele>
        <time>2020-10-05T08:15:45.000Z</time>
      </trkpt>
      <trkpt lat="43.96769" lon="5.88904">
        <ele>579</ele>
        <time>2020-10-05T08:15:46.000Z</time>
      </trkpt>
      <trkpt lat="43.9677" lon="5.88904">
        <ele>579</ele>
        <time>2020-10-05T08:15:47.000Z</time>
      </trkpt>
      <trkpt lat="43.96771" lon="5.88905">
        <ele>579</ele>
        <time>2020-10-05T08:15:48.000Z</time>
      </trkpt>
      <trkpt lat="43.96772" lon="5.88906">
        <ele>579</ele>
        <time>2020-10-05T08:15:49.000Z</time>
      </trkpt>
      <trkpt lat="43.96773" lon="5.88906">
        <ele>579</ele>
        <time>2020-10-05T08:15:50.000Z</time>
      </trkpt>
      <trkpt lat="43.96773" lon="5.88907">
        <ele>579</ele>
        <time>2020-10-05T08:15:51.000Z</time>
      </trkpt>
      <trkpt lat="43.96774" lon="5.88908">
        <ele>578</ele>
        <time>2020-10-05T08:15:52.000Z</time>
      </trkpt>
      <trkpt lat="43.96775" lon="5.88909">
        <ele>578</ele>
        <time>2020-10-05T08:15:53.000Z</time>
      </trkpt>
      <trkpt lat="43.96776" lon="5.88909">
        <ele>578</ele>
        <time>2020-10-05T08:15:54.000Z</time>
      </trkpt>
      <trkpt lat="43.96776" lon="5.8891">
        <ele>578</ele>
        <time>2020-10-05T08:15:55.000Z</time>
      </trkpt>
      <trkpt lat="43.96777" lon="5.88911">
        <ele>578</ele>
        <time>2020-10-05T08:15:56.000Z</time>
      </trkpt>
      <trkpt lat="43.96778" lon="5.88911">
        <ele>578</ele>
        <time>2020-10-05T08:15:57.000Z</time>
      </trkpt>
      <trkpt lat="43.96779" lon="5.88912">
        <ele>578</ele>
        <time>2020-10-05T08:15:58.000Z</time>
      </trkpt>
      <trkpt lat="43.96779" lon="5.88913">
        <ele>577</ele>
        <time>2020-10-05T08:15:59.000Z</time>
      </trkpt>
      <trkpt lat="43.9678" lon="5.88914">
        <ele>577</ele>
        <time>2020-10-05T08:16:00.000Z</time>
      </trkpt>
      <trkpt lat="43.9678" lon="5.88916">
        <ele>577</ele>
        <time>2020-10-05T08:16:01.000Z</time>
      </trkpt>
      <trkpt lat="43.9678" lon="5.88917">
        <ele>577</ele>
        <time>2020-10-05T08:16:02.000Z</time>
      </trkpt>
      <trkpt lat="43.9678" lon="5.88918">
        <ele>577</ele>
        <time>2020-10-05T08:16:03.000Z</time>
      </trkpt>
      <trkpt lat="43.96779" lon="5.88919">
        <ele>577</ele>
        <time>2020-10-05T08:16:04.000Z</time>
      </trkpt>
      <trkpt lat="43.96779" lon="5.88919">
        <ele>577</ele>
        <time>2020-10-05T08:16:05.000Z</time>
      </trkpt>
      <trkpt lat="43.96778" lon="5.8892">
        <ele>577</ele>
        <time>2020-10-05T08:16:06.000Z</time>
      </trkpt>
      <trkpt lat="43.96778" lon="5.88921">
        <ele>577</ele>
        <time>2020-10-05T08:16:07.000Z</time>
      </trkpt>
      <trkpt lat="43.96778" lon="5.88922">
        <ele>577</ele>
        <time>2020-10-05T08:16:08.000Z</time>
      </trkpt>
      <trkpt lat="43.96777" lon="5.88922">
        <ele>577</ele>
        <time>2020-10-05T08:16:09.000Z</time>
      </trkpt>
      <trkpt lat="43.96777" lon="5.88923">
        <ele>577</ele>
        <time>2020-10-05T08:16:10.000Z</time>
      </trkpt>
      <trkpt lat="43.96776" lon="5.88924">
        <ele>577</ele>
        <time>2020-10-05T08:16:11.000Z</time>
      </trkpt>
      <trkpt lat="43.96775" lon="5.88925">
        <ele>577</ele>
        <time>2020-10-05T08:16:12.000Z</time>
      </trkpt>
      <trkpt lat="43.96775" lon="5.88925">
        <ele>577</ele>
        <time>2020-10-05T08:16:13.000Z</time>
      </trkpt>
      <trkpt lat="43.96775" lon="5.88925">
        <ele>577</ele>
        <time>2020-10-05T08:16:14.000Z</time>
      </trkpt>
      <trkpt lat="43.96775" lon="5.88925">
        <ele>577</ele>
        <time>2020-10-05T08:16:15.000Z</time>
      </trkpt>
      <trkpt lat="43.96775" lon="5.88925">
        <ele>577</ele>
        <time>2020-10-05T08:16:16.000Z</time>
      </trkpt>
      <trkpt lat="43.96775" lon="5.88925">
        <ele>577</ele>
        <time>2020-10-05T08:16:17.000Z</time>
      </trkpt>
      <trkpt lat="43.96776" lon="5.88925">
        <ele>577</ele>
        <time>2020-10-05T08:16:18.000Z</time>
      </trkpt>
      <trkpt lat="43.96776" lon="5.88925">
        <ele>577</ele>
        <time>2020-10-05T08:16:19.000Z</time>
      </trkpt>
      <trkpt lat="43.96776" lon="5.88925">
        <ele>577</ele>
        <time>2020-10-05T08:16:20.000Z</time>
      </trkpt>
      <trkpt lat="43.96777" lon="5.88925">
        <ele>577</ele>
        <time>2020-10-05T08:16:21.000Z</time>
      </trkpt>
      <trkpt lat="43.96778" lon="5.88925">
        <ele>577</ele>
        <time>2020-10-05T08:16:22.000Z</time>
      </trkpt>
      <trkpt lat="43.96778" lon="5.88924">
        <ele>577</ele>
        <time>2020-10-05T08:16:23.000Z</time>
      </trkpt>
      <trkpt lat="43.96779" lon="5.88922">
        <ele>576</ele>
        <time>2020-10-05T08:16:24.000Z</time>
      </trkpt>
      <trkpt lat="43.9678" lon="5.88921">
        <ele>576</ele>
        <time>2020-10-05T08:16:25.000Z</time>
      </trkpt>
      <trkpt lat="43.9678" lon="5.8892">
        <ele>576</ele>
        <time>2020-10-05T08:16:26.000Z</time>
      </trkpt>
      <trkpt lat="43.96781" lon="5.88919">
        <ele>576</ele>
        <time>2020-10-05T08:16:27.000Z</time>
      </trkpt>
      <trkpt lat="43.96781" lon="5.88918">
        <ele>576</ele>
        <time>2020-10-05T08:16:28.000Z</time>
      </trkpt>
      <trkpt lat="43.96781" lon="5.88916">
        <ele>576</ele>
        <time>2020-10-05T08:16:29.000Z</time>
      </trkpt>
      <trkpt lat="43.9678" lon="5.88915">
        <ele>576</ele>
        <time>2020-10-05T08:16:30.000Z</time>
      </trkpt>
      <trkpt lat="43.9678" lon="5.88914">
        <ele>576</ele>
        <time>2020-10-05T08:16:31.000Z</time>
      </trkpt>
      <trkpt lat="43.96779" lon="5.88913">
        <ele>576</ele>
        <time>2020-10-05T08:16:32.000Z</time>
      </trkpt>
      <trkpt lat="43.96778" lon="5.88912">
        <ele>576</ele>
        <time>2020-10-05T08:16:33.000Z</time>
      </trkpt>
      <trkpt lat="43.96776" lon="5.88911">
        <ele>576</ele>
        <time>2020-10-05T08:16:34.000Z</time>
      </trkpt>
      <trkpt lat="43.96775" lon="5.8891">
        <ele>576</ele>
        <time>2020-10-05T08:16:35.000Z</time>
      </trkpt>
      <trkpt lat="43.96774" lon="5.88909">
        <ele>576</ele>
        <time>2020-10-05T08:16:36.000Z</time>
      </trkpt>
      <trkpt lat="43.96773" lon="5.88909">
        <ele>576</ele>
        <time>2020-10-05T08:16:37.000Z</time>
      </trkpt>
      <trkpt lat="43.96771" lon="5.88908">
        <ele>576</ele>
        <time>2020-10-05T08:16:38.000Z</time>
      </trkpt>
      <trkpt lat="43.9677" lon="5.88907">
        <ele>576</ele>
        <time>2020-10-05T08:16:39.000Z</time>
      </trkpt>
      <trkpt lat="43.96769" lon="5.88906">
        <ele>576</ele>
        <time>2020-10-05T08:16:40.000Z</time>
      </trkpt>
      <trkpt lat="43.96768" lon="5.88905">
        <ele>576</ele>
        <time>2020-10-05T08:16:41.000Z</time>
      </trkpt>
      <trkpt lat="43.96767" lon="5.88904">
        <ele>576</ele>
        <time>2020-10-05T08:16:42.000Z</time>
      </trkpt>
      <trkpt lat="43.96766" lon="5.88903">
        <ele>576</ele>
        <time>2020-10-05T08:16:43.000Z</time>
      </trkpt>
      <trkpt lat="43.96765" lon="5.88902">
        <ele>576</ele>
        <time>2020-10-05T08:16:44.000Z</time>
      </trkpt>
      <trkpt lat="43.96764" lon="5.88902">
        <ele>576</ele>
        <time>2020-10-05T08:16:45.000Z</time>
      </trkpt>
      <trkpt lat="43.96763" lon="5.88901">
        <ele>576</ele>
        <time>2020-10-05T08:16:46.000Z</time>
      </trkpt>
      <trkpt lat="43.96762" lon="5.88901">
        <ele>576</ele>
        <time>2020-10-05T08:16:47.000Z</time>
      </trkpt>
      <trkpt lat="43.96761" lon="5.889">
        <ele>577</ele>
        <time>2020-10-05T08:16:48.000Z</time>
      </trkpt>
      <trkpt lat="43.96761" lon="5.88899">
        <ele>577</ele>
        <time>2020-10-05T08:16:49.000Z</time>
      </trkpt>
      <trkpt lat="43.96761" lon="5.88899">
        <ele>577</ele>
        <time>2020-10-05T08:16:50.000Z</time>
      </trkpt>
      <trkpt lat="43.96761" lon="5.88899">
        <ele>577</ele>
        <time>2020-10-05T08:16:51.000Z</time>
      </trkpt>
      <trkpt lat="43.9676" lon="5.88899">
        <ele>577</ele>
        <time>2020-10-05T08:16:52.000Z</time>
      </trkpt>
      <trkpt lat="43.9676" lon="5.88898">
        <ele>577</ele>
        <time>2020-10-05T08:16:53.000Z</time>
      </trkpt>
      <trkpt lat="43.9676" lon="5.88899">
        <ele>577</ele>
        <time>2020-10-05T08:16:54.000Z</time>
      </trkpt>
      <trkpt lat="43.9676" lon="5.88899">
        <ele>578</ele>
        <time>2020-10-05T08:16:55.000Z</time>
      </trkpt>
      <trkpt lat="43.9676" lon="5.88899">
        <ele>578</ele>
        <time>2020-10-05T08:16:56.000Z</time>
      </trkpt>
      <trkpt lat="43.9676" lon="5.88898">
        <ele>578</ele>
        <time>2020-10-05T08:16:57.000Z</time>
      </trkpt>
      <trkpt lat="43.9676" lon="5.88898">
        <ele>578</ele>
        <time>2020-10-05T08:16:58.000Z</time>
      </trkpt>
      <trkpt lat="43.9676" lon="5.88898">
        <ele>578</ele>
        <time>2020-10-05T08:16:59.000Z</time>
      </trkpt>
      <trkpt lat="43.9676" lon="5.88898">
        <ele>578</ele>
        <time>2020-10-05T08:17:00.000Z</time>
      </trkpt>
      <trkpt lat="43.96759" lon="5.88898">
        <ele>578</ele>
        <time>2020-10-05T08:17:01.000Z</time>
      </trkpt>
      <trkpt lat="43.96759" lon="5.88898">
        <ele>578</ele>
        <time>2020-10-05T08:17:02.000Z</time>
      </trkpt>
      <trkpt lat="43.96759" lon="5.88898">
        <ele>578</ele>
        <time>2020-10-05T08:17:03.000Z</time>
      </trkpt>
      <trkpt lat="43.96759" lon="5.88898">
        <ele>578</ele>
        <time>2020-10-05T08:17:04.000Z</time>
      </trkpt>
      <trkpt lat="43.96759" lon="5.88898">
        <ele>578</ele>
        <time>2020-10-05T08:17:05.000Z</time>
      </trkpt>
      <trkpt lat="43.96759" lon="5.88898">
        <ele>578</ele>
        <time>2020-10-05T08:17:06.000Z</time>
      </trkpt>
      <trkpt lat="43.96759" lon="5.88898">
        <ele>578</ele>
        <time>2020-10-05T08:17:07.000Z</time>
      </trkpt>
      <trkpt lat="43.96759" lon="5.88898">
        <ele>578</ele>
        <time>2020-10-05T08:17:08.000Z</time>
      </trkpt>
      <trkpt lat="43.96759" lon="5.88898">
        <ele>578</ele>
        <time>2020-10-05T08:17:09.000Z</time>
      </trkpt>
      <trkpt lat="43.96759" lon="5.88898">
        <ele>578</ele>
        <time>2020-10-05T08:17:10.000Z</time>
      </trkpt>
      <trkpt lat="43.96759" lon="5.88898">
        <ele>578</ele>
        <time>2020-10-05T08:17:11.000Z</time>
      </trkpt>
      <trkpt lat="43.96759" lon="5.88898">
        <ele>578</ele>
        <time>2020-10-05T08:17:12.000Z</time>
      </trkpt>
      <trkpt lat="43.96759" lon="5.88898">
        <ele>578</ele>
        <time>2020-10-05T08:17:13.000Z</time>
      </trkpt>
      <trkpt lat="43.96759" lon="5.88898">
        <ele>578</ele>
        <time>2020-10-05T08:17:14.000Z</time>
      </trkpt>
      <trkpt lat="43.96759" lon="5.88898">
        <ele>578</ele>
        <time>2020-10-05T08:17:15.000Z</time>
      </trkpt>
      <trkpt lat="43.96759" lon="5.88898">
        <ele>578</ele>
        <time>2020-10-05T08:17:16.000Z</time>
      </trkpt>
      <trkpt lat="43.96759" lon="5.88897">
        <ele>578</ele>
        <time>2020-10-05T08:17:17.000Z</time>
      </trkpt>
      <trkpt lat="43.96759" lon="5.88898">
        <ele>578</ele>
        <time>2020-10-05T08:17:18.000Z</time>
      </trkpt>
      <trkpt lat="43.96759" lon="5.88897">
        <ele>578</ele>
        <time>2020-10-05T08:17:19.000Z</time>
      </trkpt>
      <trkpt lat="43.96759" lon="5.88897">
        <ele>578</ele>
        <time>2020-10-05T08:17:20.000Z</time>
      </trkpt>
      <trkpt lat="43.96759" lon="5.88897">
        <ele>578</ele>
        <time>2020-10-05T08:17:21.000Z</time>
      </trkpt>
      <trkpt lat="43.96759" lon="5.88897">
        <ele>578</ele>
        <time>2020-10-05T08:17:22.000Z</time>
      </trkpt>
      <trkpt lat="43.96759" lon="5.88897">
        <ele>578</ele>
        <time>2020-10-05T08:17:23.000Z</time>
      </trkpt>
      <trkpt lat="43.96759" lon="5.88897">
        <ele>578</ele>
        <time>2020-10-05T08:17:24.000Z</time>
      </trkpt>
      <trkpt lat="43.96759" lon="5.88897">
        <ele>578</ele>
        <time>2020-10-05T08:17:25.000Z</time>
      </trkpt>
      <trkpt lat="43.96759" lon="5.88897">
        <ele>578</ele>
        <time>2020-10-05T08:17:26.000Z</time>
      </trkpt>
      <trkpt lat="43.96759" lon="5.88897">
        <ele>578</ele>
        <time>2020-10-05T08:17:27.000Z</time>
      </trkpt>
      <trkpt lat="43.96759" lon="5.88897">
        <ele>578</ele>
        <time>2020-10-05T08:17:28.000Z</time>
      </trkpt>
      <trkpt lat="43.96759" lon="5.88897">
        <ele>578</ele>
        <time>2020-10-05T08:17:29.000Z</time>
      </trkpt>
      <trkpt lat="43.96759" lon="5.88897">
        <ele>578</ele>
        <time>2020-10-05T08:17:30.000Z</time>
      </trkpt>
      <trkpt lat="43.96759" lon="5.88897">
        <ele>578</ele>
        <time>2020-10-05T08:17:31.000Z</time>
      </trkpt>
      <trkpt lat="43.96759" lon="5.88897">
        <ele>578</ele>
        <time>2020-10-05T08:17:32.000Z</time>
      </trkpt>
      <trkpt lat="43.96759" lon="5.88897">
        <ele>578</ele>
        <time>2020-10-05T08:17:33.000Z</time>
      </trkpt>
      <trkpt lat="43.96759" lon="5.88897">
        <ele>577</ele>
        <time>2020-10-05T08:17:34.000Z</time>
      </trkpt>
      <trkpt lat="43.96759" lon="5.88897">
        <ele>577</ele>
        <time>2020-10-05T08:17:35.000Z</time>
      </trkpt>
      <trkpt lat="43.96759" lon="5.88897">
        <ele>577</ele>
        <time>2020-10-05T08:17:36.000Z</time>
      </trkpt>
      <trkpt lat="43.96759" lon="5.88897">
        <ele>577</ele>
        <time>2020-10-05T08:17:37.000Z</time>
      </trkpt>
      <trkpt lat="43.96759" lon="5.88897">
        <ele>577</ele>
        <time>2020-10-05T08:17:38.000Z</time>
      </trkpt>
      <trkpt lat="43.96759" lon="5.88897">
        <ele>577</ele>
        <time>2020-10-05T08:17:39.000Z</time>
      </trkpt>
      <trkpt lat="43.96759" lon="5.88897">
        <ele>577</ele>
        <time>2020-10-05T08:17:40.000Z</time>
      </trkpt>
      <trkpt lat="43.96759" lon="5.88897">
        <ele>577</ele>
        <time>2020-10-05T08:17:41.000Z</time>
      </trkpt>
      <trkpt lat="43.96759" lon="5.88897">
        <ele>577</ele>
        <time>2020-10-05T08:17:42.000Z</time>
      </trkpt>
      <trkpt lat="43.96759" lon="5.88897">
        <ele>577</ele>
        <time>2020-10-05T08:17:43.000Z</time>
      </trkpt>
      <trkpt lat="43.9676" lon="5.88897">
        <ele>577</ele>
        <time>2020-10-05T08:17:44.000Z</time>
      </trkpt>
      <trkpt lat="43.9676" lon="5.88897">
        <ele>577</ele>
        <time>2020-10-05T08:17:45.000Z</time>
      </trkpt>
      <trkpt lat="43.9676" lon="5.88897">
        <ele>577</ele>
        <time>2020-10-05T08:17:46.000Z</time>
      </trkpt>
      <trkpt lat="43.9676" lon="5.88897">
        <ele>577</ele>
        <time>2020-10-05T08:17:47.000Z</time>
      </trkpt>
      <trkpt lat="43.9676" lon="5.88897">
        <ele>577</ele>
        <time>2020-10-05T08:17:48.000Z</time>
      </trkpt>
      <trkpt lat="43.9676" lon="5.88897">
        <ele>577</ele>
        <time>2020-10-05T08:17:49.000Z</time>
      </trkpt>
      <trkpt lat="43.9676" lon="5.88896">
        <ele>577</ele>
        <time>2020-10-05T08:17:50.000Z</time>
      </trkpt>
      <trkpt lat="43.96759" lon="5.88896">
        <ele>577</ele>
        <time>2020-10-05T08:17:51.000Z</time>
      </trkpt>
      <trkpt lat="43.96759" lon="5.88896">
        <ele>577</ele>
        <time>2020-10-05T08:17:52.000Z</time>
      </trkpt>
      <trkpt lat="43.96759" lon="5.88896">
        <ele>577</ele>
        <time>2020-10-05T08:17:53.000Z</time>
      </trkpt>
      <trkpt lat="43.96759" lon="5.88896">
        <ele>576</ele>
        <time>2020-10-05T08:17:54.000Z</time>
      </trkpt>
      <trkpt lat="43.96759" lon="5.88896">
        <ele>576</ele>
        <time>2020-10-05T08:17:55.000Z</time>
      </trkpt>
      <trkpt lat="43.96759" lon="5.88896">
        <ele>576</ele>
        <time>2020-10-05T08:17:56.000Z</time>
      </trkpt>
      <trkpt lat="43.96759" lon="5.88896">
        <ele>576</ele>
        <time>2020-10-05T08:17:57.000Z</time>
      </trkpt>
      <trkpt lat="43.96759" lon="5.88896">
        <ele>576</ele>
        <time>2020-10-05T08:17:58.000Z</time>
      </trkpt>
      <trkpt lat="43.96759" lon="5.88896">
        <ele>576</ele>
        <time>2020-10-05T08:17:59.000Z</time>
      </trkpt>
      <trkpt lat="43.96759" lon="5.88896">
        <ele>576</ele>
        <time>2020-10-05T08:18:00.000Z</time>
      </trkpt>
      <trkpt lat="43.96759" lon="5.88896">
        <ele>576</ele>
        <time>2020-10-05T08:18:01.000Z</time>
      </trkpt>
      <trkpt lat="43.96759" lon="5.88896">
        <ele>576</ele>
        <time>2020-10-05T08:18:02.000Z</time>
      </trkpt>
      <trkpt lat="43.96759" lon="5.88896">
        <ele>576</ele>
        <time>2020-10-05T08:18:03.000Z</time>
      </trkpt>
      <trkpt lat="43.96759" lon="5.88896">
        <ele>576</ele>
        <time>2020-10-05T08:18:04.000Z</time>
      </trkpt>
      <trkpt lat="43.96759" lon="5.88896">
        <ele>576</ele>
        <time>2020-10-05T08:18:05.000Z</time>
      </trkpt>
      <trkpt lat="43.96759" lon="5.88896">
        <ele>576</ele>
        <time>2020-10-05T08:18:06.000Z</time>
      </trkpt>
      <trkpt lat="43.96759" lon="5.88896">
        <ele>576</ele>
        <time>2020-10-05T08:18:07.000Z</time>
      </trkpt>
      <trkpt lat="43.96759" lon="5.88896">
        <ele>576</ele>
        <time>2020-10-05T08:18:08.000Z</time>
      </trkpt>
      <trkpt lat="43.96759" lon="5.88896">
        <ele>576</ele>
        <time>2020-10-05T08:18:09.000Z</time>
      </trkpt>
      <trkpt lat="43.96759" lon="5.88896">
        <ele>576</ele>
        <time>2020-10-05T08:18:10.000Z</time>
      </trkpt>
      <trkpt lat="43.96759" lon="5.88896">
        <ele>576</ele>
        <time>2020-10-05T08:18:11.000Z</time>
      </trkpt>
      <trkpt lat="43.96759" lon="5.88896">
        <ele>576</ele>
        <time>2020-10-05T08:18:12.000Z</time>
      </trkpt>
      <trkpt lat="43.96759" lon="5.88896">
        <ele>576</ele>
        <time>2020-10-05T08:18:13.000Z</time>
      </trkpt>
      <trkpt lat="43.96759" lon="5.88896">
        <ele>576</ele>
        <time>2020-10-05T08:18:14.000Z</time>
      </trkpt>
      <trkpt lat="43.96759" lon="5.88896">
        <ele>576</ele>
        <time>2020-10-05T08:18:15.000Z</time>
      </trkpt>
      <trkpt lat="43.96759" lon="5.88896">
        <ele>576</ele>
        <time>2020-10-05T08:18:16.000Z</time>
      </trkpt>
      <trkpt lat="43.96759" lon="5.88896">
        <ele>576</ele>
        <time>2020-10-05T08:18:17.000Z</time>
      </trkpt>
      <trkpt lat="43.96759" lon="5.88895">
        <ele>576</ele>
        <time>2020-10-05T08:18:18.000Z</time>
      </trkpt>
      <trkpt lat="43.96759" lon="5.88895">
        <ele>576</ele>
        <time>2020-10-05T08:18:19.000Z</time>
      </trkpt>
      <trkpt lat="43.96759" lon="5.88896">
        <ele>576</ele>
        <time>2020-10-05T08:18:20.000Z</time>
      </trkpt>
      <trkpt lat="43.96759" lon="5.88896">
        <ele>576</ele>
        <time>2020-10-05T08:18:21.000Z</time>
      </trkpt>
      <trkpt lat="43.96759" lon="5.88896">
        <ele>576</ele>
        <time>2020-10-05T08:18:22.000Z</time>
      </trkpt>
      <trkpt lat="43.96759" lon="5.88896">
        <ele>576</ele>
        <time>2020-10-05T08:18:23.000Z</time>
      </trkpt>
      <trkpt lat="43.96759" lon="5.88896">
        <ele>576</ele>
        <time>2020-10-05T08:18:24.000Z</time>
      </trkpt>
      <trkpt lat="43.96759" lon="5.88896">
        <ele>576</ele>
        <time>2020-10-05T08:18:25.000Z</time>
      </trkpt>
      <trkpt lat="43.96759" lon="5.88896">
        <ele>576</ele>
        <time>2020-10-05T08:18:26.000Z</time>
      </trkpt>
      <trkpt lat="43.96759" lon="5.88896">
        <ele>576</ele>
        <time>2020-10-05T08:18:27.000Z</time>
      </trkpt>
      <trkpt lat="43.96759" lon="5.88896">
        <ele>576</ele>
        <time>2020-10-05T08:18:28.000Z</time>
      </trkpt>
      <trkpt lat="43.96759" lon="5.88896">
        <ele>576</ele>
        <time>2020-10-05T08:18:29.000Z</time>
      </trkpt>
      <trkpt lat="43.96759" lon="5.88895">
        <ele>576</ele>
        <time>2020-10-05T08:18:30.000Z</time>
      </trkpt>
      <trkpt lat="43.96759" lon="5.88895">
        <ele>576</ele>
        <time>2020-10-05T08:18:31.000Z</time>
      </trkpt>
      <trkpt lat="43.96759" lon="5.88895">
        <ele>576</ele>
        <time>2020-10-05T08:18:32.000Z</time>
      </trkpt>
      <trkpt lat="43.96759" lon="5.88895">
        <ele>576</ele>
        <time>2020-10-05T08:18:33.000Z</time>
      </trkpt>
      <trkpt lat="43.96759" lon="5.88895">
        <ele>576</ele>
        <time>2020-10-05T08:18:34.000Z</time>
      </trkpt>
      <trkpt lat="43.96759" lon="5.88895">
        <ele>576</ele>
        <time>2020-10-05T08:18:35.000Z</time>
      </trkpt>
      <trkpt lat="43.96759" lon="5.88895">
        <ele>576</ele>
        <time>2020-10-05T08:18:36.000Z</time>
      </trkpt>
      <trkpt lat="43.96759" lon="5.88895">
        <ele>576</ele>
        <time>2020-10-05T08:18:37.000Z</time>
      </trkpt>
      <trkpt lat="43.96759" lon="5.88895">
        <ele>576</ele>
        <time>2020-10-05T08:18:38.000Z</time>
      </trkpt>
      <trkpt lat="43.96759" lon="5.88895">
        <ele>576</ele>
        <time>2020-10-05T08:18:39.000Z</time>
      </trkpt>
      <trkpt lat="43.9676" lon="5.88896">
        <ele>576</ele>
        <time>2020-10-05T08:18:40.000Z</time>
      </trkpt>
      <trkpt lat="43.9676" lon="5.88896">
        <ele>576</ele>
        <time>2020-10-05T08:18:41.000Z</time>
      </trkpt>
      <trkpt lat="43.9676" lon="5.88896">
        <ele>575</ele>
        <time>2020-10-05T08:18:42.000Z</time>
      </trkpt>
      <trkpt lat="43.9676" lon="5.88896">
        <ele>575</ele>
        <time>2020-10-05T08:18:43.000Z</time>
      </trkpt>
      <trkpt lat="43.9676" lon="5.88896">
        <ele>575</ele>
        <time>2020-10-05T08:18:44.000Z</time>
      </trkpt>
      <trkpt lat="43.9676" lon="5.88896">
        <ele>575</ele>
        <time>2020-10-05T08:18:45.000Z</time>
      </trkpt>
      <trkpt lat="43.9676" lon="5.88896">
        <ele>576</ele>
        <time>2020-10-05T08:18:46.000Z</time>
      </trkpt>
      <trkpt lat="43.9676" lon="5.88896">
        <ele>576</ele>
        <time>2020-10-05T08:18:47.000Z</time>
      </trkpt>
      <trkpt lat="43.9676" lon="5.88896">
        <ele>576</ele>
        <time>2020-10-05T08:18:48.000Z</time>
      </trkpt>
      <trkpt lat="43.9676" lon="5.88896">
        <ele>576</ele>
        <time>2020-10-05T08:18:49.000Z</time>
      </trkpt>
      <trkpt lat="43.9676" lon="5.88896">
        <ele>576</ele>
        <time>2020-10-05T08:18:50.000Z</time>
      </trkpt>
      <trkpt lat="43.9676" lon="5.88896">
        <ele>576</ele>
        <time>2020-10-05T08:18:51.000Z</time>
      </trkpt>
      <trkpt lat="43.9676" lon="5.88896">
        <ele>576</ele>
        <time>2020-10-05T08:18:52.000Z</time>
      </trkpt>
      <trkpt lat="43.9676" lon="5.88896">
        <ele>576</ele>
        <time>2020-10-05T08:18:53.000Z</time>
      </trkpt>
      <trkpt lat="43.9676" lon="5.88896">
        <ele>576</ele>
        <time>2020-10-05T08:18:54.000Z</time>
      </trkpt>
      <trkpt lat="43.9676" lon="5.88896">
        <ele>576</ele>
        <time>2020-10-05T08:18:55.000Z</time>
      </trkpt>
      <trkpt lat="43.9676" lon="5.88896">
        <ele>576</ele>
        <time>2020-10-05T08:18:56.000Z</time>
      </trkpt>
      <trkpt lat="43.9676" lon="5.88896">
        <ele>576</ele>
        <time>2020-10-05T08:18:57.000Z</time>
      </trkpt>
      <trkpt lat="43.9676" lon="5.88896">
        <ele>576</ele>
        <time>2020-10-05T08:18:58.000Z</time>
      </trkpt>
      <trkpt lat="43.9676" lon="5.88896">
        <ele>576</ele>
        <time>2020-10-05T08:18:59.000Z</time>
      </trkpt>
      <trkpt lat="43.9676" lon="5.88896">
        <ele>576</ele>
        <time>2020-10-05T08:19:00.000Z</time>
      </trkpt>
      <trkpt lat="43.9676" lon="5.88896">
        <ele>576</ele>
        <time>2020-10-05T08:19:01.000Z</time>
      </trkpt>
      <trkpt lat="43.9676" lon="5.88896">
        <ele>576</ele>
        <time>2020-10-05T08:19:02.000Z</time>
      </trkpt>
      <trkpt lat="43.9676" lon="5.88896">
        <ele>576</ele>
        <time>2020-10-05T08:19:03.000Z</time>
      </trkpt>
      <trkpt lat="43.9676" lon="5.88896">
        <ele>576</ele>
        <time>2020-10-05T08:19:04.000Z</time>
      </trkpt>
      <trkpt lat="43.9676" lon="5.88896">
        <ele>576</ele>
        <time>2020-10-05T08:19:05.000Z</time>
      </trkpt>
      <trkpt lat="43.9676" lon="5.88896">
        <ele>576</ele>
        <time>2020-10-05T08:19:06.000Z</time>
      </trkpt>
      <trkpt lat="43.9676" lon="5.88896">
        <ele>576</ele>
        <time>2020-10-05T08:19:07.000Z</time>
      </trkpt>
      <trkpt lat="43.9676" lon="5.88896">
        <ele>576</ele>
        <time>2020-10-05T08:19:08.000Z</time>
      </trkpt>
      <trkpt lat="43.9676" lon="5.88896">
        <ele>576</ele>
        <time>2020-10-05T08:19:09.000Z</time>
      </trkpt>
      <trkpt lat="43.9676" lon="5.88896">
        <ele>576</ele>
        <time>2020-10-05T08:19:10.000Z</time>
      </trkpt>
      <trkpt lat="43.9676" lon="5.88896">
        <ele>576</ele>
        <time>2020-10-05T08:19:11.000Z</time>
      </trkpt>
      <trkpt lat="43.9676" lon="5.88896">
        <ele>576</ele>
        <time>2020-10-05T08:19:12.000Z</time>
      </trkpt>
      <trkpt lat="43.9676" lon="5.88896">
        <ele>576</ele>
        <time>2020-10-05T08:19:13.000Z</time>
      </trkpt>
      <trkpt lat="43.9676" lon="5.88896">
        <ele>576</ele>
        <time>2020-10-05T08:19:14.000Z</time>
      </trkpt>
      <trkpt lat="43.9676" lon="5.88896">
        <ele>576</ele>
        <time>2020-10-05T08:19:15.000Z</time>
      </trkpt>
      <trkpt lat="43.9676" lon="5.88896">
        <ele>576</ele>
        <time>2020-10-05T08:19:16.000Z</time>
      </trkpt>
      <trkpt lat="43.9676" lon="5.88896">
        <ele>576</ele>
        <time>2020-10-05T08:19:17.000Z</time>
      </trkpt>
      <trkpt lat="43.9676" lon="5.88896">
        <ele>576</ele>
        <time>2020-10-05T08:19:18.000Z</time>
      </trkpt>
      <trkpt lat="43.9676" lon="5.88896">
        <ele>576</ele>
        <time>2020-10-05T08:19:19.000Z</time>
      </trkpt>
      <trkpt lat="43.9676" lon="5.88896">
        <ele>576</ele>
        <time>2020-10-05T08:19:20.000Z</time>
      </trkpt>
      <trkpt lat="43.9676" lon="5.88896">
        <ele>576</ele>
        <time>2020-10-05T08:19:21.000Z</time>
      </trkpt>
      <trkpt lat="43.9676" lon="5.88896">
        <ele>576</ele>
        <time>2020-10-05T08:19:22.000Z</time>
      </trkpt>
      <trkpt lat="43.9676" lon="5.88896">
        <ele>576</ele>
        <time>2020-10-05T08:19:23.000Z</time>
      </trkpt>
      <trkpt lat="43.9676" lon="5.88896">
        <ele>576</ele>
        <time>2020-10-05T08:19:24.000Z</time>
      </trkpt>
      <trkpt lat="43.9676" lon="5.88896">
        <ele>576</ele>
        <time>2020-10-05T08:19:25.000Z</time>
      </trkpt>
      <trkpt lat="43.96759" lon="5.88896">
        <ele>576</ele>
        <time>2020-10-05T08:19:26.000Z</time>
      </trkpt>
      <trkpt lat="43.96759" lon="5.88896">
        <ele>576</ele>
        <time>2020-10-05T08:19:27.000Z</time>
      </trkpt>
      <trkpt lat="43.96759" lon="5.88896">
        <ele>576</ele>
        <time>2020-10-05T08:19:28.000Z</time>
      </trkpt>
      <trkpt lat="43.96759" lon="5.88896">
        <ele>576</ele>
        <time>2020-10-05T08:19:29.000Z</time>
      </trkpt>
      <trkpt lat="43.96759" lon="5.88896">
        <ele>576</ele>
        <time>2020-10-05T08:19:30.000Z</time>
      </trkpt>
      <trkpt lat="43.96759" lon="5.88896">
        <ele>576</ele>
        <time>2020-10-05T08:19:31.000Z</time>
      </trkpt>
      <trkpt lat="43.96759" lon="5.88896">
        <ele>576</ele>
        <time>2020-10-05T08:19:32.000Z</time>
      </trkpt>
      <trkpt lat="43.96759" lon="5.88896">
        <ele>576</ele>
        <time>2020-10-05T08:19:33.000Z</time>
      </trkpt>
      <trkpt lat="43.96759" lon="5.88896">
        <ele>576</ele>
        <time>2020-10-05T08:19:34.000Z</time>
      </trkpt>
      <trkpt lat="43.96759" lon="5.88896">
        <ele>577</ele>
        <time>2020-10-05T08:19:35.000Z</time>
      </trkpt>
      <trkpt lat="43.96759" lon="5.88896">
        <ele>577</ele>
        <time>2020-10-05T08:19:36.000Z</time>
      </trkpt>
      <trkpt lat="43.96759" lon="5.88896">
        <ele>577</ele>
        <time>2020-10-05T08:19:37.000Z</time>
      </trkpt>
      <trkpt lat="43.96759" lon="5.88896">
        <ele>577</ele>
        <time>2020-10-05T08:19:38.000Z</time>
      </trkpt>
      <trkpt lat="43.96759" lon="5.88896">
        <ele>577</ele>
        <time>2020-10-05T08:19:39.000Z</time>
      </trkpt>
      <trkpt lat="43.96759" lon="5.88896">
        <ele>577</ele>
        <time>2020-10-05T08:19:40.000Z</time>
      </trkpt>
      <trkpt lat="43.96759" lon="5.88896">
        <ele>577</ele>
        <time>2020-10-05T08:19:41.000Z</time>
      </trkpt>
      <trkpt lat="43.96759" lon="5.88896">
        <ele>577</ele>
        <time>2020-10-05T08:19:42.000Z</time>
      </trkpt>
      <trkpt lat="43.96759" lon="5.88895">
        <ele>577</ele>
        <time>2020-10-05T08:19:43.000Z</time>
      </trkpt>
      <trkpt lat="43.96759" lon="5.88895">
        <ele>577</ele>
        <time>2020-10-05T08:19:44.000Z</time>
      </trkpt>
      <trkpt lat="43.96759" lon="5.88895">
        <ele>577</ele>
        <time>2020-10-05T08:19:45.000Z</time>
      </trkpt>
      <trkpt lat="43.96759" lon="5.88895">
        <ele>577</ele>
        <time>2020-10-05T08:19:46.000Z</time>
      </trkpt>
      <trkpt lat="43.96759" lon="5.88895">
        <ele>577</ele>
        <time>2020-10-05T08:19:47.000Z</time>
      </trkpt>
      <trkpt lat="43.96759" lon="5.88895">
        <ele>577</ele>
        <time>2020-10-05T08:19:48.000Z</time>
      </trkpt>
      <trkpt lat="43.96759" lon="5.88895">
        <ele>577</ele>
        <time>2020-10-05T08:19:49.000Z</time>
      </trkpt>
      <trkpt lat="43.96759" lon="5.88895">
        <ele>577</ele>
        <time>2020-10-05T08:19:50.000Z</time>
      </trkpt>
      <trkpt lat="43.96759" lon="5.88895">
        <ele>577</ele>
        <time>2020-10-05T08:19:51.000Z</time>
      </trkpt>
      <trkpt lat="43.96759" lon="5.88895">
        <ele>577</ele>
        <time>2020-10-05T08:19:52.000Z</time>
      </trkpt>
      <trkpt lat="43.96759" lon="5.88895">
        <ele>577</ele>
        <time>2020-10-05T08:19:53.000Z</time>
      </trkpt>
      <trkpt lat="43.96759" lon="5.88895">
        <ele>577</ele>
        <time>2020-10-05T08:19:54.000Z</time>
      </trkpt>
      <trkpt lat="43.96759" lon="5.88895">
        <ele>577</ele>
        <time>2020-10-05T08:19:55.000Z</time>
      </trkpt>
      <trkpt lat="43.96759" lon="5.88895">
        <ele>577</ele>
        <time>2020-10-05T08:19:56.000Z</time>
      </trkpt>
      <trkpt lat="43.96759" lon="5.88895">
        <ele>577</ele>
        <time>2020-10-05T08:19:57.000Z</time>
      </trkpt>
      <trkpt lat="43.96759" lon="5.88895">
        <ele>577</ele>
        <time>2020-10-05T08:19:58.000Z</time>
      </trkpt>
      <trkpt lat="43.96759" lon="5.88895">
        <ele>577</ele>
        <time>2020-10-05T08:19:59.000Z</time>
      </trkpt>
      <trkpt lat="43.96759" lon="5.88895">
        <ele>577</ele>
        <time>2020-10-05T08:20:00.000Z</time>
      </trkpt>
      <trkpt lat="43.96759" lon="5.88895">
        <ele>577</ele>
        <time>2020-10-05T08:20:01.000Z</time>
      </trkpt>
      <trkpt lat="43.96759" lon="5.88895">
        <ele>577</ele>
        <time>2020-10-05T08:20:02.000Z</time>
      </trkpt>
      <trkpt lat="43.96759" lon="5.88895">
        <ele>578</ele>
        <time>2020-10-05T08:20:03.000Z</time>
      </trkpt>
      <trkpt lat="43.96759" lon="5.88895">
        <ele>578</ele>
        <time>2020-10-05T08:20:04.000Z</time>
      </trkpt>
      <trkpt lat="43.96759" lon="5.88895">
        <ele>578</ele>
        <time>2020-10-05T08:20:05.000Z</time>
      </trkpt>
      <trkpt lat="43.96759" lon="5.88895">
        <ele>578</ele>
        <time>2020-10-05T08:20:06.000Z</time>
      </trkpt>
      <trkpt lat="43.96759" lon="5.88895">
        <ele>578</ele>
        <time>2020-10-05T08:20:07.000Z</time>
      </trkpt>
      <trkpt lat="43.96759" lon="5.88895">
        <ele>578</ele>
        <time>2020-10-05T08:20:08.000Z</time>
      </trkpt>
      <trkpt lat="43.96759" lon="5.88895">
        <ele>578</ele>
        <time>2020-10-05T08:20:09.000Z</time>
      </trkpt>
      <trkpt lat="43.96759" lon="5.88895">
        <ele>578</ele>
        <time>2020-10-05T08:20:10.000Z</time>
      </trkpt>
      <trkpt lat="43.96759" lon="5.88895">
        <ele>578</ele>
        <time>2020-10-05T08:20:11.000Z</time>
      </trkpt>
      <trkpt lat="43.96759" lon="5.88895">
        <ele>578</ele>
        <time>2020-10-05T08:20:12.000Z</time>
      </trkpt>
      <trkpt lat="43.96759" lon="5.88895">
        <ele>578</ele>
        <time>2020-10-05T08:20:13.000Z</time>
      </trkpt>
      <trkpt lat="43.96759" lon="5.88895">
        <ele>578</ele>
        <time>2020-10-05T08:20:14.000Z</time>
      </trkpt>
      <trkpt lat="43.96759" lon="5.88895">
        <ele>578</ele>
        <time>2020-10-05T08:20:15.000Z</time>
      </trkpt>
      <trkpt lat="43.96759" lon="5.88895">
        <ele>578</ele>
        <time>2020-10-05T08:20:16.000Z</time>
      </trkpt>
      <trkpt lat="43.96759" lon="5.88895">
        <ele>578</ele>
        <time>2020-10-05T08:20:17.000Z</time>
      </trkpt>
      <trkpt lat="43.96759" lon="5.88895">
        <ele>578</ele>
        <time>2020-10-05T08:20:18.000Z</time>
      </trkpt>
      <trkpt lat="43.96759" lon="5.88895">
        <ele>578</ele>
        <time>2020-10-05T08:20:19.000Z</time>
      </trkpt>
      <trkpt lat="43.96759" lon="5.88895">
        <ele>578</ele>
        <time>2020-10-05T08:20:20.000Z</time>
      </trkpt>
      <trkpt lat="43.96759" lon="5.88895">
        <ele>578</ele>
        <time>2020-10-05T08:20:21.000Z</time>
      </trkpt>
      <trkpt lat="43.96759" lon="5.88895">
        <ele>578</ele>
        <time>2020-10-05T08:20:22.000Z</time>
      </trkpt>
      <trkpt lat="43.96759" lon="5.88895">
        <ele>578</ele>
        <time>2020-10-05T08:20:23.000Z</time>
      </trkpt>
      <trkpt lat="43.96759" lon="5.88895">
        <ele>578</ele>
        <time>2020-10-05T08:20:24.000Z</time>
      </trkpt>
      <trkpt lat="43.96759" lon="5.88895">
        <ele>578</ele>
        <time>2020-10-05T08:20:25.000Z</time>
      </trkpt>
      <trkpt lat="43.96759" lon="5.88895">
        <ele>579</ele>
        <time>2020-10-05T08:20:26.000Z</time>
      </trkpt>
      <trkpt lat="43.96759" lon="5.88895">
        <ele>579</ele>
        <time>2020-10-05T08:20:27.000Z</time>
      </trkpt>
      <trkpt lat="43.96759" lon="5.88895">
        <ele>579</ele>
        <time>2020-10-05T08:20:28.000Z</time>
      </trkpt>
      <trkpt lat="43.96759" lon="5.88894">
        <ele>579</ele>
        <time>2020-10-05T08:20:29.000Z</time>
      </trkpt>
      <trkpt lat="43.96759" lon="5.88894">
        <ele>579</ele>
        <time>2020-10-05T08:20:30.000Z</time>
      </trkpt>
      <trkpt lat="43.96759" lon="5.88894">
        <ele>579</ele>
        <time>2020-10-05T08:20:31.000Z</time>
      </trkpt>
      <trkpt lat="43.96759" lon="5.88894">
        <ele>579</ele>
        <time>2020-10-05T08:20:32.000Z</time>
      </trkpt>
      <trkpt lat="43.96759" lon="5.88894">
        <ele>579</ele>
        <time>2020-10-05T08:20:33.000Z</time>
      </trkpt>
      <trkpt lat="43.96759" lon="5.88894">
        <ele>579</ele>
        <time>2020-10-05T08:20:34.000Z</time>
      </trkpt>
      <trkpt lat="43.96759" lon="5.88894">
        <ele>579</ele>
        <time>2020-10-05T08:20:35.000Z</time>
      </trkpt>
      <trkpt lat="43.96759" lon="5.88894">
        <ele>579</ele>
        <time>2020-10-05T08:20:36.000Z</time>
      </trkpt>
      <trkpt lat="43.96759" lon="5.88894">
        <ele>579</ele>
        <time>2020-10-05T08:20:37.000Z</time>
      </trkpt>
      <trkpt lat="43.96759" lon="5.88894">
        <ele>579</ele>
        <time>2020-10-05T08:20:38.000Z</time>
      </trkpt>
      <trkpt lat="43.96759" lon="5.88894">
        <ele>579</ele>
        <time>2020-10-05T08:20:39.000Z</time>
      </trkpt>
      <trkpt lat="43.96759" lon="5.88894">
        <ele>579</ele>
        <time>2020-10-05T08:20:40.000Z</time>
      </trkpt>
      <trkpt lat="43.96759" lon="5.88894">
        <ele>579</ele>
        <time>2020-10-05T08:20:41.000Z</time>
      </trkpt>
      <trkpt lat="43.96759" lon="5.88894">
        <ele>579</ele>
        <time>2020-10-05T08:20:42.000Z</time>
      </trkpt>
      <trkpt lat="43.96759" lon="5.88894">
        <ele>579</ele>
        <time>2020-10-05T08:20:43.000Z</time>
      </trkpt>
      <trkpt lat="43.96759" lon="5.88894">
        <ele>579</ele>
        <time>2020-10-05T08:20:44.000Z</time>
      </trkpt>
      <trkpt lat="43.96759" lon="5.88894">
        <ele>579</ele>
        <time>2020-10-05T08:20:45.000Z</time>
      </trkpt>
      <trkpt lat="43.96759" lon="5.88894">
        <ele>579</ele>
        <time>2020-10-05T08:20:46.000Z</time>
      </trkpt>
      <trkpt lat="43.96758" lon="5.88894">
        <ele>579</ele>
        <time>2020-10-05T08:20:47.000Z</time>
      </trkpt>
      <trkpt lat="43.96758" lon="5.88894">
        <ele>579</ele>
        <time>2020-10-05T08:20:48.000Z</time>
      </trkpt>
      <trkpt lat="43.96758" lon="5.88894">
        <ele>579</ele>
        <time>2020-10-05T08:20:49.000Z</time>
      </trkpt>
      <trkpt lat="43.96758" lon="5.88894">
        <ele>579</ele>
        <time>2020-10-05T08:20:50.000Z</time>
      </trkpt>
      <trkpt lat="43.96759" lon="5.88894">
        <ele>579</ele>
        <time>2020-10-05T08:20:51.000Z</time>
      </trkpt>
      <trkpt lat="43.96758" lon="5.88894">
        <ele>579</ele>
        <time>2020-10-05T08:20:52.000Z</time>
      </trkpt>
      <trkpt lat="43.96758" lon="5.88894">
        <ele>579</ele>
        <time>2020-10-05T08:20:53.000Z</time>
      </trkpt>
      <trkpt lat="43.96758" lon="5.88894">
        <ele>579</ele>
        <time>2020-10-05T08:20:54.000Z</time>
      </trkpt>
      <trkpt lat="43.96758" lon="5.88894">
        <ele>579</ele>
        <time>2020-10-05T08:20:55.000Z</time>
      </trkpt>
      <trkpt lat="43.96758" lon="5.88895">
        <ele>579</ele>
        <time>2020-10-05T08:20:56.000Z</time>
      </trkpt>
      <trkpt lat="43.96758" lon="5.88895">
        <ele>579</ele>
        <time>2020-10-05T08:20:57.000Z</time>
      </trkpt>
      <trkpt lat="43.96758" lon="5.88895">
        <ele>579</ele>
        <time>2020-10-05T08:20:58.000Z</time>
      </trkpt>
      <trkpt lat="43.96758" lon="5.88895">
        <ele>579</ele>
        <time>2020-10-05T08:20:59.000Z</time>
      </trkpt>
      <trkpt lat="43.96758" lon="5.88895">
        <ele>580</ele>
        <time>2020-10-05T08:21:00.000Z</time>
      </trkpt>
      <trkpt lat="43.96758" lon="5.88895">
        <ele>580</ele>
        <time>2020-10-05T08:21:01.000Z</time>
      </trkpt>
      <trkpt lat="43.96758" lon="5.88895">
        <ele>580</ele>
        <time>2020-10-05T08:21:02.000Z</time>
      </trkpt>
      <trkpt lat="43.96758" lon="5.88895">
        <ele>580</ele>
        <time>2020-10-05T08:21:03.000Z</time>
      </trkpt>
      <trkpt lat="43.96758" lon="5.88895">
        <ele>580</ele>
        <time>2020-10-05T08:21:04.000Z</time>
      </trkpt>
      <trkpt lat="43.96758" lon="5.88895">
        <ele>580</ele>
        <time>2020-10-05T08:21:05.000Z</time>
      </trkpt>
      <trkpt lat="43.96758" lon="5.88895">
        <ele>580</ele>
        <time>2020-10-05T08:21:06.000Z</time>
      </trkpt>
      <trkpt lat="43.96758" lon="5.88895">
        <ele>580</ele>
        <time>2020-10-05T08:21:07.000Z</time>
      </trkpt>
      <trkpt lat="43.96758" lon="5.88895">
        <ele>580</ele>
        <time>2020-10-05T08:21:08.000Z</time>
      </trkpt>
      <trkpt lat="43.96758" lon="5.88895">
        <ele>580</ele>
        <time>2020-10-05T08:21:09.000Z</time>
      </trkpt>
      <trkpt lat="43.96758" lon="5.88895">
        <ele>580</ele>
        <time>2020-10-05T08:21:10.000Z</time>
      </trkpt>
      <trkpt lat="43.96758" lon="5.88895">
        <ele>580</ele>
        <time>2020-10-05T08:21:11.000Z</time>
      </trkpt>
      <trkpt lat="43.96758" lon="5.88895">
        <ele>580</ele>
        <time>2020-10-05T08:21:12.000Z</time>
      </trkpt>
      <trkpt lat="43.96758" lon="5.88895">
        <ele>580</ele>
        <time>2020-10-05T08:21:13.000Z</time>
      </trkpt>
      <trkpt lat="43.96758" lon="5.88895">
        <ele>580</ele>
        <time>2020-10-05T08:21:14.000Z</time>
      </trkpt>
      <trkpt lat="43.96758" lon="5.88894">
        <ele>580</ele>
        <time>2020-10-05T08:21:15.000Z</time>
      </trkpt>
      <trkpt lat="43.96759" lon="5.88894">
        <ele>580</ele>
        <time>2020-10-05T08:21:16.000Z</time>
      </trkpt>
      <trkpt lat="43.96759" lon="5.88893">
        <ele>580</ele>
        <time>2020-10-05T08:21:17.000Z</time>
      </trkpt>
      <trkpt lat="43.96759" lon="5.88892">
        <ele>580</ele>
        <time>2020-10-05T08:21:18.000Z</time>
      </trkpt>
      <trkpt lat="43.9676" lon="5.88891">
        <ele>579</ele>
        <time>2020-10-05T08:21:19.000Z</time>
      </trkpt>
      <trkpt lat="43.9676" lon="5.88891">
        <ele>579</ele>
        <time>2020-10-05T08:21:20.000Z</time>
      </trkpt>
      <trkpt lat="43.9676" lon="5.88891">
        <ele>579</ele>
        <time>2020-10-05T08:21:21.000Z</time>
      </trkpt>
      <trkpt lat="43.9676" lon="5.8889">
        <ele>579</ele>
        <time>2020-10-05T08:21:22.000Z</time>
      </trkpt>
      <trkpt lat="43.96759" lon="5.88891">
        <ele>579</ele>
        <time>2020-10-05T08:21:23.000Z</time>
      </trkpt>
      <trkpt lat="43.96759" lon="5.88891">
        <ele>579</ele>
        <time>2020-10-05T08:21:24.000Z</time>
      </trkpt>
      <trkpt lat="43.9676" lon="5.88891">
        <ele>579</ele>
        <time>2020-10-05T08:21:25.000Z</time>
      </trkpt>
      <trkpt lat="43.9676" lon="5.8889">
        <ele>579</ele>
        <time>2020-10-05T08:21:26.000Z</time>
      </trkpt>
      <trkpt lat="43.9676" lon="5.8889">
        <ele>579</ele>
        <time>2020-10-05T08:21:27.000Z</time>
      </trkpt>
      <trkpt lat="43.9676" lon="5.88891">
        <ele>579</ele>
        <time>2020-10-05T08:21:28.000Z</time>
      </trkpt>
      <trkpt lat="43.9676" lon="5.88891">
        <ele>579</ele>
        <time>2020-10-05T08:21:29.000Z</time>
      </trkpt>
      <trkpt lat="43.9676" lon="5.88891">
        <ele>579</ele>
        <time>2020-10-05T08:21:30.000Z</time>
      </trkpt>
      <trkpt lat="43.9676" lon="5.88891">
        <ele>579</ele>
        <time>2020-10-05T08:21:31.000Z</time>
      </trkpt>
      <trkpt lat="43.9676" lon="5.88891">
        <ele>579</ele>
        <time>2020-10-05T08:21:32.000Z</time>
      </trkpt>
      <trkpt lat="43.9676" lon="5.88891">
        <ele>579</ele>
        <time>2020-10-05T08:21:33.000Z</time>
      </trkpt>
      <trkpt lat="43.9676" lon="5.88891">
        <ele>579</ele>
        <time>2020-10-05T08:21:34.000Z</time>
      </trkpt>
      <trkpt lat="43.9676" lon="5.88891">
        <ele>579</ele>
        <time>2020-10-05T08:21:35.000Z</time>
      </trkpt>
      <trkpt lat="43.9676" lon="5.88891">
        <ele>579</ele>
        <time>2020-10-05T08:21:36.000Z</time>
      </trkpt>
      <trkpt lat="43.9676" lon="5.88891">
        <ele>579</ele>
        <time>2020-10-05T08:21:37.000Z</time>
      </trkpt>
      <trkpt lat="43.9676" lon="5.88891">
        <ele>579</ele>
        <time>2020-10-05T08:21:38.000Z</time>
      </trkpt>
      <trkpt lat="43.9676" lon="5.88891">
        <ele>579</ele>
        <time>2020-10-05T08:21:39.000Z</time>
      </trkpt>
      <trkpt lat="43.9676" lon="5.88891">
        <ele>579</ele>
        <time>2020-10-05T08:21:40.000Z</time>
      </trkpt>
      <trkpt lat="43.9676" lon="5.8889">
        <ele>578</ele>
        <time>2020-10-05T08:21:41.000Z</time>
      </trkpt>
      <trkpt lat="43.9676" lon="5.8889">
        <ele>578</ele>
        <time>2020-10-05T08:21:42.000Z</time>
      </trkpt>
      <trkpt lat="43.9676" lon="5.8889">
        <ele>578</ele>
        <time>2020-10-05T08:21:43.000Z</time>
      </trkpt>
      <trkpt lat="43.96761" lon="5.8889">
        <ele>578</ele>
        <time>2020-10-05T08:21:44.000Z</time>
      </trkpt>
      <trkpt lat="43.96761" lon="5.8889">
        <ele>578</ele>
        <time>2020-10-05T08:21:45.000Z</time>
      </trkpt>
      <trkpt lat="43.96761" lon="5.8889">
        <ele>578</ele>
        <time>2020-10-05T08:21:46.000Z</time>
      </trkpt>
      <trkpt lat="43.9676" lon="5.8889">
        <ele>578</ele>
        <time>2020-10-05T08:21:47.000Z</time>
      </trkpt>
      <trkpt lat="43.96761" lon="5.8889">
        <ele>578</ele>
        <time>2020-10-05T08:21:48.000Z</time>
      </trkpt>
      <trkpt lat="43.96761" lon="5.8889">
        <ele>578</ele>
        <time>2020-10-05T08:21:49.000Z</time>
      </trkpt>
      <trkpt lat="43.96761" lon="5.8889">
        <ele>577</ele>
        <time>2020-10-05T08:21:50.000Z</time>
      </trkpt>
      <trkpt lat="43.96761" lon="5.8889">
        <ele>578</ele>
        <time>2020-10-05T08:21:51.000Z</time>
      </trkpt>
      <trkpt lat="43.96761" lon="5.8889">
        <ele>578</ele>
        <time>2020-10-05T08:21:52.000Z</time>
      </trkpt>
      <trkpt lat="43.96761" lon="5.88889">
        <ele>578</ele>
        <time>2020-10-05T08:21:53.000Z</time>
      </trkpt>
      <trkpt lat="43.96761" lon="5.88889">
        <ele>578</ele>
        <time>2020-10-05T08:21:54.000Z</time>
      </trkpt>
      <trkpt lat="43.96761" lon="5.88889">
        <ele>578</ele>
        <time>2020-10-05T08:21:55.000Z</time>
      </trkpt>
      <trkpt lat="43.96761" lon="5.8889">
        <ele>578</ele>
        <time>2020-10-05T08:21:56.000Z</time>
      </trkpt>
      <trkpt lat="43.96761" lon="5.8889">
        <ele>578</ele>
        <time>2020-10-05T08:21:57.000Z</time>
      </trkpt>
      <trkpt lat="43.96761" lon="5.8889">
        <ele>578</ele>
        <time>2020-10-05T08:21:58.000Z</time>
      </trkpt>
      <trkpt lat="43.96761" lon="5.8889">
        <ele>578</ele>
        <time>2020-10-05T08:21:59.000Z</time>
      </trkpt>
      <trkpt lat="43.96761" lon="5.8889">
        <ele>578</ele>
        <time>2020-10-05T08:22:00.000Z</time>
      </trkpt>
      <trkpt lat="43.96761" lon="5.8889">
        <ele>578</ele>
        <time>2020-10-05T08:22:01.000Z</time>
      </trkpt>
      <trkpt lat="43.96761" lon="5.8889">
        <ele>578</ele>
        <time>2020-10-05T08:22:02.000Z</time>
      </trkpt>
      <trkpt lat="43.96761" lon="5.8889">
        <ele>578</ele>
        <time>2020-10-05T08:22:03.000Z</time>
      </trkpt>
      <trkpt lat="43.96761" lon="5.8889">
        <ele>578</ele>
        <time>2020-10-05T08:22:04.000Z</time>
      </trkpt>
      <trkpt lat="43.96761" lon="5.88891">
        <ele>578</ele>
        <time>2020-10-05T08:22:05.000Z</time>
      </trkpt>
      <trkpt lat="43.96761" lon="5.88891">
        <ele>578</ele>
        <time>2020-10-05T08:22:06.000Z</time>
      </trkpt>
      <trkpt lat="43.96761" lon="5.88891">
        <ele>578</ele>
        <time>2020-10-05T08:22:07.000Z</time>
      </trkpt>
      <trkpt lat="43.96761" lon="5.8889">
        <ele>578</ele>
        <time>2020-10-05T08:22:08.000Z</time>
      </trkpt>
      <trkpt lat="43.9676" lon="5.8889">
        <ele>578</ele>
        <time>2020-10-05T08:22:09.000Z</time>
      </trkpt>
      <trkpt lat="43.96759" lon="5.88891">
        <ele>578</ele>
        <time>2020-10-05T08:22:10.000Z</time>
      </trkpt>
      <trkpt lat="43.96759" lon="5.88892">
        <ele>578</ele>
        <time>2020-10-05T08:22:11.000Z</time>
      </trkpt>
      <trkpt lat="43.96759" lon="5.88893">
        <ele>578</ele>
        <time>2020-10-05T08:22:12.000Z</time>
      </trkpt>
      <trkpt lat="43.96759" lon="5.88894">
        <ele>578</ele>
        <time>2020-10-05T08:22:13.000Z</time>
      </trkpt>
      <trkpt lat="43.96758" lon="5.88895">
        <ele>578</ele>
        <time>2020-10-05T08:22:14.000Z</time>
      </trkpt>
      <trkpt lat="43.96758" lon="5.88897">
        <ele>578</ele>
        <time>2020-10-05T08:22:15.000Z</time>
      </trkpt>
      <trkpt lat="43.96757" lon="5.88898">
        <ele>578</ele>
        <time>2020-10-05T08:22:16.000Z</time>
      </trkpt>
      <trkpt lat="43.96757" lon="5.88899">
        <ele>578</ele>
        <time>2020-10-05T08:22:17.000Z</time>
      </trkpt>
      <trkpt lat="43.96757" lon="5.88899">
        <ele>578</ele>
        <time>2020-10-05T08:22:18.000Z</time>
      </trkpt>
      <trkpt lat="43.96757" lon="5.889">
        <ele>579</ele>
        <time>2020-10-05T08:22:19.000Z</time>
      </trkpt>
      <trkpt lat="43.96757" lon="5.88901">
        <ele>579</ele>
        <time>2020-10-05T08:22:20.000Z</time>
      </trkpt>
      <trkpt lat="43.96757" lon="5.88901">
        <ele>579</ele>
        <time>2020-10-05T08:22:21.000Z</time>
      </trkpt>
      <trkpt lat="43.96757" lon="5.88901">
        <ele>579</ele>
        <time>2020-10-05T08:22:22.000Z</time>
      </trkpt>
      <trkpt lat="43.96757" lon="5.88902">
        <ele>579</ele>
        <time>2020-10-05T08:22:23.000Z</time>
      </trkpt>
      <trkpt lat="43.96757" lon="5.88902">
        <ele>579</ele>
        <time>2020-10-05T08:22:24.000Z</time>
      </trkpt>
      <trkpt lat="43.96757" lon="5.88902">
        <ele>579</ele>
        <time>2020-10-05T08:22:25.000Z</time>
      </trkpt>
      <trkpt lat="43.96758" lon="5.88901">
        <ele>579</ele>
        <time>2020-10-05T08:22:26.000Z</time>
      </trkpt>
      <trkpt lat="43.96758" lon="5.889">
        <ele>579</ele>
        <time>2020-10-05T08:22:27.000Z</time>
      </trkpt>
      <trkpt lat="43.96758" lon="5.88899">
        <ele>579</ele>
        <time>2020-10-05T08:22:28.000Z</time>
      </trkpt>
      <trkpt lat="43.96758" lon="5.88898">
        <ele>579</ele>
        <time>2020-10-05T08:22:29.000Z</time>
      </trkpt>
      <trkpt lat="43.96758" lon="5.88897">
        <ele>579</ele>
        <time>2020-10-05T08:22:30.000Z</time>
      </trkpt>
      <trkpt lat="43.96758" lon="5.88897">
        <ele>579</ele>
        <time>2020-10-05T08:22:31.000Z</time>
      </trkpt>
      <trkpt lat="43.96758" lon="5.88897">
        <ele>579</ele>
        <time>2020-10-05T08:22:32.000Z</time>
      </trkpt>
      <trkpt lat="43.96758" lon="5.88897">
        <ele>579</ele>
        <time>2020-10-05T08:22:33.000Z</time>
      </trkpt>
      <trkpt lat="43.96758" lon="5.88897">
        <ele>579</ele>
        <time>2020-10-05T08:22:34.000Z</time>
      </trkpt>
      <trkpt lat="43.96758" lon="5.88897">
        <ele>579</ele>
        <time>2020-10-05T08:22:35.000Z</time>
      </trkpt>
      <trkpt lat="43.96759" lon="5.88896">
        <ele>579</ele>
        <time>2020-10-05T08:22:36.000Z</time>
      </trkpt>
      <trkpt lat="43.96759" lon="5.88896">
        <ele>579</ele>
        <time>2020-10-05T08:22:37.000Z</time>
      </trkpt>
      <trkpt lat="43.96759" lon="5.88896">
        <ele>579</ele>
        <time>2020-10-05T08:22:38.000Z</time>
      </trkpt>
      <trkpt lat="43.96759" lon="5.88896">
        <ele>579</ele>
        <time>2020-10-05T08:22:39.000Z</time>
      </trkpt>
      <trkpt lat="43.96759" lon="5.88896">
        <ele>579</ele>
        <time>2020-10-05T08:22:40.000Z</time>
      </trkpt>
      <trkpt lat="43.96759" lon="5.88896">
        <ele>579</ele>
        <time>2020-10-05T08:22:41.000Z</time>
      </trkpt>
      <trkpt lat="43.96759" lon="5.88896">
        <ele>579</ele>
        <time>2020-10-05T08:22:42.000Z</time>
      </trkpt>
      <trkpt lat="43.96759" lon="5.88896">
        <ele>579</ele>
        <time>2020-10-05T08:22:43.000Z</time>
      </trkpt>
      <trkpt lat="43.96759" lon="5.88896">
        <ele>579</ele>
        <time>2020-10-05T08:22:44.000Z</time>
      </trkpt>
      <trkpt lat="43.96759" lon="5.88896">
        <ele>579</ele>
        <time>2020-10-05T08:22:45.000Z</time>
      </trkpt>
      <trkpt lat="43.96759" lon="5.88895">
        <ele>579</ele>
        <time>2020-10-05T08:22:46.000Z</time>
      </trkpt>
      <trkpt lat="43.96759" lon="5.88895">
        <ele>579</ele>
        <time>2020-10-05T08:22:47.000Z</time>
      </trkpt>
      <trkpt lat="43.96759" lon="5.88895">
        <ele>579</ele>
        <time>2020-10-05T08:22:48.000Z</time>
      </trkpt>
      <trkpt lat="43.96759" lon="5.88895">
        <ele>579</ele>
        <time>2020-10-05T08:22:49.000Z</time>
      </trkpt>
      <trkpt lat="43.96759" lon="5.88895">
        <ele>579</ele>
        <time>2020-10-05T08:22:50.000Z</time>
      </trkpt>
      <trkpt lat="43.96759" lon="5.88895">
        <ele>579</ele>
        <time>2020-10-05T08:22:51.000Z</time>
      </trkpt>
      <trkpt lat="43.96759" lon="5.88895">
        <ele>579</ele>
        <time>2020-10-05T08:22:52.000Z</time>
      </trkpt>
      <trkpt lat="43.96759" lon="5.88895">
        <ele>579</ele>
        <time>2020-10-05T08:22:53.000Z</time>
      </trkpt>
      <trkpt lat="43.96759" lon="5.88895">
        <ele>579</ele>
        <time>2020-10-05T08:22:54.000Z</time>
      </trkpt>
      <trkpt lat="43.96759" lon="5.88895">
        <ele>579</ele>
        <time>2020-10-05T08:22:55.000Z</time>
      </trkpt>
      <trkpt lat="43.96759" lon="5.88895">
        <ele>579</ele>
        <time>2020-10-05T08:22:56.000Z</time>
      </trkpt>
      <trkpt lat="43.96759" lon="5.88895">
        <ele>579</ele>
        <time>2020-10-05T08:22:57.000Z</time>
      </trkpt>
      <trkpt lat="43.96759" lon="5.88895">
        <ele>579</ele>
        <time>2020-10-05T08:22:58.000Z</time>
      </trkpt>
      <trkpt lat="43.96759" lon="5.88895">
        <ele>579</ele>
        <time>2020-10-05T08:22:59.000Z</time>
      </trkpt>
      <trkpt lat="43.96759" lon="5.88895">
        <ele>579</ele>
        <time>2020-10-05T08:23:00.000Z</time>
      </trkpt>
      <trkpt lat="43.96759" lon="5.88895">
        <ele>579</ele>
        <time>2020-10-05T08:23:01.000Z</time>
      </trkpt>
      <trkpt lat="43.96759" lon="5.88895">
        <ele>579</ele>
        <time>2020-10-05T08:23:02.000Z</time>
      </trkpt>
      <trkpt lat="43.96759" lon="5.88895">
        <ele>579</ele>
        <time>2020-10-05T08:23:03.000Z</time>
      </trkpt>
      <trkpt lat="43.96759" lon="5.88895">
        <ele>579</ele>
        <time>2020-10-05T08:23:04.000Z</time>
      </trkpt>
      <trkpt lat="43.96759" lon="5.88895">
        <ele>579</ele>
        <time>2020-10-05T08:23:05.000Z</time>
      </trkpt>
      <trkpt lat="43.96759" lon="5.88895">
        <ele>579</ele>
        <time>2020-10-05T08:23:06.000Z</time>
      </trkpt>
      <trkpt lat="43.96759" lon="5.88895">
        <ele>579</ele>
        <time>2020-10-05T08:23:07.000Z</time>
      </trkpt>
      <trkpt lat="43.96759" lon="5.88895">
        <ele>579</ele>
        <time>2020-10-05T08:23:08.000Z</time>
      </trkpt>
      <trkpt lat="43.96759" lon="5.88895">
        <ele>579</ele>
        <time>2020-10-05T08:23:09.000Z</time>
      </trkpt>
      <trkpt lat="43.96759" lon="5.88895">
        <ele>579</ele>
        <time>2020-10-05T08:23:10.000Z</time>
      </trkpt>
      <trkpt lat="43.96759" lon="5.88896">
        <ele>579</ele>
        <time>2020-10-05T08:23:11.000Z</time>
      </trkpt>
      <trkpt lat="43.96759" lon="5.88896">
        <ele>579</ele>
        <time>2020-10-05T08:23:12.000Z</time>
      </trkpt>
      <trkpt lat="43.96758" lon="5.88896">
        <ele>579</ele>
        <time>2020-10-05T08:23:13.000Z</time>
      </trkpt>
      <trkpt lat="43.96758" lon="5.88896">
        <ele>579</ele>
        <time>2020-10-05T08:23:14.000Z</time>
      </trkpt>
      <trkpt lat="43.96758" lon="5.88896">
        <ele>579</ele>
        <time>2020-10-05T08:23:15.000Z</time>
      </trkpt>
      <trkpt lat="43.96758" lon="5.88896">
        <ele>579</ele>
        <time>2020-10-05T08:23:16.000Z</time>
      </trkpt>
      <trkpt lat="43.96758" lon="5.88896">
        <ele>579</ele>
        <time>2020-10-05T08:23:17.000Z</time>
      </trkpt>
      <trkpt lat="43.96758" lon="5.88896">
        <ele>579</ele>
        <time>2020-10-05T08:23:18.000Z</time>
      </trkpt>
      <trkpt lat="43.96758" lon="5.88896">
        <ele>579</ele>
        <time>2020-10-05T08:23:19.000Z</time>
      </trkpt>
      <trkpt lat="43.96758" lon="5.88895">
        <ele>579</ele>
        <time>2020-10-05T08:23:20.000Z</time>
      </trkpt>
      <trkpt lat="43.96758" lon="5.88895">
        <ele>579</ele>
        <time>2020-10-05T08:23:21.000Z</time>
      </trkpt>
      <trkpt lat="43.96758" lon="5.88895">
        <ele>580</ele>
        <time>2020-10-05T08:23:22.000Z</time>
      </trkpt>
      <trkpt lat="43.96758" lon="5.88895">
        <ele>580</ele>
        <time>2020-10-05T08:23:23.000Z</time>
      </trkpt>
      <trkpt lat="43.96758" lon="5.88895">
        <ele>580</ele>
        <time>2020-10-05T08:23:24.000Z</time>
      </trkpt>
      <trkpt lat="43.96758" lon="5.88895">
        <ele>580</ele>
        <time>2020-10-05T08:23:25.000Z</time>
      </trkpt>
      <trkpt lat="43.96758" lon="5.88895">
        <ele>580</ele>
        <time>2020-10-05T08:23:26.000Z</time>
      </trkpt>
      <trkpt lat="43.96758" lon="5.88895">
        <ele>580</ele>
        <time>2020-10-05T08:23:27.000Z</time>
      </trkpt>
      <trkpt lat="43.96758" lon="5.88895">
        <ele>580</ele>
        <time>2020-10-05T08:23:28.000Z</time>
      </trkpt>
      <trkpt lat="43.96758" lon="5.88895">
        <ele>580</ele>
        <time>2020-10-05T08:23:29.000Z</time>
      </trkpt>
      <trkpt lat="43.96758" lon="5.88895">
        <ele>580</ele>
        <time>2020-10-05T08:23:30.000Z</time>
      </trkpt>
      <trkpt lat="43.96758" lon="5.88895">
        <ele>580</ele>
        <time>2020-10-05T08:23:31.000Z</time>
      </trkpt>
      <trkpt lat="43.96758" lon="5.88895">
        <ele>580</ele>
        <time>2020-10-05T08:23:32.000Z</time>
      </trkpt>
      <trkpt lat="43.96758" lon="5.88895">
        <ele>580</ele>
        <time>2020-10-05T08:23:33.000Z</time>
      </trkpt>
      <trkpt lat="43.96758" lon="5.88895">
        <ele>580</ele>
        <time>2020-10-05T08:23:34.000Z</time>
      </trkpt>
      <trkpt lat="43.96758" lon="5.88895">
        <ele>580</ele>
        <time>2020-10-05T08:23:35.000Z</time>
      </trkpt>
      <trkpt lat="43.96758" lon="5.88895">
        <ele>580</ele>
        <time>2020-10-05T08:23:36.000Z</time>
      </trkpt>
      <trkpt lat="43.96758" lon="5.88895">
        <ele>580</ele>
        <time>2020-10-05T08:23:37.000Z</time>
      </trkpt>
      <trkpt lat="43.96758" lon="5.88895">
        <ele>580</ele>
        <time>2020-10-05T08:23:38.000Z</time>
      </trkpt>
      <trkpt lat="43.96758" lon="5.88895">
        <ele>580</ele>
        <time>2020-10-05T08:23:39.000Z</time>
      </trkpt>
      <trkpt lat="43.96758" lon="5.88895">
        <ele>580</ele>
        <time>2020-10-05T08:23:40.000Z</time>
      </trkpt>
      <trkpt lat="43.96758" lon="5.88894">
        <ele>580</ele>
        <time>2020-10-05T08:23:41.000Z</time>
      </trkpt>
      <trkpt lat="43.96758" lon="5.88894">
        <ele>580</ele>
        <time>2020-10-05T08:23:42.000Z</time>
      </trkpt>
      <trkpt lat="43.96758" lon="5.88895">
        <ele>580</ele>
        <time>2020-10-05T08:23:43.000Z</time>
      </trkpt>
      <trkpt lat="43.96759" lon="5.88895">
        <ele>580</ele>
        <time>2020-10-05T08:23:44.000Z</time>
      </trkpt>
      <trkpt lat="43.96759" lon="5.88894">
        <ele>580</ele>
        <time>2020-10-05T08:23:45.000Z</time>
      </trkpt>
      <trkpt lat="43.96759" lon="5.88894">
        <ele>580</ele>
        <time>2020-10-05T08:23:46.000Z</time>
      </trkpt>
      <trkpt lat="43.96759" lon="5.88894">
        <ele>580</ele>
        <time>2020-10-05T08:23:47.000Z</time>
      </trkpt>
      <trkpt lat="43.96759" lon="5.88895">
        <ele>580</ele>
        <time>2020-10-05T08:23:48.000Z</time>
      </trkpt>
      <trkpt lat="43.96759" lon="5.88895">
        <ele>580</ele>
        <time>2020-10-05T08:23:49.000Z</time>
      </trkpt>
      <trkpt lat="43.96759" lon="5.88895">
        <ele>580</ele>
        <time>2020-10-05T08:23:50.000Z</time>
      </trkpt>
      <trkpt lat="43.96759" lon="5.88895">
        <ele>580</ele>
        <time>2020-10-05T08:23:51.000Z</time>
      </trkpt>
      <trkpt lat="43.96759" lon="5.88894">
        <ele>580</ele>
        <time>2020-10-05T08:23:52.000Z</time>
      </trkpt>
      <trkpt lat="43.96759" lon="5.88894">
        <ele>580</ele>
        <time>2020-10-05T08:23:53.000Z</time>
      </trkpt>
      <trkpt lat="43.96759" lon="5.88895">
        <ele>580</ele>
        <time>2020-10-05T08:23:54.000Z</time>
      </trkpt>
      <trkpt lat="43.96759" lon="5.88895">
        <ele>580</ele>
        <time>2020-10-05T08:23:55.000Z</time>
      </trkpt>
      <trkpt lat="43.96759" lon="5.88895">
        <ele>580</ele>
        <time>2020-10-05T08:23:56.000Z</time>
      </trkpt>
      <trkpt lat="43.96759" lon="5.88895">
        <ele>580</ele>
        <time>2020-10-05T08:23:57.000Z</time>
      </trkpt>
      <trkpt lat="43.96759" lon="5.88894">
        <ele>580</ele>
        <time>2020-10-05T08:23:58.000Z</time>
      </trkpt>
      <trkpt lat="43.96759" lon="5.88894">
        <ele>580</ele>
        <time>2020-10-05T08:23:59.000Z</time>
      </trkpt>
      <trkpt lat="43.96759" lon="5.88894">
        <ele>580</ele>
        <time>2020-10-05T08:24:00.000Z</time>
      </trkpt>
      <trkpt lat="43.96759" lon="5.88894">
        <ele>580</ele>
        <time>2020-10-05T08:24:01.000Z</time>
      </trkpt>
      <trkpt lat="43.96759" lon="5.88894">
        <ele>580</ele>
        <time>2020-10-05T08:24:02.000Z</time>
      </trkpt>
      <trkpt lat="43.96759" lon="5.88894">
        <ele>580</ele>
        <time>2020-10-05T08:24:03.000Z</time>
      </trkpt>
      <trkpt lat="43.96759" lon="5.88894">
        <ele>580</ele>
        <time>2020-10-05T08:24:04.000Z</time>
      </trkpt>
      <trkpt lat="43.96759" lon="5.88894">
        <ele>580</ele>
        <time>2020-10-05T08:24:05.000Z</time>
      </trkpt>
      <trkpt lat="43.96759" lon="5.88894">
        <ele>580</ele>
        <time>2020-10-05T08:24:06.000Z</time>
      </trkpt>
      <trkpt lat="43.96759" lon="5.88894">
        <ele>580</ele>
        <time>2020-10-05T08:24:07.000Z</time>
      </trkpt>
      <trkpt lat="43.96759" lon="5.88894">
        <ele>580</ele>
        <time>2020-10-05T08:24:08.000Z</time>
      </trkpt>
      <trkpt lat="43.96759" lon="5.88894">
        <ele>580</ele>
        <time>2020-10-05T08:24:09.000Z</time>
      </trkpt>
      <trkpt lat="43.96759" lon="5.88894">
        <ele>580</ele>
        <time>2020-10-05T08:24:10.000Z</time>
      </trkpt>
      <trkpt lat="43.96759" lon="5.88894">
        <ele>580</ele>
        <time>2020-10-05T08:24:11.000Z</time>
      </trkpt>
      <trkpt lat="43.96759" lon="5.88894">
        <ele>580</ele>
        <time>2020-10-05T08:24:12.000Z</time>
      </trkpt>
      <trkpt lat="43.96759" lon="5.88894">
        <ele>580</ele>
        <time>2020-10-05T08:24:13.000Z</time>
      </trkpt>
      <trkpt lat="43.96759" lon="5.88894">
        <ele>580</ele>
        <time>2020-10-05T08:24:14.000Z</time>
      </trkpt>
      <trkpt lat="43.96759" lon="5.88894">
        <ele>580</ele>
        <time>2020-10-05T08:24:15.000Z</time>
      </trkpt>
      <trkpt lat="43.96759" lon="5.88894">
        <ele>580</ele>
        <time>2020-10-05T08:24:16.000Z</time>
      </trkpt>
      <trkpt lat="43.96759" lon="5.88894">
        <ele>580</ele>
        <time>2020-10-05T08:24:17.000Z</time>
      </trkpt>
      <trkpt lat="43.96759" lon="5.88895">
        <ele>580</ele>
        <time>2020-10-05T08:24:18.000Z</time>
      </trkpt>
      <trkpt lat="43.96759" lon="5.88895">
        <ele>580</ele>
        <time>2020-10-05T08:24:19.000Z</time>
      </trkpt>
      <trkpt lat="43.96759" lon="5.88895">
        <ele>580</ele>
        <time>2020-10-05T08:24:20.000Z</time>
      </trkpt>
      <trkpt lat="43.96759" lon="5.88895">
        <ele>580</ele>
        <time>2020-10-05T08:24:21.000Z</time>
      </trkpt>
      <trkpt lat="43.96759" lon="5.88895">
        <ele>580</ele>
        <time>2020-10-05T08:24:22.000Z</time>
      </trkpt>
      <trkpt lat="43.96759" lon="5.88895">
        <ele>580</ele>
        <time>2020-10-05T08:24:23.000Z</time>
      </trkpt>
      <trkpt lat="43.96759" lon="5.88894">
        <ele>580</ele>
        <time>2020-10-05T08:24:24.000Z</time>
      </trkpt>
      <trkpt lat="43.96759" lon="5.88894">
        <ele>580</ele>
        <time>2020-10-05T08:24:25.000Z</time>
      </trkpt>
      <trkpt lat="43.96759" lon="5.88894">
        <ele>580</ele>
        <time>2020-10-05T08:24:26.000Z</time>
      </trkpt>
      <trkpt lat="43.96759" lon="5.88894">
        <ele>580</ele>
        <time>2020-10-05T08:24:27.000Z</time>
      </trkpt>
      <trkpt lat="43.96759" lon="5.88894">
        <ele>580</ele>
        <time>2020-10-05T08:24:28.000Z</time>
      </trkpt>
      <trkpt lat="43.96759" lon="5.88894">
        <ele>580</ele>
        <time>2020-10-05T08:24:29.000Z</time>
      </trkpt>
      <trkpt lat="43.96759" lon="5.88895">
        <ele>580</ele>
        <time>2020-10-05T08:24:30.000Z</time>
      </trkpt>
      <trkpt lat="43.96759" lon="5.88895">
        <ele>580</ele>
        <time>2020-10-05T08:24:31.000Z</time>
      </trkpt>
      <trkpt lat="43.96759" lon="5.88895">
        <ele>580</ele>
        <time>2020-10-05T08:24:32.000Z</time>
      </trkpt>
      <trkpt lat="43.96759" lon="5.88895">
        <ele>580</ele>
        <time>2020-10-05T08:24:33.000Z</time>
      </trkpt>
      <trkpt lat="43.96759" lon="5.88895">
        <ele>580</ele>
        <time>2020-10-05T08:24:34.000Z</time>
      </trkpt>
      <trkpt lat="43.96759" lon="5.88895">
        <ele>580</ele>
        <time>2020-10-05T08:24:35.000Z</time>
      </trkpt>
      <trkpt lat="43.96759" lon="5.88895">
        <ele>580</ele>
        <time>2020-10-05T08:24:36.000Z</time>
      </trkpt>
      <trkpt lat="43.96759" lon="5.88895">
        <ele>580</ele>
        <time>2020-10-05T08:24:37.000Z</time>
      </trkpt>
      <trkpt lat="43.96759" lon="5.88895">
        <ele>580</ele>
        <time>2020-10-05T08:24:38.000Z</time>
      </trkpt>
      <trkpt lat="43.96759" lon="5.88895">
        <ele>580</ele>
        <time>2020-10-05T08:24:39.000Z</time>
      </trkpt>
      <trkpt lat="43.96759" lon="5.88895">
        <ele>580</ele>
        <time>2020-10-05T08:24:40.000Z</time>
      </trkpt>
      <trkpt lat="43.96759" lon="5.88895">
        <ele>580</ele>
        <time>2020-10-05T08:24:41.000Z</time>
      </trkpt>
      <trkpt lat="43.96759" lon="5.88895">
        <ele>580</ele>
        <time>2020-10-05T08:24:42.000Z</time>
      </trkpt>
      <trkpt lat="43.96759" lon="5.88895">
        <ele>580</ele>
        <time>2020-10-05T08:24:43.000Z</time>
      </trkpt>
      <trkpt lat="43.96759" lon="5.88895">
        <ele>580</ele>
        <time>2020-10-05T08:24:44.000Z</time>
      </trkpt>
      <trkpt lat="43.96759" lon="5.88895">
        <ele>580</ele>
        <time>2020-10-05T08:24:45.000Z</time>
      </trkpt>
      <trkpt lat="43.96759" lon="5.88894">
        <ele>580</ele>
        <time>2020-10-05T08:24:46.000Z</time>
      </trkpt>
      <trkpt lat="43.96759" lon="5.88894">
        <ele>580</ele>
        <time>2020-10-05T08:24:47.000Z</time>
      </trkpt>
      <trkpt lat="43.96759" lon="5.88894">
        <ele>580</ele>
        <time>2020-10-05T08:24:48.000Z</time>
      </trkpt>
      <trkpt lat="43.96759" lon="5.88894">
        <ele>580</ele>
        <time>2020-10-05T08:24:49.000Z</time>
      </trkpt>
      <trkpt lat="43.96759" lon="5.88894">
        <ele>580</ele>
        <time>2020-10-05T08:24:50.000Z</time>
      </trkpt>
      <trkpt lat="43.96759" lon="5.88894">
        <ele>580</ele>
        <time>2020-10-05T08:24:51.000Z</time>
      </trkpt>
      <trkpt lat="43.96759" lon="5.88894">
        <ele>580</ele>
        <time>2020-10-05T08:24:52.000Z</time>
      </trkpt>
      <trkpt lat="43.96759" lon="5.88894">
        <ele>580</ele>
        <time>2020-10-05T08:24:53.000Z</time>
      </trkpt>
      <trkpt lat="43.96759" lon="5.88894">
        <ele>580</ele>
        <time>2020-10-05T08:24:54.000Z</time>
      </trkpt>
      <trkpt lat="43.96759" lon="5.88894">
        <ele>580</ele>
        <time>2020-10-05T08:24:55.000Z</time>
      </trkpt>
      <trkpt lat="43.96759" lon="5.88894">
        <ele>580</ele>
        <time>2020-10-05T08:24:56.000Z</time>
      </trkpt>
      <trkpt lat="43.96759" lon="5.88894">
        <ele>580</ele>
        <time>2020-10-05T08:24:57.000Z</time>
      </trkpt>
      <trkpt lat="43.96759" lon="5.88894">
        <ele>580</ele>
        <time>2020-10-05T08:24:58.000Z</time>
      </trkpt>
      <trkpt lat="43.96759" lon="5.88894">
        <ele>580</ele>
        <time>2020-10-05T08:24:59.000Z</time>
      </trkpt>
      <trkpt lat="43.96759" lon="5.88894">
        <ele>580</ele>
        <time>2020-10-05T08:25:00.000Z</time>
      </trkpt>
      <trkpt lat="43.96759" lon="5.88894">
        <ele>580</ele>
        <time>2020-10-05T08:25:01.000Z</time>
      </trkpt>
      <trkpt lat="43.96759" lon="5.88894">
        <ele>580</ele>
        <time>2020-10-05T08:25:02.000Z</time>
      </trkpt>
      <trkpt lat="43.96759" lon="5.88894">
        <ele>580</ele>
        <time>2020-10-05T08:25:03.000Z</time>
      </trkpt>
      <trkpt lat="43.96759" lon="5.88894">
        <ele>580</ele>
        <time>2020-10-05T08:25:04.000Z</time>
      </trkpt>
      <trkpt lat="43.96759" lon="5.88894">
        <ele>580</ele>
        <time>2020-10-05T08:25:05.000Z</time>
      </trkpt>
      <trkpt lat="43.96759" lon="5.88894">
        <ele>580</ele>
        <time>2020-10-05T08:25:06.000Z</time>
      </trkpt>
      <trkpt lat="43.96759" lon="5.88894">
        <ele>580</ele>
        <time>2020-10-05T08:25:07.000Z</time>
      </trkpt>
      <trkpt lat="43.96759" lon="5.88894">
        <ele>580</ele>
        <time>2020-10-05T08:25:08.000Z</time>
      </trkpt>
      <trkpt lat="43.96759" lon="5.88894">
        <ele>580</ele>
        <time>2020-10-05T08:25:09.000Z</time>
      </trkpt>
      <trkpt lat="43.96759" lon="5.88894">
        <ele>580</ele>
        <time>2020-10-05T08:25:10.000Z</time>
      </trkpt>
      <trkpt lat="43.96759" lon="5.88894">
        <ele>580</ele>
        <time>2020-10-05T08:25:11.000Z</time>
      </trkpt>
      <trkpt lat="43.96759" lon="5.88894">
        <ele>580</ele>
        <time>2020-10-05T08:25:12.000Z</time>
      </trkpt>
      <trkpt lat="43.96759" lon="5.88894">
        <ele>580</ele>
        <time>2020-10-05T08:25:13.000Z</time>
      </trkpt>
      <trkpt lat="43.96759" lon="5.88894">
        <ele>580</ele>
        <time>2020-10-05T08:25:14.000Z</time>
      </trkpt>
      <trkpt lat="43.96759" lon="5.88894">
        <ele>580</ele>
        <time>2020-10-05T08:25:15.000Z</time>
      </trkpt>
      <trkpt lat="43.96759" lon="5.88894">
        <ele>580</ele>
        <time>2020-10-05T08:25:16.000Z</time>
      </trkpt>
      <trkpt lat="43.96759" lon="5.88894">
        <ele>580</ele>
        <time>2020-10-05T08:25:17.000Z</time>
      </trkpt>
      <trkpt lat="43.96759" lon="5.88894">
        <ele>580</ele>
        <time>2020-10-05T08:25:18.000Z</time>
      </trkpt>
      <trkpt lat="43.96759" lon="5.88894">
        <ele>580</ele>
        <time>2020-10-05T08:25:19.000Z</time>
      </trkpt>
      <trkpt lat="43.96759" lon="5.88894">
        <ele>580</ele>
        <time>2020-10-05T08:25:20.000Z</time>
      </trkpt>
      <trkpt lat="43.96759" lon="5.88894">
        <ele>580</ele>
        <time>2020-10-05T08:25:21.000Z</time>
      </trkpt>
      <trkpt lat="43.96759" lon="5.88894">
        <ele>580</ele>
        <time>2020-10-05T08:25:22.000Z</time>
      </trkpt>
      <trkpt lat="43.96759" lon="5.88894">
        <ele>580</ele>
        <time>2020-10-05T08:25:23.000Z</time>
      </trkpt>
      <trkpt lat="43.96759" lon="5.88894">
        <ele>580</ele>
        <time>2020-10-05T08:25:24.000Z</time>
      </trkpt>
      <trkpt lat="43.96759" lon="5.88894">
        <ele>580</ele>
        <time>2020-10-05T08:25:25.000Z</time>
      </trkpt>
      <trkpt lat="43.96759" lon="5.88894">
        <ele>580</ele>
        <time>2020-10-05T08:25:26.000Z</time>
      </trkpt>
      <trkpt lat="43.96759" lon="5.88894">
        <ele>580</ele>
        <time>2020-10-05T08:25:27.000Z</time>
      </trkpt>
      <trkpt lat="43.96759" lon="5.88894">
        <ele>580</ele>
        <time>2020-10-05T08:25:28.000Z</time>
      </trkpt>
      <trkpt lat="43.96759" lon="5.88894">
        <ele>580</ele>
        <time>2020-10-05T08:25:29.000Z</time>
      </trkpt>
      <trkpt lat="43.96759" lon="5.88894">
        <ele>580</ele>
        <time>2020-10-05T08:25:30.000Z</time>
      </trkpt>
      <trkpt lat="43.96759" lon="5.88894">
        <ele>580</ele>
        <time>2020-10-05T08:25:31.000Z</time>
      </trkpt>
      <trkpt lat="43.96759" lon="5.88894">
        <ele>580</ele>
        <time>2020-10-05T08:25:32.000Z</time>
      </trkpt>
      <trkpt lat="43.96759" lon="5.88894">
        <ele>580</ele>
        <time>2020-10-05T08:25:33.000Z</time>
      </trkpt>
      <trkpt lat="43.96759" lon="5.88894">
        <ele>580</ele>
        <time>2020-10-05T08:25:34.000Z</time>
      </trkpt>
      <trkpt lat="43.96759" lon="5.88894">
        <ele>580</ele>
        <time>2020-10-05T08:25:35.000Z</time>
      </trkpt>
      <trkpt lat="43.96759" lon="5.88894">
        <ele>580</ele>
        <time>2020-10-05T08:25:36.000Z</time>
      </trkpt>
      <trkpt lat="43.96759" lon="5.88894">
        <ele>580</ele>
        <time>2020-10-05T08:25:37.000Z</time>
      </trkpt>
      <trkpt lat="43.96759" lon="5.88894">
        <ele>580</ele>
        <time>2020-10-05T08:25:38.000Z</time>
      </trkpt>
      <trkpt lat="43.96759" lon="5.88894">
        <ele>580</ele>
        <time>2020-10-05T08:25:39.000Z</time>
      </trkpt>
      <trkpt lat="43.96759" lon="5.88894">
        <ele>580</ele>
        <time>2020-10-05T08:25:40.000Z</time>
      </trkpt>
      <trkpt lat="43.96759" lon="5.88894">
        <ele>580</ele>
        <time>2020-10-05T08:25:41.000Z</time>
      </trkpt>
      <trkpt lat="43.96759" lon="5.88894">
        <ele>580</ele>
        <time>2020-10-05T08:25:42.000Z</time>
      </trkpt>
      <trkpt lat="43.96759" lon="5.88894">
        <ele>580</ele>
        <time>2020-10-05T08:25:43.000Z</time>
      </trkpt>
      <trkpt lat="43.96759" lon="5.88894">
        <ele>580</ele>
        <time>2020-10-05T08:25:44.000Z</time>
      </trkpt>
      <trkpt lat="43.96759" lon="5.88894">
        <ele>580</ele>
        <time>2020-10-05T08:25:45.000Z</time>
      </trkpt>
      <trkpt lat="43.96759" lon="5.88894">
        <ele>580</ele>
        <time>2020-10-05T08:25:46.000Z</time>
      </trkpt>
      <trkpt lat="43.96759" lon="5.88894">
        <ele>580</ele>
        <time>2020-10-05T08:25:47.000Z</time>
      </trkpt>
      <trkpt lat="43.96759" lon="5.88894">
        <ele>580</ele>
        <time>2020-10-05T08:25:48.000Z</time>
      </trkpt>
      <trkpt lat="43.96759" lon="5.88894">
        <ele>580</ele>
        <time>2020-10-05T08:25:49.000Z</time>
      </trkpt>
      <trkpt lat="43.96759" lon="5.88894">
        <ele>580</ele>
        <time>2020-10-05T08:25:50.000Z</time>
      </trkpt>
      <trkpt lat="43.96759" lon="5.88894">
        <ele>580</ele>
        <time>2020-10-05T08:25:51.000Z</time>
      </trkpt>
      <trkpt lat="43.96759" lon="5.88894">
        <ele>580</ele>
        <time>2020-10-05T08:25:52.000Z</time>
      </trkpt>
      <trkpt lat="43.96759" lon="5.88894">
        <ele>580</ele>
        <time>2020-10-05T08:25:53.000Z</time>
      </trkpt>
      <trkpt lat="43.96759" lon="5.88894">
        <ele>580</ele>
        <time>2020-10-05T08:25:54.000Z</time>
      </trkpt>
      <trkpt lat="43.96759" lon="5.88894">
        <ele>580</ele>
        <time>2020-10-05T08:25:55.000Z</time>
      </trkpt>
      <trkpt lat="43.96759" lon="5.88894">
        <ele>580</ele>
        <time>2020-10-05T08:25:56.000Z</time>
      </trkpt>
      <trkpt lat="43.96759" lon="5.88894">
        <ele>580</ele>
        <time>2020-10-05T08:25:57.000Z</time>
      </trkpt>
      <trkpt lat="43.96759" lon="5.88894">
        <ele>580</ele>
        <time>2020-10-05T08:25:58.000Z</time>
      </trkpt>
      <trkpt lat="43.96759" lon="5.88894">
        <ele>580</ele>
        <time>2020-10-05T08:25:59.000Z</time>
      </trkpt>
      <trkpt lat="43.96759" lon="5.88894">
        <ele>580</ele>
        <time>2020-10-05T08:26:00.000Z</time>
      </trkpt>
      <trkpt lat="43.96759" lon="5.88894">
        <ele>580</ele>
        <time>2020-10-05T08:26:01.000Z</time>
      </trkpt>
      <trkpt lat="43.96759" lon="5.88894">
        <ele>580</ele>
        <time>2020-10-05T08:26:02.000Z</time>
      </trkpt>
      <trkpt lat="43.96759" lon="5.88895">
        <ele>580</ele>
        <time>2020-10-05T08:26:03.000Z</time>
      </trkpt>
      <trkpt lat="43.96759" lon="5.88895">
        <ele>580</ele>
        <time>2020-10-05T08:26:04.000Z</time>
      </trkpt>
      <trkpt lat="43.96759" lon="5.88894">
        <ele>580</ele>
        <time>2020-10-05T08:26:05.000Z</time>
      </trkpt>
      <trkpt lat="43.96759" lon="5.88894">
        <ele>580</ele>
        <time>2020-10-05T08:26:06.000Z</time>
      </trkpt>
      <trkpt lat="43.96759" lon="5.88894">
        <ele>580</ele>
        <time>2020-10-05T08:26:07.000Z</time>
      </trkpt>
      <trkpt lat="43.96759" lon="5.88894">
        <ele>580</ele>
        <time>2020-10-05T08:26:08.000Z</time>
      </trkpt>
      <trkpt lat="43.96759" lon="5.88894">
        <ele>580</ele>
        <time>2020-10-05T08:26:09.000Z</time>
      </trkpt>
      <trkpt lat="43.96759" lon="5.88894">
        <ele>580</ele>
        <time>2020-10-05T08:26:10.000Z</time>
      </trkpt>
      <trkpt lat="43.96759" lon="5.88894">
        <ele>580</ele>
        <time>2020-10-05T08:26:11.000Z</time>
      </trkpt>
      <trkpt lat="43.96759" lon="5.88895">
        <ele>580</ele>
        <time>2020-10-05T08:26:12.000Z</time>
      </trkpt>
      <trkpt lat="43.96759" lon="5.88895">
        <ele>581</ele>
        <time>2020-10-05T08:26:13.000Z</time>
      </trkpt>
      <trkpt lat="43.96759" lon="5.88895">
        <ele>581</ele>
        <time>2020-10-05T08:26:14.000Z</time>
      </trkpt>
      <trkpt lat="43.96759" lon="5.88895">
        <ele>581</ele>
        <time>2020-10-05T08:26:15.000Z</time>
      </trkpt>
      <trkpt lat="43.96759" lon="5.88895">
        <ele>581</ele>
        <time>2020-10-05T08:26:16.000Z</time>
      </trkpt>
      <trkpt lat="43.96759" lon="5.88895">
        <ele>581</ele>
        <time>2020-10-05T08:26:17.000Z</time>
      </trkpt>
      <trkpt lat="43.96759" lon="5.88895">
        <ele>581</ele>
        <time>2020-10-05T08:26:18.000Z</time>
      </trkpt>
      <trkpt lat="43.96759" lon="5.88895">
        <ele>581</ele>
        <time>2020-10-05T08:26:19.000Z</time>
      </trkpt>
      <trkpt lat="43.96759" lon="5.88895">
        <ele>581</ele>
        <time>2020-10-05T08:26:20.000Z</time>
      </trkpt>
      <trkpt lat="43.96759" lon="5.88895">
        <ele>581</ele>
        <time>2020-10-05T08:26:21.000Z</time>
      </trkpt>
      <trkpt lat="43.96759" lon="5.88895">
        <ele>581</ele>
        <time>2020-10-05T08:26:22.000Z</time>
      </trkpt>
      <trkpt lat="43.96759" lon="5.88895">
        <ele>581</ele>
        <time>2020-10-05T08:26:23.000Z</time>
      </trkpt>
      <trkpt lat="43.96759" lon="5.88895">
        <ele>581</ele>
        <time>2020-10-05T08:26:24.000Z</time>
      </trkpt>
      <trkpt lat="43.96759" lon="5.88895">
        <ele>581</ele>
        <time>2020-10-05T08:26:25.000Z</time>
      </trkpt>
      <trkpt lat="43.96759" lon="5.88895">
        <ele>581</ele>
        <time>2020-10-05T08:26:26.000Z</time>
      </trkpt>
      <trkpt lat="43.96759" lon="5.88895">
        <ele>581</ele>
        <time>2020-10-05T08:26:27.000Z</time>
      </trkpt>
      <trkpt lat="43.96759" lon="5.88896">
        <ele>581</ele>
        <time>2020-10-05T08:26:28.000Z</time>
      </trkpt>
      <trkpt lat="43.96759" lon="5.88895">
        <ele>581</ele>
        <time>2020-10-05T08:26:29.000Z</time>
      </trkpt>
      <trkpt lat="43.96759" lon="5.88895">
        <ele>581</ele>
        <time>2020-10-05T08:26:30.000Z</time>
      </trkpt>
      <trkpt lat="43.96759" lon="5.88895">
        <ele>581</ele>
        <time>2020-10-05T08:26:31.000Z</time>
      </trkpt>
      <trkpt lat="43.96759" lon="5.88896">
        <ele>581</ele>
        <time>2020-10-05T08:26:32.000Z</time>
      </trkpt>
      <trkpt lat="43.96759" lon="5.88896">
        <ele>581</ele>
        <time>2020-10-05T08:26:33.000Z</time>
      </trkpt>
      <trkpt lat="43.96759" lon="5.88896">
        <ele>581</ele>
        <time>2020-10-05T08:26:34.000Z</time>
      </trkpt>
      <trkpt lat="43.96759" lon="5.88896">
        <ele>581</ele>
        <time>2020-10-05T08:26:35.000Z</time>
      </trkpt>
      <trkpt lat="43.96759" lon="5.88896">
        <ele>581</ele>
        <time>2020-10-05T08:26:36.000Z</time>
      </trkpt>
      <trkpt lat="43.96759" lon="5.88896">
        <ele>581</ele>
        <time>2020-10-05T08:26:37.000Z</time>
      </trkpt>
      <trkpt lat="43.96759" lon="5.88896">
        <ele>581</ele>
        <time>2020-10-05T08:26:38.000Z</time>
      </trkpt>
      <trkpt lat="43.96759" lon="5.88896">
        <ele>581</ele>
        <time>2020-10-05T08:26:39.000Z</time>
      </trkpt>
      <trkpt lat="43.96759" lon="5.88896">
        <ele>581</ele>
        <time>2020-10-05T08:26:40.000Z</time>
      </trkpt>
      <trkpt lat="43.96759" lon="5.88896">
        <ele>581</ele>
        <time>2020-10-05T08:26:41.000Z</time>
      </trkpt>
      <trkpt lat="43.96759" lon="5.88896">
        <ele>581</ele>
        <time>2020-10-05T08:26:42.000Z</time>
      </trkpt>
      <trkpt lat="43.96759" lon="5.88896">
        <ele>581</ele>
        <time>2020-10-05T08:26:43.000Z</time>
      </trkpt>
      <trkpt lat="43.96759" lon="5.88896">
        <ele>581</ele>
        <time>2020-10-05T08:26:44.000Z</time>
      </trkpt>
      <trkpt lat="43.96759" lon="5.88896">
        <ele>581</ele>
        <time>2020-10-05T08:26:45.000Z</time>
      </trkpt>
      <trkpt lat="43.96759" lon="5.88896">
        <ele>581</ele>
        <time>2020-10-05T08:26:46.000Z</time>
      </trkpt>
      <trkpt lat="43.96759" lon="5.88896">
        <ele>581</ele>
        <time>2020-10-05T08:26:47.000Z</time>
      </trkpt>
      <trkpt lat="43.96759" lon="5.88896">
        <ele>581</ele>
        <time>2020-10-05T08:26:48.000Z</time>
      </trkpt>
      <trkpt lat="43.96759" lon="5.88896">
        <ele>581</ele>
        <time>2020-10-05T08:26:49.000Z</time>
      </trkpt>
      <trkpt lat="43.96759" lon="5.88896">
        <ele>581</ele>
        <time>2020-10-05T08:26:50.000Z</time>
      </trkpt>
      <trkpt lat="43.96759" lon="5.88896">
        <ele>581</ele>
        <time>2020-10-05T08:26:51.000Z</time>
      </trkpt>
      <trkpt lat="43.96759" lon="5.88896">
        <ele>581</ele>
        <time>2020-10-05T08:26:52.000Z</time>
      </trkpt>
      <trkpt lat="43.96759" lon="5.88896">
        <ele>581</ele>
        <time>2020-10-05T08:26:53.000Z</time>
      </trkpt>
      <trkpt lat="43.96759" lon="5.88896">
        <ele>581</ele>
        <time>2020-10-05T08:26:54.000Z</time>
      </trkpt>
      <trkpt lat="43.96759" lon="5.88896">
        <ele>581</ele>
        <time>2020-10-05T08:26:55.000Z</time>
      </trkpt>
      <trkpt lat="43.96759" lon="5.88896">
        <ele>581</ele>
        <time>2020-10-05T08:26:56.000Z</time>
      </trkpt>
      <trkpt lat="43.96759" lon="5.88896">
        <ele>581</ele>
        <time>2020-10-05T08:26:57.000Z</time>
      </trkpt>
      <trkpt lat="43.96759" lon="5.88896">
        <ele>581</ele>
        <time>2020-10-05T08:26:58.000Z</time>
      </trkpt>
      <trkpt lat="43.96759" lon="5.88896">
        <ele>581</ele>
        <time>2020-10-05T08:26:59.000Z</time>
      </trkpt>
      <trkpt lat="43.96759" lon="5.88896">
        <ele>581</ele>
        <time>2020-10-05T08:27:00.000Z</time>
      </trkpt>
      <trkpt lat="43.96759" lon="5.88896">
        <ele>581</ele>
        <time>2020-10-05T08:27:01.000Z</time>
      </trkpt>
      <trkpt lat="43.96759" lon="5.88896">
        <ele>581</ele>
        <time>2020-10-05T08:27:02.000Z</time>
      </trkpt>
      <trkpt lat="43.96759" lon="5.88896">
        <ele>581</ele>
        <time>2020-10-05T08:27:03.000Z</time>
      </trkpt>
      <trkpt lat="43.96759" lon="5.88896">
        <ele>581</ele>
        <time>2020-10-05T08:27:04.000Z</time>
      </trkpt>
      <trkpt lat="43.96759" lon="5.88896">
        <ele>581</ele>
        <time>2020-10-05T08:27:05.000Z</time>
      </trkpt>
      <trkpt lat="43.96759" lon="5.88896">
        <ele>581</ele>
        <time>2020-10-05T08:27:06.000Z</time>
      </trkpt>
      <trkpt lat="43.96759" lon="5.88896">
        <ele>581</ele>
        <time>2020-10-05T08:27:07.000Z</time>
      </trkpt>
      <trkpt lat="43.9676" lon="5.88896">
        <ele>581</ele>
        <time>2020-10-05T08:27:08.000Z</time>
      </trkpt>
      <trkpt lat="43.9676" lon="5.88896">
        <ele>581</ele>
        <time>2020-10-05T08:27:09.000Z</time>
      </trkpt>
      <trkpt lat="43.9676" lon="5.88896">
        <ele>581</ele>
        <time>2020-10-05T08:27:10.000Z</time>
      </trkpt>
      <trkpt lat="43.9676" lon="5.88896">
        <ele>581</ele>
        <time>2020-10-05T08:27:11.000Z</time>
      </trkpt>
      <trkpt lat="43.9676" lon="5.88896">
        <ele>581</ele>
        <time>2020-10-05T08:27:12.000Z</time>
      </trkpt>
      <trkpt lat="43.9676" lon="5.88896">
        <ele>581</ele>
        <time>2020-10-05T08:27:13.000Z</time>
      </trkpt>
      <trkpt lat="43.9676" lon="5.88896">
        <ele>581</ele>
        <time>2020-10-05T08:27:14.000Z</time>
      </trkpt>
      <trkpt lat="43.9676" lon="5.88896">
        <ele>581</ele>
        <time>2020-10-05T08:27:15.000Z</time>
      </trkpt>
      <trkpt lat="43.9676" lon="5.88896">
        <ele>581</ele>
        <time>2020-10-05T08:27:16.000Z</time>
      </trkpt>
      <trkpt lat="43.9676" lon="5.88896">
        <ele>581</ele>
        <time>2020-10-05T08:27:17.000Z</time>
      </trkpt>
      <trkpt lat="43.9676" lon="5.88896">
        <ele>581</ele>
        <time>2020-10-05T08:27:18.000Z</time>
      </trkpt>
      <trkpt lat="43.9676" lon="5.88896">
        <ele>581</ele>
        <time>2020-10-05T08:27:19.000Z</time>
      </trkpt>
      <trkpt lat="43.9676" lon="5.88896">
        <ele>581</ele>
        <time>2020-10-05T08:27:20.000Z</time>
      </trkpt>
      <trkpt lat="43.9676" lon="5.88896">
        <ele>581</ele>
        <time>2020-10-05T08:27:21.000Z</time>
      </trkpt>
      <trkpt lat="43.9676" lon="5.88896">
        <ele>581</ele>
        <time>2020-10-05T08:27:22.000Z</time>
      </trkpt>
      <trkpt lat="43.9676" lon="5.88896">
        <ele>581</ele>
        <time>2020-10-05T08:27:23.000Z</time>
      </trkpt>
      <trkpt lat="43.9676" lon="5.88896">
        <ele>581</ele>
        <time>2020-10-05T08:27:24.000Z</time>
      </trkpt>
      <trkpt lat="43.9676" lon="5.88897">
        <ele>581</ele>
        <time>2020-10-05T08:27:25.000Z</time>
      </trkpt>
      <trkpt lat="43.9676" lon="5.88897">
        <ele>581</ele>
        <time>2020-10-05T08:27:26.000Z</time>
      </trkpt>
      <trkpt lat="43.9676" lon="5.88896">
        <ele>581</ele>
        <time>2020-10-05T08:27:27.000Z</time>
      </trkpt>
      <trkpt lat="43.9676" lon="5.88897">
        <ele>581</ele>
        <time>2020-10-05T08:27:28.000Z</time>
      </trkpt>
      <trkpt lat="43.9676" lon="5.88897">
        <ele>581</ele>
        <time>2020-10-05T08:27:29.000Z</time>
      </trkpt>
      <trkpt lat="43.9676" lon="5.88897">
        <ele>581</ele>
        <time>2020-10-05T08:27:30.000Z</time>
      </trkpt>
      <trkpt lat="43.9676" lon="5.88897">
        <ele>581</ele>
        <time>2020-10-05T08:27:31.000Z</time>
      </trkpt>
      <trkpt lat="43.9676" lon="5.88897">
        <ele>581</ele>
        <time>2020-10-05T08:27:32.000Z</time>
      </trkpt>
      <trkpt lat="43.9676" lon="5.88897">
        <ele>581</ele>
        <time>2020-10-05T08:27:33.000Z</time>
      </trkpt>
      <trkpt lat="43.9676" lon="5.88897">
        <ele>581</ele>
        <time>2020-10-05T08:27:34.000Z</time>
      </trkpt>
      <trkpt lat="43.9676" lon="5.88897">
        <ele>581</ele>
        <time>2020-10-05T08:27:35.000Z</time>
      </trkpt>
      <trkpt lat="43.9676" lon="5.88897">
        <ele>581</ele>
        <time>2020-10-05T08:27:36.000Z</time>
      </trkpt>
      <trkpt lat="43.9676" lon="5.88897">
        <ele>581</ele>
        <time>2020-10-05T08:27:37.000Z</time>
      </trkpt>
      <trkpt lat="43.9676" lon="5.88897">
        <ele>581</ele>
        <time>2020-10-05T08:27:38.000Z</time>
      </trkpt>
      <trkpt lat="43.9676" lon="5.88897">
        <ele>581</ele>
        <time>2020-10-05T08:27:39.000Z</time>
      </trkpt>
      <trkpt lat="43.9676" lon="5.88897">
        <ele>581</ele>
        <time>2020-10-05T08:27:40.000Z</time>
      </trkpt>
      <trkpt lat="43.9676" lon="5.88897">
        <ele>581</ele>
        <time>2020-10-05T08:27:41.000Z</time>
      </trkpt>
      <trkpt lat="43.9676" lon="5.88897">
        <ele>581</ele>
        <time>2020-10-05T08:27:42.000Z</time>
      </trkpt>
      <trkpt lat="43.9676" lon="5.88897">
        <ele>581</ele>
        <time>2020-10-05T08:27:43.000Z</time>
      </trkpt>
      <trkpt lat="43.9676" lon="5.88897">
        <ele>581</ele>
        <time>2020-10-05T08:27:44.000Z</time>
      </trkpt>
      <trkpt lat="43.9676" lon="5.88897">
        <ele>581</ele>
        <time>2020-10-05T08:27:45.000Z</time>
      </trkpt>
      <trkpt lat="43.9676" lon="5.88897">
        <ele>581</ele>
        <time>2020-10-05T08:27:46.000Z</time>
      </trkpt>
      <trkpt lat="43.9676" lon="5.88897">
        <ele>581</ele>
        <time>2020-10-05T08:27:47.000Z</time>
      </trkpt>
      <trkpt lat="43.9676" lon="5.88897">
        <ele>581</ele>
        <time>2020-10-05T08:27:48.000Z</time>
      </trkpt>
      <trkpt lat="43.9676" lon="5.88897">
        <ele>581</ele>
        <time>2020-10-05T08:27:49.000Z</time>
      </trkpt>
      <trkpt lat="43.9676" lon="5.88897">
        <ele>581</ele>
        <time>2020-10-05T08:27:50.000Z</time>
      </trkpt>
      <trkpt lat="43.9676" lon="5.88897">
        <ele>581</ele>
        <time>2020-10-05T08:27:51.000Z</time>
      </trkpt>
      <trkpt lat="43.9676" lon="5.88897">
        <ele>581</ele>
        <time>2020-10-05T08:27:52.000Z</time>
      </trkpt>
      <trkpt lat="43.9676" lon="5.88897">
        <ele>581</ele>
        <time>2020-10-05T08:27:53.000Z</time>
      </trkpt>
      <trkpt lat="43.9676" lon="5.88897">
        <ele>581</ele>
        <time>2020-10-05T08:27:54.000Z</time>
      </trkpt>
      <trkpt lat="43.9676" lon="5.88897">
        <ele>581</ele>
        <time>2020-10-05T08:27:55.000Z</time>
      </trkpt>
      <trkpt lat="43.9676" lon="5.88897">
        <ele>581</ele>
        <time>2020-10-05T08:27:56.000Z</time>
      </trkpt>
      <trkpt lat="43.9676" lon="5.88897">
        <ele>581</ele>
        <time>2020-10-05T08:27:57.000Z</time>
      </trkpt>
      <trkpt lat="43.9676" lon="5.88897">
        <ele>581</ele>
        <time>2020-10-05T08:27:58.000Z</time>
      </trkpt>
      <trkpt lat="43.9676" lon="5.88897">
        <ele>581</ele>
        <time>2020-10-05T08:27:59.000Z</time>
      </trkpt>
      <trkpt lat="43.9676" lon="5.88897">
        <ele>582</ele>
        <time>2020-10-05T08:28:00.000Z</time>
      </trkpt>
      <trkpt lat="43.9676" lon="5.88897">
        <ele>582</ele>
        <time>2020-10-05T08:28:01.000Z</time>
      </trkpt>
      <trkpt lat="43.9676" lon="5.88897">
        <ele>582</ele>
        <time>2020-10-05T08:28:02.000Z</time>
      </trkpt>
      <trkpt lat="43.9676" lon="5.88897">
        <ele>582</ele>
        <time>2020-10-05T08:28:03.000Z</time>
      </trkpt>
      <trkpt lat="43.9676" lon="5.88897">
        <ele>582</ele>
        <time>2020-10-05T08:28:04.000Z</time>
      </trkpt>
      <trkpt lat="43.9676" lon="5.88897">
        <ele>582</ele>
        <time>2020-10-05T08:28:05.000Z</time>
      </trkpt>
      <trkpt lat="43.9676" lon="5.88897">
        <ele>582</ele>
        <time>2020-10-05T08:28:06.000Z</time>
      </trkpt>
      <trkpt lat="43.9676" lon="5.88897">
        <ele>582</ele>
        <time>2020-10-05T08:28:07.000Z</time>
      </trkpt>
      <trkpt lat="43.9676" lon="5.88897">
        <ele>582</ele>
        <time>2020-10-05T08:28:08.000Z</time>
      </trkpt>
      <trkpt lat="43.9676" lon="5.88897">
        <ele>582</ele>
        <time>2020-10-05T08:28:09.000Z</time>
      </trkpt>
      <trkpt lat="43.9676" lon="5.88897">
        <ele>582</ele>
        <time>2020-10-05T08:28:10.000Z</time>
      </trkpt>
      <trkpt lat="43.9676" lon="5.88897">
        <ele>582</ele>
        <time>2020-10-05T08:28:11.000Z</time>
      </trkpt>
      <trkpt lat="43.9676" lon="5.88897">
        <ele>582</ele>
        <time>2020-10-05T08:28:12.000Z</time>
      </trkpt>
      <trkpt lat="43.9676" lon="5.88897">
        <ele>582</ele>
        <time>2020-10-05T08:28:13.000Z</time>
      </trkpt>
      <trkpt lat="43.9676" lon="5.88898">
        <ele>582</ele>
        <time>2020-10-05T08:28:14.000Z</time>
      </trkpt>
      <trkpt lat="43.9676" lon="5.88898">
        <ele>582</ele>
        <time>2020-10-05T08:28:15.000Z</time>
      </trkpt>
      <trkpt lat="43.9676" lon="5.88898">
        <ele>582</ele>
        <time>2020-10-05T08:28:16.000Z</time>
      </trkpt>
      <trkpt lat="43.9676" lon="5.88898">
        <ele>582</ele>
        <time>2020-10-05T08:28:17.000Z</time>
      </trkpt>
      <trkpt lat="43.9676" lon="5.88898">
        <ele>582</ele>
        <time>2020-10-05T08:28:18.000Z</time>
      </trkpt>
      <trkpt lat="43.9676" lon="5.88898">
        <ele>582</ele>
        <time>2020-10-05T08:28:19.000Z</time>
      </trkpt>
      <trkpt lat="43.9676" lon="5.88898">
        <ele>582</ele>
        <time>2020-10-05T08:28:20.000Z</time>
      </trkpt>
      <trkpt lat="43.9676" lon="5.88898">
        <ele>582</ele>
        <time>2020-10-05T08:28:21.000Z</time>
      </trkpt>
      <trkpt lat="43.9676" lon="5.88898">
        <ele>582</ele>
        <time>2020-10-05T08:28:22.000Z</time>
      </trkpt>
      <trkpt lat="43.9676" lon="5.88898">
        <ele>582</ele>
        <time>2020-10-05T08:28:23.000Z</time>
      </trkpt>
      <trkpt lat="43.9676" lon="5.88898">
        <ele>582</ele>
        <time>2020-10-05T08:28:24.000Z</time>
      </trkpt>
      <trkpt lat="43.9676" lon="5.88898">
        <ele>582</ele>
        <time>2020-10-05T08:28:25.000Z</time>
      </trkpt>
      <trkpt lat="43.9676" lon="5.88898">
        <ele>582</ele>
        <time>2020-10-05T08:28:26.000Z</time>
      </trkpt>
      <trkpt lat="43.9676" lon="5.88898">
        <ele>582</ele>
        <time>2020-10-05T08:28:27.000Z</time>
      </trkpt>
      <trkpt lat="43.9676" lon="5.88898">
        <ele>582</ele>
        <time>2020-10-05T08:28:28.000Z</time>
      </trkpt>
      <trkpt lat="43.9676" lon="5.88898">
        <ele>582</ele>
        <time>2020-10-05T08:28:29.000Z</time>
      </trkpt>
      <trkpt lat="43.9676" lon="5.88898">
        <ele>582</ele>
        <time>2020-10-05T08:28:30.000Z</time>
      </trkpt>
      <trkpt lat="43.9676" lon="5.88898">
        <ele>582</ele>
        <time>2020-10-05T08:28:31.000Z</time>
      </trkpt>
      <trkpt lat="43.9676" lon="5.88898">
        <ele>582</ele>
        <time>2020-10-05T08:28:32.000Z</time>
      </trkpt>
      <trkpt lat="43.9676" lon="5.88898">
        <ele>582</ele>
        <time>2020-10-05T08:28:33.000Z</time>
      </trkpt>
      <trkpt lat="43.9676" lon="5.88898">
        <ele>582</ele>
        <time>2020-10-05T08:28:34.000Z</time>
      </trkpt>
      <trkpt lat="43.9676" lon="5.88899">
        <ele>582</ele>
        <time>2020-10-05T08:28:35.000Z</time>
      </trkpt>
      <trkpt lat="43.9676" lon="5.88898">
        <ele>582</ele>
        <time>2020-10-05T08:28:36.000Z</time>
      </trkpt>
      <trkpt lat="43.9676" lon="5.88898">
        <ele>582</ele>
        <time>2020-10-05T08:28:37.000Z</time>
      </trkpt>
      <trkpt lat="43.9676" lon="5.88898">
        <ele>582</ele>
        <time>2020-10-05T08:28:38.000Z</time>
      </trkpt>
      <trkpt lat="43.9676" lon="5.88898">
        <ele>582</ele>
        <time>2020-10-05T08:28:39.000Z</time>
      </trkpt>
      <trkpt lat="43.9676" lon="5.88898">
        <ele>582</ele>
        <time>2020-10-05T08:28:40.000Z</time>
      </trkpt>
      <trkpt lat="43.9676" lon="5.88898">
        <ele>582</ele>
        <time>2020-10-05T08:28:41.000Z</time>
      </trkpt>
      <trkpt lat="43.9676" lon="5.88898">
        <ele>582</ele>
        <time>2020-10-05T08:28:42.000Z</time>
      </trkpt>
      <trkpt lat="43.9676" lon="5.88898">
        <ele>582</ele>
        <time>2020-10-05T08:28:43.000Z</time>
      </trkpt>
      <trkpt lat="43.9676" lon="5.88898">
        <ele>582</ele>
        <time>2020-10-05T08:28:44.000Z</time>
      </trkpt>
      <trkpt lat="43.9676" lon="5.88898">
        <ele>582</ele>
        <time>2020-10-05T08:28:45.000Z</time>
      </trkpt>
      <trkpt lat="43.9676" lon="5.88898">
        <ele>583</ele>
        <time>2020-10-05T08:28:46.000Z</time>
      </trkpt>
      <trkpt lat="43.96761" lon="5.88898">
        <ele>583</ele>
        <time>2020-10-05T08:28:47.000Z</time>
      </trkpt>
      <trkpt lat="43.96761" lon="5.88898">
        <ele>583</ele>
        <time>2020-10-05T08:28:48.000Z</time>
      </trkpt>
      <trkpt lat="43.96761" lon="5.88898">
        <ele>583</ele>
        <time>2020-10-05T08:28:49.000Z</time>
      </trkpt>
      <trkpt lat="43.96761" lon="5.88898">
        <ele>583</ele>
        <time>2020-10-05T08:28:50.000Z</time>
      </trkpt>
      <trkpt lat="43.96761" lon="5.88898">
        <ele>583</ele>
        <time>2020-10-05T08:28:51.000Z</time>
      </trkpt>
      <trkpt lat="43.96761" lon="5.88898">
        <ele>583</ele>
        <time>2020-10-05T08:28:52.000Z</time>
      </trkpt>
      <trkpt lat="43.96761" lon="5.88898">
        <ele>583</ele>
        <time>2020-10-05T08:28:53.000Z</time>
      </trkpt>
      <trkpt lat="43.9676" lon="5.88898">
        <ele>583</ele>
        <time>2020-10-05T08:28:54.000Z</time>
      </trkpt>
      <trkpt lat="43.9676" lon="5.88898">
        <ele>583</ele>
        <time>2020-10-05T08:28:55.000Z</time>
      </trkpt>
      <trkpt lat="43.9676" lon="5.88898">
        <ele>583</ele>
        <time>2020-10-05T08:28:56.000Z</time>
      </trkpt>
      <trkpt lat="43.9676" lon="5.88898">
        <ele>583</ele>
        <time>2020-10-05T08:28:57.000Z</time>
      </trkpt>
      <trkpt lat="43.96761" lon="5.88898">
        <ele>583</ele>
        <time>2020-10-05T08:28:58.000Z</time>
      </trkpt>
      <trkpt lat="43.96761" lon="5.88898">
        <ele>583</ele>
        <time>2020-10-05T08:28:59.000Z</time>
      </trkpt>
      <trkpt lat="43.96761" lon="5.88898">
        <ele>583</ele>
        <time>2020-10-05T08:29:00.000Z</time>
      </trkpt>
      <trkpt lat="43.96761" lon="5.88898">
        <ele>583</ele>
        <time>2020-10-05T08:29:01.000Z</time>
      </trkpt>
      <trkpt lat="43.9676" lon="5.88898">
        <ele>583</ele>
        <time>2020-10-05T08:29:02.000Z</time>
      </trkpt>
      <trkpt lat="43.96761" lon="5.88898">
        <ele>583</ele>
        <time>2020-10-05T08:29:03.000Z</time>
      </trkpt>
      <trkpt lat="43.96761" lon="5.88899">
        <ele>583</ele>
        <time>2020-10-05T08:29:04.000Z</time>
      </trkpt>
      <trkpt lat="43.96761" lon="5.88899">
        <ele>583</ele>
        <time>2020-10-05T08:29:05.000Z</time>
      </trkpt>
      <trkpt lat="43.96761" lon="5.88899">
        <ele>583</ele>
        <time>2020-10-05T08:29:06.000Z</time>
      </trkpt>
      <trkpt lat="43.96761" lon="5.88899">
        <ele>583</ele>
        <time>2020-10-05T08:29:07.000Z</time>
      </trkpt>
      <trkpt lat="43.96761" lon="5.88899">
        <ele>583</ele>
        <time>2020-10-05T08:29:08.000Z</time>
      </trkpt>
      <trkpt lat="43.96761" lon="5.88899">
        <ele>583</ele>
        <time>2020-10-05T08:29:09.000Z</time>
      </trkpt>
      <trkpt lat="43.96761" lon="5.88899">
        <ele>583</ele>
        <time>2020-10-05T08:29:10.000Z</time>
      </trkpt>
      <trkpt lat="43.96761" lon="5.88899">
        <ele>583</ele>
        <time>2020-10-05T08:29:11.000Z</time>
      </trkpt>
      <trkpt lat="43.96761" lon="5.88899">
        <ele>583</ele>
        <time>2020-10-05T08:29:12.000Z</time>
      </trkpt>
      <trkpt lat="43.96761" lon="5.88899">
        <ele>583</ele>
        <time>2020-10-05T08:29:13.000Z</time>
      </trkpt>
      <trkpt lat="43.96761" lon="5.88898">
        <ele>583</ele>
        <time>2020-10-05T08:29:14.000Z</time>
      </trkpt>
      <trkpt lat="43.96761" lon="5.88899">
        <ele>583</ele>
        <time>2020-10-05T08:29:15.000Z</time>
      </trkpt>
      <trkpt lat="43.96761" lon="5.88899">
        <ele>583</ele>
        <time>2020-10-05T08:29:16.000Z</time>
      </trkpt>
      <trkpt lat="43.96761" lon="5.88899">
        <ele>583</ele>
        <time>2020-10-05T08:29:17.000Z</time>
      </trkpt>
      <trkpt lat="43.96761" lon="5.889">
        <ele>583</ele>
        <time>2020-10-05T08:29:18.000Z</time>
      </trkpt>
      <trkpt lat="43.96761" lon="5.88901">
        <ele>583</ele>
        <time>2020-10-05T08:29:19.000Z</time>
      </trkpt>
      <trkpt lat="43.96762" lon="5.88901">
        <ele>583</ele>
        <time>2020-10-05T08:29:20.000Z</time>
      </trkpt>
      <trkpt lat="43.96763" lon="5.88902">
        <ele>583</ele>
        <time>2020-10-05T08:29:21.000Z</time>
      </trkpt>
      <trkpt lat="43.96763" lon="5.88902">
        <ele>583</ele>
        <time>2020-10-05T08:29:22.000Z</time>
      </trkpt>
      <trkpt lat="43.96763" lon="5.88902">
        <ele>583</ele>
        <time>2020-10-05T08:29:23.000Z</time>
      </trkpt>
      <trkpt lat="43.96763" lon="5.88902">
        <ele>583</ele>
        <time>2020-10-05T08:29:24.000Z</time>
      </trkpt>
      <trkpt lat="43.96763" lon="5.88901">
        <ele>583</ele>
        <time>2020-10-05T08:29:25.000Z</time>
      </trkpt>
      <trkpt lat="43.96763" lon="5.88901">
        <ele>583</ele>
        <time>2020-10-05T08:29:26.000Z</time>
      </trkpt>
      <trkpt lat="43.96763" lon="5.88901">
        <ele>583</ele>
        <time>2020-10-05T08:29:27.000Z</time>
      </trkpt>
      <trkpt lat="43.96763" lon="5.88901">
        <ele>583</ele>
        <time>2020-10-05T08:29:28.000Z</time>
      </trkpt>
      <trkpt lat="43.96763" lon="5.88901">
        <ele>583</ele>
        <time>2020-10-05T08:29:29.000Z</time>
      </trkpt>
      <trkpt lat="43.96763" lon="5.88901">
        <ele>583</ele>
        <time>2020-10-05T08:29:30.000Z</time>
      </trkpt>
      <trkpt lat="43.96763" lon="5.88901">
        <ele>583</ele>
        <time>2020-10-05T08:29:31.000Z</time>
      </trkpt>
      <trkpt lat="43.96763" lon="5.88901">
        <ele>583</ele>
        <time>2020-10-05T08:29:32.000Z</time>
      </trkpt>
      <trkpt lat="43.96763" lon="5.88901">
        <ele>583</ele>
        <time>2020-10-05T08:29:33.000Z</time>
      </trkpt>
      <trkpt lat="43.96763" lon="5.88901">
        <ele>583</ele>
        <time>2020-10-05T08:29:34.000Z</time>
      </trkpt>
      <trkpt lat="43.96763" lon="5.88901">
        <ele>583</ele>
        <time>2020-10-05T08:29:35.000Z</time>
      </trkpt>
      <trkpt lat="43.96763" lon="5.88902">
        <ele>583</ele>
        <time>2020-10-05T08:29:36.000Z</time>
      </trkpt>
      <trkpt lat="43.96763" lon="5.88902">
        <ele>583</ele>
        <time>2020-10-05T08:29:37.000Z</time>
      </trkpt>
      <trkpt lat="43.96763" lon="5.88902">
        <ele>583</ele>
        <time>2020-10-05T08:29:38.000Z</time>
      </trkpt>
      <trkpt lat="43.96763" lon="5.88902">
        <ele>583</ele>
        <time>2020-10-05T08:29:39.000Z</time>
      </trkpt>
      <trkpt lat="43.96763" lon="5.88902">
        <ele>583</ele>
        <time>2020-10-05T08:29:40.000Z</time>
      </trkpt>
      <trkpt lat="43.96763" lon="5.88901">
        <ele>583</ele>
        <time>2020-10-05T08:29:41.000Z</time>
      </trkpt>
      <trkpt lat="43.96763" lon="5.88901">
        <ele>583</ele>
        <time>2020-10-05T08:29:42.000Z</time>
      </trkpt>
      <trkpt lat="43.96763" lon="5.88901">
        <ele>583</ele>
        <time>2020-10-05T08:29:43.000Z</time>
      </trkpt>
      <trkpt lat="43.96763" lon="5.88901">
        <ele>583</ele>
        <time>2020-10-05T08:29:44.000Z</time>
      </trkpt>
      <trkpt lat="43.96763" lon="5.88901">
        <ele>583</ele>
        <time>2020-10-05T08:29:45.000Z</time>
      </trkpt>
      <trkpt lat="43.96763" lon="5.88901">
        <ele>583</ele>
        <time>2020-10-05T08:29:46.000Z</time>
      </trkpt>
      <trkpt lat="43.96762" lon="5.88901">
        <ele>583</ele>
        <time>2020-10-05T08:29:47.000Z</time>
      </trkpt>
      <trkpt lat="43.96762" lon="5.88901">
        <ele>583</ele>
        <time>2020-10-05T08:29:48.000Z</time>
      </trkpt>
      <trkpt lat="43.96762" lon="5.88901">
        <ele>583</ele>
        <time>2020-10-05T08:29:49.000Z</time>
      </trkpt>
      <trkpt lat="43.96762" lon="5.88901">
        <ele>583</ele>
        <time>2020-10-05T08:29:50.000Z</time>
      </trkpt>
      <trkpt lat="43.96762" lon="5.88901">
        <ele>583</ele>
        <time>2020-10-05T08:29:51.000Z</time>
      </trkpt>
      <trkpt lat="43.96762" lon="5.88901">
        <ele>583</ele>
        <time>2020-10-05T08:29:52.000Z</time>
      </trkpt>
      <trkpt lat="43.96763" lon="5.88902">
        <ele>583</ele>
        <time>2020-10-05T08:29:53.000Z</time>
      </trkpt>
      <trkpt lat="43.96763" lon="5.88902">
        <ele>583</ele>
        <time>2020-10-05T08:29:54.000Z</time>
      </trkpt>
      <trkpt lat="43.96763" lon="5.88901">
        <ele>583</ele>
        <time>2020-10-05T08:29:55.000Z</time>
      </trkpt>
      <trkpt lat="43.96763" lon="5.88902">
        <ele>583</ele>
        <time>2020-10-05T08:29:56.000Z</time>
      </trkpt>
      <trkpt lat="43.96764" lon="5.88902">
        <ele>582</ele>
        <time>2020-10-05T08:29:57.000Z</time>
      </trkpt>
      <trkpt lat="43.96764" lon="5.88902">
        <ele>582</ele>
        <time>2020-10-05T08:29:58.000Z</time>
      </trkpt>
      <trkpt lat="43.96765" lon="5.88903">
        <ele>582</ele>
        <time>2020-10-05T08:29:59.000Z</time>
      </trkpt>
      <trkpt lat="43.96765" lon="5.88904">
        <ele>582</ele>
        <time>2020-10-05T08:30:00.000Z</time>
      </trkpt>
      <trkpt lat="43.96766" lon="5.88905">
        <ele>582</ele>
        <time>2020-10-05T08:30:01.000Z</time>
      </trkpt>
      <trkpt lat="43.96767" lon="5.88906">
        <ele>582</ele>
        <time>2020-10-05T08:30:02.000Z</time>
      </trkpt>
      <trkpt lat="43.96767" lon="5.88906">
        <ele>582</ele>
        <time>2020-10-05T08:30:03.000Z</time>
      </trkpt>
      <trkpt lat="43.96768" lon="5.88906">
        <ele>582</ele>
        <time>2020-10-05T08:30:04.000Z</time>
      </trkpt>
      <trkpt lat="43.96768" lon="5.88907">
        <ele>582</ele>
        <time>2020-10-05T08:30:05.000Z</time>
      </trkpt>
      <trkpt lat="43.96769" lon="5.88907">
        <ele>581</ele>
        <time>2020-10-05T08:30:06.000Z</time>
      </trkpt>
      <trkpt lat="43.96769" lon="5.88907">
        <ele>581</ele>
        <time>2020-10-05T08:30:07.000Z</time>
      </trkpt>
      <trkpt lat="43.96769" lon="5.88907">
        <ele>581</ele>
        <time>2020-10-05T08:30:08.000Z</time>
      </trkpt>
      <trkpt lat="43.9677" lon="5.88907">
        <ele>581</ele>
        <time>2020-10-05T08:30:09.000Z</time>
      </trkpt>
      <trkpt lat="43.9677" lon="5.88908">
        <ele>581</ele>
        <time>2020-10-05T08:30:10.000Z</time>
      </trkpt>
      <trkpt lat="43.9677" lon="5.88908">
        <ele>581</ele>
        <time>2020-10-05T08:30:11.000Z</time>
      </trkpt>
      <trkpt lat="43.96771" lon="5.88908">
        <ele>581</ele>
        <time>2020-10-05T08:30:12.000Z</time>
      </trkpt>
      <trkpt lat="43.96771" lon="5.88908">
        <ele>581</ele>
        <time>2020-10-05T08:30:13.000Z</time>
      </trkpt>
      <trkpt lat="43.96771" lon="5.88908">
        <ele>581</ele>
        <time>2020-10-05T08:30:14.000Z</time>
      </trkpt>
      <trkpt lat="43.96771" lon="5.88908">
        <ele>581</ele>
        <time>2020-10-05T08:30:15.000Z</time>
      </trkpt>
      <trkpt lat="43.96772" lon="5.88908">
        <ele>581</ele>
        <time>2020-10-05T08:30:16.000Z</time>
      </trkpt>
      <trkpt lat="43.96772" lon="5.88909">
        <ele>581</ele>
        <time>2020-10-05T08:30:17.000Z</time>
      </trkpt>
      <trkpt lat="43.96773" lon="5.88909">
        <ele>581</ele>
        <time>2020-10-05T08:30:18.000Z</time>
      </trkpt>
      <trkpt lat="43.96773" lon="5.8891">
        <ele>581</ele>
        <time>2020-10-05T08:30:19.000Z</time>
      </trkpt>
      <trkpt lat="43.96774" lon="5.8891">
        <ele>581</ele>
        <time>2020-10-05T08:30:20.000Z</time>
      </trkpt>
      <trkpt lat="43.96775" lon="5.88911">
        <ele>581</ele>
        <time>2020-10-05T08:30:21.000Z</time>
      </trkpt>
      <trkpt lat="43.96776" lon="5.88911">
        <ele>581</ele>
        <time>2020-10-05T08:30:22.000Z</time>
      </trkpt>
      <trkpt lat="43.96777" lon="5.88912">
        <ele>581</ele>
        <time>2020-10-05T08:30:23.000Z</time>
      </trkpt>
      <trkpt lat="43.96778" lon="5.88913">
        <ele>581</ele>
        <time>2020-10-05T08:30:24.000Z</time>
      </trkpt>
      <trkpt lat="43.96779" lon="5.88913">
        <ele>580</ele>
        <time>2020-10-05T08:30:25.000Z</time>
      </trkpt>
      <trkpt lat="43.9678" lon="5.88914">
        <ele>580</ele>
        <time>2020-10-05T08:30:26.000Z</time>
      </trkpt>
      <trkpt lat="43.9678" lon="5.88914">
        <ele>580</ele>
        <time>2020-10-05T08:30:27.000Z</time>
      </trkpt>
      <trkpt lat="43.96781" lon="5.88915">
        <ele>580</ele>
        <time>2020-10-05T08:30:28.000Z</time>
      </trkpt>
      <trkpt lat="43.96782" lon="5.88916">
        <ele>580</ele>
        <time>2020-10-05T08:30:29.000Z</time>
      </trkpt>
      <trkpt lat="43.96783" lon="5.88917">
        <ele>579</ele>
        <time>2020-10-05T08:30:30.000Z</time>
      </trkpt>
      <trkpt lat="43.96784" lon="5.88918">
        <ele>579</ele>
        <time>2020-10-05T08:30:31.000Z</time>
      </trkpt>
      <trkpt lat="43.96784" lon="5.88919">
        <ele>579</ele>
        <time>2020-10-05T08:30:32.000Z</time>
      </trkpt>
      <trkpt lat="43.96785" lon="5.8892">
        <ele>579</ele>
        <time>2020-10-05T08:30:33.000Z</time>
      </trkpt>
      <trkpt lat="43.96786" lon="5.88921">
        <ele>579</ele>
        <time>2020-10-05T08:30:34.000Z</time>
      </trkpt>
      <trkpt lat="43.96787" lon="5.88922">
        <ele>578</ele>
        <time>2020-10-05T08:30:35.000Z</time>
      </trkpt>
      <trkpt lat="43.96788" lon="5.88923">
        <ele>578</ele>
        <time>2020-10-05T08:30:36.000Z</time>
      </trkpt>
      <trkpt lat="43.96789" lon="5.88924">
        <ele>578</ele>
        <time>2020-10-05T08:30:37.000Z</time>
      </trkpt>
      <trkpt lat="43.9679" lon="5.88925">
        <ele>578</ele>
        <time>2020-10-05T08:30:38.000Z</time>
      </trkpt>
      <trkpt lat="43.96791" lon="5.88925">
        <ele>578</ele>
        <time>2020-10-05T08:30:39.000Z</time>
      </trkpt>
      <trkpt lat="43.96792" lon="5.88926">
        <ele>578</ele>
        <time>2020-10-05T08:30:40.000Z</time>
      </trkpt>
      <trkpt lat="43.96793" lon="5.88926">
        <ele>578</ele>
        <time>2020-10-05T08:30:41.000Z</time>
      </trkpt>
      <trkpt lat="43.96794" lon="5.88927">
        <ele>578</ele>
        <time>2020-10-05T08:30:42.000Z</time>
      </trkpt>
      <trkpt lat="43.96794" lon="5.88928">
        <ele>578</ele>
        <time>2020-10-05T08:30:43.000Z</time>
      </trkpt>
      <trkpt lat="43.96795" lon="5.88928">
        <ele>577</ele>
        <time>2020-10-05T08:30:44.000Z</time>
      </trkpt>
      <trkpt lat="43.96796" lon="5.88929">
        <ele>577</ele>
        <time>2020-10-05T08:30:45.000Z</time>
      </trkpt>
      <trkpt lat="43.96797" lon="5.8893">
        <ele>577</ele>
        <time>2020-10-05T08:30:46.000Z</time>
      </trkpt>
      <trkpt lat="43.96798" lon="5.88931">
        <ele>577</ele>
        <time>2020-10-05T08:30:47.000Z</time>
      </trkpt>
      <trkpt lat="43.96799" lon="5.88932">
        <ele>577</ele>
        <time>2020-10-05T08:30:48.000Z</time>
      </trkpt>
      <trkpt lat="43.968" lon="5.88933">
        <ele>577</ele>
        <time>2020-10-05T08:30:49.000Z</time>
      </trkpt>
      <trkpt lat="43.968" lon="5.88934">
        <ele>577</ele>
        <time>2020-10-05T08:30:50.000Z</time>
      </trkpt>
      <trkpt lat="43.96801" lon="5.88935">
        <ele>577</ele>
        <time>2020-10-05T08:30:51.000Z</time>
      </trkpt>
      <trkpt lat="43.96801" lon="5.88935">
        <ele>577</ele>
        <time>2020-10-05T08:30:52.000Z</time>
      </trkpt>
      <trkpt lat="43.96802" lon="5.88936">
        <ele>577</ele>
        <time>2020-10-05T08:30:53.000Z</time>
      </trkpt>
      <trkpt lat="43.96803" lon="5.88936">
        <ele>577</ele>
        <time>2020-10-05T08:30:54.000Z</time>
      </trkpt>
      <trkpt lat="43.96803" lon="5.88937">
        <ele>577</ele>
        <time>2020-10-05T08:30:55.000Z</time>
      </trkpt>
      <trkpt lat="43.96804" lon="5.88937">
        <ele>577</ele>
        <time>2020-10-05T08:30:56.000Z</time>
      </trkpt>
      <trkpt lat="43.96804" lon="5.88937">
        <ele>577</ele>
        <time>2020-10-05T08:30:57.000Z</time>
      </trkpt>
      <trkpt lat="43.96804" lon="5.88937">
        <ele>577</ele>
        <time>2020-10-05T08:30:58.000Z</time>
      </trkpt>
      <trkpt lat="43.96804" lon="5.88937">
        <ele>577</ele>
        <time>2020-10-05T08:30:59.000Z</time>
      </trkpt>
      <trkpt lat="43.96804" lon="5.88937">
        <ele>577</ele>
        <time>2020-10-05T08:31:00.000Z</time>
      </trkpt>
      <trkpt lat="43.96804" lon="5.88937">
        <ele>577</ele>
        <time>2020-10-05T08:31:01.000Z</time>
      </trkpt>
      <trkpt lat="43.96804" lon="5.88937">
        <ele>577</ele>
        <time>2020-10-05T08:31:02.000Z</time>
      </trkpt>
      <trkpt lat="43.96805" lon="5.88938">
        <ele>577</ele>
        <time>2020-10-05T08:31:03.000Z</time>
      </trkpt>
      <trkpt lat="43.96806" lon="5.88939">
        <ele>577</ele>
        <time>2020-10-05T08:31:04.000Z</time>
      </trkpt>
      <trkpt lat="43.96806" lon="5.8894">
        <ele>577</ele>
        <time>2020-10-05T08:31:05.000Z</time>
      </trkpt>
      <trkpt lat="43.96807" lon="5.88941">
        <ele>577</ele>
        <time>2020-10-05T08:31:06.000Z</time>
      </trkpt>
      <trkpt lat="43.96808" lon="5.88942">
        <ele>577</ele>
        <time>2020-10-05T08:31:07.000Z</time>
      </trkpt>
      <trkpt lat="43.96808" lon="5.88943">
        <ele>577</ele>
        <time>2020-10-05T08:31:08.000Z</time>
      </trkpt>
      <trkpt lat="43.96809" lon="5.88944">
        <ele>577</ele>
        <time>2020-10-05T08:31:09.000Z</time>
      </trkpt>
      <trkpt lat="43.9681" lon="5.88945">
        <ele>577</ele>
        <time>2020-10-05T08:31:10.000Z</time>
      </trkpt>
      <trkpt lat="43.9681" lon="5.88946">
        <ele>577</ele>
        <time>2020-10-05T08:31:11.000Z</time>
      </trkpt>
      <trkpt lat="43.96811" lon="5.88947">
        <ele>577</ele>
        <time>2020-10-05T08:31:12.000Z</time>
      </trkpt>
      <trkpt lat="43.96811" lon="5.88948">
        <ele>577</ele>
        <time>2020-10-05T08:31:13.000Z</time>
      </trkpt>
      <trkpt lat="43.96812" lon="5.88948">
        <ele>577</ele>
        <time>2020-10-05T08:31:14.000Z</time>
      </trkpt>
      <trkpt lat="43.96813" lon="5.88949">
        <ele>577</ele>
        <time>2020-10-05T08:31:15.000Z</time>
      </trkpt>
      <trkpt lat="43.96814" lon="5.8895">
        <ele>577</ele>
        <time>2020-10-05T08:31:16.000Z</time>
      </trkpt>
      <trkpt lat="43.96815" lon="5.88951">
        <ele>576</ele>
        <time>2020-10-05T08:31:17.000Z</time>
      </trkpt>
      <trkpt lat="43.96816" lon="5.88951">
        <ele>576</ele>
        <time>2020-10-05T08:31:18.000Z</time>
      </trkpt>
      <trkpt lat="43.96817" lon="5.88952">
        <ele>576</ele>
        <time>2020-10-05T08:31:19.000Z</time>
      </trkpt>
      <trkpt lat="43.96818" lon="5.88953">
        <ele>576</ele>
        <time>2020-10-05T08:31:20.000Z</time>
      </trkpt>
      <trkpt lat="43.96819" lon="5.88954">
        <ele>576</ele>
        <time>2020-10-05T08:31:21.000Z</time>
      </trkpt>
      <trkpt lat="43.9682" lon="5.88954">
        <ele>576</ele>
        <time>2020-10-05T08:31:22.000Z</time>
      </trkpt>
      <trkpt lat="43.96821" lon="5.88955">
        <ele>576</ele>
        <time>2020-10-05T08:31:23.000Z</time>
      </trkpt>
      <trkpt lat="43.96822" lon="5.88955">
        <ele>576</ele>
        <time>2020-10-05T08:31:24.000Z</time>
      </trkpt>
      <trkpt lat="43.96823" lon="5.88956">
        <ele>577</ele>
        <time>2020-10-05T08:31:25.000Z</time>
      </trkpt>
      <trkpt lat="43.96824" lon="5.88956">
        <ele>577</ele>
        <time>2020-10-05T08:31:26.000Z</time>
      </trkpt>
      <trkpt lat="43.96824" lon="5.88956">
        <ele>577</ele>
        <time>2020-10-05T08:31:27.000Z</time>
      </trkpt>
      <trkpt lat="43.96824" lon="5.88957">
        <ele>577</ele>
        <time>2020-10-05T08:31:28.000Z</time>
      </trkpt>
      <trkpt lat="43.96824" lon="5.88957">
        <ele>577</ele>
        <time>2020-10-05T08:31:29.000Z</time>
      </trkpt>
      <trkpt lat="43.96824" lon="5.88957">
        <ele>577</ele>
        <time>2020-10-05T08:31:30.000Z</time>
      </trkpt>
      <trkpt lat="43.96824" lon="5.88957">
        <ele>577</ele>
        <time>2020-10-05T08:31:31.000Z</time>
      </trkpt>
      <trkpt lat="43.96824" lon="5.88958">
        <ele>577</ele>
        <time>2020-10-05T08:31:32.000Z</time>
      </trkpt>
      <trkpt lat="43.96824" lon="5.88958">
        <ele>577</ele>
        <time>2020-10-05T08:31:33.000Z</time>
      </trkpt>
      <trkpt lat="43.96823" lon="5.88959">
        <ele>577</ele>
        <time>2020-10-05T08:31:34.000Z</time>
      </trkpt>
      <trkpt lat="43.96823" lon="5.88961">
        <ele>577</ele>
        <time>2020-10-05T08:31:35.000Z</time>
      </trkpt>
      <trkpt lat="43.96822" lon="5.88962">
        <ele>578</ele>
        <time>2020-10-05T08:31:36.000Z</time>
      </trkpt>
      <trkpt lat="43.96821" lon="5.88963">
        <ele>578</ele>
        <time>2020-10-05T08:31:37.000Z</time>
      </trkpt>
      <trkpt lat="43.9682" lon="5.88964">
        <ele>578</ele>
        <time>2020-10-05T08:31:38.000Z</time>
      </trkpt>
      <trkpt lat="43.96819" lon="5.88965">
        <ele>578</ele>
        <time>2020-10-05T08:31:39.000Z</time>
      </trkpt>
      <trkpt lat="43.96819" lon="5.88966">
        <ele>578</ele>
        <time>2020-10-05T08:31:40.000Z</time>
      </trkpt>
      <trkpt lat="43.96818" lon="5.88967">
        <ele>578</ele>
        <time>2020-10-05T08:31:41.000Z</time>
      </trkpt>
      <trkpt lat="43.96817" lon="5.88968">
        <ele>578</ele>
        <time>2020-10-05T08:31:42.000Z</time>
      </trkpt>
      <trkpt lat="43.96816" lon="5.88968">
        <ele>578</ele>
        <time>2020-10-05T08:31:43.000Z</time>
      </trkpt>
      <trkpt lat="43.96816" lon="5.88969">
        <ele>578</ele>
        <time>2020-10-05T08:31:44.000Z</time>
      </trkpt>
      <trkpt lat="43.96815" lon="5.8897">
        <ele>578</ele>
        <time>2020-10-05T08:31:45.000Z</time>
      </trkpt>
      <trkpt lat="43.96815" lon="5.8897">
        <ele>578</ele>
        <time>2020-10-05T08:31:46.000Z</time>
      </trkpt>
      <trkpt lat="43.96815" lon="5.8897">
        <ele>578</ele>
        <time>2020-10-05T08:31:47.000Z</time>
      </trkpt>
      <trkpt lat="43.96815" lon="5.8897">
        <ele>578</ele>
        <time>2020-10-05T08:31:48.000Z</time>
      </trkpt>
      <trkpt lat="43.96815" lon="5.88969">
        <ele>578</ele>
        <time>2020-10-05T08:31:49.000Z</time>
      </trkpt>
      <trkpt lat="43.96815" lon="5.88969">
        <ele>578</ele>
        <time>2020-10-05T08:31:50.000Z</time>
      </trkpt>
      <trkpt lat="43.96815" lon="5.88969">
        <ele>578</ele>
        <time>2020-10-05T08:31:51.000Z</time>
      </trkpt>
      <trkpt lat="43.96815" lon="5.88969">
        <ele>578</ele>
        <time>2020-10-05T08:31:52.000Z</time>
      </trkpt>
      <trkpt lat="43.96815" lon="5.88969">
        <ele>578</ele>
        <time>2020-10-05T08:31:53.000Z</time>
      </trkpt>
      <trkpt lat="43.96815" lon="5.88969">
        <ele>578</ele>
        <time>2020-10-05T08:31:54.000Z</time>
      </trkpt>
      <trkpt lat="43.96816" lon="5.88968">
        <ele>578</ele>
        <time>2020-10-05T08:31:55.000Z</time>
      </trkpt>
      <trkpt lat="43.96816" lon="5.88967">
        <ele>577</ele>
        <time>2020-10-05T08:31:56.000Z</time>
      </trkpt>
      <trkpt lat="43.96817" lon="5.88966">
        <ele>577</ele>
        <time>2020-10-05T08:31:57.000Z</time>
      </trkpt>
      <trkpt lat="43.96818" lon="5.88965">
        <ele>577</ele>
        <time>2020-10-05T08:31:58.000Z</time>
      </trkpt>
      <trkpt lat="43.96818" lon="5.88964">
        <ele>577</ele>
        <time>2020-10-05T08:31:59.000Z</time>
      </trkpt>
      <trkpt lat="43.96819" lon="5.88963">
        <ele>577</ele>
        <time>2020-10-05T08:32:00.000Z</time>
      </trkpt>
      <trkpt lat="43.9682" lon="5.88962">
        <ele>577</ele>
        <time>2020-10-05T08:32:01.000Z</time>
      </trkpt>
      <trkpt lat="43.96821" lon="5.88961">
        <ele>577</ele>
        <time>2020-10-05T08:32:02.000Z</time>
      </trkpt>
      <trkpt lat="43.96822" lon="5.8896">
        <ele>577</ele>
        <time>2020-10-05T08:32:03.000Z</time>
      </trkpt>
      <trkpt lat="43.96822" lon="5.88959">
        <ele>577</ele>
        <time>2020-10-05T08:32:04.000Z</time>
      </trkpt>
      <trkpt lat="43.96822" lon="5.88958">
        <ele>577</ele>
        <time>2020-10-05T08:32:05.000Z</time>
      </trkpt>
      <trkpt lat="43.96822" lon="5.88957">
        <ele>577</ele>
        <time>2020-10-05T08:32:06.000Z</time>
      </trkpt>
      <trkpt lat="43.96822" lon="5.88956">
        <ele>577</ele>
        <time>2020-10-05T08:32:07.000Z</time>
      </trkpt>
      <trkpt lat="43.96821" lon="5.88956">
        <ele>577</ele>
        <time>2020-10-05T08:32:08.000Z</time>
      </trkpt>
      <trkpt lat="43.9682" lon="5.88955">
        <ele>577</ele>
        <time>2020-10-05T08:32:09.000Z</time>
      </trkpt>
      <trkpt lat="43.96819" lon="5.88955">
        <ele>577</ele>
        <time>2020-10-05T08:32:10.000Z</time>
      </trkpt>
      <trkpt lat="43.96819" lon="5.88955">
        <ele>577</ele>
        <time>2020-10-05T08:32:11.000Z</time>
      </trkpt>
      <trkpt lat="43.96818" lon="5.88955">
        <ele>577</ele>
        <time>2020-10-05T08:32:12.000Z</time>
      </trkpt>
      <trkpt lat="43.96818" lon="5.88955">
        <ele>577</ele>
        <time>2020-10-05T08:32:13.000Z</time>
      </trkpt>
      <trkpt lat="43.96818" lon="5.88955">
        <ele>577</ele>
        <time>2020-10-05T08:32:14.000Z</time>
      </trkpt>
      <trkpt lat="43.96818" lon="5.88955">
        <ele>576</ele>
        <time>2020-10-05T08:32:15.000Z</time>
      </trkpt>
      <trkpt lat="43.96818" lon="5.88955">
        <ele>576</ele>
        <time>2020-10-05T08:32:16.000Z</time>
      </trkpt>
      <trkpt lat="43.96818" lon="5.88955">
        <ele>576</ele>
        <time>2020-10-05T08:32:17.000Z</time>
      </trkpt>
      <trkpt lat="43.96818" lon="5.88955">
        <ele>576</ele>
        <time>2020-10-05T08:32:18.000Z</time>
      </trkpt>
      <trkpt lat="43.96818" lon="5.88955">
        <ele>576</ele>
        <time>2020-10-05T08:32:19.000Z</time>
      </trkpt>
      <trkpt lat="43.96818" lon="5.88955">
        <ele>576</ele>
        <time>2020-10-05T08:32:20.000Z</time>
      </trkpt>
      <trkpt lat="43.96818" lon="5.88954">
        <ele>576</ele>
        <time>2020-10-05T08:32:21.000Z</time>
      </trkpt>
      <trkpt lat="43.96818" lon="5.88954">
        <ele>576</ele>
        <time>2020-10-05T08:32:22.000Z</time>
      </trkpt>
      <trkpt lat="43.96818" lon="5.88954">
        <ele>576</ele>
        <time>2020-10-05T08:32:23.000Z</time>
      </trkpt>
      <trkpt lat="43.96818" lon="5.88954">
        <ele>576</ele>
        <time>2020-10-05T08:32:24.000Z</time>
      </trkpt>
      <trkpt lat="43.96818" lon="5.88954">
        <ele>576</ele>
        <time>2020-10-05T08:32:25.000Z</time>
      </trkpt>
      <trkpt lat="43.96818" lon="5.88954">
        <ele>576</ele>
        <time>2020-10-05T08:32:26.000Z</time>
      </trkpt>
      <trkpt lat="43.96818" lon="5.88955">
        <ele>576</ele>
        <time>2020-10-05T08:32:27.000Z</time>
      </trkpt>
      <trkpt lat="43.96819" lon="5.88955">
        <ele>576</ele>
        <time>2020-10-05T08:32:28.000Z</time>
      </trkpt>
      <trkpt lat="43.9682" lon="5.88955">
        <ele>576</ele>
        <time>2020-10-05T08:32:29.000Z</time>
      </trkpt>
      <trkpt lat="43.96821" lon="5.88955">
        <ele>576</ele>
        <time>2020-10-05T08:32:30.000Z</time>
      </trkpt>
      <trkpt lat="43.96823" lon="5.88955">
        <ele>576</ele>
        <time>2020-10-05T08:32:31.000Z</time>
      </trkpt>
      <trkpt lat="43.96824" lon="5.88955">
        <ele>576</ele>
        <time>2020-10-05T08:32:32.000Z</time>
      </trkpt>
      <trkpt lat="43.96825" lon="5.88955">
        <ele>576</ele>
        <time>2020-10-05T08:32:33.000Z</time>
      </trkpt>
      <trkpt lat="43.96826" lon="5.88955">
        <ele>576</ele>
        <time>2020-10-05T08:32:34.000Z</time>
      </trkpt>
      <trkpt lat="43.96828" lon="5.88956">
        <ele>576</ele>
        <time>2020-10-05T08:32:35.000Z</time>
      </trkpt>
      <trkpt lat="43.96829" lon="5.88956">
        <ele>576</ele>
        <time>2020-10-05T08:32:36.000Z</time>
      </trkpt>
      <trkpt lat="43.9683" lon="5.88957">
        <ele>576</ele>
        <time>2020-10-05T08:32:37.000Z</time>
      </trkpt>
      <trkpt lat="43.96831" lon="5.88958">
        <ele>576</ele>
        <time>2020-10-05T08:32:38.000Z</time>
      </trkpt>
      <trkpt lat="43.96832" lon="5.8896">
        <ele>576</ele>
        <time>2020-10-05T08:32:39.000Z</time>
      </trkpt>
      <trkpt lat="43.96833" lon="5.88961">
        <ele>576</ele>
        <time>2020-10-05T08:32:40.000Z</time>
      </trkpt>
      <trkpt lat="43.96834" lon="5.88962">
        <ele>576</ele>
        <time>2020-10-05T08:32:41.000Z</time>
      </trkpt>
      <trkpt lat="43.96835" lon="5.88963">
        <ele>576</ele>
        <time>2020-10-05T08:32:42.000Z</time>
      </trkpt>
      <trkpt lat="43.96836" lon="5.88964">
        <ele>577</ele>
        <time>2020-10-05T08:32:43.000Z</time>
      </trkpt>
      <trkpt lat="43.96837" lon="5.88965">
        <ele>577</ele>
        <time>2020-10-05T08:32:44.000Z</time>
      </trkpt>
      <trkpt lat="43.96837" lon="5.88966">
        <ele>577</ele>
        <time>2020-10-05T08:32:45.000Z</time>
      </trkpt>
      <trkpt lat="43.96838" lon="5.88968">
        <ele>577</ele>
        <time>2020-10-05T08:32:46.000Z</time>
      </trkpt>
      <trkpt lat="43.96839" lon="5.88969">
        <ele>577</ele>
        <time>2020-10-05T08:32:47.000Z</time>
      </trkpt>
      <trkpt lat="43.9684" lon="5.8897">
        <ele>577</ele>
        <time>2020-10-05T08:32:48.000Z</time>
      </trkpt>
      <trkpt lat="43.96841" lon="5.88971">
        <ele>577</ele>
        <time>2020-10-05T08:32:49.000Z</time>
      </trkpt>
      <trkpt lat="43.96842" lon="5.88972">
        <ele>577</ele>
        <time>2020-10-05T08:32:50.000Z</time>
      </trkpt>
      <trkpt lat="43.96843" lon="5.88973">
        <ele>577</ele>
        <time>2020-10-05T08:32:51.000Z</time>
      </trkpt>
      <trkpt lat="43.96844" lon="5.88974">
        <ele>577</ele>
        <time>2020-10-05T08:32:52.000Z</time>
      </trkpt>
      <trkpt lat="43.96845" lon="5.88975">
        <ele>577</ele>
        <time>2020-10-05T08:32:53.000Z</time>
      </trkpt>
      <trkpt lat="43.96846" lon="5.88976">
        <ele>577</ele>
        <time>2020-10-05T08:32:54.000Z</time>
      </trkpt>
      <trkpt lat="43.96847" lon="5.88977">
        <ele>577</ele>
        <time>2020-10-05T08:32:55.000Z</time>
      </trkpt>
      <trkpt lat="43.96848" lon="5.88978">
        <ele>577</ele>
        <time>2020-10-05T08:32:56.000Z</time>
      </trkpt>
      <trkpt lat="43.96849" lon="5.88978">
        <ele>577</ele>
        <time>2020-10-05T08:32:57.000Z</time>
      </trkpt>
      <trkpt lat="43.9685" lon="5.88979">
        <ele>577</ele>
        <time>2020-10-05T08:32:58.000Z</time>
      </trkpt>
      <trkpt lat="43.96851" lon="5.88979">
        <ele>577</ele>
        <time>2020-10-05T08:32:59.000Z</time>
      </trkpt>
      <trkpt lat="43.96852" lon="5.88979">
        <ele>577</ele>
        <time>2020-10-05T08:33:00.000Z</time>
      </trkpt>
      <trkpt lat="43.96854" lon="5.8898">
        <ele>577</ele>
        <time>2020-10-05T08:33:01.000Z</time>
      </trkpt>
      <trkpt lat="43.96855" lon="5.8898">
        <ele>577</ele>
        <time>2020-10-05T08:33:02.000Z</time>
      </trkpt>
      <trkpt lat="43.96855" lon="5.8898">
        <ele>577</ele>
        <time>2020-10-05T08:33:03.000Z</time>
      </trkpt>
      <trkpt lat="43.96856" lon="5.88981">
        <ele>577</ele>
        <time>2020-10-05T08:33:04.000Z</time>
      </trkpt>
      <trkpt lat="43.96857" lon="5.88981">
        <ele>577</ele>
        <time>2020-10-05T08:33:05.000Z</time>
      </trkpt>
      <trkpt lat="43.96858" lon="5.88982">
        <ele>577</ele>
        <time>2020-10-05T08:33:06.000Z</time>
      </trkpt>
      <trkpt lat="43.96859" lon="5.88983">
        <ele>577</ele>
        <time>2020-10-05T08:33:07.000Z</time>
      </trkpt>
      <trkpt lat="43.9686" lon="5.88983">
        <ele>577</ele>
        <time>2020-10-05T08:33:08.000Z</time>
      </trkpt>
      <trkpt lat="43.96861" lon="5.88984">
        <ele>577</ele>
        <time>2020-10-05T08:33:09.000Z</time>
      </trkpt>
      <trkpt lat="43.96862" lon="5.88985">
        <ele>577</ele>
        <time>2020-10-05T08:33:10.000Z</time>
      </trkpt>
      <trkpt lat="43.96863" lon="5.88986">
        <ele>577</ele>
        <time>2020-10-05T08:33:11.000Z</time>
      </trkpt>
      <trkpt lat="43.96864" lon="5.88987">
        <ele>577</ele>
        <time>2020-10-05T08:33:12.000Z</time>
      </trkpt>
      <trkpt lat="43.96865" lon="5.88988">
        <ele>578</ele>
        <time>2020-10-05T08:33:13.000Z</time>
      </trkpt>
      <trkpt lat="43.96867" lon="5.88988">
        <ele>578</ele>
        <time>2020-10-05T08:33:14.000Z</time>
      </trkpt>
      <trkpt lat="43.96868" lon="5.88989">
        <ele>578</ele>
        <time>2020-10-05T08:33:15.000Z</time>
      </trkpt>
      <trkpt lat="43.9687" lon="5.88989">
        <ele>578</ele>
        <time>2020-10-05T08:33:16.000Z</time>
      </trkpt>
      <trkpt lat="43.96871" lon="5.8899">
        <ele>578</ele>
        <time>2020-10-05T08:33:17.000Z</time>
      </trkpt>
      <trkpt lat="43.96873" lon="5.8899">
        <ele>578</ele>
        <time>2020-10-05T08:33:18.000Z</time>
      </trkpt>
      <trkpt lat="43.96874" lon="5.88991">
        <ele>578</ele>
        <time>2020-10-05T08:33:19.000Z</time>
      </trkpt>
      <trkpt lat="43.96875" lon="5.88992">
        <ele>578</ele>
        <time>2020-10-05T08:33:20.000Z</time>
      </trkpt>
      <trkpt lat="43.96877" lon="5.88993">
        <ele>578</ele>
        <time>2020-10-05T08:33:21.000Z</time>
      </trkpt>
      <trkpt lat="43.96878" lon="5.88994">
        <ele>578</ele>
        <time>2020-10-05T08:33:22.000Z</time>
      </trkpt>
      <trkpt lat="43.96879" lon="5.88995">
        <ele>577</ele>
        <time>2020-10-05T08:33:23.000Z</time>
      </trkpt>
      <trkpt lat="43.9688" lon="5.88996">
        <ele>577</ele>
        <time>2020-10-05T08:33:24.000Z</time>
      </trkpt>
      <trkpt lat="43.96881" lon="5.88997">
        <ele>577</ele>
        <time>2020-10-05T08:33:25.000Z</time>
      </trkpt>
      <trkpt lat="43.96882" lon="5.88998">
        <ele>577</ele>
        <time>2020-10-05T08:33:26.000Z</time>
      </trkpt>
      <trkpt lat="43.96883" lon="5.88999">
        <ele>577</ele>
        <time>2020-10-05T08:33:27.000Z</time>
      </trkpt>
      <trkpt lat="43.96884" lon="5.89">
        <ele>577</ele>
        <time>2020-10-05T08:33:28.000Z</time>
      </trkpt>
      <trkpt lat="43.96885" lon="5.89002">
        <ele>577</ele>
        <time>2020-10-05T08:33:29.000Z</time>
      </trkpt>
      <trkpt lat="43.96886" lon="5.89003">
        <ele>577</ele>
        <time>2020-10-05T08:33:30.000Z</time>
      </trkpt>
      <trkpt lat="43.96888" lon="5.89003">
        <ele>577</ele>
        <time>2020-10-05T08:33:31.000Z</time>
      </trkpt>
      <trkpt lat="43.96888" lon="5.89004">
        <ele>577</ele>
        <time>2020-10-05T08:33:32.000Z</time>
      </trkpt>
      <trkpt lat="43.96889" lon="5.89005">
        <ele>577</ele>
        <time>2020-10-05T08:33:33.000Z</time>
      </trkpt>
      <trkpt lat="43.9689" lon="5.89006">
        <ele>577</ele>
        <time>2020-10-05T08:33:34.000Z</time>
      </trkpt>
      <trkpt lat="43.96891" lon="5.89007">
        <ele>576</ele>
        <time>2020-10-05T08:33:35.000Z</time>
      </trkpt>
      <trkpt lat="43.96892" lon="5.89007">
        <ele>576</ele>
        <time>2020-10-05T08:33:36.000Z</time>
      </trkpt>
      <trkpt lat="43.96893" lon="5.89008">
        <ele>576</ele>
        <time>2020-10-05T08:33:37.000Z</time>
      </trkpt>
      <trkpt lat="43.96894" lon="5.89009">
        <ele>576</ele>
        <time>2020-10-05T08:33:38.000Z</time>
      </trkpt>
      <trkpt lat="43.96895" lon="5.8901">
        <ele>576</ele>
        <time>2020-10-05T08:33:39.000Z</time>
      </trkpt>
      <trkpt lat="43.96895" lon="5.89011">
        <ele>576</ele>
        <time>2020-10-05T08:33:40.000Z</time>
      </trkpt>
      <trkpt lat="43.96896" lon="5.89011">
        <ele>576</ele>
        <time>2020-10-05T08:33:41.000Z</time>
      </trkpt>
      <trkpt lat="43.96897" lon="5.89012">
        <ele>576</ele>
        <time>2020-10-05T08:33:42.000Z</time>
      </trkpt>
      <trkpt lat="43.96898" lon="5.89014">
        <ele>575</ele>
        <time>2020-10-05T08:33:43.000Z</time>
      </trkpt>
      <trkpt lat="43.96899" lon="5.89014">
        <ele>575</ele>
        <time>2020-10-05T08:33:44.000Z</time>
      </trkpt>
      <trkpt lat="43.96899" lon="5.89015">
        <ele>575</ele>
        <time>2020-10-05T08:33:45.000Z</time>
      </trkpt>
      <trkpt lat="43.969" lon="5.89016">
        <ele>575</ele>
        <time>2020-10-05T08:33:46.000Z</time>
      </trkpt>
      <trkpt lat="43.96901" lon="5.89017">
        <ele>575</ele>
        <time>2020-10-05T08:33:47.000Z</time>
      </trkpt>
      <trkpt lat="43.96902" lon="5.89018">
        <ele>575</ele>
        <time>2020-10-05T08:33:48.000Z</time>
      </trkpt>
      <trkpt lat="43.96903" lon="5.89019">
        <ele>575</ele>
        <time>2020-10-05T08:33:49.000Z</time>
      </trkpt>
      <trkpt lat="43.96903" lon="5.8902">
        <ele>575</ele>
        <time>2020-10-05T08:33:50.000Z</time>
      </trkpt>
      <trkpt lat="43.96904" lon="5.89021">
        <ele>574</ele>
        <time>2020-10-05T08:33:51.000Z</time>
      </trkpt>
      <trkpt lat="43.96904" lon="5.89022">
        <ele>574</ele>
        <time>2020-10-05T08:33:52.000Z</time>
      </trkpt>
      <trkpt lat="43.96904" lon="5.89023">
        <ele>574</ele>
        <time>2020-10-05T08:33:53.000Z</time>
      </trkpt>
      <trkpt lat="43.96904" lon="5.89023">
        <ele>574</ele>
        <time>2020-10-05T08:33:54.000Z</time>
      </trkpt>
      <trkpt lat="43.96904" lon="5.89025">
        <ele>574</ele>
        <time>2020-10-05T08:33:55.000Z</time>
      </trkpt>
      <trkpt lat="43.96903" lon="5.89026">
        <ele>574</ele>
        <time>2020-10-05T08:33:56.000Z</time>
      </trkpt>
      <trkpt lat="43.96902" lon="5.89027">
        <ele>573</ele>
        <time>2020-10-05T08:33:57.000Z</time>
      </trkpt>
      <trkpt lat="43.96901" lon="5.89027">
        <ele>573</ele>
        <time>2020-10-05T08:33:58.000Z</time>
      </trkpt>
      <trkpt lat="43.969" lon="5.89027">
        <ele>573</ele>
        <time>2020-10-05T08:33:59.000Z</time>
      </trkpt>
      <trkpt lat="43.96898" lon="5.89027">
        <ele>573</ele>
        <time>2020-10-05T08:34:00.000Z</time>
      </trkpt>
      <trkpt lat="43.96897" lon="5.89026">
        <ele>572</ele>
        <time>2020-10-05T08:34:01.000Z</time>
      </trkpt>
      <trkpt lat="43.96896" lon="5.89026">
        <ele>572</ele>
        <time>2020-10-05T08:34:02.000Z</time>
      </trkpt>
      <trkpt lat="43.96895" lon="5.89025">
        <ele>572</ele>
        <time>2020-10-05T08:34:03.000Z</time>
      </trkpt>
      <trkpt lat="43.96893" lon="5.89025">
        <ele>572</ele>
        <time>2020-10-05T08:34:04.000Z</time>
      </trkpt>
      <trkpt lat="43.96892" lon="5.89025">
        <ele>572</ele>
        <time>2020-10-05T08:34:05.000Z</time>
      </trkpt>
      <trkpt lat="43.96891" lon="5.89024">
        <ele>571</ele>
        <time>2020-10-05T08:34:06.000Z</time>
      </trkpt>
      <trkpt lat="43.9689" lon="5.89024">
        <ele>571</ele>
        <time>2020-10-05T08:34:07.000Z</time>
      </trkpt>
      <trkpt lat="43.96889" lon="5.89024">
        <ele>571</ele>
        <time>2020-10-05T08:34:08.000Z</time>
      </trkpt>
      <trkpt lat="43.96887" lon="5.89023">
        <ele>570</ele>
        <time>2020-10-05T08:34:09.000Z</time>
      </trkpt>
      <trkpt lat="43.96886" lon="5.89023">
        <ele>570</ele>
        <time>2020-10-05T08:34:10.000Z</time>
      </trkpt>
      <trkpt lat="43.96885" lon="5.89022">
        <ele>570</ele>
        <time>2020-10-05T08:34:11.000Z</time>
      </trkpt>
      <trkpt lat="43.96884" lon="5.89022">
        <ele>570</ele>
        <time>2020-10-05T08:34:12.000Z</time>
      </trkpt>
      <trkpt lat="43.96883" lon="5.89022">
        <ele>569</ele>
        <time>2020-10-05T08:34:13.000Z</time>
      </trkpt>
      <trkpt lat="43.96883" lon="5.89022">
        <ele>569</ele>
        <time>2020-10-05T08:34:14.000Z</time>
      </trkpt>
      <trkpt lat="43.96882" lon="5.89022">
        <ele>569</ele>
        <time>2020-10-05T08:34:15.000Z</time>
      </trkpt>
      <trkpt lat="43.96882" lon="5.89023">
        <ele>569</ele>
        <time>2020-10-05T08:34:16.000Z</time>
      </trkpt>
      <trkpt lat="43.96882" lon="5.89024">
        <ele>569</ele>
        <time>2020-10-05T08:34:17.000Z</time>
      </trkpt>
      <trkpt lat="43.96882" lon="5.89025">
        <ele>569</ele>
        <time>2020-10-05T08:34:18.000Z</time>
      </trkpt>
      <trkpt lat="43.96883" lon="5.89026">
        <ele>569</ele>
        <time>2020-10-05T08:34:19.000Z</time>
      </trkpt>
      <trkpt lat="43.96883" lon="5.89027">
        <ele>568</ele>
        <time>2020-10-05T08:34:20.000Z</time>
      </trkpt>
      <trkpt lat="43.96884" lon="5.89028">
        <ele>568</ele>
        <time>2020-10-05T08:34:21.000Z</time>
      </trkpt>
      <trkpt lat="43.96884" lon="5.89029">
        <ele>568</ele>
        <time>2020-10-05T08:34:22.000Z</time>
      </trkpt>
      <trkpt lat="43.96885" lon="5.89029">
        <ele>568</ele>
        <time>2020-10-05T08:34:23.000Z</time>
      </trkpt>
      <trkpt lat="43.96885" lon="5.8903">
        <ele>568</ele>
        <time>2020-10-05T08:34:24.000Z</time>
      </trkpt>
      <trkpt lat="43.96886" lon="5.89031">
        <ele>568</ele>
        <time>2020-10-05T08:34:25.000Z</time>
      </trkpt>
      <trkpt lat="43.96886" lon="5.89032">
        <ele>568</ele>
        <time>2020-10-05T08:34:26.000Z</time>
      </trkpt>
      <trkpt lat="43.96887" lon="5.89032">
        <ele>568</ele>
        <time>2020-10-05T08:34:27.000Z</time>
      </trkpt>
      <trkpt lat="43.96887" lon="5.89033">
        <ele>568</ele>
        <time>2020-10-05T08:34:28.000Z</time>
      </trkpt>
      <trkpt lat="43.96887" lon="5.89033">
        <ele>567</ele>
        <time>2020-10-05T08:34:29.000Z</time>
      </trkpt>
      <trkpt lat="43.96887" lon="5.89034">
        <ele>567</ele>
        <time>2020-10-05T08:34:30.000Z</time>
      </trkpt>
      <trkpt lat="43.96887" lon="5.89034">
        <ele>567</ele>
        <time>2020-10-05T08:34:31.000Z</time>
      </trkpt>
      <trkpt lat="43.96888" lon="5.89034">
        <ele>567</ele>
        <time>2020-10-05T08:34:32.000Z</time>
      </trkpt>
      <trkpt lat="43.96888" lon="5.89034">
        <ele>567</ele>
        <time>2020-10-05T08:34:33.000Z</time>
      </trkpt>
      <trkpt lat="43.96888" lon="5.89034">
        <ele>567</ele>
        <time>2020-10-05T08:34:34.000Z</time>
      </trkpt>
      <trkpt lat="43.96888" lon="5.89034">
        <ele>567</ele>
        <time>2020-10-05T08:34:35.000Z</time>
      </trkpt>
      <trkpt lat="43.96888" lon="5.89034">
        <ele>567</ele>
        <time>2020-10-05T08:34:36.000Z</time>
      </trkpt>
      <trkpt lat="43.96888" lon="5.89035">
        <ele>567</ele>
        <time>2020-10-05T08:34:37.000Z</time>
      </trkpt>
      <trkpt lat="43.96888" lon="5.89035">
        <ele>567</ele>
        <time>2020-10-05T08:34:38.000Z</time>
      </trkpt>
      <trkpt lat="43.96888" lon="5.89035">
        <ele>567</ele>
        <time>2020-10-05T08:34:39.000Z</time>
      </trkpt>
      <trkpt lat="43.96888" lon="5.89035">
        <ele>567</ele>
        <time>2020-10-05T08:34:40.000Z</time>
      </trkpt>
      <trkpt lat="43.96888" lon="5.89035">
        <ele>568</ele>
        <time>2020-10-05T08:34:41.000Z</time>
      </trkpt>
      <trkpt lat="43.96889" lon="5.89035">
        <ele>567</ele>
        <time>2020-10-05T08:34:42.000Z</time>
      </trkpt>
      <trkpt lat="43.96889" lon="5.89036">
        <ele>567</ele>
        <time>2020-10-05T08:34:43.000Z</time>
      </trkpt>
      <trkpt lat="43.9689" lon="5.89037">
        <ele>567</ele>
        <time>2020-10-05T08:34:44.000Z</time>
      </trkpt>
      <trkpt lat="43.96891" lon="5.89038">
        <ele>567</ele>
        <time>2020-10-05T08:34:45.000Z</time>
      </trkpt>
      <trkpt lat="43.96891" lon="5.89038">
        <ele>567</ele>
        <time>2020-10-05T08:34:46.000Z</time>
      </trkpt>
      <trkpt lat="43.96892" lon="5.89039">
        <ele>567</ele>
        <time>2020-10-05T08:34:47.000Z</time>
      </trkpt>
      <trkpt lat="43.96892" lon="5.8904">
        <ele>567</ele>
        <time>2020-10-05T08:34:48.000Z</time>
      </trkpt>
      <trkpt lat="43.96893" lon="5.8904">
        <ele>567</ele>
        <time>2020-10-05T08:34:49.000Z</time>
      </trkpt>
      <trkpt lat="43.96894" lon="5.89041">
        <ele>567</ele>
        <time>2020-10-05T08:34:50.000Z</time>
      </trkpt>
      <trkpt lat="43.96894" lon="5.89042">
        <ele>567</ele>
        <time>2020-10-05T08:34:51.000Z</time>
      </trkpt>
      <trkpt lat="43.96895" lon="5.89043">
        <ele>567</ele>
        <time>2020-10-05T08:34:52.000Z</time>
      </trkpt>
      <trkpt lat="43.96895" lon="5.89044">
        <ele>567</ele>
        <time>2020-10-05T08:34:53.000Z</time>
      </trkpt>
      <trkpt lat="43.96896" lon="5.89045">
        <ele>567</ele>
        <time>2020-10-05T08:34:54.000Z</time>
      </trkpt>
      <trkpt lat="43.96897" lon="5.89046">
        <ele>567</ele>
        <time>2020-10-05T08:34:55.000Z</time>
      </trkpt>
      <trkpt lat="43.96897" lon="5.89047">
        <ele>566</ele>
        <time>2020-10-05T08:34:56.000Z</time>
      </trkpt>
      <trkpt lat="43.96898" lon="5.89048">
        <ele>566</ele>
        <time>2020-10-05T08:34:57.000Z</time>
      </trkpt>
      <trkpt lat="43.96898" lon="5.89048">
        <ele>566</ele>
        <time>2020-10-05T08:34:58.000Z</time>
      </trkpt>
      <trkpt lat="43.96899" lon="5.89049">
        <ele>566</ele>
        <time>2020-10-05T08:34:59.000Z</time>
      </trkpt>
      <trkpt lat="43.96899" lon="5.8905">
        <ele>566</ele>
        <time>2020-10-05T08:35:00.000Z</time>
      </trkpt>
      <trkpt lat="43.969" lon="5.89051">
        <ele>566</ele>
        <time>2020-10-05T08:35:01.000Z</time>
      </trkpt>
      <trkpt lat="43.969" lon="5.89052">
        <ele>566</ele>
        <time>2020-10-05T08:35:02.000Z</time>
      </trkpt>
      <trkpt lat="43.96901" lon="5.89053">
        <ele>566</ele>
        <time>2020-10-05T08:35:03.000Z</time>
      </trkpt>
      <trkpt lat="43.96901" lon="5.89054">
        <ele>566</ele>
        <time>2020-10-05T08:35:04.000Z</time>
      </trkpt>
      <trkpt lat="43.96902" lon="5.89055">
        <ele>565</ele>
        <time>2020-10-05T08:35:05.000Z</time>
      </trkpt>
      <trkpt lat="43.96902" lon="5.89056">
        <ele>565</ele>
        <time>2020-10-05T08:35:06.000Z</time>
      </trkpt>
      <trkpt lat="43.96903" lon="5.89057">
        <ele>565</ele>
        <time>2020-10-05T08:35:07.000Z</time>
      </trkpt>
      <trkpt lat="43.96903" lon="5.89058">
        <ele>565</ele>
        <time>2020-10-05T08:35:08.000Z</time>
      </trkpt>
      <trkpt lat="43.96904" lon="5.89058">
        <ele>565</ele>
        <time>2020-10-05T08:35:09.000Z</time>
      </trkpt>
      <trkpt lat="43.96905" lon="5.89059">
        <ele>565</ele>
        <time>2020-10-05T08:35:10.000Z</time>
      </trkpt>
      <trkpt lat="43.96905" lon="5.8906">
        <ele>565</ele>
        <time>2020-10-05T08:35:11.000Z</time>
      </trkpt>
      <trkpt lat="43.96906" lon="5.89061">
        <ele>565</ele>
        <time>2020-10-05T08:35:12.000Z</time>
      </trkpt>
      <trkpt lat="43.96907" lon="5.89062">
        <ele>565</ele>
        <time>2020-10-05T08:35:13.000Z</time>
      </trkpt>
      <trkpt lat="43.96907" lon="5.89062">
        <ele>564</ele>
        <time>2020-10-05T08:35:14.000Z</time>
      </trkpt>
      <trkpt lat="43.96908" lon="5.89063">
        <ele>564</ele>
        <time>2020-10-05T08:35:15.000Z</time>
      </trkpt>
      <trkpt lat="43.96909" lon="5.89064">
        <ele>564</ele>
        <time>2020-10-05T08:35:16.000Z</time>
      </trkpt>
      <trkpt lat="43.9691" lon="5.89065">
        <ele>564</ele>
        <time>2020-10-05T08:35:17.000Z</time>
      </trkpt>
      <trkpt lat="43.96911" lon="5.89065">
        <ele>564</ele>
        <time>2020-10-05T08:35:18.000Z</time>
      </trkpt>
      <trkpt lat="43.96912" lon="5.89066">
        <ele>564</ele>
        <time>2020-10-05T08:35:19.000Z</time>
      </trkpt>
      <trkpt lat="43.96912" lon="5.89066">
        <ele>564</ele>
        <time>2020-10-05T08:35:20.000Z</time>
      </trkpt>
      <trkpt lat="43.96913" lon="5.89067">
        <ele>564</ele>
        <time>2020-10-05T08:35:21.000Z</time>
      </trkpt>
      <trkpt lat="43.96914" lon="5.89068">
        <ele>563</ele>
        <time>2020-10-05T08:35:22.000Z</time>
      </trkpt>
      <trkpt lat="43.96915" lon="5.89068">
        <ele>563</ele>
        <time>2020-10-05T08:35:23.000Z</time>
      </trkpt>
      <trkpt lat="43.96916" lon="5.89069">
        <ele>563</ele>
        <time>2020-10-05T08:35:24.000Z</time>
      </trkpt>
      <trkpt lat="43.96917" lon="5.89069">
        <ele>563</ele>
        <time>2020-10-05T08:35:25.000Z</time>
      </trkpt>
      <trkpt lat="43.96918" lon="5.8907">
        <ele>563</ele>
        <time>2020-10-05T08:35:26.000Z</time>
      </trkpt>
      <trkpt lat="43.96919" lon="5.8907">
        <ele>562</ele>
        <time>2020-10-05T08:35:27.000Z</time>
      </trkpt>
      <trkpt lat="43.9692" lon="5.8907">
        <ele>562</ele>
        <time>2020-10-05T08:35:28.000Z</time>
      </trkpt>
      <trkpt lat="43.9692" lon="5.89071">
        <ele>562</ele>
        <time>2020-10-05T08:35:29.000Z</time>
      </trkpt>
      <trkpt lat="43.96921" lon="5.89071">
        <ele>561</ele>
        <time>2020-10-05T08:35:30.000Z</time>
      </trkpt>
      <trkpt lat="43.96922" lon="5.89072">
        <ele>561</ele>
        <time>2020-10-05T08:35:31.000Z</time>
      </trkpt>
      <trkpt lat="43.96923" lon="5.89072">
        <ele>561</ele>
        <time>2020-10-05T08:35:32.000Z</time>
      </trkpt>
      <trkpt lat="43.96924" lon="5.89073">
        <ele>561</ele>
        <time>2020-10-05T08:35:33.000Z</time>
      </trkpt>
      <trkpt lat="43.96925" lon="5.89073">
        <ele>561</ele>
        <time>2020-10-05T08:35:34.000Z</time>
      </trkpt>
      <trkpt lat="43.96926" lon="5.89074">
        <ele>560</ele>
        <time>2020-10-05T08:35:35.000Z</time>
      </trkpt>
      <trkpt lat="43.96927" lon="5.89074">
        <ele>560</ele>
        <time>2020-10-05T08:35:36.000Z</time>
      </trkpt>
      <trkpt lat="43.96928" lon="5.89075">
        <ele>560</ele>
        <time>2020-10-05T08:35:37.000Z</time>
      </trkpt>
      <trkpt lat="43.96929" lon="5.89075">
        <ele>560</ele>
        <time>2020-10-05T08:35:38.000Z</time>
      </trkpt>
      <trkpt lat="43.9693" lon="5.89075">
        <ele>560</ele>
        <time>2020-10-05T08:35:39.000Z</time>
      </trkpt>
      <trkpt lat="43.96931" lon="5.89076">
        <ele>559</ele>
        <time>2020-10-05T08:35:40.000Z</time>
      </trkpt>
      <trkpt lat="43.96931" lon="5.89076">
        <ele>559</ele>
        <time>2020-10-05T08:35:41.000Z</time>
      </trkpt>
      <trkpt lat="43.96932" lon="5.89077">
        <ele>559</ele>
        <time>2020-10-05T08:35:42.000Z</time>
      </trkpt>
      <trkpt lat="43.96933" lon="5.89078">
        <ele>559</ele>
        <time>2020-10-05T08:35:43.000Z</time>
      </trkpt>
      <trkpt lat="43.96934" lon="5.89078">
        <ele>558</ele>
        <time>2020-10-05T08:35:44.000Z</time>
      </trkpt>
      <trkpt lat="43.96935" lon="5.89079">
        <ele>558</ele>
        <time>2020-10-05T08:35:45.000Z</time>
      </trkpt>
      <trkpt lat="43.96936" lon="5.89079">
        <ele>558</ele>
        <time>2020-10-05T08:35:46.000Z</time>
      </trkpt>
      <trkpt lat="43.96937" lon="5.8908">
        <ele>558</ele>
        <time>2020-10-05T08:35:47.000Z</time>
      </trkpt>
      <trkpt lat="43.96937" lon="5.89081">
        <ele>558</ele>
        <time>2020-10-05T08:35:48.000Z</time>
      </trkpt>
      <trkpt lat="43.96939" lon="5.89082">
        <ele>558</ele>
        <time>2020-10-05T08:35:49.000Z</time>
      </trkpt>
      <trkpt lat="43.96939" lon="5.89082">
        <ele>557</ele>
        <time>2020-10-05T08:35:50.000Z</time>
      </trkpt>
      <trkpt lat="43.9694" lon="5.89083">
        <ele>557</ele>
        <time>2020-10-05T08:35:51.000Z</time>
      </trkpt>
      <trkpt lat="43.96941" lon="5.89083">
        <ele>557</ele>
        <time>2020-10-05T08:35:52.000Z</time>
      </trkpt>
      <trkpt lat="43.96942" lon="5.89084">
        <ele>557</ele>
        <time>2020-10-05T08:35:53.000Z</time>
      </trkpt>
      <trkpt lat="43.96942" lon="5.89085">
        <ele>557</ele>
        <time>2020-10-05T08:35:54.000Z</time>
      </trkpt>
      <trkpt lat="43.96943" lon="5.89086">
        <ele>556</ele>
        <time>2020-10-05T08:35:55.000Z</time>
      </trkpt>
      <trkpt lat="43.96943" lon="5.89086">
        <ele>556</ele>
        <time>2020-10-05T08:35:56.000Z</time>
      </trkpt>
      <trkpt lat="43.96944" lon="5.89087">
        <ele>556</ele>
        <time>2020-10-05T08:35:57.000Z</time>
      </trkpt>
      <trkpt lat="43.96945" lon="5.89088">
        <ele>556</ele>
        <time>2020-10-05T08:35:58.000Z</time>
      </trkpt>
      <trkpt lat="43.96946" lon="5.89088">
        <ele>556</ele>
        <time>2020-10-05T08:35:59.000Z</time>
      </trkpt>
      <trkpt lat="43.96947" lon="5.89089">
        <ele>556</ele>
        <time>2020-10-05T08:36:00.000Z</time>
      </trkpt>
      <trkpt lat="43.96948" lon="5.8909">
        <ele>556</ele>
        <time>2020-10-05T08:36:01.000Z</time>
      </trkpt>
      <trkpt lat="43.96949" lon="5.8909">
        <ele>555</ele>
        <time>2020-10-05T08:36:02.000Z</time>
      </trkpt>
      <trkpt lat="43.9695" lon="5.89091">
        <ele>555</ele>
        <time>2020-10-05T08:36:03.000Z</time>
      </trkpt>
      <trkpt lat="43.96951" lon="5.89092">
        <ele>555</ele>
        <time>2020-10-05T08:36:04.000Z</time>
      </trkpt>
      <trkpt lat="43.96951" lon="5.89092">
        <ele>555</ele>
        <time>2020-10-05T08:36:05.000Z</time>
      </trkpt>
      <trkpt lat="43.96952" lon="5.89092">
        <ele>555</ele>
        <time>2020-10-05T08:36:06.000Z</time>
      </trkpt>
      <trkpt lat="43.96952" lon="5.89093">
        <ele>555</ele>
        <time>2020-10-05T08:36:07.000Z</time>
      </trkpt>
      <trkpt lat="43.96953" lon="5.89093">
        <ele>555</ele>
        <time>2020-10-05T08:36:08.000Z</time>
      </trkpt>
      <trkpt lat="43.96954" lon="5.89094">
        <ele>554</ele>
        <time>2020-10-05T08:36:09.000Z</time>
      </trkpt>
      <trkpt lat="43.96954" lon="5.89094">
        <ele>554</ele>
        <time>2020-10-05T08:36:10.000Z</time>
      </trkpt>
      <trkpt lat="43.96955" lon="5.89095">
        <ele>554</ele>
        <time>2020-10-05T08:36:11.000Z</time>
      </trkpt>
      <trkpt lat="43.96956" lon="5.89096">
        <ele>554</ele>
        <time>2020-10-05T08:36:12.000Z</time>
      </trkpt>
      <trkpt lat="43.96957" lon="5.89096">
        <ele>553</ele>
        <time>2020-10-05T08:36:13.000Z</time>
      </trkpt>
      <trkpt lat="43.96958" lon="5.89097">
        <ele>553</ele>
        <time>2020-10-05T08:36:14.000Z</time>
      </trkpt>
      <trkpt lat="43.96959" lon="5.89097">
        <ele>553</ele>
        <time>2020-10-05T08:36:15.000Z</time>
      </trkpt>
      <trkpt lat="43.9696" lon="5.89097">
        <ele>553</ele>
        <time>2020-10-05T08:36:16.000Z</time>
      </trkpt>
      <trkpt lat="43.96961" lon="5.89098">
        <ele>553</ele>
        <time>2020-10-05T08:36:17.000Z</time>
      </trkpt>
      <trkpt lat="43.96962" lon="5.89098">
        <ele>553</ele>
        <time>2020-10-05T08:36:18.000Z</time>
      </trkpt>
      <trkpt lat="43.96963" lon="5.89099">
        <ele>553</ele>
        <time>2020-10-05T08:36:19.000Z</time>
      </trkpt>
      <trkpt lat="43.96964" lon="5.891">
        <ele>553</ele>
        <time>2020-10-05T08:36:20.000Z</time>
      </trkpt>
      <trkpt lat="43.96964" lon="5.891">
        <ele>553</ele>
        <time>2020-10-05T08:36:21.000Z</time>
      </trkpt>
      <trkpt lat="43.96965" lon="5.891">
        <ele>552</ele>
        <time>2020-10-05T08:36:22.000Z</time>
      </trkpt>
      <trkpt lat="43.96966" lon="5.89101">
        <ele>552</ele>
        <time>2020-10-05T08:36:23.000Z</time>
      </trkpt>
      <trkpt lat="43.96967" lon="5.89102">
        <ele>552</ele>
        <time>2020-10-05T08:36:24.000Z</time>
      </trkpt>
      <trkpt lat="43.96968" lon="5.89102">
        <ele>552</ele>
        <time>2020-10-05T08:36:25.000Z</time>
      </trkpt>
      <trkpt lat="43.96969" lon="5.89102">
        <ele>552</ele>
        <time>2020-10-05T08:36:26.000Z</time>
      </trkpt>
      <trkpt lat="43.9697" lon="5.89103">
        <ele>552</ele>
        <time>2020-10-05T08:36:27.000Z</time>
      </trkpt>
      <trkpt lat="43.96971" lon="5.89103">
        <ele>551</ele>
        <time>2020-10-05T08:36:28.000Z</time>
      </trkpt>
      <trkpt lat="43.96972" lon="5.89103">
        <ele>551</ele>
        <time>2020-10-05T08:36:29.000Z</time>
      </trkpt>
      <trkpt lat="43.96973" lon="5.89104">
        <ele>551</ele>
        <time>2020-10-05T08:36:30.000Z</time>
      </trkpt>
      <trkpt lat="43.96974" lon="5.89104">
        <ele>551</ele>
        <time>2020-10-05T08:36:31.000Z</time>
      </trkpt>
      <trkpt lat="43.96974" lon="5.89104">
        <ele>551</ele>
        <time>2020-10-05T08:36:32.000Z</time>
      </trkpt>
      <trkpt lat="43.96976" lon="5.89105">
        <ele>551</ele>
        <time>2020-10-05T08:36:33.000Z</time>
      </trkpt>
      <trkpt lat="43.96977" lon="5.89105">
        <ele>550</ele>
        <time>2020-10-05T08:36:34.000Z</time>
      </trkpt>
      <trkpt lat="43.96977" lon="5.89105">
        <ele>550</ele>
        <time>2020-10-05T08:36:35.000Z</time>
      </trkpt>
      <trkpt lat="43.96978" lon="5.89106">
        <ele>550</ele>
        <time>2020-10-05T08:36:36.000Z</time>
      </trkpt>
      <trkpt lat="43.96979" lon="5.89106">
        <ele>550</ele>
        <time>2020-10-05T08:36:37.000Z</time>
      </trkpt>
      <trkpt lat="43.9698" lon="5.89107">
        <ele>550</ele>
        <time>2020-10-05T08:36:38.000Z</time>
      </trkpt>
      <trkpt lat="43.96981" lon="5.89107">
        <ele>550</ele>
        <time>2020-10-05T08:36:39.000Z</time>
      </trkpt>
      <trkpt lat="43.96982" lon="5.89108">
        <ele>550</ele>
        <time>2020-10-05T08:36:40.000Z</time>
      </trkpt>
      <trkpt lat="43.96983" lon="5.89108">
        <ele>549</ele>
        <time>2020-10-05T08:36:41.000Z</time>
      </trkpt>
      <trkpt lat="43.96984" lon="5.89109">
        <ele>549</ele>
        <time>2020-10-05T08:36:42.000Z</time>
      </trkpt>
      <trkpt lat="43.96985" lon="5.89109">
        <ele>549</ele>
        <time>2020-10-05T08:36:43.000Z</time>
      </trkpt>
      <trkpt lat="43.96986" lon="5.8911">
        <ele>549</ele>
        <time>2020-10-05T08:36:44.000Z</time>
      </trkpt>
      <trkpt lat="43.96987" lon="5.8911">
        <ele>549</ele>
        <time>2020-10-05T08:36:45.000Z</time>
      </trkpt>
      <trkpt lat="43.96988" lon="5.8911">
        <ele>549</ele>
        <time>2020-10-05T08:36:46.000Z</time>
      </trkpt>
      <trkpt lat="43.96989" lon="5.89111">
        <ele>549</ele>
        <time>2020-10-05T08:36:47.000Z</time>
      </trkpt>
      <trkpt lat="43.9699" lon="5.89111">
        <ele>548</ele>
        <time>2020-10-05T08:36:48.000Z</time>
      </trkpt>
      <trkpt lat="43.9699" lon="5.89111">
        <ele>548</ele>
        <time>2020-10-05T08:36:49.000Z</time>
      </trkpt>
      <trkpt lat="43.96991" lon="5.89112">
        <ele>548</ele>
        <time>2020-10-05T08:36:50.000Z</time>
      </trkpt>
      <trkpt lat="43.96992" lon="5.89112">
        <ele>548</ele>
        <time>2020-10-05T08:36:51.000Z</time>
      </trkpt>
      <trkpt lat="43.96993" lon="5.89112">
        <ele>548</ele>
        <time>2020-10-05T08:36:52.000Z</time>
      </trkpt>
      <trkpt lat="43.96993" lon="5.89113">
        <ele>548</ele>
        <time>2020-10-05T08:36:53.000Z</time>
      </trkpt>
      <trkpt lat="43.96993" lon="5.89113">
        <ele>548</ele>
        <time>2020-10-05T08:36:54.000Z</time>
      </trkpt>
      <trkpt lat="43.96993" lon="5.89112">
        <ele>548</ele>
        <time>2020-10-05T08:36:55.000Z</time>
      </trkpt>
      <trkpt lat="43.96993" lon="5.89112">
        <ele>548</ele>
        <time>2020-10-05T08:36:56.000Z</time>
      </trkpt>
      <trkpt lat="43.96993" lon="5.89112">
        <ele>548</ele>
        <time>2020-10-05T08:36:57.000Z</time>
      </trkpt>
      <trkpt lat="43.96993" lon="5.89112">
        <ele>548</ele>
        <time>2020-10-05T08:36:58.000Z</time>
      </trkpt>
      <trkpt lat="43.96993" lon="5.89112">
        <ele>547</ele>
        <time>2020-10-05T08:36:59.000Z</time>
      </trkpt>
      <trkpt lat="43.96993" lon="5.89112">
        <ele>547</ele>
        <time>2020-10-05T08:37:00.000Z</time>
      </trkpt>
      <trkpt lat="43.96993" lon="5.89112">
        <ele>547</ele>
        <time>2020-10-05T08:37:01.000Z</time>
      </trkpt>
      <trkpt lat="43.96993" lon="5.89112">
        <ele>547</ele>
        <time>2020-10-05T08:37:02.000Z</time>
      </trkpt>
      <trkpt lat="43.96994" lon="5.89112">
        <ele>547</ele>
        <time>2020-10-05T08:37:03.000Z</time>
      </trkpt>
      <trkpt lat="43.96994" lon="5.89112">
        <ele>547</ele>
        <time>2020-10-05T08:37:04.000Z</time>
      </trkpt>
      <trkpt lat="43.96994" lon="5.89112">
        <ele>547</ele>
        <time>2020-10-05T08:37:05.000Z</time>
      </trkpt>
      <trkpt lat="43.96994" lon="5.89112">
        <ele>547</ele>
        <time>2020-10-05T08:37:06.000Z</time>
      </trkpt>
      <trkpt lat="43.96994" lon="5.89112">
        <ele>547</ele>
        <time>2020-10-05T08:37:07.000Z</time>
      </trkpt>
      <trkpt lat="43.96994" lon="5.89112">
        <ele>547</ele>
        <time>2020-10-05T08:37:08.000Z</time>
      </trkpt>
      <trkpt lat="43.96994" lon="5.89112">
        <ele>547</ele>
        <time>2020-10-05T08:37:09.000Z</time>
      </trkpt>
      <trkpt lat="43.96994" lon="5.89112">
        <ele>547</ele>
        <time>2020-10-05T08:37:10.000Z</time>
      </trkpt>
      <trkpt lat="43.96994" lon="5.89112">
        <ele>547</ele>
        <time>2020-10-05T08:37:11.000Z</time>
      </trkpt>
      <trkpt lat="43.96994" lon="5.89112">
        <ele>547</ele>
        <time>2020-10-05T08:37:12.000Z</time>
      </trkpt>
      <trkpt lat="43.96994" lon="5.89112">
        <ele>547</ele>
        <time>2020-10-05T08:37:13.000Z</time>
      </trkpt>
      <trkpt lat="43.96994" lon="5.89112">
        <ele>547</ele>
        <time>2020-10-05T08:37:14.000Z</time>
      </trkpt>
      <trkpt lat="43.96994" lon="5.89112">
        <ele>547</ele>
        <time>2020-10-05T08:37:15.000Z</time>
      </trkpt>
      <trkpt lat="43.96994" lon="5.89112">
        <ele>547</ele>
        <time>2020-10-05T08:37:16.000Z</time>
      </trkpt>
      <trkpt lat="43.96994" lon="5.89112">
        <ele>547</ele>
        <time>2020-10-05T08:37:17.000Z</time>
      </trkpt>
      <trkpt lat="43.96994" lon="5.89112">
        <ele>547</ele>
        <time>2020-10-05T08:37:18.000Z</time>
      </trkpt>
      <trkpt lat="43.96994" lon="5.89112">
        <ele>547</ele>
        <time>2020-10-05T08:37:19.000Z</time>
      </trkpt>
      <trkpt lat="43.96994" lon="5.89112">
        <ele>547</ele>
        <time>2020-10-05T08:37:20.000Z</time>
      </trkpt>
      <trkpt lat="43.96994" lon="5.89112">
        <ele>547</ele>
        <time>2020-10-05T08:37:21.000Z</time>
      </trkpt>
      <trkpt lat="43.96994" lon="5.89112">
        <ele>547</ele>
        <time>2020-10-05T08:37:22.000Z</time>
      </trkpt>
      <trkpt lat="43.96995" lon="5.89112">
        <ele>547</ele>
        <time>2020-10-05T08:37:23.000Z</time>
      </trkpt>
      <trkpt lat="43.96995" lon="5.89113">
        <ele>547</ele>
        <time>2020-10-05T08:37:24.000Z</time>
      </trkpt>
      <trkpt lat="43.96996" lon="5.89113">
        <ele>547</ele>
        <time>2020-10-05T08:37:25.000Z</time>
      </trkpt>
      <trkpt lat="43.96997" lon="5.89113">
        <ele>547</ele>
        <time>2020-10-05T08:37:26.000Z</time>
      </trkpt>
      <trkpt lat="43.96997" lon="5.89114">
        <ele>547</ele>
        <time>2020-10-05T08:37:27.000Z</time>
      </trkpt>
      <trkpt lat="43.96998" lon="5.89114">
        <ele>547</ele>
        <time>2020-10-05T08:37:28.000Z</time>
      </trkpt>
      <trkpt lat="43.96999" lon="5.89115">
        <ele>546</ele>
        <time>2020-10-05T08:37:29.000Z</time>
      </trkpt>
      <trkpt lat="43.97001" lon="5.89115">
        <ele>546</ele>
        <time>2020-10-05T08:37:30.000Z</time>
      </trkpt>
      <trkpt lat="43.97001" lon="5.89116">
        <ele>546</ele>
        <time>2020-10-05T08:37:31.000Z</time>
      </trkpt>
      <trkpt lat="43.97002" lon="5.89116">
        <ele>546</ele>
        <time>2020-10-05T08:37:32.000Z</time>
      </trkpt>
      <trkpt lat="43.97003" lon="5.89117">
        <ele>546</ele>
        <time>2020-10-05T08:37:33.000Z</time>
      </trkpt>
      <trkpt lat="43.97004" lon="5.89117">
        <ele>546</ele>
        <time>2020-10-05T08:37:34.000Z</time>
      </trkpt>
      <trkpt lat="43.97004" lon="5.89117">
        <ele>546</ele>
        <time>2020-10-05T08:37:35.000Z</time>
      </trkpt>
      <trkpt lat="43.97004" lon="5.89118">
        <ele>546</ele>
        <time>2020-10-05T08:37:36.000Z</time>
      </trkpt>
      <trkpt lat="43.97005" lon="5.89118">
        <ele>546</ele>
        <time>2020-10-05T08:37:37.000Z</time>
      </trkpt>
      <trkpt lat="43.97006" lon="5.89119">
        <ele>546</ele>
        <time>2020-10-05T08:37:38.000Z</time>
      </trkpt>
      <trkpt lat="43.97006" lon="5.89119">
        <ele>545</ele>
        <time>2020-10-05T08:37:39.000Z</time>
      </trkpt>
      <trkpt lat="43.97007" lon="5.8912">
        <ele>545</ele>
        <time>2020-10-05T08:37:40.000Z</time>
      </trkpt>
      <trkpt lat="43.97008" lon="5.89121">
        <ele>545</ele>
        <time>2020-10-05T08:37:41.000Z</time>
      </trkpt>
      <trkpt lat="43.97009" lon="5.89122">
        <ele>545</ele>
        <time>2020-10-05T08:37:42.000Z</time>
      </trkpt>
      <trkpt lat="43.97009" lon="5.89122">
        <ele>545</ele>
        <time>2020-10-05T08:37:43.000Z</time>
      </trkpt>
      <trkpt lat="43.9701" lon="5.89123">
        <ele>545</ele>
        <time>2020-10-05T08:37:44.000Z</time>
      </trkpt>
      <trkpt lat="43.97011" lon="5.89124">
        <ele>545</ele>
        <time>2020-10-05T08:37:45.000Z</time>
      </trkpt>
      <trkpt lat="43.97011" lon="5.89124">
        <ele>544</ele>
        <time>2020-10-05T08:37:46.000Z</time>
      </trkpt>
      <trkpt lat="43.97011" lon="5.89124">
        <ele>544</ele>
        <time>2020-10-05T08:37:47.000Z</time>
      </trkpt>
      <trkpt lat="43.97011" lon="5.89124">
        <ele>544</ele>
        <time>2020-10-05T08:37:48.000Z</time>
      </trkpt>
      <trkpt lat="43.97011" lon="5.89124">
        <ele>544</ele>
        <time>2020-10-05T08:37:49.000Z</time>
      </trkpt>
      <trkpt lat="43.97012" lon="5.89125">
        <ele>544</ele>
        <time>2020-10-05T08:37:50.000Z</time>
      </trkpt>
      <trkpt lat="43.97012" lon="5.89126">
        <ele>544</ele>
        <time>2020-10-05T08:37:51.000Z</time>
      </trkpt>
      <trkpt lat="43.97013" lon="5.89126">
        <ele>544</ele>
        <time>2020-10-05T08:37:52.000Z</time>
      </trkpt>
      <trkpt lat="43.97014" lon="5.89127">
        <ele>544</ele>
        <time>2020-10-05T08:37:53.000Z</time>
      </trkpt>
      <trkpt lat="43.97015" lon="5.89128">
        <ele>544</ele>
        <time>2020-10-05T08:37:54.000Z</time>
      </trkpt>
      <trkpt lat="43.97015" lon="5.89129">
        <ele>544</ele>
        <time>2020-10-05T08:37:55.000Z</time>
      </trkpt>
      <trkpt lat="43.97016" lon="5.8913">
        <ele>544</ele>
        <time>2020-10-05T08:37:56.000Z</time>
      </trkpt>
      <trkpt lat="43.97017" lon="5.89131">
        <ele>544</ele>
        <time>2020-10-05T08:37:57.000Z</time>
      </trkpt>
      <trkpt lat="43.97018" lon="5.89132">
        <ele>544</ele>
        <time>2020-10-05T08:37:58.000Z</time>
      </trkpt>
      <trkpt lat="43.97019" lon="5.89132">
        <ele>543</ele>
        <time>2020-10-05T08:37:59.000Z</time>
      </trkpt>
      <trkpt lat="43.9702" lon="5.89133">
        <ele>543</ele>
        <time>2020-10-05T08:38:00.000Z</time>
      </trkpt>
      <trkpt lat="43.97021" lon="5.89133">
        <ele>543</ele>
        <time>2020-10-05T08:38:01.000Z</time>
      </trkpt>
      <trkpt lat="43.97022" lon="5.89134">
        <ele>543</ele>
        <time>2020-10-05T08:38:02.000Z</time>
      </trkpt>
      <trkpt lat="43.97023" lon="5.89134">
        <ele>542</ele>
        <time>2020-10-05T08:38:03.000Z</time>
      </trkpt>
      <trkpt lat="43.97024" lon="5.89135">
        <ele>542</ele>
        <time>2020-10-05T08:38:04.000Z</time>
      </trkpt>
      <trkpt lat="43.97025" lon="5.89135">
        <ele>542</ele>
        <time>2020-10-05T08:38:05.000Z</time>
      </trkpt>
      <trkpt lat="43.97026" lon="5.89135">
        <ele>542</ele>
        <time>2020-10-05T08:38:06.000Z</time>
      </trkpt>
      <trkpt lat="43.97027" lon="5.89136">
        <ele>542</ele>
        <time>2020-10-05T08:38:07.000Z</time>
      </trkpt>
      <trkpt lat="43.97028" lon="5.89136">
        <ele>541</ele>
        <time>2020-10-05T08:38:08.000Z</time>
      </trkpt>
      <trkpt lat="43.97029" lon="5.89137">
        <ele>541</ele>
        <time>2020-10-05T08:38:09.000Z</time>
      </trkpt>
      <trkpt lat="43.9703" lon="5.89136">
        <ele>541</ele>
        <time>2020-10-05T08:38:10.000Z</time>
      </trkpt>
      <trkpt lat="43.97031" lon="5.89136">
        <ele>541</ele>
        <time>2020-10-05T08:38:11.000Z</time>
      </trkpt>
      <trkpt lat="43.97032" lon="5.89136">
        <ele>541</ele>
        <time>2020-10-05T08:38:12.000Z</time>
      </trkpt>
      <trkpt lat="43.97033" lon="5.89136">
        <ele>541</ele>
        <time>2020-10-05T08:38:13.000Z</time>
      </trkpt>
      <trkpt lat="43.97034" lon="5.89136">
        <ele>541</ele>
        <time>2020-10-05T08:38:14.000Z</time>
      </trkpt>
      <trkpt lat="43.97035" lon="5.89136">
        <ele>540</ele>
        <time>2020-10-05T08:38:15.000Z</time>
      </trkpt>
      <trkpt lat="43.97036" lon="5.89136">
        <ele>540</ele>
        <time>2020-10-05T08:38:16.000Z</time>
      </trkpt>
      <trkpt lat="43.97037" lon="5.89136">
        <ele>540</ele>
        <time>2020-10-05T08:38:17.000Z</time>
      </trkpt>
      <trkpt lat="43.97038" lon="5.89137">
        <ele>540</ele>
        <time>2020-10-05T08:38:18.000Z</time>
      </trkpt>
      <trkpt lat="43.97038" lon="5.89137">
        <ele>540</ele>
        <time>2020-10-05T08:38:19.000Z</time>
      </trkpt>
      <trkpt lat="43.97039" lon="5.89138">
        <ele>539</ele>
        <time>2020-10-05T08:38:20.000Z</time>
      </trkpt>
      <trkpt lat="43.9704" lon="5.89138">
        <ele>539</ele>
        <time>2020-10-05T08:38:21.000Z</time>
      </trkpt>
      <trkpt lat="43.97041" lon="5.89138">
        <ele>539</ele>
        <time>2020-10-05T08:38:22.000Z</time>
      </trkpt>
      <trkpt lat="43.97042" lon="5.89139">
        <ele>539</ele>
        <time>2020-10-05T08:38:23.000Z</time>
      </trkpt>
      <trkpt lat="43.97043" lon="5.89139">
        <ele>539</ele>
        <time>2020-10-05T08:38:24.000Z</time>
      </trkpt>
      <trkpt lat="43.97044" lon="5.89139">
        <ele>539</ele>
        <time>2020-10-05T08:38:25.000Z</time>
      </trkpt>
      <trkpt lat="43.97045" lon="5.89139">
        <ele>539</ele>
        <time>2020-10-05T08:38:26.000Z</time>
      </trkpt>
      <trkpt lat="43.97046" lon="5.89139">
        <ele>539</ele>
        <time>2020-10-05T08:38:27.000Z</time>
      </trkpt>
      <trkpt lat="43.97047" lon="5.89139">
        <ele>538</ele>
        <time>2020-10-05T08:38:28.000Z</time>
      </trkpt>
      <trkpt lat="43.97049" lon="5.89139">
        <ele>538</ele>
        <time>2020-10-05T08:38:29.000Z</time>
      </trkpt>
      <trkpt lat="43.9705" lon="5.89139">
        <ele>538</ele>
        <time>2020-10-05T08:38:30.000Z</time>
      </trkpt>
      <trkpt lat="43.97051" lon="5.89139">
        <ele>538</ele>
        <time>2020-10-05T08:38:31.000Z</time>
      </trkpt>
      <trkpt lat="43.97052" lon="5.89139">
        <ele>538</ele>
        <time>2020-10-05T08:38:32.000Z</time>
      </trkpt>
      <trkpt lat="43.97053" lon="5.89139">
        <ele>538</ele>
        <time>2020-10-05T08:38:33.000Z</time>
      </trkpt>
      <trkpt lat="43.97054" lon="5.89139">
        <ele>537</ele>
        <time>2020-10-05T08:38:34.000Z</time>
      </trkpt>
      <trkpt lat="43.97055" lon="5.89139">
        <ele>537</ele>
        <time>2020-10-05T08:38:35.000Z</time>
      </trkpt>
      <trkpt lat="43.97056" lon="5.89139">
        <ele>537</ele>
        <time>2020-10-05T08:38:36.000Z</time>
      </trkpt>
      <trkpt lat="43.97057" lon="5.89138">
        <ele>537</ele>
        <time>2020-10-05T08:38:37.000Z</time>
      </trkpt>
      <trkpt lat="43.97058" lon="5.89138">
        <ele>537</ele>
        <time>2020-10-05T08:38:38.000Z</time>
      </trkpt>
      <trkpt lat="43.97059" lon="5.89137">
        <ele>537</ele>
        <time>2020-10-05T08:38:39.000Z</time>
      </trkpt>
      <trkpt lat="43.97061" lon="5.89137">
        <ele>537</ele>
        <time>2020-10-05T08:38:40.000Z</time>
      </trkpt>
      <trkpt lat="43.97062" lon="5.89137">
        <ele>537</ele>
        <time>2020-10-05T08:38:41.000Z</time>
      </trkpt>
      <trkpt lat="43.97062" lon="5.89136">
        <ele>537</ele>
        <time>2020-10-05T08:38:42.000Z</time>
      </trkpt>
      <trkpt lat="43.97063" lon="5.89136">
        <ele>536</ele>
        <time>2020-10-05T08:38:43.000Z</time>
      </trkpt>
      <trkpt lat="43.97064" lon="5.89135">
        <ele>536</ele>
        <time>2020-10-05T08:38:44.000Z</time>
      </trkpt>
      <trkpt lat="43.97066" lon="5.89135">
        <ele>536</ele>
        <time>2020-10-05T08:38:45.000Z</time>
      </trkpt>
      <trkpt lat="43.97067" lon="5.89134">
        <ele>536</ele>
        <time>2020-10-05T08:38:46.000Z</time>
      </trkpt>
      <trkpt lat="43.97067" lon="5.89134">
        <ele>536</ele>
        <time>2020-10-05T08:38:47.000Z</time>
      </trkpt>
      <trkpt lat="43.97068" lon="5.89134">
        <ele>536</ele>
        <time>2020-10-05T08:38:48.000Z</time>
      </trkpt>
      <trkpt lat="43.97068" lon="5.89133">
        <ele>536</ele>
        <time>2020-10-05T08:38:49.000Z</time>
      </trkpt>
      <trkpt lat="43.97068" lon="5.89133">
        <ele>536</ele>
        <time>2020-10-05T08:38:50.000Z</time>
      </trkpt>
      <trkpt lat="43.97068" lon="5.89133">
        <ele>536</ele>
        <time>2020-10-05T08:38:51.000Z</time>
      </trkpt>
      <trkpt lat="43.97069" lon="5.89133">
        <ele>535</ele>
        <time>2020-10-05T08:38:52.000Z</time>
      </trkpt>
      <trkpt lat="43.9707" lon="5.89133">
        <ele>535</ele>
        <time>2020-10-05T08:38:53.000Z</time>
      </trkpt>
      <trkpt lat="43.97071" lon="5.89133">
        <ele>535</ele>
        <time>2020-10-05T08:38:54.000Z</time>
      </trkpt>
      <trkpt lat="43.97072" lon="5.89133">
        <ele>535</ele>
        <time>2020-10-05T08:38:55.000Z</time>
      </trkpt>
      <trkpt lat="43.97073" lon="5.89133">
        <ele>535</ele>
        <time>2020-10-05T08:38:56.000Z</time>
      </trkpt>
      <trkpt lat="43.97074" lon="5.89133">
        <ele>535</ele>
        <time>2020-10-05T08:38:57.000Z</time>
      </trkpt>
      <trkpt lat="43.97075" lon="5.89133">
        <ele>535</ele>
        <time>2020-10-05T08:38:58.000Z</time>
      </trkpt>
      <trkpt lat="43.97076" lon="5.89132">
        <ele>535</ele>
        <time>2020-10-05T08:38:59.000Z</time>
      </trkpt>
      <trkpt lat="43.97077" lon="5.89133">
        <ele>535</ele>
        <time>2020-10-05T08:39:00.000Z</time>
      </trkpt>
      <trkpt lat="43.97078" lon="5.89133">
        <ele>535</ele>
        <time>2020-10-05T08:39:01.000Z</time>
      </trkpt>
      <trkpt lat="43.9708" lon="5.89133">
        <ele>535</ele>
        <time>2020-10-05T08:39:02.000Z</time>
      </trkpt>
      <trkpt lat="43.97081" lon="5.89133">
        <ele>534</ele>
        <time>2020-10-05T08:39:03.000Z</time>
      </trkpt>
      <trkpt lat="43.97082" lon="5.89133">
        <ele>534</ele>
        <time>2020-10-05T08:39:04.000Z</time>
      </trkpt>
      <trkpt lat="43.97083" lon="5.89133">
        <ele>534</ele>
        <time>2020-10-05T08:39:05.000Z</time>
      </trkpt>
      <trkpt lat="43.97084" lon="5.89132">
        <ele>534</ele>
        <time>2020-10-05T08:39:06.000Z</time>
      </trkpt>
      <trkpt lat="43.97085" lon="5.89132">
        <ele>534</ele>
        <time>2020-10-05T08:39:07.000Z</time>
      </trkpt>
      <trkpt lat="43.97086" lon="5.89132">
        <ele>534</ele>
        <time>2020-10-05T08:39:08.000Z</time>
      </trkpt>
      <trkpt lat="43.97087" lon="5.89132">
        <ele>534</ele>
        <time>2020-10-05T08:39:09.000Z</time>
      </trkpt>
      <trkpt lat="43.97088" lon="5.89132">
        <ele>534</ele>
        <time>2020-10-05T08:39:10.000Z</time>
      </trkpt>
      <trkpt lat="43.97089" lon="5.89132">
        <ele>534</ele>
        <time>2020-10-05T08:39:11.000Z</time>
      </trkpt>
      <trkpt lat="43.9709" lon="5.89132">
        <ele>534</ele>
        <time>2020-10-05T08:39:12.000Z</time>
      </trkpt>
      <trkpt lat="43.97091" lon="5.89132">
        <ele>533</ele>
        <time>2020-10-05T08:39:13.000Z</time>
      </trkpt>
      <trkpt lat="43.97092" lon="5.89133">
        <ele>533</ele>
        <time>2020-10-05T08:39:14.000Z</time>
      </trkpt>
      <trkpt lat="43.97093" lon="5.89134">
        <ele>533</ele>
        <time>2020-10-05T08:39:15.000Z</time>
      </trkpt>
      <trkpt lat="43.97094" lon="5.89134">
        <ele>533</ele>
        <time>2020-10-05T08:39:16.000Z</time>
      </trkpt>
      <trkpt lat="43.97094" lon="5.89134">
        <ele>533</ele>
        <time>2020-10-05T08:39:17.000Z</time>
      </trkpt>
      <trkpt lat="43.97094" lon="5.89134">
        <ele>533</ele>
        <time>2020-10-05T08:39:18.000Z</time>
      </trkpt>
      <trkpt lat="43.97095" lon="5.89134">
        <ele>533</ele>
        <time>2020-10-05T08:39:19.000Z</time>
      </trkpt>
      <trkpt lat="43.97095" lon="5.89134">
        <ele>533</ele>
        <time>2020-10-05T08:39:20.000Z</time>
      </trkpt>
      <trkpt lat="43.97096" lon="5.89135">
        <ele>533</ele>
        <time>2020-10-05T08:39:21.000Z</time>
      </trkpt>
      <trkpt lat="43.97096" lon="5.89135">
        <ele>533</ele>
        <time>2020-10-05T08:39:22.000Z</time>
      </trkpt>
      <trkpt lat="43.97097" lon="5.89136">
        <ele>533</ele>
        <time>2020-10-05T08:39:23.000Z</time>
      </trkpt>
      <trkpt lat="43.97098" lon="5.89136">
        <ele>532</ele>
        <time>2020-10-05T08:39:24.000Z</time>
      </trkpt>
      <trkpt lat="43.971" lon="5.89137">
        <ele>532</ele>
        <time>2020-10-05T08:39:25.000Z</time>
      </trkpt>
      <trkpt lat="43.97101" lon="5.89137">
        <ele>532</ele>
        <time>2020-10-05T08:39:26.000Z</time>
      </trkpt>
      <trkpt lat="43.97102" lon="5.89137">
        <ele>532</ele>
        <time>2020-10-05T08:39:27.000Z</time>
      </trkpt>
      <trkpt lat="43.97103" lon="5.89138">
        <ele>532</ele>
        <time>2020-10-05T08:39:28.000Z</time>
      </trkpt>
      <trkpt lat="43.97105" lon="5.89138">
        <ele>532</ele>
        <time>2020-10-05T08:39:29.000Z</time>
      </trkpt>
      <trkpt lat="43.97106" lon="5.89138">
        <ele>532</ele>
        <time>2020-10-05T08:39:30.000Z</time>
      </trkpt>
      <trkpt lat="43.97107" lon="5.89139">
        <ele>531</ele>
        <time>2020-10-05T08:39:31.000Z</time>
      </trkpt>
      <trkpt lat="43.97108" lon="5.89139">
        <ele>531</ele>
        <time>2020-10-05T08:39:32.000Z</time>
      </trkpt>
      <trkpt lat="43.9711" lon="5.89139">
        <ele>531</ele>
        <time>2020-10-05T08:39:33.000Z</time>
      </trkpt>
      <trkpt lat="43.97111" lon="5.8914">
        <ele>531</ele>
        <time>2020-10-05T08:39:34.000Z</time>
      </trkpt>
      <trkpt lat="43.97112" lon="5.89141">
        <ele>531</ele>
        <time>2020-10-05T08:39:35.000Z</time>
      </trkpt>
      <trkpt lat="43.97113" lon="5.89141">
        <ele>531</ele>
        <time>2020-10-05T08:39:36.000Z</time>
      </trkpt>
      <trkpt lat="43.97114" lon="5.89142">
        <ele>531</ele>
        <time>2020-10-05T08:39:37.000Z</time>
      </trkpt>
      <trkpt lat="43.97115" lon="5.89143">
        <ele>530</ele>
        <time>2020-10-05T08:39:38.000Z</time>
      </trkpt>
      <trkpt lat="43.97116" lon="5.89144">
        <ele>530</ele>
        <time>2020-10-05T08:39:39.000Z</time>
      </trkpt>
      <trkpt lat="43.97117" lon="5.89145">
        <ele>530</ele>
        <time>2020-10-05T08:39:40.000Z</time>
      </trkpt>
      <trkpt lat="43.97118" lon="5.89146">
        <ele>530</ele>
        <time>2020-10-05T08:39:41.000Z</time>
      </trkpt>
      <trkpt lat="43.97119" lon="5.89147">
        <ele>530</ele>
        <time>2020-10-05T08:39:42.000Z</time>
      </trkpt>
      <trkpt lat="43.9712" lon="5.89147">
        <ele>529</ele>
        <time>2020-10-05T08:39:43.000Z</time>
      </trkpt>
      <trkpt lat="43.97121" lon="5.89148">
        <ele>529</ele>
        <time>2020-10-05T08:39:44.000Z</time>
      </trkpt>
      <trkpt lat="43.97122" lon="5.89149">
        <ele>529</ele>
        <time>2020-10-05T08:39:45.000Z</time>
      </trkpt>
      <trkpt lat="43.97123" lon="5.89149">
        <ele>529</ele>
        <time>2020-10-05T08:39:46.000Z</time>
      </trkpt>
      <trkpt lat="43.97123" lon="5.8915">
        <ele>528</ele>
        <time>2020-10-05T08:39:47.000Z</time>
      </trkpt>
      <trkpt lat="43.97124" lon="5.8915">
        <ele>528</ele>
        <time>2020-10-05T08:39:48.000Z</time>
      </trkpt>
      <trkpt lat="43.97125" lon="5.89151">
        <ele>528</ele>
        <time>2020-10-05T08:39:49.000Z</time>
      </trkpt>
      <trkpt lat="43.97125" lon="5.89151">
        <ele>527</ele>
        <time>2020-10-05T08:39:50.000Z</time>
      </trkpt>
      <trkpt lat="43.97126" lon="5.89152">
        <ele>527</ele>
        <time>2020-10-05T08:39:51.000Z</time>
      </trkpt>
      <trkpt lat="43.97127" lon="5.89153">
        <ele>527</ele>
        <time>2020-10-05T08:39:52.000Z</time>
      </trkpt>
      <trkpt lat="43.97128" lon="5.89153">
        <ele>527</ele>
        <time>2020-10-05T08:39:53.000Z</time>
      </trkpt>
      <trkpt lat="43.97129" lon="5.89154">
        <ele>527</ele>
        <time>2020-10-05T08:39:54.000Z</time>
      </trkpt>
      <trkpt lat="43.97129" lon="5.89155">
        <ele>526</ele>
        <time>2020-10-05T08:39:55.000Z</time>
      </trkpt>
      <trkpt lat="43.9713" lon="5.89155">
        <ele>526</ele>
        <time>2020-10-05T08:39:56.000Z</time>
      </trkpt>
      <trkpt lat="43.97131" lon="5.89156">
        <ele>526</ele>
        <time>2020-10-05T08:39:57.000Z</time>
      </trkpt>
      <trkpt lat="43.97132" lon="5.89157">
        <ele>526</ele>
        <time>2020-10-05T08:39:58.000Z</time>
      </trkpt>
      <trkpt lat="43.97133" lon="5.89158">
        <ele>526</ele>
        <time>2020-10-05T08:39:59.000Z</time>
      </trkpt>
      <trkpt lat="43.97134" lon="5.89159">
        <ele>526</ele>
        <time>2020-10-05T08:40:00.000Z</time>
      </trkpt>
      <trkpt lat="43.97135" lon="5.8916">
        <ele>526</ele>
        <time>2020-10-05T08:40:01.000Z</time>
      </trkpt>
      <trkpt lat="43.97135" lon="5.89162">
        <ele>525</ele>
        <time>2020-10-05T08:40:02.000Z</time>
      </trkpt>
      <trkpt lat="43.97136" lon="5.89162">
        <ele>525</ele>
        <time>2020-10-05T08:40:03.000Z</time>
      </trkpt>
      <trkpt lat="43.97137" lon="5.89163">
        <ele>525</ele>
        <time>2020-10-05T08:40:04.000Z</time>
      </trkpt>
      <trkpt lat="43.97138" lon="5.89164">
        <ele>525</ele>
        <time>2020-10-05T08:40:05.000Z</time>
      </trkpt>
      <trkpt lat="43.97139" lon="5.89165">
        <ele>525</ele>
        <time>2020-10-05T08:40:06.000Z</time>
      </trkpt>
      <trkpt lat="43.9714" lon="5.89166">
        <ele>525</ele>
        <time>2020-10-05T08:40:07.000Z</time>
      </trkpt>
      <trkpt lat="43.97142" lon="5.89167">
        <ele>525</ele>
        <time>2020-10-05T08:40:08.000Z</time>
      </trkpt>
      <trkpt lat="43.97143" lon="5.89167">
        <ele>525</ele>
        <time>2020-10-05T08:40:09.000Z</time>
      </trkpt>
      <trkpt lat="43.97143" lon="5.89168">
        <ele>525</ele>
        <time>2020-10-05T08:40:10.000Z</time>
      </trkpt>
      <trkpt lat="43.97144" lon="5.89169">
        <ele>525</ele>
        <time>2020-10-05T08:40:11.000Z</time>
      </trkpt>
      <trkpt lat="43.97145" lon="5.8917">
        <ele>524</ele>
        <time>2020-10-05T08:40:12.000Z</time>
      </trkpt>
      <trkpt lat="43.97146" lon="5.89171">
        <ele>524</ele>
        <time>2020-10-05T08:40:13.000Z</time>
      </trkpt>
      <trkpt lat="43.97147" lon="5.89171">
        <ele>524</ele>
        <time>2020-10-05T08:40:14.000Z</time>
      </trkpt>
      <trkpt lat="43.97148" lon="5.89172">
        <ele>524</ele>
        <time>2020-10-05T08:40:15.000Z</time>
      </trkpt>
      <trkpt lat="43.97149" lon="5.89173">
        <ele>524</ele>
        <time>2020-10-05T08:40:16.000Z</time>
      </trkpt>
      <trkpt lat="43.9715" lon="5.89173">
        <ele>524</ele>
        <time>2020-10-05T08:40:17.000Z</time>
      </trkpt>
      <trkpt lat="43.97152" lon="5.89174">
        <ele>524</ele>
        <time>2020-10-05T08:40:18.000Z</time>
      </trkpt>
      <trkpt lat="43.97153" lon="5.89174">
        <ele>524</ele>
        <time>2020-10-05T08:40:19.000Z</time>
      </trkpt>
      <trkpt lat="43.97154" lon="5.89174">
        <ele>524</ele>
        <time>2020-10-05T08:40:20.000Z</time>
      </trkpt>
      <trkpt lat="43.97155" lon="5.89174">
        <ele>524</ele>
        <time>2020-10-05T08:40:21.000Z</time>
      </trkpt>
      <trkpt lat="43.97156" lon="5.89174">
        <ele>524</ele>
        <time>2020-10-05T08:40:22.000Z</time>
      </trkpt>
      <trkpt lat="43.97157" lon="5.89174">
        <ele>524</ele>
        <time>2020-10-05T08:40:23.000Z</time>
      </trkpt>
      <trkpt lat="43.97159" lon="5.89174">
        <ele>524</ele>
        <time>2020-10-05T08:40:24.000Z</time>
      </trkpt>
      <trkpt lat="43.9716" lon="5.89175">
        <ele>524</ele>
        <time>2020-10-05T08:40:25.000Z</time>
      </trkpt>
      <trkpt lat="43.97161" lon="5.89175">
        <ele>524</ele>
        <time>2020-10-05T08:40:26.000Z</time>
      </trkpt>
      <trkpt lat="43.97162" lon="5.89175">
        <ele>524</ele>
        <time>2020-10-05T08:40:27.000Z</time>
      </trkpt>
      <trkpt lat="43.97163" lon="5.89176">
        <ele>523</ele>
        <time>2020-10-05T08:40:28.000Z</time>
      </trkpt>
      <trkpt lat="43.97165" lon="5.89176">
        <ele>523</ele>
        <time>2020-10-05T08:40:29.000Z</time>
      </trkpt>
      <trkpt lat="43.97166" lon="5.89176">
        <ele>523</ele>
        <time>2020-10-05T08:40:30.000Z</time>
      </trkpt>
      <trkpt lat="43.97167" lon="5.89176">
        <ele>523</ele>
        <time>2020-10-05T08:40:31.000Z</time>
      </trkpt>
      <trkpt lat="43.97168" lon="5.89176">
        <ele>523</ele>
        <time>2020-10-05T08:40:32.000Z</time>
      </trkpt>
      <trkpt lat="43.97169" lon="5.89177">
        <ele>523</ele>
        <time>2020-10-05T08:40:33.000Z</time>
      </trkpt>
      <trkpt lat="43.9717" lon="5.89177">
        <ele>523</ele>
        <time>2020-10-05T08:40:34.000Z</time>
      </trkpt>
      <trkpt lat="43.97171" lon="5.89178">
        <ele>523</ele>
        <time>2020-10-05T08:40:35.000Z</time>
      </trkpt>
      <trkpt lat="43.97172" lon="5.89178">
        <ele>523</ele>
        <time>2020-10-05T08:40:36.000Z</time>
      </trkpt>
      <trkpt lat="43.97173" lon="5.89178">
        <ele>523</ele>
        <time>2020-10-05T08:40:37.000Z</time>
      </trkpt>
      <trkpt lat="43.97174" lon="5.89179">
        <ele>523</ele>
        <time>2020-10-05T08:40:38.000Z</time>
      </trkpt>
      <trkpt lat="43.97175" lon="5.89179">
        <ele>523</ele>
        <time>2020-10-05T08:40:39.000Z</time>
      </trkpt>
      <trkpt lat="43.97176" lon="5.8918">
        <ele>523</ele>
        <time>2020-10-05T08:40:40.000Z</time>
      </trkpt>
      <trkpt lat="43.97177" lon="5.8918">
        <ele>522</ele>
        <time>2020-10-05T08:40:41.000Z</time>
      </trkpt>
      <trkpt lat="43.97178" lon="5.89181">
        <ele>522</ele>
        <time>2020-10-05T08:40:42.000Z</time>
      </trkpt>
      <trkpt lat="43.97179" lon="5.89181">
        <ele>522</ele>
        <time>2020-10-05T08:40:43.000Z</time>
      </trkpt>
      <trkpt lat="43.9718" lon="5.89181">
        <ele>522</ele>
        <time>2020-10-05T08:40:44.000Z</time>
      </trkpt>
      <trkpt lat="43.97181" lon="5.89182">
        <ele>522</ele>
        <time>2020-10-05T08:40:45.000Z</time>
      </trkpt>
      <trkpt lat="43.97182" lon="5.89182">
        <ele>522</ele>
        <time>2020-10-05T08:40:46.000Z</time>
      </trkpt>
      <trkpt lat="43.97183" lon="5.89183">
        <ele>521</ele>
        <time>2020-10-05T08:40:47.000Z</time>
      </trkpt>
      <trkpt lat="43.97184" lon="5.89183">
        <ele>521</ele>
        <time>2020-10-05T08:40:48.000Z</time>
      </trkpt>
      <trkpt lat="43.97185" lon="5.89184">
        <ele>521</ele>
        <time>2020-10-05T08:40:49.000Z</time>
      </trkpt>
      <trkpt lat="43.97186" lon="5.89185">
        <ele>521</ele>
        <time>2020-10-05T08:40:50.000Z</time>
      </trkpt>
      <trkpt lat="43.97187" lon="5.89185">
        <ele>521</ele>
        <time>2020-10-05T08:40:51.000Z</time>
      </trkpt>
      <trkpt lat="43.97188" lon="5.89186">
        <ele>521</ele>
        <time>2020-10-05T08:40:52.000Z</time>
      </trkpt>
      <trkpt lat="43.97189" lon="5.89186">
        <ele>520</ele>
        <time>2020-10-05T08:40:53.000Z</time>
      </trkpt>
      <trkpt lat="43.9719" lon="5.89187">
        <ele>520</ele>
        <time>2020-10-05T08:40:54.000Z</time>
      </trkpt>
      <trkpt lat="43.97191" lon="5.89187">
        <ele>520</ele>
        <time>2020-10-05T08:40:55.000Z</time>
      </trkpt>
      <trkpt lat="43.97192" lon="5.89188">
        <ele>520</ele>
        <time>2020-10-05T08:40:56.000Z</time>
      </trkpt>
      <trkpt lat="43.97193" lon="5.89188">
        <ele>520</ele>
        <time>2020-10-05T08:40:57.000Z</time>
      </trkpt>
      <trkpt lat="43.97194" lon="5.89189">
        <ele>519</ele>
        <time>2020-10-05T08:40:58.000Z</time>
      </trkpt>
      <trkpt lat="43.97195" lon="5.89189">
        <ele>519</ele>
        <time>2020-10-05T08:40:59.000Z</time>
      </trkpt>
      <trkpt lat="43.97195" lon="5.8919">
        <ele>519</ele>
        <time>2020-10-05T08:41:00.000Z</time>
      </trkpt>
      <trkpt lat="43.97196" lon="5.89191">
        <ele>519</ele>
        <time>2020-10-05T08:41:01.000Z</time>
      </trkpt>
      <trkpt lat="43.97197" lon="5.89191">
        <ele>519</ele>
        <time>2020-10-05T08:41:02.000Z</time>
      </trkpt>
      <trkpt lat="43.97198" lon="5.89192">
        <ele>518</ele>
        <time>2020-10-05T08:41:03.000Z</time>
      </trkpt>
      <trkpt lat="43.97199" lon="5.89193">
        <ele>518</ele>
        <time>2020-10-05T08:41:04.000Z</time>
      </trkpt>
      <trkpt lat="43.972" lon="5.89193">
        <ele>518</ele>
        <time>2020-10-05T08:41:05.000Z</time>
      </trkpt>
      <trkpt lat="43.97201" lon="5.89194">
        <ele>518</ele>
        <time>2020-10-05T08:41:06.000Z</time>
      </trkpt>
      <trkpt lat="43.97202" lon="5.89194">
        <ele>518</ele>
        <time>2020-10-05T08:41:07.000Z</time>
      </trkpt>
      <trkpt lat="43.97203" lon="5.89195">
        <ele>518</ele>
        <time>2020-10-05T08:41:08.000Z</time>
      </trkpt>
      <trkpt lat="43.97205" lon="5.89195">
        <ele>518</ele>
        <time>2020-10-05T08:41:09.000Z</time>
      </trkpt>
      <trkpt lat="43.97206" lon="5.89196">
        <ele>517</ele>
        <time>2020-10-05T08:41:10.000Z</time>
      </trkpt>
      <trkpt lat="43.97207" lon="5.89196">
        <ele>517</ele>
        <time>2020-10-05T08:41:11.000Z</time>
      </trkpt>
      <trkpt lat="43.97208" lon="5.89196">
        <ele>517</ele>
        <time>2020-10-05T08:41:12.000Z</time>
      </trkpt>
      <trkpt lat="43.97209" lon="5.89197">
        <ele>517</ele>
        <time>2020-10-05T08:41:13.000Z</time>
      </trkpt>
      <trkpt lat="43.9721" lon="5.89197">
        <ele>517</ele>
        <time>2020-10-05T08:41:14.000Z</time>
      </trkpt>
      <trkpt lat="43.97211" lon="5.89198">
        <ele>517</ele>
        <time>2020-10-05T08:41:15.000Z</time>
      </trkpt>
      <trkpt lat="43.97212" lon="5.89198">
        <ele>517</ele>
        <time>2020-10-05T08:41:16.000Z</time>
      </trkpt>
      <trkpt lat="43.97213" lon="5.89198">
        <ele>517</ele>
        <time>2020-10-05T08:41:17.000Z</time>
      </trkpt>
      <trkpt lat="43.97214" lon="5.89199">
        <ele>517</ele>
        <time>2020-10-05T08:41:18.000Z</time>
      </trkpt>
      <trkpt lat="43.97215" lon="5.89199">
        <ele>517</ele>
        <time>2020-10-05T08:41:19.000Z</time>
      </trkpt>
      <trkpt lat="43.97216" lon="5.89199">
        <ele>517</ele>
        <time>2020-10-05T08:41:20.000Z</time>
      </trkpt>
      <trkpt lat="43.97217" lon="5.892">
        <ele>517</ele>
        <time>2020-10-05T08:41:21.000Z</time>
      </trkpt>
      <trkpt lat="43.97218" lon="5.892">
        <ele>517</ele>
        <time>2020-10-05T08:41:22.000Z</time>
      </trkpt>
      <trkpt lat="43.97219" lon="5.892">
        <ele>517</ele>
        <time>2020-10-05T08:41:23.000Z</time>
      </trkpt>
      <trkpt lat="43.9722" lon="5.892">
        <ele>517</ele>
        <time>2020-10-05T08:41:24.000Z</time>
      </trkpt>
      <trkpt lat="43.97221" lon="5.892">
        <ele>516</ele>
        <time>2020-10-05T08:41:25.000Z</time>
      </trkpt>
      <trkpt lat="43.97222" lon="5.89201">
        <ele>516</ele>
        <time>2020-10-05T08:41:26.000Z</time>
      </trkpt>
      <trkpt lat="43.97223" lon="5.89201">
        <ele>516</ele>
        <time>2020-10-05T08:41:27.000Z</time>
      </trkpt>
      <trkpt lat="43.97224" lon="5.89201">
        <ele>516</ele>
        <time>2020-10-05T08:41:28.000Z</time>
      </trkpt>
      <trkpt lat="43.97225" lon="5.89202">
        <ele>516</ele>
        <time>2020-10-05T08:41:29.000Z</time>
      </trkpt>
      <trkpt lat="43.97226" lon="5.89202">
        <ele>516</ele>
        <time>2020-10-05T08:41:30.000Z</time>
      </trkpt>
      <trkpt lat="43.97227" lon="5.89202">
        <ele>516</ele>
        <time>2020-10-05T08:41:31.000Z</time>
      </trkpt>
      <trkpt lat="43.97228" lon="5.89202">
        <ele>516</ele>
        <time>2020-10-05T08:41:32.000Z</time>
      </trkpt>
      <trkpt lat="43.9723" lon="5.89202">
        <ele>516</ele>
        <time>2020-10-05T08:41:33.000Z</time>
      </trkpt>
      <trkpt lat="43.97231" lon="5.89203">
        <ele>516</ele>
        <time>2020-10-05T08:41:34.000Z</time>
      </trkpt>
      <trkpt lat="43.97232" lon="5.89203">
        <ele>515</ele>
        <time>2020-10-05T08:41:35.000Z</time>
      </trkpt>
      <trkpt lat="43.97233" lon="5.89203">
        <ele>515</ele>
        <time>2020-10-05T08:41:36.000Z</time>
      </trkpt>
      <trkpt lat="43.97234" lon="5.89204">
        <ele>515</ele>
        <time>2020-10-05T08:41:37.000Z</time>
      </trkpt>
      <trkpt lat="43.97235" lon="5.89204">
        <ele>515</ele>
        <time>2020-10-05T08:41:38.000Z</time>
      </trkpt>
      <trkpt lat="43.97236" lon="5.89204">
        <ele>515</ele>
        <time>2020-10-05T08:41:39.000Z</time>
      </trkpt>
      <trkpt lat="43.97237" lon="5.89204">
        <ele>515</ele>
        <time>2020-10-05T08:41:40.000Z</time>
      </trkpt>
      <trkpt lat="43.97238" lon="5.89204">
        <ele>515</ele>
        <time>2020-10-05T08:41:41.000Z</time>
      </trkpt>
      <trkpt lat="43.97239" lon="5.89205">
        <ele>515</ele>
        <time>2020-10-05T08:41:42.000Z</time>
      </trkpt>
      <trkpt lat="43.9724" lon="5.89205">
        <ele>515</ele>
        <time>2020-10-05T08:41:43.000Z</time>
      </trkpt>
      <trkpt lat="43.97241" lon="5.89206">
        <ele>515</ele>
        <time>2020-10-05T08:41:44.000Z</time>
      </trkpt>
      <trkpt lat="43.97242" lon="5.89206">
        <ele>515</ele>
        <time>2020-10-05T08:41:45.000Z</time>
      </trkpt>
      <trkpt lat="43.97243" lon="5.89206">
        <ele>515</ele>
        <time>2020-10-05T08:41:46.000Z</time>
      </trkpt>
      <trkpt lat="43.97244" lon="5.89205">
        <ele>515</ele>
        <time>2020-10-05T08:41:47.000Z</time>
      </trkpt>
      <trkpt lat="43.97245" lon="5.89206">
        <ele>515</ele>
        <time>2020-10-05T08:41:48.000Z</time>
      </trkpt>
      <trkpt lat="43.97246" lon="5.89206">
        <ele>514</ele>
        <time>2020-10-05T08:41:49.000Z</time>
      </trkpt>
      <trkpt lat="43.97248" lon="5.89206">
        <ele>514</ele>
        <time>2020-10-05T08:41:50.000Z</time>
      </trkpt>
      <trkpt lat="43.97249" lon="5.89206">
        <ele>514</ele>
        <time>2020-10-05T08:41:51.000Z</time>
      </trkpt>
      <trkpt lat="43.9725" lon="5.89206">
        <ele>514</ele>
        <time>2020-10-05T08:41:52.000Z</time>
      </trkpt>
      <trkpt lat="43.97252" lon="5.89206">
        <ele>514</ele>
        <time>2020-10-05T08:41:53.000Z</time>
      </trkpt>
      <trkpt lat="43.97253" lon="5.89206">
        <ele>514</ele>
        <time>2020-10-05T08:41:54.000Z</time>
      </trkpt>
      <trkpt lat="43.97254" lon="5.89206">
        <ele>514</ele>
        <time>2020-10-05T08:41:55.000Z</time>
      </trkpt>
      <trkpt lat="43.97255" lon="5.89206">
        <ele>514</ele>
        <time>2020-10-05T08:41:56.000Z</time>
      </trkpt>
      <trkpt lat="43.97257" lon="5.89206">
        <ele>514</ele>
        <time>2020-10-05T08:41:57.000Z</time>
      </trkpt>
      <trkpt lat="43.97258" lon="5.89207">
        <ele>514</ele>
        <time>2020-10-05T08:41:58.000Z</time>
      </trkpt>
      <trkpt lat="43.97259" lon="5.89207">
        <ele>514</ele>
        <time>2020-10-05T08:41:59.000Z</time>
      </trkpt>
      <trkpt lat="43.9726" lon="5.89207">
        <ele>514</ele>
        <time>2020-10-05T08:42:00.000Z</time>
      </trkpt>
      <trkpt lat="43.97261" lon="5.89207">
        <ele>514</ele>
        <time>2020-10-05T08:42:01.000Z</time>
      </trkpt>
      <trkpt lat="43.97262" lon="5.89207">
        <ele>513</ele>
        <time>2020-10-05T08:42:02.000Z</time>
      </trkpt>
      <trkpt lat="43.97263" lon="5.89207">
        <ele>513</ele>
        <time>2020-10-05T08:42:03.000Z</time>
      </trkpt>
      <trkpt lat="43.97264" lon="5.89207">
        <ele>513</ele>
        <time>2020-10-05T08:42:04.000Z</time>
      </trkpt>
      <trkpt lat="43.97266" lon="5.89207">
        <ele>513</ele>
        <time>2020-10-05T08:42:05.000Z</time>
      </trkpt>
      <trkpt lat="43.97267" lon="5.89207">
        <ele>513</ele>
        <time>2020-10-05T08:42:06.000Z</time>
      </trkpt>
      <trkpt lat="43.97268" lon="5.89207">
        <ele>513</ele>
        <time>2020-10-05T08:42:07.000Z</time>
      </trkpt>
      <trkpt lat="43.97269" lon="5.89208">
        <ele>513</ele>
        <time>2020-10-05T08:42:08.000Z</time>
      </trkpt>
      <trkpt lat="43.9727" lon="5.89208">
        <ele>513</ele>
        <time>2020-10-05T08:42:09.000Z</time>
      </trkpt>
      <trkpt lat="43.97271" lon="5.89208">
        <ele>513</ele>
        <time>2020-10-05T08:42:10.000Z</time>
      </trkpt>
      <trkpt lat="43.97272" lon="5.89208">
        <ele>513</ele>
        <time>2020-10-05T08:42:11.000Z</time>
      </trkpt>
      <trkpt lat="43.97273" lon="5.89208">
        <ele>513</ele>
        <time>2020-10-05T08:42:12.000Z</time>
      </trkpt>
      <trkpt lat="43.97274" lon="5.89209">
        <ele>513</ele>
        <time>2020-10-05T08:42:13.000Z</time>
      </trkpt>
      <trkpt lat="43.97275" lon="5.89209">
        <ele>513</ele>
        <time>2020-10-05T08:42:14.000Z</time>
      </trkpt>
      <trkpt lat="43.97276" lon="5.8921">
        <ele>513</ele>
        <time>2020-10-05T08:42:15.000Z</time>
      </trkpt>
      <trkpt lat="43.97276" lon="5.8921">
        <ele>513</ele>
        <time>2020-10-05T08:42:16.000Z</time>
      </trkpt>
      <trkpt lat="43.97277" lon="5.8921">
        <ele>513</ele>
        <time>2020-10-05T08:42:17.000Z</time>
      </trkpt>
      <trkpt lat="43.97277" lon="5.8921">
        <ele>513</ele>
        <time>2020-10-05T08:42:18.000Z</time>
      </trkpt>
      <trkpt lat="43.97278" lon="5.89211">
        <ele>513</ele>
        <time>2020-10-05T08:42:19.000Z</time>
      </trkpt>
      <trkpt lat="43.97278" lon="5.89212">
        <ele>513</ele>
        <time>2020-10-05T08:42:20.000Z</time>
      </trkpt>
      <trkpt lat="43.97279" lon="5.89212">
        <ele>513</ele>
        <time>2020-10-05T08:42:21.000Z</time>
      </trkpt>
      <trkpt lat="43.9728" lon="5.89213">
        <ele>513</ele>
        <time>2020-10-05T08:42:22.000Z</time>
      </trkpt>
      <trkpt lat="43.97281" lon="5.89214">
        <ele>513</ele>
        <time>2020-10-05T08:42:23.000Z</time>
      </trkpt>
      <trkpt lat="43.97282" lon="5.89214">
        <ele>513</ele>
        <time>2020-10-05T08:42:24.000Z</time>
      </trkpt>
      <trkpt lat="43.97283" lon="5.89215">
        <ele>513</ele>
        <time>2020-10-05T08:42:25.000Z</time>
      </trkpt>
      <trkpt lat="43.97284" lon="5.89215">
        <ele>512</ele>
        <time>2020-10-05T08:42:26.000Z</time>
      </trkpt>
      <trkpt lat="43.97285" lon="5.89215">
        <ele>512</ele>
        <time>2020-10-05T08:42:27.000Z</time>
      </trkpt>
      <trkpt lat="43.97286" lon="5.89216">
        <ele>512</ele>
        <time>2020-10-05T08:42:28.000Z</time>
      </trkpt>
      <trkpt lat="43.97286" lon="5.89216">
        <ele>512</ele>
        <time>2020-10-05T08:42:29.000Z</time>
      </trkpt>
      <trkpt lat="43.97288" lon="5.89217">
        <ele>512</ele>
        <time>2020-10-05T08:42:30.000Z</time>
      </trkpt>
      <trkpt lat="43.97289" lon="5.89218">
        <ele>512</ele>
        <time>2020-10-05T08:42:31.000Z</time>
      </trkpt>
      <trkpt lat="43.9729" lon="5.89218">
        <ele>512</ele>
        <time>2020-10-05T08:42:32.000Z</time>
      </trkpt>
      <trkpt lat="43.97291" lon="5.89219">
        <ele>512</ele>
        <time>2020-10-05T08:42:33.000Z</time>
      </trkpt>
      <trkpt lat="43.97292" lon="5.89219">
        <ele>512</ele>
        <time>2020-10-05T08:42:34.000Z</time>
      </trkpt>
      <trkpt lat="43.97293" lon="5.8922">
        <ele>512</ele>
        <time>2020-10-05T08:42:35.000Z</time>
      </trkpt>
      <trkpt lat="43.97294" lon="5.8922">
        <ele>512</ele>
        <time>2020-10-05T08:42:36.000Z</time>
      </trkpt>
      <trkpt lat="43.97295" lon="5.89221">
        <ele>512</ele>
        <time>2020-10-05T08:42:37.000Z</time>
      </trkpt>
      <trkpt lat="43.97297" lon="5.89221">
        <ele>512</ele>
        <time>2020-10-05T08:42:38.000Z</time>
      </trkpt>
      <trkpt lat="43.97298" lon="5.89222">
        <ele>512</ele>
        <time>2020-10-05T08:42:39.000Z</time>
      </trkpt>
      <trkpt lat="43.97299" lon="5.89223">
        <ele>512</ele>
        <time>2020-10-05T08:42:40.000Z</time>
      </trkpt>
      <trkpt lat="43.973" lon="5.89223">
        <ele>512</ele>
        <time>2020-10-05T08:42:41.000Z</time>
      </trkpt>
      <trkpt lat="43.97302" lon="5.89224">
        <ele>512</ele>
        <time>2020-10-05T08:42:42.000Z</time>
      </trkpt>
      <trkpt lat="43.97303" lon="5.89225">
        <ele>512</ele>
        <time>2020-10-05T08:42:43.000Z</time>
      </trkpt>
      <trkpt lat="43.97305" lon="5.89225">
        <ele>512</ele>
        <time>2020-10-05T08:42:44.000Z</time>
      </trkpt>
      <trkpt lat="43.97306" lon="5.89226">
        <ele>512</ele>
        <time>2020-10-05T08:42:45.000Z</time>
      </trkpt>
      <trkpt lat="43.97307" lon="5.89226">
        <ele>512</ele>
        <time>2020-10-05T08:42:46.000Z</time>
      </trkpt>
      <trkpt lat="43.97308" lon="5.89227">
        <ele>512</ele>
        <time>2020-10-05T08:42:47.000Z</time>
      </trkpt>
      <trkpt lat="43.97309" lon="5.89227">
        <ele>512</ele>
        <time>2020-10-05T08:42:48.000Z</time>
      </trkpt>
      <trkpt lat="43.9731" lon="5.89228">
        <ele>512</ele>
        <time>2020-10-05T08:42:49.000Z</time>
      </trkpt>
      <trkpt lat="43.97311" lon="5.89228">
        <ele>512</ele>
        <time>2020-10-05T08:42:50.000Z</time>
      </trkpt>
      <trkpt lat="43.97313" lon="5.89229">
        <ele>512</ele>
        <time>2020-10-05T08:42:51.000Z</time>
      </trkpt>
      <trkpt lat="43.97314" lon="5.8923">
        <ele>512</ele>
        <time>2020-10-05T08:42:52.000Z</time>
      </trkpt>
      <trkpt lat="43.97315" lon="5.89231">
        <ele>512</ele>
        <time>2020-10-05T08:42:53.000Z</time>
      </trkpt>
      <trkpt lat="43.97316" lon="5.89231">
        <ele>512</ele>
        <time>2020-10-05T08:42:54.000Z</time>
      </trkpt>
      <trkpt lat="43.97317" lon="5.89232">
        <ele>512</ele>
        <time>2020-10-05T08:42:55.000Z</time>
      </trkpt>
      <trkpt lat="43.97318" lon="5.89232">
        <ele>512</ele>
        <time>2020-10-05T08:42:56.000Z</time>
      </trkpt>
      <trkpt lat="43.97319" lon="5.89233">
        <ele>512</ele>
        <time>2020-10-05T08:42:57.000Z</time>
      </trkpt>
      <trkpt lat="43.9732" lon="5.89234">
        <ele>511</ele>
        <time>2020-10-05T08:42:58.000Z</time>
      </trkpt>
      <trkpt lat="43.97322" lon="5.89234">
        <ele>511</ele>
        <time>2020-10-05T08:42:59.000Z</time>
      </trkpt>
      <trkpt lat="43.97323" lon="5.89235">
        <ele>511</ele>
        <time>2020-10-05T08:43:00.000Z</time>
      </trkpt>
      <trkpt lat="43.97324" lon="5.89236">
        <ele>511</ele>
        <time>2020-10-05T08:43:01.000Z</time>
      </trkpt>
      <trkpt lat="43.97325" lon="5.89236">
        <ele>511</ele>
        <time>2020-10-05T08:43:02.000Z</time>
      </trkpt>
      <trkpt lat="43.97326" lon="5.89237">
        <ele>511</ele>
        <time>2020-10-05T08:43:03.000Z</time>
      </trkpt>
      <trkpt lat="43.97328" lon="5.89237">
        <ele>511</ele>
        <time>2020-10-05T08:43:04.000Z</time>
      </trkpt>
      <trkpt lat="43.97329" lon="5.89237">
        <ele>511</ele>
        <time>2020-10-05T08:43:05.000Z</time>
      </trkpt>
      <trkpt lat="43.9733" lon="5.89237">
        <ele>511</ele>
        <time>2020-10-05T08:43:06.000Z</time>
      </trkpt>
      <trkpt lat="43.97331" lon="5.89238">
        <ele>511</ele>
        <time>2020-10-05T08:43:07.000Z</time>
      </trkpt>
      <trkpt lat="43.97332" lon="5.89238">
        <ele>511</ele>
        <time>2020-10-05T08:43:08.000Z</time>
      </trkpt>
      <trkpt lat="43.97333" lon="5.89239">
        <ele>511</ele>
        <time>2020-10-05T08:43:09.000Z</time>
      </trkpt>
      <trkpt lat="43.97334" lon="5.8924">
        <ele>511</ele>
        <time>2020-10-05T08:43:10.000Z</time>
      </trkpt>
      <trkpt lat="43.97335" lon="5.8924">
        <ele>510</ele>
        <time>2020-10-05T08:43:11.000Z</time>
      </trkpt>
      <trkpt lat="43.97336" lon="5.89241">
        <ele>510</ele>
        <time>2020-10-05T08:43:12.000Z</time>
      </trkpt>
      <trkpt lat="43.97337" lon="5.89241">
        <ele>510</ele>
        <time>2020-10-05T08:43:13.000Z</time>
      </trkpt>
      <trkpt lat="43.97339" lon="5.89242">
        <ele>510</ele>
        <time>2020-10-05T08:43:14.000Z</time>
      </trkpt>
      <trkpt lat="43.9734" lon="5.89242">
        <ele>510</ele>
        <time>2020-10-05T08:43:15.000Z</time>
      </trkpt>
      <trkpt lat="43.97341" lon="5.89242">
        <ele>510</ele>
        <time>2020-10-05T08:43:16.000Z</time>
      </trkpt>
      <trkpt lat="43.97341" lon="5.89243">
        <ele>510</ele>
        <time>2020-10-05T08:43:17.000Z</time>
      </trkpt>
      <trkpt lat="43.97343" lon="5.89243">
        <ele>510</ele>
        <time>2020-10-05T08:43:18.000Z</time>
      </trkpt>
      <trkpt lat="43.97344" lon="5.89244">
        <ele>510</ele>
        <time>2020-10-05T08:43:19.000Z</time>
      </trkpt>
      <trkpt lat="43.97345" lon="5.89244">
        <ele>510</ele>
        <time>2020-10-05T08:43:20.000Z</time>
      </trkpt>
      <trkpt lat="43.97346" lon="5.89244">
        <ele>510</ele>
        <time>2020-10-05T08:43:21.000Z</time>
      </trkpt>
      <trkpt lat="43.97347" lon="5.89244">
        <ele>510</ele>
        <time>2020-10-05T08:43:22.000Z</time>
      </trkpt>
      <trkpt lat="43.97348" lon="5.89245">
        <ele>510</ele>
        <time>2020-10-05T08:43:23.000Z</time>
      </trkpt>
      <trkpt lat="43.97349" lon="5.89245">
        <ele>510</ele>
        <time>2020-10-05T08:43:24.000Z</time>
      </trkpt>
      <trkpt lat="43.9735" lon="5.89245">
        <ele>510</ele>
        <time>2020-10-05T08:43:25.000Z</time>
      </trkpt>
      <trkpt lat="43.97352" lon="5.89246">
        <ele>510</ele>
        <time>2020-10-05T08:43:26.000Z</time>
      </trkpt>
      <trkpt lat="43.97353" lon="5.89246">
        <ele>510</ele>
        <time>2020-10-05T08:43:27.000Z</time>
      </trkpt>
      <trkpt lat="43.97354" lon="5.89246">
        <ele>510</ele>
        <time>2020-10-05T08:43:28.000Z</time>
      </trkpt>
      <trkpt lat="43.97355" lon="5.89247">
        <ele>510</ele>
        <time>2020-10-05T08:43:29.000Z</time>
      </trkpt>
      <trkpt lat="43.97356" lon="5.89247">
        <ele>510</ele>
        <time>2020-10-05T08:43:30.000Z</time>
      </trkpt>
      <trkpt lat="43.97357" lon="5.89248">
        <ele>510</ele>
        <time>2020-10-05T08:43:31.000Z</time>
      </trkpt>
      <trkpt lat="43.97358" lon="5.89249">
        <ele>510</ele>
        <time>2020-10-05T08:43:32.000Z</time>
      </trkpt>
      <trkpt lat="43.97359" lon="5.8925">
        <ele>510</ele>
        <time>2020-10-05T08:43:33.000Z</time>
      </trkpt>
      <trkpt lat="43.9736" lon="5.8925">
        <ele>510</ele>
        <time>2020-10-05T08:43:34.000Z</time>
      </trkpt>
      <trkpt lat="43.97361" lon="5.89251">
        <ele>510</ele>
        <time>2020-10-05T08:43:35.000Z</time>
      </trkpt>
      <trkpt lat="43.97362" lon="5.89251">
        <ele>510</ele>
        <time>2020-10-05T08:43:36.000Z</time>
      </trkpt>
      <trkpt lat="43.97363" lon="5.89251">
        <ele>510</ele>
        <time>2020-10-05T08:43:37.000Z</time>
      </trkpt>
      <trkpt lat="43.97365" lon="5.89251">
        <ele>510</ele>
        <time>2020-10-05T08:43:38.000Z</time>
      </trkpt>
      <trkpt lat="43.97366" lon="5.89252">
        <ele>510</ele>
        <time>2020-10-05T08:43:39.000Z</time>
      </trkpt>
      <trkpt lat="43.97367" lon="5.89252">
        <ele>510</ele>
        <time>2020-10-05T08:43:40.000Z</time>
      </trkpt>
      <trkpt lat="43.97368" lon="5.89253">
        <ele>510</ele>
        <time>2020-10-05T08:43:41.000Z</time>
      </trkpt>
      <trkpt lat="43.97369" lon="5.89253">
        <ele>510</ele>
        <time>2020-10-05T08:43:42.000Z</time>
      </trkpt>
      <trkpt lat="43.9737" lon="5.89254">
        <ele>510</ele>
        <time>2020-10-05T08:43:43.000Z</time>
      </trkpt>
      <trkpt lat="43.97372" lon="5.89254">
        <ele>510</ele>
        <time>2020-10-05T08:43:44.000Z</time>
      </trkpt>
      <trkpt lat="43.97372" lon="5.89255">
        <ele>510</ele>
        <time>2020-10-05T08:43:45.000Z</time>
      </trkpt>
      <trkpt lat="43.97373" lon="5.89256">
        <ele>510</ele>
        <time>2020-10-05T08:43:46.000Z</time>
      </trkpt>
      <trkpt lat="43.97375" lon="5.89257">
        <ele>510</ele>
        <time>2020-10-05T08:43:47.000Z</time>
      </trkpt>
      <trkpt lat="43.97376" lon="5.89257">
        <ele>510</ele>
        <time>2020-10-05T08:43:48.000Z</time>
      </trkpt>
      <trkpt lat="43.97377" lon="5.89258">
        <ele>511</ele>
        <time>2020-10-05T08:43:49.000Z</time>
      </trkpt>
      <trkpt lat="43.97378" lon="5.89259">
        <ele>511</ele>
        <time>2020-10-05T08:43:50.000Z</time>
      </trkpt>
      <trkpt lat="43.97379" lon="5.8926">
        <ele>511</ele>
        <time>2020-10-05T08:43:51.000Z</time>
      </trkpt>
      <trkpt lat="43.9738" lon="5.89261">
        <ele>511</ele>
        <time>2020-10-05T08:43:52.000Z</time>
      </trkpt>
      <trkpt lat="43.97382" lon="5.89262">
        <ele>511</ele>
        <time>2020-10-05T08:43:53.000Z</time>
      </trkpt>
      <trkpt lat="43.97383" lon="5.89263">
        <ele>511</ele>
        <time>2020-10-05T08:43:54.000Z</time>
      </trkpt>
      <trkpt lat="43.97384" lon="5.89264">
        <ele>511</ele>
        <time>2020-10-05T08:43:55.000Z</time>
      </trkpt>
      <trkpt lat="43.97384" lon="5.89265">
        <ele>511</ele>
        <time>2020-10-05T08:43:56.000Z</time>
      </trkpt>
      <trkpt lat="43.97385" lon="5.89266">
        <ele>511</ele>
        <time>2020-10-05T08:43:57.000Z</time>
      </trkpt>
      <trkpt lat="43.97386" lon="5.89267">
        <ele>511</ele>
        <time>2020-10-05T08:43:58.000Z</time>
      </trkpt>
      <trkpt lat="43.97387" lon="5.89268">
        <ele>511</ele>
        <time>2020-10-05T08:43:59.000Z</time>
      </trkpt>
      <trkpt lat="43.97389" lon="5.89269">
        <ele>511</ele>
        <time>2020-10-05T08:44:00.000Z</time>
      </trkpt>
      <trkpt lat="43.9739" lon="5.8927">
        <ele>511</ele>
        <time>2020-10-05T08:44:01.000Z</time>
      </trkpt>
      <trkpt lat="43.97391" lon="5.89271">
        <ele>511</ele>
        <time>2020-10-05T08:44:02.000Z</time>
      </trkpt>
      <trkpt lat="43.97392" lon="5.89272">
        <ele>511</ele>
        <time>2020-10-05T08:44:03.000Z</time>
      </trkpt>
      <trkpt lat="43.97393" lon="5.89273">
        <ele>511</ele>
        <time>2020-10-05T08:44:04.000Z</time>
      </trkpt>
      <trkpt lat="43.97394" lon="5.89274">
        <ele>511</ele>
        <time>2020-10-05T08:44:05.000Z</time>
      </trkpt>
      <trkpt lat="43.97394" lon="5.89275">
        <ele>511</ele>
        <time>2020-10-05T08:44:06.000Z</time>
      </trkpt>
      <trkpt lat="43.97395" lon="5.89275">
        <ele>511</ele>
        <time>2020-10-05T08:44:07.000Z</time>
      </trkpt>
      <trkpt lat="43.97395" lon="5.89275">
        <ele>510</ele>
        <time>2020-10-05T08:44:08.000Z</time>
      </trkpt>
      <trkpt lat="43.97395" lon="5.89276">
        <ele>510</ele>
        <time>2020-10-05T08:44:09.000Z</time>
      </trkpt>
      <trkpt lat="43.97396" lon="5.89276">
        <ele>510</ele>
        <time>2020-10-05T08:44:10.000Z</time>
      </trkpt>
      <trkpt lat="43.97397" lon="5.89277">
        <ele>510</ele>
        <time>2020-10-05T08:44:11.000Z</time>
      </trkpt>
      <trkpt lat="43.97398" lon="5.89277">
        <ele>510</ele>
        <time>2020-10-05T08:44:12.000Z</time>
      </trkpt>
      <trkpt lat="43.97399" lon="5.89278">
        <ele>510</ele>
        <time>2020-10-05T08:44:13.000Z</time>
      </trkpt>
      <trkpt lat="43.974" lon="5.89279">
        <ele>510</ele>
        <time>2020-10-05T08:44:14.000Z</time>
      </trkpt>
      <trkpt lat="43.97401" lon="5.8928">
        <ele>510</ele>
        <time>2020-10-05T08:44:15.000Z</time>
      </trkpt>
      <trkpt lat="43.97402" lon="5.89281">
        <ele>510</ele>
        <time>2020-10-05T08:44:16.000Z</time>
      </trkpt>
      <trkpt lat="43.97404" lon="5.89281">
        <ele>510</ele>
        <time>2020-10-05T08:44:17.000Z</time>
      </trkpt>
      <trkpt lat="43.97405" lon="5.89282">
        <ele>510</ele>
        <time>2020-10-05T08:44:18.000Z</time>
      </trkpt>
      <trkpt lat="43.97407" lon="5.89283">
        <ele>510</ele>
        <time>2020-10-05T08:44:19.000Z</time>
      </trkpt>
      <trkpt lat="43.97408" lon="5.89283">
        <ele>510</ele>
        <time>2020-10-05T08:44:20.000Z</time>
      </trkpt>
      <trkpt lat="43.9741" lon="5.89284">
        <ele>510</ele>
        <time>2020-10-05T08:44:21.000Z</time>
      </trkpt>
      <trkpt lat="43.97411" lon="5.89284">
        <ele>510</ele>
        <time>2020-10-05T08:44:22.000Z</time>
      </trkpt>
      <trkpt lat="43.97413" lon="5.89284">
        <ele>510</ele>
        <time>2020-10-05T08:44:23.000Z</time>
      </trkpt>
      <trkpt lat="43.97414" lon="5.89285">
        <ele>510</ele>
        <time>2020-10-05T08:44:24.000Z</time>
      </trkpt>
      <trkpt lat="43.97416" lon="5.89285">
        <ele>510</ele>
        <time>2020-10-05T08:44:25.000Z</time>
      </trkpt>
      <trkpt lat="43.97417" lon="5.89285">
        <ele>510</ele>
        <time>2020-10-05T08:44:26.000Z</time>
      </trkpt>
      <trkpt lat="43.97418" lon="5.89286">
        <ele>511</ele>
        <time>2020-10-05T08:44:27.000Z</time>
      </trkpt>
      <trkpt lat="43.9742" lon="5.89287">
        <ele>511</ele>
        <time>2020-10-05T08:44:28.000Z</time>
      </trkpt>
      <trkpt lat="43.97421" lon="5.89288">
        <ele>511</ele>
        <time>2020-10-05T08:44:29.000Z</time>
      </trkpt>
      <trkpt lat="43.97422" lon="5.89289">
        <ele>511</ele>
        <time>2020-10-05T08:44:30.000Z</time>
      </trkpt>
      <trkpt lat="43.97423" lon="5.89289">
        <ele>510</ele>
        <time>2020-10-05T08:44:31.000Z</time>
      </trkpt>
      <trkpt lat="43.97424" lon="5.8929">
        <ele>510</ele>
        <time>2020-10-05T08:44:32.000Z</time>
      </trkpt>
      <trkpt lat="43.97426" lon="5.89291">
        <ele>510</ele>
        <time>2020-10-05T08:44:33.000Z</time>
      </trkpt>
      <trkpt lat="43.97427" lon="5.89292">
        <ele>510</ele>
        <time>2020-10-05T08:44:34.000Z</time>
      </trkpt>
      <trkpt lat="43.97429" lon="5.89292">
        <ele>510</ele>
        <time>2020-10-05T08:44:35.000Z</time>
      </trkpt>
      <trkpt lat="43.9743" lon="5.89293">
        <ele>510</ele>
        <time>2020-10-05T08:44:36.000Z</time>
      </trkpt>
      <trkpt lat="43.97431" lon="5.89294">
        <ele>510</ele>
        <time>2020-10-05T08:44:37.000Z</time>
      </trkpt>
      <trkpt lat="43.97433" lon="5.89294">
        <ele>510</ele>
        <time>2020-10-05T08:44:38.000Z</time>
      </trkpt>
      <trkpt lat="43.97434" lon="5.89295">
        <ele>510</ele>
        <time>2020-10-05T08:44:39.000Z</time>
      </trkpt>
      <trkpt lat="43.97435" lon="5.89296">
        <ele>510</ele>
        <time>2020-10-05T08:44:40.000Z</time>
      </trkpt>
      <trkpt lat="43.97436" lon="5.89297">
        <ele>510</ele>
        <time>2020-10-05T08:44:41.000Z</time>
      </trkpt>
      <trkpt lat="43.97438" lon="5.89298">
        <ele>510</ele>
        <time>2020-10-05T08:44:42.000Z</time>
      </trkpt>
      <trkpt lat="43.97439" lon="5.89299">
        <ele>510</ele>
        <time>2020-10-05T08:44:43.000Z</time>
      </trkpt>
      <trkpt lat="43.9744" lon="5.89301">
        <ele>510</ele>
        <time>2020-10-05T08:44:44.000Z</time>
      </trkpt>
      <trkpt lat="43.97441" lon="5.89302">
        <ele>510</ele>
        <time>2020-10-05T08:44:45.000Z</time>
      </trkpt>
      <trkpt lat="43.97441" lon="5.89303">
        <ele>510</ele>
        <time>2020-10-05T08:44:46.000Z</time>
      </trkpt>
      <trkpt lat="43.97442" lon="5.89304">
        <ele>510</ele>
        <time>2020-10-05T08:44:47.000Z</time>
      </trkpt>
      <trkpt lat="43.97443" lon="5.89305">
        <ele>510</ele>
        <time>2020-10-05T08:44:48.000Z</time>
      </trkpt>
      <trkpt lat="43.97444" lon="5.89306">
        <ele>510</ele>
        <time>2020-10-05T08:44:49.000Z</time>
      </trkpt>
      <trkpt lat="43.97445" lon="5.89307">
        <ele>510</ele>
        <time>2020-10-05T08:44:50.000Z</time>
      </trkpt>
      <trkpt lat="43.97446" lon="5.89308">
        <ele>510</ele>
        <time>2020-10-05T08:44:51.000Z</time>
      </trkpt>
      <trkpt lat="43.97447" lon="5.89309">
        <ele>510</ele>
        <time>2020-10-05T08:44:52.000Z</time>
      </trkpt>
      <trkpt lat="43.97448" lon="5.89311">
        <ele>510</ele>
        <time>2020-10-05T08:44:53.000Z</time>
      </trkpt>
      <trkpt lat="43.97449" lon="5.89312">
        <ele>510</ele>
        <time>2020-10-05T08:44:54.000Z</time>
      </trkpt>
      <trkpt lat="43.97449" lon="5.89313">
        <ele>510</ele>
        <time>2020-10-05T08:44:55.000Z</time>
      </trkpt>
      <trkpt lat="43.9745" lon="5.89314">
        <ele>510</ele>
        <time>2020-10-05T08:44:56.000Z</time>
      </trkpt>
      <trkpt lat="43.97451" lon="5.89316">
        <ele>510</ele>
        <time>2020-10-05T08:44:57.000Z</time>
      </trkpt>
      <trkpt lat="43.97452" lon="5.89317">
        <ele>510</ele>
        <time>2020-10-05T08:44:58.000Z</time>
      </trkpt>
      <trkpt lat="43.97452" lon="5.89318">
        <ele>510</ele>
        <time>2020-10-05T08:44:59.000Z</time>
      </trkpt>
      <trkpt lat="43.97453" lon="5.89319">
        <ele>509</ele>
        <time>2020-10-05T08:45:00.000Z</time>
      </trkpt>
      <trkpt lat="43.97454" lon="5.89319">
        <ele>510</ele>
        <time>2020-10-05T08:45:01.000Z</time>
      </trkpt>
      <trkpt lat="43.97454" lon="5.8932">
        <ele>510</ele>
        <time>2020-10-05T08:45:02.000Z</time>
      </trkpt>
      <trkpt lat="43.97455" lon="5.89322">
        <ele>510</ele>
        <time>2020-10-05T08:45:03.000Z</time>
      </trkpt>
      <trkpt lat="43.97456" lon="5.89323">
        <ele>510</ele>
        <time>2020-10-05T08:45:04.000Z</time>
      </trkpt>
      <trkpt lat="43.97457" lon="5.89324">
        <ele>510</ele>
        <time>2020-10-05T08:45:05.000Z</time>
      </trkpt>
      <trkpt lat="43.97458" lon="5.89325">
        <ele>509</ele>
        <time>2020-10-05T08:45:06.000Z</time>
      </trkpt>
      <trkpt lat="43.97459" lon="5.89326">
        <ele>509</ele>
        <time>2020-10-05T08:45:07.000Z</time>
      </trkpt>
      <trkpt lat="43.9746" lon="5.89328">
        <ele>509</ele>
        <time>2020-10-05T08:45:08.000Z</time>
      </trkpt>
      <trkpt lat="43.9746" lon="5.89329">
        <ele>509</ele>
        <time>2020-10-05T08:45:09.000Z</time>
      </trkpt>
      <trkpt lat="43.97461" lon="5.8933">
        <ele>509</ele>
        <time>2020-10-05T08:45:10.000Z</time>
      </trkpt>
      <trkpt lat="43.97461" lon="5.89331">
        <ele>509</ele>
        <time>2020-10-05T08:45:11.000Z</time>
      </trkpt>
      <trkpt lat="43.97462" lon="5.89332">
        <ele>510</ele>
        <time>2020-10-05T08:45:12.000Z</time>
      </trkpt>
      <trkpt lat="43.97462" lon="5.89333">
        <ele>510</ele>
        <time>2020-10-05T08:45:13.000Z</time>
      </trkpt>
      <trkpt lat="43.97463" lon="5.89335">
        <ele>510</ele>
        <time>2020-10-05T08:45:14.000Z</time>
      </trkpt>
      <trkpt lat="43.97463" lon="5.89336">
        <ele>510</ele>
        <time>2020-10-05T08:45:15.000Z</time>
      </trkpt>
      <trkpt lat="43.97464" lon="5.89337">
        <ele>510</ele>
        <time>2020-10-05T08:45:16.000Z</time>
      </trkpt>
      <trkpt lat="43.97465" lon="5.89338">
        <ele>510</ele>
        <time>2020-10-05T08:45:17.000Z</time>
      </trkpt>
      <trkpt lat="43.97465" lon="5.89339">
        <ele>510</ele>
        <time>2020-10-05T08:45:18.000Z</time>
      </trkpt>
      <trkpt lat="43.97466" lon="5.8934">
        <ele>510</ele>
        <time>2020-10-05T08:45:19.000Z</time>
      </trkpt>
      <trkpt lat="43.97466" lon="5.8934">
        <ele>510</ele>
        <time>2020-10-05T08:45:20.000Z</time>
      </trkpt>
      <trkpt lat="43.97467" lon="5.89341">
        <ele>510</ele>
        <time>2020-10-05T08:45:21.000Z</time>
      </trkpt>
      <trkpt lat="43.97467" lon="5.89342">
        <ele>510</ele>
        <time>2020-10-05T08:45:22.000Z</time>
      </trkpt>
      <trkpt lat="43.97468" lon="5.89344">
        <ele>510</ele>
        <time>2020-10-05T08:45:23.000Z</time>
      </trkpt>
      <trkpt lat="43.97468" lon="5.89345">
        <ele>510</ele>
        <time>2020-10-05T08:45:24.000Z</time>
      </trkpt>
      <trkpt lat="43.97468" lon="5.89347">
        <ele>510</ele>
        <time>2020-10-05T08:45:25.000Z</time>
      </trkpt>
      <trkpt lat="43.97468" lon="5.89348">
        <ele>510</ele>
        <time>2020-10-05T08:45:26.000Z</time>
      </trkpt>
      <trkpt lat="43.97469" lon="5.89349">
        <ele>511</ele>
        <time>2020-10-05T08:45:27.000Z</time>
      </trkpt>
      <trkpt lat="43.97469" lon="5.89351">
        <ele>511</ele>
        <time>2020-10-05T08:45:28.000Z</time>
      </trkpt>
      <trkpt lat="43.9747" lon="5.89352">
        <ele>511</ele>
        <time>2020-10-05T08:45:29.000Z</time>
      </trkpt>
      <trkpt lat="43.9747" lon="5.89353">
        <ele>511</ele>
        <time>2020-10-05T08:45:30.000Z</time>
      </trkpt>
      <trkpt lat="43.97471" lon="5.89354">
        <ele>511</ele>
        <time>2020-10-05T08:45:31.000Z</time>
      </trkpt>
      <trkpt lat="43.97471" lon="5.89356">
        <ele>511</ele>
        <time>2020-10-05T08:45:32.000Z</time>
      </trkpt>
      <trkpt lat="43.97472" lon="5.89357">
        <ele>511</ele>
        <time>2020-10-05T08:45:33.000Z</time>
      </trkpt>
      <trkpt lat="43.97472" lon="5.89358">
        <ele>511</ele>
        <time>2020-10-05T08:45:34.000Z</time>
      </trkpt>
      <trkpt lat="43.97473" lon="5.89359">
        <ele>511</ele>
        <time>2020-10-05T08:45:35.000Z</time>
      </trkpt>
      <trkpt lat="43.97473" lon="5.89361">
        <ele>511</ele>
        <time>2020-10-05T08:45:36.000Z</time>
      </trkpt>
      <trkpt lat="43.97474" lon="5.89363">
        <ele>511</ele>
        <time>2020-10-05T08:45:37.000Z</time>
      </trkpt>
      <trkpt lat="43.97474" lon="5.89364">
        <ele>511</ele>
        <time>2020-10-05T08:45:38.000Z</time>
      </trkpt>
      <trkpt lat="43.97475" lon="5.89366">
        <ele>510</ele>
        <time>2020-10-05T08:45:39.000Z</time>
      </trkpt>
      <trkpt lat="43.97475" lon="5.89367">
        <ele>510</ele>
        <time>2020-10-05T08:45:40.000Z</time>
      </trkpt>
      <trkpt lat="43.97476" lon="5.89369">
        <ele>510</ele>
        <time>2020-10-05T08:45:41.000Z</time>
      </trkpt>
      <trkpt lat="43.97476" lon="5.89371">
        <ele>510</ele>
        <time>2020-10-05T08:45:42.000Z</time>
      </trkpt>
      <trkpt lat="43.97477" lon="5.89373">
        <ele>510</ele>
        <time>2020-10-05T08:45:43.000Z</time>
      </trkpt>
      <trkpt lat="43.97477" lon="5.89374">
        <ele>510</ele>
        <time>2020-10-05T08:45:44.000Z</time>
      </trkpt>
      <trkpt lat="43.97478" lon="5.89376">
        <ele>510</ele>
        <time>2020-10-05T08:45:45.000Z</time>
      </trkpt>
      <trkpt lat="43.97478" lon="5.89378">
        <ele>510</ele>
        <time>2020-10-05T08:45:46.000Z</time>
      </trkpt>
      <trkpt lat="43.97479" lon="5.8938">
        <ele>510</ele>
        <time>2020-10-05T08:45:47.000Z</time>
      </trkpt>
      <trkpt lat="43.97479" lon="5.89381">
        <ele>510</ele>
        <time>2020-10-05T08:45:48.000Z</time>
      </trkpt>
      <trkpt lat="43.97479" lon="5.89383">
        <ele>510</ele>
        <time>2020-10-05T08:45:49.000Z</time>
      </trkpt>
      <trkpt lat="43.9748" lon="5.89385">
        <ele>510</ele>
        <time>2020-10-05T08:45:50.000Z</time>
      </trkpt>
      <trkpt lat="43.9748" lon="5.89386">
        <ele>510</ele>
        <time>2020-10-05T08:45:51.000Z</time>
      </trkpt>
      <trkpt lat="43.97481" lon="5.89388">
        <ele>510</ele>
        <time>2020-10-05T08:45:52.000Z</time>
      </trkpt>
      <trkpt lat="43.97481" lon="5.89389">
        <ele>510</ele>
        <time>2020-10-05T08:45:53.000Z</time>
      </trkpt>
      <trkpt lat="43.97482" lon="5.89391">
        <ele>510</ele>
        <time>2020-10-05T08:45:54.000Z</time>
      </trkpt>
      <trkpt lat="43.97482" lon="5.89393">
        <ele>510</ele>
        <time>2020-10-05T08:45:55.000Z</time>
      </trkpt>
      <trkpt lat="43.97482" lon="5.89395">
        <ele>510</ele>
        <time>2020-10-05T08:45:56.000Z</time>
      </trkpt>
      <trkpt lat="43.97483" lon="5.89396">
        <ele>510</ele>
        <time>2020-10-05T08:45:57.000Z</time>
      </trkpt>
      <trkpt lat="43.97483" lon="5.89398">
        <ele>510</ele>
        <time>2020-10-05T08:45:58.000Z</time>
      </trkpt>
      <trkpt lat="43.97484" lon="5.894">
        <ele>510</ele>
        <time>2020-10-05T08:45:59.000Z</time>
      </trkpt>
      <trkpt lat="43.97484" lon="5.89401">
        <ele>510</ele>
        <time>2020-10-05T08:46:00.000Z</time>
      </trkpt>
      <trkpt lat="43.97485" lon="5.89403">
        <ele>510</ele>
        <time>2020-10-05T08:46:01.000Z</time>
      </trkpt>
      <trkpt lat="43.97485" lon="5.89405">
        <ele>510</ele>
        <time>2020-10-05T08:46:02.000Z</time>
      </trkpt>
      <trkpt lat="43.97486" lon="5.89406">
        <ele>510</ele>
        <time>2020-10-05T08:46:03.000Z</time>
      </trkpt>
      <trkpt lat="43.97487" lon="5.89408">
        <ele>511</ele>
        <time>2020-10-05T08:46:04.000Z</time>
      </trkpt>
      <trkpt lat="43.97488" lon="5.89409">
        <ele>511</ele>
        <time>2020-10-05T08:46:05.000Z</time>
      </trkpt>
      <trkpt lat="43.97489" lon="5.89411">
        <ele>511</ele>
        <time>2020-10-05T08:46:06.000Z</time>
      </trkpt>
      <trkpt lat="43.97489" lon="5.89412">
        <ele>510</ele>
        <time>2020-10-05T08:46:07.000Z</time>
      </trkpt>
      <trkpt lat="43.9749" lon="5.89414">
        <ele>510</ele>
        <time>2020-10-05T08:46:08.000Z</time>
      </trkpt>
      <trkpt lat="43.97491" lon="5.89415">
        <ele>510</ele>
        <time>2020-10-05T08:46:09.000Z</time>
      </trkpt>
      <trkpt lat="43.97492" lon="5.89417">
        <ele>511</ele>
        <time>2020-10-05T08:46:10.000Z</time>
      </trkpt>
      <trkpt lat="43.97492" lon="5.89418">
        <ele>511</ele>
        <time>2020-10-05T08:46:11.000Z</time>
      </trkpt>
      <trkpt lat="43.97493" lon="5.89419">
        <ele>511</ele>
        <time>2020-10-05T08:46:12.000Z</time>
      </trkpt>
      <trkpt lat="43.97493" lon="5.89421">
        <ele>511</ele>
        <time>2020-10-05T08:46:13.000Z</time>
      </trkpt>
      <trkpt lat="43.97494" lon="5.89422">
        <ele>511</ele>
        <time>2020-10-05T08:46:14.000Z</time>
      </trkpt>
      <trkpt lat="43.97495" lon="5.89423">
        <ele>511</ele>
        <time>2020-10-05T08:46:15.000Z</time>
      </trkpt>
      <trkpt lat="43.97495" lon="5.89424">
        <ele>511</ele>
        <time>2020-10-05T08:46:16.000Z</time>
      </trkpt>
      <trkpt lat="43.97495" lon="5.89424">
        <ele>511</ele>
        <time>2020-10-05T08:46:17.000Z</time>
      </trkpt>
      <trkpt lat="43.97496" lon="5.89424">
        <ele>511</ele>
        <time>2020-10-05T08:46:18.000Z</time>
      </trkpt>
      <trkpt lat="43.97496" lon="5.89424">
        <ele>511</ele>
        <time>2020-10-05T08:46:19.000Z</time>
      </trkpt>
      <trkpt lat="43.97496" lon="5.89425">
        <ele>511</ele>
        <time>2020-10-05T08:46:20.000Z</time>
      </trkpt>
      <trkpt lat="43.97496" lon="5.89425">
        <ele>511</ele>
        <time>2020-10-05T08:46:21.000Z</time>
      </trkpt>
      <trkpt lat="43.97496" lon="5.89426">
        <ele>511</ele>
        <time>2020-10-05T08:46:22.000Z</time>
      </trkpt>
      <trkpt lat="43.97496" lon="5.89426">
        <ele>511</ele>
        <time>2020-10-05T08:46:23.000Z</time>
      </trkpt>
      <trkpt lat="43.97497" lon="5.89426">
        <ele>511</ele>
        <time>2020-10-05T08:46:24.000Z</time>
      </trkpt>
      <trkpt lat="43.97497" lon="5.89426">
        <ele>511</ele>
        <time>2020-10-05T08:46:25.000Z</time>
      </trkpt>
      <trkpt lat="43.97497" lon="5.89426">
        <ele>511</ele>
        <time>2020-10-05T08:46:26.000Z</time>
      </trkpt>
      <trkpt lat="43.97497" lon="5.89426">
        <ele>512</ele>
        <time>2020-10-05T08:46:27.000Z</time>
      </trkpt>
      <trkpt lat="43.97497" lon="5.89426">
        <ele>512</ele>
        <time>2020-10-05T08:46:28.000Z</time>
      </trkpt>
      <trkpt lat="43.97497" lon="5.89427">
        <ele>512</ele>
        <time>2020-10-05T08:46:29.000Z</time>
      </trkpt>
      <trkpt lat="43.97497" lon="5.89427">
        <ele>512</ele>
        <time>2020-10-05T08:46:30.000Z</time>
      </trkpt>
      <trkpt lat="43.97497" lon="5.89427">
        <ele>512</ele>
        <time>2020-10-05T08:46:31.000Z</time>
      </trkpt>
      <trkpt lat="43.97497" lon="5.89427">
        <ele>512</ele>
        <time>2020-10-05T08:46:32.000Z</time>
      </trkpt>
      <trkpt lat="43.97497" lon="5.89427">
        <ele>512</ele>
        <time>2020-10-05T08:46:33.000Z</time>
      </trkpt>
      <trkpt lat="43.97497" lon="5.89427">
        <ele>512</ele>
        <time>2020-10-05T08:46:34.000Z</time>
      </trkpt>
      <trkpt lat="43.97497" lon="5.89427">
        <ele>512</ele>
        <time>2020-10-05T08:46:35.000Z</time>
      </trkpt>
      <trkpt lat="43.97497" lon="5.89427">
        <ele>512</ele>
        <time>2020-10-05T08:46:36.000Z</time>
      </trkpt>
      <trkpt lat="43.97497" lon="5.89427">
        <ele>512</ele>
        <time>2020-10-05T08:46:37.000Z</time>
      </trkpt>
      <trkpt lat="43.97497" lon="5.89428">
        <ele>512</ele>
        <time>2020-10-05T08:46:38.000Z</time>
      </trkpt>
      <trkpt lat="43.97497" lon="5.89428">
        <ele>512</ele>
        <time>2020-10-05T08:46:39.000Z</time>
      </trkpt>
      <trkpt lat="43.97497" lon="5.89427">
        <ele>512</ele>
        <time>2020-10-05T08:46:40.000Z</time>
      </trkpt>
      <trkpt lat="43.97497" lon="5.89428">
        <ele>512</ele>
        <time>2020-10-05T08:46:41.000Z</time>
      </trkpt>
      <trkpt lat="43.97497" lon="5.89428">
        <ele>512</ele>
        <time>2020-10-05T08:46:42.000Z</time>
      </trkpt>
      <trkpt lat="43.97498" lon="5.89428">
        <ele>512</ele>
        <time>2020-10-05T08:46:43.000Z</time>
      </trkpt>
      <trkpt lat="43.97498" lon="5.89429">
        <ele>512</ele>
        <time>2020-10-05T08:46:44.000Z</time>
      </trkpt>
      <trkpt lat="43.97499" lon="5.8943">
        <ele>512</ele>
        <time>2020-10-05T08:46:45.000Z</time>
      </trkpt>
      <trkpt lat="43.975" lon="5.8943">
        <ele>511</ele>
        <time>2020-10-05T08:46:46.000Z</time>
      </trkpt>
      <trkpt lat="43.975" lon="5.89431">
        <ele>511</ele>
        <time>2020-10-05T08:46:47.000Z</time>
      </trkpt>
      <trkpt lat="43.97501" lon="5.89432">
        <ele>511</ele>
        <time>2020-10-05T08:46:48.000Z</time>
      </trkpt>
      <trkpt lat="43.97502" lon="5.89433">
        <ele>511</ele>
        <time>2020-10-05T08:46:49.000Z</time>
      </trkpt>
      <trkpt lat="43.97502" lon="5.89434">
        <ele>511</ele>
        <time>2020-10-05T08:46:50.000Z</time>
      </trkpt>
      <trkpt lat="43.97503" lon="5.89435">
        <ele>511</ele>
        <time>2020-10-05T08:46:51.000Z</time>
      </trkpt>
      <trkpt lat="43.97504" lon="5.89436">
        <ele>511</ele>
        <time>2020-10-05T08:46:52.000Z</time>
      </trkpt>
      <trkpt lat="43.97504" lon="5.89437">
        <ele>511</ele>
        <time>2020-10-05T08:46:53.000Z</time>
      </trkpt>
      <trkpt lat="43.97505" lon="5.89438">
        <ele>511</ele>
        <time>2020-10-05T08:46:54.000Z</time>
      </trkpt>
      <trkpt lat="43.97506" lon="5.89439">
        <ele>511</ele>
        <time>2020-10-05T08:46:55.000Z</time>
      </trkpt>
      <trkpt lat="43.97507" lon="5.8944">
        <ele>510</ele>
        <time>2020-10-05T08:46:56.000Z</time>
      </trkpt>
      <trkpt lat="43.97507" lon="5.89441">
        <ele>510</ele>
        <time>2020-10-05T08:46:57.000Z</time>
      </trkpt>
      <trkpt lat="43.97508" lon="5.89442">
        <ele>510</ele>
        <time>2020-10-05T08:46:58.000Z</time>
      </trkpt>
      <trkpt lat="43.97509" lon="5.89442">
        <ele>510</ele>
        <time>2020-10-05T08:46:59.000Z</time>
      </trkpt>
      <trkpt lat="43.97509" lon="5.89443">
        <ele>510</ele>
        <time>2020-10-05T08:47:00.000Z</time>
      </trkpt>
      <trkpt lat="43.9751" lon="5.89444">
        <ele>510</ele>
        <time>2020-10-05T08:47:01.000Z</time>
      </trkpt>
      <trkpt lat="43.97511" lon="5.89445">
        <ele>510</ele>
        <time>2020-10-05T08:47:02.000Z</time>
      </trkpt>
      <trkpt lat="43.97512" lon="5.89446">
        <ele>510</ele>
        <time>2020-10-05T08:47:03.000Z</time>
      </trkpt>
      <trkpt lat="43.97513" lon="5.89447">
        <ele>510</ele>
        <time>2020-10-05T08:47:04.000Z</time>
      </trkpt>
      <trkpt lat="43.97514" lon="5.89448">
        <ele>510</ele>
        <time>2020-10-05T08:47:05.000Z</time>
      </trkpt>
      <trkpt lat="43.97515" lon="5.89449">
        <ele>510</ele>
        <time>2020-10-05T08:47:06.000Z</time>
      </trkpt>
      <trkpt lat="43.97515" lon="5.89449">
        <ele>510</ele>
        <time>2020-10-05T08:47:07.000Z</time>
      </trkpt>
      <trkpt lat="43.97516" lon="5.8945">
        <ele>510</ele>
        <time>2020-10-05T08:47:08.000Z</time>
      </trkpt>
      <trkpt lat="43.97517" lon="5.89451">
        <ele>510</ele>
        <time>2020-10-05T08:47:09.000Z</time>
      </trkpt>
      <trkpt lat="43.97518" lon="5.89452">
        <ele>510</ele>
        <time>2020-10-05T08:47:10.000Z</time>
      </trkpt>
      <trkpt lat="43.97519" lon="5.89453">
        <ele>510</ele>
        <time>2020-10-05T08:47:11.000Z</time>
      </trkpt>
      <trkpt lat="43.97519" lon="5.89454">
        <ele>510</ele>
        <time>2020-10-05T08:47:12.000Z</time>
      </trkpt>
      <trkpt lat="43.9752" lon="5.89455">
        <ele>510</ele>
        <time>2020-10-05T08:47:13.000Z</time>
      </trkpt>
      <trkpt lat="43.97521" lon="5.89456">
        <ele>510</ele>
        <time>2020-10-05T08:47:14.000Z</time>
      </trkpt>
      <trkpt lat="43.97521" lon="5.89457">
        <ele>510</ele>
        <time>2020-10-05T08:47:15.000Z</time>
      </trkpt>
      <trkpt lat="43.97522" lon="5.89458">
        <ele>510</ele>
        <time>2020-10-05T08:47:16.000Z</time>
      </trkpt>
      <trkpt lat="43.97523" lon="5.8946">
        <ele>510</ele>
        <time>2020-10-05T08:47:17.000Z</time>
      </trkpt>
      <trkpt lat="43.97524" lon="5.8946">
        <ele>510</ele>
        <time>2020-10-05T08:47:18.000Z</time>
      </trkpt>
      <trkpt lat="43.97525" lon="5.89461">
        <ele>510</ele>
        <time>2020-10-05T08:47:19.000Z</time>
      </trkpt>
      <trkpt lat="43.97526" lon="5.89462">
        <ele>510</ele>
        <time>2020-10-05T08:47:20.000Z</time>
      </trkpt>
      <trkpt lat="43.97527" lon="5.89463">
        <ele>510</ele>
        <time>2020-10-05T08:47:21.000Z</time>
      </trkpt>
      <trkpt lat="43.97528" lon="5.89464">
        <ele>510</ele>
        <time>2020-10-05T08:47:22.000Z</time>
      </trkpt>
      <trkpt lat="43.97528" lon="5.89465">
        <ele>510</ele>
        <time>2020-10-05T08:47:23.000Z</time>
      </trkpt>
      <trkpt lat="43.97529" lon="5.89466">
        <ele>509</ele>
        <time>2020-10-05T08:47:24.000Z</time>
      </trkpt>
      <trkpt lat="43.9753" lon="5.89467">
        <ele>509</ele>
        <time>2020-10-05T08:47:25.000Z</time>
      </trkpt>
      <trkpt lat="43.97531" lon="5.89468">
        <ele>509</ele>
        <time>2020-10-05T08:47:26.000Z</time>
      </trkpt>
      <trkpt lat="43.97532" lon="5.89469">
        <ele>509</ele>
        <time>2020-10-05T08:47:27.000Z</time>
      </trkpt>
      <trkpt lat="43.97533" lon="5.89469">
        <ele>509</ele>
        <time>2020-10-05T08:47:28.000Z</time>
      </trkpt>
      <trkpt lat="43.97534" lon="5.8947">
        <ele>509</ele>
        <time>2020-10-05T08:47:29.000Z</time>
      </trkpt>
      <trkpt lat="43.97535" lon="5.89471">
        <ele>510</ele>
        <time>2020-10-05T08:47:30.000Z</time>
      </trkpt>
      <trkpt lat="43.97536" lon="5.89471">
        <ele>510</ele>
        <time>2020-10-05T08:47:31.000Z</time>
      </trkpt>
      <trkpt lat="43.97537" lon="5.89472">
        <ele>510</ele>
        <time>2020-10-05T08:47:32.000Z</time>
      </trkpt>
      <trkpt lat="43.97538" lon="5.89473">
        <ele>510</ele>
        <time>2020-10-05T08:47:33.000Z</time>
      </trkpt>
      <trkpt lat="43.97539" lon="5.89474">
        <ele>510</ele>
        <time>2020-10-05T08:47:34.000Z</time>
      </trkpt>
      <trkpt lat="43.9754" lon="5.89475">
        <ele>510</ele>
        <time>2020-10-05T08:47:35.000Z</time>
      </trkpt>
      <trkpt lat="43.97541" lon="5.89476">
        <ele>510</ele>
        <time>2020-10-05T08:47:36.000Z</time>
      </trkpt>
      <trkpt lat="43.97543" lon="5.89477">
        <ele>510</ele>
        <time>2020-10-05T08:47:37.000Z</time>
      </trkpt>
      <trkpt lat="43.97543" lon="5.89477">
        <ele>510</ele>
        <time>2020-10-05T08:47:38.000Z</time>
      </trkpt>
      <trkpt lat="43.97544" lon="5.89478">
        <ele>510</ele>
        <time>2020-10-05T08:47:39.000Z</time>
      </trkpt>
      <trkpt lat="43.97545" lon="5.89479">
        <ele>510</ele>
        <time>2020-10-05T08:47:40.000Z</time>
      </trkpt>
      <trkpt lat="43.97546" lon="5.8948">
        <ele>510</ele>
        <time>2020-10-05T08:47:41.000Z</time>
      </trkpt>
      <trkpt lat="43.97547" lon="5.89481">
        <ele>510</ele>
        <time>2020-10-05T08:47:42.000Z</time>
      </trkpt>
      <trkpt lat="43.97548" lon="5.89482">
        <ele>510</ele>
        <time>2020-10-05T08:47:43.000Z</time>
      </trkpt>
      <trkpt lat="43.97549" lon="5.89483">
        <ele>510</ele>
        <time>2020-10-05T08:47:44.000Z</time>
      </trkpt>
      <trkpt lat="43.9755" lon="5.89484">
        <ele>510</ele>
        <time>2020-10-05T08:47:45.000Z</time>
      </trkpt>
      <trkpt lat="43.97551" lon="5.89484">
        <ele>510</ele>
        <time>2020-10-05T08:47:46.000Z</time>
      </trkpt>
      <trkpt lat="43.97552" lon="5.89485">
        <ele>510</ele>
        <time>2020-10-05T08:47:47.000Z</time>
      </trkpt>
      <trkpt lat="43.97553" lon="5.89486">
        <ele>510</ele>
        <time>2020-10-05T08:47:48.000Z</time>
      </trkpt>
      <trkpt lat="43.97554" lon="5.89487">
        <ele>510</ele>
        <time>2020-10-05T08:47:49.000Z</time>
      </trkpt>
      <trkpt lat="43.97555" lon="5.89488">
        <ele>510</ele>
        <time>2020-10-05T08:47:50.000Z</time>
      </trkpt>
      <trkpt lat="43.97556" lon="5.89489">
        <ele>510</ele>
        <time>2020-10-05T08:47:51.000Z</time>
      </trkpt>
      <trkpt lat="43.97557" lon="5.8949">
        <ele>510</ele>
        <time>2020-10-05T08:47:52.000Z</time>
      </trkpt>
      <trkpt lat="43.97558" lon="5.89491">
        <ele>510</ele>
        <time>2020-10-05T08:47:53.000Z</time>
      </trkpt>
      <trkpt lat="43.97559" lon="5.89492">
        <ele>510</ele>
        <time>2020-10-05T08:47:54.000Z</time>
      </trkpt>
      <trkpt lat="43.9756" lon="5.89493">
        <ele>510</ele>
        <time>2020-10-05T08:47:55.000Z</time>
      </trkpt>
      <trkpt lat="43.97561" lon="5.89493">
        <ele>510</ele>
        <time>2020-10-05T08:47:56.000Z</time>
      </trkpt>
      <trkpt lat="43.97562" lon="5.89494">
        <ele>511</ele>
        <time>2020-10-05T08:47:57.000Z</time>
      </trkpt>
      <trkpt lat="43.97563" lon="5.89495">
        <ele>511</ele>
        <time>2020-10-05T08:47:58.000Z</time>
      </trkpt>
      <trkpt lat="43.97564" lon="5.89496">
        <ele>511</ele>
        <time>2020-10-05T08:47:59.000Z</time>
      </trkpt>
      <trkpt lat="43.97565" lon="5.89497">
        <ele>511</ele>
        <time>2020-10-05T08:48:00.000Z</time>
      </trkpt>
      <trkpt lat="43.97567" lon="5.89498">
        <ele>511</ele>
        <time>2020-10-05T08:48:01.000Z</time>
      </trkpt>
      <trkpt lat="43.97568" lon="5.89499">
        <ele>511</ele>
        <time>2020-10-05T08:48:02.000Z</time>
      </trkpt>
      <trkpt lat="43.97569" lon="5.895">
        <ele>512</ele>
        <time>2020-10-05T08:48:03.000Z</time>
      </trkpt>
      <trkpt lat="43.97569" lon="5.89501">
        <ele>512</ele>
        <time>2020-10-05T08:48:04.000Z</time>
      </trkpt>
      <trkpt lat="43.9757" lon="5.89502">
        <ele>512</ele>
        <time>2020-10-05T08:48:05.000Z</time>
      </trkpt>
      <trkpt lat="43.97571" lon="5.89503">
        <ele>512</ele>
        <time>2020-10-05T08:48:06.000Z</time>
      </trkpt>
      <trkpt lat="43.97572" lon="5.89504">
        <ele>512</ele>
        <time>2020-10-05T08:48:07.000Z</time>
      </trkpt>
      <trkpt lat="43.97573" lon="5.89505">
        <ele>512</ele>
        <time>2020-10-05T08:48:08.000Z</time>
      </trkpt>
      <trkpt lat="43.97574" lon="5.89506">
        <ele>512</ele>
        <time>2020-10-05T08:48:09.000Z</time>
      </trkpt>
      <trkpt lat="43.97575" lon="5.89507">
        <ele>512</ele>
        <time>2020-10-05T08:48:10.000Z</time>
      </trkpt>
      <trkpt lat="43.97576" lon="5.89508">
        <ele>512</ele>
        <time>2020-10-05T08:48:11.000Z</time>
      </trkpt>
      <trkpt lat="43.97577" lon="5.89509">
        <ele>512</ele>
        <time>2020-10-05T08:48:12.000Z</time>
      </trkpt>
      <trkpt lat="43.97578" lon="5.8951">
        <ele>512</ele>
        <time>2020-10-05T08:48:13.000Z</time>
      </trkpt>
      <trkpt lat="43.97579" lon="5.89511">
        <ele>512</ele>
        <time>2020-10-05T08:48:14.000Z</time>
      </trkpt>
      <trkpt lat="43.9758" lon="5.89512">
        <ele>512</ele>
        <time>2020-10-05T08:48:15.000Z</time>
      </trkpt>
      <trkpt lat="43.97581" lon="5.89513">
        <ele>512</ele>
        <time>2020-10-05T08:48:16.000Z</time>
      </trkpt>
      <trkpt lat="43.97582" lon="5.89514">
        <ele>512</ele>
        <time>2020-10-05T08:48:17.000Z</time>
      </trkpt>
      <trkpt lat="43.97583" lon="5.89515">
        <ele>512</ele>
        <time>2020-10-05T08:48:18.000Z</time>
      </trkpt>
      <trkpt lat="43.97584" lon="5.89516">
        <ele>512</ele>
        <time>2020-10-05T08:48:19.000Z</time>
      </trkpt>
      <trkpt lat="43.97585" lon="5.89517">
        <ele>512</ele>
        <time>2020-10-05T08:48:20.000Z</time>
      </trkpt>
      <trkpt lat="43.97586" lon="5.89518">
        <ele>512</ele>
        <time>2020-10-05T08:48:21.000Z</time>
      </trkpt>
      <trkpt lat="43.97587" lon="5.89518">
        <ele>512</ele>
        <time>2020-10-05T08:48:22.000Z</time>
      </trkpt>
      <trkpt lat="43.97588" lon="5.89519">
        <ele>512</ele>
        <time>2020-10-05T08:48:23.000Z</time>
      </trkpt>
      <trkpt lat="43.97589" lon="5.8952">
        <ele>512</ele>
        <time>2020-10-05T08:48:24.000Z</time>
      </trkpt>
      <trkpt lat="43.9759" lon="5.89521">
        <ele>513</ele>
        <time>2020-10-05T08:48:25.000Z</time>
      </trkpt>
      <trkpt lat="43.97591" lon="5.89521">
        <ele>513</ele>
        <time>2020-10-05T08:48:26.000Z</time>
      </trkpt>
      <trkpt lat="43.97592" lon="5.89522">
        <ele>513</ele>
        <time>2020-10-05T08:48:27.000Z</time>
      </trkpt>
      <trkpt lat="43.97593" lon="5.89522">
        <ele>513</ele>
        <time>2020-10-05T08:48:28.000Z</time>
      </trkpt>
      <trkpt lat="43.97594" lon="5.89523">
        <ele>513</ele>
        <time>2020-10-05T08:48:29.000Z</time>
      </trkpt>
      <trkpt lat="43.97595" lon="5.89524">
        <ele>513</ele>
        <time>2020-10-05T08:48:30.000Z</time>
      </trkpt>
      <trkpt lat="43.97596" lon="5.89525">
        <ele>513</ele>
        <time>2020-10-05T08:48:31.000Z</time>
      </trkpt>
      <trkpt lat="43.97597" lon="5.89526">
        <ele>513</ele>
        <time>2020-10-05T08:48:32.000Z</time>
      </trkpt>
      <trkpt lat="43.97598" lon="5.89526">
        <ele>513</ele>
        <time>2020-10-05T08:48:33.000Z</time>
      </trkpt>
      <trkpt lat="43.97599" lon="5.89527">
        <ele>513</ele>
        <time>2020-10-05T08:48:34.000Z</time>
      </trkpt>
      <trkpt lat="43.976" lon="5.89528">
        <ele>513</ele>
        <time>2020-10-05T08:48:35.000Z</time>
      </trkpt>
      <trkpt lat="43.97601" lon="5.89529">
        <ele>513</ele>
        <time>2020-10-05T08:48:36.000Z</time>
      </trkpt>
      <trkpt lat="43.97602" lon="5.89529">
        <ele>513</ele>
        <time>2020-10-05T08:48:37.000Z</time>
      </trkpt>
      <trkpt lat="43.97603" lon="5.8953">
        <ele>513</ele>
        <time>2020-10-05T08:48:38.000Z</time>
      </trkpt>
      <trkpt lat="43.97604" lon="5.89531">
        <ele>513</ele>
        <time>2020-10-05T08:48:39.000Z</time>
      </trkpt>
      <trkpt lat="43.97605" lon="5.89532">
        <ele>513</ele>
        <time>2020-10-05T08:48:40.000Z</time>
      </trkpt>
      <trkpt lat="43.97606" lon="5.89532">
        <ele>513</ele>
        <time>2020-10-05T08:48:41.000Z</time>
      </trkpt>
      <trkpt lat="43.97607" lon="5.89533">
        <ele>513</ele>
        <time>2020-10-05T08:48:42.000Z</time>
      </trkpt>
      <trkpt lat="43.97608" lon="5.89534">
        <ele>513</ele>
        <time>2020-10-05T08:48:43.000Z</time>
      </trkpt>
      <trkpt lat="43.97609" lon="5.89534">
        <ele>513</ele>
        <time>2020-10-05T08:48:44.000Z</time>
      </trkpt>
      <trkpt lat="43.9761" lon="5.89535">
        <ele>513</ele>
        <time>2020-10-05T08:48:45.000Z</time>
      </trkpt>
      <trkpt lat="43.97611" lon="5.89536">
        <ele>513</ele>
        <time>2020-10-05T08:48:46.000Z</time>
      </trkpt>
      <trkpt lat="43.97612" lon="5.89537">
        <ele>513</ele>
        <time>2020-10-05T08:48:47.000Z</time>
      </trkpt>
      <trkpt lat="43.97613" lon="5.89537">
        <ele>513</ele>
        <time>2020-10-05T08:48:48.000Z</time>
      </trkpt>
      <trkpt lat="43.97614" lon="5.89538">
        <ele>513</ele>
        <time>2020-10-05T08:48:49.000Z</time>
      </trkpt>
      <trkpt lat="43.97615" lon="5.89539">
        <ele>513</ele>
        <time>2020-10-05T08:48:50.000Z</time>
      </trkpt>
      <trkpt lat="43.97616" lon="5.8954">
        <ele>513</ele>
        <time>2020-10-05T08:48:51.000Z</time>
      </trkpt>
      <trkpt lat="43.97617" lon="5.8954">
        <ele>513</ele>
        <time>2020-10-05T08:48:52.000Z</time>
      </trkpt>
      <trkpt lat="43.97618" lon="5.89541">
        <ele>513</ele>
        <time>2020-10-05T08:48:53.000Z</time>
      </trkpt>
      <trkpt lat="43.97619" lon="5.89542">
        <ele>514</ele>
        <time>2020-10-05T08:48:54.000Z</time>
      </trkpt>
      <trkpt lat="43.97619" lon="5.89542">
        <ele>514</ele>
        <time>2020-10-05T08:48:55.000Z</time>
      </trkpt>
      <trkpt lat="43.9762" lon="5.89543">
        <ele>514</ele>
        <time>2020-10-05T08:48:56.000Z</time>
      </trkpt>
      <trkpt lat="43.97621" lon="5.89543">
        <ele>514</ele>
        <time>2020-10-05T08:48:57.000Z</time>
      </trkpt>
      <trkpt lat="43.97622" lon="5.89544">
        <ele>514</ele>
        <time>2020-10-05T08:48:58.000Z</time>
      </trkpt>
      <trkpt lat="43.97623" lon="5.89545">
        <ele>514</ele>
        <time>2020-10-05T08:48:59.000Z</time>
      </trkpt>
      <trkpt lat="43.97624" lon="5.89546">
        <ele>514</ele>
        <time>2020-10-05T08:49:00.000Z</time>
      </trkpt>
      <trkpt lat="43.97625" lon="5.89546">
        <ele>514</ele>
        <time>2020-10-05T08:49:01.000Z</time>
      </trkpt>
      <trkpt lat="43.97626" lon="5.89547">
        <ele>515</ele>
        <time>2020-10-05T08:49:02.000Z</time>
      </trkpt>
      <trkpt lat="43.97627" lon="5.89547">
        <ele>515</ele>
        <time>2020-10-05T08:49:03.000Z</time>
      </trkpt>
      <trkpt lat="43.97628" lon="5.89548">
        <ele>515</ele>
        <time>2020-10-05T08:49:04.000Z</time>
      </trkpt>
      <trkpt lat="43.97629" lon="5.89549">
        <ele>515</ele>
        <time>2020-10-05T08:49:05.000Z</time>
      </trkpt>
      <trkpt lat="43.9763" lon="5.8955">
        <ele>515</ele>
        <time>2020-10-05T08:49:06.000Z</time>
      </trkpt>
      <trkpt lat="43.97631" lon="5.8955">
        <ele>516</ele>
        <time>2020-10-05T08:49:07.000Z</time>
      </trkpt>
      <trkpt lat="43.97632" lon="5.89551">
        <ele>516</ele>
        <time>2020-10-05T08:49:08.000Z</time>
      </trkpt>
      <trkpt lat="43.97633" lon="5.89552">
        <ele>516</ele>
        <time>2020-10-05T08:49:09.000Z</time>
      </trkpt>
      <trkpt lat="43.97634" lon="5.89552">
        <ele>516</ele>
        <time>2020-10-05T08:49:10.000Z</time>
      </trkpt>
      <trkpt lat="43.97635" lon="5.89553">
        <ele>516</ele>
        <time>2020-10-05T08:49:11.000Z</time>
      </trkpt>
      <trkpt lat="43.97636" lon="5.89554">
        <ele>517</ele>
        <time>2020-10-05T08:49:12.000Z</time>
      </trkpt>
      <trkpt lat="43.97637" lon="5.89554">
        <ele>517</ele>
        <time>2020-10-05T08:49:13.000Z</time>
      </trkpt>
      <trkpt lat="43.97638" lon="5.89555">
        <ele>517</ele>
        <time>2020-10-05T08:49:14.000Z</time>
      </trkpt>
      <trkpt lat="43.97639" lon="5.89555">
        <ele>517</ele>
        <time>2020-10-05T08:49:15.000Z</time>
      </trkpt>
      <trkpt lat="43.9764" lon="5.89555">
        <ele>518</ele>
        <time>2020-10-05T08:49:16.000Z</time>
      </trkpt>
      <trkpt lat="43.97641" lon="5.89556">
        <ele>518</ele>
        <time>2020-10-05T08:49:17.000Z</time>
      </trkpt>
      <trkpt lat="43.97642" lon="5.89556">
        <ele>518</ele>
        <time>2020-10-05T08:49:18.000Z</time>
      </trkpt>
      <trkpt lat="43.97643" lon="5.89556">
        <ele>518</ele>
        <time>2020-10-05T08:49:19.000Z</time>
      </trkpt>
      <trkpt lat="43.97644" lon="5.89557">
        <ele>518</ele>
        <time>2020-10-05T08:49:20.000Z</time>
      </trkpt>
      <trkpt lat="43.97645" lon="5.89557">
        <ele>518</ele>
        <time>2020-10-05T08:49:21.000Z</time>
      </trkpt>
      <trkpt lat="43.97647" lon="5.89558">
        <ele>518</ele>
        <time>2020-10-05T08:49:22.000Z</time>
      </trkpt>
      <trkpt lat="43.97648" lon="5.89558">
        <ele>518</ele>
        <time>2020-10-05T08:49:23.000Z</time>
      </trkpt>
      <trkpt lat="43.97649" lon="5.89559">
        <ele>519</ele>
        <time>2020-10-05T08:49:24.000Z</time>
      </trkpt>
      <trkpt lat="43.9765" lon="5.89559">
        <ele>519</ele>
        <time>2020-10-05T08:49:25.000Z</time>
      </trkpt>
      <trkpt lat="43.97651" lon="5.8956">
        <ele>519</ele>
        <time>2020-10-05T08:49:26.000Z</time>
      </trkpt>
      <trkpt lat="43.97653" lon="5.8956">
        <ele>519</ele>
        <time>2020-10-05T08:49:27.000Z</time>
      </trkpt>
      <trkpt lat="43.97654" lon="5.89561">
        <ele>519</ele>
        <time>2020-10-05T08:49:28.000Z</time>
      </trkpt>
      <trkpt lat="43.97655" lon="5.89561">
        <ele>519</ele>
        <time>2020-10-05T08:49:29.000Z</time>
      </trkpt>
      <trkpt lat="43.97656" lon="5.89562">
        <ele>520</ele>
        <time>2020-10-05T08:49:30.000Z</time>
      </trkpt>
      <trkpt lat="43.97657" lon="5.89562">
        <ele>520</ele>
        <time>2020-10-05T08:49:31.000Z</time>
      </trkpt>
      <trkpt lat="43.97658" lon="5.89563">
        <ele>520</ele>
        <time>2020-10-05T08:49:32.000Z</time>
      </trkpt>
      <trkpt lat="43.97659" lon="5.89563">
        <ele>520</ele>
        <time>2020-10-05T08:49:33.000Z</time>
      </trkpt>
      <trkpt lat="43.9766" lon="5.89564">
        <ele>520</ele>
        <time>2020-10-05T08:49:34.000Z</time>
      </trkpt>
      <trkpt lat="43.9766" lon="5.89564">
        <ele>520</ele>
        <time>2020-10-05T08:49:35.000Z</time>
      </trkpt>
      <trkpt lat="43.97662" lon="5.89564">
        <ele>520</ele>
        <time>2020-10-05T08:49:36.000Z</time>
      </trkpt>
      <trkpt lat="43.97663" lon="5.89565">
        <ele>520</ele>
        <time>2020-10-05T08:49:37.000Z</time>
      </trkpt>
      <trkpt lat="43.97663" lon="5.89565">
        <ele>520</ele>
        <time>2020-10-05T08:49:38.000Z</time>
      </trkpt>
      <trkpt lat="43.97664" lon="5.89565">
        <ele>520</ele>
        <time>2020-10-05T08:49:39.000Z</time>
      </trkpt>
      <trkpt lat="43.97665" lon="5.89565">
        <ele>521</ele>
        <time>2020-10-05T08:49:40.000Z</time>
      </trkpt>
      <trkpt lat="43.97666" lon="5.89565">
        <ele>521</ele>
        <time>2020-10-05T08:49:41.000Z</time>
      </trkpt>
      <trkpt lat="43.97667" lon="5.89565">
        <ele>521</ele>
        <time>2020-10-05T08:49:42.000Z</time>
      </trkpt>
      <trkpt lat="43.97668" lon="5.89565">
        <ele>521</ele>
        <time>2020-10-05T08:49:43.000Z</time>
      </trkpt>
      <trkpt lat="43.97669" lon="5.89566">
        <ele>521</ele>
        <time>2020-10-05T08:49:44.000Z</time>
      </trkpt>
      <trkpt lat="43.9767" lon="5.89565">
        <ele>521</ele>
        <time>2020-10-05T08:49:45.000Z</time>
      </trkpt>
      <trkpt lat="43.97672" lon="5.89566">
        <ele>521</ele>
        <time>2020-10-05T08:49:46.000Z</time>
      </trkpt>
      <trkpt lat="43.97673" lon="5.89566">
        <ele>522</ele>
        <time>2020-10-05T08:49:47.000Z</time>
      </trkpt>
      <trkpt lat="43.97674" lon="5.89566">
        <ele>522</ele>
        <time>2020-10-05T08:49:48.000Z</time>
      </trkpt>
      <trkpt lat="43.97675" lon="5.89567">
        <ele>522</ele>
        <time>2020-10-05T08:49:49.000Z</time>
      </trkpt>
      <trkpt lat="43.97676" lon="5.89567">
        <ele>522</ele>
        <time>2020-10-05T08:49:50.000Z</time>
      </trkpt>
      <trkpt lat="43.97677" lon="5.89567">
        <ele>522</ele>
        <time>2020-10-05T08:49:51.000Z</time>
      </trkpt>
      <trkpt lat="43.97679" lon="5.89568">
        <ele>522</ele>
        <time>2020-10-05T08:49:52.000Z</time>
      </trkpt>
      <trkpt lat="43.9768" lon="5.89569">
        <ele>522</ele>
        <time>2020-10-05T08:49:53.000Z</time>
      </trkpt>
      <trkpt lat="43.97681" lon="5.8957">
        <ele>522</ele>
        <time>2020-10-05T08:49:54.000Z</time>
      </trkpt>
      <trkpt lat="43.97682" lon="5.8957">
        <ele>522</ele>
        <time>2020-10-05T08:49:55.000Z</time>
      </trkpt>
      <trkpt lat="43.97683" lon="5.89571">
        <ele>523</ele>
        <time>2020-10-05T08:49:56.000Z</time>
      </trkpt>
      <trkpt lat="43.97684" lon="5.89571">
        <ele>523</ele>
        <time>2020-10-05T08:49:57.000Z</time>
      </trkpt>
      <trkpt lat="43.97685" lon="5.89572">
        <ele>523</ele>
        <time>2020-10-05T08:49:58.000Z</time>
      </trkpt>
      <trkpt lat="43.97686" lon="5.89573">
        <ele>523</ele>
        <time>2020-10-05T08:49:59.000Z</time>
      </trkpt>
      <trkpt lat="43.97687" lon="5.89574">
        <ele>523</ele>
        <time>2020-10-05T08:50:00.000Z</time>
      </trkpt>
      <trkpt lat="43.97688" lon="5.89574">
        <ele>523</ele>
        <time>2020-10-05T08:50:01.000Z</time>
      </trkpt>
      <trkpt lat="43.97689" lon="5.89575">
        <ele>523</ele>
        <time>2020-10-05T08:50:02.000Z</time>
      </trkpt>
      <trkpt lat="43.9769" lon="5.89575">
        <ele>523</ele>
        <time>2020-10-05T08:50:03.000Z</time>
      </trkpt>
      <trkpt lat="43.97691" lon="5.89576">
        <ele>523</ele>
        <time>2020-10-05T08:50:04.000Z</time>
      </trkpt>
      <trkpt lat="43.97693" lon="5.89577">
        <ele>523</ele>
        <time>2020-10-05T08:50:05.000Z</time>
      </trkpt>
      <trkpt lat="43.97694" lon="5.89577">
        <ele>523</ele>
        <time>2020-10-05T08:50:06.000Z</time>
      </trkpt>
      <trkpt lat="43.97695" lon="5.89578">
        <ele>523</ele>
        <time>2020-10-05T08:50:07.000Z</time>
      </trkpt>
      <trkpt lat="43.97696" lon="5.89578">
        <ele>523</ele>
        <time>2020-10-05T08:50:08.000Z</time>
      </trkpt>
      <trkpt lat="43.97697" lon="5.89579">
        <ele>523</ele>
        <time>2020-10-05T08:50:09.000Z</time>
      </trkpt>
      <trkpt lat="43.97698" lon="5.89579">
        <ele>523</ele>
        <time>2020-10-05T08:50:10.000Z</time>
      </trkpt>
      <trkpt lat="43.97699" lon="5.89579">
        <ele>523</ele>
        <time>2020-10-05T08:50:11.000Z</time>
      </trkpt>
      <trkpt lat="43.977" lon="5.89579">
        <ele>523</ele>
        <time>2020-10-05T08:50:12.000Z</time>
      </trkpt>
      <trkpt lat="43.97702" lon="5.8958">
        <ele>523</ele>
        <time>2020-10-05T08:50:13.000Z</time>
      </trkpt>
      <trkpt lat="43.97703" lon="5.8958">
        <ele>523</ele>
        <time>2020-10-05T08:50:14.000Z</time>
      </trkpt>
      <trkpt lat="43.97704" lon="5.8958">
        <ele>523</ele>
        <time>2020-10-05T08:50:15.000Z</time>
      </trkpt>
      <trkpt lat="43.97705" lon="5.8958">
        <ele>523</ele>
        <time>2020-10-05T08:50:16.000Z</time>
      </trkpt>
      <trkpt lat="43.97706" lon="5.8958">
        <ele>523</ele>
        <time>2020-10-05T08:50:17.000Z</time>
      </trkpt>
      <trkpt lat="43.97707" lon="5.8958">
        <ele>523</ele>
        <time>2020-10-05T08:50:18.000Z</time>
      </trkpt>
      <trkpt lat="43.97708" lon="5.8958">
        <ele>523</ele>
        <time>2020-10-05T08:50:19.000Z</time>
      </trkpt>
      <trkpt lat="43.97709" lon="5.8958">
        <ele>523</ele>
        <time>2020-10-05T08:50:20.000Z</time>
      </trkpt>
      <trkpt lat="43.9771" lon="5.8958">
        <ele>523</ele>
        <time>2020-10-05T08:50:21.000Z</time>
      </trkpt>
      <trkpt lat="43.97711" lon="5.8958">
        <ele>523</ele>
        <time>2020-10-05T08:50:22.000Z</time>
      </trkpt>
      <trkpt lat="43.97713" lon="5.8958">
        <ele>523</ele>
        <time>2020-10-05T08:50:23.000Z</time>
      </trkpt>
      <trkpt lat="43.97714" lon="5.89581">
        <ele>523</ele>
        <time>2020-10-05T08:50:24.000Z</time>
      </trkpt>
      <trkpt lat="43.97715" lon="5.89581">
        <ele>523</ele>
        <time>2020-10-05T08:50:25.000Z</time>
      </trkpt>
      <trkpt lat="43.97716" lon="5.89581">
        <ele>523</ele>
        <time>2020-10-05T08:50:26.000Z</time>
      </trkpt>
      <trkpt lat="43.97717" lon="5.89581">
        <ele>523</ele>
        <time>2020-10-05T08:50:27.000Z</time>
      </trkpt>
      <trkpt lat="43.97718" lon="5.89581">
        <ele>523</ele>
        <time>2020-10-05T08:50:28.000Z</time>
      </trkpt>
      <trkpt lat="43.97719" lon="5.89581">
        <ele>523</ele>
        <time>2020-10-05T08:50:29.000Z</time>
      </trkpt>
      <trkpt lat="43.9772" lon="5.89581">
        <ele>523</ele>
        <time>2020-10-05T08:50:30.000Z</time>
      </trkpt>
      <trkpt lat="43.97721" lon="5.89581">
        <ele>523</ele>
        <time>2020-10-05T08:50:31.000Z</time>
      </trkpt>
      <trkpt lat="43.97722" lon="5.89581">
        <ele>523</ele>
        <time>2020-10-05T08:50:32.000Z</time>
      </trkpt>
      <trkpt lat="43.97723" lon="5.89581">
        <ele>523</ele>
        <time>2020-10-05T08:50:33.000Z</time>
      </trkpt>
      <trkpt lat="43.97724" lon="5.89581">
        <ele>523</ele>
        <time>2020-10-05T08:50:34.000Z</time>
      </trkpt>
      <trkpt lat="43.97726" lon="5.89581">
        <ele>523</ele>
        <time>2020-10-05T08:50:35.000Z</time>
      </trkpt>
      <trkpt lat="43.97727" lon="5.89581">
        <ele>523</ele>
        <time>2020-10-05T08:50:36.000Z</time>
      </trkpt>
      <trkpt lat="43.97728" lon="5.89581">
        <ele>523</ele>
        <time>2020-10-05T08:50:37.000Z</time>
      </trkpt>
      <trkpt lat="43.97729" lon="5.89581">
        <ele>523</ele>
        <time>2020-10-05T08:50:38.000Z</time>
      </trkpt>
      <trkpt lat="43.9773" lon="5.8958">
        <ele>523</ele>
        <time>2020-10-05T08:50:39.000Z</time>
      </trkpt>
      <trkpt lat="43.97732" lon="5.8958">
        <ele>523</ele>
        <time>2020-10-05T08:50:40.000Z</time>
      </trkpt>
      <trkpt lat="43.97733" lon="5.8958">
        <ele>523</ele>
        <time>2020-10-05T08:50:41.000Z</time>
      </trkpt>
      <trkpt lat="43.97734" lon="5.8958">
        <ele>523</ele>
        <time>2020-10-05T08:50:42.000Z</time>
      </trkpt>
      <trkpt lat="43.97735" lon="5.8958">
        <ele>523</ele>
        <time>2020-10-05T08:50:43.000Z</time>
      </trkpt>
      <trkpt lat="43.97735" lon="5.8958">
        <ele>523</ele>
        <time>2020-10-05T08:50:44.000Z</time>
      </trkpt>
      <trkpt lat="43.97736" lon="5.8958">
        <ele>523</ele>
        <time>2020-10-05T08:50:45.000Z</time>
      </trkpt>
      <trkpt lat="43.97736" lon="5.8958">
        <ele>523</ele>
        <time>2020-10-05T08:50:46.000Z</time>
      </trkpt>
      <trkpt lat="43.97737" lon="5.89581">
        <ele>523</ele>
        <time>2020-10-05T08:50:47.000Z</time>
      </trkpt>
      <trkpt lat="43.97738" lon="5.89581">
        <ele>523</ele>
        <time>2020-10-05T08:50:48.000Z</time>
      </trkpt>
      <trkpt lat="43.97739" lon="5.89581">
        <ele>523</ele>
        <time>2020-10-05T08:50:49.000Z</time>
      </trkpt>
      <trkpt lat="43.9774" lon="5.89581">
        <ele>523</ele>
        <time>2020-10-05T08:50:50.000Z</time>
      </trkpt>
      <trkpt lat="43.97742" lon="5.89582">
        <ele>523</ele>
        <time>2020-10-05T08:50:51.000Z</time>
      </trkpt>
      <trkpt lat="43.97743" lon="5.89582">
        <ele>523</ele>
        <time>2020-10-05T08:50:52.000Z</time>
      </trkpt>
      <trkpt lat="43.97744" lon="5.89583">
        <ele>523</ele>
        <time>2020-10-05T08:50:53.000Z</time>
      </trkpt>
      <trkpt lat="43.97746" lon="5.89583">
        <ele>523</ele>
        <time>2020-10-05T08:50:54.000Z</time>
      </trkpt>
      <trkpt lat="43.97747" lon="5.89583">
        <ele>523</ele>
        <time>2020-10-05T08:50:55.000Z</time>
      </trkpt>
      <trkpt lat="43.97749" lon="5.89584">
        <ele>523</ele>
        <time>2020-10-05T08:50:56.000Z</time>
      </trkpt>
      <trkpt lat="43.97751" lon="5.89584">
        <ele>523</ele>
        <time>2020-10-05T08:50:57.000Z</time>
      </trkpt>
      <trkpt lat="43.97753" lon="5.89585">
        <ele>523</ele>
        <time>2020-10-05T08:50:58.000Z</time>
      </trkpt>
      <trkpt lat="43.97754" lon="5.89586">
        <ele>523</ele>
        <time>2020-10-05T08:50:59.000Z</time>
      </trkpt>
      <trkpt lat="43.97755" lon="5.89586">
        <ele>523</ele>
        <time>2020-10-05T08:51:00.000Z</time>
      </trkpt>
      <trkpt lat="43.97757" lon="5.89587">
        <ele>523</ele>
        <time>2020-10-05T08:51:01.000Z</time>
      </trkpt>
      <trkpt lat="43.97758" lon="5.89588">
        <ele>522</ele>
        <time>2020-10-05T08:51:02.000Z</time>
      </trkpt>
      <trkpt lat="43.97759" lon="5.89589">
        <ele>522</ele>
        <time>2020-10-05T08:51:03.000Z</time>
      </trkpt>
      <trkpt lat="43.9776" lon="5.8959">
        <ele>522</ele>
        <time>2020-10-05T08:51:04.000Z</time>
      </trkpt>
      <trkpt lat="43.97761" lon="5.89592">
        <ele>522</ele>
        <time>2020-10-05T08:51:05.000Z</time>
      </trkpt>
      <trkpt lat="43.97762" lon="5.89593">
        <ele>522</ele>
        <time>2020-10-05T08:51:06.000Z</time>
      </trkpt>
      <trkpt lat="43.97762" lon="5.89595">
        <ele>522</ele>
        <time>2020-10-05T08:51:07.000Z</time>
      </trkpt>
      <trkpt lat="43.97763" lon="5.89596">
        <ele>522</ele>
        <time>2020-10-05T08:51:08.000Z</time>
      </trkpt>
      <trkpt lat="43.97764" lon="5.89598">
        <ele>522</ele>
        <time>2020-10-05T08:51:09.000Z</time>
      </trkpt>
      <trkpt lat="43.97764" lon="5.896">
        <ele>522</ele>
        <time>2020-10-05T08:51:10.000Z</time>
      </trkpt>
      <trkpt lat="43.97765" lon="5.89601">
        <ele>522</ele>
        <time>2020-10-05T08:51:11.000Z</time>
      </trkpt>
      <trkpt lat="43.97765" lon="5.89603">
        <ele>522</ele>
        <time>2020-10-05T08:51:12.000Z</time>
      </trkpt>
      <trkpt lat="43.97765" lon="5.89605">
        <ele>522</ele>
        <time>2020-10-05T08:51:13.000Z</time>
      </trkpt>
      <trkpt lat="43.97766" lon="5.89606">
        <ele>522</ele>
        <time>2020-10-05T08:51:14.000Z</time>
      </trkpt>
      <trkpt lat="43.97766" lon="5.89608">
        <ele>522</ele>
        <time>2020-10-05T08:51:15.000Z</time>
      </trkpt>
      <trkpt lat="43.97767" lon="5.8961">
        <ele>523</ele>
        <time>2020-10-05T08:51:16.000Z</time>
      </trkpt>
      <trkpt lat="43.97767" lon="5.89611">
        <ele>522</ele>
        <time>2020-10-05T08:51:17.000Z</time>
      </trkpt>
      <trkpt lat="43.97767" lon="5.89613">
        <ele>522</ele>
        <time>2020-10-05T08:51:18.000Z</time>
      </trkpt>
      <trkpt lat="43.97767" lon="5.89615">
        <ele>522</ele>
        <time>2020-10-05T08:51:19.000Z</time>
      </trkpt>
      <trkpt lat="43.97767" lon="5.89617">
        <ele>522</ele>
        <time>2020-10-05T08:51:20.000Z</time>
      </trkpt>
      <trkpt lat="43.97768" lon="5.89618">
        <ele>522</ele>
        <time>2020-10-05T08:51:21.000Z</time>
      </trkpt>
      <trkpt lat="43.97768" lon="5.8962">
        <ele>522</ele>
        <time>2020-10-05T08:51:22.000Z</time>
      </trkpt>
      <trkpt lat="43.97769" lon="5.89622">
        <ele>522</ele>
        <time>2020-10-05T08:51:23.000Z</time>
      </trkpt>
      <trkpt lat="43.97769" lon="5.89623">
        <ele>522</ele>
        <time>2020-10-05T08:51:24.000Z</time>
      </trkpt>
      <trkpt lat="43.97769" lon="5.89625">
        <ele>522</ele>
        <time>2020-10-05T08:51:25.000Z</time>
      </trkpt>
      <trkpt lat="43.9777" lon="5.89627">
        <ele>522</ele>
        <time>2020-10-05T08:51:26.000Z</time>
      </trkpt>
      <trkpt lat="43.97771" lon="5.89628">
        <ele>522</ele>
        <time>2020-10-05T08:51:27.000Z</time>
      </trkpt>
      <trkpt lat="43.97771" lon="5.8963">
        <ele>522</ele>
        <time>2020-10-05T08:51:28.000Z</time>
      </trkpt>
      <trkpt lat="43.97771" lon="5.89631">
        <ele>522</ele>
        <time>2020-10-05T08:51:29.000Z</time>
      </trkpt>
      <trkpt lat="43.97772" lon="5.89633">
        <ele>522</ele>
        <time>2020-10-05T08:51:30.000Z</time>
      </trkpt>
      <trkpt lat="43.97772" lon="5.89635">
        <ele>522</ele>
        <time>2020-10-05T08:51:31.000Z</time>
      </trkpt>
      <trkpt lat="43.97773" lon="5.89636">
        <ele>522</ele>
        <time>2020-10-05T08:51:32.000Z</time>
      </trkpt>
      <trkpt lat="43.97773" lon="5.89638">
        <ele>522</ele>
        <time>2020-10-05T08:51:33.000Z</time>
      </trkpt>
      <trkpt lat="43.97774" lon="5.89639">
        <ele>522</ele>
        <time>2020-10-05T08:51:34.000Z</time>
      </trkpt>
      <trkpt lat="43.97774" lon="5.89641">
        <ele>522</ele>
        <time>2020-10-05T08:51:35.000Z</time>
      </trkpt>
      <trkpt lat="43.97775" lon="5.89642">
        <ele>522</ele>
        <time>2020-10-05T08:51:36.000Z</time>
      </trkpt>
      <trkpt lat="43.97775" lon="5.89644">
        <ele>522</ele>
        <time>2020-10-05T08:51:37.000Z</time>
      </trkpt>
      <trkpt lat="43.97776" lon="5.89645">
        <ele>522</ele>
        <time>2020-10-05T08:51:38.000Z</time>
      </trkpt>
      <trkpt lat="43.97777" lon="5.89647">
        <ele>522</ele>
        <time>2020-10-05T08:51:39.000Z</time>
      </trkpt>
      <trkpt lat="43.97777" lon="5.89648">
        <ele>522</ele>
        <time>2020-10-05T08:51:40.000Z</time>
      </trkpt>
      <trkpt lat="43.97778" lon="5.8965">
        <ele>522</ele>
        <time>2020-10-05T08:51:41.000Z</time>
      </trkpt>
      <trkpt lat="43.97778" lon="5.89651">
        <ele>521</ele>
        <time>2020-10-05T08:51:42.000Z</time>
      </trkpt>
      <trkpt lat="43.97779" lon="5.89653">
        <ele>521</ele>
        <time>2020-10-05T08:51:43.000Z</time>
      </trkpt>
      <trkpt lat="43.9778" lon="5.89654">
        <ele>521</ele>
        <time>2020-10-05T08:51:44.000Z</time>
      </trkpt>
      <trkpt lat="43.9778" lon="5.89655">
        <ele>521</ele>
        <time>2020-10-05T08:51:45.000Z</time>
      </trkpt>
      <trkpt lat="43.97781" lon="5.89657">
        <ele>521</ele>
        <time>2020-10-05T08:51:46.000Z</time>
      </trkpt>
      <trkpt lat="43.97782" lon="5.89658">
        <ele>521</ele>
        <time>2020-10-05T08:51:47.000Z</time>
      </trkpt>
      <trkpt lat="43.97783" lon="5.8966">
        <ele>521</ele>
        <time>2020-10-05T08:51:48.000Z</time>
      </trkpt>
      <trkpt lat="43.97783" lon="5.89661">
        <ele>521</ele>
        <time>2020-10-05T08:51:49.000Z</time>
      </trkpt>
      <trkpt lat="43.97784" lon="5.89663">
        <ele>521</ele>
        <time>2020-10-05T08:51:50.000Z</time>
      </trkpt>
      <trkpt lat="43.97785" lon="5.89664">
        <ele>521</ele>
        <time>2020-10-05T08:51:51.000Z</time>
      </trkpt>
      <trkpt lat="43.97785" lon="5.89666">
        <ele>521</ele>
        <time>2020-10-05T08:51:52.000Z</time>
      </trkpt>
      <trkpt lat="43.97786" lon="5.89667">
        <ele>521</ele>
        <time>2020-10-05T08:51:53.000Z</time>
      </trkpt>
      <trkpt lat="43.97786" lon="5.89669">
        <ele>521</ele>
        <time>2020-10-05T08:51:54.000Z</time>
      </trkpt>
      <trkpt lat="43.97787" lon="5.8967">
        <ele>521</ele>
        <time>2020-10-05T08:51:55.000Z</time>
      </trkpt>
      <trkpt lat="43.97788" lon="5.89672">
        <ele>520</ele>
        <time>2020-10-05T08:51:56.000Z</time>
      </trkpt>
      <trkpt lat="43.97788" lon="5.89673">
        <ele>520</ele>
        <time>2020-10-05T08:51:57.000Z</time>
      </trkpt>
      <trkpt lat="43.97789" lon="5.89675">
        <ele>520</ele>
        <time>2020-10-05T08:51:58.000Z</time>
      </trkpt>
      <trkpt lat="43.9779" lon="5.89676">
        <ele>520</ele>
        <time>2020-10-05T08:51:59.000Z</time>
      </trkpt>
      <trkpt lat="43.9779" lon="5.89678">
        <ele>520</ele>
        <time>2020-10-05T08:52:00.000Z</time>
      </trkpt>
      <trkpt lat="43.97791" lon="5.89679">
        <ele>520</ele>
        <time>2020-10-05T08:52:01.000Z</time>
      </trkpt>
      <trkpt lat="43.97791" lon="5.89681">
        <ele>520</ele>
        <time>2020-10-05T08:52:02.000Z</time>
      </trkpt>
      <trkpt lat="43.97792" lon="5.89682">
        <ele>520</ele>
        <time>2020-10-05T08:52:03.000Z</time>
      </trkpt>
      <trkpt lat="43.97792" lon="5.89684">
        <ele>520</ele>
        <time>2020-10-05T08:52:04.000Z</time>
      </trkpt>
      <trkpt lat="43.97793" lon="5.89685">
        <ele>519</ele>
        <time>2020-10-05T08:52:05.000Z</time>
      </trkpt>
      <trkpt lat="43.97793" lon="5.89687">
        <ele>519</ele>
        <time>2020-10-05T08:52:06.000Z</time>
      </trkpt>
      <trkpt lat="43.97794" lon="5.89688">
        <ele>519</ele>
        <time>2020-10-05T08:52:07.000Z</time>
      </trkpt>
      <trkpt lat="43.97795" lon="5.8969">
        <ele>519</ele>
        <time>2020-10-05T08:52:08.000Z</time>
      </trkpt>
      <trkpt lat="43.97795" lon="5.89691">
        <ele>519</ele>
        <time>2020-10-05T08:52:09.000Z</time>
      </trkpt>
      <trkpt lat="43.97796" lon="5.89693">
        <ele>519</ele>
        <time>2020-10-05T08:52:10.000Z</time>
      </trkpt>
      <trkpt lat="43.97796" lon="5.89694">
        <ele>519</ele>
        <time>2020-10-05T08:52:11.000Z</time>
      </trkpt>
      <trkpt lat="43.97797" lon="5.89696">
        <ele>519</ele>
        <time>2020-10-05T08:52:12.000Z</time>
      </trkpt>
      <trkpt lat="43.97798" lon="5.89697">
        <ele>519</ele>
        <time>2020-10-05T08:52:13.000Z</time>
      </trkpt>
      <trkpt lat="43.97798" lon="5.89699">
        <ele>519</ele>
        <time>2020-10-05T08:52:14.000Z</time>
      </trkpt>
      <trkpt lat="43.97799" lon="5.897">
        <ele>519</ele>
        <time>2020-10-05T08:52:15.000Z</time>
      </trkpt>
      <trkpt lat="43.978" lon="5.89701">
        <ele>519</ele>
        <time>2020-10-05T08:52:16.000Z</time>
      </trkpt>
      <trkpt lat="43.97801" lon="5.89703">
        <ele>519</ele>
        <time>2020-10-05T08:52:17.000Z</time>
      </trkpt>
      <trkpt lat="43.97802" lon="5.89704">
        <ele>519</ele>
        <time>2020-10-05T08:52:18.000Z</time>
      </trkpt>
      <trkpt lat="43.97803" lon="5.89705">
        <ele>519</ele>
        <time>2020-10-05T08:52:19.000Z</time>
      </trkpt>
      <trkpt lat="43.97804" lon="5.89706">
        <ele>519</ele>
        <time>2020-10-05T08:52:20.000Z</time>
      </trkpt>
      <trkpt lat="43.97805" lon="5.89707">
        <ele>519</ele>
        <time>2020-10-05T08:52:21.000Z</time>
      </trkpt>
      <trkpt lat="43.97806" lon="5.89708">
        <ele>518</ele>
        <time>2020-10-05T08:52:22.000Z</time>
      </trkpt>
      <trkpt lat="43.97807" lon="5.89709">
        <ele>518</ele>
        <time>2020-10-05T08:52:23.000Z</time>
      </trkpt>
      <trkpt lat="43.97808" lon="5.89709">
        <ele>518</ele>
        <time>2020-10-05T08:52:24.000Z</time>
      </trkpt>
      <trkpt lat="43.97809" lon="5.8971">
        <ele>518</ele>
        <time>2020-10-05T08:52:25.000Z</time>
      </trkpt>
      <trkpt lat="43.97811" lon="5.8971">
        <ele>518</ele>
        <time>2020-10-05T08:52:26.000Z</time>
      </trkpt>
      <trkpt lat="43.97812" lon="5.89711">
        <ele>518</ele>
        <time>2020-10-05T08:52:27.000Z</time>
      </trkpt>
      <trkpt lat="43.97813" lon="5.89711">
        <ele>518</ele>
        <time>2020-10-05T08:52:28.000Z</time>
      </trkpt>
      <trkpt lat="43.97814" lon="5.89711">
        <ele>518</ele>
        <time>2020-10-05T08:52:29.000Z</time>
      </trkpt>
      <trkpt lat="43.97815" lon="5.89711">
        <ele>518</ele>
        <time>2020-10-05T08:52:30.000Z</time>
      </trkpt>
      <trkpt lat="43.97816" lon="5.89712">
        <ele>518</ele>
        <time>2020-10-05T08:52:31.000Z</time>
      </trkpt>
      <trkpt lat="43.97817" lon="5.89712">
        <ele>518</ele>
        <time>2020-10-05T08:52:32.000Z</time>
      </trkpt>
      <trkpt lat="43.97818" lon="5.89712">
        <ele>518</ele>
        <time>2020-10-05T08:52:33.000Z</time>
      </trkpt>
      <trkpt lat="43.97819" lon="5.89712">
        <ele>518</ele>
        <time>2020-10-05T08:52:34.000Z</time>
      </trkpt>
      <trkpt lat="43.9782" lon="5.89712">
        <ele>518</ele>
        <time>2020-10-05T08:52:35.000Z</time>
      </trkpt>
      <trkpt lat="43.97821" lon="5.89712">
        <ele>518</ele>
        <time>2020-10-05T08:52:36.000Z</time>
      </trkpt>
      <trkpt lat="43.97823" lon="5.89712">
        <ele>518</ele>
        <time>2020-10-05T08:52:37.000Z</time>
      </trkpt>
      <trkpt lat="43.97824" lon="5.89712">
        <ele>518</ele>
        <time>2020-10-05T08:52:38.000Z</time>
      </trkpt>
      <trkpt lat="43.97825" lon="5.89712">
        <ele>518</ele>
        <time>2020-10-05T08:52:39.000Z</time>
      </trkpt>
      <trkpt lat="43.97826" lon="5.89712">
        <ele>518</ele>
        <time>2020-10-05T08:52:40.000Z</time>
      </trkpt>
      <trkpt lat="43.97827" lon="5.89711">
        <ele>518</ele>
        <time>2020-10-05T08:52:41.000Z</time>
      </trkpt>
      <trkpt lat="43.97828" lon="5.89711">
        <ele>518</ele>
        <time>2020-10-05T08:52:42.000Z</time>
      </trkpt>
      <trkpt lat="43.97829" lon="5.89711">
        <ele>518</ele>
        <time>2020-10-05T08:52:43.000Z</time>
      </trkpt>
      <trkpt lat="43.9783" lon="5.8971">
        <ele>518</ele>
        <time>2020-10-05T08:52:44.000Z</time>
      </trkpt>
      <trkpt lat="43.97831" lon="5.89709">
        <ele>518</ele>
        <time>2020-10-05T08:52:45.000Z</time>
      </trkpt>
      <trkpt lat="43.97832" lon="5.89709">
        <ele>518</ele>
        <time>2020-10-05T08:52:46.000Z</time>
      </trkpt>
      <trkpt lat="43.97833" lon="5.89708">
        <ele>518</ele>
        <time>2020-10-05T08:52:47.000Z</time>
      </trkpt>
      <trkpt lat="43.97834" lon="5.89707">
        <ele>518</ele>
        <time>2020-10-05T08:52:48.000Z</time>
      </trkpt>
      <trkpt lat="43.97835" lon="5.89706">
        <ele>518</ele>
        <time>2020-10-05T08:52:49.000Z</time>
      </trkpt>
      <trkpt lat="43.97836" lon="5.89705">
        <ele>518</ele>
        <time>2020-10-05T08:52:50.000Z</time>
      </trkpt>
      <trkpt lat="43.97837" lon="5.89704">
        <ele>518</ele>
        <time>2020-10-05T08:52:51.000Z</time>
      </trkpt>
      <trkpt lat="43.97838" lon="5.89703">
        <ele>518</ele>
        <time>2020-10-05T08:52:52.000Z</time>
      </trkpt>
      <trkpt lat="43.97839" lon="5.89702">
        <ele>518</ele>
        <time>2020-10-05T08:52:53.000Z</time>
      </trkpt>
      <trkpt lat="43.9784" lon="5.89701">
        <ele>518</ele>
        <time>2020-10-05T08:52:54.000Z</time>
      </trkpt>
      <trkpt lat="43.97841" lon="5.897">
        <ele>518</ele>
        <time>2020-10-05T08:52:55.000Z</time>
      </trkpt>
      <trkpt lat="43.97842" lon="5.89699">
        <ele>518</ele>
        <time>2020-10-05T08:52:56.000Z</time>
      </trkpt>
      <trkpt lat="43.97843" lon="5.89699">
        <ele>518</ele>
        <time>2020-10-05T08:52:57.000Z</time>
      </trkpt>
      <trkpt lat="43.97843" lon="5.89698">
        <ele>518</ele>
        <time>2020-10-05T08:52:58.000Z</time>
      </trkpt>
      <trkpt lat="43.97844" lon="5.89698">
        <ele>518</ele>
        <time>2020-10-05T08:52:59.000Z</time>
      </trkpt>
      <trkpt lat="43.97845" lon="5.89698">
        <ele>518</ele>
        <time>2020-10-05T08:53:00.000Z</time>
      </trkpt>
      <trkpt lat="43.97847" lon="5.89698">
        <ele>517</ele>
        <time>2020-10-05T08:53:01.000Z</time>
      </trkpt>
      <trkpt lat="43.97848" lon="5.89698">
        <ele>517</ele>
        <time>2020-10-05T08:53:02.000Z</time>
      </trkpt>
      <trkpt lat="43.97849" lon="5.89699">
        <ele>517</ele>
        <time>2020-10-05T08:53:03.000Z</time>
      </trkpt>
      <trkpt lat="43.9785" lon="5.89699">
        <ele>517</ele>
        <time>2020-10-05T08:53:04.000Z</time>
      </trkpt>
      <trkpt lat="43.97851" lon="5.897">
        <ele>517</ele>
        <time>2020-10-05T08:53:05.000Z</time>
      </trkpt>
      <trkpt lat="43.97852" lon="5.89701">
        <ele>517</ele>
        <time>2020-10-05T08:53:06.000Z</time>
      </trkpt>
      <trkpt lat="43.97853" lon="5.89702">
        <ele>517</ele>
        <time>2020-10-05T08:53:07.000Z</time>
      </trkpt>
      <trkpt lat="43.97855" lon="5.89704">
        <ele>517</ele>
        <time>2020-10-05T08:53:08.000Z</time>
      </trkpt>
      <trkpt lat="43.97856" lon="5.89705">
        <ele>517</ele>
        <time>2020-10-05T08:53:09.000Z</time>
      </trkpt>
      <trkpt lat="43.97857" lon="5.89706">
        <ele>516</ele>
        <time>2020-10-05T08:53:10.000Z</time>
      </trkpt>
      <trkpt lat="43.97858" lon="5.89708">
        <ele>516</ele>
        <time>2020-10-05T08:53:11.000Z</time>
      </trkpt>
      <trkpt lat="43.97859" lon="5.89709">
        <ele>516</ele>
        <time>2020-10-05T08:53:12.000Z</time>
      </trkpt>
      <trkpt lat="43.97859" lon="5.8971">
        <ele>516</ele>
        <time>2020-10-05T08:53:13.000Z</time>
      </trkpt>
      <trkpt lat="43.9786" lon="5.89712">
        <ele>516</ele>
        <time>2020-10-05T08:53:14.000Z</time>
      </trkpt>
      <trkpt lat="43.97861" lon="5.89713">
        <ele>515</ele>
        <time>2020-10-05T08:53:15.000Z</time>
      </trkpt>
      <trkpt lat="43.97862" lon="5.89715">
        <ele>515</ele>
        <time>2020-10-05T08:53:16.000Z</time>
      </trkpt>
      <trkpt lat="43.97862" lon="5.89716">
        <ele>515</ele>
        <time>2020-10-05T08:53:17.000Z</time>
      </trkpt>
      <trkpt lat="43.97863" lon="5.89718">
        <ele>515</ele>
        <time>2020-10-05T08:53:18.000Z</time>
      </trkpt>
      <trkpt lat="43.97864" lon="5.8972">
        <ele>515</ele>
        <time>2020-10-05T08:53:19.000Z</time>
      </trkpt>
      <trkpt lat="43.97865" lon="5.89721">
        <ele>515</ele>
        <time>2020-10-05T08:53:20.000Z</time>
      </trkpt>
      <trkpt lat="43.97865" lon="5.89723">
        <ele>515</ele>
        <time>2020-10-05T08:53:21.000Z</time>
      </trkpt>
      <trkpt lat="43.97866" lon="5.89725">
        <ele>515</ele>
        <time>2020-10-05T08:53:22.000Z</time>
      </trkpt>
      <trkpt lat="43.97866" lon="5.89727">
        <ele>515</ele>
        <time>2020-10-05T08:53:23.000Z</time>
      </trkpt>
      <trkpt lat="43.97867" lon="5.89729">
        <ele>515</ele>
        <time>2020-10-05T08:53:24.000Z</time>
      </trkpt>
      <trkpt lat="43.97867" lon="5.8973">
        <ele>515</ele>
        <time>2020-10-05T08:53:25.000Z</time>
      </trkpt>
      <trkpt lat="43.97867" lon="5.89732">
        <ele>515</ele>
        <time>2020-10-05T08:53:26.000Z</time>
      </trkpt>
      <trkpt lat="43.97868" lon="5.89734">
        <ele>515</ele>
        <time>2020-10-05T08:53:27.000Z</time>
      </trkpt>
      <trkpt lat="43.97868" lon="5.89736">
        <ele>515</ele>
        <time>2020-10-05T08:53:28.000Z</time>
      </trkpt>
      <trkpt lat="43.97868" lon="5.89737">
        <ele>515</ele>
        <time>2020-10-05T08:53:29.000Z</time>
      </trkpt>
      <trkpt lat="43.97869" lon="5.89739">
        <ele>515</ele>
        <time>2020-10-05T08:53:30.000Z</time>
      </trkpt>
      <trkpt lat="43.97869" lon="5.8974">
        <ele>515</ele>
        <time>2020-10-05T08:53:31.000Z</time>
      </trkpt>
      <trkpt lat="43.97869" lon="5.89743">
        <ele>515</ele>
        <time>2020-10-05T08:53:32.000Z</time>
      </trkpt>
      <trkpt lat="43.97869" lon="5.89744">
        <ele>515</ele>
        <time>2020-10-05T08:53:33.000Z</time>
      </trkpt>
      <trkpt lat="43.97869" lon="5.89746">
        <ele>515</ele>
        <time>2020-10-05T08:53:34.000Z</time>
      </trkpt>
      <trkpt lat="43.97869" lon="5.89747">
        <ele>514</ele>
        <time>2020-10-05T08:53:35.000Z</time>
      </trkpt>
      <trkpt lat="43.97869" lon="5.89749">
        <ele>514</ele>
        <time>2020-10-05T08:53:36.000Z</time>
      </trkpt>
      <trkpt lat="43.97869" lon="5.89751">
        <ele>514</ele>
        <time>2020-10-05T08:53:37.000Z</time>
      </trkpt>
      <trkpt lat="43.97869" lon="5.89752">
        <ele>514</ele>
        <time>2020-10-05T08:53:38.000Z</time>
      </trkpt>
      <trkpt lat="43.97869" lon="5.89754">
        <ele>514</ele>
        <time>2020-10-05T08:53:39.000Z</time>
      </trkpt>
      <trkpt lat="43.97868" lon="5.89756">
        <ele>514</ele>
        <time>2020-10-05T08:53:40.000Z</time>
      </trkpt>
      <trkpt lat="43.97868" lon="5.89758">
        <ele>514</ele>
        <time>2020-10-05T08:53:41.000Z</time>
      </trkpt>
      <trkpt lat="43.97868" lon="5.89759">
        <ele>514</ele>
        <time>2020-10-05T08:53:42.000Z</time>
      </trkpt>
      <trkpt lat="43.97868" lon="5.89761">
        <ele>514</ele>
        <time>2020-10-05T08:53:43.000Z</time>
      </trkpt>
      <trkpt lat="43.97868" lon="5.89763">
        <ele>514</ele>
        <time>2020-10-05T08:53:44.000Z</time>
      </trkpt>
      <trkpt lat="43.97867" lon="5.89764">
        <ele>514</ele>
        <time>2020-10-05T08:53:45.000Z</time>
      </trkpt>
      <trkpt lat="43.97867" lon="5.89766">
        <ele>514</ele>
        <time>2020-10-05T08:53:46.000Z</time>
      </trkpt>
      <trkpt lat="43.97866" lon="5.89767">
        <ele>514</ele>
        <time>2020-10-05T08:53:47.000Z</time>
      </trkpt>
      <trkpt lat="43.97866" lon="5.89769">
        <ele>514</ele>
        <time>2020-10-05T08:53:48.000Z</time>
      </trkpt>
      <trkpt lat="43.97866" lon="5.89771">
        <ele>514</ele>
        <time>2020-10-05T08:53:49.000Z</time>
      </trkpt>
      <trkpt lat="43.97865" lon="5.89772">
        <ele>514</ele>
        <time>2020-10-05T08:53:50.000Z</time>
      </trkpt>
      <trkpt lat="43.97865" lon="5.89774">
        <ele>514</ele>
        <time>2020-10-05T08:53:51.000Z</time>
      </trkpt>
      <trkpt lat="43.97864" lon="5.89776">
        <ele>513</ele>
        <time>2020-10-05T08:53:52.000Z</time>
      </trkpt>
      <trkpt lat="43.97864" lon="5.89777">
        <ele>513</ele>
        <time>2020-10-05T08:53:53.000Z</time>
      </trkpt>
      <trkpt lat="43.97864" lon="5.89779">
        <ele>513</ele>
        <time>2020-10-05T08:53:54.000Z</time>
      </trkpt>
      <trkpt lat="43.97863" lon="5.89781">
        <ele>513</ele>
        <time>2020-10-05T08:53:55.000Z</time>
      </trkpt>
      <trkpt lat="43.97863" lon="5.89782">
        <ele>513</ele>
        <time>2020-10-05T08:53:56.000Z</time>
      </trkpt>
      <trkpt lat="43.97863" lon="5.89784">
        <ele>513</ele>
        <time>2020-10-05T08:53:57.000Z</time>
      </trkpt>
      <trkpt lat="43.97862" lon="5.89786">
        <ele>513</ele>
        <time>2020-10-05T08:53:58.000Z</time>
      </trkpt>
      <trkpt lat="43.97862" lon="5.89788">
        <ele>513</ele>
        <time>2020-10-05T08:53:59.000Z</time>
      </trkpt>
      <trkpt lat="43.97861" lon="5.89789">
        <ele>513</ele>
        <time>2020-10-05T08:54:00.000Z</time>
      </trkpt>
      <trkpt lat="43.97861" lon="5.89791">
        <ele>513</ele>
        <time>2020-10-05T08:54:01.000Z</time>
      </trkpt>
      <trkpt lat="43.97861" lon="5.89793">
        <ele>513</ele>
        <time>2020-10-05T08:54:02.000Z</time>
      </trkpt>
      <trkpt lat="43.9786" lon="5.89794">
        <ele>513</ele>
        <time>2020-10-05T08:54:03.000Z</time>
      </trkpt>
      <trkpt lat="43.9786" lon="5.89796">
        <ele>513</ele>
        <time>2020-10-05T08:54:04.000Z</time>
      </trkpt>
      <trkpt lat="43.97859" lon="5.89798">
        <ele>513</ele>
        <time>2020-10-05T08:54:05.000Z</time>
      </trkpt>
      <trkpt lat="43.97859" lon="5.89799">
        <ele>513</ele>
        <time>2020-10-05T08:54:06.000Z</time>
      </trkpt>
      <trkpt lat="43.97859" lon="5.89801">
        <ele>513</ele>
        <time>2020-10-05T08:54:07.000Z</time>
      </trkpt>
      <trkpt lat="43.97858" lon="5.89803">
        <ele>513</ele>
        <time>2020-10-05T08:54:08.000Z</time>
      </trkpt>
      <trkpt lat="43.97858" lon="5.89804">
        <ele>513</ele>
        <time>2020-10-05T08:54:09.000Z</time>
      </trkpt>
      <trkpt lat="43.97858" lon="5.89806">
        <ele>513</ele>
        <time>2020-10-05T08:54:10.000Z</time>
      </trkpt>
      <trkpt lat="43.97857" lon="5.89808">
        <ele>513</ele>
        <time>2020-10-05T08:54:11.000Z</time>
      </trkpt>
      <trkpt lat="43.97857" lon="5.89809">
        <ele>513</ele>
        <time>2020-10-05T08:54:12.000Z</time>
      </trkpt>
      <trkpt lat="43.97857" lon="5.89811">
        <ele>513</ele>
        <time>2020-10-05T08:54:13.000Z</time>
      </trkpt>
      <trkpt lat="43.97857" lon="5.89813">
        <ele>513</ele>
        <time>2020-10-05T08:54:14.000Z</time>
      </trkpt>
      <trkpt lat="43.97856" lon="5.89815">
        <ele>513</ele>
        <time>2020-10-05T08:54:15.000Z</time>
      </trkpt>
      <trkpt lat="43.97856" lon="5.89817">
        <ele>513</ele>
        <time>2020-10-05T08:54:16.000Z</time>
      </trkpt>
      <trkpt lat="43.97856" lon="5.89818">
        <ele>513</ele>
        <time>2020-10-05T08:54:17.000Z</time>
      </trkpt>
      <trkpt lat="43.97856" lon="5.8982">
        <ele>513</ele>
        <time>2020-10-05T08:54:18.000Z</time>
      </trkpt>
      <trkpt lat="43.97855" lon="5.89822">
        <ele>513</ele>
        <time>2020-10-05T08:54:19.000Z</time>
      </trkpt>
      <trkpt lat="43.97855" lon="5.89823">
        <ele>512</ele>
        <time>2020-10-05T08:54:20.000Z</time>
      </trkpt>
      <trkpt lat="43.97855" lon="5.89825">
        <ele>512</ele>
        <time>2020-10-05T08:54:21.000Z</time>
      </trkpt>
      <trkpt lat="43.97854" lon="5.89827">
        <ele>512</ele>
        <time>2020-10-05T08:54:22.000Z</time>
      </trkpt>
      <trkpt lat="43.97854" lon="5.89829">
        <ele>512</ele>
        <time>2020-10-05T08:54:23.000Z</time>
      </trkpt>
      <trkpt lat="43.97854" lon="5.89831">
        <ele>512</ele>
        <time>2020-10-05T08:54:24.000Z</time>
      </trkpt>
      <trkpt lat="43.97854" lon="5.89832">
        <ele>512</ele>
        <time>2020-10-05T08:54:25.000Z</time>
      </trkpt>
      <trkpt lat="43.97854" lon="5.89834">
        <ele>511</ele>
        <time>2020-10-05T08:54:26.000Z</time>
      </trkpt>
      <trkpt lat="43.97853" lon="5.89835">
        <ele>511</ele>
        <time>2020-10-05T08:54:27.000Z</time>
      </trkpt>
      <trkpt lat="43.97853" lon="5.89837">
        <ele>511</ele>
        <time>2020-10-05T08:54:28.000Z</time>
      </trkpt>
      <trkpt lat="43.97853" lon="5.89839">
        <ele>511</ele>
        <time>2020-10-05T08:54:29.000Z</time>
      </trkpt>
      <trkpt lat="43.97853" lon="5.8984">
        <ele>511</ele>
        <time>2020-10-05T08:54:30.000Z</time>
      </trkpt>
      <trkpt lat="43.97853" lon="5.89842">
        <ele>511</ele>
        <time>2020-10-05T08:54:31.000Z</time>
      </trkpt>
      <trkpt lat="43.97853" lon="5.89844">
        <ele>511</ele>
        <time>2020-10-05T08:54:32.000Z</time>
      </trkpt>
      <trkpt lat="43.97853" lon="5.89846">
        <ele>511</ele>
        <time>2020-10-05T08:54:33.000Z</time>
      </trkpt>
      <trkpt lat="43.97854" lon="5.89848">
        <ele>510</ele>
        <time>2020-10-05T08:54:34.000Z</time>
      </trkpt>
      <trkpt lat="43.97854" lon="5.89849">
        <ele>510</ele>
        <time>2020-10-05T08:54:35.000Z</time>
      </trkpt>
      <trkpt lat="43.97855" lon="5.89851">
        <ele>510</ele>
        <time>2020-10-05T08:54:36.000Z</time>
      </trkpt>
      <trkpt lat="43.97855" lon="5.89853">
        <ele>510</ele>
        <time>2020-10-05T08:54:37.000Z</time>
      </trkpt>
      <trkpt lat="43.97856" lon="5.89854">
        <ele>510</ele>
        <time>2020-10-05T08:54:38.000Z</time>
      </trkpt>
      <trkpt lat="43.97857" lon="5.89856">
        <ele>510</ele>
        <time>2020-10-05T08:54:39.000Z</time>
      </trkpt>
      <trkpt lat="43.97857" lon="5.89857">
        <ele>510</ele>
        <time>2020-10-05T08:54:40.000Z</time>
      </trkpt>
      <trkpt lat="43.97858" lon="5.89859">
        <ele>510</ele>
        <time>2020-10-05T08:54:41.000Z</time>
      </trkpt>
      <trkpt lat="43.97858" lon="5.8986">
        <ele>510</ele>
        <time>2020-10-05T08:54:42.000Z</time>
      </trkpt>
      <trkpt lat="43.97858" lon="5.89861">
        <ele>510</ele>
        <time>2020-10-05T08:54:43.000Z</time>
      </trkpt>
      <trkpt lat="43.97859" lon="5.89863">
        <ele>510</ele>
        <time>2020-10-05T08:54:44.000Z</time>
      </trkpt>
      <trkpt lat="43.97859" lon="5.89864">
        <ele>509</ele>
        <time>2020-10-05T08:54:45.000Z</time>
      </trkpt>
      <trkpt lat="43.97859" lon="5.89865">
        <ele>509</ele>
        <time>2020-10-05T08:54:46.000Z</time>
      </trkpt>
      <trkpt lat="43.9786" lon="5.89867">
        <ele>509</ele>
        <time>2020-10-05T08:54:47.000Z</time>
      </trkpt>
      <trkpt lat="43.9786" lon="5.89868">
        <ele>509</ele>
        <time>2020-10-05T08:54:48.000Z</time>
      </trkpt>
      <trkpt lat="43.97861" lon="5.8987">
        <ele>509</ele>
        <time>2020-10-05T08:54:49.000Z</time>
      </trkpt>
      <trkpt lat="43.97861" lon="5.89871">
        <ele>509</ele>
        <time>2020-10-05T08:54:50.000Z</time>
      </trkpt>
      <trkpt lat="43.97861" lon="5.89873">
        <ele>509</ele>
        <time>2020-10-05T08:54:51.000Z</time>
      </trkpt>
      <trkpt lat="43.97861" lon="5.89874">
        <ele>509</ele>
        <time>2020-10-05T08:54:52.000Z</time>
      </trkpt>
      <trkpt lat="43.97861" lon="5.89876">
        <ele>509</ele>
        <time>2020-10-05T08:54:53.000Z</time>
      </trkpt>
      <trkpt lat="43.97861" lon="5.89878">
        <ele>509</ele>
        <time>2020-10-05T08:54:54.000Z</time>
      </trkpt>
      <trkpt lat="43.97861" lon="5.8988">
        <ele>509</ele>
        <time>2020-10-05T08:54:55.000Z</time>
      </trkpt>
      <trkpt lat="43.97861" lon="5.89881">
        <ele>509</ele>
        <time>2020-10-05T08:54:56.000Z</time>
      </trkpt>
      <trkpt lat="43.97861" lon="5.89883">
        <ele>509</ele>
        <time>2020-10-05T08:54:57.000Z</time>
      </trkpt>
      <trkpt lat="43.97861" lon="5.89884">
        <ele>509</ele>
        <time>2020-10-05T08:54:58.000Z</time>
      </trkpt>
      <trkpt lat="43.97861" lon="5.89886">
        <ele>509</ele>
        <time>2020-10-05T08:54:59.000Z</time>
      </trkpt>
      <trkpt lat="43.97861" lon="5.89887">
        <ele>509</ele>
        <time>2020-10-05T08:55:00.000Z</time>
      </trkpt>
      <trkpt lat="43.97861" lon="5.89889">
        <ele>509</ele>
        <time>2020-10-05T08:55:01.000Z</time>
      </trkpt>
      <trkpt lat="43.9786" lon="5.89891">
        <ele>509</ele>
        <time>2020-10-05T08:55:02.000Z</time>
      </trkpt>
      <trkpt lat="43.9786" lon="5.89892">
        <ele>509</ele>
        <time>2020-10-05T08:55:03.000Z</time>
      </trkpt>
      <trkpt lat="43.9786" lon="5.89894">
        <ele>509</ele>
        <time>2020-10-05T08:55:04.000Z</time>
      </trkpt>
      <trkpt lat="43.9786" lon="5.89895">
        <ele>509</ele>
        <time>2020-10-05T08:55:05.000Z</time>
      </trkpt>
      <trkpt lat="43.9786" lon="5.89897">
        <ele>509</ele>
        <time>2020-10-05T08:55:06.000Z</time>
      </trkpt>
      <trkpt lat="43.9786" lon="5.89898">
        <ele>509</ele>
        <time>2020-10-05T08:55:07.000Z</time>
      </trkpt>
      <trkpt lat="43.9786" lon="5.89898">
        <ele>509</ele>
        <time>2020-10-05T08:55:08.000Z</time>
      </trkpt>
      <trkpt lat="43.9786" lon="5.89898">
        <ele>510</ele>
        <time>2020-10-05T08:55:09.000Z</time>
      </trkpt>
      <trkpt lat="43.9786" lon="5.89898">
        <ele>510</ele>
        <time>2020-10-05T08:55:10.000Z</time>
      </trkpt>
      <trkpt lat="43.97861" lon="5.89899">
        <ele>510</ele>
        <time>2020-10-05T08:55:11.000Z</time>
      </trkpt>
      <trkpt lat="43.97861" lon="5.899">
        <ele>510</ele>
        <time>2020-10-05T08:55:12.000Z</time>
      </trkpt>
      <trkpt lat="43.97862" lon="5.899">
        <ele>510</ele>
        <time>2020-10-05T08:55:13.000Z</time>
      </trkpt>
      <trkpt lat="43.97863" lon="5.89901">
        <ele>510</ele>
        <time>2020-10-05T08:55:14.000Z</time>
      </trkpt>
      <trkpt lat="43.97864" lon="5.89901">
        <ele>510</ele>
        <time>2020-10-05T08:55:15.000Z</time>
      </trkpt>
      <trkpt lat="43.97865" lon="5.89902">
        <ele>510</ele>
        <time>2020-10-05T08:55:16.000Z</time>
      </trkpt>
      <trkpt lat="43.97866" lon="5.89902">
        <ele>510</ele>
        <time>2020-10-05T08:55:17.000Z</time>
      </trkpt>
      <trkpt lat="43.97866" lon="5.89903">
        <ele>510</ele>
        <time>2020-10-05T08:55:18.000Z</time>
      </trkpt>
      <trkpt lat="43.97867" lon="5.89904">
        <ele>510</ele>
        <time>2020-10-05T08:55:19.000Z</time>
      </trkpt>
      <trkpt lat="43.97868" lon="5.89904">
        <ele>510</ele>
        <time>2020-10-05T08:55:20.000Z</time>
      </trkpt>
      <trkpt lat="43.97869" lon="5.89904">
        <ele>510</ele>
        <time>2020-10-05T08:55:21.000Z</time>
      </trkpt>
      <trkpt lat="43.9787" lon="5.89905">
        <ele>510</ele>
        <time>2020-10-05T08:55:22.000Z</time>
      </trkpt>
      <trkpt lat="43.97871" lon="5.89905">
        <ele>510</ele>
        <time>2020-10-05T08:55:23.000Z</time>
      </trkpt>
      <trkpt lat="43.97872" lon="5.89905">
        <ele>510</ele>
        <time>2020-10-05T08:55:24.000Z</time>
      </trkpt>
      <trkpt lat="43.97873" lon="5.89905">
        <ele>510</ele>
        <time>2020-10-05T08:55:25.000Z</time>
      </trkpt>
      <trkpt lat="43.97874" lon="5.89906">
        <ele>510</ele>
        <time>2020-10-05T08:55:26.000Z</time>
      </trkpt>
      <trkpt lat="43.97875" lon="5.89906">
        <ele>510</ele>
        <time>2020-10-05T08:55:27.000Z</time>
      </trkpt>
      <trkpt lat="43.97876" lon="5.89907">
        <ele>510</ele>
        <time>2020-10-05T08:55:28.000Z</time>
      </trkpt>
      <trkpt lat="43.97877" lon="5.89907">
        <ele>510</ele>
        <time>2020-10-05T08:55:29.000Z</time>
      </trkpt>
      <trkpt lat="43.97878" lon="5.89907">
        <ele>510</ele>
        <time>2020-10-05T08:55:30.000Z</time>
      </trkpt>
      <trkpt lat="43.97879" lon="5.89907">
        <ele>510</ele>
        <time>2020-10-05T08:55:31.000Z</time>
      </trkpt>
      <trkpt lat="43.9788" lon="5.89908">
        <ele>510</ele>
        <time>2020-10-05T08:55:32.000Z</time>
      </trkpt>
      <trkpt lat="43.97881" lon="5.89908">
        <ele>509</ele>
        <time>2020-10-05T08:55:33.000Z</time>
      </trkpt>
      <trkpt lat="43.97882" lon="5.89908">
        <ele>509</ele>
        <time>2020-10-05T08:55:34.000Z</time>
      </trkpt>
      <trkpt lat="43.97883" lon="5.89909">
        <ele>509</ele>
        <time>2020-10-05T08:55:35.000Z</time>
      </trkpt>
      <trkpt lat="43.97884" lon="5.89909">
        <ele>509</ele>
        <time>2020-10-05T08:55:36.000Z</time>
      </trkpt>
      <trkpt lat="43.97885" lon="5.8991">
        <ele>509</ele>
        <time>2020-10-05T08:55:37.000Z</time>
      </trkpt>
      <trkpt lat="43.97886" lon="5.8991">
        <ele>509</ele>
        <time>2020-10-05T08:55:38.000Z</time>
      </trkpt>
      <trkpt lat="43.97888" lon="5.89911">
        <ele>509</ele>
        <time>2020-10-05T08:55:39.000Z</time>
      </trkpt>
      <trkpt lat="43.97889" lon="5.89912">
        <ele>509</ele>
        <time>2020-10-05T08:55:40.000Z</time>
      </trkpt>
      <trkpt lat="43.9789" lon="5.89912">
        <ele>509</ele>
        <time>2020-10-05T08:55:41.000Z</time>
      </trkpt>
      <trkpt lat="43.97892" lon="5.89913">
        <ele>509</ele>
        <time>2020-10-05T08:55:42.000Z</time>
      </trkpt>
      <trkpt lat="43.97893" lon="5.89914">
        <ele>508</ele>
        <time>2020-10-05T08:55:43.000Z</time>
      </trkpt>
      <trkpt lat="43.97894" lon="5.89914">
        <ele>508</ele>
        <time>2020-10-05T08:55:44.000Z</time>
      </trkpt>
      <trkpt lat="43.97895" lon="5.89915">
        <ele>508</ele>
        <time>2020-10-05T08:55:45.000Z</time>
      </trkpt>
      <trkpt lat="43.97896" lon="5.89916">
        <ele>508</ele>
        <time>2020-10-05T08:55:46.000Z</time>
      </trkpt>
      <trkpt lat="43.97898" lon="5.89916">
        <ele>508</ele>
        <time>2020-10-05T08:55:47.000Z</time>
      </trkpt>
      <trkpt lat="43.97899" lon="5.89917">
        <ele>508</ele>
        <time>2020-10-05T08:55:48.000Z</time>
      </trkpt>
      <trkpt lat="43.979" lon="5.89917">
        <ele>508</ele>
        <time>2020-10-05T08:55:49.000Z</time>
      </trkpt>
      <trkpt lat="43.97901" lon="5.89918">
        <ele>508</ele>
        <time>2020-10-05T08:55:50.000Z</time>
      </trkpt>
      <trkpt lat="43.97903" lon="5.89918">
        <ele>508</ele>
        <time>2020-10-05T08:55:51.000Z</time>
      </trkpt>
      <trkpt lat="43.97904" lon="5.89919">
        <ele>507</ele>
        <time>2020-10-05T08:55:52.000Z</time>
      </trkpt>
      <trkpt lat="43.97905" lon="5.8992">
        <ele>507</ele>
        <time>2020-10-05T08:55:53.000Z</time>
      </trkpt>
      <trkpt lat="43.97906" lon="5.8992">
        <ele>507</ele>
        <time>2020-10-05T08:55:54.000Z</time>
      </trkpt>
      <trkpt lat="43.97907" lon="5.8992">
        <ele>507</ele>
        <time>2020-10-05T08:55:55.000Z</time>
      </trkpt>
      <trkpt lat="43.97908" lon="5.89921">
        <ele>507</ele>
        <time>2020-10-05T08:55:56.000Z</time>
      </trkpt>
      <trkpt lat="43.97909" lon="5.89922">
        <ele>507</ele>
        <time>2020-10-05T08:55:57.000Z</time>
      </trkpt>
      <trkpt lat="43.97911" lon="5.89922">
        <ele>507</ele>
        <time>2020-10-05T08:55:58.000Z</time>
      </trkpt>
      <trkpt lat="43.97911" lon="5.89922">
        <ele>507</ele>
        <time>2020-10-05T08:55:59.000Z</time>
      </trkpt>
      <trkpt lat="43.97912" lon="5.89923">
        <ele>507</ele>
        <time>2020-10-05T08:56:00.000Z</time>
      </trkpt>
      <trkpt lat="43.97913" lon="5.89923">
        <ele>507</ele>
        <time>2020-10-05T08:56:01.000Z</time>
      </trkpt>
      <trkpt lat="43.97914" lon="5.89923">
        <ele>507</ele>
        <time>2020-10-05T08:56:02.000Z</time>
      </trkpt>
      <trkpt lat="43.97915" lon="5.89924">
        <ele>507</ele>
        <time>2020-10-05T08:56:03.000Z</time>
      </trkpt>
      <trkpt lat="43.97916" lon="5.89924">
        <ele>507</ele>
        <time>2020-10-05T08:56:04.000Z</time>
      </trkpt>
      <trkpt lat="43.97918" lon="5.89924">
        <ele>507</ele>
        <time>2020-10-05T08:56:05.000Z</time>
      </trkpt>
      <trkpt lat="43.97919" lon="5.89925">
        <ele>507</ele>
        <time>2020-10-05T08:56:06.000Z</time>
      </trkpt>
      <trkpt lat="43.9792" lon="5.89925">
        <ele>507</ele>
        <time>2020-10-05T08:56:07.000Z</time>
      </trkpt>
      <trkpt lat="43.97921" lon="5.89926">
        <ele>507</ele>
        <time>2020-10-05T08:56:08.000Z</time>
      </trkpt>
      <trkpt lat="43.97923" lon="5.89926">
        <ele>507</ele>
        <time>2020-10-05T08:56:09.000Z</time>
      </trkpt>
      <trkpt lat="43.97924" lon="5.89926">
        <ele>507</ele>
        <time>2020-10-05T08:56:10.000Z</time>
      </trkpt>
      <trkpt lat="43.97925" lon="5.89927">
        <ele>507</ele>
        <time>2020-10-05T08:56:11.000Z</time>
      </trkpt>
      <trkpt lat="43.97926" lon="5.89927">
        <ele>507</ele>
        <time>2020-10-05T08:56:12.000Z</time>
      </trkpt>
      <trkpt lat="43.97927" lon="5.89928">
        <ele>507</ele>
        <time>2020-10-05T08:56:13.000Z</time>
      </trkpt>
      <trkpt lat="43.97928" lon="5.89928">
        <ele>507</ele>
        <time>2020-10-05T08:56:14.000Z</time>
      </trkpt>
      <trkpt lat="43.9793" lon="5.89929">
        <ele>507</ele>
        <time>2020-10-05T08:56:15.000Z</time>
      </trkpt>
      <trkpt lat="43.97931" lon="5.89929">
        <ele>507</ele>
        <time>2020-10-05T08:56:16.000Z</time>
      </trkpt>
      <trkpt lat="43.97931" lon="5.8993">
        <ele>507</ele>
        <time>2020-10-05T08:56:17.000Z</time>
      </trkpt>
      <trkpt lat="43.97932" lon="5.8993">
        <ele>507</ele>
        <time>2020-10-05T08:56:18.000Z</time>
      </trkpt>
      <trkpt lat="43.97933" lon="5.8993">
        <ele>507</ele>
        <time>2020-10-05T08:56:19.000Z</time>
      </trkpt>
      <trkpt lat="43.97934" lon="5.89931">
        <ele>507</ele>
        <time>2020-10-05T08:56:20.000Z</time>
      </trkpt>
      <trkpt lat="43.97935" lon="5.89931">
        <ele>507</ele>
        <time>2020-10-05T08:56:21.000Z</time>
      </trkpt>
      <trkpt lat="43.97937" lon="5.89932">
        <ele>507</ele>
        <time>2020-10-05T08:56:22.000Z</time>
      </trkpt>
      <trkpt lat="43.97938" lon="5.89932">
        <ele>507</ele>
        <time>2020-10-05T08:56:23.000Z</time>
      </trkpt>
      <trkpt lat="43.9794" lon="5.89933">
        <ele>507</ele>
        <time>2020-10-05T08:56:24.000Z</time>
      </trkpt>
      <trkpt lat="43.97941" lon="5.89934">
        <ele>507</ele>
        <time>2020-10-05T08:56:25.000Z</time>
      </trkpt>
      <trkpt lat="43.97942" lon="5.89934">
        <ele>507</ele>
        <time>2020-10-05T08:56:26.000Z</time>
      </trkpt>
      <trkpt lat="43.97944" lon="5.89935">
        <ele>508</ele>
        <time>2020-10-05T08:56:27.000Z</time>
      </trkpt>
      <trkpt lat="43.97945" lon="5.89936">
        <ele>508</ele>
        <time>2020-10-05T08:56:28.000Z</time>
      </trkpt>
      <trkpt lat="43.97946" lon="5.89936">
        <ele>508</ele>
        <time>2020-10-05T08:56:29.000Z</time>
      </trkpt>
      <trkpt lat="43.97948" lon="5.89938">
        <ele>508</ele>
        <time>2020-10-05T08:56:30.000Z</time>
      </trkpt>
      <trkpt lat="43.97949" lon="5.89939">
        <ele>508</ele>
        <time>2020-10-05T08:56:31.000Z</time>
      </trkpt>
      <trkpt lat="43.9795" lon="5.8994">
        <ele>508</ele>
        <time>2020-10-05T08:56:32.000Z</time>
      </trkpt>
      <trkpt lat="43.97951" lon="5.89941">
        <ele>508</ele>
        <time>2020-10-05T08:56:33.000Z</time>
      </trkpt>
      <trkpt lat="43.97952" lon="5.89942">
        <ele>508</ele>
        <time>2020-10-05T08:56:34.000Z</time>
      </trkpt>
      <trkpt lat="43.97953" lon="5.89943">
        <ele>508</ele>
        <time>2020-10-05T08:56:35.000Z</time>
      </trkpt>
      <trkpt lat="43.97953" lon="5.89943">
        <ele>508</ele>
        <time>2020-10-05T08:56:36.000Z</time>
      </trkpt>
      <trkpt lat="43.97954" lon="5.89944">
        <ele>508</ele>
        <time>2020-10-05T08:56:37.000Z</time>
      </trkpt>
      <trkpt lat="43.97954" lon="5.89945">
        <ele>508</ele>
        <time>2020-10-05T08:56:38.000Z</time>
      </trkpt>
      <trkpt lat="43.97955" lon="5.89946">
        <ele>508</ele>
        <time>2020-10-05T08:56:39.000Z</time>
      </trkpt>
      <trkpt lat="43.97955" lon="5.89947">
        <ele>508</ele>
        <time>2020-10-05T08:56:40.000Z</time>
      </trkpt>
      <trkpt lat="43.97956" lon="5.89948">
        <ele>508</ele>
        <time>2020-10-05T08:56:41.000Z</time>
      </trkpt>
      <trkpt lat="43.97957" lon="5.89949">
        <ele>508</ele>
        <time>2020-10-05T08:56:42.000Z</time>
      </trkpt>
      <trkpt lat="43.97958" lon="5.8995">
        <ele>508</ele>
        <time>2020-10-05T08:56:43.000Z</time>
      </trkpt>
      <trkpt lat="43.97958" lon="5.89951">
        <ele>508</ele>
        <time>2020-10-05T08:56:44.000Z</time>
      </trkpt>
      <trkpt lat="43.97959" lon="5.89952">
        <ele>508</ele>
        <time>2020-10-05T08:56:45.000Z</time>
      </trkpt>
      <trkpt lat="43.97959" lon="5.89953">
        <ele>508</ele>
        <time>2020-10-05T08:56:46.000Z</time>
      </trkpt>
      <trkpt lat="43.9796" lon="5.89955">
        <ele>508</ele>
        <time>2020-10-05T08:56:47.000Z</time>
      </trkpt>
      <trkpt lat="43.97961" lon="5.89956">
        <ele>508</ele>
        <time>2020-10-05T08:56:48.000Z</time>
      </trkpt>
      <trkpt lat="43.97962" lon="5.89958">
        <ele>508</ele>
        <time>2020-10-05T08:56:49.000Z</time>
      </trkpt>
      <trkpt lat="43.97963" lon="5.89959">
        <ele>508</ele>
        <time>2020-10-05T08:56:50.000Z</time>
      </trkpt>
      <trkpt lat="43.97963" lon="5.89961">
        <ele>508</ele>
        <time>2020-10-05T08:56:51.000Z</time>
      </trkpt>
      <trkpt lat="43.97964" lon="5.89962">
        <ele>508</ele>
        <time>2020-10-05T08:56:52.000Z</time>
      </trkpt>
      <trkpt lat="43.97965" lon="5.89964">
        <ele>508</ele>
        <time>2020-10-05T08:56:53.000Z</time>
      </trkpt>
      <trkpt lat="43.97965" lon="5.89965">
        <ele>508</ele>
        <time>2020-10-05T08:56:54.000Z</time>
      </trkpt>
      <trkpt lat="43.97966" lon="5.89966">
        <ele>508</ele>
        <time>2020-10-05T08:56:55.000Z</time>
      </trkpt>
      <trkpt lat="43.97966" lon="5.89967">
        <ele>509</ele>
        <time>2020-10-05T08:56:56.000Z</time>
      </trkpt>
      <trkpt lat="43.97966" lon="5.89969">
        <ele>509</ele>
        <time>2020-10-05T08:56:57.000Z</time>
      </trkpt>
      <trkpt lat="43.97966" lon="5.8997">
        <ele>509</ele>
        <time>2020-10-05T08:56:58.000Z</time>
      </trkpt>
      <trkpt lat="43.97967" lon="5.89971">
        <ele>509</ele>
        <time>2020-10-05T08:56:59.000Z</time>
      </trkpt>
      <trkpt lat="43.97967" lon="5.89972">
        <ele>509</ele>
        <time>2020-10-05T08:57:00.000Z</time>
      </trkpt>
      <trkpt lat="43.97967" lon="5.89973">
        <ele>509</ele>
        <time>2020-10-05T08:57:01.000Z</time>
      </trkpt>
      <trkpt lat="43.97968" lon="5.89975">
        <ele>509</ele>
        <time>2020-10-05T08:57:02.000Z</time>
      </trkpt>
      <trkpt lat="43.97968" lon="5.89976">
        <ele>509</ele>
        <time>2020-10-05T08:57:03.000Z</time>
      </trkpt>
      <trkpt lat="43.97969" lon="5.89977">
        <ele>509</ele>
        <time>2020-10-05T08:57:04.000Z</time>
      </trkpt>
      <trkpt lat="43.97969" lon="5.89979">
        <ele>509</ele>
        <time>2020-10-05T08:57:05.000Z</time>
      </trkpt>
      <trkpt lat="43.9797" lon="5.8998">
        <ele>509</ele>
        <time>2020-10-05T08:57:06.000Z</time>
      </trkpt>
      <trkpt lat="43.9797" lon="5.89982">
        <ele>509</ele>
        <time>2020-10-05T08:57:07.000Z</time>
      </trkpt>
      <trkpt lat="43.97971" lon="5.89984">
        <ele>509</ele>
        <time>2020-10-05T08:57:08.000Z</time>
      </trkpt>
      <trkpt lat="43.97972" lon="5.89985">
        <ele>509</ele>
        <time>2020-10-05T08:57:09.000Z</time>
      </trkpt>
      <trkpt lat="43.97973" lon="5.89987">
        <ele>509</ele>
        <time>2020-10-05T08:57:10.000Z</time>
      </trkpt>
      <trkpt lat="43.97973" lon="5.89988">
        <ele>509</ele>
        <time>2020-10-05T08:57:11.000Z</time>
      </trkpt>
      <trkpt lat="43.97973" lon="5.8999">
        <ele>509</ele>
        <time>2020-10-05T08:57:12.000Z</time>
      </trkpt>
      <trkpt lat="43.97974" lon="5.89991">
        <ele>509</ele>
        <time>2020-10-05T08:57:13.000Z</time>
      </trkpt>
      <trkpt lat="43.97975" lon="5.89993">
        <ele>509</ele>
        <time>2020-10-05T08:57:14.000Z</time>
      </trkpt>
      <trkpt lat="43.97975" lon="5.89995">
        <ele>509</ele>
        <time>2020-10-05T08:57:15.000Z</time>
      </trkpt>
      <trkpt lat="43.97976" lon="5.89996">
        <ele>509</ele>
        <time>2020-10-05T08:57:16.000Z</time>
      </trkpt>
      <trkpt lat="43.97977" lon="5.89998">
        <ele>509</ele>
        <time>2020-10-05T08:57:17.000Z</time>
      </trkpt>
      <trkpt lat="43.97977" lon="5.89999">
        <ele>509</ele>
        <time>2020-10-05T08:57:18.000Z</time>
      </trkpt>
      <trkpt lat="43.97978" lon="5.90001">
        <ele>509</ele>
        <time>2020-10-05T08:57:19.000Z</time>
      </trkpt>
      <trkpt lat="43.97978" lon="5.90002">
        <ele>509</ele>
        <time>2020-10-05T08:57:20.000Z</time>
      </trkpt>
      <trkpt lat="43.97979" lon="5.90004">
        <ele>509</ele>
        <time>2020-10-05T08:57:21.000Z</time>
      </trkpt>
      <trkpt lat="43.97979" lon="5.90006">
        <ele>509</ele>
        <time>2020-10-05T08:57:22.000Z</time>
      </trkpt>
      <trkpt lat="43.9798" lon="5.90007">
        <ele>509</ele>
        <time>2020-10-05T08:57:23.000Z</time>
      </trkpt>
      <trkpt lat="43.97981" lon="5.90008">
        <ele>509</ele>
        <time>2020-10-05T08:57:24.000Z</time>
      </trkpt>
      <trkpt lat="43.97982" lon="5.9001">
        <ele>509</ele>
        <time>2020-10-05T08:57:25.000Z</time>
      </trkpt>
      <trkpt lat="43.97982" lon="5.90012">
        <ele>509</ele>
        <time>2020-10-05T08:57:26.000Z</time>
      </trkpt>
      <trkpt lat="43.97983" lon="5.90013">
        <ele>509</ele>
        <time>2020-10-05T08:57:27.000Z</time>
      </trkpt>
      <trkpt lat="43.97984" lon="5.90015">
        <ele>509</ele>
        <time>2020-10-05T08:57:28.000Z</time>
      </trkpt>
      <trkpt lat="43.97984" lon="5.90016">
        <ele>509</ele>
        <time>2020-10-05T08:57:29.000Z</time>
      </trkpt>
      <trkpt lat="43.97985" lon="5.90018">
        <ele>509</ele>
        <time>2020-10-05T08:57:30.000Z</time>
      </trkpt>
      <trkpt lat="43.97986" lon="5.90019">
        <ele>509</ele>
        <time>2020-10-05T08:57:31.000Z</time>
      </trkpt>
      <trkpt lat="43.97986" lon="5.90021">
        <ele>509</ele>
        <time>2020-10-05T08:57:32.000Z</time>
      </trkpt>
      <trkpt lat="43.97987" lon="5.90023">
        <ele>509</ele>
        <time>2020-10-05T08:57:33.000Z</time>
      </trkpt>
      <trkpt lat="43.97987" lon="5.90024">
        <ele>509</ele>
        <time>2020-10-05T08:57:34.000Z</time>
      </trkpt>
      <trkpt lat="43.97987" lon="5.90026">
        <ele>509</ele>
        <time>2020-10-05T08:57:35.000Z</time>
      </trkpt>
      <trkpt lat="43.97988" lon="5.90027">
        <ele>509</ele>
        <time>2020-10-05T08:57:36.000Z</time>
      </trkpt>
      <trkpt lat="43.97988" lon="5.90029">
        <ele>509</ele>
        <time>2020-10-05T08:57:37.000Z</time>
      </trkpt>
      <trkpt lat="43.97989" lon="5.9003">
        <ele>509</ele>
        <time>2020-10-05T08:57:38.000Z</time>
      </trkpt>
      <trkpt lat="43.9799" lon="5.90032">
        <ele>509</ele>
        <time>2020-10-05T08:57:39.000Z</time>
      </trkpt>
      <trkpt lat="43.9799" lon="5.90033">
        <ele>509</ele>
        <time>2020-10-05T08:57:40.000Z</time>
      </trkpt>
      <trkpt lat="43.97991" lon="5.90035">
        <ele>508</ele>
        <time>2020-10-05T08:57:41.000Z</time>
      </trkpt>
      <trkpt lat="43.97992" lon="5.90036">
        <ele>508</ele>
        <time>2020-10-05T08:57:42.000Z</time>
      </trkpt>
      <trkpt lat="43.97993" lon="5.90038">
        <ele>508</ele>
        <time>2020-10-05T08:57:43.000Z</time>
      </trkpt>
      <trkpt lat="43.97993" lon="5.9004">
        <ele>508</ele>
        <time>2020-10-05T08:57:44.000Z</time>
      </trkpt>
      <trkpt lat="43.97994" lon="5.90041">
        <ele>508</ele>
        <time>2020-10-05T08:57:45.000Z</time>
      </trkpt>
      <trkpt lat="43.97994" lon="5.90043">
        <ele>508</ele>
        <time>2020-10-05T08:57:46.000Z</time>
      </trkpt>
      <trkpt lat="43.97995" lon="5.90044">
        <ele>508</ele>
        <time>2020-10-05T08:57:47.000Z</time>
      </trkpt>
      <trkpt lat="43.97996" lon="5.90046">
        <ele>508</ele>
        <time>2020-10-05T08:57:48.000Z</time>
      </trkpt>
      <trkpt lat="43.97996" lon="5.90047">
        <ele>508</ele>
        <time>2020-10-05T08:57:49.000Z</time>
      </trkpt>
      <trkpt lat="43.97997" lon="5.90049">
        <ele>508</ele>
        <time>2020-10-05T08:57:50.000Z</time>
      </trkpt>
      <trkpt lat="43.97997" lon="5.9005">
        <ele>508</ele>
        <time>2020-10-05T08:57:51.000Z</time>
      </trkpt>
      <trkpt lat="43.97998" lon="5.90052">
        <ele>508</ele>
        <time>2020-10-05T08:57:52.000Z</time>
      </trkpt>
      <trkpt lat="43.97999" lon="5.90053">
        <ele>508</ele>
        <time>2020-10-05T08:57:53.000Z</time>
      </trkpt>
      <trkpt lat="43.97999" lon="5.90055">
        <ele>508</ele>
        <time>2020-10-05T08:57:54.000Z</time>
      </trkpt>
      <trkpt lat="43.97999" lon="5.90057">
        <ele>508</ele>
        <time>2020-10-05T08:57:55.000Z</time>
      </trkpt>
      <trkpt lat="43.98" lon="5.90058">
        <ele>508</ele>
        <time>2020-10-05T08:57:56.000Z</time>
      </trkpt>
      <trkpt lat="43.98" lon="5.9006">
        <ele>508</ele>
        <time>2020-10-05T08:57:57.000Z</time>
      </trkpt>
      <trkpt lat="43.98001" lon="5.90062">
        <ele>508</ele>
        <time>2020-10-05T08:57:58.000Z</time>
      </trkpt>
      <trkpt lat="43.98001" lon="5.90063">
        <ele>508</ele>
        <time>2020-10-05T08:57:59.000Z</time>
      </trkpt>
      <trkpt lat="43.98001" lon="5.90065">
        <ele>508</ele>
        <time>2020-10-05T08:58:00.000Z</time>
      </trkpt>
      <trkpt lat="43.98001" lon="5.90066">
        <ele>508</ele>
        <time>2020-10-05T08:58:01.000Z</time>
      </trkpt>
      <trkpt lat="43.98002" lon="5.90068">
        <ele>508</ele>
        <time>2020-10-05T08:58:02.000Z</time>
      </trkpt>
      <trkpt lat="43.98002" lon="5.90069">
        <ele>508</ele>
        <time>2020-10-05T08:58:03.000Z</time>
      </trkpt>
      <trkpt lat="43.98002" lon="5.90071">
        <ele>508</ele>
        <time>2020-10-05T08:58:04.000Z</time>
      </trkpt>
      <trkpt lat="43.98002" lon="5.90072">
        <ele>508</ele>
        <time>2020-10-05T08:58:05.000Z</time>
      </trkpt>
      <trkpt lat="43.98002" lon="5.90073">
        <ele>508</ele>
        <time>2020-10-05T08:58:06.000Z</time>
      </trkpt>
      <trkpt lat="43.98003" lon="5.90075">
        <ele>509</ele>
        <time>2020-10-05T08:58:07.000Z</time>
      </trkpt>
      <trkpt lat="43.98003" lon="5.90076">
        <ele>509</ele>
        <time>2020-10-05T08:58:08.000Z</time>
      </trkpt>
      <trkpt lat="43.98003" lon="5.90078">
        <ele>509</ele>
        <time>2020-10-05T08:58:09.000Z</time>
      </trkpt>
      <trkpt lat="43.98004" lon="5.90079">
        <ele>509</ele>
        <time>2020-10-05T08:58:10.000Z</time>
      </trkpt>
      <trkpt lat="43.98004" lon="5.90081">
        <ele>509</ele>
        <time>2020-10-05T08:58:11.000Z</time>
      </trkpt>
      <trkpt lat="43.98005" lon="5.90082">
        <ele>509</ele>
        <time>2020-10-05T08:58:12.000Z</time>
      </trkpt>
      <trkpt lat="43.98005" lon="5.90084">
        <ele>509</ele>
        <time>2020-10-05T08:58:13.000Z</time>
      </trkpt>
      <trkpt lat="43.98005" lon="5.90085">
        <ele>509</ele>
        <time>2020-10-05T08:58:14.000Z</time>
      </trkpt>
      <trkpt lat="43.98006" lon="5.90087">
        <ele>509</ele>
        <time>2020-10-05T08:58:15.000Z</time>
      </trkpt>
      <trkpt lat="43.98006" lon="5.90089">
        <ele>509</ele>
        <time>2020-10-05T08:58:16.000Z</time>
      </trkpt>
      <trkpt lat="43.98007" lon="5.9009">
        <ele>509</ele>
        <time>2020-10-05T08:58:17.000Z</time>
      </trkpt>
      <trkpt lat="43.98007" lon="5.90092">
        <ele>509</ele>
        <time>2020-10-05T08:58:18.000Z</time>
      </trkpt>
      <trkpt lat="43.98008" lon="5.90093">
        <ele>509</ele>
        <time>2020-10-05T08:58:19.000Z</time>
      </trkpt>
      <trkpt lat="43.98008" lon="5.90095">
        <ele>509</ele>
        <time>2020-10-05T08:58:20.000Z</time>
      </trkpt>
      <trkpt lat="43.98009" lon="5.90097">
        <ele>509</ele>
        <time>2020-10-05T08:58:21.000Z</time>
      </trkpt>
      <trkpt lat="43.9801" lon="5.90098">
        <ele>509</ele>
        <time>2020-10-05T08:58:22.000Z</time>
      </trkpt>
      <trkpt lat="43.9801" lon="5.901">
        <ele>509</ele>
        <time>2020-10-05T08:58:23.000Z</time>
      </trkpt>
      <trkpt lat="43.9801" lon="5.90101">
        <ele>509</ele>
        <time>2020-10-05T08:58:24.000Z</time>
      </trkpt>
      <trkpt lat="43.98011" lon="5.90103">
        <ele>510</ele>
        <time>2020-10-05T08:58:25.000Z</time>
      </trkpt>
      <trkpt lat="43.98012" lon="5.90104">
        <ele>510</ele>
        <time>2020-10-05T08:58:26.000Z</time>
      </trkpt>
      <trkpt lat="43.98012" lon="5.90106">
        <ele>510</ele>
        <time>2020-10-05T08:58:27.000Z</time>
      </trkpt>
      <trkpt lat="43.98013" lon="5.90108">
        <ele>510</ele>
        <time>2020-10-05T08:58:28.000Z</time>
      </trkpt>
      <trkpt lat="43.98013" lon="5.90109">
        <ele>510</ele>
        <time>2020-10-05T08:58:29.000Z</time>
      </trkpt>
      <trkpt lat="43.98014" lon="5.90111">
        <ele>510</ele>
        <time>2020-10-05T08:58:30.000Z</time>
      </trkpt>
      <trkpt lat="43.98014" lon="5.90113">
        <ele>510</ele>
        <time>2020-10-05T08:58:31.000Z</time>
      </trkpt>
      <trkpt lat="43.98014" lon="5.90115">
        <ele>510</ele>
        <time>2020-10-05T08:58:32.000Z</time>
      </trkpt>
      <trkpt lat="43.98015" lon="5.90116">
        <ele>510</ele>
        <time>2020-10-05T08:58:33.000Z</time>
      </trkpt>
      <trkpt lat="43.98015" lon="5.90118">
        <ele>510</ele>
        <time>2020-10-05T08:58:34.000Z</time>
      </trkpt>
      <trkpt lat="43.98016" lon="5.90119">
        <ele>511</ele>
        <time>2020-10-05T08:58:35.000Z</time>
      </trkpt>
      <trkpt lat="43.98016" lon="5.90121">
        <ele>511</ele>
        <time>2020-10-05T08:58:36.000Z</time>
      </trkpt>
      <trkpt lat="43.98016" lon="5.90122">
        <ele>511</ele>
        <time>2020-10-05T08:58:37.000Z</time>
      </trkpt>
      <trkpt lat="43.98017" lon="5.90124">
        <ele>511</ele>
        <time>2020-10-05T08:58:38.000Z</time>
      </trkpt>
      <trkpt lat="43.98018" lon="5.90125">
        <ele>511</ele>
        <time>2020-10-05T08:58:39.000Z</time>
      </trkpt>
      <trkpt lat="43.98018" lon="5.90127">
        <ele>511</ele>
        <time>2020-10-05T08:58:40.000Z</time>
      </trkpt>
      <trkpt lat="43.98019" lon="5.90128">
        <ele>511</ele>
        <time>2020-10-05T08:58:41.000Z</time>
      </trkpt>
      <trkpt lat="43.98019" lon="5.9013">
        <ele>511</ele>
        <time>2020-10-05T08:58:42.000Z</time>
      </trkpt>
      <trkpt lat="43.98019" lon="5.90131">
        <ele>511</ele>
        <time>2020-10-05T08:58:43.000Z</time>
      </trkpt>
      <trkpt lat="43.9802" lon="5.90132">
        <ele>511</ele>
        <time>2020-10-05T08:58:44.000Z</time>
      </trkpt>
      <trkpt lat="43.9802" lon="5.90133">
        <ele>511</ele>
        <time>2020-10-05T08:58:45.000Z</time>
      </trkpt>
      <trkpt lat="43.9802" lon="5.90135">
        <ele>511</ele>
        <time>2020-10-05T08:58:46.000Z</time>
      </trkpt>
      <trkpt lat="43.98021" lon="5.90136">
        <ele>511</ele>
        <time>2020-10-05T08:58:47.000Z</time>
      </trkpt>
      <trkpt lat="43.98021" lon="5.90137">
        <ele>511</ele>
        <time>2020-10-05T08:58:48.000Z</time>
      </trkpt>
      <trkpt lat="43.98022" lon="5.90138">
        <ele>511</ele>
        <time>2020-10-05T08:58:49.000Z</time>
      </trkpt>
      <trkpt lat="43.98022" lon="5.9014">
        <ele>511</ele>
        <time>2020-10-05T08:58:50.000Z</time>
      </trkpt>
      <trkpt lat="43.98023" lon="5.90141">
        <ele>511</ele>
        <time>2020-10-05T08:58:51.000Z</time>
      </trkpt>
      <trkpt lat="43.98024" lon="5.90142">
        <ele>511</ele>
        <time>2020-10-05T08:58:52.000Z</time>
      </trkpt>
      <trkpt lat="43.98024" lon="5.90143">
        <ele>511</ele>
        <time>2020-10-05T08:58:53.000Z</time>
      </trkpt>
      <trkpt lat="43.98025" lon="5.90144">
        <ele>511</ele>
        <time>2020-10-05T08:58:54.000Z</time>
      </trkpt>
      <trkpt lat="43.98025" lon="5.90146">
        <ele>511</ele>
        <time>2020-10-05T08:58:55.000Z</time>
      </trkpt>
      <trkpt lat="43.98026" lon="5.90147">
        <ele>511</ele>
        <time>2020-10-05T08:58:56.000Z</time>
      </trkpt>
      <trkpt lat="43.98026" lon="5.90148">
        <ele>511</ele>
        <time>2020-10-05T08:58:57.000Z</time>
      </trkpt>
      <trkpt lat="43.98026" lon="5.9015">
        <ele>511</ele>
        <time>2020-10-05T08:58:58.000Z</time>
      </trkpt>
      <trkpt lat="43.98027" lon="5.90151">
        <ele>511</ele>
        <time>2020-10-05T08:58:59.000Z</time>
      </trkpt>
      <trkpt lat="43.98027" lon="5.90153">
        <ele>511</ele>
        <time>2020-10-05T08:59:00.000Z</time>
      </trkpt>
      <trkpt lat="43.98027" lon="5.90154">
        <ele>511</ele>
        <time>2020-10-05T08:59:01.000Z</time>
      </trkpt>
      <trkpt lat="43.98028" lon="5.90156">
        <ele>511</ele>
        <time>2020-10-05T08:59:02.000Z</time>
      </trkpt>
      <trkpt lat="43.98028" lon="5.90158">
        <ele>511</ele>
        <time>2020-10-05T08:59:03.000Z</time>
      </trkpt>
      <trkpt lat="43.98028" lon="5.90159">
        <ele>511</ele>
        <time>2020-10-05T08:59:04.000Z</time>
      </trkpt>
      <trkpt lat="43.98028" lon="5.90161">
        <ele>511</ele>
        <time>2020-10-05T08:59:05.000Z</time>
      </trkpt>
      <trkpt lat="43.98029" lon="5.90162">
        <ele>511</ele>
        <time>2020-10-05T08:59:06.000Z</time>
      </trkpt>
      <trkpt lat="43.98029" lon="5.90163">
        <ele>511</ele>
        <time>2020-10-05T08:59:07.000Z</time>
      </trkpt>
      <trkpt lat="43.98029" lon="5.90165">
        <ele>511</ele>
        <time>2020-10-05T08:59:08.000Z</time>
      </trkpt>
      <trkpt lat="43.9803" lon="5.90167">
        <ele>511</ele>
        <time>2020-10-05T08:59:09.000Z</time>
      </trkpt>
      <trkpt lat="43.9803" lon="5.90168">
        <ele>511</ele>
        <time>2020-10-05T08:59:10.000Z</time>
      </trkpt>
      <trkpt lat="43.98031" lon="5.9017">
        <ele>511</ele>
        <time>2020-10-05T08:59:11.000Z</time>
      </trkpt>
      <trkpt lat="43.98031" lon="5.90171">
        <ele>511</ele>
        <time>2020-10-05T08:59:12.000Z</time>
      </trkpt>
      <trkpt lat="43.98032" lon="5.90173">
        <ele>511</ele>
        <time>2020-10-05T08:59:13.000Z</time>
      </trkpt>
      <trkpt lat="43.98032" lon="5.90174">
        <ele>511</ele>
        <time>2020-10-05T08:59:14.000Z</time>
      </trkpt>
      <trkpt lat="43.98032" lon="5.90176">
        <ele>511</ele>
        <time>2020-10-05T08:59:15.000Z</time>
      </trkpt>
      <trkpt lat="43.98033" lon="5.90178">
        <ele>511</ele>
        <time>2020-10-05T08:59:16.000Z</time>
      </trkpt>
      <trkpt lat="43.98033" lon="5.90179">
        <ele>511</ele>
        <time>2020-10-05T08:59:17.000Z</time>
      </trkpt>
      <trkpt lat="43.98034" lon="5.9018">
        <ele>511</ele>
        <time>2020-10-05T08:59:18.000Z</time>
      </trkpt>
      <trkpt lat="43.98034" lon="5.90182">
        <ele>511</ele>
        <time>2020-10-05T08:59:19.000Z</time>
      </trkpt>
      <trkpt lat="43.98035" lon="5.90184">
        <ele>511</ele>
        <time>2020-10-05T08:59:20.000Z</time>
      </trkpt>
      <trkpt lat="43.98036" lon="5.90185">
        <ele>512</ele>
        <time>2020-10-05T08:59:21.000Z</time>
      </trkpt>
      <trkpt lat="43.98036" lon="5.90186">
        <ele>512</ele>
        <time>2020-10-05T08:59:22.000Z</time>
      </trkpt>
      <trkpt lat="43.98037" lon="5.90188">
        <ele>512</ele>
        <time>2020-10-05T08:59:23.000Z</time>
      </trkpt>
      <trkpt lat="43.98037" lon="5.90189">
        <ele>512</ele>
        <time>2020-10-05T08:59:24.000Z</time>
      </trkpt>
      <trkpt lat="43.98038" lon="5.9019">
        <ele>512</ele>
        <time>2020-10-05T08:59:25.000Z</time>
      </trkpt>
      <trkpt lat="43.98038" lon="5.90191">
        <ele>512</ele>
        <time>2020-10-05T08:59:26.000Z</time>
      </trkpt>
      <trkpt lat="43.98038" lon="5.90192">
        <ele>512</ele>
        <time>2020-10-05T08:59:27.000Z</time>
      </trkpt>
      <trkpt lat="43.98039" lon="5.90193">
        <ele>512</ele>
        <time>2020-10-05T08:59:28.000Z</time>
      </trkpt>
      <trkpt lat="43.9804" lon="5.90194">
        <ele>512</ele>
        <time>2020-10-05T08:59:29.000Z</time>
      </trkpt>
      <trkpt lat="43.9804" lon="5.90195">
        <ele>512</ele>
        <time>2020-10-05T08:59:30.000Z</time>
      </trkpt>
      <trkpt lat="43.9804" lon="5.90197">
        <ele>512</ele>
        <time>2020-10-05T08:59:31.000Z</time>
      </trkpt>
      <trkpt lat="43.98041" lon="5.90198">
        <ele>512</ele>
        <time>2020-10-05T08:59:32.000Z</time>
      </trkpt>
      <trkpt lat="43.98041" lon="5.902">
        <ele>512</ele>
        <time>2020-10-05T08:59:33.000Z</time>
      </trkpt>
      <trkpt lat="43.98041" lon="5.90201">
        <ele>512</ele>
        <time>2020-10-05T08:59:34.000Z</time>
      </trkpt>
      <trkpt lat="43.98041" lon="5.90202">
        <ele>512</ele>
        <time>2020-10-05T08:59:35.000Z</time>
      </trkpt>
      <trkpt lat="43.98042" lon="5.90203">
        <ele>512</ele>
        <time>2020-10-05T08:59:36.000Z</time>
      </trkpt>
      <trkpt lat="43.98043" lon="5.90205">
        <ele>512</ele>
        <time>2020-10-05T08:59:37.000Z</time>
      </trkpt>
      <trkpt lat="43.98043" lon="5.90206">
        <ele>512</ele>
        <time>2020-10-05T08:59:38.000Z</time>
      </trkpt>
      <trkpt lat="43.98043" lon="5.90208">
        <ele>512</ele>
        <time>2020-10-05T08:59:39.000Z</time>
      </trkpt>
      <trkpt lat="43.98043" lon="5.90209">
        <ele>512</ele>
        <time>2020-10-05T08:59:40.000Z</time>
      </trkpt>
      <trkpt lat="43.98044" lon="5.90211">
        <ele>512</ele>
        <time>2020-10-05T08:59:41.000Z</time>
      </trkpt>
      <trkpt lat="43.98044" lon="5.90212">
        <ele>512</ele>
        <time>2020-10-05T08:59:42.000Z</time>
      </trkpt>
      <trkpt lat="43.98044" lon="5.90213">
        <ele>512</ele>
        <time>2020-10-05T08:59:43.000Z</time>
      </trkpt>
      <trkpt lat="43.98045" lon="5.90214">
        <ele>512</ele>
        <time>2020-10-05T08:59:44.000Z</time>
      </trkpt>
      <trkpt lat="43.98046" lon="5.90216">
        <ele>512</ele>
        <time>2020-10-05T08:59:45.000Z</time>
      </trkpt>
      <trkpt lat="43.98047" lon="5.90217">
        <ele>512</ele>
        <time>2020-10-05T08:59:46.000Z</time>
      </trkpt>
      <trkpt lat="43.98047" lon="5.90218">
        <ele>512</ele>
        <time>2020-10-05T08:59:47.000Z</time>
      </trkpt>
      <trkpt lat="43.98048" lon="5.90219">
        <ele>512</ele>
        <time>2020-10-05T08:59:48.000Z</time>
      </trkpt>
      <trkpt lat="43.98049" lon="5.9022">
        <ele>512</ele>
        <time>2020-10-05T08:59:49.000Z</time>
      </trkpt>
      <trkpt lat="43.98049" lon="5.90221">
        <ele>512</ele>
        <time>2020-10-05T08:59:50.000Z</time>
      </trkpt>
      <trkpt lat="43.9805" lon="5.90222">
        <ele>512</ele>
        <time>2020-10-05T08:59:51.000Z</time>
      </trkpt>
      <trkpt lat="43.98051" lon="5.90223">
        <ele>511</ele>
        <time>2020-10-05T08:59:52.000Z</time>
      </trkpt>
      <trkpt lat="43.98052" lon="5.90224">
        <ele>511</ele>
        <time>2020-10-05T08:59:53.000Z</time>
      </trkpt>
      <trkpt lat="43.98053" lon="5.90225">
        <ele>511</ele>
        <time>2020-10-05T08:59:54.000Z</time>
      </trkpt>
      <trkpt lat="43.98053" lon="5.90227">
        <ele>511</ele>
        <time>2020-10-05T08:59:55.000Z</time>
      </trkpt>
      <trkpt lat="43.98054" lon="5.90228">
        <ele>510</ele>
        <time>2020-10-05T08:59:56.000Z</time>
      </trkpt>
      <trkpt lat="43.98055" lon="5.90229">
        <ele>510</ele>
        <time>2020-10-05T08:59:57.000Z</time>
      </trkpt>
      <trkpt lat="43.98055" lon="5.90231">
        <ele>510</ele>
        <time>2020-10-05T08:59:58.000Z</time>
      </trkpt>
      <trkpt lat="43.98056" lon="5.90232">
        <ele>510</ele>
        <time>2020-10-05T08:59:59.000Z</time>
      </trkpt>
      <trkpt lat="43.98057" lon="5.90233">
        <ele>510</ele>
        <time>2020-10-05T09:00:00.000Z</time>
      </trkpt>
      <trkpt lat="43.98058" lon="5.90234">
        <ele>510</ele>
        <time>2020-10-05T09:00:01.000Z</time>
      </trkpt>
      <trkpt lat="43.98058" lon="5.90235">
        <ele>509</ele>
        <time>2020-10-05T09:00:02.000Z</time>
      </trkpt>
      <trkpt lat="43.98059" lon="5.90237">
        <ele>509</ele>
        <time>2020-10-05T09:00:03.000Z</time>
      </trkpt>
      <trkpt lat="43.9806" lon="5.90237">
        <ele>509</ele>
        <time>2020-10-05T09:00:04.000Z</time>
      </trkpt>
      <trkpt lat="43.98061" lon="5.90239">
        <ele>509</ele>
        <time>2020-10-05T09:00:05.000Z</time>
      </trkpt>
      <trkpt lat="43.98061" lon="5.9024">
        <ele>509</ele>
        <time>2020-10-05T09:00:06.000Z</time>
      </trkpt>
      <trkpt lat="43.98062" lon="5.90241">
        <ele>509</ele>
        <time>2020-10-05T09:00:07.000Z</time>
      </trkpt>
      <trkpt lat="43.98062" lon="5.90242">
        <ele>509</ele>
        <time>2020-10-05T09:00:08.000Z</time>
      </trkpt>
      <trkpt lat="43.98063" lon="5.90243">
        <ele>509</ele>
        <time>2020-10-05T09:00:09.000Z</time>
      </trkpt>
      <trkpt lat="43.98064" lon="5.90244">
        <ele>508</ele>
        <time>2020-10-05T09:00:10.000Z</time>
      </trkpt>
      <trkpt lat="43.98065" lon="5.90244">
        <ele>508</ele>
        <time>2020-10-05T09:00:11.000Z</time>
      </trkpt>
      <trkpt lat="43.98066" lon="5.90245">
        <ele>508</ele>
        <time>2020-10-05T09:00:12.000Z</time>
      </trkpt>
      <trkpt lat="43.98066" lon="5.90246">
        <ele>508</ele>
        <time>2020-10-05T09:00:13.000Z</time>
      </trkpt>
      <trkpt lat="43.98066" lon="5.90246">
        <ele>508</ele>
        <time>2020-10-05T09:00:14.000Z</time>
      </trkpt>
      <trkpt lat="43.98067" lon="5.90246">
        <ele>508</ele>
        <time>2020-10-05T09:00:15.000Z</time>
      </trkpt>
      <trkpt lat="43.98067" lon="5.90246">
        <ele>508</ele>
        <time>2020-10-05T09:00:16.000Z</time>
      </trkpt>
      <trkpt lat="43.98067" lon="5.90246">
        <ele>508</ele>
        <time>2020-10-05T09:00:17.000Z</time>
      </trkpt>
      <trkpt lat="43.98067" lon="5.90246">
        <ele>508</ele>
        <time>2020-10-05T09:00:18.000Z</time>
      </trkpt>
      <trkpt lat="43.98067" lon="5.90246">
        <ele>508</ele>
        <time>2020-10-05T09:00:19.000Z</time>
      </trkpt>
      <trkpt lat="43.98067" lon="5.90246">
        <ele>508</ele>
        <time>2020-10-05T09:00:20.000Z</time>
      </trkpt>
      <trkpt lat="43.98067" lon="5.90246">
        <ele>508</ele>
        <time>2020-10-05T09:00:21.000Z</time>
      </trkpt>
      <trkpt lat="43.98067" lon="5.90246">
        <ele>508</ele>
        <time>2020-10-05T09:00:22.000Z</time>
      </trkpt>
      <trkpt lat="43.98067" lon="5.90246">
        <ele>508</ele>
        <time>2020-10-05T09:00:23.000Z</time>
      </trkpt>
      <trkpt lat="43.98067" lon="5.90246">
        <ele>508</ele>
        <time>2020-10-05T09:00:24.000Z</time>
      </trkpt>
      <trkpt lat="43.98067" lon="5.90246">
        <ele>508</ele>
        <time>2020-10-05T09:00:25.000Z</time>
      </trkpt>
      <trkpt lat="43.98067" lon="5.90246">
        <ele>508</ele>
        <time>2020-10-05T09:00:26.000Z</time>
      </trkpt>
      <trkpt lat="43.98067" lon="5.90246">
        <ele>508</ele>
        <time>2020-10-05T09:00:27.000Z</time>
      </trkpt>
      <trkpt lat="43.98068" lon="5.90246">
        <ele>508</ele>
        <time>2020-10-05T09:00:28.000Z</time>
      </trkpt>
      <trkpt lat="43.98068" lon="5.90246">
        <ele>508</ele>
        <time>2020-10-05T09:00:29.000Z</time>
      </trkpt>
      <trkpt lat="43.98068" lon="5.90246">
        <ele>508</ele>
        <time>2020-10-05T09:00:30.000Z</time>
      </trkpt>
      <trkpt lat="43.98068" lon="5.90246">
        <ele>508</ele>
        <time>2020-10-05T09:00:31.000Z</time>
      </trkpt>
      <trkpt lat="43.98067" lon="5.90246">
        <ele>508</ele>
        <time>2020-10-05T09:00:32.000Z</time>
      </trkpt>
      <trkpt lat="43.98067" lon="5.90246">
        <ele>508</ele>
        <time>2020-10-05T09:00:33.000Z</time>
      </trkpt>
      <trkpt lat="43.98067" lon="5.90246">
        <ele>508</ele>
        <time>2020-10-05T09:00:34.000Z</time>
      </trkpt>
      <trkpt lat="43.98067" lon="5.90246">
        <ele>508</ele>
        <time>2020-10-05T09:00:35.000Z</time>
      </trkpt>
      <trkpt lat="43.98067" lon="5.90246">
        <ele>508</ele>
        <time>2020-10-05T09:00:36.000Z</time>
      </trkpt>
      <trkpt lat="43.98067" lon="5.90246">
        <ele>508</ele>
        <time>2020-10-05T09:00:37.000Z</time>
      </trkpt>
      <trkpt lat="43.98067" lon="5.90246">
        <ele>508</ele>
        <time>2020-10-05T09:00:38.000Z</time>
      </trkpt>
      <trkpt lat="43.98067" lon="5.90246">
        <ele>508</ele>
        <time>2020-10-05T09:00:39.000Z</time>
      </trkpt>
      <trkpt lat="43.98067" lon="5.90246">
        <ele>508</ele>
        <time>2020-10-05T09:00:40.000Z</time>
      </trkpt>
      <trkpt lat="43.98068" lon="5.90246">
        <ele>508</ele>
        <time>2020-10-05T09:00:41.000Z</time>
      </trkpt>
      <trkpt lat="43.98068" lon="5.90246">
        <ele>508</ele>
        <time>2020-10-05T09:00:42.000Z</time>
      </trkpt>
      <trkpt lat="43.98067" lon="5.90246">
        <ele>508</ele>
        <time>2020-10-05T09:00:43.000Z</time>
      </trkpt>
      <trkpt lat="43.98067" lon="5.90246">
        <ele>508</ele>
        <time>2020-10-05T09:00:44.000Z</time>
      </trkpt>
      <trkpt lat="43.98067" lon="5.90246">
        <ele>508</ele>
        <time>2020-10-05T09:00:45.000Z</time>
      </trkpt>
      <trkpt lat="43.98067" lon="5.90246">
        <ele>508</ele>
        <time>2020-10-05T09:00:46.000Z</time>
      </trkpt>
      <trkpt lat="43.98067" lon="5.90246">
        <ele>508</ele>
        <time>2020-10-05T09:00:47.000Z</time>
      </trkpt>
      <trkpt lat="43.98067" lon="5.90246">
        <ele>508</ele>
        <time>2020-10-05T09:00:48.000Z</time>
      </trkpt>
      <trkpt lat="43.98067" lon="5.90247">
        <ele>508</ele>
        <time>2020-10-05T09:00:49.000Z</time>
      </trkpt>
      <trkpt lat="43.98067" lon="5.90247">
        <ele>508</ele>
        <time>2020-10-05T09:00:50.000Z</time>
      </trkpt>
      <trkpt lat="43.98067" lon="5.90247">
        <ele>508</ele>
        <time>2020-10-05T09:00:51.000Z</time>
      </trkpt>
      <trkpt lat="43.98067" lon="5.90247">
        <ele>508</ele>
        <time>2020-10-05T09:00:52.000Z</time>
      </trkpt>
      <trkpt lat="43.98067" lon="5.90247">
        <ele>508</ele>
        <time>2020-10-05T09:00:53.000Z</time>
      </trkpt>
      <trkpt lat="43.98067" lon="5.90247">
        <ele>508</ele>
        <time>2020-10-05T09:00:54.000Z</time>
      </trkpt>
      <trkpt lat="43.98067" lon="5.90247">
        <ele>508</ele>
        <time>2020-10-05T09:00:55.000Z</time>
      </trkpt>
      <trkpt lat="43.98067" lon="5.90247">
        <ele>508</ele>
        <time>2020-10-05T09:00:56.000Z</time>
      </trkpt>
      <trkpt lat="43.98067" lon="5.90247">
        <ele>508</ele>
        <time>2020-10-05T09:00:57.000Z</time>
      </trkpt>
      <trkpt lat="43.98067" lon="5.90247">
        <ele>508</ele>
        <time>2020-10-05T09:00:58.000Z</time>
      </trkpt>
      <trkpt lat="43.98067" lon="5.90247">
        <ele>508</ele>
        <time>2020-10-05T09:00:59.000Z</time>
      </trkpt>
      <trkpt lat="43.98067" lon="5.90247">
        <ele>508</ele>
        <time>2020-10-05T09:01:00.000Z</time>
      </trkpt>
      <trkpt lat="43.98067" lon="5.90247">
        <ele>508</ele>
        <time>2020-10-05T09:01:01.000Z</time>
      </trkpt>
      <trkpt lat="43.98067" lon="5.90247">
        <ele>508</ele>
        <time>2020-10-05T09:01:02.000Z</time>
      </trkpt>
      <trkpt lat="43.98067" lon="5.90247">
        <ele>508</ele>
        <time>2020-10-05T09:01:03.000Z</time>
      </trkpt>
      <trkpt lat="43.98067" lon="5.90247">
        <ele>508</ele>
        <time>2020-10-05T09:01:04.000Z</time>
      </trkpt>
      <trkpt lat="43.98067" lon="5.90247">
        <ele>508</ele>
        <time>2020-10-05T09:01:05.000Z</time>
      </trkpt>
      <trkpt lat="43.98067" lon="5.90247">
        <ele>508</ele>
        <time>2020-10-05T09:01:06.000Z</time>
      </trkpt>
      <trkpt lat="43.98067" lon="5.90247">
        <ele>508</ele>
        <time>2020-10-05T09:01:07.000Z</time>
      </trkpt>
      <trkpt lat="43.98067" lon="5.90247">
        <ele>508</ele>
        <time>2020-10-05T09:01:08.000Z</time>
      </trkpt>
      <trkpt lat="43.98067" lon="5.90247">
        <ele>508</ele>
        <time>2020-10-05T09:01:09.000Z</time>
      </trkpt>
      <trkpt lat="43.98067" lon="5.90247">
        <ele>508</ele>
        <time>2020-10-05T09:01:10.000Z</time>
      </trkpt>
      <trkpt lat="43.98067" lon="5.90247">
        <ele>508</ele>
        <time>2020-10-05T09:01:11.000Z</time>
      </trkpt>
      <trkpt lat="43.98067" lon="5.90247">
        <ele>508</ele>
        <time>2020-10-05T09:01:12.000Z</time>
      </trkpt>
      <trkpt lat="43.98067" lon="5.90247">
        <ele>508</ele>
        <time>2020-10-05T09:01:13.000Z</time>
      </trkpt>
      <trkpt lat="43.98067" lon="5.90246">
        <ele>508</ele>
        <time>2020-10-05T09:01:14.000Z</time>
      </trkpt>
      <trkpt lat="43.98067" lon="5.90246">
        <ele>508</ele>
        <time>2020-10-05T09:01:15.000Z</time>
      </trkpt>
      <trkpt lat="43.98066" lon="5.90246">
        <ele>508</ele>
        <time>2020-10-05T09:01:16.000Z</time>
      </trkpt>
      <trkpt lat="43.98067" lon="5.90246">
        <ele>508</ele>
        <time>2020-10-05T09:01:17.000Z</time>
      </trkpt>
      <trkpt lat="43.98067" lon="5.90246">
        <ele>508</ele>
        <time>2020-10-05T09:01:18.000Z</time>
      </trkpt>
      <trkpt lat="43.98067" lon="5.90246">
        <ele>508</ele>
        <time>2020-10-05T09:01:19.000Z</time>
      </trkpt>
      <trkpt lat="43.98067" lon="5.90246">
        <ele>508</ele>
        <time>2020-10-05T09:01:20.000Z</time>
      </trkpt>
      <trkpt lat="43.98067" lon="5.90246">
        <ele>508</ele>
        <time>2020-10-05T09:01:21.000Z</time>
      </trkpt>
      <trkpt lat="43.98067" lon="5.90246">
        <ele>508</ele>
        <time>2020-10-05T09:01:22.000Z</time>
      </trkpt>
      <trkpt lat="43.98067" lon="5.90246">
        <ele>508</ele>
        <time>2020-10-05T09:01:23.000Z</time>
      </trkpt>
      <trkpt lat="43.98068" lon="5.90245">
        <ele>508</ele>
        <time>2020-10-05T09:01:24.000Z</time>
      </trkpt>
      <trkpt lat="43.98068" lon="5.90245">
        <ele>508</ele>
        <time>2020-10-05T09:01:25.000Z</time>
      </trkpt>
      <trkpt lat="43.98068" lon="5.90245">
        <ele>508</ele>
        <time>2020-10-05T09:01:26.000Z</time>
      </trkpt>
      <trkpt lat="43.98068" lon="5.90245">
        <ele>508</ele>
        <time>2020-10-05T09:01:27.000Z</time>
      </trkpt>
      <trkpt lat="43.98068" lon="5.90245">
        <ele>508</ele>
        <time>2020-10-05T09:01:28.000Z</time>
      </trkpt>
      <trkpt lat="43.98068" lon="5.90245">
        <ele>508</ele>
        <time>2020-10-05T09:01:29.000Z</time>
      </trkpt>
      <trkpt lat="43.98068" lon="5.90245">
        <ele>508</ele>
        <time>2020-10-05T09:01:30.000Z</time>
      </trkpt>
      <trkpt lat="43.98068" lon="5.90245">
        <ele>508</ele>
        <time>2020-10-05T09:01:31.000Z</time>
      </trkpt>
      <trkpt lat="43.98068" lon="5.90245">
        <ele>508</ele>
        <time>2020-10-05T09:01:32.000Z</time>
      </trkpt>
      <trkpt lat="43.98068" lon="5.90245">
        <ele>508</ele>
        <time>2020-10-05T09:01:33.000Z</time>
      </trkpt>
      <trkpt lat="43.98068" lon="5.90245">
        <ele>508</ele>
        <time>2020-10-05T09:01:34.000Z</time>
      </trkpt>
      <trkpt lat="43.98068" lon="5.90245">
        <ele>508</ele>
        <time>2020-10-05T09:01:35.000Z</time>
      </trkpt>
      <trkpt lat="43.98068" lon="5.90245">
        <ele>508</ele>
        <time>2020-10-05T09:01:36.000Z</time>
      </trkpt>
      <trkpt lat="43.98068" lon="5.90245">
        <ele>508</ele>
        <time>2020-10-05T09:01:37.000Z</time>
      </trkpt>
      <trkpt lat="43.98068" lon="5.90245">
        <ele>508</ele>
        <time>2020-10-05T09:01:38.000Z</time>
      </trkpt>
      <trkpt lat="43.98068" lon="5.90245">
        <ele>508</ele>
        <time>2020-10-05T09:01:39.000Z</time>
      </trkpt>
      <trkpt lat="43.98068" lon="5.90245">
        <ele>508</ele>
        <time>2020-10-05T09:01:40.000Z</time>
      </trkpt>
      <trkpt lat="43.98068" lon="5.90245">
        <ele>508</ele>
        <time>2020-10-05T09:01:41.000Z</time>
      </trkpt>
      <trkpt lat="43.98068" lon="5.90245">
        <ele>508</ele>
        <time>2020-10-05T09:01:42.000Z</time>
      </trkpt>
      <trkpt lat="43.98068" lon="5.90245">
        <ele>508</ele>
        <time>2020-10-05T09:01:43.000Z</time>
      </trkpt>
      <trkpt lat="43.98068" lon="5.90245">
        <ele>508</ele>
        <time>2020-10-05T09:01:44.000Z</time>
      </trkpt>
      <trkpt lat="43.98068" lon="5.90245">
        <ele>508</ele>
        <time>2020-10-05T09:01:45.000Z</time>
      </trkpt>
      <trkpt lat="43.98068" lon="5.90245">
        <ele>508</ele>
        <time>2020-10-05T09:01:46.000Z</time>
      </trkpt>
      <trkpt lat="43.98068" lon="5.90245">
        <ele>508</ele>
        <time>2020-10-05T09:01:47.000Z</time>
      </trkpt>
      <trkpt lat="43.98068" lon="5.90245">
        <ele>508</ele>
        <time>2020-10-05T09:01:48.000Z</time>
      </trkpt>
      <trkpt lat="43.98068" lon="5.90245">
        <ele>508</ele>
        <time>2020-10-05T09:01:49.000Z</time>
      </trkpt>
      <trkpt lat="43.98068" lon="5.90245">
        <ele>508</ele>
        <time>2020-10-05T09:01:50.000Z</time>
      </trkpt>
      <trkpt lat="43.98068" lon="5.90245">
        <ele>508</ele>
        <time>2020-10-05T09:01:51.000Z</time>
      </trkpt>
      <trkpt lat="43.98068" lon="5.90245">
        <ele>508</ele>
        <time>2020-10-05T09:01:52.000Z</time>
      </trkpt>
      <trkpt lat="43.98068" lon="5.90245">
        <ele>508</ele>
        <time>2020-10-05T09:01:53.000Z</time>
      </trkpt>
      <trkpt lat="43.98068" lon="5.90245">
        <ele>508</ele>
        <time>2020-10-05T09:01:54.000Z</time>
      </trkpt>
      <trkpt lat="43.98068" lon="5.90245">
        <ele>508</ele>
        <time>2020-10-05T09:01:55.000Z</time>
      </trkpt>
      <trkpt lat="43.98068" lon="5.90245">
        <ele>508</ele>
        <time>2020-10-05T09:01:56.000Z</time>
      </trkpt>
      <trkpt lat="43.98068" lon="5.90245">
        <ele>508</ele>
        <time>2020-10-05T09:01:57.000Z</time>
      </trkpt>
      <trkpt lat="43.98068" lon="5.90245">
        <ele>508</ele>
        <time>2020-10-05T09:01:58.000Z</time>
      </trkpt>
      <trkpt lat="43.98068" lon="5.90245">
        <ele>508</ele>
        <time>2020-10-05T09:01:59.000Z</time>
      </trkpt>
      <trkpt lat="43.98068" lon="5.90245">
        <ele>508</ele>
        <time>2020-10-05T09:02:00.000Z</time>
      </trkpt>
      <trkpt lat="43.98068" lon="5.90245">
        <ele>508</ele>
        <time>2020-10-05T09:02:01.000Z</time>
      </trkpt>
      <trkpt lat="43.98068" lon="5.90245">
        <ele>508</ele>
        <time>2020-10-05T09:02:02.000Z</time>
      </trkpt>
      <trkpt lat="43.98068" lon="5.90245">
        <ele>508</ele>
        <time>2020-10-05T09:02:03.000Z</time>
      </trkpt>
      <trkpt lat="43.98068" lon="5.90245">
        <ele>508</ele>
        <time>2020-10-05T09:02:04.000Z</time>
      </trkpt>
      <trkpt lat="43.98068" lon="5.90245">
        <ele>508</ele>
        <time>2020-10-05T09:02:05.000Z</time>
      </trkpt>
      <trkpt lat="43.98068" lon="5.90245">
        <ele>508</ele>
        <time>2020-10-05T09:02:06.000Z</time>
      </trkpt>
      <trkpt lat="43.98068" lon="5.90245">
        <ele>508</ele>
        <time>2020-10-05T09:02:07.000Z</time>
      </trkpt>
      <trkpt lat="43.98068" lon="5.90245">
        <ele>508</ele>
        <time>2020-10-05T09:02:08.000Z</time>
      </trkpt>
      <trkpt lat="43.98068" lon="5.90245">
        <ele>508</ele>
        <time>2020-10-05T09:02:09.000Z</time>
      </trkpt>
      <trkpt lat="43.98068" lon="5.90245">
        <ele>508</ele>
        <time>2020-10-05T09:02:10.000Z</time>
      </trkpt>
      <trkpt lat="43.98068" lon="5.90245">
        <ele>508</ele>
        <time>2020-10-05T09:02:11.000Z</time>
      </trkpt>
      <trkpt lat="43.98068" lon="5.90245">
        <ele>508</ele>
        <time>2020-10-05T09:02:12.000Z</time>
      </trkpt>
      <trkpt lat="43.98068" lon="5.90245">
        <ele>508</ele>
        <time>2020-10-05T09:02:13.000Z</time>
      </trkpt>
      <trkpt lat="43.98068" lon="5.90245">
        <ele>508</ele>
        <time>2020-10-05T09:02:14.000Z</time>
      </trkpt>
      <trkpt lat="43.98068" lon="5.90245">
        <ele>508</ele>
        <time>2020-10-05T09:02:15.000Z</time>
      </trkpt>
      <trkpt lat="43.98068" lon="5.90245">
        <ele>508</ele>
        <time>2020-10-05T09:02:16.000Z</time>
      </trkpt>
      <trkpt lat="43.98068" lon="5.90245">
        <ele>508</ele>
        <time>2020-10-05T09:02:17.000Z</time>
      </trkpt>
      <trkpt lat="43.98068" lon="5.90245">
        <ele>508</ele>
        <time>2020-10-05T09:02:18.000Z</time>
      </trkpt>
      <trkpt lat="43.98068" lon="5.90245">
        <ele>508</ele>
        <time>2020-10-05T09:02:19.000Z</time>
      </trkpt>
      <trkpt lat="43.98068" lon="5.90246">
        <ele>508</ele>
        <time>2020-10-05T09:02:20.000Z</time>
      </trkpt>
      <trkpt lat="43.98067" lon="5.90247">
        <ele>508</ele>
        <time>2020-10-05T09:02:21.000Z</time>
      </trkpt>
      <trkpt lat="43.98066" lon="5.90247">
        <ele>508</ele>
        <time>2020-10-05T09:02:22.000Z</time>
      </trkpt>
      <trkpt lat="43.98065" lon="5.90248">
        <ele>508</ele>
        <time>2020-10-05T09:02:23.000Z</time>
      </trkpt>
      <trkpt lat="43.98064" lon="5.90248">
        <ele>508</ele>
        <time>2020-10-05T09:02:24.000Z</time>
      </trkpt>
      <trkpt lat="43.98064" lon="5.90249">
        <ele>508</ele>
        <time>2020-10-05T09:02:25.000Z</time>
      </trkpt>
      <trkpt lat="43.98064" lon="5.90251">
        <ele>508</ele>
        <time>2020-10-05T09:02:26.000Z</time>
      </trkpt>
      <trkpt lat="43.98064" lon="5.90252">
        <ele>508</ele>
        <time>2020-10-05T09:02:27.000Z</time>
      </trkpt>
      <trkpt lat="43.98064" lon="5.90253">
        <ele>508</ele>
        <time>2020-10-05T09:02:28.000Z</time>
      </trkpt>
      <trkpt lat="43.98064" lon="5.90255">
        <ele>508</ele>
        <time>2020-10-05T09:02:29.000Z</time>
      </trkpt>
      <trkpt lat="43.98064" lon="5.90256">
        <ele>508</ele>
        <time>2020-10-05T09:02:30.000Z</time>
      </trkpt>
      <trkpt lat="43.98065" lon="5.90258">
        <ele>508</ele>
        <time>2020-10-05T09:02:31.000Z</time>
      </trkpt>
      <trkpt lat="43.98065" lon="5.90259">
        <ele>508</ele>
        <time>2020-10-05T09:02:32.000Z</time>
      </trkpt>
      <trkpt lat="43.98066" lon="5.90261">
        <ele>508</ele>
        <time>2020-10-05T09:02:33.000Z</time>
      </trkpt>
      <trkpt lat="43.98066" lon="5.90263">
        <ele>507</ele>
        <time>2020-10-05T09:02:34.000Z</time>
      </trkpt>
      <trkpt lat="43.98066" lon="5.90265">
        <ele>507</ele>
        <time>2020-10-05T09:02:35.000Z</time>
      </trkpt>
      <trkpt lat="43.98066" lon="5.90266">
        <ele>507</ele>
        <time>2020-10-05T09:02:36.000Z</time>
      </trkpt>
      <trkpt lat="43.98066" lon="5.90268">
        <ele>507</ele>
        <time>2020-10-05T09:02:37.000Z</time>
      </trkpt>
      <trkpt lat="43.98066" lon="5.9027">
        <ele>507</ele>
        <time>2020-10-05T09:02:38.000Z</time>
      </trkpt>
      <trkpt lat="43.98066" lon="5.90271">
        <ele>507</ele>
        <time>2020-10-05T09:02:39.000Z</time>
      </trkpt>
      <trkpt lat="43.98066" lon="5.90273">
        <ele>507</ele>
        <time>2020-10-05T09:02:40.000Z</time>
      </trkpt>
      <trkpt lat="43.98066" lon="5.90275">
        <ele>506</ele>
        <time>2020-10-05T09:02:41.000Z</time>
      </trkpt>
      <trkpt lat="43.98066" lon="5.90276">
        <ele>506</ele>
        <time>2020-10-05T09:02:42.000Z</time>
      </trkpt>
      <trkpt lat="43.98066" lon="5.90278">
        <ele>506</ele>
        <time>2020-10-05T09:02:43.000Z</time>
      </trkpt>
      <trkpt lat="43.98065" lon="5.90279">
        <ele>506</ele>
        <time>2020-10-05T09:02:44.000Z</time>
      </trkpt>
      <trkpt lat="43.98065" lon="5.90281">
        <ele>506</ele>
        <time>2020-10-05T09:02:45.000Z</time>
      </trkpt>
      <trkpt lat="43.98065" lon="5.90282">
        <ele>506</ele>
        <time>2020-10-05T09:02:46.000Z</time>
      </trkpt>
      <trkpt lat="43.98065" lon="5.90284">
        <ele>505</ele>
        <time>2020-10-05T09:02:47.000Z</time>
      </trkpt>
      <trkpt lat="43.98066" lon="5.90285">
        <ele>505</ele>
        <time>2020-10-05T09:02:48.000Z</time>
      </trkpt>
      <trkpt lat="43.98066" lon="5.90286">
        <ele>505</ele>
        <time>2020-10-05T09:02:49.000Z</time>
      </trkpt>
      <trkpt lat="43.98066" lon="5.90287">
        <ele>505</ele>
        <time>2020-10-05T09:02:50.000Z</time>
      </trkpt>
      <trkpt lat="43.98066" lon="5.90287">
        <ele>505</ele>
        <time>2020-10-05T09:02:51.000Z</time>
      </trkpt>
      <trkpt lat="43.98066" lon="5.90287">
        <ele>505</ele>
        <time>2020-10-05T09:02:52.000Z</time>
      </trkpt>
      <trkpt lat="43.98066" lon="5.90287">
        <ele>505</ele>
        <time>2020-10-05T09:02:53.000Z</time>
      </trkpt>
      <trkpt lat="43.98066" lon="5.90287">
        <ele>505</ele>
        <time>2020-10-05T09:02:54.000Z</time>
      </trkpt>
      <trkpt lat="43.98066" lon="5.90288">
        <ele>505</ele>
        <time>2020-10-05T09:02:55.000Z</time>
      </trkpt>
      <trkpt lat="43.98066" lon="5.90289">
        <ele>504</ele>
        <time>2020-10-05T09:02:56.000Z</time>
      </trkpt>
      <trkpt lat="43.98067" lon="5.9029">
        <ele>504</ele>
        <time>2020-10-05T09:02:57.000Z</time>
      </trkpt>
      <trkpt lat="43.98067" lon="5.90291">
        <ele>504</ele>
        <time>2020-10-05T09:02:58.000Z</time>
      </trkpt>
      <trkpt lat="43.98068" lon="5.90291">
        <ele>504</ele>
        <time>2020-10-05T09:02:59.000Z</time>
      </trkpt>
      <trkpt lat="43.98068" lon="5.90292">
        <ele>504</ele>
        <time>2020-10-05T09:03:00.000Z</time>
      </trkpt>
      <trkpt lat="43.98069" lon="5.90293">
        <ele>504</ele>
        <time>2020-10-05T09:03:01.000Z</time>
      </trkpt>
      <trkpt lat="43.9807" lon="5.90293">
        <ele>503</ele>
        <time>2020-10-05T09:03:02.000Z</time>
      </trkpt>
      <trkpt lat="43.9807" lon="5.90294">
        <ele>503</ele>
        <time>2020-10-05T09:03:03.000Z</time>
      </trkpt>
      <trkpt lat="43.98071" lon="5.90295">
        <ele>503</ele>
        <time>2020-10-05T09:03:04.000Z</time>
      </trkpt>
      <trkpt lat="43.98072" lon="5.90295">
        <ele>503</ele>
        <time>2020-10-05T09:03:05.000Z</time>
      </trkpt>
      <trkpt lat="43.98073" lon="5.90296">
        <ele>503</ele>
        <time>2020-10-05T09:03:06.000Z</time>
      </trkpt>
      <trkpt lat="43.98074" lon="5.90296">
        <ele>502</ele>
        <time>2020-10-05T09:03:07.000Z</time>
      </trkpt>
      <trkpt lat="43.98075" lon="5.90297">
        <ele>502</ele>
        <time>2020-10-05T09:03:08.000Z</time>
      </trkpt>
      <trkpt lat="43.98075" lon="5.90298">
        <ele>502</ele>
        <time>2020-10-05T09:03:09.000Z</time>
      </trkpt>
      <trkpt lat="43.98076" lon="5.90299">
        <ele>502</ele>
        <time>2020-10-05T09:03:10.000Z</time>
      </trkpt>
      <trkpt lat="43.98077" lon="5.903">
        <ele>502</ele>
        <time>2020-10-05T09:03:11.000Z</time>
      </trkpt>
      <trkpt lat="43.98078" lon="5.90301">
        <ele>501</ele>
        <time>2020-10-05T09:03:12.000Z</time>
      </trkpt>
      <trkpt lat="43.98078" lon="5.90302">
        <ele>501</ele>
        <time>2020-10-05T09:03:13.000Z</time>
      </trkpt>
      <trkpt lat="43.98079" lon="5.90303">
        <ele>501</ele>
        <time>2020-10-05T09:03:14.000Z</time>
      </trkpt>
      <trkpt lat="43.9808" lon="5.90304">
        <ele>501</ele>
        <time>2020-10-05T09:03:15.000Z</time>
      </trkpt>
      <trkpt lat="43.98081" lon="5.90305">
        <ele>501</ele>
        <time>2020-10-05T09:03:16.000Z</time>
      </trkpt>
      <trkpt lat="43.98081" lon="5.90306">
        <ele>500</ele>
        <time>2020-10-05T09:03:17.000Z</time>
      </trkpt>
      <trkpt lat="43.98082" lon="5.90307">
        <ele>500</ele>
        <time>2020-10-05T09:03:18.000Z</time>
      </trkpt>
      <trkpt lat="43.98083" lon="5.90309">
        <ele>500</ele>
        <time>2020-10-05T09:03:19.000Z</time>
      </trkpt>
      <trkpt lat="43.98084" lon="5.9031">
        <ele>500</ele>
        <time>2020-10-05T09:03:20.000Z</time>
      </trkpt>
      <trkpt lat="43.98084" lon="5.90311">
        <ele>499</ele>
        <time>2020-10-05T09:03:21.000Z</time>
      </trkpt>
      <trkpt lat="43.98085" lon="5.90312">
        <ele>499</ele>
        <time>2020-10-05T09:03:22.000Z</time>
      </trkpt>
      <trkpt lat="43.98086" lon="5.90313">
        <ele>499</ele>
        <time>2020-10-05T09:03:23.000Z</time>
      </trkpt>
      <trkpt lat="43.98087" lon="5.90314">
        <ele>499</ele>
        <time>2020-10-05T09:03:24.000Z</time>
      </trkpt>
      <trkpt lat="43.98088" lon="5.90315">
        <ele>499</ele>
        <time>2020-10-05T09:03:25.000Z</time>
      </trkpt>
      <trkpt lat="43.98088" lon="5.90317">
        <ele>499</ele>
        <time>2020-10-05T09:03:26.000Z</time>
      </trkpt>
      <trkpt lat="43.98089" lon="5.90318">
        <ele>499</ele>
        <time>2020-10-05T09:03:27.000Z</time>
      </trkpt>
      <trkpt lat="43.9809" lon="5.90319">
        <ele>499</ele>
        <time>2020-10-05T09:03:28.000Z</time>
      </trkpt>
      <trkpt lat="43.98091" lon="5.9032">
        <ele>498</ele>
        <time>2020-10-05T09:03:29.000Z</time>
      </trkpt>
      <trkpt lat="43.98092" lon="5.90321">
        <ele>498</ele>
        <time>2020-10-05T09:03:30.000Z</time>
      </trkpt>
      <trkpt lat="43.98092" lon="5.90322">
        <ele>498</ele>
        <time>2020-10-05T09:03:31.000Z</time>
      </trkpt>
      <trkpt lat="43.98093" lon="5.90323">
        <ele>498</ele>
        <time>2020-10-05T09:03:32.000Z</time>
      </trkpt>
      <trkpt lat="43.98094" lon="5.90324">
        <ele>498</ele>
        <time>2020-10-05T09:03:33.000Z</time>
      </trkpt>
      <trkpt lat="43.98095" lon="5.90325">
        <ele>498</ele>
        <time>2020-10-05T09:03:34.000Z</time>
      </trkpt>
      <trkpt lat="43.98095" lon="5.90326">
        <ele>498</ele>
        <time>2020-10-05T09:03:35.000Z</time>
      </trkpt>
      <trkpt lat="43.98096" lon="5.90327">
        <ele>497</ele>
        <time>2020-10-05T09:03:36.000Z</time>
      </trkpt>
      <trkpt lat="43.98097" lon="5.90328">
        <ele>497</ele>
        <time>2020-10-05T09:03:37.000Z</time>
      </trkpt>
      <trkpt lat="43.98098" lon="5.90329">
        <ele>497</ele>
        <time>2020-10-05T09:03:38.000Z</time>
      </trkpt>
      <trkpt lat="43.98098" lon="5.9033">
        <ele>497</ele>
        <time>2020-10-05T09:03:39.000Z</time>
      </trkpt>
      <trkpt lat="43.98099" lon="5.90331">
        <ele>497</ele>
        <time>2020-10-05T09:03:40.000Z</time>
      </trkpt>
      <trkpt lat="43.981" lon="5.90332">
        <ele>497</ele>
        <time>2020-10-05T09:03:41.000Z</time>
      </trkpt>
      <trkpt lat="43.98101" lon="5.90333">
        <ele>497</ele>
        <time>2020-10-05T09:03:42.000Z</time>
      </trkpt>
      <trkpt lat="43.98102" lon="5.90334">
        <ele>497</ele>
        <time>2020-10-05T09:03:43.000Z</time>
      </trkpt>
      <trkpt lat="43.98102" lon="5.90335">
        <ele>497</ele>
        <time>2020-10-05T09:03:44.000Z</time>
      </trkpt>
      <trkpt lat="43.98103" lon="5.90336">
        <ele>497</ele>
        <time>2020-10-05T09:03:45.000Z</time>
      </trkpt>
      <trkpt lat="43.98104" lon="5.90337">
        <ele>497</ele>
        <time>2020-10-05T09:03:46.000Z</time>
      </trkpt>
      <trkpt lat="43.98104" lon="5.90337">
        <ele>496</ele>
        <time>2020-10-05T09:03:47.000Z</time>
      </trkpt>
      <trkpt lat="43.98105" lon="5.90338">
        <ele>496</ele>
        <time>2020-10-05T09:03:48.000Z</time>
      </trkpt>
      <trkpt lat="43.98105" lon="5.9034">
        <ele>496</ele>
        <time>2020-10-05T09:03:49.000Z</time>
      </trkpt>
      <trkpt lat="43.98105" lon="5.9034">
        <ele>496</ele>
        <time>2020-10-05T09:03:50.000Z</time>
      </trkpt>
      <trkpt lat="43.98106" lon="5.90341">
        <ele>496</ele>
        <time>2020-10-05T09:03:51.000Z</time>
      </trkpt>
      <trkpt lat="43.98106" lon="5.90341">
        <ele>496</ele>
        <time>2020-10-05T09:03:52.000Z</time>
      </trkpt>
      <trkpt lat="43.98107" lon="5.90342">
        <ele>496</ele>
        <time>2020-10-05T09:03:53.000Z</time>
      </trkpt>
      <trkpt lat="43.98107" lon="5.90342">
        <ele>496</ele>
        <time>2020-10-05T09:03:54.000Z</time>
      </trkpt>
      <trkpt lat="43.98107" lon="5.90343">
        <ele>496</ele>
        <time>2020-10-05T09:03:55.000Z</time>
      </trkpt>
      <trkpt lat="43.98108" lon="5.90344">
        <ele>495</ele>
        <time>2020-10-05T09:03:56.000Z</time>
      </trkpt>
      <trkpt lat="43.98109" lon="5.90344">
        <ele>495</ele>
        <time>2020-10-05T09:03:57.000Z</time>
      </trkpt>
      <trkpt lat="43.9811" lon="5.90345">
        <ele>495</ele>
        <time>2020-10-05T09:03:58.000Z</time>
      </trkpt>
      <trkpt lat="43.9811" lon="5.90346">
        <ele>495</ele>
        <time>2020-10-05T09:03:59.000Z</time>
      </trkpt>
      <trkpt lat="43.98111" lon="5.90346">
        <ele>495</ele>
        <time>2020-10-05T09:04:00.000Z</time>
      </trkpt>
      <trkpt lat="43.98111" lon="5.90347">
        <ele>495</ele>
        <time>2020-10-05T09:04:01.000Z</time>
      </trkpt>
      <trkpt lat="43.98112" lon="5.90348">
        <ele>495</ele>
        <time>2020-10-05T09:04:02.000Z</time>
      </trkpt>
      <trkpt lat="43.98113" lon="5.90349">
        <ele>494</ele>
        <time>2020-10-05T09:04:03.000Z</time>
      </trkpt>
      <trkpt lat="43.98113" lon="5.9035">
        <ele>494</ele>
        <time>2020-10-05T09:04:04.000Z</time>
      </trkpt>
      <trkpt lat="43.98114" lon="5.90351">
        <ele>494</ele>
        <time>2020-10-05T09:04:05.000Z</time>
      </trkpt>
      <trkpt lat="43.98115" lon="5.90352">
        <ele>494</ele>
        <time>2020-10-05T09:04:06.000Z</time>
      </trkpt>
      <trkpt lat="43.98115" lon="5.90353">
        <ele>494</ele>
        <time>2020-10-05T09:04:07.000Z</time>
      </trkpt>
      <trkpt lat="43.98116" lon="5.90354">
        <ele>493</ele>
        <time>2020-10-05T09:04:08.000Z</time>
      </trkpt>
      <trkpt lat="43.98116" lon="5.90354">
        <ele>493</ele>
        <time>2020-10-05T09:04:09.000Z</time>
      </trkpt>
      <trkpt lat="43.98117" lon="5.90355">
        <ele>493</ele>
        <time>2020-10-05T09:04:10.000Z</time>
      </trkpt>
      <trkpt lat="43.98118" lon="5.90356">
        <ele>493</ele>
        <time>2020-10-05T09:04:11.000Z</time>
      </trkpt>
      <trkpt lat="43.98119" lon="5.90357">
        <ele>493</ele>
        <time>2020-10-05T09:04:12.000Z</time>
      </trkpt>
      <trkpt lat="43.98119" lon="5.90359">
        <ele>492</ele>
        <time>2020-10-05T09:04:13.000Z</time>
      </trkpt>
      <trkpt lat="43.9812" lon="5.90359">
        <ele>492</ele>
        <time>2020-10-05T09:04:14.000Z</time>
      </trkpt>
      <trkpt lat="43.98121" lon="5.9036">
        <ele>492</ele>
        <time>2020-10-05T09:04:15.000Z</time>
      </trkpt>
      <trkpt lat="43.98122" lon="5.90361">
        <ele>492</ele>
        <time>2020-10-05T09:04:16.000Z</time>
      </trkpt>
      <trkpt lat="43.98122" lon="5.90362">
        <ele>492</ele>
        <time>2020-10-05T09:04:17.000Z</time>
      </trkpt>
      <trkpt lat="43.98123" lon="5.90363">
        <ele>491</ele>
        <time>2020-10-05T09:04:18.000Z</time>
      </trkpt>
      <trkpt lat="43.98124" lon="5.90364">
        <ele>491</ele>
        <time>2020-10-05T09:04:19.000Z</time>
      </trkpt>
      <trkpt lat="43.98124" lon="5.90365">
        <ele>491</ele>
        <time>2020-10-05T09:04:20.000Z</time>
      </trkpt>
      <trkpt lat="43.98125" lon="5.90365">
        <ele>491</ele>
        <time>2020-10-05T09:04:21.000Z</time>
      </trkpt>
      <trkpt lat="43.98126" lon="5.90366">
        <ele>491</ele>
        <time>2020-10-05T09:04:22.000Z</time>
      </trkpt>
      <trkpt lat="43.98127" lon="5.90367">
        <ele>490</ele>
        <time>2020-10-05T09:04:23.000Z</time>
      </trkpt>
      <trkpt lat="43.98128" lon="5.90368">
        <ele>490</ele>
        <time>2020-10-05T09:04:24.000Z</time>
      </trkpt>
      <trkpt lat="43.98128" lon="5.90368">
        <ele>490</ele>
        <time>2020-10-05T09:04:25.000Z</time>
      </trkpt>
      <trkpt lat="43.98129" lon="5.90369">
        <ele>490</ele>
        <time>2020-10-05T09:04:26.000Z</time>
      </trkpt>
      <trkpt lat="43.9813" lon="5.9037">
        <ele>490</ele>
        <time>2020-10-05T09:04:27.000Z</time>
      </trkpt>
      <trkpt lat="43.9813" lon="5.90371">
        <ele>489</ele>
        <time>2020-10-05T09:04:28.000Z</time>
      </trkpt>
      <trkpt lat="43.98131" lon="5.90372">
        <ele>489</ele>
        <time>2020-10-05T09:04:29.000Z</time>
      </trkpt>
      <trkpt lat="43.98132" lon="5.90372">
        <ele>489</ele>
        <time>2020-10-05T09:04:30.000Z</time>
      </trkpt>
      <trkpt lat="43.98132" lon="5.90373">
        <ele>489</ele>
        <time>2020-10-05T09:04:31.000Z</time>
      </trkpt>
      <trkpt lat="43.98133" lon="5.90374">
        <ele>488</ele>
        <time>2020-10-05T09:04:32.000Z</time>
      </trkpt>
      <trkpt lat="43.98133" lon="5.90375">
        <ele>488</ele>
        <time>2020-10-05T09:04:33.000Z</time>
      </trkpt>
      <trkpt lat="43.98134" lon="5.90376">
        <ele>488</ele>
        <time>2020-10-05T09:04:34.000Z</time>
      </trkpt>
      <trkpt lat="43.98135" lon="5.90376">
        <ele>488</ele>
        <time>2020-10-05T09:04:35.000Z</time>
      </trkpt>
      <trkpt lat="43.98135" lon="5.90377">
        <ele>487</ele>
        <time>2020-10-05T09:04:36.000Z</time>
      </trkpt>
      <trkpt lat="43.98136" lon="5.90378">
        <ele>487</ele>
        <time>2020-10-05T09:04:37.000Z</time>
      </trkpt>
      <trkpt lat="43.98136" lon="5.90379">
        <ele>487</ele>
        <time>2020-10-05T09:04:38.000Z</time>
      </trkpt>
      <trkpt lat="43.98137" lon="5.9038">
        <ele>487</ele>
        <time>2020-10-05T09:04:39.000Z</time>
      </trkpt>
      <trkpt lat="43.98138" lon="5.90381">
        <ele>487</ele>
        <time>2020-10-05T09:04:40.000Z</time>
      </trkpt>
      <trkpt lat="43.98139" lon="5.90382">
        <ele>487</ele>
        <time>2020-10-05T09:04:41.000Z</time>
      </trkpt>
      <trkpt lat="43.9814" lon="5.90383">
        <ele>486</ele>
        <time>2020-10-05T09:04:42.000Z</time>
      </trkpt>
      <trkpt lat="43.9814" lon="5.90383">
        <ele>486</ele>
        <time>2020-10-05T09:04:43.000Z</time>
      </trkpt>
      <trkpt lat="43.98141" lon="5.90384">
        <ele>486</ele>
        <time>2020-10-05T09:04:44.000Z</time>
      </trkpt>
      <trkpt lat="43.98141" lon="5.90385">
        <ele>486</ele>
        <time>2020-10-05T09:04:45.000Z</time>
      </trkpt>
      <trkpt lat="43.98142" lon="5.90386">
        <ele>486</ele>
        <time>2020-10-05T09:04:46.000Z</time>
      </trkpt>
      <trkpt lat="43.98143" lon="5.90387">
        <ele>486</ele>
        <time>2020-10-05T09:04:47.000Z</time>
      </trkpt>
      <trkpt lat="43.98144" lon="5.90388">
        <ele>485</ele>
        <time>2020-10-05T09:04:48.000Z</time>
      </trkpt>
      <trkpt lat="43.98145" lon="5.90389">
        <ele>485</ele>
        <time>2020-10-05T09:04:49.000Z</time>
      </trkpt>
      <trkpt lat="43.98146" lon="5.9039">
        <ele>485</ele>
        <time>2020-10-05T09:04:50.000Z</time>
      </trkpt>
      <trkpt lat="43.98146" lon="5.90391">
        <ele>485</ele>
        <time>2020-10-05T09:04:51.000Z</time>
      </trkpt>
      <trkpt lat="43.98147" lon="5.90392">
        <ele>485</ele>
        <time>2020-10-05T09:04:52.000Z</time>
      </trkpt>
      <trkpt lat="43.98147" lon="5.90393">
        <ele>485</ele>
        <time>2020-10-05T09:04:53.000Z</time>
      </trkpt>
      <trkpt lat="43.98148" lon="5.90394">
        <ele>484</ele>
        <time>2020-10-05T09:04:54.000Z</time>
      </trkpt>
      <trkpt lat="43.98149" lon="5.90395">
        <ele>484</ele>
        <time>2020-10-05T09:04:55.000Z</time>
      </trkpt>
      <trkpt lat="43.9815" lon="5.90396">
        <ele>484</ele>
        <time>2020-10-05T09:04:56.000Z</time>
      </trkpt>
      <trkpt lat="43.9815" lon="5.90397">
        <ele>484</ele>
        <time>2020-10-05T09:04:57.000Z</time>
      </trkpt>
      <trkpt lat="43.98151" lon="5.90398">
        <ele>484</ele>
        <time>2020-10-05T09:04:58.000Z</time>
      </trkpt>
      <trkpt lat="43.98151" lon="5.90399">
        <ele>484</ele>
        <time>2020-10-05T09:04:59.000Z</time>
      </trkpt>
      <trkpt lat="43.98152" lon="5.904">
        <ele>483</ele>
        <time>2020-10-05T09:05:00.000Z</time>
      </trkpt>
      <trkpt lat="43.98153" lon="5.90401">
        <ele>483</ele>
        <time>2020-10-05T09:05:01.000Z</time>
      </trkpt>
      <trkpt lat="43.98154" lon="5.90402">
        <ele>483</ele>
        <time>2020-10-05T09:05:02.000Z</time>
      </trkpt>
      <trkpt lat="43.98155" lon="5.90402">
        <ele>483</ele>
        <time>2020-10-05T09:05:03.000Z</time>
      </trkpt>
      <trkpt lat="43.98155" lon="5.90403">
        <ele>483</ele>
        <time>2020-10-05T09:05:04.000Z</time>
      </trkpt>
      <trkpt lat="43.98156" lon="5.90404">
        <ele>482</ele>
        <time>2020-10-05T09:05:05.000Z</time>
      </trkpt>
      <trkpt lat="43.98157" lon="5.90405">
        <ele>482</ele>
        <time>2020-10-05T09:05:06.000Z</time>
      </trkpt>
      <trkpt lat="43.98158" lon="5.90406">
        <ele>482</ele>
        <time>2020-10-05T09:05:07.000Z</time>
      </trkpt>
      <trkpt lat="43.98159" lon="5.90407">
        <ele>482</ele>
        <time>2020-10-05T09:05:08.000Z</time>
      </trkpt>
      <trkpt lat="43.9816" lon="5.90408">
        <ele>482</ele>
        <time>2020-10-05T09:05:09.000Z</time>
      </trkpt>
      <trkpt lat="43.98161" lon="5.90409">
        <ele>482</ele>
        <time>2020-10-05T09:05:10.000Z</time>
      </trkpt>
      <trkpt lat="43.98161" lon="5.9041">
        <ele>482</ele>
        <time>2020-10-05T09:05:11.000Z</time>
      </trkpt>
      <trkpt lat="43.98162" lon="5.90411">
        <ele>482</ele>
        <time>2020-10-05T09:05:12.000Z</time>
      </trkpt>
      <trkpt lat="43.98163" lon="5.90412">
        <ele>481</ele>
        <time>2020-10-05T09:05:13.000Z</time>
      </trkpt>
      <trkpt lat="43.98164" lon="5.90413">
        <ele>481</ele>
        <time>2020-10-05T09:05:14.000Z</time>
      </trkpt>
      <trkpt lat="43.98164" lon="5.90414">
        <ele>481</ele>
        <time>2020-10-05T09:05:15.000Z</time>
      </trkpt>
      <trkpt lat="43.98165" lon="5.90415">
        <ele>481</ele>
        <time>2020-10-05T09:05:16.000Z</time>
      </trkpt>
      <trkpt lat="43.98166" lon="5.90415">
        <ele>481</ele>
        <time>2020-10-05T09:05:17.000Z</time>
      </trkpt>
      <trkpt lat="43.98167" lon="5.90416">
        <ele>480</ele>
        <time>2020-10-05T09:05:18.000Z</time>
      </trkpt>
      <trkpt lat="43.98168" lon="5.90417">
        <ele>480</ele>
        <time>2020-10-05T09:05:19.000Z</time>
      </trkpt>
      <trkpt lat="43.98169" lon="5.90418">
        <ele>480</ele>
        <time>2020-10-05T09:05:20.000Z</time>
      </trkpt>
      <trkpt lat="43.98169" lon="5.90419">
        <ele>480</ele>
        <time>2020-10-05T09:05:21.000Z</time>
      </trkpt>
      <trkpt lat="43.9817" lon="5.9042">
        <ele>480</ele>
        <time>2020-10-05T09:05:22.000Z</time>
      </trkpt>
      <trkpt lat="43.98171" lon="5.90421">
        <ele>480</ele>
        <time>2020-10-05T09:05:23.000Z</time>
      </trkpt>
      <trkpt lat="43.98172" lon="5.90422">
        <ele>479</ele>
        <time>2020-10-05T09:05:24.000Z</time>
      </trkpt>
      <trkpt lat="43.98172" lon="5.90423">
        <ele>479</ele>
        <time>2020-10-05T09:05:25.000Z</time>
      </trkpt>
      <trkpt lat="43.98173" lon="5.90424">
        <ele>479</ele>
        <time>2020-10-05T09:05:26.000Z</time>
      </trkpt>
      <trkpt lat="43.98174" lon="5.90425">
        <ele>479</ele>
        <time>2020-10-05T09:05:27.000Z</time>
      </trkpt>
      <trkpt lat="43.98174" lon="5.90426">
        <ele>479</ele>
        <time>2020-10-05T09:05:28.000Z</time>
      </trkpt>
      <trkpt lat="43.98175" lon="5.90427">
        <ele>479</ele>
        <time>2020-10-05T09:05:29.000Z</time>
      </trkpt>
      <trkpt lat="43.98176" lon="5.90428">
        <ele>478</ele>
        <time>2020-10-05T09:05:30.000Z</time>
      </trkpt>
      <trkpt lat="43.98177" lon="5.90429">
        <ele>478</ele>
        <time>2020-10-05T09:05:31.000Z</time>
      </trkpt>
      <trkpt lat="43.98177" lon="5.9043">
        <ele>478</ele>
        <time>2020-10-05T09:05:32.000Z</time>
      </trkpt>
      <trkpt lat="43.98178" lon="5.90431">
        <ele>478</ele>
        <time>2020-10-05T09:05:33.000Z</time>
      </trkpt>
      <trkpt lat="43.98179" lon="5.90432">
        <ele>478</ele>
        <time>2020-10-05T09:05:34.000Z</time>
      </trkpt>
      <trkpt lat="43.98179" lon="5.90433">
        <ele>478</ele>
        <time>2020-10-05T09:05:35.000Z</time>
      </trkpt>
      <trkpt lat="43.9818" lon="5.90434">
        <ele>477</ele>
        <time>2020-10-05T09:05:36.000Z</time>
      </trkpt>
      <trkpt lat="43.98181" lon="5.90436">
        <ele>477</ele>
        <time>2020-10-05T09:05:37.000Z</time>
      </trkpt>
      <trkpt lat="43.98181" lon="5.90437">
        <ele>477</ele>
        <time>2020-10-05T09:05:38.000Z</time>
      </trkpt>
      <trkpt lat="43.98182" lon="5.90438">
        <ele>477</ele>
        <time>2020-10-05T09:05:39.000Z</time>
      </trkpt>
      <trkpt lat="43.98183" lon="5.90439">
        <ele>477</ele>
        <time>2020-10-05T09:05:40.000Z</time>
      </trkpt>
      <trkpt lat="43.98183" lon="5.9044">
        <ele>477</ele>
        <time>2020-10-05T09:05:41.000Z</time>
      </trkpt>
      <trkpt lat="43.98184" lon="5.90441">
        <ele>477</ele>
        <time>2020-10-05T09:05:42.000Z</time>
      </trkpt>
      <trkpt lat="43.98185" lon="5.90442">
        <ele>476</ele>
        <time>2020-10-05T09:05:43.000Z</time>
      </trkpt>
      <trkpt lat="43.98186" lon="5.90444">
        <ele>476</ele>
        <time>2020-10-05T09:05:44.000Z</time>
      </trkpt>
      <trkpt lat="43.98187" lon="5.90445">
        <ele>476</ele>
        <time>2020-10-05T09:05:45.000Z</time>
      </trkpt>
      <trkpt lat="43.98187" lon="5.90446">
        <ele>476</ele>
        <time>2020-10-05T09:05:46.000Z</time>
      </trkpt>
      <trkpt lat="43.98188" lon="5.90447">
        <ele>476</ele>
        <time>2020-10-05T09:05:47.000Z</time>
      </trkpt>
      <trkpt lat="43.98188" lon="5.90449">
        <ele>475</ele>
        <time>2020-10-05T09:05:48.000Z</time>
      </trkpt>
      <trkpt lat="43.98189" lon="5.90449">
        <ele>475</ele>
        <time>2020-10-05T09:05:49.000Z</time>
      </trkpt>
      <trkpt lat="43.9819" lon="5.9045">
        <ele>475</ele>
        <time>2020-10-05T09:05:50.000Z</time>
      </trkpt>
      <trkpt lat="43.98191" lon="5.90451">
        <ele>475</ele>
        <time>2020-10-05T09:05:51.000Z</time>
      </trkpt>
      <trkpt lat="43.98191" lon="5.90452">
        <ele>475</ele>
        <time>2020-10-05T09:05:52.000Z</time>
      </trkpt>
      <trkpt lat="43.98192" lon="5.90453">
        <ele>475</ele>
        <time>2020-10-05T09:05:53.000Z</time>
      </trkpt>
      <trkpt lat="43.98193" lon="5.90455">
        <ele>475</ele>
        <time>2020-10-05T09:05:54.000Z</time>
      </trkpt>
      <trkpt lat="43.98193" lon="5.90456">
        <ele>474</ele>
        <time>2020-10-05T09:05:55.000Z</time>
      </trkpt>
      <trkpt lat="43.98194" lon="5.90457">
        <ele>474</ele>
        <time>2020-10-05T09:05:56.000Z</time>
      </trkpt>
      <trkpt lat="43.98195" lon="5.90458">
        <ele>474</ele>
        <time>2020-10-05T09:05:57.000Z</time>
      </trkpt>
      <trkpt lat="43.98196" lon="5.90459">
        <ele>474</ele>
        <time>2020-10-05T09:05:58.000Z</time>
      </trkpt>
      <trkpt lat="43.98197" lon="5.9046">
        <ele>474</ele>
        <time>2020-10-05T09:05:59.000Z</time>
      </trkpt>
      <trkpt lat="43.98197" lon="5.90461">
        <ele>473</ele>
        <time>2020-10-05T09:06:00.000Z</time>
      </trkpt>
      <trkpt lat="43.98198" lon="5.90462">
        <ele>473</ele>
        <time>2020-10-05T09:06:01.000Z</time>
      </trkpt>
      <trkpt lat="43.98199" lon="5.90463">
        <ele>473</ele>
        <time>2020-10-05T09:06:02.000Z</time>
      </trkpt>
      <trkpt lat="43.982" lon="5.90464">
        <ele>473</ele>
        <time>2020-10-05T09:06:03.000Z</time>
      </trkpt>
      <trkpt lat="43.982" lon="5.90465">
        <ele>473</ele>
        <time>2020-10-05T09:06:04.000Z</time>
      </trkpt>
      <trkpt lat="43.98201" lon="5.90466">
        <ele>473</ele>
        <time>2020-10-05T09:06:05.000Z</time>
      </trkpt>
      <trkpt lat="43.98202" lon="5.90467">
        <ele>472</ele>
        <time>2020-10-05T09:06:06.000Z</time>
      </trkpt>
      <trkpt lat="43.98203" lon="5.90467">
        <ele>472</ele>
        <time>2020-10-05T09:06:07.000Z</time>
      </trkpt>
      <trkpt lat="43.98204" lon="5.90468">
        <ele>472</ele>
        <time>2020-10-05T09:06:08.000Z</time>
      </trkpt>
      <trkpt lat="43.98204" lon="5.90469">
        <ele>472</ele>
        <time>2020-10-05T09:06:09.000Z</time>
      </trkpt>
      <trkpt lat="43.98205" lon="5.9047">
        <ele>471</ele>
        <time>2020-10-05T09:06:10.000Z</time>
      </trkpt>
      <trkpt lat="43.98206" lon="5.90471">
        <ele>471</ele>
        <time>2020-10-05T09:06:11.000Z</time>
      </trkpt>
      <trkpt lat="43.98207" lon="5.90472">
        <ele>471</ele>
        <time>2020-10-05T09:06:12.000Z</time>
      </trkpt>
      <trkpt lat="43.98207" lon="5.90473">
        <ele>471</ele>
        <time>2020-10-05T09:06:13.000Z</time>
      </trkpt>
      <trkpt lat="43.98208" lon="5.90474">
        <ele>471</ele>
        <time>2020-10-05T09:06:14.000Z</time>
      </trkpt>
      <trkpt lat="43.98209" lon="5.90475">
        <ele>470</ele>
        <time>2020-10-05T09:06:15.000Z</time>
      </trkpt>
      <trkpt lat="43.9821" lon="5.90476">
        <ele>470</ele>
        <time>2020-10-05T09:06:16.000Z</time>
      </trkpt>
      <trkpt lat="43.98211" lon="5.90477">
        <ele>470</ele>
        <time>2020-10-05T09:06:17.000Z</time>
      </trkpt>
      <trkpt lat="43.98212" lon="5.90478">
        <ele>470</ele>
        <time>2020-10-05T09:06:18.000Z</time>
      </trkpt>
      <trkpt lat="43.98212" lon="5.90479">
        <ele>470</ele>
        <time>2020-10-05T09:06:19.000Z</time>
      </trkpt>
      <trkpt lat="43.98213" lon="5.90479">
        <ele>469</ele>
        <time>2020-10-05T09:06:20.000Z</time>
      </trkpt>
      <trkpt lat="43.98214" lon="5.90481">
        <ele>469</ele>
        <time>2020-10-05T09:06:21.000Z</time>
      </trkpt>
      <trkpt lat="43.98215" lon="5.90482">
        <ele>469</ele>
        <time>2020-10-05T09:06:22.000Z</time>
      </trkpt>
      <trkpt lat="43.98216" lon="5.90483">
        <ele>469</ele>
        <time>2020-10-05T09:06:23.000Z</time>
      </trkpt>
      <trkpt lat="43.98216" lon="5.90484">
        <ele>469</ele>
        <time>2020-10-05T09:06:24.000Z</time>
      </trkpt>
      <trkpt lat="43.98217" lon="5.90485">
        <ele>469</ele>
        <time>2020-10-05T09:06:25.000Z</time>
      </trkpt>
      <trkpt lat="43.98217" lon="5.90486">
        <ele>469</ele>
        <time>2020-10-05T09:06:26.000Z</time>
      </trkpt>
      <trkpt lat="43.98218" lon="5.90487">
        <ele>469</ele>
        <time>2020-10-05T09:06:27.000Z</time>
      </trkpt>
      <trkpt lat="43.98219" lon="5.90488">
        <ele>468</ele>
        <time>2020-10-05T09:06:28.000Z</time>
      </trkpt>
      <trkpt lat="43.98219" lon="5.90489">
        <ele>468</ele>
        <time>2020-10-05T09:06:29.000Z</time>
      </trkpt>
      <trkpt lat="43.9822" lon="5.9049">
        <ele>468</ele>
        <time>2020-10-05T09:06:30.000Z</time>
      </trkpt>
      <trkpt lat="43.98221" lon="5.90491">
        <ele>468</ele>
        <time>2020-10-05T09:06:31.000Z</time>
      </trkpt>
      <trkpt lat="43.98221" lon="5.90493">
        <ele>468</ele>
        <time>2020-10-05T09:06:32.000Z</time>
      </trkpt>
      <trkpt lat="43.98222" lon="5.90494">
        <ele>468</ele>
        <time>2020-10-05T09:06:33.000Z</time>
      </trkpt>
      <trkpt lat="43.98223" lon="5.90495">
        <ele>467</ele>
        <time>2020-10-05T09:06:34.000Z</time>
      </trkpt>
      <trkpt lat="43.98224" lon="5.90496">
        <ele>467</ele>
        <time>2020-10-05T09:06:35.000Z</time>
      </trkpt>
      <trkpt lat="43.98224" lon="5.90498">
        <ele>467</ele>
        <time>2020-10-05T09:06:36.000Z</time>
      </trkpt>
      <trkpt lat="43.98225" lon="5.90499">
        <ele>467</ele>
        <time>2020-10-05T09:06:37.000Z</time>
      </trkpt>
      <trkpt lat="43.98225" lon="5.905">
        <ele>467</ele>
        <time>2020-10-05T09:06:38.000Z</time>
      </trkpt>
      <trkpt lat="43.98226" lon="5.90501">
        <ele>467</ele>
        <time>2020-10-05T09:06:39.000Z</time>
      </trkpt>
      <trkpt lat="43.98227" lon="5.90502">
        <ele>466</ele>
        <time>2020-10-05T09:06:40.000Z</time>
      </trkpt>
      <trkpt lat="43.98228" lon="5.90503">
        <ele>466</ele>
        <time>2020-10-05T09:06:41.000Z</time>
      </trkpt>
      <trkpt lat="43.98228" lon="5.90504">
        <ele>466</ele>
        <time>2020-10-05T09:06:42.000Z</time>
      </trkpt>
      <trkpt lat="43.98229" lon="5.90505">
        <ele>466</ele>
        <time>2020-10-05T09:06:43.000Z</time>
      </trkpt>
      <trkpt lat="43.9823" lon="5.90506">
        <ele>466</ele>
        <time>2020-10-05T09:06:44.000Z</time>
      </trkpt>
      <trkpt lat="43.98231" lon="5.90507">
        <ele>466</ele>
        <time>2020-10-05T09:06:45.000Z</time>
      </trkpt>
      <trkpt lat="43.98231" lon="5.90508">
        <ele>466</ele>
        <time>2020-10-05T09:06:46.000Z</time>
      </trkpt>
      <trkpt lat="43.98232" lon="5.9051">
        <ele>465</ele>
        <time>2020-10-05T09:06:47.000Z</time>
      </trkpt>
      <trkpt lat="43.98232" lon="5.90511">
        <ele>465</ele>
        <time>2020-10-05T09:06:48.000Z</time>
      </trkpt>
      <trkpt lat="43.98233" lon="5.90512">
        <ele>465</ele>
        <time>2020-10-05T09:06:49.000Z</time>
      </trkpt>
      <trkpt lat="43.98234" lon="5.90513">
        <ele>465</ele>
        <time>2020-10-05T09:06:50.000Z</time>
      </trkpt>
      <trkpt lat="43.98234" lon="5.90514">
        <ele>465</ele>
        <time>2020-10-05T09:06:51.000Z</time>
      </trkpt>
      <trkpt lat="43.98235" lon="5.90515">
        <ele>465</ele>
        <time>2020-10-05T09:06:52.000Z</time>
      </trkpt>
      <trkpt lat="43.98236" lon="5.90516">
        <ele>464</ele>
        <time>2020-10-05T09:06:53.000Z</time>
      </trkpt>
      <trkpt lat="43.98237" lon="5.90517">
        <ele>464</ele>
        <time>2020-10-05T09:06:54.000Z</time>
      </trkpt>
      <trkpt lat="43.98238" lon="5.90517">
        <ele>464</ele>
        <time>2020-10-05T09:06:55.000Z</time>
      </trkpt>
      <trkpt lat="43.98238" lon="5.90518">
        <ele>463</ele>
        <time>2020-10-05T09:06:56.000Z</time>
      </trkpt>
      <trkpt lat="43.98239" lon="5.90519">
        <ele>463</ele>
        <time>2020-10-05T09:06:57.000Z</time>
      </trkpt>
      <trkpt lat="43.9824" lon="5.9052">
        <ele>463</ele>
        <time>2020-10-05T09:06:58.000Z</time>
      </trkpt>
      <trkpt lat="43.9824" lon="5.90521">
        <ele>463</ele>
        <time>2020-10-05T09:06:59.000Z</time>
      </trkpt>
      <trkpt lat="43.98241" lon="5.90521">
        <ele>463</ele>
        <time>2020-10-05T09:07:00.000Z</time>
      </trkpt>
      <trkpt lat="43.98242" lon="5.90522">
        <ele>462</ele>
        <time>2020-10-05T09:07:01.000Z</time>
      </trkpt>
      <trkpt lat="43.98242" lon="5.90523">
        <ele>462</ele>
        <time>2020-10-05T09:07:02.000Z</time>
      </trkpt>
      <trkpt lat="43.98243" lon="5.90524">
        <ele>462</ele>
        <time>2020-10-05T09:07:03.000Z</time>
      </trkpt>
      <trkpt lat="43.98244" lon="5.90525">
        <ele>462</ele>
        <time>2020-10-05T09:07:04.000Z</time>
      </trkpt>
      <trkpt lat="43.98244" lon="5.90526">
        <ele>462</ele>
        <time>2020-10-05T09:07:05.000Z</time>
      </trkpt>
      <trkpt lat="43.98245" lon="5.90527">
        <ele>461</ele>
        <time>2020-10-05T09:07:06.000Z</time>
      </trkpt>
      <trkpt lat="43.98246" lon="5.90527">
        <ele>461</ele>
        <time>2020-10-05T09:07:07.000Z</time>
      </trkpt>
      <trkpt lat="43.98247" lon="5.90528">
        <ele>461</ele>
        <time>2020-10-05T09:07:08.000Z</time>
      </trkpt>
      <trkpt lat="43.98248" lon="5.90529">
        <ele>461</ele>
        <time>2020-10-05T09:07:09.000Z</time>
      </trkpt>
      <trkpt lat="43.98249" lon="5.90529">
        <ele>461</ele>
        <time>2020-10-05T09:07:10.000Z</time>
      </trkpt>
      <trkpt lat="43.9825" lon="5.9053">
        <ele>460</ele>
        <time>2020-10-05T09:07:11.000Z</time>
      </trkpt>
      <trkpt lat="43.9825" lon="5.90531">
        <ele>460</ele>
        <time>2020-10-05T09:07:12.000Z</time>
      </trkpt>
      <trkpt lat="43.98251" lon="5.90532">
        <ele>460</ele>
        <time>2020-10-05T09:07:13.000Z</time>
      </trkpt>
      <trkpt lat="43.98252" lon="5.90532">
        <ele>460</ele>
        <time>2020-10-05T09:07:14.000Z</time>
      </trkpt>
      <trkpt lat="43.98253" lon="5.90533">
        <ele>459</ele>
        <time>2020-10-05T09:07:15.000Z</time>
      </trkpt>
      <trkpt lat="43.98254" lon="5.90534">
        <ele>459</ele>
        <time>2020-10-05T09:07:16.000Z</time>
      </trkpt>
      <trkpt lat="43.98254" lon="5.90535">
        <ele>459</ele>
        <time>2020-10-05T09:07:17.000Z</time>
      </trkpt>
      <trkpt lat="43.98255" lon="5.90536">
        <ele>459</ele>
        <time>2020-10-05T09:07:18.000Z</time>
      </trkpt>
      <trkpt lat="43.98256" lon="5.90537">
        <ele>459</ele>
        <time>2020-10-05T09:07:19.000Z</time>
      </trkpt>
      <trkpt lat="43.98257" lon="5.90537">
        <ele>458</ele>
        <time>2020-10-05T09:07:20.000Z</time>
      </trkpt>
      <trkpt lat="43.98258" lon="5.90538">
        <ele>458</ele>
        <time>2020-10-05T09:07:21.000Z</time>
      </trkpt>
      <trkpt lat="43.98259" lon="5.90539">
        <ele>458</ele>
        <time>2020-10-05T09:07:22.000Z</time>
      </trkpt>
      <trkpt lat="43.98259" lon="5.9054">
        <ele>457</ele>
        <time>2020-10-05T09:07:23.000Z</time>
      </trkpt>
      <trkpt lat="43.9826" lon="5.9054">
        <ele>457</ele>
        <time>2020-10-05T09:07:24.000Z</time>
      </trkpt>
      <trkpt lat="43.98261" lon="5.90541">
        <ele>457</ele>
        <time>2020-10-05T09:07:25.000Z</time>
      </trkpt>
      <trkpt lat="43.98262" lon="5.90542">
        <ele>457</ele>
        <time>2020-10-05T09:07:26.000Z</time>
      </trkpt>
      <trkpt lat="43.98263" lon="5.90543">
        <ele>457</ele>
        <time>2020-10-05T09:07:27.000Z</time>
      </trkpt>
      <trkpt lat="43.98264" lon="5.90544">
        <ele>456</ele>
        <time>2020-10-05T09:07:28.000Z</time>
      </trkpt>
      <trkpt lat="43.98264" lon="5.90545">
        <ele>456</ele>
        <time>2020-10-05T09:07:29.000Z</time>
      </trkpt>
      <trkpt lat="43.98265" lon="5.90545">
        <ele>456</ele>
        <time>2020-10-05T09:07:30.000Z</time>
      </trkpt>
      <trkpt lat="43.98266" lon="5.90546">
        <ele>456</ele>
        <time>2020-10-05T09:07:31.000Z</time>
      </trkpt>
      <trkpt lat="43.98266" lon="5.90546">
        <ele>456</ele>
        <time>2020-10-05T09:07:32.000Z</time>
      </trkpt>
      <trkpt lat="43.98267" lon="5.90547">
        <ele>455</ele>
        <time>2020-10-05T09:07:33.000Z</time>
      </trkpt>
      <trkpt lat="43.98268" lon="5.90548">
        <ele>455</ele>
        <time>2020-10-05T09:07:34.000Z</time>
      </trkpt>
      <trkpt lat="43.98269" lon="5.90549">
        <ele>455</ele>
        <time>2020-10-05T09:07:35.000Z</time>
      </trkpt>
      <trkpt lat="43.98269" lon="5.90549">
        <ele>455</ele>
        <time>2020-10-05T09:07:36.000Z</time>
      </trkpt>
      <trkpt lat="43.9827" lon="5.9055">
        <ele>454</ele>
        <time>2020-10-05T09:07:37.000Z</time>
      </trkpt>
      <trkpt lat="43.98271" lon="5.90551">
        <ele>454</ele>
        <time>2020-10-05T09:07:38.000Z</time>
      </trkpt>
      <trkpt lat="43.98271" lon="5.90551">
        <ele>454</ele>
        <time>2020-10-05T09:07:39.000Z</time>
      </trkpt>
      <trkpt lat="43.98272" lon="5.90552">
        <ele>454</ele>
        <time>2020-10-05T09:07:40.000Z</time>
      </trkpt>
      <trkpt lat="43.98273" lon="5.90552">
        <ele>453</ele>
        <time>2020-10-05T09:07:41.000Z</time>
      </trkpt>
      <trkpt lat="43.98273" lon="5.90553">
        <ele>453</ele>
        <time>2020-10-05T09:07:42.000Z</time>
      </trkpt>
      <trkpt lat="43.98274" lon="5.90554">
        <ele>453</ele>
        <time>2020-10-05T09:07:43.000Z</time>
      </trkpt>
      <trkpt lat="43.98275" lon="5.90555">
        <ele>453</ele>
        <time>2020-10-05T09:07:44.000Z</time>
      </trkpt>
      <trkpt lat="43.98276" lon="5.90555">
        <ele>453</ele>
        <time>2020-10-05T09:07:45.000Z</time>
      </trkpt>
      <trkpt lat="43.98277" lon="5.90556">
        <ele>452</ele>
        <time>2020-10-05T09:07:46.000Z</time>
      </trkpt>
      <trkpt lat="43.98278" lon="5.90556">
        <ele>452</ele>
        <time>2020-10-05T09:07:47.000Z</time>
      </trkpt>
      <trkpt lat="43.98279" lon="5.90557">
        <ele>452</ele>
        <time>2020-10-05T09:07:48.000Z</time>
      </trkpt>
      <trkpt lat="43.9828" lon="5.90557">
        <ele>452</ele>
        <time>2020-10-05T09:07:49.000Z</time>
      </trkpt>
      <trkpt lat="43.98281" lon="5.90558">
        <ele>452</ele>
        <time>2020-10-05T09:07:50.000Z</time>
      </trkpt>
      <trkpt lat="43.98282" lon="5.90558">
        <ele>452</ele>
        <time>2020-10-05T09:07:51.000Z</time>
      </trkpt>
      <trkpt lat="43.98283" lon="5.90559">
        <ele>451</ele>
        <time>2020-10-05T09:07:52.000Z</time>
      </trkpt>
      <trkpt lat="43.98284" lon="5.90559">
        <ele>451</ele>
        <time>2020-10-05T09:07:53.000Z</time>
      </trkpt>
      <trkpt lat="43.98285" lon="5.9056">
        <ele>451</ele>
        <time>2020-10-05T09:07:54.000Z</time>
      </trkpt>
      <trkpt lat="43.98285" lon="5.90561">
        <ele>451</ele>
        <time>2020-10-05T09:07:55.000Z</time>
      </trkpt>
      <trkpt lat="43.98286" lon="5.90561">
        <ele>451</ele>
        <time>2020-10-05T09:07:56.000Z</time>
      </trkpt>
      <trkpt lat="43.98287" lon="5.90562">
        <ele>450</ele>
        <time>2020-10-05T09:07:57.000Z</time>
      </trkpt>
      <trkpt lat="43.98288" lon="5.90562">
        <ele>450</ele>
        <time>2020-10-05T09:07:58.000Z</time>
      </trkpt>
      <trkpt lat="43.98289" lon="5.90563">
        <ele>450</ele>
        <time>2020-10-05T09:07:59.000Z</time>
      </trkpt>
      <trkpt lat="43.9829" lon="5.90563">
        <ele>450</ele>
        <time>2020-10-05T09:08:00.000Z</time>
      </trkpt>
      <trkpt lat="43.98291" lon="5.90564">
        <ele>450</ele>
        <time>2020-10-05T09:08:01.000Z</time>
      </trkpt>
      <trkpt lat="43.98292" lon="5.90565">
        <ele>450</ele>
        <time>2020-10-05T09:08:02.000Z</time>
      </trkpt>
      <trkpt lat="43.98293" lon="5.90565">
        <ele>450</ele>
        <time>2020-10-05T09:08:03.000Z</time>
      </trkpt>
      <trkpt lat="43.98294" lon="5.90566">
        <ele>449</ele>
        <time>2020-10-05T09:08:04.000Z</time>
      </trkpt>
      <trkpt lat="43.98295" lon="5.90566">
        <ele>449</ele>
        <time>2020-10-05T09:08:05.000Z</time>
      </trkpt>
      <trkpt lat="43.98296" lon="5.90567">
        <ele>449</ele>
        <time>2020-10-05T09:08:06.000Z</time>
      </trkpt>
      <trkpt lat="43.98297" lon="5.90567">
        <ele>449</ele>
        <time>2020-10-05T09:08:07.000Z</time>
      </trkpt>
      <trkpt lat="43.98298" lon="5.90568">
        <ele>449</ele>
        <time>2020-10-05T09:08:08.000Z</time>
      </trkpt>
      <trkpt lat="43.98299" lon="5.90568">
        <ele>449</ele>
        <time>2020-10-05T09:08:09.000Z</time>
      </trkpt>
      <trkpt lat="43.983" lon="5.90569">
        <ele>448</ele>
        <time>2020-10-05T09:08:10.000Z</time>
      </trkpt>
      <trkpt lat="43.98301" lon="5.9057">
        <ele>448</ele>
        <time>2020-10-05T09:08:11.000Z</time>
      </trkpt>
      <trkpt lat="43.98302" lon="5.9057">
        <ele>448</ele>
        <time>2020-10-05T09:08:12.000Z</time>
      </trkpt>
      <trkpt lat="43.98303" lon="5.90571">
        <ele>448</ele>
        <time>2020-10-05T09:08:13.000Z</time>
      </trkpt>
      <trkpt lat="43.98304" lon="5.90572">
        <ele>448</ele>
        <time>2020-10-05T09:08:14.000Z</time>
      </trkpt>
      <trkpt lat="43.98304" lon="5.90572">
        <ele>447</ele>
        <time>2020-10-05T09:08:15.000Z</time>
      </trkpt>
      <trkpt lat="43.98305" lon="5.90573">
        <ele>447</ele>
        <time>2020-10-05T09:08:16.000Z</time>
      </trkpt>
      <trkpt lat="43.98306" lon="5.90574">
        <ele>447</ele>
        <time>2020-10-05T09:08:17.000Z</time>
      </trkpt>
      <trkpt lat="43.98307" lon="5.90575">
        <ele>447</ele>
        <time>2020-10-05T09:08:18.000Z</time>
      </trkpt>
      <trkpt lat="43.98308" lon="5.90576">
        <ele>447</ele>
        <time>2020-10-05T09:08:19.000Z</time>
      </trkpt>
      <trkpt lat="43.98309" lon="5.90576">
        <ele>447</ele>
        <time>2020-10-05T09:08:20.000Z</time>
      </trkpt>
      <trkpt lat="43.9831" lon="5.90577">
        <ele>446</ele>
        <time>2020-10-05T09:08:21.000Z</time>
      </trkpt>
      <trkpt lat="43.9831" lon="5.90578">
        <ele>446</ele>
        <time>2020-10-05T09:08:22.000Z</time>
      </trkpt>
      <trkpt lat="43.98311" lon="5.90579">
        <ele>446</ele>
        <time>2020-10-05T09:08:23.000Z</time>
      </trkpt>
      <trkpt lat="43.98312" lon="5.9058">
        <ele>446</ele>
        <time>2020-10-05T09:08:24.000Z</time>
      </trkpt>
      <trkpt lat="43.98313" lon="5.9058">
        <ele>446</ele>
        <time>2020-10-05T09:08:25.000Z</time>
      </trkpt>
      <trkpt lat="43.98314" lon="5.90582">
        <ele>445</ele>
        <time>2020-10-05T09:08:26.000Z</time>
      </trkpt>
      <trkpt lat="43.98314" lon="5.90582">
        <ele>445</ele>
        <time>2020-10-05T09:08:27.000Z</time>
      </trkpt>
      <trkpt lat="43.98315" lon="5.90583">
        <ele>445</ele>
        <time>2020-10-05T09:08:28.000Z</time>
      </trkpt>
      <trkpt lat="43.98316" lon="5.90584">
        <ele>445</ele>
        <time>2020-10-05T09:08:29.000Z</time>
      </trkpt>
      <trkpt lat="43.98317" lon="5.90585">
        <ele>445</ele>
        <time>2020-10-05T09:08:30.000Z</time>
      </trkpt>
      <trkpt lat="43.98317" lon="5.90586">
        <ele>444</ele>
        <time>2020-10-05T09:08:31.000Z</time>
      </trkpt>
      <trkpt lat="43.98318" lon="5.90587">
        <ele>444</ele>
        <time>2020-10-05T09:08:32.000Z</time>
      </trkpt>
      <trkpt lat="43.98319" lon="5.90587">
        <ele>444</ele>
        <time>2020-10-05T09:08:33.000Z</time>
      </trkpt>
      <trkpt lat="43.9832" lon="5.90588">
        <ele>443</ele>
        <time>2020-10-05T09:08:34.000Z</time>
      </trkpt>
      <trkpt lat="43.98321" lon="5.90589">
        <ele>443</ele>
        <time>2020-10-05T09:08:35.000Z</time>
      </trkpt>
      <trkpt lat="43.98321" lon="5.9059">
        <ele>443</ele>
        <time>2020-10-05T09:08:36.000Z</time>
      </trkpt>
      <trkpt lat="43.98322" lon="5.90591">
        <ele>443</ele>
        <time>2020-10-05T09:08:37.000Z</time>
      </trkpt>
      <trkpt lat="43.98323" lon="5.90592">
        <ele>442</ele>
        <time>2020-10-05T09:08:38.000Z</time>
      </trkpt>
      <trkpt lat="43.98324" lon="5.90593">
        <ele>442</ele>
        <time>2020-10-05T09:08:39.000Z</time>
      </trkpt>
      <trkpt lat="43.98325" lon="5.90593">
        <ele>442</ele>
        <time>2020-10-05T09:08:40.000Z</time>
      </trkpt>
      <trkpt lat="43.98325" lon="5.90594">
        <ele>442</ele>
        <time>2020-10-05T09:08:41.000Z</time>
      </trkpt>
      <trkpt lat="43.98326" lon="5.90595">
        <ele>442</ele>
        <time>2020-10-05T09:08:42.000Z</time>
      </trkpt>
      <trkpt lat="43.98327" lon="5.90597">
        <ele>442</ele>
        <time>2020-10-05T09:08:43.000Z</time>
      </trkpt>
      <trkpt lat="43.98328" lon="5.90597">
        <ele>442</ele>
        <time>2020-10-05T09:08:44.000Z</time>
      </trkpt>
      <trkpt lat="43.98329" lon="5.90598">
        <ele>442</ele>
        <time>2020-10-05T09:08:45.000Z</time>
      </trkpt>
      <trkpt lat="43.9833" lon="5.90599">
        <ele>442</ele>
        <time>2020-10-05T09:08:46.000Z</time>
      </trkpt>
      <trkpt lat="43.98331" lon="5.906">
        <ele>442</ele>
        <time>2020-10-05T09:08:47.000Z</time>
      </trkpt>
      <trkpt lat="43.98332" lon="5.90601">
        <ele>442</ele>
        <time>2020-10-05T09:08:48.000Z</time>
      </trkpt>
      <trkpt lat="43.98333" lon="5.90601">
        <ele>442</ele>
        <time>2020-10-05T09:08:49.000Z</time>
      </trkpt>
      <trkpt lat="43.98334" lon="5.90602">
        <ele>442</ele>
        <time>2020-10-05T09:08:50.000Z</time>
      </trkpt>
      <trkpt lat="43.98335" lon="5.90603">
        <ele>442</ele>
        <time>2020-10-05T09:08:51.000Z</time>
      </trkpt>
      <trkpt lat="43.98336" lon="5.90604">
        <ele>442</ele>
        <time>2020-10-05T09:08:52.000Z</time>
      </trkpt>
      <trkpt lat="43.98336" lon="5.90605">
        <ele>442</ele>
        <time>2020-10-05T09:08:53.000Z</time>
      </trkpt>
      <trkpt lat="43.98336" lon="5.90605">
        <ele>442</ele>
        <time>2020-10-05T09:08:54.000Z</time>
      </trkpt>
      <trkpt lat="43.98336" lon="5.90605">
        <ele>442</ele>
        <time>2020-10-05T09:08:55.000Z</time>
      </trkpt>
      <trkpt lat="43.98336" lon="5.90605">
        <ele>442</ele>
        <time>2020-10-05T09:08:56.000Z</time>
      </trkpt>
      <trkpt lat="43.98337" lon="5.90605">
        <ele>442</ele>
        <time>2020-10-05T09:08:57.000Z</time>
      </trkpt>
      <trkpt lat="43.98337" lon="5.90605">
        <ele>442</ele>
        <time>2020-10-05T09:08:58.000Z</time>
      </trkpt>
      <trkpt lat="43.98337" lon="5.90605">
        <ele>441</ele>
        <time>2020-10-05T09:08:59.000Z</time>
      </trkpt>
      <trkpt lat="43.98337" lon="5.90605">
        <ele>441</ele>
        <time>2020-10-05T09:09:00.000Z</time>
      </trkpt>
      <trkpt lat="43.98337" lon="5.90605">
        <ele>441</ele>
        <time>2020-10-05T09:09:01.000Z</time>
      </trkpt>
      <trkpt lat="43.98337" lon="5.90605">
        <ele>441</ele>
        <time>2020-10-05T09:09:02.000Z</time>
      </trkpt>
      <trkpt lat="43.98337" lon="5.90605">
        <ele>441</ele>
        <time>2020-10-05T09:09:03.000Z</time>
      </trkpt>
      <trkpt lat="43.98338" lon="5.90606">
        <ele>441</ele>
        <time>2020-10-05T09:09:04.000Z</time>
      </trkpt>
      <trkpt lat="43.98338" lon="5.90607">
        <ele>441</ele>
        <time>2020-10-05T09:09:05.000Z</time>
      </trkpt>
      <trkpt lat="43.98339" lon="5.90608">
        <ele>441</ele>
        <time>2020-10-05T09:09:06.000Z</time>
      </trkpt>
      <trkpt lat="43.9834" lon="5.90609">
        <ele>441</ele>
        <time>2020-10-05T09:09:07.000Z</time>
      </trkpt>
      <trkpt lat="43.98341" lon="5.9061">
        <ele>441</ele>
        <time>2020-10-05T09:09:08.000Z</time>
      </trkpt>
      <trkpt lat="43.98341" lon="5.9061">
        <ele>441</ele>
        <time>2020-10-05T09:09:09.000Z</time>
      </trkpt>
      <trkpt lat="43.98342" lon="5.90611">
        <ele>441</ele>
        <time>2020-10-05T09:09:10.000Z</time>
      </trkpt>
      <trkpt lat="43.98342" lon="5.90612">
        <ele>440</ele>
        <time>2020-10-05T09:09:11.000Z</time>
      </trkpt>
      <trkpt lat="43.98343" lon="5.90612">
        <ele>440</ele>
        <time>2020-10-05T09:09:12.000Z</time>
      </trkpt>
      <trkpt lat="43.98343" lon="5.90612">
        <ele>440</ele>
        <time>2020-10-05T09:09:13.000Z</time>
      </trkpt>
      <trkpt lat="43.98343" lon="5.90612">
        <ele>440</ele>
        <time>2020-10-05T09:09:14.000Z</time>
      </trkpt>
      <trkpt lat="43.98343" lon="5.90612">
        <ele>440</ele>
        <time>2020-10-05T09:09:15.000Z</time>
      </trkpt>
      <trkpt lat="43.98343" lon="5.90612">
        <ele>440</ele>
        <time>2020-10-05T09:09:16.000Z</time>
      </trkpt>
      <trkpt lat="43.98343" lon="5.90612">
        <ele>440</ele>
        <time>2020-10-05T09:09:17.000Z</time>
      </trkpt>
      <trkpt lat="43.98343" lon="5.90612">
        <ele>440</ele>
        <time>2020-10-05T09:09:18.000Z</time>
      </trkpt>
      <trkpt lat="43.98343" lon="5.90612">
        <ele>440</ele>
        <time>2020-10-05T09:09:19.000Z</time>
      </trkpt>
      <trkpt lat="43.98343" lon="5.90613">
        <ele>440</ele>
        <time>2020-10-05T09:09:20.000Z</time>
      </trkpt>
      <trkpt lat="43.98342" lon="5.90613">
        <ele>440</ele>
        <time>2020-10-05T09:09:21.000Z</time>
      </trkpt>
      <trkpt lat="43.98342" lon="5.90613">
        <ele>440</ele>
        <time>2020-10-05T09:09:22.000Z</time>
      </trkpt>
      <trkpt lat="43.98342" lon="5.90613">
        <ele>440</ele>
        <time>2020-10-05T09:09:23.000Z</time>
      </trkpt>
      <trkpt lat="43.98342" lon="5.90613">
        <ele>440</ele>
        <time>2020-10-05T09:09:24.000Z</time>
      </trkpt>
      <trkpt lat="43.98342" lon="5.90613">
        <ele>440</ele>
        <time>2020-10-05T09:09:25.000Z</time>
      </trkpt>
      <trkpt lat="43.98342" lon="5.90614">
        <ele>440</ele>
        <time>2020-10-05T09:09:26.000Z</time>
      </trkpt>
      <trkpt lat="43.98343" lon="5.90614">
        <ele>440</ele>
        <time>2020-10-05T09:09:27.000Z</time>
      </trkpt>
      <trkpt lat="43.98343" lon="5.90616">
        <ele>440</ele>
        <time>2020-10-05T09:09:28.000Z</time>
      </trkpt>
      <trkpt lat="43.98344" lon="5.90617">
        <ele>440</ele>
        <time>2020-10-05T09:09:29.000Z</time>
      </trkpt>
      <trkpt lat="43.98344" lon="5.90618">
        <ele>440</ele>
        <time>2020-10-05T09:09:30.000Z</time>
      </trkpt>
      <trkpt lat="43.98344" lon="5.90619">
        <ele>440</ele>
        <time>2020-10-05T09:09:31.000Z</time>
      </trkpt>
      <trkpt lat="43.98345" lon="5.9062">
        <ele>439</ele>
        <time>2020-10-05T09:09:32.000Z</time>
      </trkpt>
      <trkpt lat="43.98345" lon="5.90621">
        <ele>439</ele>
        <time>2020-10-05T09:09:33.000Z</time>
      </trkpt>
      <trkpt lat="43.98345" lon="5.90623">
        <ele>439</ele>
        <time>2020-10-05T09:09:34.000Z</time>
      </trkpt>
      <trkpt lat="43.98346" lon="5.90624">
        <ele>439</ele>
        <time>2020-10-05T09:09:35.000Z</time>
      </trkpt>
      <trkpt lat="43.98346" lon="5.90625">
        <ele>439</ele>
        <time>2020-10-05T09:09:36.000Z</time>
      </trkpt>
      <trkpt lat="43.98347" lon="5.90626">
        <ele>439</ele>
        <time>2020-10-05T09:09:37.000Z</time>
      </trkpt>
      <trkpt lat="43.98347" lon="5.90627">
        <ele>439</ele>
        <time>2020-10-05T09:09:38.000Z</time>
      </trkpt>
      <trkpt lat="43.98348" lon="5.90628">
        <ele>438</ele>
        <time>2020-10-05T09:09:39.000Z</time>
      </trkpt>
      <trkpt lat="43.98349" lon="5.90629">
        <ele>438</ele>
        <time>2020-10-05T09:09:40.000Z</time>
      </trkpt>
      <trkpt lat="43.98349" lon="5.9063">
        <ele>438</ele>
        <time>2020-10-05T09:09:41.000Z</time>
      </trkpt>
      <trkpt lat="43.9835" lon="5.90631">
        <ele>438</ele>
        <time>2020-10-05T09:09:42.000Z</time>
      </trkpt>
      <trkpt lat="43.9835" lon="5.90633">
        <ele>438</ele>
        <time>2020-10-05T09:09:43.000Z</time>
      </trkpt>
      <trkpt lat="43.9835" lon="5.90634">
        <ele>438</ele>
        <time>2020-10-05T09:09:44.000Z</time>
      </trkpt>
      <trkpt lat="43.98351" lon="5.90635">
        <ele>438</ele>
        <time>2020-10-05T09:09:45.000Z</time>
      </trkpt>
      <trkpt lat="43.98351" lon="5.90636">
        <ele>438</ele>
        <time>2020-10-05T09:09:46.000Z</time>
      </trkpt>
      <trkpt lat="43.98352" lon="5.90638">
        <ele>438</ele>
        <time>2020-10-05T09:09:47.000Z</time>
      </trkpt>
      <trkpt lat="43.98352" lon="5.90639">
        <ele>438</ele>
        <time>2020-10-05T09:09:48.000Z</time>
      </trkpt>
      <trkpt lat="43.98353" lon="5.9064">
        <ele>438</ele>
        <time>2020-10-05T09:09:49.000Z</time>
      </trkpt>
      <trkpt lat="43.98353" lon="5.90641">
        <ele>437</ele>
        <time>2020-10-05T09:09:50.000Z</time>
      </trkpt>
      <trkpt lat="43.98354" lon="5.90643">
        <ele>437</ele>
        <time>2020-10-05T09:09:51.000Z</time>
      </trkpt>
      <trkpt lat="43.98354" lon="5.90644">
        <ele>437</ele>
        <time>2020-10-05T09:09:52.000Z</time>
      </trkpt>
      <trkpt lat="43.98354" lon="5.90645">
        <ele>437</ele>
        <time>2020-10-05T09:09:53.000Z</time>
      </trkpt>
      <trkpt lat="43.98354" lon="5.90646">
        <ele>437</ele>
        <time>2020-10-05T09:09:54.000Z</time>
      </trkpt>
      <trkpt lat="43.98355" lon="5.90647">
        <ele>437</ele>
        <time>2020-10-05T09:09:55.000Z</time>
      </trkpt>
      <trkpt lat="43.98355" lon="5.90648">
        <ele>437</ele>
        <time>2020-10-05T09:09:56.000Z</time>
      </trkpt>
      <trkpt lat="43.98356" lon="5.90649">
        <ele>437</ele>
        <time>2020-10-05T09:09:57.000Z</time>
      </trkpt>
      <trkpt lat="43.98356" lon="5.9065">
        <ele>437</ele>
        <time>2020-10-05T09:09:58.000Z</time>
      </trkpt>
      <trkpt lat="43.98356" lon="5.90651">
        <ele>436</ele>
        <time>2020-10-05T09:09:59.000Z</time>
      </trkpt>
      <trkpt lat="43.98357" lon="5.90652">
        <ele>436</ele>
        <time>2020-10-05T09:10:00.000Z</time>
      </trkpt>
      <trkpt lat="43.98357" lon="5.90653">
        <ele>436</ele>
        <time>2020-10-05T09:10:01.000Z</time>
      </trkpt>
      <trkpt lat="43.98358" lon="5.90654">
        <ele>436</ele>
        <time>2020-10-05T09:10:02.000Z</time>
      </trkpt>
      <trkpt lat="43.98359" lon="5.90655">
        <ele>435</ele>
        <time>2020-10-05T09:10:03.000Z</time>
      </trkpt>
      <trkpt lat="43.98359" lon="5.90656">
        <ele>435</ele>
        <time>2020-10-05T09:10:04.000Z</time>
      </trkpt>
      <trkpt lat="43.98359" lon="5.90657">
        <ele>435</ele>
        <time>2020-10-05T09:10:05.000Z</time>
      </trkpt>
      <trkpt lat="43.9836" lon="5.90658">
        <ele>435</ele>
        <time>2020-10-05T09:10:06.000Z</time>
      </trkpt>
      <trkpt lat="43.98361" lon="5.90659">
        <ele>434</ele>
        <time>2020-10-05T09:10:07.000Z</time>
      </trkpt>
      <trkpt lat="43.98361" lon="5.9066">
        <ele>434</ele>
        <time>2020-10-05T09:10:08.000Z</time>
      </trkpt>
      <trkpt lat="43.98362" lon="5.90661">
        <ele>434</ele>
        <time>2020-10-05T09:10:09.000Z</time>
      </trkpt>
      <trkpt lat="43.98363" lon="5.90662">
        <ele>434</ele>
        <time>2020-10-05T09:10:10.000Z</time>
      </trkpt>
      <trkpt lat="43.98363" lon="5.90663">
        <ele>433</ele>
        <time>2020-10-05T09:10:11.000Z</time>
      </trkpt>
      <trkpt lat="43.98364" lon="5.90664">
        <ele>433</ele>
        <time>2020-10-05T09:10:12.000Z</time>
      </trkpt>
      <trkpt lat="43.98364" lon="5.90665">
        <ele>433</ele>
        <time>2020-10-05T09:10:13.000Z</time>
      </trkpt>
      <trkpt lat="43.98364" lon="5.90667">
        <ele>433</ele>
        <time>2020-10-05T09:10:14.000Z</time>
      </trkpt>
      <trkpt lat="43.98365" lon="5.90668">
        <ele>432</ele>
        <time>2020-10-05T09:10:15.000Z</time>
      </trkpt>
      <trkpt lat="43.98364" lon="5.90669">
        <ele>432</ele>
        <time>2020-10-05T09:10:16.000Z</time>
      </trkpt>
      <trkpt lat="43.98364" lon="5.90671">
        <ele>432</ele>
        <time>2020-10-05T09:10:17.000Z</time>
      </trkpt>
      <trkpt lat="43.98364" lon="5.90671">
        <ele>432</ele>
        <time>2020-10-05T09:10:18.000Z</time>
      </trkpt>
      <trkpt lat="43.98364" lon="5.90672">
        <ele>432</ele>
        <time>2020-10-05T09:10:19.000Z</time>
      </trkpt>
      <trkpt lat="43.98364" lon="5.90673">
        <ele>431</ele>
        <time>2020-10-05T09:10:20.000Z</time>
      </trkpt>
      <trkpt lat="43.98365" lon="5.90674">
        <ele>431</ele>
        <time>2020-10-05T09:10:21.000Z</time>
      </trkpt>
      <trkpt lat="43.98365" lon="5.90676">
        <ele>431</ele>
        <time>2020-10-05T09:10:22.000Z</time>
      </trkpt>
      <trkpt lat="43.98365" lon="5.90677">
        <ele>430</ele>
        <time>2020-10-05T09:10:23.000Z</time>
      </trkpt>
      <trkpt lat="43.98366" lon="5.90678">
        <ele>430</ele>
        <time>2020-10-05T09:10:24.000Z</time>
      </trkpt>
      <trkpt lat="43.98366" lon="5.90679">
        <ele>430</ele>
        <time>2020-10-05T09:10:25.000Z</time>
      </trkpt>
      <trkpt lat="43.98367" lon="5.90679">
        <ele>429</ele>
        <time>2020-10-05T09:10:26.000Z</time>
      </trkpt>
      <trkpt lat="43.98367" lon="5.9068">
        <ele>429</ele>
        <time>2020-10-05T09:10:27.000Z</time>
      </trkpt>
      <trkpt lat="43.98368" lon="5.90681">
        <ele>429</ele>
        <time>2020-10-05T09:10:28.000Z</time>
      </trkpt>
      <trkpt lat="43.98368" lon="5.90682">
        <ele>428</ele>
        <time>2020-10-05T09:10:29.000Z</time>
      </trkpt>
      <trkpt lat="43.98369" lon="5.90683">
        <ele>428</ele>
        <time>2020-10-05T09:10:30.000Z</time>
      </trkpt>
      <trkpt lat="43.98369" lon="5.90683">
        <ele>428</ele>
        <time>2020-10-05T09:10:31.000Z</time>
      </trkpt>
      <trkpt lat="43.9837" lon="5.90684">
        <ele>428</ele>
        <time>2020-10-05T09:10:32.000Z</time>
      </trkpt>
      <trkpt lat="43.9837" lon="5.90685">
        <ele>427</ele>
        <time>2020-10-05T09:10:33.000Z</time>
      </trkpt>
      <trkpt lat="43.98371" lon="5.90686">
        <ele>427</ele>
        <time>2020-10-05T09:10:34.000Z</time>
      </trkpt>
      <trkpt lat="43.98371" lon="5.90687">
        <ele>427</ele>
        <time>2020-10-05T09:10:35.000Z</time>
      </trkpt>
      <trkpt lat="43.98371" lon="5.90688">
        <ele>427</ele>
        <time>2020-10-05T09:10:36.000Z</time>
      </trkpt>
      <trkpt lat="43.98371" lon="5.90689">
        <ele>427</ele>
        <time>2020-10-05T09:10:37.000Z</time>
      </trkpt>
      <trkpt lat="43.98372" lon="5.90689">
        <ele>426</ele>
        <time>2020-10-05T09:10:38.000Z</time>
      </trkpt>
      <trkpt lat="43.98373" lon="5.9069">
        <ele>426</ele>
        <time>2020-10-05T09:10:39.000Z</time>
      </trkpt>
      <trkpt lat="43.98374" lon="5.90691">
        <ele>426</ele>
        <time>2020-10-05T09:10:40.000Z</time>
      </trkpt>
      <trkpt lat="43.98374" lon="5.90691">
        <ele>426</ele>
        <time>2020-10-05T09:10:41.000Z</time>
      </trkpt>
      <trkpt lat="43.98375" lon="5.90692">
        <ele>426</ele>
        <time>2020-10-05T09:10:42.000Z</time>
      </trkpt>
      <trkpt lat="43.98375" lon="5.90693">
        <ele>426</ele>
        <time>2020-10-05T09:10:43.000Z</time>
      </trkpt>
      <trkpt lat="43.98376" lon="5.90693">
        <ele>426</ele>
        <time>2020-10-05T09:10:44.000Z</time>
      </trkpt>
      <trkpt lat="43.98376" lon="5.90694">
        <ele>426</ele>
        <time>2020-10-05T09:10:45.000Z</time>
      </trkpt>
      <trkpt lat="43.98376" lon="5.90695">
        <ele>425</ele>
        <time>2020-10-05T09:10:46.000Z</time>
      </trkpt>
      <trkpt lat="43.98376" lon="5.90696">
        <ele>425</ele>
        <time>2020-10-05T09:10:47.000Z</time>
      </trkpt>
      <trkpt lat="43.98377" lon="5.90697">
        <ele>425</ele>
        <time>2020-10-05T09:10:48.000Z</time>
      </trkpt>
      <trkpt lat="43.98377" lon="5.90698">
        <ele>425</ele>
        <time>2020-10-05T09:10:49.000Z</time>
      </trkpt>
      <trkpt lat="43.98378" lon="5.90699">
        <ele>425</ele>
        <time>2020-10-05T09:10:50.000Z</time>
      </trkpt>
      <trkpt lat="43.98378" lon="5.907">
        <ele>425</ele>
        <time>2020-10-05T09:10:51.000Z</time>
      </trkpt>
      <trkpt lat="43.98379" lon="5.907">
        <ele>424</ele>
        <time>2020-10-05T09:10:52.000Z</time>
      </trkpt>
      <trkpt lat="43.98379" lon="5.90701">
        <ele>424</ele>
        <time>2020-10-05T09:10:53.000Z</time>
      </trkpt>
      <trkpt lat="43.9838" lon="5.90702">
        <ele>424</ele>
        <time>2020-10-05T09:10:54.000Z</time>
      </trkpt>
      <trkpt lat="43.9838" lon="5.90702">
        <ele>424</ele>
        <time>2020-10-05T09:10:55.000Z</time>
      </trkpt>
      <trkpt lat="43.98381" lon="5.90703">
        <ele>424</ele>
        <time>2020-10-05T09:10:56.000Z</time>
      </trkpt>
      <trkpt lat="43.98382" lon="5.90704">
        <ele>424</ele>
        <time>2020-10-05T09:10:57.000Z</time>
      </trkpt>
      <trkpt lat="43.98382" lon="5.90705">
        <ele>424</ele>
        <time>2020-10-05T09:10:58.000Z</time>
      </trkpt>
      <trkpt lat="43.98383" lon="5.90706">
        <ele>424</ele>
        <time>2020-10-05T09:10:59.000Z</time>
      </trkpt>
      <trkpt lat="43.98383" lon="5.90707">
        <ele>423</ele>
        <time>2020-10-05T09:11:00.000Z</time>
      </trkpt>
      <trkpt lat="43.98384" lon="5.90708">
        <ele>423</ele>
        <time>2020-10-05T09:11:01.000Z</time>
      </trkpt>
      <trkpt lat="43.98384" lon="5.90708">
        <ele>423</ele>
        <time>2020-10-05T09:11:02.000Z</time>
      </trkpt>
      <trkpt lat="43.98384" lon="5.90709">
        <ele>423</ele>
        <time>2020-10-05T09:11:03.000Z</time>
      </trkpt>
      <trkpt lat="43.98384" lon="5.9071">
        <ele>422</ele>
        <time>2020-10-05T09:11:04.000Z</time>
      </trkpt>
      <trkpt lat="43.98385" lon="5.90711">
        <ele>422</ele>
        <time>2020-10-05T09:11:05.000Z</time>
      </trkpt>
      <trkpt lat="43.98385" lon="5.90712">
        <ele>422</ele>
        <time>2020-10-05T09:11:06.000Z</time>
      </trkpt>
      <trkpt lat="43.98386" lon="5.90713">
        <ele>422</ele>
        <time>2020-10-05T09:11:07.000Z</time>
      </trkpt>
      <trkpt lat="43.98386" lon="5.90714">
        <ele>421</ele>
        <time>2020-10-05T09:11:08.000Z</time>
      </trkpt>
      <trkpt lat="43.98387" lon="5.90715">
        <ele>421</ele>
        <time>2020-10-05T09:11:09.000Z</time>
      </trkpt>
      <trkpt lat="43.98387" lon="5.90715">
        <ele>421</ele>
        <time>2020-10-05T09:11:10.000Z</time>
      </trkpt>
      <trkpt lat="43.98387" lon="5.90716">
        <ele>421</ele>
        <time>2020-10-05T09:11:11.000Z</time>
      </trkpt>
      <trkpt lat="43.98388" lon="5.90717">
        <ele>421</ele>
        <time>2020-10-05T09:11:12.000Z</time>
      </trkpt>
      <trkpt lat="43.98388" lon="5.90718">
        <ele>420</ele>
        <time>2020-10-05T09:11:13.000Z</time>
      </trkpt>
      <trkpt lat="43.98389" lon="5.90719">
        <ele>420</ele>
        <time>2020-10-05T09:11:14.000Z</time>
      </trkpt>
      <trkpt lat="43.9839" lon="5.9072">
        <ele>420</ele>
        <time>2020-10-05T09:11:15.000Z</time>
      </trkpt>
      <trkpt lat="43.9839" lon="5.90721">
        <ele>420</ele>
        <time>2020-10-05T09:11:16.000Z</time>
      </trkpt>
      <trkpt lat="43.98391" lon="5.90722">
        <ele>420</ele>
        <time>2020-10-05T09:11:17.000Z</time>
      </trkpt>
      <trkpt lat="43.98391" lon="5.90723">
        <ele>419</ele>
        <time>2020-10-05T09:11:18.000Z</time>
      </trkpt>
      <trkpt lat="43.98392" lon="5.90723">
        <ele>419</ele>
        <time>2020-10-05T09:11:19.000Z</time>
      </trkpt>
      <trkpt lat="43.98393" lon="5.90724">
        <ele>419</ele>
        <time>2020-10-05T09:11:20.000Z</time>
      </trkpt>
      <trkpt lat="43.98393" lon="5.90725">
        <ele>419</ele>
        <time>2020-10-05T09:11:21.000Z</time>
      </trkpt>
      <trkpt lat="43.98394" lon="5.90726">
        <ele>419</ele>
        <time>2020-10-05T09:11:22.000Z</time>
      </trkpt>
      <trkpt lat="43.98395" lon="5.90727">
        <ele>419</ele>
        <time>2020-10-05T09:11:23.000Z</time>
      </trkpt>
      <trkpt lat="43.98396" lon="5.90728">
        <ele>418</ele>
        <time>2020-10-05T09:11:24.000Z</time>
      </trkpt>
      <trkpt lat="43.98396" lon="5.90729">
        <ele>418</ele>
        <time>2020-10-05T09:11:25.000Z</time>
      </trkpt>
      <trkpt lat="43.98397" lon="5.90731">
        <ele>418</ele>
        <time>2020-10-05T09:11:26.000Z</time>
      </trkpt>
      <trkpt lat="43.98397" lon="5.90731">
        <ele>418</ele>
        <time>2020-10-05T09:11:27.000Z</time>
      </trkpt>
      <trkpt lat="43.98398" lon="5.90733">
        <ele>418</ele>
        <time>2020-10-05T09:11:28.000Z</time>
      </trkpt>
      <trkpt lat="43.98399" lon="5.90733">
        <ele>418</ele>
        <time>2020-10-05T09:11:29.000Z</time>
      </trkpt>
      <trkpt lat="43.98399" lon="5.90734">
        <ele>418</ele>
        <time>2020-10-05T09:11:30.000Z</time>
      </trkpt>
      <trkpt lat="43.984" lon="5.90735">
        <ele>417</ele>
        <time>2020-10-05T09:11:31.000Z</time>
      </trkpt>
      <trkpt lat="43.984" lon="5.90736">
        <ele>417</ele>
        <time>2020-10-05T09:11:32.000Z</time>
      </trkpt>
      <trkpt lat="43.98401" lon="5.90736">
        <ele>417</ele>
        <time>2020-10-05T09:11:33.000Z</time>
      </trkpt>
      <trkpt lat="43.98402" lon="5.90737">
        <ele>417</ele>
        <time>2020-10-05T09:11:34.000Z</time>
      </trkpt>
      <trkpt lat="43.98402" lon="5.90738">
        <ele>416</ele>
        <time>2020-10-05T09:11:35.000Z</time>
      </trkpt>
      <trkpt lat="43.98403" lon="5.90739">
        <ele>416</ele>
        <time>2020-10-05T09:11:36.000Z</time>
      </trkpt>
      <trkpt lat="43.98403" lon="5.9074">
        <ele>416</ele>
        <time>2020-10-05T09:11:37.000Z</time>
      </trkpt>
      <trkpt lat="43.98404" lon="5.90741">
        <ele>415</ele>
        <time>2020-10-05T09:11:38.000Z</time>
      </trkpt>
      <trkpt lat="43.98405" lon="5.90742">
        <ele>415</ele>
        <time>2020-10-05T09:11:39.000Z</time>
      </trkpt>
      <trkpt lat="43.98405" lon="5.90743">
        <ele>415</ele>
        <time>2020-10-05T09:11:40.000Z</time>
      </trkpt>
      <trkpt lat="43.98406" lon="5.90744">
        <ele>414</ele>
        <time>2020-10-05T09:11:41.000Z</time>
      </trkpt>
      <trkpt lat="43.98407" lon="5.90745">
        <ele>414</ele>
        <time>2020-10-05T09:11:42.000Z</time>
      </trkpt>
      <trkpt lat="43.98408" lon="5.90746">
        <ele>414</ele>
        <time>2020-10-05T09:11:43.000Z</time>
      </trkpt>
      <trkpt lat="43.98409" lon="5.90747">
        <ele>414</ele>
        <time>2020-10-05T09:11:44.000Z</time>
      </trkpt>
      <trkpt lat="43.98409" lon="5.90748">
        <ele>413</ele>
        <time>2020-10-05T09:11:45.000Z</time>
      </trkpt>
      <trkpt lat="43.9841" lon="5.90748">
        <ele>413</ele>
        <time>2020-10-05T09:11:46.000Z</time>
      </trkpt>
      <trkpt lat="43.98411" lon="5.90749">
        <ele>413</ele>
        <time>2020-10-05T09:11:47.000Z</time>
      </trkpt>
      <trkpt lat="43.98412" lon="5.9075">
        <ele>413</ele>
        <time>2020-10-05T09:11:48.000Z</time>
      </trkpt>
      <trkpt lat="43.98412" lon="5.90751">
        <ele>413</ele>
        <time>2020-10-05T09:11:49.000Z</time>
      </trkpt>
      <trkpt lat="43.98413" lon="5.90752">
        <ele>413</ele>
        <time>2020-10-05T09:11:50.000Z</time>
      </trkpt>
      <trkpt lat="43.98413" lon="5.90753">
        <ele>413</ele>
        <time>2020-10-05T09:11:51.000Z</time>
      </trkpt>
      <trkpt lat="43.98414" lon="5.90754">
        <ele>413</ele>
        <time>2020-10-05T09:11:52.000Z</time>
      </trkpt>
      <trkpt lat="43.98415" lon="5.90755">
        <ele>412</ele>
        <time>2020-10-05T09:11:53.000Z</time>
      </trkpt>
      <trkpt lat="43.98416" lon="5.90756">
        <ele>412</ele>
        <time>2020-10-05T09:11:54.000Z</time>
      </trkpt>
      <trkpt lat="43.98417" lon="5.90757">
        <ele>412</ele>
        <time>2020-10-05T09:11:55.000Z</time>
      </trkpt>
      <trkpt lat="43.98418" lon="5.90758">
        <ele>412</ele>
        <time>2020-10-05T09:11:56.000Z</time>
      </trkpt>
      <trkpt lat="43.98418" lon="5.90759">
        <ele>412</ele>
        <time>2020-10-05T09:11:57.000Z</time>
      </trkpt>
      <trkpt lat="43.98419" lon="5.9076">
        <ele>412</ele>
        <time>2020-10-05T09:11:58.000Z</time>
      </trkpt>
      <trkpt lat="43.9842" lon="5.90761">
        <ele>411</ele>
        <time>2020-10-05T09:11:59.000Z</time>
      </trkpt>
      <trkpt lat="43.9842" lon="5.90762">
        <ele>411</ele>
        <time>2020-10-05T09:12:00.000Z</time>
      </trkpt>
      <trkpt lat="43.98421" lon="5.90762">
        <ele>411</ele>
        <time>2020-10-05T09:12:01.000Z</time>
      </trkpt>
      <trkpt lat="43.98422" lon="5.90763">
        <ele>410</ele>
        <time>2020-10-05T09:12:02.000Z</time>
      </trkpt>
      <trkpt lat="43.98423" lon="5.90764">
        <ele>410</ele>
        <time>2020-10-05T09:12:03.000Z</time>
      </trkpt>
      <trkpt lat="43.98424" lon="5.90765">
        <ele>410</ele>
        <time>2020-10-05T09:12:04.000Z</time>
      </trkpt>
      <trkpt lat="43.98425" lon="5.90766">
        <ele>409</ele>
        <time>2020-10-05T09:12:05.000Z</time>
      </trkpt>
      <trkpt lat="43.98426" lon="5.90766">
        <ele>409</ele>
        <time>2020-10-05T09:12:06.000Z</time>
      </trkpt>
      <trkpt lat="43.98427" lon="5.90767">
        <ele>409</ele>
        <time>2020-10-05T09:12:07.000Z</time>
      </trkpt>
      <trkpt lat="43.98427" lon="5.90768">
        <ele>409</ele>
        <time>2020-10-05T09:12:08.000Z</time>
      </trkpt>
      <trkpt lat="43.98428" lon="5.90769">
        <ele>408</ele>
        <time>2020-10-05T09:12:09.000Z</time>
      </trkpt>
      <trkpt lat="43.98429" lon="5.9077">
        <ele>408</ele>
        <time>2020-10-05T09:12:10.000Z</time>
      </trkpt>
      <trkpt lat="43.9843" lon="5.90771">
        <ele>408</ele>
        <time>2020-10-05T09:12:11.000Z</time>
      </trkpt>
      <trkpt lat="43.9843" lon="5.90772">
        <ele>408</ele>
        <time>2020-10-05T09:12:12.000Z</time>
      </trkpt>
      <trkpt lat="43.98431" lon="5.90774">
        <ele>408</ele>
        <time>2020-10-05T09:12:13.000Z</time>
      </trkpt>
      <trkpt lat="43.98432" lon="5.90775">
        <ele>407</ele>
        <time>2020-10-05T09:12:14.000Z</time>
      </trkpt>
      <trkpt lat="43.98432" lon="5.90775">
        <ele>407</ele>
        <time>2020-10-05T09:12:15.000Z</time>
      </trkpt>
      <trkpt lat="43.98433" lon="5.90776">
        <ele>407</ele>
        <time>2020-10-05T09:12:16.000Z</time>
      </trkpt>
      <trkpt lat="43.98434" lon="5.90777">
        <ele>407</ele>
        <time>2020-10-05T09:12:17.000Z</time>
      </trkpt>
      <trkpt lat="43.98434" lon="5.90778">
        <ele>407</ele>
        <time>2020-10-05T09:12:18.000Z</time>
      </trkpt>
      <trkpt lat="43.98435" lon="5.9078">
        <ele>406</ele>
        <time>2020-10-05T09:12:19.000Z</time>
      </trkpt>
      <trkpt lat="43.98435" lon="5.90781">
        <ele>406</ele>
        <time>2020-10-05T09:12:20.000Z</time>
      </trkpt>
      <trkpt lat="43.98436" lon="5.90782">
        <ele>406</ele>
        <time>2020-10-05T09:12:21.000Z</time>
      </trkpt>
      <trkpt lat="43.98437" lon="5.90783">
        <ele>406</ele>
        <time>2020-10-05T09:12:22.000Z</time>
      </trkpt>
      <trkpt lat="43.98438" lon="5.90784">
        <ele>406</ele>
        <time>2020-10-05T09:12:23.000Z</time>
      </trkpt>
      <trkpt lat="43.98438" lon="5.90786">
        <ele>405</ele>
        <time>2020-10-05T09:12:24.000Z</time>
      </trkpt>
      <trkpt lat="43.98439" lon="5.90787">
        <ele>405</ele>
        <time>2020-10-05T09:12:25.000Z</time>
      </trkpt>
      <trkpt lat="43.9844" lon="5.90788">
        <ele>405</ele>
        <time>2020-10-05T09:12:26.000Z</time>
      </trkpt>
      <trkpt lat="43.9844" lon="5.90789">
        <ele>405</ele>
        <time>2020-10-05T09:12:27.000Z</time>
      </trkpt>
      <trkpt lat="43.98441" lon="5.90789">
        <ele>404</ele>
        <time>2020-10-05T09:12:28.000Z</time>
      </trkpt>
      <trkpt lat="43.98442" lon="5.9079">
        <ele>404</ele>
        <time>2020-10-05T09:12:29.000Z</time>
      </trkpt>
      <trkpt lat="43.98442" lon="5.9079">
        <ele>404</ele>
        <time>2020-10-05T09:12:30.000Z</time>
      </trkpt>
      <trkpt lat="43.98443" lon="5.90791">
        <ele>404</ele>
        <time>2020-10-05T09:12:31.000Z</time>
      </trkpt>
      <trkpt lat="43.98443" lon="5.90792">
        <ele>403</ele>
        <time>2020-10-05T09:12:32.000Z</time>
      </trkpt>
      <trkpt lat="43.98444" lon="5.90793">
        <ele>403</ele>
        <time>2020-10-05T09:12:33.000Z</time>
      </trkpt>
      <trkpt lat="43.98445" lon="5.90794">
        <ele>403</ele>
        <time>2020-10-05T09:12:34.000Z</time>
      </trkpt>
      <trkpt lat="43.98445" lon="5.90795">
        <ele>403</ele>
        <time>2020-10-05T09:12:35.000Z</time>
      </trkpt>
      <trkpt lat="43.98446" lon="5.90796">
        <ele>403</ele>
        <time>2020-10-05T09:12:36.000Z</time>
      </trkpt>
      <trkpt lat="43.98447" lon="5.90797">
        <ele>403</ele>
        <time>2020-10-05T09:12:37.000Z</time>
      </trkpt>
      <trkpt lat="43.98447" lon="5.90798">
        <ele>402</ele>
        <time>2020-10-05T09:12:38.000Z</time>
      </trkpt>
      <trkpt lat="43.98448" lon="5.90798">
        <ele>402</ele>
        <time>2020-10-05T09:12:39.000Z</time>
      </trkpt>
      <trkpt lat="43.98449" lon="5.90799">
        <ele>402</ele>
        <time>2020-10-05T09:12:40.000Z</time>
      </trkpt>
      <trkpt lat="43.9845" lon="5.908">
        <ele>402</ele>
        <time>2020-10-05T09:12:41.000Z</time>
      </trkpt>
      <trkpt lat="43.98451" lon="5.908">
        <ele>402</ele>
        <time>2020-10-05T09:12:42.000Z</time>
      </trkpt>
      <trkpt lat="43.98452" lon="5.90801">
        <ele>401</ele>
        <time>2020-10-05T09:12:43.000Z</time>
      </trkpt>
      <trkpt lat="43.98453" lon="5.90802">
        <ele>401</ele>
        <time>2020-10-05T09:12:44.000Z</time>
      </trkpt>
      <trkpt lat="43.98453" lon="5.90803">
        <ele>401</ele>
        <time>2020-10-05T09:12:45.000Z</time>
      </trkpt>
      <trkpt lat="43.98454" lon="5.90804">
        <ele>401</ele>
        <time>2020-10-05T09:12:46.000Z</time>
      </trkpt>
      <trkpt lat="43.98455" lon="5.90806">
        <ele>401</ele>
        <time>2020-10-05T09:12:47.000Z</time>
      </trkpt>
      <trkpt lat="43.98455" lon="5.90807">
        <ele>401</ele>
        <time>2020-10-05T09:12:48.000Z</time>
      </trkpt>
      <trkpt lat="43.98456" lon="5.90808">
        <ele>401</ele>
        <time>2020-10-05T09:12:49.000Z</time>
      </trkpt>
      <trkpt lat="43.98456" lon="5.90809">
        <ele>401</ele>
        <time>2020-10-05T09:12:50.000Z</time>
      </trkpt>
      <trkpt lat="43.98457" lon="5.9081">
        <ele>401</ele>
        <time>2020-10-05T09:12:51.000Z</time>
      </trkpt>
      <trkpt lat="43.98458" lon="5.90812">
        <ele>401</ele>
        <time>2020-10-05T09:12:52.000Z</time>
      </trkpt>
      <trkpt lat="43.98458" lon="5.90813">
        <ele>401</ele>
        <time>2020-10-05T09:12:53.000Z</time>
      </trkpt>
      <trkpt lat="43.98459" lon="5.90814">
        <ele>400</ele>
        <time>2020-10-05T09:12:54.000Z</time>
      </trkpt>
      <trkpt lat="43.9846" lon="5.90815">
        <ele>400</ele>
        <time>2020-10-05T09:12:55.000Z</time>
      </trkpt>
      <trkpt lat="43.9846" lon="5.90816">
        <ele>400</ele>
        <time>2020-10-05T09:12:56.000Z</time>
      </trkpt>
      <trkpt lat="43.9846" lon="5.90817">
        <ele>400</ele>
        <time>2020-10-05T09:12:57.000Z</time>
      </trkpt>
      <trkpt lat="43.98461" lon="5.90818">
        <ele>400</ele>
        <time>2020-10-05T09:12:58.000Z</time>
      </trkpt>
      <trkpt lat="43.98461" lon="5.90819">
        <ele>400</ele>
        <time>2020-10-05T09:12:59.000Z</time>
      </trkpt>
      <trkpt lat="43.98462" lon="5.90821">
        <ele>400</ele>
        <time>2020-10-05T09:13:00.000Z</time>
      </trkpt>
      <trkpt lat="43.98463" lon="5.90822">
        <ele>400</ele>
        <time>2020-10-05T09:13:01.000Z</time>
      </trkpt>
      <trkpt lat="43.98463" lon="5.90822">
        <ele>400</ele>
        <time>2020-10-05T09:13:02.000Z</time>
      </trkpt>
      <trkpt lat="43.98463" lon="5.90823">
        <ele>400</ele>
        <time>2020-10-05T09:13:03.000Z</time>
      </trkpt>
      <trkpt lat="43.98464" lon="5.90824">
        <ele>400</ele>
        <time>2020-10-05T09:13:04.000Z</time>
      </trkpt>
      <trkpt lat="43.98464" lon="5.90825">
        <ele>400</ele>
        <time>2020-10-05T09:13:05.000Z</time>
      </trkpt>
      <trkpt lat="43.98464" lon="5.90826">
        <ele>399</ele>
        <time>2020-10-05T09:13:06.000Z</time>
      </trkpt>
      <trkpt lat="43.98464" lon="5.90827">
        <ele>399</ele>
        <time>2020-10-05T09:13:07.000Z</time>
      </trkpt>
      <trkpt lat="43.98465" lon="5.90827">
        <ele>399</ele>
        <time>2020-10-05T09:13:08.000Z</time>
      </trkpt>
      <trkpt lat="43.98465" lon="5.90829">
        <ele>399</ele>
        <time>2020-10-05T09:13:09.000Z</time>
      </trkpt>
      <trkpt lat="43.98465" lon="5.9083">
        <ele>399</ele>
        <time>2020-10-05T09:13:10.000Z</time>
      </trkpt>
      <trkpt lat="43.98465" lon="5.90831">
        <ele>399</ele>
        <time>2020-10-05T09:13:11.000Z</time>
      </trkpt>
      <trkpt lat="43.98466" lon="5.90832">
        <ele>398</ele>
        <time>2020-10-05T09:13:12.000Z</time>
      </trkpt>
      <trkpt lat="43.98466" lon="5.90833">
        <ele>398</ele>
        <time>2020-10-05T09:13:13.000Z</time>
      </trkpt>
      <trkpt lat="43.98466" lon="5.90834">
        <ele>398</ele>
        <time>2020-10-05T09:13:14.000Z</time>
      </trkpt>
      <trkpt lat="43.98466" lon="5.90836">
        <ele>398</ele>
        <time>2020-10-05T09:13:15.000Z</time>
      </trkpt>
      <trkpt lat="43.98466" lon="5.90837">
        <ele>398</ele>
        <time>2020-10-05T09:13:16.000Z</time>
      </trkpt>
      <trkpt lat="43.98467" lon="5.90838">
        <ele>398</ele>
        <time>2020-10-05T09:13:17.000Z</time>
      </trkpt>
      <trkpt lat="43.98466" lon="5.9084">
        <ele>398</ele>
        <time>2020-10-05T09:13:18.000Z</time>
      </trkpt>
      <trkpt lat="43.98466" lon="5.90841">
        <ele>398</ele>
        <time>2020-10-05T09:13:19.000Z</time>
      </trkpt>
      <trkpt lat="43.98466" lon="5.90842">
        <ele>398</ele>
        <time>2020-10-05T09:13:20.000Z</time>
      </trkpt>
      <trkpt lat="43.98465" lon="5.90843">
        <ele>397</ele>
        <time>2020-10-05T09:13:21.000Z</time>
      </trkpt>
      <trkpt lat="43.98465" lon="5.90844">
        <ele>397</ele>
        <time>2020-10-05T09:13:22.000Z</time>
      </trkpt>
      <trkpt lat="43.98465" lon="5.90846">
        <ele>397</ele>
        <time>2020-10-05T09:13:23.000Z</time>
      </trkpt>
      <trkpt lat="43.98464" lon="5.90847">
        <ele>397</ele>
        <time>2020-10-05T09:13:24.000Z</time>
      </trkpt>
      <trkpt lat="43.98464" lon="5.90848">
        <ele>396</ele>
        <time>2020-10-05T09:13:25.000Z</time>
      </trkpt>
      <trkpt lat="43.98463" lon="5.90849">
        <ele>396</ele>
        <time>2020-10-05T09:13:26.000Z</time>
      </trkpt>
      <trkpt lat="43.98463" lon="5.9085">
        <ele>396</ele>
        <time>2020-10-05T09:13:27.000Z</time>
      </trkpt>
      <trkpt lat="43.98462" lon="5.90851">
        <ele>396</ele>
        <time>2020-10-05T09:13:28.000Z</time>
      </trkpt>
      <trkpt lat="43.98461" lon="5.90851">
        <ele>396</ele>
        <time>2020-10-05T09:13:29.000Z</time>
      </trkpt>
      <trkpt lat="43.9846" lon="5.90852">
        <ele>396</ele>
        <time>2020-10-05T09:13:30.000Z</time>
      </trkpt>
      <trkpt lat="43.98459" lon="5.90853">
        <ele>396</ele>
        <time>2020-10-05T09:13:31.000Z</time>
      </trkpt>
      <trkpt lat="43.98457" lon="5.90853">
        <ele>396</ele>
        <time>2020-10-05T09:13:32.000Z</time>
      </trkpt>
      <trkpt lat="43.98456" lon="5.90854">
        <ele>396</ele>
        <time>2020-10-05T09:13:33.000Z</time>
      </trkpt>
      <trkpt lat="43.98455" lon="5.90854">
        <ele>396</ele>
        <time>2020-10-05T09:13:34.000Z</time>
      </trkpt>
      <trkpt lat="43.98454" lon="5.90855">
        <ele>396</ele>
        <time>2020-10-05T09:13:35.000Z</time>
      </trkpt>
      <trkpt lat="43.98453" lon="5.90856">
        <ele>396</ele>
        <time>2020-10-05T09:13:36.000Z</time>
      </trkpt>
      <trkpt lat="43.98453" lon="5.90856">
        <ele>396</ele>
        <time>2020-10-05T09:13:37.000Z</time>
      </trkpt>
      <trkpt lat="43.98452" lon="5.90857">
        <ele>396</ele>
        <time>2020-10-05T09:13:38.000Z</time>
      </trkpt>
      <trkpt lat="43.98451" lon="5.90857">
        <ele>396</ele>
        <time>2020-10-05T09:13:39.000Z</time>
      </trkpt>
      <trkpt lat="43.9845" lon="5.90858">
        <ele>396</ele>
        <time>2020-10-05T09:13:40.000Z</time>
      </trkpt>
      <trkpt lat="43.98449" lon="5.90859">
        <ele>396</ele>
        <time>2020-10-05T09:13:41.000Z</time>
      </trkpt>
      <trkpt lat="43.98448" lon="5.90859">
        <ele>396</ele>
        <time>2020-10-05T09:13:42.000Z</time>
      </trkpt>
      <trkpt lat="43.98447" lon="5.9086">
        <ele>395</ele>
        <time>2020-10-05T09:13:43.000Z</time>
      </trkpt>
      <trkpt lat="43.98446" lon="5.9086">
        <ele>395</ele>
        <time>2020-10-05T09:13:44.000Z</time>
      </trkpt>
      <trkpt lat="43.98445" lon="5.90861">
        <ele>395</ele>
        <time>2020-10-05T09:13:45.000Z</time>
      </trkpt>
      <trkpt lat="43.98444" lon="5.90862">
        <ele>395</ele>
        <time>2020-10-05T09:13:46.000Z</time>
      </trkpt>
      <trkpt lat="43.98443" lon="5.90863">
        <ele>395</ele>
        <time>2020-10-05T09:13:47.000Z</time>
      </trkpt>
      <trkpt lat="43.98441" lon="5.90863">
        <ele>395</ele>
        <time>2020-10-05T09:13:48.000Z</time>
      </trkpt>
      <trkpt lat="43.9844" lon="5.90864">
        <ele>395</ele>
        <time>2020-10-05T09:13:49.000Z</time>
      </trkpt>
      <trkpt lat="43.9844" lon="5.90865">
        <ele>395</ele>
        <time>2020-10-05T09:13:50.000Z</time>
      </trkpt>
      <trkpt lat="43.98439" lon="5.90866">
        <ele>395</ele>
        <time>2020-10-05T09:13:51.000Z</time>
      </trkpt>
      <trkpt lat="43.98438" lon="5.90867">
        <ele>395</ele>
        <time>2020-10-05T09:13:52.000Z</time>
      </trkpt>
      <trkpt lat="43.98437" lon="5.90869">
        <ele>395</ele>
        <time>2020-10-05T09:13:53.000Z</time>
      </trkpt>
      <trkpt lat="43.98436" lon="5.9087">
        <ele>395</ele>
        <time>2020-10-05T09:13:54.000Z</time>
      </trkpt>
      <trkpt lat="43.98435" lon="5.90871">
        <ele>395</ele>
        <time>2020-10-05T09:13:55.000Z</time>
      </trkpt>
      <trkpt lat="43.98434" lon="5.90872">
        <ele>395</ele>
        <time>2020-10-05T09:13:56.000Z</time>
      </trkpt>
      <trkpt lat="43.98434" lon="5.90873">
        <ele>395</ele>
        <time>2020-10-05T09:13:57.000Z</time>
      </trkpt>
      <trkpt lat="43.98433" lon="5.90874">
        <ele>395</ele>
        <time>2020-10-05T09:13:58.000Z</time>
      </trkpt>
      <trkpt lat="43.98432" lon="5.90874">
        <ele>395</ele>
        <time>2020-10-05T09:13:59.000Z</time>
      </trkpt>
      <trkpt lat="43.98432" lon="5.90874">
        <ele>395</ele>
        <time>2020-10-05T09:14:00.000Z</time>
      </trkpt>
      <trkpt lat="43.98432" lon="5.90875">
        <ele>395</ele>
        <time>2020-10-05T09:14:01.000Z</time>
      </trkpt>
      <trkpt lat="43.98432" lon="5.90875">
        <ele>395</ele>
        <time>2020-10-05T09:14:02.000Z</time>
      </trkpt>
      <trkpt lat="43.98432" lon="5.90874">
        <ele>395</ele>
        <time>2020-10-05T09:14:03.000Z</time>
      </trkpt>
      <trkpt lat="43.98432" lon="5.90874">
        <ele>395</ele>
        <time>2020-10-05T09:14:04.000Z</time>
      </trkpt>
      <trkpt lat="43.98432" lon="5.90873">
        <ele>395</ele>
        <time>2020-10-05T09:14:05.000Z</time>
      </trkpt>
      <trkpt lat="43.98433" lon="5.90872">
        <ele>395</ele>
        <time>2020-10-05T09:14:06.000Z</time>
      </trkpt>
      <trkpt lat="43.98433" lon="5.90872">
        <ele>394</ele>
        <time>2020-10-05T09:14:07.000Z</time>
      </trkpt>
      <trkpt lat="43.98434" lon="5.90871">
        <ele>394</ele>
        <time>2020-10-05T09:14:08.000Z</time>
      </trkpt>
      <trkpt lat="43.98434" lon="5.90871">
        <ele>394</ele>
        <time>2020-10-05T09:14:09.000Z</time>
      </trkpt>
      <trkpt lat="43.98434" lon="5.9087">
        <ele>394</ele>
        <time>2020-10-05T09:14:10.000Z</time>
      </trkpt>
      <trkpt lat="43.98434" lon="5.9087">
        <ele>394</ele>
        <time>2020-10-05T09:14:11.000Z</time>
      </trkpt>
      <trkpt lat="43.98434" lon="5.9087">
        <ele>394</ele>
        <time>2020-10-05T09:14:12.000Z</time>
      </trkpt>
      <trkpt lat="43.98434" lon="5.9087">
        <ele>394</ele>
        <time>2020-10-05T09:14:13.000Z</time>
      </trkpt>
      <trkpt lat="43.98434" lon="5.90871">
        <ele>394</ele>
        <time>2020-10-05T09:14:14.000Z</time>
      </trkpt>
      <trkpt lat="43.98434" lon="5.9087">
        <ele>394</ele>
        <time>2020-10-05T09:14:15.000Z</time>
      </trkpt>
      <trkpt lat="43.98434" lon="5.9087">
        <ele>394</ele>
        <time>2020-10-05T09:14:16.000Z</time>
      </trkpt>
      <trkpt lat="43.98434" lon="5.9087">
        <ele>394</ele>
        <time>2020-10-05T09:14:17.000Z</time>
      </trkpt>
      <trkpt lat="43.98434" lon="5.9087">
        <ele>394</ele>
        <time>2020-10-05T09:14:18.000Z</time>
      </trkpt>
      <trkpt lat="43.98434" lon="5.9087">
        <ele>394</ele>
        <time>2020-10-05T09:14:19.000Z</time>
      </trkpt>
      <trkpt lat="43.98434" lon="5.9087">
        <ele>394</ele>
        <time>2020-10-05T09:14:20.000Z</time>
      </trkpt>
      <trkpt lat="43.98434" lon="5.9087">
        <ele>394</ele>
        <time>2020-10-05T09:14:21.000Z</time>
      </trkpt>
      <trkpt lat="43.98434" lon="5.9087">
        <ele>394</ele>
        <time>2020-10-05T09:14:22.000Z</time>
      </trkpt>
      <trkpt lat="43.98435" lon="5.9087">
        <ele>394</ele>
        <time>2020-10-05T09:14:23.000Z</time>
      </trkpt>
      <trkpt lat="43.98435" lon="5.9087">
        <ele>394</ele>
        <time>2020-10-05T09:14:24.000Z</time>
      </trkpt>
      <trkpt lat="43.98435" lon="5.9087">
        <ele>394</ele>
        <time>2020-10-05T09:14:25.000Z</time>
      </trkpt>
      <trkpt lat="43.98435" lon="5.9087">
        <ele>394</ele>
        <time>2020-10-05T09:14:26.000Z</time>
      </trkpt>
      <trkpt lat="43.98435" lon="5.9087">
        <ele>394</ele>
        <time>2020-10-05T09:14:27.000Z</time>
      </trkpt>
      <trkpt lat="43.98435" lon="5.9087">
        <ele>394</ele>
        <time>2020-10-05T09:14:28.000Z</time>
      </trkpt>
      <trkpt lat="43.98435" lon="5.9087">
        <ele>394</ele>
        <time>2020-10-05T09:14:29.000Z</time>
      </trkpt>
      <trkpt lat="43.98435" lon="5.9087">
        <ele>394</ele>
        <time>2020-10-05T09:14:30.000Z</time>
      </trkpt>
      <trkpt lat="43.98435" lon="5.90869">
        <ele>394</ele>
        <time>2020-10-05T09:14:31.000Z</time>
      </trkpt>
      <trkpt lat="43.98435" lon="5.90869">
        <ele>394</ele>
        <time>2020-10-05T09:14:32.000Z</time>
      </trkpt>
      <trkpt lat="43.98435" lon="5.90869">
        <ele>394</ele>
        <time>2020-10-05T09:14:33.000Z</time>
      </trkpt>
      <trkpt lat="43.98435" lon="5.90869">
        <ele>394</ele>
        <time>2020-10-05T09:14:34.000Z</time>
      </trkpt>
      <trkpt lat="43.98435" lon="5.90868">
        <ele>394</ele>
        <time>2020-10-05T09:14:35.000Z</time>
      </trkpt>
      <trkpt lat="43.98435" lon="5.90867">
        <ele>394</ele>
        <time>2020-10-05T09:14:36.000Z</time>
      </trkpt>
      <trkpt lat="43.98435" lon="5.90866">
        <ele>394</ele>
        <time>2020-10-05T09:14:37.000Z</time>
      </trkpt>
      <trkpt lat="43.98435" lon="5.90866">
        <ele>394</ele>
        <time>2020-10-05T09:14:38.000Z</time>
      </trkpt>
      <trkpt lat="43.98435" lon="5.90865">
        <ele>394</ele>
        <time>2020-10-05T09:14:39.000Z</time>
      </trkpt>
      <trkpt lat="43.98435" lon="5.90865">
        <ele>394</ele>
        <time>2020-10-05T09:14:40.000Z</time>
      </trkpt>
      <trkpt lat="43.98434" lon="5.90866">
        <ele>394</ele>
        <time>2020-10-05T09:14:41.000Z</time>
      </trkpt>
      <trkpt lat="43.98434" lon="5.90866">
        <ele>394</ele>
        <time>2020-10-05T09:14:42.000Z</time>
      </trkpt>
      <trkpt lat="43.98434" lon="5.90866">
        <ele>394</ele>
        <time>2020-10-05T09:14:43.000Z</time>
      </trkpt>
      <trkpt lat="43.98434" lon="5.90866">
        <ele>394</ele>
        <time>2020-10-05T09:14:44.000Z</time>
      </trkpt>
      <trkpt lat="43.98434" lon="5.90866">
        <ele>393</ele>
        <time>2020-10-05T09:14:45.000Z</time>
      </trkpt>
      <trkpt lat="43.98433" lon="5.90865">
        <ele>393</ele>
        <time>2020-10-05T09:14:46.000Z</time>
      </trkpt>
      <trkpt lat="43.98434" lon="5.90864">
        <ele>393</ele>
        <time>2020-10-05T09:14:47.000Z</time>
      </trkpt>
      <trkpt lat="43.98434" lon="5.90864">
        <ele>393</ele>
        <time>2020-10-05T09:14:48.000Z</time>
      </trkpt>
      <trkpt lat="43.98434" lon="5.90863">
        <ele>393</ele>
        <time>2020-10-05T09:14:49.000Z</time>
      </trkpt>
      <trkpt lat="43.98435" lon="5.90862">
        <ele>393</ele>
        <time>2020-10-05T09:14:50.000Z</time>
      </trkpt>
      <trkpt lat="43.98435" lon="5.90861">
        <ele>393</ele>
        <time>2020-10-05T09:14:51.000Z</time>
      </trkpt>
      <trkpt lat="43.98436" lon="5.90861">
        <ele>393</ele>
        <time>2020-10-05T09:14:52.000Z</time>
      </trkpt>
      <trkpt lat="43.98436" lon="5.9086">
        <ele>393</ele>
        <time>2020-10-05T09:14:53.000Z</time>
      </trkpt>
      <trkpt lat="43.98437" lon="5.90859">
        <ele>393</ele>
        <time>2020-10-05T09:14:54.000Z</time>
      </trkpt>
      <trkpt lat="43.98438" lon="5.90859">
        <ele>393</ele>
        <time>2020-10-05T09:14:55.000Z</time>
      </trkpt>
      <trkpt lat="43.98438" lon="5.90858">
        <ele>393</ele>
        <time>2020-10-05T09:14:56.000Z</time>
      </trkpt>
      <trkpt lat="43.98439" lon="5.90857">
        <ele>393</ele>
        <time>2020-10-05T09:14:57.000Z</time>
      </trkpt>
      <trkpt lat="43.9844" lon="5.90857">
        <ele>393</ele>
        <time>2020-10-05T09:14:58.000Z</time>
      </trkpt>
      <trkpt lat="43.98441" lon="5.90856">
        <ele>393</ele>
        <time>2020-10-05T09:14:59.000Z</time>
      </trkpt>
      <trkpt lat="43.98442" lon="5.90855">
        <ele>393</ele>
        <time>2020-10-05T09:15:00.000Z</time>
      </trkpt>
      <trkpt lat="43.98444" lon="5.90855">
        <ele>393</ele>
        <time>2020-10-05T09:15:01.000Z</time>
      </trkpt>
      <trkpt lat="43.98445" lon="5.90854">
        <ele>393</ele>
        <time>2020-10-05T09:15:02.000Z</time>
      </trkpt>
      <trkpt lat="43.98446" lon="5.90854">
        <ele>393</ele>
        <time>2020-10-05T09:15:03.000Z</time>
      </trkpt>
      <trkpt lat="43.98447" lon="5.90854">
        <ele>393</ele>
        <time>2020-10-05T09:15:04.000Z</time>
      </trkpt>
      <trkpt lat="43.98448" lon="5.90853">
        <ele>393</ele>
        <time>2020-10-05T09:15:05.000Z</time>
      </trkpt>
      <trkpt lat="43.98449" lon="5.90853">
        <ele>393</ele>
        <time>2020-10-05T09:15:06.000Z</time>
      </trkpt>
      <trkpt lat="43.9845" lon="5.90853">
        <ele>393</ele>
        <time>2020-10-05T09:15:07.000Z</time>
      </trkpt>
      <trkpt lat="43.9845" lon="5.90853">
        <ele>393</ele>
        <time>2020-10-05T09:15:08.000Z</time>
      </trkpt>
      <trkpt lat="43.9845" lon="5.90853">
        <ele>393</ele>
        <time>2020-10-05T09:15:09.000Z</time>
      </trkpt>
      <trkpt lat="43.9845" lon="5.90854">
        <ele>393</ele>
        <time>2020-10-05T09:15:10.000Z</time>
      </trkpt>
      <trkpt lat="43.98451" lon="5.90855">
        <ele>393</ele>
        <time>2020-10-05T09:15:11.000Z</time>
      </trkpt>
      <trkpt lat="43.98451" lon="5.90856">
        <ele>393</ele>
        <time>2020-10-05T09:15:12.000Z</time>
      </trkpt>
      <trkpt lat="43.98451" lon="5.90856">
        <ele>393</ele>
        <time>2020-10-05T09:15:13.000Z</time>
      </trkpt>
      <trkpt lat="43.98451" lon="5.90856">
        <ele>393</ele>
        <time>2020-10-05T09:15:14.000Z</time>
      </trkpt>
      <trkpt lat="43.98451" lon="5.90856">
        <ele>393</ele>
        <time>2020-10-05T09:15:15.000Z</time>
      </trkpt>
      <trkpt lat="43.98451" lon="5.90855">
        <ele>393</ele>
        <time>2020-10-05T09:15:16.000Z</time>
      </trkpt>
      <trkpt lat="43.98451" lon="5.90855">
        <ele>393</ele>
        <time>2020-10-05T09:15:17.000Z</time>
      </trkpt>
      <trkpt lat="43.98452" lon="5.90854">
        <ele>393</ele>
        <time>2020-10-05T09:15:18.000Z</time>
      </trkpt>
      <trkpt lat="43.98452" lon="5.90854">
        <ele>393</ele>
        <time>2020-10-05T09:15:19.000Z</time>
      </trkpt>
      <trkpt lat="43.98453" lon="5.90855">
        <ele>393</ele>
        <time>2020-10-05T09:15:20.000Z</time>
      </trkpt>
      <trkpt lat="43.98453" lon="5.90855">
        <ele>393</ele>
        <time>2020-10-05T09:15:21.000Z</time>
      </trkpt>
      <trkpt lat="43.98454" lon="5.90857">
        <ele>393</ele>
        <time>2020-10-05T09:15:22.000Z</time>
      </trkpt>
      <trkpt lat="43.98454" lon="5.90858">
        <ele>393</ele>
        <time>2020-10-05T09:15:23.000Z</time>
      </trkpt>
      <trkpt lat="43.98455" lon="5.9086">
        <ele>393</ele>
        <time>2020-10-05T09:15:24.000Z</time>
      </trkpt>
      <trkpt lat="43.98455" lon="5.90861">
        <ele>393</ele>
        <time>2020-10-05T09:15:25.000Z</time>
      </trkpt>
      <trkpt lat="43.98456" lon="5.90862">
        <ele>393</ele>
        <time>2020-10-05T09:15:26.000Z</time>
      </trkpt>
      <trkpt lat="43.98456" lon="5.90864">
        <ele>393</ele>
        <time>2020-10-05T09:15:27.000Z</time>
      </trkpt>
      <trkpt lat="43.98457" lon="5.90865">
        <ele>393</ele>
        <time>2020-10-05T09:15:28.000Z</time>
      </trkpt>
      <trkpt lat="43.98457" lon="5.90866">
        <ele>393</ele>
        <time>2020-10-05T09:15:29.000Z</time>
      </trkpt>
      <trkpt lat="43.98458" lon="5.90867">
        <ele>393</ele>
        <time>2020-10-05T09:15:30.000Z</time>
      </trkpt>
      <trkpt lat="43.98458" lon="5.90868">
        <ele>393</ele>
        <time>2020-10-05T09:15:31.000Z</time>
      </trkpt>
      <trkpt lat="43.98458" lon="5.90869">
        <ele>393</ele>
        <time>2020-10-05T09:15:32.000Z</time>
      </trkpt>
      <trkpt lat="43.98459" lon="5.90871">
        <ele>393</ele>
        <time>2020-10-05T09:15:33.000Z</time>
      </trkpt>
      <trkpt lat="43.98459" lon="5.90873">
        <ele>393</ele>
        <time>2020-10-05T09:15:34.000Z</time>
      </trkpt>
      <trkpt lat="43.98459" lon="5.90874">
        <ele>393</ele>
        <time>2020-10-05T09:15:35.000Z</time>
      </trkpt>
      <trkpt lat="43.98459" lon="5.90876">
        <ele>393</ele>
        <time>2020-10-05T09:15:36.000Z</time>
      </trkpt>
      <trkpt lat="43.98459" lon="5.90878">
        <ele>393</ele>
        <time>2020-10-05T09:15:37.000Z</time>
      </trkpt>
      <trkpt lat="43.98459" lon="5.90879">
        <ele>393</ele>
        <time>2020-10-05T09:15:38.000Z</time>
      </trkpt>
      <trkpt lat="43.98458" lon="5.90881">
        <ele>393</ele>
        <time>2020-10-05T09:15:39.000Z</time>
      </trkpt>
      <trkpt lat="43.98458" lon="5.90883">
        <ele>393</ele>
        <time>2020-10-05T09:15:40.000Z</time>
      </trkpt>
      <trkpt lat="43.98458" lon="5.90885">
        <ele>393</ele>
        <time>2020-10-05T09:15:41.000Z</time>
      </trkpt>
      <trkpt lat="43.98457" lon="5.90887">
        <ele>393</ele>
        <time>2020-10-05T09:15:42.000Z</time>
      </trkpt>
      <trkpt lat="43.98457" lon="5.90888">
        <ele>393</ele>
        <time>2020-10-05T09:15:43.000Z</time>
      </trkpt>
      <trkpt lat="43.98456" lon="5.9089">
        <ele>393</ele>
        <time>2020-10-05T09:15:44.000Z</time>
      </trkpt>
      <trkpt lat="43.98455" lon="5.90891">
        <ele>393</ele>
        <time>2020-10-05T09:15:45.000Z</time>
      </trkpt>
      <trkpt lat="43.98454" lon="5.90893">
        <ele>393</ele>
        <time>2020-10-05T09:15:46.000Z</time>
      </trkpt>
      <trkpt lat="43.98454" lon="5.90893">
        <ele>393</ele>
        <time>2020-10-05T09:15:47.000Z</time>
      </trkpt>
      <trkpt lat="43.98453" lon="5.90894">
        <ele>393</ele>
        <time>2020-10-05T09:15:48.000Z</time>
      </trkpt>
      <trkpt lat="43.98453" lon="5.90894">
        <ele>393</ele>
        <time>2020-10-05T09:15:49.000Z</time>
      </trkpt>
      <trkpt lat="43.98454" lon="5.90895">
        <ele>393</ele>
        <time>2020-10-05T09:15:50.000Z</time>
      </trkpt>
      <trkpt lat="43.98454" lon="5.90896">
        <ele>393</ele>
        <time>2020-10-05T09:15:51.000Z</time>
      </trkpt>
      <trkpt lat="43.98454" lon="5.90897">
        <ele>393</ele>
        <time>2020-10-05T09:15:52.000Z</time>
      </trkpt>
      <trkpt lat="43.98455" lon="5.90898">
        <ele>393</ele>
        <time>2020-10-05T09:15:53.000Z</time>
      </trkpt>
      <trkpt lat="43.98455" lon="5.90898">
        <ele>393</ele>
        <time>2020-10-05T09:15:54.000Z</time>
      </trkpt>
      <trkpt lat="43.98456" lon="5.90899">
        <ele>393</ele>
        <time>2020-10-05T09:15:55.000Z</time>
      </trkpt>
      <trkpt lat="43.98457" lon="5.90899">
        <ele>393</ele>
        <time>2020-10-05T09:15:56.000Z</time>
      </trkpt>
      <trkpt lat="43.98457" lon="5.90899">
        <ele>393</ele>
        <time>2020-10-05T09:15:57.000Z</time>
      </trkpt>
      <trkpt lat="43.98457" lon="5.90899">
        <ele>392</ele>
        <time>2020-10-05T09:15:58.000Z</time>
      </trkpt>
      <trkpt lat="43.98457" lon="5.90899">
        <ele>392</ele>
        <time>2020-10-05T09:15:59.000Z</time>
      </trkpt>
      <trkpt lat="43.98457" lon="5.90899">
        <ele>392</ele>
        <time>2020-10-05T09:16:00.000Z</time>
      </trkpt>
      <trkpt lat="43.98457" lon="5.90899">
        <ele>392</ele>
        <time>2020-10-05T09:16:01.000Z</time>
      </trkpt>
      <trkpt lat="43.98457" lon="5.90899">
        <ele>392</ele>
        <time>2020-10-05T09:16:02.000Z</time>
      </trkpt>
      <trkpt lat="43.98457" lon="5.90899">
        <ele>392</ele>
        <time>2020-10-05T09:16:03.000Z</time>
      </trkpt>
      <trkpt lat="43.98457" lon="5.90899">
        <ele>392</ele>
        <time>2020-10-05T09:16:04.000Z</time>
      </trkpt>
      <trkpt lat="43.98457" lon="5.90899">
        <ele>392</ele>
        <time>2020-10-05T09:16:05.000Z</time>
      </trkpt>
      <trkpt lat="43.98458" lon="5.909">
        <ele>392</ele>
        <time>2020-10-05T09:16:06.000Z</time>
      </trkpt>
      <trkpt lat="43.98458" lon="5.90901">
        <ele>392</ele>
        <time>2020-10-05T09:16:07.000Z</time>
      </trkpt>
      <trkpt lat="43.98458" lon="5.90902">
        <ele>392</ele>
        <time>2020-10-05T09:16:08.000Z</time>
      </trkpt>
      <trkpt lat="43.98458" lon="5.90903">
        <ele>393</ele>
        <time>2020-10-05T09:16:09.000Z</time>
      </trkpt>
      <trkpt lat="43.98458" lon="5.90904">
        <ele>393</ele>
        <time>2020-10-05T09:16:10.000Z</time>
      </trkpt>
      <trkpt lat="43.98458" lon="5.90905">
        <ele>393</ele>
        <time>2020-10-05T09:16:11.000Z</time>
      </trkpt>
      <trkpt lat="43.98458" lon="5.90907">
        <ele>393</ele>
        <time>2020-10-05T09:16:12.000Z</time>
      </trkpt>
      <trkpt lat="43.98458" lon="5.90908">
        <ele>393</ele>
        <time>2020-10-05T09:16:13.000Z</time>
      </trkpt>
      <trkpt lat="43.98458" lon="5.9091">
        <ele>393</ele>
        <time>2020-10-05T09:16:14.000Z</time>
      </trkpt>
      <trkpt lat="43.98458" lon="5.9091">
        <ele>393</ele>
        <time>2020-10-05T09:16:15.000Z</time>
      </trkpt>
      <trkpt lat="43.98458" lon="5.90911">
        <ele>393</ele>
        <time>2020-10-05T09:16:16.000Z</time>
      </trkpt>
      <trkpt lat="43.98458" lon="5.90912">
        <ele>393</ele>
        <time>2020-10-05T09:16:17.000Z</time>
      </trkpt>
      <trkpt lat="43.98458" lon="5.90912">
        <ele>393</ele>
        <time>2020-10-05T09:16:18.000Z</time>
      </trkpt>
      <trkpt lat="43.98458" lon="5.90913">
        <ele>393</ele>
        <time>2020-10-05T09:16:19.000Z</time>
      </trkpt>
      <trkpt lat="43.98457" lon="5.90914">
        <ele>393</ele>
        <time>2020-10-05T09:16:20.000Z</time>
      </trkpt>
      <trkpt lat="43.98457" lon="5.90915">
        <ele>393</ele>
        <time>2020-10-05T09:16:21.000Z</time>
      </trkpt>
      <trkpt lat="43.98457" lon="5.90916">
        <ele>393</ele>
        <time>2020-10-05T09:16:22.000Z</time>
      </trkpt>
      <trkpt lat="43.98457" lon="5.90916">
        <ele>393</ele>
        <time>2020-10-05T09:16:23.000Z</time>
      </trkpt>
      <trkpt lat="43.98457" lon="5.90916">
        <ele>393</ele>
        <time>2020-10-05T09:16:24.000Z</time>
      </trkpt>
      <trkpt lat="43.98457" lon="5.90916">
        <ele>393</ele>
        <time>2020-10-05T09:16:25.000Z</time>
      </trkpt>
      <trkpt lat="43.98457" lon="5.90916">
        <ele>393</ele>
        <time>2020-10-05T09:16:26.000Z</time>
      </trkpt>
      <trkpt lat="43.98457" lon="5.90916">
        <ele>393</ele>
        <time>2020-10-05T09:16:27.000Z</time>
      </trkpt>
      <trkpt lat="43.98457" lon="5.90916">
        <ele>393</ele>
        <time>2020-10-05T09:16:28.000Z</time>
      </trkpt>
      <trkpt lat="43.98457" lon="5.90916">
        <ele>393</ele>
        <time>2020-10-05T09:16:29.000Z</time>
      </trkpt>
      <trkpt lat="43.98457" lon="5.90916">
        <ele>393</ele>
        <time>2020-10-05T09:16:30.000Z</time>
      </trkpt>
      <trkpt lat="43.98457" lon="5.90916">
        <ele>393</ele>
        <time>2020-10-05T09:16:31.000Z</time>
      </trkpt>
      <trkpt lat="43.98457" lon="5.90916">
        <ele>393</ele>
        <time>2020-10-05T09:16:32.000Z</time>
      </trkpt>
      <trkpt lat="43.98457" lon="5.90916">
        <ele>393</ele>
        <time>2020-10-05T09:16:33.000Z</time>
      </trkpt>
      <trkpt lat="43.98457" lon="5.90916">
        <ele>393</ele>
        <time>2020-10-05T09:16:34.000Z</time>
      </trkpt>
      <trkpt lat="43.98457" lon="5.90916">
        <ele>393</ele>
        <time>2020-10-05T09:16:35.000Z</time>
      </trkpt>
      <trkpt lat="43.98457" lon="5.90916">
        <ele>393</ele>
        <time>2020-10-05T09:16:36.000Z</time>
      </trkpt>
      <trkpt lat="43.98457" lon="5.90917">
        <ele>393</ele>
        <time>2020-10-05T09:16:37.000Z</time>
      </trkpt>
      <trkpt lat="43.98457" lon="5.90917">
        <ele>393</ele>
        <time>2020-10-05T09:16:38.000Z</time>
      </trkpt>
      <trkpt lat="43.98457" lon="5.90917">
        <ele>393</ele>
        <time>2020-10-05T09:16:39.000Z</time>
      </trkpt>
      <trkpt lat="43.98456" lon="5.90917">
        <ele>393</ele>
        <time>2020-10-05T09:16:40.000Z</time>
      </trkpt>
      <trkpt lat="43.98456" lon="5.90917">
        <ele>393</ele>
        <time>2020-10-05T09:16:41.000Z</time>
      </trkpt>
      <trkpt lat="43.98456" lon="5.90918">
        <ele>393</ele>
        <time>2020-10-05T09:16:42.000Z</time>
      </trkpt>
      <trkpt lat="43.98456" lon="5.90918">
        <ele>394</ele>
        <time>2020-10-05T09:16:43.000Z</time>
      </trkpt>
      <trkpt lat="43.98456" lon="5.90919">
        <ele>394</ele>
        <time>2020-10-05T09:16:44.000Z</time>
      </trkpt>
      <trkpt lat="43.98456" lon="5.9092">
        <ele>394</ele>
        <time>2020-10-05T09:16:45.000Z</time>
      </trkpt>
      <trkpt lat="43.98457" lon="5.90921">
        <ele>394</ele>
        <time>2020-10-05T09:16:46.000Z</time>
      </trkpt>
      <trkpt lat="43.98457" lon="5.90922">
        <ele>394</ele>
        <time>2020-10-05T09:16:47.000Z</time>
      </trkpt>
      <trkpt lat="43.98457" lon="5.90923">
        <ele>394</ele>
        <time>2020-10-05T09:16:48.000Z</time>
      </trkpt>
      <trkpt lat="43.98457" lon="5.90925">
        <ele>394</ele>
        <time>2020-10-05T09:16:49.000Z</time>
      </trkpt>
      <trkpt lat="43.98457" lon="5.90926">
        <ele>394</ele>
        <time>2020-10-05T09:16:50.000Z</time>
      </trkpt>
      <trkpt lat="43.98457" lon="5.90927">
        <ele>394</ele>
        <time>2020-10-05T09:16:51.000Z</time>
      </trkpt>
      <trkpt lat="43.98457" lon="5.90928">
        <ele>394</ele>
        <time>2020-10-05T09:16:52.000Z</time>
      </trkpt>
      <trkpt lat="43.98456" lon="5.90929">
        <ele>394</ele>
        <time>2020-10-05T09:16:53.000Z</time>
      </trkpt>
      <trkpt lat="43.98456" lon="5.9093">
        <ele>394</ele>
        <time>2020-10-05T09:16:54.000Z</time>
      </trkpt>
      <trkpt lat="43.98455" lon="5.9093">
        <ele>394</ele>
        <time>2020-10-05T09:16:55.000Z</time>
      </trkpt>
      <trkpt lat="43.98455" lon="5.9093">
        <ele>394</ele>
        <time>2020-10-05T09:16:56.000Z</time>
      </trkpt>
      <trkpt lat="43.98455" lon="5.9093">
        <ele>394</ele>
        <time>2020-10-05T09:16:57.000Z</time>
      </trkpt>
      <trkpt lat="43.98455" lon="5.9093">
        <ele>394</ele>
        <time>2020-10-05T09:16:58.000Z</time>
      </trkpt>
      <trkpt lat="43.98455" lon="5.9093">
        <ele>394</ele>
        <time>2020-10-05T09:16:59.000Z</time>
      </trkpt>
      <trkpt lat="43.98455" lon="5.9093">
        <ele>394</ele>
        <time>2020-10-05T09:17:00.000Z</time>
      </trkpt>
      <trkpt lat="43.98455" lon="5.9093">
        <ele>394</ele>
        <time>2020-10-05T09:17:01.000Z</time>
      </trkpt>
      <trkpt lat="43.98455" lon="5.9093">
        <ele>394</ele>
        <time>2020-10-05T09:17:02.000Z</time>
      </trkpt>
      <trkpt lat="43.98455" lon="5.9093">
        <ele>394</ele>
        <time>2020-10-05T09:17:03.000Z</time>
      </trkpt>
      <trkpt lat="43.98455" lon="5.90931">
        <ele>394</ele>
        <time>2020-10-05T09:17:04.000Z</time>
      </trkpt>
      <trkpt lat="43.98455" lon="5.90931">
        <ele>394</ele>
        <time>2020-10-05T09:17:05.000Z</time>
      </trkpt>
      <trkpt lat="43.98455" lon="5.90931">
        <ele>394</ele>
        <time>2020-10-05T09:17:06.000Z</time>
      </trkpt>
      <trkpt lat="43.98455" lon="5.90931">
        <ele>394</ele>
        <time>2020-10-05T09:17:07.000Z</time>
      </trkpt>
      <trkpt lat="43.98455" lon="5.90931">
        <ele>394</ele>
        <time>2020-10-05T09:17:08.000Z</time>
      </trkpt>
      <trkpt lat="43.98455" lon="5.90931">
        <ele>394</ele>
        <time>2020-10-05T09:17:09.000Z</time>
      </trkpt>
      <trkpt lat="43.98455" lon="5.90931">
        <ele>394</ele>
        <time>2020-10-05T09:17:10.000Z</time>
      </trkpt>
      <trkpt lat="43.98454" lon="5.90932">
        <ele>394</ele>
        <time>2020-10-05T09:17:11.000Z</time>
      </trkpt>
      <trkpt lat="43.98454" lon="5.90932">
        <ele>394</ele>
        <time>2020-10-05T09:17:12.000Z</time>
      </trkpt>
      <trkpt lat="43.98454" lon="5.90931">
        <ele>394</ele>
        <time>2020-10-05T09:17:13.000Z</time>
      </trkpt>
      <trkpt lat="43.98454" lon="5.90931">
        <ele>394</ele>
        <time>2020-10-05T09:17:14.000Z</time>
      </trkpt>
      <trkpt lat="43.98453" lon="5.90931">
        <ele>394</ele>
        <time>2020-10-05T09:17:15.000Z</time>
      </trkpt>
      <trkpt lat="43.98453" lon="5.90931">
        <ele>394</ele>
        <time>2020-10-05T09:17:16.000Z</time>
      </trkpt>
      <trkpt lat="43.98453" lon="5.90931">
        <ele>394</ele>
        <time>2020-10-05T09:17:17.000Z</time>
      </trkpt>
      <trkpt lat="43.98453" lon="5.90931">
        <ele>394</ele>
        <time>2020-10-05T09:17:18.000Z</time>
      </trkpt>
      <trkpt lat="43.98453" lon="5.90931">
        <ele>394</ele>
        <time>2020-10-05T09:17:19.000Z</time>
      </trkpt>
      <trkpt lat="43.98453" lon="5.90931">
        <ele>394</ele>
        <time>2020-10-05T09:17:20.000Z</time>
      </trkpt>
      <trkpt lat="43.98453" lon="5.90931">
        <ele>394</ele>
        <time>2020-10-05T09:17:21.000Z</time>
      </trkpt>
      <trkpt lat="43.98453" lon="5.90931">
        <ele>394</ele>
        <time>2020-10-05T09:17:22.000Z</time>
      </trkpt>
      <trkpt lat="43.98453" lon="5.90931">
        <ele>395</ele>
        <time>2020-10-05T09:17:23.000Z</time>
      </trkpt>
      <trkpt lat="43.98453" lon="5.90931">
        <ele>395</ele>
        <time>2020-10-05T09:17:24.000Z</time>
      </trkpt>
      <trkpt lat="43.98452" lon="5.90931">
        <ele>395</ele>
        <time>2020-10-05T09:17:25.000Z</time>
      </trkpt>
      <trkpt lat="43.98452" lon="5.90931">
        <ele>395</ele>
        <time>2020-10-05T09:17:26.000Z</time>
      </trkpt>
      <trkpt lat="43.98452" lon="5.90931">
        <ele>395</ele>
        <time>2020-10-05T09:17:27.000Z</time>
      </trkpt>
      <trkpt lat="43.98452" lon="5.90931">
        <ele>395</ele>
        <time>2020-10-05T09:17:28.000Z</time>
      </trkpt>
      <trkpt lat="43.98452" lon="5.90932">
        <ele>395</ele>
        <time>2020-10-05T09:17:29.000Z</time>
      </trkpt>
      <trkpt lat="43.98451" lon="5.90932">
        <ele>395</ele>
        <time>2020-10-05T09:17:30.000Z</time>
      </trkpt>
      <trkpt lat="43.9845" lon="5.90933">
        <ele>395</ele>
        <time>2020-10-05T09:17:31.000Z</time>
      </trkpt>
      <trkpt lat="43.98449" lon="5.90933">
        <ele>395</ele>
        <time>2020-10-05T09:17:32.000Z</time>
      </trkpt>
      <trkpt lat="43.98449" lon="5.90934">
        <ele>395</ele>
        <time>2020-10-05T09:17:33.000Z</time>
      </trkpt>
      <trkpt lat="43.98448" lon="5.90934">
        <ele>395</ele>
        <time>2020-10-05T09:17:34.000Z</time>
      </trkpt>
      <trkpt lat="43.98448" lon="5.90935">
        <ele>395</ele>
        <time>2020-10-05T09:17:35.000Z</time>
      </trkpt>
      <trkpt lat="43.98447" lon="5.90935">
        <ele>395</ele>
        <time>2020-10-05T09:17:36.000Z</time>
      </trkpt>
      <trkpt lat="43.98446" lon="5.90936">
        <ele>395</ele>
        <time>2020-10-05T09:17:37.000Z</time>
      </trkpt>
      <trkpt lat="43.98445" lon="5.90937">
        <ele>395</ele>
        <time>2020-10-05T09:17:38.000Z</time>
      </trkpt>
      <trkpt lat="43.98444" lon="5.90938">
        <ele>395</ele>
        <time>2020-10-05T09:17:39.000Z</time>
      </trkpt>
      <trkpt lat="43.98444" lon="5.90939">
        <ele>395</ele>
        <time>2020-10-05T09:17:40.000Z</time>
      </trkpt>
      <trkpt lat="43.98443" lon="5.9094">
        <ele>395</ele>
        <time>2020-10-05T09:17:41.000Z</time>
      </trkpt>
      <trkpt lat="43.98442" lon="5.90941">
        <ele>395</ele>
        <time>2020-10-05T09:17:42.000Z</time>
      </trkpt>
      <trkpt lat="43.98442" lon="5.90942">
        <ele>395</ele>
        <time>2020-10-05T09:17:43.000Z</time>
      </trkpt>
      <trkpt lat="43.98441" lon="5.90942">
        <ele>395</ele>
        <time>2020-10-05T09:17:44.000Z</time>
      </trkpt>
      <trkpt lat="43.98441" lon="5.90943">
        <ele>395</ele>
        <time>2020-10-05T09:17:45.000Z</time>
      </trkpt>
      <trkpt lat="43.9844" lon="5.90945">
        <ele>395</ele>
        <time>2020-10-05T09:17:46.000Z</time>
      </trkpt>
      <trkpt lat="43.9844" lon="5.90946">
        <ele>395</ele>
        <time>2020-10-05T09:17:47.000Z</time>
      </trkpt>
      <trkpt lat="43.9844" lon="5.90947">
        <ele>395</ele>
        <time>2020-10-05T09:17:48.000Z</time>
      </trkpt>
      <trkpt lat="43.98439" lon="5.90948">
        <ele>396</ele>
        <time>2020-10-05T09:17:49.000Z</time>
      </trkpt>
      <trkpt lat="43.98438" lon="5.90949">
        <ele>396</ele>
        <time>2020-10-05T09:17:50.000Z</time>
      </trkpt>
      <trkpt lat="43.98438" lon="5.9095">
        <ele>396</ele>
        <time>2020-10-05T09:17:51.000Z</time>
      </trkpt>
      <trkpt lat="43.98437" lon="5.90951">
        <ele>395</ele>
        <time>2020-10-05T09:17:52.000Z</time>
      </trkpt>
      <trkpt lat="43.98437" lon="5.90952">
        <ele>395</ele>
        <time>2020-10-05T09:17:53.000Z</time>
      </trkpt>
      <trkpt lat="43.98436" lon="5.90953">
        <ele>395</ele>
        <time>2020-10-05T09:17:54.000Z</time>
      </trkpt>
      <trkpt lat="43.98436" lon="5.90954">
        <ele>395</ele>
        <time>2020-10-05T09:17:55.000Z</time>
      </trkpt>
      <trkpt lat="43.98435" lon="5.90955">
        <ele>395</ele>
        <time>2020-10-05T09:17:56.000Z</time>
      </trkpt>
      <trkpt lat="43.98435" lon="5.90956">
        <ele>395</ele>
        <time>2020-10-05T09:17:57.000Z</time>
      </trkpt>
      <trkpt lat="43.98434" lon="5.90958">
        <ele>395</ele>
        <time>2020-10-05T09:17:58.000Z</time>
      </trkpt>
      <trkpt lat="43.98434" lon="5.90959">
        <ele>395</ele>
        <time>2020-10-05T09:17:59.000Z</time>
      </trkpt>
      <trkpt lat="43.98433" lon="5.9096">
        <ele>395</ele>
        <time>2020-10-05T09:18:00.000Z</time>
      </trkpt>
      <trkpt lat="43.98433" lon="5.90962">
        <ele>395</ele>
        <time>2020-10-05T09:18:01.000Z</time>
      </trkpt>
      <trkpt lat="43.98433" lon="5.90963">
        <ele>396</ele>
        <time>2020-10-05T09:18:02.000Z</time>
      </trkpt>
      <trkpt lat="43.98432" lon="5.90964">
        <ele>396</ele>
        <time>2020-10-05T09:18:03.000Z</time>
      </trkpt>
      <trkpt lat="43.98432" lon="5.90965">
        <ele>396</ele>
        <time>2020-10-05T09:18:04.000Z</time>
      </trkpt>
      <trkpt lat="43.98432" lon="5.90967">
        <ele>396</ele>
        <time>2020-10-05T09:18:05.000Z</time>
      </trkpt>
      <trkpt lat="43.98431" lon="5.90968">
        <ele>396</ele>
        <time>2020-10-05T09:18:06.000Z</time>
      </trkpt>
      <trkpt lat="43.9843" lon="5.90969">
        <ele>396</ele>
        <time>2020-10-05T09:18:07.000Z</time>
      </trkpt>
      <trkpt lat="43.9843" lon="5.9097">
        <ele>396</ele>
        <time>2020-10-05T09:18:08.000Z</time>
      </trkpt>
      <trkpt lat="43.98429" lon="5.90971">
        <ele>396</ele>
        <time>2020-10-05T09:18:09.000Z</time>
      </trkpt>
      <trkpt lat="43.98428" lon="5.90972">
        <ele>396</ele>
        <time>2020-10-05T09:18:10.000Z</time>
      </trkpt>
      <trkpt lat="43.98428" lon="5.90973">
        <ele>396</ele>
        <time>2020-10-05T09:18:11.000Z</time>
      </trkpt>
      <trkpt lat="43.98427" lon="5.90975">
        <ele>396</ele>
        <time>2020-10-05T09:18:12.000Z</time>
      </trkpt>
      <trkpt lat="43.98427" lon="5.90976">
        <ele>396</ele>
        <time>2020-10-05T09:18:13.000Z</time>
      </trkpt>
      <trkpt lat="43.98426" lon="5.90977">
        <ele>396</ele>
        <time>2020-10-05T09:18:14.000Z</time>
      </trkpt>
      <trkpt lat="43.98426" lon="5.90978">
        <ele>396</ele>
        <time>2020-10-05T09:18:15.000Z</time>
      </trkpt>
      <trkpt lat="43.98425" lon="5.90979">
        <ele>396</ele>
        <time>2020-10-05T09:18:16.000Z</time>
      </trkpt>
      <trkpt lat="43.98425" lon="5.9098">
        <ele>397</ele>
        <time>2020-10-05T09:18:17.000Z</time>
      </trkpt>
      <trkpt lat="43.98424" lon="5.90981">
        <ele>397</ele>
        <time>2020-10-05T09:18:18.000Z</time>
      </trkpt>
      <trkpt lat="43.98424" lon="5.90982">
        <ele>397</ele>
        <time>2020-10-05T09:18:19.000Z</time>
      </trkpt>
      <trkpt lat="43.98425" lon="5.90982">
        <ele>397</ele>
        <time>2020-10-05T09:18:20.000Z</time>
      </trkpt>
      <trkpt lat="43.98425" lon="5.90983">
        <ele>397</ele>
        <time>2020-10-05T09:18:21.000Z</time>
      </trkpt>
      <trkpt lat="43.98425" lon="5.90984">
        <ele>397</ele>
        <time>2020-10-05T09:18:22.000Z</time>
      </trkpt>
      <trkpt lat="43.98426" lon="5.90984">
        <ele>397</ele>
        <time>2020-10-05T09:18:23.000Z</time>
      </trkpt>
      <trkpt lat="43.98426" lon="5.90984">
        <ele>397</ele>
        <time>2020-10-05T09:18:24.000Z</time>
      </trkpt>
      <trkpt lat="43.98426" lon="5.90984">
        <ele>397</ele>
        <time>2020-10-05T09:18:25.000Z</time>
      </trkpt>
      <trkpt lat="43.98426" lon="5.90984">
        <ele>397</ele>
        <time>2020-10-05T09:18:26.000Z</time>
      </trkpt>
      <trkpt lat="43.98426" lon="5.90984">
        <ele>397</ele>
        <time>2020-10-05T09:18:27.000Z</time>
      </trkpt>
      <trkpt lat="43.98427" lon="5.90984">
        <ele>397</ele>
        <time>2020-10-05T09:18:28.000Z</time>
      </trkpt>
      <trkpt lat="43.98428" lon="5.90984">
        <ele>397</ele>
        <time>2020-10-05T09:18:29.000Z</time>
      </trkpt>
      <trkpt lat="43.98428" lon="5.90984">
        <ele>398</ele>
        <time>2020-10-05T09:18:30.000Z</time>
      </trkpt>
      <trkpt lat="43.98429" lon="5.90984">
        <ele>398</ele>
        <time>2020-10-05T09:18:31.000Z</time>
      </trkpt>
      <trkpt lat="43.9843" lon="5.90984">
        <ele>398</ele>
        <time>2020-10-05T09:18:32.000Z</time>
      </trkpt>
      <trkpt lat="43.9843" lon="5.90984">
        <ele>398</ele>
        <time>2020-10-05T09:18:33.000Z</time>
      </trkpt>
      <trkpt lat="43.9843" lon="5.90984">
        <ele>398</ele>
        <time>2020-10-05T09:18:34.000Z</time>
      </trkpt>
      <trkpt lat="43.9843" lon="5.90984">
        <ele>398</ele>
        <time>2020-10-05T09:18:35.000Z</time>
      </trkpt>
      <trkpt lat="43.98431" lon="5.90984">
        <ele>398</ele>
        <time>2020-10-05T09:18:36.000Z</time>
      </trkpt>
      <trkpt lat="43.98432" lon="5.90984">
        <ele>398</ele>
        <time>2020-10-05T09:18:37.000Z</time>
      </trkpt>
      <trkpt lat="43.98432" lon="5.90985">
        <ele>398</ele>
        <time>2020-10-05T09:18:38.000Z</time>
      </trkpt>
      <trkpt lat="43.98433" lon="5.90986">
        <ele>398</ele>
        <time>2020-10-05T09:18:39.000Z</time>
      </trkpt>
      <trkpt lat="43.98433" lon="5.90988">
        <ele>398</ele>
        <time>2020-10-05T09:18:40.000Z</time>
      </trkpt>
      <trkpt lat="43.98433" lon="5.90989">
        <ele>398</ele>
        <time>2020-10-05T09:18:41.000Z</time>
      </trkpt>
      <trkpt lat="43.98433" lon="5.90989">
        <ele>398</ele>
        <time>2020-10-05T09:18:42.000Z</time>
      </trkpt>
      <trkpt lat="43.98433" lon="5.9099">
        <ele>398</ele>
        <time>2020-10-05T09:18:43.000Z</time>
      </trkpt>
      <trkpt lat="43.98433" lon="5.90991">
        <ele>398</ele>
        <time>2020-10-05T09:18:44.000Z</time>
      </trkpt>
      <trkpt lat="43.98434" lon="5.90992">
        <ele>399</ele>
        <time>2020-10-05T09:18:45.000Z</time>
      </trkpt>
      <trkpt lat="43.98434" lon="5.90993">
        <ele>399</ele>
        <time>2020-10-05T09:18:46.000Z</time>
      </trkpt>
      <trkpt lat="43.98434" lon="5.90994">
        <ele>399</ele>
        <time>2020-10-05T09:18:47.000Z</time>
      </trkpt>
      <trkpt lat="43.98435" lon="5.90995">
        <ele>399</ele>
        <time>2020-10-05T09:18:48.000Z</time>
      </trkpt>
      <trkpt lat="43.98435" lon="5.90996">
        <ele>399</ele>
        <time>2020-10-05T09:18:49.000Z</time>
      </trkpt>
      <trkpt lat="43.98435" lon="5.90997">
        <ele>399</ele>
        <time>2020-10-05T09:18:50.000Z</time>
      </trkpt>
      <trkpt lat="43.98435" lon="5.90999">
        <ele>399</ele>
        <time>2020-10-05T09:18:51.000Z</time>
      </trkpt>
      <trkpt lat="43.98436" lon="5.91">
        <ele>399</ele>
        <time>2020-10-05T09:18:52.000Z</time>
      </trkpt>
      <trkpt lat="43.98436" lon="5.91001">
        <ele>400</ele>
        <time>2020-10-05T09:18:53.000Z</time>
      </trkpt>
      <trkpt lat="43.98436" lon="5.91002">
        <ele>400</ele>
        <time>2020-10-05T09:18:54.000Z</time>
      </trkpt>
      <trkpt lat="43.98436" lon="5.91003">
        <ele>400</ele>
        <time>2020-10-05T09:18:55.000Z</time>
      </trkpt>
      <trkpt lat="43.98436" lon="5.91004">
        <ele>400</ele>
        <time>2020-10-05T09:18:56.000Z</time>
      </trkpt>
      <trkpt lat="43.98436" lon="5.91004">
        <ele>400</ele>
        <time>2020-10-05T09:18:57.000Z</time>
      </trkpt>
      <trkpt lat="43.98436" lon="5.91004">
        <ele>400</ele>
        <time>2020-10-05T09:18:58.000Z</time>
      </trkpt>
      <trkpt lat="43.98436" lon="5.91004">
        <ele>400</ele>
        <time>2020-10-05T09:18:59.000Z</time>
      </trkpt>
      <trkpt lat="43.98436" lon="5.91005">
        <ele>400</ele>
        <time>2020-10-05T09:19:00.000Z</time>
      </trkpt>
      <trkpt lat="43.98436" lon="5.91005">
        <ele>400</ele>
        <time>2020-10-05T09:19:01.000Z</time>
      </trkpt>
      <trkpt lat="43.98436" lon="5.91005">
        <ele>400</ele>
        <time>2020-10-05T09:19:02.000Z</time>
      </trkpt>
      <trkpt lat="43.98437" lon="5.91004">
        <ele>400</ele>
        <time>2020-10-05T09:19:03.000Z</time>
      </trkpt>
      <trkpt lat="43.98437" lon="5.91004">
        <ele>400</ele>
        <time>2020-10-05T09:19:04.000Z</time>
      </trkpt>
      <trkpt lat="43.98437" lon="5.91004">
        <ele>401</ele>
        <time>2020-10-05T09:19:05.000Z</time>
      </trkpt>
      <trkpt lat="43.98437" lon="5.91005">
        <ele>401</ele>
        <time>2020-10-05T09:19:06.000Z</time>
      </trkpt>
      <trkpt lat="43.98437" lon="5.91005">
        <ele>401</ele>
        <time>2020-10-05T09:19:07.000Z</time>
      </trkpt>
      <trkpt lat="43.98437" lon="5.91005">
        <ele>401</ele>
        <time>2020-10-05T09:19:08.000Z</time>
      </trkpt>
      <trkpt lat="43.98437" lon="5.91005">
        <ele>401</ele>
        <time>2020-10-05T09:19:09.000Z</time>
      </trkpt>
      <trkpt lat="43.98437" lon="5.91005">
        <ele>401</ele>
        <time>2020-10-05T09:19:10.000Z</time>
      </trkpt>
      <trkpt lat="43.98437" lon="5.91005">
        <ele>401</ele>
        <time>2020-10-05T09:19:11.000Z</time>
      </trkpt>
      <trkpt lat="43.98437" lon="5.91005">
        <ele>401</ele>
        <time>2020-10-05T09:19:12.000Z</time>
      </trkpt>
      <trkpt lat="43.98437" lon="5.91005">
        <ele>401</ele>
        <time>2020-10-05T09:19:13.000Z</time>
      </trkpt>
      <trkpt lat="43.98437" lon="5.91005">
        <ele>401</ele>
        <time>2020-10-05T09:19:14.000Z</time>
      </trkpt>
      <trkpt lat="43.98437" lon="5.91005">
        <ele>401</ele>
        <time>2020-10-05T09:19:15.000Z</time>
      </trkpt>
      <trkpt lat="43.98437" lon="5.91005">
        <ele>401</ele>
        <time>2020-10-05T09:19:16.000Z</time>
      </trkpt>
      <trkpt lat="43.98437" lon="5.91005">
        <ele>401</ele>
        <time>2020-10-05T09:19:17.000Z</time>
      </trkpt>
      <trkpt lat="43.98437" lon="5.91006">
        <ele>401</ele>
        <time>2020-10-05T09:19:18.000Z</time>
      </trkpt>
      <trkpt lat="43.98437" lon="5.91006">
        <ele>401</ele>
        <time>2020-10-05T09:19:19.000Z</time>
      </trkpt>
      <trkpt lat="43.98437" lon="5.91006">
        <ele>401</ele>
        <time>2020-10-05T09:19:20.000Z</time>
      </trkpt>
      <trkpt lat="43.98437" lon="5.91006">
        <ele>401</ele>
        <time>2020-10-05T09:19:21.000Z</time>
      </trkpt>
      <trkpt lat="43.98437" lon="5.91006">
        <ele>401</ele>
        <time>2020-10-05T09:19:22.000Z</time>
      </trkpt>
      <trkpt lat="43.98437" lon="5.91006">
        <ele>401</ele>
        <time>2020-10-05T09:19:23.000Z</time>
      </trkpt>
      <trkpt lat="43.98437" lon="5.91006">
        <ele>401</ele>
        <time>2020-10-05T09:19:24.000Z</time>
      </trkpt>
      <trkpt lat="43.98437" lon="5.91006">
        <ele>401</ele>
        <time>2020-10-05T09:19:25.000Z</time>
      </trkpt>
      <trkpt lat="43.98437" lon="5.91006">
        <ele>401</ele>
        <time>2020-10-05T09:19:26.000Z</time>
      </trkpt>
      <trkpt lat="43.98437" lon="5.91006">
        <ele>401</ele>
        <time>2020-10-05T09:19:27.000Z</time>
      </trkpt>
      <trkpt lat="43.98437" lon="5.91006">
        <ele>402</ele>
        <time>2020-10-05T09:19:28.000Z</time>
      </trkpt>
      <trkpt lat="43.98437" lon="5.91006">
        <ele>402</ele>
        <time>2020-10-05T09:19:29.000Z</time>
      </trkpt>
      <trkpt lat="43.98437" lon="5.91006">
        <ele>402</ele>
        <time>2020-10-05T09:19:30.000Z</time>
      </trkpt>
      <trkpt lat="43.98437" lon="5.91006">
        <ele>402</ele>
        <time>2020-10-05T09:19:31.000Z</time>
      </trkpt>
      <trkpt lat="43.98438" lon="5.91006">
        <ele>402</ele>
        <time>2020-10-05T09:19:32.000Z</time>
      </trkpt>
      <trkpt lat="43.98438" lon="5.91006">
        <ele>402</ele>
        <time>2020-10-05T09:19:33.000Z</time>
      </trkpt>
      <trkpt lat="43.98439" lon="5.91006">
        <ele>402</ele>
        <time>2020-10-05T09:19:34.000Z</time>
      </trkpt>
      <trkpt lat="43.98439" lon="5.91006">
        <ele>402</ele>
        <time>2020-10-05T09:19:35.000Z</time>
      </trkpt>
      <trkpt lat="43.98439" lon="5.91006">
        <ele>402</ele>
        <time>2020-10-05T09:19:36.000Z</time>
      </trkpt>
      <trkpt lat="43.98439" lon="5.91006">
        <ele>402</ele>
        <time>2020-10-05T09:19:37.000Z</time>
      </trkpt>
      <trkpt lat="43.98438" lon="5.91006">
        <ele>402</ele>
        <time>2020-10-05T09:19:38.000Z</time>
      </trkpt>
      <trkpt lat="43.98438" lon="5.91006">
        <ele>402</ele>
        <time>2020-10-05T09:19:39.000Z</time>
      </trkpt>
      <trkpt lat="43.98438" lon="5.91006">
        <ele>402</ele>
        <time>2020-10-05T09:19:40.000Z</time>
      </trkpt>
      <trkpt lat="43.98438" lon="5.91006">
        <ele>402</ele>
        <time>2020-10-05T09:19:41.000Z</time>
      </trkpt>
      <trkpt lat="43.98438" lon="5.91006">
        <ele>402</ele>
        <time>2020-10-05T09:19:42.000Z</time>
      </trkpt>
      <trkpt lat="43.98438" lon="5.91006">
        <ele>402</ele>
        <time>2020-10-05T09:19:43.000Z</time>
      </trkpt>
      <trkpt lat="43.98438" lon="5.91006">
        <ele>402</ele>
        <time>2020-10-05T09:19:44.000Z</time>
      </trkpt>
      <trkpt lat="43.98438" lon="5.91006">
        <ele>402</ele>
        <time>2020-10-05T09:19:45.000Z</time>
      </trkpt>
      <trkpt lat="43.98438" lon="5.91006">
        <ele>403</ele>
        <time>2020-10-05T09:19:46.000Z</time>
      </trkpt>
      <trkpt lat="43.98438" lon="5.91006">
        <ele>403</ele>
        <time>2020-10-05T09:19:47.000Z</time>
      </trkpt>
      <trkpt lat="43.98438" lon="5.91006">
        <ele>403</ele>
        <time>2020-10-05T09:19:48.000Z</time>
      </trkpt>
      <trkpt lat="43.98438" lon="5.91006">
        <ele>403</ele>
        <time>2020-10-05T09:19:49.000Z</time>
      </trkpt>
      <trkpt lat="43.98438" lon="5.91006">
        <ele>403</ele>
        <time>2020-10-05T09:19:50.000Z</time>
      </trkpt>
      <trkpt lat="43.98438" lon="5.91006">
        <ele>403</ele>
        <time>2020-10-05T09:19:51.000Z</time>
      </trkpt>
      <trkpt lat="43.98438" lon="5.91006">
        <ele>403</ele>
        <time>2020-10-05T09:19:52.000Z</time>
      </trkpt>
      <trkpt lat="43.98438" lon="5.91006">
        <ele>403</ele>
        <time>2020-10-05T09:19:53.000Z</time>
      </trkpt>
      <trkpt lat="43.98438" lon="5.91006">
        <ele>403</ele>
        <time>2020-10-05T09:19:54.000Z</time>
      </trkpt>
      <trkpt lat="43.98438" lon="5.91006">
        <ele>403</ele>
        <time>2020-10-05T09:19:55.000Z</time>
      </trkpt>
      <trkpt lat="43.98438" lon="5.91006">
        <ele>403</ele>
        <time>2020-10-05T09:19:56.000Z</time>
      </trkpt>
      <trkpt lat="43.98438" lon="5.91006">
        <ele>403</ele>
        <time>2020-10-05T09:19:57.000Z</time>
      </trkpt>
      <trkpt lat="43.98438" lon="5.91007">
        <ele>403</ele>
        <time>2020-10-05T09:19:58.000Z</time>
      </trkpt>
      <trkpt lat="43.98438" lon="5.91007">
        <ele>403</ele>
        <time>2020-10-05T09:19:59.000Z</time>
      </trkpt>
      <trkpt lat="43.98438" lon="5.91006">
        <ele>403</ele>
        <time>2020-10-05T09:20:00.000Z</time>
      </trkpt>
      <trkpt lat="43.98438" lon="5.91006">
        <ele>403</ele>
        <time>2020-10-05T09:20:01.000Z</time>
      </trkpt>
      <trkpt lat="43.98438" lon="5.91006">
        <ele>403</ele>
        <time>2020-10-05T09:20:02.000Z</time>
      </trkpt>
      <trkpt lat="43.98438" lon="5.91006">
        <ele>403</ele>
        <time>2020-10-05T09:20:03.000Z</time>
      </trkpt>
      <trkpt lat="43.98438" lon="5.91006">
        <ele>403</ele>
        <time>2020-10-05T09:20:04.000Z</time>
      </trkpt>
      <trkpt lat="43.98438" lon="5.91007">
        <ele>403</ele>
        <time>2020-10-05T09:20:05.000Z</time>
      </trkpt>
      <trkpt lat="43.98438" lon="5.91007">
        <ele>403</ele>
        <time>2020-10-05T09:20:06.000Z</time>
      </trkpt>
      <trkpt lat="43.98438" lon="5.91006">
        <ele>403</ele>
        <time>2020-10-05T09:20:07.000Z</time>
      </trkpt>
      <trkpt lat="43.98438" lon="5.91007">
        <ele>403</ele>
        <time>2020-10-05T09:20:08.000Z</time>
      </trkpt>
      <trkpt lat="43.98438" lon="5.91007">
        <ele>403</ele>
        <time>2020-10-05T09:20:09.000Z</time>
      </trkpt>
      <trkpt lat="43.98438" lon="5.91006">
        <ele>403</ele>
        <time>2020-10-05T09:20:10.000Z</time>
      </trkpt>
      <trkpt lat="43.98438" lon="5.91006">
        <ele>403</ele>
        <time>2020-10-05T09:20:11.000Z</time>
      </trkpt>
      <trkpt lat="43.98438" lon="5.91006">
        <ele>403</ele>
        <time>2020-10-05T09:20:12.000Z</time>
      </trkpt>
      <trkpt lat="43.98438" lon="5.91006">
        <ele>404</ele>
        <time>2020-10-05T09:20:13.000Z</time>
      </trkpt>
      <trkpt lat="43.98438" lon="5.91006">
        <ele>404</ele>
        <time>2020-10-05T09:20:14.000Z</time>
      </trkpt>
      <trkpt lat="43.98438" lon="5.91006">
        <ele>404</ele>
        <time>2020-10-05T09:20:15.000Z</time>
      </trkpt>
      <trkpt lat="43.98438" lon="5.91006">
        <ele>404</ele>
        <time>2020-10-05T09:20:16.000Z</time>
      </trkpt>
      <trkpt lat="43.98438" lon="5.91006">
        <ele>404</ele>
        <time>2020-10-05T09:20:17.000Z</time>
      </trkpt>
      <trkpt lat="43.98438" lon="5.91006">
        <ele>404</ele>
        <time>2020-10-05T09:20:18.000Z</time>
      </trkpt>
      <trkpt lat="43.98438" lon="5.91006">
        <ele>404</ele>
        <time>2020-10-05T09:20:19.000Z</time>
      </trkpt>
      <trkpt lat="43.98438" lon="5.91005">
        <ele>404</ele>
        <time>2020-10-05T09:20:20.000Z</time>
      </trkpt>
      <trkpt lat="43.98438" lon="5.91005">
        <ele>404</ele>
        <time>2020-10-05T09:20:21.000Z</time>
      </trkpt>
      <trkpt lat="43.98438" lon="5.91005">
        <ele>404</ele>
        <time>2020-10-05T09:20:22.000Z</time>
      </trkpt>
      <trkpt lat="43.98438" lon="5.91006">
        <ele>404</ele>
        <time>2020-10-05T09:20:23.000Z</time>
      </trkpt>
      <trkpt lat="43.98438" lon="5.91006">
        <ele>404</ele>
        <time>2020-10-05T09:20:24.000Z</time>
      </trkpt>
      <trkpt lat="43.98438" lon="5.91006">
        <ele>404</ele>
        <time>2020-10-05T09:20:25.000Z</time>
      </trkpt>
      <trkpt lat="43.98438" lon="5.91006">
        <ele>404</ele>
        <time>2020-10-05T09:20:26.000Z</time>
      </trkpt>
      <trkpt lat="43.98438" lon="5.91006">
        <ele>404</ele>
        <time>2020-10-05T09:20:27.000Z</time>
      </trkpt>
      <trkpt lat="43.98438" lon="5.91006">
        <ele>404</ele>
        <time>2020-10-05T09:20:28.000Z</time>
      </trkpt>
      <trkpt lat="43.98438" lon="5.91006">
        <ele>404</ele>
        <time>2020-10-05T09:20:29.000Z</time>
      </trkpt>
      <trkpt lat="43.98438" lon="5.91005">
        <ele>404</ele>
        <time>2020-10-05T09:20:30.000Z</time>
      </trkpt>
      <trkpt lat="43.98438" lon="5.91005">
        <ele>404</ele>
        <time>2020-10-05T09:20:31.000Z</time>
      </trkpt>
      <trkpt lat="43.98439" lon="5.91005">
        <ele>404</ele>
        <time>2020-10-05T09:20:32.000Z</time>
      </trkpt>
      <trkpt lat="43.98439" lon="5.91005">
        <ele>404</ele>
        <time>2020-10-05T09:20:33.000Z</time>
      </trkpt>
      <trkpt lat="43.98439" lon="5.91005">
        <ele>404</ele>
        <time>2020-10-05T09:20:34.000Z</time>
      </trkpt>
      <trkpt lat="43.98439" lon="5.91006">
        <ele>404</ele>
        <time>2020-10-05T09:20:35.000Z</time>
      </trkpt>
      <trkpt lat="43.98438" lon="5.91006">
        <ele>404</ele>
        <time>2020-10-05T09:20:36.000Z</time>
      </trkpt>
      <trkpt lat="43.98439" lon="5.91006">
        <ele>404</ele>
        <time>2020-10-05T09:20:37.000Z</time>
      </trkpt>
      <trkpt lat="43.98439" lon="5.91006">
        <ele>404</ele>
        <time>2020-10-05T09:20:38.000Z</time>
      </trkpt>
      <trkpt lat="43.98438" lon="5.91006">
        <ele>404</ele>
        <time>2020-10-05T09:20:39.000Z</time>
      </trkpt>
      <trkpt lat="43.98438" lon="5.91007">
        <ele>404</ele>
        <time>2020-10-05T09:20:40.000Z</time>
      </trkpt>
      <trkpt lat="43.98438" lon="5.91006">
        <ele>405</ele>
        <time>2020-10-05T09:20:41.000Z</time>
      </trkpt>
      <trkpt lat="43.98438" lon="5.91006">
        <ele>405</ele>
        <time>2020-10-05T09:20:42.000Z</time>
      </trkpt>
      <trkpt lat="43.98438" lon="5.91006">
        <ele>405</ele>
        <time>2020-10-05T09:20:43.000Z</time>
      </trkpt>
      <trkpt lat="43.98438" lon="5.91006">
        <ele>405</ele>
        <time>2020-10-05T09:20:44.000Z</time>
      </trkpt>
      <trkpt lat="43.98438" lon="5.91007">
        <ele>405</ele>
        <time>2020-10-05T09:20:45.000Z</time>
      </trkpt>
      <trkpt lat="43.98438" lon="5.91007">
        <ele>404</ele>
        <time>2020-10-05T09:20:46.000Z</time>
      </trkpt>
      <trkpt lat="43.98438" lon="5.91007">
        <ele>404</ele>
        <time>2020-10-05T09:20:47.000Z</time>
      </trkpt>
      <trkpt lat="43.98438" lon="5.91007">
        <ele>404</ele>
        <time>2020-10-05T09:20:48.000Z</time>
      </trkpt>
      <trkpt lat="43.98438" lon="5.91007">
        <ele>404</ele>
        <time>2020-10-05T09:20:49.000Z</time>
      </trkpt>
      <trkpt lat="43.98438" lon="5.91007">
        <ele>404</ele>
        <time>2020-10-05T09:20:50.000Z</time>
      </trkpt>
      <trkpt lat="43.98438" lon="5.91006">
        <ele>405</ele>
        <time>2020-10-05T09:20:51.000Z</time>
      </trkpt>
      <trkpt lat="43.98437" lon="5.91006">
        <ele>405</ele>
        <time>2020-10-05T09:20:52.000Z</time>
      </trkpt>
      <trkpt lat="43.98438" lon="5.91007">
        <ele>405</ele>
        <time>2020-10-05T09:20:53.000Z</time>
      </trkpt>
      <trkpt lat="43.98438" lon="5.91007">
        <ele>405</ele>
        <time>2020-10-05T09:20:54.000Z</time>
      </trkpt>
      <trkpt lat="43.98437" lon="5.91006">
        <ele>405</ele>
        <time>2020-10-05T09:20:55.000Z</time>
      </trkpt>
      <trkpt lat="43.98437" lon="5.91006">
        <ele>405</ele>
        <time>2020-10-05T09:20:56.000Z</time>
      </trkpt>
      <trkpt lat="43.98437" lon="5.91006">
        <ele>405</ele>
        <time>2020-10-05T09:20:57.000Z</time>
      </trkpt>
      <trkpt lat="43.98438" lon="5.91007">
        <ele>405</ele>
        <time>2020-10-05T09:20:58.000Z</time>
      </trkpt>
      <trkpt lat="43.98438" lon="5.91007">
        <ele>405</ele>
        <time>2020-10-05T09:20:59.000Z</time>
      </trkpt>
      <trkpt lat="43.98437" lon="5.91007">
        <ele>405</ele>
        <time>2020-10-05T09:21:00.000Z</time>
      </trkpt>
      <trkpt lat="43.98437" lon="5.91007">
        <ele>405</ele>
        <time>2020-10-05T09:21:01.000Z</time>
      </trkpt>
      <trkpt lat="43.98437" lon="5.91007">
        <ele>405</ele>
        <time>2020-10-05T09:21:02.000Z</time>
      </trkpt>
      <trkpt lat="43.98437" lon="5.91006">
        <ele>405</ele>
        <time>2020-10-05T09:21:03.000Z</time>
      </trkpt>
      <trkpt lat="43.98437" lon="5.91006">
        <ele>405</ele>
        <time>2020-10-05T09:21:04.000Z</time>
      </trkpt>
      <trkpt lat="43.98437" lon="5.91006">
        <ele>404</ele>
        <time>2020-10-05T09:21:05.000Z</time>
      </trkpt>
      <trkpt lat="43.98437" lon="5.91006">
        <ele>404</ele>
        <time>2020-10-05T09:21:06.000Z</time>
      </trkpt>
      <trkpt lat="43.98437" lon="5.91006">
        <ele>404</ele>
        <time>2020-10-05T09:21:07.000Z</time>
      </trkpt>
      <trkpt lat="43.98437" lon="5.91006">
        <ele>404</ele>
        <time>2020-10-05T09:21:08.000Z</time>
      </trkpt>
      <trkpt lat="43.98437" lon="5.91006">
        <ele>404</ele>
        <time>2020-10-05T09:21:09.000Z</time>
      </trkpt>
      <trkpt lat="43.98437" lon="5.91006">
        <ele>404</ele>
        <time>2020-10-05T09:21:10.000Z</time>
      </trkpt>
      <trkpt lat="43.98437" lon="5.91006">
        <ele>404</ele>
        <time>2020-10-05T09:21:11.000Z</time>
      </trkpt>
      <trkpt lat="43.98437" lon="5.91006">
        <ele>404</ele>
        <time>2020-10-05T09:21:12.000Z</time>
      </trkpt>
      <trkpt lat="43.98437" lon="5.91006">
        <ele>404</ele>
        <time>2020-10-05T09:21:13.000Z</time>
      </trkpt>
      <trkpt lat="43.98437" lon="5.91006">
        <ele>404</ele>
        <time>2020-10-05T09:21:14.000Z</time>
      </trkpt>
      <trkpt lat="43.98437" lon="5.91006">
        <ele>404</ele>
        <time>2020-10-05T09:21:15.000Z</time>
      </trkpt>
      <trkpt lat="43.98437" lon="5.91006">
        <ele>404</ele>
        <time>2020-10-05T09:21:16.000Z</time>
      </trkpt>
      <trkpt lat="43.98437" lon="5.91006">
        <ele>404</ele>
        <time>2020-10-05T09:21:17.000Z</time>
      </trkpt>
      <trkpt lat="43.98437" lon="5.91006">
        <ele>404</ele>
        <time>2020-10-05T09:21:18.000Z</time>
      </trkpt>
      <trkpt lat="43.98437" lon="5.91006">
        <ele>404</ele>
        <time>2020-10-05T09:21:19.000Z</time>
      </trkpt>
      <trkpt lat="43.98437" lon="5.91006">
        <ele>404</ele>
        <time>2020-10-05T09:21:20.000Z</time>
      </trkpt>
      <trkpt lat="43.98437" lon="5.91006">
        <ele>404</ele>
        <time>2020-10-05T09:21:21.000Z</time>
      </trkpt>
      <trkpt lat="43.98437" lon="5.91006">
        <ele>404</ele>
        <time>2020-10-05T09:21:22.000Z</time>
      </trkpt>
      <trkpt lat="43.98437" lon="5.91006">
        <ele>404</ele>
        <time>2020-10-05T09:21:23.000Z</time>
      </trkpt>
      <trkpt lat="43.98437" lon="5.91006">
        <ele>404</ele>
        <time>2020-10-05T09:21:24.000Z</time>
      </trkpt>
      <trkpt lat="43.98437" lon="5.91006">
        <ele>404</ele>
        <time>2020-10-05T09:21:25.000Z</time>
      </trkpt>
      <trkpt lat="43.98437" lon="5.91006">
        <ele>404</ele>
        <time>2020-10-05T09:21:26.000Z</time>
      </trkpt>
      <trkpt lat="43.98437" lon="5.91006">
        <ele>404</ele>
        <time>2020-10-05T09:21:27.000Z</time>
      </trkpt>
      <trkpt lat="43.98437" lon="5.91006">
        <ele>404</ele>
        <time>2020-10-05T09:21:28.000Z</time>
      </trkpt>
      <trkpt lat="43.98437" lon="5.91006">
        <ele>404</ele>
        <time>2020-10-05T09:21:29.000Z</time>
      </trkpt>
      <trkpt lat="43.98437" lon="5.91006">
        <ele>404</ele>
        <time>2020-10-05T09:21:30.000Z</time>
      </trkpt>
      <trkpt lat="43.98437" lon="5.91006">
        <ele>404</ele>
        <time>2020-10-05T09:21:31.000Z</time>
      </trkpt>
      <trkpt lat="43.98437" lon="5.91006">
        <ele>404</ele>
        <time>2020-10-05T09:21:32.000Z</time>
      </trkpt>
      <trkpt lat="43.98437" lon="5.91006">
        <ele>404</ele>
        <time>2020-10-05T09:21:33.000Z</time>
      </trkpt>
      <trkpt lat="43.98437" lon="5.91006">
        <ele>404</ele>
        <time>2020-10-05T09:21:34.000Z</time>
      </trkpt>
      <trkpt lat="43.98437" lon="5.91006">
        <ele>404</ele>
        <time>2020-10-05T09:21:35.000Z</time>
      </trkpt>
      <trkpt lat="43.98437" lon="5.91006">
        <ele>404</ele>
        <time>2020-10-05T09:21:36.000Z</time>
      </trkpt>
      <trkpt lat="43.98437" lon="5.91006">
        <ele>404</ele>
        <time>2020-10-05T09:21:37.000Z</time>
      </trkpt>
      <trkpt lat="43.98437" lon="5.91005">
        <ele>404</ele>
        <time>2020-10-05T09:21:38.000Z</time>
      </trkpt>
      <trkpt lat="43.98437" lon="5.91005">
        <ele>404</ele>
        <time>2020-10-05T09:21:39.000Z</time>
      </trkpt>
      <trkpt lat="43.98437" lon="5.91005">
        <ele>404</ele>
        <time>2020-10-05T09:21:40.000Z</time>
      </trkpt>
      <trkpt lat="43.98437" lon="5.91005">
        <ele>404</ele>
        <time>2020-10-05T09:21:41.000Z</time>
      </trkpt>
      <trkpt lat="43.98437" lon="5.91005">
        <ele>404</ele>
        <time>2020-10-05T09:21:42.000Z</time>
      </trkpt>
      <trkpt lat="43.98437" lon="5.91005">
        <ele>404</ele>
        <time>2020-10-05T09:21:43.000Z</time>
      </trkpt>
      <trkpt lat="43.98437" lon="5.91005">
        <ele>405</ele>
        <time>2020-10-05T09:21:44.000Z</time>
      </trkpt>
      <trkpt lat="43.98437" lon="5.91005">
        <ele>405</ele>
        <time>2020-10-05T09:21:45.000Z</time>
      </trkpt>
      <trkpt lat="43.98437" lon="5.91005">
        <ele>405</ele>
        <time>2020-10-05T09:21:46.000Z</time>
      </trkpt>
      <trkpt lat="43.98437" lon="5.91005">
        <ele>405</ele>
        <time>2020-10-05T09:21:47.000Z</time>
      </trkpt>
      <trkpt lat="43.98437" lon="5.91005">
        <ele>405</ele>
        <time>2020-10-05T09:21:48.000Z</time>
      </trkpt>
      <trkpt lat="43.98437" lon="5.91005">
        <ele>405</ele>
        <time>2020-10-05T09:21:49.000Z</time>
      </trkpt>
      <trkpt lat="43.98437" lon="5.91005">
        <ele>405</ele>
        <time>2020-10-05T09:21:50.000Z</time>
      </trkpt>
      <trkpt lat="43.98437" lon="5.91005">
        <ele>405</ele>
        <time>2020-10-05T09:21:51.000Z</time>
      </trkpt>
      <trkpt lat="43.98437" lon="5.91005">
        <ele>405</ele>
        <time>2020-10-05T09:21:52.000Z</time>
      </trkpt>
      <trkpt lat="43.98437" lon="5.91005">
        <ele>405</ele>
        <time>2020-10-05T09:21:53.000Z</time>
      </trkpt>
      <trkpt lat="43.98437" lon="5.91005">
        <ele>405</ele>
        <time>2020-10-05T09:21:54.000Z</time>
      </trkpt>
      <trkpt lat="43.98437" lon="5.91005">
        <ele>405</ele>
        <time>2020-10-05T09:21:55.000Z</time>
      </trkpt>
      <trkpt lat="43.98437" lon="5.91006">
        <ele>405</ele>
        <time>2020-10-05T09:21:56.000Z</time>
      </trkpt>
      <trkpt lat="43.98437" lon="5.91006">
        <ele>405</ele>
        <time>2020-10-05T09:21:57.000Z</time>
      </trkpt>
      <trkpt lat="43.98437" lon="5.91006">
        <ele>405</ele>
        <time>2020-10-05T09:21:58.000Z</time>
      </trkpt>
      <trkpt lat="43.98437" lon="5.91006">
        <ele>405</ele>
        <time>2020-10-05T09:21:59.000Z</time>
      </trkpt>
      <trkpt lat="43.98437" lon="5.91006">
        <ele>405</ele>
        <time>2020-10-05T09:22:00.000Z</time>
      </trkpt>
      <trkpt lat="43.98437" lon="5.91006">
        <ele>405</ele>
        <time>2020-10-05T09:22:01.000Z</time>
      </trkpt>
      <trkpt lat="43.98437" lon="5.91006">
        <ele>405</ele>
        <time>2020-10-05T09:22:02.000Z</time>
      </trkpt>
      <trkpt lat="43.98437" lon="5.91006">
        <ele>405</ele>
        <time>2020-10-05T09:22:03.000Z</time>
      </trkpt>
      <trkpt lat="43.98437" lon="5.91006">
        <ele>405</ele>
        <time>2020-10-05T09:22:04.000Z</time>
      </trkpt>
      <trkpt lat="43.98437" lon="5.91006">
        <ele>405</ele>
        <time>2020-10-05T09:22:05.000Z</time>
      </trkpt>
      <trkpt lat="43.98437" lon="5.91006">
        <ele>405</ele>
        <time>2020-10-05T09:22:06.000Z</time>
      </trkpt>
      <trkpt lat="43.98436" lon="5.91006">
        <ele>405</ele>
        <time>2020-10-05T09:22:07.000Z</time>
      </trkpt>
      <trkpt lat="43.98437" lon="5.91006">
        <ele>405</ele>
        <time>2020-10-05T09:22:08.000Z</time>
      </trkpt>
      <trkpt lat="43.98437" lon="5.91006">
        <ele>405</ele>
        <time>2020-10-05T09:22:09.000Z</time>
      </trkpt>
      <trkpt lat="43.98437" lon="5.91006">
        <ele>405</ele>
        <time>2020-10-05T09:22:10.000Z</time>
      </trkpt>
      <trkpt lat="43.98436" lon="5.91006">
        <ele>405</ele>
        <time>2020-10-05T09:22:11.000Z</time>
      </trkpt>
      <trkpt lat="43.98436" lon="5.91006">
        <ele>405</ele>
        <time>2020-10-05T09:22:12.000Z</time>
      </trkpt>
      <trkpt lat="43.98436" lon="5.91006">
        <ele>405</ele>
        <time>2020-10-05T09:22:13.000Z</time>
      </trkpt>
      <trkpt lat="43.98436" lon="5.91006">
        <ele>405</ele>
        <time>2020-10-05T09:22:14.000Z</time>
      </trkpt>
      <trkpt lat="43.98436" lon="5.91006">
        <ele>405</ele>
        <time>2020-10-05T09:22:15.000Z</time>
      </trkpt>
      <trkpt lat="43.98436" lon="5.91006">
        <ele>405</ele>
        <time>2020-10-05T09:22:16.000Z</time>
      </trkpt>
      <trkpt lat="43.98436" lon="5.91006">
        <ele>405</ele>
        <time>2020-10-05T09:22:17.000Z</time>
      </trkpt>
      <trkpt lat="43.98436" lon="5.91006">
        <ele>405</ele>
        <time>2020-10-05T09:22:18.000Z</time>
      </trkpt>
      <trkpt lat="43.98436" lon="5.91006">
        <ele>405</ele>
        <time>2020-10-05T09:22:19.000Z</time>
      </trkpt>
      <trkpt lat="43.98436" lon="5.91007">
        <ele>405</ele>
        <time>2020-10-05T09:22:20.000Z</time>
      </trkpt>
      <trkpt lat="43.98436" lon="5.91007">
        <ele>405</ele>
        <time>2020-10-05T09:22:21.000Z</time>
      </trkpt>
      <trkpt lat="43.98436" lon="5.91007">
        <ele>405</ele>
        <time>2020-10-05T09:22:22.000Z</time>
      </trkpt>
      <trkpt lat="43.98437" lon="5.91007">
        <ele>405</ele>
        <time>2020-10-05T09:22:23.000Z</time>
      </trkpt>
      <trkpt lat="43.98437" lon="5.91007">
        <ele>405</ele>
        <time>2020-10-05T09:22:24.000Z</time>
      </trkpt>
      <trkpt lat="43.98437" lon="5.91007">
        <ele>405</ele>
        <time>2020-10-05T09:22:25.000Z</time>
      </trkpt>
      <trkpt lat="43.98437" lon="5.91007">
        <ele>405</ele>
        <time>2020-10-05T09:22:26.000Z</time>
      </trkpt>
      <trkpt lat="43.98437" lon="5.91007">
        <ele>405</ele>
        <time>2020-10-05T09:22:27.000Z</time>
      </trkpt>
      <trkpt lat="43.98437" lon="5.91007">
        <ele>405</ele>
        <time>2020-10-05T09:22:28.000Z</time>
      </trkpt>
      <trkpt lat="43.98437" lon="5.91007">
        <ele>405</ele>
        <time>2020-10-05T09:22:29.000Z</time>
      </trkpt>
      <trkpt lat="43.98437" lon="5.91007">
        <ele>405</ele>
        <time>2020-10-05T09:22:30.000Z</time>
      </trkpt>
      <trkpt lat="43.98437" lon="5.91007">
        <ele>405</ele>
        <time>2020-10-05T09:22:31.000Z</time>
      </trkpt>
      <trkpt lat="43.98437" lon="5.91007">
        <ele>405</ele>
        <time>2020-10-05T09:22:32.000Z</time>
      </trkpt>
      <trkpt lat="43.98437" lon="5.91007">
        <ele>405</ele>
        <time>2020-10-05T09:22:33.000Z</time>
      </trkpt>
      <trkpt lat="43.98437" lon="5.91007">
        <ele>405</ele>
        <time>2020-10-05T09:22:34.000Z</time>
      </trkpt>
      <trkpt lat="43.98437" lon="5.91007">
        <ele>405</ele>
        <time>2020-10-05T09:22:35.000Z</time>
      </trkpt>
      <trkpt lat="43.98437" lon="5.91007">
        <ele>405</ele>
        <time>2020-10-05T09:22:36.000Z</time>
      </trkpt>
      <trkpt lat="43.98437" lon="5.91008">
        <ele>405</ele>
        <time>2020-10-05T09:22:37.000Z</time>
      </trkpt>
      <trkpt lat="43.98437" lon="5.91008">
        <ele>405</ele>
        <time>2020-10-05T09:22:38.000Z</time>
      </trkpt>
      <trkpt lat="43.98437" lon="5.91008">
        <ele>405</ele>
        <time>2020-10-05T09:22:39.000Z</time>
      </trkpt>
      <trkpt lat="43.98437" lon="5.91008">
        <ele>405</ele>
        <time>2020-10-05T09:22:40.000Z</time>
      </trkpt>
      <trkpt lat="43.98437" lon="5.91008">
        <ele>405</ele>
        <time>2020-10-05T09:22:41.000Z</time>
      </trkpt>
      <trkpt lat="43.98437" lon="5.91008">
        <ele>405</ele>
        <time>2020-10-05T09:22:42.000Z</time>
      </trkpt>
      <trkpt lat="43.98437" lon="5.91008">
        <ele>405</ele>
        <time>2020-10-05T09:22:43.000Z</time>
      </trkpt>
      <trkpt lat="43.98437" lon="5.91008">
        <ele>405</ele>
        <time>2020-10-05T09:22:44.000Z</time>
      </trkpt>
      <trkpt lat="43.98437" lon="5.91008">
        <ele>405</ele>
        <time>2020-10-05T09:22:45.000Z</time>
      </trkpt>
      <trkpt lat="43.98437" lon="5.91008">
        <ele>405</ele>
        <time>2020-10-05T09:22:46.000Z</time>
      </trkpt>
      <trkpt lat="43.98437" lon="5.91008">
        <ele>405</ele>
        <time>2020-10-05T09:22:47.000Z</time>
      </trkpt>
      <trkpt lat="43.98437" lon="5.91008">
        <ele>405</ele>
        <time>2020-10-05T09:22:48.000Z</time>
      </trkpt>
      <trkpt lat="43.98437" lon="5.91008">
        <ele>405</ele>
        <time>2020-10-05T09:22:49.000Z</time>
      </trkpt>
      <trkpt lat="43.98437" lon="5.91008">
        <ele>405</ele>
        <time>2020-10-05T09:22:50.000Z</time>
      </trkpt>
      <trkpt lat="43.98436" lon="5.91008">
        <ele>405</ele>
        <time>2020-10-05T09:22:51.000Z</time>
      </trkpt>
      <trkpt lat="43.98436" lon="5.91008">
        <ele>405</ele>
        <time>2020-10-05T09:22:52.000Z</time>
      </trkpt>
      <trkpt lat="43.98436" lon="5.91009">
        <ele>405</ele>
        <time>2020-10-05T09:22:53.000Z</time>
      </trkpt>
      <trkpt lat="43.98436" lon="5.91009">
        <ele>405</ele>
        <time>2020-10-05T09:22:54.000Z</time>
      </trkpt>
      <trkpt lat="43.98436" lon="5.91009">
        <ele>405</ele>
        <time>2020-10-05T09:22:55.000Z</time>
      </trkpt>
      <trkpt lat="43.98436" lon="5.9101">
        <ele>405</ele>
        <time>2020-10-05T09:22:56.000Z</time>
      </trkpt>
      <trkpt lat="43.98436" lon="5.9101">
        <ele>405</ele>
        <time>2020-10-05T09:22:57.000Z</time>
      </trkpt>
      <trkpt lat="43.98436" lon="5.91011">
        <ele>405</ele>
        <time>2020-10-05T09:22:58.000Z</time>
      </trkpt>
      <trkpt lat="43.98436" lon="5.91011">
        <ele>405</ele>
        <time>2020-10-05T09:22:59.000Z</time>
      </trkpt>
      <trkpt lat="43.98436" lon="5.91011">
        <ele>405</ele>
        <time>2020-10-05T09:23:00.000Z</time>
      </trkpt>
      <trkpt lat="43.98437" lon="5.91011">
        <ele>405</ele>
        <time>2020-10-05T09:23:01.000Z</time>
      </trkpt>
      <trkpt lat="43.98437" lon="5.91011">
        <ele>405</ele>
        <time>2020-10-05T09:23:02.000Z</time>
      </trkpt>
      <trkpt lat="43.98437" lon="5.91011">
        <ele>405</ele>
        <time>2020-10-05T09:23:03.000Z</time>
      </trkpt>
      <trkpt lat="43.98437" lon="5.91011">
        <ele>405</ele>
        <time>2020-10-05T09:23:04.000Z</time>
      </trkpt>
      <trkpt lat="43.98437" lon="5.91012">
        <ele>405</ele>
        <time>2020-10-05T09:23:05.000Z</time>
      </trkpt>
      <trkpt lat="43.98437" lon="5.91012">
        <ele>405</ele>
        <time>2020-10-05T09:23:06.000Z</time>
      </trkpt>
      <trkpt lat="43.98437" lon="5.91011">
        <ele>405</ele>
        <time>2020-10-05T09:23:07.000Z</time>
      </trkpt>
      <trkpt lat="43.98437" lon="5.91011">
        <ele>405</ele>
        <time>2020-10-05T09:23:08.000Z</time>
      </trkpt>
      <trkpt lat="43.98437" lon="5.91011">
        <ele>405</ele>
        <time>2020-10-05T09:23:09.000Z</time>
      </trkpt>
      <trkpt lat="43.98437" lon="5.91011">
        <ele>405</ele>
        <time>2020-10-05T09:23:10.000Z</time>
      </trkpt>
      <trkpt lat="43.98437" lon="5.91012">
        <ele>405</ele>
        <time>2020-10-05T09:23:11.000Z</time>
      </trkpt>
      <trkpt lat="43.98437" lon="5.91012">
        <ele>405</ele>
        <time>2020-10-05T09:23:12.000Z</time>
      </trkpt>
      <trkpt lat="43.98437" lon="5.91013">
        <ele>405</ele>
        <time>2020-10-05T09:23:13.000Z</time>
      </trkpt>
      <trkpt lat="43.98437" lon="5.91014">
        <ele>405</ele>
        <time>2020-10-05T09:23:14.000Z</time>
      </trkpt>
      <trkpt lat="43.98437" lon="5.91015">
        <ele>405</ele>
        <time>2020-10-05T09:23:15.000Z</time>
      </trkpt>
      <trkpt lat="43.98438" lon="5.91016">
        <ele>405</ele>
        <time>2020-10-05T09:23:16.000Z</time>
      </trkpt>
      <trkpt lat="43.98438" lon="5.91017">
        <ele>405</ele>
        <time>2020-10-05T09:23:17.000Z</time>
      </trkpt>
      <trkpt lat="43.98438" lon="5.91018">
        <ele>405</ele>
        <time>2020-10-05T09:23:18.000Z</time>
      </trkpt>
      <trkpt lat="43.98438" lon="5.91019">
        <ele>405</ele>
        <time>2020-10-05T09:23:19.000Z</time>
      </trkpt>
      <trkpt lat="43.98438" lon="5.91019">
        <ele>405</ele>
        <time>2020-10-05T09:23:20.000Z</time>
      </trkpt>
      <trkpt lat="43.98438" lon="5.9102">
        <ele>405</ele>
        <time>2020-10-05T09:23:21.000Z</time>
      </trkpt>
      <trkpt lat="43.98439" lon="5.91021">
        <ele>405</ele>
        <time>2020-10-05T09:23:22.000Z</time>
      </trkpt>
      <trkpt lat="43.98439" lon="5.91021">
        <ele>405</ele>
        <time>2020-10-05T09:23:23.000Z</time>
      </trkpt>
      <trkpt lat="43.9844" lon="5.91022">
        <ele>405</ele>
        <time>2020-10-05T09:23:24.000Z</time>
      </trkpt>
      <trkpt lat="43.9844" lon="5.91023">
        <ele>405</ele>
        <time>2020-10-05T09:23:25.000Z</time>
      </trkpt>
      <trkpt lat="43.98441" lon="5.91024">
        <ele>405</ele>
        <time>2020-10-05T09:23:26.000Z</time>
      </trkpt>
      <trkpt lat="43.98441" lon="5.91024">
        <ele>405</ele>
        <time>2020-10-05T09:23:27.000Z</time>
      </trkpt>
      <trkpt lat="43.98442" lon="5.91025">
        <ele>405</ele>
        <time>2020-10-05T09:23:28.000Z</time>
      </trkpt>
      <trkpt lat="43.98442" lon="5.91026">
        <ele>405</ele>
        <time>2020-10-05T09:23:29.000Z</time>
      </trkpt>
      <trkpt lat="43.98443" lon="5.91026">
        <ele>405</ele>
        <time>2020-10-05T09:23:30.000Z</time>
      </trkpt>
      <trkpt lat="43.98443" lon="5.91026">
        <ele>405</ele>
        <time>2020-10-05T09:23:31.000Z</time>
      </trkpt>
      <trkpt lat="43.98443" lon="5.91026">
        <ele>405</ele>
        <time>2020-10-05T09:23:32.000Z</time>
      </trkpt>
      <trkpt lat="43.98443" lon="5.91026">
        <ele>405</ele>
        <time>2020-10-05T09:23:33.000Z</time>
      </trkpt>
      <trkpt lat="43.98443" lon="5.91026">
        <ele>405</ele>
        <time>2020-10-05T09:23:34.000Z</time>
      </trkpt>
      <trkpt lat="43.98443" lon="5.91026">
        <ele>405</ele>
        <time>2020-10-05T09:23:35.000Z</time>
      </trkpt>
      <trkpt lat="43.98443" lon="5.91026">
        <ele>405</ele>
        <time>2020-10-05T09:23:36.000Z</time>
      </trkpt>
      <trkpt lat="43.98443" lon="5.91026">
        <ele>405</ele>
        <time>2020-10-05T09:23:37.000Z</time>
      </trkpt>
      <trkpt lat="43.98443" lon="5.91026">
        <ele>405</ele>
        <time>2020-10-05T09:23:38.000Z</time>
      </trkpt>
      <trkpt lat="43.98443" lon="5.91026">
        <ele>405</ele>
        <time>2020-10-05T09:23:39.000Z</time>
      </trkpt>
      <trkpt lat="43.98443" lon="5.91026">
        <ele>405</ele>
        <time>2020-10-05T09:23:40.000Z</time>
      </trkpt>
      <trkpt lat="43.98444" lon="5.91025">
        <ele>405</ele>
        <time>2020-10-05T09:23:41.000Z</time>
      </trkpt>
      <trkpt lat="43.98444" lon="5.91025">
        <ele>405</ele>
        <time>2020-10-05T09:23:42.000Z</time>
      </trkpt>
      <trkpt lat="43.98444" lon="5.91024">
        <ele>405</ele>
        <time>2020-10-05T09:23:43.000Z</time>
      </trkpt>
      <trkpt lat="43.98444" lon="5.91023">
        <ele>405</ele>
        <time>2020-10-05T09:23:44.000Z</time>
      </trkpt>
      <trkpt lat="43.98445" lon="5.91023">
        <ele>405</ele>
        <time>2020-10-05T09:23:45.000Z</time>
      </trkpt>
      <trkpt lat="43.98445" lon="5.91022">
        <ele>405</ele>
        <time>2020-10-05T09:23:46.000Z</time>
      </trkpt>
      <trkpt lat="43.98446" lon="5.91022">
        <ele>405</ele>
        <time>2020-10-05T09:23:47.000Z</time>
      </trkpt>
      <trkpt lat="43.98446" lon="5.91021">
        <ele>405</ele>
        <time>2020-10-05T09:23:48.000Z</time>
      </trkpt>
      <trkpt lat="43.98446" lon="5.9102">
        <ele>405</ele>
        <time>2020-10-05T09:23:49.000Z</time>
      </trkpt>
      <trkpt lat="43.98446" lon="5.9102">
        <ele>405</ele>
        <time>2020-10-05T09:23:50.000Z</time>
      </trkpt>
      <trkpt lat="43.98446" lon="5.91019">
        <ele>405</ele>
        <time>2020-10-05T09:23:51.000Z</time>
      </trkpt>
      <trkpt lat="43.98447" lon="5.91018">
        <ele>405</ele>
        <time>2020-10-05T09:23:52.000Z</time>
      </trkpt>
      <trkpt lat="43.98447" lon="5.91018">
        <ele>406</ele>
        <time>2020-10-05T09:23:53.000Z</time>
      </trkpt>
      <trkpt lat="43.98447" lon="5.91017">
        <ele>406</ele>
        <time>2020-10-05T09:23:54.000Z</time>
      </trkpt>
      <trkpt lat="43.98447" lon="5.91016">
        <ele>406</ele>
        <time>2020-10-05T09:23:55.000Z</time>
      </trkpt>
      <trkpt lat="43.98447" lon="5.91015">
        <ele>406</ele>
        <time>2020-10-05T09:23:56.000Z</time>
      </trkpt>
      <trkpt lat="43.98448" lon="5.91015">
        <ele>406</ele>
        <time>2020-10-05T09:23:57.000Z</time>
      </trkpt>
      <trkpt lat="43.98448" lon="5.91014">
        <ele>406</ele>
        <time>2020-10-05T09:23:58.000Z</time>
      </trkpt>
      <trkpt lat="43.98449" lon="5.91014">
        <ele>407</ele>
        <time>2020-10-05T09:23:59.000Z</time>
      </trkpt>
      <trkpt lat="43.98449" lon="5.91013">
        <ele>407</ele>
        <time>2020-10-05T09:24:00.000Z</time>
      </trkpt>
      <trkpt lat="43.98449" lon="5.91013">
        <ele>407</ele>
        <time>2020-10-05T09:24:01.000Z</time>
      </trkpt>
      <trkpt lat="43.9845" lon="5.91012">
        <ele>407</ele>
        <time>2020-10-05T09:24:02.000Z</time>
      </trkpt>
      <trkpt lat="43.9845" lon="5.91011">
        <ele>407</ele>
        <time>2020-10-05T09:24:03.000Z</time>
      </trkpt>
      <trkpt lat="43.9845" lon="5.9101">
        <ele>407</ele>
        <time>2020-10-05T09:24:04.000Z</time>
      </trkpt>
      <trkpt lat="43.98451" lon="5.9101">
        <ele>407</ele>
        <time>2020-10-05T09:24:05.000Z</time>
      </trkpt>
      <trkpt lat="43.98451" lon="5.91009">
        <ele>407</ele>
        <time>2020-10-05T09:24:06.000Z</time>
      </trkpt>
      <trkpt lat="43.98451" lon="5.91009">
        <ele>408</ele>
        <time>2020-10-05T09:24:07.000Z</time>
      </trkpt>
      <trkpt lat="43.98451" lon="5.91009">
        <ele>408</ele>
        <time>2020-10-05T09:24:08.000Z</time>
      </trkpt>
      <trkpt lat="43.98452" lon="5.91009">
        <ele>408</ele>
        <time>2020-10-05T09:24:09.000Z</time>
      </trkpt>
      <trkpt lat="43.98452" lon="5.91008">
        <ele>408</ele>
        <time>2020-10-05T09:24:10.000Z</time>
      </trkpt>
      <trkpt lat="43.98452" lon="5.91008">
        <ele>408</ele>
        <time>2020-10-05T09:24:11.000Z</time>
      </trkpt>
      <trkpt lat="43.98452" lon="5.91007">
        <ele>408</ele>
        <time>2020-10-05T09:24:12.000Z</time>
      </trkpt>
      <trkpt lat="43.98452" lon="5.91006">
        <ele>408</ele>
        <time>2020-10-05T09:24:13.000Z</time>
      </trkpt>
      <trkpt lat="43.98452" lon="5.91005">
        <ele>408</ele>
        <time>2020-10-05T09:24:14.000Z</time>
      </trkpt>
      <trkpt lat="43.98452" lon="5.91004">
        <ele>409</ele>
        <time>2020-10-05T09:24:15.000Z</time>
      </trkpt>
      <trkpt lat="43.98453" lon="5.91004">
        <ele>409</ele>
        <time>2020-10-05T09:24:16.000Z</time>
      </trkpt>
      <trkpt lat="43.98453" lon="5.91004">
        <ele>409</ele>
        <time>2020-10-05T09:24:17.000Z</time>
      </trkpt>
      <trkpt lat="43.98453" lon="5.91004">
        <ele>409</ele>
        <time>2020-10-05T09:24:18.000Z</time>
      </trkpt>
      <trkpt lat="43.98453" lon="5.91004">
        <ele>409</ele>
        <time>2020-10-05T09:24:19.000Z</time>
      </trkpt>
      <trkpt lat="43.98453" lon="5.91004">
        <ele>409</ele>
        <time>2020-10-05T09:24:20.000Z</time>
      </trkpt>
      <trkpt lat="43.98452" lon="5.91003">
        <ele>409</ele>
        <time>2020-10-05T09:24:21.000Z</time>
      </trkpt>
      <trkpt lat="43.98452" lon="5.91003">
        <ele>409</ele>
        <time>2020-10-05T09:24:22.000Z</time>
      </trkpt>
      <trkpt lat="43.98453" lon="5.91001">
        <ele>409</ele>
        <time>2020-10-05T09:24:23.000Z</time>
      </trkpt>
      <trkpt lat="43.98453" lon="5.91">
        <ele>409</ele>
        <time>2020-10-05T09:24:24.000Z</time>
      </trkpt>
      <trkpt lat="43.98453" lon="5.90999">
        <ele>409</ele>
        <time>2020-10-05T09:24:25.000Z</time>
      </trkpt>
      <trkpt lat="43.98454" lon="5.90998">
        <ele>409</ele>
        <time>2020-10-05T09:24:26.000Z</time>
      </trkpt>
      <trkpt lat="43.98454" lon="5.90997">
        <ele>409</ele>
        <time>2020-10-05T09:24:27.000Z</time>
      </trkpt>
      <trkpt lat="43.98455" lon="5.90996">
        <ele>410</ele>
        <time>2020-10-05T09:24:28.000Z</time>
      </trkpt>
      <trkpt lat="43.98456" lon="5.90994">
        <ele>410</ele>
        <time>2020-10-05T09:24:29.000Z</time>
      </trkpt>
      <trkpt lat="43.98457" lon="5.90994">
        <ele>410</ele>
        <time>2020-10-05T09:24:30.000Z</time>
      </trkpt>
      <trkpt lat="43.98457" lon="5.90993">
        <ele>410</ele>
        <time>2020-10-05T09:24:31.000Z</time>
      </trkpt>
      <trkpt lat="43.98458" lon="5.90991">
        <ele>410</ele>
        <time>2020-10-05T09:24:32.000Z</time>
      </trkpt>
      <trkpt lat="43.98458" lon="5.9099">
        <ele>410</ele>
        <time>2020-10-05T09:24:33.000Z</time>
      </trkpt>
      <trkpt lat="43.98459" lon="5.90989">
        <ele>410</ele>
        <time>2020-10-05T09:24:34.000Z</time>
      </trkpt>
      <trkpt lat="43.9846" lon="5.90988">
        <ele>410</ele>
        <time>2020-10-05T09:24:35.000Z</time>
      </trkpt>
      <trkpt lat="43.9846" lon="5.90987">
        <ele>410</ele>
        <time>2020-10-05T09:24:36.000Z</time>
      </trkpt>
      <trkpt lat="43.98461" lon="5.90986">
        <ele>410</ele>
        <time>2020-10-05T09:24:37.000Z</time>
      </trkpt>
      <trkpt lat="43.98462" lon="5.90985">
        <ele>410</ele>
        <time>2020-10-05T09:24:38.000Z</time>
      </trkpt>
      <trkpt lat="43.98462" lon="5.90984">
        <ele>410</ele>
        <time>2020-10-05T09:24:39.000Z</time>
      </trkpt>
      <trkpt lat="43.98463" lon="5.90983">
        <ele>410</ele>
        <time>2020-10-05T09:24:40.000Z</time>
      </trkpt>
      <trkpt lat="43.98463" lon="5.90982">
        <ele>410</ele>
        <time>2020-10-05T09:24:41.000Z</time>
      </trkpt>
      <trkpt lat="43.98463" lon="5.90982">
        <ele>410</ele>
        <time>2020-10-05T09:24:42.000Z</time>
      </trkpt>
      <trkpt lat="43.98463" lon="5.90982">
        <ele>410</ele>
        <time>2020-10-05T09:24:43.000Z</time>
      </trkpt>
      <trkpt lat="43.98463" lon="5.90982">
        <ele>410</ele>
        <time>2020-10-05T09:24:44.000Z</time>
      </trkpt>
      <trkpt lat="43.98463" lon="5.90982">
        <ele>410</ele>
        <time>2020-10-05T09:24:45.000Z</time>
      </trkpt>
      <trkpt lat="43.98463" lon="5.90981">
        <ele>411</ele>
        <time>2020-10-05T09:24:46.000Z</time>
      </trkpt>
      <trkpt lat="43.98463" lon="5.90981">
        <ele>411</ele>
        <time>2020-10-05T09:24:47.000Z</time>
      </trkpt>
      <trkpt lat="43.98463" lon="5.90981">
        <ele>411</ele>
        <time>2020-10-05T09:24:48.000Z</time>
      </trkpt>
      <trkpt lat="43.98463" lon="5.90982">
        <ele>411</ele>
        <time>2020-10-05T09:24:49.000Z</time>
      </trkpt>
      <trkpt lat="43.98463" lon="5.90982">
        <ele>411</ele>
        <time>2020-10-05T09:24:50.000Z</time>
      </trkpt>
      <trkpt lat="43.98463" lon="5.90982">
        <ele>411</ele>
        <time>2020-10-05T09:24:51.000Z</time>
      </trkpt>
      <trkpt lat="43.98463" lon="5.90982">
        <ele>411</ele>
        <time>2020-10-05T09:24:52.000Z</time>
      </trkpt>
      <trkpt lat="43.98463" lon="5.90982">
        <ele>411</ele>
        <time>2020-10-05T09:24:53.000Z</time>
      </trkpt>
      <trkpt lat="43.98462" lon="5.90982">
        <ele>411</ele>
        <time>2020-10-05T09:24:54.000Z</time>
      </trkpt>
      <trkpt lat="43.98462" lon="5.90981">
        <ele>411</ele>
        <time>2020-10-05T09:24:55.000Z</time>
      </trkpt>
      <trkpt lat="43.98461" lon="5.90979">
        <ele>411</ele>
        <time>2020-10-05T09:24:56.000Z</time>
      </trkpt>
      <trkpt lat="43.98461" lon="5.90977">
        <ele>411</ele>
        <time>2020-10-05T09:24:57.000Z</time>
      </trkpt>
      <trkpt lat="43.98461" lon="5.90976">
        <ele>411</ele>
        <time>2020-10-05T09:24:58.000Z</time>
      </trkpt>
      <trkpt lat="43.98462" lon="5.90975">
        <ele>412</ele>
        <time>2020-10-05T09:24:59.000Z</time>
      </trkpt>
      <trkpt lat="43.98461" lon="5.90975">
        <ele>412</ele>
        <time>2020-10-05T09:25:00.000Z</time>
      </trkpt>
      <trkpt lat="43.98462" lon="5.90974">
        <ele>412</ele>
        <time>2020-10-05T09:25:01.000Z</time>
      </trkpt>
      <trkpt lat="43.98462" lon="5.90974">
        <ele>412</ele>
        <time>2020-10-05T09:25:02.000Z</time>
      </trkpt>
      <trkpt lat="43.98462" lon="5.90974">
        <ele>412</ele>
        <time>2020-10-05T09:25:03.000Z</time>
      </trkpt>
      <trkpt lat="43.98462" lon="5.90974">
        <ele>412</ele>
        <time>2020-10-05T09:25:04.000Z</time>
      </trkpt>
      <trkpt lat="43.98462" lon="5.90974">
        <ele>412</ele>
        <time>2020-10-05T09:25:05.000Z</time>
      </trkpt>
      <trkpt lat="43.98462" lon="5.90974">
        <ele>412</ele>
        <time>2020-10-05T09:25:06.000Z</time>
      </trkpt>
      <trkpt lat="43.98462" lon="5.90974">
        <ele>412</ele>
        <time>2020-10-05T09:25:07.000Z</time>
      </trkpt>
      <trkpt lat="43.98462" lon="5.90974">
        <ele>412</ele>
        <time>2020-10-05T09:25:08.000Z</time>
      </trkpt>
      <trkpt lat="43.98462" lon="5.90974">
        <ele>412</ele>
        <time>2020-10-05T09:25:09.000Z</time>
      </trkpt>
      <trkpt lat="43.98462" lon="5.90973">
        <ele>412</ele>
        <time>2020-10-05T09:25:10.000Z</time>
      </trkpt>
      <trkpt lat="43.98462" lon="5.90973">
        <ele>412</ele>
        <time>2020-10-05T09:25:11.000Z</time>
      </trkpt>
      <trkpt lat="43.98462" lon="5.90972">
        <ele>412</ele>
        <time>2020-10-05T09:25:12.000Z</time>
      </trkpt>
      <trkpt lat="43.98463" lon="5.90971">
        <ele>412</ele>
        <time>2020-10-05T09:25:13.000Z</time>
      </trkpt>
      <trkpt lat="43.98463" lon="5.90971">
        <ele>412</ele>
        <time>2020-10-05T09:25:14.000Z</time>
      </trkpt>
      <trkpt lat="43.98463" lon="5.90971">
        <ele>412</ele>
        <time>2020-10-05T09:25:15.000Z</time>
      </trkpt>
      <trkpt lat="43.98463" lon="5.90971">
        <ele>412</ele>
        <time>2020-10-05T09:25:16.000Z</time>
      </trkpt>
      <trkpt lat="43.98463" lon="5.90971">
        <ele>412</ele>
        <time>2020-10-05T09:25:17.000Z</time>
      </trkpt>
      <trkpt lat="43.98462" lon="5.9097">
        <ele>412</ele>
        <time>2020-10-05T09:25:18.000Z</time>
      </trkpt>
      <trkpt lat="43.98463" lon="5.9097">
        <ele>412</ele>
        <time>2020-10-05T09:25:19.000Z</time>
      </trkpt>
      <trkpt lat="43.98462" lon="5.9097">
        <ele>412</ele>
        <time>2020-10-05T09:25:20.000Z</time>
      </trkpt>
      <trkpt lat="43.98462" lon="5.9097">
        <ele>412</ele>
        <time>2020-10-05T09:25:21.000Z</time>
      </trkpt>
      <trkpt lat="43.98462" lon="5.9097">
        <ele>412</ele>
        <time>2020-10-05T09:25:22.000Z</time>
      </trkpt>
      <trkpt lat="43.98462" lon="5.9097">
        <ele>412</ele>
        <time>2020-10-05T09:25:23.000Z</time>
      </trkpt>
      <trkpt lat="43.98462" lon="5.9097">
        <ele>412</ele>
        <time>2020-10-05T09:25:24.000Z</time>
      </trkpt>
      <trkpt lat="43.98462" lon="5.9097">
        <ele>412</ele>
        <time>2020-10-05T09:25:25.000Z</time>
      </trkpt>
      <trkpt lat="43.98462" lon="5.9097">
        <ele>412</ele>
        <time>2020-10-05T09:25:26.000Z</time>
      </trkpt>
      <trkpt lat="43.98462" lon="5.9097">
        <ele>412</ele>
        <time>2020-10-05T09:25:27.000Z</time>
      </trkpt>
      <trkpt lat="43.98462" lon="5.9097">
        <ele>412</ele>
        <time>2020-10-05T09:25:28.000Z</time>
      </trkpt>
      <trkpt lat="43.98462" lon="5.9097">
        <ele>412</ele>
        <time>2020-10-05T09:25:29.000Z</time>
      </trkpt>
      <trkpt lat="43.98462" lon="5.9097">
        <ele>412</ele>
        <time>2020-10-05T09:25:30.000Z</time>
      </trkpt>
      <trkpt lat="43.98462" lon="5.9097">
        <ele>412</ele>
        <time>2020-10-05T09:25:31.000Z</time>
      </trkpt>
      <trkpt lat="43.98462" lon="5.9097">
        <ele>412</ele>
        <time>2020-10-05T09:25:32.000Z</time>
      </trkpt>
      <trkpt lat="43.98462" lon="5.9097">
        <ele>412</ele>
        <time>2020-10-05T09:25:33.000Z</time>
      </trkpt>
      <trkpt lat="43.98462" lon="5.9097">
        <ele>412</ele>
        <time>2020-10-05T09:25:34.000Z</time>
      </trkpt>
      <trkpt lat="43.98461" lon="5.9097">
        <ele>412</ele>
        <time>2020-10-05T09:25:35.000Z</time>
      </trkpt>
      <trkpt lat="43.98461" lon="5.9097">
        <ele>412</ele>
        <time>2020-10-05T09:25:36.000Z</time>
      </trkpt>
      <trkpt lat="43.98461" lon="5.9097">
        <ele>412</ele>
        <time>2020-10-05T09:25:37.000Z</time>
      </trkpt>
      <trkpt lat="43.98461" lon="5.90971">
        <ele>412</ele>
        <time>2020-10-05T09:25:38.000Z</time>
      </trkpt>
      <trkpt lat="43.98461" lon="5.90971">
        <ele>412</ele>
        <time>2020-10-05T09:25:39.000Z</time>
      </trkpt>
      <trkpt lat="43.98461" lon="5.90971">
        <ele>412</ele>
        <time>2020-10-05T09:25:40.000Z</time>
      </trkpt>
      <trkpt lat="43.98461" lon="5.90971">
        <ele>412</ele>
        <time>2020-10-05T09:25:41.000Z</time>
      </trkpt>
      <trkpt lat="43.98461" lon="5.90971">
        <ele>412</ele>
        <time>2020-10-05T09:25:42.000Z</time>
      </trkpt>
      <trkpt lat="43.98461" lon="5.90971">
        <ele>411</ele>
        <time>2020-10-05T09:25:43.000Z</time>
      </trkpt>
      <trkpt lat="43.98461" lon="5.90971">
        <ele>411</ele>
        <time>2020-10-05T09:25:44.000Z</time>
      </trkpt>
      <trkpt lat="43.98461" lon="5.90971">
        <ele>411</ele>
        <time>2020-10-05T09:25:45.000Z</time>
      </trkpt>
      <trkpt lat="43.98461" lon="5.90971">
        <ele>411</ele>
        <time>2020-10-05T09:25:46.000Z</time>
      </trkpt>
      <trkpt lat="43.98461" lon="5.90971">
        <ele>411</ele>
        <time>2020-10-05T09:25:47.000Z</time>
      </trkpt>
      <trkpt lat="43.98461" lon="5.90971">
        <ele>411</ele>
        <time>2020-10-05T09:25:48.000Z</time>
      </trkpt>
      <trkpt lat="43.98461" lon="5.90971">
        <ele>411</ele>
        <time>2020-10-05T09:25:49.000Z</time>
      </trkpt>
      <trkpt lat="43.98461" lon="5.90971">
        <ele>411</ele>
        <time>2020-10-05T09:25:50.000Z</time>
      </trkpt>
      <trkpt lat="43.98461" lon="5.90971">
        <ele>411</ele>
        <time>2020-10-05T09:25:51.000Z</time>
      </trkpt>
      <trkpt lat="43.98461" lon="5.90971">
        <ele>411</ele>
        <time>2020-10-05T09:25:52.000Z</time>
      </trkpt>
      <trkpt lat="43.98461" lon="5.90971">
        <ele>411</ele>
        <time>2020-10-05T09:25:53.000Z</time>
      </trkpt>
      <trkpt lat="43.98461" lon="5.90971">
        <ele>411</ele>
        <time>2020-10-05T09:25:54.000Z</time>
      </trkpt>
      <trkpt lat="43.98461" lon="5.90971">
        <ele>411</ele>
        <time>2020-10-05T09:25:55.000Z</time>
      </trkpt>
      <trkpt lat="43.98461" lon="5.90972">
        <ele>411</ele>
        <time>2020-10-05T09:25:56.000Z</time>
      </trkpt>
      <trkpt lat="43.98461" lon="5.90972">
        <ele>411</ele>
        <time>2020-10-05T09:25:57.000Z</time>
      </trkpt>
      <trkpt lat="43.98462" lon="5.90972">
        <ele>411</ele>
        <time>2020-10-05T09:25:58.000Z</time>
      </trkpt>
      <trkpt lat="43.98462" lon="5.90972">
        <ele>411</ele>
        <time>2020-10-05T09:25:59.000Z</time>
      </trkpt>
      <trkpt lat="43.98462" lon="5.90972">
        <ele>411</ele>
        <time>2020-10-05T09:26:00.000Z</time>
      </trkpt>
      <trkpt lat="43.98462" lon="5.90972">
        <ele>411</ele>
        <time>2020-10-05T09:26:01.000Z</time>
      </trkpt>
      <trkpt lat="43.98462" lon="5.90972">
        <ele>411</ele>
        <time>2020-10-05T09:26:02.000Z</time>
      </trkpt>
      <trkpt lat="43.98462" lon="5.90972">
        <ele>412</ele>
        <time>2020-10-05T09:26:03.000Z</time>
      </trkpt>
      <trkpt lat="43.98462" lon="5.90972">
        <ele>412</ele>
        <time>2020-10-05T09:26:04.000Z</time>
      </trkpt>
      <trkpt lat="43.98462" lon="5.90972">
        <ele>412</ele>
        <time>2020-10-05T09:26:05.000Z</time>
      </trkpt>
      <trkpt lat="43.98462" lon="5.90972">
        <ele>412</ele>
        <time>2020-10-05T09:26:06.000Z</time>
      </trkpt>
      <trkpt lat="43.98462" lon="5.90972">
        <ele>412</ele>
        <time>2020-10-05T09:26:07.000Z</time>
      </trkpt>
      <trkpt lat="43.98462" lon="5.90972">
        <ele>412</ele>
        <time>2020-10-05T09:26:08.000Z</time>
      </trkpt>
      <trkpt lat="43.98462" lon="5.90972">
        <ele>412</ele>
        <time>2020-10-05T09:26:09.000Z</time>
      </trkpt>
      <trkpt lat="43.98462" lon="5.90972">
        <ele>412</ele>
        <time>2020-10-05T09:26:10.000Z</time>
      </trkpt>
      <trkpt lat="43.98462" lon="5.90972">
        <ele>412</ele>
        <time>2020-10-05T09:26:11.000Z</time>
      </trkpt>
      <trkpt lat="43.98462" lon="5.90972">
        <ele>412</ele>
        <time>2020-10-05T09:26:12.000Z</time>
      </trkpt>
      <trkpt lat="43.98462" lon="5.90972">
        <ele>412</ele>
        <time>2020-10-05T09:26:13.000Z</time>
      </trkpt>
      <trkpt lat="43.98461" lon="5.90972">
        <ele>412</ele>
        <time>2020-10-05T09:26:14.000Z</time>
      </trkpt>
      <trkpt lat="43.98461" lon="5.90973">
        <ele>412</ele>
        <time>2020-10-05T09:26:15.000Z</time>
      </trkpt>
      <trkpt lat="43.98461" lon="5.90973">
        <ele>412</ele>
        <time>2020-10-05T09:26:16.000Z</time>
      </trkpt>
      <trkpt lat="43.98461" lon="5.90974">
        <ele>412</ele>
        <time>2020-10-05T09:26:17.000Z</time>
      </trkpt>
      <trkpt lat="43.98461" lon="5.90975">
        <ele>412</ele>
        <time>2020-10-05T09:26:18.000Z</time>
      </trkpt>
      <trkpt lat="43.9846" lon="5.90975">
        <ele>412</ele>
        <time>2020-10-05T09:26:19.000Z</time>
      </trkpt>
      <trkpt lat="43.9846" lon="5.90975">
        <ele>412</ele>
        <time>2020-10-05T09:26:20.000Z</time>
      </trkpt>
      <trkpt lat="43.98461" lon="5.90975">
        <ele>412</ele>
        <time>2020-10-05T09:26:21.000Z</time>
      </trkpt>
      <trkpt lat="43.98461" lon="5.90975">
        <ele>412</ele>
        <time>2020-10-05T09:26:22.000Z</time>
      </trkpt>
      <trkpt lat="43.98461" lon="5.90975">
        <ele>413</ele>
        <time>2020-10-05T09:26:23.000Z</time>
      </trkpt>
      <trkpt lat="43.98461" lon="5.90976">
        <ele>413</ele>
        <time>2020-10-05T09:26:24.000Z</time>
      </trkpt>
      <trkpt lat="43.9846" lon="5.90977">
        <ele>413</ele>
        <time>2020-10-05T09:26:25.000Z</time>
      </trkpt>
      <trkpt lat="43.9846" lon="5.90978">
        <ele>413</ele>
        <time>2020-10-05T09:26:26.000Z</time>
      </trkpt>
      <trkpt lat="43.9846" lon="5.90978">
        <ele>413</ele>
        <time>2020-10-05T09:26:27.000Z</time>
      </trkpt>
      <trkpt lat="43.9846" lon="5.90979">
        <ele>413</ele>
        <time>2020-10-05T09:26:28.000Z</time>
      </trkpt>
      <trkpt lat="43.98461" lon="5.9098">
        <ele>413</ele>
        <time>2020-10-05T09:26:29.000Z</time>
      </trkpt>
      <trkpt lat="43.98461" lon="5.9098">
        <ele>413</ele>
        <time>2020-10-05T09:26:30.000Z</time>
      </trkpt>
      <trkpt lat="43.98461" lon="5.9098">
        <ele>413</ele>
        <time>2020-10-05T09:26:31.000Z</time>
      </trkpt>
      <trkpt lat="43.98462" lon="5.9098">
        <ele>413</ele>
        <time>2020-10-05T09:26:32.000Z</time>
      </trkpt>
      <trkpt lat="43.98462" lon="5.90981">
        <ele>413</ele>
        <time>2020-10-05T09:26:33.000Z</time>
      </trkpt>
      <trkpt lat="43.98462" lon="5.90981">
        <ele>413</ele>
        <time>2020-10-05T09:26:34.000Z</time>
      </trkpt>
      <trkpt lat="43.98462" lon="5.90981">
        <ele>413</ele>
        <time>2020-10-05T09:26:35.000Z</time>
      </trkpt>
      <trkpt lat="43.98462" lon="5.90981">
        <ele>414</ele>
        <time>2020-10-05T09:26:36.000Z</time>
      </trkpt>
      <trkpt lat="43.98463" lon="5.90981">
        <ele>414</ele>
        <time>2020-10-05T09:26:37.000Z</time>
      </trkpt>
      <trkpt lat="43.98463" lon="5.90981">
        <ele>414</ele>
        <time>2020-10-05T09:26:38.000Z</time>
      </trkpt>
      <trkpt lat="43.98463" lon="5.90981">
        <ele>414</ele>
        <time>2020-10-05T09:26:39.000Z</time>
      </trkpt>
      <trkpt lat="43.98463" lon="5.90981">
        <ele>414</ele>
        <time>2020-10-05T09:26:40.000Z</time>
      </trkpt>
      <trkpt lat="43.98463" lon="5.90981">
        <ele>414</ele>
        <time>2020-10-05T09:26:41.000Z</time>
      </trkpt>
      <trkpt lat="43.98463" lon="5.9098">
        <ele>414</ele>
        <time>2020-10-05T09:26:42.000Z</time>
      </trkpt>
      <trkpt lat="43.98463" lon="5.9098">
        <ele>415</ele>
        <time>2020-10-05T09:26:43.000Z</time>
      </trkpt>
      <trkpt lat="43.98463" lon="5.9098">
        <ele>415</ele>
        <time>2020-10-05T09:26:44.000Z</time>
      </trkpt>
      <trkpt lat="43.98463" lon="5.9098">
        <ele>415</ele>
        <time>2020-10-05T09:26:45.000Z</time>
      </trkpt>
      <trkpt lat="43.98462" lon="5.9098">
        <ele>415</ele>
        <time>2020-10-05T09:26:46.000Z</time>
      </trkpt>
      <trkpt lat="43.98462" lon="5.9098">
        <ele>415</ele>
        <time>2020-10-05T09:26:47.000Z</time>
      </trkpt>
      <trkpt lat="43.98462" lon="5.9098">
        <ele>415</ele>
        <time>2020-10-05T09:26:48.000Z</time>
      </trkpt>
      <trkpt lat="43.98462" lon="5.9098">
        <ele>415</ele>
        <time>2020-10-05T09:26:49.000Z</time>
      </trkpt>
      <trkpt lat="43.98462" lon="5.9098">
        <ele>415</ele>
        <time>2020-10-05T09:26:50.000Z</time>
      </trkpt>
      <trkpt lat="43.98462" lon="5.9098">
        <ele>415</ele>
        <time>2020-10-05T09:26:51.000Z</time>
      </trkpt>
      <trkpt lat="43.98462" lon="5.9098">
        <ele>415</ele>
        <time>2020-10-05T09:26:52.000Z</time>
      </trkpt>
      <trkpt lat="43.98462" lon="5.9098">
        <ele>415</ele>
        <time>2020-10-05T09:26:53.000Z</time>
      </trkpt>
      <trkpt lat="43.98462" lon="5.9098">
        <ele>415</ele>
        <time>2020-10-05T09:26:54.000Z</time>
      </trkpt>
      <trkpt lat="43.98462" lon="5.9098">
        <ele>415</ele>
        <time>2020-10-05T09:26:55.000Z</time>
      </trkpt>
      <trkpt lat="43.98462" lon="5.9098">
        <ele>415</ele>
        <time>2020-10-05T09:26:56.000Z</time>
      </trkpt>
      <trkpt lat="43.98462" lon="5.9098">
        <ele>415</ele>
        <time>2020-10-05T09:26:57.000Z</time>
      </trkpt>
      <trkpt lat="43.98462" lon="5.9098">
        <ele>415</ele>
        <time>2020-10-05T09:26:58.000Z</time>
      </trkpt>
      <trkpt lat="43.98461" lon="5.9098">
        <ele>415</ele>
        <time>2020-10-05T09:26:59.000Z</time>
      </trkpt>
      <trkpt lat="43.98461" lon="5.90981">
        <ele>415</ele>
        <time>2020-10-05T09:27:00.000Z</time>
      </trkpt>
      <trkpt lat="43.9846" lon="5.90982">
        <ele>415</ele>
        <time>2020-10-05T09:27:01.000Z</time>
      </trkpt>
      <trkpt lat="43.98459" lon="5.90983">
        <ele>416</ele>
        <time>2020-10-05T09:27:02.000Z</time>
      </trkpt>
      <trkpt lat="43.98459" lon="5.90983">
        <ele>416</ele>
        <time>2020-10-05T09:27:03.000Z</time>
      </trkpt>
      <trkpt lat="43.98458" lon="5.90984">
        <ele>416</ele>
        <time>2020-10-05T09:27:04.000Z</time>
      </trkpt>
      <trkpt lat="43.98458" lon="5.90985">
        <ele>416</ele>
        <time>2020-10-05T09:27:05.000Z</time>
      </trkpt>
      <trkpt lat="43.98458" lon="5.90985">
        <ele>416</ele>
        <time>2020-10-05T09:27:06.000Z</time>
      </trkpt>
      <trkpt lat="43.98458" lon="5.90985">
        <ele>416</ele>
        <time>2020-10-05T09:27:07.000Z</time>
      </trkpt>
      <trkpt lat="43.98458" lon="5.90986">
        <ele>416</ele>
        <time>2020-10-05T09:27:08.000Z</time>
      </trkpt>
      <trkpt lat="43.98458" lon="5.90986">
        <ele>416</ele>
        <time>2020-10-05T09:27:09.000Z</time>
      </trkpt>
      <trkpt lat="43.98458" lon="5.90986">
        <ele>416</ele>
        <time>2020-10-05T09:27:10.000Z</time>
      </trkpt>
      <trkpt lat="43.98458" lon="5.90986">
        <ele>416</ele>
        <time>2020-10-05T09:27:11.000Z</time>
      </trkpt>
      <trkpt lat="43.98458" lon="5.90986">
        <ele>416</ele>
        <time>2020-10-05T09:27:12.000Z</time>
      </trkpt>
      <trkpt lat="43.98458" lon="5.90986">
        <ele>416</ele>
        <time>2020-10-05T09:27:13.000Z</time>
      </trkpt>
      <trkpt lat="43.98458" lon="5.90986">
        <ele>416</ele>
        <time>2020-10-05T09:27:14.000Z</time>
      </trkpt>
      <trkpt lat="43.98458" lon="5.90986">
        <ele>416</ele>
        <time>2020-10-05T09:27:15.000Z</time>
      </trkpt>
      <trkpt lat="43.98458" lon="5.90987">
        <ele>416</ele>
        <time>2020-10-05T09:27:16.000Z</time>
      </trkpt>
      <trkpt lat="43.98458" lon="5.90987">
        <ele>416</ele>
        <time>2020-10-05T09:27:17.000Z</time>
      </trkpt>
      <trkpt lat="43.98458" lon="5.90987">
        <ele>416</ele>
        <time>2020-10-05T09:27:18.000Z</time>
      </trkpt>
      <trkpt lat="43.98458" lon="5.90987">
        <ele>416</ele>
        <time>2020-10-05T09:27:19.000Z</time>
      </trkpt>
      <trkpt lat="43.98458" lon="5.90987">
        <ele>416</ele>
        <time>2020-10-05T09:27:20.000Z</time>
      </trkpt>
      <trkpt lat="43.98458" lon="5.90986">
        <ele>416</ele>
        <time>2020-10-05T09:27:21.000Z</time>
      </trkpt>
      <trkpt lat="43.98458" lon="5.90986">
        <ele>416</ele>
        <time>2020-10-05T09:27:22.000Z</time>
      </trkpt>
      <trkpt lat="43.98458" lon="5.90986">
        <ele>416</ele>
        <time>2020-10-05T09:27:23.000Z</time>
      </trkpt>
      <trkpt lat="43.98458" lon="5.90986">
        <ele>415</ele>
        <time>2020-10-05T09:27:24.000Z</time>
      </trkpt>
      <trkpt lat="43.98458" lon="5.90986">
        <ele>415</ele>
        <time>2020-10-05T09:27:25.000Z</time>
      </trkpt>
      <trkpt lat="43.98458" lon="5.90986">
        <ele>415</ele>
        <time>2020-10-05T09:27:26.000Z</time>
      </trkpt>
      <trkpt lat="43.98458" lon="5.90986">
        <ele>415</ele>
        <time>2020-10-05T09:27:27.000Z</time>
      </trkpt>
      <trkpt lat="43.98458" lon="5.90986">
        <ele>415</ele>
        <time>2020-10-05T09:27:28.000Z</time>
      </trkpt>
      <trkpt lat="43.98458" lon="5.90986">
        <ele>415</ele>
        <time>2020-10-05T09:27:29.000Z</time>
      </trkpt>
      <trkpt lat="43.98458" lon="5.90986">
        <ele>415</ele>
        <time>2020-10-05T09:27:30.000Z</time>
      </trkpt>
      <trkpt lat="43.98458" lon="5.90986">
        <ele>415</ele>
        <time>2020-10-05T09:27:31.000Z</time>
      </trkpt>
      <trkpt lat="43.98458" lon="5.90986">
        <ele>415</ele>
        <time>2020-10-05T09:27:32.000Z</time>
      </trkpt>
      <trkpt lat="43.98458" lon="5.90986">
        <ele>415</ele>
        <time>2020-10-05T09:27:33.000Z</time>
      </trkpt>
      <trkpt lat="43.98458" lon="5.90985">
        <ele>415</ele>
        <time>2020-10-05T09:27:34.000Z</time>
      </trkpt>
      <trkpt lat="43.98458" lon="5.90985">
        <ele>415</ele>
        <time>2020-10-05T09:27:35.000Z</time>
      </trkpt>
      <trkpt lat="43.98458" lon="5.90985">
        <ele>415</ele>
        <time>2020-10-05T09:27:36.000Z</time>
      </trkpt>
      <trkpt lat="43.98458" lon="5.90985">
        <ele>415</ele>
        <time>2020-10-05T09:27:37.000Z</time>
      </trkpt>
      <trkpt lat="43.98458" lon="5.90985">
        <ele>415</ele>
        <time>2020-10-05T09:27:38.000Z</time>
      </trkpt>
      <trkpt lat="43.98458" lon="5.90985">
        <ele>415</ele>
        <time>2020-10-05T09:27:39.000Z</time>
      </trkpt>
      <trkpt lat="43.98458" lon="5.90985">
        <ele>415</ele>
        <time>2020-10-05T09:27:40.000Z</time>
      </trkpt>
      <trkpt lat="43.98458" lon="5.90985">
        <ele>415</ele>
        <time>2020-10-05T09:27:41.000Z</time>
      </trkpt>
      <trkpt lat="43.98458" lon="5.90985">
        <ele>415</ele>
        <time>2020-10-05T09:27:42.000Z</time>
      </trkpt>
      <trkpt lat="43.98458" lon="5.90985">
        <ele>415</ele>
        <time>2020-10-05T09:27:43.000Z</time>
      </trkpt>
      <trkpt lat="43.98458" lon="5.90985">
        <ele>415</ele>
        <time>2020-10-05T09:27:44.000Z</time>
      </trkpt>
      <trkpt lat="43.98458" lon="5.90986">
        <ele>415</ele>
        <time>2020-10-05T09:27:45.000Z</time>
      </trkpt>
      <trkpt lat="43.98457" lon="5.90986">
        <ele>415</ele>
        <time>2020-10-05T09:27:46.000Z</time>
      </trkpt>
      <trkpt lat="43.98457" lon="5.90987">
        <ele>415</ele>
        <time>2020-10-05T09:27:47.000Z</time>
      </trkpt>
      <trkpt lat="43.98456" lon="5.90988">
        <ele>414</ele>
        <time>2020-10-05T09:27:48.000Z</time>
      </trkpt>
      <trkpt lat="43.98456" lon="5.90989">
        <ele>414</ele>
        <time>2020-10-05T09:27:49.000Z</time>
      </trkpt>
      <trkpt lat="43.98455" lon="5.9099">
        <ele>414</ele>
        <time>2020-10-05T09:27:50.000Z</time>
      </trkpt>
      <trkpt lat="43.98455" lon="5.90991">
        <ele>414</ele>
        <time>2020-10-05T09:27:51.000Z</time>
      </trkpt>
      <trkpt lat="43.98454" lon="5.90993">
        <ele>414</ele>
        <time>2020-10-05T09:27:52.000Z</time>
      </trkpt>
      <trkpt lat="43.98454" lon="5.90994">
        <ele>414</ele>
        <time>2020-10-05T09:27:53.000Z</time>
      </trkpt>
      <trkpt lat="43.98453" lon="5.90996">
        <ele>414</ele>
        <time>2020-10-05T09:27:54.000Z</time>
      </trkpt>
      <trkpt lat="43.98453" lon="5.90997">
        <ele>414</ele>
        <time>2020-10-05T09:27:55.000Z</time>
      </trkpt>
      <trkpt lat="43.98453" lon="5.90998">
        <ele>414</ele>
        <time>2020-10-05T09:27:56.000Z</time>
      </trkpt>
      <trkpt lat="43.98453" lon="5.91">
        <ele>414</ele>
        <time>2020-10-05T09:27:57.000Z</time>
      </trkpt>
      <trkpt lat="43.98452" lon="5.91002">
        <ele>414</ele>
        <time>2020-10-05T09:27:58.000Z</time>
      </trkpt>
      <trkpt lat="43.98453" lon="5.91003">
        <ele>414</ele>
        <time>2020-10-05T09:27:59.000Z</time>
      </trkpt>
      <trkpt lat="43.98453" lon="5.91005">
        <ele>413</ele>
        <time>2020-10-05T09:28:00.000Z</time>
      </trkpt>
      <trkpt lat="43.98452" lon="5.91007">
        <ele>413</ele>
        <time>2020-10-05T09:28:01.000Z</time>
      </trkpt>
      <trkpt lat="43.98452" lon="5.91008">
        <ele>413</ele>
        <time>2020-10-05T09:28:02.000Z</time>
      </trkpt>
      <trkpt lat="43.98452" lon="5.9101">
        <ele>413</ele>
        <time>2020-10-05T09:28:03.000Z</time>
      </trkpt>
      <trkpt lat="43.98453" lon="5.91011">
        <ele>413</ele>
        <time>2020-10-05T09:28:04.000Z</time>
      </trkpt>
      <trkpt lat="43.98453" lon="5.91013">
        <ele>413</ele>
        <time>2020-10-05T09:28:05.000Z</time>
      </trkpt>
      <trkpt lat="43.98453" lon="5.91015">
        <ele>413</ele>
        <time>2020-10-05T09:28:06.000Z</time>
      </trkpt>
      <trkpt lat="43.98454" lon="5.91016">
        <ele>412</ele>
        <time>2020-10-05T09:28:07.000Z</time>
      </trkpt>
      <trkpt lat="43.98454" lon="5.91018">
        <ele>412</ele>
        <time>2020-10-05T09:28:08.000Z</time>
      </trkpt>
      <trkpt lat="43.98455" lon="5.91019">
        <ele>412</ele>
        <time>2020-10-05T09:28:09.000Z</time>
      </trkpt>
      <trkpt lat="43.98455" lon="5.91021">
        <ele>412</ele>
        <time>2020-10-05T09:28:10.000Z</time>
      </trkpt>
      <trkpt lat="43.98456" lon="5.91022">
        <ele>412</ele>
        <time>2020-10-05T09:28:11.000Z</time>
      </trkpt>
      <trkpt lat="43.98457" lon="5.91024">
        <ele>412</ele>
        <time>2020-10-05T09:28:12.000Z</time>
      </trkpt>
      <trkpt lat="43.98457" lon="5.91024">
        <ele>411</ele>
        <time>2020-10-05T09:28:13.000Z</time>
      </trkpt>
      <trkpt lat="43.98458" lon="5.91025">
        <ele>411</ele>
        <time>2020-10-05T09:28:14.000Z</time>
      </trkpt>
      <trkpt lat="43.98459" lon="5.91026">
        <ele>411</ele>
        <time>2020-10-05T09:28:15.000Z</time>
      </trkpt>
      <trkpt lat="43.98459" lon="5.91028">
        <ele>411</ele>
        <time>2020-10-05T09:28:16.000Z</time>
      </trkpt>
      <trkpt lat="43.9846" lon="5.91029">
        <ele>411</ele>
        <time>2020-10-05T09:28:17.000Z</time>
      </trkpt>
      <trkpt lat="43.98461" lon="5.9103">
        <ele>411</ele>
        <time>2020-10-05T09:28:18.000Z</time>
      </trkpt>
      <trkpt lat="43.98461" lon="5.9103">
        <ele>411</ele>
        <time>2020-10-05T09:28:19.000Z</time>
      </trkpt>
      <trkpt lat="43.98462" lon="5.91031">
        <ele>411</ele>
        <time>2020-10-05T09:28:20.000Z</time>
      </trkpt>
      <trkpt lat="43.98462" lon="5.91032">
        <ele>411</ele>
        <time>2020-10-05T09:28:21.000Z</time>
      </trkpt>
      <trkpt lat="43.98463" lon="5.91033">
        <ele>410</ele>
        <time>2020-10-05T09:28:22.000Z</time>
      </trkpt>
      <trkpt lat="43.98464" lon="5.91034">
        <ele>410</ele>
        <time>2020-10-05T09:28:23.000Z</time>
      </trkpt>
      <trkpt lat="43.98465" lon="5.91034">
        <ele>410</ele>
        <time>2020-10-05T09:28:24.000Z</time>
      </trkpt>
      <trkpt lat="43.98466" lon="5.91035">
        <ele>410</ele>
        <time>2020-10-05T09:28:25.000Z</time>
      </trkpt>
      <trkpt lat="43.98467" lon="5.91036">
        <ele>410</ele>
        <time>2020-10-05T09:28:26.000Z</time>
      </trkpt>
      <trkpt lat="43.98467" lon="5.91037">
        <ele>410</ele>
        <time>2020-10-05T09:28:27.000Z</time>
      </trkpt>
      <trkpt lat="43.98468" lon="5.91038">
        <ele>410</ele>
        <time>2020-10-05T09:28:28.000Z</time>
      </trkpt>
      <trkpt lat="43.98469" lon="5.91039">
        <ele>410</ele>
        <time>2020-10-05T09:28:29.000Z</time>
      </trkpt>
      <trkpt lat="43.98469" lon="5.91039">
        <ele>410</ele>
        <time>2020-10-05T09:28:30.000Z</time>
      </trkpt>
      <trkpt lat="43.9847" lon="5.9104">
        <ele>409</ele>
        <time>2020-10-05T09:28:31.000Z</time>
      </trkpt>
      <trkpt lat="43.98471" lon="5.91041">
        <ele>409</ele>
        <time>2020-10-05T09:28:32.000Z</time>
      </trkpt>
      <trkpt lat="43.98472" lon="5.91042">
        <ele>409</ele>
        <time>2020-10-05T09:28:33.000Z</time>
      </trkpt>
      <trkpt lat="43.98473" lon="5.91043">
        <ele>409</ele>
        <time>2020-10-05T09:28:34.000Z</time>
      </trkpt>
      <trkpt lat="43.98474" lon="5.91043">
        <ele>409</ele>
        <time>2020-10-05T09:28:35.000Z</time>
      </trkpt>
      <trkpt lat="43.98474" lon="5.91043">
        <ele>409</ele>
        <time>2020-10-05T09:28:36.000Z</time>
      </trkpt>
      <trkpt lat="43.98475" lon="5.91043">
        <ele>409</ele>
        <time>2020-10-05T09:28:37.000Z</time>
      </trkpt>
      <trkpt lat="43.98475" lon="5.91043">
        <ele>409</ele>
        <time>2020-10-05T09:28:38.000Z</time>
      </trkpt>
      <trkpt lat="43.98475" lon="5.91043">
        <ele>409</ele>
        <time>2020-10-05T09:28:39.000Z</time>
      </trkpt>
      <trkpt lat="43.98475" lon="5.91043">
        <ele>409</ele>
        <time>2020-10-05T09:28:40.000Z</time>
      </trkpt>
      <trkpt lat="43.98475" lon="5.91044">
        <ele>409</ele>
        <time>2020-10-05T09:28:41.000Z</time>
      </trkpt>
      <trkpt lat="43.98476" lon="5.91044">
        <ele>409</ele>
        <time>2020-10-05T09:28:42.000Z</time>
      </trkpt>
      <trkpt lat="43.98476" lon="5.91045">
        <ele>409</ele>
        <time>2020-10-05T09:28:43.000Z</time>
      </trkpt>
      <trkpt lat="43.98476" lon="5.91045">
        <ele>409</ele>
        <time>2020-10-05T09:28:44.000Z</time>
      </trkpt>
      <trkpt lat="43.98477" lon="5.91046">
        <ele>409</ele>
        <time>2020-10-05T09:28:45.000Z</time>
      </trkpt>
      <trkpt lat="43.98478" lon="5.91047">
        <ele>409</ele>
        <time>2020-10-05T09:28:46.000Z</time>
      </trkpt>
      <trkpt lat="43.98478" lon="5.91047">
        <ele>408</ele>
        <time>2020-10-05T09:28:47.000Z</time>
      </trkpt>
      <trkpt lat="43.98479" lon="5.91047">
        <ele>408</ele>
        <time>2020-10-05T09:28:48.000Z</time>
      </trkpt>
      <trkpt lat="43.9848" lon="5.91048">
        <ele>408</ele>
        <time>2020-10-05T09:28:49.000Z</time>
      </trkpt>
      <trkpt lat="43.98481" lon="5.91049">
        <ele>408</ele>
        <time>2020-10-05T09:28:50.000Z</time>
      </trkpt>
      <trkpt lat="43.98482" lon="5.9105">
        <ele>408</ele>
        <time>2020-10-05T09:28:51.000Z</time>
      </trkpt>
      <trkpt lat="43.98483" lon="5.9105">
        <ele>408</ele>
        <time>2020-10-05T09:28:52.000Z</time>
      </trkpt>
      <trkpt lat="43.98483" lon="5.91051">
        <ele>408</ele>
        <time>2020-10-05T09:28:53.000Z</time>
      </trkpt>
      <trkpt lat="43.98484" lon="5.91052">
        <ele>408</ele>
        <time>2020-10-05T09:28:54.000Z</time>
      </trkpt>
      <trkpt lat="43.98485" lon="5.91053">
        <ele>408</ele>
        <time>2020-10-05T09:28:55.000Z</time>
      </trkpt>
      <trkpt lat="43.98486" lon="5.91053">
        <ele>408</ele>
        <time>2020-10-05T09:28:56.000Z</time>
      </trkpt>
      <trkpt lat="43.98487" lon="5.91054">
        <ele>408</ele>
        <time>2020-10-05T09:28:57.000Z</time>
      </trkpt>
      <trkpt lat="43.98488" lon="5.91055">
        <ele>408</ele>
        <time>2020-10-05T09:28:58.000Z</time>
      </trkpt>
      <trkpt lat="43.98489" lon="5.91055">
        <ele>408</ele>
        <time>2020-10-05T09:28:59.000Z</time>
      </trkpt>
      <trkpt lat="43.9849" lon="5.91055">
        <ele>409</ele>
        <time>2020-10-05T09:29:00.000Z</time>
      </trkpt>
      <trkpt lat="43.98491" lon="5.91056">
        <ele>409</ele>
        <time>2020-10-05T09:29:01.000Z</time>
      </trkpt>
      <trkpt lat="43.98492" lon="5.91056">
        <ele>409</ele>
        <time>2020-10-05T09:29:02.000Z</time>
      </trkpt>
      <trkpt lat="43.98492" lon="5.91057">
        <ele>409</ele>
        <time>2020-10-05T09:29:03.000Z</time>
      </trkpt>
      <trkpt lat="43.98493" lon="5.91058">
        <ele>409</ele>
        <time>2020-10-05T09:29:04.000Z</time>
      </trkpt>
      <trkpt lat="43.98494" lon="5.91058">
        <ele>409</ele>
        <time>2020-10-05T09:29:05.000Z</time>
      </trkpt>
      <trkpt lat="43.98495" lon="5.91059">
        <ele>409</ele>
        <time>2020-10-05T09:29:06.000Z</time>
      </trkpt>
      <trkpt lat="43.98496" lon="5.9106">
        <ele>409</ele>
        <time>2020-10-05T09:29:07.000Z</time>
      </trkpt>
      <trkpt lat="43.98497" lon="5.9106">
        <ele>409</ele>
        <time>2020-10-05T09:29:08.000Z</time>
      </trkpt>
      <trkpt lat="43.98498" lon="5.91061">
        <ele>409</ele>
        <time>2020-10-05T09:29:09.000Z</time>
      </trkpt>
      <trkpt lat="43.98499" lon="5.91061">
        <ele>409</ele>
        <time>2020-10-05T09:29:10.000Z</time>
      </trkpt>
      <trkpt lat="43.985" lon="5.91062">
        <ele>409</ele>
        <time>2020-10-05T09:29:11.000Z</time>
      </trkpt>
      <trkpt lat="43.98501" lon="5.91063">
        <ele>409</ele>
        <time>2020-10-05T09:29:12.000Z</time>
      </trkpt>
      <trkpt lat="43.98501" lon="5.91063">
        <ele>409</ele>
        <time>2020-10-05T09:29:13.000Z</time>
      </trkpt>
      <trkpt lat="43.98502" lon="5.91064">
        <ele>409</ele>
        <time>2020-10-05T09:29:14.000Z</time>
      </trkpt>
      <trkpt lat="43.98503" lon="5.91064">
        <ele>409</ele>
        <time>2020-10-05T09:29:15.000Z</time>
      </trkpt>
      <trkpt lat="43.98504" lon="5.91065">
        <ele>409</ele>
        <time>2020-10-05T09:29:16.000Z</time>
      </trkpt>
      <trkpt lat="43.98505" lon="5.91066">
        <ele>409</ele>
        <time>2020-10-05T09:29:17.000Z</time>
      </trkpt>
      <trkpt lat="43.98506" lon="5.91066">
        <ele>409</ele>
        <time>2020-10-05T09:29:18.000Z</time>
      </trkpt>
      <trkpt lat="43.98506" lon="5.91067">
        <ele>409</ele>
        <time>2020-10-05T09:29:19.000Z</time>
      </trkpt>
      <trkpt lat="43.98507" lon="5.91067">
        <ele>409</ele>
        <time>2020-10-05T09:29:20.000Z</time>
      </trkpt>
      <trkpt lat="43.98508" lon="5.91067">
        <ele>409</ele>
        <time>2020-10-05T09:29:21.000Z</time>
      </trkpt>
      <trkpt lat="43.98509" lon="5.91068">
        <ele>410</ele>
        <time>2020-10-05T09:29:22.000Z</time>
      </trkpt>
      <trkpt lat="43.9851" lon="5.91068">
        <ele>410</ele>
        <time>2020-10-05T09:29:23.000Z</time>
      </trkpt>
      <trkpt lat="43.98511" lon="5.91069">
        <ele>410</ele>
        <time>2020-10-05T09:29:24.000Z</time>
      </trkpt>
      <trkpt lat="43.98511" lon="5.91069">
        <ele>410</ele>
        <time>2020-10-05T09:29:25.000Z</time>
      </trkpt>
      <trkpt lat="43.98512" lon="5.9107">
        <ele>410</ele>
        <time>2020-10-05T09:29:26.000Z</time>
      </trkpt>
      <trkpt lat="43.98513" lon="5.9107">
        <ele>410</ele>
        <time>2020-10-05T09:29:27.000Z</time>
      </trkpt>
      <trkpt lat="43.98514" lon="5.9107">
        <ele>410</ele>
        <time>2020-10-05T09:29:28.000Z</time>
      </trkpt>
      <trkpt lat="43.98515" lon="5.9107">
        <ele>410</ele>
        <time>2020-10-05T09:29:29.000Z</time>
      </trkpt>
      <trkpt lat="43.98516" lon="5.9107">
        <ele>410</ele>
        <time>2020-10-05T09:29:30.000Z</time>
      </trkpt>
      <trkpt lat="43.98516" lon="5.9107">
        <ele>410</ele>
        <time>2020-10-05T09:29:31.000Z</time>
      </trkpt>
      <trkpt lat="43.98517" lon="5.9107">
        <ele>410</ele>
        <time>2020-10-05T09:29:32.000Z</time>
      </trkpt>
      <trkpt lat="43.98518" lon="5.9107">
        <ele>410</ele>
        <time>2020-10-05T09:29:33.000Z</time>
      </trkpt>
      <trkpt lat="43.98518" lon="5.9107">
        <ele>410</ele>
        <time>2020-10-05T09:29:34.000Z</time>
      </trkpt>
      <trkpt lat="43.98518" lon="5.9107">
        <ele>410</ele>
        <time>2020-10-05T09:29:35.000Z</time>
      </trkpt>
      <trkpt lat="43.98518" lon="5.9107">
        <ele>410</ele>
        <time>2020-10-05T09:29:36.000Z</time>
      </trkpt>
      <trkpt lat="43.98518" lon="5.9107">
        <ele>410</ele>
        <time>2020-10-05T09:29:37.000Z</time>
      </trkpt>
      <trkpt lat="43.98518" lon="5.9107">
        <ele>410</ele>
        <time>2020-10-05T09:29:38.000Z</time>
      </trkpt>
      <trkpt lat="43.98518" lon="5.9107">
        <ele>410</ele>
        <time>2020-10-05T09:29:39.000Z</time>
      </trkpt>
      <trkpt lat="43.98518" lon="5.9107">
        <ele>410</ele>
        <time>2020-10-05T09:29:40.000Z</time>
      </trkpt>
      <trkpt lat="43.98518" lon="5.9107">
        <ele>410</ele>
        <time>2020-10-05T09:29:41.000Z</time>
      </trkpt>
      <trkpt lat="43.98518" lon="5.9107">
        <ele>410</ele>
        <time>2020-10-05T09:29:42.000Z</time>
      </trkpt>
      <trkpt lat="43.98518" lon="5.9107">
        <ele>410</ele>
        <time>2020-10-05T09:29:43.000Z</time>
      </trkpt>
      <trkpt lat="43.98518" lon="5.91069">
        <ele>410</ele>
        <time>2020-10-05T09:29:44.000Z</time>
      </trkpt>
      <trkpt lat="43.98518" lon="5.91069">
        <ele>410</ele>
        <time>2020-10-05T09:29:45.000Z</time>
      </trkpt>
      <trkpt lat="43.98518" lon="5.9107">
        <ele>410</ele>
        <time>2020-10-05T09:29:46.000Z</time>
      </trkpt>
      <trkpt lat="43.98518" lon="5.9107">
        <ele>410</ele>
        <time>2020-10-05T09:29:47.000Z</time>
      </trkpt>
      <trkpt lat="43.98518" lon="5.9107">
        <ele>410</ele>
        <time>2020-10-05T09:29:48.000Z</time>
      </trkpt>
      <trkpt lat="43.98518" lon="5.9107">
        <ele>410</ele>
        <time>2020-10-05T09:29:49.000Z</time>
      </trkpt>
      <trkpt lat="43.98518" lon="5.9107">
        <ele>410</ele>
        <time>2020-10-05T09:29:50.000Z</time>
      </trkpt>
      <trkpt lat="43.98518" lon="5.9107">
        <ele>410</ele>
        <time>2020-10-05T09:29:51.000Z</time>
      </trkpt>
      <trkpt lat="43.98518" lon="5.9107">
        <ele>410</ele>
        <time>2020-10-05T09:29:52.000Z</time>
      </trkpt>
      <trkpt lat="43.98518" lon="5.91069">
        <ele>410</ele>
        <time>2020-10-05T09:29:53.000Z</time>
      </trkpt>
      <trkpt lat="43.98518" lon="5.9107">
        <ele>410</ele>
        <time>2020-10-05T09:29:54.000Z</time>
      </trkpt>
      <trkpt lat="43.98518" lon="5.9107">
        <ele>410</ele>
        <time>2020-10-05T09:29:55.000Z</time>
      </trkpt>
      <trkpt lat="43.98519" lon="5.9107">
        <ele>410</ele>
        <time>2020-10-05T09:29:56.000Z</time>
      </trkpt>
      <trkpt lat="43.98519" lon="5.9107">
        <ele>410</ele>
        <time>2020-10-05T09:29:57.000Z</time>
      </trkpt>
      <trkpt lat="43.9852" lon="5.9107">
        <ele>410</ele>
        <time>2020-10-05T09:29:58.000Z</time>
      </trkpt>
      <trkpt lat="43.98521" lon="5.9107">
        <ele>410</ele>
        <time>2020-10-05T09:29:59.000Z</time>
      </trkpt>
      <trkpt lat="43.98521" lon="5.9107">
        <ele>410</ele>
        <time>2020-10-05T09:30:00.000Z</time>
      </trkpt>
      <trkpt lat="43.98522" lon="5.9107">
        <ele>410</ele>
        <time>2020-10-05T09:30:01.000Z</time>
      </trkpt>
      <trkpt lat="43.98523" lon="5.9107">
        <ele>410</ele>
        <time>2020-10-05T09:30:02.000Z</time>
      </trkpt>
      <trkpt lat="43.98524" lon="5.9107">
        <ele>410</ele>
        <time>2020-10-05T09:30:03.000Z</time>
      </trkpt>
      <trkpt lat="43.98525" lon="5.9107">
        <ele>410</ele>
        <time>2020-10-05T09:30:04.000Z</time>
      </trkpt>
      <trkpt lat="43.98525" lon="5.9107">
        <ele>410</ele>
        <time>2020-10-05T09:30:05.000Z</time>
      </trkpt>
      <trkpt lat="43.98526" lon="5.9107">
        <ele>410</ele>
        <time>2020-10-05T09:30:06.000Z</time>
      </trkpt>
      <trkpt lat="43.98526" lon="5.9107">
        <ele>410</ele>
        <time>2020-10-05T09:30:07.000Z</time>
      </trkpt>
      <trkpt lat="43.98526" lon="5.9107">
        <ele>410</ele>
        <time>2020-10-05T09:30:08.000Z</time>
      </trkpt>
      <trkpt lat="43.98526" lon="5.9107">
        <ele>410</ele>
        <time>2020-10-05T09:30:09.000Z</time>
      </trkpt>
      <trkpt lat="43.98526" lon="5.9107">
        <ele>410</ele>
        <time>2020-10-05T09:30:10.000Z</time>
      </trkpt>
      <trkpt lat="43.98526" lon="5.9107">
        <ele>410</ele>
        <time>2020-10-05T09:30:11.000Z</time>
      </trkpt>
      <trkpt lat="43.98526" lon="5.9107">
        <ele>410</ele>
        <time>2020-10-05T09:30:12.000Z</time>
      </trkpt>
      <trkpt lat="43.98526" lon="5.9107">
        <ele>410</ele>
        <time>2020-10-05T09:30:13.000Z</time>
      </trkpt>
      <trkpt lat="43.98526" lon="5.9107">
        <ele>410</ele>
        <time>2020-10-05T09:30:14.000Z</time>
      </trkpt>
      <trkpt lat="43.98526" lon="5.9107">
        <ele>410</ele>
        <time>2020-10-05T09:30:15.000Z</time>
      </trkpt>
      <trkpt lat="43.98526" lon="5.9107">
        <ele>410</ele>
        <time>2020-10-05T09:30:16.000Z</time>
      </trkpt>
      <trkpt lat="43.98526" lon="5.9107">
        <ele>410</ele>
        <time>2020-10-05T09:30:17.000Z</time>
      </trkpt>
      <trkpt lat="43.98526" lon="5.9107">
        <ele>410</ele>
        <time>2020-10-05T09:30:18.000Z</time>
      </trkpt>
      <trkpt lat="43.98526" lon="5.9107">
        <ele>410</ele>
        <time>2020-10-05T09:30:19.000Z</time>
      </trkpt>
      <trkpt lat="43.98526" lon="5.9107">
        <ele>410</ele>
        <time>2020-10-05T09:30:20.000Z</time>
      </trkpt>
      <trkpt lat="43.98526" lon="5.9107">
        <ele>410</ele>
        <time>2020-10-05T09:30:21.000Z</time>
      </trkpt>
      <trkpt lat="43.98526" lon="5.9107">
        <ele>410</ele>
        <time>2020-10-05T09:30:22.000Z</time>
      </trkpt>
      <trkpt lat="43.98526" lon="5.9107">
        <ele>410</ele>
        <time>2020-10-05T09:30:23.000Z</time>
      </trkpt>
      <trkpt lat="43.98526" lon="5.9107">
        <ele>410</ele>
        <time>2020-10-05T09:30:24.000Z</time>
      </trkpt>
      <trkpt lat="43.98526" lon="5.9107">
        <ele>410</ele>
        <time>2020-10-05T09:30:25.000Z</time>
      </trkpt>
      <trkpt lat="43.98526" lon="5.9107">
        <ele>410</ele>
        <time>2020-10-05T09:30:26.000Z</time>
      </trkpt>
      <trkpt lat="43.98526" lon="5.9107">
        <ele>409</ele>
        <time>2020-10-05T09:30:27.000Z</time>
      </trkpt>
      <trkpt lat="43.98526" lon="5.9107">
        <ele>409</ele>
        <time>2020-10-05T09:30:28.000Z</time>
      </trkpt>
      <trkpt lat="43.98526" lon="5.9107">
        <ele>409</ele>
        <time>2020-10-05T09:30:29.000Z</time>
      </trkpt>
      <trkpt lat="43.98526" lon="5.9107">
        <ele>409</ele>
        <time>2020-10-05T09:30:30.000Z</time>
      </trkpt>
      <trkpt lat="43.98526" lon="5.9107">
        <ele>409</ele>
        <time>2020-10-05T09:30:31.000Z</time>
      </trkpt>
      <trkpt lat="43.98526" lon="5.9107">
        <ele>409</ele>
        <time>2020-10-05T09:30:32.000Z</time>
      </trkpt>
      <trkpt lat="43.98526" lon="5.9107">
        <ele>409</ele>
        <time>2020-10-05T09:30:33.000Z</time>
      </trkpt>
      <trkpt lat="43.98527" lon="5.9107">
        <ele>409</ele>
        <time>2020-10-05T09:30:34.000Z</time>
      </trkpt>
      <trkpt lat="43.98527" lon="5.9107">
        <ele>409</ele>
        <time>2020-10-05T09:30:35.000Z</time>
      </trkpt>
      <trkpt lat="43.98528" lon="5.9107">
        <ele>410</ele>
        <time>2020-10-05T09:30:36.000Z</time>
      </trkpt>
      <trkpt lat="43.9853" lon="5.9107">
        <ele>410</ele>
        <time>2020-10-05T09:30:37.000Z</time>
      </trkpt>
      <trkpt lat="43.98531" lon="5.9107">
        <ele>410</ele>
        <time>2020-10-05T09:30:38.000Z</time>
      </trkpt>
      <trkpt lat="43.98532" lon="5.91069">
        <ele>410</ele>
        <time>2020-10-05T09:30:39.000Z</time>
      </trkpt>
      <trkpt lat="43.98534" lon="5.91069">
        <ele>410</ele>
        <time>2020-10-05T09:30:40.000Z</time>
      </trkpt>
      <trkpt lat="43.98535" lon="5.91068">
        <ele>410</ele>
        <time>2020-10-05T09:30:41.000Z</time>
      </trkpt>
      <trkpt lat="43.98537" lon="5.91067">
        <ele>410</ele>
        <time>2020-10-05T09:30:42.000Z</time>
      </trkpt>
      <trkpt lat="43.98538" lon="5.91067">
        <ele>410</ele>
        <time>2020-10-05T09:30:43.000Z</time>
      </trkpt>
      <trkpt lat="43.98539" lon="5.91066">
        <ele>410</ele>
        <time>2020-10-05T09:30:44.000Z</time>
      </trkpt>
      <trkpt lat="43.9854" lon="5.91066">
        <ele>410</ele>
        <time>2020-10-05T09:30:45.000Z</time>
      </trkpt>
      <trkpt lat="43.98542" lon="5.91065">
        <ele>410</ele>
        <time>2020-10-05T09:30:46.000Z</time>
      </trkpt>
      <trkpt lat="43.98543" lon="5.91065">
        <ele>410</ele>
        <time>2020-10-05T09:30:47.000Z</time>
      </trkpt>
      <trkpt lat="43.98544" lon="5.91064">
        <ele>410</ele>
        <time>2020-10-05T09:30:48.000Z</time>
      </trkpt>
      <trkpt lat="43.98546" lon="5.91064">
        <ele>410</ele>
        <time>2020-10-05T09:30:49.000Z</time>
      </trkpt>
      <trkpt lat="43.98547" lon="5.91063">
        <ele>410</ele>
        <time>2020-10-05T09:30:50.000Z</time>
      </trkpt>
      <trkpt lat="43.98548" lon="5.91062">
        <ele>410</ele>
        <time>2020-10-05T09:30:51.000Z</time>
      </trkpt>
      <trkpt lat="43.98549" lon="5.91061">
        <ele>410</ele>
        <time>2020-10-05T09:30:52.000Z</time>
      </trkpt>
      <trkpt lat="43.9855" lon="5.9106">
        <ele>410</ele>
        <time>2020-10-05T09:30:53.000Z</time>
      </trkpt>
      <trkpt lat="43.98551" lon="5.9106">
        <ele>410</ele>
        <time>2020-10-05T09:30:54.000Z</time>
      </trkpt>
      <trkpt lat="43.98552" lon="5.91059">
        <ele>410</ele>
        <time>2020-10-05T09:30:55.000Z</time>
      </trkpt>
      <trkpt lat="43.98554" lon="5.91059">
        <ele>409</ele>
        <time>2020-10-05T09:30:56.000Z</time>
      </trkpt>
      <trkpt lat="43.98554" lon="5.91059">
        <ele>409</ele>
        <time>2020-10-05T09:30:57.000Z</time>
      </trkpt>
      <trkpt lat="43.98555" lon="5.91058">
        <ele>409</ele>
        <time>2020-10-05T09:30:58.000Z</time>
      </trkpt>
      <trkpt lat="43.98556" lon="5.91057">
        <ele>409</ele>
        <time>2020-10-05T09:30:59.000Z</time>
      </trkpt>
      <trkpt lat="43.98557" lon="5.91055">
        <ele>409</ele>
        <time>2020-10-05T09:31:00.000Z</time>
      </trkpt>
      <trkpt lat="43.98558" lon="5.91054">
        <ele>409</ele>
        <time>2020-10-05T09:31:01.000Z</time>
      </trkpt>
      <trkpt lat="43.9856" lon="5.91053">
        <ele>409</ele>
        <time>2020-10-05T09:31:02.000Z</time>
      </trkpt>
      <trkpt lat="43.98561" lon="5.91052">
        <ele>409</ele>
        <time>2020-10-05T09:31:03.000Z</time>
      </trkpt>
      <trkpt lat="43.98562" lon="5.91052">
        <ele>409</ele>
        <time>2020-10-05T09:31:04.000Z</time>
      </trkpt>
      <trkpt lat="43.98563" lon="5.91051">
        <ele>409</ele>
        <time>2020-10-05T09:31:05.000Z</time>
      </trkpt>
      <trkpt lat="43.98564" lon="5.9105">
        <ele>409</ele>
        <time>2020-10-05T09:31:06.000Z</time>
      </trkpt>
      <trkpt lat="43.98565" lon="5.91049">
        <ele>409</ele>
        <time>2020-10-05T09:31:07.000Z</time>
      </trkpt>
      <trkpt lat="43.98566" lon="5.91048">
        <ele>409</ele>
        <time>2020-10-05T09:31:08.000Z</time>
      </trkpt>
      <trkpt lat="43.98568" lon="5.91047">
        <ele>409</ele>
        <time>2020-10-05T09:31:09.000Z</time>
      </trkpt>
      <trkpt lat="43.98569" lon="5.91047">
        <ele>409</ele>
        <time>2020-10-05T09:31:10.000Z</time>
      </trkpt>
      <trkpt lat="43.9857" lon="5.91046">
        <ele>409</ele>
        <time>2020-10-05T09:31:11.000Z</time>
      </trkpt>
      <trkpt lat="43.98571" lon="5.91046">
        <ele>409</ele>
        <time>2020-10-05T09:31:12.000Z</time>
      </trkpt>
      <trkpt lat="43.98573" lon="5.91045">
        <ele>409</ele>
        <time>2020-10-05T09:31:13.000Z</time>
      </trkpt>
      <trkpt lat="43.98574" lon="5.91044">
        <ele>409</ele>
        <time>2020-10-05T09:31:14.000Z</time>
      </trkpt>
      <trkpt lat="43.98575" lon="5.91044">
        <ele>409</ele>
        <time>2020-10-05T09:31:15.000Z</time>
      </trkpt>
      <trkpt lat="43.98577" lon="5.91043">
        <ele>409</ele>
        <time>2020-10-05T09:31:16.000Z</time>
      </trkpt>
      <trkpt lat="43.98578" lon="5.91043">
        <ele>409</ele>
        <time>2020-10-05T09:31:17.000Z</time>
      </trkpt>
      <trkpt lat="43.98579" lon="5.91043">
        <ele>409</ele>
        <time>2020-10-05T09:31:18.000Z</time>
      </trkpt>
      <trkpt lat="43.98581" lon="5.91042">
        <ele>409</ele>
        <time>2020-10-05T09:31:19.000Z</time>
      </trkpt>
      <trkpt lat="43.98582" lon="5.91042">
        <ele>409</ele>
        <time>2020-10-05T09:31:20.000Z</time>
      </trkpt>
      <trkpt lat="43.98584" lon="5.91041">
        <ele>409</ele>
        <time>2020-10-05T09:31:21.000Z</time>
      </trkpt>
      <trkpt lat="43.98585" lon="5.91041">
        <ele>409</ele>
        <time>2020-10-05T09:31:22.000Z</time>
      </trkpt>
      <trkpt lat="43.98586" lon="5.91041">
        <ele>409</ele>
        <time>2020-10-05T09:31:23.000Z</time>
      </trkpt>
      <trkpt lat="43.98587" lon="5.9104">
        <ele>409</ele>
        <time>2020-10-05T09:31:24.000Z</time>
      </trkpt>
      <trkpt lat="43.98588" lon="5.9104">
        <ele>409</ele>
        <time>2020-10-05T09:31:25.000Z</time>
      </trkpt>
      <trkpt lat="43.98589" lon="5.91039">
        <ele>409</ele>
        <time>2020-10-05T09:31:26.000Z</time>
      </trkpt>
      <trkpt lat="43.9859" lon="5.91038">
        <ele>409</ele>
        <time>2020-10-05T09:31:27.000Z</time>
      </trkpt>
      <trkpt lat="43.98591" lon="5.91038">
        <ele>409</ele>
        <time>2020-10-05T09:31:28.000Z</time>
      </trkpt>
      <trkpt lat="43.98592" lon="5.91037">
        <ele>409</ele>
        <time>2020-10-05T09:31:29.000Z</time>
      </trkpt>
      <trkpt lat="43.98594" lon="5.91036">
        <ele>409</ele>
        <time>2020-10-05T09:31:30.000Z</time>
      </trkpt>
      <trkpt lat="43.98595" lon="5.91036">
        <ele>409</ele>
        <time>2020-10-05T09:31:31.000Z</time>
      </trkpt>
      <trkpt lat="43.98596" lon="5.91036">
        <ele>410</ele>
        <time>2020-10-05T09:31:32.000Z</time>
      </trkpt>
      <trkpt lat="43.98598" lon="5.91035">
        <ele>410</ele>
        <time>2020-10-05T09:31:33.000Z</time>
      </trkpt>
      <trkpt lat="43.98599" lon="5.91035">
        <ele>410</ele>
        <time>2020-10-05T09:31:34.000Z</time>
      </trkpt>
      <trkpt lat="43.986" lon="5.91035">
        <ele>410</ele>
        <time>2020-10-05T09:31:35.000Z</time>
      </trkpt>
      <trkpt lat="43.98601" lon="5.91035">
        <ele>410</ele>
        <time>2020-10-05T09:31:36.000Z</time>
      </trkpt>
      <trkpt lat="43.98602" lon="5.91034">
        <ele>410</ele>
        <time>2020-10-05T09:31:37.000Z</time>
      </trkpt>
      <trkpt lat="43.98603" lon="5.91034">
        <ele>410</ele>
        <time>2020-10-05T09:31:38.000Z</time>
      </trkpt>
      <trkpt lat="43.98605" lon="5.91033">
        <ele>410</ele>
        <time>2020-10-05T09:31:39.000Z</time>
      </trkpt>
      <trkpt lat="43.98606" lon="5.91033">
        <ele>410</ele>
        <time>2020-10-05T09:31:40.000Z</time>
      </trkpt>
      <trkpt lat="43.98607" lon="5.91033">
        <ele>410</ele>
        <time>2020-10-05T09:31:41.000Z</time>
      </trkpt>
      <trkpt lat="43.98609" lon="5.91033">
        <ele>410</ele>
        <time>2020-10-05T09:31:42.000Z</time>
      </trkpt>
      <trkpt lat="43.9861" lon="5.91033">
        <ele>410</ele>
        <time>2020-10-05T09:31:43.000Z</time>
      </trkpt>
      <trkpt lat="43.98611" lon="5.91033">
        <ele>410</ele>
        <time>2020-10-05T09:31:44.000Z</time>
      </trkpt>
      <trkpt lat="43.98612" lon="5.91033">
        <ele>410</ele>
        <time>2020-10-05T09:31:45.000Z</time>
      </trkpt>
      <trkpt lat="43.98614" lon="5.91032">
        <ele>410</ele>
        <time>2020-10-05T09:31:46.000Z</time>
      </trkpt>
      <trkpt lat="43.98615" lon="5.91032">
        <ele>410</ele>
        <time>2020-10-05T09:31:47.000Z</time>
      </trkpt>
      <trkpt lat="43.98616" lon="5.91032">
        <ele>409</ele>
        <time>2020-10-05T09:31:48.000Z</time>
      </trkpt>
      <trkpt lat="43.98618" lon="5.91032">
        <ele>409</ele>
        <time>2020-10-05T09:31:49.000Z</time>
      </trkpt>
      <trkpt lat="43.98619" lon="5.91032">
        <ele>409</ele>
        <time>2020-10-05T09:31:50.000Z</time>
      </trkpt>
      <trkpt lat="43.9862" lon="5.91032">
        <ele>409</ele>
        <time>2020-10-05T09:31:51.000Z</time>
      </trkpt>
      <trkpt lat="43.98621" lon="5.91032">
        <ele>409</ele>
        <time>2020-10-05T09:31:52.000Z</time>
      </trkpt>
      <trkpt lat="43.98621" lon="5.91032">
        <ele>409</ele>
        <time>2020-10-05T09:31:53.000Z</time>
      </trkpt>
      <trkpt lat="43.98621" lon="5.91032">
        <ele>410</ele>
        <time>2020-10-05T09:31:54.000Z</time>
      </trkpt>
      <trkpt lat="43.98621" lon="5.91032">
        <ele>410</ele>
        <time>2020-10-05T09:31:55.000Z</time>
      </trkpt>
      <trkpt lat="43.98621" lon="5.91032">
        <ele>410</ele>
        <time>2020-10-05T09:31:56.000Z</time>
      </trkpt>
      <trkpt lat="43.98621" lon="5.91033">
        <ele>410</ele>
        <time>2020-10-05T09:31:57.000Z</time>
      </trkpt>
      <trkpt lat="43.98621" lon="5.91033">
        <ele>410</ele>
        <time>2020-10-05T09:31:58.000Z</time>
      </trkpt>
      <trkpt lat="43.98621" lon="5.91033">
        <ele>410</ele>
        <time>2020-10-05T09:31:59.000Z</time>
      </trkpt>
      <trkpt lat="43.98621" lon="5.91033">
        <ele>410</ele>
        <time>2020-10-05T09:32:00.000Z</time>
      </trkpt>
      <trkpt lat="43.98621" lon="5.91033">
        <ele>410</ele>
        <time>2020-10-05T09:32:01.000Z</time>
      </trkpt>
      <trkpt lat="43.98621" lon="5.91033">
        <ele>410</ele>
        <time>2020-10-05T09:32:02.000Z</time>
      </trkpt>
      <trkpt lat="43.98621" lon="5.91034">
        <ele>409</ele>
        <time>2020-10-05T09:32:03.000Z</time>
      </trkpt>
      <trkpt lat="43.98622" lon="5.91034">
        <ele>409</ele>
        <time>2020-10-05T09:32:04.000Z</time>
      </trkpt>
      <trkpt lat="43.98622" lon="5.91033">
        <ele>409</ele>
        <time>2020-10-05T09:32:05.000Z</time>
      </trkpt>
      <trkpt lat="43.98622" lon="5.91033">
        <ele>409</ele>
        <time>2020-10-05T09:32:06.000Z</time>
      </trkpt>
      <trkpt lat="43.98622" lon="5.91033">
        <ele>409</ele>
        <time>2020-10-05T09:32:07.000Z</time>
      </trkpt>
      <trkpt lat="43.98623" lon="5.91033">
        <ele>409</ele>
        <time>2020-10-05T09:32:08.000Z</time>
      </trkpt>
      <trkpt lat="43.98623" lon="5.91033">
        <ele>409</ele>
        <time>2020-10-05T09:32:09.000Z</time>
      </trkpt>
      <trkpt lat="43.98623" lon="5.91033">
        <ele>409</ele>
        <time>2020-10-05T09:32:10.000Z</time>
      </trkpt>
      <trkpt lat="43.98623" lon="5.91033">
        <ele>409</ele>
        <time>2020-10-05T09:32:11.000Z</time>
      </trkpt>
      <trkpt lat="43.98623" lon="5.91033">
        <ele>409</ele>
        <time>2020-10-05T09:32:12.000Z</time>
      </trkpt>
      <trkpt lat="43.98623" lon="5.91033">
        <ele>409</ele>
        <time>2020-10-05T09:32:13.000Z</time>
      </trkpt>
      <trkpt lat="43.98623" lon="5.91034">
        <ele>409</ele>
        <time>2020-10-05T09:32:14.000Z</time>
      </trkpt>
      <trkpt lat="43.98623" lon="5.91034">
        <ele>409</ele>
        <time>2020-10-05T09:32:15.000Z</time>
      </trkpt>
      <trkpt lat="43.98624" lon="5.91034">
        <ele>409</ele>
        <time>2020-10-05T09:32:16.000Z</time>
      </trkpt>
      <trkpt lat="43.98624" lon="5.91034">
        <ele>409</ele>
        <time>2020-10-05T09:32:17.000Z</time>
      </trkpt>
      <trkpt lat="43.98625" lon="5.91034">
        <ele>409</ele>
        <time>2020-10-05T09:32:18.000Z</time>
      </trkpt>
      <trkpt lat="43.98625" lon="5.91034">
        <ele>409</ele>
        <time>2020-10-05T09:32:19.000Z</time>
      </trkpt>
      <trkpt lat="43.98625" lon="5.91034">
        <ele>409</ele>
        <time>2020-10-05T09:32:20.000Z</time>
      </trkpt>
      <trkpt lat="43.98625" lon="5.91034">
        <ele>409</ele>
        <time>2020-10-05T09:32:21.000Z</time>
      </trkpt>
      <trkpt lat="43.98625" lon="5.91034">
        <ele>409</ele>
        <time>2020-10-05T09:32:22.000Z</time>
      </trkpt>
      <trkpt lat="43.98625" lon="5.91033">
        <ele>409</ele>
        <time>2020-10-05T09:32:23.000Z</time>
      </trkpt>
      <trkpt lat="43.98625" lon="5.91033">
        <ele>409</ele>
        <time>2020-10-05T09:32:24.000Z</time>
      </trkpt>
      <trkpt lat="43.98625" lon="5.91033">
        <ele>409</ele>
        <time>2020-10-05T09:32:25.000Z</time>
      </trkpt>
      <trkpt lat="43.98625" lon="5.91033">
        <ele>409</ele>
        <time>2020-10-05T09:32:26.000Z</time>
      </trkpt>
      <trkpt lat="43.98625" lon="5.91033">
        <ele>409</ele>
        <time>2020-10-05T09:32:27.000Z</time>
      </trkpt>
      <trkpt lat="43.98625" lon="5.91034">
        <ele>409</ele>
        <time>2020-10-05T09:32:28.000Z</time>
      </trkpt>
      <trkpt lat="43.98625" lon="5.91034">
        <ele>409</ele>
        <time>2020-10-05T09:32:29.000Z</time>
      </trkpt>
      <trkpt lat="43.98626" lon="5.91035">
        <ele>409</ele>
        <time>2020-10-05T09:32:30.000Z</time>
      </trkpt>
      <trkpt lat="43.98626" lon="5.91036">
        <ele>409</ele>
        <time>2020-10-05T09:32:31.000Z</time>
      </trkpt>
      <trkpt lat="43.98626" lon="5.91036">
        <ele>409</ele>
        <time>2020-10-05T09:32:32.000Z</time>
      </trkpt>
      <trkpt lat="43.98626" lon="5.91036">
        <ele>409</ele>
        <time>2020-10-05T09:32:33.000Z</time>
      </trkpt>
      <trkpt lat="43.98626" lon="5.91036">
        <ele>409</ele>
        <time>2020-10-05T09:32:34.000Z</time>
      </trkpt>
      <trkpt lat="43.98626" lon="5.91036">
        <ele>409</ele>
        <time>2020-10-05T09:32:35.000Z</time>
      </trkpt>
      <trkpt lat="43.98627" lon="5.91036">
        <ele>409</ele>
        <time>2020-10-05T09:32:36.000Z</time>
      </trkpt>
      <trkpt lat="43.98627" lon="5.91037">
        <ele>409</ele>
        <time>2020-10-05T09:32:37.000Z</time>
      </trkpt>
      <trkpt lat="43.98627" lon="5.91038">
        <ele>409</ele>
        <time>2020-10-05T09:32:38.000Z</time>
      </trkpt>
      <trkpt lat="43.98628" lon="5.91039">
        <ele>409</ele>
        <time>2020-10-05T09:32:39.000Z</time>
      </trkpt>
      <trkpt lat="43.98628" lon="5.9104">
        <ele>409</ele>
        <time>2020-10-05T09:32:40.000Z</time>
      </trkpt>
      <trkpt lat="43.98629" lon="5.91041">
        <ele>409</ele>
        <time>2020-10-05T09:32:41.000Z</time>
      </trkpt>
      <trkpt lat="43.98629" lon="5.91042">
        <ele>409</ele>
        <time>2020-10-05T09:32:42.000Z</time>
      </trkpt>
      <trkpt lat="43.9863" lon="5.91043">
        <ele>409</ele>
        <time>2020-10-05T09:32:43.000Z</time>
      </trkpt>
      <trkpt lat="43.9863" lon="5.91044">
        <ele>409</ele>
        <time>2020-10-05T09:32:44.000Z</time>
      </trkpt>
      <trkpt lat="43.98631" lon="5.91046">
        <ele>409</ele>
        <time>2020-10-05T09:32:45.000Z</time>
      </trkpt>
      <trkpt lat="43.98631" lon="5.91047">
        <ele>409</ele>
        <time>2020-10-05T09:32:46.000Z</time>
      </trkpt>
      <trkpt lat="43.98631" lon="5.91048">
        <ele>409</ele>
        <time>2020-10-05T09:32:47.000Z</time>
      </trkpt>
      <trkpt lat="43.98632" lon="5.91049">
        <ele>409</ele>
        <time>2020-10-05T09:32:48.000Z</time>
      </trkpt>
      <trkpt lat="43.98632" lon="5.9105">
        <ele>409</ele>
        <time>2020-10-05T09:32:49.000Z</time>
      </trkpt>
      <trkpt lat="43.98632" lon="5.91051">
        <ele>409</ele>
        <time>2020-10-05T09:32:50.000Z</time>
      </trkpt>
      <trkpt lat="43.98633" lon="5.91052">
        <ele>409</ele>
        <time>2020-10-05T09:32:51.000Z</time>
      </trkpt>
      <trkpt lat="43.98633" lon="5.91053">
        <ele>409</ele>
        <time>2020-10-05T09:32:52.000Z</time>
      </trkpt>
      <trkpt lat="43.98634" lon="5.91054">
        <ele>409</ele>
        <time>2020-10-05T09:32:53.000Z</time>
      </trkpt>
      <trkpt lat="43.98634" lon="5.91055">
        <ele>409</ele>
        <time>2020-10-05T09:32:54.000Z</time>
      </trkpt>
      <trkpt lat="43.98634" lon="5.91056">
        <ele>409</ele>
        <time>2020-10-05T09:32:55.000Z</time>
      </trkpt>
      <trkpt lat="43.98635" lon="5.91057">
        <ele>409</ele>
        <time>2020-10-05T09:32:56.000Z</time>
      </trkpt>
      <trkpt lat="43.98635" lon="5.91058">
        <ele>409</ele>
        <time>2020-10-05T09:32:57.000Z</time>
      </trkpt>
      <trkpt lat="43.98636" lon="5.91059">
        <ele>409</ele>
        <time>2020-10-05T09:32:58.000Z</time>
      </trkpt>
      <trkpt lat="43.98636" lon="5.9106">
        <ele>408</ele>
        <time>2020-10-05T09:32:59.000Z</time>
      </trkpt>
      <trkpt lat="43.98637" lon="5.91061">
        <ele>408</ele>
        <time>2020-10-05T09:33:00.000Z</time>
      </trkpt>
      <trkpt lat="43.98637" lon="5.91063">
        <ele>408</ele>
        <time>2020-10-05T09:33:01.000Z</time>
      </trkpt>
      <trkpt lat="43.98637" lon="5.91064">
        <ele>408</ele>
        <time>2020-10-05T09:33:02.000Z</time>
      </trkpt>
      <trkpt lat="43.98638" lon="5.91065">
        <ele>408</ele>
        <time>2020-10-05T09:33:03.000Z</time>
      </trkpt>
      <trkpt lat="43.98638" lon="5.91066">
        <ele>408</ele>
        <time>2020-10-05T09:33:04.000Z</time>
      </trkpt>
      <trkpt lat="43.98639" lon="5.91068">
        <ele>408</ele>
        <time>2020-10-05T09:33:05.000Z</time>
      </trkpt>
      <trkpt lat="43.98639" lon="5.91069">
        <ele>408</ele>
        <time>2020-10-05T09:33:06.000Z</time>
      </trkpt>
      <trkpt lat="43.98639" lon="5.9107">
        <ele>408</ele>
        <time>2020-10-05T09:33:07.000Z</time>
      </trkpt>
      <trkpt lat="43.98639" lon="5.91071">
        <ele>408</ele>
        <time>2020-10-05T09:33:08.000Z</time>
      </trkpt>
      <trkpt lat="43.98639" lon="5.91072">
        <ele>408</ele>
        <time>2020-10-05T09:33:09.000Z</time>
      </trkpt>
      <trkpt lat="43.98639" lon="5.91073">
        <ele>408</ele>
        <time>2020-10-05T09:33:10.000Z</time>
      </trkpt>
      <trkpt lat="43.98639" lon="5.91074">
        <ele>408</ele>
        <time>2020-10-05T09:33:11.000Z</time>
      </trkpt>
      <trkpt lat="43.98638" lon="5.91075">
        <ele>408</ele>
        <time>2020-10-05T09:33:12.000Z</time>
      </trkpt>
      <trkpt lat="43.98638" lon="5.91075">
        <ele>408</ele>
        <time>2020-10-05T09:33:13.000Z</time>
      </trkpt>
      <trkpt lat="43.98638" lon="5.91075">
        <ele>408</ele>
        <time>2020-10-05T09:33:14.000Z</time>
      </trkpt>
      <trkpt lat="43.98638" lon="5.91075">
        <ele>408</ele>
        <time>2020-10-05T09:33:15.000Z</time>
      </trkpt>
      <trkpt lat="43.98639" lon="5.91076">
        <ele>408</ele>
        <time>2020-10-05T09:33:16.000Z</time>
      </trkpt>
      <trkpt lat="43.98639" lon="5.91076">
        <ele>408</ele>
        <time>2020-10-05T09:33:17.000Z</time>
      </trkpt>
      <trkpt lat="43.98639" lon="5.91077">
        <ele>408</ele>
        <time>2020-10-05T09:33:18.000Z</time>
      </trkpt>
      <trkpt lat="43.98639" lon="5.91077">
        <ele>408</ele>
        <time>2020-10-05T09:33:19.000Z</time>
      </trkpt>
      <trkpt lat="43.98639" lon="5.91078">
        <ele>408</ele>
        <time>2020-10-05T09:33:20.000Z</time>
      </trkpt>
      <trkpt lat="43.98638" lon="5.91078">
        <ele>408</ele>
        <time>2020-10-05T09:33:21.000Z</time>
      </trkpt>
      <trkpt lat="43.98639" lon="5.91078">
        <ele>408</ele>
        <time>2020-10-05T09:33:22.000Z</time>
      </trkpt>
      <trkpt lat="43.98639" lon="5.91078">
        <ele>408</ele>
        <time>2020-10-05T09:33:23.000Z</time>
      </trkpt>
      <trkpt lat="43.98639" lon="5.91078">
        <ele>408</ele>
        <time>2020-10-05T09:33:24.000Z</time>
      </trkpt>
      <trkpt lat="43.98638" lon="5.91078">
        <ele>408</ele>
        <time>2020-10-05T09:33:25.000Z</time>
      </trkpt>
      <trkpt lat="43.98638" lon="5.91078">
        <ele>408</ele>
        <time>2020-10-05T09:33:26.000Z</time>
      </trkpt>
      <trkpt lat="43.98639" lon="5.91077">
        <ele>408</ele>
        <time>2020-10-05T09:33:27.000Z</time>
      </trkpt>
      <trkpt lat="43.98639" lon="5.91077">
        <ele>408</ele>
        <time>2020-10-05T09:33:28.000Z</time>
      </trkpt>
      <trkpt lat="43.9864" lon="5.91078">
        <ele>409</ele>
        <time>2020-10-05T09:33:29.000Z</time>
      </trkpt>
      <trkpt lat="43.98641" lon="5.91079">
        <ele>409</ele>
        <time>2020-10-05T09:33:30.000Z</time>
      </trkpt>
      <trkpt lat="43.98642" lon="5.91081">
        <ele>409</ele>
        <time>2020-10-05T09:33:31.000Z</time>
      </trkpt>
      <trkpt lat="43.98643" lon="5.91082">
        <ele>409</ele>
        <time>2020-10-05T09:33:32.000Z</time>
      </trkpt>
      <trkpt lat="43.98644" lon="5.91083">
        <ele>409</ele>
        <time>2020-10-05T09:33:33.000Z</time>
      </trkpt>
      <trkpt lat="43.98644" lon="5.91084">
        <ele>409</ele>
        <time>2020-10-05T09:33:34.000Z</time>
      </trkpt>
      <trkpt lat="43.98645" lon="5.91085">
        <ele>409</ele>
        <time>2020-10-05T09:33:35.000Z</time>
      </trkpt>
      <trkpt lat="43.98646" lon="5.91086">
        <ele>409</ele>
        <time>2020-10-05T09:33:36.000Z</time>
      </trkpt>
      <trkpt lat="43.98647" lon="5.91087">
        <ele>409</ele>
        <time>2020-10-05T09:33:37.000Z</time>
      </trkpt>
      <trkpt lat="43.98647" lon="5.91089">
        <ele>409</ele>
        <time>2020-10-05T09:33:38.000Z</time>
      </trkpt>
      <trkpt lat="43.98647" lon="5.9109">
        <ele>409</ele>
        <time>2020-10-05T09:33:39.000Z</time>
      </trkpt>
      <trkpt lat="43.98647" lon="5.9109">
        <ele>409</ele>
        <time>2020-10-05T09:33:40.000Z</time>
      </trkpt>
      <trkpt lat="43.98646" lon="5.9109">
        <ele>409</ele>
        <time>2020-10-05T09:33:41.000Z</time>
      </trkpt>
      <trkpt lat="43.98645" lon="5.9109">
        <ele>409</ele>
        <time>2020-10-05T09:33:42.000Z</time>
      </trkpt>
      <trkpt lat="43.98644" lon="5.91089">
        <ele>408</ele>
        <time>2020-10-05T09:33:43.000Z</time>
      </trkpt>
      <trkpt lat="43.98643" lon="5.91088">
        <ele>408</ele>
        <time>2020-10-05T09:33:44.000Z</time>
      </trkpt>
      <trkpt lat="43.98642" lon="5.91088">
        <ele>408</ele>
        <time>2020-10-05T09:33:45.000Z</time>
      </trkpt>
      <trkpt lat="43.98642" lon="5.91088">
        <ele>408</ele>
        <time>2020-10-05T09:33:46.000Z</time>
      </trkpt>
      <trkpt lat="43.98641" lon="5.91087">
        <ele>408</ele>
        <time>2020-10-05T09:33:47.000Z</time>
      </trkpt>
      <trkpt lat="43.9864" lon="5.91086">
        <ele>408</ele>
        <time>2020-10-05T09:33:48.000Z</time>
      </trkpt>
      <trkpt lat="43.98639" lon="5.91085">
        <ele>407</ele>
        <time>2020-10-05T09:33:49.000Z</time>
      </trkpt>
      <trkpt lat="43.98638" lon="5.91084">
        <ele>407</ele>
        <time>2020-10-05T09:33:50.000Z</time>
      </trkpt>
      <trkpt lat="43.98638" lon="5.91084">
        <ele>407</ele>
        <time>2020-10-05T09:33:51.000Z</time>
      </trkpt>
      <trkpt lat="43.98637" lon="5.91083">
        <ele>407</ele>
        <time>2020-10-05T09:33:52.000Z</time>
      </trkpt>
      <trkpt lat="43.98637" lon="5.91083">
        <ele>407</ele>
        <time>2020-10-05T09:33:53.000Z</time>
      </trkpt>
      <trkpt lat="43.98637" lon="5.91082">
        <ele>407</ele>
        <time>2020-10-05T09:33:54.000Z</time>
      </trkpt>
      <trkpt lat="43.98636" lon="5.91082">
        <ele>407</ele>
        <time>2020-10-05T09:33:55.000Z</time>
      </trkpt>
      <trkpt lat="43.98636" lon="5.91081">
        <ele>407</ele>
        <time>2020-10-05T09:33:56.000Z</time>
      </trkpt>
      <trkpt lat="43.98635" lon="5.91081">
        <ele>407</ele>
        <time>2020-10-05T09:33:57.000Z</time>
      </trkpt>
      <trkpt lat="43.98635" lon="5.9108">
        <ele>407</ele>
        <time>2020-10-05T09:33:58.000Z</time>
      </trkpt>
      <trkpt lat="43.98634" lon="5.9108">
        <ele>407</ele>
        <time>2020-10-05T09:33:59.000Z</time>
      </trkpt>
      <trkpt lat="43.98634" lon="5.91079">
        <ele>407</ele>
        <time>2020-10-05T09:34:00.000Z</time>
      </trkpt>
      <trkpt lat="43.98634" lon="5.91079">
        <ele>406</ele>
        <time>2020-10-05T09:34:01.000Z</time>
      </trkpt>
      <trkpt lat="43.98633" lon="5.91078">
        <ele>406</ele>
        <time>2020-10-05T09:34:02.000Z</time>
      </trkpt>
      <trkpt lat="43.98633" lon="5.91078">
        <ele>406</ele>
        <time>2020-10-05T09:34:03.000Z</time>
      </trkpt>
      <trkpt lat="43.98633" lon="5.91078">
        <ele>406</ele>
        <time>2020-10-05T09:34:04.000Z</time>
      </trkpt>
      <trkpt lat="43.98632" lon="5.91078">
        <ele>406</ele>
        <time>2020-10-05T09:34:05.000Z</time>
      </trkpt>
      <trkpt lat="43.98632" lon="5.91078">
        <ele>406</ele>
        <time>2020-10-05T09:34:06.000Z</time>
      </trkpt>
      <trkpt lat="43.98631" lon="5.91077">
        <ele>406</ele>
        <time>2020-10-05T09:34:07.000Z</time>
      </trkpt>
      <trkpt lat="43.98631" lon="5.91077">
        <ele>406</ele>
        <time>2020-10-05T09:34:08.000Z</time>
      </trkpt>
      <trkpt lat="43.98631" lon="5.91076">
        <ele>406</ele>
        <time>2020-10-05T09:34:09.000Z</time>
      </trkpt>
      <trkpt lat="43.98631" lon="5.91076">
        <ele>406</ele>
        <time>2020-10-05T09:34:10.000Z</time>
      </trkpt>
      <trkpt lat="43.98631" lon="5.91076">
        <ele>406</ele>
        <time>2020-10-05T09:34:11.000Z</time>
      </trkpt>
      <trkpt lat="43.98631" lon="5.91076">
        <ele>406</ele>
        <time>2020-10-05T09:34:12.000Z</time>
      </trkpt>
      <trkpt lat="43.98631" lon="5.91076">
        <ele>406</ele>
        <time>2020-10-05T09:34:13.000Z</time>
      </trkpt>
      <trkpt lat="43.98631" lon="5.91075">
        <ele>406</ele>
        <time>2020-10-05T09:34:14.000Z</time>
      </trkpt>
      <trkpt lat="43.98631" lon="5.91075">
        <ele>406</ele>
        <time>2020-10-05T09:34:15.000Z</time>
      </trkpt>
      <trkpt lat="43.98631" lon="5.91075">
        <ele>406</ele>
        <time>2020-10-05T09:34:16.000Z</time>
      </trkpt>
      <trkpt lat="43.9863" lon="5.91075">
        <ele>406</ele>
        <time>2020-10-05T09:34:17.000Z</time>
      </trkpt>
      <trkpt lat="43.98631" lon="5.91075">
        <ele>406</ele>
        <time>2020-10-05T09:34:18.000Z</time>
      </trkpt>
      <trkpt lat="43.98631" lon="5.91075">
        <ele>406</ele>
        <time>2020-10-05T09:34:19.000Z</time>
      </trkpt>
      <trkpt lat="43.98631" lon="5.91076">
        <ele>406</ele>
        <time>2020-10-05T09:34:20.000Z</time>
      </trkpt>
      <trkpt lat="43.98631" lon="5.91076">
        <ele>406</ele>
        <time>2020-10-05T09:34:21.000Z</time>
      </trkpt>
      <trkpt lat="43.98631" lon="5.91076">
        <ele>406</ele>
        <time>2020-10-05T09:34:22.000Z</time>
      </trkpt>
      <trkpt lat="43.98632" lon="5.91077">
        <ele>406</ele>
        <time>2020-10-05T09:34:23.000Z</time>
      </trkpt>
      <trkpt lat="43.98632" lon="5.91077">
        <ele>406</ele>
        <time>2020-10-05T09:34:24.000Z</time>
      </trkpt>
      <trkpt lat="43.98633" lon="5.91078">
        <ele>406</ele>
        <time>2020-10-05T09:34:25.000Z</time>
      </trkpt>
      <trkpt lat="43.98633" lon="5.91079">
        <ele>406</ele>
        <time>2020-10-05T09:34:26.000Z</time>
      </trkpt>
      <trkpt lat="43.98634" lon="5.9108">
        <ele>406</ele>
        <time>2020-10-05T09:34:27.000Z</time>
      </trkpt>
      <trkpt lat="43.98635" lon="5.91081">
        <ele>406</ele>
        <time>2020-10-05T09:34:28.000Z</time>
      </trkpt>
      <trkpt lat="43.98635" lon="5.91082">
        <ele>406</ele>
        <time>2020-10-05T09:34:29.000Z</time>
      </trkpt>
      <trkpt lat="43.98636" lon="5.91083">
        <ele>406</ele>
        <time>2020-10-05T09:34:30.000Z</time>
      </trkpt>
      <trkpt lat="43.98637" lon="5.91084">
        <ele>406</ele>
        <time>2020-10-05T09:34:31.000Z</time>
      </trkpt>
      <trkpt lat="43.98638" lon="5.91085">
        <ele>406</ele>
        <time>2020-10-05T09:34:32.000Z</time>
      </trkpt>
      <trkpt lat="43.98639" lon="5.91086">
        <ele>406</ele>
        <time>2020-10-05T09:34:33.000Z</time>
      </trkpt>
      <trkpt lat="43.9864" lon="5.91087">
        <ele>406</ele>
        <time>2020-10-05T09:34:34.000Z</time>
      </trkpt>
      <trkpt lat="43.9864" lon="5.91087">
        <ele>406</ele>
        <time>2020-10-05T09:34:35.000Z</time>
      </trkpt>
      <trkpt lat="43.98641" lon="5.91088">
        <ele>406</ele>
        <time>2020-10-05T09:34:36.000Z</time>
      </trkpt>
      <trkpt lat="43.98642" lon="5.91088">
        <ele>406</ele>
        <time>2020-10-05T09:34:37.000Z</time>
      </trkpt>
      <trkpt lat="43.98643" lon="5.91089">
        <ele>407</ele>
        <time>2020-10-05T09:34:38.000Z</time>
      </trkpt>
      <trkpt lat="43.98644" lon="5.91089">
        <ele>407</ele>
        <time>2020-10-05T09:34:39.000Z</time>
      </trkpt>
      <trkpt lat="43.98645" lon="5.91089">
        <ele>407</ele>
        <time>2020-10-05T09:34:40.000Z</time>
      </trkpt>
      <trkpt lat="43.98646" lon="5.9109">
        <ele>407</ele>
        <time>2020-10-05T09:34:41.000Z</time>
      </trkpt>
      <trkpt lat="43.98647" lon="5.9109">
        <ele>407</ele>
        <time>2020-10-05T09:34:42.000Z</time>
      </trkpt>
      <trkpt lat="43.98648" lon="5.9109">
        <ele>408</ele>
        <time>2020-10-05T09:34:43.000Z</time>
      </trkpt>
      <trkpt lat="43.98649" lon="5.91091">
        <ele>408</ele>
        <time>2020-10-05T09:34:44.000Z</time>
      </trkpt>
      <trkpt lat="43.9865" lon="5.91091">
        <ele>408</ele>
        <time>2020-10-05T09:34:45.000Z</time>
      </trkpt>
      <trkpt lat="43.9865" lon="5.91091">
        <ele>408</ele>
        <time>2020-10-05T09:34:46.000Z</time>
      </trkpt>
      <trkpt lat="43.9865" lon="5.91091">
        <ele>408</ele>
        <time>2020-10-05T09:34:47.000Z</time>
      </trkpt>
      <trkpt lat="43.9865" lon="5.91091">
        <ele>408</ele>
        <time>2020-10-05T09:34:48.000Z</time>
      </trkpt>
      <trkpt lat="43.9865" lon="5.91091">
        <ele>408</ele>
        <time>2020-10-05T09:34:49.000Z</time>
      </trkpt>
      <trkpt lat="43.98651" lon="5.91091">
        <ele>408</ele>
        <time>2020-10-05T09:34:50.000Z</time>
      </trkpt>
      <trkpt lat="43.98651" lon="5.91091">
        <ele>408</ele>
        <time>2020-10-05T09:34:51.000Z</time>
      </trkpt>
      <trkpt lat="43.98651" lon="5.91091">
        <ele>408</ele>
        <time>2020-10-05T09:34:52.000Z</time>
      </trkpt>
      <trkpt lat="43.98651" lon="5.91091">
        <ele>408</ele>
        <time>2020-10-05T09:34:53.000Z</time>
      </trkpt>
      <trkpt lat="43.98651" lon="5.91091">
        <ele>408</ele>
        <time>2020-10-05T09:34:54.000Z</time>
      </trkpt>
      <trkpt lat="43.98651" lon="5.91091">
        <ele>407</ele>
        <time>2020-10-05T09:34:55.000Z</time>
      </trkpt>
      <trkpt lat="43.98651" lon="5.9109">
        <ele>407</ele>
        <time>2020-10-05T09:34:56.000Z</time>
      </trkpt>
      <trkpt lat="43.98652" lon="5.9109">
        <ele>407</ele>
        <time>2020-10-05T09:34:57.000Z</time>
      </trkpt>
      <trkpt lat="43.98652" lon="5.91091">
        <ele>408</ele>
        <time>2020-10-05T09:34:58.000Z</time>
      </trkpt>
      <trkpt lat="43.98653" lon="5.91091">
        <ele>408</ele>
        <time>2020-10-05T09:34:59.000Z</time>
      </trkpt>
      <trkpt lat="43.98653" lon="5.91091">
        <ele>408</ele>
        <time>2020-10-05T09:35:00.000Z</time>
      </trkpt>
      <trkpt lat="43.98653" lon="5.91091">
        <ele>408</ele>
        <time>2020-10-05T09:35:01.000Z</time>
      </trkpt>
      <trkpt lat="43.98653" lon="5.91091">
        <ele>408</ele>
        <time>2020-10-05T09:35:02.000Z</time>
      </trkpt>
      <trkpt lat="43.98653" lon="5.91091">
        <ele>408</ele>
        <time>2020-10-05T09:35:03.000Z</time>
      </trkpt>
      <trkpt lat="43.98653" lon="5.91091">
        <ele>408</ele>
        <time>2020-10-05T09:35:04.000Z</time>
      </trkpt>
      <trkpt lat="43.98653" lon="5.91091">
        <ele>408</ele>
        <time>2020-10-05T09:35:05.000Z</time>
      </trkpt>
      <trkpt lat="43.98653" lon="5.91091">
        <ele>408</ele>
        <time>2020-10-05T09:35:06.000Z</time>
      </trkpt>
      <trkpt lat="43.98653" lon="5.91091">
        <ele>408</ele>
        <time>2020-10-05T09:35:07.000Z</time>
      </trkpt>
      <trkpt lat="43.98654" lon="5.91091">
        <ele>408</ele>
        <time>2020-10-05T09:35:08.000Z</time>
      </trkpt>
      <trkpt lat="43.98654" lon="5.91092">
        <ele>408</ele>
        <time>2020-10-05T09:35:09.000Z</time>
      </trkpt>
      <trkpt lat="43.98655" lon="5.91093">
        <ele>408</ele>
        <time>2020-10-05T09:35:10.000Z</time>
      </trkpt>
      <trkpt lat="43.98656" lon="5.91094">
        <ele>408</ele>
        <time>2020-10-05T09:35:11.000Z</time>
      </trkpt>
      <trkpt lat="43.98656" lon="5.91095">
        <ele>408</ele>
        <time>2020-10-05T09:35:12.000Z</time>
      </trkpt>
      <trkpt lat="43.98657" lon="5.91095">
        <ele>408</ele>
        <time>2020-10-05T09:35:13.000Z</time>
      </trkpt>
      <trkpt lat="43.98658" lon="5.91096">
        <ele>408</ele>
        <time>2020-10-05T09:35:14.000Z</time>
      </trkpt>
      <trkpt lat="43.98658" lon="5.91096">
        <ele>408</ele>
        <time>2020-10-05T09:35:15.000Z</time>
      </trkpt>
      <trkpt lat="43.98659" lon="5.91097">
        <ele>408</ele>
        <time>2020-10-05T09:35:16.000Z</time>
      </trkpt>
      <trkpt lat="43.9866" lon="5.91097">
        <ele>408</ele>
        <time>2020-10-05T09:35:17.000Z</time>
      </trkpt>
      <trkpt lat="43.98661" lon="5.91098">
        <ele>408</ele>
        <time>2020-10-05T09:35:18.000Z</time>
      </trkpt>
      <trkpt lat="43.98661" lon="5.91098">
        <ele>408</ele>
        <time>2020-10-05T09:35:19.000Z</time>
      </trkpt>
      <trkpt lat="43.98662" lon="5.91099">
        <ele>408</ele>
        <time>2020-10-05T09:35:20.000Z</time>
      </trkpt>
      <trkpt lat="43.98663" lon="5.91099">
        <ele>408</ele>
        <time>2020-10-05T09:35:21.000Z</time>
      </trkpt>
      <trkpt lat="43.98664" lon="5.911">
        <ele>408</ele>
        <time>2020-10-05T09:35:22.000Z</time>
      </trkpt>
      <trkpt lat="43.98665" lon="5.911">
        <ele>408</ele>
        <time>2020-10-05T09:35:23.000Z</time>
      </trkpt>
      <trkpt lat="43.98666" lon="5.91101">
        <ele>408</ele>
        <time>2020-10-05T09:35:24.000Z</time>
      </trkpt>
      <trkpt lat="43.98667" lon="5.91102">
        <ele>408</ele>
        <time>2020-10-05T09:35:25.000Z</time>
      </trkpt>
      <trkpt lat="43.98668" lon="5.91102">
        <ele>409</ele>
        <time>2020-10-05T09:35:26.000Z</time>
      </trkpt>
      <trkpt lat="43.98669" lon="5.91103">
        <ele>409</ele>
        <time>2020-10-05T09:35:27.000Z</time>
      </trkpt>
      <trkpt lat="43.9867" lon="5.91103">
        <ele>409</ele>
        <time>2020-10-05T09:35:28.000Z</time>
      </trkpt>
      <trkpt lat="43.98672" lon="5.91104">
        <ele>409</ele>
        <time>2020-10-05T09:35:29.000Z</time>
      </trkpt>
      <trkpt lat="43.98672" lon="5.91104">
        <ele>409</ele>
        <time>2020-10-05T09:35:30.000Z</time>
      </trkpt>
      <trkpt lat="43.98672" lon="5.91104">
        <ele>409</ele>
        <time>2020-10-05T09:35:31.000Z</time>
      </trkpt>
      <trkpt lat="43.98672" lon="5.91104">
        <ele>409</ele>
        <time>2020-10-05T09:35:32.000Z</time>
      </trkpt>
      <trkpt lat="43.98672" lon="5.91104">
        <ele>409</ele>
        <time>2020-10-05T09:35:33.000Z</time>
      </trkpt>
      <trkpt lat="43.98672" lon="5.91105">
        <ele>409</ele>
        <time>2020-10-05T09:35:34.000Z</time>
      </trkpt>
      <trkpt lat="43.98672" lon="5.91105">
        <ele>409</ele>
        <time>2020-10-05T09:35:35.000Z</time>
      </trkpt>
      <trkpt lat="43.98672" lon="5.91105">
        <ele>409</ele>
        <time>2020-10-05T09:35:36.000Z</time>
      </trkpt>
      <trkpt lat="43.98673" lon="5.91105">
        <ele>409</ele>
        <time>2020-10-05T09:35:37.000Z</time>
      </trkpt>
      <trkpt lat="43.98673" lon="5.91105">
        <ele>409</ele>
        <time>2020-10-05T09:35:38.000Z</time>
      </trkpt>
      <trkpt lat="43.98673" lon="5.91105">
        <ele>409</ele>
        <time>2020-10-05T09:35:39.000Z</time>
      </trkpt>
      <trkpt lat="43.98673" lon="5.91105">
        <ele>409</ele>
        <time>2020-10-05T09:35:40.000Z</time>
      </trkpt>
      <trkpt lat="43.98674" lon="5.91105">
        <ele>409</ele>
        <time>2020-10-05T09:35:41.000Z</time>
      </trkpt>
      <trkpt lat="43.98674" lon="5.91106">
        <ele>409</ele>
        <time>2020-10-05T09:35:42.000Z</time>
      </trkpt>
      <trkpt lat="43.98674" lon="5.91106">
        <ele>409</ele>
        <time>2020-10-05T09:35:43.000Z</time>
      </trkpt>
      <trkpt lat="43.98674" lon="5.91106">
        <ele>409</ele>
        <time>2020-10-05T09:35:44.000Z</time>
      </trkpt>
      <trkpt lat="43.98674" lon="5.91106">
        <ele>409</ele>
        <time>2020-10-05T09:35:45.000Z</time>
      </trkpt>
      <trkpt lat="43.98674" lon="5.91106">
        <ele>409</ele>
        <time>2020-10-05T09:35:46.000Z</time>
      </trkpt>
      <trkpt lat="43.98674" lon="5.91106">
        <ele>409</ele>
        <time>2020-10-05T09:35:47.000Z</time>
      </trkpt>
      <trkpt lat="43.98674" lon="5.91105">
        <ele>409</ele>
        <time>2020-10-05T09:35:48.000Z</time>
      </trkpt>
      <trkpt lat="43.98674" lon="5.91106">
        <ele>409</ele>
        <time>2020-10-05T09:35:49.000Z</time>
      </trkpt>
      <trkpt lat="43.98674" lon="5.91106">
        <ele>409</ele>
        <time>2020-10-05T09:35:50.000Z</time>
      </trkpt>
      <trkpt lat="43.98675" lon="5.91106">
        <ele>409</ele>
        <time>2020-10-05T09:35:51.000Z</time>
      </trkpt>
      <trkpt lat="43.98676" lon="5.91107">
        <ele>409</ele>
        <time>2020-10-05T09:35:52.000Z</time>
      </trkpt>
      <trkpt lat="43.98677" lon="5.91107">
        <ele>409</ele>
        <time>2020-10-05T09:35:53.000Z</time>
      </trkpt>
      <trkpt lat="43.98678" lon="5.91108">
        <ele>410</ele>
        <time>2020-10-05T09:35:54.000Z</time>
      </trkpt>
      <trkpt lat="43.98679" lon="5.91108">
        <ele>410</ele>
        <time>2020-10-05T09:35:55.000Z</time>
      </trkpt>
      <trkpt lat="43.9868" lon="5.91108">
        <ele>410</ele>
        <time>2020-10-05T09:35:56.000Z</time>
      </trkpt>
      <trkpt lat="43.98681" lon="5.91109">
        <ele>410</ele>
        <time>2020-10-05T09:35:57.000Z</time>
      </trkpt>
      <trkpt lat="43.98682" lon="5.91109">
        <ele>410</ele>
        <time>2020-10-05T09:35:58.000Z</time>
      </trkpt>
      <trkpt lat="43.98683" lon="5.91109">
        <ele>410</ele>
        <time>2020-10-05T09:35:59.000Z</time>
      </trkpt>
      <trkpt lat="43.98684" lon="5.91109">
        <ele>410</ele>
        <time>2020-10-05T09:36:00.000Z</time>
      </trkpt>
      <trkpt lat="43.98685" lon="5.9111">
        <ele>410</ele>
        <time>2020-10-05T09:36:01.000Z</time>
      </trkpt>
      <trkpt lat="43.98686" lon="5.9111">
        <ele>410</ele>
        <time>2020-10-05T09:36:02.000Z</time>
      </trkpt>
      <trkpt lat="43.98687" lon="5.9111">
        <ele>410</ele>
        <time>2020-10-05T09:36:03.000Z</time>
      </trkpt>
      <trkpt lat="43.98689" lon="5.9111">
        <ele>410</ele>
        <time>2020-10-05T09:36:04.000Z</time>
      </trkpt>
      <trkpt lat="43.9869" lon="5.91111">
        <ele>410</ele>
        <time>2020-10-05T09:36:05.000Z</time>
      </trkpt>
      <trkpt lat="43.98691" lon="5.91111">
        <ele>410</ele>
        <time>2020-10-05T09:36:06.000Z</time>
      </trkpt>
      <trkpt lat="43.98692" lon="5.91111">
        <ele>410</ele>
        <time>2020-10-05T09:36:07.000Z</time>
      </trkpt>
      <trkpt lat="43.98693" lon="5.91111">
        <ele>409</ele>
        <time>2020-10-05T09:36:08.000Z</time>
      </trkpt>
      <trkpt lat="43.98694" lon="5.91112">
        <ele>409</ele>
        <time>2020-10-05T09:36:09.000Z</time>
      </trkpt>
      <trkpt lat="43.98695" lon="5.91112">
        <ele>409</ele>
        <time>2020-10-05T09:36:10.000Z</time>
      </trkpt>
      <trkpt lat="43.98696" lon="5.91112">
        <ele>409</ele>
        <time>2020-10-05T09:36:11.000Z</time>
      </trkpt>
      <trkpt lat="43.98697" lon="5.91113">
        <ele>409</ele>
        <time>2020-10-05T09:36:12.000Z</time>
      </trkpt>
      <trkpt lat="43.98698" lon="5.91113">
        <ele>409</ele>
        <time>2020-10-05T09:36:13.000Z</time>
      </trkpt>
      <trkpt lat="43.98699" lon="5.91113">
        <ele>409</ele>
        <time>2020-10-05T09:36:14.000Z</time>
      </trkpt>
      <trkpt lat="43.987" lon="5.91114">
        <ele>409</ele>
        <time>2020-10-05T09:36:15.000Z</time>
      </trkpt>
      <trkpt lat="43.98701" lon="5.91114">
        <ele>409</ele>
        <time>2020-10-05T09:36:16.000Z</time>
      </trkpt>
      <trkpt lat="43.98702" lon="5.91114">
        <ele>409</ele>
        <time>2020-10-05T09:36:17.000Z</time>
      </trkpt>
      <trkpt lat="43.98704" lon="5.91114">
        <ele>409</ele>
        <time>2020-10-05T09:36:18.000Z</time>
      </trkpt>
      <trkpt lat="43.98705" lon="5.91114">
        <ele>409</ele>
        <time>2020-10-05T09:36:19.000Z</time>
      </trkpt>
      <trkpt lat="43.98706" lon="5.91114">
        <ele>409</ele>
        <time>2020-10-05T09:36:20.000Z</time>
      </trkpt>
      <trkpt lat="43.98707" lon="5.91115">
        <ele>409</ele>
        <time>2020-10-05T09:36:21.000Z</time>
      </trkpt>
      <trkpt lat="43.98708" lon="5.91115">
        <ele>409</ele>
        <time>2020-10-05T09:36:22.000Z</time>
      </trkpt>
      <trkpt lat="43.98709" lon="5.91116">
        <ele>409</ele>
        <time>2020-10-05T09:36:23.000Z</time>
      </trkpt>
      <trkpt lat="43.98711" lon="5.91116">
        <ele>409</ele>
        <time>2020-10-05T09:36:24.000Z</time>
      </trkpt>
      <trkpt lat="43.98712" lon="5.91116">
        <ele>409</ele>
        <time>2020-10-05T09:36:25.000Z</time>
      </trkpt>
      <trkpt lat="43.98713" lon="5.91116">
        <ele>409</ele>
        <time>2020-10-05T09:36:26.000Z</time>
      </trkpt>
      <trkpt lat="43.98714" lon="5.91116">
        <ele>409</ele>
        <time>2020-10-05T09:36:27.000Z</time>
      </trkpt>
      <trkpt lat="43.98715" lon="5.91116">
        <ele>409</ele>
        <time>2020-10-05T09:36:28.000Z</time>
      </trkpt>
      <trkpt lat="43.98717" lon="5.91116">
        <ele>409</ele>
        <time>2020-10-05T09:36:29.000Z</time>
      </trkpt>
      <trkpt lat="43.98718" lon="5.91116">
        <ele>409</ele>
        <time>2020-10-05T09:36:30.000Z</time>
      </trkpt>
      <trkpt lat="43.98719" lon="5.91116">
        <ele>409</ele>
        <time>2020-10-05T09:36:31.000Z</time>
      </trkpt>
      <trkpt lat="43.9872" lon="5.91115">
        <ele>409</ele>
        <time>2020-10-05T09:36:32.000Z</time>
      </trkpt>
      <trkpt lat="43.98721" lon="5.91115">
        <ele>409</ele>
        <time>2020-10-05T09:36:33.000Z</time>
      </trkpt>
      <trkpt lat="43.98722" lon="5.91115">
        <ele>410</ele>
        <time>2020-10-05T09:36:34.000Z</time>
      </trkpt>
      <trkpt lat="43.98723" lon="5.91115">
        <ele>410</ele>
        <time>2020-10-05T09:36:35.000Z</time>
      </trkpt>
      <trkpt lat="43.98725" lon="5.91114">
        <ele>410</ele>
        <time>2020-10-05T09:36:36.000Z</time>
      </trkpt>
      <trkpt lat="43.98726" lon="5.91114">
        <ele>410</ele>
        <time>2020-10-05T09:36:37.000Z</time>
      </trkpt>
      <trkpt lat="43.98727" lon="5.91113">
        <ele>410</ele>
        <time>2020-10-05T09:36:38.000Z</time>
      </trkpt>
      <trkpt lat="43.98728" lon="5.91113">
        <ele>410</ele>
        <time>2020-10-05T09:36:39.000Z</time>
      </trkpt>
      <trkpt lat="43.98729" lon="5.91112">
        <ele>410</ele>
        <time>2020-10-05T09:36:40.000Z</time>
      </trkpt>
      <trkpt lat="43.98731" lon="5.91112">
        <ele>409</ele>
        <time>2020-10-05T09:36:41.000Z</time>
      </trkpt>
      <trkpt lat="43.98732" lon="5.91112">
        <ele>409</ele>
        <time>2020-10-05T09:36:42.000Z</time>
      </trkpt>
      <trkpt lat="43.98733" lon="5.91111">
        <ele>409</ele>
        <time>2020-10-05T09:36:43.000Z</time>
      </trkpt>
      <trkpt lat="43.98734" lon="5.91111">
        <ele>410</ele>
        <time>2020-10-05T09:36:44.000Z</time>
      </trkpt>
      <trkpt lat="43.98735" lon="5.91111">
        <ele>410</ele>
        <time>2020-10-05T09:36:45.000Z</time>
      </trkpt>
      <trkpt lat="43.98736" lon="5.9111">
        <ele>409</ele>
        <time>2020-10-05T09:36:46.000Z</time>
      </trkpt>
      <trkpt lat="43.98737" lon="5.9111">
        <ele>409</ele>
        <time>2020-10-05T09:36:47.000Z</time>
      </trkpt>
      <trkpt lat="43.98738" lon="5.91109">
        <ele>409</ele>
        <time>2020-10-05T09:36:48.000Z</time>
      </trkpt>
      <trkpt lat="43.98739" lon="5.91109">
        <ele>409</ele>
        <time>2020-10-05T09:36:49.000Z</time>
      </trkpt>
      <trkpt lat="43.9874" lon="5.91108">
        <ele>409</ele>
        <time>2020-10-05T09:36:50.000Z</time>
      </trkpt>
      <trkpt lat="43.9874" lon="5.91108">
        <ele>409</ele>
        <time>2020-10-05T09:36:51.000Z</time>
      </trkpt>
      <trkpt lat="43.98742" lon="5.91107">
        <ele>409</ele>
        <time>2020-10-05T09:36:52.000Z</time>
      </trkpt>
      <trkpt lat="43.98743" lon="5.91107">
        <ele>409</ele>
        <time>2020-10-05T09:36:53.000Z</time>
      </trkpt>
      <trkpt lat="43.98744" lon="5.91106">
        <ele>409</ele>
        <time>2020-10-05T09:36:54.000Z</time>
      </trkpt>
      <trkpt lat="43.98745" lon="5.91106">
        <ele>409</ele>
        <time>2020-10-05T09:36:55.000Z</time>
      </trkpt>
      <trkpt lat="43.98746" lon="5.91105">
        <ele>409</ele>
        <time>2020-10-05T09:36:56.000Z</time>
      </trkpt>
      <trkpt lat="43.98747" lon="5.91105">
        <ele>410</ele>
        <time>2020-10-05T09:36:57.000Z</time>
      </trkpt>
      <trkpt lat="43.98748" lon="5.91104">
        <ele>410</ele>
        <time>2020-10-05T09:36:58.000Z</time>
      </trkpt>
      <trkpt lat="43.9875" lon="5.91104">
        <ele>410</ele>
        <time>2020-10-05T09:36:59.000Z</time>
      </trkpt>
      <trkpt lat="43.98751" lon="5.91103">
        <ele>410</ele>
        <time>2020-10-05T09:37:00.000Z</time>
      </trkpt>
      <trkpt lat="43.98752" lon="5.91103">
        <ele>410</ele>
        <time>2020-10-05T09:37:01.000Z</time>
      </trkpt>
      <trkpt lat="43.98753" lon="5.91103">
        <ele>410</ele>
        <time>2020-10-05T09:37:02.000Z</time>
      </trkpt>
      <trkpt lat="43.98754" lon="5.91102">
        <ele>410</ele>
        <time>2020-10-05T09:37:03.000Z</time>
      </trkpt>
      <trkpt lat="43.98755" lon="5.91102">
        <ele>410</ele>
        <time>2020-10-05T09:37:04.000Z</time>
      </trkpt>
      <trkpt lat="43.98756" lon="5.91101">
        <ele>410</ele>
        <time>2020-10-05T09:37:05.000Z</time>
      </trkpt>
      <trkpt lat="43.98758" lon="5.91101">
        <ele>410</ele>
        <time>2020-10-05T09:37:06.000Z</time>
      </trkpt>
      <trkpt lat="43.98759" lon="5.911">
        <ele>410</ele>
        <time>2020-10-05T09:37:07.000Z</time>
      </trkpt>
      <trkpt lat="43.9876" lon="5.911">
        <ele>410</ele>
        <time>2020-10-05T09:37:08.000Z</time>
      </trkpt>
      <trkpt lat="43.98761" lon="5.911">
        <ele>410</ele>
        <time>2020-10-05T09:37:09.000Z</time>
      </trkpt>
      <trkpt lat="43.98762" lon="5.911">
        <ele>410</ele>
        <time>2020-10-05T09:37:10.000Z</time>
      </trkpt>
      <trkpt lat="43.98764" lon="5.911">
        <ele>410</ele>
        <time>2020-10-05T09:37:11.000Z</time>
      </trkpt>
      <trkpt lat="43.98765" lon="5.911">
        <ele>410</ele>
        <time>2020-10-05T09:37:12.000Z</time>
      </trkpt>
      <trkpt lat="43.98766" lon="5.911">
        <ele>410</ele>
        <time>2020-10-05T09:37:13.000Z</time>
      </trkpt>
      <trkpt lat="43.98767" lon="5.911">
        <ele>410</ele>
        <time>2020-10-05T09:37:14.000Z</time>
      </trkpt>
      <trkpt lat="43.98768" lon="5.911">
        <ele>410</ele>
        <time>2020-10-05T09:37:15.000Z</time>
      </trkpt>
      <trkpt lat="43.98769" lon="5.91101">
        <ele>409</ele>
        <time>2020-10-05T09:37:16.000Z</time>
      </trkpt>
      <trkpt lat="43.98771" lon="5.91101">
        <ele>409</ele>
        <time>2020-10-05T09:37:17.000Z</time>
      </trkpt>
      <trkpt lat="43.98772" lon="5.91101">
        <ele>409</ele>
        <time>2020-10-05T09:37:18.000Z</time>
      </trkpt>
      <trkpt lat="43.98773" lon="5.91101">
        <ele>409</ele>
        <time>2020-10-05T09:37:19.000Z</time>
      </trkpt>
      <trkpt lat="43.98774" lon="5.91102">
        <ele>409</ele>
        <time>2020-10-05T09:37:20.000Z</time>
      </trkpt>
      <trkpt lat="43.98776" lon="5.91103">
        <ele>409</ele>
        <time>2020-10-05T09:37:21.000Z</time>
      </trkpt>
      <trkpt lat="43.98777" lon="5.91103">
        <ele>409</ele>
        <time>2020-10-05T09:37:22.000Z</time>
      </trkpt>
      <trkpt lat="43.98778" lon="5.91104">
        <ele>409</ele>
        <time>2020-10-05T09:37:23.000Z</time>
      </trkpt>
      <trkpt lat="43.98779" lon="5.91105">
        <ele>409</ele>
        <time>2020-10-05T09:37:24.000Z</time>
      </trkpt>
      <trkpt lat="43.98781" lon="5.91105">
        <ele>409</ele>
        <time>2020-10-05T09:37:25.000Z</time>
      </trkpt>
      <trkpt lat="43.98782" lon="5.91106">
        <ele>409</ele>
        <time>2020-10-05T09:37:26.000Z</time>
      </trkpt>
      <trkpt lat="43.98783" lon="5.91107">
        <ele>409</ele>
        <time>2020-10-05T09:37:27.000Z</time>
      </trkpt>
      <trkpt lat="43.98784" lon="5.91107">
        <ele>409</ele>
        <time>2020-10-05T09:37:28.000Z</time>
      </trkpt>
      <trkpt lat="43.98784" lon="5.91108">
        <ele>410</ele>
        <time>2020-10-05T09:37:29.000Z</time>
      </trkpt>
      <trkpt lat="43.98785" lon="5.91108">
        <ele>410</ele>
        <time>2020-10-05T09:37:30.000Z</time>
      </trkpt>
      <trkpt lat="43.98786" lon="5.91109">
        <ele>410</ele>
        <time>2020-10-05T09:37:31.000Z</time>
      </trkpt>
      <trkpt lat="43.98787" lon="5.9111">
        <ele>410</ele>
        <time>2020-10-05T09:37:32.000Z</time>
      </trkpt>
      <trkpt lat="43.98788" lon="5.91111">
        <ele>410</ele>
        <time>2020-10-05T09:37:33.000Z</time>
      </trkpt>
      <trkpt lat="43.98789" lon="5.91112">
        <ele>410</ele>
        <time>2020-10-05T09:37:34.000Z</time>
      </trkpt>
      <trkpt lat="43.9879" lon="5.91112">
        <ele>410</ele>
        <time>2020-10-05T09:37:35.000Z</time>
      </trkpt>
      <trkpt lat="43.98791" lon="5.91113">
        <ele>410</ele>
        <time>2020-10-05T09:37:36.000Z</time>
      </trkpt>
      <trkpt lat="43.98792" lon="5.91114">
        <ele>410</ele>
        <time>2020-10-05T09:37:37.000Z</time>
      </trkpt>
      <trkpt lat="43.98793" lon="5.91114">
        <ele>410</ele>
        <time>2020-10-05T09:37:38.000Z</time>
      </trkpt>
      <trkpt lat="43.98794" lon="5.91115">
        <ele>410</ele>
        <time>2020-10-05T09:37:39.000Z</time>
      </trkpt>
      <trkpt lat="43.98794" lon="5.91115">
        <ele>410</ele>
        <time>2020-10-05T09:37:40.000Z</time>
      </trkpt>
      <trkpt lat="43.98795" lon="5.91116">
        <ele>410</ele>
        <time>2020-10-05T09:37:41.000Z</time>
      </trkpt>
      <trkpt lat="43.98797" lon="5.91116">
        <ele>410</ele>
        <time>2020-10-05T09:37:42.000Z</time>
      </trkpt>
      <trkpt lat="43.98798" lon="5.91117">
        <ele>410</ele>
        <time>2020-10-05T09:37:43.000Z</time>
      </trkpt>
      <trkpt lat="43.98799" lon="5.91117">
        <ele>410</ele>
        <time>2020-10-05T09:37:44.000Z</time>
      </trkpt>
      <trkpt lat="43.988" lon="5.91118">
        <ele>410</ele>
        <time>2020-10-05T09:37:45.000Z</time>
      </trkpt>
      <trkpt lat="43.98801" lon="5.91118">
        <ele>410</ele>
        <time>2020-10-05T09:37:46.000Z</time>
      </trkpt>
      <trkpt lat="43.98802" lon="5.91119">
        <ele>409</ele>
        <time>2020-10-05T09:37:47.000Z</time>
      </trkpt>
      <trkpt lat="43.98803" lon="5.91119">
        <ele>409</ele>
        <time>2020-10-05T09:37:48.000Z</time>
      </trkpt>
      <trkpt lat="43.98804" lon="5.9112">
        <ele>409</ele>
        <time>2020-10-05T09:37:49.000Z</time>
      </trkpt>
      <trkpt lat="43.98805" lon="5.9112">
        <ele>409</ele>
        <time>2020-10-05T09:37:50.000Z</time>
      </trkpt>
      <trkpt lat="43.98806" lon="5.91121">
        <ele>409</ele>
        <time>2020-10-05T09:37:51.000Z</time>
      </trkpt>
      <trkpt lat="43.98807" lon="5.91121">
        <ele>409</ele>
        <time>2020-10-05T09:37:52.000Z</time>
      </trkpt>
      <trkpt lat="43.98808" lon="5.91121">
        <ele>409</ele>
        <time>2020-10-05T09:37:53.000Z</time>
      </trkpt>
      <trkpt lat="43.98809" lon="5.91122">
        <ele>409</ele>
        <time>2020-10-05T09:37:54.000Z</time>
      </trkpt>
      <trkpt lat="43.9881" lon="5.91122">
        <ele>410</ele>
        <time>2020-10-05T09:37:55.000Z</time>
      </trkpt>
      <trkpt lat="43.98811" lon="5.91122">
        <ele>410</ele>
        <time>2020-10-05T09:37:56.000Z</time>
      </trkpt>
      <trkpt lat="43.98812" lon="5.91122">
        <ele>410</ele>
        <time>2020-10-05T09:37:57.000Z</time>
      </trkpt>
      <trkpt lat="43.98813" lon="5.91123">
        <ele>410</ele>
        <time>2020-10-05T09:37:58.000Z</time>
      </trkpt>
      <trkpt lat="43.98814" lon="5.91123">
        <ele>410</ele>
        <time>2020-10-05T09:37:59.000Z</time>
      </trkpt>
      <trkpt lat="43.98815" lon="5.91123">
        <ele>410</ele>
        <time>2020-10-05T09:38:00.000Z</time>
      </trkpt>
      <trkpt lat="43.98816" lon="5.91123">
        <ele>410</ele>
        <time>2020-10-05T09:38:01.000Z</time>
      </trkpt>
      <trkpt lat="43.98817" lon="5.91123">
        <ele>410</ele>
        <time>2020-10-05T09:38:02.000Z</time>
      </trkpt>
      <trkpt lat="43.98818" lon="5.91123">
        <ele>410</ele>
        <time>2020-10-05T09:38:03.000Z</time>
      </trkpt>
      <trkpt lat="43.98819" lon="5.91124">
        <ele>410</ele>
        <time>2020-10-05T09:38:04.000Z</time>
      </trkpt>
      <trkpt lat="43.98821" lon="5.91124">
        <ele>410</ele>
        <time>2020-10-05T09:38:05.000Z</time>
      </trkpt>
      <trkpt lat="43.98822" lon="5.91125">
        <ele>410</ele>
        <time>2020-10-05T09:38:06.000Z</time>
      </trkpt>
      <trkpt lat="43.98823" lon="5.91125">
        <ele>410</ele>
        <time>2020-10-05T09:38:07.000Z</time>
      </trkpt>
      <trkpt lat="43.98824" lon="5.91125">
        <ele>410</ele>
        <time>2020-10-05T09:38:08.000Z</time>
      </trkpt>
      <trkpt lat="43.98825" lon="5.91125">
        <ele>410</ele>
        <time>2020-10-05T09:38:09.000Z</time>
      </trkpt>
      <trkpt lat="43.98826" lon="5.91126">
        <ele>410</ele>
        <time>2020-10-05T09:38:10.000Z</time>
      </trkpt>
      <trkpt lat="43.98827" lon="5.91126">
        <ele>410</ele>
        <time>2020-10-05T09:38:11.000Z</time>
      </trkpt>
      <trkpt lat="43.98828" lon="5.91127">
        <ele>410</ele>
        <time>2020-10-05T09:38:12.000Z</time>
      </trkpt>
      <trkpt lat="43.98829" lon="5.91127">
        <ele>410</ele>
        <time>2020-10-05T09:38:13.000Z</time>
      </trkpt>
      <trkpt lat="43.9883" lon="5.91127">
        <ele>410</ele>
        <time>2020-10-05T09:38:14.000Z</time>
      </trkpt>
      <trkpt lat="43.98831" lon="5.91128">
        <ele>410</ele>
        <time>2020-10-05T09:38:15.000Z</time>
      </trkpt>
      <trkpt lat="43.98832" lon="5.91128">
        <ele>409</ele>
        <time>2020-10-05T09:38:16.000Z</time>
      </trkpt>
      <trkpt lat="43.98833" lon="5.91128">
        <ele>409</ele>
        <time>2020-10-05T09:38:17.000Z</time>
      </trkpt>
      <trkpt lat="43.98834" lon="5.91129">
        <ele>409</ele>
        <time>2020-10-05T09:38:18.000Z</time>
      </trkpt>
      <trkpt lat="43.98835" lon="5.91129">
        <ele>409</ele>
        <time>2020-10-05T09:38:19.000Z</time>
      </trkpt>
      <trkpt lat="43.98836" lon="5.91129">
        <ele>409</ele>
        <time>2020-10-05T09:38:20.000Z</time>
      </trkpt>
      <trkpt lat="43.98837" lon="5.9113">
        <ele>409</ele>
        <time>2020-10-05T09:38:21.000Z</time>
      </trkpt>
      <trkpt lat="43.98838" lon="5.9113">
        <ele>409</ele>
        <time>2020-10-05T09:38:22.000Z</time>
      </trkpt>
      <trkpt lat="43.9884" lon="5.9113">
        <ele>409</ele>
        <time>2020-10-05T09:38:23.000Z</time>
      </trkpt>
      <trkpt lat="43.98841" lon="5.91131">
        <ele>409</ele>
        <time>2020-10-05T09:38:24.000Z</time>
      </trkpt>
      <trkpt lat="43.98842" lon="5.91131">
        <ele>409</ele>
        <time>2020-10-05T09:38:25.000Z</time>
      </trkpt>
      <trkpt lat="43.98842" lon="5.91131">
        <ele>409</ele>
        <time>2020-10-05T09:38:26.000Z</time>
      </trkpt>
      <trkpt lat="43.98843" lon="5.91131">
        <ele>409</ele>
        <time>2020-10-05T09:38:27.000Z</time>
      </trkpt>
      <trkpt lat="43.98844" lon="5.91131">
        <ele>409</ele>
        <time>2020-10-05T09:38:28.000Z</time>
      </trkpt>
      <trkpt lat="43.98844" lon="5.91131">
        <ele>409</ele>
        <time>2020-10-05T09:38:29.000Z</time>
      </trkpt>
      <trkpt lat="43.98844" lon="5.91131">
        <ele>409</ele>
        <time>2020-10-05T09:38:30.000Z</time>
      </trkpt>
      <trkpt lat="43.98845" lon="5.91131">
        <ele>409</ele>
        <time>2020-10-05T09:38:31.000Z</time>
      </trkpt>
      <trkpt lat="43.98845" lon="5.91132">
        <ele>409</ele>
        <time>2020-10-05T09:38:32.000Z</time>
      </trkpt>
      <trkpt lat="43.98845" lon="5.91131">
        <ele>409</ele>
        <time>2020-10-05T09:38:33.000Z</time>
      </trkpt>
      <trkpt lat="43.98845" lon="5.91131">
        <ele>409</ele>
        <time>2020-10-05T09:38:34.000Z</time>
      </trkpt>
      <trkpt lat="43.98846" lon="5.91131">
        <ele>409</ele>
        <time>2020-10-05T09:38:35.000Z</time>
      </trkpt>
      <trkpt lat="43.98846" lon="5.91131">
        <ele>409</ele>
        <time>2020-10-05T09:38:36.000Z</time>
      </trkpt>
      <trkpt lat="43.98846" lon="5.91131">
        <ele>409</ele>
        <time>2020-10-05T09:38:37.000Z</time>
      </trkpt>
      <trkpt lat="43.98846" lon="5.91131">
        <ele>409</ele>
        <time>2020-10-05T09:38:38.000Z</time>
      </trkpt>
      <trkpt lat="43.98846" lon="5.91131">
        <ele>409</ele>
        <time>2020-10-05T09:38:39.000Z</time>
      </trkpt>
      <trkpt lat="43.98846" lon="5.91131">
        <ele>409</ele>
        <time>2020-10-05T09:38:40.000Z</time>
      </trkpt>
      <trkpt lat="43.98846" lon="5.91131">
        <ele>409</ele>
        <time>2020-10-05T09:38:41.000Z</time>
      </trkpt>
      <trkpt lat="43.98846" lon="5.9113">
        <ele>409</ele>
        <time>2020-10-05T09:38:42.000Z</time>
      </trkpt>
      <trkpt lat="43.98846" lon="5.9113">
        <ele>409</ele>
        <time>2020-10-05T09:38:43.000Z</time>
      </trkpt>
      <trkpt lat="43.98847" lon="5.9113">
        <ele>409</ele>
        <time>2020-10-05T09:38:44.000Z</time>
      </trkpt>
      <trkpt lat="43.98847" lon="5.9113">
        <ele>409</ele>
        <time>2020-10-05T09:38:45.000Z</time>
      </trkpt>
      <trkpt lat="43.98848" lon="5.9113">
        <ele>409</ele>
        <time>2020-10-05T09:38:46.000Z</time>
      </trkpt>
      <trkpt lat="43.9885" lon="5.9113">
        <ele>409</ele>
        <time>2020-10-05T09:38:47.000Z</time>
      </trkpt>
      <trkpt lat="43.98851" lon="5.91131">
        <ele>409</ele>
        <time>2020-10-05T09:38:48.000Z</time>
      </trkpt>
      <trkpt lat="43.98851" lon="5.91131">
        <ele>409</ele>
        <time>2020-10-05T09:38:49.000Z</time>
      </trkpt>
      <trkpt lat="43.98853" lon="5.91131">
        <ele>409</ele>
        <time>2020-10-05T09:38:50.000Z</time>
      </trkpt>
      <trkpt lat="43.98854" lon="5.91131">
        <ele>409</ele>
        <time>2020-10-05T09:38:51.000Z</time>
      </trkpt>
      <trkpt lat="43.98855" lon="5.91132">
        <ele>409</ele>
        <time>2020-10-05T09:38:52.000Z</time>
      </trkpt>
      <trkpt lat="43.98856" lon="5.91132">
        <ele>409</ele>
        <time>2020-10-05T09:38:53.000Z</time>
      </trkpt>
      <trkpt lat="43.98857" lon="5.91132">
        <ele>409</ele>
        <time>2020-10-05T09:38:54.000Z</time>
      </trkpt>
      <trkpt lat="43.98858" lon="5.91133">
        <ele>409</ele>
        <time>2020-10-05T09:38:55.000Z</time>
      </trkpt>
      <trkpt lat="43.98859" lon="5.91133">
        <ele>409</ele>
        <time>2020-10-05T09:38:56.000Z</time>
      </trkpt>
      <trkpt lat="43.9886" lon="5.91133">
        <ele>409</ele>
        <time>2020-10-05T09:38:57.000Z</time>
      </trkpt>
      <trkpt lat="43.98861" lon="5.91134">
        <ele>409</ele>
        <time>2020-10-05T09:38:58.000Z</time>
      </trkpt>
      <trkpt lat="43.98862" lon="5.91134">
        <ele>408</ele>
        <time>2020-10-05T09:38:59.000Z</time>
      </trkpt>
      <trkpt lat="43.98863" lon="5.91134">
        <ele>409</ele>
        <time>2020-10-05T09:39:00.000Z</time>
      </trkpt>
      <trkpt lat="43.98863" lon="5.91134">
        <ele>409</ele>
        <time>2020-10-05T09:39:01.000Z</time>
      </trkpt>
      <trkpt lat="43.98863" lon="5.91135">
        <ele>409</ele>
        <time>2020-10-05T09:39:02.000Z</time>
      </trkpt>
      <trkpt lat="43.98863" lon="5.91135">
        <ele>409</ele>
        <time>2020-10-05T09:39:03.000Z</time>
      </trkpt>
      <trkpt lat="43.98863" lon="5.91135">
        <ele>408</ele>
        <time>2020-10-05T09:39:04.000Z</time>
      </trkpt>
      <trkpt lat="43.98863" lon="5.91134">
        <ele>408</ele>
        <time>2020-10-05T09:39:05.000Z</time>
      </trkpt>
      <trkpt lat="43.98864" lon="5.91134">
        <ele>408</ele>
        <time>2020-10-05T09:39:06.000Z</time>
      </trkpt>
      <trkpt lat="43.98864" lon="5.91135">
        <ele>409</ele>
        <time>2020-10-05T09:39:07.000Z</time>
      </trkpt>
      <trkpt lat="43.98864" lon="5.91135">
        <ele>409</ele>
        <time>2020-10-05T09:39:08.000Z</time>
      </trkpt>
      <trkpt lat="43.98865" lon="5.91135">
        <ele>409</ele>
        <time>2020-10-05T09:39:09.000Z</time>
      </trkpt>
      <trkpt lat="43.98865" lon="5.91136">
        <ele>409</ele>
        <time>2020-10-05T09:39:10.000Z</time>
      </trkpt>
      <trkpt lat="43.98865" lon="5.91136">
        <ele>409</ele>
        <time>2020-10-05T09:39:11.000Z</time>
      </trkpt>
      <trkpt lat="43.98865" lon="5.91136">
        <ele>409</ele>
        <time>2020-10-05T09:39:12.000Z</time>
      </trkpt>
      <trkpt lat="43.98866" lon="5.91137">
        <ele>409</ele>
        <time>2020-10-05T09:39:13.000Z</time>
      </trkpt>
      <trkpt lat="43.98866" lon="5.91137">
        <ele>409</ele>
        <time>2020-10-05T09:39:14.000Z</time>
      </trkpt>
      <trkpt lat="43.98866" lon="5.91137">
        <ele>409</ele>
        <time>2020-10-05T09:39:15.000Z</time>
      </trkpt>
      <trkpt lat="43.98866" lon="5.91137">
        <ele>409</ele>
        <time>2020-10-05T09:39:16.000Z</time>
      </trkpt>
      <trkpt lat="43.98866" lon="5.91137">
        <ele>409</ele>
        <time>2020-10-05T09:39:17.000Z</time>
      </trkpt>
      <trkpt lat="43.98865" lon="5.91137">
        <ele>409</ele>
        <time>2020-10-05T09:39:18.000Z</time>
      </trkpt>
      <trkpt lat="43.98865" lon="5.91137">
        <ele>409</ele>
        <time>2020-10-05T09:39:19.000Z</time>
      </trkpt>
      <trkpt lat="43.98865" lon="5.91137">
        <ele>409</ele>
        <time>2020-10-05T09:39:20.000Z</time>
      </trkpt>
      <trkpt lat="43.98865" lon="5.91137">
        <ele>409</ele>
        <time>2020-10-05T09:39:21.000Z</time>
      </trkpt>
      <trkpt lat="43.98865" lon="5.91137">
        <ele>409</ele>
        <time>2020-10-05T09:39:22.000Z</time>
      </trkpt>
      <trkpt lat="43.98866" lon="5.91137">
        <ele>409</ele>
        <time>2020-10-05T09:39:23.000Z</time>
      </trkpt>
      <trkpt lat="43.98866" lon="5.91137">
        <ele>409</ele>
        <time>2020-10-05T09:39:24.000Z</time>
      </trkpt>
      <trkpt lat="43.98866" lon="5.91138">
        <ele>409</ele>
        <time>2020-10-05T09:39:25.000Z</time>
      </trkpt>
      <trkpt lat="43.98866" lon="5.91138">
        <ele>409</ele>
        <time>2020-10-05T09:39:26.000Z</time>
      </trkpt>
      <trkpt lat="43.98866" lon="5.91138">
        <ele>409</ele>
        <time>2020-10-05T09:39:27.000Z</time>
      </trkpt>
      <trkpt lat="43.98866" lon="5.91138">
        <ele>409</ele>
        <time>2020-10-05T09:39:28.000Z</time>
      </trkpt>
      <trkpt lat="43.98866" lon="5.91138">
        <ele>409</ele>
        <time>2020-10-05T09:39:29.000Z</time>
      </trkpt>
      <trkpt lat="43.98867" lon="5.91139">
        <ele>409</ele>
        <time>2020-10-05T09:39:30.000Z</time>
      </trkpt>
      <trkpt lat="43.98867" lon="5.91139">
        <ele>410</ele>
        <time>2020-10-05T09:39:31.000Z</time>
      </trkpt>
      <trkpt lat="43.98868" lon="5.9114">
        <ele>410</ele>
        <time>2020-10-05T09:39:32.000Z</time>
      </trkpt>
      <trkpt lat="43.98869" lon="5.9114">
        <ele>410</ele>
        <time>2020-10-05T09:39:33.000Z</time>
      </trkpt>
      <trkpt lat="43.9887" lon="5.9114">
        <ele>410</ele>
        <time>2020-10-05T09:39:34.000Z</time>
      </trkpt>
      <trkpt lat="43.98871" lon="5.91141">
        <ele>410</ele>
        <time>2020-10-05T09:39:35.000Z</time>
      </trkpt>
      <trkpt lat="43.98872" lon="5.91141">
        <ele>410</ele>
        <time>2020-10-05T09:39:36.000Z</time>
      </trkpt>
      <trkpt lat="43.98873" lon="5.91142">
        <ele>411</ele>
        <time>2020-10-05T09:39:37.000Z</time>
      </trkpt>
      <trkpt lat="43.98874" lon="5.91142">
        <ele>411</ele>
        <time>2020-10-05T09:39:38.000Z</time>
      </trkpt>
      <trkpt lat="43.98875" lon="5.91143">
        <ele>411</ele>
        <time>2020-10-05T09:39:39.000Z</time>
      </trkpt>
      <trkpt lat="43.98875" lon="5.91143">
        <ele>411</ele>
        <time>2020-10-05T09:39:40.000Z</time>
      </trkpt>
      <trkpt lat="43.98876" lon="5.91144">
        <ele>411</ele>
        <time>2020-10-05T09:39:41.000Z</time>
      </trkpt>
      <trkpt lat="43.98878" lon="5.91144">
        <ele>411</ele>
        <time>2020-10-05T09:39:42.000Z</time>
      </trkpt>
      <trkpt lat="43.98879" lon="5.91145">
        <ele>411</ele>
        <time>2020-10-05T09:39:43.000Z</time>
      </trkpt>
      <trkpt lat="43.9888" lon="5.91145">
        <ele>411</ele>
        <time>2020-10-05T09:39:44.000Z</time>
      </trkpt>
      <trkpt lat="43.98881" lon="5.91146">
        <ele>411</ele>
        <time>2020-10-05T09:39:45.000Z</time>
      </trkpt>
      <trkpt lat="43.98882" lon="5.91146">
        <ele>411</ele>
        <time>2020-10-05T09:39:46.000Z</time>
      </trkpt>
      <trkpt lat="43.98883" lon="5.91146">
        <ele>411</ele>
        <time>2020-10-05T09:39:47.000Z</time>
      </trkpt>
      <trkpt lat="43.98884" lon="5.91147">
        <ele>411</ele>
        <time>2020-10-05T09:39:48.000Z</time>
      </trkpt>
      <trkpt lat="43.98885" lon="5.91147">
        <ele>411</ele>
        <time>2020-10-05T09:39:49.000Z</time>
      </trkpt>
      <trkpt lat="43.98886" lon="5.91147">
        <ele>410</ele>
        <time>2020-10-05T09:39:50.000Z</time>
      </trkpt>
      <trkpt lat="43.98886" lon="5.91147">
        <ele>410</ele>
        <time>2020-10-05T09:39:51.000Z</time>
      </trkpt>
      <trkpt lat="43.98887" lon="5.91148">
        <ele>410</ele>
        <time>2020-10-05T09:39:52.000Z</time>
      </trkpt>
      <trkpt lat="43.98887" lon="5.91148">
        <ele>410</ele>
        <time>2020-10-05T09:39:53.000Z</time>
      </trkpt>
      <trkpt lat="43.98887" lon="5.91148">
        <ele>410</ele>
        <time>2020-10-05T09:39:54.000Z</time>
      </trkpt>
      <trkpt lat="43.98887" lon="5.91148">
        <ele>410</ele>
        <time>2020-10-05T09:39:55.000Z</time>
      </trkpt>
      <trkpt lat="43.98887" lon="5.91148">
        <ele>410</ele>
        <time>2020-10-05T09:39:56.000Z</time>
      </trkpt>
      <trkpt lat="43.98887" lon="5.91148">
        <ele>410</ele>
        <time>2020-10-05T09:39:57.000Z</time>
      </trkpt>
      <trkpt lat="43.98887" lon="5.91148">
        <ele>410</ele>
        <time>2020-10-05T09:39:58.000Z</time>
      </trkpt>
      <trkpt lat="43.98888" lon="5.91148">
        <ele>410</ele>
        <time>2020-10-05T09:39:59.000Z</time>
      </trkpt>
      <trkpt lat="43.98888" lon="5.91148">
        <ele>410</ele>
        <time>2020-10-05T09:40:00.000Z</time>
      </trkpt>
      <trkpt lat="43.98888" lon="5.91149">
        <ele>410</ele>
        <time>2020-10-05T09:40:01.000Z</time>
      </trkpt>
      <trkpt lat="43.98888" lon="5.91148">
        <ele>410</ele>
        <time>2020-10-05T09:40:02.000Z</time>
      </trkpt>
      <trkpt lat="43.98888" lon="5.91148">
        <ele>410</ele>
        <time>2020-10-05T09:40:03.000Z</time>
      </trkpt>
      <trkpt lat="43.98888" lon="5.91148">
        <ele>410</ele>
        <time>2020-10-05T09:40:04.000Z</time>
      </trkpt>
      <trkpt lat="43.98889" lon="5.91149">
        <ele>410</ele>
        <time>2020-10-05T09:40:05.000Z</time>
      </trkpt>
      <trkpt lat="43.9889" lon="5.91149">
        <ele>410</ele>
        <time>2020-10-05T09:40:06.000Z</time>
      </trkpt>
      <trkpt lat="43.98891" lon="5.91149">
        <ele>410</ele>
        <time>2020-10-05T09:40:07.000Z</time>
      </trkpt>
      <trkpt lat="43.98891" lon="5.9115">
        <ele>410</ele>
        <time>2020-10-05T09:40:08.000Z</time>
      </trkpt>
      <trkpt lat="43.98893" lon="5.91151">
        <ele>410</ele>
        <time>2020-10-05T09:40:09.000Z</time>
      </trkpt>
      <trkpt lat="43.98893" lon="5.91152">
        <ele>410</ele>
        <time>2020-10-05T09:40:10.000Z</time>
      </trkpt>
      <trkpt lat="43.98894" lon="5.91153">
        <ele>410</ele>
        <time>2020-10-05T09:40:11.000Z</time>
      </trkpt>
      <trkpt lat="43.98894" lon="5.91153">
        <ele>410</ele>
        <time>2020-10-05T09:40:12.000Z</time>
      </trkpt>
      <trkpt lat="43.98895" lon="5.91154">
        <ele>410</ele>
        <time>2020-10-05T09:40:13.000Z</time>
      </trkpt>
      <trkpt lat="43.98896" lon="5.91155">
        <ele>410</ele>
        <time>2020-10-05T09:40:14.000Z</time>
      </trkpt>
      <trkpt lat="43.98897" lon="5.91156">
        <ele>410</ele>
        <time>2020-10-05T09:40:15.000Z</time>
      </trkpt>
      <trkpt lat="43.98898" lon="5.91157">
        <ele>410</ele>
        <time>2020-10-05T09:40:16.000Z</time>
      </trkpt>
      <trkpt lat="43.989" lon="5.91157">
        <ele>410</ele>
        <time>2020-10-05T09:40:17.000Z</time>
      </trkpt>
      <trkpt lat="43.98901" lon="5.91158">
        <ele>410</ele>
        <time>2020-10-05T09:40:18.000Z</time>
      </trkpt>
      <trkpt lat="43.98901" lon="5.91158">
        <ele>410</ele>
        <time>2020-10-05T09:40:19.000Z</time>
      </trkpt>
      <trkpt lat="43.98902" lon="5.91158">
        <ele>410</ele>
        <time>2020-10-05T09:40:20.000Z</time>
      </trkpt>
      <trkpt lat="43.98902" lon="5.91158">
        <ele>410</ele>
        <time>2020-10-05T09:40:21.000Z</time>
      </trkpt>
      <trkpt lat="43.98902" lon="5.91158">
        <ele>410</ele>
        <time>2020-10-05T09:40:22.000Z</time>
      </trkpt>
      <trkpt lat="43.98902" lon="5.91158">
        <ele>410</ele>
        <time>2020-10-05T09:40:23.000Z</time>
      </trkpt>
      <trkpt lat="43.98903" lon="5.91158">
        <ele>410</ele>
        <time>2020-10-05T09:40:24.000Z</time>
      </trkpt>
      <trkpt lat="43.98903" lon="5.91158">
        <ele>410</ele>
        <time>2020-10-05T09:40:25.000Z</time>
      </trkpt>
      <trkpt lat="43.98903" lon="5.91158">
        <ele>410</ele>
        <time>2020-10-05T09:40:26.000Z</time>
      </trkpt>
      <trkpt lat="43.98903" lon="5.91158">
        <ele>410</ele>
        <time>2020-10-05T09:40:27.000Z</time>
      </trkpt>
      <trkpt lat="43.98903" lon="5.91158">
        <ele>410</ele>
        <time>2020-10-05T09:40:28.000Z</time>
      </trkpt>
      <trkpt lat="43.98903" lon="5.91158">
        <ele>410</ele>
        <time>2020-10-05T09:40:29.000Z</time>
      </trkpt>
      <trkpt lat="43.98903" lon="5.91159">
        <ele>410</ele>
        <time>2020-10-05T09:40:30.000Z</time>
      </trkpt>
      <trkpt lat="43.98904" lon="5.91159">
        <ele>409</ele>
        <time>2020-10-05T09:40:31.000Z</time>
      </trkpt>
      <trkpt lat="43.98905" lon="5.9116">
        <ele>409</ele>
        <time>2020-10-05T09:40:32.000Z</time>
      </trkpt>
      <trkpt lat="43.98906" lon="5.9116">
        <ele>409</ele>
        <time>2020-10-05T09:40:33.000Z</time>
      </trkpt>
      <trkpt lat="43.98907" lon="5.9116">
        <ele>409</ele>
        <time>2020-10-05T09:40:34.000Z</time>
      </trkpt>
      <trkpt lat="43.98907" lon="5.91161">
        <ele>409</ele>
        <time>2020-10-05T09:40:35.000Z</time>
      </trkpt>
      <trkpt lat="43.98908" lon="5.91162">
        <ele>409</ele>
        <time>2020-10-05T09:40:36.000Z</time>
      </trkpt>
      <trkpt lat="43.98909" lon="5.91162">
        <ele>409</ele>
        <time>2020-10-05T09:40:37.000Z</time>
      </trkpt>
      <trkpt lat="43.98911" lon="5.91163">
        <ele>409</ele>
        <time>2020-10-05T09:40:38.000Z</time>
      </trkpt>
      <trkpt lat="43.98912" lon="5.91164">
        <ele>409</ele>
        <time>2020-10-05T09:40:39.000Z</time>
      </trkpt>
      <trkpt lat="43.98913" lon="5.91165">
        <ele>409</ele>
        <time>2020-10-05T09:40:40.000Z</time>
      </trkpt>
      <trkpt lat="43.98914" lon="5.91166">
        <ele>409</ele>
        <time>2020-10-05T09:40:41.000Z</time>
      </trkpt>
      <trkpt lat="43.98915" lon="5.91166">
        <ele>409</ele>
        <time>2020-10-05T09:40:42.000Z</time>
      </trkpt>
      <trkpt lat="43.98916" lon="5.91167">
        <ele>409</ele>
        <time>2020-10-05T09:40:43.000Z</time>
      </trkpt>
      <trkpt lat="43.98917" lon="5.91167">
        <ele>409</ele>
        <time>2020-10-05T09:40:44.000Z</time>
      </trkpt>
      <trkpt lat="43.98918" lon="5.91168">
        <ele>409</ele>
        <time>2020-10-05T09:40:45.000Z</time>
      </trkpt>
      <trkpt lat="43.98919" lon="5.91169">
        <ele>409</ele>
        <time>2020-10-05T09:40:46.000Z</time>
      </trkpt>
      <trkpt lat="43.9892" lon="5.91169">
        <ele>409</ele>
        <time>2020-10-05T09:40:47.000Z</time>
      </trkpt>
      <trkpt lat="43.9892" lon="5.9117">
        <ele>409</ele>
        <time>2020-10-05T09:40:48.000Z</time>
      </trkpt>
      <trkpt lat="43.98921" lon="5.9117">
        <ele>409</ele>
        <time>2020-10-05T09:40:49.000Z</time>
      </trkpt>
      <trkpt lat="43.98922" lon="5.9117">
        <ele>409</ele>
        <time>2020-10-05T09:40:50.000Z</time>
      </trkpt>
      <trkpt lat="43.98923" lon="5.91171">
        <ele>409</ele>
        <time>2020-10-05T09:40:51.000Z</time>
      </trkpt>
      <trkpt lat="43.98924" lon="5.91172">
        <ele>409</ele>
        <time>2020-10-05T09:40:52.000Z</time>
      </trkpt>
      <trkpt lat="43.98925" lon="5.91172">
        <ele>409</ele>
        <time>2020-10-05T09:40:53.000Z</time>
      </trkpt>
      <trkpt lat="43.98926" lon="5.91173">
        <ele>409</ele>
        <time>2020-10-05T09:40:54.000Z</time>
      </trkpt>
      <trkpt lat="43.98927" lon="5.91174">
        <ele>409</ele>
        <time>2020-10-05T09:40:55.000Z</time>
      </trkpt>
      <trkpt lat="43.98928" lon="5.91174">
        <ele>409</ele>
        <time>2020-10-05T09:40:56.000Z</time>
      </trkpt>
      <trkpt lat="43.98929" lon="5.91175">
        <ele>409</ele>
        <time>2020-10-05T09:40:57.000Z</time>
      </trkpt>
      <trkpt lat="43.98931" lon="5.91176">
        <ele>409</ele>
        <time>2020-10-05T09:40:58.000Z</time>
      </trkpt>
      <trkpt lat="43.98932" lon="5.91176">
        <ele>409</ele>
        <time>2020-10-05T09:40:59.000Z</time>
      </trkpt>
      <trkpt lat="43.98933" lon="5.91177">
        <ele>409</ele>
        <time>2020-10-05T09:41:00.000Z</time>
      </trkpt>
      <trkpt lat="43.98934" lon="5.91178">
        <ele>409</ele>
        <time>2020-10-05T09:41:01.000Z</time>
      </trkpt>
      <trkpt lat="43.98935" lon="5.91178">
        <ele>409</ele>
        <time>2020-10-05T09:41:02.000Z</time>
      </trkpt>
      <trkpt lat="43.98936" lon="5.91179">
        <ele>409</ele>
        <time>2020-10-05T09:41:03.000Z</time>
      </trkpt>
      <trkpt lat="43.98937" lon="5.91179">
        <ele>409</ele>
        <time>2020-10-05T09:41:04.000Z</time>
      </trkpt>
      <trkpt lat="43.98938" lon="5.9118">
        <ele>409</ele>
        <time>2020-10-05T09:41:05.000Z</time>
      </trkpt>
      <trkpt lat="43.98939" lon="5.9118">
        <ele>408</ele>
        <time>2020-10-05T09:41:06.000Z</time>
      </trkpt>
      <trkpt lat="43.9894" lon="5.91181">
        <ele>408</ele>
        <time>2020-10-05T09:41:07.000Z</time>
      </trkpt>
      <trkpt lat="43.98942" lon="5.91181">
        <ele>408</ele>
        <time>2020-10-05T09:41:08.000Z</time>
      </trkpt>
      <trkpt lat="43.98943" lon="5.91182">
        <ele>408</ele>
        <time>2020-10-05T09:41:09.000Z</time>
      </trkpt>
      <trkpt lat="43.98944" lon="5.91183">
        <ele>408</ele>
        <time>2020-10-05T09:41:10.000Z</time>
      </trkpt>
      <trkpt lat="43.98945" lon="5.91184">
        <ele>408</ele>
        <time>2020-10-05T09:41:11.000Z</time>
      </trkpt>
      <trkpt lat="43.98946" lon="5.91184">
        <ele>408</ele>
        <time>2020-10-05T09:41:12.000Z</time>
      </trkpt>
      <trkpt lat="43.98947" lon="5.91185">
        <ele>408</ele>
        <time>2020-10-05T09:41:13.000Z</time>
      </trkpt>
      <trkpt lat="43.98948" lon="5.91186">
        <ele>408</ele>
        <time>2020-10-05T09:41:14.000Z</time>
      </trkpt>
      <trkpt lat="43.98949" lon="5.91187">
        <ele>409</ele>
        <time>2020-10-05T09:41:15.000Z</time>
      </trkpt>
      <trkpt lat="43.9895" lon="5.91188">
        <ele>409</ele>
        <time>2020-10-05T09:41:16.000Z</time>
      </trkpt>
      <trkpt lat="43.98951" lon="5.91188">
        <ele>409</ele>
        <time>2020-10-05T09:41:17.000Z</time>
      </trkpt>
      <trkpt lat="43.98952" lon="5.91189">
        <ele>409</ele>
        <time>2020-10-05T09:41:18.000Z</time>
      </trkpt>
      <trkpt lat="43.98953" lon="5.9119">
        <ele>409</ele>
        <time>2020-10-05T09:41:19.000Z</time>
      </trkpt>
      <trkpt lat="43.98954" lon="5.9119">
        <ele>409</ele>
        <time>2020-10-05T09:41:20.000Z</time>
      </trkpt>
      <trkpt lat="43.98955" lon="5.91191">
        <ele>409</ele>
        <time>2020-10-05T09:41:21.000Z</time>
      </trkpt>
      <trkpt lat="43.98957" lon="5.91192">
        <ele>409</ele>
        <time>2020-10-05T09:41:22.000Z</time>
      </trkpt>
      <trkpt lat="43.98958" lon="5.91192">
        <ele>409</ele>
        <time>2020-10-05T09:41:23.000Z</time>
      </trkpt>
      <trkpt lat="43.98959" lon="5.91193">
        <ele>409</ele>
        <time>2020-10-05T09:41:24.000Z</time>
      </trkpt>
      <trkpt lat="43.9896" lon="5.91193">
        <ele>409</ele>
        <time>2020-10-05T09:41:25.000Z</time>
      </trkpt>
      <trkpt lat="43.98961" lon="5.91194">
        <ele>409</ele>
        <time>2020-10-05T09:41:26.000Z</time>
      </trkpt>
      <trkpt lat="43.98962" lon="5.91195">
        <ele>409</ele>
        <time>2020-10-05T09:41:27.000Z</time>
      </trkpt>
      <trkpt lat="43.98963" lon="5.91196">
        <ele>409</ele>
        <time>2020-10-05T09:41:28.000Z</time>
      </trkpt>
      <trkpt lat="43.98965" lon="5.91196">
        <ele>409</ele>
        <time>2020-10-05T09:41:29.000Z</time>
      </trkpt>
      <trkpt lat="43.98966" lon="5.91197">
        <ele>409</ele>
        <time>2020-10-05T09:41:30.000Z</time>
      </trkpt>
      <trkpt lat="43.98967" lon="5.91197">
        <ele>409</ele>
        <time>2020-10-05T09:41:31.000Z</time>
      </trkpt>
      <trkpt lat="43.98968" lon="5.91198">
        <ele>409</ele>
        <time>2020-10-05T09:41:32.000Z</time>
      </trkpt>
      <trkpt lat="43.98969" lon="5.91198">
        <ele>409</ele>
        <time>2020-10-05T09:41:33.000Z</time>
      </trkpt>
      <trkpt lat="43.9897" lon="5.91199">
        <ele>409</ele>
        <time>2020-10-05T09:41:34.000Z</time>
      </trkpt>
      <trkpt lat="43.98972" lon="5.912">
        <ele>409</ele>
        <time>2020-10-05T09:41:35.000Z</time>
      </trkpt>
      <trkpt lat="43.98973" lon="5.912">
        <ele>410</ele>
        <time>2020-10-05T09:41:36.000Z</time>
      </trkpt>
      <trkpt lat="43.98974" lon="5.912">
        <ele>410</ele>
        <time>2020-10-05T09:41:37.000Z</time>
      </trkpt>
      <trkpt lat="43.98976" lon="5.91201">
        <ele>410</ele>
        <time>2020-10-05T09:41:38.000Z</time>
      </trkpt>
      <trkpt lat="43.98977" lon="5.91201">
        <ele>410</ele>
        <time>2020-10-05T09:41:39.000Z</time>
      </trkpt>
      <trkpt lat="43.98978" lon="5.91202">
        <ele>410</ele>
        <time>2020-10-05T09:41:40.000Z</time>
      </trkpt>
      <trkpt lat="43.98979" lon="5.91203">
        <ele>410</ele>
        <time>2020-10-05T09:41:41.000Z</time>
      </trkpt>
      <trkpt lat="43.98981" lon="5.91204">
        <ele>410</ele>
        <time>2020-10-05T09:41:42.000Z</time>
      </trkpt>
      <trkpt lat="43.98982" lon="5.91204">
        <ele>410</ele>
        <time>2020-10-05T09:41:43.000Z</time>
      </trkpt>
      <trkpt lat="43.98983" lon="5.91205">
        <ele>410</ele>
        <time>2020-10-05T09:41:44.000Z</time>
      </trkpt>
      <trkpt lat="43.98984" lon="5.91206">
        <ele>410</ele>
        <time>2020-10-05T09:41:45.000Z</time>
      </trkpt>
      <trkpt lat="43.98985" lon="5.91206">
        <ele>410</ele>
        <time>2020-10-05T09:41:46.000Z</time>
      </trkpt>
      <trkpt lat="43.98986" lon="5.91207">
        <ele>410</ele>
        <time>2020-10-05T09:41:47.000Z</time>
      </trkpt>
      <trkpt lat="43.98987" lon="5.91207">
        <ele>410</ele>
        <time>2020-10-05T09:41:48.000Z</time>
      </trkpt>
      <trkpt lat="43.98988" lon="5.91208">
        <ele>410</ele>
        <time>2020-10-05T09:41:49.000Z</time>
      </trkpt>
      <trkpt lat="43.98989" lon="5.91208">
        <ele>410</ele>
        <time>2020-10-05T09:41:50.000Z</time>
      </trkpt>
      <trkpt lat="43.9899" lon="5.91209">
        <ele>410</ele>
        <time>2020-10-05T09:41:51.000Z</time>
      </trkpt>
      <trkpt lat="43.98991" lon="5.91209">
        <ele>410</ele>
        <time>2020-10-05T09:41:52.000Z</time>
      </trkpt>
      <trkpt lat="43.98992" lon="5.9121">
        <ele>411</ele>
        <time>2020-10-05T09:41:53.000Z</time>
      </trkpt>
      <trkpt lat="43.98993" lon="5.91211">
        <ele>411</ele>
        <time>2020-10-05T09:41:54.000Z</time>
      </trkpt>
      <trkpt lat="43.98994" lon="5.91211">
        <ele>411</ele>
        <time>2020-10-05T09:41:55.000Z</time>
      </trkpt>
      <trkpt lat="43.98994" lon="5.91211">
        <ele>411</ele>
        <time>2020-10-05T09:41:56.000Z</time>
      </trkpt>
      <trkpt lat="43.98995" lon="5.91212">
        <ele>411</ele>
        <time>2020-10-05T09:41:57.000Z</time>
      </trkpt>
      <trkpt lat="43.98996" lon="5.91212">
        <ele>411</ele>
        <time>2020-10-05T09:41:58.000Z</time>
      </trkpt>
      <trkpt lat="43.98997" lon="5.91213">
        <ele>411</ele>
        <time>2020-10-05T09:41:59.000Z</time>
      </trkpt>
      <trkpt lat="43.98998" lon="5.91214">
        <ele>411</ele>
        <time>2020-10-05T09:42:00.000Z</time>
      </trkpt>
      <trkpt lat="43.99" lon="5.91214">
        <ele>411</ele>
        <time>2020-10-05T09:42:01.000Z</time>
      </trkpt>
      <trkpt lat="43.99001" lon="5.91215">
        <ele>411</ele>
        <time>2020-10-05T09:42:02.000Z</time>
      </trkpt>
      <trkpt lat="43.99002" lon="5.91216">
        <ele>411</ele>
        <time>2020-10-05T09:42:03.000Z</time>
      </trkpt>
      <trkpt lat="43.99003" lon="5.91217">
        <ele>411</ele>
        <time>2020-10-05T09:42:04.000Z</time>
      </trkpt>
      <trkpt lat="43.99004" lon="5.91218">
        <ele>411</ele>
        <time>2020-10-05T09:42:05.000Z</time>
      </trkpt>
      <trkpt lat="43.99005" lon="5.91219">
        <ele>411</ele>
        <time>2020-10-05T09:42:06.000Z</time>
      </trkpt>
      <trkpt lat="43.99006" lon="5.91219">
        <ele>411</ele>
        <time>2020-10-05T09:42:07.000Z</time>
      </trkpt>
      <trkpt lat="43.99007" lon="5.9122">
        <ele>411</ele>
        <time>2020-10-05T09:42:08.000Z</time>
      </trkpt>
      <trkpt lat="43.99009" lon="5.9122">
        <ele>411</ele>
        <time>2020-10-05T09:42:09.000Z</time>
      </trkpt>
      <trkpt lat="43.9901" lon="5.91221">
        <ele>411</ele>
        <time>2020-10-05T09:42:10.000Z</time>
      </trkpt>
      <trkpt lat="43.99011" lon="5.91221">
        <ele>411</ele>
        <time>2020-10-05T09:42:11.000Z</time>
      </trkpt>
      <trkpt lat="43.99012" lon="5.91222">
        <ele>411</ele>
        <time>2020-10-05T09:42:12.000Z</time>
      </trkpt>
      <trkpt lat="43.99013" lon="5.91222">
        <ele>411</ele>
        <time>2020-10-05T09:42:13.000Z</time>
      </trkpt>
      <trkpt lat="43.99014" lon="5.91222">
        <ele>411</ele>
        <time>2020-10-05T09:42:14.000Z</time>
      </trkpt>
      <trkpt lat="43.99015" lon="5.91223">
        <ele>411</ele>
        <time>2020-10-05T09:42:15.000Z</time>
      </trkpt>
      <trkpt lat="43.99016" lon="5.91223">
        <ele>411</ele>
        <time>2020-10-05T09:42:16.000Z</time>
      </trkpt>
      <trkpt lat="43.99017" lon="5.91223">
        <ele>411</ele>
        <time>2020-10-05T09:42:17.000Z</time>
      </trkpt>
      <trkpt lat="43.99019" lon="5.91224">
        <ele>411</ele>
        <time>2020-10-05T09:42:18.000Z</time>
      </trkpt>
      <trkpt lat="43.9902" lon="5.91224">
        <ele>411</ele>
        <time>2020-10-05T09:42:19.000Z</time>
      </trkpt>
      <trkpt lat="43.99021" lon="5.91225">
        <ele>411</ele>
        <time>2020-10-05T09:42:20.000Z</time>
      </trkpt>
      <trkpt lat="43.99022" lon="5.91226">
        <ele>411</ele>
        <time>2020-10-05T09:42:21.000Z</time>
      </trkpt>
      <trkpt lat="43.99023" lon="5.91226">
        <ele>411</ele>
        <time>2020-10-05T09:42:22.000Z</time>
      </trkpt>
      <trkpt lat="43.99024" lon="5.91227">
        <ele>411</ele>
        <time>2020-10-05T09:42:23.000Z</time>
      </trkpt>
      <trkpt lat="43.99025" lon="5.91228">
        <ele>411</ele>
        <time>2020-10-05T09:42:24.000Z</time>
      </trkpt>
      <trkpt lat="43.99026" lon="5.91228">
        <ele>411</ele>
        <time>2020-10-05T09:42:25.000Z</time>
      </trkpt>
      <trkpt lat="43.99027" lon="5.91229">
        <ele>411</ele>
        <time>2020-10-05T09:42:26.000Z</time>
      </trkpt>
      <trkpt lat="43.99028" lon="5.91229">
        <ele>411</ele>
        <time>2020-10-05T09:42:27.000Z</time>
      </trkpt>
      <trkpt lat="43.99029" lon="5.9123">
        <ele>411</ele>
        <time>2020-10-05T09:42:28.000Z</time>
      </trkpt>
      <trkpt lat="43.9903" lon="5.91231">
        <ele>411</ele>
        <time>2020-10-05T09:42:29.000Z</time>
      </trkpt>
      <trkpt lat="43.99031" lon="5.91232">
        <ele>411</ele>
        <time>2020-10-05T09:42:30.000Z</time>
      </trkpt>
      <trkpt lat="43.99031" lon="5.91233">
        <ele>411</ele>
        <time>2020-10-05T09:42:31.000Z</time>
      </trkpt>
      <trkpt lat="43.99031" lon="5.91233">
        <ele>411</ele>
        <time>2020-10-05T09:42:32.000Z</time>
      </trkpt>
      <trkpt lat="43.99031" lon="5.91233">
        <ele>411</ele>
        <time>2020-10-05T09:42:33.000Z</time>
      </trkpt>
      <trkpt lat="43.99031" lon="5.91232">
        <ele>411</ele>
        <time>2020-10-05T09:42:34.000Z</time>
      </trkpt>
      <trkpt lat="43.99031" lon="5.91232">
        <ele>411</ele>
        <time>2020-10-05T09:42:35.000Z</time>
      </trkpt>
      <trkpt lat="43.99031" lon="5.91232">
        <ele>411</ele>
        <time>2020-10-05T09:42:36.000Z</time>
      </trkpt>
      <trkpt lat="43.99031" lon="5.91232">
        <ele>411</ele>
        <time>2020-10-05T09:42:37.000Z</time>
      </trkpt>
      <trkpt lat="43.99031" lon="5.91232">
        <ele>411</ele>
        <time>2020-10-05T09:42:38.000Z</time>
      </trkpt>
      <trkpt lat="43.99032" lon="5.91232">
        <ele>411</ele>
        <time>2020-10-05T09:42:39.000Z</time>
      </trkpt>
      <trkpt lat="43.99032" lon="5.91232">
        <ele>411</ele>
        <time>2020-10-05T09:42:40.000Z</time>
      </trkpt>
      <trkpt lat="43.99032" lon="5.91232">
        <ele>411</ele>
        <time>2020-10-05T09:42:41.000Z</time>
      </trkpt>
      <trkpt lat="43.99032" lon="5.91232">
        <ele>411</ele>
        <time>2020-10-05T09:42:42.000Z</time>
      </trkpt>
      <trkpt lat="43.99032" lon="5.91232">
        <ele>411</ele>
        <time>2020-10-05T09:42:43.000Z</time>
      </trkpt>
      <trkpt lat="43.99032" lon="5.91232">
        <ele>411</ele>
        <time>2020-10-05T09:42:44.000Z</time>
      </trkpt>
      <trkpt lat="43.99032" lon="5.91232">
        <ele>411</ele>
        <time>2020-10-05T09:42:45.000Z</time>
      </trkpt>
      <trkpt lat="43.99032" lon="5.91233">
        <ele>411</ele>
        <time>2020-10-05T09:42:46.000Z</time>
      </trkpt>
      <trkpt lat="43.99032" lon="5.91233">
        <ele>411</ele>
        <time>2020-10-05T09:42:47.000Z</time>
      </trkpt>
      <trkpt lat="43.99032" lon="5.91234">
        <ele>411</ele>
        <time>2020-10-05T09:42:48.000Z</time>
      </trkpt>
      <trkpt lat="43.99033" lon="5.91236">
        <ele>410</ele>
        <time>2020-10-05T09:42:49.000Z</time>
      </trkpt>
      <trkpt lat="43.99033" lon="5.91237">
        <ele>410</ele>
        <time>2020-10-05T09:42:50.000Z</time>
      </trkpt>
      <trkpt lat="43.99033" lon="5.91238">
        <ele>410</ele>
        <time>2020-10-05T09:42:51.000Z</time>
      </trkpt>
      <trkpt lat="43.99034" lon="5.91239">
        <ele>410</ele>
        <time>2020-10-05T09:42:52.000Z</time>
      </trkpt>
      <trkpt lat="43.99034" lon="5.91239">
        <ele>410</ele>
        <time>2020-10-05T09:42:53.000Z</time>
      </trkpt>
      <trkpt lat="43.99034" lon="5.9124">
        <ele>410</ele>
        <time>2020-10-05T09:42:54.000Z</time>
      </trkpt>
      <trkpt lat="43.99034" lon="5.91241">
        <ele>410</ele>
        <time>2020-10-05T09:42:55.000Z</time>
      </trkpt>
      <trkpt lat="43.99035" lon="5.91243">
        <ele>410</ele>
        <time>2020-10-05T09:42:56.000Z</time>
      </trkpt>
      <trkpt lat="43.99035" lon="5.91244">
        <ele>410</ele>
        <time>2020-10-05T09:42:57.000Z</time>
      </trkpt>
      <trkpt lat="43.99035" lon="5.91245">
        <ele>410</ele>
        <time>2020-10-05T09:42:58.000Z</time>
      </trkpt>
      <trkpt lat="43.99035" lon="5.91246">
        <ele>410</ele>
        <time>2020-10-05T09:42:59.000Z</time>
      </trkpt>
      <trkpt lat="43.99036" lon="5.91248">
        <ele>410</ele>
        <time>2020-10-05T09:43:00.000Z</time>
      </trkpt>
      <trkpt lat="43.99036" lon="5.91249">
        <ele>410</ele>
        <time>2020-10-05T09:43:01.000Z</time>
      </trkpt>
      <trkpt lat="43.99036" lon="5.9125">
        <ele>410</ele>
        <time>2020-10-05T09:43:02.000Z</time>
      </trkpt>
      <trkpt lat="43.99037" lon="5.91251">
        <ele>410</ele>
        <time>2020-10-05T09:43:03.000Z</time>
      </trkpt>
      <trkpt lat="43.99037" lon="5.91252">
        <ele>410</ele>
        <time>2020-10-05T09:43:04.000Z</time>
      </trkpt>
      <trkpt lat="43.99037" lon="5.91254">
        <ele>410</ele>
        <time>2020-10-05T09:43:05.000Z</time>
      </trkpt>
      <trkpt lat="43.99038" lon="5.91255">
        <ele>410</ele>
        <time>2020-10-05T09:43:06.000Z</time>
      </trkpt>
      <trkpt lat="43.99038" lon="5.91257">
        <ele>410</ele>
        <time>2020-10-05T09:43:07.000Z</time>
      </trkpt>
      <trkpt lat="43.99038" lon="5.91258">
        <ele>410</ele>
        <time>2020-10-05T09:43:08.000Z</time>
      </trkpt>
      <trkpt lat="43.99038" lon="5.9126">
        <ele>410</ele>
        <time>2020-10-05T09:43:09.000Z</time>
      </trkpt>
      <trkpt lat="43.99039" lon="5.91261">
        <ele>409</ele>
        <time>2020-10-05T09:43:10.000Z</time>
      </trkpt>
      <trkpt lat="43.99039" lon="5.91262">
        <ele>409</ele>
        <time>2020-10-05T09:43:11.000Z</time>
      </trkpt>
      <trkpt lat="43.99039" lon="5.91264">
        <ele>409</ele>
        <time>2020-10-05T09:43:12.000Z</time>
      </trkpt>
      <trkpt lat="43.9904" lon="5.91265">
        <ele>409</ele>
        <time>2020-10-05T09:43:13.000Z</time>
      </trkpt>
      <trkpt lat="43.99041" lon="5.91267">
        <ele>409</ele>
        <time>2020-10-05T09:43:14.000Z</time>
      </trkpt>
      <trkpt lat="43.99041" lon="5.91268">
        <ele>409</ele>
        <time>2020-10-05T09:43:15.000Z</time>
      </trkpt>
      <trkpt lat="43.99042" lon="5.91269">
        <ele>409</ele>
        <time>2020-10-05T09:43:16.000Z</time>
      </trkpt>
      <trkpt lat="43.99042" lon="5.91271">
        <ele>409</ele>
        <time>2020-10-05T09:43:17.000Z</time>
      </trkpt>
      <trkpt lat="43.99043" lon="5.91272">
        <ele>409</ele>
        <time>2020-10-05T09:43:18.000Z</time>
      </trkpt>
      <trkpt lat="43.99043" lon="5.91273">
        <ele>409</ele>
        <time>2020-10-05T09:43:19.000Z</time>
      </trkpt>
      <trkpt lat="43.99044" lon="5.91274">
        <ele>409</ele>
        <time>2020-10-05T09:43:20.000Z</time>
      </trkpt>
      <trkpt lat="43.99044" lon="5.91275">
        <ele>409</ele>
        <time>2020-10-05T09:43:21.000Z</time>
      </trkpt>
      <trkpt lat="43.99045" lon="5.91276">
        <ele>409</ele>
        <time>2020-10-05T09:43:22.000Z</time>
      </trkpt>
      <trkpt lat="43.99046" lon="5.91277">
        <ele>409</ele>
        <time>2020-10-05T09:43:23.000Z</time>
      </trkpt>
      <trkpt lat="43.99047" lon="5.91278">
        <ele>409</ele>
        <time>2020-10-05T09:43:24.000Z</time>
      </trkpt>
      <trkpt lat="43.99047" lon="5.91279">
        <ele>409</ele>
        <time>2020-10-05T09:43:25.000Z</time>
      </trkpt>
      <trkpt lat="43.99048" lon="5.9128">
        <ele>409</ele>
        <time>2020-10-05T09:43:26.000Z</time>
      </trkpt>
      <trkpt lat="43.99049" lon="5.91281">
        <ele>409</ele>
        <time>2020-10-05T09:43:27.000Z</time>
      </trkpt>
      <trkpt lat="43.9905" lon="5.91282">
        <ele>409</ele>
        <time>2020-10-05T09:43:28.000Z</time>
      </trkpt>
      <trkpt lat="43.9905" lon="5.91283">
        <ele>409</ele>
        <time>2020-10-05T09:43:29.000Z</time>
      </trkpt>
      <trkpt lat="43.99051" lon="5.91284">
        <ele>409</ele>
        <time>2020-10-05T09:43:30.000Z</time>
      </trkpt>
      <trkpt lat="43.99052" lon="5.91286">
        <ele>409</ele>
        <time>2020-10-05T09:43:31.000Z</time>
      </trkpt>
      <trkpt lat="43.99052" lon="5.91287">
        <ele>409</ele>
        <time>2020-10-05T09:43:32.000Z</time>
      </trkpt>
      <trkpt lat="43.99053" lon="5.91288">
        <ele>409</ele>
        <time>2020-10-05T09:43:33.000Z</time>
      </trkpt>
      <trkpt lat="43.99053" lon="5.91289">
        <ele>409</ele>
        <time>2020-10-05T09:43:34.000Z</time>
      </trkpt>
      <trkpt lat="43.99054" lon="5.9129">
        <ele>409</ele>
        <time>2020-10-05T09:43:35.000Z</time>
      </trkpt>
      <trkpt lat="43.99055" lon="5.91291">
        <ele>409</ele>
        <time>2020-10-05T09:43:36.000Z</time>
      </trkpt>
      <trkpt lat="43.99056" lon="5.91292">
        <ele>409</ele>
        <time>2020-10-05T09:43:37.000Z</time>
      </trkpt>
      <trkpt lat="43.99056" lon="5.91292">
        <ele>409</ele>
        <time>2020-10-05T09:43:38.000Z</time>
      </trkpt>
      <trkpt lat="43.99057" lon="5.91293">
        <ele>409</ele>
        <time>2020-10-05T09:43:39.000Z</time>
      </trkpt>
      <trkpt lat="43.99058" lon="5.91295">
        <ele>409</ele>
        <time>2020-10-05T09:43:40.000Z</time>
      </trkpt>
      <trkpt lat="43.99059" lon="5.91296">
        <ele>409</ele>
        <time>2020-10-05T09:43:41.000Z</time>
      </trkpt>
      <trkpt lat="43.99059" lon="5.91297">
        <ele>409</ele>
        <time>2020-10-05T09:43:42.000Z</time>
      </trkpt>
      <trkpt lat="43.9906" lon="5.91298">
        <ele>409</ele>
        <time>2020-10-05T09:43:43.000Z</time>
      </trkpt>
      <trkpt lat="43.9906" lon="5.91299">
        <ele>409</ele>
        <time>2020-10-05T09:43:44.000Z</time>
      </trkpt>
      <trkpt lat="43.99061" lon="5.913">
        <ele>409</ele>
        <time>2020-10-05T09:43:45.000Z</time>
      </trkpt>
      <trkpt lat="43.99062" lon="5.91302">
        <ele>409</ele>
        <time>2020-10-05T09:43:46.000Z</time>
      </trkpt>
      <trkpt lat="43.99063" lon="5.91303">
        <ele>409</ele>
        <time>2020-10-05T09:43:47.000Z</time>
      </trkpt>
      <trkpt lat="43.99063" lon="5.91304">
        <ele>409</ele>
        <time>2020-10-05T09:43:48.000Z</time>
      </trkpt>
      <trkpt lat="43.99064" lon="5.91305">
        <ele>409</ele>
        <time>2020-10-05T09:43:49.000Z</time>
      </trkpt>
      <trkpt lat="43.99064" lon="5.91306">
        <ele>409</ele>
        <time>2020-10-05T09:43:50.000Z</time>
      </trkpt>
      <trkpt lat="43.99065" lon="5.91307">
        <ele>409</ele>
        <time>2020-10-05T09:43:51.000Z</time>
      </trkpt>
      <trkpt lat="43.99066" lon="5.91308">
        <ele>409</ele>
        <time>2020-10-05T09:43:52.000Z</time>
      </trkpt>
      <trkpt lat="43.99066" lon="5.91309">
        <ele>409</ele>
        <time>2020-10-05T09:43:53.000Z</time>
      </trkpt>
      <trkpt lat="43.99067" lon="5.9131">
        <ele>409</ele>
        <time>2020-10-05T09:43:54.000Z</time>
      </trkpt>
      <trkpt lat="43.99068" lon="5.91311">
        <ele>409</ele>
        <time>2020-10-05T09:43:55.000Z</time>
      </trkpt>
      <trkpt lat="43.99068" lon="5.91312">
        <ele>409</ele>
        <time>2020-10-05T09:43:56.000Z</time>
      </trkpt>
      <trkpt lat="43.99069" lon="5.91313">
        <ele>409</ele>
        <time>2020-10-05T09:43:57.000Z</time>
      </trkpt>
      <trkpt lat="43.9907" lon="5.91313">
        <ele>409</ele>
        <time>2020-10-05T09:43:58.000Z</time>
      </trkpt>
      <trkpt lat="43.99071" lon="5.91314">
        <ele>409</ele>
        <time>2020-10-05T09:43:59.000Z</time>
      </trkpt>
      <trkpt lat="43.99071" lon="5.91315">
        <ele>409</ele>
        <time>2020-10-05T09:44:00.000Z</time>
      </trkpt>
      <trkpt lat="43.99072" lon="5.91316">
        <ele>409</ele>
        <time>2020-10-05T09:44:01.000Z</time>
      </trkpt>
      <trkpt lat="43.99073" lon="5.91316">
        <ele>409</ele>
        <time>2020-10-05T09:44:02.000Z</time>
      </trkpt>
      <trkpt lat="43.99073" lon="5.91318">
        <ele>409</ele>
        <time>2020-10-05T09:44:03.000Z</time>
      </trkpt>
      <trkpt lat="43.99074" lon="5.91319">
        <ele>409</ele>
        <time>2020-10-05T09:44:04.000Z</time>
      </trkpt>
      <trkpt lat="43.99075" lon="5.9132">
        <ele>409</ele>
        <time>2020-10-05T09:44:05.000Z</time>
      </trkpt>
      <trkpt lat="43.99075" lon="5.91321">
        <ele>409</ele>
        <time>2020-10-05T09:44:06.000Z</time>
      </trkpt>
      <trkpt lat="43.99076" lon="5.91323">
        <ele>409</ele>
        <time>2020-10-05T09:44:07.000Z</time>
      </trkpt>
      <trkpt lat="43.99077" lon="5.91324">
        <ele>409</ele>
        <time>2020-10-05T09:44:08.000Z</time>
      </trkpt>
      <trkpt lat="43.99077" lon="5.91325">
        <ele>409</ele>
        <time>2020-10-05T09:44:09.000Z</time>
      </trkpt>
      <trkpt lat="43.99078" lon="5.91327">
        <ele>409</ele>
        <time>2020-10-05T09:44:10.000Z</time>
      </trkpt>
      <trkpt lat="43.99078" lon="5.91328">
        <ele>409</ele>
        <time>2020-10-05T09:44:11.000Z</time>
      </trkpt>
      <trkpt lat="43.99078" lon="5.91329">
        <ele>409</ele>
        <time>2020-10-05T09:44:12.000Z</time>
      </trkpt>
      <trkpt lat="43.99079" lon="5.9133">
        <ele>409</ele>
        <time>2020-10-05T09:44:13.000Z</time>
      </trkpt>
      <trkpt lat="43.99079" lon="5.91331">
        <ele>409</ele>
        <time>2020-10-05T09:44:14.000Z</time>
      </trkpt>
      <trkpt lat="43.99079" lon="5.91332">
        <ele>409</ele>
        <time>2020-10-05T09:44:15.000Z</time>
      </trkpt>
      <trkpt lat="43.99079" lon="5.91332">
        <ele>409</ele>
        <time>2020-10-05T09:44:16.000Z</time>
      </trkpt>
      <trkpt lat="43.99079" lon="5.91333">
        <ele>409</ele>
        <time>2020-10-05T09:44:17.000Z</time>
      </trkpt>
      <trkpt lat="43.9908" lon="5.91333">
        <ele>409</ele>
        <time>2020-10-05T09:44:18.000Z</time>
      </trkpt>
      <trkpt lat="43.9908" lon="5.91334">
        <ele>409</ele>
        <time>2020-10-05T09:44:19.000Z</time>
      </trkpt>
      <trkpt lat="43.99081" lon="5.91335">
        <ele>409</ele>
        <time>2020-10-05T09:44:20.000Z</time>
      </trkpt>
      <trkpt lat="43.99081" lon="5.91335">
        <ele>409</ele>
        <time>2020-10-05T09:44:21.000Z</time>
      </trkpt>
      <trkpt lat="43.99082" lon="5.91336">
        <ele>409</ele>
        <time>2020-10-05T09:44:22.000Z</time>
      </trkpt>
      <trkpt lat="43.99083" lon="5.91337">
        <ele>409</ele>
        <time>2020-10-05T09:44:23.000Z</time>
      </trkpt>
      <trkpt lat="43.99083" lon="5.91338">
        <ele>409</ele>
        <time>2020-10-05T09:44:24.000Z</time>
      </trkpt>
      <trkpt lat="43.99084" lon="5.91339">
        <ele>409</ele>
        <time>2020-10-05T09:44:25.000Z</time>
      </trkpt>
      <trkpt lat="43.99085" lon="5.9134">
        <ele>410</ele>
        <time>2020-10-05T09:44:26.000Z</time>
      </trkpt>
      <trkpt lat="43.99086" lon="5.91341">
        <ele>410</ele>
        <time>2020-10-05T09:44:27.000Z</time>
      </trkpt>
      <trkpt lat="43.99086" lon="5.91342">
        <ele>410</ele>
        <time>2020-10-05T09:44:28.000Z</time>
      </trkpt>
      <trkpt lat="43.99087" lon="5.91343">
        <ele>410</ele>
        <time>2020-10-05T09:44:29.000Z</time>
      </trkpt>
      <trkpt lat="43.99088" lon="5.91344">
        <ele>410</ele>
        <time>2020-10-05T09:44:30.000Z</time>
      </trkpt>
      <trkpt lat="43.99088" lon="5.91345">
        <ele>410</ele>
        <time>2020-10-05T09:44:31.000Z</time>
      </trkpt>
      <trkpt lat="43.99089" lon="5.91346">
        <ele>410</ele>
        <time>2020-10-05T09:44:32.000Z</time>
      </trkpt>
      <trkpt lat="43.9909" lon="5.91347">
        <ele>410</ele>
        <time>2020-10-05T09:44:33.000Z</time>
      </trkpt>
      <trkpt lat="43.99091" lon="5.91347">
        <ele>410</ele>
        <time>2020-10-05T09:44:34.000Z</time>
      </trkpt>
      <trkpt lat="43.99092" lon="5.91348">
        <ele>410</ele>
        <time>2020-10-05T09:44:35.000Z</time>
      </trkpt>
      <trkpt lat="43.99093" lon="5.91349">
        <ele>410</ele>
        <time>2020-10-05T09:44:36.000Z</time>
      </trkpt>
      <trkpt lat="43.99094" lon="5.9135">
        <ele>411</ele>
        <time>2020-10-05T09:44:37.000Z</time>
      </trkpt>
      <trkpt lat="43.99095" lon="5.9135">
        <ele>411</ele>
        <time>2020-10-05T09:44:38.000Z</time>
      </trkpt>
      <trkpt lat="43.99096" lon="5.91351">
        <ele>410</ele>
        <time>2020-10-05T09:44:39.000Z</time>
      </trkpt>
      <trkpt lat="43.99097" lon="5.91352">
        <ele>410</ele>
        <time>2020-10-05T09:44:40.000Z</time>
      </trkpt>
      <trkpt lat="43.99098" lon="5.91353">
        <ele>411</ele>
        <time>2020-10-05T09:44:41.000Z</time>
      </trkpt>
      <trkpt lat="43.99099" lon="5.91353">
        <ele>411</ele>
        <time>2020-10-05T09:44:42.000Z</time>
      </trkpt>
      <trkpt lat="43.991" lon="5.91354">
        <ele>411</ele>
        <time>2020-10-05T09:44:43.000Z</time>
      </trkpt>
      <trkpt lat="43.99101" lon="5.91354">
        <ele>411</ele>
        <time>2020-10-05T09:44:44.000Z</time>
      </trkpt>
      <trkpt lat="43.99102" lon="5.91354">
        <ele>411</ele>
        <time>2020-10-05T09:44:45.000Z</time>
      </trkpt>
      <trkpt lat="43.99103" lon="5.91354">
        <ele>411</ele>
        <time>2020-10-05T09:44:46.000Z</time>
      </trkpt>
      <trkpt lat="43.99103" lon="5.91354">
        <ele>411</ele>
        <time>2020-10-05T09:44:47.000Z</time>
      </trkpt>
      <trkpt lat="43.99103" lon="5.91354">
        <ele>411</ele>
        <time>2020-10-05T09:44:48.000Z</time>
      </trkpt>
      <trkpt lat="43.99103" lon="5.91354">
        <ele>411</ele>
        <time>2020-10-05T09:44:49.000Z</time>
      </trkpt>
      <trkpt lat="43.99103" lon="5.91354">
        <ele>411</ele>
        <time>2020-10-05T09:44:50.000Z</time>
      </trkpt>
      <trkpt lat="43.99103" lon="5.91354">
        <ele>411</ele>
        <time>2020-10-05T09:44:51.000Z</time>
      </trkpt>
      <trkpt lat="43.99103" lon="5.91354">
        <ele>411</ele>
        <time>2020-10-05T09:44:52.000Z</time>
      </trkpt>
      <trkpt lat="43.99103" lon="5.91354">
        <ele>411</ele>
        <time>2020-10-05T09:44:53.000Z</time>
      </trkpt>
      <trkpt lat="43.99103" lon="5.91354">
        <ele>411</ele>
        <time>2020-10-05T09:44:54.000Z</time>
      </trkpt>
      <trkpt lat="43.99103" lon="5.91354">
        <ele>411</ele>
        <time>2020-10-05T09:44:55.000Z</time>
      </trkpt>
      <trkpt lat="43.99103" lon="5.91354">
        <ele>411</ele>
        <time>2020-10-05T09:44:56.000Z</time>
      </trkpt>
      <trkpt lat="43.99104" lon="5.91354">
        <ele>411</ele>
        <time>2020-10-05T09:44:57.000Z</time>
      </trkpt>
      <trkpt lat="43.99105" lon="5.91354">
        <ele>411</ele>
        <time>2020-10-05T09:44:58.000Z</time>
      </trkpt>
      <trkpt lat="43.99106" lon="5.91354">
        <ele>411</ele>
        <time>2020-10-05T09:44:59.000Z</time>
      </trkpt>
      <trkpt lat="43.99107" lon="5.91353">
        <ele>411</ele>
        <time>2020-10-05T09:45:00.000Z</time>
      </trkpt>
      <trkpt lat="43.99108" lon="5.91353">
        <ele>411</ele>
        <time>2020-10-05T09:45:01.000Z</time>
      </trkpt>
      <trkpt lat="43.9911" lon="5.91353">
        <ele>411</ele>
        <time>2020-10-05T09:45:02.000Z</time>
      </trkpt>
      <trkpt lat="43.99111" lon="5.91353">
        <ele>411</ele>
        <time>2020-10-05T09:45:03.000Z</time>
      </trkpt>
      <trkpt lat="43.99112" lon="5.91352">
        <ele>411</ele>
        <time>2020-10-05T09:45:04.000Z</time>
      </trkpt>
      <trkpt lat="43.99113" lon="5.91352">
        <ele>411</ele>
        <time>2020-10-05T09:45:05.000Z</time>
      </trkpt>
      <trkpt lat="43.99114" lon="5.91352">
        <ele>411</ele>
        <time>2020-10-05T09:45:06.000Z</time>
      </trkpt>
      <trkpt lat="43.99115" lon="5.91352">
        <ele>411</ele>
        <time>2020-10-05T09:45:07.000Z</time>
      </trkpt>
      <trkpt lat="43.99116" lon="5.91351">
        <ele>411</ele>
        <time>2020-10-05T09:45:08.000Z</time>
      </trkpt>
      <trkpt lat="43.99117" lon="5.91351">
        <ele>412</ele>
        <time>2020-10-05T09:45:09.000Z</time>
      </trkpt>
      <trkpt lat="43.99118" lon="5.91351">
        <ele>412</ele>
        <time>2020-10-05T09:45:10.000Z</time>
      </trkpt>
      <trkpt lat="43.99118" lon="5.9135">
        <ele>412</ele>
        <time>2020-10-05T09:45:11.000Z</time>
      </trkpt>
      <trkpt lat="43.99118" lon="5.9135">
        <ele>412</ele>
        <time>2020-10-05T09:45:12.000Z</time>
      </trkpt>
      <trkpt lat="43.99118" lon="5.9135">
        <ele>412</ele>
        <time>2020-10-05T09:45:13.000Z</time>
      </trkpt>
      <trkpt lat="43.99118" lon="5.9135">
        <ele>412</ele>
        <time>2020-10-05T09:45:14.000Z</time>
      </trkpt>
      <trkpt lat="43.99118" lon="5.91351">
        <ele>412</ele>
        <time>2020-10-05T09:45:15.000Z</time>
      </trkpt>
      <trkpt lat="43.99118" lon="5.91351">
        <ele>412</ele>
        <time>2020-10-05T09:45:16.000Z</time>
      </trkpt>
      <trkpt lat="43.99118" lon="5.91351">
        <ele>412</ele>
        <time>2020-10-05T09:45:17.000Z</time>
      </trkpt>
      <trkpt lat="43.99118" lon="5.91351">
        <ele>412</ele>
        <time>2020-10-05T09:45:18.000Z</time>
      </trkpt>
      <trkpt lat="43.99118" lon="5.9135">
        <ele>412</ele>
        <time>2020-10-05T09:45:19.000Z</time>
      </trkpt>
      <trkpt lat="43.99118" lon="5.9135">
        <ele>412</ele>
        <time>2020-10-05T09:45:20.000Z</time>
      </trkpt>
      <trkpt lat="43.99119" lon="5.91349">
        <ele>412</ele>
        <time>2020-10-05T09:45:21.000Z</time>
      </trkpt>
      <trkpt lat="43.99119" lon="5.91348">
        <ele>412</ele>
        <time>2020-10-05T09:45:22.000Z</time>
      </trkpt>
      <trkpt lat="43.99119" lon="5.91348">
        <ele>412</ele>
        <time>2020-10-05T09:45:23.000Z</time>
      </trkpt>
      <trkpt lat="43.99119" lon="5.91347">
        <ele>412</ele>
        <time>2020-10-05T09:45:24.000Z</time>
      </trkpt>
      <trkpt lat="43.99119" lon="5.91347">
        <ele>412</ele>
        <time>2020-10-05T09:45:25.000Z</time>
      </trkpt>
      <trkpt lat="43.99119" lon="5.91346">
        <ele>412</ele>
        <time>2020-10-05T09:45:26.000Z</time>
      </trkpt>
      <trkpt lat="43.99119" lon="5.91345">
        <ele>413</ele>
        <time>2020-10-05T09:45:27.000Z</time>
      </trkpt>
      <trkpt lat="43.99119" lon="5.91344">
        <ele>413</ele>
        <time>2020-10-05T09:45:28.000Z</time>
      </trkpt>
      <trkpt lat="43.99119" lon="5.91344">
        <ele>413</ele>
        <time>2020-10-05T09:45:29.000Z</time>
      </trkpt>
      <trkpt lat="43.99119" lon="5.91343">
        <ele>413</ele>
        <time>2020-10-05T09:45:30.000Z</time>
      </trkpt>
      <trkpt lat="43.9912" lon="5.91343">
        <ele>414</ele>
        <time>2020-10-05T09:45:31.000Z</time>
      </trkpt>
      <trkpt lat="43.9912" lon="5.91342">
        <ele>414</ele>
        <time>2020-10-05T09:45:32.000Z</time>
      </trkpt>
      <trkpt lat="43.9912" lon="5.91342">
        <ele>414</ele>
        <time>2020-10-05T09:45:33.000Z</time>
      </trkpt>
      <trkpt lat="43.9912" lon="5.91341">
        <ele>414</ele>
        <time>2020-10-05T09:45:34.000Z</time>
      </trkpt>
      <trkpt lat="43.99121" lon="5.91341">
        <ele>414</ele>
        <time>2020-10-05T09:45:35.000Z</time>
      </trkpt>
      <trkpt lat="43.99121" lon="5.9134">
        <ele>415</ele>
        <time>2020-10-05T09:45:36.000Z</time>
      </trkpt>
      <trkpt lat="43.99121" lon="5.91339">
        <ele>415</ele>
        <time>2020-10-05T09:45:37.000Z</time>
      </trkpt>
      <trkpt lat="43.99122" lon="5.91339">
        <ele>415</ele>
        <time>2020-10-05T09:45:38.000Z</time>
      </trkpt>
      <trkpt lat="43.99122" lon="5.91338">
        <ele>415</ele>
        <time>2020-10-05T09:45:39.000Z</time>
      </trkpt>
      <trkpt lat="43.99123" lon="5.91338">
        <ele>415</ele>
        <time>2020-10-05T09:45:40.000Z</time>
      </trkpt>
      <trkpt lat="43.99124" lon="5.91338">
        <ele>415</ele>
        <time>2020-10-05T09:45:41.000Z</time>
      </trkpt>
      <trkpt lat="43.99124" lon="5.91338">
        <ele>415</ele>
        <time>2020-10-05T09:45:42.000Z</time>
      </trkpt>
      <trkpt lat="43.99125" lon="5.91338">
        <ele>415</ele>
        <time>2020-10-05T09:45:43.000Z</time>
      </trkpt>
      <trkpt lat="43.99125" lon="5.91337">
        <ele>415</ele>
        <time>2020-10-05T09:45:44.000Z</time>
      </trkpt>
      <trkpt lat="43.99126" lon="5.91337">
        <ele>415</ele>
        <time>2020-10-05T09:45:45.000Z</time>
      </trkpt>
      <trkpt lat="43.99127" lon="5.91336">
        <ele>415</ele>
        <time>2020-10-05T09:45:46.000Z</time>
      </trkpt>
      <trkpt lat="43.99127" lon="5.91336">
        <ele>415</ele>
        <time>2020-10-05T09:45:47.000Z</time>
      </trkpt>
      <trkpt lat="43.99128" lon="5.91335">
        <ele>415</ele>
        <time>2020-10-05T09:45:48.000Z</time>
      </trkpt>
      <trkpt lat="43.99128" lon="5.91335">
        <ele>415</ele>
        <time>2020-10-05T09:45:49.000Z</time>
      </trkpt>
      <trkpt lat="43.99129" lon="5.91335">
        <ele>415</ele>
        <time>2020-10-05T09:45:50.000Z</time>
      </trkpt>
      <trkpt lat="43.9913" lon="5.91334">
        <ele>415</ele>
        <time>2020-10-05T09:45:51.000Z</time>
      </trkpt>
      <trkpt lat="43.99131" lon="5.91334">
        <ele>415</ele>
        <time>2020-10-05T09:45:52.000Z</time>
      </trkpt>
      <trkpt lat="43.99132" lon="5.91334">
        <ele>415</ele>
        <time>2020-10-05T09:45:53.000Z</time>
      </trkpt>
      <trkpt lat="43.99132" lon="5.91334">
        <ele>416</ele>
        <time>2020-10-05T09:45:54.000Z</time>
      </trkpt>
      <trkpt lat="43.99133" lon="5.91334">
        <ele>416</ele>
        <time>2020-10-05T09:45:55.000Z</time>
      </trkpt>
      <trkpt lat="43.99133" lon="5.91334">
        <ele>416</ele>
        <time>2020-10-05T09:45:56.000Z</time>
      </trkpt>
      <trkpt lat="43.99134" lon="5.91334">
        <ele>416</ele>
        <time>2020-10-05T09:45:57.000Z</time>
      </trkpt>
      <trkpt lat="43.99135" lon="5.91334">
        <ele>416</ele>
        <time>2020-10-05T09:45:58.000Z</time>
      </trkpt>
      <trkpt lat="43.99135" lon="5.91334">
        <ele>416</ele>
        <time>2020-10-05T09:45:59.000Z</time>
      </trkpt>
      <trkpt lat="43.99135" lon="5.91334">
        <ele>416</ele>
        <time>2020-10-05T09:46:00.000Z</time>
      </trkpt>
      <trkpt lat="43.99136" lon="5.91334">
        <ele>416</ele>
        <time>2020-10-05T09:46:01.000Z</time>
      </trkpt>
      <trkpt lat="43.99136" lon="5.91334">
        <ele>416</ele>
        <time>2020-10-05T09:46:02.000Z</time>
      </trkpt>
      <trkpt lat="43.99136" lon="5.91334">
        <ele>416</ele>
        <time>2020-10-05T09:46:03.000Z</time>
      </trkpt>
      <trkpt lat="43.99136" lon="5.91334">
        <ele>416</ele>
        <time>2020-10-05T09:46:04.000Z</time>
      </trkpt>
      <trkpt lat="43.99136" lon="5.91334">
        <ele>416</ele>
        <time>2020-10-05T09:46:05.000Z</time>
      </trkpt>
      <trkpt lat="43.99136" lon="5.91334">
        <ele>416</ele>
        <time>2020-10-05T09:46:06.000Z</time>
      </trkpt>
      <trkpt lat="43.99136" lon="5.91334">
        <ele>416</ele>
        <time>2020-10-05T09:46:07.000Z</time>
      </trkpt>
      <trkpt lat="43.99136" lon="5.91334">
        <ele>416</ele>
        <time>2020-10-05T09:46:08.000Z</time>
      </trkpt>
      <trkpt lat="43.99136" lon="5.91334">
        <ele>416</ele>
        <time>2020-10-05T09:46:09.000Z</time>
      </trkpt>
      <trkpt lat="43.99136" lon="5.91334">
        <ele>416</ele>
        <time>2020-10-05T09:46:10.000Z</time>
      </trkpt>
      <trkpt lat="43.99136" lon="5.91334">
        <ele>416</ele>
        <time>2020-10-05T09:46:11.000Z</time>
      </trkpt>
      <trkpt lat="43.99136" lon="5.91334">
        <ele>416</ele>
        <time>2020-10-05T09:46:12.000Z</time>
      </trkpt>
      <trkpt lat="43.99136" lon="5.91334">
        <ele>416</ele>
        <time>2020-10-05T09:46:13.000Z</time>
      </trkpt>
      <trkpt lat="43.99136" lon="5.91334">
        <ele>416</ele>
        <time>2020-10-05T09:46:14.000Z</time>
      </trkpt>
      <trkpt lat="43.99136" lon="5.91334">
        <ele>416</ele>
        <time>2020-10-05T09:46:15.000Z</time>
      </trkpt>
      <trkpt lat="43.99136" lon="5.91334">
        <ele>416</ele>
        <time>2020-10-05T09:46:16.000Z</time>
      </trkpt>
      <trkpt lat="43.99137" lon="5.91334">
        <ele>416</ele>
        <time>2020-10-05T09:46:17.000Z</time>
      </trkpt>
      <trkpt lat="43.99137" lon="5.91334">
        <ele>416</ele>
        <time>2020-10-05T09:46:18.000Z</time>
      </trkpt>
      <trkpt lat="43.99137" lon="5.91334">
        <ele>416</ele>
        <time>2020-10-05T09:46:19.000Z</time>
      </trkpt>
      <trkpt lat="43.99138" lon="5.91334">
        <ele>416</ele>
        <time>2020-10-05T09:46:20.000Z</time>
      </trkpt>
      <trkpt lat="43.99138" lon="5.91334">
        <ele>417</ele>
        <time>2020-10-05T09:46:21.000Z</time>
      </trkpt>
      <trkpt lat="43.99138" lon="5.91335">
        <ele>417</ele>
        <time>2020-10-05T09:46:22.000Z</time>
      </trkpt>
      <trkpt lat="43.99138" lon="5.91335">
        <ele>417</ele>
        <time>2020-10-05T09:46:23.000Z</time>
      </trkpt>
      <trkpt lat="43.99137" lon="5.91334">
        <ele>417</ele>
        <time>2020-10-05T09:46:24.000Z</time>
      </trkpt>
      <trkpt lat="43.99137" lon="5.91335">
        <ele>417</ele>
        <time>2020-10-05T09:46:25.000Z</time>
      </trkpt>
      <trkpt lat="43.99137" lon="5.91335">
        <ele>417</ele>
        <time>2020-10-05T09:46:26.000Z</time>
      </trkpt>
      <trkpt lat="43.99137" lon="5.91335">
        <ele>417</ele>
        <time>2020-10-05T09:46:27.000Z</time>
      </trkpt>
      <trkpt lat="43.99138" lon="5.91335">
        <ele>417</ele>
        <time>2020-10-05T09:46:28.000Z</time>
      </trkpt>
      <trkpt lat="43.99138" lon="5.91334">
        <ele>417</ele>
        <time>2020-10-05T09:46:29.000Z</time>
      </trkpt>
      <trkpt lat="43.99139" lon="5.91334">
        <ele>417</ele>
        <time>2020-10-05T09:46:30.000Z</time>
      </trkpt>
      <trkpt lat="43.9914" lon="5.91334">
        <ele>417</ele>
        <time>2020-10-05T09:46:31.000Z</time>
      </trkpt>
      <trkpt lat="43.99141" lon="5.91334">
        <ele>418</ele>
        <time>2020-10-05T09:46:32.000Z</time>
      </trkpt>
      <trkpt lat="43.99141" lon="5.91334">
        <ele>418</ele>
        <time>2020-10-05T09:46:33.000Z</time>
      </trkpt>
      <trkpt lat="43.99142" lon="5.91334">
        <ele>418</ele>
        <time>2020-10-05T09:46:34.000Z</time>
      </trkpt>
      <trkpt lat="43.99142" lon="5.91334">
        <ele>418</ele>
        <time>2020-10-05T09:46:35.000Z</time>
      </trkpt>
      <trkpt lat="43.99143" lon="5.91334">
        <ele>418</ele>
        <time>2020-10-05T09:46:36.000Z</time>
      </trkpt>
      <trkpt lat="43.99144" lon="5.91334">
        <ele>418</ele>
        <time>2020-10-05T09:46:37.000Z</time>
      </trkpt>
      <trkpt lat="43.99145" lon="5.91333">
        <ele>418</ele>
        <time>2020-10-05T09:46:38.000Z</time>
      </trkpt>
      <trkpt lat="43.99145" lon="5.91333">
        <ele>418</ele>
        <time>2020-10-05T09:46:39.000Z</time>
      </trkpt>
      <trkpt lat="43.99146" lon="5.91332">
        <ele>418</ele>
        <time>2020-10-05T09:46:40.000Z</time>
      </trkpt>
      <trkpt lat="43.99147" lon="5.91332">
        <ele>418</ele>
        <time>2020-10-05T09:46:41.000Z</time>
      </trkpt>
      <trkpt lat="43.99147" lon="5.91331">
        <ele>418</ele>
        <time>2020-10-05T09:46:42.000Z</time>
      </trkpt>
      <trkpt lat="43.99148" lon="5.9133">
        <ele>418</ele>
        <time>2020-10-05T09:46:43.000Z</time>
      </trkpt>
      <trkpt lat="43.99149" lon="5.9133">
        <ele>418</ele>
        <time>2020-10-05T09:46:44.000Z</time>
      </trkpt>
      <trkpt lat="43.99149" lon="5.91329">
        <ele>418</ele>
        <time>2020-10-05T09:46:45.000Z</time>
      </trkpt>
      <trkpt lat="43.9915" lon="5.91328">
        <ele>418</ele>
        <time>2020-10-05T09:46:46.000Z</time>
      </trkpt>
      <trkpt lat="43.9915" lon="5.91328">
        <ele>418</ele>
        <time>2020-10-05T09:46:47.000Z</time>
      </trkpt>
      <trkpt lat="43.99151" lon="5.91327">
        <ele>418</ele>
        <time>2020-10-05T09:46:48.000Z</time>
      </trkpt>
      <trkpt lat="43.99151" lon="5.91327">
        <ele>418</ele>
        <time>2020-10-05T09:46:49.000Z</time>
      </trkpt>
      <trkpt lat="43.99152" lon="5.91326">
        <ele>418</ele>
        <time>2020-10-05T09:46:50.000Z</time>
      </trkpt>
      <trkpt lat="43.99153" lon="5.91326">
        <ele>418</ele>
        <time>2020-10-05T09:46:51.000Z</time>
      </trkpt>
      <trkpt lat="43.99153" lon="5.91326">
        <ele>418</ele>
        <time>2020-10-05T09:46:52.000Z</time>
      </trkpt>
      <trkpt lat="43.99154" lon="5.91326">
        <ele>418</ele>
        <time>2020-10-05T09:46:53.000Z</time>
      </trkpt>
      <trkpt lat="43.99154" lon="5.91326">
        <ele>418</ele>
        <time>2020-10-05T09:46:54.000Z</time>
      </trkpt>
      <trkpt lat="43.99154" lon="5.91327">
        <ele>418</ele>
        <time>2020-10-05T09:46:55.000Z</time>
      </trkpt>
      <trkpt lat="43.99154" lon="5.91327">
        <ele>418</ele>
        <time>2020-10-05T09:46:56.000Z</time>
      </trkpt>
      <trkpt lat="43.99154" lon="5.91328">
        <ele>418</ele>
        <time>2020-10-05T09:46:57.000Z</time>
      </trkpt>
      <trkpt lat="43.99154" lon="5.91328">
        <ele>418</ele>
        <time>2020-10-05T09:46:58.000Z</time>
      </trkpt>
      <trkpt lat="43.99154" lon="5.91329">
        <ele>419</ele>
        <time>2020-10-05T09:46:59.000Z</time>
      </trkpt>
      <trkpt lat="43.99154" lon="5.9133">
        <ele>419</ele>
        <time>2020-10-05T09:47:00.000Z</time>
      </trkpt>
      <trkpt lat="43.99155" lon="5.91331">
        <ele>419</ele>
        <time>2020-10-05T09:47:01.000Z</time>
      </trkpt>
      <trkpt lat="43.99155" lon="5.91332">
        <ele>419</ele>
        <time>2020-10-05T09:47:02.000Z</time>
      </trkpt>
      <trkpt lat="43.99155" lon="5.91333">
        <ele>419</ele>
        <time>2020-10-05T09:47:03.000Z</time>
      </trkpt>
      <trkpt lat="43.99155" lon="5.91333">
        <ele>419</ele>
        <time>2020-10-05T09:47:04.000Z</time>
      </trkpt>
      <trkpt lat="43.99155" lon="5.91334">
        <ele>419</ele>
        <time>2020-10-05T09:47:05.000Z</time>
      </trkpt>
      <trkpt lat="43.99155" lon="5.91334">
        <ele>419</ele>
        <time>2020-10-05T09:47:06.000Z</time>
      </trkpt>
      <trkpt lat="43.99155" lon="5.91334">
        <ele>419</ele>
        <time>2020-10-05T09:47:07.000Z</time>
      </trkpt>
      <trkpt lat="43.99155" lon="5.91334">
        <ele>419</ele>
        <time>2020-10-05T09:47:08.000Z</time>
      </trkpt>
      <trkpt lat="43.99155" lon="5.91334">
        <ele>419</ele>
        <time>2020-10-05T09:47:09.000Z</time>
      </trkpt>
      <trkpt lat="43.99155" lon="5.91334">
        <ele>420</ele>
        <time>2020-10-05T09:47:10.000Z</time>
      </trkpt>
      <trkpt lat="43.99156" lon="5.91334">
        <ele>420</ele>
        <time>2020-10-05T09:47:11.000Z</time>
      </trkpt>
      <trkpt lat="43.99156" lon="5.91334">
        <ele>420</ele>
        <time>2020-10-05T09:47:12.000Z</time>
      </trkpt>
      <trkpt lat="43.99156" lon="5.91334">
        <ele>420</ele>
        <time>2020-10-05T09:47:13.000Z</time>
      </trkpt>
      <trkpt lat="43.99156" lon="5.91334">
        <ele>420</ele>
        <time>2020-10-05T09:47:14.000Z</time>
      </trkpt>
      <trkpt lat="43.99156" lon="5.91334">
        <ele>420</ele>
        <time>2020-10-05T09:47:15.000Z</time>
      </trkpt>
      <trkpt lat="43.99156" lon="5.91334">
        <ele>420</ele>
        <time>2020-10-05T09:47:16.000Z</time>
      </trkpt>
      <trkpt lat="43.99156" lon="5.91334">
        <ele>420</ele>
        <time>2020-10-05T09:47:17.000Z</time>
      </trkpt>
      <trkpt lat="43.99156" lon="5.91334">
        <ele>420</ele>
        <time>2020-10-05T09:47:18.000Z</time>
      </trkpt>
      <trkpt lat="43.99156" lon="5.91334">
        <ele>420</ele>
        <time>2020-10-05T09:47:19.000Z</time>
      </trkpt>
      <trkpt lat="43.99156" lon="5.91334">
        <ele>420</ele>
        <time>2020-10-05T09:47:20.000Z</time>
      </trkpt>
      <trkpt lat="43.99156" lon="5.91335">
        <ele>420</ele>
        <time>2020-10-05T09:47:21.000Z</time>
      </trkpt>
      <trkpt lat="43.99155" lon="5.91336">
        <ele>420</ele>
        <time>2020-10-05T09:47:22.000Z</time>
      </trkpt>
      <trkpt lat="43.99155" lon="5.91337">
        <ele>420</ele>
        <time>2020-10-05T09:47:23.000Z</time>
      </trkpt>
      <trkpt lat="43.99155" lon="5.91338">
        <ele>420</ele>
        <time>2020-10-05T09:47:24.000Z</time>
      </trkpt>
      <trkpt lat="43.99154" lon="5.91339">
        <ele>420</ele>
        <time>2020-10-05T09:47:25.000Z</time>
      </trkpt>
      <trkpt lat="43.99154" lon="5.91339">
        <ele>420</ele>
        <time>2020-10-05T09:47:26.000Z</time>
      </trkpt>
      <trkpt lat="43.99154" lon="5.91339">
        <ele>420</ele>
        <time>2020-10-05T09:47:27.000Z</time>
      </trkpt>
      <trkpt lat="43.99154" lon="5.9134">
        <ele>420</ele>
        <time>2020-10-05T09:47:28.000Z</time>
      </trkpt>
      <trkpt lat="43.99154" lon="5.91341">
        <ele>420</ele>
        <time>2020-10-05T09:47:29.000Z</time>
      </trkpt>
      <trkpt lat="43.99154" lon="5.91341">
        <ele>420</ele>
        <time>2020-10-05T09:47:30.000Z</time>
      </trkpt>
      <trkpt lat="43.99155" lon="5.91342">
        <ele>420</ele>
        <time>2020-10-05T09:47:31.000Z</time>
      </trkpt>
      <trkpt lat="43.99155" lon="5.91342">
        <ele>420</ele>
        <time>2020-10-05T09:47:32.000Z</time>
      </trkpt>
      <trkpt lat="43.99155" lon="5.91343">
        <ele>420</ele>
        <time>2020-10-05T09:47:33.000Z</time>
      </trkpt>
      <trkpt lat="43.99156" lon="5.91343">
        <ele>420</ele>
        <time>2020-10-05T09:47:34.000Z</time>
      </trkpt>
      <trkpt lat="43.99156" lon="5.91344">
        <ele>420</ele>
        <time>2020-10-05T09:47:35.000Z</time>
      </trkpt>
      <trkpt lat="43.99157" lon="5.91344">
        <ele>420</ele>
        <time>2020-10-05T09:47:36.000Z</time>
      </trkpt>
      <trkpt lat="43.99157" lon="5.91345">
        <ele>420</ele>
        <time>2020-10-05T09:47:37.000Z</time>
      </trkpt>
      <trkpt lat="43.99157" lon="5.91345">
        <ele>420</ele>
        <time>2020-10-05T09:47:38.000Z</time>
      </trkpt>
      <trkpt lat="43.99157" lon="5.91345">
        <ele>420</ele>
        <time>2020-10-05T09:47:39.000Z</time>
      </trkpt>
      <trkpt lat="43.99157" lon="5.91345">
        <ele>420</ele>
        <time>2020-10-05T09:47:40.000Z</time>
      </trkpt>
      <trkpt lat="43.99157" lon="5.91345">
        <ele>420</ele>
        <time>2020-10-05T09:47:41.000Z</time>
      </trkpt>
      <trkpt lat="43.99158" lon="5.91345">
        <ele>420</ele>
        <time>2020-10-05T09:47:42.000Z</time>
      </trkpt>
      <trkpt lat="43.99158" lon="5.91346">
        <ele>420</ele>
        <time>2020-10-05T09:47:43.000Z</time>
      </trkpt>
      <trkpt lat="43.99158" lon="5.91346">
        <ele>420</ele>
        <time>2020-10-05T09:47:44.000Z</time>
      </trkpt>
      <trkpt lat="43.99158" lon="5.91346">
        <ele>420</ele>
        <time>2020-10-05T09:47:45.000Z</time>
      </trkpt>
      <trkpt lat="43.99158" lon="5.91346">
        <ele>420</ele>
        <time>2020-10-05T09:47:46.000Z</time>
      </trkpt>
      <trkpt lat="43.99158" lon="5.91346">
        <ele>420</ele>
        <time>2020-10-05T09:47:47.000Z</time>
      </trkpt>
      <trkpt lat="43.99158" lon="5.91346">
        <ele>420</ele>
        <time>2020-10-05T09:47:48.000Z</time>
      </trkpt>
      <trkpt lat="43.99158" lon="5.91346">
        <ele>420</ele>
        <time>2020-10-05T09:47:49.000Z</time>
      </trkpt>
      <trkpt lat="43.99159" lon="5.91346">
        <ele>420</ele>
        <time>2020-10-05T09:47:50.000Z</time>
      </trkpt>
      <trkpt lat="43.99159" lon="5.91346">
        <ele>420</ele>
        <time>2020-10-05T09:47:51.000Z</time>
      </trkpt>
      <trkpt lat="43.99159" lon="5.91347">
        <ele>420</ele>
        <time>2020-10-05T09:47:52.000Z</time>
      </trkpt>
      <trkpt lat="43.99159" lon="5.91347">
        <ele>420</ele>
        <time>2020-10-05T09:47:53.000Z</time>
      </trkpt>
      <trkpt lat="43.9916" lon="5.91347">
        <ele>420</ele>
        <time>2020-10-05T09:47:54.000Z</time>
      </trkpt>
      <trkpt lat="43.9916" lon="5.91347">
        <ele>420</ele>
        <time>2020-10-05T09:47:55.000Z</time>
      </trkpt>
      <trkpt lat="43.9916" lon="5.91347">
        <ele>420</ele>
        <time>2020-10-05T09:47:56.000Z</time>
      </trkpt>
      <trkpt lat="43.9916" lon="5.91347">
        <ele>420</ele>
        <time>2020-10-05T09:47:57.000Z</time>
      </trkpt>
      <trkpt lat="43.9916" lon="5.91347">
        <ele>420</ele>
        <time>2020-10-05T09:47:58.000Z</time>
      </trkpt>
      <trkpt lat="43.9916" lon="5.91348">
        <ele>420</ele>
        <time>2020-10-05T09:47:59.000Z</time>
      </trkpt>
      <trkpt lat="43.9916" lon="5.91348">
        <ele>421</ele>
        <time>2020-10-05T09:48:00.000Z</time>
      </trkpt>
      <trkpt lat="43.99161" lon="5.91348">
        <ele>421</ele>
        <time>2020-10-05T09:48:01.000Z</time>
      </trkpt>
      <trkpt lat="43.99161" lon="5.91348">
        <ele>421</ele>
        <time>2020-10-05T09:48:02.000Z</time>
      </trkpt>
      <trkpt lat="43.99161" lon="5.91348">
        <ele>421</ele>
        <time>2020-10-05T09:48:03.000Z</time>
      </trkpt>
      <trkpt lat="43.99161" lon="5.91348">
        <ele>421</ele>
        <time>2020-10-05T09:48:04.000Z</time>
      </trkpt>
      <trkpt lat="43.99161" lon="5.91348">
        <ele>421</ele>
        <time>2020-10-05T09:48:05.000Z</time>
      </trkpt>
      <trkpt lat="43.99161" lon="5.91349">
        <ele>421</ele>
        <time>2020-10-05T09:48:06.000Z</time>
      </trkpt>
      <trkpt lat="43.99161" lon="5.91349">
        <ele>421</ele>
        <time>2020-10-05T09:48:07.000Z</time>
      </trkpt>
      <trkpt lat="43.99162" lon="5.91349">
        <ele>421</ele>
        <time>2020-10-05T09:48:08.000Z</time>
      </trkpt>
      <trkpt lat="43.99163" lon="5.9135">
        <ele>421</ele>
        <time>2020-10-05T09:48:09.000Z</time>
      </trkpt>
      <trkpt lat="43.99163" lon="5.9135">
        <ele>421</ele>
        <time>2020-10-05T09:48:10.000Z</time>
      </trkpt>
      <trkpt lat="43.99163" lon="5.91352">
        <ele>421</ele>
        <time>2020-10-05T09:48:11.000Z</time>
      </trkpt>
      <trkpt lat="43.99164" lon="5.91353">
        <ele>421</ele>
        <time>2020-10-05T09:48:12.000Z</time>
      </trkpt>
      <trkpt lat="43.99164" lon="5.91354">
        <ele>422</ele>
        <time>2020-10-05T09:48:13.000Z</time>
      </trkpt>
      <trkpt lat="43.99164" lon="5.91354">
        <ele>422</ele>
        <time>2020-10-05T09:48:14.000Z</time>
      </trkpt>
      <trkpt lat="43.99164" lon="5.91355">
        <ele>422</ele>
        <time>2020-10-05T09:48:15.000Z</time>
      </trkpt>
      <trkpt lat="43.99165" lon="5.91355">
        <ele>422</ele>
        <time>2020-10-05T09:48:16.000Z</time>
      </trkpt>
      <trkpt lat="43.99165" lon="5.91356">
        <ele>422</ele>
        <time>2020-10-05T09:48:17.000Z</time>
      </trkpt>
      <trkpt lat="43.99164" lon="5.91356">
        <ele>422</ele>
        <time>2020-10-05T09:48:18.000Z</time>
      </trkpt>
      <trkpt lat="43.99164" lon="5.91356">
        <ele>422</ele>
        <time>2020-10-05T09:48:19.000Z</time>
      </trkpt>
      <trkpt lat="43.99164" lon="5.91356">
        <ele>421</ele>
        <time>2020-10-05T09:48:20.000Z</time>
      </trkpt>
      <trkpt lat="43.99164" lon="5.91355">
        <ele>421</ele>
        <time>2020-10-05T09:48:21.000Z</time>
      </trkpt>
      <trkpt lat="43.99164" lon="5.91355">
        <ele>421</ele>
        <time>2020-10-05T09:48:22.000Z</time>
      </trkpt>
      <trkpt lat="43.99164" lon="5.91355">
        <ele>420</ele>
        <time>2020-10-05T09:48:23.000Z</time>
      </trkpt>
      <trkpt lat="43.99164" lon="5.91355">
        <ele>420</ele>
        <time>2020-10-05T09:48:24.000Z</time>
      </trkpt>
      <trkpt lat="43.99163" lon="5.91354">
        <ele>420</ele>
        <time>2020-10-05T09:48:25.000Z</time>
      </trkpt>
      <trkpt lat="43.99163" lon="5.91354">
        <ele>419</ele>
        <time>2020-10-05T09:48:26.000Z</time>
      </trkpt>
      <trkpt lat="43.99163" lon="5.91354">
        <ele>419</ele>
        <time>2020-10-05T09:48:27.000Z</time>
      </trkpt>
      <trkpt lat="43.99163" lon="5.91353">
        <ele>419</ele>
        <time>2020-10-05T09:48:28.000Z</time>
      </trkpt>
      <trkpt lat="43.99163" lon="5.91353">
        <ele>419</ele>
        <time>2020-10-05T09:48:29.000Z</time>
      </trkpt>
      <trkpt lat="43.99163" lon="5.91353">
        <ele>419</ele>
        <time>2020-10-05T09:48:30.000Z</time>
      </trkpt>
      <trkpt lat="43.99163" lon="5.91354">
        <ele>418</ele>
        <time>2020-10-05T09:48:31.000Z</time>
      </trkpt>
      <trkpt lat="43.99163" lon="5.91354">
        <ele>418</ele>
        <time>2020-10-05T09:48:32.000Z</time>
      </trkpt>
      <trkpt lat="43.99163" lon="5.91355">
        <ele>418</ele>
        <time>2020-10-05T09:48:33.000Z</time>
      </trkpt>
      <trkpt lat="43.99163" lon="5.91357">
        <ele>418</ele>
        <time>2020-10-05T09:48:34.000Z</time>
      </trkpt>
      <trkpt lat="43.99163" lon="5.91358">
        <ele>418</ele>
        <time>2020-10-05T09:48:35.000Z</time>
      </trkpt>
      <trkpt lat="43.99163" lon="5.9136">
        <ele>418</ele>
        <time>2020-10-05T09:48:36.000Z</time>
      </trkpt>
      <trkpt lat="43.99163" lon="5.91361">
        <ele>417</ele>
        <time>2020-10-05T09:48:37.000Z</time>
      </trkpt>
      <trkpt lat="43.99163" lon="5.91363">
        <ele>417</ele>
        <time>2020-10-05T09:48:38.000Z</time>
      </trkpt>
      <trkpt lat="43.99163" lon="5.91364">
        <ele>417</ele>
        <time>2020-10-05T09:48:39.000Z</time>
      </trkpt>
      <trkpt lat="43.99164" lon="5.91366">
        <ele>417</ele>
        <time>2020-10-05T09:48:40.000Z</time>
      </trkpt>
      <trkpt lat="43.99164" lon="5.91368">
        <ele>417</ele>
        <time>2020-10-05T09:48:41.000Z</time>
      </trkpt>
      <trkpt lat="43.99164" lon="5.91369">
        <ele>417</ele>
        <time>2020-10-05T09:48:42.000Z</time>
      </trkpt>
      <trkpt lat="43.99164" lon="5.91371">
        <ele>416</ele>
        <time>2020-10-05T09:48:43.000Z</time>
      </trkpt>
      <trkpt lat="43.99165" lon="5.91373">
        <ele>416</ele>
        <time>2020-10-05T09:48:44.000Z</time>
      </trkpt>
      <trkpt lat="43.99165" lon="5.91375">
        <ele>416</ele>
        <time>2020-10-05T09:48:45.000Z</time>
      </trkpt>
      <trkpt lat="43.99166" lon="5.91377">
        <ele>416</ele>
        <time>2020-10-05T09:48:46.000Z</time>
      </trkpt>
      <trkpt lat="43.99166" lon="5.91379">
        <ele>416</ele>
        <time>2020-10-05T09:48:47.000Z</time>
      </trkpt>
      <trkpt lat="43.99166" lon="5.91381">
        <ele>415</ele>
        <time>2020-10-05T09:48:48.000Z</time>
      </trkpt>
      <trkpt lat="43.99166" lon="5.91383">
        <ele>415</ele>
        <time>2020-10-05T09:48:49.000Z</time>
      </trkpt>
      <trkpt lat="43.99166" lon="5.91384">
        <ele>415</ele>
        <time>2020-10-05T09:48:50.000Z</time>
      </trkpt>
      <trkpt lat="43.99166" lon="5.91386">
        <ele>415</ele>
        <time>2020-10-05T09:48:51.000Z</time>
      </trkpt>
      <trkpt lat="43.99167" lon="5.91388">
        <ele>415</ele>
        <time>2020-10-05T09:48:52.000Z</time>
      </trkpt>
      <trkpt lat="43.99167" lon="5.9139">
        <ele>415</ele>
        <time>2020-10-05T09:48:53.000Z</time>
      </trkpt>
      <trkpt lat="43.99167" lon="5.91392">
        <ele>414</ele>
        <time>2020-10-05T09:48:54.000Z</time>
      </trkpt>
      <trkpt lat="43.99167" lon="5.91394">
        <ele>414</ele>
        <time>2020-10-05T09:48:55.000Z</time>
      </trkpt>
      <trkpt lat="43.99167" lon="5.91395">
        <ele>414</ele>
        <time>2020-10-05T09:48:56.000Z</time>
      </trkpt>
      <trkpt lat="43.99167" lon="5.91397">
        <ele>414</ele>
        <time>2020-10-05T09:48:57.000Z</time>
      </trkpt>
      <trkpt lat="43.99168" lon="5.91398">
        <ele>414</ele>
        <time>2020-10-05T09:48:58.000Z</time>
      </trkpt>
      <trkpt lat="43.99168" lon="5.91399">
        <ele>414</ele>
        <time>2020-10-05T09:48:59.000Z</time>
      </trkpt>
      <trkpt lat="43.99169" lon="5.914">
        <ele>414</ele>
        <time>2020-10-05T09:49:00.000Z</time>
      </trkpt>
      <trkpt lat="43.99169" lon="5.91402">
        <ele>413</ele>
        <time>2020-10-05T09:49:01.000Z</time>
      </trkpt>
      <trkpt lat="43.9917" lon="5.91403">
        <ele>413</ele>
        <time>2020-10-05T09:49:02.000Z</time>
      </trkpt>
      <trkpt lat="43.9917" lon="5.91404">
        <ele>413</ele>
        <time>2020-10-05T09:49:03.000Z</time>
      </trkpt>
      <trkpt lat="43.9917" lon="5.91406">
        <ele>413</ele>
        <time>2020-10-05T09:49:04.000Z</time>
      </trkpt>
      <trkpt lat="43.9917" lon="5.91407">
        <ele>413</ele>
        <time>2020-10-05T09:49:05.000Z</time>
      </trkpt>
      <trkpt lat="43.9917" lon="5.91409">
        <ele>413</ele>
        <time>2020-10-05T09:49:06.000Z</time>
      </trkpt>
      <trkpt lat="43.99171" lon="5.9141">
        <ele>413</ele>
        <time>2020-10-05T09:49:07.000Z</time>
      </trkpt>
      <trkpt lat="43.99171" lon="5.91411">
        <ele>413</ele>
        <time>2020-10-05T09:49:08.000Z</time>
      </trkpt>
      <trkpt lat="43.99171" lon="5.91412">
        <ele>412</ele>
        <time>2020-10-05T09:49:09.000Z</time>
      </trkpt>
      <trkpt lat="43.99171" lon="5.91413">
        <ele>412</ele>
        <time>2020-10-05T09:49:10.000Z</time>
      </trkpt>
      <trkpt lat="43.99171" lon="5.91415">
        <ele>412</ele>
        <time>2020-10-05T09:49:11.000Z</time>
      </trkpt>
      <trkpt lat="43.99171" lon="5.91416">
        <ele>412</ele>
        <time>2020-10-05T09:49:12.000Z</time>
      </trkpt>
      <trkpt lat="43.99171" lon="5.91417">
        <ele>412</ele>
        <time>2020-10-05T09:49:13.000Z</time>
      </trkpt>
      <trkpt lat="43.99171" lon="5.91419">
        <ele>412</ele>
        <time>2020-10-05T09:49:14.000Z</time>
      </trkpt>
      <trkpt lat="43.99171" lon="5.9142">
        <ele>412</ele>
        <time>2020-10-05T09:49:15.000Z</time>
      </trkpt>
      <trkpt lat="43.9917" lon="5.91421">
        <ele>412</ele>
        <time>2020-10-05T09:49:16.000Z</time>
      </trkpt>
      <trkpt lat="43.9917" lon="5.91422">
        <ele>412</ele>
        <time>2020-10-05T09:49:17.000Z</time>
      </trkpt>
      <trkpt lat="43.9917" lon="5.91423">
        <ele>412</ele>
        <time>2020-10-05T09:49:18.000Z</time>
      </trkpt>
      <trkpt lat="43.99169" lon="5.91425">
        <ele>412</ele>
        <time>2020-10-05T09:49:19.000Z</time>
      </trkpt>
      <trkpt lat="43.99169" lon="5.91426">
        <ele>412</ele>
        <time>2020-10-05T09:49:20.000Z</time>
      </trkpt>
      <trkpt lat="43.99168" lon="5.91427">
        <ele>412</ele>
        <time>2020-10-05T09:49:21.000Z</time>
      </trkpt>
      <trkpt lat="43.99168" lon="5.91429">
        <ele>412</ele>
        <time>2020-10-05T09:49:22.000Z</time>
      </trkpt>
      <trkpt lat="43.99168" lon="5.9143">
        <ele>412</ele>
        <time>2020-10-05T09:49:23.000Z</time>
      </trkpt>
      <trkpt lat="43.99167" lon="5.9143">
        <ele>412</ele>
        <time>2020-10-05T09:49:24.000Z</time>
      </trkpt>
      <trkpt lat="43.99167" lon="5.91432">
        <ele>412</ele>
        <time>2020-10-05T09:49:25.000Z</time>
      </trkpt>
      <trkpt lat="43.99167" lon="5.91432">
        <ele>412</ele>
        <time>2020-10-05T09:49:26.000Z</time>
      </trkpt>
      <trkpt lat="43.99167" lon="5.91432">
        <ele>412</ele>
        <time>2020-10-05T09:49:27.000Z</time>
      </trkpt>
      <trkpt lat="43.99167" lon="5.91432">
        <ele>412</ele>
        <time>2020-10-05T09:49:28.000Z</time>
      </trkpt>
      <trkpt lat="43.99167" lon="5.91433">
        <ele>412</ele>
        <time>2020-10-05T09:49:29.000Z</time>
      </trkpt>
      <trkpt lat="43.99167" lon="5.91434">
        <ele>412</ele>
        <time>2020-10-05T09:49:30.000Z</time>
      </trkpt>
      <trkpt lat="43.99168" lon="5.91435">
        <ele>412</ele>
        <time>2020-10-05T09:49:31.000Z</time>
      </trkpt>
      <trkpt lat="43.99168" lon="5.91437">
        <ele>412</ele>
        <time>2020-10-05T09:49:32.000Z</time>
      </trkpt>
      <trkpt lat="43.99168" lon="5.91439">
        <ele>412</ele>
        <time>2020-10-05T09:49:33.000Z</time>
      </trkpt>
      <trkpt lat="43.99168" lon="5.9144">
        <ele>412</ele>
        <time>2020-10-05T09:49:34.000Z</time>
      </trkpt>
      <trkpt lat="43.99168" lon="5.91441">
        <ele>412</ele>
        <time>2020-10-05T09:49:35.000Z</time>
      </trkpt>
      <trkpt lat="43.99168" lon="5.91441">
        <ele>412</ele>
        <time>2020-10-05T09:49:36.000Z</time>
      </trkpt>
      <trkpt lat="43.99168" lon="5.91441">
        <ele>412</ele>
        <time>2020-10-05T09:49:37.000Z</time>
      </trkpt>
      <trkpt lat="43.99169" lon="5.91441">
        <ele>412</ele>
        <time>2020-10-05T09:49:38.000Z</time>
      </trkpt>
      <trkpt lat="43.99169" lon="5.91441">
        <ele>411</ele>
        <time>2020-10-05T09:49:39.000Z</time>
      </trkpt>
      <trkpt lat="43.99169" lon="5.91442">
        <ele>411</ele>
        <time>2020-10-05T09:49:40.000Z</time>
      </trkpt>
      <trkpt lat="43.99169" lon="5.91443">
        <ele>411</ele>
        <time>2020-10-05T09:49:41.000Z</time>
      </trkpt>
      <trkpt lat="43.99169" lon="5.91444">
        <ele>411</ele>
        <time>2020-10-05T09:49:42.000Z</time>
      </trkpt>
      <trkpt lat="43.99169" lon="5.91445">
        <ele>411</ele>
        <time>2020-10-05T09:49:43.000Z</time>
      </trkpt>
      <trkpt lat="43.9917" lon="5.91445">
        <ele>411</ele>
        <time>2020-10-05T09:49:44.000Z</time>
      </trkpt>
      <trkpt lat="43.9917" lon="5.91446">
        <ele>411</ele>
        <time>2020-10-05T09:49:45.000Z</time>
      </trkpt>
      <trkpt lat="43.9917" lon="5.91447">
        <ele>411</ele>
        <time>2020-10-05T09:49:46.000Z</time>
      </trkpt>
      <trkpt lat="43.9917" lon="5.91449">
        <ele>411</ele>
        <time>2020-10-05T09:49:47.000Z</time>
      </trkpt>
      <trkpt lat="43.99171" lon="5.9145">
        <ele>411</ele>
        <time>2020-10-05T09:49:48.000Z</time>
      </trkpt>
      <trkpt lat="43.99171" lon="5.91451">
        <ele>411</ele>
        <time>2020-10-05T09:49:49.000Z</time>
      </trkpt>
      <trkpt lat="43.99171" lon="5.91452">
        <ele>411</ele>
        <time>2020-10-05T09:49:50.000Z</time>
      </trkpt>
      <trkpt lat="43.99172" lon="5.91453">
        <ele>410</ele>
        <time>2020-10-05T09:49:51.000Z</time>
      </trkpt>
      <trkpt lat="43.99172" lon="5.91454">
        <ele>410</ele>
        <time>2020-10-05T09:49:52.000Z</time>
      </trkpt>
      <trkpt lat="43.99173" lon="5.91456">
        <ele>410</ele>
        <time>2020-10-05T09:49:53.000Z</time>
      </trkpt>
      <trkpt lat="43.99173" lon="5.91457">
        <ele>410</ele>
        <time>2020-10-05T09:49:54.000Z</time>
      </trkpt>
      <trkpt lat="43.99174" lon="5.91457">
        <ele>410</ele>
        <time>2020-10-05T09:49:55.000Z</time>
      </trkpt>
      <trkpt lat="43.99175" lon="5.91458">
        <ele>410</ele>
        <time>2020-10-05T09:49:56.000Z</time>
      </trkpt>
      <trkpt lat="43.99176" lon="5.91459">
        <ele>410</ele>
        <time>2020-10-05T09:49:57.000Z</time>
      </trkpt>
      <trkpt lat="43.99176" lon="5.91461">
        <ele>410</ele>
        <time>2020-10-05T09:49:58.000Z</time>
      </trkpt>
      <trkpt lat="43.99177" lon="5.91462">
        <ele>410</ele>
        <time>2020-10-05T09:49:59.000Z</time>
      </trkpt>
      <trkpt lat="43.99178" lon="5.91463">
        <ele>410</ele>
        <time>2020-10-05T09:50:00.000Z</time>
      </trkpt>
      <trkpt lat="43.99179" lon="5.91464">
        <ele>410</ele>
        <time>2020-10-05T09:50:01.000Z</time>
      </trkpt>
      <trkpt lat="43.99179" lon="5.91465">
        <ele>410</ele>
        <time>2020-10-05T09:50:02.000Z</time>
      </trkpt>
      <trkpt lat="43.9918" lon="5.91467">
        <ele>410</ele>
        <time>2020-10-05T09:50:03.000Z</time>
      </trkpt>
      <trkpt lat="43.99181" lon="5.91468">
        <ele>410</ele>
        <time>2020-10-05T09:50:04.000Z</time>
      </trkpt>
      <trkpt lat="43.99181" lon="5.91469">
        <ele>410</ele>
        <time>2020-10-05T09:50:05.000Z</time>
      </trkpt>
      <trkpt lat="43.99181" lon="5.91469">
        <ele>410</ele>
        <time>2020-10-05T09:50:06.000Z</time>
      </trkpt>
      <trkpt lat="43.99182" lon="5.91471">
        <ele>410</ele>
        <time>2020-10-05T09:50:07.000Z</time>
      </trkpt>
      <trkpt lat="43.99183" lon="5.91472">
        <ele>410</ele>
        <time>2020-10-05T09:50:08.000Z</time>
      </trkpt>
      <trkpt lat="43.99184" lon="5.91473">
        <ele>410</ele>
        <time>2020-10-05T09:50:09.000Z</time>
      </trkpt>
      <trkpt lat="43.99185" lon="5.91474">
        <ele>410</ele>
        <time>2020-10-05T09:50:10.000Z</time>
      </trkpt>
      <trkpt lat="43.99185" lon="5.91476">
        <ele>410</ele>
        <time>2020-10-05T09:50:11.000Z</time>
      </trkpt>
      <trkpt lat="43.99186" lon="5.91477">
        <ele>410</ele>
        <time>2020-10-05T09:50:12.000Z</time>
      </trkpt>
      <trkpt lat="43.99187" lon="5.91478">
        <ele>409</ele>
        <time>2020-10-05T09:50:13.000Z</time>
      </trkpt>
      <trkpt lat="43.99188" lon="5.91479">
        <ele>409</ele>
        <time>2020-10-05T09:50:14.000Z</time>
      </trkpt>
      <trkpt lat="43.99189" lon="5.91481">
        <ele>409</ele>
        <time>2020-10-05T09:50:15.000Z</time>
      </trkpt>
      <trkpt lat="43.9919" lon="5.91482">
        <ele>409</ele>
        <time>2020-10-05T09:50:16.000Z</time>
      </trkpt>
      <trkpt lat="43.99191" lon="5.91483">
        <ele>409</ele>
        <time>2020-10-05T09:50:17.000Z</time>
      </trkpt>
      <trkpt lat="43.99191" lon="5.91484">
        <ele>409</ele>
        <time>2020-10-05T09:50:18.000Z</time>
      </trkpt>
      <trkpt lat="43.99192" lon="5.91485">
        <ele>409</ele>
        <time>2020-10-05T09:50:19.000Z</time>
      </trkpt>
      <trkpt lat="43.99193" lon="5.91487">
        <ele>409</ele>
        <time>2020-10-05T09:50:20.000Z</time>
      </trkpt>
      <trkpt lat="43.99194" lon="5.91488">
        <ele>409</ele>
        <time>2020-10-05T09:50:21.000Z</time>
      </trkpt>
      <trkpt lat="43.99194" lon="5.91489">
        <ele>409</ele>
        <time>2020-10-05T09:50:22.000Z</time>
      </trkpt>
      <trkpt lat="43.99195" lon="5.9149">
        <ele>409</ele>
        <time>2020-10-05T09:50:23.000Z</time>
      </trkpt>
      <trkpt lat="43.99196" lon="5.91491">
        <ele>409</ele>
        <time>2020-10-05T09:50:24.000Z</time>
      </trkpt>
      <trkpt lat="43.99196" lon="5.91492">
        <ele>409</ele>
        <time>2020-10-05T09:50:25.000Z</time>
      </trkpt>
      <trkpt lat="43.99197" lon="5.91494">
        <ele>409</ele>
        <time>2020-10-05T09:50:26.000Z</time>
      </trkpt>
      <trkpt lat="43.99198" lon="5.91495">
        <ele>409</ele>
        <time>2020-10-05T09:50:27.000Z</time>
      </trkpt>
      <trkpt lat="43.992" lon="5.91496">
        <ele>409</ele>
        <time>2020-10-05T09:50:28.000Z</time>
      </trkpt>
      <trkpt lat="43.992" lon="5.91496">
        <ele>409</ele>
        <time>2020-10-05T09:50:29.000Z</time>
      </trkpt>
      <trkpt lat="43.99201" lon="5.91497">
        <ele>409</ele>
        <time>2020-10-05T09:50:30.000Z</time>
      </trkpt>
      <trkpt lat="43.99202" lon="5.91498">
        <ele>409</ele>
        <time>2020-10-05T09:50:31.000Z</time>
      </trkpt>
      <trkpt lat="43.99202" lon="5.91499">
        <ele>409</ele>
        <time>2020-10-05T09:50:32.000Z</time>
      </trkpt>
      <trkpt lat="43.99203" lon="5.915">
        <ele>409</ele>
        <time>2020-10-05T09:50:33.000Z</time>
      </trkpt>
      <trkpt lat="43.99203" lon="5.91501">
        <ele>409</ele>
        <time>2020-10-05T09:50:34.000Z</time>
      </trkpt>
      <trkpt lat="43.99204" lon="5.91501">
        <ele>409</ele>
        <time>2020-10-05T09:50:35.000Z</time>
      </trkpt>
      <trkpt lat="43.99205" lon="5.91502">
        <ele>409</ele>
        <time>2020-10-05T09:50:36.000Z</time>
      </trkpt>
      <trkpt lat="43.99206" lon="5.91503">
        <ele>409</ele>
        <time>2020-10-05T09:50:37.000Z</time>
      </trkpt>
      <trkpt lat="43.99207" lon="5.91504">
        <ele>409</ele>
        <time>2020-10-05T09:50:38.000Z</time>
      </trkpt>
      <trkpt lat="43.99208" lon="5.91504">
        <ele>409</ele>
        <time>2020-10-05T09:50:39.000Z</time>
      </trkpt>
      <trkpt lat="43.99209" lon="5.91505">
        <ele>409</ele>
        <time>2020-10-05T09:50:40.000Z</time>
      </trkpt>
      <trkpt lat="43.9921" lon="5.91505">
        <ele>409</ele>
        <time>2020-10-05T09:50:41.000Z</time>
      </trkpt>
      <trkpt lat="43.9921" lon="5.91505">
        <ele>409</ele>
        <time>2020-10-05T09:50:42.000Z</time>
      </trkpt>
      <trkpt lat="43.99211" lon="5.91505">
        <ele>409</ele>
        <time>2020-10-05T09:50:43.000Z</time>
      </trkpt>
      <trkpt lat="43.99211" lon="5.91505">
        <ele>409</ele>
        <time>2020-10-05T09:50:44.000Z</time>
      </trkpt>
      <trkpt lat="43.99212" lon="5.91506">
        <ele>409</ele>
        <time>2020-10-05T09:50:45.000Z</time>
      </trkpt>
      <trkpt lat="43.99212" lon="5.91507">
        <ele>409</ele>
        <time>2020-10-05T09:50:46.000Z</time>
      </trkpt>
      <trkpt lat="43.99213" lon="5.91507">
        <ele>409</ele>
        <time>2020-10-05T09:50:47.000Z</time>
      </trkpt>
      <trkpt lat="43.99213" lon="5.91507">
        <ele>409</ele>
        <time>2020-10-05T09:50:48.000Z</time>
      </trkpt>
      <trkpt lat="43.99214" lon="5.91508">
        <ele>409</ele>
        <time>2020-10-05T09:50:49.000Z</time>
      </trkpt>
      <trkpt lat="43.99215" lon="5.91508">
        <ele>409</ele>
        <time>2020-10-05T09:50:50.000Z</time>
      </trkpt>
      <trkpt lat="43.99216" lon="5.91508">
        <ele>409</ele>
        <time>2020-10-05T09:50:51.000Z</time>
      </trkpt>
      <trkpt lat="43.99217" lon="5.91509">
        <ele>409</ele>
        <time>2020-10-05T09:50:52.000Z</time>
      </trkpt>
      <trkpt lat="43.99218" lon="5.91509">
        <ele>409</ele>
        <time>2020-10-05T09:50:53.000Z</time>
      </trkpt>
      <trkpt lat="43.99219" lon="5.91509">
        <ele>409</ele>
        <time>2020-10-05T09:50:54.000Z</time>
      </trkpt>
      <trkpt lat="43.99221" lon="5.91509">
        <ele>409</ele>
        <time>2020-10-05T09:50:55.000Z</time>
      </trkpt>
      <trkpt lat="43.99221" lon="5.91509">
        <ele>409</ele>
        <time>2020-10-05T09:50:56.000Z</time>
      </trkpt>
      <trkpt lat="43.99222" lon="5.91509">
        <ele>409</ele>
        <time>2020-10-05T09:50:57.000Z</time>
      </trkpt>
      <trkpt lat="43.99223" lon="5.91509">
        <ele>409</ele>
        <time>2020-10-05T09:50:58.000Z</time>
      </trkpt>
      <trkpt lat="43.99224" lon="5.91509">
        <ele>409</ele>
        <time>2020-10-05T09:50:59.000Z</time>
      </trkpt>
      <trkpt lat="43.99224" lon="5.9151">
        <ele>409</ele>
        <time>2020-10-05T09:51:00.000Z</time>
      </trkpt>
      <trkpt lat="43.99224" lon="5.9151">
        <ele>409</ele>
        <time>2020-10-05T09:51:01.000Z</time>
      </trkpt>
      <trkpt lat="43.99224" lon="5.9151">
        <ele>409</ele>
        <time>2020-10-05T09:51:02.000Z</time>
      </trkpt>
      <trkpt lat="43.99224" lon="5.9151">
        <ele>409</ele>
        <time>2020-10-05T09:51:03.000Z</time>
      </trkpt>
      <trkpt lat="43.99224" lon="5.9151">
        <ele>409</ele>
        <time>2020-10-05T09:51:04.000Z</time>
      </trkpt>
      <trkpt lat="43.99225" lon="5.9151">
        <ele>409</ele>
        <time>2020-10-05T09:51:05.000Z</time>
      </trkpt>
      <trkpt lat="43.99225" lon="5.9151">
        <ele>409</ele>
        <time>2020-10-05T09:51:06.000Z</time>
      </trkpt>
      <trkpt lat="43.99225" lon="5.9151">
        <ele>409</ele>
        <time>2020-10-05T09:51:07.000Z</time>
      </trkpt>
      <trkpt lat="43.99225" lon="5.9151">
        <ele>409</ele>
        <time>2020-10-05T09:51:08.000Z</time>
      </trkpt>
      <trkpt lat="43.99225" lon="5.9151">
        <ele>409</ele>
        <time>2020-10-05T09:51:09.000Z</time>
      </trkpt>
      <trkpt lat="43.99224" lon="5.91509">
        <ele>409</ele>
        <time>2020-10-05T09:51:10.000Z</time>
      </trkpt>
      <trkpt lat="43.99224" lon="5.91509">
        <ele>409</ele>
        <time>2020-10-05T09:51:11.000Z</time>
      </trkpt>
      <trkpt lat="43.99225" lon="5.91508">
        <ele>409</ele>
        <time>2020-10-05T09:51:12.000Z</time>
      </trkpt>
      <trkpt lat="43.99225" lon="5.91507">
        <ele>409</ele>
        <time>2020-10-05T09:51:13.000Z</time>
      </trkpt>
      <trkpt lat="43.99226" lon="5.91507">
        <ele>409</ele>
        <time>2020-10-05T09:51:14.000Z</time>
      </trkpt>
      <trkpt lat="43.99227" lon="5.91506">
        <ele>409</ele>
        <time>2020-10-05T09:51:15.000Z</time>
      </trkpt>
      <trkpt lat="43.99228" lon="5.91506">
        <ele>409</ele>
        <time>2020-10-05T09:51:16.000Z</time>
      </trkpt>
      <trkpt lat="43.9923" lon="5.91506">
        <ele>409</ele>
        <time>2020-10-05T09:51:17.000Z</time>
      </trkpt>
      <trkpt lat="43.99231" lon="5.91505">
        <ele>409</ele>
        <time>2020-10-05T09:51:18.000Z</time>
      </trkpt>
      <trkpt lat="43.99232" lon="5.91505">
        <ele>409</ele>
        <time>2020-10-05T09:51:19.000Z</time>
      </trkpt>
      <trkpt lat="43.99233" lon="5.91505">
        <ele>409</ele>
        <time>2020-10-05T09:51:20.000Z</time>
      </trkpt>
      <trkpt lat="43.99234" lon="5.91504">
        <ele>409</ele>
        <time>2020-10-05T09:51:21.000Z</time>
      </trkpt>
      <trkpt lat="43.99236" lon="5.91504">
        <ele>409</ele>
        <time>2020-10-05T09:51:22.000Z</time>
      </trkpt>
      <trkpt lat="43.99237" lon="5.91503">
        <ele>409</ele>
        <time>2020-10-05T09:51:23.000Z</time>
      </trkpt>
      <trkpt lat="43.99238" lon="5.91503">
        <ele>409</ele>
        <time>2020-10-05T09:51:24.000Z</time>
      </trkpt>
      <trkpt lat="43.99239" lon="5.91504">
        <ele>410</ele>
        <time>2020-10-05T09:51:25.000Z</time>
      </trkpt>
      <trkpt lat="43.9924" lon="5.91504">
        <ele>410</ele>
        <time>2020-10-05T09:51:26.000Z</time>
      </trkpt>
      <trkpt lat="43.99242" lon="5.91505">
        <ele>409</ele>
        <time>2020-10-05T09:51:27.000Z</time>
      </trkpt>
      <trkpt lat="43.99243" lon="5.91506">
        <ele>409</ele>
        <time>2020-10-05T09:51:28.000Z</time>
      </trkpt>
      <trkpt lat="43.99244" lon="5.91507">
        <ele>409</ele>
        <time>2020-10-05T09:51:29.000Z</time>
      </trkpt>
      <trkpt lat="43.99245" lon="5.91508">
        <ele>409</ele>
        <time>2020-10-05T09:51:30.000Z</time>
      </trkpt>
      <trkpt lat="43.99246" lon="5.91508">
        <ele>409</ele>
        <time>2020-10-05T09:51:31.000Z</time>
      </trkpt>
      <trkpt lat="43.99247" lon="5.91509">
        <ele>409</ele>
        <time>2020-10-05T09:51:32.000Z</time>
      </trkpt>
      <trkpt lat="43.99248" lon="5.9151">
        <ele>409</ele>
        <time>2020-10-05T09:51:33.000Z</time>
      </trkpt>
      <trkpt lat="43.99249" lon="5.9151">
        <ele>409</ele>
        <time>2020-10-05T09:51:34.000Z</time>
      </trkpt>
      <trkpt lat="43.99251" lon="5.91511">
        <ele>409</ele>
        <time>2020-10-05T09:51:35.000Z</time>
      </trkpt>
      <trkpt lat="43.99252" lon="5.91512">
        <ele>409</ele>
        <time>2020-10-05T09:51:36.000Z</time>
      </trkpt>
      <trkpt lat="43.99253" lon="5.91512">
        <ele>409</ele>
        <time>2020-10-05T09:51:37.000Z</time>
      </trkpt>
      <trkpt lat="43.99254" lon="5.91513">
        <ele>409</ele>
        <time>2020-10-05T09:51:38.000Z</time>
      </trkpt>
      <trkpt lat="43.99255" lon="5.91513">
        <ele>409</ele>
        <time>2020-10-05T09:51:39.000Z</time>
      </trkpt>
      <trkpt lat="43.99257" lon="5.91514">
        <ele>409</ele>
        <time>2020-10-05T09:51:40.000Z</time>
      </trkpt>
      <trkpt lat="43.99258" lon="5.91514">
        <ele>410</ele>
        <time>2020-10-05T09:51:41.000Z</time>
      </trkpt>
      <trkpt lat="43.99259" lon="5.91514">
        <ele>410</ele>
        <time>2020-10-05T09:51:42.000Z</time>
      </trkpt>
      <trkpt lat="43.9926" lon="5.91514">
        <ele>410</ele>
        <time>2020-10-05T09:51:43.000Z</time>
      </trkpt>
      <trkpt lat="43.99261" lon="5.91514">
        <ele>410</ele>
        <time>2020-10-05T09:51:44.000Z</time>
      </trkpt>
      <trkpt lat="43.99263" lon="5.91514">
        <ele>410</ele>
        <time>2020-10-05T09:51:45.000Z</time>
      </trkpt>
      <trkpt lat="43.99264" lon="5.91514">
        <ele>410</ele>
        <time>2020-10-05T09:51:46.000Z</time>
      </trkpt>
      <trkpt lat="43.99266" lon="5.91514">
        <ele>410</ele>
        <time>2020-10-05T09:51:47.000Z</time>
      </trkpt>
      <trkpt lat="43.99267" lon="5.91515">
        <ele>410</ele>
        <time>2020-10-05T09:51:48.000Z</time>
      </trkpt>
      <trkpt lat="43.99268" lon="5.91515">
        <ele>410</ele>
        <time>2020-10-05T09:51:49.000Z</time>
      </trkpt>
      <trkpt lat="43.99269" lon="5.91515">
        <ele>410</ele>
        <time>2020-10-05T09:51:50.000Z</time>
      </trkpt>
      <trkpt lat="43.9927" lon="5.91516">
        <ele>410</ele>
        <time>2020-10-05T09:51:51.000Z</time>
      </trkpt>
      <trkpt lat="43.99271" lon="5.91517">
        <ele>410</ele>
        <time>2020-10-05T09:51:52.000Z</time>
      </trkpt>
      <trkpt lat="43.99271" lon="5.91518">
        <ele>410</ele>
        <time>2020-10-05T09:51:53.000Z</time>
      </trkpt>
      <trkpt lat="43.99272" lon="5.9152">
        <ele>410</ele>
        <time>2020-10-05T09:51:54.000Z</time>
      </trkpt>
      <trkpt lat="43.99272" lon="5.91521">
        <ele>409</ele>
        <time>2020-10-05T09:51:55.000Z</time>
      </trkpt>
      <trkpt lat="43.99273" lon="5.91523">
        <ele>410</ele>
        <time>2020-10-05T09:51:56.000Z</time>
      </trkpt>
      <trkpt lat="43.99273" lon="5.91524">
        <ele>410</ele>
        <time>2020-10-05T09:51:57.000Z</time>
      </trkpt>
      <trkpt lat="43.99274" lon="5.91526">
        <ele>410</ele>
        <time>2020-10-05T09:51:58.000Z</time>
      </trkpt>
      <trkpt lat="43.99275" lon="5.91528">
        <ele>410</ele>
        <time>2020-10-05T09:51:59.000Z</time>
      </trkpt>
      <trkpt lat="43.99275" lon="5.91529">
        <ele>410</ele>
        <time>2020-10-05T09:52:00.000Z</time>
      </trkpt>
      <trkpt lat="43.99276" lon="5.91531">
        <ele>410</ele>
        <time>2020-10-05T09:52:01.000Z</time>
      </trkpt>
      <trkpt lat="43.99276" lon="5.91532">
        <ele>410</ele>
        <time>2020-10-05T09:52:02.000Z</time>
      </trkpt>
      <trkpt lat="43.99276" lon="5.91534">
        <ele>410</ele>
        <time>2020-10-05T09:52:03.000Z</time>
      </trkpt>
      <trkpt lat="43.99277" lon="5.91536">
        <ele>410</ele>
        <time>2020-10-05T09:52:04.000Z</time>
      </trkpt>
      <trkpt lat="43.99277" lon="5.91537">
        <ele>410</ele>
        <time>2020-10-05T09:52:05.000Z</time>
      </trkpt>
      <trkpt lat="43.99278" lon="5.91539">
        <ele>410</ele>
        <time>2020-10-05T09:52:06.000Z</time>
      </trkpt>
      <trkpt lat="43.99279" lon="5.9154">
        <ele>409</ele>
        <time>2020-10-05T09:52:07.000Z</time>
      </trkpt>
      <trkpt lat="43.9928" lon="5.91541">
        <ele>409</ele>
        <time>2020-10-05T09:52:08.000Z</time>
      </trkpt>
      <trkpt lat="43.99281" lon="5.91542">
        <ele>409</ele>
        <time>2020-10-05T09:52:09.000Z</time>
      </trkpt>
      <trkpt lat="43.99282" lon="5.91543">
        <ele>409</ele>
        <time>2020-10-05T09:52:10.000Z</time>
      </trkpt>
      <trkpt lat="43.99283" lon="5.91544">
        <ele>409</ele>
        <time>2020-10-05T09:52:11.000Z</time>
      </trkpt>
      <trkpt lat="43.99285" lon="5.91545">
        <ele>409</ele>
        <time>2020-10-05T09:52:12.000Z</time>
      </trkpt>
      <trkpt lat="43.99286" lon="5.91545">
        <ele>409</ele>
        <time>2020-10-05T09:52:13.000Z</time>
      </trkpt>
      <trkpt lat="43.99288" lon="5.91546">
        <ele>409</ele>
        <time>2020-10-05T09:52:14.000Z</time>
      </trkpt>
      <trkpt lat="43.99289" lon="5.91547">
        <ele>409</ele>
        <time>2020-10-05T09:52:15.000Z</time>
      </trkpt>
      <trkpt lat="43.9929" lon="5.91548">
        <ele>409</ele>
        <time>2020-10-05T09:52:16.000Z</time>
      </trkpt>
      <trkpt lat="43.99292" lon="5.91548">
        <ele>409</ele>
        <time>2020-10-05T09:52:17.000Z</time>
      </trkpt>
      <trkpt lat="43.99293" lon="5.91549">
        <ele>409</ele>
        <time>2020-10-05T09:52:18.000Z</time>
      </trkpt>
      <trkpt lat="43.99294" lon="5.9155">
        <ele>409</ele>
        <time>2020-10-05T09:52:19.000Z</time>
      </trkpt>
      <trkpt lat="43.99295" lon="5.9155">
        <ele>409</ele>
        <time>2020-10-05T09:52:20.000Z</time>
      </trkpt>
      <trkpt lat="43.99297" lon="5.91551">
        <ele>409</ele>
        <time>2020-10-05T09:52:21.000Z</time>
      </trkpt>
      <trkpt lat="43.99298" lon="5.91552">
        <ele>409</ele>
        <time>2020-10-05T09:52:22.000Z</time>
      </trkpt>
      <trkpt lat="43.99299" lon="5.91553">
        <ele>409</ele>
        <time>2020-10-05T09:52:23.000Z</time>
      </trkpt>
      <trkpt lat="43.993" lon="5.91553">
        <ele>409</ele>
        <time>2020-10-05T09:52:24.000Z</time>
      </trkpt>
      <trkpt lat="43.99301" lon="5.91554">
        <ele>409</ele>
        <time>2020-10-05T09:52:25.000Z</time>
      </trkpt>
      <trkpt lat="43.99302" lon="5.91555">
        <ele>409</ele>
        <time>2020-10-05T09:52:26.000Z</time>
      </trkpt>
      <trkpt lat="43.99304" lon="5.91555">
        <ele>409</ele>
        <time>2020-10-05T09:52:27.000Z</time>
      </trkpt>
      <trkpt lat="43.99305" lon="5.91556">
        <ele>409</ele>
        <time>2020-10-05T09:52:28.000Z</time>
      </trkpt>
      <trkpt lat="43.99306" lon="5.91557">
        <ele>409</ele>
        <time>2020-10-05T09:52:29.000Z</time>
      </trkpt>
      <trkpt lat="43.99307" lon="5.91557">
        <ele>409</ele>
        <time>2020-10-05T09:52:30.000Z</time>
      </trkpt>
      <trkpt lat="43.99308" lon="5.91558">
        <ele>409</ele>
        <time>2020-10-05T09:52:31.000Z</time>
      </trkpt>
      <trkpt lat="43.99309" lon="5.91559">
        <ele>409</ele>
        <time>2020-10-05T09:52:32.000Z</time>
      </trkpt>
      <trkpt lat="43.99311" lon="5.91559">
        <ele>409</ele>
        <time>2020-10-05T09:52:33.000Z</time>
      </trkpt>
      <trkpt lat="43.99312" lon="5.9156">
        <ele>409</ele>
        <time>2020-10-05T09:52:34.000Z</time>
      </trkpt>
      <trkpt lat="43.99313" lon="5.9156">
        <ele>409</ele>
        <time>2020-10-05T09:52:35.000Z</time>
      </trkpt>
      <trkpt lat="43.99314" lon="5.91561">
        <ele>409</ele>
        <time>2020-10-05T09:52:36.000Z</time>
      </trkpt>
      <trkpt lat="43.99315" lon="5.91562">
        <ele>410</ele>
        <time>2020-10-05T09:52:37.000Z</time>
      </trkpt>
      <trkpt lat="43.99316" lon="5.91562">
        <ele>410</ele>
        <time>2020-10-05T09:52:38.000Z</time>
      </trkpt>
      <trkpt lat="43.99317" lon="5.91563">
        <ele>410</ele>
        <time>2020-10-05T09:52:39.000Z</time>
      </trkpt>
      <trkpt lat="43.99319" lon="5.91563">
        <ele>410</ele>
        <time>2020-10-05T09:52:40.000Z</time>
      </trkpt>
      <trkpt lat="43.9932" lon="5.91564">
        <ele>410</ele>
        <time>2020-10-05T09:52:41.000Z</time>
      </trkpt>
      <trkpt lat="43.99321" lon="5.91565">
        <ele>410</ele>
        <time>2020-10-05T09:52:42.000Z</time>
      </trkpt>
      <trkpt lat="43.99322" lon="5.91566">
        <ele>410</ele>
        <time>2020-10-05T09:52:43.000Z</time>
      </trkpt>
      <trkpt lat="43.99323" lon="5.91566">
        <ele>409</ele>
        <time>2020-10-05T09:52:44.000Z</time>
      </trkpt>
      <trkpt lat="43.99324" lon="5.91567">
        <ele>409</ele>
        <time>2020-10-05T09:52:45.000Z</time>
      </trkpt>
      <trkpt lat="43.99325" lon="5.91567">
        <ele>410</ele>
        <time>2020-10-05T09:52:46.000Z</time>
      </trkpt>
      <trkpt lat="43.99327" lon="5.91568">
        <ele>409</ele>
        <time>2020-10-05T09:52:47.000Z</time>
      </trkpt>
      <trkpt lat="43.99328" lon="5.91569">
        <ele>409</ele>
        <time>2020-10-05T09:52:48.000Z</time>
      </trkpt>
      <trkpt lat="43.99329" lon="5.91569">
        <ele>409</ele>
        <time>2020-10-05T09:52:49.000Z</time>
      </trkpt>
      <trkpt lat="43.9933" lon="5.9157">
        <ele>409</ele>
        <time>2020-10-05T09:52:50.000Z</time>
      </trkpt>
      <trkpt lat="43.99331" lon="5.9157">
        <ele>409</ele>
        <time>2020-10-05T09:52:51.000Z</time>
      </trkpt>
      <trkpt lat="43.99332" lon="5.91571">
        <ele>409</ele>
        <time>2020-10-05T09:52:52.000Z</time>
      </trkpt>
      <trkpt lat="43.99333" lon="5.91571">
        <ele>409</ele>
        <time>2020-10-05T09:52:53.000Z</time>
      </trkpt>
      <trkpt lat="43.99335" lon="5.91571">
        <ele>409</ele>
        <time>2020-10-05T09:52:54.000Z</time>
      </trkpt>
      <trkpt lat="43.99336" lon="5.91572">
        <ele>409</ele>
        <time>2020-10-05T09:52:55.000Z</time>
      </trkpt>
      <trkpt lat="43.99337" lon="5.91572">
        <ele>409</ele>
        <time>2020-10-05T09:52:56.000Z</time>
      </trkpt>
      <trkpt lat="43.99338" lon="5.91571">
        <ele>409</ele>
        <time>2020-10-05T09:52:57.000Z</time>
      </trkpt>
      <trkpt lat="43.99339" lon="5.91571">
        <ele>409</ele>
        <time>2020-10-05T09:52:58.000Z</time>
      </trkpt>
      <trkpt lat="43.9934" lon="5.91571">
        <ele>409</ele>
        <time>2020-10-05T09:52:59.000Z</time>
      </trkpt>
      <trkpt lat="43.99341" lon="5.91571">
        <ele>409</ele>
        <time>2020-10-05T09:53:00.000Z</time>
      </trkpt>
      <trkpt lat="43.99342" lon="5.91571">
        <ele>409</ele>
        <time>2020-10-05T09:53:01.000Z</time>
      </trkpt>
      <trkpt lat="43.99343" lon="5.9157">
        <ele>409</ele>
        <time>2020-10-05T09:53:02.000Z</time>
      </trkpt>
      <trkpt lat="43.99345" lon="5.9157">
        <ele>409</ele>
        <time>2020-10-05T09:53:03.000Z</time>
      </trkpt>
      <trkpt lat="43.99346" lon="5.91569">
        <ele>409</ele>
        <time>2020-10-05T09:53:04.000Z</time>
      </trkpt>
      <trkpt lat="43.99347" lon="5.91569">
        <ele>410</ele>
        <time>2020-10-05T09:53:05.000Z</time>
      </trkpt>
      <trkpt lat="43.99348" lon="5.91568">
        <ele>410</ele>
        <time>2020-10-05T09:53:06.000Z</time>
      </trkpt>
      <trkpt lat="43.99349" lon="5.91567">
        <ele>410</ele>
        <time>2020-10-05T09:53:07.000Z</time>
      </trkpt>
      <trkpt lat="43.9935" lon="5.91566">
        <ele>410</ele>
        <time>2020-10-05T09:53:08.000Z</time>
      </trkpt>
      <trkpt lat="43.99351" lon="5.91565">
        <ele>410</ele>
        <time>2020-10-05T09:53:09.000Z</time>
      </trkpt>
      <trkpt lat="43.99352" lon="5.91564">
        <ele>410</ele>
        <time>2020-10-05T09:53:10.000Z</time>
      </trkpt>
      <trkpt lat="43.99353" lon="5.91562">
        <ele>410</ele>
        <time>2020-10-05T09:53:11.000Z</time>
      </trkpt>
      <trkpt lat="43.99354" lon="5.91562">
        <ele>410</ele>
        <time>2020-10-05T09:53:12.000Z</time>
      </trkpt>
      <trkpt lat="43.99355" lon="5.91561">
        <ele>410</ele>
        <time>2020-10-05T09:53:13.000Z</time>
      </trkpt>
      <trkpt lat="43.99356" lon="5.9156">
        <ele>410</ele>
        <time>2020-10-05T09:53:14.000Z</time>
      </trkpt>
      <trkpt lat="43.99357" lon="5.91559">
        <ele>411</ele>
        <time>2020-10-05T09:53:15.000Z</time>
      </trkpt>
      <trkpt lat="43.99359" lon="5.91558">
        <ele>411</ele>
        <time>2020-10-05T09:53:16.000Z</time>
      </trkpt>
      <trkpt lat="43.9936" lon="5.91557">
        <ele>411</ele>
        <time>2020-10-05T09:53:17.000Z</time>
      </trkpt>
      <trkpt lat="43.99361" lon="5.91556">
        <ele>411</ele>
        <time>2020-10-05T09:53:18.000Z</time>
      </trkpt>
      <trkpt lat="43.99362" lon="5.91555">
        <ele>411</ele>
        <time>2020-10-05T09:53:19.000Z</time>
      </trkpt>
      <trkpt lat="43.99363" lon="5.91555">
        <ele>411</ele>
        <time>2020-10-05T09:53:20.000Z</time>
      </trkpt>
      <trkpt lat="43.99364" lon="5.91554">
        <ele>411</ele>
        <time>2020-10-05T09:53:21.000Z</time>
      </trkpt>
      <trkpt lat="43.99365" lon="5.91553">
        <ele>411</ele>
        <time>2020-10-05T09:53:22.000Z</time>
      </trkpt>
      <trkpt lat="43.99366" lon="5.91552">
        <ele>412</ele>
        <time>2020-10-05T09:53:23.000Z</time>
      </trkpt>
      <trkpt lat="43.99367" lon="5.91551">
        <ele>412</ele>
        <time>2020-10-05T09:53:24.000Z</time>
      </trkpt>
      <trkpt lat="43.99368" lon="5.91551">
        <ele>412</ele>
        <time>2020-10-05T09:53:25.000Z</time>
      </trkpt>
      <trkpt lat="43.99369" lon="5.9155">
        <ele>412</ele>
        <time>2020-10-05T09:53:26.000Z</time>
      </trkpt>
      <trkpt lat="43.9937" lon="5.9155">
        <ele>412</ele>
        <time>2020-10-05T09:53:27.000Z</time>
      </trkpt>
      <trkpt lat="43.99371" lon="5.91549">
        <ele>413</ele>
        <time>2020-10-05T09:53:28.000Z</time>
      </trkpt>
      <trkpt lat="43.99372" lon="5.91548">
        <ele>413</ele>
        <time>2020-10-05T09:53:29.000Z</time>
      </trkpt>
      <trkpt lat="43.99373" lon="5.91547">
        <ele>413</ele>
        <time>2020-10-05T09:53:30.000Z</time>
      </trkpt>
      <trkpt lat="43.99375" lon="5.91546">
        <ele>413</ele>
        <time>2020-10-05T09:53:31.000Z</time>
      </trkpt>
      <trkpt lat="43.99376" lon="5.91546">
        <ele>413</ele>
        <time>2020-10-05T09:53:32.000Z</time>
      </trkpt>
      <trkpt lat="43.99377" lon="5.91545">
        <ele>414</ele>
        <time>2020-10-05T09:53:33.000Z</time>
      </trkpt>
      <trkpt lat="43.99378" lon="5.91545">
        <ele>414</ele>
        <time>2020-10-05T09:53:34.000Z</time>
      </trkpt>
      <trkpt lat="43.99379" lon="5.91544">
        <ele>414</ele>
        <time>2020-10-05T09:53:35.000Z</time>
      </trkpt>
      <trkpt lat="43.9938" lon="5.91544">
        <ele>414</ele>
        <time>2020-10-05T09:53:36.000Z</time>
      </trkpt>
      <trkpt lat="43.99382" lon="5.91544">
        <ele>414</ele>
        <time>2020-10-05T09:53:37.000Z</time>
      </trkpt>
      <trkpt lat="43.99383" lon="5.91543">
        <ele>414</ele>
        <time>2020-10-05T09:53:38.000Z</time>
      </trkpt>
      <trkpt lat="43.99383" lon="5.91543">
        <ele>415</ele>
        <time>2020-10-05T09:53:39.000Z</time>
      </trkpt>
      <trkpt lat="43.99385" lon="5.91542">
        <ele>415</ele>
        <time>2020-10-05T09:53:40.000Z</time>
      </trkpt>
      <trkpt lat="43.99385" lon="5.91541">
        <ele>415</ele>
        <time>2020-10-05T09:53:41.000Z</time>
      </trkpt>
      <trkpt lat="43.99387" lon="5.9154">
        <ele>415</ele>
        <time>2020-10-05T09:53:42.000Z</time>
      </trkpt>
      <trkpt lat="43.99388" lon="5.91539">
        <ele>415</ele>
        <time>2020-10-05T09:53:43.000Z</time>
      </trkpt>
      <trkpt lat="43.99389" lon="5.91539">
        <ele>415</ele>
        <time>2020-10-05T09:53:44.000Z</time>
      </trkpt>
      <trkpt lat="43.9939" lon="5.91538">
        <ele>415</ele>
        <time>2020-10-05T09:53:45.000Z</time>
      </trkpt>
      <trkpt lat="43.99391" lon="5.91538">
        <ele>415</ele>
        <time>2020-10-05T09:53:46.000Z</time>
      </trkpt>
      <trkpt lat="43.99392" lon="5.91538">
        <ele>415</ele>
        <time>2020-10-05T09:53:47.000Z</time>
      </trkpt>
      <trkpt lat="43.99393" lon="5.91538">
        <ele>416</ele>
        <time>2020-10-05T09:53:48.000Z</time>
      </trkpt>
      <trkpt lat="43.99395" lon="5.91538">
        <ele>416</ele>
        <time>2020-10-05T09:53:49.000Z</time>
      </trkpt>
      <trkpt lat="43.99396" lon="5.91539">
        <ele>415</ele>
        <time>2020-10-05T09:53:50.000Z</time>
      </trkpt>
      <trkpt lat="43.99397" lon="5.9154">
        <ele>415</ele>
        <time>2020-10-05T09:53:51.000Z</time>
      </trkpt>
      <trkpt lat="43.99398" lon="5.91541">
        <ele>415</ele>
        <time>2020-10-05T09:53:52.000Z</time>
      </trkpt>
      <trkpt lat="43.99399" lon="5.91542">
        <ele>415</ele>
        <time>2020-10-05T09:53:53.000Z</time>
      </trkpt>
      <trkpt lat="43.994" lon="5.91543">
        <ele>415</ele>
        <time>2020-10-05T09:53:54.000Z</time>
      </trkpt>
      <trkpt lat="43.99401" lon="5.91544">
        <ele>415</ele>
        <time>2020-10-05T09:53:55.000Z</time>
      </trkpt>
      <trkpt lat="43.99402" lon="5.91545">
        <ele>415</ele>
        <time>2020-10-05T09:53:56.000Z</time>
      </trkpt>
      <trkpt lat="43.99403" lon="5.91546">
        <ele>415</ele>
        <time>2020-10-05T09:53:57.000Z</time>
      </trkpt>
      <trkpt lat="43.99403" lon="5.91547">
        <ele>415</ele>
        <time>2020-10-05T09:53:58.000Z</time>
      </trkpt>
      <trkpt lat="43.99404" lon="5.91548">
        <ele>415</ele>
        <time>2020-10-05T09:53:59.000Z</time>
      </trkpt>
      <trkpt lat="43.99404" lon="5.91549">
        <ele>415</ele>
        <time>2020-10-05T09:54:00.000Z</time>
      </trkpt>
      <trkpt lat="43.99404" lon="5.91551">
        <ele>415</ele>
        <time>2020-10-05T09:54:01.000Z</time>
      </trkpt>
      <trkpt lat="43.99404" lon="5.91552">
        <ele>415</ele>
        <time>2020-10-05T09:54:02.000Z</time>
      </trkpt>
      <trkpt lat="43.99404" lon="5.91554">
        <ele>415</ele>
        <time>2020-10-05T09:54:03.000Z</time>
      </trkpt>
      <trkpt lat="43.99404" lon="5.91555">
        <ele>415</ele>
        <time>2020-10-05T09:54:04.000Z</time>
      </trkpt>
      <trkpt lat="43.99404" lon="5.91556">
        <ele>415</ele>
        <time>2020-10-05T09:54:05.000Z</time>
      </trkpt>
      <trkpt lat="43.99404" lon="5.91558">
        <ele>415</ele>
        <time>2020-10-05T09:54:06.000Z</time>
      </trkpt>
      <trkpt lat="43.99404" lon="5.91559">
        <ele>415</ele>
        <time>2020-10-05T09:54:07.000Z</time>
      </trkpt>
      <trkpt lat="43.99404" lon="5.91561">
        <ele>415</ele>
        <time>2020-10-05T09:54:08.000Z</time>
      </trkpt>
      <trkpt lat="43.99403" lon="5.91562">
        <ele>415</ele>
        <time>2020-10-05T09:54:09.000Z</time>
      </trkpt>
      <trkpt lat="43.99403" lon="5.91563">
        <ele>415</ele>
        <time>2020-10-05T09:54:10.000Z</time>
      </trkpt>
      <trkpt lat="43.99403" lon="5.91565">
        <ele>415</ele>
        <time>2020-10-05T09:54:11.000Z</time>
      </trkpt>
      <trkpt lat="43.99403" lon="5.91566">
        <ele>415</ele>
        <time>2020-10-05T09:54:12.000Z</time>
      </trkpt>
      <trkpt lat="43.99403" lon="5.91567">
        <ele>416</ele>
        <time>2020-10-05T09:54:13.000Z</time>
      </trkpt>
      <trkpt lat="43.99403" lon="5.91569">
        <ele>416</ele>
        <time>2020-10-05T09:54:14.000Z</time>
      </trkpt>
      <trkpt lat="43.99403" lon="5.9157">
        <ele>416</ele>
        <time>2020-10-05T09:54:15.000Z</time>
      </trkpt>
      <trkpt lat="43.99403" lon="5.91571">
        <ele>416</ele>
        <time>2020-10-05T09:54:16.000Z</time>
      </trkpt>
      <trkpt lat="43.99403" lon="5.91573">
        <ele>416</ele>
        <time>2020-10-05T09:54:17.000Z</time>
      </trkpt>
      <trkpt lat="43.99402" lon="5.91574">
        <ele>416</ele>
        <time>2020-10-05T09:54:18.000Z</time>
      </trkpt>
      <trkpt lat="43.99402" lon="5.91576">
        <ele>416</ele>
        <time>2020-10-05T09:54:19.000Z</time>
      </trkpt>
      <trkpt lat="43.99402" lon="5.91577">
        <ele>416</ele>
        <time>2020-10-05T09:54:20.000Z</time>
      </trkpt>
      <trkpt lat="43.99401" lon="5.91579">
        <ele>416</ele>
        <time>2020-10-05T09:54:21.000Z</time>
      </trkpt>
      <trkpt lat="43.99401" lon="5.9158">
        <ele>416</ele>
        <time>2020-10-05T09:54:22.000Z</time>
      </trkpt>
      <trkpt lat="43.99401" lon="5.91582">
        <ele>415</ele>
        <time>2020-10-05T09:54:23.000Z</time>
      </trkpt>
      <trkpt lat="43.994" lon="5.91584">
        <ele>415</ele>
        <time>2020-10-05T09:54:24.000Z</time>
      </trkpt>
      <trkpt lat="43.994" lon="5.91585">
        <ele>415</ele>
        <time>2020-10-05T09:54:25.000Z</time>
      </trkpt>
      <trkpt lat="43.99399" lon="5.91587">
        <ele>415</ele>
        <time>2020-10-05T09:54:26.000Z</time>
      </trkpt>
      <trkpt lat="43.99399" lon="5.91589">
        <ele>415</ele>
        <time>2020-10-05T09:54:27.000Z</time>
      </trkpt>
      <trkpt lat="43.99399" lon="5.9159">
        <ele>415</ele>
        <time>2020-10-05T09:54:28.000Z</time>
      </trkpt>
      <trkpt lat="43.99398" lon="5.91592">
        <ele>415</ele>
        <time>2020-10-05T09:54:29.000Z</time>
      </trkpt>
      <trkpt lat="43.99398" lon="5.91593">
        <ele>415</ele>
        <time>2020-10-05T09:54:30.000Z</time>
      </trkpt>
      <trkpt lat="43.99397" lon="5.91595">
        <ele>415</ele>
        <time>2020-10-05T09:54:31.000Z</time>
      </trkpt>
      <trkpt lat="43.99397" lon="5.91595">
        <ele>415</ele>
        <time>2020-10-05T09:54:32.000Z</time>
      </trkpt>
      <trkpt lat="43.99397" lon="5.91595">
        <ele>415</ele>
        <time>2020-10-05T09:54:33.000Z</time>
      </trkpt>
      <trkpt lat="43.99397" lon="5.91595">
        <ele>415</ele>
        <time>2020-10-05T09:54:34.000Z</time>
      </trkpt>
      <trkpt lat="43.99396" lon="5.91596">
        <ele>415</ele>
        <time>2020-10-05T09:54:35.000Z</time>
      </trkpt>
      <trkpt lat="43.99396" lon="5.91597">
        <ele>415</ele>
        <time>2020-10-05T09:54:36.000Z</time>
      </trkpt>
      <trkpt lat="43.99396" lon="5.91599">
        <ele>415</ele>
        <time>2020-10-05T09:54:37.000Z</time>
      </trkpt>
      <trkpt lat="43.99396" lon="5.916">
        <ele>415</ele>
        <time>2020-10-05T09:54:38.000Z</time>
      </trkpt>
      <trkpt lat="43.99395" lon="5.91602">
        <ele>415</ele>
        <time>2020-10-05T09:54:39.000Z</time>
      </trkpt>
      <trkpt lat="43.99395" lon="5.91603">
        <ele>415</ele>
        <time>2020-10-05T09:54:40.000Z</time>
      </trkpt>
      <trkpt lat="43.99395" lon="5.91605">
        <ele>415</ele>
        <time>2020-10-05T09:54:41.000Z</time>
      </trkpt>
      <trkpt lat="43.99395" lon="5.91606">
        <ele>414</ele>
        <time>2020-10-05T09:54:42.000Z</time>
      </trkpt>
      <trkpt lat="43.99395" lon="5.91608">
        <ele>414</ele>
        <time>2020-10-05T09:54:43.000Z</time>
      </trkpt>
      <trkpt lat="43.99394" lon="5.9161">
        <ele>414</ele>
        <time>2020-10-05T09:54:44.000Z</time>
      </trkpt>
      <trkpt lat="43.99394" lon="5.91611">
        <ele>414</ele>
        <time>2020-10-05T09:54:45.000Z</time>
      </trkpt>
      <trkpt lat="43.99394" lon="5.91613">
        <ele>414</ele>
        <time>2020-10-05T09:54:46.000Z</time>
      </trkpt>
      <trkpt lat="43.99395" lon="5.91614">
        <ele>414</ele>
        <time>2020-10-05T09:54:47.000Z</time>
      </trkpt>
      <trkpt lat="43.99395" lon="5.91615">
        <ele>414</ele>
        <time>2020-10-05T09:54:48.000Z</time>
      </trkpt>
      <trkpt lat="43.99395" lon="5.91617">
        <ele>414</ele>
        <time>2020-10-05T09:54:49.000Z</time>
      </trkpt>
      <trkpt lat="43.99396" lon="5.91618">
        <ele>413</ele>
        <time>2020-10-05T09:54:50.000Z</time>
      </trkpt>
      <trkpt lat="43.99396" lon="5.91619">
        <ele>413</ele>
        <time>2020-10-05T09:54:51.000Z</time>
      </trkpt>
      <trkpt lat="43.99397" lon="5.91621">
        <ele>413</ele>
        <time>2020-10-05T09:54:52.000Z</time>
      </trkpt>
      <trkpt lat="43.99397" lon="5.91622">
        <ele>413</ele>
        <time>2020-10-05T09:54:53.000Z</time>
      </trkpt>
      <trkpt lat="43.99398" lon="5.91623">
        <ele>413</ele>
        <time>2020-10-05T09:54:54.000Z</time>
      </trkpt>
      <trkpt lat="43.99399" lon="5.91624">
        <ele>413</ele>
        <time>2020-10-05T09:54:55.000Z</time>
      </trkpt>
      <trkpt lat="43.99399" lon="5.91625">
        <ele>413</ele>
        <time>2020-10-05T09:54:56.000Z</time>
      </trkpt>
      <trkpt lat="43.994" lon="5.91626">
        <ele>412</ele>
        <time>2020-10-05T09:54:57.000Z</time>
      </trkpt>
      <trkpt lat="43.994" lon="5.91626">
        <ele>412</ele>
        <time>2020-10-05T09:54:58.000Z</time>
      </trkpt>
      <trkpt lat="43.994" lon="5.91627">
        <ele>412</ele>
        <time>2020-10-05T09:54:59.000Z</time>
      </trkpt>
      <trkpt lat="43.994" lon="5.91627">
        <ele>412</ele>
        <time>2020-10-05T09:55:00.000Z</time>
      </trkpt>
      <trkpt lat="43.994" lon="5.91627">
        <ele>412</ele>
        <time>2020-10-05T09:55:01.000Z</time>
      </trkpt>
      <trkpt lat="43.99401" lon="5.91627">
        <ele>412</ele>
        <time>2020-10-05T09:55:02.000Z</time>
      </trkpt>
      <trkpt lat="43.99401" lon="5.91628">
        <ele>412</ele>
        <time>2020-10-05T09:55:03.000Z</time>
      </trkpt>
      <trkpt lat="43.99401" lon="5.91628">
        <ele>412</ele>
        <time>2020-10-05T09:55:04.000Z</time>
      </trkpt>
      <trkpt lat="43.99402" lon="5.91629">
        <ele>412</ele>
        <time>2020-10-05T09:55:05.000Z</time>
      </trkpt>
      <trkpt lat="43.99402" lon="5.91629">
        <ele>412</ele>
        <time>2020-10-05T09:55:06.000Z</time>
      </trkpt>
      <trkpt lat="43.99403" lon="5.91629">
        <ele>412</ele>
        <time>2020-10-05T09:55:07.000Z</time>
      </trkpt>
      <trkpt lat="43.99404" lon="5.91629">
        <ele>413</ele>
        <time>2020-10-05T09:55:08.000Z</time>
      </trkpt>
      <trkpt lat="43.99405" lon="5.9163">
        <ele>413</ele>
        <time>2020-10-05T09:55:09.000Z</time>
      </trkpt>
      <trkpt lat="43.99407" lon="5.91629">
        <ele>413</ele>
        <time>2020-10-05T09:55:10.000Z</time>
      </trkpt>
      <trkpt lat="43.99407" lon="5.91629">
        <ele>413</ele>
        <time>2020-10-05T09:55:11.000Z</time>
      </trkpt>
      <trkpt lat="43.99408" lon="5.9163">
        <ele>413</ele>
        <time>2020-10-05T09:55:12.000Z</time>
      </trkpt>
      <trkpt lat="43.99409" lon="5.9163">
        <ele>413</ele>
        <time>2020-10-05T09:55:13.000Z</time>
      </trkpt>
      <trkpt lat="43.99409" lon="5.9163">
        <ele>413</ele>
        <time>2020-10-05T09:55:14.000Z</time>
      </trkpt>
      <trkpt lat="43.99409" lon="5.9163">
        <ele>413</ele>
        <time>2020-10-05T09:55:15.000Z</time>
      </trkpt>
      <trkpt lat="43.99409" lon="5.9163">
        <ele>413</ele>
        <time>2020-10-05T09:55:16.000Z</time>
      </trkpt>
      <trkpt lat="43.99409" lon="5.9163">
        <ele>413</ele>
        <time>2020-10-05T09:55:17.000Z</time>
      </trkpt>
      <trkpt lat="43.99409" lon="5.9163">
        <ele>413</ele>
        <time>2020-10-05T09:55:18.000Z</time>
      </trkpt>
      <trkpt lat="43.99409" lon="5.9163">
        <ele>413</ele>
        <time>2020-10-05T09:55:19.000Z</time>
      </trkpt>
      <trkpt lat="43.9941" lon="5.91631">
        <ele>413</ele>
        <time>2020-10-05T09:55:20.000Z</time>
      </trkpt>
      <trkpt lat="43.9941" lon="5.91631">
        <ele>413</ele>
        <time>2020-10-05T09:55:21.000Z</time>
      </trkpt>
      <trkpt lat="43.99412" lon="5.91632">
        <ele>413</ele>
        <time>2020-10-05T09:55:22.000Z</time>
      </trkpt>
      <trkpt lat="43.99413" lon="5.91632">
        <ele>413</ele>
        <time>2020-10-05T09:55:23.000Z</time>
      </trkpt>
      <trkpt lat="43.99414" lon="5.91632">
        <ele>413</ele>
        <time>2020-10-05T09:55:24.000Z</time>
      </trkpt>
      <trkpt lat="43.99415" lon="5.91632">
        <ele>413</ele>
        <time>2020-10-05T09:55:25.000Z</time>
      </trkpt>
      <trkpt lat="43.99416" lon="5.91633">
        <ele>413</ele>
        <time>2020-10-05T09:55:26.000Z</time>
      </trkpt>
      <trkpt lat="43.99417" lon="5.91633">
        <ele>413</ele>
        <time>2020-10-05T09:55:27.000Z</time>
      </trkpt>
      <trkpt lat="43.99418" lon="5.91633">
        <ele>412</ele>
        <time>2020-10-05T09:55:28.000Z</time>
      </trkpt>
      <trkpt lat="43.99418" lon="5.91633">
        <ele>412</ele>
        <time>2020-10-05T09:55:29.000Z</time>
      </trkpt>
      <trkpt lat="43.99419" lon="5.91633">
        <ele>412</ele>
        <time>2020-10-05T09:55:30.000Z</time>
      </trkpt>
      <trkpt lat="43.99419" lon="5.91633">
        <ele>412</ele>
        <time>2020-10-05T09:55:31.000Z</time>
      </trkpt>
      <trkpt lat="43.99419" lon="5.91633">
        <ele>412</ele>
        <time>2020-10-05T09:55:32.000Z</time>
      </trkpt>
      <trkpt lat="43.99419" lon="5.91633">
        <ele>412</ele>
        <time>2020-10-05T09:55:33.000Z</time>
      </trkpt>
      <trkpt lat="43.99419" lon="5.91633">
        <ele>412</ele>
        <time>2020-10-05T09:55:34.000Z</time>
      </trkpt>
      <trkpt lat="43.99419" lon="5.91633">
        <ele>412</ele>
        <time>2020-10-05T09:55:35.000Z</time>
      </trkpt>
      <trkpt lat="43.99419" lon="5.91632">
        <ele>412</ele>
        <time>2020-10-05T09:55:36.000Z</time>
      </trkpt>
      <trkpt lat="43.99419" lon="5.91633">
        <ele>412</ele>
        <time>2020-10-05T09:55:37.000Z</time>
      </trkpt>
      <trkpt lat="43.9942" lon="5.91633">
        <ele>412</ele>
        <time>2020-10-05T09:55:38.000Z</time>
      </trkpt>
      <trkpt lat="43.9942" lon="5.91633">
        <ele>412</ele>
        <time>2020-10-05T09:55:39.000Z</time>
      </trkpt>
      <trkpt lat="43.99421" lon="5.91633">
        <ele>413</ele>
        <time>2020-10-05T09:55:40.000Z</time>
      </trkpt>
      <trkpt lat="43.99421" lon="5.91632">
        <ele>413</ele>
        <time>2020-10-05T09:55:41.000Z</time>
      </trkpt>
      <trkpt lat="43.99422" lon="5.91632">
        <ele>412</ele>
        <time>2020-10-05T09:55:42.000Z</time>
      </trkpt>
      <trkpt lat="43.99423" lon="5.91631">
        <ele>413</ele>
        <time>2020-10-05T09:55:43.000Z</time>
      </trkpt>
      <trkpt lat="43.99424" lon="5.91631">
        <ele>413</ele>
        <time>2020-10-05T09:55:44.000Z</time>
      </trkpt>
      <trkpt lat="43.99425" lon="5.9163">
        <ele>413</ele>
        <time>2020-10-05T09:55:45.000Z</time>
      </trkpt>
      <trkpt lat="43.99426" lon="5.9163">
        <ele>413</ele>
        <time>2020-10-05T09:55:46.000Z</time>
      </trkpt>
      <trkpt lat="43.99427" lon="5.91629">
        <ele>413</ele>
        <time>2020-10-05T09:55:47.000Z</time>
      </trkpt>
      <trkpt lat="43.99428" lon="5.91628">
        <ele>413</ele>
        <time>2020-10-05T09:55:48.000Z</time>
      </trkpt>
      <trkpt lat="43.99429" lon="5.91628">
        <ele>413</ele>
        <time>2020-10-05T09:55:49.000Z</time>
      </trkpt>
      <trkpt lat="43.99429" lon="5.91627">
        <ele>413</ele>
        <time>2020-10-05T09:55:50.000Z</time>
      </trkpt>
      <trkpt lat="43.9943" lon="5.91626">
        <ele>413</ele>
        <time>2020-10-05T09:55:51.000Z</time>
      </trkpt>
      <trkpt lat="43.99431" lon="5.91626">
        <ele>413</ele>
        <time>2020-10-05T09:55:52.000Z</time>
      </trkpt>
      <trkpt lat="43.99432" lon="5.91625">
        <ele>413</ele>
        <time>2020-10-05T09:55:53.000Z</time>
      </trkpt>
      <trkpt lat="43.99433" lon="5.91624">
        <ele>413</ele>
        <time>2020-10-05T09:55:54.000Z</time>
      </trkpt>
      <trkpt lat="43.99434" lon="5.91623">
        <ele>413</ele>
        <time>2020-10-05T09:55:55.000Z</time>
      </trkpt>
      <trkpt lat="43.99434" lon="5.91622">
        <ele>414</ele>
        <time>2020-10-05T09:55:56.000Z</time>
      </trkpt>
      <trkpt lat="43.99435" lon="5.91621">
        <ele>414</ele>
        <time>2020-10-05T09:55:57.000Z</time>
      </trkpt>
      <trkpt lat="43.99436" lon="5.9162">
        <ele>414</ele>
        <time>2020-10-05T09:55:58.000Z</time>
      </trkpt>
      <trkpt lat="43.99437" lon="5.91619">
        <ele>414</ele>
        <time>2020-10-05T09:55:59.000Z</time>
      </trkpt>
      <trkpt lat="43.99437" lon="5.91619">
        <ele>414</ele>
        <time>2020-10-05T09:56:00.000Z</time>
      </trkpt>
      <trkpt lat="43.99438" lon="5.91618">
        <ele>413</ele>
        <time>2020-10-05T09:56:01.000Z</time>
      </trkpt>
      <trkpt lat="43.99439" lon="5.91617">
        <ele>413</ele>
        <time>2020-10-05T09:56:02.000Z</time>
      </trkpt>
      <trkpt lat="43.9944" lon="5.91615">
        <ele>413</ele>
        <time>2020-10-05T09:56:03.000Z</time>
      </trkpt>
      <trkpt lat="43.9944" lon="5.91614">
        <ele>413</ele>
        <time>2020-10-05T09:56:04.000Z</time>
      </trkpt>
      <trkpt lat="43.99441" lon="5.91614">
        <ele>413</ele>
        <time>2020-10-05T09:56:05.000Z</time>
      </trkpt>
      <trkpt lat="43.99442" lon="5.91613">
        <ele>414</ele>
        <time>2020-10-05T09:56:06.000Z</time>
      </trkpt>
      <trkpt lat="43.99443" lon="5.91612">
        <ele>414</ele>
        <time>2020-10-05T09:56:07.000Z</time>
      </trkpt>
      <trkpt lat="43.99444" lon="5.91611">
        <ele>414</ele>
        <time>2020-10-05T09:56:08.000Z</time>
      </trkpt>
      <trkpt lat="43.99445" lon="5.9161">
        <ele>414</ele>
        <time>2020-10-05T09:56:09.000Z</time>
      </trkpt>
      <trkpt lat="43.99446" lon="5.91609">
        <ele>414</ele>
        <time>2020-10-05T09:56:10.000Z</time>
      </trkpt>
      <trkpt lat="43.99447" lon="5.91608">
        <ele>414</ele>
        <time>2020-10-05T09:56:11.000Z</time>
      </trkpt>
      <trkpt lat="43.99447" lon="5.91607">
        <ele>414</ele>
        <time>2020-10-05T09:56:12.000Z</time>
      </trkpt>
      <trkpt lat="43.99448" lon="5.91606">
        <ele>414</ele>
        <time>2020-10-05T09:56:13.000Z</time>
      </trkpt>
      <trkpt lat="43.99449" lon="5.91605">
        <ele>414</ele>
        <time>2020-10-05T09:56:14.000Z</time>
      </trkpt>
      <trkpt lat="43.9945" lon="5.91604">
        <ele>415</ele>
        <time>2020-10-05T09:56:15.000Z</time>
      </trkpt>
      <trkpt lat="43.99451" lon="5.91603">
        <ele>415</ele>
        <time>2020-10-05T09:56:16.000Z</time>
      </trkpt>
      <trkpt lat="43.99452" lon="5.91602">
        <ele>415</ele>
        <time>2020-10-05T09:56:17.000Z</time>
      </trkpt>
      <trkpt lat="43.99453" lon="5.91601">
        <ele>415</ele>
        <time>2020-10-05T09:56:18.000Z</time>
      </trkpt>
      <trkpt lat="43.99454" lon="5.916">
        <ele>415</ele>
        <time>2020-10-05T09:56:19.000Z</time>
      </trkpt>
      <trkpt lat="43.99454" lon="5.91599">
        <ele>415</ele>
        <time>2020-10-05T09:56:20.000Z</time>
      </trkpt>
      <trkpt lat="43.99455" lon="5.91598">
        <ele>415</ele>
        <time>2020-10-05T09:56:21.000Z</time>
      </trkpt>
      <trkpt lat="43.99456" lon="5.91596">
        <ele>415</ele>
        <time>2020-10-05T09:56:22.000Z</time>
      </trkpt>
      <trkpt lat="43.99457" lon="5.91595">
        <ele>415</ele>
        <time>2020-10-05T09:56:23.000Z</time>
      </trkpt>
      <trkpt lat="43.99458" lon="5.91594">
        <ele>415</ele>
        <time>2020-10-05T09:56:24.000Z</time>
      </trkpt>
      <trkpt lat="43.99459" lon="5.91593">
        <ele>415</ele>
        <time>2020-10-05T09:56:25.000Z</time>
      </trkpt>
      <trkpt lat="43.9946" lon="5.91592">
        <ele>415</ele>
        <time>2020-10-05T09:56:26.000Z</time>
      </trkpt>
      <trkpt lat="43.9946" lon="5.91591">
        <ele>415</ele>
        <time>2020-10-05T09:56:27.000Z</time>
      </trkpt>
      <trkpt lat="43.99461" lon="5.9159">
        <ele>415</ele>
        <time>2020-10-05T09:56:28.000Z</time>
      </trkpt>
      <trkpt lat="43.99462" lon="5.91589">
        <ele>415</ele>
        <time>2020-10-05T09:56:29.000Z</time>
      </trkpt>
      <trkpt lat="43.99463" lon="5.91587">
        <ele>415</ele>
        <time>2020-10-05T09:56:30.000Z</time>
      </trkpt>
      <trkpt lat="43.99464" lon="5.91586">
        <ele>415</ele>
        <time>2020-10-05T09:56:31.000Z</time>
      </trkpt>
      <trkpt lat="43.99464" lon="5.91585">
        <ele>416</ele>
        <time>2020-10-05T09:56:32.000Z</time>
      </trkpt>
      <trkpt lat="43.99465" lon="5.91584">
        <ele>416</ele>
        <time>2020-10-05T09:56:33.000Z</time>
      </trkpt>
      <trkpt lat="43.99466" lon="5.91583">
        <ele>416</ele>
        <time>2020-10-05T09:56:34.000Z</time>
      </trkpt>
      <trkpt lat="43.99467" lon="5.91582">
        <ele>416</ele>
        <time>2020-10-05T09:56:35.000Z</time>
      </trkpt>
      <trkpt lat="43.99469" lon="5.91581">
        <ele>416</ele>
        <time>2020-10-05T09:56:36.000Z</time>
      </trkpt>
      <trkpt lat="43.9947" lon="5.9158">
        <ele>416</ele>
        <time>2020-10-05T09:56:37.000Z</time>
      </trkpt>
      <trkpt lat="43.99471" lon="5.91579">
        <ele>416</ele>
        <time>2020-10-05T09:56:38.000Z</time>
      </trkpt>
      <trkpt lat="43.99472" lon="5.91579">
        <ele>416</ele>
        <time>2020-10-05T09:56:39.000Z</time>
      </trkpt>
      <trkpt lat="43.99472" lon="5.91578">
        <ele>417</ele>
        <time>2020-10-05T09:56:40.000Z</time>
      </trkpt>
      <trkpt lat="43.99473" lon="5.91577">
        <ele>417</ele>
        <time>2020-10-05T09:56:41.000Z</time>
      </trkpt>
      <trkpt lat="43.99474" lon="5.91576">
        <ele>417</ele>
        <time>2020-10-05T09:56:42.000Z</time>
      </trkpt>
      <trkpt lat="43.99475" lon="5.91575">
        <ele>417</ele>
        <time>2020-10-05T09:56:43.000Z</time>
      </trkpt>
      <trkpt lat="43.99475" lon="5.91574">
        <ele>417</ele>
        <time>2020-10-05T09:56:44.000Z</time>
      </trkpt>
      <trkpt lat="43.99476" lon="5.91573">
        <ele>417</ele>
        <time>2020-10-05T09:56:45.000Z</time>
      </trkpt>
      <trkpt lat="43.99477" lon="5.91571">
        <ele>417</ele>
        <time>2020-10-05T09:56:46.000Z</time>
      </trkpt>
      <trkpt lat="43.99478" lon="5.9157">
        <ele>417</ele>
        <time>2020-10-05T09:56:47.000Z</time>
      </trkpt>
      <trkpt lat="43.99478" lon="5.9157">
        <ele>417</ele>
        <time>2020-10-05T09:56:48.000Z</time>
      </trkpt>
      <trkpt lat="43.99479" lon="5.9157">
        <ele>417</ele>
        <time>2020-10-05T09:56:49.000Z</time>
      </trkpt>
      <trkpt lat="43.9948" lon="5.9157">
        <ele>417</ele>
        <time>2020-10-05T09:56:50.000Z</time>
      </trkpt>
      <trkpt lat="43.99481" lon="5.91571">
        <ele>417</ele>
        <time>2020-10-05T09:56:51.000Z</time>
      </trkpt>
      <trkpt lat="43.99482" lon="5.91571">
        <ele>417</ele>
        <time>2020-10-05T09:56:52.000Z</time>
      </trkpt>
      <trkpt lat="43.99482" lon="5.91571">
        <ele>417</ele>
        <time>2020-10-05T09:56:53.000Z</time>
      </trkpt>
      <trkpt lat="43.99482" lon="5.91571">
        <ele>417</ele>
        <time>2020-10-05T09:56:54.000Z</time>
      </trkpt>
      <trkpt lat="43.99483" lon="5.91571">
        <ele>417</ele>
        <time>2020-10-05T09:56:55.000Z</time>
      </trkpt>
      <trkpt lat="43.99483" lon="5.91571">
        <ele>417</ele>
        <time>2020-10-05T09:56:56.000Z</time>
      </trkpt>
      <trkpt lat="43.99483" lon="5.91572">
        <ele>417</ele>
        <time>2020-10-05T09:56:57.000Z</time>
      </trkpt>
      <trkpt lat="43.99483" lon="5.91572">
        <ele>416</ele>
        <time>2020-10-05T09:56:58.000Z</time>
      </trkpt>
      <trkpt lat="43.99483" lon="5.91572">
        <ele>416</ele>
        <time>2020-10-05T09:56:59.000Z</time>
      </trkpt>
      <trkpt lat="43.99484" lon="5.91572">
        <ele>416</ele>
        <time>2020-10-05T09:57:00.000Z</time>
      </trkpt>
      <trkpt lat="43.99485" lon="5.91573">
        <ele>416</ele>
        <time>2020-10-05T09:57:01.000Z</time>
      </trkpt>
      <trkpt lat="43.99486" lon="5.91573">
        <ele>416</ele>
        <time>2020-10-05T09:57:02.000Z</time>
      </trkpt>
      <trkpt lat="43.99487" lon="5.91574">
        <ele>416</ele>
        <time>2020-10-05T09:57:03.000Z</time>
      </trkpt>
      <trkpt lat="43.99488" lon="5.91574">
        <ele>416</ele>
        <time>2020-10-05T09:57:04.000Z</time>
      </trkpt>
      <trkpt lat="43.99489" lon="5.91575">
        <ele>416</ele>
        <time>2020-10-05T09:57:05.000Z</time>
      </trkpt>
      <trkpt lat="43.9949" lon="5.91576">
        <ele>416</ele>
        <time>2020-10-05T09:57:06.000Z</time>
      </trkpt>
      <trkpt lat="43.99492" lon="5.91577">
        <ele>415</ele>
        <time>2020-10-05T09:57:07.000Z</time>
      </trkpt>
      <trkpt lat="43.99493" lon="5.91579">
        <ele>415</ele>
        <time>2020-10-05T09:57:08.000Z</time>
      </trkpt>
      <trkpt lat="43.99493" lon="5.91581">
        <ele>415</ele>
        <time>2020-10-05T09:57:09.000Z</time>
      </trkpt>
      <trkpt lat="43.99493" lon="5.91582">
        <ele>415</ele>
        <time>2020-10-05T09:57:10.000Z</time>
      </trkpt>
      <trkpt lat="43.99493" lon="5.91584">
        <ele>415</ele>
        <time>2020-10-05T09:57:11.000Z</time>
      </trkpt>
      <trkpt lat="43.99493" lon="5.91586">
        <ele>415</ele>
        <time>2020-10-05T09:57:12.000Z</time>
      </trkpt>
      <trkpt lat="43.99493" lon="5.91588">
        <ele>415</ele>
        <time>2020-10-05T09:57:13.000Z</time>
      </trkpt>
      <trkpt lat="43.99493" lon="5.91589">
        <ele>415</ele>
        <time>2020-10-05T09:57:14.000Z</time>
      </trkpt>
      <trkpt lat="43.99493" lon="5.91591">
        <ele>415</ele>
        <time>2020-10-05T09:57:15.000Z</time>
      </trkpt>
      <trkpt lat="43.99493" lon="5.91593">
        <ele>415</ele>
        <time>2020-10-05T09:57:16.000Z</time>
      </trkpt>
      <trkpt lat="43.99493" lon="5.91595">
        <ele>415</ele>
        <time>2020-10-05T09:57:17.000Z</time>
      </trkpt>
      <trkpt lat="43.99492" lon="5.91597">
        <ele>415</ele>
        <time>2020-10-05T09:57:18.000Z</time>
      </trkpt>
      <trkpt lat="43.99492" lon="5.91599">
        <ele>415</ele>
        <time>2020-10-05T09:57:19.000Z</time>
      </trkpt>
      <trkpt lat="43.99492" lon="5.916">
        <ele>415</ele>
        <time>2020-10-05T09:57:20.000Z</time>
      </trkpt>
      <trkpt lat="43.99492" lon="5.91602">
        <ele>415</ele>
        <time>2020-10-05T09:57:21.000Z</time>
      </trkpt>
      <trkpt lat="43.99492" lon="5.91603">
        <ele>415</ele>
        <time>2020-10-05T09:57:22.000Z</time>
      </trkpt>
      <trkpt lat="43.99492" lon="5.91605">
        <ele>415</ele>
        <time>2020-10-05T09:57:23.000Z</time>
      </trkpt>
      <trkpt lat="43.99492" lon="5.91606">
        <ele>415</ele>
        <time>2020-10-05T09:57:24.000Z</time>
      </trkpt>
      <trkpt lat="43.99491" lon="5.91608">
        <ele>415</ele>
        <time>2020-10-05T09:57:25.000Z</time>
      </trkpt>
      <trkpt lat="43.99491" lon="5.9161">
        <ele>415</ele>
        <time>2020-10-05T09:57:26.000Z</time>
      </trkpt>
      <trkpt lat="43.99491" lon="5.91612">
        <ele>415</ele>
        <time>2020-10-05T09:57:27.000Z</time>
      </trkpt>
      <trkpt lat="43.99491" lon="5.91613">
        <ele>415</ele>
        <time>2020-10-05T09:57:28.000Z</time>
      </trkpt>
      <trkpt lat="43.99491" lon="5.91615">
        <ele>415</ele>
        <time>2020-10-05T09:57:29.000Z</time>
      </trkpt>
      <trkpt lat="43.99491" lon="5.91616">
        <ele>415</ele>
        <time>2020-10-05T09:57:30.000Z</time>
      </trkpt>
      <trkpt lat="43.99491" lon="5.91618">
        <ele>415</ele>
        <time>2020-10-05T09:57:31.000Z</time>
      </trkpt>
      <trkpt lat="43.9949" lon="5.9162">
        <ele>415</ele>
        <time>2020-10-05T09:57:32.000Z</time>
      </trkpt>
      <trkpt lat="43.9949" lon="5.91622">
        <ele>414</ele>
        <time>2020-10-05T09:57:33.000Z</time>
      </trkpt>
      <trkpt lat="43.99489" lon="5.91624">
        <ele>414</ele>
        <time>2020-10-05T09:57:34.000Z</time>
      </trkpt>
      <trkpt lat="43.99489" lon="5.91625">
        <ele>414</ele>
        <time>2020-10-05T09:57:35.000Z</time>
      </trkpt>
      <trkpt lat="43.99489" lon="5.91627">
        <ele>414</ele>
        <time>2020-10-05T09:57:36.000Z</time>
      </trkpt>
      <trkpt lat="43.99489" lon="5.91629">
        <ele>414</ele>
        <time>2020-10-05T09:57:37.000Z</time>
      </trkpt>
      <trkpt lat="43.99489" lon="5.9163">
        <ele>414</ele>
        <time>2020-10-05T09:57:38.000Z</time>
      </trkpt>
      <trkpt lat="43.99488" lon="5.91632">
        <ele>414</ele>
        <time>2020-10-05T09:57:39.000Z</time>
      </trkpt>
      <trkpt lat="43.99488" lon="5.91634">
        <ele>414</ele>
        <time>2020-10-05T09:57:40.000Z</time>
      </trkpt>
      <trkpt lat="43.99488" lon="5.91635">
        <ele>414</ele>
        <time>2020-10-05T09:57:41.000Z</time>
      </trkpt>
      <trkpt lat="43.99488" lon="5.91637">
        <ele>414</ele>
        <time>2020-10-05T09:57:42.000Z</time>
      </trkpt>
      <trkpt lat="43.99489" lon="5.91639">
        <ele>414</ele>
        <time>2020-10-05T09:57:43.000Z</time>
      </trkpt>
      <trkpt lat="43.99489" lon="5.91641">
        <ele>414</ele>
        <time>2020-10-05T09:57:44.000Z</time>
      </trkpt>
      <trkpt lat="43.99489" lon="5.91642">
        <ele>414</ele>
        <time>2020-10-05T09:57:45.000Z</time>
      </trkpt>
      <trkpt lat="43.99489" lon="5.91644">
        <ele>414</ele>
        <time>2020-10-05T09:57:46.000Z</time>
      </trkpt>
      <trkpt lat="43.9949" lon="5.91645">
        <ele>414</ele>
        <time>2020-10-05T09:57:47.000Z</time>
      </trkpt>
      <trkpt lat="43.9949" lon="5.91647">
        <ele>414</ele>
        <time>2020-10-05T09:57:48.000Z</time>
      </trkpt>
      <trkpt lat="43.99491" lon="5.91649">
        <ele>414</ele>
        <time>2020-10-05T09:57:49.000Z</time>
      </trkpt>
      <trkpt lat="43.99491" lon="5.9165">
        <ele>414</ele>
        <time>2020-10-05T09:57:50.000Z</time>
      </trkpt>
      <trkpt lat="43.99492" lon="5.91652">
        <ele>414</ele>
        <time>2020-10-05T09:57:51.000Z</time>
      </trkpt>
      <trkpt lat="43.99492" lon="5.91653">
        <ele>414</ele>
        <time>2020-10-05T09:57:52.000Z</time>
      </trkpt>
      <trkpt lat="43.99492" lon="5.91655">
        <ele>414</ele>
        <time>2020-10-05T09:57:53.000Z</time>
      </trkpt>
      <trkpt lat="43.99493" lon="5.91655">
        <ele>414</ele>
        <time>2020-10-05T09:57:54.000Z</time>
      </trkpt>
      <trkpt lat="43.99493" lon="5.91655">
        <ele>414</ele>
        <time>2020-10-05T09:57:55.000Z</time>
      </trkpt>
      <trkpt lat="43.99493" lon="5.91655">
        <ele>414</ele>
        <time>2020-10-05T09:57:56.000Z</time>
      </trkpt>
      <trkpt lat="43.99494" lon="5.91656">
        <ele>414</ele>
        <time>2020-10-05T09:57:57.000Z</time>
      </trkpt>
      <trkpt lat="43.99494" lon="5.91657">
        <ele>413</ele>
        <time>2020-10-05T09:57:58.000Z</time>
      </trkpt>
      <trkpt lat="43.99495" lon="5.91659">
        <ele>413</ele>
        <time>2020-10-05T09:57:59.000Z</time>
      </trkpt>
      <trkpt lat="43.99495" lon="5.91659">
        <ele>413</ele>
        <time>2020-10-05T09:58:00.000Z</time>
      </trkpt>
      <trkpt lat="43.99495" lon="5.9166">
        <ele>413</ele>
        <time>2020-10-05T09:58:01.000Z</time>
      </trkpt>
      <trkpt lat="43.99495" lon="5.9166">
        <ele>413</ele>
        <time>2020-10-05T09:58:02.000Z</time>
      </trkpt>
      <trkpt lat="43.99496" lon="5.9166">
        <ele>413</ele>
        <time>2020-10-05T09:58:03.000Z</time>
      </trkpt>
      <trkpt lat="43.99496" lon="5.91661">
        <ele>413</ele>
        <time>2020-10-05T09:58:04.000Z</time>
      </trkpt>
      <trkpt lat="43.99497" lon="5.91662">
        <ele>413</ele>
        <time>2020-10-05T09:58:05.000Z</time>
      </trkpt>
      <trkpt lat="43.99498" lon="5.91663">
        <ele>413</ele>
        <time>2020-10-05T09:58:06.000Z</time>
      </trkpt>
      <trkpt lat="43.99499" lon="5.91663">
        <ele>413</ele>
        <time>2020-10-05T09:58:07.000Z</time>
      </trkpt>
      <trkpt lat="43.995" lon="5.91664">
        <ele>413</ele>
        <time>2020-10-05T09:58:08.000Z</time>
      </trkpt>
      <trkpt lat="43.99502" lon="5.91665">
        <ele>413</ele>
        <time>2020-10-05T09:58:09.000Z</time>
      </trkpt>
      <trkpt lat="43.99503" lon="5.91665">
        <ele>412</ele>
        <time>2020-10-05T09:58:10.000Z</time>
      </trkpt>
      <trkpt lat="43.99504" lon="5.91665">
        <ele>412</ele>
        <time>2020-10-05T09:58:11.000Z</time>
      </trkpt>
      <trkpt lat="43.99505" lon="5.91665">
        <ele>412</ele>
        <time>2020-10-05T09:58:12.000Z</time>
      </trkpt>
      <trkpt lat="43.99506" lon="5.91665">
        <ele>412</ele>
        <time>2020-10-05T09:58:13.000Z</time>
      </trkpt>
      <trkpt lat="43.99507" lon="5.91665">
        <ele>412</ele>
        <time>2020-10-05T09:58:14.000Z</time>
      </trkpt>
      <trkpt lat="43.99507" lon="5.91666">
        <ele>412</ele>
        <time>2020-10-05T09:58:15.000Z</time>
      </trkpt>
      <trkpt lat="43.99508" lon="5.91666">
        <ele>412</ele>
        <time>2020-10-05T09:58:16.000Z</time>
      </trkpt>
      <trkpt lat="43.99509" lon="5.91666">
        <ele>412</ele>
        <time>2020-10-05T09:58:17.000Z</time>
      </trkpt>
      <trkpt lat="43.9951" lon="5.91667">
        <ele>412</ele>
        <time>2020-10-05T09:58:18.000Z</time>
      </trkpt>
      <trkpt lat="43.99511" lon="5.91667">
        <ele>412</ele>
        <time>2020-10-05T09:58:19.000Z</time>
      </trkpt>
      <trkpt lat="43.99512" lon="5.91667">
        <ele>412</ele>
        <time>2020-10-05T09:58:20.000Z</time>
      </trkpt>
      <trkpt lat="43.99513" lon="5.91668">
        <ele>412</ele>
        <time>2020-10-05T09:58:21.000Z</time>
      </trkpt>
      <trkpt lat="43.99514" lon="5.91668">
        <ele>412</ele>
        <time>2020-10-05T09:58:22.000Z</time>
      </trkpt>
      <trkpt lat="43.99515" lon="5.91668">
        <ele>412</ele>
        <time>2020-10-05T09:58:23.000Z</time>
      </trkpt>
      <trkpt lat="43.99516" lon="5.91668">
        <ele>412</ele>
        <time>2020-10-05T09:58:24.000Z</time>
      </trkpt>
      <trkpt lat="43.99517" lon="5.91669">
        <ele>412</ele>
        <time>2020-10-05T09:58:25.000Z</time>
      </trkpt>
      <trkpt lat="43.99518" lon="5.91669">
        <ele>412</ele>
        <time>2020-10-05T09:58:26.000Z</time>
      </trkpt>
      <trkpt lat="43.99519" lon="5.9167">
        <ele>412</ele>
        <time>2020-10-05T09:58:27.000Z</time>
      </trkpt>
      <trkpt lat="43.99521" lon="5.9167">
        <ele>412</ele>
        <time>2020-10-05T09:58:28.000Z</time>
      </trkpt>
      <trkpt lat="43.99521" lon="5.9167">
        <ele>412</ele>
        <time>2020-10-05T09:58:29.000Z</time>
      </trkpt>
      <trkpt lat="43.99522" lon="5.91671">
        <ele>412</ele>
        <time>2020-10-05T09:58:30.000Z</time>
      </trkpt>
      <trkpt lat="43.99522" lon="5.91671">
        <ele>412</ele>
        <time>2020-10-05T09:58:31.000Z</time>
      </trkpt>
      <trkpt lat="43.99522" lon="5.91671">
        <ele>412</ele>
        <time>2020-10-05T09:58:32.000Z</time>
      </trkpt>
      <trkpt lat="43.99522" lon="5.91671">
        <ele>412</ele>
        <time>2020-10-05T09:58:33.000Z</time>
      </trkpt>
      <trkpt lat="43.99522" lon="5.91671">
        <ele>412</ele>
        <time>2020-10-05T09:58:34.000Z</time>
      </trkpt>
      <trkpt lat="43.99522" lon="5.91671">
        <ele>412</ele>
        <time>2020-10-05T09:58:35.000Z</time>
      </trkpt>
      <trkpt lat="43.99522" lon="5.91671">
        <ele>412</ele>
        <time>2020-10-05T09:58:36.000Z</time>
      </trkpt>
      <trkpt lat="43.99522" lon="5.91671">
        <ele>412</ele>
        <time>2020-10-05T09:58:37.000Z</time>
      </trkpt>
      <trkpt lat="43.99522" lon="5.91671">
        <ele>412</ele>
        <time>2020-10-05T09:58:38.000Z</time>
      </trkpt>
      <trkpt lat="43.99522" lon="5.91671">
        <ele>412</ele>
        <time>2020-10-05T09:58:39.000Z</time>
      </trkpt>
      <trkpt lat="43.99522" lon="5.91671">
        <ele>412</ele>
        <time>2020-10-05T09:58:40.000Z</time>
      </trkpt>
      <trkpt lat="43.99523" lon="5.91671">
        <ele>412</ele>
        <time>2020-10-05T09:58:41.000Z</time>
      </trkpt>
      <trkpt lat="43.99523" lon="5.91671">
        <ele>412</ele>
        <time>2020-10-05T09:58:42.000Z</time>
      </trkpt>
      <trkpt lat="43.99523" lon="5.91671">
        <ele>412</ele>
        <time>2020-10-05T09:58:43.000Z</time>
      </trkpt>
      <trkpt lat="43.99523" lon="5.91671">
        <ele>412</ele>
        <time>2020-10-05T09:58:44.000Z</time>
      </trkpt>
      <trkpt lat="43.99523" lon="5.91671">
        <ele>412</ele>
        <time>2020-10-05T09:58:45.000Z</time>
      </trkpt>
      <trkpt lat="43.99523" lon="5.91671">
        <ele>412</ele>
        <time>2020-10-05T09:58:46.000Z</time>
      </trkpt>
      <trkpt lat="43.99524" lon="5.91671">
        <ele>412</ele>
        <time>2020-10-05T09:58:47.000Z</time>
      </trkpt>
      <trkpt lat="43.99524" lon="5.91671">
        <ele>412</ele>
        <time>2020-10-05T09:58:48.000Z</time>
      </trkpt>
      <trkpt lat="43.99525" lon="5.91671">
        <ele>412</ele>
        <time>2020-10-05T09:58:49.000Z</time>
      </trkpt>
      <trkpt lat="43.99526" lon="5.91672">
        <ele>412</ele>
        <time>2020-10-05T09:58:50.000Z</time>
      </trkpt>
      <trkpt lat="43.99527" lon="5.91672">
        <ele>412</ele>
        <time>2020-10-05T09:58:51.000Z</time>
      </trkpt>
      <trkpt lat="43.99528" lon="5.91673">
        <ele>412</ele>
        <time>2020-10-05T09:58:52.000Z</time>
      </trkpt>
      <trkpt lat="43.99529" lon="5.91674">
        <ele>412</ele>
        <time>2020-10-05T09:58:53.000Z</time>
      </trkpt>
      <trkpt lat="43.9953" lon="5.91675">
        <ele>412</ele>
        <time>2020-10-05T09:58:54.000Z</time>
      </trkpt>
      <trkpt lat="43.99531" lon="5.91675">
        <ele>412</ele>
        <time>2020-10-05T09:58:55.000Z</time>
      </trkpt>
      <trkpt lat="43.99532" lon="5.91676">
        <ele>412</ele>
        <time>2020-10-05T09:58:56.000Z</time>
      </trkpt>
      <trkpt lat="43.99533" lon="5.91677">
        <ele>412</ele>
        <time>2020-10-05T09:58:57.000Z</time>
      </trkpt>
      <trkpt lat="43.99535" lon="5.91677">
        <ele>412</ele>
        <time>2020-10-05T09:58:58.000Z</time>
      </trkpt>
      <trkpt lat="43.99536" lon="5.91678">
        <ele>412</ele>
        <time>2020-10-05T09:58:59.000Z</time>
      </trkpt>
      <trkpt lat="43.99537" lon="5.91679">
        <ele>412</ele>
        <time>2020-10-05T09:59:00.000Z</time>
      </trkpt>
      <trkpt lat="43.99538" lon="5.91681">
        <ele>412</ele>
        <time>2020-10-05T09:59:01.000Z</time>
      </trkpt>
      <trkpt lat="43.99539" lon="5.91681">
        <ele>412</ele>
        <time>2020-10-05T09:59:02.000Z</time>
      </trkpt>
      <trkpt lat="43.9954" lon="5.91682">
        <ele>412</ele>
        <time>2020-10-05T09:59:03.000Z</time>
      </trkpt>
      <trkpt lat="43.99541" lon="5.91683">
        <ele>412</ele>
        <time>2020-10-05T09:59:04.000Z</time>
      </trkpt>
      <trkpt lat="43.99542" lon="5.91684">
        <ele>411</ele>
        <time>2020-10-05T09:59:05.000Z</time>
      </trkpt>
      <trkpt lat="43.99543" lon="5.91685">
        <ele>411</ele>
        <time>2020-10-05T09:59:06.000Z</time>
      </trkpt>
      <trkpt lat="43.99544" lon="5.91685">
        <ele>411</ele>
        <time>2020-10-05T09:59:07.000Z</time>
      </trkpt>
      <trkpt lat="43.99545" lon="5.91686">
        <ele>411</ele>
        <time>2020-10-05T09:59:08.000Z</time>
      </trkpt>
      <trkpt lat="43.99546" lon="5.91687">
        <ele>411</ele>
        <time>2020-10-05T09:59:09.000Z</time>
      </trkpt>
      <trkpt lat="43.99547" lon="5.91688">
        <ele>411</ele>
        <time>2020-10-05T09:59:10.000Z</time>
      </trkpt>
      <trkpt lat="43.99548" lon="5.91688">
        <ele>411</ele>
        <time>2020-10-05T09:59:11.000Z</time>
      </trkpt>
      <trkpt lat="43.99549" lon="5.91688">
        <ele>411</ele>
        <time>2020-10-05T09:59:12.000Z</time>
      </trkpt>
      <trkpt lat="43.9955" lon="5.91689">
        <ele>411</ele>
        <time>2020-10-05T09:59:13.000Z</time>
      </trkpt>
      <trkpt lat="43.99552" lon="5.91689">
        <ele>411</ele>
        <time>2020-10-05T09:59:14.000Z</time>
      </trkpt>
      <trkpt lat="43.99553" lon="5.91689">
        <ele>412</ele>
        <time>2020-10-05T09:59:15.000Z</time>
      </trkpt>
      <trkpt lat="43.99553" lon="5.9169">
        <ele>412</ele>
        <time>2020-10-05T09:59:16.000Z</time>
      </trkpt>
      <trkpt lat="43.99554" lon="5.9169">
        <ele>412</ele>
        <time>2020-10-05T09:59:17.000Z</time>
      </trkpt>
      <trkpt lat="43.99555" lon="5.91691">
        <ele>412</ele>
        <time>2020-10-05T09:59:18.000Z</time>
      </trkpt>
      <trkpt lat="43.99557" lon="5.91692">
        <ele>412</ele>
        <time>2020-10-05T09:59:19.000Z</time>
      </trkpt>
      <trkpt lat="43.99558" lon="5.91693">
        <ele>412</ele>
        <time>2020-10-05T09:59:20.000Z</time>
      </trkpt>
      <trkpt lat="43.99559" lon="5.91693">
        <ele>412</ele>
        <time>2020-10-05T09:59:21.000Z</time>
      </trkpt>
      <trkpt lat="43.9956" lon="5.91693">
        <ele>412</ele>
        <time>2020-10-05T09:59:22.000Z</time>
      </trkpt>
      <trkpt lat="43.99561" lon="5.91694">
        <ele>412</ele>
        <time>2020-10-05T09:59:23.000Z</time>
      </trkpt>
      <trkpt lat="43.99562" lon="5.91694">
        <ele>412</ele>
        <time>2020-10-05T09:59:24.000Z</time>
      </trkpt>
      <trkpt lat="43.99564" lon="5.91695">
        <ele>412</ele>
        <time>2020-10-05T09:59:25.000Z</time>
      </trkpt>
      <trkpt lat="43.99565" lon="5.91695">
        <ele>412</ele>
        <time>2020-10-05T09:59:26.000Z</time>
      </trkpt>
      <trkpt lat="43.99566" lon="5.91696">
        <ele>412</ele>
        <time>2020-10-05T09:59:27.000Z</time>
      </trkpt>
      <trkpt lat="43.99567" lon="5.91696">
        <ele>412</ele>
        <time>2020-10-05T09:59:28.000Z</time>
      </trkpt>
      <trkpt lat="43.99568" lon="5.91697">
        <ele>412</ele>
        <time>2020-10-05T09:59:29.000Z</time>
      </trkpt>
      <trkpt lat="43.9957" lon="5.91698">
        <ele>412</ele>
        <time>2020-10-05T09:59:30.000Z</time>
      </trkpt>
      <trkpt lat="43.99571" lon="5.91698">
        <ele>412</ele>
        <time>2020-10-05T09:59:31.000Z</time>
      </trkpt>
      <trkpt lat="43.99572" lon="5.91699">
        <ele>412</ele>
        <time>2020-10-05T09:59:32.000Z</time>
      </trkpt>
      <trkpt lat="43.99573" lon="5.917">
        <ele>412</ele>
        <time>2020-10-05T09:59:33.000Z</time>
      </trkpt>
      <trkpt lat="43.99575" lon="5.917">
        <ele>412</ele>
        <time>2020-10-05T09:59:34.000Z</time>
      </trkpt>
      <trkpt lat="43.99576" lon="5.91701">
        <ele>412</ele>
        <time>2020-10-05T09:59:35.000Z</time>
      </trkpt>
      <trkpt lat="43.99577" lon="5.91702">
        <ele>412</ele>
        <time>2020-10-05T09:59:36.000Z</time>
      </trkpt>
      <trkpt lat="43.99578" lon="5.91703">
        <ele>412</ele>
        <time>2020-10-05T09:59:37.000Z</time>
      </trkpt>
      <trkpt lat="43.99579" lon="5.91703">
        <ele>412</ele>
        <time>2020-10-05T09:59:38.000Z</time>
      </trkpt>
      <trkpt lat="43.99581" lon="5.91704">
        <ele>412</ele>
        <time>2020-10-05T09:59:39.000Z</time>
      </trkpt>
      <trkpt lat="43.99582" lon="5.91705">
        <ele>412</ele>
        <time>2020-10-05T09:59:40.000Z</time>
      </trkpt>
      <trkpt lat="43.99583" lon="5.91706">
        <ele>412</ele>
        <time>2020-10-05T09:59:41.000Z</time>
      </trkpt>
      <trkpt lat="43.99584" lon="5.91706">
        <ele>412</ele>
        <time>2020-10-05T09:59:42.000Z</time>
      </trkpt>
      <trkpt lat="43.99585" lon="5.91707">
        <ele>412</ele>
        <time>2020-10-05T09:59:43.000Z</time>
      </trkpt>
      <trkpt lat="43.99587" lon="5.91708">
        <ele>412</ele>
        <time>2020-10-05T09:59:44.000Z</time>
      </trkpt>
      <trkpt lat="43.99588" lon="5.91708">
        <ele>412</ele>
        <time>2020-10-05T09:59:45.000Z</time>
      </trkpt>
      <trkpt lat="43.99589" lon="5.91709">
        <ele>412</ele>
        <time>2020-10-05T09:59:46.000Z</time>
      </trkpt>
      <trkpt lat="43.99591" lon="5.91709">
        <ele>412</ele>
        <time>2020-10-05T09:59:47.000Z</time>
      </trkpt>
      <trkpt lat="43.99592" lon="5.9171">
        <ele>412</ele>
        <time>2020-10-05T09:59:48.000Z</time>
      </trkpt>
      <trkpt lat="43.99593" lon="5.9171">
        <ele>412</ele>
        <time>2020-10-05T09:59:49.000Z</time>
      </trkpt>
      <trkpt lat="43.99594" lon="5.91711">
        <ele>412</ele>
        <time>2020-10-05T09:59:50.000Z</time>
      </trkpt>
      <trkpt lat="43.99596" lon="5.91712">
        <ele>412</ele>
        <time>2020-10-05T09:59:51.000Z</time>
      </trkpt>
      <trkpt lat="43.99597" lon="5.91713">
        <ele>412</ele>
        <time>2020-10-05T09:59:52.000Z</time>
      </trkpt>
      <trkpt lat="43.99598" lon="5.91714">
        <ele>412</ele>
        <time>2020-10-05T09:59:53.000Z</time>
      </trkpt>
      <trkpt lat="43.99599" lon="5.91714">
        <ele>412</ele>
        <time>2020-10-05T09:59:54.000Z</time>
      </trkpt>
      <trkpt lat="43.996" lon="5.91715">
        <ele>412</ele>
        <time>2020-10-05T09:59:55.000Z</time>
      </trkpt>
      <trkpt lat="43.99601" lon="5.91716">
        <ele>412</ele>
        <time>2020-10-05T09:59:56.000Z</time>
      </trkpt>
      <trkpt lat="43.99602" lon="5.91717">
        <ele>412</ele>
        <time>2020-10-05T09:59:57.000Z</time>
      </trkpt>
      <trkpt lat="43.99603" lon="5.91718">
        <ele>412</ele>
        <time>2020-10-05T09:59:58.000Z</time>
      </trkpt>
      <trkpt lat="43.99605" lon="5.91718">
        <ele>411</ele>
        <time>2020-10-05T09:59:59.000Z</time>
      </trkpt>
      <trkpt lat="43.99606" lon="5.91719">
        <ele>411</ele>
        <time>2020-10-05T10:00:00.000Z</time>
      </trkpt>
      <trkpt lat="43.99607" lon="5.9172">
        <ele>411</ele>
        <time>2020-10-05T10:00:01.000Z</time>
      </trkpt>
      <trkpt lat="43.99609" lon="5.91721">
        <ele>411</ele>
        <time>2020-10-05T10:00:02.000Z</time>
      </trkpt>
      <trkpt lat="43.9961" lon="5.91722">
        <ele>411</ele>
        <time>2020-10-05T10:00:03.000Z</time>
      </trkpt>
      <trkpt lat="43.99611" lon="5.91723">
        <ele>411</ele>
        <time>2020-10-05T10:00:04.000Z</time>
      </trkpt>
      <trkpt lat="43.99612" lon="5.91724">
        <ele>411</ele>
        <time>2020-10-05T10:00:05.000Z</time>
      </trkpt>
      <trkpt lat="43.99613" lon="5.91725">
        <ele>411</ele>
        <time>2020-10-05T10:00:06.000Z</time>
      </trkpt>
      <trkpt lat="43.99614" lon="5.91726">
        <ele>411</ele>
        <time>2020-10-05T10:00:07.000Z</time>
      </trkpt>
      <trkpt lat="43.99615" lon="5.91728">
        <ele>412</ele>
        <time>2020-10-05T10:00:08.000Z</time>
      </trkpt>
      <trkpt lat="43.99616" lon="5.91729">
        <ele>412</ele>
        <time>2020-10-05T10:00:09.000Z</time>
      </trkpt>
      <trkpt lat="43.99617" lon="5.91729">
        <ele>412</ele>
        <time>2020-10-05T10:00:10.000Z</time>
      </trkpt>
      <trkpt lat="43.99619" lon="5.9173">
        <ele>412</ele>
        <time>2020-10-05T10:00:11.000Z</time>
      </trkpt>
      <trkpt lat="43.9962" lon="5.91731">
        <ele>412</ele>
        <time>2020-10-05T10:00:12.000Z</time>
      </trkpt>
      <trkpt lat="43.99621" lon="5.91731">
        <ele>412</ele>
        <time>2020-10-05T10:00:13.000Z</time>
      </trkpt>
      <trkpt lat="43.99622" lon="5.91732">
        <ele>412</ele>
        <time>2020-10-05T10:00:14.000Z</time>
      </trkpt>
      <trkpt lat="43.99623" lon="5.91732">
        <ele>412</ele>
        <time>2020-10-05T10:00:15.000Z</time>
      </trkpt>
      <trkpt lat="43.99625" lon="5.91733">
        <ele>412</ele>
        <time>2020-10-05T10:00:16.000Z</time>
      </trkpt>
      <trkpt lat="43.99626" lon="5.91733">
        <ele>412</ele>
        <time>2020-10-05T10:00:17.000Z</time>
      </trkpt>
      <trkpt lat="43.99627" lon="5.91733">
        <ele>412</ele>
        <time>2020-10-05T10:00:18.000Z</time>
      </trkpt>
      <trkpt lat="43.99628" lon="5.91733">
        <ele>412</ele>
        <time>2020-10-05T10:00:19.000Z</time>
      </trkpt>
      <trkpt lat="43.99629" lon="5.91732">
        <ele>412</ele>
        <time>2020-10-05T10:00:20.000Z</time>
      </trkpt>
      <trkpt lat="43.99631" lon="5.91731">
        <ele>412</ele>
        <time>2020-10-05T10:00:21.000Z</time>
      </trkpt>
      <trkpt lat="43.99632" lon="5.91731">
        <ele>412</ele>
        <time>2020-10-05T10:00:22.000Z</time>
      </trkpt>
      <trkpt lat="43.99633" lon="5.91729">
        <ele>412</ele>
        <time>2020-10-05T10:00:23.000Z</time>
      </trkpt>
      <trkpt lat="43.99634" lon="5.91728">
        <ele>412</ele>
        <time>2020-10-05T10:00:24.000Z</time>
      </trkpt>
      <trkpt lat="43.99635" lon="5.91727">
        <ele>412</ele>
        <time>2020-10-05T10:00:25.000Z</time>
      </trkpt>
      <trkpt lat="43.99635" lon="5.91726">
        <ele>412</ele>
        <time>2020-10-05T10:00:26.000Z</time>
      </trkpt>
      <trkpt lat="43.99636" lon="5.91725">
        <ele>412</ele>
        <time>2020-10-05T10:00:27.000Z</time>
      </trkpt>
      <trkpt lat="43.99637" lon="5.91723">
        <ele>412</ele>
        <time>2020-10-05T10:00:28.000Z</time>
      </trkpt>
      <trkpt lat="43.99638" lon="5.91722">
        <ele>412</ele>
        <time>2020-10-05T10:00:29.000Z</time>
      </trkpt>
      <trkpt lat="43.99638" lon="5.9172">
        <ele>412</ele>
        <time>2020-10-05T10:00:30.000Z</time>
      </trkpt>
      <trkpt lat="43.99639" lon="5.91719">
        <ele>412</ele>
        <time>2020-10-05T10:00:31.000Z</time>
      </trkpt>
      <trkpt lat="43.9964" lon="5.91717">
        <ele>412</ele>
        <time>2020-10-05T10:00:32.000Z</time>
      </trkpt>
      <trkpt lat="43.9964" lon="5.91716">
        <ele>412</ele>
        <time>2020-10-05T10:00:33.000Z</time>
      </trkpt>
      <trkpt lat="43.9964" lon="5.91715">
        <ele>412</ele>
        <time>2020-10-05T10:00:34.000Z</time>
      </trkpt>
      <trkpt lat="43.99641" lon="5.91713">
        <ele>412</ele>
        <time>2020-10-05T10:00:35.000Z</time>
      </trkpt>
      <trkpt lat="43.99642" lon="5.91711">
        <ele>412</ele>
        <time>2020-10-05T10:00:36.000Z</time>
      </trkpt>
      <trkpt lat="43.99642" lon="5.9171">
        <ele>412</ele>
        <time>2020-10-05T10:00:37.000Z</time>
      </trkpt>
      <trkpt lat="43.99642" lon="5.91708">
        <ele>412</ele>
        <time>2020-10-05T10:00:38.000Z</time>
      </trkpt>
      <trkpt lat="43.99643" lon="5.91707">
        <ele>412</ele>
        <time>2020-10-05T10:00:39.000Z</time>
      </trkpt>
      <trkpt lat="43.99643" lon="5.91705">
        <ele>412</ele>
        <time>2020-10-05T10:00:40.000Z</time>
      </trkpt>
      <trkpt lat="43.99644" lon="5.91704">
        <ele>412</ele>
        <time>2020-10-05T10:00:41.000Z</time>
      </trkpt>
      <trkpt lat="43.99644" lon="5.91703">
        <ele>412</ele>
        <time>2020-10-05T10:00:42.000Z</time>
      </trkpt>
      <trkpt lat="43.99645" lon="5.91702">
        <ele>412</ele>
        <time>2020-10-05T10:00:43.000Z</time>
      </trkpt>
      <trkpt lat="43.99645" lon="5.917">
        <ele>412</ele>
        <time>2020-10-05T10:00:44.000Z</time>
      </trkpt>
      <trkpt lat="43.99646" lon="5.91699">
        <ele>412</ele>
        <time>2020-10-05T10:00:45.000Z</time>
      </trkpt>
      <trkpt lat="43.99647" lon="5.91698">
        <ele>412</ele>
        <time>2020-10-05T10:00:46.000Z</time>
      </trkpt>
      <trkpt lat="43.99647" lon="5.91696">
        <ele>412</ele>
        <time>2020-10-05T10:00:47.000Z</time>
      </trkpt>
      <trkpt lat="43.99648" lon="5.91695">
        <ele>412</ele>
        <time>2020-10-05T10:00:48.000Z</time>
      </trkpt>
      <trkpt lat="43.99648" lon="5.91693">
        <ele>412</ele>
        <time>2020-10-05T10:00:49.000Z</time>
      </trkpt>
      <trkpt lat="43.99649" lon="5.91691">
        <ele>412</ele>
        <time>2020-10-05T10:00:50.000Z</time>
      </trkpt>
      <trkpt lat="43.99649" lon="5.91689">
        <ele>412</ele>
        <time>2020-10-05T10:00:51.000Z</time>
      </trkpt>
      <trkpt lat="43.9965" lon="5.91688">
        <ele>412</ele>
        <time>2020-10-05T10:00:52.000Z</time>
      </trkpt>
      <trkpt lat="43.9965" lon="5.91686">
        <ele>412</ele>
        <time>2020-10-05T10:00:53.000Z</time>
      </trkpt>
      <trkpt lat="43.99651" lon="5.91685">
        <ele>412</ele>
        <time>2020-10-05T10:00:54.000Z</time>
      </trkpt>
      <trkpt lat="43.99651" lon="5.91683">
        <ele>412</ele>
        <time>2020-10-05T10:00:55.000Z</time>
      </trkpt>
      <trkpt lat="43.99651" lon="5.91682">
        <ele>412</ele>
        <time>2020-10-05T10:00:56.000Z</time>
      </trkpt>
      <trkpt lat="43.99652" lon="5.9168">
        <ele>412</ele>
        <time>2020-10-05T10:00:57.000Z</time>
      </trkpt>
      <trkpt lat="43.99652" lon="5.91678">
        <ele>412</ele>
        <time>2020-10-05T10:00:58.000Z</time>
      </trkpt>
      <trkpt lat="43.99653" lon="5.91676">
        <ele>412</ele>
        <time>2020-10-05T10:00:59.000Z</time>
      </trkpt>
      <trkpt lat="43.99653" lon="5.91676">
        <ele>412</ele>
        <time>2020-10-05T10:01:00.000Z</time>
      </trkpt>
      <trkpt lat="43.99653" lon="5.91675">
        <ele>412</ele>
        <time>2020-10-05T10:01:01.000Z</time>
      </trkpt>
      <trkpt lat="43.99653" lon="5.91675">
        <ele>412</ele>
        <time>2020-10-05T10:01:02.000Z</time>
      </trkpt>
      <trkpt lat="43.99653" lon="5.91674">
        <ele>412</ele>
        <time>2020-10-05T10:01:03.000Z</time>
      </trkpt>
      <trkpt lat="43.99653" lon="5.91673">
        <ele>412</ele>
        <time>2020-10-05T10:01:04.000Z</time>
      </trkpt>
      <trkpt lat="43.99653" lon="5.91671">
        <ele>412</ele>
        <time>2020-10-05T10:01:05.000Z</time>
      </trkpt>
      <trkpt lat="43.99654" lon="5.9167">
        <ele>412</ele>
        <time>2020-10-05T10:01:06.000Z</time>
      </trkpt>
      <trkpt lat="43.99654" lon="5.91669">
        <ele>412</ele>
        <time>2020-10-05T10:01:07.000Z</time>
      </trkpt>
      <trkpt lat="43.99655" lon="5.91668">
        <ele>412</ele>
        <time>2020-10-05T10:01:08.000Z</time>
      </trkpt>
      <trkpt lat="43.99656" lon="5.91666">
        <ele>412</ele>
        <time>2020-10-05T10:01:09.000Z</time>
      </trkpt>
      <trkpt lat="43.99657" lon="5.91665">
        <ele>412</ele>
        <time>2020-10-05T10:01:10.000Z</time>
      </trkpt>
      <trkpt lat="43.99657" lon="5.91664">
        <ele>412</ele>
        <time>2020-10-05T10:01:11.000Z</time>
      </trkpt>
      <trkpt lat="43.99658" lon="5.91663">
        <ele>412</ele>
        <time>2020-10-05T10:01:12.000Z</time>
      </trkpt>
      <trkpt lat="43.99659" lon="5.91662">
        <ele>412</ele>
        <time>2020-10-05T10:01:13.000Z</time>
      </trkpt>
      <trkpt lat="43.9966" lon="5.91661">
        <ele>412</ele>
        <time>2020-10-05T10:01:14.000Z</time>
      </trkpt>
      <trkpt lat="43.9966" lon="5.91659">
        <ele>412</ele>
        <time>2020-10-05T10:01:15.000Z</time>
      </trkpt>
      <trkpt lat="43.99661" lon="5.91658">
        <ele>412</ele>
        <time>2020-10-05T10:01:16.000Z</time>
      </trkpt>
      <trkpt lat="43.99662" lon="5.91657">
        <ele>411</ele>
        <time>2020-10-05T10:01:17.000Z</time>
      </trkpt>
      <trkpt lat="43.99663" lon="5.91657">
        <ele>411</ele>
        <time>2020-10-05T10:01:18.000Z</time>
      </trkpt>
      <trkpt lat="43.99664" lon="5.91656">
        <ele>411</ele>
        <time>2020-10-05T10:01:19.000Z</time>
      </trkpt>
      <trkpt lat="43.99664" lon="5.91656">
        <ele>411</ele>
        <time>2020-10-05T10:01:20.000Z</time>
      </trkpt>
      <trkpt lat="43.99665" lon="5.91655">
        <ele>411</ele>
        <time>2020-10-05T10:01:21.000Z</time>
      </trkpt>
      <trkpt lat="43.99666" lon="5.91655">
        <ele>411</ele>
        <time>2020-10-05T10:01:22.000Z</time>
      </trkpt>
      <trkpt lat="43.99667" lon="5.91655">
        <ele>411</ele>
        <time>2020-10-05T10:01:23.000Z</time>
      </trkpt>
      <trkpt lat="43.99668" lon="5.91655">
        <ele>411</ele>
        <time>2020-10-05T10:01:24.000Z</time>
      </trkpt>
      <trkpt lat="43.99669" lon="5.91654">
        <ele>411</ele>
        <time>2020-10-05T10:01:25.000Z</time>
      </trkpt>
      <trkpt lat="43.9967" lon="5.91654">
        <ele>411</ele>
        <time>2020-10-05T10:01:26.000Z</time>
      </trkpt>
      <trkpt lat="43.99671" lon="5.91654">
        <ele>411</ele>
        <time>2020-10-05T10:01:27.000Z</time>
      </trkpt>
      <trkpt lat="43.99672" lon="5.91654">
        <ele>411</ele>
        <time>2020-10-05T10:01:28.000Z</time>
      </trkpt>
      <trkpt lat="43.99673" lon="5.91654">
        <ele>411</ele>
        <time>2020-10-05T10:01:29.000Z</time>
      </trkpt>
      <trkpt lat="43.99674" lon="5.91654">
        <ele>411</ele>
        <time>2020-10-05T10:01:30.000Z</time>
      </trkpt>
      <trkpt lat="43.99676" lon="5.91654">
        <ele>411</ele>
        <time>2020-10-05T10:01:31.000Z</time>
      </trkpt>
      <trkpt lat="43.99677" lon="5.91655">
        <ele>411</ele>
        <time>2020-10-05T10:01:32.000Z</time>
      </trkpt>
      <trkpt lat="43.99678" lon="5.91655">
        <ele>411</ele>
        <time>2020-10-05T10:01:33.000Z</time>
      </trkpt>
      <trkpt lat="43.99679" lon="5.91656">
        <ele>411</ele>
        <time>2020-10-05T10:01:34.000Z</time>
      </trkpt>
      <trkpt lat="43.9968" lon="5.91657">
        <ele>410</ele>
        <time>2020-10-05T10:01:35.000Z</time>
      </trkpt>
      <trkpt lat="43.99681" lon="5.91659">
        <ele>411</ele>
        <time>2020-10-05T10:01:36.000Z</time>
      </trkpt>
      <trkpt lat="43.99682" lon="5.9166">
        <ele>411</ele>
        <time>2020-10-05T10:01:37.000Z</time>
      </trkpt>
      <trkpt lat="43.99683" lon="5.91661">
        <ele>411</ele>
        <time>2020-10-05T10:01:38.000Z</time>
      </trkpt>
      <trkpt lat="43.99684" lon="5.91662">
        <ele>411</ele>
        <time>2020-10-05T10:01:39.000Z</time>
      </trkpt>
      <trkpt lat="43.99685" lon="5.91664">
        <ele>411</ele>
        <time>2020-10-05T10:01:40.000Z</time>
      </trkpt>
      <trkpt lat="43.99685" lon="5.91665">
        <ele>411</ele>
        <time>2020-10-05T10:01:41.000Z</time>
      </trkpt>
      <trkpt lat="43.99686" lon="5.91666">
        <ele>411</ele>
        <time>2020-10-05T10:01:42.000Z</time>
      </trkpt>
      <trkpt lat="43.99687" lon="5.91667">
        <ele>411</ele>
        <time>2020-10-05T10:01:43.000Z</time>
      </trkpt>
      <trkpt lat="43.99688" lon="5.91669">
        <ele>411</ele>
        <time>2020-10-05T10:01:44.000Z</time>
      </trkpt>
      <trkpt lat="43.99688" lon="5.9167">
        <ele>411</ele>
        <time>2020-10-05T10:01:45.000Z</time>
      </trkpt>
      <trkpt lat="43.99689" lon="5.91671">
        <ele>411</ele>
        <time>2020-10-05T10:01:46.000Z</time>
      </trkpt>
      <trkpt lat="43.99689" lon="5.91673">
        <ele>411</ele>
        <time>2020-10-05T10:01:47.000Z</time>
      </trkpt>
      <trkpt lat="43.99689" lon="5.91674">
        <ele>411</ele>
        <time>2020-10-05T10:01:48.000Z</time>
      </trkpt>
      <trkpt lat="43.99689" lon="5.91675">
        <ele>411</ele>
        <time>2020-10-05T10:01:49.000Z</time>
      </trkpt>
      <trkpt lat="43.99689" lon="5.91675">
        <ele>411</ele>
        <time>2020-10-05T10:01:50.000Z</time>
      </trkpt>
      <trkpt lat="43.9969" lon="5.91677">
        <ele>411</ele>
        <time>2020-10-05T10:01:51.000Z</time>
      </trkpt>
      <trkpt lat="43.9969" lon="5.91678">
        <ele>411</ele>
        <time>2020-10-05T10:01:52.000Z</time>
      </trkpt>
      <trkpt lat="43.9969" lon="5.9168">
        <ele>411</ele>
        <time>2020-10-05T10:01:53.000Z</time>
      </trkpt>
      <trkpt lat="43.9969" lon="5.91682">
        <ele>411</ele>
        <time>2020-10-05T10:01:54.000Z</time>
      </trkpt>
      <trkpt lat="43.99689" lon="5.91683">
        <ele>411</ele>
        <time>2020-10-05T10:01:55.000Z</time>
      </trkpt>
      <trkpt lat="43.99689" lon="5.91685">
        <ele>411</ele>
        <time>2020-10-05T10:01:56.000Z</time>
      </trkpt>
      <trkpt lat="43.99689" lon="5.91687">
        <ele>411</ele>
        <time>2020-10-05T10:01:57.000Z</time>
      </trkpt>
      <trkpt lat="43.99689" lon="5.91689">
        <ele>411</ele>
        <time>2020-10-05T10:01:58.000Z</time>
      </trkpt>
      <trkpt lat="43.99689" lon="5.9169">
        <ele>411</ele>
        <time>2020-10-05T10:01:59.000Z</time>
      </trkpt>
      <trkpt lat="43.99689" lon="5.91692">
        <ele>411</ele>
        <time>2020-10-05T10:02:00.000Z</time>
      </trkpt>
      <trkpt lat="43.99689" lon="5.91694">
        <ele>411</ele>
        <time>2020-10-05T10:02:01.000Z</time>
      </trkpt>
      <trkpt lat="43.99689" lon="5.91696">
        <ele>411</ele>
        <time>2020-10-05T10:02:02.000Z</time>
      </trkpt>
      <trkpt lat="43.9969" lon="5.91697">
        <ele>411</ele>
        <time>2020-10-05T10:02:03.000Z</time>
      </trkpt>
      <trkpt lat="43.99689" lon="5.91699">
        <ele>411</ele>
        <time>2020-10-05T10:02:04.000Z</time>
      </trkpt>
      <trkpt lat="43.99689" lon="5.917">
        <ele>410</ele>
        <time>2020-10-05T10:02:05.000Z</time>
      </trkpt>
      <trkpt lat="43.9969" lon="5.91702">
        <ele>410</ele>
        <time>2020-10-05T10:02:06.000Z</time>
      </trkpt>
      <trkpt lat="43.9969" lon="5.91704">
        <ele>410</ele>
        <time>2020-10-05T10:02:07.000Z</time>
      </trkpt>
      <trkpt lat="43.9969" lon="5.91705">
        <ele>411</ele>
        <time>2020-10-05T10:02:08.000Z</time>
      </trkpt>
      <trkpt lat="43.9969" lon="5.91707">
        <ele>411</ele>
        <time>2020-10-05T10:02:09.000Z</time>
      </trkpt>
      <trkpt lat="43.99691" lon="5.91708">
        <ele>411</ele>
        <time>2020-10-05T10:02:10.000Z</time>
      </trkpt>
      <trkpt lat="43.99691" lon="5.9171">
        <ele>411</ele>
        <time>2020-10-05T10:02:11.000Z</time>
      </trkpt>
      <trkpt lat="43.99691" lon="5.91711">
        <ele>411</ele>
        <time>2020-10-05T10:02:12.000Z</time>
      </trkpt>
      <trkpt lat="43.99691" lon="5.91713">
        <ele>411</ele>
        <time>2020-10-05T10:02:13.000Z</time>
      </trkpt>
      <trkpt lat="43.99691" lon="5.91714">
        <ele>411</ele>
        <time>2020-10-05T10:02:14.000Z</time>
      </trkpt>
      <trkpt lat="43.99692" lon="5.91715">
        <ele>411</ele>
        <time>2020-10-05T10:02:15.000Z</time>
      </trkpt>
      <trkpt lat="43.99692" lon="5.91717">
        <ele>411</ele>
        <time>2020-10-05T10:02:16.000Z</time>
      </trkpt>
      <trkpt lat="43.99693" lon="5.91718">
        <ele>411</ele>
        <time>2020-10-05T10:02:17.000Z</time>
      </trkpt>
      <trkpt lat="43.99693" lon="5.91719">
        <ele>411</ele>
        <time>2020-10-05T10:02:18.000Z</time>
      </trkpt>
      <trkpt lat="43.99693" lon="5.9172">
        <ele>411</ele>
        <time>2020-10-05T10:02:19.000Z</time>
      </trkpt>
      <trkpt lat="43.99694" lon="5.91721">
        <ele>411</ele>
        <time>2020-10-05T10:02:20.000Z</time>
      </trkpt>
      <trkpt lat="43.99694" lon="5.91722">
        <ele>411</ele>
        <time>2020-10-05T10:02:21.000Z</time>
      </trkpt>
      <trkpt lat="43.99695" lon="5.91723">
        <ele>411</ele>
        <time>2020-10-05T10:02:22.000Z</time>
      </trkpt>
      <trkpt lat="43.99696" lon="5.91725">
        <ele>411</ele>
        <time>2020-10-05T10:02:23.000Z</time>
      </trkpt>
      <trkpt lat="43.99696" lon="5.91726">
        <ele>411</ele>
        <time>2020-10-05T10:02:24.000Z</time>
      </trkpt>
      <trkpt lat="43.99697" lon="5.91727">
        <ele>411</ele>
        <time>2020-10-05T10:02:25.000Z</time>
      </trkpt>
      <trkpt lat="43.99698" lon="5.91728">
        <ele>411</ele>
        <time>2020-10-05T10:02:26.000Z</time>
      </trkpt>
      <trkpt lat="43.99699" lon="5.9173">
        <ele>411</ele>
        <time>2020-10-05T10:02:27.000Z</time>
      </trkpt>
      <trkpt lat="43.997" lon="5.91731">
        <ele>411</ele>
        <time>2020-10-05T10:02:28.000Z</time>
      </trkpt>
      <trkpt lat="43.99701" lon="5.91732">
        <ele>411</ele>
        <time>2020-10-05T10:02:29.000Z</time>
      </trkpt>
      <trkpt lat="43.99702" lon="5.91733">
        <ele>411</ele>
        <time>2020-10-05T10:02:30.000Z</time>
      </trkpt>
      <trkpt lat="43.99703" lon="5.91733">
        <ele>411</ele>
        <time>2020-10-05T10:02:31.000Z</time>
      </trkpt>
      <trkpt lat="43.99704" lon="5.91734">
        <ele>411</ele>
        <time>2020-10-05T10:02:32.000Z</time>
      </trkpt>
      <trkpt lat="43.99705" lon="5.91735">
        <ele>411</ele>
        <time>2020-10-05T10:02:33.000Z</time>
      </trkpt>
      <trkpt lat="43.99706" lon="5.91736">
        <ele>411</ele>
        <time>2020-10-05T10:02:34.000Z</time>
      </trkpt>
      <trkpt lat="43.99707" lon="5.91736">
        <ele>411</ele>
        <time>2020-10-05T10:02:35.000Z</time>
      </trkpt>
      <trkpt lat="43.99708" lon="5.91737">
        <ele>411</ele>
        <time>2020-10-05T10:02:36.000Z</time>
      </trkpt>
      <trkpt lat="43.99709" lon="5.91738">
        <ele>411</ele>
        <time>2020-10-05T10:02:37.000Z</time>
      </trkpt>
      <trkpt lat="43.9971" lon="5.91738">
        <ele>411</ele>
        <time>2020-10-05T10:02:38.000Z</time>
      </trkpt>
      <trkpt lat="43.99711" lon="5.91738">
        <ele>410</ele>
        <time>2020-10-05T10:02:39.000Z</time>
      </trkpt>
      <trkpt lat="43.99711" lon="5.91738">
        <ele>410</ele>
        <time>2020-10-05T10:02:40.000Z</time>
      </trkpt>
      <trkpt lat="43.99712" lon="5.91738">
        <ele>410</ele>
        <time>2020-10-05T10:02:41.000Z</time>
      </trkpt>
      <trkpt lat="43.99713" lon="5.91738">
        <ele>410</ele>
        <time>2020-10-05T10:02:42.000Z</time>
      </trkpt>
      <trkpt lat="43.99714" lon="5.91738">
        <ele>410</ele>
        <time>2020-10-05T10:02:43.000Z</time>
      </trkpt>
      <trkpt lat="43.99715" lon="5.91739">
        <ele>410</ele>
        <time>2020-10-05T10:02:44.000Z</time>
      </trkpt>
      <trkpt lat="43.99717" lon="5.91739">
        <ele>410</ele>
        <time>2020-10-05T10:02:45.000Z</time>
      </trkpt>
      <trkpt lat="43.99718" lon="5.91739">
        <ele>410</ele>
        <time>2020-10-05T10:02:46.000Z</time>
      </trkpt>
      <trkpt lat="43.99719" lon="5.91739">
        <ele>410</ele>
        <time>2020-10-05T10:02:47.000Z</time>
      </trkpt>
      <trkpt lat="43.9972" lon="5.91739">
        <ele>410</ele>
        <time>2020-10-05T10:02:48.000Z</time>
      </trkpt>
      <trkpt lat="43.9972" lon="5.91739">
        <ele>410</ele>
        <time>2020-10-05T10:02:49.000Z</time>
      </trkpt>
      <trkpt lat="43.99721" lon="5.91739">
        <ele>410</ele>
        <time>2020-10-05T10:02:50.000Z</time>
      </trkpt>
      <trkpt lat="43.99722" lon="5.91739">
        <ele>410</ele>
        <time>2020-10-05T10:02:51.000Z</time>
      </trkpt>
      <trkpt lat="43.99723" lon="5.91738">
        <ele>410</ele>
        <time>2020-10-05T10:02:52.000Z</time>
      </trkpt>
      <trkpt lat="43.99723" lon="5.91738">
        <ele>410</ele>
        <time>2020-10-05T10:02:53.000Z</time>
      </trkpt>
      <trkpt lat="43.99724" lon="5.91739">
        <ele>410</ele>
        <time>2020-10-05T10:02:54.000Z</time>
      </trkpt>
      <trkpt lat="43.99724" lon="5.91739">
        <ele>410</ele>
        <time>2020-10-05T10:02:55.000Z</time>
      </trkpt>
      <trkpt lat="43.99725" lon="5.91739">
        <ele>410</ele>
        <time>2020-10-05T10:02:56.000Z</time>
      </trkpt>
      <trkpt lat="43.99725" lon="5.91739">
        <ele>410</ele>
        <time>2020-10-05T10:02:57.000Z</time>
      </trkpt>
      <trkpt lat="43.99725" lon="5.91739">
        <ele>410</ele>
        <time>2020-10-05T10:02:58.000Z</time>
      </trkpt>
      <trkpt lat="43.99725" lon="5.91739">
        <ele>410</ele>
        <time>2020-10-05T10:02:59.000Z</time>
      </trkpt>
      <trkpt lat="43.99725" lon="5.91739">
        <ele>410</ele>
        <time>2020-10-05T10:03:00.000Z</time>
      </trkpt>
      <trkpt lat="43.99725" lon="5.91739">
        <ele>410</ele>
        <time>2020-10-05T10:03:01.000Z</time>
      </trkpt>
      <trkpt lat="43.99725" lon="5.91739">
        <ele>410</ele>
        <time>2020-10-05T10:03:02.000Z</time>
      </trkpt>
      <trkpt lat="43.99725" lon="5.91739">
        <ele>410</ele>
        <time>2020-10-05T10:03:03.000Z</time>
      </trkpt>
      <trkpt lat="43.99725" lon="5.91739">
        <ele>410</ele>
        <time>2020-10-05T10:03:04.000Z</time>
      </trkpt>
      <trkpt lat="43.99726" lon="5.91738">
        <ele>410</ele>
        <time>2020-10-05T10:03:05.000Z</time>
      </trkpt>
      <trkpt lat="43.99727" lon="5.91738">
        <ele>410</ele>
        <time>2020-10-05T10:03:06.000Z</time>
      </trkpt>
      <trkpt lat="43.99728" lon="5.91738">
        <ele>410</ele>
        <time>2020-10-05T10:03:07.000Z</time>
      </trkpt>
      <trkpt lat="43.99729" lon="5.91739">
        <ele>410</ele>
        <time>2020-10-05T10:03:08.000Z</time>
      </trkpt>
      <trkpt lat="43.9973" lon="5.91739">
        <ele>410</ele>
        <time>2020-10-05T10:03:09.000Z</time>
      </trkpt>
      <trkpt lat="43.99731" lon="5.91739">
        <ele>410</ele>
        <time>2020-10-05T10:03:10.000Z</time>
      </trkpt>
      <trkpt lat="43.99733" lon="5.9174">
        <ele>410</ele>
        <time>2020-10-05T10:03:11.000Z</time>
      </trkpt>
      <trkpt lat="43.99734" lon="5.9174">
        <ele>411</ele>
        <time>2020-10-05T10:03:12.000Z</time>
      </trkpt>
      <trkpt lat="43.99735" lon="5.9174">
        <ele>411</ele>
        <time>2020-10-05T10:03:13.000Z</time>
      </trkpt>
      <trkpt lat="43.99736" lon="5.9174">
        <ele>411</ele>
        <time>2020-10-05T10:03:14.000Z</time>
      </trkpt>
      <trkpt lat="43.99737" lon="5.91741">
        <ele>411</ele>
        <time>2020-10-05T10:03:15.000Z</time>
      </trkpt>
      <trkpt lat="43.99738" lon="5.91741">
        <ele>411</ele>
        <time>2020-10-05T10:03:16.000Z</time>
      </trkpt>
      <trkpt lat="43.99739" lon="5.91742">
        <ele>411</ele>
        <time>2020-10-05T10:03:17.000Z</time>
      </trkpt>
      <trkpt lat="43.9974" lon="5.91743">
        <ele>411</ele>
        <time>2020-10-05T10:03:18.000Z</time>
      </trkpt>
      <trkpt lat="43.99741" lon="5.91745">
        <ele>411</ele>
        <time>2020-10-05T10:03:19.000Z</time>
      </trkpt>
      <trkpt lat="43.99742" lon="5.91746">
        <ele>411</ele>
        <time>2020-10-05T10:03:20.000Z</time>
      </trkpt>
      <trkpt lat="43.99743" lon="5.91748">
        <ele>411</ele>
        <time>2020-10-05T10:03:21.000Z</time>
      </trkpt>
      <trkpt lat="43.99743" lon="5.91749">
        <ele>411</ele>
        <time>2020-10-05T10:03:22.000Z</time>
      </trkpt>
      <trkpt lat="43.99743" lon="5.91751">
        <ele>411</ele>
        <time>2020-10-05T10:03:23.000Z</time>
      </trkpt>
      <trkpt lat="43.99743" lon="5.91752">
        <ele>411</ele>
        <time>2020-10-05T10:03:24.000Z</time>
      </trkpt>
      <trkpt lat="43.99744" lon="5.91753">
        <ele>412</ele>
        <time>2020-10-05T10:03:25.000Z</time>
      </trkpt>
      <trkpt lat="43.99744" lon="5.91754">
        <ele>412</ele>
        <time>2020-10-05T10:03:26.000Z</time>
      </trkpt>
      <trkpt lat="43.99744" lon="5.91754">
        <ele>412</ele>
        <time>2020-10-05T10:03:27.000Z</time>
      </trkpt>
      <trkpt lat="43.99745" lon="5.91755">
        <ele>412</ele>
        <time>2020-10-05T10:03:28.000Z</time>
      </trkpt>
      <trkpt lat="43.99745" lon="5.91757">
        <ele>412</ele>
        <time>2020-10-05T10:03:29.000Z</time>
      </trkpt>
      <trkpt lat="43.99746" lon="5.91758">
        <ele>412</ele>
        <time>2020-10-05T10:03:30.000Z</time>
      </trkpt>
      <trkpt lat="43.99747" lon="5.9176">
        <ele>412</ele>
        <time>2020-10-05T10:03:31.000Z</time>
      </trkpt>
      <trkpt lat="43.99747" lon="5.91761">
        <ele>412</ele>
        <time>2020-10-05T10:03:32.000Z</time>
      </trkpt>
      <trkpt lat="43.99748" lon="5.91763">
        <ele>412</ele>
        <time>2020-10-05T10:03:33.000Z</time>
      </trkpt>
      <trkpt lat="43.99748" lon="5.91764">
        <ele>411</ele>
        <time>2020-10-05T10:03:34.000Z</time>
      </trkpt>
      <trkpt lat="43.99749" lon="5.91766">
        <ele>411</ele>
        <time>2020-10-05T10:03:35.000Z</time>
      </trkpt>
      <trkpt lat="43.9975" lon="5.91767">
        <ele>411</ele>
        <time>2020-10-05T10:03:36.000Z</time>
      </trkpt>
      <trkpt lat="43.99751" lon="5.91769">
        <ele>411</ele>
        <time>2020-10-05T10:03:37.000Z</time>
      </trkpt>
      <trkpt lat="43.99752" lon="5.9177">
        <ele>411</ele>
        <time>2020-10-05T10:03:38.000Z</time>
      </trkpt>
      <trkpt lat="43.99753" lon="5.91771">
        <ele>411</ele>
        <time>2020-10-05T10:03:39.000Z</time>
      </trkpt>
      <trkpt lat="43.99755" lon="5.91772">
        <ele>411</ele>
        <time>2020-10-05T10:03:40.000Z</time>
      </trkpt>
      <trkpt lat="43.99755" lon="5.91774">
        <ele>411</ele>
        <time>2020-10-05T10:03:41.000Z</time>
      </trkpt>
      <trkpt lat="43.99756" lon="5.91775">
        <ele>411</ele>
        <time>2020-10-05T10:03:42.000Z</time>
      </trkpt>
      <trkpt lat="43.99757" lon="5.91776">
        <ele>411</ele>
        <time>2020-10-05T10:03:43.000Z</time>
      </trkpt>
      <trkpt lat="43.99759" lon="5.91778">
        <ele>411</ele>
        <time>2020-10-05T10:03:44.000Z</time>
      </trkpt>
      <trkpt lat="43.9976" lon="5.91779">
        <ele>411</ele>
        <time>2020-10-05T10:03:45.000Z</time>
      </trkpt>
      <trkpt lat="43.99761" lon="5.9178">
        <ele>411</ele>
        <time>2020-10-05T10:03:46.000Z</time>
      </trkpt>
      <trkpt lat="43.99762" lon="5.91781">
        <ele>410</ele>
        <time>2020-10-05T10:03:47.000Z</time>
      </trkpt>
      <trkpt lat="43.99762" lon="5.91782">
        <ele>410</ele>
        <time>2020-10-05T10:03:48.000Z</time>
      </trkpt>
      <trkpt lat="43.99763" lon="5.91784">
        <ele>410</ele>
        <time>2020-10-05T10:03:49.000Z</time>
      </trkpt>
      <trkpt lat="43.99764" lon="5.91785">
        <ele>410</ele>
        <time>2020-10-05T10:03:50.000Z</time>
      </trkpt>
      <trkpt lat="43.99765" lon="5.91786">
        <ele>410</ele>
        <time>2020-10-05T10:03:51.000Z</time>
      </trkpt>
      <trkpt lat="43.99767" lon="5.91787">
        <ele>410</ele>
        <time>2020-10-05T10:03:52.000Z</time>
      </trkpt>
      <trkpt lat="43.99768" lon="5.91788">
        <ele>410</ele>
        <time>2020-10-05T10:03:53.000Z</time>
      </trkpt>
      <trkpt lat="43.99769" lon="5.9179">
        <ele>410</ele>
        <time>2020-10-05T10:03:54.000Z</time>
      </trkpt>
      <trkpt lat="43.9977" lon="5.91791">
        <ele>410</ele>
        <time>2020-10-05T10:03:55.000Z</time>
      </trkpt>
      <trkpt lat="43.99771" lon="5.91792">
        <ele>410</ele>
        <time>2020-10-05T10:03:56.000Z</time>
      </trkpt>
      <trkpt lat="43.99772" lon="5.91793">
        <ele>410</ele>
        <time>2020-10-05T10:03:57.000Z</time>
      </trkpt>
      <trkpt lat="43.99773" lon="5.91794">
        <ele>410</ele>
        <time>2020-10-05T10:03:58.000Z</time>
      </trkpt>
      <trkpt lat="43.99774" lon="5.91794">
        <ele>410</ele>
        <time>2020-10-05T10:03:59.000Z</time>
      </trkpt>
      <trkpt lat="43.99775" lon="5.91795">
        <ele>410</ele>
        <time>2020-10-05T10:04:00.000Z</time>
      </trkpt>
      <trkpt lat="43.99776" lon="5.91796">
        <ele>410</ele>
        <time>2020-10-05T10:04:01.000Z</time>
      </trkpt>
      <trkpt lat="43.99778" lon="5.91797">
        <ele>410</ele>
        <time>2020-10-05T10:04:02.000Z</time>
      </trkpt>
      <trkpt lat="43.99779" lon="5.91797">
        <ele>411</ele>
        <time>2020-10-05T10:04:03.000Z</time>
      </trkpt>
      <trkpt lat="43.9978" lon="5.91798">
        <ele>411</ele>
        <time>2020-10-05T10:04:04.000Z</time>
      </trkpt>
      <trkpt lat="43.99781" lon="5.91799">
        <ele>411</ele>
        <time>2020-10-05T10:04:05.000Z</time>
      </trkpt>
      <trkpt lat="43.99783" lon="5.91799">
        <ele>410</ele>
        <time>2020-10-05T10:04:06.000Z</time>
      </trkpt>
      <trkpt lat="43.99784" lon="5.91799">
        <ele>410</ele>
        <time>2020-10-05T10:04:07.000Z</time>
      </trkpt>
      <trkpt lat="43.99785" lon="5.91799">
        <ele>410</ele>
        <time>2020-10-05T10:04:08.000Z</time>
      </trkpt>
      <trkpt lat="43.99786" lon="5.91799">
        <ele>410</ele>
        <time>2020-10-05T10:04:09.000Z</time>
      </trkpt>
      <trkpt lat="43.99787" lon="5.918">
        <ele>410</ele>
        <time>2020-10-05T10:04:10.000Z</time>
      </trkpt>
      <trkpt lat="43.99788" lon="5.918">
        <ele>410</ele>
        <time>2020-10-05T10:04:11.000Z</time>
      </trkpt>
      <trkpt lat="43.99789" lon="5.918">
        <ele>410</ele>
        <time>2020-10-05T10:04:12.000Z</time>
      </trkpt>
      <trkpt lat="43.99789" lon="5.918">
        <ele>411</ele>
        <time>2020-10-05T10:04:13.000Z</time>
      </trkpt>
      <trkpt lat="43.9979" lon="5.91801">
        <ele>411</ele>
        <time>2020-10-05T10:04:14.000Z</time>
      </trkpt>
      <trkpt lat="43.9979" lon="5.91801">
        <ele>411</ele>
        <time>2020-10-05T10:04:15.000Z</time>
      </trkpt>
      <trkpt lat="43.9979" lon="5.91801">
        <ele>411</ele>
        <time>2020-10-05T10:04:16.000Z</time>
      </trkpt>
      <trkpt lat="43.9979" lon="5.91801">
        <ele>411</ele>
        <time>2020-10-05T10:04:17.000Z</time>
      </trkpt>
      <trkpt lat="43.9979" lon="5.91801">
        <ele>411</ele>
        <time>2020-10-05T10:04:18.000Z</time>
      </trkpt>
      <trkpt lat="43.9979" lon="5.91801">
        <ele>411</ele>
        <time>2020-10-05T10:04:19.000Z</time>
      </trkpt>
      <trkpt lat="43.99791" lon="5.91801">
        <ele>411</ele>
        <time>2020-10-05T10:04:20.000Z</time>
      </trkpt>
      <trkpt lat="43.99791" lon="5.91801">
        <ele>411</ele>
        <time>2020-10-05T10:04:21.000Z</time>
      </trkpt>
      <trkpt lat="43.99791" lon="5.91801">
        <ele>411</ele>
        <time>2020-10-05T10:04:22.000Z</time>
      </trkpt>
      <trkpt lat="43.99791" lon="5.91801">
        <ele>411</ele>
        <time>2020-10-05T10:04:23.000Z</time>
      </trkpt>
      <trkpt lat="43.9979" lon="5.91801">
        <ele>411</ele>
        <time>2020-10-05T10:04:24.000Z</time>
      </trkpt>
      <trkpt lat="43.9979" lon="5.918">
        <ele>410</ele>
        <time>2020-10-05T10:04:25.000Z</time>
      </trkpt>
      <trkpt lat="43.9979" lon="5.918">
        <ele>410</ele>
        <time>2020-10-05T10:04:26.000Z</time>
      </trkpt>
      <trkpt lat="43.9979" lon="5.918">
        <ele>410</ele>
        <time>2020-10-05T10:04:27.000Z</time>
      </trkpt>
      <trkpt lat="43.99791" lon="5.918">
        <ele>410</ele>
        <time>2020-10-05T10:04:28.000Z</time>
      </trkpt>
      <trkpt lat="43.99791" lon="5.918">
        <ele>410</ele>
        <time>2020-10-05T10:04:29.000Z</time>
      </trkpt>
      <trkpt lat="43.99791" lon="5.91801">
        <ele>410</ele>
        <time>2020-10-05T10:04:30.000Z</time>
      </trkpt>
      <trkpt lat="43.99792" lon="5.91801">
        <ele>410</ele>
        <time>2020-10-05T10:04:31.000Z</time>
      </trkpt>
      <trkpt lat="43.99792" lon="5.91801">
        <ele>409</ele>
        <time>2020-10-05T10:04:32.000Z</time>
      </trkpt>
      <trkpt lat="43.99793" lon="5.91802">
        <ele>409</ele>
        <time>2020-10-05T10:04:33.000Z</time>
      </trkpt>
      <trkpt lat="43.99794" lon="5.91802">
        <ele>409</ele>
        <time>2020-10-05T10:04:34.000Z</time>
      </trkpt>
      <trkpt lat="43.99795" lon="5.91803">
        <ele>409</ele>
        <time>2020-10-05T10:04:35.000Z</time>
      </trkpt>
      <trkpt lat="43.99796" lon="5.91803">
        <ele>409</ele>
        <time>2020-10-05T10:04:36.000Z</time>
      </trkpt>
      <trkpt lat="43.99797" lon="5.91803">
        <ele>409</ele>
        <time>2020-10-05T10:04:37.000Z</time>
      </trkpt>
      <trkpt lat="43.99798" lon="5.91803">
        <ele>409</ele>
        <time>2020-10-05T10:04:38.000Z</time>
      </trkpt>
      <trkpt lat="43.99799" lon="5.91803">
        <ele>408</ele>
        <time>2020-10-05T10:04:39.000Z</time>
      </trkpt>
      <trkpt lat="43.998" lon="5.91803">
        <ele>408</ele>
        <time>2020-10-05T10:04:40.000Z</time>
      </trkpt>
      <trkpt lat="43.99801" lon="5.91804">
        <ele>408</ele>
        <time>2020-10-05T10:04:41.000Z</time>
      </trkpt>
      <trkpt lat="43.99802" lon="5.91804">
        <ele>408</ele>
        <time>2020-10-05T10:04:42.000Z</time>
      </trkpt>
      <trkpt lat="43.99804" lon="5.91804">
        <ele>408</ele>
        <time>2020-10-05T10:04:43.000Z</time>
      </trkpt>
      <trkpt lat="43.99805" lon="5.91804">
        <ele>408</ele>
        <time>2020-10-05T10:04:44.000Z</time>
      </trkpt>
      <trkpt lat="43.99806" lon="5.91804">
        <ele>408</ele>
        <time>2020-10-05T10:04:45.000Z</time>
      </trkpt>
      <trkpt lat="43.99806" lon="5.91804">
        <ele>408</ele>
        <time>2020-10-05T10:04:46.000Z</time>
      </trkpt>
      <trkpt lat="43.99807" lon="5.91804">
        <ele>408</ele>
        <time>2020-10-05T10:04:47.000Z</time>
      </trkpt>
      <trkpt lat="43.99809" lon="5.91804">
        <ele>408</ele>
        <time>2020-10-05T10:04:48.000Z</time>
      </trkpt>
      <trkpt lat="43.9981" lon="5.91804">
        <ele>409</ele>
        <time>2020-10-05T10:04:49.000Z</time>
      </trkpt>
      <trkpt lat="43.99811" lon="5.91804">
        <ele>409</ele>
        <time>2020-10-05T10:04:50.000Z</time>
      </trkpt>
      <trkpt lat="43.99812" lon="5.91804">
        <ele>409</ele>
        <time>2020-10-05T10:04:51.000Z</time>
      </trkpt>
      <trkpt lat="43.99813" lon="5.91804">
        <ele>409</ele>
        <time>2020-10-05T10:04:52.000Z</time>
      </trkpt>
      <trkpt lat="43.99814" lon="5.91804">
        <ele>409</ele>
        <time>2020-10-05T10:04:53.000Z</time>
      </trkpt>
      <trkpt lat="43.99815" lon="5.91804">
        <ele>409</ele>
        <time>2020-10-05T10:04:54.000Z</time>
      </trkpt>
      <trkpt lat="43.99816" lon="5.91804">
        <ele>409</ele>
        <time>2020-10-05T10:04:55.000Z</time>
      </trkpt>
      <trkpt lat="43.99817" lon="5.91804">
        <ele>409</ele>
        <time>2020-10-05T10:04:56.000Z</time>
      </trkpt>
      <trkpt lat="43.99818" lon="5.91803">
        <ele>409</ele>
        <time>2020-10-05T10:04:57.000Z</time>
      </trkpt>
      <trkpt lat="43.9982" lon="5.91803">
        <ele>409</ele>
        <time>2020-10-05T10:04:58.000Z</time>
      </trkpt>
      <trkpt lat="43.99821" lon="5.91803">
        <ele>409</ele>
        <time>2020-10-05T10:04:59.000Z</time>
      </trkpt>
      <trkpt lat="43.99822" lon="5.91803">
        <ele>409</ele>
        <time>2020-10-05T10:05:00.000Z</time>
      </trkpt>
      <trkpt lat="43.99823" lon="5.91803">
        <ele>409</ele>
        <time>2020-10-05T10:05:01.000Z</time>
      </trkpt>
      <trkpt lat="43.99824" lon="5.91802">
        <ele>409</ele>
        <time>2020-10-05T10:05:02.000Z</time>
      </trkpt>
      <trkpt lat="43.99825" lon="5.91802">
        <ele>410</ele>
        <time>2020-10-05T10:05:03.000Z</time>
      </trkpt>
      <trkpt lat="43.99826" lon="5.91802">
        <ele>410</ele>
        <time>2020-10-05T10:05:04.000Z</time>
      </trkpt>
      <trkpt lat="43.99827" lon="5.91802">
        <ele>410</ele>
        <time>2020-10-05T10:05:05.000Z</time>
      </trkpt>
      <trkpt lat="43.99828" lon="5.91802">
        <ele>410</ele>
        <time>2020-10-05T10:05:06.000Z</time>
      </trkpt>
      <trkpt lat="43.9983" lon="5.91802">
        <ele>410</ele>
        <time>2020-10-05T10:05:07.000Z</time>
      </trkpt>
      <trkpt lat="43.99831" lon="5.91802">
        <ele>411</ele>
        <time>2020-10-05T10:05:08.000Z</time>
      </trkpt>
      <trkpt lat="43.99832" lon="5.91803">
        <ele>411</ele>
        <time>2020-10-05T10:05:09.000Z</time>
      </trkpt>
      <trkpt lat="43.99833" lon="5.91803">
        <ele>411</ele>
        <time>2020-10-05T10:05:10.000Z</time>
      </trkpt>
      <trkpt lat="43.99835" lon="5.91804">
        <ele>411</ele>
        <time>2020-10-05T10:05:11.000Z</time>
      </trkpt>
      <trkpt lat="43.99836" lon="5.91805">
        <ele>411</ele>
        <time>2020-10-05T10:05:12.000Z</time>
      </trkpt>
      <trkpt lat="43.99837" lon="5.91806">
        <ele>411</ele>
        <time>2020-10-05T10:05:13.000Z</time>
      </trkpt>
      <trkpt lat="43.99838" lon="5.91807">
        <ele>411</ele>
        <time>2020-10-05T10:05:14.000Z</time>
      </trkpt>
      <trkpt lat="43.99838" lon="5.91808">
        <ele>411</ele>
        <time>2020-10-05T10:05:15.000Z</time>
      </trkpt>
      <trkpt lat="43.9984" lon="5.91809">
        <ele>411</ele>
        <time>2020-10-05T10:05:16.000Z</time>
      </trkpt>
      <trkpt lat="43.99841" lon="5.9181">
        <ele>411</ele>
        <time>2020-10-05T10:05:17.000Z</time>
      </trkpt>
      <trkpt lat="43.99841" lon="5.91811">
        <ele>410</ele>
        <time>2020-10-05T10:05:18.000Z</time>
      </trkpt>
      <trkpt lat="43.99842" lon="5.91812">
        <ele>410</ele>
        <time>2020-10-05T10:05:19.000Z</time>
      </trkpt>
      <trkpt lat="43.99843" lon="5.91813">
        <ele>410</ele>
        <time>2020-10-05T10:05:20.000Z</time>
      </trkpt>
      <trkpt lat="43.99843" lon="5.91814">
        <ele>410</ele>
        <time>2020-10-05T10:05:21.000Z</time>
      </trkpt>
      <trkpt lat="43.99844" lon="5.91814">
        <ele>410</ele>
        <time>2020-10-05T10:05:22.000Z</time>
      </trkpt>
      <trkpt lat="43.99845" lon="5.91815">
        <ele>410</ele>
        <time>2020-10-05T10:05:23.000Z</time>
      </trkpt>
      <trkpt lat="43.99846" lon="5.91816">
        <ele>410</ele>
        <time>2020-10-05T10:05:24.000Z</time>
      </trkpt>
      <trkpt lat="43.99846" lon="5.91816">
        <ele>410</ele>
        <time>2020-10-05T10:05:25.000Z</time>
      </trkpt>
      <trkpt lat="43.99847" lon="5.91817">
        <ele>410</ele>
        <time>2020-10-05T10:05:26.000Z</time>
      </trkpt>
      <trkpt lat="43.99848" lon="5.91818">
        <ele>410</ele>
        <time>2020-10-05T10:05:27.000Z</time>
      </trkpt>
      <trkpt lat="43.99849" lon="5.91818">
        <ele>410</ele>
        <time>2020-10-05T10:05:28.000Z</time>
      </trkpt>
      <trkpt lat="43.9985" lon="5.91819">
        <ele>410</ele>
        <time>2020-10-05T10:05:29.000Z</time>
      </trkpt>
      <trkpt lat="43.99851" lon="5.91819">
        <ele>410</ele>
        <time>2020-10-05T10:05:30.000Z</time>
      </trkpt>
      <trkpt lat="43.99852" lon="5.9182">
        <ele>410</ele>
        <time>2020-10-05T10:05:31.000Z</time>
      </trkpt>
      <trkpt lat="43.99853" lon="5.9182">
        <ele>410</ele>
        <time>2020-10-05T10:05:32.000Z</time>
      </trkpt>
      <trkpt lat="43.99854" lon="5.9182">
        <ele>410</ele>
        <time>2020-10-05T10:05:33.000Z</time>
      </trkpt>
      <trkpt lat="43.99855" lon="5.9182">
        <ele>409</ele>
        <time>2020-10-05T10:05:34.000Z</time>
      </trkpt>
      <trkpt lat="43.99856" lon="5.9182">
        <ele>409</ele>
        <time>2020-10-05T10:05:35.000Z</time>
      </trkpt>
      <trkpt lat="43.99857" lon="5.9182">
        <ele>409</ele>
        <time>2020-10-05T10:05:36.000Z</time>
      </trkpt>
      <trkpt lat="43.99858" lon="5.9182">
        <ele>409</ele>
        <time>2020-10-05T10:05:37.000Z</time>
      </trkpt>
      <trkpt lat="43.9986" lon="5.91819">
        <ele>410</ele>
        <time>2020-10-05T10:05:38.000Z</time>
      </trkpt>
      <trkpt lat="43.99861" lon="5.91819">
        <ele>410</ele>
        <time>2020-10-05T10:05:39.000Z</time>
      </trkpt>
      <trkpt lat="43.99862" lon="5.91819">
        <ele>410</ele>
        <time>2020-10-05T10:05:40.000Z</time>
      </trkpt>
      <trkpt lat="43.99863" lon="5.91819">
        <ele>410</ele>
        <time>2020-10-05T10:05:41.000Z</time>
      </trkpt>
      <trkpt lat="43.99864" lon="5.91818">
        <ele>410</ele>
        <time>2020-10-05T10:05:42.000Z</time>
      </trkpt>
      <trkpt lat="43.99865" lon="5.91818">
        <ele>410</ele>
        <time>2020-10-05T10:05:43.000Z</time>
      </trkpt>
      <trkpt lat="43.99866" lon="5.91818">
        <ele>410</ele>
        <time>2020-10-05T10:05:44.000Z</time>
      </trkpt>
      <trkpt lat="43.99867" lon="5.91817">
        <ele>410</ele>
        <time>2020-10-05T10:05:45.000Z</time>
      </trkpt>
      <trkpt lat="43.99868" lon="5.91817">
        <ele>410</ele>
        <time>2020-10-05T10:05:46.000Z</time>
      </trkpt>
      <trkpt lat="43.99869" lon="5.91817">
        <ele>410</ele>
        <time>2020-10-05T10:05:47.000Z</time>
      </trkpt>
      <trkpt lat="43.9987" lon="5.91817">
        <ele>410</ele>
        <time>2020-10-05T10:05:48.000Z</time>
      </trkpt>
      <trkpt lat="43.99871" lon="5.91817">
        <ele>411</ele>
        <time>2020-10-05T10:05:49.000Z</time>
      </trkpt>
      <trkpt lat="43.99871" lon="5.91817">
        <ele>411</ele>
        <time>2020-10-05T10:05:50.000Z</time>
      </trkpt>
      <trkpt lat="43.99872" lon="5.91817">
        <ele>411</ele>
        <time>2020-10-05T10:05:51.000Z</time>
      </trkpt>
      <trkpt lat="43.99872" lon="5.91816">
        <ele>411</ele>
        <time>2020-10-05T10:05:52.000Z</time>
      </trkpt>
      <trkpt lat="43.99873" lon="5.91817">
        <ele>411</ele>
        <time>2020-10-05T10:05:53.000Z</time>
      </trkpt>
      <trkpt lat="43.99874" lon="5.91817">
        <ele>411</ele>
        <time>2020-10-05T10:05:54.000Z</time>
      </trkpt>
      <trkpt lat="43.99875" lon="5.91817">
        <ele>411</ele>
        <time>2020-10-05T10:05:55.000Z</time>
      </trkpt>
      <trkpt lat="43.99877" lon="5.91817">
        <ele>411</ele>
        <time>2020-10-05T10:05:56.000Z</time>
      </trkpt>
      <trkpt lat="43.99878" lon="5.91817">
        <ele>411</ele>
        <time>2020-10-05T10:05:57.000Z</time>
      </trkpt>
      <trkpt lat="43.99879" lon="5.91817">
        <ele>411</ele>
        <time>2020-10-05T10:05:58.000Z</time>
      </trkpt>
      <trkpt lat="43.99881" lon="5.91817">
        <ele>411</ele>
        <time>2020-10-05T10:05:59.000Z</time>
      </trkpt>
      <trkpt lat="43.99882" lon="5.91818">
        <ele>411</ele>
        <time>2020-10-05T10:06:00.000Z</time>
      </trkpt>
      <trkpt lat="43.99883" lon="5.91818">
        <ele>411</ele>
        <time>2020-10-05T10:06:01.000Z</time>
      </trkpt>
      <trkpt lat="43.99885" lon="5.91819">
        <ele>411</ele>
        <time>2020-10-05T10:06:02.000Z</time>
      </trkpt>
      <trkpt lat="43.99886" lon="5.91819">
        <ele>411</ele>
        <time>2020-10-05T10:06:03.000Z</time>
      </trkpt>
      <trkpt lat="43.99887" lon="5.91819">
        <ele>411</ele>
        <time>2020-10-05T10:06:04.000Z</time>
      </trkpt>
      <trkpt lat="43.99889" lon="5.9182">
        <ele>411</ele>
        <time>2020-10-05T10:06:05.000Z</time>
      </trkpt>
      <trkpt lat="43.9989" lon="5.9182">
        <ele>411</ele>
        <time>2020-10-05T10:06:06.000Z</time>
      </trkpt>
      <trkpt lat="43.99891" lon="5.9182">
        <ele>411</ele>
        <time>2020-10-05T10:06:07.000Z</time>
      </trkpt>
      <trkpt lat="43.99892" lon="5.91821">
        <ele>411</ele>
        <time>2020-10-05T10:06:08.000Z</time>
      </trkpt>
      <trkpt lat="43.99893" lon="5.91821">
        <ele>412</ele>
        <time>2020-10-05T10:06:09.000Z</time>
      </trkpt>
      <trkpt lat="43.99894" lon="5.91821">
        <ele>412</ele>
        <time>2020-10-05T10:06:10.000Z</time>
      </trkpt>
      <trkpt lat="43.99896" lon="5.91821">
        <ele>412</ele>
        <time>2020-10-05T10:06:11.000Z</time>
      </trkpt>
      <trkpt lat="43.99897" lon="5.91822">
        <ele>412</ele>
        <time>2020-10-05T10:06:12.000Z</time>
      </trkpt>
      <trkpt lat="43.99898" lon="5.91822">
        <ele>412</ele>
        <time>2020-10-05T10:06:13.000Z</time>
      </trkpt>
      <trkpt lat="43.99899" lon="5.91823">
        <ele>412</ele>
        <time>2020-10-05T10:06:14.000Z</time>
      </trkpt>
      <trkpt lat="43.99899" lon="5.91823">
        <ele>412</ele>
        <time>2020-10-05T10:06:15.000Z</time>
      </trkpt>
      <trkpt lat="43.999" lon="5.91823">
        <ele>412</ele>
        <time>2020-10-05T10:06:16.000Z</time>
      </trkpt>
      <trkpt lat="43.999" lon="5.91823">
        <ele>412</ele>
        <time>2020-10-05T10:06:17.000Z</time>
      </trkpt>
      <trkpt lat="43.999" lon="5.91823">
        <ele>412</ele>
        <time>2020-10-05T10:06:18.000Z</time>
      </trkpt>
      <trkpt lat="43.999" lon="5.91823">
        <ele>412</ele>
        <time>2020-10-05T10:06:19.000Z</time>
      </trkpt>
      <trkpt lat="43.99901" lon="5.91823">
        <ele>412</ele>
        <time>2020-10-05T10:06:20.000Z</time>
      </trkpt>
      <trkpt lat="43.99902" lon="5.91822">
        <ele>412</ele>
        <time>2020-10-05T10:06:21.000Z</time>
      </trkpt>
      <trkpt lat="43.99903" lon="5.91822">
        <ele>412</ele>
        <time>2020-10-05T10:06:22.000Z</time>
      </trkpt>
      <trkpt lat="43.99904" lon="5.91822">
        <ele>412</ele>
        <time>2020-10-05T10:06:23.000Z</time>
      </trkpt>
      <trkpt lat="43.99905" lon="5.91821">
        <ele>412</ele>
        <time>2020-10-05T10:06:24.000Z</time>
      </trkpt>
      <trkpt lat="43.99907" lon="5.9182">
        <ele>412</ele>
        <time>2020-10-05T10:06:25.000Z</time>
      </trkpt>
      <trkpt lat="43.99908" lon="5.9182">
        <ele>412</ele>
        <time>2020-10-05T10:06:26.000Z</time>
      </trkpt>
      <trkpt lat="43.99908" lon="5.91819">
        <ele>412</ele>
        <time>2020-10-05T10:06:27.000Z</time>
      </trkpt>
      <trkpt lat="43.99909" lon="5.91817">
        <ele>412</ele>
        <time>2020-10-05T10:06:28.000Z</time>
      </trkpt>
      <trkpt lat="43.9991" lon="5.91816">
        <ele>412</ele>
        <time>2020-10-05T10:06:29.000Z</time>
      </trkpt>
      <trkpt lat="43.99911" lon="5.91815">
        <ele>412</ele>
        <time>2020-10-05T10:06:30.000Z</time>
      </trkpt>
      <trkpt lat="43.99912" lon="5.91814">
        <ele>412</ele>
        <time>2020-10-05T10:06:31.000Z</time>
      </trkpt>
      <trkpt lat="43.99913" lon="5.91813">
        <ele>412</ele>
        <time>2020-10-05T10:06:32.000Z</time>
      </trkpt>
      <trkpt lat="43.99914" lon="5.91812">
        <ele>412</ele>
        <time>2020-10-05T10:06:33.000Z</time>
      </trkpt>
      <trkpt lat="43.99914" lon="5.91811">
        <ele>413</ele>
        <time>2020-10-05T10:06:34.000Z</time>
      </trkpt>
      <trkpt lat="43.99915" lon="5.91809">
        <ele>413</ele>
        <time>2020-10-05T10:06:35.000Z</time>
      </trkpt>
      <trkpt lat="43.99916" lon="5.91808">
        <ele>413</ele>
        <time>2020-10-05T10:06:36.000Z</time>
      </trkpt>
      <trkpt lat="43.99917" lon="5.91807">
        <ele>413</ele>
        <time>2020-10-05T10:06:37.000Z</time>
      </trkpt>
      <trkpt lat="43.99917" lon="5.91806">
        <ele>413</ele>
        <time>2020-10-05T10:06:38.000Z</time>
      </trkpt>
      <trkpt lat="43.99918" lon="5.91804">
        <ele>413</ele>
        <time>2020-10-05T10:06:39.000Z</time>
      </trkpt>
      <trkpt lat="43.99919" lon="5.91803">
        <ele>413</ele>
        <time>2020-10-05T10:06:40.000Z</time>
      </trkpt>
      <trkpt lat="43.9992" lon="5.91802">
        <ele>413</ele>
        <time>2020-10-05T10:06:41.000Z</time>
      </trkpt>
      <trkpt lat="43.99921" lon="5.91801">
        <ele>413</ele>
        <time>2020-10-05T10:06:42.000Z</time>
      </trkpt>
      <trkpt lat="43.99921" lon="5.91799">
        <ele>413</ele>
        <time>2020-10-05T10:06:43.000Z</time>
      </trkpt>
      <trkpt lat="43.99922" lon="5.91799">
        <ele>413</ele>
        <time>2020-10-05T10:06:44.000Z</time>
      </trkpt>
      <trkpt lat="43.99924" lon="5.91798">
        <ele>413</ele>
        <time>2020-10-05T10:06:45.000Z</time>
      </trkpt>
      <trkpt lat="43.99925" lon="5.91798">
        <ele>413</ele>
        <time>2020-10-05T10:06:46.000Z</time>
      </trkpt>
      <trkpt lat="43.99926" lon="5.91798">
        <ele>413</ele>
        <time>2020-10-05T10:06:47.000Z</time>
      </trkpt>
      <trkpt lat="43.99927" lon="5.91798">
        <ele>413</ele>
        <time>2020-10-05T10:06:48.000Z</time>
      </trkpt>
      <trkpt lat="43.99928" lon="5.91799">
        <ele>413</ele>
        <time>2020-10-05T10:06:49.000Z</time>
      </trkpt>
      <trkpt lat="43.99928" lon="5.91799">
        <ele>413</ele>
        <time>2020-10-05T10:06:50.000Z</time>
      </trkpt>
      <trkpt lat="43.99929" lon="5.918">
        <ele>413</ele>
        <time>2020-10-05T10:06:51.000Z</time>
      </trkpt>
      <trkpt lat="43.99929" lon="5.918">
        <ele>413</ele>
        <time>2020-10-05T10:06:52.000Z</time>
      </trkpt>
      <trkpt lat="43.99929" lon="5.918">
        <ele>413</ele>
        <time>2020-10-05T10:06:53.000Z</time>
      </trkpt>
      <trkpt lat="43.99929" lon="5.918">
        <ele>413</ele>
        <time>2020-10-05T10:06:54.000Z</time>
      </trkpt>
      <trkpt lat="43.9993" lon="5.918">
        <ele>413</ele>
        <time>2020-10-05T10:06:55.000Z</time>
      </trkpt>
      <trkpt lat="43.99931" lon="5.91801">
        <ele>413</ele>
        <time>2020-10-05T10:06:56.000Z</time>
      </trkpt>
      <trkpt lat="43.99931" lon="5.91801">
        <ele>413</ele>
        <time>2020-10-05T10:06:57.000Z</time>
      </trkpt>
      <trkpt lat="43.99931" lon="5.91802">
        <ele>412</ele>
        <time>2020-10-05T10:06:58.000Z</time>
      </trkpt>
      <trkpt lat="43.99932" lon="5.91802">
        <ele>412</ele>
        <time>2020-10-05T10:06:59.000Z</time>
      </trkpt>
      <trkpt lat="43.99932" lon="5.91801">
        <ele>412</ele>
        <time>2020-10-05T10:07:00.000Z</time>
      </trkpt>
      <trkpt lat="43.99932" lon="5.91801">
        <ele>412</ele>
        <time>2020-10-05T10:07:01.000Z</time>
      </trkpt>
      <trkpt lat="43.99932" lon="5.91801">
        <ele>412</ele>
        <time>2020-10-05T10:07:02.000Z</time>
      </trkpt>
      <trkpt lat="43.99932" lon="5.91801">
        <ele>412</ele>
        <time>2020-10-05T10:07:03.000Z</time>
      </trkpt>
      <trkpt lat="43.99932" lon="5.91802">
        <ele>412</ele>
        <time>2020-10-05T10:07:04.000Z</time>
      </trkpt>
      <trkpt lat="43.99933" lon="5.91802">
        <ele>412</ele>
        <time>2020-10-05T10:07:05.000Z</time>
      </trkpt>
      <trkpt lat="43.99933" lon="5.91803">
        <ele>412</ele>
        <time>2020-10-05T10:07:06.000Z</time>
      </trkpt>
      <trkpt lat="43.99934" lon="5.91804">
        <ele>412</ele>
        <time>2020-10-05T10:07:07.000Z</time>
      </trkpt>
      <trkpt lat="43.99935" lon="5.91805">
        <ele>412</ele>
        <time>2020-10-05T10:07:08.000Z</time>
      </trkpt>
      <trkpt lat="43.99935" lon="5.91806">
        <ele>412</ele>
        <time>2020-10-05T10:07:09.000Z</time>
      </trkpt>
      <trkpt lat="43.99936" lon="5.91807">
        <ele>412</ele>
        <time>2020-10-05T10:07:10.000Z</time>
      </trkpt>
      <trkpt lat="43.99937" lon="5.91808">
        <ele>412</ele>
        <time>2020-10-05T10:07:11.000Z</time>
      </trkpt>
      <trkpt lat="43.99938" lon="5.91809">
        <ele>411</ele>
        <time>2020-10-05T10:07:12.000Z</time>
      </trkpt>
      <trkpt lat="43.99938" lon="5.9181">
        <ele>411</ele>
        <time>2020-10-05T10:07:13.000Z</time>
      </trkpt>
      <trkpt lat="43.99939" lon="5.91812">
        <ele>411</ele>
        <time>2020-10-05T10:07:14.000Z</time>
      </trkpt>
      <trkpt lat="43.9994" lon="5.91813">
        <ele>411</ele>
        <time>2020-10-05T10:07:15.000Z</time>
      </trkpt>
      <trkpt lat="43.9994" lon="5.91814">
        <ele>411</ele>
        <time>2020-10-05T10:07:16.000Z</time>
      </trkpt>
      <trkpt lat="43.99941" lon="5.91815">
        <ele>411</ele>
        <time>2020-10-05T10:07:17.000Z</time>
      </trkpt>
      <trkpt lat="43.99941" lon="5.91817">
        <ele>411</ele>
        <time>2020-10-05T10:07:18.000Z</time>
      </trkpt>
      <trkpt lat="43.99941" lon="5.91818">
        <ele>411</ele>
        <time>2020-10-05T10:07:19.000Z</time>
      </trkpt>
      <trkpt lat="43.99941" lon="5.91819">
        <ele>411</ele>
        <time>2020-10-05T10:07:20.000Z</time>
      </trkpt>
      <trkpt lat="43.9994" lon="5.9182">
        <ele>411</ele>
        <time>2020-10-05T10:07:21.000Z</time>
      </trkpt>
      <trkpt lat="43.99941" lon="5.91821">
        <ele>412</ele>
        <time>2020-10-05T10:07:22.000Z</time>
      </trkpt>
      <trkpt lat="43.99941" lon="5.91823">
        <ele>412</ele>
        <time>2020-10-05T10:07:23.000Z</time>
      </trkpt>
      <trkpt lat="43.99941" lon="5.91824">
        <ele>412</ele>
        <time>2020-10-05T10:07:24.000Z</time>
      </trkpt>
      <trkpt lat="43.99941" lon="5.91826">
        <ele>411</ele>
        <time>2020-10-05T10:07:25.000Z</time>
      </trkpt>
      <trkpt lat="43.99941" lon="5.91827">
        <ele>412</ele>
        <time>2020-10-05T10:07:26.000Z</time>
      </trkpt>
      <trkpt lat="43.99941" lon="5.91829">
        <ele>412</ele>
        <time>2020-10-05T10:07:27.000Z</time>
      </trkpt>
      <trkpt lat="43.99941" lon="5.9183">
        <ele>412</ele>
        <time>2020-10-05T10:07:28.000Z</time>
      </trkpt>
      <trkpt lat="43.99941" lon="5.91832">
        <ele>412</ele>
        <time>2020-10-05T10:07:29.000Z</time>
      </trkpt>
      <trkpt lat="43.99941" lon="5.91833">
        <ele>412</ele>
        <time>2020-10-05T10:07:30.000Z</time>
      </trkpt>
      <trkpt lat="43.99941" lon="5.91835">
        <ele>412</ele>
        <time>2020-10-05T10:07:31.000Z</time>
      </trkpt>
      <trkpt lat="43.99941" lon="5.91837">
        <ele>412</ele>
        <time>2020-10-05T10:07:32.000Z</time>
      </trkpt>
      <trkpt lat="43.99941" lon="5.91839">
        <ele>412</ele>
        <time>2020-10-05T10:07:33.000Z</time>
      </trkpt>
      <trkpt lat="43.99941" lon="5.91841">
        <ele>412</ele>
        <time>2020-10-05T10:07:34.000Z</time>
      </trkpt>
      <trkpt lat="43.99941" lon="5.91842">
        <ele>412</ele>
        <time>2020-10-05T10:07:35.000Z</time>
      </trkpt>
      <trkpt lat="43.99941" lon="5.91844">
        <ele>412</ele>
        <time>2020-10-05T10:07:36.000Z</time>
      </trkpt>
      <trkpt lat="43.99941" lon="5.91845">
        <ele>412</ele>
        <time>2020-10-05T10:07:37.000Z</time>
      </trkpt>
      <trkpt lat="43.99941" lon="5.91847">
        <ele>412</ele>
        <time>2020-10-05T10:07:38.000Z</time>
      </trkpt>
      <trkpt lat="43.99941" lon="5.91848">
        <ele>412</ele>
        <time>2020-10-05T10:07:39.000Z</time>
      </trkpt>
      <trkpt lat="43.99941" lon="5.9185">
        <ele>412</ele>
        <time>2020-10-05T10:07:40.000Z</time>
      </trkpt>
      <trkpt lat="43.99941" lon="5.91851">
        <ele>412</ele>
        <time>2020-10-05T10:07:41.000Z</time>
      </trkpt>
      <trkpt lat="43.99941" lon="5.91853">
        <ele>412</ele>
        <time>2020-10-05T10:07:42.000Z</time>
      </trkpt>
      <trkpt lat="43.99941" lon="5.91854">
        <ele>412</ele>
        <time>2020-10-05T10:07:43.000Z</time>
      </trkpt>
      <trkpt lat="43.99942" lon="5.91856">
        <ele>412</ele>
        <time>2020-10-05T10:07:44.000Z</time>
      </trkpt>
      <trkpt lat="43.99942" lon="5.91857">
        <ele>412</ele>
        <time>2020-10-05T10:07:45.000Z</time>
      </trkpt>
      <trkpt lat="43.99943" lon="5.91859">
        <ele>412</ele>
        <time>2020-10-05T10:07:46.000Z</time>
      </trkpt>
      <trkpt lat="43.99944" lon="5.9186">
        <ele>412</ele>
        <time>2020-10-05T10:07:47.000Z</time>
      </trkpt>
      <trkpt lat="43.99945" lon="5.91861">
        <ele>412</ele>
        <time>2020-10-05T10:07:48.000Z</time>
      </trkpt>
      <trkpt lat="43.99945" lon="5.91863">
        <ele>412</ele>
        <time>2020-10-05T10:07:49.000Z</time>
      </trkpt>
      <trkpt lat="43.99946" lon="5.91864">
        <ele>412</ele>
        <time>2020-10-05T10:07:50.000Z</time>
      </trkpt>
      <trkpt lat="43.99946" lon="5.91865">
        <ele>412</ele>
        <time>2020-10-05T10:07:51.000Z</time>
      </trkpt>
      <trkpt lat="43.99947" lon="5.91867">
        <ele>412</ele>
        <time>2020-10-05T10:07:52.000Z</time>
      </trkpt>
      <trkpt lat="43.99947" lon="5.91868">
        <ele>411</ele>
        <time>2020-10-05T10:07:53.000Z</time>
      </trkpt>
      <trkpt lat="43.99948" lon="5.91869">
        <ele>411</ele>
        <time>2020-10-05T10:07:54.000Z</time>
      </trkpt>
      <trkpt lat="43.99948" lon="5.91871">
        <ele>411</ele>
        <time>2020-10-05T10:07:55.000Z</time>
      </trkpt>
      <trkpt lat="43.99949" lon="5.91872">
        <ele>411</ele>
        <time>2020-10-05T10:07:56.000Z</time>
      </trkpt>
      <trkpt lat="43.99949" lon="5.91872">
        <ele>411</ele>
        <time>2020-10-05T10:07:57.000Z</time>
      </trkpt>
      <trkpt lat="43.99949" lon="5.91873">
        <ele>411</ele>
        <time>2020-10-05T10:07:58.000Z</time>
      </trkpt>
      <trkpt lat="43.9995" lon="5.91875">
        <ele>411</ele>
        <time>2020-10-05T10:07:59.000Z</time>
      </trkpt>
      <trkpt lat="43.9995" lon="5.91876">
        <ele>411</ele>
        <time>2020-10-05T10:08:00.000Z</time>
      </trkpt>
      <trkpt lat="43.99951" lon="5.91877">
        <ele>410</ele>
        <time>2020-10-05T10:08:01.000Z</time>
      </trkpt>
      <trkpt lat="43.99952" lon="5.91878">
        <ele>410</ele>
        <time>2020-10-05T10:08:02.000Z</time>
      </trkpt>
      <trkpt lat="43.99953" lon="5.91879">
        <ele>410</ele>
        <time>2020-10-05T10:08:03.000Z</time>
      </trkpt>
      <trkpt lat="43.99954" lon="5.91879">
        <ele>410</ele>
        <time>2020-10-05T10:08:04.000Z</time>
      </trkpt>
      <trkpt lat="43.99955" lon="5.9188">
        <ele>410</ele>
        <time>2020-10-05T10:08:05.000Z</time>
      </trkpt>
      <trkpt lat="43.99956" lon="5.91881">
        <ele>410</ele>
        <time>2020-10-05T10:08:06.000Z</time>
      </trkpt>
      <trkpt lat="43.99957" lon="5.91882">
        <ele>410</ele>
        <time>2020-10-05T10:08:07.000Z</time>
      </trkpt>
      <trkpt lat="43.99958" lon="5.91883">
        <ele>410</ele>
        <time>2020-10-05T10:08:08.000Z</time>
      </trkpt>
      <trkpt lat="43.99959" lon="5.91884">
        <ele>410</ele>
        <time>2020-10-05T10:08:09.000Z</time>
      </trkpt>
      <trkpt lat="43.9996" lon="5.91884">
        <ele>410</ele>
        <time>2020-10-05T10:08:10.000Z</time>
      </trkpt>
      <trkpt lat="43.99961" lon="5.91885">
        <ele>410</ele>
        <time>2020-10-05T10:08:11.000Z</time>
      </trkpt>
      <trkpt lat="43.99962" lon="5.91885">
        <ele>409</ele>
        <time>2020-10-05T10:08:12.000Z</time>
      </trkpt>
      <trkpt lat="43.99963" lon="5.91885">
        <ele>409</ele>
        <time>2020-10-05T10:08:13.000Z</time>
      </trkpt>
      <trkpt lat="43.99964" lon="5.91886">
        <ele>409</ele>
        <time>2020-10-05T10:08:14.000Z</time>
      </trkpt>
      <trkpt lat="43.99965" lon="5.91886">
        <ele>409</ele>
        <time>2020-10-05T10:08:15.000Z</time>
      </trkpt>
      <trkpt lat="43.99966" lon="5.91886">
        <ele>409</ele>
        <time>2020-10-05T10:08:16.000Z</time>
      </trkpt>
      <trkpt lat="43.99967" lon="5.91886">
        <ele>409</ele>
        <time>2020-10-05T10:08:17.000Z</time>
      </trkpt>
      <trkpt lat="43.99968" lon="5.91885">
        <ele>409</ele>
        <time>2020-10-05T10:08:18.000Z</time>
      </trkpt>
      <trkpt lat="43.99969" lon="5.91885">
        <ele>409</ele>
        <time>2020-10-05T10:08:19.000Z</time>
      </trkpt>
      <trkpt lat="43.99971" lon="5.91885">
        <ele>409</ele>
        <time>2020-10-05T10:08:20.000Z</time>
      </trkpt>
      <trkpt lat="43.99972" lon="5.91884">
        <ele>409</ele>
        <time>2020-10-05T10:08:21.000Z</time>
      </trkpt>
      <trkpt lat="43.99973" lon="5.91884">
        <ele>409</ele>
        <time>2020-10-05T10:08:22.000Z</time>
      </trkpt>
      <trkpt lat="43.99974" lon="5.91883">
        <ele>409</ele>
        <time>2020-10-05T10:08:23.000Z</time>
      </trkpt>
      <trkpt lat="43.99975" lon="5.91882">
        <ele>409</ele>
        <time>2020-10-05T10:08:24.000Z</time>
      </trkpt>
      <trkpt lat="43.99976" lon="5.91882">
        <ele>409</ele>
        <time>2020-10-05T10:08:25.000Z</time>
      </trkpt>
      <trkpt lat="43.99977" lon="5.91881">
        <ele>409</ele>
        <time>2020-10-05T10:08:26.000Z</time>
      </trkpt>
      <trkpt lat="43.99978" lon="5.91881">
        <ele>409</ele>
        <time>2020-10-05T10:08:27.000Z</time>
      </trkpt>
      <trkpt lat="43.99979" lon="5.9188">
        <ele>409</ele>
        <time>2020-10-05T10:08:28.000Z</time>
      </trkpt>
      <trkpt lat="43.9998" lon="5.91879">
        <ele>409</ele>
        <time>2020-10-05T10:08:29.000Z</time>
      </trkpt>
      <trkpt lat="43.99981" lon="5.91878">
        <ele>409</ele>
        <time>2020-10-05T10:08:30.000Z</time>
      </trkpt>
      <trkpt lat="43.99982" lon="5.91877">
        <ele>409</ele>
        <time>2020-10-05T10:08:31.000Z</time>
      </trkpt>
      <trkpt lat="43.99982" lon="5.91877">
        <ele>409</ele>
        <time>2020-10-05T10:08:32.000Z</time>
      </trkpt>
      <trkpt lat="43.99983" lon="5.91876">
        <ele>409</ele>
        <time>2020-10-05T10:08:33.000Z</time>
      </trkpt>
      <trkpt lat="43.99984" lon="5.91876">
        <ele>409</ele>
        <time>2020-10-05T10:08:34.000Z</time>
      </trkpt>
      <trkpt lat="43.99985" lon="5.91875">
        <ele>409</ele>
        <time>2020-10-05T10:08:35.000Z</time>
      </trkpt>
      <trkpt lat="43.99986" lon="5.91874">
        <ele>409</ele>
        <time>2020-10-05T10:08:36.000Z</time>
      </trkpt>
      <trkpt lat="43.99987" lon="5.91874">
        <ele>409</ele>
        <time>2020-10-05T10:08:37.000Z</time>
      </trkpt>
      <trkpt lat="43.99989" lon="5.91873">
        <ele>409</ele>
        <time>2020-10-05T10:08:38.000Z</time>
      </trkpt>
      <trkpt lat="43.9999" lon="5.91872">
        <ele>410</ele>
        <time>2020-10-05T10:08:39.000Z</time>
      </trkpt>
      <trkpt lat="43.99991" lon="5.91872">
        <ele>410</ele>
        <time>2020-10-05T10:08:40.000Z</time>
      </trkpt>
      <trkpt lat="43.99992" lon="5.91871">
        <ele>410</ele>
        <time>2020-10-05T10:08:41.000Z</time>
      </trkpt>
      <trkpt lat="43.99993" lon="5.91871">
        <ele>410</ele>
        <time>2020-10-05T10:08:42.000Z</time>
      </trkpt>
      <trkpt lat="43.99994" lon="5.9187">
        <ele>410</ele>
        <time>2020-10-05T10:08:43.000Z</time>
      </trkpt>
      <trkpt lat="43.99995" lon="5.9187">
        <ele>410</ele>
        <time>2020-10-05T10:08:44.000Z</time>
      </trkpt>
      <trkpt lat="43.99997" lon="5.91869">
        <ele>410</ele>
        <time>2020-10-05T10:08:45.000Z</time>
      </trkpt>
      <trkpt lat="43.99998" lon="5.91869">
        <ele>411</ele>
        <time>2020-10-05T10:08:46.000Z</time>
      </trkpt>
      <trkpt lat="43.99998" lon="5.91869">
        <ele>411</ele>
        <time>2020-10-05T10:08:47.000Z</time>
      </trkpt>
      <trkpt lat="43.99999" lon="5.91869">
        <ele>411</ele>
        <time>2020-10-05T10:08:48.000Z</time>
      </trkpt>
      <trkpt lat="44" lon="5.91869">
        <ele>411</ele>
        <time>2020-10-05T10:08:49.000Z</time>
      </trkpt>
      <trkpt lat="44.00001" lon="5.91868">
        <ele>411</ele>
        <time>2020-10-05T10:08:50.000Z</time>
      </trkpt>
      <trkpt lat="44.00002" lon="5.91868">
        <ele>411</ele>
        <time>2020-10-05T10:08:51.000Z</time>
      </trkpt>
      <trkpt lat="44.00003" lon="5.91868">
        <ele>411</ele>
        <time>2020-10-05T10:08:52.000Z</time>
      </trkpt>
      <trkpt lat="44.00004" lon="5.91868">
        <ele>411</ele>
        <time>2020-10-05T10:08:53.000Z</time>
      </trkpt>
      <trkpt lat="44.00005" lon="5.91868">
        <ele>411</ele>
        <time>2020-10-05T10:08:54.000Z</time>
      </trkpt>
      <trkpt lat="44.00007" lon="5.91869">
        <ele>411</ele>
        <time>2020-10-05T10:08:55.000Z</time>
      </trkpt>
      <trkpt lat="44.00008" lon="5.91869">
        <ele>411</ele>
        <time>2020-10-05T10:08:56.000Z</time>
      </trkpt>
      <trkpt lat="44.00009" lon="5.91868">
        <ele>411</ele>
        <time>2020-10-05T10:08:57.000Z</time>
      </trkpt>
      <trkpt lat="44.0001" lon="5.91868">
        <ele>411</ele>
        <time>2020-10-05T10:08:58.000Z</time>
      </trkpt>
      <trkpt lat="44.00011" lon="5.91869">
        <ele>411</ele>
        <time>2020-10-05T10:08:59.000Z</time>
      </trkpt>
      <trkpt lat="44.00012" lon="5.91869">
        <ele>411</ele>
        <time>2020-10-05T10:09:00.000Z</time>
      </trkpt>
      <trkpt lat="44.00013" lon="5.91869">
        <ele>412</ele>
        <time>2020-10-05T10:09:01.000Z</time>
      </trkpt>
      <trkpt lat="44.00015" lon="5.91869">
        <ele>412</ele>
        <time>2020-10-05T10:09:02.000Z</time>
      </trkpt>
      <trkpt lat="44.00016" lon="5.91869">
        <ele>412</ele>
        <time>2020-10-05T10:09:03.000Z</time>
      </trkpt>
      <trkpt lat="44.00017" lon="5.91869">
        <ele>412</ele>
        <time>2020-10-05T10:09:04.000Z</time>
      </trkpt>
      <trkpt lat="44.00018" lon="5.91869">
        <ele>412</ele>
        <time>2020-10-05T10:09:05.000Z</time>
      </trkpt>
      <trkpt lat="44.00019" lon="5.91869">
        <ele>412</ele>
        <time>2020-10-05T10:09:06.000Z</time>
      </trkpt>
      <trkpt lat="44.0002" lon="5.91869">
        <ele>412</ele>
        <time>2020-10-05T10:09:07.000Z</time>
      </trkpt>
      <trkpt lat="44.00021" lon="5.91869">
        <ele>412</ele>
        <time>2020-10-05T10:09:08.000Z</time>
      </trkpt>
      <trkpt lat="44.00022" lon="5.91869">
        <ele>412</ele>
        <time>2020-10-05T10:09:09.000Z</time>
      </trkpt>
      <trkpt lat="44.00023" lon="5.91869">
        <ele>412</ele>
        <time>2020-10-05T10:09:10.000Z</time>
      </trkpt>
      <trkpt lat="44.00025" lon="5.91868">
        <ele>412</ele>
        <time>2020-10-05T10:09:11.000Z</time>
      </trkpt>
      <trkpt lat="44.00026" lon="5.91868">
        <ele>412</ele>
        <time>2020-10-05T10:09:12.000Z</time>
      </trkpt>
      <trkpt lat="44.00027" lon="5.91868">
        <ele>412</ele>
        <time>2020-10-05T10:09:13.000Z</time>
      </trkpt>
      <trkpt lat="44.00028" lon="5.91867">
        <ele>412</ele>
        <time>2020-10-05T10:09:14.000Z</time>
      </trkpt>
      <trkpt lat="44.00029" lon="5.91867">
        <ele>412</ele>
        <time>2020-10-05T10:09:15.000Z</time>
      </trkpt>
      <trkpt lat="44.0003" lon="5.91867">
        <ele>412</ele>
        <time>2020-10-05T10:09:16.000Z</time>
      </trkpt>
      <trkpt lat="44.00031" lon="5.91867">
        <ele>412</ele>
        <time>2020-10-05T10:09:17.000Z</time>
      </trkpt>
      <trkpt lat="44.00032" lon="5.91866">
        <ele>412</ele>
        <time>2020-10-05T10:09:18.000Z</time>
      </trkpt>
      <trkpt lat="44.00034" lon="5.91866">
        <ele>412</ele>
        <time>2020-10-05T10:09:19.000Z</time>
      </trkpt>
      <trkpt lat="44.00035" lon="5.91865">
        <ele>412</ele>
        <time>2020-10-05T10:09:20.000Z</time>
      </trkpt>
      <trkpt lat="44.00036" lon="5.91865">
        <ele>412</ele>
        <time>2020-10-05T10:09:21.000Z</time>
      </trkpt>
      <trkpt lat="44.00037" lon="5.91865">
        <ele>412</ele>
        <time>2020-10-05T10:09:22.000Z</time>
      </trkpt>
      <trkpt lat="44.00038" lon="5.91865">
        <ele>412</ele>
        <time>2020-10-05T10:09:23.000Z</time>
      </trkpt>
      <trkpt lat="44.00039" lon="5.91864">
        <ele>412</ele>
        <time>2020-10-05T10:09:24.000Z</time>
      </trkpt>
      <trkpt lat="44.0004" lon="5.91864">
        <ele>412</ele>
        <time>2020-10-05T10:09:25.000Z</time>
      </trkpt>
      <trkpt lat="44.00041" lon="5.91863">
        <ele>412</ele>
        <time>2020-10-05T10:09:26.000Z</time>
      </trkpt>
      <trkpt lat="44.00042" lon="5.91863">
        <ele>412</ele>
        <time>2020-10-05T10:09:27.000Z</time>
      </trkpt>
      <trkpt lat="44.00043" lon="5.91864">
        <ele>411</ele>
        <time>2020-10-05T10:09:28.000Z</time>
      </trkpt>
      <trkpt lat="44.00044" lon="5.91865">
        <ele>411</ele>
        <time>2020-10-05T10:09:29.000Z</time>
      </trkpt>
      <trkpt lat="44.00045" lon="5.91866">
        <ele>411</ele>
        <time>2020-10-05T10:09:30.000Z</time>
      </trkpt>
      <trkpt lat="44.00046" lon="5.91867">
        <ele>411</ele>
        <time>2020-10-05T10:09:31.000Z</time>
      </trkpt>
      <trkpt lat="44.00047" lon="5.91867">
        <ele>411</ele>
        <time>2020-10-05T10:09:32.000Z</time>
      </trkpt>
      <trkpt lat="44.00047" lon="5.91869">
        <ele>411</ele>
        <time>2020-10-05T10:09:33.000Z</time>
      </trkpt>
      <trkpt lat="44.00048" lon="5.9187">
        <ele>411</ele>
        <time>2020-10-05T10:09:34.000Z</time>
      </trkpt>
      <trkpt lat="44.00048" lon="5.91871">
        <ele>411</ele>
        <time>2020-10-05T10:09:35.000Z</time>
      </trkpt>
      <trkpt lat="44.00048" lon="5.91873">
        <ele>411</ele>
        <time>2020-10-05T10:09:36.000Z</time>
      </trkpt>
      <trkpt lat="44.00048" lon="5.91875">
        <ele>411</ele>
        <time>2020-10-05T10:09:37.000Z</time>
      </trkpt>
      <trkpt lat="44.00048" lon="5.91876">
        <ele>412</ele>
        <time>2020-10-05T10:09:38.000Z</time>
      </trkpt>
      <trkpt lat="44.00047" lon="5.91878">
        <ele>412</ele>
        <time>2020-10-05T10:09:39.000Z</time>
      </trkpt>
      <trkpt lat="44.00047" lon="5.9188">
        <ele>412</ele>
        <time>2020-10-05T10:09:40.000Z</time>
      </trkpt>
      <trkpt lat="44.00047" lon="5.91881">
        <ele>412</ele>
        <time>2020-10-05T10:09:41.000Z</time>
      </trkpt>
      <trkpt lat="44.00047" lon="5.91882">
        <ele>412</ele>
        <time>2020-10-05T10:09:42.000Z</time>
      </trkpt>
      <trkpt lat="44.00047" lon="5.91884">
        <ele>412</ele>
        <time>2020-10-05T10:09:43.000Z</time>
      </trkpt>
      <trkpt lat="44.00046" lon="5.91885">
        <ele>412</ele>
        <time>2020-10-05T10:09:44.000Z</time>
      </trkpt>
      <trkpt lat="44.00046" lon="5.91887">
        <ele>412</ele>
        <time>2020-10-05T10:09:45.000Z</time>
      </trkpt>
      <trkpt lat="44.00046" lon="5.91887">
        <ele>412</ele>
        <time>2020-10-05T10:09:46.000Z</time>
      </trkpt>
      <trkpt lat="44.00045" lon="5.91888">
        <ele>412</ele>
        <time>2020-10-05T10:09:47.000Z</time>
      </trkpt>
      <trkpt lat="44.00044" lon="5.91889">
        <ele>412</ele>
        <time>2020-10-05T10:09:48.000Z</time>
      </trkpt>
      <trkpt lat="44.00044" lon="5.9189">
        <ele>412</ele>
        <time>2020-10-05T10:09:49.000Z</time>
      </trkpt>
      <trkpt lat="44.00043" lon="5.91891">
        <ele>412</ele>
        <time>2020-10-05T10:09:50.000Z</time>
      </trkpt>
      <trkpt lat="44.00042" lon="5.91893">
        <ele>412</ele>
        <time>2020-10-05T10:09:51.000Z</time>
      </trkpt>
      <trkpt lat="44.00042" lon="5.91894">
        <ele>413</ele>
        <time>2020-10-05T10:09:52.000Z</time>
      </trkpt>
      <trkpt lat="44.00041" lon="5.91896">
        <ele>413</ele>
        <time>2020-10-05T10:09:53.000Z</time>
      </trkpt>
      <trkpt lat="44.0004" lon="5.91897">
        <ele>413</ele>
        <time>2020-10-05T10:09:54.000Z</time>
      </trkpt>
      <trkpt lat="44.00039" lon="5.91899">
        <ele>413</ele>
        <time>2020-10-05T10:09:55.000Z</time>
      </trkpt>
      <trkpt lat="44.00039" lon="5.91901">
        <ele>413</ele>
        <time>2020-10-05T10:09:56.000Z</time>
      </trkpt>
      <trkpt lat="44.00038" lon="5.91902">
        <ele>413</ele>
        <time>2020-10-05T10:09:57.000Z</time>
      </trkpt>
      <trkpt lat="44.00038" lon="5.91904">
        <ele>413</ele>
        <time>2020-10-05T10:09:58.000Z</time>
      </trkpt>
      <trkpt lat="44.00038" lon="5.91906">
        <ele>413</ele>
        <time>2020-10-05T10:09:59.000Z</time>
      </trkpt>
      <trkpt lat="44.00037" lon="5.91908">
        <ele>413</ele>
        <time>2020-10-05T10:10:00.000Z</time>
      </trkpt>
      <trkpt lat="44.00037" lon="5.9191">
        <ele>413</ele>
        <time>2020-10-05T10:10:01.000Z</time>
      </trkpt>
      <trkpt lat="44.00037" lon="5.91911">
        <ele>413</ele>
        <time>2020-10-05T10:10:02.000Z</time>
      </trkpt>
      <trkpt lat="44.00037" lon="5.91913">
        <ele>413</ele>
        <time>2020-10-05T10:10:03.000Z</time>
      </trkpt>
      <trkpt lat="44.00037" lon="5.91915">
        <ele>413</ele>
        <time>2020-10-05T10:10:04.000Z</time>
      </trkpt>
      <trkpt lat="44.00037" lon="5.91917">
        <ele>413</ele>
        <time>2020-10-05T10:10:05.000Z</time>
      </trkpt>
      <trkpt lat="44.00037" lon="5.91918">
        <ele>413</ele>
        <time>2020-10-05T10:10:06.000Z</time>
      </trkpt>
      <trkpt lat="44.00038" lon="5.9192">
        <ele>413</ele>
        <time>2020-10-05T10:10:07.000Z</time>
      </trkpt>
      <trkpt lat="44.00038" lon="5.91921">
        <ele>413</ele>
        <time>2020-10-05T10:10:08.000Z</time>
      </trkpt>
      <trkpt lat="44.00039" lon="5.91922">
        <ele>413</ele>
        <time>2020-10-05T10:10:09.000Z</time>
      </trkpt>
      <trkpt lat="44.0004" lon="5.91924">
        <ele>413</ele>
        <time>2020-10-05T10:10:10.000Z</time>
      </trkpt>
      <trkpt lat="44.00041" lon="5.91925">
        <ele>413</ele>
        <time>2020-10-05T10:10:11.000Z</time>
      </trkpt>
      <trkpt lat="44.00042" lon="5.91927">
        <ele>413</ele>
        <time>2020-10-05T10:10:12.000Z</time>
      </trkpt>
      <trkpt lat="44.00042" lon="5.91928">
        <ele>413</ele>
        <time>2020-10-05T10:10:13.000Z</time>
      </trkpt>
      <trkpt lat="44.00043" lon="5.91929">
        <ele>413</ele>
        <time>2020-10-05T10:10:14.000Z</time>
      </trkpt>
      <trkpt lat="44.00044" lon="5.91931">
        <ele>412</ele>
        <time>2020-10-05T10:10:15.000Z</time>
      </trkpt>
      <trkpt lat="44.00045" lon="5.91932">
        <ele>412</ele>
        <time>2020-10-05T10:10:16.000Z</time>
      </trkpt>
      <trkpt lat="44.00046" lon="5.91933">
        <ele>412</ele>
        <time>2020-10-05T10:10:17.000Z</time>
      </trkpt>
      <trkpt lat="44.00047" lon="5.91934">
        <ele>412</ele>
        <time>2020-10-05T10:10:18.000Z</time>
      </trkpt>
      <trkpt lat="44.00047" lon="5.91935">
        <ele>412</ele>
        <time>2020-10-05T10:10:19.000Z</time>
      </trkpt>
      <trkpt lat="44.00047" lon="5.91935">
        <ele>412</ele>
        <time>2020-10-05T10:10:20.000Z</time>
      </trkpt>
      <trkpt lat="44.00047" lon="5.91935">
        <ele>412</ele>
        <time>2020-10-05T10:10:21.000Z</time>
      </trkpt>
      <trkpt lat="44.00047" lon="5.91935">
        <ele>412</ele>
        <time>2020-10-05T10:10:22.000Z</time>
      </trkpt>
      <trkpt lat="44.00047" lon="5.91935">
        <ele>412</ele>
        <time>2020-10-05T10:10:23.000Z</time>
      </trkpt>
      <trkpt lat="44.00047" lon="5.91935">
        <ele>412</ele>
        <time>2020-10-05T10:10:24.000Z</time>
      </trkpt>
      <trkpt lat="44.00047" lon="5.91935">
        <ele>412</ele>
        <time>2020-10-05T10:10:25.000Z</time>
      </trkpt>
      <trkpt lat="44.00047" lon="5.91935">
        <ele>412</ele>
        <time>2020-10-05T10:10:26.000Z</time>
      </trkpt>
      <trkpt lat="44.00047" lon="5.91935">
        <ele>412</ele>
        <time>2020-10-05T10:10:27.000Z</time>
      </trkpt>
      <trkpt lat="44.00047" lon="5.91935">
        <ele>412</ele>
        <time>2020-10-05T10:10:28.000Z</time>
      </trkpt>
      <trkpt lat="44.00047" lon="5.91936">
        <ele>412</ele>
        <time>2020-10-05T10:10:29.000Z</time>
      </trkpt>
      <trkpt lat="44.00047" lon="5.91936">
        <ele>412</ele>
        <time>2020-10-05T10:10:30.000Z</time>
      </trkpt>
      <trkpt lat="44.00047" lon="5.91936">
        <ele>412</ele>
        <time>2020-10-05T10:10:31.000Z</time>
      </trkpt>
      <trkpt lat="44.00047" lon="5.91936">
        <ele>412</ele>
        <time>2020-10-05T10:10:32.000Z</time>
      </trkpt>
      <trkpt lat="44.00047" lon="5.91936">
        <ele>412</ele>
        <time>2020-10-05T10:10:33.000Z</time>
      </trkpt>
      <trkpt lat="44.00047" lon="5.91936">
        <ele>412</ele>
        <time>2020-10-05T10:10:34.000Z</time>
      </trkpt>
      <trkpt lat="44.00047" lon="5.91936">
        <ele>412</ele>
        <time>2020-10-05T10:10:35.000Z</time>
      </trkpt>
      <trkpt lat="44.00047" lon="5.91936">
        <ele>412</ele>
        <time>2020-10-05T10:10:36.000Z</time>
      </trkpt>
      <trkpt lat="44.00047" lon="5.91936">
        <ele>412</ele>
        <time>2020-10-05T10:10:37.000Z</time>
      </trkpt>
      <trkpt lat="44.00047" lon="5.91936">
        <ele>412</ele>
        <time>2020-10-05T10:10:38.000Z</time>
      </trkpt>
      <trkpt lat="44.00047" lon="5.91936">
        <ele>412</ele>
        <time>2020-10-05T10:10:39.000Z</time>
      </trkpt>
      <trkpt lat="44.00047" lon="5.91936">
        <ele>412</ele>
        <time>2020-10-05T10:10:40.000Z</time>
      </trkpt>
      <trkpt lat="44.00047" lon="5.91936">
        <ele>412</ele>
        <time>2020-10-05T10:10:41.000Z</time>
      </trkpt>
      <trkpt lat="44.00047" lon="5.91936">
        <ele>412</ele>
        <time>2020-10-05T10:10:42.000Z</time>
      </trkpt>
      <trkpt lat="44.00047" lon="5.91936">
        <ele>412</ele>
        <time>2020-10-05T10:10:43.000Z</time>
      </trkpt>
      <trkpt lat="44.00047" lon="5.91936">
        <ele>412</ele>
        <time>2020-10-05T10:10:44.000Z</time>
      </trkpt>
      <trkpt lat="44.00047" lon="5.91936">
        <ele>412</ele>
        <time>2020-10-05T10:10:45.000Z</time>
      </trkpt>
      <trkpt lat="44.00047" lon="5.91936">
        <ele>412</ele>
        <time>2020-10-05T10:10:46.000Z</time>
      </trkpt>
      <trkpt lat="44.00047" lon="5.91936">
        <ele>412</ele>
        <time>2020-10-05T10:10:47.000Z</time>
      </trkpt>
      <trkpt lat="44.00047" lon="5.91936">
        <ele>412</ele>
        <time>2020-10-05T10:10:48.000Z</time>
      </trkpt>
      <trkpt lat="44.00047" lon="5.91936">
        <ele>412</ele>
        <time>2020-10-05T10:10:49.000Z</time>
      </trkpt>
      <trkpt lat="44.00047" lon="5.91936">
        <ele>412</ele>
        <time>2020-10-05T10:10:50.000Z</time>
      </trkpt>
      <trkpt lat="44.00047" lon="5.91936">
        <ele>412</ele>
        <time>2020-10-05T10:10:51.000Z</time>
      </trkpt>
      <trkpt lat="44.00047" lon="5.91936">
        <ele>411</ele>
        <time>2020-10-05T10:10:52.000Z</time>
      </trkpt>
      <trkpt lat="44.00047" lon="5.91936">
        <ele>411</ele>
        <time>2020-10-05T10:10:53.000Z</time>
      </trkpt>
      <trkpt lat="44.00047" lon="5.91936">
        <ele>411</ele>
        <time>2020-10-05T10:10:54.000Z</time>
      </trkpt>
      <trkpt lat="44.00047" lon="5.91936">
        <ele>411</ele>
        <time>2020-10-05T10:10:55.000Z</time>
      </trkpt>
      <trkpt lat="44.00047" lon="5.91936">
        <ele>411</ele>
        <time>2020-10-05T10:10:56.000Z</time>
      </trkpt>
      <trkpt lat="44.00047" lon="5.91936">
        <ele>411</ele>
        <time>2020-10-05T10:10:57.000Z</time>
      </trkpt>
      <trkpt lat="44.00047" lon="5.91936">
        <ele>411</ele>
        <time>2020-10-05T10:10:58.000Z</time>
      </trkpt>
      <trkpt lat="44.00047" lon="5.91936">
        <ele>411</ele>
        <time>2020-10-05T10:10:59.000Z</time>
      </trkpt>
      <trkpt lat="44.00047" lon="5.91936">
        <ele>411</ele>
        <time>2020-10-05T10:11:00.000Z</time>
      </trkpt>
      <trkpt lat="44.00047" lon="5.91936">
        <ele>411</ele>
        <time>2020-10-05T10:11:01.000Z</time>
      </trkpt>
      <trkpt lat="44.00047" lon="5.91936">
        <ele>411</ele>
        <time>2020-10-05T10:11:02.000Z</time>
      </trkpt>
      <trkpt lat="44.00047" lon="5.91936">
        <ele>411</ele>
        <time>2020-10-05T10:11:03.000Z</time>
      </trkpt>
      <trkpt lat="44.00047" lon="5.91936">
        <ele>411</ele>
        <time>2020-10-05T10:11:04.000Z</time>
      </trkpt>
      <trkpt lat="44.00047" lon="5.91936">
        <ele>411</ele>
        <time>2020-10-05T10:11:05.000Z</time>
      </trkpt>
      <trkpt lat="44.00047" lon="5.91936">
        <ele>411</ele>
        <time>2020-10-05T10:11:06.000Z</time>
      </trkpt>
      <trkpt lat="44.00047" lon="5.91936">
        <ele>411</ele>
        <time>2020-10-05T10:11:07.000Z</time>
      </trkpt>
      <trkpt lat="44.00047" lon="5.91936">
        <ele>411</ele>
        <time>2020-10-05T10:11:08.000Z</time>
      </trkpt>
      <trkpt lat="44.00047" lon="5.91936">
        <ele>411</ele>
        <time>2020-10-05T10:11:09.000Z</time>
      </trkpt>
      <trkpt lat="44.00047" lon="5.91936">
        <ele>411</ele>
        <time>2020-10-05T10:11:10.000Z</time>
      </trkpt>
      <trkpt lat="44.00047" lon="5.91936">
        <ele>411</ele>
        <time>2020-10-05T10:11:11.000Z</time>
      </trkpt>
      <trkpt lat="44.00047" lon="5.91936">
        <ele>411</ele>
        <time>2020-10-05T10:11:12.000Z</time>
      </trkpt>
      <trkpt lat="44.00047" lon="5.91936">
        <ele>411</ele>
        <time>2020-10-05T10:11:13.000Z</time>
      </trkpt>
      <trkpt lat="44.00047" lon="5.91936">
        <ele>411</ele>
        <time>2020-10-05T10:11:14.000Z</time>
      </trkpt>
      <trkpt lat="44.00047" lon="5.91936">
        <ele>411</ele>
        <time>2020-10-05T10:11:15.000Z</time>
      </trkpt>
      <trkpt lat="44.00047" lon="5.91936">
        <ele>411</ele>
        <time>2020-10-05T10:11:16.000Z</time>
      </trkpt>
      <trkpt lat="44.00047" lon="5.91936">
        <ele>411</ele>
        <time>2020-10-05T10:11:17.000Z</time>
      </trkpt>
      <trkpt lat="44.00047" lon="5.91936">
        <ele>411</ele>
        <time>2020-10-05T10:11:18.000Z</time>
      </trkpt>
      <trkpt lat="44.00047" lon="5.91936">
        <ele>411</ele>
        <time>2020-10-05T10:11:19.000Z</time>
      </trkpt>
      <trkpt lat="44.00047" lon="5.91936">
        <ele>411</ele>
        <time>2020-10-05T10:11:20.000Z</time>
      </trkpt>
      <trkpt lat="44.00047" lon="5.91936">
        <ele>411</ele>
        <time>2020-10-05T10:11:21.000Z</time>
      </trkpt>
      <trkpt lat="44.00047" lon="5.91936">
        <ele>411</ele>
        <time>2020-10-05T10:11:22.000Z</time>
      </trkpt>
      <trkpt lat="44.00047" lon="5.91936">
        <ele>411</ele>
        <time>2020-10-05T10:11:23.000Z</time>
      </trkpt>
      <trkpt lat="44.00047" lon="5.91936">
        <ele>411</ele>
        <time>2020-10-05T10:11:24.000Z</time>
      </trkpt>
      <trkpt lat="44.00047" lon="5.91936">
        <ele>411</ele>
        <time>2020-10-05T10:11:25.000Z</time>
      </trkpt>
      <trkpt lat="44.00047" lon="5.91937">
        <ele>411</ele>
        <time>2020-10-05T10:11:26.000Z</time>
      </trkpt>
      <trkpt lat="44.00048" lon="5.91938">
        <ele>411</ele>
        <time>2020-10-05T10:11:27.000Z</time>
      </trkpt>
      <trkpt lat="44.00049" lon="5.91939">
        <ele>411</ele>
        <time>2020-10-05T10:11:28.000Z</time>
      </trkpt>
      <trkpt lat="44.0005" lon="5.9194">
        <ele>411</ele>
        <time>2020-10-05T10:11:29.000Z</time>
      </trkpt>
      <trkpt lat="44.00051" lon="5.91941">
        <ele>411</ele>
        <time>2020-10-05T10:11:30.000Z</time>
      </trkpt>
      <trkpt lat="44.00052" lon="5.91941">
        <ele>411</ele>
        <time>2020-10-05T10:11:31.000Z</time>
      </trkpt>
      <trkpt lat="44.00053" lon="5.91942">
        <ele>411</ele>
        <time>2020-10-05T10:11:32.000Z</time>
      </trkpt>
      <trkpt lat="44.00054" lon="5.91943">
        <ele>411</ele>
        <time>2020-10-05T10:11:33.000Z</time>
      </trkpt>
      <trkpt lat="44.00055" lon="5.91943">
        <ele>411</ele>
        <time>2020-10-05T10:11:34.000Z</time>
      </trkpt>
      <trkpt lat="44.00056" lon="5.91944">
        <ele>411</ele>
        <time>2020-10-05T10:11:35.000Z</time>
      </trkpt>
      <trkpt lat="44.00057" lon="5.91945">
        <ele>411</ele>
        <time>2020-10-05T10:11:36.000Z</time>
      </trkpt>
      <trkpt lat="44.00058" lon="5.91945">
        <ele>412</ele>
        <time>2020-10-05T10:11:37.000Z</time>
      </trkpt>
      <trkpt lat="44.00059" lon="5.91946">
        <ele>412</ele>
        <time>2020-10-05T10:11:38.000Z</time>
      </trkpt>
      <trkpt lat="44.00061" lon="5.91946">
        <ele>412</ele>
        <time>2020-10-05T10:11:39.000Z</time>
      </trkpt>
      <trkpt lat="44.00062" lon="5.91946">
        <ele>412</ele>
        <time>2020-10-05T10:11:40.000Z</time>
      </trkpt>
      <trkpt lat="44.00063" lon="5.91947">
        <ele>412</ele>
        <time>2020-10-05T10:11:41.000Z</time>
      </trkpt>
      <trkpt lat="44.00064" lon="5.91947">
        <ele>412</ele>
        <time>2020-10-05T10:11:42.000Z</time>
      </trkpt>
      <trkpt lat="44.00065" lon="5.91947">
        <ele>412</ele>
        <time>2020-10-05T10:11:43.000Z</time>
      </trkpt>
      <trkpt lat="44.00066" lon="5.91948">
        <ele>412</ele>
        <time>2020-10-05T10:11:44.000Z</time>
      </trkpt>
      <trkpt lat="44.00066" lon="5.91948">
        <ele>412</ele>
        <time>2020-10-05T10:11:45.000Z</time>
      </trkpt>
      <trkpt lat="44.00067" lon="5.91948">
        <ele>412</ele>
        <time>2020-10-05T10:11:46.000Z</time>
      </trkpt>
      <trkpt lat="44.00068" lon="5.91948">
        <ele>412</ele>
        <time>2020-10-05T10:11:47.000Z</time>
      </trkpt>
      <trkpt lat="44.00068" lon="5.91948">
        <ele>412</ele>
        <time>2020-10-05T10:11:48.000Z</time>
      </trkpt>
      <trkpt lat="44.00069" lon="5.91948">
        <ele>412</ele>
        <time>2020-10-05T10:11:49.000Z</time>
      </trkpt>
      <trkpt lat="44.0007" lon="5.91948">
        <ele>412</ele>
        <time>2020-10-05T10:11:50.000Z</time>
      </trkpt>
      <trkpt lat="44.00071" lon="5.91947">
        <ele>412</ele>
        <time>2020-10-05T10:11:51.000Z</time>
      </trkpt>
      <trkpt lat="44.00073" lon="5.91947">
        <ele>412</ele>
        <time>2020-10-05T10:11:52.000Z</time>
      </trkpt>
      <trkpt lat="44.00074" lon="5.91947">
        <ele>412</ele>
        <time>2020-10-05T10:11:53.000Z</time>
      </trkpt>
      <trkpt lat="44.00075" lon="5.91947">
        <ele>412</ele>
        <time>2020-10-05T10:11:54.000Z</time>
      </trkpt>
      <trkpt lat="44.00076" lon="5.91947">
        <ele>412</ele>
        <time>2020-10-05T10:11:55.000Z</time>
      </trkpt>
      <trkpt lat="44.00077" lon="5.91947">
        <ele>412</ele>
        <time>2020-10-05T10:11:56.000Z</time>
      </trkpt>
      <trkpt lat="44.00079" lon="5.91946">
        <ele>412</ele>
        <time>2020-10-05T10:11:57.000Z</time>
      </trkpt>
      <trkpt lat="44.0008" lon="5.91946">
        <ele>412</ele>
        <time>2020-10-05T10:11:58.000Z</time>
      </trkpt>
      <trkpt lat="44.00081" lon="5.91946">
        <ele>412</ele>
        <time>2020-10-05T10:11:59.000Z</time>
      </trkpt>
      <trkpt lat="44.00082" lon="5.91946">
        <ele>412</ele>
        <time>2020-10-05T10:12:00.000Z</time>
      </trkpt>
      <trkpt lat="44.00083" lon="5.91946">
        <ele>412</ele>
        <time>2020-10-05T10:12:01.000Z</time>
      </trkpt>
      <trkpt lat="44.00084" lon="5.91946">
        <ele>412</ele>
        <time>2020-10-05T10:12:02.000Z</time>
      </trkpt>
      <trkpt lat="44.00085" lon="5.91946">
        <ele>412</ele>
        <time>2020-10-05T10:12:03.000Z</time>
      </trkpt>
      <trkpt lat="44.00086" lon="5.91946">
        <ele>412</ele>
        <time>2020-10-05T10:12:04.000Z</time>
      </trkpt>
      <trkpt lat="44.00087" lon="5.91946">
        <ele>412</ele>
        <time>2020-10-05T10:12:05.000Z</time>
      </trkpt>
      <trkpt lat="44.00089" lon="5.91946">
        <ele>412</ele>
        <time>2020-10-05T10:12:06.000Z</time>
      </trkpt>
      <trkpt lat="44.0009" lon="5.91947">
        <ele>412</ele>
        <time>2020-10-05T10:12:07.000Z</time>
      </trkpt>
      <trkpt lat="44.00091" lon="5.91947">
        <ele>412</ele>
        <time>2020-10-05T10:12:08.000Z</time>
      </trkpt>
      <trkpt lat="44.00092" lon="5.91948">
        <ele>412</ele>
        <time>2020-10-05T10:12:09.000Z</time>
      </trkpt>
      <trkpt lat="44.00093" lon="5.91949">
        <ele>412</ele>
        <time>2020-10-05T10:12:10.000Z</time>
      </trkpt>
      <trkpt lat="44.00094" lon="5.91949">
        <ele>412</ele>
        <time>2020-10-05T10:12:11.000Z</time>
      </trkpt>
      <trkpt lat="44.00095" lon="5.9195">
        <ele>412</ele>
        <time>2020-10-05T10:12:12.000Z</time>
      </trkpt>
      <trkpt lat="44.00096" lon="5.91951">
        <ele>412</ele>
        <time>2020-10-05T10:12:13.000Z</time>
      </trkpt>
      <trkpt lat="44.00097" lon="5.91952">
        <ele>412</ele>
        <time>2020-10-05T10:12:14.000Z</time>
      </trkpt>
      <trkpt lat="44.00098" lon="5.91953">
        <ele>412</ele>
        <time>2020-10-05T10:12:15.000Z</time>
      </trkpt>
      <trkpt lat="44.00099" lon="5.91954">
        <ele>412</ele>
        <time>2020-10-05T10:12:16.000Z</time>
      </trkpt>
      <trkpt lat="44.001" lon="5.91954">
        <ele>412</ele>
        <time>2020-10-05T10:12:17.000Z</time>
      </trkpt>
      <trkpt lat="44.00101" lon="5.91955">
        <ele>412</ele>
        <time>2020-10-05T10:12:18.000Z</time>
      </trkpt>
      <trkpt lat="44.00101" lon="5.91956">
        <ele>412</ele>
        <time>2020-10-05T10:12:19.000Z</time>
      </trkpt>
      <trkpt lat="44.00102" lon="5.91957">
        <ele>412</ele>
        <time>2020-10-05T10:12:20.000Z</time>
      </trkpt>
      <trkpt lat="44.00103" lon="5.91958">
        <ele>411</ele>
        <time>2020-10-05T10:12:21.000Z</time>
      </trkpt>
      <trkpt lat="44.00104" lon="5.91959">
        <ele>411</ele>
        <time>2020-10-05T10:12:22.000Z</time>
      </trkpt>
      <trkpt lat="44.00105" lon="5.9196">
        <ele>411</ele>
        <time>2020-10-05T10:12:23.000Z</time>
      </trkpt>
      <trkpt lat="44.00105" lon="5.91961">
        <ele>411</ele>
        <time>2020-10-05T10:12:24.000Z</time>
      </trkpt>
      <trkpt lat="44.00106" lon="5.91962">
        <ele>411</ele>
        <time>2020-10-05T10:12:25.000Z</time>
      </trkpt>
      <trkpt lat="44.00107" lon="5.91963">
        <ele>411</ele>
        <time>2020-10-05T10:12:26.000Z</time>
      </trkpt>
      <trkpt lat="44.00107" lon="5.91964">
        <ele>411</ele>
        <time>2020-10-05T10:12:27.000Z</time>
      </trkpt>
      <trkpt lat="44.00108" lon="5.91964">
        <ele>410</ele>
        <time>2020-10-05T10:12:28.000Z</time>
      </trkpt>
      <trkpt lat="44.00109" lon="5.91965">
        <ele>410</ele>
        <time>2020-10-05T10:12:29.000Z</time>
      </trkpt>
      <trkpt lat="44.0011" lon="5.91966">
        <ele>410</ele>
        <time>2020-10-05T10:12:30.000Z</time>
      </trkpt>
      <trkpt lat="44.00111" lon="5.91967">
        <ele>410</ele>
        <time>2020-10-05T10:12:31.000Z</time>
      </trkpt>
      <trkpt lat="44.00111" lon="5.91968">
        <ele>410</ele>
        <time>2020-10-05T10:12:32.000Z</time>
      </trkpt>
      <trkpt lat="44.00112" lon="5.91969">
        <ele>410</ele>
        <time>2020-10-05T10:12:33.000Z</time>
      </trkpt>
      <trkpt lat="44.00112" lon="5.9197">
        <ele>410</ele>
        <time>2020-10-05T10:12:34.000Z</time>
      </trkpt>
      <trkpt lat="44.00113" lon="5.91971">
        <ele>410</ele>
        <time>2020-10-05T10:12:35.000Z</time>
      </trkpt>
      <trkpt lat="44.00114" lon="5.91971">
        <ele>410</ele>
        <time>2020-10-05T10:12:36.000Z</time>
      </trkpt>
      <trkpt lat="44.00115" lon="5.91972">
        <ele>410</ele>
        <time>2020-10-05T10:12:37.000Z</time>
      </trkpt>
      <trkpt lat="44.00115" lon="5.91973">
        <ele>410</ele>
        <time>2020-10-05T10:12:38.000Z</time>
      </trkpt>
      <trkpt lat="44.00116" lon="5.91974">
        <ele>410</ele>
        <time>2020-10-05T10:12:39.000Z</time>
      </trkpt>
      <trkpt lat="44.00117" lon="5.91974">
        <ele>410</ele>
        <time>2020-10-05T10:12:40.000Z</time>
      </trkpt>
      <trkpt lat="44.00118" lon="5.91975">
        <ele>410</ele>
        <time>2020-10-05T10:12:41.000Z</time>
      </trkpt>
      <trkpt lat="44.00118" lon="5.91975">
        <ele>410</ele>
        <time>2020-10-05T10:12:42.000Z</time>
      </trkpt>
      <trkpt lat="44.00118" lon="5.91975">
        <ele>410</ele>
        <time>2020-10-05T10:12:43.000Z</time>
      </trkpt>
      <trkpt lat="44.00118" lon="5.91976">
        <ele>410</ele>
        <time>2020-10-05T10:12:44.000Z</time>
      </trkpt>
      <trkpt lat="44.00118" lon="5.91976">
        <ele>410</ele>
        <time>2020-10-05T10:12:45.000Z</time>
      </trkpt>
      <trkpt lat="44.00119" lon="5.91976">
        <ele>410</ele>
        <time>2020-10-05T10:12:46.000Z</time>
      </trkpt>
      <trkpt lat="44.00119" lon="5.91977">
        <ele>410</ele>
        <time>2020-10-05T10:12:47.000Z</time>
      </trkpt>
      <trkpt lat="44.0012" lon="5.91977">
        <ele>410</ele>
        <time>2020-10-05T10:12:48.000Z</time>
      </trkpt>
      <trkpt lat="44.00121" lon="5.91978">
        <ele>410</ele>
        <time>2020-10-05T10:12:49.000Z</time>
      </trkpt>
      <trkpt lat="44.00121" lon="5.91979">
        <ele>410</ele>
        <time>2020-10-05T10:12:50.000Z</time>
      </trkpt>
      <trkpt lat="44.00121" lon="5.91979">
        <ele>410</ele>
        <time>2020-10-05T10:12:51.000Z</time>
      </trkpt>
      <trkpt lat="44.00122" lon="5.91979">
        <ele>410</ele>
        <time>2020-10-05T10:12:52.000Z</time>
      </trkpt>
      <trkpt lat="44.00122" lon="5.91979">
        <ele>410</ele>
        <time>2020-10-05T10:12:53.000Z</time>
      </trkpt>
      <trkpt lat="44.00122" lon="5.91979">
        <ele>410</ele>
        <time>2020-10-05T10:12:54.000Z</time>
      </trkpt>
      <trkpt lat="44.00122" lon="5.91979">
        <ele>410</ele>
        <time>2020-10-05T10:12:55.000Z</time>
      </trkpt>
      <trkpt lat="44.00122" lon="5.91979">
        <ele>410</ele>
        <time>2020-10-05T10:12:56.000Z</time>
      </trkpt>
      <trkpt lat="44.00122" lon="5.91979">
        <ele>410</ele>
        <time>2020-10-05T10:12:57.000Z</time>
      </trkpt>
      <trkpt lat="44.00122" lon="5.91978">
        <ele>410</ele>
        <time>2020-10-05T10:12:58.000Z</time>
      </trkpt>
      <trkpt lat="44.00123" lon="5.91979">
        <ele>410</ele>
        <time>2020-10-05T10:12:59.000Z</time>
      </trkpt>
      <trkpt lat="44.00124" lon="5.91979">
        <ele>410</ele>
        <time>2020-10-05T10:13:00.000Z</time>
      </trkpt>
      <trkpt lat="44.00124" lon="5.91979">
        <ele>410</ele>
        <time>2020-10-05T10:13:01.000Z</time>
      </trkpt>
      <trkpt lat="44.00125" lon="5.9198">
        <ele>410</ele>
        <time>2020-10-05T10:13:02.000Z</time>
      </trkpt>
      <trkpt lat="44.00126" lon="5.9198">
        <ele>410</ele>
        <time>2020-10-05T10:13:03.000Z</time>
      </trkpt>
      <trkpt lat="44.00127" lon="5.91981">
        <ele>410</ele>
        <time>2020-10-05T10:13:04.000Z</time>
      </trkpt>
      <trkpt lat="44.00128" lon="5.91981">
        <ele>410</ele>
        <time>2020-10-05T10:13:05.000Z</time>
      </trkpt>
      <trkpt lat="44.00129" lon="5.91982">
        <ele>410</ele>
        <time>2020-10-05T10:13:06.000Z</time>
      </trkpt>
      <trkpt lat="44.0013" lon="5.91982">
        <ele>410</ele>
        <time>2020-10-05T10:13:07.000Z</time>
      </trkpt>
      <trkpt lat="44.00131" lon="5.91983">
        <ele>410</ele>
        <time>2020-10-05T10:13:08.000Z</time>
      </trkpt>
      <trkpt lat="44.00133" lon="5.91984">
        <ele>410</ele>
        <time>2020-10-05T10:13:09.000Z</time>
      </trkpt>
      <trkpt lat="44.00134" lon="5.91984">
        <ele>410</ele>
        <time>2020-10-05T10:13:10.000Z</time>
      </trkpt>
      <trkpt lat="44.00135" lon="5.91985">
        <ele>410</ele>
        <time>2020-10-05T10:13:11.000Z</time>
      </trkpt>
      <trkpt lat="44.00136" lon="5.91986">
        <ele>410</ele>
        <time>2020-10-05T10:13:12.000Z</time>
      </trkpt>
      <trkpt lat="44.00137" lon="5.91986">
        <ele>410</ele>
        <time>2020-10-05T10:13:13.000Z</time>
      </trkpt>
      <trkpt lat="44.00138" lon="5.91987">
        <ele>410</ele>
        <time>2020-10-05T10:13:14.000Z</time>
      </trkpt>
      <trkpt lat="44.00139" lon="5.91987">
        <ele>410</ele>
        <time>2020-10-05T10:13:15.000Z</time>
      </trkpt>
      <trkpt lat="44.00141" lon="5.91988">
        <ele>410</ele>
        <time>2020-10-05T10:13:16.000Z</time>
      </trkpt>
      <trkpt lat="44.00142" lon="5.91988">
        <ele>410</ele>
        <time>2020-10-05T10:13:17.000Z</time>
      </trkpt>
      <trkpt lat="44.00143" lon="5.91989">
        <ele>410</ele>
        <time>2020-10-05T10:13:18.000Z</time>
      </trkpt>
      <trkpt lat="44.00144" lon="5.9199">
        <ele>410</ele>
        <time>2020-10-05T10:13:19.000Z</time>
      </trkpt>
      <trkpt lat="44.00145" lon="5.9199">
        <ele>410</ele>
        <time>2020-10-05T10:13:20.000Z</time>
      </trkpt>
      <trkpt lat="44.00146" lon="5.91991">
        <ele>410</ele>
        <time>2020-10-05T10:13:21.000Z</time>
      </trkpt>
      <trkpt lat="44.00147" lon="5.91991">
        <ele>410</ele>
        <time>2020-10-05T10:13:22.000Z</time>
      </trkpt>
      <trkpt lat="44.00148" lon="5.91992">
        <ele>410</ele>
        <time>2020-10-05T10:13:23.000Z</time>
      </trkpt>
      <trkpt lat="44.00149" lon="5.91993">
        <ele>410</ele>
        <time>2020-10-05T10:13:24.000Z</time>
      </trkpt>
      <trkpt lat="44.0015" lon="5.91994">
        <ele>410</ele>
        <time>2020-10-05T10:13:25.000Z</time>
      </trkpt>
      <trkpt lat="44.00151" lon="5.91994">
        <ele>410</ele>
        <time>2020-10-05T10:13:26.000Z</time>
      </trkpt>
      <trkpt lat="44.00151" lon="5.91994">
        <ele>410</ele>
        <time>2020-10-05T10:13:27.000Z</time>
      </trkpt>
      <trkpt lat="44.00151" lon="5.91994">
        <ele>410</ele>
        <time>2020-10-05T10:13:28.000Z</time>
      </trkpt>
      <trkpt lat="44.00152" lon="5.91995">
        <ele>410</ele>
        <time>2020-10-05T10:13:29.000Z</time>
      </trkpt>
      <trkpt lat="44.00152" lon="5.91995">
        <ele>410</ele>
        <time>2020-10-05T10:13:30.000Z</time>
      </trkpt>
      <trkpt lat="44.00153" lon="5.91995">
        <ele>410</ele>
        <time>2020-10-05T10:13:31.000Z</time>
      </trkpt>
      <trkpt lat="44.00153" lon="5.91995">
        <ele>410</ele>
        <time>2020-10-05T10:13:32.000Z</time>
      </trkpt>
      <trkpt lat="44.00154" lon="5.91996">
        <ele>410</ele>
        <time>2020-10-05T10:13:33.000Z</time>
      </trkpt>
      <trkpt lat="44.00155" lon="5.91996">
        <ele>410</ele>
        <time>2020-10-05T10:13:34.000Z</time>
      </trkpt>
      <trkpt lat="44.00156" lon="5.91997">
        <ele>410</ele>
        <time>2020-10-05T10:13:35.000Z</time>
      </trkpt>
      <trkpt lat="44.00157" lon="5.91997">
        <ele>411</ele>
        <time>2020-10-05T10:13:36.000Z</time>
      </trkpt>
      <trkpt lat="44.00158" lon="5.91998">
        <ele>411</ele>
        <time>2020-10-05T10:13:37.000Z</time>
      </trkpt>
      <trkpt lat="44.00159" lon="5.91998">
        <ele>411</ele>
        <time>2020-10-05T10:13:38.000Z</time>
      </trkpt>
      <trkpt lat="44.0016" lon="5.91999">
        <ele>411</ele>
        <time>2020-10-05T10:13:39.000Z</time>
      </trkpt>
      <trkpt lat="44.00161" lon="5.91999">
        <ele>411</ele>
        <time>2020-10-05T10:13:40.000Z</time>
      </trkpt>
      <trkpt lat="44.00162" lon="5.91999">
        <ele>411</ele>
        <time>2020-10-05T10:13:41.000Z</time>
      </trkpt>
      <trkpt lat="44.00163" lon="5.91999">
        <ele>411</ele>
        <time>2020-10-05T10:13:42.000Z</time>
      </trkpt>
      <trkpt lat="44.00164" lon="5.91999">
        <ele>411</ele>
        <time>2020-10-05T10:13:43.000Z</time>
      </trkpt>
      <trkpt lat="44.00165" lon="5.91999">
        <ele>411</ele>
        <time>2020-10-05T10:13:44.000Z</time>
      </trkpt>
      <trkpt lat="44.00166" lon="5.92">
        <ele>411</ele>
        <time>2020-10-05T10:13:45.000Z</time>
      </trkpt>
      <trkpt lat="44.00167" lon="5.92001">
        <ele>411</ele>
        <time>2020-10-05T10:13:46.000Z</time>
      </trkpt>
      <trkpt lat="44.00168" lon="5.92001">
        <ele>411</ele>
        <time>2020-10-05T10:13:47.000Z</time>
      </trkpt>
      <trkpt lat="44.00169" lon="5.92002">
        <ele>411</ele>
        <time>2020-10-05T10:13:48.000Z</time>
      </trkpt>
      <trkpt lat="44.0017" lon="5.92003">
        <ele>411</ele>
        <time>2020-10-05T10:13:49.000Z</time>
      </trkpt>
      <trkpt lat="44.00171" lon="5.92004">
        <ele>411</ele>
        <time>2020-10-05T10:13:50.000Z</time>
      </trkpt>
      <trkpt lat="44.00172" lon="5.92006">
        <ele>411</ele>
        <time>2020-10-05T10:13:51.000Z</time>
      </trkpt>
      <trkpt lat="44.00173" lon="5.92007">
        <ele>411</ele>
        <time>2020-10-05T10:13:52.000Z</time>
      </trkpt>
      <trkpt lat="44.00173" lon="5.92007">
        <ele>411</ele>
        <time>2020-10-05T10:13:53.000Z</time>
      </trkpt>
      <trkpt lat="44.00174" lon="5.92008">
        <ele>411</ele>
        <time>2020-10-05T10:13:54.000Z</time>
      </trkpt>
      <trkpt lat="44.00175" lon="5.92009">
        <ele>411</ele>
        <time>2020-10-05T10:13:55.000Z</time>
      </trkpt>
      <trkpt lat="44.00176" lon="5.9201">
        <ele>411</ele>
        <time>2020-10-05T10:13:56.000Z</time>
      </trkpt>
      <trkpt lat="44.00176" lon="5.9201">
        <ele>412</ele>
        <time>2020-10-05T10:13:57.000Z</time>
      </trkpt>
      <trkpt lat="44.00177" lon="5.9201">
        <ele>412</ele>
        <time>2020-10-05T10:13:58.000Z</time>
      </trkpt>
      <trkpt lat="44.00177" lon="5.9201">
        <ele>412</ele>
        <time>2020-10-05T10:13:59.000Z</time>
      </trkpt>
      <trkpt lat="44.00178" lon="5.92011">
        <ele>412</ele>
        <time>2020-10-05T10:14:00.000Z</time>
      </trkpt>
      <trkpt lat="44.00179" lon="5.92011">
        <ele>412</ele>
        <time>2020-10-05T10:14:01.000Z</time>
      </trkpt>
      <trkpt lat="44.0018" lon="5.92012">
        <ele>412</ele>
        <time>2020-10-05T10:14:02.000Z</time>
      </trkpt>
      <trkpt lat="44.00182" lon="5.92013">
        <ele>412</ele>
        <time>2020-10-05T10:14:03.000Z</time>
      </trkpt>
      <trkpt lat="44.00183" lon="5.92014">
        <ele>412</ele>
        <time>2020-10-05T10:14:04.000Z</time>
      </trkpt>
      <trkpt lat="44.00184" lon="5.92015">
        <ele>412</ele>
        <time>2020-10-05T10:14:05.000Z</time>
      </trkpt>
      <trkpt lat="44.00185" lon="5.92016">
        <ele>412</ele>
        <time>2020-10-05T10:14:06.000Z</time>
      </trkpt>
      <trkpt lat="44.00186" lon="5.92017">
        <ele>412</ele>
        <time>2020-10-05T10:14:07.000Z</time>
      </trkpt>
      <trkpt lat="44.00187" lon="5.92017">
        <ele>412</ele>
        <time>2020-10-05T10:14:08.000Z</time>
      </trkpt>
      <trkpt lat="44.00188" lon="5.92018">
        <ele>412</ele>
        <time>2020-10-05T10:14:09.000Z</time>
      </trkpt>
      <trkpt lat="44.00189" lon="5.92019">
        <ele>412</ele>
        <time>2020-10-05T10:14:10.000Z</time>
      </trkpt>
      <trkpt lat="44.0019" lon="5.92019">
        <ele>412</ele>
        <time>2020-10-05T10:14:11.000Z</time>
      </trkpt>
      <trkpt lat="44.00191" lon="5.9202">
        <ele>412</ele>
        <time>2020-10-05T10:14:12.000Z</time>
      </trkpt>
      <trkpt lat="44.00191" lon="5.92021">
        <ele>412</ele>
        <time>2020-10-05T10:14:13.000Z</time>
      </trkpt>
      <trkpt lat="44.00192" lon="5.92021">
        <ele>412</ele>
        <time>2020-10-05T10:14:14.000Z</time>
      </trkpt>
      <trkpt lat="44.00193" lon="5.92022">
        <ele>412</ele>
        <time>2020-10-05T10:14:15.000Z</time>
      </trkpt>
      <trkpt lat="44.00194" lon="5.92023">
        <ele>412</ele>
        <time>2020-10-05T10:14:16.000Z</time>
      </trkpt>
      <trkpt lat="44.00195" lon="5.92024">
        <ele>412</ele>
        <time>2020-10-05T10:14:17.000Z</time>
      </trkpt>
      <trkpt lat="44.00196" lon="5.92024">
        <ele>412</ele>
        <time>2020-10-05T10:14:18.000Z</time>
      </trkpt>
      <trkpt lat="44.00197" lon="5.92024">
        <ele>412</ele>
        <time>2020-10-05T10:14:19.000Z</time>
      </trkpt>
      <trkpt lat="44.00198" lon="5.92024">
        <ele>411</ele>
        <time>2020-10-05T10:14:20.000Z</time>
      </trkpt>
      <trkpt lat="44.00199" lon="5.92024">
        <ele>411</ele>
        <time>2020-10-05T10:14:21.000Z</time>
      </trkpt>
      <trkpt lat="44.002" lon="5.92024">
        <ele>411</ele>
        <time>2020-10-05T10:14:22.000Z</time>
      </trkpt>
      <trkpt lat="44.00202" lon="5.92025">
        <ele>411</ele>
        <time>2020-10-05T10:14:23.000Z</time>
      </trkpt>
      <trkpt lat="44.00203" lon="5.92025">
        <ele>411</ele>
        <time>2020-10-05T10:14:24.000Z</time>
      </trkpt>
      <trkpt lat="44.00203" lon="5.92026">
        <ele>411</ele>
        <time>2020-10-05T10:14:25.000Z</time>
      </trkpt>
      <trkpt lat="44.00204" lon="5.92027">
        <ele>411</ele>
        <time>2020-10-05T10:14:26.000Z</time>
      </trkpt>
      <trkpt lat="44.00206" lon="5.92028">
        <ele>411</ele>
        <time>2020-10-05T10:14:27.000Z</time>
      </trkpt>
      <trkpt lat="44.00207" lon="5.92028">
        <ele>411</ele>
        <time>2020-10-05T10:14:28.000Z</time>
      </trkpt>
      <trkpt lat="44.00208" lon="5.92029">
        <ele>411</ele>
        <time>2020-10-05T10:14:29.000Z</time>
      </trkpt>
      <trkpt lat="44.00209" lon="5.9203">
        <ele>412</ele>
        <time>2020-10-05T10:14:30.000Z</time>
      </trkpt>
      <trkpt lat="44.0021" lon="5.92031">
        <ele>412</ele>
        <time>2020-10-05T10:14:31.000Z</time>
      </trkpt>
      <trkpt lat="44.00211" lon="5.92031">
        <ele>412</ele>
        <time>2020-10-05T10:14:32.000Z</time>
      </trkpt>
      <trkpt lat="44.00211" lon="5.92032">
        <ele>412</ele>
        <time>2020-10-05T10:14:33.000Z</time>
      </trkpt>
      <trkpt lat="44.00212" lon="5.92033">
        <ele>411</ele>
        <time>2020-10-05T10:14:34.000Z</time>
      </trkpt>
      <trkpt lat="44.00213" lon="5.92033">
        <ele>411</ele>
        <time>2020-10-05T10:14:35.000Z</time>
      </trkpt>
      <trkpt lat="44.00215" lon="5.92034">
        <ele>411</ele>
        <time>2020-10-05T10:14:36.000Z</time>
      </trkpt>
      <trkpt lat="44.00216" lon="5.92035">
        <ele>411</ele>
        <time>2020-10-05T10:14:37.000Z</time>
      </trkpt>
      <trkpt lat="44.00217" lon="5.92036">
        <ele>411</ele>
        <time>2020-10-05T10:14:38.000Z</time>
      </trkpt>
      <trkpt lat="44.00218" lon="5.92037">
        <ele>411</ele>
        <time>2020-10-05T10:14:39.000Z</time>
      </trkpt>
      <trkpt lat="44.00219" lon="5.92038">
        <ele>411</ele>
        <time>2020-10-05T10:14:40.000Z</time>
      </trkpt>
      <trkpt lat="44.0022" lon="5.92039">
        <ele>411</ele>
        <time>2020-10-05T10:14:41.000Z</time>
      </trkpt>
      <trkpt lat="44.00221" lon="5.92039">
        <ele>411</ele>
        <time>2020-10-05T10:14:42.000Z</time>
      </trkpt>
      <trkpt lat="44.00222" lon="5.9204">
        <ele>411</ele>
        <time>2020-10-05T10:14:43.000Z</time>
      </trkpt>
      <trkpt lat="44.00223" lon="5.92041">
        <ele>411</ele>
        <time>2020-10-05T10:14:44.000Z</time>
      </trkpt>
      <trkpt lat="44.00224" lon="5.92042">
        <ele>411</ele>
        <time>2020-10-05T10:14:45.000Z</time>
      </trkpt>
      <trkpt lat="44.00225" lon="5.92043">
        <ele>411</ele>
        <time>2020-10-05T10:14:46.000Z</time>
      </trkpt>
      <trkpt lat="44.00226" lon="5.92044">
        <ele>411</ele>
        <time>2020-10-05T10:14:47.000Z</time>
      </trkpt>
      <trkpt lat="44.00226" lon="5.92045">
        <ele>411</ele>
        <time>2020-10-05T10:14:48.000Z</time>
      </trkpt>
      <trkpt lat="44.00227" lon="5.92046">
        <ele>410</ele>
        <time>2020-10-05T10:14:49.000Z</time>
      </trkpt>
      <trkpt lat="44.00227" lon="5.92047">
        <ele>410</ele>
        <time>2020-10-05T10:14:50.000Z</time>
      </trkpt>
      <trkpt lat="44.00228" lon="5.92047">
        <ele>410</ele>
        <time>2020-10-05T10:14:51.000Z</time>
      </trkpt>
      <trkpt lat="44.00228" lon="5.92048">
        <ele>410</ele>
        <time>2020-10-05T10:14:52.000Z</time>
      </trkpt>
      <trkpt lat="44.00228" lon="5.92049">
        <ele>410</ele>
        <time>2020-10-05T10:14:53.000Z</time>
      </trkpt>
      <trkpt lat="44.00228" lon="5.9205">
        <ele>410</ele>
        <time>2020-10-05T10:14:54.000Z</time>
      </trkpt>
      <trkpt lat="44.00228" lon="5.92051">
        <ele>410</ele>
        <time>2020-10-05T10:14:55.000Z</time>
      </trkpt>
      <trkpt lat="44.00229" lon="5.92052">
        <ele>410</ele>
        <time>2020-10-05T10:14:56.000Z</time>
      </trkpt>
      <trkpt lat="44.0023" lon="5.92052">
        <ele>410</ele>
        <time>2020-10-05T10:14:57.000Z</time>
      </trkpt>
      <trkpt lat="44.0023" lon="5.92052">
        <ele>410</ele>
        <time>2020-10-05T10:14:58.000Z</time>
      </trkpt>
      <trkpt lat="44.00231" lon="5.92053">
        <ele>410</ele>
        <time>2020-10-05T10:14:59.000Z</time>
      </trkpt>
      <trkpt lat="44.00232" lon="5.92053">
        <ele>410</ele>
        <time>2020-10-05T10:15:00.000Z</time>
      </trkpt>
      <trkpt lat="44.00232" lon="5.92054">
        <ele>410</ele>
        <time>2020-10-05T10:15:01.000Z</time>
      </trkpt>
      <trkpt lat="44.00233" lon="5.92055">
        <ele>410</ele>
        <time>2020-10-05T10:15:02.000Z</time>
      </trkpt>
      <trkpt lat="44.00234" lon="5.92055">
        <ele>410</ele>
        <time>2020-10-05T10:15:03.000Z</time>
      </trkpt>
      <trkpt lat="44.00235" lon="5.92056">
        <ele>410</ele>
        <time>2020-10-05T10:15:04.000Z</time>
      </trkpt>
      <trkpt lat="44.00236" lon="5.92057">
        <ele>410</ele>
        <time>2020-10-05T10:15:05.000Z</time>
      </trkpt>
      <trkpt lat="44.00236" lon="5.92058">
        <ele>410</ele>
        <time>2020-10-05T10:15:06.000Z</time>
      </trkpt>
      <trkpt lat="44.00237" lon="5.92059">
        <ele>410</ele>
        <time>2020-10-05T10:15:07.000Z</time>
      </trkpt>
      <trkpt lat="44.00238" lon="5.9206">
        <ele>410</ele>
        <time>2020-10-05T10:15:08.000Z</time>
      </trkpt>
      <trkpt lat="44.00238" lon="5.9206">
        <ele>410</ele>
        <time>2020-10-05T10:15:09.000Z</time>
      </trkpt>
      <trkpt lat="44.00238" lon="5.9206">
        <ele>410</ele>
        <time>2020-10-05T10:15:10.000Z</time>
      </trkpt>
      <trkpt lat="44.00238" lon="5.9206">
        <ele>410</ele>
        <time>2020-10-05T10:15:11.000Z</time>
      </trkpt>
      <trkpt lat="44.00238" lon="5.92061">
        <ele>410</ele>
        <time>2020-10-05T10:15:12.000Z</time>
      </trkpt>
      <trkpt lat="44.00239" lon="5.92061">
        <ele>410</ele>
        <time>2020-10-05T10:15:13.000Z</time>
      </trkpt>
      <trkpt lat="44.00239" lon="5.92061">
        <ele>410</ele>
        <time>2020-10-05T10:15:14.000Z</time>
      </trkpt>
      <trkpt lat="44.00239" lon="5.92061">
        <ele>410</ele>
        <time>2020-10-05T10:15:15.000Z</time>
      </trkpt>
      <trkpt lat="44.00239" lon="5.92061">
        <ele>410</ele>
        <time>2020-10-05T10:15:16.000Z</time>
      </trkpt>
      <trkpt lat="44.00239" lon="5.92061">
        <ele>410</ele>
        <time>2020-10-05T10:15:17.000Z</time>
      </trkpt>
      <trkpt lat="44.00239" lon="5.92061">
        <ele>410</ele>
        <time>2020-10-05T10:15:18.000Z</time>
      </trkpt>
      <trkpt lat="44.00239" lon="5.92061">
        <ele>410</ele>
        <time>2020-10-05T10:15:19.000Z</time>
      </trkpt>
      <trkpt lat="44.00239" lon="5.92061">
        <ele>409</ele>
        <time>2020-10-05T10:15:20.000Z</time>
      </trkpt>
      <trkpt lat="44.00239" lon="5.92061">
        <ele>410</ele>
        <time>2020-10-05T10:15:21.000Z</time>
      </trkpt>
      <trkpt lat="44.00239" lon="5.92062">
        <ele>410</ele>
        <time>2020-10-05T10:15:22.000Z</time>
      </trkpt>
      <trkpt lat="44.00239" lon="5.92062">
        <ele>410</ele>
        <time>2020-10-05T10:15:23.000Z</time>
      </trkpt>
      <trkpt lat="44.00239" lon="5.92062">
        <ele>410</ele>
        <time>2020-10-05T10:15:24.000Z</time>
      </trkpt>
      <trkpt lat="44.00239" lon="5.92062">
        <ele>410</ele>
        <time>2020-10-05T10:15:25.000Z</time>
      </trkpt>
      <trkpt lat="44.00239" lon="5.92063">
        <ele>410</ele>
        <time>2020-10-05T10:15:26.000Z</time>
      </trkpt>
      <trkpt lat="44.00239" lon="5.92063">
        <ele>410</ele>
        <time>2020-10-05T10:15:27.000Z</time>
      </trkpt>
      <trkpt lat="44.00239" lon="5.92063">
        <ele>410</ele>
        <time>2020-10-05T10:15:28.000Z</time>
      </trkpt>
      <trkpt lat="44.00239" lon="5.92064">
        <ele>410</ele>
        <time>2020-10-05T10:15:29.000Z</time>
      </trkpt>
      <trkpt lat="44.00239" lon="5.92064">
        <ele>410</ele>
        <time>2020-10-05T10:15:30.000Z</time>
      </trkpt>
      <trkpt lat="44.00239" lon="5.92064">
        <ele>410</ele>
        <time>2020-10-05T10:15:31.000Z</time>
      </trkpt>
      <trkpt lat="44.00239" lon="5.92064">
        <ele>410</ele>
        <time>2020-10-05T10:15:32.000Z</time>
      </trkpt>
      <trkpt lat="44.0024" lon="5.92064">
        <ele>410</ele>
        <time>2020-10-05T10:15:33.000Z</time>
      </trkpt>
      <trkpt lat="44.0024" lon="5.92064">
        <ele>410</ele>
        <time>2020-10-05T10:15:34.000Z</time>
      </trkpt>
      <trkpt lat="44.00241" lon="5.92065">
        <ele>410</ele>
        <time>2020-10-05T10:15:35.000Z</time>
      </trkpt>
      <trkpt lat="44.00242" lon="5.92065">
        <ele>410</ele>
        <time>2020-10-05T10:15:36.000Z</time>
      </trkpt>
      <trkpt lat="44.00243" lon="5.92067">
        <ele>410</ele>
        <time>2020-10-05T10:15:37.000Z</time>
      </trkpt>
      <trkpt lat="44.00243" lon="5.92068">
        <ele>410</ele>
        <time>2020-10-05T10:15:38.000Z</time>
      </trkpt>
      <trkpt lat="44.00244" lon="5.92068">
        <ele>410</ele>
        <time>2020-10-05T10:15:39.000Z</time>
      </trkpt>
      <trkpt lat="44.00244" lon="5.92068">
        <ele>410</ele>
        <time>2020-10-05T10:15:40.000Z</time>
      </trkpt>
      <trkpt lat="44.00244" lon="5.92068">
        <ele>410</ele>
        <time>2020-10-05T10:15:41.000Z</time>
      </trkpt>
      <trkpt lat="44.00244" lon="5.92069">
        <ele>410</ele>
        <time>2020-10-05T10:15:42.000Z</time>
      </trkpt>
      <trkpt lat="44.00244" lon="5.92069">
        <ele>410</ele>
        <time>2020-10-05T10:15:43.000Z</time>
      </trkpt>
      <trkpt lat="44.00244" lon="5.92069">
        <ele>410</ele>
        <time>2020-10-05T10:15:44.000Z</time>
      </trkpt>
      <trkpt lat="44.00244" lon="5.92068">
        <ele>410</ele>
        <time>2020-10-05T10:15:45.000Z</time>
      </trkpt>
      <trkpt lat="44.00244" lon="5.92069">
        <ele>410</ele>
        <time>2020-10-05T10:15:46.000Z</time>
      </trkpt>
      <trkpt lat="44.00244" lon="5.92069">
        <ele>410</ele>
        <time>2020-10-05T10:15:47.000Z</time>
      </trkpt>
      <trkpt lat="44.00244" lon="5.92068">
        <ele>410</ele>
        <time>2020-10-05T10:15:48.000Z</time>
      </trkpt>
      <trkpt lat="44.00243" lon="5.92068">
        <ele>410</ele>
        <time>2020-10-05T10:15:49.000Z</time>
      </trkpt>
      <trkpt lat="44.00243" lon="5.92068">
        <ele>410</ele>
        <time>2020-10-05T10:15:50.000Z</time>
      </trkpt>
      <trkpt lat="44.00242" lon="5.92068">
        <ele>410</ele>
        <time>2020-10-05T10:15:51.000Z</time>
      </trkpt>
      <trkpt lat="44.00242" lon="5.92068">
        <ele>410</ele>
        <time>2020-10-05T10:15:52.000Z</time>
      </trkpt>
      <trkpt lat="44.00242" lon="5.92068">
        <ele>410</ele>
        <time>2020-10-05T10:15:53.000Z</time>
      </trkpt>
      <trkpt lat="44.00242" lon="5.92068">
        <ele>410</ele>
        <time>2020-10-05T10:15:54.000Z</time>
      </trkpt>
      <trkpt lat="44.00242" lon="5.92068">
        <ele>410</ele>
        <time>2020-10-05T10:15:55.000Z</time>
      </trkpt>
      <trkpt lat="44.00242" lon="5.92068">
        <ele>411</ele>
        <time>2020-10-05T10:15:56.000Z</time>
      </trkpt>
      <trkpt lat="44.00241" lon="5.92068">
        <ele>411</ele>
        <time>2020-10-05T10:15:57.000Z</time>
      </trkpt>
      <trkpt lat="44.00241" lon="5.92068">
        <ele>411</ele>
        <time>2020-10-05T10:15:58.000Z</time>
      </trkpt>
      <trkpt lat="44.00241" lon="5.92068">
        <ele>411</ele>
        <time>2020-10-05T10:15:59.000Z</time>
      </trkpt>
      <trkpt lat="44.00241" lon="5.92068">
        <ele>411</ele>
        <time>2020-10-05T10:16:00.000Z</time>
      </trkpt>
      <trkpt lat="44.00241" lon="5.92068">
        <ele>411</ele>
        <time>2020-10-05T10:16:01.000Z</time>
      </trkpt>
      <trkpt lat="44.00241" lon="5.92068">
        <ele>411</ele>
        <time>2020-10-05T10:16:02.000Z</time>
      </trkpt>
      <trkpt lat="44.00241" lon="5.92068">
        <ele>411</ele>
        <time>2020-10-05T10:16:03.000Z</time>
      </trkpt>
      <trkpt lat="44.00242" lon="5.92068">
        <ele>411</ele>
        <time>2020-10-05T10:16:04.000Z</time>
      </trkpt>
      <trkpt lat="44.00242" lon="5.92068">
        <ele>411</ele>
        <time>2020-10-05T10:16:05.000Z</time>
      </trkpt>
      <trkpt lat="44.00242" lon="5.92068">
        <ele>411</ele>
        <time>2020-10-05T10:16:06.000Z</time>
      </trkpt>
      <trkpt lat="44.00242" lon="5.92068">
        <ele>411</ele>
        <time>2020-10-05T10:16:07.000Z</time>
      </trkpt>
      <trkpt lat="44.00242" lon="5.92068">
        <ele>411</ele>
        <time>2020-10-05T10:16:08.000Z</time>
      </trkpt>
      <trkpt lat="44.00242" lon="5.92067">
        <ele>411</ele>
        <time>2020-10-05T10:16:09.000Z</time>
      </trkpt>
      <trkpt lat="44.00241" lon="5.92067">
        <ele>411</ele>
        <time>2020-10-05T10:16:10.000Z</time>
      </trkpt>
      <trkpt lat="44.0024" lon="5.92067">
        <ele>411</ele>
        <time>2020-10-05T10:16:11.000Z</time>
      </trkpt>
      <trkpt lat="44.0024" lon="5.92066">
        <ele>411</ele>
        <time>2020-10-05T10:16:12.000Z</time>
      </trkpt>
      <trkpt lat="44.00239" lon="5.92065">
        <ele>411</ele>
        <time>2020-10-05T10:16:13.000Z</time>
      </trkpt>
      <trkpt lat="44.00238" lon="5.92065">
        <ele>411</ele>
        <time>2020-10-05T10:16:14.000Z</time>
      </trkpt>
      <trkpt lat="44.00237" lon="5.92063">
        <ele>411</ele>
        <time>2020-10-05T10:16:15.000Z</time>
      </trkpt>
      <trkpt lat="44.00237" lon="5.92063">
        <ele>411</ele>
        <time>2020-10-05T10:16:16.000Z</time>
      </trkpt>
      <trkpt lat="44.00237" lon="5.92063">
        <ele>411</ele>
        <time>2020-10-05T10:16:17.000Z</time>
      </trkpt>
      <trkpt lat="44.00236" lon="5.92063">
        <ele>411</ele>
        <time>2020-10-05T10:16:18.000Z</time>
      </trkpt>
      <trkpt lat="44.00236" lon="5.92062">
        <ele>411</ele>
        <time>2020-10-05T10:16:19.000Z</time>
      </trkpt>
      <trkpt lat="44.00235" lon="5.92062">
        <ele>411</ele>
        <time>2020-10-05T10:16:20.000Z</time>
      </trkpt>
      <trkpt lat="44.00235" lon="5.92061">
        <ele>411</ele>
        <time>2020-10-05T10:16:21.000Z</time>
      </trkpt>
      <trkpt lat="44.00234" lon="5.92061">
        <ele>412</ele>
        <time>2020-10-05T10:16:22.000Z</time>
      </trkpt>
      <trkpt lat="44.00233" lon="5.9206">
        <ele>412</ele>
        <time>2020-10-05T10:16:23.000Z</time>
      </trkpt>
      <trkpt lat="44.00232" lon="5.92059">
        <ele>412</ele>
        <time>2020-10-05T10:16:24.000Z</time>
      </trkpt>
      <trkpt lat="44.0023" lon="5.92058">
        <ele>412</ele>
        <time>2020-10-05T10:16:25.000Z</time>
      </trkpt>
      <trkpt lat="44.00229" lon="5.92058">
        <ele>411</ele>
        <time>2020-10-05T10:16:26.000Z</time>
      </trkpt>
      <trkpt lat="44.00229" lon="5.92057">
        <ele>411</ele>
        <time>2020-10-05T10:16:27.000Z</time>
      </trkpt>
      <trkpt lat="44.00228" lon="5.92056">
        <ele>411</ele>
        <time>2020-10-05T10:16:28.000Z</time>
      </trkpt>
      <trkpt lat="44.00227" lon="5.92055">
        <ele>411</ele>
        <time>2020-10-05T10:16:29.000Z</time>
      </trkpt>
      <trkpt lat="44.00227" lon="5.92054">
        <ele>412</ele>
        <time>2020-10-05T10:16:30.000Z</time>
      </trkpt>
      <trkpt lat="44.00226" lon="5.92052">
        <ele>412</ele>
        <time>2020-10-05T10:16:31.000Z</time>
      </trkpt>
      <trkpt lat="44.00226" lon="5.92051">
        <ele>412</ele>
        <time>2020-10-05T10:16:32.000Z</time>
      </trkpt>
      <trkpt lat="44.00225" lon="5.9205">
        <ele>412</ele>
        <time>2020-10-05T10:16:33.000Z</time>
      </trkpt>
      <trkpt lat="44.00225" lon="5.92048">
        <ele>412</ele>
        <time>2020-10-05T10:16:34.000Z</time>
      </trkpt>
      <trkpt lat="44.00224" lon="5.92047">
        <ele>412</ele>
        <time>2020-10-05T10:16:35.000Z</time>
      </trkpt>
      <trkpt lat="44.00224" lon="5.92046">
        <ele>412</ele>
        <time>2020-10-05T10:16:36.000Z</time>
      </trkpt>
      <trkpt lat="44.00223" lon="5.92045">
        <ele>412</ele>
        <time>2020-10-05T10:16:37.000Z</time>
      </trkpt>
      <trkpt lat="44.00222" lon="5.92044">
        <ele>412</ele>
        <time>2020-10-05T10:16:38.000Z</time>
      </trkpt>
      <trkpt lat="44.00221" lon="5.92043">
        <ele>412</ele>
        <time>2020-10-05T10:16:39.000Z</time>
      </trkpt>
      <trkpt lat="44.0022" lon="5.92043">
        <ele>412</ele>
        <time>2020-10-05T10:16:40.000Z</time>
      </trkpt>
      <trkpt lat="44.00219" lon="5.92042">
        <ele>412</ele>
        <time>2020-10-05T10:16:41.000Z</time>
      </trkpt>
      <trkpt lat="44.00219" lon="5.92041">
        <ele>412</ele>
        <time>2020-10-05T10:16:42.000Z</time>
      </trkpt>
      <trkpt lat="44.00218" lon="5.92041">
        <ele>412</ele>
        <time>2020-10-05T10:16:43.000Z</time>
      </trkpt>
      <trkpt lat="44.00217" lon="5.9204">
        <ele>412</ele>
        <time>2020-10-05T10:16:44.000Z</time>
      </trkpt>
      <trkpt lat="44.00216" lon="5.92039">
        <ele>412</ele>
        <time>2020-10-05T10:16:45.000Z</time>
      </trkpt>
      <trkpt lat="44.00215" lon="5.92038">
        <ele>412</ele>
        <time>2020-10-05T10:16:46.000Z</time>
      </trkpt>
      <trkpt lat="44.00214" lon="5.92038">
        <ele>412</ele>
        <time>2020-10-05T10:16:47.000Z</time>
      </trkpt>
      <trkpt lat="44.00213" lon="5.92037">
        <ele>412</ele>
        <time>2020-10-05T10:16:48.000Z</time>
      </trkpt>
      <trkpt lat="44.00212" lon="5.92036">
        <ele>412</ele>
        <time>2020-10-05T10:16:49.000Z</time>
      </trkpt>
      <trkpt lat="44.00211" lon="5.92035">
        <ele>412</ele>
        <time>2020-10-05T10:16:50.000Z</time>
      </trkpt>
      <trkpt lat="44.0021" lon="5.92034">
        <ele>412</ele>
        <time>2020-10-05T10:16:51.000Z</time>
      </trkpt>
      <trkpt lat="44.00209" lon="5.92033">
        <ele>412</ele>
        <time>2020-10-05T10:16:52.000Z</time>
      </trkpt>
      <trkpt lat="44.00208" lon="5.92032">
        <ele>412</ele>
        <time>2020-10-05T10:16:53.000Z</time>
      </trkpt>
      <trkpt lat="44.00207" lon="5.92032">
        <ele>412</ele>
        <time>2020-10-05T10:16:54.000Z</time>
      </trkpt>
      <trkpt lat="44.00206" lon="5.92031">
        <ele>412</ele>
        <time>2020-10-05T10:16:55.000Z</time>
      </trkpt>
      <trkpt lat="44.00205" lon="5.9203">
        <ele>412</ele>
        <time>2020-10-05T10:16:56.000Z</time>
      </trkpt>
      <trkpt lat="44.00204" lon="5.92029">
        <ele>412</ele>
        <time>2020-10-05T10:16:57.000Z</time>
      </trkpt>
      <trkpt lat="44.00203" lon="5.92029">
        <ele>412</ele>
        <time>2020-10-05T10:16:58.000Z</time>
      </trkpt>
      <trkpt lat="44.00203" lon="5.92028">
        <ele>412</ele>
        <time>2020-10-05T10:16:59.000Z</time>
      </trkpt>
      <trkpt lat="44.00202" lon="5.92028">
        <ele>412</ele>
        <time>2020-10-05T10:17:00.000Z</time>
      </trkpt>
      <trkpt lat="44.00202" lon="5.92028">
        <ele>412</ele>
        <time>2020-10-05T10:17:01.000Z</time>
      </trkpt>
      <trkpt lat="44.00202" lon="5.92028">
        <ele>412</ele>
        <time>2020-10-05T10:17:02.000Z</time>
      </trkpt>
      <trkpt lat="44.00202" lon="5.92028">
        <ele>412</ele>
        <time>2020-10-05T10:17:03.000Z</time>
      </trkpt>
      <trkpt lat="44.00201" lon="5.92027">
        <ele>412</ele>
        <time>2020-10-05T10:17:04.000Z</time>
      </trkpt>
      <trkpt lat="44.00201" lon="5.92027">
        <ele>412</ele>
        <time>2020-10-05T10:17:05.000Z</time>
      </trkpt>
      <trkpt lat="44.00201" lon="5.92027">
        <ele>412</ele>
        <time>2020-10-05T10:17:06.000Z</time>
      </trkpt>
      <trkpt lat="44.00201" lon="5.92027">
        <ele>412</ele>
        <time>2020-10-05T10:17:07.000Z</time>
      </trkpt>
      <trkpt lat="44.00201" lon="5.92026">
        <ele>412</ele>
        <time>2020-10-05T10:17:08.000Z</time>
      </trkpt>
      <trkpt lat="44.00201" lon="5.92026">
        <ele>412</ele>
        <time>2020-10-05T10:17:09.000Z</time>
      </trkpt>
      <trkpt lat="44.00201" lon="5.92026">
        <ele>412</ele>
        <time>2020-10-05T10:17:10.000Z</time>
      </trkpt>
      <trkpt lat="44.00201" lon="5.92027">
        <ele>412</ele>
        <time>2020-10-05T10:17:11.000Z</time>
      </trkpt>
      <trkpt lat="44.002" lon="5.92027">
        <ele>412</ele>
        <time>2020-10-05T10:17:12.000Z</time>
      </trkpt>
      <trkpt lat="44.002" lon="5.92027">
        <ele>412</ele>
        <time>2020-10-05T10:17:13.000Z</time>
      </trkpt>
      <trkpt lat="44.002" lon="5.92027">
        <ele>412</ele>
        <time>2020-10-05T10:17:14.000Z</time>
      </trkpt>
      <trkpt lat="44.00199" lon="5.92027">
        <ele>412</ele>
        <time>2020-10-05T10:17:15.000Z</time>
      </trkpt>
      <trkpt lat="44.00199" lon="5.92026">
        <ele>412</ele>
        <time>2020-10-05T10:17:16.000Z</time>
      </trkpt>
      <trkpt lat="44.00198" lon="5.92026">
        <ele>412</ele>
        <time>2020-10-05T10:17:17.000Z</time>
      </trkpt>
      <trkpt lat="44.00198" lon="5.92026">
        <ele>412</ele>
        <time>2020-10-05T10:17:18.000Z</time>
      </trkpt>
      <trkpt lat="44.00198" lon="5.92026">
        <ele>412</ele>
        <time>2020-10-05T10:17:19.000Z</time>
      </trkpt>
      <trkpt lat="44.00198" lon="5.92026">
        <ele>412</ele>
        <time>2020-10-05T10:17:20.000Z</time>
      </trkpt>
      <trkpt lat="44.00198" lon="5.92026">
        <ele>412</ele>
        <time>2020-10-05T10:17:21.000Z</time>
      </trkpt>
      <trkpt lat="44.00198" lon="5.92026">
        <ele>412</ele>
        <time>2020-10-05T10:17:22.000Z</time>
      </trkpt>
      <trkpt lat="44.00198" lon="5.92026">
        <ele>412</ele>
        <time>2020-10-05T10:17:23.000Z</time>
      </trkpt>
      <trkpt lat="44.00198" lon="5.92026">
        <ele>412</ele>
        <time>2020-10-05T10:17:24.000Z</time>
      </trkpt>
      <trkpt lat="44.00198" lon="5.92026">
        <ele>412</ele>
        <time>2020-10-05T10:17:25.000Z</time>
      </trkpt>
      <trkpt lat="44.00198" lon="5.92026">
        <ele>412</ele>
        <time>2020-10-05T10:17:26.000Z</time>
      </trkpt>
      <trkpt lat="44.00199" lon="5.92026">
        <ele>412</ele>
        <time>2020-10-05T10:17:27.000Z</time>
      </trkpt>
      <trkpt lat="44.00199" lon="5.92026">
        <ele>412</ele>
        <time>2020-10-05T10:17:28.000Z</time>
      </trkpt>
      <trkpt lat="44.00199" lon="5.92026">
        <ele>412</ele>
        <time>2020-10-05T10:17:29.000Z</time>
      </trkpt>
      <trkpt lat="44.00199" lon="5.92026">
        <ele>412</ele>
        <time>2020-10-05T10:17:30.000Z</time>
      </trkpt>
      <trkpt lat="44.00199" lon="5.92026">
        <ele>412</ele>
        <time>2020-10-05T10:17:31.000Z</time>
      </trkpt>
      <trkpt lat="44.00199" lon="5.92026">
        <ele>412</ele>
        <time>2020-10-05T10:17:32.000Z</time>
      </trkpt>
      <trkpt lat="44.00199" lon="5.92025">
        <ele>412</ele>
        <time>2020-10-05T10:17:33.000Z</time>
      </trkpt>
      <trkpt lat="44.00199" lon="5.92025">
        <ele>412</ele>
        <time>2020-10-05T10:17:34.000Z</time>
      </trkpt>
      <trkpt lat="44.00199" lon="5.92025">
        <ele>412</ele>
        <time>2020-10-05T10:17:35.000Z</time>
      </trkpt>
      <trkpt lat="44.00199" lon="5.92025">
        <ele>412</ele>
        <time>2020-10-05T10:17:36.000Z</time>
      </trkpt>
      <trkpt lat="44.00199" lon="5.92025">
        <ele>412</ele>
        <time>2020-10-05T10:17:37.000Z</time>
      </trkpt>
      <trkpt lat="44.00199" lon="5.92025">
        <ele>412</ele>
        <time>2020-10-05T10:17:38.000Z</time>
      </trkpt>
      <trkpt lat="44.00199" lon="5.92024">
        <ele>412</ele>
        <time>2020-10-05T10:17:39.000Z</time>
      </trkpt>
      <trkpt lat="44.00199" lon="5.92024">
        <ele>412</ele>
        <time>2020-10-05T10:17:40.000Z</time>
      </trkpt>
      <trkpt lat="44.00199" lon="5.92024">
        <ele>412</ele>
        <time>2020-10-05T10:17:41.000Z</time>
      </trkpt>
      <trkpt lat="44.00199" lon="5.92024">
        <ele>412</ele>
        <time>2020-10-05T10:17:42.000Z</time>
      </trkpt>
      <trkpt lat="44.00199" lon="5.92024">
        <ele>412</ele>
        <time>2020-10-05T10:17:43.000Z</time>
      </trkpt>
      <trkpt lat="44.00199" lon="5.92024">
        <ele>413</ele>
        <time>2020-10-05T10:17:44.000Z</time>
      </trkpt>
      <trkpt lat="44.002" lon="5.92024">
        <ele>413</ele>
        <time>2020-10-05T10:17:45.000Z</time>
      </trkpt>
      <trkpt lat="44.002" lon="5.92023">
        <ele>413</ele>
        <time>2020-10-05T10:17:46.000Z</time>
      </trkpt>
      <trkpt lat="44.002" lon="5.92023">
        <ele>413</ele>
        <time>2020-10-05T10:17:47.000Z</time>
      </trkpt>
      <trkpt lat="44.002" lon="5.92023">
        <ele>413</ele>
        <time>2020-10-05T10:17:48.000Z</time>
      </trkpt>
      <trkpt lat="44.002" lon="5.92023">
        <ele>413</ele>
        <time>2020-10-05T10:17:49.000Z</time>
      </trkpt>
      <trkpt lat="44.002" lon="5.92023">
        <ele>413</ele>
        <time>2020-10-05T10:17:50.000Z</time>
      </trkpt>
      <trkpt lat="44.002" lon="5.92023">
        <ele>413</ele>
        <time>2020-10-05T10:17:51.000Z</time>
      </trkpt>
      <trkpt lat="44.002" lon="5.92023">
        <ele>413</ele>
        <time>2020-10-05T10:17:52.000Z</time>
      </trkpt>
      <trkpt lat="44.002" lon="5.92023">
        <ele>413</ele>
        <time>2020-10-05T10:17:53.000Z</time>
      </trkpt>
      <trkpt lat="44.002" lon="5.92023">
        <ele>413</ele>
        <time>2020-10-05T10:17:54.000Z</time>
      </trkpt>
      <trkpt lat="44.002" lon="5.92023">
        <ele>413</ele>
        <time>2020-10-05T10:17:55.000Z</time>
      </trkpt>
      <trkpt lat="44.002" lon="5.92023">
        <ele>413</ele>
        <time>2020-10-05T10:17:56.000Z</time>
      </trkpt>
      <trkpt lat="44.00201" lon="5.92022">
        <ele>413</ele>
        <time>2020-10-05T10:17:57.000Z</time>
      </trkpt>
      <trkpt lat="44.00201" lon="5.92022">
        <ele>413</ele>
        <time>2020-10-05T10:17:58.000Z</time>
      </trkpt>
      <trkpt lat="44.00201" lon="5.92022">
        <ele>413</ele>
        <time>2020-10-05T10:17:59.000Z</time>
      </trkpt>
      <trkpt lat="44.00201" lon="5.92022">
        <ele>413</ele>
        <time>2020-10-05T10:18:00.000Z</time>
      </trkpt>
      <trkpt lat="44.00201" lon="5.92022">
        <ele>413</ele>
        <time>2020-10-05T10:18:01.000Z</time>
      </trkpt>
      <trkpt lat="44.00201" lon="5.92022">
        <ele>413</ele>
        <time>2020-10-05T10:18:02.000Z</time>
      </trkpt>
      <trkpt lat="44.00201" lon="5.92022">
        <ele>413</ele>
        <time>2020-10-05T10:18:03.000Z</time>
      </trkpt>
      <trkpt lat="44.00201" lon="5.92022">
        <ele>413</ele>
        <time>2020-10-05T10:18:04.000Z</time>
      </trkpt>
      <trkpt lat="44.00201" lon="5.92022">
        <ele>413</ele>
        <time>2020-10-05T10:18:05.000Z</time>
      </trkpt>
      <trkpt lat="44.00201" lon="5.92022">
        <ele>413</ele>
        <time>2020-10-05T10:18:06.000Z</time>
      </trkpt>
      <trkpt lat="44.00201" lon="5.92022">
        <ele>413</ele>
        <time>2020-10-05T10:18:07.000Z</time>
      </trkpt>
      <trkpt lat="44.00201" lon="5.92022">
        <ele>413</ele>
        <time>2020-10-05T10:18:08.000Z</time>
      </trkpt>
      <trkpt lat="44.00201" lon="5.92022">
        <ele>413</ele>
        <time>2020-10-05T10:18:09.000Z</time>
      </trkpt>
      <trkpt lat="44.00201" lon="5.92022">
        <ele>413</ele>
        <time>2020-10-05T10:18:10.000Z</time>
      </trkpt>
      <trkpt lat="44.00201" lon="5.92022">
        <ele>413</ele>
        <time>2020-10-05T10:18:11.000Z</time>
      </trkpt>
      <trkpt lat="44.00202" lon="5.92022">
        <ele>413</ele>
        <time>2020-10-05T10:18:12.000Z</time>
      </trkpt>
      <trkpt lat="44.00202" lon="5.92022">
        <ele>413</ele>
        <time>2020-10-05T10:18:13.000Z</time>
      </trkpt>
      <trkpt lat="44.00202" lon="5.92022">
        <ele>413</ele>
        <time>2020-10-05T10:18:14.000Z</time>
      </trkpt>
      <trkpt lat="44.00202" lon="5.92022">
        <ele>413</ele>
        <time>2020-10-05T10:18:15.000Z</time>
      </trkpt>
      <trkpt lat="44.00202" lon="5.92022">
        <ele>413</ele>
        <time>2020-10-05T10:18:16.000Z</time>
      </trkpt>
      <trkpt lat="44.00202" lon="5.92022">
        <ele>413</ele>
        <time>2020-10-05T10:18:17.000Z</time>
      </trkpt>
      <trkpt lat="44.00202" lon="5.92022">
        <ele>413</ele>
        <time>2020-10-05T10:18:18.000Z</time>
      </trkpt>
      <trkpt lat="44.00202" lon="5.92022">
        <ele>413</ele>
        <time>2020-10-05T10:18:19.000Z</time>
      </trkpt>
      <trkpt lat="44.00202" lon="5.92022">
        <ele>412</ele>
        <time>2020-10-05T10:18:20.000Z</time>
      </trkpt>
      <trkpt lat="44.00202" lon="5.92021">
        <ele>412</ele>
        <time>2020-10-05T10:18:21.000Z</time>
      </trkpt>
      <trkpt lat="44.00202" lon="5.92021">
        <ele>412</ele>
        <time>2020-10-05T10:18:22.000Z</time>
      </trkpt>
      <trkpt lat="44.00202" lon="5.92021">
        <ele>412</ele>
        <time>2020-10-05T10:18:23.000Z</time>
      </trkpt>
      <trkpt lat="44.00202" lon="5.92021">
        <ele>412</ele>
        <time>2020-10-05T10:18:24.000Z</time>
      </trkpt>
      <trkpt lat="44.00202" lon="5.92021">
        <ele>412</ele>
        <time>2020-10-05T10:18:25.000Z</time>
      </trkpt>
      <trkpt lat="44.00202" lon="5.92021">
        <ele>412</ele>
        <time>2020-10-05T10:18:26.000Z</time>
      </trkpt>
      <trkpt lat="44.00202" lon="5.92021">
        <ele>412</ele>
        <time>2020-10-05T10:18:27.000Z</time>
      </trkpt>
      <trkpt lat="44.00202" lon="5.92021">
        <ele>412</ele>
        <time>2020-10-05T10:18:28.000Z</time>
      </trkpt>
      <trkpt lat="44.00202" lon="5.92021">
        <ele>412</ele>
        <time>2020-10-05T10:18:29.000Z</time>
      </trkpt>
      <trkpt lat="44.00202" lon="5.92021">
        <ele>412</ele>
        <time>2020-10-05T10:18:30.000Z</time>
      </trkpt>
      <trkpt lat="44.00202" lon="5.92021">
        <ele>412</ele>
        <time>2020-10-05T10:18:31.000Z</time>
      </trkpt>
      <trkpt lat="44.00202" lon="5.92021">
        <ele>412</ele>
        <time>2020-10-05T10:18:32.000Z</time>
      </trkpt>
      <trkpt lat="44.00202" lon="5.92021">
        <ele>412</ele>
        <time>2020-10-05T10:18:33.000Z</time>
      </trkpt>
      <trkpt lat="44.00202" lon="5.92021">
        <ele>412</ele>
        <time>2020-10-05T10:18:34.000Z</time>
      </trkpt>
      <trkpt lat="44.00202" lon="5.92021">
        <ele>413</ele>
        <time>2020-10-05T10:18:35.000Z</time>
      </trkpt>
      <trkpt lat="44.00202" lon="5.92021">
        <ele>413</ele>
        <time>2020-10-05T10:18:36.000Z</time>
      </trkpt>
      <trkpt lat="44.00202" lon="5.92021">
        <ele>413</ele>
        <time>2020-10-05T10:18:37.000Z</time>
      </trkpt>
      <trkpt lat="44.00202" lon="5.92021">
        <ele>413</ele>
        <time>2020-10-05T10:18:38.000Z</time>
      </trkpt>
      <trkpt lat="44.00202" lon="5.92022">
        <ele>413</ele>
        <time>2020-10-05T10:18:39.000Z</time>
      </trkpt>
      <trkpt lat="44.00202" lon="5.92022">
        <ele>413</ele>
        <time>2020-10-05T10:18:40.000Z</time>
      </trkpt>
      <trkpt lat="44.00202" lon="5.92022">
        <ele>413</ele>
        <time>2020-10-05T10:18:41.000Z</time>
      </trkpt>
      <trkpt lat="44.00202" lon="5.92022">
        <ele>413</ele>
        <time>2020-10-05T10:18:42.000Z</time>
      </trkpt>
      <trkpt lat="44.00202" lon="5.92022">
        <ele>413</ele>
        <time>2020-10-05T10:18:43.000Z</time>
      </trkpt>
      <trkpt lat="44.00202" lon="5.92022">
        <ele>413</ele>
        <time>2020-10-05T10:18:44.000Z</time>
      </trkpt>
      <trkpt lat="44.00201" lon="5.92022">
        <ele>413</ele>
        <time>2020-10-05T10:18:45.000Z</time>
      </trkpt>
      <trkpt lat="44.00202" lon="5.92022">
        <ele>413</ele>
        <time>2020-10-05T10:18:46.000Z</time>
      </trkpt>
      <trkpt lat="44.00202" lon="5.92022">
        <ele>413</ele>
        <time>2020-10-05T10:18:47.000Z</time>
      </trkpt>
      <trkpt lat="44.00202" lon="5.92022">
        <ele>413</ele>
        <time>2020-10-05T10:18:48.000Z</time>
      </trkpt>
      <trkpt lat="44.00202" lon="5.92022">
        <ele>413</ele>
        <time>2020-10-05T10:18:49.000Z</time>
      </trkpt>
      <trkpt lat="44.00202" lon="5.92023">
        <ele>413</ele>
        <time>2020-10-05T10:18:50.000Z</time>
      </trkpt>
      <trkpt lat="44.00201" lon="5.92023">
        <ele>413</ele>
        <time>2020-10-05T10:18:51.000Z</time>
      </trkpt>
      <trkpt lat="44.00201" lon="5.92023">
        <ele>413</ele>
        <time>2020-10-05T10:18:52.000Z</time>
      </trkpt>
      <trkpt lat="44.00202" lon="5.92022">
        <ele>413</ele>
        <time>2020-10-05T10:18:53.000Z</time>
      </trkpt>
      <trkpt lat="44.00202" lon="5.92022">
        <ele>414</ele>
        <time>2020-10-05T10:18:54.000Z</time>
      </trkpt>
      <trkpt lat="44.00202" lon="5.92022">
        <ele>414</ele>
        <time>2020-10-05T10:18:55.000Z</time>
      </trkpt>
      <trkpt lat="44.00202" lon="5.92022">
        <ele>414</ele>
        <time>2020-10-05T10:18:56.000Z</time>
      </trkpt>
      <trkpt lat="44.00202" lon="5.92022">
        <ele>414</ele>
        <time>2020-10-05T10:18:57.000Z</time>
      </trkpt>
      <trkpt lat="44.00202" lon="5.92022">
        <ele>414</ele>
        <time>2020-10-05T10:18:58.000Z</time>
      </trkpt>
      <trkpt lat="44.00202" lon="5.92021">
        <ele>414</ele>
        <time>2020-10-05T10:18:59.000Z</time>
      </trkpt>
      <trkpt lat="44.00202" lon="5.9202">
        <ele>414</ele>
        <time>2020-10-05T10:19:00.000Z</time>
      </trkpt>
      <trkpt lat="44.00202" lon="5.9202">
        <ele>414</ele>
        <time>2020-10-05T10:19:01.000Z</time>
      </trkpt>
      <trkpt lat="44.00202" lon="5.92019">
        <ele>414</ele>
        <time>2020-10-05T10:19:02.000Z</time>
      </trkpt>
      <trkpt lat="44.00202" lon="5.92019">
        <ele>414</ele>
        <time>2020-10-05T10:19:03.000Z</time>
      </trkpt>
      <trkpt lat="44.00202" lon="5.92019">
        <ele>415</ele>
        <time>2020-10-05T10:19:04.000Z</time>
      </trkpt>
      <trkpt lat="44.00201" lon="5.92019">
        <ele>415</ele>
        <time>2020-10-05T10:19:05.000Z</time>
      </trkpt>
      <trkpt lat="44.00201" lon="5.92018">
        <ele>415</ele>
        <time>2020-10-05T10:19:06.000Z</time>
      </trkpt>
      <trkpt lat="44.002" lon="5.92017">
        <ele>415</ele>
        <time>2020-10-05T10:19:07.000Z</time>
      </trkpt>
      <trkpt lat="44.002" lon="5.92017">
        <ele>415</ele>
        <time>2020-10-05T10:19:08.000Z</time>
      </trkpt>
      <trkpt lat="44.002" lon="5.92016">
        <ele>415</ele>
        <time>2020-10-05T10:19:09.000Z</time>
      </trkpt>
      <trkpt lat="44.00199" lon="5.92016">
        <ele>415</ele>
        <time>2020-10-05T10:19:10.000Z</time>
      </trkpt>
      <trkpt lat="44.00199" lon="5.92016">
        <ele>415</ele>
        <time>2020-10-05T10:19:11.000Z</time>
      </trkpt>
      <trkpt lat="44.00199" lon="5.92015">
        <ele>415</ele>
        <time>2020-10-05T10:19:12.000Z</time>
      </trkpt>
      <trkpt lat="44.00198" lon="5.92015">
        <ele>415</ele>
        <time>2020-10-05T10:19:13.000Z</time>
      </trkpt>
      <trkpt lat="44.00198" lon="5.92015">
        <ele>415</ele>
        <time>2020-10-05T10:19:14.000Z</time>
      </trkpt>
      <trkpt lat="44.00198" lon="5.92015">
        <ele>415</ele>
        <time>2020-10-05T10:19:15.000Z</time>
      </trkpt>
      <trkpt lat="44.00198" lon="5.92015">
        <ele>415</ele>
        <time>2020-10-05T10:19:16.000Z</time>
      </trkpt>
      <trkpt lat="44.00198" lon="5.92015">
        <ele>415</ele>
        <time>2020-10-05T10:19:17.000Z</time>
      </trkpt>
      <trkpt lat="44.00198" lon="5.92015">
        <ele>415</ele>
        <time>2020-10-05T10:19:18.000Z</time>
      </trkpt>
      <trkpt lat="44.00198" lon="5.92015">
        <ele>415</ele>
        <time>2020-10-05T10:19:19.000Z</time>
      </trkpt>
      <trkpt lat="44.00198" lon="5.92015">
        <ele>415</ele>
        <time>2020-10-05T10:19:20.000Z</time>
      </trkpt>
      <trkpt lat="44.00198" lon="5.92015">
        <ele>415</ele>
        <time>2020-10-05T10:19:21.000Z</time>
      </trkpt>
      <trkpt lat="44.00198" lon="5.92015">
        <ele>415</ele>
        <time>2020-10-05T10:19:22.000Z</time>
      </trkpt>
      <trkpt lat="44.00198" lon="5.92015">
        <ele>416</ele>
        <time>2020-10-05T10:19:23.000Z</time>
      </trkpt>
      <trkpt lat="44.00197" lon="5.92015">
        <ele>416</ele>
        <time>2020-10-05T10:19:24.000Z</time>
      </trkpt>
      <trkpt lat="44.00197" lon="5.92015">
        <ele>416</ele>
        <time>2020-10-05T10:19:25.000Z</time>
      </trkpt>
      <trkpt lat="44.00197" lon="5.92015">
        <ele>416</ele>
        <time>2020-10-05T10:19:26.000Z</time>
      </trkpt>
      <trkpt lat="44.00197" lon="5.92015">
        <ele>416</ele>
        <time>2020-10-05T10:19:27.000Z</time>
      </trkpt>
      <trkpt lat="44.00197" lon="5.92015">
        <ele>416</ele>
        <time>2020-10-05T10:19:28.000Z</time>
      </trkpt>
      <trkpt lat="44.00197" lon="5.92015">
        <ele>416</ele>
        <time>2020-10-05T10:19:29.000Z</time>
      </trkpt>
      <trkpt lat="44.00197" lon="5.92015">
        <ele>416</ele>
        <time>2020-10-05T10:19:30.000Z</time>
      </trkpt>
      <trkpt lat="44.00197" lon="5.92015">
        <ele>416</ele>
        <time>2020-10-05T10:19:31.000Z</time>
      </trkpt>
      <trkpt lat="44.00197" lon="5.92015">
        <ele>416</ele>
        <time>2020-10-05T10:19:32.000Z</time>
      </trkpt>
      <trkpt lat="44.00197" lon="5.92015">
        <ele>416</ele>
        <time>2020-10-05T10:19:33.000Z</time>
      </trkpt>
      <trkpt lat="44.00197" lon="5.92015">
        <ele>416</ele>
        <time>2020-10-05T10:19:34.000Z</time>
      </trkpt>
      <trkpt lat="44.00197" lon="5.92015">
        <ele>416</ele>
        <time>2020-10-05T10:19:35.000Z</time>
      </trkpt>
      <trkpt lat="44.00197" lon="5.92015">
        <ele>416</ele>
        <time>2020-10-05T10:19:36.000Z</time>
      </trkpt>
      <trkpt lat="44.00197" lon="5.92015">
        <ele>416</ele>
        <time>2020-10-05T10:19:37.000Z</time>
      </trkpt>
      <trkpt lat="44.00197" lon="5.92015">
        <ele>416</ele>
        <time>2020-10-05T10:19:38.000Z</time>
      </trkpt>
      <trkpt lat="44.00197" lon="5.92015">
        <ele>416</ele>
        <time>2020-10-05T10:19:39.000Z</time>
      </trkpt>
      <trkpt lat="44.00197" lon="5.92016">
        <ele>416</ele>
        <time>2020-10-05T10:19:40.000Z</time>
      </trkpt>
      <trkpt lat="44.00196" lon="5.92016">
        <ele>416</ele>
        <time>2020-10-05T10:19:41.000Z</time>
      </trkpt>
      <trkpt lat="44.00196" lon="5.92016">
        <ele>416</ele>
        <time>2020-10-05T10:19:42.000Z</time>
      </trkpt>
      <trkpt lat="44.00196" lon="5.92016">
        <ele>417</ele>
        <time>2020-10-05T10:19:43.000Z</time>
      </trkpt>
      <trkpt lat="44.00196" lon="5.92016">
        <ele>417</ele>
        <time>2020-10-05T10:19:44.000Z</time>
      </trkpt>
      <trkpt lat="44.00196" lon="5.92016">
        <ele>417</ele>
        <time>2020-10-05T10:19:45.000Z</time>
      </trkpt>
      <trkpt lat="44.00196" lon="5.92016">
        <ele>417</ele>
        <time>2020-10-05T10:19:46.000Z</time>
      </trkpt>
      <trkpt lat="44.00196" lon="5.92017">
        <ele>417</ele>
        <time>2020-10-05T10:19:47.000Z</time>
      </trkpt>
      <trkpt lat="44.00196" lon="5.92017">
        <ele>417</ele>
        <time>2020-10-05T10:19:48.000Z</time>
      </trkpt>
      <trkpt lat="44.00196" lon="5.92017">
        <ele>417</ele>
        <time>2020-10-05T10:19:49.000Z</time>
      </trkpt>
      <trkpt lat="44.00196" lon="5.92017">
        <ele>417</ele>
        <time>2020-10-05T10:19:50.000Z</time>
      </trkpt>
      <trkpt lat="44.00196" lon="5.92016">
        <ele>417</ele>
        <time>2020-10-05T10:19:51.000Z</time>
      </trkpt>
      <trkpt lat="44.00196" lon="5.92016">
        <ele>417</ele>
        <time>2020-10-05T10:19:52.000Z</time>
      </trkpt>
      <trkpt lat="44.00196" lon="5.92016">
        <ele>417</ele>
        <time>2020-10-05T10:19:53.000Z</time>
      </trkpt>
      <trkpt lat="44.00196" lon="5.92016">
        <ele>417</ele>
        <time>2020-10-05T10:19:54.000Z</time>
      </trkpt>
      <trkpt lat="44.00196" lon="5.92016">
        <ele>417</ele>
        <time>2020-10-05T10:19:55.000Z</time>
      </trkpt>
      <trkpt lat="44.00196" lon="5.92016">
        <ele>418</ele>
        <time>2020-10-05T10:19:56.000Z</time>
      </trkpt>
      <trkpt lat="44.00196" lon="5.92016">
        <ele>418</ele>
        <time>2020-10-05T10:19:57.000Z</time>
      </trkpt>
      <trkpt lat="44.00196" lon="5.92016">
        <ele>418</ele>
        <time>2020-10-05T10:19:58.000Z</time>
      </trkpt>
      <trkpt lat="44.00196" lon="5.92016">
        <ele>418</ele>
        <time>2020-10-05T10:19:59.000Z</time>
      </trkpt>
      <trkpt lat="44.00196" lon="5.92016">
        <ele>418</ele>
        <time>2020-10-05T10:20:00.000Z</time>
      </trkpt>
      <trkpt lat="44.00196" lon="5.92016">
        <ele>418</ele>
        <time>2020-10-05T10:20:01.000Z</time>
      </trkpt>
      <trkpt lat="44.00196" lon="5.92016">
        <ele>418</ele>
        <time>2020-10-05T10:20:02.000Z</time>
      </trkpt>
      <trkpt lat="44.00196" lon="5.92016">
        <ele>418</ele>
        <time>2020-10-05T10:20:03.000Z</time>
      </trkpt>
      <trkpt lat="44.00196" lon="5.92016">
        <ele>418</ele>
        <time>2020-10-05T10:20:04.000Z</time>
      </trkpt>
      <trkpt lat="44.00196" lon="5.92016">
        <ele>418</ele>
        <time>2020-10-05T10:20:05.000Z</time>
      </trkpt>
      <trkpt lat="44.00196" lon="5.92016">
        <ele>418</ele>
        <time>2020-10-05T10:20:06.000Z</time>
      </trkpt>
      <trkpt lat="44.00196" lon="5.92016">
        <ele>418</ele>
        <time>2020-10-05T10:20:07.000Z</time>
      </trkpt>
      <trkpt lat="44.00196" lon="5.92016">
        <ele>418</ele>
        <time>2020-10-05T10:20:08.000Z</time>
      </trkpt>
      <trkpt lat="44.00196" lon="5.92016">
        <ele>418</ele>
        <time>2020-10-05T10:20:09.000Z</time>
      </trkpt>
      <trkpt lat="44.00196" lon="5.92016">
        <ele>418</ele>
        <time>2020-10-05T10:20:10.000Z</time>
      </trkpt>
      <trkpt lat="44.00196" lon="5.92016">
        <ele>418</ele>
        <time>2020-10-05T10:20:11.000Z</time>
      </trkpt>
      <trkpt lat="44.00196" lon="5.92016">
        <ele>418</ele>
        <time>2020-10-05T10:20:12.000Z</time>
      </trkpt>
      <trkpt lat="44.00196" lon="5.92016">
        <ele>418</ele>
        <time>2020-10-05T10:20:13.000Z</time>
      </trkpt>
      <trkpt lat="44.00196" lon="5.92016">
        <ele>418</ele>
        <time>2020-10-05T10:20:14.000Z</time>
      </trkpt>
      <trkpt lat="44.00196" lon="5.92016">
        <ele>418</ele>
        <time>2020-10-05T10:20:15.000Z</time>
      </trkpt>
      <trkpt lat="44.00196" lon="5.92016">
        <ele>418</ele>
        <time>2020-10-05T10:20:16.000Z</time>
      </trkpt>
      <trkpt lat="44.00196" lon="5.92016">
        <ele>418</ele>
        <time>2020-10-05T10:20:17.000Z</time>
      </trkpt>
      <trkpt lat="44.00196" lon="5.92016">
        <ele>418</ele>
        <time>2020-10-05T10:20:18.000Z</time>
      </trkpt>
      <trkpt lat="44.00196" lon="5.92016">
        <ele>419</ele>
        <time>2020-10-05T10:20:19.000Z</time>
      </trkpt>
      <trkpt lat="44.00196" lon="5.92016">
        <ele>419</ele>
        <time>2020-10-05T10:20:20.000Z</time>
      </trkpt>
      <trkpt lat="44.00196" lon="5.92016">
        <ele>419</ele>
        <time>2020-10-05T10:20:21.000Z</time>
      </trkpt>
      <trkpt lat="44.00196" lon="5.92016">
        <ele>419</ele>
        <time>2020-10-05T10:20:22.000Z</time>
      </trkpt>
      <trkpt lat="44.00196" lon="5.92016">
        <ele>419</ele>
        <time>2020-10-05T10:20:23.000Z</time>
      </trkpt>
      <trkpt lat="44.00196" lon="5.92016">
        <ele>419</ele>
        <time>2020-10-05T10:20:24.000Z</time>
      </trkpt>
      <trkpt lat="44.00196" lon="5.92016">
        <ele>419</ele>
        <time>2020-10-05T10:20:25.000Z</time>
      </trkpt>
      <trkpt lat="44.00196" lon="5.92016">
        <ele>419</ele>
        <time>2020-10-05T10:20:26.000Z</time>
      </trkpt>
      <trkpt lat="44.00196" lon="5.92016">
        <ele>419</ele>
        <time>2020-10-05T10:20:27.000Z</time>
      </trkpt>
      <trkpt lat="44.00196" lon="5.92016">
        <ele>420</ele>
        <time>2020-10-05T10:20:28.000Z</time>
      </trkpt>
      <trkpt lat="44.00196" lon="5.92016">
        <ele>420</ele>
        <time>2020-10-05T10:20:29.000Z</time>
      </trkpt>
      <trkpt lat="44.00196" lon="5.92016">
        <ele>420</ele>
        <time>2020-10-05T10:20:30.000Z</time>
      </trkpt>
      <trkpt lat="44.00196" lon="5.92016">
        <ele>420</ele>
        <time>2020-10-05T10:20:31.000Z</time>
      </trkpt>
      <trkpt lat="44.00196" lon="5.92016">
        <ele>420</ele>
        <time>2020-10-05T10:20:32.000Z</time>
      </trkpt>
      <trkpt lat="44.00196" lon="5.92016">
        <ele>420</ele>
        <time>2020-10-05T10:20:33.000Z</time>
      </trkpt>
      <trkpt lat="44.00196" lon="5.92016">
        <ele>421</ele>
        <time>2020-10-05T10:20:34.000Z</time>
      </trkpt>
      <trkpt lat="44.00196" lon="5.92016">
        <ele>421</ele>
        <time>2020-10-05T10:20:35.000Z</time>
      </trkpt>
      <trkpt lat="44.00196" lon="5.92016">
        <ele>421</ele>
        <time>2020-10-05T10:20:36.000Z</time>
      </trkpt>
      <trkpt lat="44.00195" lon="5.92016">
        <ele>421</ele>
        <time>2020-10-05T10:20:37.000Z</time>
      </trkpt>
      <trkpt lat="44.00195" lon="5.92016">
        <ele>421</ele>
        <time>2020-10-05T10:20:38.000Z</time>
      </trkpt>
      <trkpt lat="44.00195" lon="5.92015">
        <ele>421</ele>
        <time>2020-10-05T10:20:39.000Z</time>
      </trkpt>
      <trkpt lat="44.00195" lon="5.92015">
        <ele>421</ele>
        <time>2020-10-05T10:20:40.000Z</time>
      </trkpt>
      <trkpt lat="44.00195" lon="5.92015">
        <ele>421</ele>
        <time>2020-10-05T10:20:41.000Z</time>
      </trkpt>
      <trkpt lat="44.00195" lon="5.92015">
        <ele>422</ele>
        <time>2020-10-05T10:20:42.000Z</time>
      </trkpt>
      <trkpt lat="44.00195" lon="5.92015">
        <ele>422</ele>
        <time>2020-10-05T10:20:43.000Z</time>
      </trkpt>
      <trkpt lat="44.00195" lon="5.92015">
        <ele>422</ele>
        <time>2020-10-05T10:20:44.000Z</time>
      </trkpt>
      <trkpt lat="44.00195" lon="5.92015">
        <ele>422</ele>
        <time>2020-10-05T10:20:45.000Z</time>
      </trkpt>
      <trkpt lat="44.00195" lon="5.92015">
        <ele>422</ele>
        <time>2020-10-05T10:20:46.000Z</time>
      </trkpt>
      <trkpt lat="44.00195" lon="5.92015">
        <ele>422</ele>
        <time>2020-10-05T10:20:47.000Z</time>
      </trkpt>
      <trkpt lat="44.00195" lon="5.92015">
        <ele>422</ele>
        <time>2020-10-05T10:20:48.000Z</time>
      </trkpt>
      <trkpt lat="44.00195" lon="5.92015">
        <ele>422</ele>
        <time>2020-10-05T10:20:49.000Z</time>
      </trkpt>
      <trkpt lat="44.00195" lon="5.92015">
        <ele>422</ele>
        <time>2020-10-05T10:20:50.000Z</time>
      </trkpt>
      <trkpt lat="44.00195" lon="5.92015">
        <ele>422</ele>
        <time>2020-10-05T10:20:51.000Z</time>
      </trkpt>
      <trkpt lat="44.00195" lon="5.92015">
        <ele>422</ele>
        <time>2020-10-05T10:20:52.000Z</time>
      </trkpt>
      <trkpt lat="44.00194" lon="5.92016">
        <ele>422</ele>
        <time>2020-10-05T10:20:53.000Z</time>
      </trkpt>
      <trkpt lat="44.00194" lon="5.92016">
        <ele>422</ele>
        <time>2020-10-05T10:20:54.000Z</time>
      </trkpt>
      <trkpt lat="44.00194" lon="5.92016">
        <ele>422</ele>
        <time>2020-10-05T10:20:55.000Z</time>
      </trkpt>
      <trkpt lat="44.00194" lon="5.92016">
        <ele>422</ele>
        <time>2020-10-05T10:20:56.000Z</time>
      </trkpt>
      <trkpt lat="44.00194" lon="5.92016">
        <ele>422</ele>
        <time>2020-10-05T10:20:57.000Z</time>
      </trkpt>
      <trkpt lat="44.00194" lon="5.92016">
        <ele>422</ele>
        <time>2020-10-05T10:20:58.000Z</time>
      </trkpt>
      <trkpt lat="44.00194" lon="5.92016">
        <ele>422</ele>
        <time>2020-10-05T10:20:59.000Z</time>
      </trkpt>
      <trkpt lat="44.00194" lon="5.92016">
        <ele>422</ele>
        <time>2020-10-05T10:21:00.000Z</time>
      </trkpt>
      <trkpt lat="44.00194" lon="5.92016">
        <ele>422</ele>
        <time>2020-10-05T10:21:01.000Z</time>
      </trkpt>
      <trkpt lat="44.00194" lon="5.92016">
        <ele>422</ele>
        <time>2020-10-05T10:21:02.000Z</time>
      </trkpt>
      <trkpt lat="44.00194" lon="5.92015">
        <ele>422</ele>
        <time>2020-10-05T10:21:03.000Z</time>
      </trkpt>
      <trkpt lat="44.00194" lon="5.92015">
        <ele>422</ele>
        <time>2020-10-05T10:21:04.000Z</time>
      </trkpt>
      <trkpt lat="44.00194" lon="5.92015">
        <ele>422</ele>
        <time>2020-10-05T10:21:05.000Z</time>
      </trkpt>
      <trkpt lat="44.00194" lon="5.92015">
        <ele>422</ele>
        <time>2020-10-05T10:21:06.000Z</time>
      </trkpt>
      <trkpt lat="44.00194" lon="5.92015">
        <ele>422</ele>
        <time>2020-10-05T10:21:07.000Z</time>
      </trkpt>
      <trkpt lat="44.00194" lon="5.92015">
        <ele>422</ele>
        <time>2020-10-05T10:21:08.000Z</time>
      </trkpt>
      <trkpt lat="44.00194" lon="5.92015">
        <ele>422</ele>
        <time>2020-10-05T10:21:09.000Z</time>
      </trkpt>
      <trkpt lat="44.00194" lon="5.92015">
        <ele>422</ele>
        <time>2020-10-05T10:21:10.000Z</time>
      </trkpt>
      <trkpt lat="44.00194" lon="5.92015">
        <ele>422</ele>
        <time>2020-10-05T10:21:11.000Z</time>
      </trkpt>
      <trkpt lat="44.00194" lon="5.92015">
        <ele>423</ele>
        <time>2020-10-05T10:21:12.000Z</time>
      </trkpt>
      <trkpt lat="44.00195" lon="5.92015">
        <ele>423</ele>
        <time>2020-10-05T10:21:13.000Z</time>
      </trkpt>
      <trkpt lat="44.00195" lon="5.92015">
        <ele>423</ele>
        <time>2020-10-05T10:21:14.000Z</time>
      </trkpt>
      <trkpt lat="44.00195" lon="5.92016">
        <ele>423</ele>
        <time>2020-10-05T10:21:15.000Z</time>
      </trkpt>
      <trkpt lat="44.00195" lon="5.92016">
        <ele>424</ele>
        <time>2020-10-05T10:21:16.000Z</time>
      </trkpt>
      <trkpt lat="44.00195" lon="5.92016">
        <ele>424</ele>
        <time>2020-10-05T10:21:17.000Z</time>
      </trkpt>
      <trkpt lat="44.00195" lon="5.92016">
        <ele>424</ele>
        <time>2020-10-05T10:21:18.000Z</time>
      </trkpt>
      <trkpt lat="44.00195" lon="5.92016">
        <ele>424</ele>
        <time>2020-10-05T10:21:19.000Z</time>
      </trkpt>
      <trkpt lat="44.00195" lon="5.92016">
        <ele>424</ele>
        <time>2020-10-05T10:21:20.000Z</time>
      </trkpt>
      <trkpt lat="44.00195" lon="5.92016">
        <ele>425</ele>
        <time>2020-10-05T10:21:21.000Z</time>
      </trkpt>
      <trkpt lat="44.00195" lon="5.92016">
        <ele>425</ele>
        <time>2020-10-05T10:21:22.000Z</time>
      </trkpt>
      <trkpt lat="44.00195" lon="5.92016">
        <ele>425</ele>
        <time>2020-10-05T10:21:23.000Z</time>
      </trkpt>
      <trkpt lat="44.00195" lon="5.92016">
        <ele>425</ele>
        <time>2020-10-05T10:21:24.000Z</time>
      </trkpt>
      <trkpt lat="44.00195" lon="5.92016">
        <ele>425</ele>
        <time>2020-10-05T10:21:25.000Z</time>
      </trkpt>
      <trkpt lat="44.00195" lon="5.92016">
        <ele>425</ele>
        <time>2020-10-05T10:21:26.000Z</time>
      </trkpt>
      <trkpt lat="44.00195" lon="5.92016">
        <ele>425</ele>
        <time>2020-10-05T10:21:27.000Z</time>
      </trkpt>
      <trkpt lat="44.00195" lon="5.92016">
        <ele>425</ele>
        <time>2020-10-05T10:21:28.000Z</time>
      </trkpt>
      <trkpt lat="44.00195" lon="5.92016">
        <ele>425</ele>
        <time>2020-10-05T10:21:29.000Z</time>
      </trkpt>
      <trkpt lat="44.00195" lon="5.92016">
        <ele>426</ele>
        <time>2020-10-05T10:21:30.000Z</time>
      </trkpt>
      <trkpt lat="44.00195" lon="5.92016">
        <ele>426</ele>
        <time>2020-10-05T10:21:31.000Z</time>
      </trkpt>
      <trkpt lat="44.00195" lon="5.92016">
        <ele>426</ele>
        <time>2020-10-05T10:21:32.000Z</time>
      </trkpt>
      <trkpt lat="44.00195" lon="5.92016">
        <ele>426</ele>
        <time>2020-10-05T10:21:33.000Z</time>
      </trkpt>
      <trkpt lat="44.00195" lon="5.92016">
        <ele>426</ele>
        <time>2020-10-05T10:21:34.000Z</time>
      </trkpt>
      <trkpt lat="44.00195" lon="5.92016">
        <ele>426</ele>
        <time>2020-10-05T10:21:35.000Z</time>
      </trkpt>
      <trkpt lat="44.00195" lon="5.92016">
        <ele>426</ele>
        <time>2020-10-05T10:21:36.000Z</time>
      </trkpt>
      <trkpt lat="44.00196" lon="5.92016">
        <ele>426</ele>
        <time>2020-10-05T10:21:37.000Z</time>
      </trkpt>
      <trkpt lat="44.00196" lon="5.92015">
        <ele>426</ele>
        <time>2020-10-05T10:21:38.000Z</time>
      </trkpt>
      <trkpt lat="44.00195" lon="5.92015">
        <ele>426</ele>
        <time>2020-10-05T10:21:39.000Z</time>
      </trkpt>
      <trkpt lat="44.00195" lon="5.92014">
        <ele>426</ele>
        <time>2020-10-05T10:21:40.000Z</time>
      </trkpt>
      <trkpt lat="44.00195" lon="5.92014">
        <ele>426</ele>
        <time>2020-10-05T10:21:41.000Z</time>
      </trkpt>
      <trkpt lat="44.00195" lon="5.92013">
        <ele>426</ele>
        <time>2020-10-05T10:21:42.000Z</time>
      </trkpt>
      <trkpt lat="44.00194" lon="5.92013">
        <ele>426</ele>
        <time>2020-10-05T10:21:43.000Z</time>
      </trkpt>
      <trkpt lat="44.00194" lon="5.92012">
        <ele>426</ele>
        <time>2020-10-05T10:21:44.000Z</time>
      </trkpt>
      <trkpt lat="44.00193" lon="5.92011">
        <ele>426</ele>
        <time>2020-10-05T10:21:45.000Z</time>
      </trkpt>
      <trkpt lat="44.00193" lon="5.92011">
        <ele>426</ele>
        <time>2020-10-05T10:21:46.000Z</time>
      </trkpt>
      <trkpt lat="44.00192" lon="5.9201">
        <ele>426</ele>
        <time>2020-10-05T10:21:47.000Z</time>
      </trkpt>
      <trkpt lat="44.00192" lon="5.92009">
        <ele>426</ele>
        <time>2020-10-05T10:21:48.000Z</time>
      </trkpt>
      <trkpt lat="44.00192" lon="5.92009">
        <ele>425</ele>
        <time>2020-10-05T10:21:49.000Z</time>
      </trkpt>
      <trkpt lat="44.00191" lon="5.92008">
        <ele>425</ele>
        <time>2020-10-05T10:21:50.000Z</time>
      </trkpt>
      <trkpt lat="44.00191" lon="5.92007">
        <ele>425</ele>
        <time>2020-10-05T10:21:51.000Z</time>
      </trkpt>
      <trkpt lat="44.00191" lon="5.92007">
        <ele>425</ele>
        <time>2020-10-05T10:21:52.000Z</time>
      </trkpt>
      <trkpt lat="44.00191" lon="5.92007">
        <ele>424</ele>
        <time>2020-10-05T10:21:53.000Z</time>
      </trkpt>
      <trkpt lat="44.00191" lon="5.92007">
        <ele>424</ele>
        <time>2020-10-05T10:21:54.000Z</time>
      </trkpt>
      <trkpt lat="44.00192" lon="5.92006">
        <ele>424</ele>
        <time>2020-10-05T10:21:55.000Z</time>
      </trkpt>
      <trkpt lat="44.00192" lon="5.92006">
        <ele>423</ele>
        <time>2020-10-05T10:21:56.000Z</time>
      </trkpt>
      <trkpt lat="44.00192" lon="5.92006">
        <ele>423</ele>
        <time>2020-10-05T10:21:57.000Z</time>
      </trkpt>
      <trkpt lat="44.00192" lon="5.92006">
        <ele>423</ele>
        <time>2020-10-05T10:21:58.000Z</time>
      </trkpt>
      <trkpt lat="44.00192" lon="5.92006">
        <ele>423</ele>
        <time>2020-10-05T10:21:59.000Z</time>
      </trkpt>
      <trkpt lat="44.00192" lon="5.92006">
        <ele>422</ele>
        <time>2020-10-05T10:22:00.000Z</time>
      </trkpt>
      <trkpt lat="44.00192" lon="5.92006">
        <ele>422</ele>
        <time>2020-10-05T10:22:01.000Z</time>
      </trkpt>
      <trkpt lat="44.00192" lon="5.92005">
        <ele>422</ele>
        <time>2020-10-05T10:22:02.000Z</time>
      </trkpt>
      <trkpt lat="44.00192" lon="5.92005">
        <ele>422</ele>
        <time>2020-10-05T10:22:03.000Z</time>
      </trkpt>
      <trkpt lat="44.00192" lon="5.92005">
        <ele>422</ele>
        <time>2020-10-05T10:22:04.000Z</time>
      </trkpt>
      <trkpt lat="44.00192" lon="5.92005">
        <ele>422</ele>
        <time>2020-10-05T10:22:05.000Z</time>
      </trkpt>
      <trkpt lat="44.00192" lon="5.92005">
        <ele>421</ele>
        <time>2020-10-05T10:22:06.000Z</time>
      </trkpt>
      <trkpt lat="44.00192" lon="5.92005">
        <ele>421</ele>
        <time>2020-10-05T10:22:07.000Z</time>
      </trkpt>
      <trkpt lat="44.00191" lon="5.92004">
        <ele>421</ele>
        <time>2020-10-05T10:22:08.000Z</time>
      </trkpt>
      <trkpt lat="44.00191" lon="5.92004">
        <ele>421</ele>
        <time>2020-10-05T10:22:09.000Z</time>
      </trkpt>
      <trkpt lat="44.00191" lon="5.92004">
        <ele>421</ele>
        <time>2020-10-05T10:22:10.000Z</time>
      </trkpt>
      <trkpt lat="44.00191" lon="5.92004">
        <ele>421</ele>
        <time>2020-10-05T10:22:11.000Z</time>
      </trkpt>
      <trkpt lat="44.00191" lon="5.92004">
        <ele>421</ele>
        <time>2020-10-05T10:22:12.000Z</time>
      </trkpt>
      <trkpt lat="44.00192" lon="5.92003">
        <ele>421</ele>
        <time>2020-10-05T10:22:13.000Z</time>
      </trkpt>
      <trkpt lat="44.00192" lon="5.92002">
        <ele>421</ele>
        <time>2020-10-05T10:22:14.000Z</time>
      </trkpt>
      <trkpt lat="44.00192" lon="5.92001">
        <ele>421</ele>
        <time>2020-10-05T10:22:15.000Z</time>
      </trkpt>
      <trkpt lat="44.00193" lon="5.92001">
        <ele>421</ele>
        <time>2020-10-05T10:22:16.000Z</time>
      </trkpt>
      <trkpt lat="44.00193" lon="5.92">
        <ele>421</ele>
        <time>2020-10-05T10:22:17.000Z</time>
      </trkpt>
      <trkpt lat="44.00194" lon="5.92">
        <ele>421</ele>
        <time>2020-10-05T10:22:18.000Z</time>
      </trkpt>
      <trkpt lat="44.00194" lon="5.91999">
        <ele>421</ele>
        <time>2020-10-05T10:22:19.000Z</time>
      </trkpt>
      <trkpt lat="44.00194" lon="5.91999">
        <ele>421</ele>
        <time>2020-10-05T10:22:20.000Z</time>
      </trkpt>
      <trkpt lat="44.00194" lon="5.91999">
        <ele>421</ele>
        <time>2020-10-05T10:22:21.000Z</time>
      </trkpt>
      <trkpt lat="44.00195" lon="5.91998">
        <ele>421</ele>
        <time>2020-10-05T10:22:22.000Z</time>
      </trkpt>
      <trkpt lat="44.00195" lon="5.91998">
        <ele>421</ele>
        <time>2020-10-05T10:22:23.000Z</time>
      </trkpt>
      <trkpt lat="44.00195" lon="5.91998">
        <ele>421</ele>
        <time>2020-10-05T10:22:24.000Z</time>
      </trkpt>
      <trkpt lat="44.00195" lon="5.91997">
        <ele>421</ele>
        <time>2020-10-05T10:22:25.000Z</time>
      </trkpt>
      <trkpt lat="44.00195" lon="5.91996">
        <ele>421</ele>
        <time>2020-10-05T10:22:26.000Z</time>
      </trkpt>
      <trkpt lat="44.00195" lon="5.91995">
        <ele>421</ele>
        <time>2020-10-05T10:22:27.000Z</time>
      </trkpt>
      <trkpt lat="44.00195" lon="5.91994">
        <ele>420</ele>
        <time>2020-10-05T10:22:28.000Z</time>
      </trkpt>
      <trkpt lat="44.00195" lon="5.91992">
        <ele>420</ele>
        <time>2020-10-05T10:22:29.000Z</time>
      </trkpt>
      <trkpt lat="44.00195" lon="5.91992">
        <ele>420</ele>
        <time>2020-10-05T10:22:30.000Z</time>
      </trkpt>
      <trkpt lat="44.00195" lon="5.91991">
        <ele>420</ele>
        <time>2020-10-05T10:22:31.000Z</time>
      </trkpt>
      <trkpt lat="44.00195" lon="5.9199">
        <ele>420</ele>
        <time>2020-10-05T10:22:32.000Z</time>
      </trkpt>
      <trkpt lat="44.00194" lon="5.91989">
        <ele>420</ele>
        <time>2020-10-05T10:22:33.000Z</time>
      </trkpt>
      <trkpt lat="44.00194" lon="5.91988">
        <ele>420</ele>
        <time>2020-10-05T10:22:34.000Z</time>
      </trkpt>
      <trkpt lat="44.00194" lon="5.91987">
        <ele>420</ele>
        <time>2020-10-05T10:22:35.000Z</time>
      </trkpt>
      <trkpt lat="44.00194" lon="5.91986">
        <ele>421</ele>
        <time>2020-10-05T10:22:36.000Z</time>
      </trkpt>
      <trkpt lat="44.00193" lon="5.91985">
        <ele>421</ele>
        <time>2020-10-05T10:22:37.000Z</time>
      </trkpt>
      <trkpt lat="44.00193" lon="5.91984">
        <ele>421</ele>
        <time>2020-10-05T10:22:38.000Z</time>
      </trkpt>
      <trkpt lat="44.00193" lon="5.91983">
        <ele>421</ele>
        <time>2020-10-05T10:22:39.000Z</time>
      </trkpt>
      <trkpt lat="44.00193" lon="5.91982">
        <ele>421</ele>
        <time>2020-10-05T10:22:40.000Z</time>
      </trkpt>
      <trkpt lat="44.00192" lon="5.91981">
        <ele>421</ele>
        <time>2020-10-05T10:22:41.000Z</time>
      </trkpt>
      <trkpt lat="44.00192" lon="5.91981">
        <ele>421</ele>
        <time>2020-10-05T10:22:42.000Z</time>
      </trkpt>
      <trkpt lat="44.00192" lon="5.9198">
        <ele>421</ele>
        <time>2020-10-05T10:22:43.000Z</time>
      </trkpt>
      <trkpt lat="44.00192" lon="5.91979">
        <ele>421</ele>
        <time>2020-10-05T10:22:44.000Z</time>
      </trkpt>
      <trkpt lat="44.00192" lon="5.91979">
        <ele>421</ele>
        <time>2020-10-05T10:22:45.000Z</time>
      </trkpt>
      <trkpt lat="44.00191" lon="5.91978">
        <ele>421</ele>
        <time>2020-10-05T10:22:46.000Z</time>
      </trkpt>
      <trkpt lat="44.00191" lon="5.91978">
        <ele>421</ele>
        <time>2020-10-05T10:22:47.000Z</time>
      </trkpt>
      <trkpt lat="44.00191" lon="5.91978">
        <ele>421</ele>
        <time>2020-10-05T10:22:48.000Z</time>
      </trkpt>
      <trkpt lat="44.00191" lon="5.91978">
        <ele>421</ele>
        <time>2020-10-05T10:22:49.000Z</time>
      </trkpt>
      <trkpt lat="44.00191" lon="5.91978">
        <ele>421</ele>
        <time>2020-10-05T10:22:50.000Z</time>
      </trkpt>
      <trkpt lat="44.00191" lon="5.91977">
        <ele>421</ele>
        <time>2020-10-05T10:22:51.000Z</time>
      </trkpt>
      <trkpt lat="44.00191" lon="5.91977">
        <ele>421</ele>
        <time>2020-10-05T10:22:52.000Z</time>
      </trkpt>
      <trkpt lat="44.00191" lon="5.91977">
        <ele>422</ele>
        <time>2020-10-05T10:22:53.000Z</time>
      </trkpt>
      <trkpt lat="44.00191" lon="5.91977">
        <ele>422</ele>
        <time>2020-10-05T10:22:54.000Z</time>
      </trkpt>
      <trkpt lat="44.00191" lon="5.91977">
        <ele>422</ele>
        <time>2020-10-05T10:22:55.000Z</time>
      </trkpt>
      <trkpt lat="44.00191" lon="5.91977">
        <ele>422</ele>
        <time>2020-10-05T10:22:56.000Z</time>
      </trkpt>
      <trkpt lat="44.00191" lon="5.91977">
        <ele>422</ele>
        <time>2020-10-05T10:22:57.000Z</time>
      </trkpt>
      <trkpt lat="44.00192" lon="5.91977">
        <ele>422</ele>
        <time>2020-10-05T10:22:58.000Z</time>
      </trkpt>
      <trkpt lat="44.00192" lon="5.91977">
        <ele>422</ele>
        <time>2020-10-05T10:22:59.000Z</time>
      </trkpt>
      <trkpt lat="44.00192" lon="5.91977">
        <ele>422</ele>
        <time>2020-10-05T10:23:00.000Z</time>
      </trkpt>
      <trkpt lat="44.00192" lon="5.91977">
        <ele>422</ele>
        <time>2020-10-05T10:23:01.000Z</time>
      </trkpt>
      <trkpt lat="44.00192" lon="5.91977">
        <ele>422</ele>
        <time>2020-10-05T10:23:02.000Z</time>
      </trkpt>
      <trkpt lat="44.00192" lon="5.91977">
        <ele>422</ele>
        <time>2020-10-05T10:23:03.000Z</time>
      </trkpt>
      <trkpt lat="44.00192" lon="5.91976">
        <ele>422</ele>
        <time>2020-10-05T10:23:04.000Z</time>
      </trkpt>
      <trkpt lat="44.00192" lon="5.91976">
        <ele>422</ele>
        <time>2020-10-05T10:23:05.000Z</time>
      </trkpt>
      <trkpt lat="44.00192" lon="5.91976">
        <ele>422</ele>
        <time>2020-10-05T10:23:06.000Z</time>
      </trkpt>
      <trkpt lat="44.00192" lon="5.91976">
        <ele>422</ele>
        <time>2020-10-05T10:23:07.000Z</time>
      </trkpt>
      <trkpt lat="44.00192" lon="5.91976">
        <ele>422</ele>
        <time>2020-10-05T10:23:08.000Z</time>
      </trkpt>
      <trkpt lat="44.00192" lon="5.91976">
        <ele>422</ele>
        <time>2020-10-05T10:23:09.000Z</time>
      </trkpt>
      <trkpt lat="44.00192" lon="5.91976">
        <ele>422</ele>
        <time>2020-10-05T10:23:10.000Z</time>
      </trkpt>
      <trkpt lat="44.00191" lon="5.91977">
        <ele>422</ele>
        <time>2020-10-05T10:23:11.000Z</time>
      </trkpt>
      <trkpt lat="44.0019" lon="5.91976">
        <ele>422</ele>
        <time>2020-10-05T10:23:12.000Z</time>
      </trkpt>
      <trkpt lat="44.0019" lon="5.91976">
        <ele>422</ele>
        <time>2020-10-05T10:23:13.000Z</time>
      </trkpt>
      <trkpt lat="44.0019" lon="5.91975">
        <ele>422</ele>
        <time>2020-10-05T10:23:14.000Z</time>
      </trkpt>
      <trkpt lat="44.00189" lon="5.91975">
        <ele>422</ele>
        <time>2020-10-05T10:23:15.000Z</time>
      </trkpt>
      <trkpt lat="44.00189" lon="5.91975">
        <ele>422</ele>
        <time>2020-10-05T10:23:16.000Z</time>
      </trkpt>
      <trkpt lat="44.00189" lon="5.91975">
        <ele>422</ele>
        <time>2020-10-05T10:23:17.000Z</time>
      </trkpt>
      <trkpt lat="44.00189" lon="5.91975">
        <ele>422</ele>
        <time>2020-10-05T10:23:18.000Z</time>
      </trkpt>
      <trkpt lat="44.00189" lon="5.91975">
        <ele>422</ele>
        <time>2020-10-05T10:23:19.000Z</time>
      </trkpt>
      <trkpt lat="44.00189" lon="5.91975">
        <ele>422</ele>
        <time>2020-10-05T10:23:20.000Z</time>
      </trkpt>
      <trkpt lat="44.00189" lon="5.91975">
        <ele>422</ele>
        <time>2020-10-05T10:23:21.000Z</time>
      </trkpt>
      <trkpt lat="44.00189" lon="5.91975">
        <ele>422</ele>
        <time>2020-10-05T10:23:22.000Z</time>
      </trkpt>
      <trkpt lat="44.00189" lon="5.91975">
        <ele>422</ele>
        <time>2020-10-05T10:23:23.000Z</time>
      </trkpt>
      <trkpt lat="44.00189" lon="5.91975">
        <ele>422</ele>
        <time>2020-10-05T10:23:24.000Z</time>
      </trkpt>
      <trkpt lat="44.00189" lon="5.91975">
        <ele>422</ele>
        <time>2020-10-05T10:23:25.000Z</time>
      </trkpt>
      <trkpt lat="44.00189" lon="5.91975">
        <ele>422</ele>
        <time>2020-10-05T10:23:26.000Z</time>
      </trkpt>
      <trkpt lat="44.00189" lon="5.91975">
        <ele>422</ele>
        <time>2020-10-05T10:23:27.000Z</time>
      </trkpt>
      <trkpt lat="44.00189" lon="5.91975">
        <ele>422</ele>
        <time>2020-10-05T10:23:28.000Z</time>
      </trkpt>
      <trkpt lat="44.00189" lon="5.91975">
        <ele>422</ele>
        <time>2020-10-05T10:23:29.000Z</time>
      </trkpt>
      <trkpt lat="44.00189" lon="5.91975">
        <ele>422</ele>
        <time>2020-10-05T10:23:30.000Z</time>
      </trkpt>
      <trkpt lat="44.00189" lon="5.91975">
        <ele>422</ele>
        <time>2020-10-05T10:23:31.000Z</time>
      </trkpt>
      <trkpt lat="44.00189" lon="5.91975">
        <ele>422</ele>
        <time>2020-10-05T10:23:32.000Z</time>
      </trkpt>
      <trkpt lat="44.00189" lon="5.91975">
        <ele>422</ele>
        <time>2020-10-05T10:23:33.000Z</time>
      </trkpt>
      <trkpt lat="44.00189" lon="5.91975">
        <ele>422</ele>
        <time>2020-10-05T10:23:34.000Z</time>
      </trkpt>
      <trkpt lat="44.00189" lon="5.91975">
        <ele>422</ele>
        <time>2020-10-05T10:23:35.000Z</time>
      </trkpt>
      <trkpt lat="44.00189" lon="5.91975">
        <ele>422</ele>
        <time>2020-10-05T10:23:36.000Z</time>
      </trkpt>
      <trkpt lat="44.00189" lon="5.91975">
        <ele>422</ele>
        <time>2020-10-05T10:23:37.000Z</time>
      </trkpt>
      <trkpt lat="44.00189" lon="5.91975">
        <ele>422</ele>
        <time>2020-10-05T10:23:38.000Z</time>
      </trkpt>
      <trkpt lat="44.00189" lon="5.91975">
        <ele>422</ele>
        <time>2020-10-05T10:23:39.000Z</time>
      </trkpt>
      <trkpt lat="44.00189" lon="5.91975">
        <ele>422</ele>
        <time>2020-10-05T10:23:40.000Z</time>
      </trkpt>
      <trkpt lat="44.00189" lon="5.91974">
        <ele>422</ele>
        <time>2020-10-05T10:23:41.000Z</time>
      </trkpt>
      <trkpt lat="44.00189" lon="5.91974">
        <ele>422</ele>
        <time>2020-10-05T10:23:42.000Z</time>
      </trkpt>
      <trkpt lat="44.00189" lon="5.91974">
        <ele>422</ele>
        <time>2020-10-05T10:23:43.000Z</time>
      </trkpt>
      <trkpt lat="44.00189" lon="5.91974">
        <ele>422</ele>
        <time>2020-10-05T10:23:44.000Z</time>
      </trkpt>
      <trkpt lat="44.00189" lon="5.91973">
        <ele>422</ele>
        <time>2020-10-05T10:23:45.000Z</time>
      </trkpt>
      <trkpt lat="44.00189" lon="5.91973">
        <ele>422</ele>
        <time>2020-10-05T10:23:46.000Z</time>
      </trkpt>
      <trkpt lat="44.00189" lon="5.91973">
        <ele>422</ele>
        <time>2020-10-05T10:23:47.000Z</time>
      </trkpt>
      <trkpt lat="44.00189" lon="5.91973">
        <ele>422</ele>
        <time>2020-10-05T10:23:48.000Z</time>
      </trkpt>
      <trkpt lat="44.00189" lon="5.91973">
        <ele>422</ele>
        <time>2020-10-05T10:23:49.000Z</time>
      </trkpt>
      <trkpt lat="44.00189" lon="5.91973">
        <ele>422</ele>
        <time>2020-10-05T10:23:50.000Z</time>
      </trkpt>
      <trkpt lat="44.00189" lon="5.91972">
        <ele>421</ele>
        <time>2020-10-05T10:23:51.000Z</time>
      </trkpt>
      <trkpt lat="44.00189" lon="5.91972">
        <ele>421</ele>
        <time>2020-10-05T10:23:52.000Z</time>
      </trkpt>
      <trkpt lat="44.00189" lon="5.91972">
        <ele>421</ele>
        <time>2020-10-05T10:23:53.000Z</time>
      </trkpt>
      <trkpt lat="44.0019" lon="5.91972">
        <ele>421</ele>
        <time>2020-10-05T10:23:54.000Z</time>
      </trkpt>
      <trkpt lat="44.0019" lon="5.91972">
        <ele>421</ele>
        <time>2020-10-05T10:23:55.000Z</time>
      </trkpt>
      <trkpt lat="44.0019" lon="5.91972">
        <ele>421</ele>
        <time>2020-10-05T10:23:56.000Z</time>
      </trkpt>
      <trkpt lat="44.0019" lon="5.91972">
        <ele>421</ele>
        <time>2020-10-05T10:23:57.000Z</time>
      </trkpt>
      <trkpt lat="44.0019" lon="5.91972">
        <ele>421</ele>
        <time>2020-10-05T10:23:58.000Z</time>
      </trkpt>
      <trkpt lat="44.0019" lon="5.91972">
        <ele>421</ele>
        <time>2020-10-05T10:23:59.000Z</time>
      </trkpt>
      <trkpt lat="44.0019" lon="5.91971">
        <ele>421</ele>
        <time>2020-10-05T10:24:00.000Z</time>
      </trkpt>
      <trkpt lat="44.0019" lon="5.91971">
        <ele>421</ele>
        <time>2020-10-05T10:24:01.000Z</time>
      </trkpt>
      <trkpt lat="44.0019" lon="5.9197">
        <ele>421</ele>
        <time>2020-10-05T10:24:02.000Z</time>
      </trkpt>
      <trkpt lat="44.0019" lon="5.91969">
        <ele>421</ele>
        <time>2020-10-05T10:24:03.000Z</time>
      </trkpt>
      <trkpt lat="44.0019" lon="5.91969">
        <ele>421</ele>
        <time>2020-10-05T10:24:04.000Z</time>
      </trkpt>
      <trkpt lat="44.0019" lon="5.91968">
        <ele>421</ele>
        <time>2020-10-05T10:24:05.000Z</time>
      </trkpt>
      <trkpt lat="44.00191" lon="5.91967">
        <ele>421</ele>
        <time>2020-10-05T10:24:06.000Z</time>
      </trkpt>
      <trkpt lat="44.00191" lon="5.91967">
        <ele>421</ele>
        <time>2020-10-05T10:24:07.000Z</time>
      </trkpt>
      <trkpt lat="44.00192" lon="5.91966">
        <ele>421</ele>
        <time>2020-10-05T10:24:08.000Z</time>
      </trkpt>
      <trkpt lat="44.00192" lon="5.91966">
        <ele>421</ele>
        <time>2020-10-05T10:24:09.000Z</time>
      </trkpt>
      <trkpt lat="44.00193" lon="5.91965">
        <ele>421</ele>
        <time>2020-10-05T10:24:10.000Z</time>
      </trkpt>
      <trkpt lat="44.00193" lon="5.91965">
        <ele>421</ele>
        <time>2020-10-05T10:24:11.000Z</time>
      </trkpt>
      <trkpt lat="44.00193" lon="5.91965">
        <ele>421</ele>
        <time>2020-10-05T10:24:12.000Z</time>
      </trkpt>
      <trkpt lat="44.00193" lon="5.91964">
        <ele>421</ele>
        <time>2020-10-05T10:24:13.000Z</time>
      </trkpt>
      <trkpt lat="44.00193" lon="5.91964">
        <ele>421</ele>
        <time>2020-10-05T10:24:14.000Z</time>
      </trkpt>
      <trkpt lat="44.00193" lon="5.91964">
        <ele>421</ele>
        <time>2020-10-05T10:24:15.000Z</time>
      </trkpt>
      <trkpt lat="44.00193" lon="5.91964">
        <ele>421</ele>
        <time>2020-10-05T10:24:16.000Z</time>
      </trkpt>
      <trkpt lat="44.00193" lon="5.91965">
        <ele>421</ele>
        <time>2020-10-05T10:24:17.000Z</time>
      </trkpt>
      <trkpt lat="44.00193" lon="5.91965">
        <ele>422</ele>
        <time>2020-10-05T10:24:18.000Z</time>
      </trkpt>
      <trkpt lat="44.00193" lon="5.91964">
        <ele>422</ele>
        <time>2020-10-05T10:24:19.000Z</time>
      </trkpt>
      <trkpt lat="44.00193" lon="5.91964">
        <ele>422</ele>
        <time>2020-10-05T10:24:20.000Z</time>
      </trkpt>
      <trkpt lat="44.00193" lon="5.91964">
        <ele>422</ele>
        <time>2020-10-05T10:24:21.000Z</time>
      </trkpt>
      <trkpt lat="44.00193" lon="5.91964">
        <ele>422</ele>
        <time>2020-10-05T10:24:22.000Z</time>
      </trkpt>
      <trkpt lat="44.00193" lon="5.91963">
        <ele>422</ele>
        <time>2020-10-05T10:24:23.000Z</time>
      </trkpt>
      <trkpt lat="44.00193" lon="5.91963">
        <ele>422</ele>
        <time>2020-10-05T10:24:24.000Z</time>
      </trkpt>
      <trkpt lat="44.00193" lon="5.91963">
        <ele>422</ele>
        <time>2020-10-05T10:24:25.000Z</time>
      </trkpt>
      <trkpt lat="44.00193" lon="5.91963">
        <ele>422</ele>
        <time>2020-10-05T10:24:26.000Z</time>
      </trkpt>
      <trkpt lat="44.00193" lon="5.91963">
        <ele>422</ele>
        <time>2020-10-05T10:24:27.000Z</time>
      </trkpt>
      <trkpt lat="44.00193" lon="5.91963">
        <ele>422</ele>
        <time>2020-10-05T10:24:28.000Z</time>
      </trkpt>
      <trkpt lat="44.00193" lon="5.91963">
        <ele>422</ele>
        <time>2020-10-05T10:24:29.000Z</time>
      </trkpt>
      <trkpt lat="44.00192" lon="5.91963">
        <ele>422</ele>
        <time>2020-10-05T10:24:30.000Z</time>
      </trkpt>
      <trkpt lat="44.00192" lon="5.91963">
        <ele>422</ele>
        <time>2020-10-05T10:24:31.000Z</time>
      </trkpt>
      <trkpt lat="44.00192" lon="5.91963">
        <ele>423</ele>
        <time>2020-10-05T10:24:32.000Z</time>
      </trkpt>
      <trkpt lat="44.00191" lon="5.91962">
        <ele>423</ele>
        <time>2020-10-05T10:24:33.000Z</time>
      </trkpt>
      <trkpt lat="44.00191" lon="5.91961">
        <ele>423</ele>
        <time>2020-10-05T10:24:34.000Z</time>
      </trkpt>
      <trkpt lat="44.00191" lon="5.91961">
        <ele>423</ele>
        <time>2020-10-05T10:24:35.000Z</time>
      </trkpt>
      <trkpt lat="44.0019" lon="5.9196">
        <ele>423</ele>
        <time>2020-10-05T10:24:36.000Z</time>
      </trkpt>
      <trkpt lat="44.0019" lon="5.91959">
        <ele>423</ele>
        <time>2020-10-05T10:24:37.000Z</time>
      </trkpt>
      <trkpt lat="44.00189" lon="5.91959">
        <ele>422</ele>
        <time>2020-10-05T10:24:38.000Z</time>
      </trkpt>
      <trkpt lat="44.00188" lon="5.91958">
        <ele>422</ele>
        <time>2020-10-05T10:24:39.000Z</time>
      </trkpt>
      <trkpt lat="44.00188" lon="5.91958">
        <ele>422</ele>
        <time>2020-10-05T10:24:40.000Z</time>
      </trkpt>
      <trkpt lat="44.00187" lon="5.91957">
        <ele>422</ele>
        <time>2020-10-05T10:24:41.000Z</time>
      </trkpt>
      <trkpt lat="44.00187" lon="5.91956">
        <ele>422</ele>
        <time>2020-10-05T10:24:42.000Z</time>
      </trkpt>
      <trkpt lat="44.00186" lon="5.91956">
        <ele>422</ele>
        <time>2020-10-05T10:24:43.000Z</time>
      </trkpt>
      <trkpt lat="44.00186" lon="5.91956">
        <ele>422</ele>
        <time>2020-10-05T10:24:44.000Z</time>
      </trkpt>
      <trkpt lat="44.00185" lon="5.91955">
        <ele>422</ele>
        <time>2020-10-05T10:24:45.000Z</time>
      </trkpt>
      <trkpt lat="44.00185" lon="5.91955">
        <ele>422</ele>
        <time>2020-10-05T10:24:46.000Z</time>
      </trkpt>
      <trkpt lat="44.00184" lon="5.91954">
        <ele>422</ele>
        <time>2020-10-05T10:24:47.000Z</time>
      </trkpt>
      <trkpt lat="44.00184" lon="5.91954">
        <ele>422</ele>
        <time>2020-10-05T10:24:48.000Z</time>
      </trkpt>
      <trkpt lat="44.00183" lon="5.91954">
        <ele>423</ele>
        <time>2020-10-05T10:24:49.000Z</time>
      </trkpt>
      <trkpt lat="44.00183" lon="5.91954">
        <ele>423</ele>
        <time>2020-10-05T10:24:50.000Z</time>
      </trkpt>
      <trkpt lat="44.00183" lon="5.91954">
        <ele>423</ele>
        <time>2020-10-05T10:24:51.000Z</time>
      </trkpt>
      <trkpt lat="44.00182" lon="5.91954">
        <ele>423</ele>
        <time>2020-10-05T10:24:52.000Z</time>
      </trkpt>
      <trkpt lat="44.00182" lon="5.91954">
        <ele>423</ele>
        <time>2020-10-05T10:24:53.000Z</time>
      </trkpt>
      <trkpt lat="44.00182" lon="5.91954">
        <ele>423</ele>
        <time>2020-10-05T10:24:54.000Z</time>
      </trkpt>
      <trkpt lat="44.00182" lon="5.91954">
        <ele>423</ele>
        <time>2020-10-05T10:24:55.000Z</time>
      </trkpt>
      <trkpt lat="44.00181" lon="5.91954">
        <ele>423</ele>
        <time>2020-10-05T10:24:56.000Z</time>
      </trkpt>
      <trkpt lat="44.00181" lon="5.91954">
        <ele>423</ele>
        <time>2020-10-05T10:24:57.000Z</time>
      </trkpt>
      <trkpt lat="44.00181" lon="5.91953">
        <ele>423</ele>
        <time>2020-10-05T10:24:58.000Z</time>
      </trkpt>
      <trkpt lat="44.00181" lon="5.91953">
        <ele>423</ele>
        <time>2020-10-05T10:24:59.000Z</time>
      </trkpt>
      <trkpt lat="44.0018" lon="5.91953">
        <ele>423</ele>
        <time>2020-10-05T10:25:00.000Z</time>
      </trkpt>
      <trkpt lat="44.0018" lon="5.91952">
        <ele>423</ele>
        <time>2020-10-05T10:25:01.000Z</time>
      </trkpt>
      <trkpt lat="44.00179" lon="5.91952">
        <ele>423</ele>
        <time>2020-10-05T10:25:02.000Z</time>
      </trkpt>
      <trkpt lat="44.00179" lon="5.91951">
        <ele>423</ele>
        <time>2020-10-05T10:25:03.000Z</time>
      </trkpt>
      <trkpt lat="44.00178" lon="5.91951">
        <ele>423</ele>
        <time>2020-10-05T10:25:04.000Z</time>
      </trkpt>
      <trkpt lat="44.00177" lon="5.91951">
        <ele>423</ele>
        <time>2020-10-05T10:25:05.000Z</time>
      </trkpt>
      <trkpt lat="44.00176" lon="5.91951">
        <ele>423</ele>
        <time>2020-10-05T10:25:06.000Z</time>
      </trkpt>
      <trkpt lat="44.00175" lon="5.91951">
        <ele>423</ele>
        <time>2020-10-05T10:25:07.000Z</time>
      </trkpt>
      <trkpt lat="44.00174" lon="5.91951">
        <ele>423</ele>
        <time>2020-10-05T10:25:08.000Z</time>
      </trkpt>
      <trkpt lat="44.00173" lon="5.9195">
        <ele>423</ele>
        <time>2020-10-05T10:25:09.000Z</time>
      </trkpt>
      <trkpt lat="44.00172" lon="5.9195">
        <ele>423</ele>
        <time>2020-10-05T10:25:10.000Z</time>
      </trkpt>
      <trkpt lat="44.00172" lon="5.91949">
        <ele>423</ele>
        <time>2020-10-05T10:25:11.000Z</time>
      </trkpt>
      <trkpt lat="44.00171" lon="5.91949">
        <ele>423</ele>
        <time>2020-10-05T10:25:12.000Z</time>
      </trkpt>
      <trkpt lat="44.0017" lon="5.91949">
        <ele>423</ele>
        <time>2020-10-05T10:25:13.000Z</time>
      </trkpt>
      <trkpt lat="44.00169" lon="5.91949">
        <ele>423</ele>
        <time>2020-10-05T10:25:14.000Z</time>
      </trkpt>
      <trkpt lat="44.00168" lon="5.91949">
        <ele>423</ele>
        <time>2020-10-05T10:25:15.000Z</time>
      </trkpt>
      <trkpt lat="44.00167" lon="5.91949">
        <ele>423</ele>
        <time>2020-10-05T10:25:16.000Z</time>
      </trkpt>
      <trkpt lat="44.00166" lon="5.91948">
        <ele>423</ele>
        <time>2020-10-05T10:25:17.000Z</time>
      </trkpt>
      <trkpt lat="44.00166" lon="5.91948">
        <ele>423</ele>
        <time>2020-10-05T10:25:18.000Z</time>
      </trkpt>
      <trkpt lat="44.00166" lon="5.91948">
        <ele>423</ele>
        <time>2020-10-05T10:25:19.000Z</time>
      </trkpt>
      <trkpt lat="44.00165" lon="5.91948">
        <ele>423</ele>
        <time>2020-10-05T10:25:20.000Z</time>
      </trkpt>
      <trkpt lat="44.00165" lon="5.91948">
        <ele>423</ele>
        <time>2020-10-05T10:25:21.000Z</time>
      </trkpt>
      <trkpt lat="44.00165" lon="5.91948">
        <ele>423</ele>
        <time>2020-10-05T10:25:22.000Z</time>
      </trkpt>
      <trkpt lat="44.00165" lon="5.91948">
        <ele>424</ele>
        <time>2020-10-05T10:25:23.000Z</time>
      </trkpt>
      <trkpt lat="44.00165" lon="5.91948">
        <ele>424</ele>
        <time>2020-10-05T10:25:24.000Z</time>
      </trkpt>
      <trkpt lat="44.00165" lon="5.91948">
        <ele>424</ele>
        <time>2020-10-05T10:25:25.000Z</time>
      </trkpt>
      <trkpt lat="44.00165" lon="5.91948">
        <ele>424</ele>
        <time>2020-10-05T10:25:26.000Z</time>
      </trkpt>
      <trkpt lat="44.00165" lon="5.91948">
        <ele>424</ele>
        <time>2020-10-05T10:25:27.000Z</time>
      </trkpt>
      <trkpt lat="44.00165" lon="5.91948">
        <ele>424</ele>
        <time>2020-10-05T10:25:28.000Z</time>
      </trkpt>
      <trkpt lat="44.00164" lon="5.91947">
        <ele>424</ele>
        <time>2020-10-05T10:25:29.000Z</time>
      </trkpt>
      <trkpt lat="44.00164" lon="5.91947">
        <ele>424</ele>
        <time>2020-10-05T10:25:30.000Z</time>
      </trkpt>
      <trkpt lat="44.00164" lon="5.91947">
        <ele>424</ele>
        <time>2020-10-05T10:25:31.000Z</time>
      </trkpt>
      <trkpt lat="44.00164" lon="5.91946">
        <ele>424</ele>
        <time>2020-10-05T10:25:32.000Z</time>
      </trkpt>
      <trkpt lat="44.00164" lon="5.91947">
        <ele>424</ele>
        <time>2020-10-05T10:25:33.000Z</time>
      </trkpt>
      <trkpt lat="44.00164" lon="5.91947">
        <ele>424</ele>
        <time>2020-10-05T10:25:34.000Z</time>
      </trkpt>
      <trkpt lat="44.00164" lon="5.91947">
        <ele>424</ele>
        <time>2020-10-05T10:25:35.000Z</time>
      </trkpt>
      <trkpt lat="44.00164" lon="5.91946">
        <ele>424</ele>
        <time>2020-10-05T10:25:36.000Z</time>
      </trkpt>
      <trkpt lat="44.00164" lon="5.91946">
        <ele>424</ele>
        <time>2020-10-05T10:25:37.000Z</time>
      </trkpt>
      <trkpt lat="44.00163" lon="5.91947">
        <ele>424</ele>
        <time>2020-10-05T10:25:38.000Z</time>
      </trkpt>
      <trkpt lat="44.00163" lon="5.91947">
        <ele>424</ele>
        <time>2020-10-05T10:25:39.000Z</time>
      </trkpt>
      <trkpt lat="44.00163" lon="5.91947">
        <ele>424</ele>
        <time>2020-10-05T10:25:40.000Z</time>
      </trkpt>
      <trkpt lat="44.00163" lon="5.91947">
        <ele>424</ele>
        <time>2020-10-05T10:25:41.000Z</time>
      </trkpt>
      <trkpt lat="44.00163" lon="5.91947">
        <ele>424</ele>
        <time>2020-10-05T10:25:42.000Z</time>
      </trkpt>
      <trkpt lat="44.00163" lon="5.91947">
        <ele>425</ele>
        <time>2020-10-05T10:25:43.000Z</time>
      </trkpt>
      <trkpt lat="44.00163" lon="5.91947">
        <ele>425</ele>
        <time>2020-10-05T10:25:44.000Z</time>
      </trkpt>
      <trkpt lat="44.00163" lon="5.91947">
        <ele>425</ele>
        <time>2020-10-05T10:25:45.000Z</time>
      </trkpt>
      <trkpt lat="44.00163" lon="5.91947">
        <ele>425</ele>
        <time>2020-10-05T10:25:46.000Z</time>
      </trkpt>
      <trkpt lat="44.00163" lon="5.91947">
        <ele>425</ele>
        <time>2020-10-05T10:25:47.000Z</time>
      </trkpt>
      <trkpt lat="44.00163" lon="5.91946">
        <ele>425</ele>
        <time>2020-10-05T10:25:48.000Z</time>
      </trkpt>
      <trkpt lat="44.00163" lon="5.91946">
        <ele>425</ele>
        <time>2020-10-05T10:25:49.000Z</time>
      </trkpt>
      <trkpt lat="44.00162" lon="5.91946">
        <ele>425</ele>
        <time>2020-10-05T10:25:50.000Z</time>
      </trkpt>
      <trkpt lat="44.00162" lon="5.91946">
        <ele>425</ele>
        <time>2020-10-05T10:25:51.000Z</time>
      </trkpt>
      <trkpt lat="44.00163" lon="5.91946">
        <ele>425</ele>
        <time>2020-10-05T10:25:52.000Z</time>
      </trkpt>
      <trkpt lat="44.00163" lon="5.91946">
        <ele>425</ele>
        <time>2020-10-05T10:25:53.000Z</time>
      </trkpt>
      <trkpt lat="44.00163" lon="5.91946">
        <ele>425</ele>
        <time>2020-10-05T10:25:54.000Z</time>
      </trkpt>
      <trkpt lat="44.00163" lon="5.91945">
        <ele>425</ele>
        <time>2020-10-05T10:25:55.000Z</time>
      </trkpt>
      <trkpt lat="44.00163" lon="5.91945">
        <ele>425</ele>
        <time>2020-10-05T10:25:56.000Z</time>
      </trkpt>
      <trkpt lat="44.00163" lon="5.91945">
        <ele>425</ele>
        <time>2020-10-05T10:25:57.000Z</time>
      </trkpt>
      <trkpt lat="44.00163" lon="5.91945">
        <ele>425</ele>
        <time>2020-10-05T10:25:58.000Z</time>
      </trkpt>
      <trkpt lat="44.00163" lon="5.91945">
        <ele>425</ele>
        <time>2020-10-05T10:25:59.000Z</time>
      </trkpt>
      <trkpt lat="44.00163" lon="5.91945">
        <ele>425</ele>
        <time>2020-10-05T10:26:00.000Z</time>
      </trkpt>
      <trkpt lat="44.00163" lon="5.91945">
        <ele>425</ele>
        <time>2020-10-05T10:26:01.000Z</time>
      </trkpt>
      <trkpt lat="44.00163" lon="5.91945">
        <ele>425</ele>
        <time>2020-10-05T10:26:02.000Z</time>
      </trkpt>
      <trkpt lat="44.00163" lon="5.91944">
        <ele>426</ele>
        <time>2020-10-05T10:26:03.000Z</time>
      </trkpt>
      <trkpt lat="44.00164" lon="5.91943">
        <ele>426</ele>
        <time>2020-10-05T10:26:04.000Z</time>
      </trkpt>
      <trkpt lat="44.00164" lon="5.91942">
        <ele>426</ele>
        <time>2020-10-05T10:26:05.000Z</time>
      </trkpt>
      <trkpt lat="44.00164" lon="5.91942">
        <ele>426</ele>
        <time>2020-10-05T10:26:06.000Z</time>
      </trkpt>
      <trkpt lat="44.00164" lon="5.91941">
        <ele>426</ele>
        <time>2020-10-05T10:26:07.000Z</time>
      </trkpt>
      <trkpt lat="44.00163" lon="5.9194">
        <ele>426</ele>
        <time>2020-10-05T10:26:08.000Z</time>
      </trkpt>
      <trkpt lat="44.00163" lon="5.9194">
        <ele>426</ele>
        <time>2020-10-05T10:26:09.000Z</time>
      </trkpt>
      <trkpt lat="44.00163" lon="5.91939">
        <ele>426</ele>
        <time>2020-10-05T10:26:10.000Z</time>
      </trkpt>
      <trkpt lat="44.00162" lon="5.91938">
        <ele>426</ele>
        <time>2020-10-05T10:26:11.000Z</time>
      </trkpt>
      <trkpt lat="44.00162" lon="5.91937">
        <ele>426</ele>
        <time>2020-10-05T10:26:12.000Z</time>
      </trkpt>
      <trkpt lat="44.00162" lon="5.91937">
        <ele>426</ele>
        <time>2020-10-05T10:26:13.000Z</time>
      </trkpt>
      <trkpt lat="44.00162" lon="5.91937">
        <ele>426</ele>
        <time>2020-10-05T10:26:14.000Z</time>
      </trkpt>
      <trkpt lat="44.00162" lon="5.91937">
        <ele>426</ele>
        <time>2020-10-05T10:26:15.000Z</time>
      </trkpt>
      <trkpt lat="44.00162" lon="5.91937">
        <ele>426</ele>
        <time>2020-10-05T10:26:16.000Z</time>
      </trkpt>
      <trkpt lat="44.00162" lon="5.91937">
        <ele>426</ele>
        <time>2020-10-05T10:26:17.000Z</time>
      </trkpt>
      <trkpt lat="44.00162" lon="5.91937">
        <ele>426</ele>
        <time>2020-10-05T10:26:18.000Z</time>
      </trkpt>
      <trkpt lat="44.00162" lon="5.91936">
        <ele>426</ele>
        <time>2020-10-05T10:26:19.000Z</time>
      </trkpt>
      <trkpt lat="44.00162" lon="5.91936">
        <ele>426</ele>
        <time>2020-10-05T10:26:20.000Z</time>
      </trkpt>
      <trkpt lat="44.00162" lon="5.91935">
        <ele>426</ele>
        <time>2020-10-05T10:26:21.000Z</time>
      </trkpt>
      <trkpt lat="44.00161" lon="5.91935">
        <ele>426</ele>
        <time>2020-10-05T10:26:22.000Z</time>
      </trkpt>
      <trkpt lat="44.00161" lon="5.91935">
        <ele>426</ele>
        <time>2020-10-05T10:26:23.000Z</time>
      </trkpt>
      <trkpt lat="44.00161" lon="5.91935">
        <ele>426</ele>
        <time>2020-10-05T10:26:24.000Z</time>
      </trkpt>
      <trkpt lat="44.00161" lon="5.91935">
        <ele>426</ele>
        <time>2020-10-05T10:26:25.000Z</time>
      </trkpt>
      <trkpt lat="44.00161" lon="5.91935">
        <ele>426</ele>
        <time>2020-10-05T10:26:26.000Z</time>
      </trkpt>
      <trkpt lat="44.00161" lon="5.91935">
        <ele>426</ele>
        <time>2020-10-05T10:26:27.000Z</time>
      </trkpt>
      <trkpt lat="44.00161" lon="5.91935">
        <ele>426</ele>
        <time>2020-10-05T10:26:28.000Z</time>
      </trkpt>
      <trkpt lat="44.00161" lon="5.91934">
        <ele>426</ele>
        <time>2020-10-05T10:26:29.000Z</time>
      </trkpt>
      <trkpt lat="44.00161" lon="5.91934">
        <ele>426</ele>
        <time>2020-10-05T10:26:30.000Z</time>
      </trkpt>
      <trkpt lat="44.00161" lon="5.91934">
        <ele>426</ele>
        <time>2020-10-05T10:26:31.000Z</time>
      </trkpt>
      <trkpt lat="44.00161" lon="5.91934">
        <ele>426</ele>
        <time>2020-10-05T10:26:32.000Z</time>
      </trkpt>
      <trkpt lat="44.00162" lon="5.91935">
        <ele>426</ele>
        <time>2020-10-05T10:26:33.000Z</time>
      </trkpt>
      <trkpt lat="44.00162" lon="5.91934">
        <ele>426</ele>
        <time>2020-10-05T10:26:34.000Z</time>
      </trkpt>
      <trkpt lat="44.00162" lon="5.91934">
        <ele>426</ele>
        <time>2020-10-05T10:26:35.000Z</time>
      </trkpt>
      <trkpt lat="44.00162" lon="5.91934">
        <ele>426</ele>
        <time>2020-10-05T10:26:36.000Z</time>
      </trkpt>
      <trkpt lat="44.00162" lon="5.91934">
        <ele>426</ele>
        <time>2020-10-05T10:26:37.000Z</time>
      </trkpt>
      <trkpt lat="44.00162" lon="5.91934">
        <ele>426</ele>
        <time>2020-10-05T10:26:38.000Z</time>
      </trkpt>
      <trkpt lat="44.00162" lon="5.91934">
        <ele>426</ele>
        <time>2020-10-05T10:26:39.000Z</time>
      </trkpt>
      <trkpt lat="44.00162" lon="5.91934">
        <ele>426</ele>
        <time>2020-10-05T10:26:40.000Z</time>
      </trkpt>
      <trkpt lat="44.00162" lon="5.91934">
        <ele>426</ele>
        <time>2020-10-05T10:26:41.000Z</time>
      </trkpt>
      <trkpt lat="44.00162" lon="5.91934">
        <ele>426</ele>
        <time>2020-10-05T10:26:42.000Z</time>
      </trkpt>
      <trkpt lat="44.00162" lon="5.91934">
        <ele>426</ele>
        <time>2020-10-05T10:26:43.000Z</time>
      </trkpt>
      <trkpt lat="44.00162" lon="5.91933">
        <ele>426</ele>
        <time>2020-10-05T10:26:44.000Z</time>
      </trkpt>
      <trkpt lat="44.00162" lon="5.91933">
        <ele>426</ele>
        <time>2020-10-05T10:26:45.000Z</time>
      </trkpt>
      <trkpt lat="44.00162" lon="5.91933">
        <ele>426</ele>
        <time>2020-10-05T10:26:46.000Z</time>
      </trkpt>
      <trkpt lat="44.00162" lon="5.91933">
        <ele>426</ele>
        <time>2020-10-05T10:26:47.000Z</time>
      </trkpt>
      <trkpt lat="44.00162" lon="5.91933">
        <ele>426</ele>
        <time>2020-10-05T10:26:48.000Z</time>
      </trkpt>
      <trkpt lat="44.00163" lon="5.91932">
        <ele>426</ele>
        <time>2020-10-05T10:26:49.000Z</time>
      </trkpt>
      <trkpt lat="44.00162" lon="5.91932">
        <ele>426</ele>
        <time>2020-10-05T10:26:50.000Z</time>
      </trkpt>
      <trkpt lat="44.00162" lon="5.91932">
        <ele>426</ele>
        <time>2020-10-05T10:26:51.000Z</time>
      </trkpt>
      <trkpt lat="44.00162" lon="5.91932">
        <ele>426</ele>
        <time>2020-10-05T10:26:52.000Z</time>
      </trkpt>
      <trkpt lat="44.00162" lon="5.91932">
        <ele>426</ele>
        <time>2020-10-05T10:26:53.000Z</time>
      </trkpt>
      <trkpt lat="44.00162" lon="5.91931">
        <ele>426</ele>
        <time>2020-10-05T10:26:54.000Z</time>
      </trkpt>
      <trkpt lat="44.00163" lon="5.91931">
        <ele>426</ele>
        <time>2020-10-05T10:26:55.000Z</time>
      </trkpt>
      <trkpt lat="44.00162" lon="5.91931">
        <ele>426</ele>
        <time>2020-10-05T10:26:56.000Z</time>
      </trkpt>
      <trkpt lat="44.00162" lon="5.91931">
        <ele>426</ele>
        <time>2020-10-05T10:26:57.000Z</time>
      </trkpt>
      <trkpt lat="44.00162" lon="5.91931">
        <ele>426</ele>
        <time>2020-10-05T10:26:58.000Z</time>
      </trkpt>
      <trkpt lat="44.00162" lon="5.91931">
        <ele>426</ele>
        <time>2020-10-05T10:26:59.000Z</time>
      </trkpt>
      <trkpt lat="44.00162" lon="5.91931">
        <ele>426</ele>
        <time>2020-10-05T10:27:00.000Z</time>
      </trkpt>
      <trkpt lat="44.00162" lon="5.9193">
        <ele>426</ele>
        <time>2020-10-05T10:27:01.000Z</time>
      </trkpt>
      <trkpt lat="44.00162" lon="5.9193">
        <ele>427</ele>
        <time>2020-10-05T10:27:02.000Z</time>
      </trkpt>
      <trkpt lat="44.00162" lon="5.9193">
        <ele>427</ele>
        <time>2020-10-05T10:27:03.000Z</time>
      </trkpt>
      <trkpt lat="44.00162" lon="5.9193">
        <ele>427</ele>
        <time>2020-10-05T10:27:04.000Z</time>
      </trkpt>
      <trkpt lat="44.00162" lon="5.9193">
        <ele>427</ele>
        <time>2020-10-05T10:27:05.000Z</time>
      </trkpt>
      <trkpt lat="44.00162" lon="5.91929">
        <ele>427</ele>
        <time>2020-10-05T10:27:06.000Z</time>
      </trkpt>
      <trkpt lat="44.00162" lon="5.91929">
        <ele>427</ele>
        <time>2020-10-05T10:27:07.000Z</time>
      </trkpt>
      <trkpt lat="44.00162" lon="5.91929">
        <ele>427</ele>
        <time>2020-10-05T10:27:08.000Z</time>
      </trkpt>
      <trkpt lat="44.00163" lon="5.91929">
        <ele>427</ele>
        <time>2020-10-05T10:27:09.000Z</time>
      </trkpt>
      <trkpt lat="44.00163" lon="5.91929">
        <ele>427</ele>
        <time>2020-10-05T10:27:10.000Z</time>
      </trkpt>
      <trkpt lat="44.00163" lon="5.91929">
        <ele>427</ele>
        <time>2020-10-05T10:27:11.000Z</time>
      </trkpt>
      <trkpt lat="44.00163" lon="5.91929">
        <ele>427</ele>
        <time>2020-10-05T10:27:12.000Z</time>
      </trkpt>
      <trkpt lat="44.00163" lon="5.91928">
        <ele>427</ele>
        <time>2020-10-05T10:27:13.000Z</time>
      </trkpt>
      <trkpt lat="44.00163" lon="5.91928">
        <ele>427</ele>
        <time>2020-10-05T10:27:14.000Z</time>
      </trkpt>
      <trkpt lat="44.00163" lon="5.91928">
        <ele>427</ele>
        <time>2020-10-05T10:27:15.000Z</time>
      </trkpt>
      <trkpt lat="44.00163" lon="5.91928">
        <ele>427</ele>
        <time>2020-10-05T10:27:16.000Z</time>
      </trkpt>
      <trkpt lat="44.00163" lon="5.91928">
        <ele>427</ele>
        <time>2020-10-05T10:27:17.000Z</time>
      </trkpt>
      <trkpt lat="44.00163" lon="5.91928">
        <ele>427</ele>
        <time>2020-10-05T10:27:18.000Z</time>
      </trkpt>
      <trkpt lat="44.00163" lon="5.91928">
        <ele>427</ele>
        <time>2020-10-05T10:27:19.000Z</time>
      </trkpt>
      <trkpt lat="44.00164" lon="5.91928">
        <ele>427</ele>
        <time>2020-10-05T10:27:20.000Z</time>
      </trkpt>
      <trkpt lat="44.00164" lon="5.91928">
        <ele>427</ele>
        <time>2020-10-05T10:27:21.000Z</time>
      </trkpt>
      <trkpt lat="44.00164" lon="5.91928">
        <ele>427</ele>
        <time>2020-10-05T10:27:22.000Z</time>
      </trkpt>
      <trkpt lat="44.00164" lon="5.91928">
        <ele>427</ele>
        <time>2020-10-05T10:27:23.000Z</time>
      </trkpt>
      <trkpt lat="44.00164" lon="5.91927">
        <ele>427</ele>
        <time>2020-10-05T10:27:24.000Z</time>
      </trkpt>
      <trkpt lat="44.00165" lon="5.91928">
        <ele>427</ele>
        <time>2020-10-05T10:27:25.000Z</time>
      </trkpt>
      <trkpt lat="44.00165" lon="5.91928">
        <ele>427</ele>
        <time>2020-10-05T10:27:26.000Z</time>
      </trkpt>
      <trkpt lat="44.00166" lon="5.91928">
        <ele>427</ele>
        <time>2020-10-05T10:27:27.000Z</time>
      </trkpt>
      <trkpt lat="44.00166" lon="5.91928">
        <ele>427</ele>
        <time>2020-10-05T10:27:28.000Z</time>
      </trkpt>
      <trkpt lat="44.00166" lon="5.91928">
        <ele>427</ele>
        <time>2020-10-05T10:27:29.000Z</time>
      </trkpt>
      <trkpt lat="44.00167" lon="5.91928">
        <ele>427</ele>
        <time>2020-10-05T10:27:30.000Z</time>
      </trkpt>
      <trkpt lat="44.00167" lon="5.91928">
        <ele>427</ele>
        <time>2020-10-05T10:27:31.000Z</time>
      </trkpt>
      <trkpt lat="44.00167" lon="5.91928">
        <ele>427</ele>
        <time>2020-10-05T10:27:32.000Z</time>
      </trkpt>
      <trkpt lat="44.00167" lon="5.91928">
        <ele>427</ele>
        <time>2020-10-05T10:27:33.000Z</time>
      </trkpt>
      <trkpt lat="44.00167" lon="5.91928">
        <ele>428</ele>
        <time>2020-10-05T10:27:34.000Z</time>
      </trkpt>
      <trkpt lat="44.00167" lon="5.91928">
        <ele>428</ele>
        <time>2020-10-05T10:27:35.000Z</time>
      </trkpt>
      <trkpt lat="44.00167" lon="5.91928">
        <ele>428</ele>
        <time>2020-10-05T10:27:36.000Z</time>
      </trkpt>
      <trkpt lat="44.00167" lon="5.91928">
        <ele>428</ele>
        <time>2020-10-05T10:27:37.000Z</time>
      </trkpt>
      <trkpt lat="44.00167" lon="5.91927">
        <ele>428</ele>
        <time>2020-10-05T10:27:38.000Z</time>
      </trkpt>
      <trkpt lat="44.00167" lon="5.91927">
        <ele>428</ele>
        <time>2020-10-05T10:27:39.000Z</time>
      </trkpt>
      <trkpt lat="44.00167" lon="5.91927">
        <ele>428</ele>
        <time>2020-10-05T10:27:40.000Z</time>
      </trkpt>
      <trkpt lat="44.00168" lon="5.91927">
        <ele>428</ele>
        <time>2020-10-05T10:27:41.000Z</time>
      </trkpt>
      <trkpt lat="44.00168" lon="5.91927">
        <ele>428</ele>
        <time>2020-10-05T10:27:42.000Z</time>
      </trkpt>
      <trkpt lat="44.00168" lon="5.91927">
        <ele>428</ele>
        <time>2020-10-05T10:27:43.000Z</time>
      </trkpt>
      <trkpt lat="44.00168" lon="5.91927">
        <ele>428</ele>
        <time>2020-10-05T10:27:44.000Z</time>
      </trkpt>
      <trkpt lat="44.00168" lon="5.91927">
        <ele>428</ele>
        <time>2020-10-05T10:27:45.000Z</time>
      </trkpt>
      <trkpt lat="44.00168" lon="5.91927">
        <ele>428</ele>
        <time>2020-10-05T10:27:46.000Z</time>
      </trkpt>
      <trkpt lat="44.00168" lon="5.91927">
        <ele>428</ele>
        <time>2020-10-05T10:27:47.000Z</time>
      </trkpt>
      <trkpt lat="44.00168" lon="5.91927">
        <ele>428</ele>
        <time>2020-10-05T10:27:48.000Z</time>
      </trkpt>
      <trkpt lat="44.00168" lon="5.91927">
        <ele>428</ele>
        <time>2020-10-05T10:27:49.000Z</time>
      </trkpt>
      <trkpt lat="44.00168" lon="5.91926">
        <ele>428</ele>
        <time>2020-10-05T10:27:50.000Z</time>
      </trkpt>
      <trkpt lat="44.00168" lon="5.91926">
        <ele>428</ele>
        <time>2020-10-05T10:27:51.000Z</time>
      </trkpt>
      <trkpt lat="44.00168" lon="5.91926">
        <ele>428</ele>
        <time>2020-10-05T10:27:52.000Z</time>
      </trkpt>
      <trkpt lat="44.00168" lon="5.91926">
        <ele>428</ele>
        <time>2020-10-05T10:27:53.000Z</time>
      </trkpt>
      <trkpt lat="44.00168" lon="5.91926">
        <ele>428</ele>
        <time>2020-10-05T10:27:54.000Z</time>
      </trkpt>
      <trkpt lat="44.00169" lon="5.91926">
        <ele>428</ele>
        <time>2020-10-05T10:27:55.000Z</time>
      </trkpt>
      <trkpt lat="44.00169" lon="5.91925">
        <ele>428</ele>
        <time>2020-10-05T10:27:56.000Z</time>
      </trkpt>
      <trkpt lat="44.00169" lon="5.91925">
        <ele>428</ele>
        <time>2020-10-05T10:27:57.000Z</time>
      </trkpt>
      <trkpt lat="44.00169" lon="5.91925">
        <ele>428</ele>
        <time>2020-10-05T10:27:58.000Z</time>
      </trkpt>
      <trkpt lat="44.00169" lon="5.91925">
        <ele>428</ele>
        <time>2020-10-05T10:27:59.000Z</time>
      </trkpt>
      <trkpt lat="44.00169" lon="5.91925">
        <ele>428</ele>
        <time>2020-10-05T10:28:00.000Z</time>
      </trkpt>
      <trkpt lat="44.00169" lon="5.91925">
        <ele>428</ele>
        <time>2020-10-05T10:28:01.000Z</time>
      </trkpt>
      <trkpt lat="44.00169" lon="5.91925">
        <ele>429</ele>
        <time>2020-10-05T10:28:02.000Z</time>
      </trkpt>
      <trkpt lat="44.00169" lon="5.91925">
        <ele>429</ele>
        <time>2020-10-05T10:28:03.000Z</time>
      </trkpt>
      <trkpt lat="44.00169" lon="5.91925">
        <ele>429</ele>
        <time>2020-10-05T10:28:04.000Z</time>
      </trkpt>
      <trkpt lat="44.00169" lon="5.91925">
        <ele>429</ele>
        <time>2020-10-05T10:28:05.000Z</time>
      </trkpt>
      <trkpt lat="44.0017" lon="5.91925">
        <ele>429</ele>
        <time>2020-10-05T10:28:06.000Z</time>
      </trkpt>
      <trkpt lat="44.0017" lon="5.91925">
        <ele>429</ele>
        <time>2020-10-05T10:28:07.000Z</time>
      </trkpt>
      <trkpt lat="44.0017" lon="5.91925">
        <ele>429</ele>
        <time>2020-10-05T10:28:08.000Z</time>
      </trkpt>
      <trkpt lat="44.0017" lon="5.91925">
        <ele>429</ele>
        <time>2020-10-05T10:28:09.000Z</time>
      </trkpt>
      <trkpt lat="44.0017" lon="5.91925">
        <ele>429</ele>
        <time>2020-10-05T10:28:10.000Z</time>
      </trkpt>
      <trkpt lat="44.0017" lon="5.91925">
        <ele>429</ele>
        <time>2020-10-05T10:28:11.000Z</time>
      </trkpt>
      <trkpt lat="44.0017" lon="5.91925">
        <ele>429</ele>
        <time>2020-10-05T10:28:12.000Z</time>
      </trkpt>
      <trkpt lat="44.0017" lon="5.91925">
        <ele>430</ele>
        <time>2020-10-05T10:28:13.000Z</time>
      </trkpt>
      <trkpt lat="44.0017" lon="5.91924">
        <ele>430</ele>
        <time>2020-10-05T10:28:14.000Z</time>
      </trkpt>
      <trkpt lat="44.0017" lon="5.91924">
        <ele>430</ele>
        <time>2020-10-05T10:28:15.000Z</time>
      </trkpt>
      <trkpt lat="44.0017" lon="5.91923">
        <ele>430</ele>
        <time>2020-10-05T10:28:16.000Z</time>
      </trkpt>
      <trkpt lat="44.0017" lon="5.91923">
        <ele>430</ele>
        <time>2020-10-05T10:28:17.000Z</time>
      </trkpt>
      <trkpt lat="44.0017" lon="5.91922">
        <ele>430</ele>
        <time>2020-10-05T10:28:18.000Z</time>
      </trkpt>
      <trkpt lat="44.00169" lon="5.91922">
        <ele>430</ele>
        <time>2020-10-05T10:28:19.000Z</time>
      </trkpt>
      <trkpt lat="44.00169" lon="5.91921">
        <ele>430</ele>
        <time>2020-10-05T10:28:20.000Z</time>
      </trkpt>
      <trkpt lat="44.00168" lon="5.91921">
        <ele>430</ele>
        <time>2020-10-05T10:28:21.000Z</time>
      </trkpt>
      <trkpt lat="44.00168" lon="5.9192">
        <ele>430</ele>
        <time>2020-10-05T10:28:22.000Z</time>
      </trkpt>
      <trkpt lat="44.00168" lon="5.9192">
        <ele>430</ele>
        <time>2020-10-05T10:28:23.000Z</time>
      </trkpt>
      <trkpt lat="44.00168" lon="5.9192">
        <ele>430</ele>
        <time>2020-10-05T10:28:24.000Z</time>
      </trkpt>
      <trkpt lat="44.00168" lon="5.9192">
        <ele>430</ele>
        <time>2020-10-05T10:28:25.000Z</time>
      </trkpt>
      <trkpt lat="44.00168" lon="5.9192">
        <ele>430</ele>
        <time>2020-10-05T10:28:26.000Z</time>
      </trkpt>
      <trkpt lat="44.00168" lon="5.9192">
        <ele>430</ele>
        <time>2020-10-05T10:28:27.000Z</time>
      </trkpt>
      <trkpt lat="44.00167" lon="5.9192">
        <ele>430</ele>
        <time>2020-10-05T10:28:28.000Z</time>
      </trkpt>
      <trkpt lat="44.00167" lon="5.9192">
        <ele>430</ele>
        <time>2020-10-05T10:28:29.000Z</time>
      </trkpt>
      <trkpt lat="44.00166" lon="5.9192">
        <ele>430</ele>
        <time>2020-10-05T10:28:30.000Z</time>
      </trkpt>
      <trkpt lat="44.00166" lon="5.9192">
        <ele>430</ele>
        <time>2020-10-05T10:28:31.000Z</time>
      </trkpt>
      <trkpt lat="44.00166" lon="5.9192">
        <ele>430</ele>
        <time>2020-10-05T10:28:32.000Z</time>
      </trkpt>
      <trkpt lat="44.00166" lon="5.9192">
        <ele>430</ele>
        <time>2020-10-05T10:28:33.000Z</time>
      </trkpt>
      <trkpt lat="44.00166" lon="5.9192">
        <ele>430</ele>
        <time>2020-10-05T10:28:34.000Z</time>
      </trkpt>
      <trkpt lat="44.00166" lon="5.91921">
        <ele>430</ele>
        <time>2020-10-05T10:28:35.000Z</time>
      </trkpt>
      <trkpt lat="44.00166" lon="5.91921">
        <ele>430</ele>
        <time>2020-10-05T10:28:36.000Z</time>
      </trkpt>
      <trkpt lat="44.00166" lon="5.9192">
        <ele>430</ele>
        <time>2020-10-05T10:28:37.000Z</time>
      </trkpt>
      <trkpt lat="44.00167" lon="5.9192">
        <ele>430</ele>
        <time>2020-10-05T10:28:38.000Z</time>
      </trkpt>
      <trkpt lat="44.00167" lon="5.9192">
        <ele>430</ele>
        <time>2020-10-05T10:28:39.000Z</time>
      </trkpt>
      <trkpt lat="44.00167" lon="5.9192">
        <ele>430</ele>
        <time>2020-10-05T10:28:40.000Z</time>
      </trkpt>
      <trkpt lat="44.00167" lon="5.9192">
        <ele>430</ele>
        <time>2020-10-05T10:28:41.000Z</time>
      </trkpt>
      <trkpt lat="44.00167" lon="5.9192">
        <ele>430</ele>
        <time>2020-10-05T10:28:42.000Z</time>
      </trkpt>
      <trkpt lat="44.00167" lon="5.9192">
        <ele>430</ele>
        <time>2020-10-05T10:28:43.000Z</time>
      </trkpt>
      <trkpt lat="44.00167" lon="5.9192">
        <ele>430</ele>
        <time>2020-10-05T10:28:44.000Z</time>
      </trkpt>
      <trkpt lat="44.00167" lon="5.91921">
        <ele>430</ele>
        <time>2020-10-05T10:28:45.000Z</time>
      </trkpt>
      <trkpt lat="44.00167" lon="5.91921">
        <ele>430</ele>
        <time>2020-10-05T10:28:46.000Z</time>
      </trkpt>
      <trkpt lat="44.00168" lon="5.91921">
        <ele>430</ele>
        <time>2020-10-05T10:28:47.000Z</time>
      </trkpt>
      <trkpt lat="44.00168" lon="5.91921">
        <ele>430</ele>
        <time>2020-10-05T10:28:48.000Z</time>
      </trkpt>
      <trkpt lat="44.00168" lon="5.91921">
        <ele>430</ele>
        <time>2020-10-05T10:28:49.000Z</time>
      </trkpt>
      <trkpt lat="44.00168" lon="5.91921">
        <ele>430</ele>
        <time>2020-10-05T10:28:50.000Z</time>
      </trkpt>
      <trkpt lat="44.00168" lon="5.91921">
        <ele>430</ele>
        <time>2020-10-05T10:28:51.000Z</time>
      </trkpt>
      <trkpt lat="44.00168" lon="5.91921">
        <ele>430</ele>
        <time>2020-10-05T10:28:52.000Z</time>
      </trkpt>
      <trkpt lat="44.00168" lon="5.91921">
        <ele>430</ele>
        <time>2020-10-05T10:28:53.000Z</time>
      </trkpt>
      <trkpt lat="44.00168" lon="5.91921">
        <ele>430</ele>
        <time>2020-10-05T10:28:54.000Z</time>
      </trkpt>
      <trkpt lat="44.00168" lon="5.91921">
        <ele>430</ele>
        <time>2020-10-05T10:28:55.000Z</time>
      </trkpt>
      <trkpt lat="44.00168" lon="5.91921">
        <ele>430</ele>
        <time>2020-10-05T10:28:56.000Z</time>
      </trkpt>
      <trkpt lat="44.00168" lon="5.91921">
        <ele>430</ele>
        <time>2020-10-05T10:28:57.000Z</time>
      </trkpt>
      <trkpt lat="44.00168" lon="5.91921">
        <ele>430</ele>
        <time>2020-10-05T10:28:58.000Z</time>
      </trkpt>
      <trkpt lat="44.00168" lon="5.91921">
        <ele>430</ele>
        <time>2020-10-05T10:28:59.000Z</time>
      </trkpt>
      <trkpt lat="44.00168" lon="5.91921">
        <ele>430</ele>
        <time>2020-10-05T10:29:00.000Z</time>
      </trkpt>
      <trkpt lat="44.00168" lon="5.91921">
        <ele>430</ele>
        <time>2020-10-05T10:29:01.000Z</time>
      </trkpt>
      <trkpt lat="44.00168" lon="5.91921">
        <ele>430</ele>
        <time>2020-10-05T10:29:02.000Z</time>
      </trkpt>
      <trkpt lat="44.00169" lon="5.91921">
        <ele>430</ele>
        <time>2020-10-05T10:29:03.000Z</time>
      </trkpt>
      <trkpt lat="44.00169" lon="5.91921">
        <ele>430</ele>
        <time>2020-10-05T10:29:04.000Z</time>
      </trkpt>
      <trkpt lat="44.00169" lon="5.91921">
        <ele>430</ele>
        <time>2020-10-05T10:29:05.000Z</time>
      </trkpt>
      <trkpt lat="44.00169" lon="5.91921">
        <ele>430</ele>
        <time>2020-10-05T10:29:06.000Z</time>
      </trkpt>
      <trkpt lat="44.00169" lon="5.91921">
        <ele>430</ele>
        <time>2020-10-05T10:29:07.000Z</time>
      </trkpt>
      <trkpt lat="44.00169" lon="5.91921">
        <ele>430</ele>
        <time>2020-10-05T10:29:08.000Z</time>
      </trkpt>
      <trkpt lat="44.0017" lon="5.91921">
        <ele>430</ele>
        <time>2020-10-05T10:29:09.000Z</time>
      </trkpt>
      <trkpt lat="44.0017" lon="5.91921">
        <ele>430</ele>
        <time>2020-10-05T10:29:10.000Z</time>
      </trkpt>
      <trkpt lat="44.0017" lon="5.91921">
        <ele>430</ele>
        <time>2020-10-05T10:29:11.000Z</time>
      </trkpt>
      <trkpt lat="44.0017" lon="5.91921">
        <ele>430</ele>
        <time>2020-10-05T10:29:12.000Z</time>
      </trkpt>
      <trkpt lat="44.0017" lon="5.91921">
        <ele>430</ele>
        <time>2020-10-05T10:29:13.000Z</time>
      </trkpt>
      <trkpt lat="44.0017" lon="5.91921">
        <ele>430</ele>
        <time>2020-10-05T10:29:14.000Z</time>
      </trkpt>
      <trkpt lat="44.0017" lon="5.91921">
        <ele>430</ele>
        <time>2020-10-05T10:29:15.000Z</time>
      </trkpt>
      <trkpt lat="44.0017" lon="5.91921">
        <ele>430</ele>
        <time>2020-10-05T10:29:16.000Z</time>
      </trkpt>
      <trkpt lat="44.0017" lon="5.91921">
        <ele>430</ele>
        <time>2020-10-05T10:29:17.000Z</time>
      </trkpt>
      <trkpt lat="44.0017" lon="5.91921">
        <ele>430</ele>
        <time>2020-10-05T10:29:18.000Z</time>
      </trkpt>
      <trkpt lat="44.0017" lon="5.91921">
        <ele>430</ele>
        <time>2020-10-05T10:29:19.000Z</time>
      </trkpt>
      <trkpt lat="44.0017" lon="5.91921">
        <ele>430</ele>
        <time>2020-10-05T10:29:20.000Z</time>
      </trkpt>
      <trkpt lat="44.0017" lon="5.91921">
        <ele>430</ele>
        <time>2020-10-05T10:29:21.000Z</time>
      </trkpt>
      <trkpt lat="44.0017" lon="5.91921">
        <ele>430</ele>
        <time>2020-10-05T10:29:22.000Z</time>
      </trkpt>
      <trkpt lat="44.0017" lon="5.91921">
        <ele>430</ele>
        <time>2020-10-05T10:29:23.000Z</time>
      </trkpt>
      <trkpt lat="44.0017" lon="5.91921">
        <ele>430</ele>
        <time>2020-10-05T10:29:24.000Z</time>
      </trkpt>
      <trkpt lat="44.0017" lon="5.91921">
        <ele>430</ele>
        <time>2020-10-05T10:29:25.000Z</time>
      </trkpt>
      <trkpt lat="44.0017" lon="5.91921">
        <ele>430</ele>
        <time>2020-10-05T10:29:26.000Z</time>
      </trkpt>
      <trkpt lat="44.0017" lon="5.91921">
        <ele>430</ele>
        <time>2020-10-05T10:29:27.000Z</time>
      </trkpt>
      <trkpt lat="44.0017" lon="5.91921">
        <ele>430</ele>
        <time>2020-10-05T10:29:28.000Z</time>
      </trkpt>
      <trkpt lat="44.00169" lon="5.91921">
        <ele>430</ele>
        <time>2020-10-05T10:29:29.000Z</time>
      </trkpt>
      <trkpt lat="44.00169" lon="5.9192">
        <ele>430</ele>
        <time>2020-10-05T10:29:30.000Z</time>
      </trkpt>
      <trkpt lat="44.00169" lon="5.9192">
        <ele>430</ele>
        <time>2020-10-05T10:29:31.000Z</time>
      </trkpt>
      <trkpt lat="44.00169" lon="5.9192">
        <ele>430</ele>
        <time>2020-10-05T10:29:32.000Z</time>
      </trkpt>
      <trkpt lat="44.00169" lon="5.9192">
        <ele>430</ele>
        <time>2020-10-05T10:29:33.000Z</time>
      </trkpt>
      <trkpt lat="44.00169" lon="5.91921">
        <ele>430</ele>
        <time>2020-10-05T10:29:34.000Z</time>
      </trkpt>
      <trkpt lat="44.00169" lon="5.91921">
        <ele>430</ele>
        <time>2020-10-05T10:29:35.000Z</time>
      </trkpt>
      <trkpt lat="44.00168" lon="5.91921">
        <ele>430</ele>
        <time>2020-10-05T10:29:36.000Z</time>
      </trkpt>
      <trkpt lat="44.00168" lon="5.91922">
        <ele>430</ele>
        <time>2020-10-05T10:29:37.000Z</time>
      </trkpt>
      <trkpt lat="44.00168" lon="5.91923">
        <ele>430</ele>
        <time>2020-10-05T10:29:38.000Z</time>
      </trkpt>
      <trkpt lat="44.00168" lon="5.91923">
        <ele>430</ele>
        <time>2020-10-05T10:29:39.000Z</time>
      </trkpt>
      <trkpt lat="44.00168" lon="5.91924">
        <ele>430</ele>
        <time>2020-10-05T10:29:40.000Z</time>
      </trkpt>
      <trkpt lat="44.00168" lon="5.91924">
        <ele>430</ele>
        <time>2020-10-05T10:29:41.000Z</time>
      </trkpt>
      <trkpt lat="44.00168" lon="5.91924">
        <ele>430</ele>
        <time>2020-10-05T10:29:42.000Z</time>
      </trkpt>
      <trkpt lat="44.00168" lon="5.91923">
        <ele>430</ele>
        <time>2020-10-05T10:29:43.000Z</time>
      </trkpt>
      <trkpt lat="44.00169" lon="5.91923">
        <ele>430</ele>
        <time>2020-10-05T10:29:44.000Z</time>
      </trkpt>
      <trkpt lat="44.00169" lon="5.91923">
        <ele>430</ele>
        <time>2020-10-05T10:29:45.000Z</time>
      </trkpt>
      <trkpt lat="44.00169" lon="5.91923">
        <ele>430</ele>
        <time>2020-10-05T10:29:46.000Z</time>
      </trkpt>
      <trkpt lat="44.00169" lon="5.91923">
        <ele>430</ele>
        <time>2020-10-05T10:29:47.000Z</time>
      </trkpt>
      <trkpt lat="44.00169" lon="5.91923">
        <ele>430</ele>
        <time>2020-10-05T10:29:48.000Z</time>
      </trkpt>
      <trkpt lat="44.00169" lon="5.91924">
        <ele>430</ele>
        <time>2020-10-05T10:29:49.000Z</time>
      </trkpt>
      <trkpt lat="44.00169" lon="5.91924">
        <ele>430</ele>
        <time>2020-10-05T10:29:50.000Z</time>
      </trkpt>
      <trkpt lat="44.00169" lon="5.91924">
        <ele>430</ele>
        <time>2020-10-05T10:29:51.000Z</time>
      </trkpt>
      <trkpt lat="44.00169" lon="5.91924">
        <ele>430</ele>
        <time>2020-10-05T10:29:52.000Z</time>
      </trkpt>
      <trkpt lat="44.00169" lon="5.91924">
        <ele>430</ele>
        <time>2020-10-05T10:29:53.000Z</time>
      </trkpt>
      <trkpt lat="44.00169" lon="5.91924">
        <ele>430</ele>
        <time>2020-10-05T10:29:54.000Z</time>
      </trkpt>
      <trkpt lat="44.00169" lon="5.91924">
        <ele>430</ele>
        <time>2020-10-05T10:29:55.000Z</time>
      </trkpt>
      <trkpt lat="44.0017" lon="5.91924">
        <ele>430</ele>
        <time>2020-10-05T10:29:56.000Z</time>
      </trkpt>
      <trkpt lat="44.0017" lon="5.91924">
        <ele>430</ele>
        <time>2020-10-05T10:29:57.000Z</time>
      </trkpt>
      <trkpt lat="44.0017" lon="5.91924">
        <ele>430</ele>
        <time>2020-10-05T10:29:58.000Z</time>
      </trkpt>
      <trkpt lat="44.0017" lon="5.91924">
        <ele>430</ele>
        <time>2020-10-05T10:29:59.000Z</time>
      </trkpt>
      <trkpt lat="44.0017" lon="5.91924">
        <ele>430</ele>
        <time>2020-10-05T10:30:00.000Z</time>
      </trkpt>
      <trkpt lat="44.0017" lon="5.91924">
        <ele>430</ele>
        <time>2020-10-05T10:30:01.000Z</time>
      </trkpt>
      <trkpt lat="44.0017" lon="5.91924">
        <ele>430</ele>
        <time>2020-10-05T10:30:02.000Z</time>
      </trkpt>
      <trkpt lat="44.0017" lon="5.91924">
        <ele>430</ele>
        <time>2020-10-05T10:30:03.000Z</time>
      </trkpt>
      <trkpt lat="44.0017" lon="5.91924">
        <ele>430</ele>
        <time>2020-10-05T10:30:04.000Z</time>
      </trkpt>
      <trkpt lat="44.0017" lon="5.91924">
        <ele>430</ele>
        <time>2020-10-05T10:30:05.000Z</time>
      </trkpt>
      <trkpt lat="44.0017" lon="5.91924">
        <ele>430</ele>
        <time>2020-10-05T10:30:06.000Z</time>
      </trkpt>
      <trkpt lat="44.0017" lon="5.91924">
        <ele>430</ele>
        <time>2020-10-05T10:30:07.000Z</time>
      </trkpt>
      <trkpt lat="44.0017" lon="5.91924">
        <ele>430</ele>
        <time>2020-10-05T10:30:08.000Z</time>
      </trkpt>
      <trkpt lat="44.0017" lon="5.91924">
        <ele>430</ele>
        <time>2020-10-05T10:30:09.000Z</time>
      </trkpt>
      <trkpt lat="44.0017" lon="5.91923">
        <ele>430</ele>
        <time>2020-10-05T10:30:10.000Z</time>
      </trkpt>
      <trkpt lat="44.0017" lon="5.91923">
        <ele>430</ele>
        <time>2020-10-05T10:30:11.000Z</time>
      </trkpt>
      <trkpt lat="44.0017" lon="5.91923">
        <ele>430</ele>
        <time>2020-10-05T10:30:12.000Z</time>
      </trkpt>
      <trkpt lat="44.0017" lon="5.91923">
        <ele>430</ele>
        <time>2020-10-05T10:30:13.000Z</time>
      </trkpt>
      <trkpt lat="44.0017" lon="5.91923">
        <ele>430</ele>
        <time>2020-10-05T10:30:14.000Z</time>
      </trkpt>
      <trkpt lat="44.0017" lon="5.91923">
        <ele>430</ele>
        <time>2020-10-05T10:30:15.000Z</time>
      </trkpt>
      <trkpt lat="44.0017" lon="5.91923">
        <ele>430</ele>
        <time>2020-10-05T10:30:16.000Z</time>
      </trkpt>
      <trkpt lat="44.0017" lon="5.91923">
        <ele>430</ele>
        <time>2020-10-05T10:30:17.000Z</time>
      </trkpt>
      <trkpt lat="44.0017" lon="5.91923">
        <ele>430</ele>
        <time>2020-10-05T10:30:18.000Z</time>
      </trkpt>
      <trkpt lat="44.0017" lon="5.91923">
        <ele>430</ele>
        <time>2020-10-05T10:30:19.000Z</time>
      </trkpt>
      <trkpt lat="44.0017" lon="5.91923">
        <ele>430</ele>
        <time>2020-10-05T10:30:20.000Z</time>
      </trkpt>
      <trkpt lat="44.0017" lon="5.91922">
        <ele>430</ele>
        <time>2020-10-05T10:30:21.000Z</time>
      </trkpt>
      <trkpt lat="44.0017" lon="5.91922">
        <ele>430</ele>
        <time>2020-10-05T10:30:22.000Z</time>
      </trkpt>
      <trkpt lat="44.0017" lon="5.91922">
        <ele>430</ele>
        <time>2020-10-05T10:30:23.000Z</time>
      </trkpt>
      <trkpt lat="44.0017" lon="5.91922">
        <ele>430</ele>
        <time>2020-10-05T10:30:24.000Z</time>
      </trkpt>
      <trkpt lat="44.0017" lon="5.91922">
        <ele>430</ele>
        <time>2020-10-05T10:30:25.000Z</time>
      </trkpt>
      <trkpt lat="44.0017" lon="5.91922">
        <ele>430</ele>
        <time>2020-10-05T10:30:26.000Z</time>
      </trkpt>
      <trkpt lat="44.0017" lon="5.91922">
        <ele>430</ele>
        <time>2020-10-05T10:30:27.000Z</time>
      </trkpt>
      <trkpt lat="44.0017" lon="5.91922">
        <ele>430</ele>
        <time>2020-10-05T10:30:28.000Z</time>
      </trkpt>
      <trkpt lat="44.0017" lon="5.91922">
        <ele>430</ele>
        <time>2020-10-05T10:30:29.000Z</time>
      </trkpt>
      <trkpt lat="44.0017" lon="5.91922">
        <ele>430</ele>
        <time>2020-10-05T10:30:30.000Z</time>
      </trkpt>
      <trkpt lat="44.0017" lon="5.91922">
        <ele>430</ele>
        <time>2020-10-05T10:30:31.000Z</time>
      </trkpt>
      <trkpt lat="44.0017" lon="5.91922">
        <ele>430</ele>
        <time>2020-10-05T10:30:32.000Z</time>
      </trkpt>
      <trkpt lat="44.0017" lon="5.91922">
        <ele>430</ele>
        <time>2020-10-05T10:30:33.000Z</time>
      </trkpt>
      <trkpt lat="44.0017" lon="5.91922">
        <ele>430</ele>
        <time>2020-10-05T10:30:34.000Z</time>
      </trkpt>
      <trkpt lat="44.0017" lon="5.91922">
        <ele>430</ele>
        <time>2020-10-05T10:30:35.000Z</time>
      </trkpt>
      <trkpt lat="44.0017" lon="5.91922">
        <ele>430</ele>
        <time>2020-10-05T10:30:36.000Z</time>
      </trkpt>
      <trkpt lat="44.0017" lon="5.91921">
        <ele>430</ele>
        <time>2020-10-05T10:30:37.000Z</time>
      </trkpt>
      <trkpt lat="44.0017" lon="5.91921">
        <ele>430</ele>
        <time>2020-10-05T10:30:38.000Z</time>
      </trkpt>
      <trkpt lat="44.0017" lon="5.91921">
        <ele>430</ele>
        <time>2020-10-05T10:30:39.000Z</time>
      </trkpt>
      <trkpt lat="44.0017" lon="5.9192">
        <ele>430</ele>
        <time>2020-10-05T10:30:40.000Z</time>
      </trkpt>
      <trkpt lat="44.0017" lon="5.9192">
        <ele>430</ele>
        <time>2020-10-05T10:30:41.000Z</time>
      </trkpt>
      <trkpt lat="44.0017" lon="5.9192">
        <ele>430</ele>
        <time>2020-10-05T10:30:42.000Z</time>
      </trkpt>
      <trkpt lat="44.0017" lon="5.9192">
        <ele>430</ele>
        <time>2020-10-05T10:30:43.000Z</time>
      </trkpt>
      <trkpt lat="44.0017" lon="5.9192">
        <ele>429</ele>
        <time>2020-10-05T10:30:44.000Z</time>
      </trkpt>
      <trkpt lat="44.0017" lon="5.91919">
        <ele>429</ele>
        <time>2020-10-05T10:30:45.000Z</time>
      </trkpt>
      <trkpt lat="44.0017" lon="5.91919">
        <ele>429</ele>
        <time>2020-10-05T10:30:46.000Z</time>
      </trkpt>
      <trkpt lat="44.0017" lon="5.91918">
        <ele>429</ele>
        <time>2020-10-05T10:30:47.000Z</time>
      </trkpt>
      <trkpt lat="44.0017" lon="5.91918">
        <ele>429</ele>
        <time>2020-10-05T10:30:48.000Z</time>
      </trkpt>
      <trkpt lat="44.00171" lon="5.91917">
        <ele>429</ele>
        <time>2020-10-05T10:30:49.000Z</time>
      </trkpt>
      <trkpt lat="44.00171" lon="5.91916">
        <ele>429</ele>
        <time>2020-10-05T10:30:50.000Z</time>
      </trkpt>
      <trkpt lat="44.00171" lon="5.91916">
        <ele>429</ele>
        <time>2020-10-05T10:30:51.000Z</time>
      </trkpt>
      <trkpt lat="44.00171" lon="5.91916">
        <ele>429</ele>
        <time>2020-10-05T10:30:52.000Z</time>
      </trkpt>
      <trkpt lat="44.00171" lon="5.91916">
        <ele>429</ele>
        <time>2020-10-05T10:30:53.000Z</time>
      </trkpt>
      <trkpt lat="44.00171" lon="5.91916">
        <ele>429</ele>
        <time>2020-10-05T10:30:54.000Z</time>
      </trkpt>
      <trkpt lat="44.00171" lon="5.91916">
        <ele>429</ele>
        <time>2020-10-05T10:30:55.000Z</time>
      </trkpt>
      <trkpt lat="44.00172" lon="5.91916">
        <ele>429</ele>
        <time>2020-10-05T10:30:56.000Z</time>
      </trkpt>
      <trkpt lat="44.00172" lon="5.91916">
        <ele>429</ele>
        <time>2020-10-05T10:30:57.000Z</time>
      </trkpt>
      <trkpt lat="44.00172" lon="5.91916">
        <ele>429</ele>
        <time>2020-10-05T10:30:58.000Z</time>
      </trkpt>
      <trkpt lat="44.00172" lon="5.91916">
        <ele>429</ele>
        <time>2020-10-05T10:30:59.000Z</time>
      </trkpt>
      <trkpt lat="44.00172" lon="5.91916">
        <ele>429</ele>
        <time>2020-10-05T10:31:00.000Z</time>
      </trkpt>
      <trkpt lat="44.00172" lon="5.91916">
        <ele>429</ele>
        <time>2020-10-05T10:31:01.000Z</time>
      </trkpt>
      <trkpt lat="44.00172" lon="5.91916">
        <ele>429</ele>
        <time>2020-10-05T10:31:02.000Z</time>
      </trkpt>
      <trkpt lat="44.00172" lon="5.91916">
        <ele>429</ele>
        <time>2020-10-05T10:31:03.000Z</time>
      </trkpt>
      <trkpt lat="44.00172" lon="5.91916">
        <ele>429</ele>
        <time>2020-10-05T10:31:04.000Z</time>
      </trkpt>
      <trkpt lat="44.00172" lon="5.91916">
        <ele>429</ele>
        <time>2020-10-05T10:31:05.000Z</time>
      </trkpt>
      <trkpt lat="44.00172" lon="5.91916">
        <ele>429</ele>
        <time>2020-10-05T10:31:06.000Z</time>
      </trkpt>
      <trkpt lat="44.00172" lon="5.91916">
        <ele>429</ele>
        <time>2020-10-05T10:31:07.000Z</time>
      </trkpt>
      <trkpt lat="44.00172" lon="5.91916">
        <ele>429</ele>
        <time>2020-10-05T10:31:08.000Z</time>
      </trkpt>
      <trkpt lat="44.00172" lon="5.91916">
        <ele>429</ele>
        <time>2020-10-05T10:31:09.000Z</time>
      </trkpt>
      <trkpt lat="44.00172" lon="5.91916">
        <ele>429</ele>
        <time>2020-10-05T10:31:10.000Z</time>
      </trkpt>
      <trkpt lat="44.00172" lon="5.91915">
        <ele>429</ele>
        <time>2020-10-05T10:31:11.000Z</time>
      </trkpt>
      <trkpt lat="44.00172" lon="5.91915">
        <ele>429</ele>
        <time>2020-10-05T10:31:12.000Z</time>
      </trkpt>
      <trkpt lat="44.00172" lon="5.91915">
        <ele>429</ele>
        <time>2020-10-05T10:31:13.000Z</time>
      </trkpt>
      <trkpt lat="44.00172" lon="5.91915">
        <ele>429</ele>
        <time>2020-10-05T10:31:14.000Z</time>
      </trkpt>
      <trkpt lat="44.00172" lon="5.91915">
        <ele>429</ele>
        <time>2020-10-05T10:31:15.000Z</time>
      </trkpt>
      <trkpt lat="44.00172" lon="5.91914">
        <ele>429</ele>
        <time>2020-10-05T10:31:16.000Z</time>
      </trkpt>
      <trkpt lat="44.00172" lon="5.91914">
        <ele>429</ele>
        <time>2020-10-05T10:31:17.000Z</time>
      </trkpt>
      <trkpt lat="44.00172" lon="5.91914">
        <ele>429</ele>
        <time>2020-10-05T10:31:18.000Z</time>
      </trkpt>
      <trkpt lat="44.00172" lon="5.91914">
        <ele>429</ele>
        <time>2020-10-05T10:31:19.000Z</time>
      </trkpt>
      <trkpt lat="44.00172" lon="5.91914">
        <ele>429</ele>
        <time>2020-10-05T10:31:20.000Z</time>
      </trkpt>
      <trkpt lat="44.00172" lon="5.91914">
        <ele>429</ele>
        <time>2020-10-05T10:31:21.000Z</time>
      </trkpt>
      <trkpt lat="44.00172" lon="5.91914">
        <ele>429</ele>
        <time>2020-10-05T10:31:22.000Z</time>
      </trkpt>
      <trkpt lat="44.00172" lon="5.91914">
        <ele>429</ele>
        <time>2020-10-05T10:31:23.000Z</time>
      </trkpt>
      <trkpt lat="44.00172" lon="5.91914">
        <ele>429</ele>
        <time>2020-10-05T10:31:24.000Z</time>
      </trkpt>
      <trkpt lat="44.00172" lon="5.91913">
        <ele>429</ele>
        <time>2020-10-05T10:31:25.000Z</time>
      </trkpt>
      <trkpt lat="44.00172" lon="5.91913">
        <ele>429</ele>
        <time>2020-10-05T10:31:26.000Z</time>
      </trkpt>
      <trkpt lat="44.00172" lon="5.91913">
        <ele>429</ele>
        <time>2020-10-05T10:31:27.000Z</time>
      </trkpt>
      <trkpt lat="44.00172" lon="5.91913">
        <ele>430</ele>
        <time>2020-10-05T10:31:28.000Z</time>
      </trkpt>
      <trkpt lat="44.00172" lon="5.91913">
        <ele>430</ele>
        <time>2020-10-05T10:31:29.000Z</time>
      </trkpt>
      <trkpt lat="44.00172" lon="5.91913">
        <ele>430</ele>
        <time>2020-10-05T10:31:30.000Z</time>
      </trkpt>
      <trkpt lat="44.00171" lon="5.91913">
        <ele>430</ele>
        <time>2020-10-05T10:31:31.000Z</time>
      </trkpt>
      <trkpt lat="44.00171" lon="5.91913">
        <ele>430</ele>
        <time>2020-10-05T10:31:32.000Z</time>
      </trkpt>
      <trkpt lat="44.00171" lon="5.91913">
        <ele>430</ele>
        <time>2020-10-05T10:31:33.000Z</time>
      </trkpt>
      <trkpt lat="44.00171" lon="5.91913">
        <ele>430</ele>
        <time>2020-10-05T10:31:34.000Z</time>
      </trkpt>
      <trkpt lat="44.0017" lon="5.91913">
        <ele>430</ele>
        <time>2020-10-05T10:31:35.000Z</time>
      </trkpt>
      <trkpt lat="44.0017" lon="5.91913">
        <ele>430</ele>
        <time>2020-10-05T10:31:36.000Z</time>
      </trkpt>
      <trkpt lat="44.0017" lon="5.91913">
        <ele>430</ele>
        <time>2020-10-05T10:31:37.000Z</time>
      </trkpt>
      <trkpt lat="44.00169" lon="5.91913">
        <ele>430</ele>
        <time>2020-10-05T10:31:38.000Z</time>
      </trkpt>
      <trkpt lat="44.00168" lon="5.91913">
        <ele>431</ele>
        <time>2020-10-05T10:31:39.000Z</time>
      </trkpt>
      <trkpt lat="44.00168" lon="5.91913">
        <ele>431</ele>
        <time>2020-10-05T10:31:40.000Z</time>
      </trkpt>
      <trkpt lat="44.00167" lon="5.91912">
        <ele>431</ele>
        <time>2020-10-05T10:31:41.000Z</time>
      </trkpt>
      <trkpt lat="44.00167" lon="5.91912">
        <ele>431</ele>
        <time>2020-10-05T10:31:42.000Z</time>
      </trkpt>
      <trkpt lat="44.00166" lon="5.91912">
        <ele>431</ele>
        <time>2020-10-05T10:31:43.000Z</time>
      </trkpt>
      <trkpt lat="44.00166" lon="5.91912">
        <ele>431</ele>
        <time>2020-10-05T10:31:44.000Z</time>
      </trkpt>
      <trkpt lat="44.00165" lon="5.91911">
        <ele>431</ele>
        <time>2020-10-05T10:31:45.000Z</time>
      </trkpt>
      <trkpt lat="44.00165" lon="5.9191">
        <ele>431</ele>
        <time>2020-10-05T10:31:46.000Z</time>
      </trkpt>
      <trkpt lat="44.00165" lon="5.9191">
        <ele>431</ele>
        <time>2020-10-05T10:31:47.000Z</time>
      </trkpt>
      <trkpt lat="44.00165" lon="5.9191">
        <ele>431</ele>
        <time>2020-10-05T10:31:48.000Z</time>
      </trkpt>
      <trkpt lat="44.00164" lon="5.91909">
        <ele>431</ele>
        <time>2020-10-05T10:31:49.000Z</time>
      </trkpt>
      <trkpt lat="44.00164" lon="5.91908">
        <ele>431</ele>
        <time>2020-10-05T10:31:50.000Z</time>
      </trkpt>
      <trkpt lat="44.00164" lon="5.91908">
        <ele>431</ele>
        <time>2020-10-05T10:31:51.000Z</time>
      </trkpt>
      <trkpt lat="44.00164" lon="5.91907">
        <ele>432</ele>
        <time>2020-10-05T10:31:52.000Z</time>
      </trkpt>
      <trkpt lat="44.00164" lon="5.91907">
        <ele>432</ele>
        <time>2020-10-05T10:31:53.000Z</time>
      </trkpt>
      <trkpt lat="44.00164" lon="5.91906">
        <ele>432</ele>
        <time>2020-10-05T10:31:54.000Z</time>
      </trkpt>
      <trkpt lat="44.00164" lon="5.91906">
        <ele>432</ele>
        <time>2020-10-05T10:31:55.000Z</time>
      </trkpt>
      <trkpt lat="44.00165" lon="5.91906">
        <ele>432</ele>
        <time>2020-10-05T10:31:56.000Z</time>
      </trkpt>
      <trkpt lat="44.00165" lon="5.91905">
        <ele>432</ele>
        <time>2020-10-05T10:31:57.000Z</time>
      </trkpt>
      <trkpt lat="44.00165" lon="5.91905">
        <ele>432</ele>
        <time>2020-10-05T10:31:58.000Z</time>
      </trkpt>
      <trkpt lat="44.00165" lon="5.91905">
        <ele>432</ele>
        <time>2020-10-05T10:31:59.000Z</time>
      </trkpt>
      <trkpt lat="44.00165" lon="5.91905">
        <ele>432</ele>
        <time>2020-10-05T10:32:00.000Z</time>
      </trkpt>
      <trkpt lat="44.00165" lon="5.91905">
        <ele>432</ele>
        <time>2020-10-05T10:32:01.000Z</time>
      </trkpt>
      <trkpt lat="44.00165" lon="5.91904">
        <ele>433</ele>
        <time>2020-10-05T10:32:02.000Z</time>
      </trkpt>
      <trkpt lat="44.00165" lon="5.91903">
        <ele>433</ele>
        <time>2020-10-05T10:32:03.000Z</time>
      </trkpt>
      <trkpt lat="44.00165" lon="5.91902">
        <ele>433</ele>
        <time>2020-10-05T10:32:04.000Z</time>
      </trkpt>
      <trkpt lat="44.00165" lon="5.91902">
        <ele>433</ele>
        <time>2020-10-05T10:32:05.000Z</time>
      </trkpt>
      <trkpt lat="44.00165" lon="5.91902">
        <ele>433</ele>
        <time>2020-10-05T10:32:06.000Z</time>
      </trkpt>
      <trkpt lat="44.00165" lon="5.91901">
        <ele>433</ele>
        <time>2020-10-05T10:32:07.000Z</time>
      </trkpt>
      <trkpt lat="44.00165" lon="5.91901">
        <ele>433</ele>
        <time>2020-10-05T10:32:08.000Z</time>
      </trkpt>
      <trkpt lat="44.00165" lon="5.91901">
        <ele>433</ele>
        <time>2020-10-05T10:32:09.000Z</time>
      </trkpt>
      <trkpt lat="44.00166" lon="5.919">
        <ele>433</ele>
        <time>2020-10-05T10:32:10.000Z</time>
      </trkpt>
      <trkpt lat="44.00166" lon="5.919">
        <ele>433</ele>
        <time>2020-10-05T10:32:11.000Z</time>
      </trkpt>
      <trkpt lat="44.00166" lon="5.919">
        <ele>433</ele>
        <time>2020-10-05T10:32:12.000Z</time>
      </trkpt>
      <trkpt lat="44.00166" lon="5.919">
        <ele>433</ele>
        <time>2020-10-05T10:32:13.000Z</time>
      </trkpt>
      <trkpt lat="44.00166" lon="5.919">
        <ele>433</ele>
        <time>2020-10-05T10:32:14.000Z</time>
      </trkpt>
      <trkpt lat="44.00166" lon="5.919">
        <ele>433</ele>
        <time>2020-10-05T10:32:15.000Z</time>
      </trkpt>
      <trkpt lat="44.00166" lon="5.919">
        <ele>433</ele>
        <time>2020-10-05T10:32:16.000Z</time>
      </trkpt>
      <trkpt lat="44.00166" lon="5.919">
        <ele>433</ele>
        <time>2020-10-05T10:32:17.000Z</time>
      </trkpt>
      <trkpt lat="44.00166" lon="5.919">
        <ele>433</ele>
        <time>2020-10-05T10:32:18.000Z</time>
      </trkpt>
      <trkpt lat="44.00166" lon="5.919">
        <ele>433</ele>
        <time>2020-10-05T10:32:19.000Z</time>
      </trkpt>
      <trkpt lat="44.00166" lon="5.919">
        <ele>433</ele>
        <time>2020-10-05T10:32:20.000Z</time>
      </trkpt>
      <trkpt lat="44.00166" lon="5.919">
        <ele>433</ele>
        <time>2020-10-05T10:32:21.000Z</time>
      </trkpt>
      <trkpt lat="44.00167" lon="5.919">
        <ele>433</ele>
        <time>2020-10-05T10:32:22.000Z</time>
      </trkpt>
      <trkpt lat="44.00167" lon="5.91899">
        <ele>433</ele>
        <time>2020-10-05T10:32:23.000Z</time>
      </trkpt>
      <trkpt lat="44.00167" lon="5.91899">
        <ele>433</ele>
        <time>2020-10-05T10:32:24.000Z</time>
      </trkpt>
      <trkpt lat="44.00167" lon="5.91899">
        <ele>433</ele>
        <time>2020-10-05T10:32:25.000Z</time>
      </trkpt>
      <trkpt lat="44.00167" lon="5.91899">
        <ele>433</ele>
        <time>2020-10-05T10:32:26.000Z</time>
      </trkpt>
      <trkpt lat="44.00167" lon="5.91899">
        <ele>433</ele>
        <time>2020-10-05T10:32:27.000Z</time>
      </trkpt>
      <trkpt lat="44.00167" lon="5.91899">
        <ele>433</ele>
        <time>2020-10-05T10:32:28.000Z</time>
      </trkpt>
      <trkpt lat="44.00167" lon="5.91899">
        <ele>433</ele>
        <time>2020-10-05T10:32:29.000Z</time>
      </trkpt>
      <trkpt lat="44.00167" lon="5.91899">
        <ele>433</ele>
        <time>2020-10-05T10:32:30.000Z</time>
      </trkpt>
      <trkpt lat="44.00167" lon="5.919">
        <ele>433</ele>
        <time>2020-10-05T10:32:31.000Z</time>
      </trkpt>
      <trkpt lat="44.00167" lon="5.919">
        <ele>433</ele>
        <time>2020-10-05T10:32:32.000Z</time>
      </trkpt>
      <trkpt lat="44.00167" lon="5.919">
        <ele>433</ele>
        <time>2020-10-05T10:32:33.000Z</time>
      </trkpt>
      <trkpt lat="44.00167" lon="5.919">
        <ele>433</ele>
        <time>2020-10-05T10:32:34.000Z</time>
      </trkpt>
      <trkpt lat="44.00166" lon="5.91901">
        <ele>433</ele>
        <time>2020-10-05T10:32:35.000Z</time>
      </trkpt>
      <trkpt lat="44.00166" lon="5.91901">
        <ele>433</ele>
        <time>2020-10-05T10:32:36.000Z</time>
      </trkpt>
      <trkpt lat="44.00165" lon="5.919">
        <ele>433</ele>
        <time>2020-10-05T10:32:37.000Z</time>
      </trkpt>
      <trkpt lat="44.00165" lon="5.919">
        <ele>433</ele>
        <time>2020-10-05T10:32:38.000Z</time>
      </trkpt>
      <trkpt lat="44.00165" lon="5.919">
        <ele>434</ele>
        <time>2020-10-05T10:32:39.000Z</time>
      </trkpt>
      <trkpt lat="44.00165" lon="5.919">
        <ele>434</ele>
        <time>2020-10-05T10:32:40.000Z</time>
      </trkpt>
      <trkpt lat="44.00165" lon="5.91899">
        <ele>434</ele>
        <time>2020-10-05T10:32:41.000Z</time>
      </trkpt>
      <trkpt lat="44.00164" lon="5.91899">
        <ele>434</ele>
        <time>2020-10-05T10:32:42.000Z</time>
      </trkpt>
      <trkpt lat="44.00164" lon="5.91899">
        <ele>434</ele>
        <time>2020-10-05T10:32:43.000Z</time>
      </trkpt>
      <trkpt lat="44.00164" lon="5.91899">
        <ele>434</ele>
        <time>2020-10-05T10:32:44.000Z</time>
      </trkpt>
      <trkpt lat="44.00164" lon="5.91899">
        <ele>434</ele>
        <time>2020-10-05T10:32:45.000Z</time>
      </trkpt>
      <trkpt lat="44.00164" lon="5.91899">
        <ele>434</ele>
        <time>2020-10-05T10:32:46.000Z</time>
      </trkpt>
      <trkpt lat="44.00164" lon="5.91899">
        <ele>434</ele>
        <time>2020-10-05T10:32:47.000Z</time>
      </trkpt>
      <trkpt lat="44.00164" lon="5.91898">
        <ele>434</ele>
        <time>2020-10-05T10:32:48.000Z</time>
      </trkpt>
      <trkpt lat="44.00164" lon="5.91898">
        <ele>434</ele>
        <time>2020-10-05T10:32:49.000Z</time>
      </trkpt>
      <trkpt lat="44.00164" lon="5.91897">
        <ele>435</ele>
        <time>2020-10-05T10:32:50.000Z</time>
      </trkpt>
      <trkpt lat="44.00163" lon="5.91897">
        <ele>435</ele>
        <time>2020-10-05T10:32:51.000Z</time>
      </trkpt>
      <trkpt lat="44.00163" lon="5.91896">
        <ele>435</ele>
        <time>2020-10-05T10:32:52.000Z</time>
      </trkpt>
      <trkpt lat="44.00163" lon="5.91896">
        <ele>435</ele>
        <time>2020-10-05T10:32:53.000Z</time>
      </trkpt>
      <trkpt lat="44.00163" lon="5.91896">
        <ele>435</ele>
        <time>2020-10-05T10:32:54.000Z</time>
      </trkpt>
      <trkpt lat="44.00162" lon="5.91895">
        <ele>435</ele>
        <time>2020-10-05T10:32:55.000Z</time>
      </trkpt>
      <trkpt lat="44.00162" lon="5.91895">
        <ele>435</ele>
        <time>2020-10-05T10:32:56.000Z</time>
      </trkpt>
      <trkpt lat="44.00162" lon="5.91894">
        <ele>435</ele>
        <time>2020-10-05T10:32:57.000Z</time>
      </trkpt>
      <trkpt lat="44.00162" lon="5.91894">
        <ele>435</ele>
        <time>2020-10-05T10:32:58.000Z</time>
      </trkpt>
      <trkpt lat="44.00162" lon="5.91893">
        <ele>435</ele>
        <time>2020-10-05T10:32:59.000Z</time>
      </trkpt>
      <trkpt lat="44.00162" lon="5.91892">
        <ele>435</ele>
        <time>2020-10-05T10:33:00.000Z</time>
      </trkpt>
      <trkpt lat="44.00161" lon="5.91892">
        <ele>436</ele>
        <time>2020-10-05T10:33:01.000Z</time>
      </trkpt>
      <trkpt lat="44.00161" lon="5.91891">
        <ele>436</ele>
        <time>2020-10-05T10:33:02.000Z</time>
      </trkpt>
      <trkpt lat="44.00161" lon="5.91891">
        <ele>436</ele>
        <time>2020-10-05T10:33:03.000Z</time>
      </trkpt>
      <trkpt lat="44.00161" lon="5.91891">
        <ele>436</ele>
        <time>2020-10-05T10:33:04.000Z</time>
      </trkpt>
      <trkpt lat="44.00161" lon="5.9189">
        <ele>436</ele>
        <time>2020-10-05T10:33:05.000Z</time>
      </trkpt>
      <trkpt lat="44.00161" lon="5.91889">
        <ele>436</ele>
        <time>2020-10-05T10:33:06.000Z</time>
      </trkpt>
      <trkpt lat="44.00161" lon="5.91888">
        <ele>436</ele>
        <time>2020-10-05T10:33:07.000Z</time>
      </trkpt>
      <trkpt lat="44.00161" lon="5.91888">
        <ele>437</ele>
        <time>2020-10-05T10:33:08.000Z</time>
      </trkpt>
      <trkpt lat="44.00161" lon="5.91888">
        <ele>437</ele>
        <time>2020-10-05T10:33:09.000Z</time>
      </trkpt>
      <trkpt lat="44.0016" lon="5.91887">
        <ele>437</ele>
        <time>2020-10-05T10:33:10.000Z</time>
      </trkpt>
      <trkpt lat="44.0016" lon="5.91887">
        <ele>437</ele>
        <time>2020-10-05T10:33:11.000Z</time>
      </trkpt>
      <trkpt lat="44.0016" lon="5.91887">
        <ele>437</ele>
        <time>2020-10-05T10:33:12.000Z</time>
      </trkpt>
      <trkpt lat="44.0016" lon="5.91887">
        <ele>437</ele>
        <time>2020-10-05T10:33:13.000Z</time>
      </trkpt>
      <trkpt lat="44.0016" lon="5.91887">
        <ele>437</ele>
        <time>2020-10-05T10:33:14.000Z</time>
      </trkpt>
      <trkpt lat="44.0016" lon="5.91887">
        <ele>437</ele>
        <time>2020-10-05T10:33:15.000Z</time>
      </trkpt>
      <trkpt lat="44.0016" lon="5.91887">
        <ele>437</ele>
        <time>2020-10-05T10:33:16.000Z</time>
      </trkpt>
      <trkpt lat="44.0016" lon="5.91886">
        <ele>437</ele>
        <time>2020-10-05T10:33:17.000Z</time>
      </trkpt>
      <trkpt lat="44.0016" lon="5.91886">
        <ele>437</ele>
        <time>2020-10-05T10:33:18.000Z</time>
      </trkpt>
      <trkpt lat="44.0016" lon="5.91886">
        <ele>437</ele>
        <time>2020-10-05T10:33:19.000Z</time>
      </trkpt>
      <trkpt lat="44.0016" lon="5.91886">
        <ele>437</ele>
        <time>2020-10-05T10:33:20.000Z</time>
      </trkpt>
      <trkpt lat="44.0016" lon="5.91886">
        <ele>437</ele>
        <time>2020-10-05T10:33:21.000Z</time>
      </trkpt>
      <trkpt lat="44.0016" lon="5.91886">
        <ele>438</ele>
        <time>2020-10-05T10:33:22.000Z</time>
      </trkpt>
      <trkpt lat="44.0016" lon="5.91886">
        <ele>438</ele>
        <time>2020-10-05T10:33:23.000Z</time>
      </trkpt>
      <trkpt lat="44.00161" lon="5.91885">
        <ele>438</ele>
        <time>2020-10-05T10:33:24.000Z</time>
      </trkpt>
      <trkpt lat="44.00161" lon="5.91885">
        <ele>438</ele>
        <time>2020-10-05T10:33:25.000Z</time>
      </trkpt>
      <trkpt lat="44.00161" lon="5.91885">
        <ele>438</ele>
        <time>2020-10-05T10:33:26.000Z</time>
      </trkpt>
      <trkpt lat="44.00161" lon="5.91885">
        <ele>438</ele>
        <time>2020-10-05T10:33:27.000Z</time>
      </trkpt>
      <trkpt lat="44.00161" lon="5.91885">
        <ele>438</ele>
        <time>2020-10-05T10:33:28.000Z</time>
      </trkpt>
      <trkpt lat="44.00161" lon="5.91885">
        <ele>438</ele>
        <time>2020-10-05T10:33:29.000Z</time>
      </trkpt>
      <trkpt lat="44.00161" lon="5.91885">
        <ele>438</ele>
        <time>2020-10-05T10:33:30.000Z</time>
      </trkpt>
      <trkpt lat="44.00161" lon="5.91885">
        <ele>438</ele>
        <time>2020-10-05T10:33:31.000Z</time>
      </trkpt>
      <trkpt lat="44.00161" lon="5.91884">
        <ele>438</ele>
        <time>2020-10-05T10:33:32.000Z</time>
      </trkpt>
      <trkpt lat="44.00162" lon="5.91884">
        <ele>438</ele>
        <time>2020-10-05T10:33:33.000Z</time>
      </trkpt>
      <trkpt lat="44.00162" lon="5.91884">
        <ele>438</ele>
        <time>2020-10-05T10:33:34.000Z</time>
      </trkpt>
      <trkpt lat="44.00162" lon="5.91884">
        <ele>438</ele>
        <time>2020-10-05T10:33:35.000Z</time>
      </trkpt>
      <trkpt lat="44.00162" lon="5.91884">
        <ele>438</ele>
        <time>2020-10-05T10:33:36.000Z</time>
      </trkpt>
      <trkpt lat="44.00162" lon="5.91884">
        <ele>438</ele>
        <time>2020-10-05T10:33:37.000Z</time>
      </trkpt>
      <trkpt lat="44.00162" lon="5.91884">
        <ele>438</ele>
        <time>2020-10-05T10:33:38.000Z</time>
      </trkpt>
      <trkpt lat="44.00162" lon="5.91883">
        <ele>439</ele>
        <time>2020-10-05T10:33:39.000Z</time>
      </trkpt>
      <trkpt lat="44.00162" lon="5.91883">
        <ele>439</ele>
        <time>2020-10-05T10:33:40.000Z</time>
      </trkpt>
      <trkpt lat="44.00162" lon="5.91883">
        <ele>439</ele>
        <time>2020-10-05T10:33:41.000Z</time>
      </trkpt>
      <trkpt lat="44.00162" lon="5.91883">
        <ele>439</ele>
        <time>2020-10-05T10:33:42.000Z</time>
      </trkpt>
      <trkpt lat="44.00162" lon="5.91883">
        <ele>439</ele>
        <time>2020-10-05T10:33:43.000Z</time>
      </trkpt>
      <trkpt lat="44.00162" lon="5.91883">
        <ele>439</ele>
        <time>2020-10-05T10:33:44.000Z</time>
      </trkpt>
      <trkpt lat="44.00162" lon="5.91883">
        <ele>439</ele>
        <time>2020-10-05T10:33:45.000Z</time>
      </trkpt>
      <trkpt lat="44.00162" lon="5.91883">
        <ele>439</ele>
        <time>2020-10-05T10:33:46.000Z</time>
      </trkpt>
      <trkpt lat="44.00162" lon="5.91883">
        <ele>439</ele>
        <time>2020-10-05T10:33:47.000Z</time>
      </trkpt>
      <trkpt lat="44.00162" lon="5.91883">
        <ele>439</ele>
        <time>2020-10-05T10:33:48.000Z</time>
      </trkpt>
      <trkpt lat="44.00162" lon="5.91883">
        <ele>439</ele>
        <time>2020-10-05T10:33:49.000Z</time>
      </trkpt>
      <trkpt lat="44.00162" lon="5.91883">
        <ele>439</ele>
        <time>2020-10-05T10:33:50.000Z</time>
      </trkpt>
      <trkpt lat="44.00162" lon="5.91883">
        <ele>439</ele>
        <time>2020-10-05T10:33:51.000Z</time>
      </trkpt>
      <trkpt lat="44.00162" lon="5.91882">
        <ele>439</ele>
        <time>2020-10-05T10:33:52.000Z</time>
      </trkpt>
      <trkpt lat="44.00162" lon="5.91883">
        <ele>439</ele>
        <time>2020-10-05T10:33:53.000Z</time>
      </trkpt>
      <trkpt lat="44.00162" lon="5.91882">
        <ele>439</ele>
        <time>2020-10-05T10:33:54.000Z</time>
      </trkpt>
      <trkpt lat="44.00162" lon="5.91882">
        <ele>439</ele>
        <time>2020-10-05T10:33:55.000Z</time>
      </trkpt>
      <trkpt lat="44.00162" lon="5.91882">
        <ele>440</ele>
        <time>2020-10-05T10:33:56.000Z</time>
      </trkpt>
      <trkpt lat="44.00162" lon="5.91881">
        <ele>440</ele>
        <time>2020-10-05T10:33:57.000Z</time>
      </trkpt>
      <trkpt lat="44.00162" lon="5.91881">
        <ele>440</ele>
        <time>2020-10-05T10:33:58.000Z</time>
      </trkpt>
      <trkpt lat="44.00162" lon="5.91881">
        <ele>440</ele>
        <time>2020-10-05T10:33:59.000Z</time>
      </trkpt>
      <trkpt lat="44.00162" lon="5.9188">
        <ele>440</ele>
        <time>2020-10-05T10:34:00.000Z</time>
      </trkpt>
      <trkpt lat="44.00162" lon="5.9188">
        <ele>440</ele>
        <time>2020-10-05T10:34:01.000Z</time>
      </trkpt>
      <trkpt lat="44.00162" lon="5.91879">
        <ele>440</ele>
        <time>2020-10-05T10:34:02.000Z</time>
      </trkpt>
      <trkpt lat="44.00162" lon="5.91879">
        <ele>440</ele>
        <time>2020-10-05T10:34:03.000Z</time>
      </trkpt>
      <trkpt lat="44.00162" lon="5.91879">
        <ele>440</ele>
        <time>2020-10-05T10:34:04.000Z</time>
      </trkpt>
      <trkpt lat="44.00161" lon="5.91878">
        <ele>440</ele>
        <time>2020-10-05T10:34:05.000Z</time>
      </trkpt>
      <trkpt lat="44.00161" lon="5.91877">
        <ele>440</ele>
        <time>2020-10-05T10:34:06.000Z</time>
      </trkpt>
      <trkpt lat="44.00161" lon="5.91877">
        <ele>440</ele>
        <time>2020-10-05T10:34:07.000Z</time>
      </trkpt>
      <trkpt lat="44.00161" lon="5.91877">
        <ele>440</ele>
        <time>2020-10-05T10:34:08.000Z</time>
      </trkpt>
      <trkpt lat="44.00161" lon="5.91877">
        <ele>440</ele>
        <time>2020-10-05T10:34:09.000Z</time>
      </trkpt>
      <trkpt lat="44.00161" lon="5.91877">
        <ele>440</ele>
        <time>2020-10-05T10:34:10.000Z</time>
      </trkpt>
      <trkpt lat="44.00161" lon="5.91877">
        <ele>440</ele>
        <time>2020-10-05T10:34:11.000Z</time>
      </trkpt>
      <trkpt lat="44.00161" lon="5.91877">
        <ele>440</ele>
        <time>2020-10-05T10:34:12.000Z</time>
      </trkpt>
      <trkpt lat="44.00161" lon="5.91877">
        <ele>440</ele>
        <time>2020-10-05T10:34:13.000Z</time>
      </trkpt>
      <trkpt lat="44.00161" lon="5.91877">
        <ele>440</ele>
        <time>2020-10-05T10:34:14.000Z</time>
      </trkpt>
      <trkpt lat="44.00161" lon="5.91877">
        <ele>440</ele>
        <time>2020-10-05T10:34:15.000Z</time>
      </trkpt>
      <trkpt lat="44.00161" lon="5.91877">
        <ele>441</ele>
        <time>2020-10-05T10:34:16.000Z</time>
      </trkpt>
      <trkpt lat="44.00161" lon="5.91877">
        <ele>441</ele>
        <time>2020-10-05T10:34:17.000Z</time>
      </trkpt>
      <trkpt lat="44.00161" lon="5.91877">
        <ele>441</ele>
        <time>2020-10-05T10:34:18.000Z</time>
      </trkpt>
      <trkpt lat="44.00161" lon="5.91877">
        <ele>441</ele>
        <time>2020-10-05T10:34:19.000Z</time>
      </trkpt>
      <trkpt lat="44.00161" lon="5.91877">
        <ele>441</ele>
        <time>2020-10-05T10:34:20.000Z</time>
      </trkpt>
      <trkpt lat="44.00161" lon="5.91877">
        <ele>441</ele>
        <time>2020-10-05T10:34:21.000Z</time>
      </trkpt>
      <trkpt lat="44.00161" lon="5.91877">
        <ele>441</ele>
        <time>2020-10-05T10:34:22.000Z</time>
      </trkpt>
      <trkpt lat="44.0016" lon="5.91877">
        <ele>441</ele>
        <time>2020-10-05T10:34:23.000Z</time>
      </trkpt>
      <trkpt lat="44.0016" lon="5.91877">
        <ele>441</ele>
        <time>2020-10-05T10:34:24.000Z</time>
      </trkpt>
      <trkpt lat="44.0016" lon="5.91877">
        <ele>441</ele>
        <time>2020-10-05T10:34:25.000Z</time>
      </trkpt>
      <trkpt lat="44.0016" lon="5.91877">
        <ele>441</ele>
        <time>2020-10-05T10:34:26.000Z</time>
      </trkpt>
      <trkpt lat="44.00159" lon="5.91877">
        <ele>441</ele>
        <time>2020-10-05T10:34:27.000Z</time>
      </trkpt>
      <trkpt lat="44.00159" lon="5.91877">
        <ele>441</ele>
        <time>2020-10-05T10:34:28.000Z</time>
      </trkpt>
      <trkpt lat="44.00159" lon="5.91877">
        <ele>441</ele>
        <time>2020-10-05T10:34:29.000Z</time>
      </trkpt>
      <trkpt lat="44.00159" lon="5.91877">
        <ele>441</ele>
        <time>2020-10-05T10:34:30.000Z</time>
      </trkpt>
      <trkpt lat="44.00159" lon="5.91877">
        <ele>441</ele>
        <time>2020-10-05T10:34:31.000Z</time>
      </trkpt>
      <trkpt lat="44.0016" lon="5.91877">
        <ele>441</ele>
        <time>2020-10-05T10:34:32.000Z</time>
      </trkpt>
      <trkpt lat="44.0016" lon="5.91877">
        <ele>441</ele>
        <time>2020-10-05T10:34:33.000Z</time>
      </trkpt>
      <trkpt lat="44.0016" lon="5.91877">
        <ele>441</ele>
        <time>2020-10-05T10:34:34.000Z</time>
      </trkpt>
      <trkpt lat="44.0016" lon="5.91877">
        <ele>441</ele>
        <time>2020-10-05T10:34:35.000Z</time>
      </trkpt>
      <trkpt lat="44.0016" lon="5.91877">
        <ele>441</ele>
        <time>2020-10-05T10:34:36.000Z</time>
      </trkpt>
      <trkpt lat="44.0016" lon="5.91877">
        <ele>441</ele>
        <time>2020-10-05T10:34:37.000Z</time>
      </trkpt>
      <trkpt lat="44.0016" lon="5.91877">
        <ele>441</ele>
        <time>2020-10-05T10:34:38.000Z</time>
      </trkpt>
      <trkpt lat="44.0016" lon="5.91877">
        <ele>441</ele>
        <time>2020-10-05T10:34:39.000Z</time>
      </trkpt>
      <trkpt lat="44.0016" lon="5.91877">
        <ele>441</ele>
        <time>2020-10-05T10:34:40.000Z</time>
      </trkpt>
      <trkpt lat="44.0016" lon="5.91877">
        <ele>441</ele>
        <time>2020-10-05T10:34:41.000Z</time>
      </trkpt>
      <trkpt lat="44.0016" lon="5.91877">
        <ele>441</ele>
        <time>2020-10-05T10:34:42.000Z</time>
      </trkpt>
      <trkpt lat="44.0016" lon="5.91876">
        <ele>442</ele>
        <time>2020-10-05T10:34:43.000Z</time>
      </trkpt>
      <trkpt lat="44.0016" lon="5.91876">
        <ele>442</ele>
        <time>2020-10-05T10:34:44.000Z</time>
      </trkpt>
      <trkpt lat="44.0016" lon="5.91877">
        <ele>442</ele>
        <time>2020-10-05T10:34:45.000Z</time>
      </trkpt>
      <trkpt lat="44.0016" lon="5.91877">
        <ele>442</ele>
        <time>2020-10-05T10:34:46.000Z</time>
      </trkpt>
      <trkpt lat="44.0016" lon="5.91877">
        <ele>442</ele>
        <time>2020-10-05T10:34:47.000Z</time>
      </trkpt>
      <trkpt lat="44.0016" lon="5.91877">
        <ele>442</ele>
        <time>2020-10-05T10:34:48.000Z</time>
      </trkpt>
      <trkpt lat="44.0016" lon="5.91877">
        <ele>442</ele>
        <time>2020-10-05T10:34:49.000Z</time>
      </trkpt>
      <trkpt lat="44.0016" lon="5.91877">
        <ele>442</ele>
        <time>2020-10-05T10:34:50.000Z</time>
      </trkpt>
      <trkpt lat="44.0016" lon="5.91877">
        <ele>442</ele>
        <time>2020-10-05T10:34:51.000Z</time>
      </trkpt>
      <trkpt lat="44.0016" lon="5.91877">
        <ele>442</ele>
        <time>2020-10-05T10:34:52.000Z</time>
      </trkpt>
      <trkpt lat="44.0016" lon="5.91877">
        <ele>442</ele>
        <time>2020-10-05T10:34:53.000Z</time>
      </trkpt>
      <trkpt lat="44.0016" lon="5.91877">
        <ele>442</ele>
        <time>2020-10-05T10:34:54.000Z</time>
      </trkpt>
      <trkpt lat="44.0016" lon="5.91877">
        <ele>442</ele>
        <time>2020-10-05T10:34:55.000Z</time>
      </trkpt>
      <trkpt lat="44.0016" lon="5.91877">
        <ele>442</ele>
        <time>2020-10-05T10:34:56.000Z</time>
      </trkpt>
      <trkpt lat="44.0016" lon="5.91877">
        <ele>442</ele>
        <time>2020-10-05T10:34:57.000Z</time>
      </trkpt>
      <trkpt lat="44.0016" lon="5.91877">
        <ele>442</ele>
        <time>2020-10-05T10:34:58.000Z</time>
      </trkpt>
      <trkpt lat="44.0016" lon="5.91877">
        <ele>442</ele>
        <time>2020-10-05T10:34:59.000Z</time>
      </trkpt>
      <trkpt lat="44.0016" lon="5.91877">
        <ele>442</ele>
        <time>2020-10-05T10:35:00.000Z</time>
      </trkpt>
      <trkpt lat="44.0016" lon="5.91877">
        <ele>442</ele>
        <time>2020-10-05T10:35:01.000Z</time>
      </trkpt>
      <trkpt lat="44.0016" lon="5.91877">
        <ele>442</ele>
        <time>2020-10-05T10:35:02.000Z</time>
      </trkpt>
      <trkpt lat="44.0016" lon="5.91877">
        <ele>442</ele>
        <time>2020-10-05T10:35:03.000Z</time>
      </trkpt>
      <trkpt lat="44.0016" lon="5.91877">
        <ele>442</ele>
        <time>2020-10-05T10:35:04.000Z</time>
      </trkpt>
      <trkpt lat="44.0016" lon="5.91877">
        <ele>442</ele>
        <time>2020-10-05T10:35:05.000Z</time>
      </trkpt>
      <trkpt lat="44.0016" lon="5.91877">
        <ele>442</ele>
        <time>2020-10-05T10:35:06.000Z</time>
      </trkpt>
      <trkpt lat="44.0016" lon="5.91877">
        <ele>442</ele>
        <time>2020-10-05T10:35:07.000Z</time>
      </trkpt>
      <trkpt lat="44.0016" lon="5.91877">
        <ele>442</ele>
        <time>2020-10-05T10:35:08.000Z</time>
      </trkpt>
      <trkpt lat="44.0016" lon="5.91877">
        <ele>442</ele>
        <time>2020-10-05T10:35:09.000Z</time>
      </trkpt>
      <trkpt lat="44.0016" lon="5.91877">
        <ele>443</ele>
        <time>2020-10-05T10:35:10.000Z</time>
      </trkpt>
      <trkpt lat="44.0016" lon="5.91878">
        <ele>443</ele>
        <time>2020-10-05T10:35:11.000Z</time>
      </trkpt>
      <trkpt lat="44.0016" lon="5.91878">
        <ele>443</ele>
        <time>2020-10-05T10:35:12.000Z</time>
      </trkpt>
      <trkpt lat="44.0016" lon="5.91878">
        <ele>443</ele>
        <time>2020-10-05T10:35:13.000Z</time>
      </trkpt>
      <trkpt lat="44.00159" lon="5.91877">
        <ele>443</ele>
        <time>2020-10-05T10:35:14.000Z</time>
      </trkpt>
      <trkpt lat="44.00159" lon="5.91877">
        <ele>443</ele>
        <time>2020-10-05T10:35:15.000Z</time>
      </trkpt>
      <trkpt lat="44.00159" lon="5.91877">
        <ele>443</ele>
        <time>2020-10-05T10:35:16.000Z</time>
      </trkpt>
      <trkpt lat="44.00159" lon="5.91877">
        <ele>443</ele>
        <time>2020-10-05T10:35:17.000Z</time>
      </trkpt>
      <trkpt lat="44.00159" lon="5.91877">
        <ele>443</ele>
        <time>2020-10-05T10:35:18.000Z</time>
      </trkpt>
      <trkpt lat="44.00159" lon="5.91877">
        <ele>443</ele>
        <time>2020-10-05T10:35:19.000Z</time>
      </trkpt>
      <trkpt lat="44.00159" lon="5.91877">
        <ele>443</ele>
        <time>2020-10-05T10:35:20.000Z</time>
      </trkpt>
      <trkpt lat="44.00159" lon="5.91877">
        <ele>443</ele>
        <time>2020-10-05T10:35:21.000Z</time>
      </trkpt>
      <trkpt lat="44.00159" lon="5.91877">
        <ele>443</ele>
        <time>2020-10-05T10:35:22.000Z</time>
      </trkpt>
      <trkpt lat="44.00159" lon="5.91877">
        <ele>443</ele>
        <time>2020-10-05T10:35:23.000Z</time>
      </trkpt>
      <trkpt lat="44.00159" lon="5.91877">
        <ele>443</ele>
        <time>2020-10-05T10:35:24.000Z</time>
      </trkpt>
      <trkpt lat="44.00159" lon="5.91877">
        <ele>443</ele>
        <time>2020-10-05T10:35:25.000Z</time>
      </trkpt>
      <trkpt lat="44.00158" lon="5.91877">
        <ele>443</ele>
        <time>2020-10-05T10:35:26.000Z</time>
      </trkpt>
      <trkpt lat="44.00158" lon="5.91877">
        <ele>443</ele>
        <time>2020-10-05T10:35:27.000Z</time>
      </trkpt>
      <trkpt lat="44.00158" lon="5.91877">
        <ele>443</ele>
        <time>2020-10-05T10:35:28.000Z</time>
      </trkpt>
      <trkpt lat="44.00158" lon="5.91877">
        <ele>443</ele>
        <time>2020-10-05T10:35:29.000Z</time>
      </trkpt>
      <trkpt lat="44.00158" lon="5.91877">
        <ele>443</ele>
        <time>2020-10-05T10:35:30.000Z</time>
      </trkpt>
      <trkpt lat="44.00158" lon="5.91877">
        <ele>443</ele>
        <time>2020-10-05T10:35:31.000Z</time>
      </trkpt>
      <trkpt lat="44.00158" lon="5.91877">
        <ele>443</ele>
        <time>2020-10-05T10:35:32.000Z</time>
      </trkpt>
      <trkpt lat="44.00158" lon="5.91877">
        <ele>443</ele>
        <time>2020-10-05T10:35:33.000Z</time>
      </trkpt>
      <trkpt lat="44.00158" lon="5.91877">
        <ele>443</ele>
        <time>2020-10-05T10:35:34.000Z</time>
      </trkpt>
      <trkpt lat="44.00158" lon="5.91877">
        <ele>443</ele>
        <time>2020-10-05T10:35:35.000Z</time>
      </trkpt>
      <trkpt lat="44.00158" lon="5.91877">
        <ele>443</ele>
        <time>2020-10-05T10:35:36.000Z</time>
      </trkpt>
      <trkpt lat="44.00158" lon="5.91877">
        <ele>443</ele>
        <time>2020-10-05T10:35:37.000Z</time>
      </trkpt>
      <trkpt lat="44.00158" lon="5.91877">
        <ele>443</ele>
        <time>2020-10-05T10:35:38.000Z</time>
      </trkpt>
      <trkpt lat="44.00158" lon="5.91877">
        <ele>443</ele>
        <time>2020-10-05T10:35:39.000Z</time>
      </trkpt>
      <trkpt lat="44.00158" lon="5.91877">
        <ele>443</ele>
        <time>2020-10-05T10:35:40.000Z</time>
      </trkpt>
      <trkpt lat="44.00158" lon="5.91877">
        <ele>443</ele>
        <time>2020-10-05T10:35:41.000Z</time>
      </trkpt>
      <trkpt lat="44.00159" lon="5.91876">
        <ele>443</ele>
        <time>2020-10-05T10:35:42.000Z</time>
      </trkpt>
      <trkpt lat="44.00159" lon="5.91877">
        <ele>443</ele>
        <time>2020-10-05T10:35:43.000Z</time>
      </trkpt>
      <trkpt lat="44.00159" lon="5.91877">
        <ele>443</ele>
        <time>2020-10-05T10:35:44.000Z</time>
      </trkpt>
      <trkpt lat="44.00159" lon="5.91877">
        <ele>443</ele>
        <time>2020-10-05T10:35:45.000Z</time>
      </trkpt>
      <trkpt lat="44.00159" lon="5.91877">
        <ele>443</ele>
        <time>2020-10-05T10:35:46.000Z</time>
      </trkpt>
      <trkpt lat="44.00159" lon="5.91877">
        <ele>443</ele>
        <time>2020-10-05T10:35:47.000Z</time>
      </trkpt>
      <trkpt lat="44.00159" lon="5.91877">
        <ele>443</ele>
        <time>2020-10-05T10:35:48.000Z</time>
      </trkpt>
      <trkpt lat="44.00159" lon="5.91876">
        <ele>443</ele>
        <time>2020-10-05T10:35:49.000Z</time>
      </trkpt>
      <trkpt lat="44.00159" lon="5.91876">
        <ele>443</ele>
        <time>2020-10-05T10:35:50.000Z</time>
      </trkpt>
      <trkpt lat="44.00159" lon="5.91876">
        <ele>443</ele>
        <time>2020-10-05T10:35:51.000Z</time>
      </trkpt>
      <trkpt lat="44.00159" lon="5.91876">
        <ele>443</ele>
        <time>2020-10-05T10:35:52.000Z</time>
      </trkpt>
      <trkpt lat="44.00159" lon="5.91876">
        <ele>443</ele>
        <time>2020-10-05T10:35:53.000Z</time>
      </trkpt>
      <trkpt lat="44.00159" lon="5.91876">
        <ele>443</ele>
        <time>2020-10-05T10:35:54.000Z</time>
      </trkpt>
      <trkpt lat="44.00159" lon="5.91876">
        <ele>443</ele>
        <time>2020-10-05T10:35:55.000Z</time>
      </trkpt>
      <trkpt lat="44.00159" lon="5.91876">
        <ele>443</ele>
        <time>2020-10-05T10:35:56.000Z</time>
      </trkpt>
      <trkpt lat="44.00159" lon="5.91876">
        <ele>443</ele>
        <time>2020-10-05T10:35:57.000Z</time>
      </trkpt>
      <trkpt lat="44.00159" lon="5.91876">
        <ele>443</ele>
        <time>2020-10-05T10:35:58.000Z</time>
      </trkpt>
      <trkpt lat="44.00159" lon="5.91876">
        <ele>443</ele>
        <time>2020-10-05T10:35:59.000Z</time>
      </trkpt>
      <trkpt lat="44.00159" lon="5.91876">
        <ele>443</ele>
        <time>2020-10-05T10:36:00.000Z</time>
      </trkpt>
      <trkpt lat="44.00159" lon="5.91876">
        <ele>443</ele>
        <time>2020-10-05T10:36:01.000Z</time>
      </trkpt>
      <trkpt lat="44.00159" lon="5.91876">
        <ele>443</ele>
        <time>2020-10-05T10:36:02.000Z</time>
      </trkpt>
      <trkpt lat="44.00159" lon="5.91876">
        <ele>443</ele>
        <time>2020-10-05T10:36:03.000Z</time>
      </trkpt>
      <trkpt lat="44.00159" lon="5.91876">
        <ele>443</ele>
        <time>2020-10-05T10:36:04.000Z</time>
      </trkpt>
      <trkpt lat="44.00159" lon="5.91876">
        <ele>443</ele>
        <time>2020-10-05T10:36:05.000Z</time>
      </trkpt>
      <trkpt lat="44.00159" lon="5.91876">
        <ele>443</ele>
        <time>2020-10-05T10:36:06.000Z</time>
      </trkpt>
      <trkpt lat="44.00159" lon="5.91876">
        <ele>443</ele>
        <time>2020-10-05T10:36:07.000Z</time>
      </trkpt>
      <trkpt lat="44.00159" lon="5.91876">
        <ele>443</ele>
        <time>2020-10-05T10:36:08.000Z</time>
      </trkpt>
      <trkpt lat="44.00159" lon="5.91876">
        <ele>443</ele>
        <time>2020-10-05T10:36:09.000Z</time>
      </trkpt>
      <trkpt lat="44.00159" lon="5.91876">
        <ele>443</ele>
        <time>2020-10-05T10:36:10.000Z</time>
      </trkpt>
      <trkpt lat="44.00159" lon="5.91876">
        <ele>443</ele>
        <time>2020-10-05T10:36:11.000Z</time>
      </trkpt>
      <trkpt lat="44.00159" lon="5.91876">
        <ele>443</ele>
        <time>2020-10-05T10:36:12.000Z</time>
      </trkpt>
      <trkpt lat="44.00159" lon="5.91876">
        <ele>443</ele>
        <time>2020-10-05T10:36:13.000Z</time>
      </trkpt>
      <trkpt lat="44.00159" lon="5.91876">
        <ele>443</ele>
        <time>2020-10-05T10:36:14.000Z</time>
      </trkpt>
      <trkpt lat="44.00159" lon="5.91876">
        <ele>443</ele>
        <time>2020-10-05T10:36:15.000Z</time>
      </trkpt>
      <trkpt lat="44.00159" lon="5.91876">
        <ele>443</ele>
        <time>2020-10-05T10:36:16.000Z</time>
      </trkpt>
      <trkpt lat="44.00159" lon="5.91876">
        <ele>443</ele>
        <time>2020-10-05T10:36:17.000Z</time>
      </trkpt>
      <trkpt lat="44.00159" lon="5.91876">
        <ele>443</ele>
        <time>2020-10-05T10:36:18.000Z</time>
      </trkpt>
      <trkpt lat="44.00159" lon="5.91876">
        <ele>443</ele>
        <time>2020-10-05T10:36:19.000Z</time>
      </trkpt>
      <trkpt lat="44.00159" lon="5.91876">
        <ele>443</ele>
        <time>2020-10-05T10:36:20.000Z</time>
      </trkpt>
      <trkpt lat="44.00159" lon="5.91876">
        <ele>443</ele>
        <time>2020-10-05T10:36:21.000Z</time>
      </trkpt>
      <trkpt lat="44.00159" lon="5.91876">
        <ele>443</ele>
        <time>2020-10-05T10:36:22.000Z</time>
      </trkpt>
      <trkpt lat="44.00159" lon="5.91876">
        <ele>443</ele>
        <time>2020-10-05T10:36:23.000Z</time>
      </trkpt>
      <trkpt lat="44.00159" lon="5.91876">
        <ele>443</ele>
        <time>2020-10-05T10:36:24.000Z</time>
      </trkpt>
      <trkpt lat="44.00159" lon="5.91876">
        <ele>443</ele>
        <time>2020-10-05T10:36:25.000Z</time>
      </trkpt>
      <trkpt lat="44.00159" lon="5.91876">
        <ele>443</ele>
        <time>2020-10-05T10:36:26.000Z</time>
      </trkpt>
      <trkpt lat="44.00159" lon="5.91876">
        <ele>443</ele>
        <time>2020-10-05T10:36:27.000Z</time>
      </trkpt>
      <trkpt lat="44.00159" lon="5.91876">
        <ele>443</ele>
        <time>2020-10-05T10:36:28.000Z</time>
      </trkpt>
      <trkpt lat="44.00159" lon="5.91876">
        <ele>443</ele>
        <time>2020-10-05T10:36:29.000Z</time>
      </trkpt>
      <trkpt lat="44.00159" lon="5.91876">
        <ele>443</ele>
        <time>2020-10-05T10:36:30.000Z</time>
      </trkpt>
      <trkpt lat="44.00159" lon="5.91877">
        <ele>443</ele>
        <time>2020-10-05T10:36:31.000Z</time>
      </trkpt>
      <trkpt lat="44.00159" lon="5.91877">
        <ele>443</ele>
        <time>2020-10-05T10:36:32.000Z</time>
      </trkpt>
      <trkpt lat="44.00159" lon="5.91877">
        <ele>443</ele>
        <time>2020-10-05T10:36:33.000Z</time>
      </trkpt>
      <trkpt lat="44.00159" lon="5.91877">
        <ele>443</ele>
        <time>2020-10-05T10:36:34.000Z</time>
      </trkpt>
      <trkpt lat="44.00159" lon="5.91877">
        <ele>443</ele>
        <time>2020-10-05T10:36:35.000Z</time>
      </trkpt>
      <trkpt lat="44.00159" lon="5.91877">
        <ele>443</ele>
        <time>2020-10-05T10:36:36.000Z</time>
      </trkpt>
      <trkpt lat="44.00159" lon="5.91877">
        <ele>443</ele>
        <time>2020-10-05T10:36:37.000Z</time>
      </trkpt>
      <trkpt lat="44.00159" lon="5.91877">
        <ele>443</ele>
        <time>2020-10-05T10:36:38.000Z</time>
      </trkpt>
      <trkpt lat="44.00159" lon="5.91877">
        <ele>443</ele>
        <time>2020-10-05T10:36:39.000Z</time>
      </trkpt>
      <trkpt lat="44.00159" lon="5.91877">
        <ele>443</ele>
        <time>2020-10-05T10:36:40.000Z</time>
      </trkpt>
      <trkpt lat="44.00159" lon="5.91877">
        <ele>443</ele>
        <time>2020-10-05T10:36:41.000Z</time>
      </trkpt>
      <trkpt lat="44.00159" lon="5.91877">
        <ele>443</ele>
        <time>2020-10-05T10:36:42.000Z</time>
      </trkpt>
      <trkpt lat="44.00159" lon="5.91877">
        <ele>443</ele>
        <time>2020-10-05T10:36:43.000Z</time>
      </trkpt>
      <trkpt lat="44.0016" lon="5.91877">
        <ele>443</ele>
        <time>2020-10-05T10:36:44.000Z</time>
      </trkpt>
      <trkpt lat="44.0016" lon="5.91877">
        <ele>443</ele>
        <time>2020-10-05T10:36:45.000Z</time>
      </trkpt>
      <trkpt lat="44.0016" lon="5.91877">
        <ele>443</ele>
        <time>2020-10-05T10:36:46.000Z</time>
      </trkpt>
      <trkpt lat="44.0016" lon="5.91877">
        <ele>443</ele>
        <time>2020-10-05T10:36:47.000Z</time>
      </trkpt>
      <trkpt lat="44.0016" lon="5.91877">
        <ele>443</ele>
        <time>2020-10-05T10:36:48.000Z</time>
      </trkpt>
      <trkpt lat="44.0016" lon="5.91877">
        <ele>443</ele>
        <time>2020-10-05T10:36:49.000Z</time>
      </trkpt>
      <trkpt lat="44.0016" lon="5.91877">
        <ele>443</ele>
        <time>2020-10-05T10:36:50.000Z</time>
      </trkpt>
      <trkpt lat="44.00159" lon="5.91877">
        <ele>443</ele>
        <time>2020-10-05T10:36:51.000Z</time>
      </trkpt>
      <trkpt lat="44.00159" lon="5.91877">
        <ele>443</ele>
        <time>2020-10-05T10:36:52.000Z</time>
      </trkpt>
      <trkpt lat="44.00159" lon="5.91877">
        <ele>443</ele>
        <time>2020-10-05T10:36:53.000Z</time>
      </trkpt>
      <trkpt lat="44.00159" lon="5.91877">
        <ele>443</ele>
        <time>2020-10-05T10:36:54.000Z</time>
      </trkpt>
      <trkpt lat="44.00159" lon="5.91877">
        <ele>443</ele>
        <time>2020-10-05T10:36:55.000Z</time>
      </trkpt>
      <trkpt lat="44.00159" lon="5.91877">
        <ele>443</ele>
        <time>2020-10-05T10:36:56.000Z</time>
      </trkpt>
      <trkpt lat="44.00159" lon="5.91877">
        <ele>443</ele>
        <time>2020-10-05T10:36:57.000Z</time>
      </trkpt>
      <trkpt lat="44.00159" lon="5.91877">
        <ele>443</ele>
        <time>2020-10-05T10:36:58.000Z</time>
      </trkpt>
      <trkpt lat="44.00159" lon="5.91877">
        <ele>443</ele>
        <time>2020-10-05T10:36:59.000Z</time>
      </trkpt>
      <trkpt lat="44.00159" lon="5.91877">
        <ele>443</ele>
        <time>2020-10-05T10:37:00.000Z</time>
      </trkpt>
      <trkpt lat="44.00159" lon="5.91877">
        <ele>443</ele>
        <time>2020-10-05T10:37:01.000Z</time>
      </trkpt>
      <trkpt lat="44.00159" lon="5.91877">
        <ele>443</ele>
        <time>2020-10-05T10:37:02.000Z</time>
      </trkpt>
      <trkpt lat="44.00159" lon="5.91878">
        <ele>443</ele>
        <time>2020-10-05T10:37:03.000Z</time>
      </trkpt>
      <trkpt lat="44.00159" lon="5.91878">
        <ele>443</ele>
        <time>2020-10-05T10:37:04.000Z</time>
      </trkpt>
      <trkpt lat="44.00159" lon="5.91878">
        <ele>443</ele>
        <time>2020-10-05T10:37:05.000Z</time>
      </trkpt>
      <trkpt lat="44.00159" lon="5.91878">
        <ele>443</ele>
        <time>2020-10-05T10:37:06.000Z</time>
      </trkpt>
      <trkpt lat="44.00159" lon="5.91878">
        <ele>443</ele>
        <time>2020-10-05T10:37:07.000Z</time>
      </trkpt>
      <trkpt lat="44.00159" lon="5.91878">
        <ele>443</ele>
        <time>2020-10-05T10:37:08.000Z</time>
      </trkpt>
      <trkpt lat="44.00159" lon="5.91878">
        <ele>443</ele>
        <time>2020-10-05T10:37:09.000Z</time>
      </trkpt>
      <trkpt lat="44.00159" lon="5.91878">
        <ele>444</ele>
        <time>2020-10-05T10:37:10.000Z</time>
      </trkpt>
      <trkpt lat="44.00159" lon="5.91878">
        <ele>444</ele>
        <time>2020-10-05T10:37:11.000Z</time>
      </trkpt>
      <trkpt lat="44.0016" lon="5.91878">
        <ele>444</ele>
        <time>2020-10-05T10:37:12.000Z</time>
      </trkpt>
      <trkpt lat="44.0016" lon="5.91878">
        <ele>444</ele>
        <time>2020-10-05T10:37:13.000Z</time>
      </trkpt>
      <trkpt lat="44.0016" lon="5.91877">
        <ele>444</ele>
        <time>2020-10-05T10:37:14.000Z</time>
      </trkpt>
      <trkpt lat="44.0016" lon="5.91877">
        <ele>444</ele>
        <time>2020-10-05T10:37:15.000Z</time>
      </trkpt>
      <trkpt lat="44.0016" lon="5.91877">
        <ele>444</ele>
        <time>2020-10-05T10:37:16.000Z</time>
      </trkpt>
      <trkpt lat="44.0016" lon="5.91877">
        <ele>444</ele>
        <time>2020-10-05T10:37:17.000Z</time>
      </trkpt>
      <trkpt lat="44.0016" lon="5.91877">
        <ele>444</ele>
        <time>2020-10-05T10:37:18.000Z</time>
      </trkpt>
      <trkpt lat="44.0016" lon="5.91877">
        <ele>444</ele>
        <time>2020-10-05T10:37:19.000Z</time>
      </trkpt>
      <trkpt lat="44.0016" lon="5.91877">
        <ele>444</ele>
        <time>2020-10-05T10:37:20.000Z</time>
      </trkpt>
      <trkpt lat="44.0016" lon="5.91877">
        <ele>444</ele>
        <time>2020-10-05T10:37:21.000Z</time>
      </trkpt>
      <trkpt lat="44.0016" lon="5.91877">
        <ele>444</ele>
        <time>2020-10-05T10:37:22.000Z</time>
      </trkpt>
      <trkpt lat="44.0016" lon="5.91877">
        <ele>444</ele>
        <time>2020-10-05T10:37:23.000Z</time>
      </trkpt>
      <trkpt lat="44.0016" lon="5.91877">
        <ele>444</ele>
        <time>2020-10-05T10:37:24.000Z</time>
      </trkpt>
      <trkpt lat="44.0016" lon="5.91877">
        <ele>444</ele>
        <time>2020-10-05T10:37:25.000Z</time>
      </trkpt>
      <trkpt lat="44.0016" lon="5.91877">
        <ele>444</ele>
        <time>2020-10-05T10:37:26.000Z</time>
      </trkpt>
      <trkpt lat="44.0016" lon="5.91877">
        <ele>444</ele>
        <time>2020-10-05T10:37:27.000Z</time>
      </trkpt>
      <trkpt lat="44.0016" lon="5.91877">
        <ele>444</ele>
        <time>2020-10-05T10:37:28.000Z</time>
      </trkpt>
      <trkpt lat="44.0016" lon="5.91877">
        <ele>444</ele>
        <time>2020-10-05T10:37:29.000Z</time>
      </trkpt>
      <trkpt lat="44.0016" lon="5.91877">
        <ele>444</ele>
        <time>2020-10-05T10:37:30.000Z</time>
      </trkpt>
      <trkpt lat="44.0016" lon="5.91877">
        <ele>444</ele>
        <time>2020-10-05T10:37:31.000Z</time>
      </trkpt>
      <trkpt lat="44.0016" lon="5.91877">
        <ele>444</ele>
        <time>2020-10-05T10:37:32.000Z</time>
      </trkpt>
      <trkpt lat="44.0016" lon="5.91877">
        <ele>444</ele>
        <time>2020-10-05T10:37:33.000Z</time>
      </trkpt>
      <trkpt lat="44.0016" lon="5.91877">
        <ele>444</ele>
        <time>2020-10-05T10:37:34.000Z</time>
      </trkpt>
      <trkpt lat="44.0016" lon="5.91877">
        <ele>444</ele>
        <time>2020-10-05T10:37:35.000Z</time>
      </trkpt>
      <trkpt lat="44.0016" lon="5.91877">
        <ele>444</ele>
        <time>2020-10-05T10:37:36.000Z</time>
      </trkpt>
      <trkpt lat="44.0016" lon="5.91877">
        <ele>444</ele>
        <time>2020-10-05T10:37:37.000Z</time>
      </trkpt>
      <trkpt lat="44.0016" lon="5.91877">
        <ele>444</ele>
        <time>2020-10-05T10:37:38.000Z</time>
      </trkpt>
      <trkpt lat="44.0016" lon="5.91877">
        <ele>444</ele>
        <time>2020-10-05T10:37:39.000Z</time>
      </trkpt>
      <trkpt lat="44.0016" lon="5.91877">
        <ele>444</ele>
        <time>2020-10-05T10:37:40.000Z</time>
      </trkpt>
      <trkpt lat="44.0016" lon="5.91877">
        <ele>444</ele>
        <time>2020-10-05T10:37:41.000Z</time>
      </trkpt>
      <trkpt lat="44.0016" lon="5.91877">
        <ele>444</ele>
        <time>2020-10-05T10:37:42.000Z</time>
      </trkpt>
      <trkpt lat="44.0016" lon="5.91877">
        <ele>444</ele>
        <time>2020-10-05T10:37:43.000Z</time>
      </trkpt>
      <trkpt lat="44.0016" lon="5.91877">
        <ele>444</ele>
        <time>2020-10-05T10:37:44.000Z</time>
      </trkpt>
      <trkpt lat="44.0016" lon="5.91877">
        <ele>444</ele>
        <time>2020-10-05T10:37:45.000Z</time>
      </trkpt>
      <trkpt lat="44.0016" lon="5.91877">
        <ele>444</ele>
        <time>2020-10-05T10:37:46.000Z</time>
      </trkpt>
      <trkpt lat="44.0016" lon="5.91877">
        <ele>444</ele>
        <time>2020-10-05T10:37:47.000Z</time>
      </trkpt>
      <trkpt lat="44.0016" lon="5.91877">
        <ele>444</ele>
        <time>2020-10-05T10:37:48.000Z</time>
      </trkpt>
      <trkpt lat="44.0016" lon="5.91877">
        <ele>444</ele>
        <time>2020-10-05T10:37:49.000Z</time>
      </trkpt>
      <trkpt lat="44.0016" lon="5.91877">
        <ele>444</ele>
        <time>2020-10-05T10:37:50.000Z</time>
      </trkpt>
      <trkpt lat="44.00159" lon="5.91877">
        <ele>444</ele>
        <time>2020-10-05T10:37:51.000Z</time>
      </trkpt>
      <trkpt lat="44.00159" lon="5.91877">
        <ele>444</ele>
        <time>2020-10-05T10:37:52.000Z</time>
      </trkpt>
      <trkpt lat="44.00159" lon="5.91876">
        <ele>444</ele>
        <time>2020-10-05T10:37:53.000Z</time>
      </trkpt>
      <trkpt lat="44.00158" lon="5.91875">
        <ele>444</ele>
        <time>2020-10-05T10:37:54.000Z</time>
      </trkpt>
      <trkpt lat="44.00158" lon="5.91874">
        <ele>444</ele>
        <time>2020-10-05T10:37:55.000Z</time>
      </trkpt>
      <trkpt lat="44.00157" lon="5.91873">
        <ele>444</ele>
        <time>2020-10-05T10:37:56.000Z</time>
      </trkpt>
      <trkpt lat="44.00157" lon="5.91872">
        <ele>444</ele>
        <time>2020-10-05T10:37:57.000Z</time>
      </trkpt>
      <trkpt lat="44.00157" lon="5.91871">
        <ele>444</ele>
        <time>2020-10-05T10:37:58.000Z</time>
      </trkpt>
      <trkpt lat="44.00157" lon="5.91871">
        <ele>444</ele>
        <time>2020-10-05T10:37:59.000Z</time>
      </trkpt>
      <trkpt lat="44.00157" lon="5.9187">
        <ele>444</ele>
        <time>2020-10-05T10:38:00.000Z</time>
      </trkpt>
      <trkpt lat="44.00157" lon="5.91869">
        <ele>444</ele>
        <time>2020-10-05T10:38:01.000Z</time>
      </trkpt>
      <trkpt lat="44.00157" lon="5.91868">
        <ele>444</ele>
        <time>2020-10-05T10:38:02.000Z</time>
      </trkpt>
      <trkpt lat="44.00157" lon="5.91866">
        <ele>444</ele>
        <time>2020-10-05T10:38:03.000Z</time>
      </trkpt>
      <trkpt lat="44.00158" lon="5.91865">
        <ele>444</ele>
        <time>2020-10-05T10:38:04.000Z</time>
      </trkpt>
      <trkpt lat="44.00158" lon="5.91864">
        <ele>444</ele>
        <time>2020-10-05T10:38:05.000Z</time>
      </trkpt>
      <trkpt lat="44.00158" lon="5.91864">
        <ele>444</ele>
        <time>2020-10-05T10:38:06.000Z</time>
      </trkpt>
      <trkpt lat="44.00159" lon="5.91864">
        <ele>444</ele>
        <time>2020-10-05T10:38:07.000Z</time>
      </trkpt>
      <trkpt lat="44.00159" lon="5.91864">
        <ele>445</ele>
        <time>2020-10-05T10:38:08.000Z</time>
      </trkpt>
      <trkpt lat="44.00159" lon="5.91864">
        <ele>445</ele>
        <time>2020-10-05T10:38:09.000Z</time>
      </trkpt>
      <trkpt lat="44.00159" lon="5.91864">
        <ele>445</ele>
        <time>2020-10-05T10:38:10.000Z</time>
      </trkpt>
      <trkpt lat="44.00159" lon="5.91863">
        <ele>445</ele>
        <time>2020-10-05T10:38:11.000Z</time>
      </trkpt>
      <trkpt lat="44.00159" lon="5.91863">
        <ele>445</ele>
        <time>2020-10-05T10:38:12.000Z</time>
      </trkpt>
      <trkpt lat="44.00159" lon="5.91863">
        <ele>445</ele>
        <time>2020-10-05T10:38:13.000Z</time>
      </trkpt>
      <trkpt lat="44.00158" lon="5.91863">
        <ele>445</ele>
        <time>2020-10-05T10:38:14.000Z</time>
      </trkpt>
      <trkpt lat="44.00158" lon="5.91863">
        <ele>445</ele>
        <time>2020-10-05T10:38:15.000Z</time>
      </trkpt>
      <trkpt lat="44.00158" lon="5.91863">
        <ele>445</ele>
        <time>2020-10-05T10:38:16.000Z</time>
      </trkpt>
      <trkpt lat="44.00158" lon="5.91863">
        <ele>445</ele>
        <time>2020-10-05T10:38:17.000Z</time>
      </trkpt>
      <trkpt lat="44.00158" lon="5.91863">
        <ele>445</ele>
        <time>2020-10-05T10:38:18.000Z</time>
      </trkpt>
      <trkpt lat="44.00158" lon="5.91863">
        <ele>445</ele>
        <time>2020-10-05T10:38:19.000Z</time>
      </trkpt>
      <trkpt lat="44.00158" lon="5.91863">
        <ele>445</ele>
        <time>2020-10-05T10:38:20.000Z</time>
      </trkpt>
      <trkpt lat="44.00158" lon="5.91862">
        <ele>446</ele>
        <time>2020-10-05T10:38:21.000Z</time>
      </trkpt>
      <trkpt lat="44.00157" lon="5.91862">
        <ele>446</ele>
        <time>2020-10-05T10:38:22.000Z</time>
      </trkpt>
      <trkpt lat="44.00157" lon="5.91862">
        <ele>446</ele>
        <time>2020-10-05T10:38:23.000Z</time>
      </trkpt>
      <trkpt lat="44.00157" lon="5.91862">
        <ele>446</ele>
        <time>2020-10-05T10:38:24.000Z</time>
      </trkpt>
      <trkpt lat="44.00157" lon="5.91862">
        <ele>446</ele>
        <time>2020-10-05T10:38:25.000Z</time>
      </trkpt>
      <trkpt lat="44.00157" lon="5.91862">
        <ele>446</ele>
        <time>2020-10-05T10:38:26.000Z</time>
      </trkpt>
      <trkpt lat="44.00157" lon="5.91862">
        <ele>446</ele>
        <time>2020-10-05T10:38:27.000Z</time>
      </trkpt>
      <trkpt lat="44.00157" lon="5.91862">
        <ele>446</ele>
        <time>2020-10-05T10:38:28.000Z</time>
      </trkpt>
      <trkpt lat="44.00157" lon="5.91862">
        <ele>446</ele>
        <time>2020-10-05T10:38:29.000Z</time>
      </trkpt>
      <trkpt lat="44.00157" lon="5.91862">
        <ele>446</ele>
        <time>2020-10-05T10:38:30.000Z</time>
      </trkpt>
      <trkpt lat="44.00157" lon="5.91862">
        <ele>446</ele>
        <time>2020-10-05T10:38:31.000Z</time>
      </trkpt>
      <trkpt lat="44.00157" lon="5.91862">
        <ele>446</ele>
        <time>2020-10-05T10:38:32.000Z</time>
      </trkpt>
      <trkpt lat="44.00157" lon="5.91862">
        <ele>446</ele>
        <time>2020-10-05T10:38:33.000Z</time>
      </trkpt>
      <trkpt lat="44.00157" lon="5.91862">
        <ele>446</ele>
        <time>2020-10-05T10:38:34.000Z</time>
      </trkpt>
      <trkpt lat="44.00157" lon="5.91862">
        <ele>446</ele>
        <time>2020-10-05T10:38:35.000Z</time>
      </trkpt>
      <trkpt lat="44.00157" lon="5.91862">
        <ele>446</ele>
        <time>2020-10-05T10:38:36.000Z</time>
      </trkpt>
      <trkpt lat="44.00157" lon="5.91862">
        <ele>446</ele>
        <time>2020-10-05T10:38:37.000Z</time>
      </trkpt>
      <trkpt lat="44.00157" lon="5.91862">
        <ele>446</ele>
        <time>2020-10-05T10:38:38.000Z</time>
      </trkpt>
      <trkpt lat="44.00157" lon="5.91862">
        <ele>446</ele>
        <time>2020-10-05T10:38:39.000Z</time>
      </trkpt>
      <trkpt lat="44.00157" lon="5.91862">
        <ele>446</ele>
        <time>2020-10-05T10:38:40.000Z</time>
      </trkpt>
      <trkpt lat="44.00158" lon="5.91862">
        <ele>446</ele>
        <time>2020-10-05T10:38:41.000Z</time>
      </trkpt>
      <trkpt lat="44.00158" lon="5.91862">
        <ele>446</ele>
        <time>2020-10-05T10:38:42.000Z</time>
      </trkpt>
      <trkpt lat="44.00158" lon="5.91862">
        <ele>446</ele>
        <time>2020-10-05T10:38:43.000Z</time>
      </trkpt>
      <trkpt lat="44.00158" lon="5.91862">
        <ele>446</ele>
        <time>2020-10-05T10:38:44.000Z</time>
      </trkpt>
      <trkpt lat="44.00158" lon="5.91862">
        <ele>446</ele>
        <time>2020-10-05T10:38:45.000Z</time>
      </trkpt>
      <trkpt lat="44.00158" lon="5.91862">
        <ele>446</ele>
        <time>2020-10-05T10:38:46.000Z</time>
      </trkpt>
      <trkpt lat="44.00158" lon="5.91862">
        <ele>446</ele>
        <time>2020-10-05T10:38:47.000Z</time>
      </trkpt>
      <trkpt lat="44.00158" lon="5.91862">
        <ele>446</ele>
        <time>2020-10-05T10:38:48.000Z</time>
      </trkpt>
      <trkpt lat="44.00158" lon="5.91862">
        <ele>446</ele>
        <time>2020-10-05T10:38:49.000Z</time>
      </trkpt>
      <trkpt lat="44.00158" lon="5.91862">
        <ele>446</ele>
        <time>2020-10-05T10:38:50.000Z</time>
      </trkpt>
      <trkpt lat="44.00158" lon="5.91862">
        <ele>446</ele>
        <time>2020-10-05T10:38:51.000Z</time>
      </trkpt>
      <trkpt lat="44.00158" lon="5.91862">
        <ele>446</ele>
        <time>2020-10-05T10:38:52.000Z</time>
      </trkpt>
      <trkpt lat="44.00158" lon="5.91862">
        <ele>446</ele>
        <time>2020-10-05T10:38:53.000Z</time>
      </trkpt>
      <trkpt lat="44.00158" lon="5.91862">
        <ele>446</ele>
        <time>2020-10-05T10:38:54.000Z</time>
      </trkpt>
      <trkpt lat="44.00158" lon="5.91862">
        <ele>446</ele>
        <time>2020-10-05T10:38:55.000Z</time>
      </trkpt>
      <trkpt lat="44.00158" lon="5.91862">
        <ele>446</ele>
        <time>2020-10-05T10:38:56.000Z</time>
      </trkpt>
      <trkpt lat="44.00157" lon="5.91861">
        <ele>446</ele>
        <time>2020-10-05T10:38:57.000Z</time>
      </trkpt>
      <trkpt lat="44.00158" lon="5.91861">
        <ele>446</ele>
        <time>2020-10-05T10:38:58.000Z</time>
      </trkpt>
      <trkpt lat="44.00158" lon="5.91861">
        <ele>446</ele>
        <time>2020-10-05T10:38:59.000Z</time>
      </trkpt>
      <trkpt lat="44.00158" lon="5.91861">
        <ele>446</ele>
        <time>2020-10-05T10:39:00.000Z</time>
      </trkpt>
      <trkpt lat="44.00158" lon="5.91861">
        <ele>446</ele>
        <time>2020-10-05T10:39:01.000Z</time>
      </trkpt>
      <trkpt lat="44.00158" lon="5.91861">
        <ele>446</ele>
        <time>2020-10-05T10:39:02.000Z</time>
      </trkpt>
      <trkpt lat="44.00158" lon="5.91861">
        <ele>446</ele>
        <time>2020-10-05T10:39:03.000Z</time>
      </trkpt>
      <trkpt lat="44.00158" lon="5.91861">
        <ele>446</ele>
        <time>2020-10-05T10:39:04.000Z</time>
      </trkpt>
      <trkpt lat="44.00158" lon="5.91861">
        <ele>446</ele>
        <time>2020-10-05T10:39:05.000Z</time>
      </trkpt>
      <trkpt lat="44.00158" lon="5.91861">
        <ele>446</ele>
        <time>2020-10-05T10:39:06.000Z</time>
      </trkpt>
      <trkpt lat="44.00158" lon="5.91862">
        <ele>446</ele>
        <time>2020-10-05T10:39:07.000Z</time>
      </trkpt>
      <trkpt lat="44.00158" lon="5.91862">
        <ele>446</ele>
        <time>2020-10-05T10:39:08.000Z</time>
      </trkpt>
      <trkpt lat="44.00158" lon="5.91862">
        <ele>446</ele>
        <time>2020-10-05T10:39:09.000Z</time>
      </trkpt>
      <trkpt lat="44.00158" lon="5.91862">
        <ele>446</ele>
        <time>2020-10-05T10:39:10.000Z</time>
      </trkpt>
      <trkpt lat="44.00158" lon="5.91862">
        <ele>446</ele>
        <time>2020-10-05T10:39:11.000Z</time>
      </trkpt>
      <trkpt lat="44.00158" lon="5.91862">
        <ele>446</ele>
        <time>2020-10-05T10:39:12.000Z</time>
      </trkpt>
      <trkpt lat="44.00158" lon="5.91862">
        <ele>446</ele>
        <time>2020-10-05T10:39:13.000Z</time>
      </trkpt>
      <trkpt lat="44.00158" lon="5.91862">
        <ele>446</ele>
        <time>2020-10-05T10:39:14.000Z</time>
      </trkpt>
      <trkpt lat="44.00158" lon="5.91862">
        <ele>446</ele>
        <time>2020-10-05T10:39:15.000Z</time>
      </trkpt>
      <trkpt lat="44.00158" lon="5.91862">
        <ele>446</ele>
        <time>2020-10-05T10:39:16.000Z</time>
      </trkpt>
      <trkpt lat="44.00158" lon="5.91862">
        <ele>446</ele>
        <time>2020-10-05T10:39:17.000Z</time>
      </trkpt>
      <trkpt lat="44.00158" lon="5.91862">
        <ele>446</ele>
        <time>2020-10-05T10:39:18.000Z</time>
      </trkpt>
      <trkpt lat="44.00158" lon="5.91862">
        <ele>446</ele>
        <time>2020-10-05T10:39:19.000Z</time>
      </trkpt>
      <trkpt lat="44.00158" lon="5.91862">
        <ele>446</ele>
        <time>2020-10-05T10:39:20.000Z</time>
      </trkpt>
      <trkpt lat="44.00158" lon="5.91862">
        <ele>446</ele>
        <time>2020-10-05T10:39:21.000Z</time>
      </trkpt>
      <trkpt lat="44.00158" lon="5.91862">
        <ele>446</ele>
        <time>2020-10-05T10:39:22.000Z</time>
      </trkpt>
      <trkpt lat="44.00158" lon="5.91862">
        <ele>446</ele>
        <time>2020-10-05T10:39:23.000Z</time>
      </trkpt>
      <trkpt lat="44.00158" lon="5.91862">
        <ele>445</ele>
        <time>2020-10-05T10:39:24.000Z</time>
      </trkpt>
      <trkpt lat="44.00158" lon="5.91862">
        <ele>446</ele>
        <time>2020-10-05T10:39:25.000Z</time>
      </trkpt>
      <trkpt lat="44.00158" lon="5.91862">
        <ele>446</ele>
        <time>2020-10-05T10:39:26.000Z</time>
      </trkpt>
      <trkpt lat="44.00158" lon="5.91862">
        <ele>446</ele>
        <time>2020-10-05T10:39:27.000Z</time>
      </trkpt>
      <trkpt lat="44.00158" lon="5.91862">
        <ele>446</ele>
        <time>2020-10-05T10:39:28.000Z</time>
      </trkpt>
      <trkpt lat="44.00158" lon="5.91862">
        <ele>446</ele>
        <time>2020-10-05T10:39:29.000Z</time>
      </trkpt>
      <trkpt lat="44.00158" lon="5.91863">
        <ele>446</ele>
        <time>2020-10-05T10:39:30.000Z</time>
      </trkpt>
      <trkpt lat="44.00158" lon="5.91863">
        <ele>446</ele>
        <time>2020-10-05T10:39:31.000Z</time>
      </trkpt>
      <trkpt lat="44.00158" lon="5.91863">
        <ele>446</ele>
        <time>2020-10-05T10:39:32.000Z</time>
      </trkpt>
      <trkpt lat="44.00158" lon="5.91863">
        <ele>446</ele>
        <time>2020-10-05T10:39:33.000Z</time>
      </trkpt>
      <trkpt lat="44.00158" lon="5.91863">
        <ele>446</ele>
        <time>2020-10-05T10:39:34.000Z</time>
      </trkpt>
      <trkpt lat="44.00158" lon="5.91863">
        <ele>446</ele>
        <time>2020-10-05T10:39:35.000Z</time>
      </trkpt>
      <trkpt lat="44.00158" lon="5.91863">
        <ele>446</ele>
        <time>2020-10-05T10:39:36.000Z</time>
      </trkpt>
      <trkpt lat="44.00158" lon="5.91863">
        <ele>446</ele>
        <time>2020-10-05T10:39:37.000Z</time>
      </trkpt>
      <trkpt lat="44.00158" lon="5.91863">
        <ele>446</ele>
        <time>2020-10-05T10:39:38.000Z</time>
      </trkpt>
      <trkpt lat="44.00158" lon="5.91863">
        <ele>446</ele>
        <time>2020-10-05T10:39:39.000Z</time>
      </trkpt>
      <trkpt lat="44.00158" lon="5.91863">
        <ele>446</ele>
        <time>2020-10-05T10:39:40.000Z</time>
      </trkpt>
      <trkpt lat="44.00158" lon="5.91863">
        <ele>446</ele>
        <time>2020-10-05T10:39:41.000Z</time>
      </trkpt>
      <trkpt lat="44.00158" lon="5.91863">
        <ele>446</ele>
        <time>2020-10-05T10:39:42.000Z</time>
      </trkpt>
      <trkpt lat="44.00158" lon="5.91863">
        <ele>446</ele>
        <time>2020-10-05T10:39:43.000Z</time>
      </trkpt>
      <trkpt lat="44.00158" lon="5.91863">
        <ele>446</ele>
        <time>2020-10-05T10:39:44.000Z</time>
      </trkpt>
      <trkpt lat="44.00158" lon="5.91863">
        <ele>446</ele>
        <time>2020-10-05T10:39:45.000Z</time>
      </trkpt>
      <trkpt lat="44.00158" lon="5.91863">
        <ele>446</ele>
        <time>2020-10-05T10:39:46.000Z</time>
      </trkpt>
      <trkpt lat="44.00158" lon="5.91863">
        <ele>446</ele>
        <time>2020-10-05T10:39:47.000Z</time>
      </trkpt>
      <trkpt lat="44.00158" lon="5.91863">
        <ele>446</ele>
        <time>2020-10-05T10:39:48.000Z</time>
      </trkpt>
      <trkpt lat="44.00158" lon="5.91863">
        <ele>446</ele>
        <time>2020-10-05T10:39:49.000Z</time>
      </trkpt>
      <trkpt lat="44.00158" lon="5.91863">
        <ele>446</ele>
        <time>2020-10-05T10:39:50.000Z</time>
      </trkpt>
      <trkpt lat="44.00158" lon="5.91863">
        <ele>446</ele>
        <time>2020-10-05T10:39:51.000Z</time>
      </trkpt>
      <trkpt lat="44.00158" lon="5.91863">
        <ele>446</ele>
        <time>2020-10-05T10:39:52.000Z</time>
      </trkpt>
      <trkpt lat="44.00158" lon="5.91863">
        <ele>445</ele>
        <time>2020-10-05T10:39:53.000Z</time>
      </trkpt>
      <trkpt lat="44.00158" lon="5.91863">
        <ele>445</ele>
        <time>2020-10-05T10:39:54.000Z</time>
      </trkpt>
      <trkpt lat="44.00158" lon="5.91863">
        <ele>445</ele>
        <time>2020-10-05T10:39:55.000Z</time>
      </trkpt>
      <trkpt lat="44.00158" lon="5.91863">
        <ele>445</ele>
        <time>2020-10-05T10:39:56.000Z</time>
      </trkpt>
      <trkpt lat="44.00158" lon="5.91863">
        <ele>445</ele>
        <time>2020-10-05T10:39:57.000Z</time>
      </trkpt>
      <trkpt lat="44.00158" lon="5.91863">
        <ele>445</ele>
        <time>2020-10-05T10:39:58.000Z</time>
      </trkpt>
      <trkpt lat="44.00158" lon="5.91863">
        <ele>446</ele>
        <time>2020-10-05T10:39:59.000Z</time>
      </trkpt>
      <trkpt lat="44.00158" lon="5.91863">
        <ele>446</ele>
        <time>2020-10-05T10:40:00.000Z</time>
      </trkpt>
      <trkpt lat="44.00158" lon="5.91863">
        <ele>446</ele>
        <time>2020-10-05T10:40:01.000Z</time>
      </trkpt>
      <trkpt lat="44.00158" lon="5.91863">
        <ele>446</ele>
        <time>2020-10-05T10:40:02.000Z</time>
      </trkpt>
      <trkpt lat="44.00158" lon="5.91863">
        <ele>446</ele>
        <time>2020-10-05T10:40:03.000Z</time>
      </trkpt>
      <trkpt lat="44.00158" lon="5.91863">
        <ele>446</ele>
        <time>2020-10-05T10:40:04.000Z</time>
      </trkpt>
      <trkpt lat="44.00158" lon="5.91863">
        <ele>446</ele>
        <time>2020-10-05T10:40:05.000Z</time>
      </trkpt>
      <trkpt lat="44.00158" lon="5.91863">
        <ele>446</ele>
        <time>2020-10-05T10:40:06.000Z</time>
      </trkpt>
      <trkpt lat="44.00158" lon="5.91862">
        <ele>446</ele>
        <time>2020-10-05T10:40:07.000Z</time>
      </trkpt>
      <trkpt lat="44.00158" lon="5.91862">
        <ele>446</ele>
        <time>2020-10-05T10:40:08.000Z</time>
      </trkpt>
      <trkpt lat="44.00158" lon="5.91862">
        <ele>446</ele>
        <time>2020-10-05T10:40:09.000Z</time>
      </trkpt>
      <trkpt lat="44.00158" lon="5.91862">
        <ele>446</ele>
        <time>2020-10-05T10:40:10.000Z</time>
      </trkpt>
      <trkpt lat="44.00158" lon="5.91862">
        <ele>446</ele>
        <time>2020-10-05T10:40:11.000Z</time>
      </trkpt>
      <trkpt lat="44.00158" lon="5.91862">
        <ele>446</ele>
        <time>2020-10-05T10:40:12.000Z</time>
      </trkpt>
      <trkpt lat="44.00158" lon="5.91862">
        <ele>446</ele>
        <time>2020-10-05T10:40:13.000Z</time>
      </trkpt>
      <trkpt lat="44.00158" lon="5.91862">
        <ele>446</ele>
        <time>2020-10-05T10:40:14.000Z</time>
      </trkpt>
      <trkpt lat="44.00158" lon="5.91862">
        <ele>446</ele>
        <time>2020-10-05T10:40:15.000Z</time>
      </trkpt>
      <trkpt lat="44.00157" lon="5.91861">
        <ele>446</ele>
        <time>2020-10-05T10:40:16.000Z</time>
      </trkpt>
      <trkpt lat="44.00157" lon="5.91861">
        <ele>446</ele>
        <time>2020-10-05T10:40:17.000Z</time>
      </trkpt>
      <trkpt lat="44.00157" lon="5.9186">
        <ele>446</ele>
        <time>2020-10-05T10:40:18.000Z</time>
      </trkpt>
      <trkpt lat="44.00157" lon="5.91859">
        <ele>446</ele>
        <time>2020-10-05T10:40:19.000Z</time>
      </trkpt>
      <trkpt lat="44.00157" lon="5.91858">
        <ele>446</ele>
        <time>2020-10-05T10:40:20.000Z</time>
      </trkpt>
      <trkpt lat="44.00156" lon="5.91858">
        <ele>446</ele>
        <time>2020-10-05T10:40:21.000Z</time>
      </trkpt>
      <trkpt lat="44.00156" lon="5.91857">
        <ele>446</ele>
        <time>2020-10-05T10:40:22.000Z</time>
      </trkpt>
      <trkpt lat="44.00156" lon="5.91857">
        <ele>446</ele>
        <time>2020-10-05T10:40:23.000Z</time>
      </trkpt>
      <trkpt lat="44.00156" lon="5.91856">
        <ele>446</ele>
        <time>2020-10-05T10:40:24.000Z</time>
      </trkpt>
      <trkpt lat="44.00155" lon="5.91855">
        <ele>446</ele>
        <time>2020-10-05T10:40:25.000Z</time>
      </trkpt>
      <trkpt lat="44.00155" lon="5.91855">
        <ele>446</ele>
        <time>2020-10-05T10:40:26.000Z</time>
      </trkpt>
      <trkpt lat="44.00155" lon="5.91855">
        <ele>446</ele>
        <time>2020-10-05T10:40:27.000Z</time>
      </trkpt>
      <trkpt lat="44.00154" lon="5.91854">
        <ele>446</ele>
        <time>2020-10-05T10:40:28.000Z</time>
      </trkpt>
      <trkpt lat="44.00154" lon="5.91854">
        <ele>446</ele>
        <time>2020-10-05T10:40:29.000Z</time>
      </trkpt>
      <trkpt lat="44.00154" lon="5.91853">
        <ele>446</ele>
        <time>2020-10-05T10:40:30.000Z</time>
      </trkpt>
      <trkpt lat="44.00153" lon="5.91852">
        <ele>446</ele>
        <time>2020-10-05T10:40:31.000Z</time>
      </trkpt>
      <trkpt lat="44.00153" lon="5.91851">
        <ele>446</ele>
        <time>2020-10-05T10:40:32.000Z</time>
      </trkpt>
      <trkpt lat="44.00153" lon="5.9185">
        <ele>446</ele>
        <time>2020-10-05T10:40:33.000Z</time>
      </trkpt>
      <trkpt lat="44.00152" lon="5.91849">
        <ele>446</ele>
        <time>2020-10-05T10:40:34.000Z</time>
      </trkpt>
      <trkpt lat="44.00152" lon="5.91848">
        <ele>446</ele>
        <time>2020-10-05T10:40:35.000Z</time>
      </trkpt>
      <trkpt lat="44.00152" lon="5.91847">
        <ele>446</ele>
        <time>2020-10-05T10:40:36.000Z</time>
      </trkpt>
      <trkpt lat="44.00152" lon="5.91846">
        <ele>446</ele>
        <time>2020-10-05T10:40:37.000Z</time>
      </trkpt>
      <trkpt lat="44.00152" lon="5.91845">
        <ele>446</ele>
        <time>2020-10-05T10:40:38.000Z</time>
      </trkpt>
      <trkpt lat="44.00152" lon="5.91845">
        <ele>446</ele>
        <time>2020-10-05T10:40:39.000Z</time>
      </trkpt>
      <trkpt lat="44.00152" lon="5.91843">
        <ele>446</ele>
        <time>2020-10-05T10:40:40.000Z</time>
      </trkpt>
      <trkpt lat="44.00151" lon="5.91842">
        <ele>446</ele>
        <time>2020-10-05T10:40:41.000Z</time>
      </trkpt>
      <trkpt lat="44.00151" lon="5.91841">
        <ele>446</ele>
        <time>2020-10-05T10:40:42.000Z</time>
      </trkpt>
      <trkpt lat="44.00151" lon="5.9184">
        <ele>446</ele>
        <time>2020-10-05T10:40:43.000Z</time>
      </trkpt>
      <trkpt lat="44.00151" lon="5.91839">
        <ele>446</ele>
        <time>2020-10-05T10:40:44.000Z</time>
      </trkpt>
      <trkpt lat="44.00152" lon="5.91838">
        <ele>446</ele>
        <time>2020-10-05T10:40:45.000Z</time>
      </trkpt>
      <trkpt lat="44.00152" lon="5.91837">
        <ele>446</ele>
        <time>2020-10-05T10:40:46.000Z</time>
      </trkpt>
      <trkpt lat="44.00152" lon="5.91836">
        <ele>446</ele>
        <time>2020-10-05T10:40:47.000Z</time>
      </trkpt>
      <trkpt lat="44.00152" lon="5.91835">
        <ele>446</ele>
        <time>2020-10-05T10:40:48.000Z</time>
      </trkpt>
      <trkpt lat="44.00152" lon="5.91834">
        <ele>446</ele>
        <time>2020-10-05T10:40:49.000Z</time>
      </trkpt>
      <trkpt lat="44.00152" lon="5.91834">
        <ele>446</ele>
        <time>2020-10-05T10:40:50.000Z</time>
      </trkpt>
      <trkpt lat="44.00152" lon="5.91834">
        <ele>446</ele>
        <time>2020-10-05T10:40:51.000Z</time>
      </trkpt>
      <trkpt lat="44.00152" lon="5.91833">
        <ele>446</ele>
        <time>2020-10-05T10:40:52.000Z</time>
      </trkpt>
      <trkpt lat="44.00152" lon="5.91832">
        <ele>446</ele>
        <time>2020-10-05T10:40:53.000Z</time>
      </trkpt>
      <trkpt lat="44.00152" lon="5.91832">
        <ele>446</ele>
        <time>2020-10-05T10:40:54.000Z</time>
      </trkpt>
      <trkpt lat="44.00152" lon="5.91831">
        <ele>446</ele>
        <time>2020-10-05T10:40:55.000Z</time>
      </trkpt>
      <trkpt lat="44.00152" lon="5.9183">
        <ele>446</ele>
        <time>2020-10-05T10:40:56.000Z</time>
      </trkpt>
      <trkpt lat="44.00152" lon="5.9183">
        <ele>446</ele>
        <time>2020-10-05T10:40:57.000Z</time>
      </trkpt>
      <trkpt lat="44.00153" lon="5.91829">
        <ele>446</ele>
        <time>2020-10-05T10:40:58.000Z</time>
      </trkpt>
      <trkpt lat="44.00153" lon="5.91828">
        <ele>446</ele>
        <time>2020-10-05T10:40:59.000Z</time>
      </trkpt>
      <trkpt lat="44.00154" lon="5.91828">
        <ele>446</ele>
        <time>2020-10-05T10:41:00.000Z</time>
      </trkpt>
      <trkpt lat="44.00154" lon="5.91827">
        <ele>446</ele>
        <time>2020-10-05T10:41:01.000Z</time>
      </trkpt>
      <trkpt lat="44.00154" lon="5.91826">
        <ele>447</ele>
        <time>2020-10-05T10:41:02.000Z</time>
      </trkpt>
      <trkpt lat="44.00155" lon="5.91825">
        <ele>447</ele>
        <time>2020-10-05T10:41:03.000Z</time>
      </trkpt>
      <trkpt lat="44.00155" lon="5.91825">
        <ele>447</ele>
        <time>2020-10-05T10:41:04.000Z</time>
      </trkpt>
      <trkpt lat="44.00155" lon="5.91824">
        <ele>447</ele>
        <time>2020-10-05T10:41:05.000Z</time>
      </trkpt>
      <trkpt lat="44.00156" lon="5.91824">
        <ele>447</ele>
        <time>2020-10-05T10:41:06.000Z</time>
      </trkpt>
      <trkpt lat="44.00156" lon="5.91823">
        <ele>447</ele>
        <time>2020-10-05T10:41:07.000Z</time>
      </trkpt>
      <trkpt lat="44.00156" lon="5.91823">
        <ele>448</ele>
        <time>2020-10-05T10:41:08.000Z</time>
      </trkpt>
      <trkpt lat="44.00156" lon="5.91822">
        <ele>448</ele>
        <time>2020-10-05T10:41:09.000Z</time>
      </trkpt>
      <trkpt lat="44.00156" lon="5.91822">
        <ele>448</ele>
        <time>2020-10-05T10:41:10.000Z</time>
      </trkpt>
      <trkpt lat="44.00157" lon="5.91821">
        <ele>448</ele>
        <time>2020-10-05T10:41:11.000Z</time>
      </trkpt>
      <trkpt lat="44.00157" lon="5.9182">
        <ele>449</ele>
        <time>2020-10-05T10:41:12.000Z</time>
      </trkpt>
      <trkpt lat="44.00157" lon="5.9182">
        <ele>449</ele>
        <time>2020-10-05T10:41:13.000Z</time>
      </trkpt>
      <trkpt lat="44.00157" lon="5.91819">
        <ele>449</ele>
        <time>2020-10-05T10:41:14.000Z</time>
      </trkpt>
      <trkpt lat="44.00157" lon="5.91818">
        <ele>449</ele>
        <time>2020-10-05T10:41:15.000Z</time>
      </trkpt>
      <trkpt lat="44.00158" lon="5.91818">
        <ele>449</ele>
        <time>2020-10-05T10:41:16.000Z</time>
      </trkpt>
      <trkpt lat="44.00158" lon="5.91817">
        <ele>450</ele>
        <time>2020-10-05T10:41:17.000Z</time>
      </trkpt>
      <trkpt lat="44.00158" lon="5.91816">
        <ele>450</ele>
        <time>2020-10-05T10:41:18.000Z</time>
      </trkpt>
      <trkpt lat="44.00159" lon="5.91816">
        <ele>450</ele>
        <time>2020-10-05T10:41:19.000Z</time>
      </trkpt>
      <trkpt lat="44.00159" lon="5.91815">
        <ele>450</ele>
        <time>2020-10-05T10:41:20.000Z</time>
      </trkpt>
      <trkpt lat="44.00159" lon="5.91815">
        <ele>450</ele>
        <time>2020-10-05T10:41:21.000Z</time>
      </trkpt>
      <trkpt lat="44.00159" lon="5.91814">
        <ele>450</ele>
        <time>2020-10-05T10:41:22.000Z</time>
      </trkpt>
      <trkpt lat="44.00159" lon="5.91814">
        <ele>450</ele>
        <time>2020-10-05T10:41:23.000Z</time>
      </trkpt>
      <trkpt lat="44.00159" lon="5.91814">
        <ele>451</ele>
        <time>2020-10-05T10:41:24.000Z</time>
      </trkpt>
      <trkpt lat="44.00159" lon="5.91814">
        <ele>451</ele>
        <time>2020-10-05T10:41:25.000Z</time>
      </trkpt>
      <trkpt lat="44.00159" lon="5.91814">
        <ele>451</ele>
        <time>2020-10-05T10:41:26.000Z</time>
      </trkpt>
      <trkpt lat="44.00159" lon="5.91813">
        <ele>451</ele>
        <time>2020-10-05T10:41:27.000Z</time>
      </trkpt>
      <trkpt lat="44.00159" lon="5.91813">
        <ele>451</ele>
        <time>2020-10-05T10:41:28.000Z</time>
      </trkpt>
      <trkpt lat="44.00159" lon="5.91813">
        <ele>451</ele>
        <time>2020-10-05T10:41:29.000Z</time>
      </trkpt>
      <trkpt lat="44.00159" lon="5.91813">
        <ele>451</ele>
        <time>2020-10-05T10:41:30.000Z</time>
      </trkpt>
      <trkpt lat="44.00159" lon="5.91813">
        <ele>451</ele>
        <time>2020-10-05T10:41:31.000Z</time>
      </trkpt>
      <trkpt lat="44.00159" lon="5.91812">
        <ele>451</ele>
        <time>2020-10-05T10:41:32.000Z</time>
      </trkpt>
      <trkpt lat="44.00159" lon="5.91812">
        <ele>451</ele>
        <time>2020-10-05T10:41:33.000Z</time>
      </trkpt>
      <trkpt lat="44.00159" lon="5.91811">
        <ele>451</ele>
        <time>2020-10-05T10:41:34.000Z</time>
      </trkpt>
      <trkpt lat="44.00159" lon="5.91811">
        <ele>451</ele>
        <time>2020-10-05T10:41:35.000Z</time>
      </trkpt>
      <trkpt lat="44.00159" lon="5.91811">
        <ele>452</ele>
        <time>2020-10-05T10:41:36.000Z</time>
      </trkpt>
      <trkpt lat="44.00159" lon="5.91811">
        <ele>452</ele>
        <time>2020-10-05T10:41:37.000Z</time>
      </trkpt>
      <trkpt lat="44.00159" lon="5.9181">
        <ele>452</ele>
        <time>2020-10-05T10:41:38.000Z</time>
      </trkpt>
      <trkpt lat="44.00159" lon="5.9181">
        <ele>452</ele>
        <time>2020-10-05T10:41:39.000Z</time>
      </trkpt>
      <trkpt lat="44.00159" lon="5.91809">
        <ele>452</ele>
        <time>2020-10-05T10:41:40.000Z</time>
      </trkpt>
      <trkpt lat="44.00159" lon="5.91809">
        <ele>452</ele>
        <time>2020-10-05T10:41:41.000Z</time>
      </trkpt>
      <trkpt lat="44.00159" lon="5.91808">
        <ele>452</ele>
        <time>2020-10-05T10:41:42.000Z</time>
      </trkpt>
      <trkpt lat="44.00159" lon="5.91808">
        <ele>452</ele>
        <time>2020-10-05T10:41:43.000Z</time>
      </trkpt>
      <trkpt lat="44.00159" lon="5.91808">
        <ele>453</ele>
        <time>2020-10-05T10:41:44.000Z</time>
      </trkpt>
      <trkpt lat="44.0016" lon="5.91808">
        <ele>453</ele>
        <time>2020-10-05T10:41:45.000Z</time>
      </trkpt>
      <trkpt lat="44.0016" lon="5.91807">
        <ele>453</ele>
        <time>2020-10-05T10:41:46.000Z</time>
      </trkpt>
      <trkpt lat="44.00161" lon="5.91807">
        <ele>453</ele>
        <time>2020-10-05T10:41:47.000Z</time>
      </trkpt>
      <trkpt lat="44.00161" lon="5.91807">
        <ele>453</ele>
        <time>2020-10-05T10:41:48.000Z</time>
      </trkpt>
      <trkpt lat="44.00161" lon="5.91806">
        <ele>453</ele>
        <time>2020-10-05T10:41:49.000Z</time>
      </trkpt>
      <trkpt lat="44.00161" lon="5.91806">
        <ele>453</ele>
        <time>2020-10-05T10:41:50.000Z</time>
      </trkpt>
      <trkpt lat="44.00161" lon="5.91805">
        <ele>453</ele>
        <time>2020-10-05T10:41:51.000Z</time>
      </trkpt>
      <trkpt lat="44.00161" lon="5.91805">
        <ele>453</ele>
        <time>2020-10-05T10:41:52.000Z</time>
      </trkpt>
      <trkpt lat="44.00162" lon="5.91804">
        <ele>453</ele>
        <time>2020-10-05T10:41:53.000Z</time>
      </trkpt>
      <trkpt lat="44.00162" lon="5.91804">
        <ele>453</ele>
        <time>2020-10-05T10:41:54.000Z</time>
      </trkpt>
      <trkpt lat="44.00163" lon="5.91803">
        <ele>453</ele>
        <time>2020-10-05T10:41:55.000Z</time>
      </trkpt>
      <trkpt lat="44.00163" lon="5.91802">
        <ele>453</ele>
        <time>2020-10-05T10:41:56.000Z</time>
      </trkpt>
      <trkpt lat="44.00163" lon="5.91801">
        <ele>453</ele>
        <time>2020-10-05T10:41:57.000Z</time>
      </trkpt>
      <trkpt lat="44.00164" lon="5.91801">
        <ele>453</ele>
        <time>2020-10-05T10:41:58.000Z</time>
      </trkpt>
      <trkpt lat="44.00164" lon="5.918">
        <ele>453</ele>
        <time>2020-10-05T10:41:59.000Z</time>
      </trkpt>
      <trkpt lat="44.00165" lon="5.918">
        <ele>454</ele>
        <time>2020-10-05T10:42:00.000Z</time>
      </trkpt>
      <trkpt lat="44.00165" lon="5.91799">
        <ele>454</ele>
        <time>2020-10-05T10:42:01.000Z</time>
      </trkpt>
      <trkpt lat="44.00165" lon="5.91798">
        <ele>453</ele>
        <time>2020-10-05T10:42:02.000Z</time>
      </trkpt>
      <trkpt lat="44.00165" lon="5.91797">
        <ele>453</ele>
        <time>2020-10-05T10:42:03.000Z</time>
      </trkpt>
      <trkpt lat="44.00166" lon="5.91796">
        <ele>453</ele>
        <time>2020-10-05T10:42:04.000Z</time>
      </trkpt>
      <trkpt lat="44.00166" lon="5.91795">
        <ele>453</ele>
        <time>2020-10-05T10:42:05.000Z</time>
      </trkpt>
      <trkpt lat="44.00166" lon="5.91794">
        <ele>453</ele>
        <time>2020-10-05T10:42:06.000Z</time>
      </trkpt>
      <trkpt lat="44.00167" lon="5.91794">
        <ele>454</ele>
        <time>2020-10-05T10:42:07.000Z</time>
      </trkpt>
      <trkpt lat="44.00167" lon="5.91793">
        <ele>454</ele>
        <time>2020-10-05T10:42:08.000Z</time>
      </trkpt>
      <trkpt lat="44.00167" lon="5.91792">
        <ele>454</ele>
        <time>2020-10-05T10:42:09.000Z</time>
      </trkpt>
      <trkpt lat="44.00167" lon="5.91791">
        <ele>454</ele>
        <time>2020-10-05T10:42:10.000Z</time>
      </trkpt>
      <trkpt lat="44.00167" lon="5.9179">
        <ele>454</ele>
        <time>2020-10-05T10:42:11.000Z</time>
      </trkpt>
      <trkpt lat="44.00168" lon="5.91789">
        <ele>454</ele>
        <time>2020-10-05T10:42:12.000Z</time>
      </trkpt>
      <trkpt lat="44.00168" lon="5.91788">
        <ele>454</ele>
        <time>2020-10-05T10:42:13.000Z</time>
      </trkpt>
      <trkpt lat="44.00168" lon="5.91787">
        <ele>454</ele>
        <time>2020-10-05T10:42:14.000Z</time>
      </trkpt>
      <trkpt lat="44.00169" lon="5.91787">
        <ele>454</ele>
        <time>2020-10-05T10:42:15.000Z</time>
      </trkpt>
      <trkpt lat="44.00169" lon="5.91787">
        <ele>454</ele>
        <time>2020-10-05T10:42:16.000Z</time>
      </trkpt>
      <trkpt lat="44.00169" lon="5.91787">
        <ele>454</ele>
        <time>2020-10-05T10:42:17.000Z</time>
      </trkpt>
      <trkpt lat="44.00169" lon="5.91787">
        <ele>454</ele>
        <time>2020-10-05T10:42:18.000Z</time>
      </trkpt>
      <trkpt lat="44.00169" lon="5.91787">
        <ele>454</ele>
        <time>2020-10-05T10:42:19.000Z</time>
      </trkpt>
      <trkpt lat="44.00169" lon="5.91786">
        <ele>454</ele>
        <time>2020-10-05T10:42:20.000Z</time>
      </trkpt>
      <trkpt lat="44.00169" lon="5.91786">
        <ele>454</ele>
        <time>2020-10-05T10:42:21.000Z</time>
      </trkpt>
      <trkpt lat="44.00169" lon="5.91786">
        <ele>454</ele>
        <time>2020-10-05T10:42:22.000Z</time>
      </trkpt>
      <trkpt lat="44.00169" lon="5.91786">
        <ele>454</ele>
        <time>2020-10-05T10:42:23.000Z</time>
      </trkpt>
      <trkpt lat="44.00169" lon="5.91786">
        <ele>454</ele>
        <time>2020-10-05T10:42:24.000Z</time>
      </trkpt>
      <trkpt lat="44.00169" lon="5.91786">
        <ele>454</ele>
        <time>2020-10-05T10:42:25.000Z</time>
      </trkpt>
      <trkpt lat="44.00169" lon="5.91786">
        <ele>454</ele>
        <time>2020-10-05T10:42:26.000Z</time>
      </trkpt>
      <trkpt lat="44.00169" lon="5.91786">
        <ele>454</ele>
        <time>2020-10-05T10:42:27.000Z</time>
      </trkpt>
      <trkpt lat="44.00169" lon="5.91786">
        <ele>454</ele>
        <time>2020-10-05T10:42:28.000Z</time>
      </trkpt>
      <trkpt lat="44.00169" lon="5.91785">
        <ele>454</ele>
        <time>2020-10-05T10:42:29.000Z</time>
      </trkpt>
      <trkpt lat="44.0017" lon="5.91785">
        <ele>454</ele>
        <time>2020-10-05T10:42:30.000Z</time>
      </trkpt>
      <trkpt lat="44.0017" lon="5.91784">
        <ele>455</ele>
        <time>2020-10-05T10:42:31.000Z</time>
      </trkpt>
      <trkpt lat="44.0017" lon="5.91783">
        <ele>455</ele>
        <time>2020-10-05T10:42:32.000Z</time>
      </trkpt>
      <trkpt lat="44.0017" lon="5.91782">
        <ele>455</ele>
        <time>2020-10-05T10:42:33.000Z</time>
      </trkpt>
      <trkpt lat="44.0017" lon="5.91781">
        <ele>455</ele>
        <time>2020-10-05T10:42:34.000Z</time>
      </trkpt>
      <trkpt lat="44.00171" lon="5.9178">
        <ele>455</ele>
        <time>2020-10-05T10:42:35.000Z</time>
      </trkpt>
      <trkpt lat="44.00171" lon="5.91779">
        <ele>455</ele>
        <time>2020-10-05T10:42:36.000Z</time>
      </trkpt>
      <trkpt lat="44.00171" lon="5.91778">
        <ele>455</ele>
        <time>2020-10-05T10:42:37.000Z</time>
      </trkpt>
      <trkpt lat="44.00171" lon="5.91777">
        <ele>455</ele>
        <time>2020-10-05T10:42:38.000Z</time>
      </trkpt>
      <trkpt lat="44.00172" lon="5.91777">
        <ele>455</ele>
        <time>2020-10-05T10:42:39.000Z</time>
      </trkpt>
      <trkpt lat="44.00172" lon="5.91776">
        <ele>456</ele>
        <time>2020-10-05T10:42:40.000Z</time>
      </trkpt>
      <trkpt lat="44.00172" lon="5.91775">
        <ele>456</ele>
        <time>2020-10-05T10:42:41.000Z</time>
      </trkpt>
      <trkpt lat="44.00173" lon="5.91774">
        <ele>456</ele>
        <time>2020-10-05T10:42:42.000Z</time>
      </trkpt>
      <trkpt lat="44.00173" lon="5.91773">
        <ele>456</ele>
        <time>2020-10-05T10:42:43.000Z</time>
      </trkpt>
      <trkpt lat="44.00173" lon="5.91772">
        <ele>456</ele>
        <time>2020-10-05T10:42:44.000Z</time>
      </trkpt>
      <trkpt lat="44.00173" lon="5.91772">
        <ele>456</ele>
        <time>2020-10-05T10:42:45.000Z</time>
      </trkpt>
      <trkpt lat="44.00174" lon="5.91771">
        <ele>457</ele>
        <time>2020-10-05T10:42:46.000Z</time>
      </trkpt>
      <trkpt lat="44.00174" lon="5.9177">
        <ele>457</ele>
        <time>2020-10-05T10:42:47.000Z</time>
      </trkpt>
      <trkpt lat="44.00174" lon="5.91769">
        <ele>457</ele>
        <time>2020-10-05T10:42:48.000Z</time>
      </trkpt>
      <trkpt lat="44.00175" lon="5.91768">
        <ele>457</ele>
        <time>2020-10-05T10:42:49.000Z</time>
      </trkpt>
      <trkpt lat="44.00175" lon="5.91768">
        <ele>457</ele>
        <time>2020-10-05T10:42:50.000Z</time>
      </trkpt>
      <trkpt lat="44.00175" lon="5.91768">
        <ele>457</ele>
        <time>2020-10-05T10:42:51.000Z</time>
      </trkpt>
      <trkpt lat="44.00175" lon="5.91767">
        <ele>458</ele>
        <time>2020-10-05T10:42:52.000Z</time>
      </trkpt>
      <trkpt lat="44.00175" lon="5.91767">
        <ele>458</ele>
        <time>2020-10-05T10:42:53.000Z</time>
      </trkpt>
      <trkpt lat="44.00175" lon="5.91766">
        <ele>458</ele>
        <time>2020-10-05T10:42:54.000Z</time>
      </trkpt>
      <trkpt lat="44.00176" lon="5.91766">
        <ele>458</ele>
        <time>2020-10-05T10:42:55.000Z</time>
      </trkpt>
      <trkpt lat="44.00176" lon="5.91765">
        <ele>458</ele>
        <time>2020-10-05T10:42:56.000Z</time>
      </trkpt>
      <trkpt lat="44.00177" lon="5.91764">
        <ele>458</ele>
        <time>2020-10-05T10:42:57.000Z</time>
      </trkpt>
      <trkpt lat="44.00177" lon="5.91763">
        <ele>458</ele>
        <time>2020-10-05T10:42:58.000Z</time>
      </trkpt>
      <trkpt lat="44.00178" lon="5.91763">
        <ele>458</ele>
        <time>2020-10-05T10:42:59.000Z</time>
      </trkpt>
      <trkpt lat="44.00178" lon="5.91762">
        <ele>458</ele>
        <time>2020-10-05T10:43:00.000Z</time>
      </trkpt>
      <trkpt lat="44.00178" lon="5.91761">
        <ele>458</ele>
        <time>2020-10-05T10:43:01.000Z</time>
      </trkpt>
      <trkpt lat="44.00178" lon="5.9176">
        <ele>459</ele>
        <time>2020-10-05T10:43:02.000Z</time>
      </trkpt>
      <trkpt lat="44.00179" lon="5.91759">
        <ele>459</ele>
        <time>2020-10-05T10:43:03.000Z</time>
      </trkpt>
      <trkpt lat="44.00179" lon="5.91758">
        <ele>459</ele>
        <time>2020-10-05T10:43:04.000Z</time>
      </trkpt>
      <trkpt lat="44.0018" lon="5.91757">
        <ele>459</ele>
        <time>2020-10-05T10:43:05.000Z</time>
      </trkpt>
      <trkpt lat="44.0018" lon="5.91756">
        <ele>459</ele>
        <time>2020-10-05T10:43:06.000Z</time>
      </trkpt>
      <trkpt lat="44.00181" lon="5.91755">
        <ele>459</ele>
        <time>2020-10-05T10:43:07.000Z</time>
      </trkpt>
      <trkpt lat="44.00181" lon="5.91754">
        <ele>459</ele>
        <time>2020-10-05T10:43:08.000Z</time>
      </trkpt>
      <trkpt lat="44.00182" lon="5.91753">
        <ele>459</ele>
        <time>2020-10-05T10:43:09.000Z</time>
      </trkpt>
      <trkpt lat="44.00182" lon="5.91752">
        <ele>459</ele>
        <time>2020-10-05T10:43:10.000Z</time>
      </trkpt>
      <trkpt lat="44.00182" lon="5.9175">
        <ele>459</ele>
        <time>2020-10-05T10:43:11.000Z</time>
      </trkpt>
      <trkpt lat="44.00183" lon="5.91749">
        <ele>459</ele>
        <time>2020-10-05T10:43:12.000Z</time>
      </trkpt>
      <trkpt lat="44.00184" lon="5.91747">
        <ele>459</ele>
        <time>2020-10-05T10:43:13.000Z</time>
      </trkpt>
      <trkpt lat="44.00184" lon="5.91746">
        <ele>459</ele>
        <time>2020-10-05T10:43:14.000Z</time>
      </trkpt>
      <trkpt lat="44.00184" lon="5.91745">
        <ele>459</ele>
        <time>2020-10-05T10:43:15.000Z</time>
      </trkpt>
      <trkpt lat="44.00184" lon="5.91744">
        <ele>459</ele>
        <time>2020-10-05T10:43:16.000Z</time>
      </trkpt>
      <trkpt lat="44.00185" lon="5.91743">
        <ele>459</ele>
        <time>2020-10-05T10:43:17.000Z</time>
      </trkpt>
      <trkpt lat="44.00185" lon="5.91742">
        <ele>459</ele>
        <time>2020-10-05T10:43:18.000Z</time>
      </trkpt>
      <trkpt lat="44.00186" lon="5.91741">
        <ele>459</ele>
        <time>2020-10-05T10:43:19.000Z</time>
      </trkpt>
      <trkpt lat="44.00187" lon="5.9174">
        <ele>459</ele>
        <time>2020-10-05T10:43:20.000Z</time>
      </trkpt>
      <trkpt lat="44.00187" lon="5.9174">
        <ele>459</ele>
        <time>2020-10-05T10:43:21.000Z</time>
      </trkpt>
      <trkpt lat="44.00188" lon="5.9174">
        <ele>459</ele>
        <time>2020-10-05T10:43:22.000Z</time>
      </trkpt>
      <trkpt lat="44.00188" lon="5.91739">
        <ele>460</ele>
        <time>2020-10-05T10:43:23.000Z</time>
      </trkpt>
      <trkpt lat="44.00189" lon="5.91738">
        <ele>460</ele>
        <time>2020-10-05T10:43:24.000Z</time>
      </trkpt>
      <trkpt lat="44.0019" lon="5.91738">
        <ele>460</ele>
        <time>2020-10-05T10:43:25.000Z</time>
      </trkpt>
      <trkpt lat="44.0019" lon="5.91737">
        <ele>460</ele>
        <time>2020-10-05T10:43:26.000Z</time>
      </trkpt>
      <trkpt lat="44.00191" lon="5.91735">
        <ele>460</ele>
        <time>2020-10-05T10:43:27.000Z</time>
      </trkpt>
      <trkpt lat="44.00192" lon="5.91734">
        <ele>459</ele>
        <time>2020-10-05T10:43:28.000Z</time>
      </trkpt>
      <trkpt lat="44.00192" lon="5.91733">
        <ele>459</ele>
        <time>2020-10-05T10:43:29.000Z</time>
      </trkpt>
      <trkpt lat="44.00193" lon="5.91732">
        <ele>459</ele>
        <time>2020-10-05T10:43:30.000Z</time>
      </trkpt>
      <trkpt lat="44.00194" lon="5.91732">
        <ele>459</ele>
        <time>2020-10-05T10:43:31.000Z</time>
      </trkpt>
      <trkpt lat="44.00195" lon="5.91731">
        <ele>459</ele>
        <time>2020-10-05T10:43:32.000Z</time>
      </trkpt>
      <trkpt lat="44.00195" lon="5.9173">
        <ele>459</ele>
        <time>2020-10-05T10:43:33.000Z</time>
      </trkpt>
      <trkpt lat="44.00195" lon="5.9173">
        <ele>459</ele>
        <time>2020-10-05T10:43:34.000Z</time>
      </trkpt>
      <trkpt lat="44.00195" lon="5.91729">
        <ele>460</ele>
        <time>2020-10-05T10:43:35.000Z</time>
      </trkpt>
      <trkpt lat="44.00196" lon="5.91728">
        <ele>460</ele>
        <time>2020-10-05T10:43:36.000Z</time>
      </trkpt>
      <trkpt lat="44.00197" lon="5.91728">
        <ele>460</ele>
        <time>2020-10-05T10:43:37.000Z</time>
      </trkpt>
      <trkpt lat="44.00197" lon="5.91727">
        <ele>460</ele>
        <time>2020-10-05T10:43:38.000Z</time>
      </trkpt>
      <trkpt lat="44.00197" lon="5.91726">
        <ele>460</ele>
        <time>2020-10-05T10:43:39.000Z</time>
      </trkpt>
      <trkpt lat="44.00197" lon="5.91725">
        <ele>460</ele>
        <time>2020-10-05T10:43:40.000Z</time>
      </trkpt>
      <trkpt lat="44.00198" lon="5.91725">
        <ele>460</ele>
        <time>2020-10-05T10:43:41.000Z</time>
      </trkpt>
      <trkpt lat="44.00198" lon="5.91724">
        <ele>460</ele>
        <time>2020-10-05T10:43:42.000Z</time>
      </trkpt>
      <trkpt lat="44.00199" lon="5.91723">
        <ele>460</ele>
        <time>2020-10-05T10:43:43.000Z</time>
      </trkpt>
      <trkpt lat="44.00199" lon="5.91722">
        <ele>460</ele>
        <time>2020-10-05T10:43:44.000Z</time>
      </trkpt>
      <trkpt lat="44.002" lon="5.91721">
        <ele>460</ele>
        <time>2020-10-05T10:43:45.000Z</time>
      </trkpt>
      <trkpt lat="44.002" lon="5.9172">
        <ele>460</ele>
        <time>2020-10-05T10:43:46.000Z</time>
      </trkpt>
      <trkpt lat="44.002" lon="5.91719">
        <ele>460</ele>
        <time>2020-10-05T10:43:47.000Z</time>
      </trkpt>
      <trkpt lat="44.002" lon="5.91718">
        <ele>460</ele>
        <time>2020-10-05T10:43:48.000Z</time>
      </trkpt>
      <trkpt lat="44.00201" lon="5.91717">
        <ele>460</ele>
        <time>2020-10-05T10:43:49.000Z</time>
      </trkpt>
      <trkpt lat="44.00201" lon="5.91715">
        <ele>460</ele>
        <time>2020-10-05T10:43:50.000Z</time>
      </trkpt>
      <trkpt lat="44.00201" lon="5.91714">
        <ele>460</ele>
        <time>2020-10-05T10:43:51.000Z</time>
      </trkpt>
      <trkpt lat="44.00202" lon="5.91713">
        <ele>460</ele>
        <time>2020-10-05T10:43:52.000Z</time>
      </trkpt>
      <trkpt lat="44.00202" lon="5.91712">
        <ele>460</ele>
        <time>2020-10-05T10:43:53.000Z</time>
      </trkpt>
      <trkpt lat="44.00202" lon="5.9171">
        <ele>460</ele>
        <time>2020-10-05T10:43:54.000Z</time>
      </trkpt>
      <trkpt lat="44.00203" lon="5.91709">
        <ele>460</ele>
        <time>2020-10-05T10:43:55.000Z</time>
      </trkpt>
      <trkpt lat="44.00203" lon="5.91708">
        <ele>461</ele>
        <time>2020-10-05T10:43:56.000Z</time>
      </trkpt>
      <trkpt lat="44.00204" lon="5.91707">
        <ele>461</ele>
        <time>2020-10-05T10:43:57.000Z</time>
      </trkpt>
      <trkpt lat="44.00204" lon="5.91707">
        <ele>461</ele>
        <time>2020-10-05T10:43:58.000Z</time>
      </trkpt>
      <trkpt lat="44.00204" lon="5.91706">
        <ele>461</ele>
        <time>2020-10-05T10:43:59.000Z</time>
      </trkpt>
      <trkpt lat="44.00204" lon="5.91706">
        <ele>461</ele>
        <time>2020-10-05T10:44:00.000Z</time>
      </trkpt>
      <trkpt lat="44.00204" lon="5.91705">
        <ele>461</ele>
        <time>2020-10-05T10:44:01.000Z</time>
      </trkpt>
      <trkpt lat="44.00205" lon="5.91703">
        <ele>461</ele>
        <time>2020-10-05T10:44:02.000Z</time>
      </trkpt>
      <trkpt lat="44.00205" lon="5.91702">
        <ele>461</ele>
        <time>2020-10-05T10:44:03.000Z</time>
      </trkpt>
      <trkpt lat="44.00205" lon="5.91701">
        <ele>462</ele>
        <time>2020-10-05T10:44:04.000Z</time>
      </trkpt>
      <trkpt lat="44.00205" lon="5.91699">
        <ele>462</ele>
        <time>2020-10-05T10:44:05.000Z</time>
      </trkpt>
      <trkpt lat="44.00206" lon="5.91698">
        <ele>462</ele>
        <time>2020-10-05T10:44:06.000Z</time>
      </trkpt>
      <trkpt lat="44.00206" lon="5.91697">
        <ele>462</ele>
        <time>2020-10-05T10:44:07.000Z</time>
      </trkpt>
      <trkpt lat="44.00206" lon="5.91696">
        <ele>462</ele>
        <time>2020-10-05T10:44:08.000Z</time>
      </trkpt>
      <trkpt lat="44.00206" lon="5.91695">
        <ele>463</ele>
        <time>2020-10-05T10:44:09.000Z</time>
      </trkpt>
      <trkpt lat="44.00206" lon="5.91694">
        <ele>463</ele>
        <time>2020-10-05T10:44:10.000Z</time>
      </trkpt>
      <trkpt lat="44.00206" lon="5.91693">
        <ele>463</ele>
        <time>2020-10-05T10:44:11.000Z</time>
      </trkpt>
      <trkpt lat="44.00207" lon="5.91692">
        <ele>463</ele>
        <time>2020-10-05T10:44:12.000Z</time>
      </trkpt>
      <trkpt lat="44.00207" lon="5.91691">
        <ele>463</ele>
        <time>2020-10-05T10:44:13.000Z</time>
      </trkpt>
      <trkpt lat="44.00206" lon="5.91691">
        <ele>464</ele>
        <time>2020-10-05T10:44:14.000Z</time>
      </trkpt>
      <trkpt lat="44.00207" lon="5.9169">
        <ele>464</ele>
        <time>2020-10-05T10:44:15.000Z</time>
      </trkpt>
      <trkpt lat="44.00206" lon="5.9169">
        <ele>464</ele>
        <time>2020-10-05T10:44:16.000Z</time>
      </trkpt>
      <trkpt lat="44.00206" lon="5.9169">
        <ele>464</ele>
        <time>2020-10-05T10:44:17.000Z</time>
      </trkpt>
      <trkpt lat="44.00206" lon="5.91689">
        <ele>464</ele>
        <time>2020-10-05T10:44:18.000Z</time>
      </trkpt>
      <trkpt lat="44.00207" lon="5.91688">
        <ele>464</ele>
        <time>2020-10-05T10:44:19.000Z</time>
      </trkpt>
      <trkpt lat="44.00207" lon="5.91687">
        <ele>465</ele>
        <time>2020-10-05T10:44:20.000Z</time>
      </trkpt>
      <trkpt lat="44.00207" lon="5.91686">
        <ele>465</ele>
        <time>2020-10-05T10:44:21.000Z</time>
      </trkpt>
      <trkpt lat="44.00207" lon="5.91685">
        <ele>465</ele>
        <time>2020-10-05T10:44:22.000Z</time>
      </trkpt>
      <trkpt lat="44.00207" lon="5.91684">
        <ele>465</ele>
        <time>2020-10-05T10:44:23.000Z</time>
      </trkpt>
      <trkpt lat="44.00207" lon="5.91682">
        <ele>465</ele>
        <time>2020-10-05T10:44:24.000Z</time>
      </trkpt>
      <trkpt lat="44.00208" lon="5.91682">
        <ele>465</ele>
        <time>2020-10-05T10:44:25.000Z</time>
      </trkpt>
      <trkpt lat="44.00208" lon="5.91681">
        <ele>465</ele>
        <time>2020-10-05T10:44:26.000Z</time>
      </trkpt>
      <trkpt lat="44.00208" lon="5.9168">
        <ele>465</ele>
        <time>2020-10-05T10:44:27.000Z</time>
      </trkpt>
      <trkpt lat="44.00208" lon="5.91679">
        <ele>466</ele>
        <time>2020-10-05T10:44:28.000Z</time>
      </trkpt>
      <trkpt lat="44.00208" lon="5.91678">
        <ele>466</ele>
        <time>2020-10-05T10:44:29.000Z</time>
      </trkpt>
      <trkpt lat="44.00208" lon="5.91677">
        <ele>466</ele>
        <time>2020-10-05T10:44:30.000Z</time>
      </trkpt>
      <trkpt lat="44.00208" lon="5.91676">
        <ele>466</ele>
        <time>2020-10-05T10:44:31.000Z</time>
      </trkpt>
      <trkpt lat="44.00208" lon="5.91675">
        <ele>466</ele>
        <time>2020-10-05T10:44:32.000Z</time>
      </trkpt>
      <trkpt lat="44.00208" lon="5.91675">
        <ele>466</ele>
        <time>2020-10-05T10:44:33.000Z</time>
      </trkpt>
      <trkpt lat="44.00207" lon="5.91674">
        <ele>466</ele>
        <time>2020-10-05T10:44:34.000Z</time>
      </trkpt>
      <trkpt lat="44.00207" lon="5.91674">
        <ele>466</ele>
        <time>2020-10-05T10:44:35.000Z</time>
      </trkpt>
      <trkpt lat="44.00207" lon="5.91674">
        <ele>466</ele>
        <time>2020-10-05T10:44:36.000Z</time>
      </trkpt>
      <trkpt lat="44.00207" lon="5.91674">
        <ele>466</ele>
        <time>2020-10-05T10:44:37.000Z</time>
      </trkpt>
      <trkpt lat="44.00207" lon="5.91673">
        <ele>466</ele>
        <time>2020-10-05T10:44:38.000Z</time>
      </trkpt>
      <trkpt lat="44.00207" lon="5.91673">
        <ele>466</ele>
        <time>2020-10-05T10:44:39.000Z</time>
      </trkpt>
      <trkpt lat="44.00207" lon="5.91672">
        <ele>466</ele>
        <time>2020-10-05T10:44:40.000Z</time>
      </trkpt>
      <trkpt lat="44.00207" lon="5.91671">
        <ele>466</ele>
        <time>2020-10-05T10:44:41.000Z</time>
      </trkpt>
      <trkpt lat="44.00207" lon="5.9167">
        <ele>466</ele>
        <time>2020-10-05T10:44:42.000Z</time>
      </trkpt>
      <trkpt lat="44.00207" lon="5.91669">
        <ele>466</ele>
        <time>2020-10-05T10:44:43.000Z</time>
      </trkpt>
      <trkpt lat="44.00207" lon="5.91669">
        <ele>466</ele>
        <time>2020-10-05T10:44:44.000Z</time>
      </trkpt>
      <trkpt lat="44.00207" lon="5.91668">
        <ele>467</ele>
        <time>2020-10-05T10:44:45.000Z</time>
      </trkpt>
      <trkpt lat="44.00207" lon="5.91667">
        <ele>467</ele>
        <time>2020-10-05T10:44:46.000Z</time>
      </trkpt>
      <trkpt lat="44.00207" lon="5.91666">
        <ele>467</ele>
        <time>2020-10-05T10:44:47.000Z</time>
      </trkpt>
      <trkpt lat="44.00207" lon="5.91665">
        <ele>467</ele>
        <time>2020-10-05T10:44:48.000Z</time>
      </trkpt>
      <trkpt lat="44.00207" lon="5.91665">
        <ele>467</ele>
        <time>2020-10-05T10:44:49.000Z</time>
      </trkpt>
      <trkpt lat="44.00207" lon="5.91664">
        <ele>467</ele>
        <time>2020-10-05T10:44:50.000Z</time>
      </trkpt>
      <trkpt lat="44.00207" lon="5.91664">
        <ele>467</ele>
        <time>2020-10-05T10:44:51.000Z</time>
      </trkpt>
      <trkpt lat="44.00207" lon="5.91664">
        <ele>467</ele>
        <time>2020-10-05T10:44:52.000Z</time>
      </trkpt>
      <trkpt lat="44.00207" lon="5.91664">
        <ele>467</ele>
        <time>2020-10-05T10:44:53.000Z</time>
      </trkpt>
      <trkpt lat="44.00207" lon="5.91664">
        <ele>468</ele>
        <time>2020-10-05T10:44:54.000Z</time>
      </trkpt>
      <trkpt lat="44.00206" lon="5.91664">
        <ele>468</ele>
        <time>2020-10-05T10:44:55.000Z</time>
      </trkpt>
      <trkpt lat="44.00206" lon="5.91664">
        <ele>468</ele>
        <time>2020-10-05T10:44:56.000Z</time>
      </trkpt>
      <trkpt lat="44.00206" lon="5.91663">
        <ele>468</ele>
        <time>2020-10-05T10:44:57.000Z</time>
      </trkpt>
      <trkpt lat="44.00206" lon="5.91663">
        <ele>468</ele>
        <time>2020-10-05T10:44:58.000Z</time>
      </trkpt>
      <trkpt lat="44.00206" lon="5.91663">
        <ele>468</ele>
        <time>2020-10-05T10:44:59.000Z</time>
      </trkpt>
      <trkpt lat="44.00206" lon="5.91663">
        <ele>468</ele>
        <time>2020-10-05T10:45:00.000Z</time>
      </trkpt>
      <trkpt lat="44.00206" lon="5.91663">
        <ele>468</ele>
        <time>2020-10-05T10:45:01.000Z</time>
      </trkpt>
      <trkpt lat="44.00206" lon="5.91663">
        <ele>468</ele>
        <time>2020-10-05T10:45:02.000Z</time>
      </trkpt>
      <trkpt lat="44.00206" lon="5.91663">
        <ele>468</ele>
        <time>2020-10-05T10:45:03.000Z</time>
      </trkpt>
      <trkpt lat="44.00206" lon="5.91663">
        <ele>468</ele>
        <time>2020-10-05T10:45:04.000Z</time>
      </trkpt>
      <trkpt lat="44.00206" lon="5.91663">
        <ele>468</ele>
        <time>2020-10-05T10:45:05.000Z</time>
      </trkpt>
      <trkpt lat="44.00206" lon="5.91663">
        <ele>468</ele>
        <time>2020-10-05T10:45:06.000Z</time>
      </trkpt>
      <trkpt lat="44.00206" lon="5.91663">
        <ele>468</ele>
        <time>2020-10-05T10:45:07.000Z</time>
      </trkpt>
      <trkpt lat="44.00206" lon="5.91662">
        <ele>468</ele>
        <time>2020-10-05T10:45:08.000Z</time>
      </trkpt>
      <trkpt lat="44.00206" lon="5.91662">
        <ele>468</ele>
        <time>2020-10-05T10:45:09.000Z</time>
      </trkpt>
      <trkpt lat="44.00206" lon="5.91662">
        <ele>468</ele>
        <time>2020-10-05T10:45:10.000Z</time>
      </trkpt>
      <trkpt lat="44.00206" lon="5.91662">
        <ele>468</ele>
        <time>2020-10-05T10:45:11.000Z</time>
      </trkpt>
      <trkpt lat="44.00206" lon="5.91662">
        <ele>468</ele>
        <time>2020-10-05T10:45:12.000Z</time>
      </trkpt>
      <trkpt lat="44.00206" lon="5.91662">
        <ele>468</ele>
        <time>2020-10-05T10:45:13.000Z</time>
      </trkpt>
      <trkpt lat="44.00207" lon="5.91662">
        <ele>468</ele>
        <time>2020-10-05T10:45:14.000Z</time>
      </trkpt>
      <trkpt lat="44.00207" lon="5.91662">
        <ele>468</ele>
        <time>2020-10-05T10:45:15.000Z</time>
      </trkpt>
      <trkpt lat="44.00207" lon="5.91662">
        <ele>468</ele>
        <time>2020-10-05T10:45:16.000Z</time>
      </trkpt>
      <trkpt lat="44.00206" lon="5.91662">
        <ele>468</ele>
        <time>2020-10-05T10:45:17.000Z</time>
      </trkpt>
      <trkpt lat="44.00207" lon="5.91662">
        <ele>469</ele>
        <time>2020-10-05T10:45:18.000Z</time>
      </trkpt>
      <trkpt lat="44.00207" lon="5.91662">
        <ele>469</ele>
        <time>2020-10-05T10:45:19.000Z</time>
      </trkpt>
      <trkpt lat="44.00207" lon="5.91662">
        <ele>469</ele>
        <time>2020-10-05T10:45:20.000Z</time>
      </trkpt>
      <trkpt lat="44.00207" lon="5.91662">
        <ele>469</ele>
        <time>2020-10-05T10:45:21.000Z</time>
      </trkpt>
      <trkpt lat="44.00207" lon="5.91662">
        <ele>469</ele>
        <time>2020-10-05T10:45:22.000Z</time>
      </trkpt>
      <trkpt lat="44.00207" lon="5.91661">
        <ele>469</ele>
        <time>2020-10-05T10:45:23.000Z</time>
      </trkpt>
      <trkpt lat="44.00207" lon="5.91661">
        <ele>469</ele>
        <time>2020-10-05T10:45:24.000Z</time>
      </trkpt>
      <trkpt lat="44.00207" lon="5.91661">
        <ele>469</ele>
        <time>2020-10-05T10:45:25.000Z</time>
      </trkpt>
      <trkpt lat="44.00207" lon="5.91661">
        <ele>469</ele>
        <time>2020-10-05T10:45:26.000Z</time>
      </trkpt>
      <trkpt lat="44.00207" lon="5.91661">
        <ele>469</ele>
        <time>2020-10-05T10:45:27.000Z</time>
      </trkpt>
      <trkpt lat="44.00207" lon="5.91661">
        <ele>469</ele>
        <time>2020-10-05T10:45:28.000Z</time>
      </trkpt>
      <trkpt lat="44.00207" lon="5.91661">
        <ele>469</ele>
        <time>2020-10-05T10:45:29.000Z</time>
      </trkpt>
      <trkpt lat="44.00207" lon="5.91661">
        <ele>469</ele>
        <time>2020-10-05T10:45:30.000Z</time>
      </trkpt>
      <trkpt lat="44.00207" lon="5.9166">
        <ele>469</ele>
        <time>2020-10-05T10:45:31.000Z</time>
      </trkpt>
      <trkpt lat="44.00207" lon="5.91659">
        <ele>469</ele>
        <time>2020-10-05T10:45:32.000Z</time>
      </trkpt>
      <trkpt lat="44.00207" lon="5.91658">
        <ele>469</ele>
        <time>2020-10-05T10:45:33.000Z</time>
      </trkpt>
      <trkpt lat="44.00207" lon="5.91657">
        <ele>469</ele>
        <time>2020-10-05T10:45:34.000Z</time>
      </trkpt>
      <trkpt lat="44.00207" lon="5.91656">
        <ele>469</ele>
        <time>2020-10-05T10:45:35.000Z</time>
      </trkpt>
      <trkpt lat="44.00207" lon="5.91656">
        <ele>469</ele>
        <time>2020-10-05T10:45:36.000Z</time>
      </trkpt>
      <trkpt lat="44.00207" lon="5.91655">
        <ele>469</ele>
        <time>2020-10-05T10:45:37.000Z</time>
      </trkpt>
      <trkpt lat="44.00207" lon="5.91654">
        <ele>469</ele>
        <time>2020-10-05T10:45:38.000Z</time>
      </trkpt>
      <trkpt lat="44.00208" lon="5.91653">
        <ele>469</ele>
        <time>2020-10-05T10:45:39.000Z</time>
      </trkpt>
      <trkpt lat="44.00208" lon="5.91652">
        <ele>469</ele>
        <time>2020-10-05T10:45:40.000Z</time>
      </trkpt>
      <trkpt lat="44.00208" lon="5.91652">
        <ele>469</ele>
        <time>2020-10-05T10:45:41.000Z</time>
      </trkpt>
      <trkpt lat="44.00208" lon="5.91651">
        <ele>469</ele>
        <time>2020-10-05T10:45:42.000Z</time>
      </trkpt>
      <trkpt lat="44.00208" lon="5.91651">
        <ele>469</ele>
        <time>2020-10-05T10:45:43.000Z</time>
      </trkpt>
      <trkpt lat="44.00208" lon="5.91651">
        <ele>469</ele>
        <time>2020-10-05T10:45:44.000Z</time>
      </trkpt>
      <trkpt lat="44.00208" lon="5.9165">
        <ele>469</ele>
        <time>2020-10-05T10:45:45.000Z</time>
      </trkpt>
      <trkpt lat="44.00208" lon="5.9165">
        <ele>469</ele>
        <time>2020-10-05T10:45:46.000Z</time>
      </trkpt>
      <trkpt lat="44.00208" lon="5.91649">
        <ele>469</ele>
        <time>2020-10-05T10:45:47.000Z</time>
      </trkpt>
      <trkpt lat="44.00208" lon="5.91649">
        <ele>469</ele>
        <time>2020-10-05T10:45:48.000Z</time>
      </trkpt>
      <trkpt lat="44.00207" lon="5.91649">
        <ele>469</ele>
        <time>2020-10-05T10:45:49.000Z</time>
      </trkpt>
      <trkpt lat="44.00207" lon="5.91648">
        <ele>469</ele>
        <time>2020-10-05T10:45:50.000Z</time>
      </trkpt>
      <trkpt lat="44.00206" lon="5.91647">
        <ele>469</ele>
        <time>2020-10-05T10:45:51.000Z</time>
      </trkpt>
      <trkpt lat="44.00206" lon="5.91646">
        <ele>469</ele>
        <time>2020-10-05T10:45:52.000Z</time>
      </trkpt>
      <trkpt lat="44.00206" lon="5.91646">
        <ele>469</ele>
        <time>2020-10-05T10:45:53.000Z</time>
      </trkpt>
      <trkpt lat="44.00206" lon="5.91645">
        <ele>469</ele>
        <time>2020-10-05T10:45:54.000Z</time>
      </trkpt>
      <trkpt lat="44.00205" lon="5.91645">
        <ele>469</ele>
        <time>2020-10-05T10:45:55.000Z</time>
      </trkpt>
      <trkpt lat="44.00205" lon="5.91644">
        <ele>469</ele>
        <time>2020-10-05T10:45:56.000Z</time>
      </trkpt>
      <trkpt lat="44.00205" lon="5.91643">
        <ele>470</ele>
        <time>2020-10-05T10:45:57.000Z</time>
      </trkpt>
      <trkpt lat="44.00205" lon="5.91643">
        <ele>470</ele>
        <time>2020-10-05T10:45:58.000Z</time>
      </trkpt>
      <trkpt lat="44.00204" lon="5.91642">
        <ele>470</ele>
        <time>2020-10-05T10:45:59.000Z</time>
      </trkpt>
      <trkpt lat="44.00204" lon="5.91642">
        <ele>470</ele>
        <time>2020-10-05T10:46:00.000Z</time>
      </trkpt>
      <trkpt lat="44.00204" lon="5.91642">
        <ele>470</ele>
        <time>2020-10-05T10:46:01.000Z</time>
      </trkpt>
      <trkpt lat="44.00204" lon="5.91641">
        <ele>470</ele>
        <time>2020-10-05T10:46:02.000Z</time>
      </trkpt>
      <trkpt lat="44.00204" lon="5.91641">
        <ele>470</ele>
        <time>2020-10-05T10:46:03.000Z</time>
      </trkpt>
      <trkpt lat="44.00204" lon="5.9164">
        <ele>470</ele>
        <time>2020-10-05T10:46:04.000Z</time>
      </trkpt>
      <trkpt lat="44.00204" lon="5.9164">
        <ele>470</ele>
        <time>2020-10-05T10:46:05.000Z</time>
      </trkpt>
      <trkpt lat="44.00204" lon="5.9164">
        <ele>470</ele>
        <time>2020-10-05T10:46:06.000Z</time>
      </trkpt>
      <trkpt lat="44.00204" lon="5.9164">
        <ele>470</ele>
        <time>2020-10-05T10:46:07.000Z</time>
      </trkpt>
      <trkpt lat="44.00204" lon="5.91639">
        <ele>470</ele>
        <time>2020-10-05T10:46:08.000Z</time>
      </trkpt>
      <trkpt lat="44.00204" lon="5.91638">
        <ele>470</ele>
        <time>2020-10-05T10:46:09.000Z</time>
      </trkpt>
      <trkpt lat="44.00204" lon="5.91638">
        <ele>470</ele>
        <time>2020-10-05T10:46:10.000Z</time>
      </trkpt>
      <trkpt lat="44.00204" lon="5.91637">
        <ele>470</ele>
        <time>2020-10-05T10:46:11.000Z</time>
      </trkpt>
      <trkpt lat="44.00204" lon="5.91636">
        <ele>470</ele>
        <time>2020-10-05T10:46:12.000Z</time>
      </trkpt>
      <trkpt lat="44.00204" lon="5.91636">
        <ele>470</ele>
        <time>2020-10-05T10:46:13.000Z</time>
      </trkpt>
      <trkpt lat="44.00204" lon="5.91635">
        <ele>470</ele>
        <time>2020-10-05T10:46:14.000Z</time>
      </trkpt>
      <trkpt lat="44.00204" lon="5.91634">
        <ele>470</ele>
        <time>2020-10-05T10:46:15.000Z</time>
      </trkpt>
      <trkpt lat="44.00205" lon="5.91634">
        <ele>470</ele>
        <time>2020-10-05T10:46:16.000Z</time>
      </trkpt>
      <trkpt lat="44.00205" lon="5.91633">
        <ele>470</ele>
        <time>2020-10-05T10:46:17.000Z</time>
      </trkpt>
      <trkpt lat="44.00206" lon="5.91633">
        <ele>470</ele>
        <time>2020-10-05T10:46:18.000Z</time>
      </trkpt>
      <trkpt lat="44.00206" lon="5.91632">
        <ele>470</ele>
        <time>2020-10-05T10:46:19.000Z</time>
      </trkpt>
      <trkpt lat="44.00207" lon="5.91632">
        <ele>470</ele>
        <time>2020-10-05T10:46:20.000Z</time>
      </trkpt>
      <trkpt lat="44.00207" lon="5.91631">
        <ele>470</ele>
        <time>2020-10-05T10:46:21.000Z</time>
      </trkpt>
      <trkpt lat="44.00207" lon="5.91631">
        <ele>470</ele>
        <time>2020-10-05T10:46:22.000Z</time>
      </trkpt>
      <trkpt lat="44.00208" lon="5.9163">
        <ele>470</ele>
        <time>2020-10-05T10:46:23.000Z</time>
      </trkpt>
      <trkpt lat="44.00208" lon="5.9163">
        <ele>470</ele>
        <time>2020-10-05T10:46:24.000Z</time>
      </trkpt>
      <trkpt lat="44.00209" lon="5.91629">
        <ele>470</ele>
        <time>2020-10-05T10:46:25.000Z</time>
      </trkpt>
      <trkpt lat="44.00209" lon="5.91629">
        <ele>470</ele>
        <time>2020-10-05T10:46:26.000Z</time>
      </trkpt>
      <trkpt lat="44.00209" lon="5.91629">
        <ele>470</ele>
        <time>2020-10-05T10:46:27.000Z</time>
      </trkpt>
      <trkpt lat="44.00209" lon="5.91628">
        <ele>470</ele>
        <time>2020-10-05T10:46:28.000Z</time>
      </trkpt>
      <trkpt lat="44.00209" lon="5.91628">
        <ele>470</ele>
        <time>2020-10-05T10:46:29.000Z</time>
      </trkpt>
      <trkpt lat="44.00209" lon="5.91628">
        <ele>470</ele>
        <time>2020-10-05T10:46:30.000Z</time>
      </trkpt>
      <trkpt lat="44.0021" lon="5.91627">
        <ele>470</ele>
        <time>2020-10-05T10:46:31.000Z</time>
      </trkpt>
      <trkpt lat="44.0021" lon="5.91627">
        <ele>470</ele>
        <time>2020-10-05T10:46:32.000Z</time>
      </trkpt>
      <trkpt lat="44.0021" lon="5.91627">
        <ele>470</ele>
        <time>2020-10-05T10:46:33.000Z</time>
      </trkpt>
      <trkpt lat="44.0021" lon="5.91627">
        <ele>470</ele>
        <time>2020-10-05T10:46:34.000Z</time>
      </trkpt>
      <trkpt lat="44.00211" lon="5.91626">
        <ele>470</ele>
        <time>2020-10-05T10:46:35.000Z</time>
      </trkpt>
      <trkpt lat="44.00211" lon="5.91626">
        <ele>470</ele>
        <time>2020-10-05T10:46:36.000Z</time>
      </trkpt>
      <trkpt lat="44.00211" lon="5.91626">
        <ele>470</ele>
        <time>2020-10-05T10:46:37.000Z</time>
      </trkpt>
      <trkpt lat="44.00211" lon="5.91625">
        <ele>471</ele>
        <time>2020-10-05T10:46:38.000Z</time>
      </trkpt>
      <trkpt lat="44.00211" lon="5.91624">
        <ele>471</ele>
        <time>2020-10-05T10:46:39.000Z</time>
      </trkpt>
      <trkpt lat="44.00211" lon="5.91624">
        <ele>471</ele>
        <time>2020-10-05T10:46:40.000Z</time>
      </trkpt>
      <trkpt lat="44.00211" lon="5.91624">
        <ele>471</ele>
        <time>2020-10-05T10:46:41.000Z</time>
      </trkpt>
      <trkpt lat="44.00211" lon="5.91623">
        <ele>471</ele>
        <time>2020-10-05T10:46:42.000Z</time>
      </trkpt>
      <trkpt lat="44.00211" lon="5.91622">
        <ele>472</ele>
        <time>2020-10-05T10:46:43.000Z</time>
      </trkpt>
      <trkpt lat="44.00212" lon="5.91621">
        <ele>472</ele>
        <time>2020-10-05T10:46:44.000Z</time>
      </trkpt>
      <trkpt lat="44.00211" lon="5.91619">
        <ele>472</ele>
        <time>2020-10-05T10:46:45.000Z</time>
      </trkpt>
      <trkpt lat="44.00211" lon="5.91619">
        <ele>472</ele>
        <time>2020-10-05T10:46:46.000Z</time>
      </trkpt>
      <trkpt lat="44.00211" lon="5.91618">
        <ele>472</ele>
        <time>2020-10-05T10:46:47.000Z</time>
      </trkpt>
      <trkpt lat="44.00211" lon="5.91617">
        <ele>472</ele>
        <time>2020-10-05T10:46:48.000Z</time>
      </trkpt>
      <trkpt lat="44.00212" lon="5.91616">
        <ele>472</ele>
        <time>2020-10-05T10:46:49.000Z</time>
      </trkpt>
      <trkpt lat="44.00212" lon="5.91615">
        <ele>473</ele>
        <time>2020-10-05T10:46:50.000Z</time>
      </trkpt>
      <trkpt lat="44.00212" lon="5.91615">
        <ele>473</ele>
        <time>2020-10-05T10:46:51.000Z</time>
      </trkpt>
      <trkpt lat="44.00212" lon="5.91614">
        <ele>473</ele>
        <time>2020-10-05T10:46:52.000Z</time>
      </trkpt>
      <trkpt lat="44.00213" lon="5.91613">
        <ele>473</ele>
        <time>2020-10-05T10:46:53.000Z</time>
      </trkpt>
      <trkpt lat="44.00213" lon="5.91612">
        <ele>473</ele>
        <time>2020-10-05T10:46:54.000Z</time>
      </trkpt>
      <trkpt lat="44.00213" lon="5.91611">
        <ele>473</ele>
        <time>2020-10-05T10:46:55.000Z</time>
      </trkpt>
      <trkpt lat="44.00213" lon="5.9161">
        <ele>473</ele>
        <time>2020-10-05T10:46:56.000Z</time>
      </trkpt>
      <trkpt lat="44.00214" lon="5.91609">
        <ele>473</ele>
        <time>2020-10-05T10:46:57.000Z</time>
      </trkpt>
      <trkpt lat="44.00214" lon="5.91608">
        <ele>473</ele>
        <time>2020-10-05T10:46:58.000Z</time>
      </trkpt>
      <trkpt lat="44.00214" lon="5.91607">
        <ele>473</ele>
        <time>2020-10-05T10:46:59.000Z</time>
      </trkpt>
      <trkpt lat="44.00214" lon="5.91606">
        <ele>473</ele>
        <time>2020-10-05T10:47:00.000Z</time>
      </trkpt>
      <trkpt lat="44.00215" lon="5.91605">
        <ele>473</ele>
        <time>2020-10-05T10:47:01.000Z</time>
      </trkpt>
      <trkpt lat="44.00215" lon="5.91604">
        <ele>473</ele>
        <time>2020-10-05T10:47:02.000Z</time>
      </trkpt>
      <trkpt lat="44.00215" lon="5.91604">
        <ele>473</ele>
        <time>2020-10-05T10:47:03.000Z</time>
      </trkpt>
      <trkpt lat="44.00215" lon="5.91603">
        <ele>473</ele>
        <time>2020-10-05T10:47:04.000Z</time>
      </trkpt>
      <trkpt lat="44.00215" lon="5.91603">
        <ele>473</ele>
        <time>2020-10-05T10:47:05.000Z</time>
      </trkpt>
      <trkpt lat="44.00215" lon="5.91602">
        <ele>473</ele>
        <time>2020-10-05T10:47:06.000Z</time>
      </trkpt>
      <trkpt lat="44.00215" lon="5.91602">
        <ele>473</ele>
        <time>2020-10-05T10:47:07.000Z</time>
      </trkpt>
      <trkpt lat="44.00215" lon="5.91602">
        <ele>473</ele>
        <time>2020-10-05T10:47:08.000Z</time>
      </trkpt>
      <trkpt lat="44.00215" lon="5.91602">
        <ele>473</ele>
        <time>2020-10-05T10:47:09.000Z</time>
      </trkpt>
      <trkpt lat="44.00215" lon="5.91602">
        <ele>472</ele>
        <time>2020-10-05T10:47:10.000Z</time>
      </trkpt>
      <trkpt lat="44.00215" lon="5.91601">
        <ele>472</ele>
        <time>2020-10-05T10:47:11.000Z</time>
      </trkpt>
      <trkpt lat="44.00215" lon="5.91601">
        <ele>472</ele>
        <time>2020-10-05T10:47:12.000Z</time>
      </trkpt>
      <trkpt lat="44.00215" lon="5.91601">
        <ele>472</ele>
        <time>2020-10-05T10:47:13.000Z</time>
      </trkpt>
      <trkpt lat="44.00215" lon="5.91601">
        <ele>472</ele>
        <time>2020-10-05T10:47:14.000Z</time>
      </trkpt>
      <trkpt lat="44.00215" lon="5.916">
        <ele>472</ele>
        <time>2020-10-05T10:47:15.000Z</time>
      </trkpt>
      <trkpt lat="44.00215" lon="5.916">
        <ele>472</ele>
        <time>2020-10-05T10:47:16.000Z</time>
      </trkpt>
      <trkpt lat="44.00215" lon="5.91599">
        <ele>472</ele>
        <time>2020-10-05T10:47:17.000Z</time>
      </trkpt>
      <trkpt lat="44.00216" lon="5.91599">
        <ele>472</ele>
        <time>2020-10-05T10:47:18.000Z</time>
      </trkpt>
      <trkpt lat="44.00216" lon="5.91599">
        <ele>472</ele>
        <time>2020-10-05T10:47:19.000Z</time>
      </trkpt>
      <trkpt lat="44.00216" lon="5.91598">
        <ele>472</ele>
        <time>2020-10-05T10:47:20.000Z</time>
      </trkpt>
      <trkpt lat="44.00216" lon="5.91598">
        <ele>472</ele>
        <time>2020-10-05T10:47:21.000Z</time>
      </trkpt>
      <trkpt lat="44.00215" lon="5.91598">
        <ele>472</ele>
        <time>2020-10-05T10:47:22.000Z</time>
      </trkpt>
      <trkpt lat="44.00215" lon="5.91598">
        <ele>472</ele>
        <time>2020-10-05T10:47:23.000Z</time>
      </trkpt>
      <trkpt lat="44.00215" lon="5.91598">
        <ele>472</ele>
        <time>2020-10-05T10:47:24.000Z</time>
      </trkpt>
      <trkpt lat="44.00215" lon="5.91598">
        <ele>472</ele>
        <time>2020-10-05T10:47:25.000Z</time>
      </trkpt>
      <trkpt lat="44.00215" lon="5.91598">
        <ele>472</ele>
        <time>2020-10-05T10:47:26.000Z</time>
      </trkpt>
      <trkpt lat="44.00215" lon="5.91598">
        <ele>472</ele>
        <time>2020-10-05T10:47:27.000Z</time>
      </trkpt>
      <trkpt lat="44.00216" lon="5.91598">
        <ele>473</ele>
        <time>2020-10-05T10:47:28.000Z</time>
      </trkpt>
      <trkpt lat="44.00216" lon="5.91598">
        <ele>473</ele>
        <time>2020-10-05T10:47:29.000Z</time>
      </trkpt>
      <trkpt lat="44.00216" lon="5.91598">
        <ele>473</ele>
        <time>2020-10-05T10:47:30.000Z</time>
      </trkpt>
      <trkpt lat="44.00216" lon="5.91598">
        <ele>473</ele>
        <time>2020-10-05T10:47:31.000Z</time>
      </trkpt>
      <trkpt lat="44.00216" lon="5.91598">
        <ele>473</ele>
        <time>2020-10-05T10:47:32.000Z</time>
      </trkpt>
      <trkpt lat="44.00216" lon="5.91598">
        <ele>473</ele>
        <time>2020-10-05T10:47:33.000Z</time>
      </trkpt>
      <trkpt lat="44.00216" lon="5.91598">
        <ele>473</ele>
        <time>2020-10-05T10:47:34.000Z</time>
      </trkpt>
      <trkpt lat="44.00216" lon="5.91597">
        <ele>473</ele>
        <time>2020-10-05T10:47:35.000Z</time>
      </trkpt>
      <trkpt lat="44.00217" lon="5.91597">
        <ele>473</ele>
        <time>2020-10-05T10:47:36.000Z</time>
      </trkpt>
      <trkpt lat="44.00217" lon="5.91597">
        <ele>473</ele>
        <time>2020-10-05T10:47:37.000Z</time>
      </trkpt>
      <trkpt lat="44.00217" lon="5.91597">
        <ele>473</ele>
        <time>2020-10-05T10:47:38.000Z</time>
      </trkpt>
      <trkpt lat="44.00217" lon="5.91597">
        <ele>473</ele>
        <time>2020-10-05T10:47:39.000Z</time>
      </trkpt>
      <trkpt lat="44.00217" lon="5.91597">
        <ele>473</ele>
        <time>2020-10-05T10:47:40.000Z</time>
      </trkpt>
      <trkpt lat="44.00217" lon="5.91597">
        <ele>473</ele>
        <time>2020-10-05T10:47:41.000Z</time>
      </trkpt>
      <trkpt lat="44.00217" lon="5.91597">
        <ele>473</ele>
        <time>2020-10-05T10:47:42.000Z</time>
      </trkpt>
      <trkpt lat="44.00217" lon="5.91596">
        <ele>473</ele>
        <time>2020-10-05T10:47:43.000Z</time>
      </trkpt>
      <trkpt lat="44.00218" lon="5.91596">
        <ele>473</ele>
        <time>2020-10-05T10:47:44.000Z</time>
      </trkpt>
      <trkpt lat="44.00218" lon="5.91595">
        <ele>473</ele>
        <time>2020-10-05T10:47:45.000Z</time>
      </trkpt>
      <trkpt lat="44.00218" lon="5.91595">
        <ele>473</ele>
        <time>2020-10-05T10:47:46.000Z</time>
      </trkpt>
      <trkpt lat="44.00218" lon="5.91594">
        <ele>473</ele>
        <time>2020-10-05T10:47:47.000Z</time>
      </trkpt>
      <trkpt lat="44.00218" lon="5.91592">
        <ele>473</ele>
        <time>2020-10-05T10:47:48.000Z</time>
      </trkpt>
      <trkpt lat="44.00218" lon="5.91591">
        <ele>473</ele>
        <time>2020-10-05T10:47:49.000Z</time>
      </trkpt>
      <trkpt lat="44.00218" lon="5.9159">
        <ele>473</ele>
        <time>2020-10-05T10:47:50.000Z</time>
      </trkpt>
      <trkpt lat="44.00218" lon="5.91588">
        <ele>473</ele>
        <time>2020-10-05T10:47:51.000Z</time>
      </trkpt>
      <trkpt lat="44.00218" lon="5.91587">
        <ele>473</ele>
        <time>2020-10-05T10:47:52.000Z</time>
      </trkpt>
      <trkpt lat="44.00218" lon="5.91586">
        <ele>473</ele>
        <time>2020-10-05T10:47:53.000Z</time>
      </trkpt>
      <trkpt lat="44.00219" lon="5.91585">
        <ele>473</ele>
        <time>2020-10-05T10:47:54.000Z</time>
      </trkpt>
      <trkpt lat="44.00219" lon="5.91585">
        <ele>473</ele>
        <time>2020-10-05T10:47:55.000Z</time>
      </trkpt>
      <trkpt lat="44.00219" lon="5.91584">
        <ele>473</ele>
        <time>2020-10-05T10:47:56.000Z</time>
      </trkpt>
      <trkpt lat="44.00219" lon="5.91583">
        <ele>473</ele>
        <time>2020-10-05T10:47:57.000Z</time>
      </trkpt>
      <trkpt lat="44.00219" lon="5.91582">
        <ele>473</ele>
        <time>2020-10-05T10:47:58.000Z</time>
      </trkpt>
      <trkpt lat="44.00219" lon="5.91582">
        <ele>473</ele>
        <time>2020-10-05T10:47:59.000Z</time>
      </trkpt>
      <trkpt lat="44.00219" lon="5.91581">
        <ele>473</ele>
        <time>2020-10-05T10:48:00.000Z</time>
      </trkpt>
      <trkpt lat="44.00219" lon="5.91581">
        <ele>473</ele>
        <time>2020-10-05T10:48:01.000Z</time>
      </trkpt>
      <trkpt lat="44.00219" lon="5.91581">
        <ele>473</ele>
        <time>2020-10-05T10:48:02.000Z</time>
      </trkpt>
      <trkpt lat="44.00219" lon="5.91581">
        <ele>473</ele>
        <time>2020-10-05T10:48:03.000Z</time>
      </trkpt>
      <trkpt lat="44.00219" lon="5.91581">
        <ele>473</ele>
        <time>2020-10-05T10:48:04.000Z</time>
      </trkpt>
      <trkpt lat="44.00218" lon="5.91581">
        <ele>473</ele>
        <time>2020-10-05T10:48:05.000Z</time>
      </trkpt>
      <trkpt lat="44.00218" lon="5.9158">
        <ele>473</ele>
        <time>2020-10-05T10:48:06.000Z</time>
      </trkpt>
      <trkpt lat="44.00218" lon="5.9158">
        <ele>473</ele>
        <time>2020-10-05T10:48:07.000Z</time>
      </trkpt>
      <trkpt lat="44.00218" lon="5.91579">
        <ele>473</ele>
        <time>2020-10-05T10:48:08.000Z</time>
      </trkpt>
      <trkpt lat="44.00218" lon="5.91579">
        <ele>473</ele>
        <time>2020-10-05T10:48:09.000Z</time>
      </trkpt>
      <trkpt lat="44.00217" lon="5.91578">
        <ele>473</ele>
        <time>2020-10-05T10:48:10.000Z</time>
      </trkpt>
      <trkpt lat="44.00217" lon="5.91577">
        <ele>473</ele>
        <time>2020-10-05T10:48:11.000Z</time>
      </trkpt>
      <trkpt lat="44.00217" lon="5.91577">
        <ele>473</ele>
        <time>2020-10-05T10:48:12.000Z</time>
      </trkpt>
      <trkpt lat="44.00217" lon="5.91577">
        <ele>473</ele>
        <time>2020-10-05T10:48:13.000Z</time>
      </trkpt>
      <trkpt lat="44.00217" lon="5.91576">
        <ele>473</ele>
        <time>2020-10-05T10:48:14.000Z</time>
      </trkpt>
      <trkpt lat="44.00216" lon="5.91575">
        <ele>473</ele>
        <time>2020-10-05T10:48:15.000Z</time>
      </trkpt>
      <trkpt lat="44.00216" lon="5.91575">
        <ele>473</ele>
        <time>2020-10-05T10:48:16.000Z</time>
      </trkpt>
      <trkpt lat="44.00216" lon="5.91574">
        <ele>474</ele>
        <time>2020-10-05T10:48:17.000Z</time>
      </trkpt>
      <trkpt lat="44.00216" lon="5.91574">
        <ele>474</ele>
        <time>2020-10-05T10:48:18.000Z</time>
      </trkpt>
      <trkpt lat="44.00216" lon="5.91573">
        <ele>474</ele>
        <time>2020-10-05T10:48:19.000Z</time>
      </trkpt>
      <trkpt lat="44.00215" lon="5.91573">
        <ele>474</ele>
        <time>2020-10-05T10:48:20.000Z</time>
      </trkpt>
      <trkpt lat="44.00215" lon="5.91572">
        <ele>474</ele>
        <time>2020-10-05T10:48:21.000Z</time>
      </trkpt>
      <trkpt lat="44.00215" lon="5.91571">
        <ele>474</ele>
        <time>2020-10-05T10:48:22.000Z</time>
      </trkpt>
      <trkpt lat="44.00215" lon="5.91571">
        <ele>474</ele>
        <time>2020-10-05T10:48:23.000Z</time>
      </trkpt>
      <trkpt lat="44.00215" lon="5.91571">
        <ele>474</ele>
        <time>2020-10-05T10:48:24.000Z</time>
      </trkpt>
      <trkpt lat="44.00215" lon="5.9157">
        <ele>474</ele>
        <time>2020-10-05T10:48:25.000Z</time>
      </trkpt>
      <trkpt lat="44.00215" lon="5.9157">
        <ele>474</ele>
        <time>2020-10-05T10:48:26.000Z</time>
      </trkpt>
      <trkpt lat="44.00215" lon="5.9157">
        <ele>474</ele>
        <time>2020-10-05T10:48:27.000Z</time>
      </trkpt>
      <trkpt lat="44.00215" lon="5.9157">
        <ele>474</ele>
        <time>2020-10-05T10:48:28.000Z</time>
      </trkpt>
      <trkpt lat="44.00215" lon="5.91569">
        <ele>474</ele>
        <time>2020-10-05T10:48:29.000Z</time>
      </trkpt>
      <trkpt lat="44.00215" lon="5.91569">
        <ele>474</ele>
        <time>2020-10-05T10:48:30.000Z</time>
      </trkpt>
      <trkpt lat="44.00215" lon="5.91568">
        <ele>474</ele>
        <time>2020-10-05T10:48:31.000Z</time>
      </trkpt>
      <trkpt lat="44.00215" lon="5.91568">
        <ele>474</ele>
        <time>2020-10-05T10:48:32.000Z</time>
      </trkpt>
      <trkpt lat="44.00215" lon="5.91568">
        <ele>474</ele>
        <time>2020-10-05T10:48:33.000Z</time>
      </trkpt>
      <trkpt lat="44.00215" lon="5.91568">
        <ele>474</ele>
        <time>2020-10-05T10:48:34.000Z</time>
      </trkpt>
      <trkpt lat="44.00215" lon="5.91568">
        <ele>474</ele>
        <time>2020-10-05T10:48:35.000Z</time>
      </trkpt>
      <trkpt lat="44.00215" lon="5.91568">
        <ele>474</ele>
        <time>2020-10-05T10:48:36.000Z</time>
      </trkpt>
      <trkpt lat="44.00215" lon="5.91567">
        <ele>474</ele>
        <time>2020-10-05T10:48:37.000Z</time>
      </trkpt>
      <trkpt lat="44.00215" lon="5.91567">
        <ele>474</ele>
        <time>2020-10-05T10:48:38.000Z</time>
      </trkpt>
      <trkpt lat="44.00215" lon="5.91567">
        <ele>474</ele>
        <time>2020-10-05T10:48:39.000Z</time>
      </trkpt>
      <trkpt lat="44.00215" lon="5.91566">
        <ele>474</ele>
        <time>2020-10-05T10:48:40.000Z</time>
      </trkpt>
      <trkpt lat="44.00215" lon="5.91565">
        <ele>474</ele>
        <time>2020-10-05T10:48:41.000Z</time>
      </trkpt>
      <trkpt lat="44.00215" lon="5.91564">
        <ele>474</ele>
        <time>2020-10-05T10:48:42.000Z</time>
      </trkpt>
      <trkpt lat="44.00215" lon="5.91563">
        <ele>474</ele>
        <time>2020-10-05T10:48:43.000Z</time>
      </trkpt>
      <trkpt lat="44.00215" lon="5.91562">
        <ele>474</ele>
        <time>2020-10-05T10:48:44.000Z</time>
      </trkpt>
      <trkpt lat="44.00215" lon="5.91561">
        <ele>475</ele>
        <time>2020-10-05T10:48:45.000Z</time>
      </trkpt>
      <trkpt lat="44.00215" lon="5.9156">
        <ele>475</ele>
        <time>2020-10-05T10:48:46.000Z</time>
      </trkpt>
      <trkpt lat="44.00216" lon="5.9156">
        <ele>475</ele>
        <time>2020-10-05T10:48:47.000Z</time>
      </trkpt>
      <trkpt lat="44.00216" lon="5.91559">
        <ele>475</ele>
        <time>2020-10-05T10:48:48.000Z</time>
      </trkpt>
      <trkpt lat="44.00216" lon="5.91559">
        <ele>475</ele>
        <time>2020-10-05T10:48:49.000Z</time>
      </trkpt>
      <trkpt lat="44.00216" lon="5.91559">
        <ele>475</ele>
        <time>2020-10-05T10:48:50.000Z</time>
      </trkpt>
      <trkpt lat="44.00216" lon="5.91558">
        <ele>475</ele>
        <time>2020-10-05T10:48:51.000Z</time>
      </trkpt>
      <trkpt lat="44.00215" lon="5.91558">
        <ele>475</ele>
        <time>2020-10-05T10:48:52.000Z</time>
      </trkpt>
      <trkpt lat="44.00215" lon="5.91558">
        <ele>475</ele>
        <time>2020-10-05T10:48:53.000Z</time>
      </trkpt>
      <trkpt lat="44.00215" lon="5.91558">
        <ele>475</ele>
        <time>2020-10-05T10:48:54.000Z</time>
      </trkpt>
      <trkpt lat="44.00215" lon="5.91558">
        <ele>476</ele>
        <time>2020-10-05T10:48:55.000Z</time>
      </trkpt>
      <trkpt lat="44.00215" lon="5.91558">
        <ele>476</ele>
        <time>2020-10-05T10:48:56.000Z</time>
      </trkpt>
      <trkpt lat="44.00215" lon="5.91558">
        <ele>476</ele>
        <time>2020-10-05T10:48:57.000Z</time>
      </trkpt>
      <trkpt lat="44.00215" lon="5.91557">
        <ele>476</ele>
        <time>2020-10-05T10:48:58.000Z</time>
      </trkpt>
      <trkpt lat="44.00215" lon="5.91557">
        <ele>476</ele>
        <time>2020-10-05T10:48:59.000Z</time>
      </trkpt>
      <trkpt lat="44.00215" lon="5.91557">
        <ele>476</ele>
        <time>2020-10-05T10:49:00.000Z</time>
      </trkpt>
      <trkpt lat="44.00215" lon="5.91556">
        <ele>476</ele>
        <time>2020-10-05T10:49:01.000Z</time>
      </trkpt>
      <trkpt lat="44.00214" lon="5.91556">
        <ele>476</ele>
        <time>2020-10-05T10:49:02.000Z</time>
      </trkpt>
      <trkpt lat="44.00214" lon="5.91556">
        <ele>476</ele>
        <time>2020-10-05T10:49:03.000Z</time>
      </trkpt>
      <trkpt lat="44.00214" lon="5.91555">
        <ele>476</ele>
        <time>2020-10-05T10:49:04.000Z</time>
      </trkpt>
      <trkpt lat="44.00213" lon="5.91554">
        <ele>477</ele>
        <time>2020-10-05T10:49:05.000Z</time>
      </trkpt>
      <trkpt lat="44.00213" lon="5.91554">
        <ele>477</ele>
        <time>2020-10-05T10:49:06.000Z</time>
      </trkpt>
      <trkpt lat="44.00212" lon="5.91553">
        <ele>477</ele>
        <time>2020-10-05T10:49:07.000Z</time>
      </trkpt>
      <trkpt lat="44.00212" lon="5.91552">
        <ele>477</ele>
        <time>2020-10-05T10:49:08.000Z</time>
      </trkpt>
      <trkpt lat="44.00212" lon="5.91552">
        <ele>477</ele>
        <time>2020-10-05T10:49:09.000Z</time>
      </trkpt>
      <trkpt lat="44.00212" lon="5.91551">
        <ele>477</ele>
        <time>2020-10-05T10:49:10.000Z</time>
      </trkpt>
      <trkpt lat="44.00212" lon="5.91551">
        <ele>477</ele>
        <time>2020-10-05T10:49:11.000Z</time>
      </trkpt>
      <trkpt lat="44.00211" lon="5.91551">
        <ele>477</ele>
        <time>2020-10-05T10:49:12.000Z</time>
      </trkpt>
      <trkpt lat="44.00211" lon="5.91551">
        <ele>478</ele>
        <time>2020-10-05T10:49:13.000Z</time>
      </trkpt>
      <trkpt lat="44.00211" lon="5.91551">
        <ele>478</ele>
        <time>2020-10-05T10:49:14.000Z</time>
      </trkpt>
      <trkpt lat="44.00211" lon="5.9155">
        <ele>478</ele>
        <time>2020-10-05T10:49:15.000Z</time>
      </trkpt>
      <trkpt lat="44.00211" lon="5.9155">
        <ele>478</ele>
        <time>2020-10-05T10:49:16.000Z</time>
      </trkpt>
      <trkpt lat="44.00211" lon="5.9155">
        <ele>478</ele>
        <time>2020-10-05T10:49:17.000Z</time>
      </trkpt>
      <trkpt lat="44.00211" lon="5.9155">
        <ele>478</ele>
        <time>2020-10-05T10:49:18.000Z</time>
      </trkpt>
      <trkpt lat="44.00211" lon="5.9155">
        <ele>478</ele>
        <time>2020-10-05T10:49:19.000Z</time>
      </trkpt>
      <trkpt lat="44.00211" lon="5.9155">
        <ele>478</ele>
        <time>2020-10-05T10:49:20.000Z</time>
      </trkpt>
      <trkpt lat="44.00211" lon="5.91549">
        <ele>478</ele>
        <time>2020-10-05T10:49:21.000Z</time>
      </trkpt>
      <trkpt lat="44.00211" lon="5.91548">
        <ele>478</ele>
        <time>2020-10-05T10:49:22.000Z</time>
      </trkpt>
      <trkpt lat="44.00211" lon="5.91548">
        <ele>478</ele>
        <time>2020-10-05T10:49:23.000Z</time>
      </trkpt>
      <trkpt lat="44.00211" lon="5.91548">
        <ele>478</ele>
        <time>2020-10-05T10:49:24.000Z</time>
      </trkpt>
      <trkpt lat="44.00211" lon="5.91548">
        <ele>478</ele>
        <time>2020-10-05T10:49:25.000Z</time>
      </trkpt>
      <trkpt lat="44.00211" lon="5.91548">
        <ele>479</ele>
        <time>2020-10-05T10:49:26.000Z</time>
      </trkpt>
      <trkpt lat="44.00211" lon="5.91547">
        <ele>479</ele>
        <time>2020-10-05T10:49:27.000Z</time>
      </trkpt>
      <trkpt lat="44.00211" lon="5.91547">
        <ele>479</ele>
        <time>2020-10-05T10:49:28.000Z</time>
      </trkpt>
      <trkpt lat="44.00211" lon="5.91547">
        <ele>479</ele>
        <time>2020-10-05T10:49:29.000Z</time>
      </trkpt>
      <trkpt lat="44.00211" lon="5.91547">
        <ele>479</ele>
        <time>2020-10-05T10:49:30.000Z</time>
      </trkpt>
      <trkpt lat="44.00211" lon="5.91547">
        <ele>479</ele>
        <time>2020-10-05T10:49:31.000Z</time>
      </trkpt>
      <trkpt lat="44.00211" lon="5.91547">
        <ele>479</ele>
        <time>2020-10-05T10:49:32.000Z</time>
      </trkpt>
      <trkpt lat="44.00211" lon="5.91547">
        <ele>479</ele>
        <time>2020-10-05T10:49:33.000Z</time>
      </trkpt>
      <trkpt lat="44.00211" lon="5.91547">
        <ele>479</ele>
        <time>2020-10-05T10:49:34.000Z</time>
      </trkpt>
      <trkpt lat="44.00211" lon="5.91547">
        <ele>479</ele>
        <time>2020-10-05T10:49:35.000Z</time>
      </trkpt>
      <trkpt lat="44.00211" lon="5.91546">
        <ele>479</ele>
        <time>2020-10-05T10:49:36.000Z</time>
      </trkpt>
      <trkpt lat="44.00211" lon="5.91546">
        <ele>479</ele>
        <time>2020-10-05T10:49:37.000Z</time>
      </trkpt>
      <trkpt lat="44.00211" lon="5.91546">
        <ele>479</ele>
        <time>2020-10-05T10:49:38.000Z</time>
      </trkpt>
      <trkpt lat="44.00211" lon="5.91546">
        <ele>479</ele>
        <time>2020-10-05T10:49:39.000Z</time>
      </trkpt>
      <trkpt lat="44.00211" lon="5.91547">
        <ele>479</ele>
        <time>2020-10-05T10:49:40.000Z</time>
      </trkpt>
      <trkpt lat="44.00212" lon="5.91546">
        <ele>479</ele>
        <time>2020-10-05T10:49:41.000Z</time>
      </trkpt>
      <trkpt lat="44.00212" lon="5.91546">
        <ele>479</ele>
        <time>2020-10-05T10:49:42.000Z</time>
      </trkpt>
      <trkpt lat="44.00212" lon="5.91546">
        <ele>479</ele>
        <time>2020-10-05T10:49:43.000Z</time>
      </trkpt>
      <trkpt lat="44.00212" lon="5.91546">
        <ele>479</ele>
        <time>2020-10-05T10:49:44.000Z</time>
      </trkpt>
      <trkpt lat="44.00212" lon="5.91546">
        <ele>479</ele>
        <time>2020-10-05T10:49:45.000Z</time>
      </trkpt>
      <trkpt lat="44.00211" lon="5.91547">
        <ele>479</ele>
        <time>2020-10-05T10:49:46.000Z</time>
      </trkpt>
      <trkpt lat="44.00211" lon="5.91547">
        <ele>479</ele>
        <time>2020-10-05T10:49:47.000Z</time>
      </trkpt>
      <trkpt lat="44.0021" lon="5.91548">
        <ele>479</ele>
        <time>2020-10-05T10:49:48.000Z</time>
      </trkpt>
      <trkpt lat="44.0021" lon="5.91548">
        <ele>479</ele>
        <time>2020-10-05T10:49:49.000Z</time>
      </trkpt>
      <trkpt lat="44.0021" lon="5.91548">
        <ele>479</ele>
        <time>2020-10-05T10:49:50.000Z</time>
      </trkpt>
      <trkpt lat="44.0021" lon="5.91548">
        <ele>479</ele>
        <time>2020-10-05T10:49:51.000Z</time>
      </trkpt>
      <trkpt lat="44.0021" lon="5.91548">
        <ele>480</ele>
        <time>2020-10-05T10:49:52.000Z</time>
      </trkpt>
      <trkpt lat="44.0021" lon="5.91548">
        <ele>480</ele>
        <time>2020-10-05T10:49:53.000Z</time>
      </trkpt>
      <trkpt lat="44.0021" lon="5.91548">
        <ele>480</ele>
        <time>2020-10-05T10:49:54.000Z</time>
      </trkpt>
      <trkpt lat="44.00209" lon="5.91548">
        <ele>480</ele>
        <time>2020-10-05T10:49:55.000Z</time>
      </trkpt>
      <trkpt lat="44.00209" lon="5.91548">
        <ele>480</ele>
        <time>2020-10-05T10:49:56.000Z</time>
      </trkpt>
      <trkpt lat="44.00209" lon="5.91548">
        <ele>480</ele>
        <time>2020-10-05T10:49:57.000Z</time>
      </trkpt>
      <trkpt lat="44.00208" lon="5.91548">
        <ele>480</ele>
        <time>2020-10-05T10:49:58.000Z</time>
      </trkpt>
      <trkpt lat="44.00208" lon="5.91548">
        <ele>480</ele>
        <time>2020-10-05T10:49:59.000Z</time>
      </trkpt>
      <trkpt lat="44.00208" lon="5.91548">
        <ele>480</ele>
        <time>2020-10-05T10:50:00.000Z</time>
      </trkpt>
      <trkpt lat="44.00208" lon="5.91548">
        <ele>480</ele>
        <time>2020-10-05T10:50:01.000Z</time>
      </trkpt>
      <trkpt lat="44.00208" lon="5.91548">
        <ele>480</ele>
        <time>2020-10-05T10:50:02.000Z</time>
      </trkpt>
      <trkpt lat="44.00208" lon="5.91549">
        <ele>480</ele>
        <time>2020-10-05T10:50:03.000Z</time>
      </trkpt>
      <trkpt lat="44.00208" lon="5.91549">
        <ele>480</ele>
        <time>2020-10-05T10:50:04.000Z</time>
      </trkpt>
      <trkpt lat="44.00208" lon="5.91549">
        <ele>480</ele>
        <time>2020-10-05T10:50:05.000Z</time>
      </trkpt>
      <trkpt lat="44.00208" lon="5.9155">
        <ele>480</ele>
        <time>2020-10-05T10:50:06.000Z</time>
      </trkpt>
      <trkpt lat="44.00208" lon="5.9155">
        <ele>480</ele>
        <time>2020-10-05T10:50:07.000Z</time>
      </trkpt>
      <trkpt lat="44.00207" lon="5.91551">
        <ele>480</ele>
        <time>2020-10-05T10:50:08.000Z</time>
      </trkpt>
      <trkpt lat="44.00207" lon="5.91552">
        <ele>480</ele>
        <time>2020-10-05T10:50:09.000Z</time>
      </trkpt>
      <trkpt lat="44.00207" lon="5.91553">
        <ele>480</ele>
        <time>2020-10-05T10:50:10.000Z</time>
      </trkpt>
      <trkpt lat="44.00207" lon="5.91553">
        <ele>480</ele>
        <time>2020-10-05T10:50:11.000Z</time>
      </trkpt>
      <trkpt lat="44.00207" lon="5.91554">
        <ele>480</ele>
        <time>2020-10-05T10:50:12.000Z</time>
      </trkpt>
      <trkpt lat="44.00207" lon="5.91554">
        <ele>480</ele>
        <time>2020-10-05T10:50:13.000Z</time>
      </trkpt>
      <trkpt lat="44.00207" lon="5.91554">
        <ele>480</ele>
        <time>2020-10-05T10:50:14.000Z</time>
      </trkpt>
      <trkpt lat="44.00207" lon="5.91554">
        <ele>480</ele>
        <time>2020-10-05T10:50:15.000Z</time>
      </trkpt>
      <trkpt lat="44.00207" lon="5.91554">
        <ele>480</ele>
        <time>2020-10-05T10:50:16.000Z</time>
      </trkpt>
      <trkpt lat="44.00207" lon="5.91554">
        <ele>480</ele>
        <time>2020-10-05T10:50:17.000Z</time>
      </trkpt>
      <trkpt lat="44.00207" lon="5.91555">
        <ele>480</ele>
        <time>2020-10-05T10:50:18.000Z</time>
      </trkpt>
      <trkpt lat="44.00207" lon="5.91555">
        <ele>480</ele>
        <time>2020-10-05T10:50:19.000Z</time>
      </trkpt>
      <trkpt lat="44.00207" lon="5.91555">
        <ele>480</ele>
        <time>2020-10-05T10:50:20.000Z</time>
      </trkpt>
      <trkpt lat="44.00207" lon="5.91555">
        <ele>480</ele>
        <time>2020-10-05T10:50:21.000Z</time>
      </trkpt>
      <trkpt lat="44.00207" lon="5.91555">
        <ele>480</ele>
        <time>2020-10-05T10:50:22.000Z</time>
      </trkpt>
      <trkpt lat="44.00207" lon="5.91555">
        <ele>480</ele>
        <time>2020-10-05T10:50:23.000Z</time>
      </trkpt>
      <trkpt lat="44.00207" lon="5.91555">
        <ele>480</ele>
        <time>2020-10-05T10:50:24.000Z</time>
      </trkpt>
      <trkpt lat="44.00207" lon="5.91555">
        <ele>480</ele>
        <time>2020-10-05T10:50:25.000Z</time>
      </trkpt>
      <trkpt lat="44.00207" lon="5.91555">
        <ele>480</ele>
        <time>2020-10-05T10:50:26.000Z</time>
      </trkpt>
      <trkpt lat="44.00207" lon="5.91555">
        <ele>480</ele>
        <time>2020-10-05T10:50:27.000Z</time>
      </trkpt>
      <trkpt lat="44.00207" lon="5.91555">
        <ele>480</ele>
        <time>2020-10-05T10:50:28.000Z</time>
      </trkpt>
      <trkpt lat="44.00207" lon="5.91555">
        <ele>480</ele>
        <time>2020-10-05T10:50:29.000Z</time>
      </trkpt>
      <trkpt lat="44.00207" lon="5.91555">
        <ele>480</ele>
        <time>2020-10-05T10:50:30.000Z</time>
      </trkpt>
      <trkpt lat="44.00207" lon="5.91555">
        <ele>480</ele>
        <time>2020-10-05T10:50:31.000Z</time>
      </trkpt>
      <trkpt lat="44.00207" lon="5.91555">
        <ele>480</ele>
        <time>2020-10-05T10:50:32.000Z</time>
      </trkpt>
      <trkpt lat="44.00207" lon="5.91555">
        <ele>480</ele>
        <time>2020-10-05T10:50:33.000Z</time>
      </trkpt>
      <trkpt lat="44.00207" lon="5.91555">
        <ele>480</ele>
        <time>2020-10-05T10:50:34.000Z</time>
      </trkpt>
      <trkpt lat="44.00207" lon="5.91555">
        <ele>480</ele>
        <time>2020-10-05T10:50:35.000Z</time>
      </trkpt>
      <trkpt lat="44.00207" lon="5.91555">
        <ele>480</ele>
        <time>2020-10-05T10:50:36.000Z</time>
      </trkpt>
      <trkpt lat="44.00207" lon="5.91555">
        <ele>480</ele>
        <time>2020-10-05T10:50:37.000Z</time>
      </trkpt>
      <trkpt lat="44.00207" lon="5.91555">
        <ele>480</ele>
        <time>2020-10-05T10:50:38.000Z</time>
      </trkpt>
      <trkpt lat="44.00207" lon="5.91555">
        <ele>481</ele>
        <time>2020-10-05T10:50:39.000Z</time>
      </trkpt>
      <trkpt lat="44.00207" lon="5.91555">
        <ele>481</ele>
        <time>2020-10-05T10:50:40.000Z</time>
      </trkpt>
      <trkpt lat="44.00207" lon="5.91555">
        <ele>481</ele>
        <time>2020-10-05T10:50:41.000Z</time>
      </trkpt>
      <trkpt lat="44.00207" lon="5.91555">
        <ele>481</ele>
        <time>2020-10-05T10:50:42.000Z</time>
      </trkpt>
      <trkpt lat="44.00207" lon="5.91555">
        <ele>481</ele>
        <time>2020-10-05T10:50:43.000Z</time>
      </trkpt>
      <trkpt lat="44.00207" lon="5.91555">
        <ele>481</ele>
        <time>2020-10-05T10:50:44.000Z</time>
      </trkpt>
      <trkpt lat="44.00207" lon="5.91555">
        <ele>481</ele>
        <time>2020-10-05T10:50:45.000Z</time>
      </trkpt>
      <trkpt lat="44.00207" lon="5.91555">
        <ele>481</ele>
        <time>2020-10-05T10:50:46.000Z</time>
      </trkpt>
      <trkpt lat="44.00207" lon="5.91555">
        <ele>481</ele>
        <time>2020-10-05T10:50:47.000Z</time>
      </trkpt>
      <trkpt lat="44.00207" lon="5.91555">
        <ele>481</ele>
        <time>2020-10-05T10:50:48.000Z</time>
      </trkpt>
      <trkpt lat="44.00207" lon="5.91556">
        <ele>481</ele>
        <time>2020-10-05T10:50:49.000Z</time>
      </trkpt>
      <trkpt lat="44.00207" lon="5.91556">
        <ele>481</ele>
        <time>2020-10-05T10:50:50.000Z</time>
      </trkpt>
      <trkpt lat="44.00207" lon="5.91556">
        <ele>481</ele>
        <time>2020-10-05T10:50:51.000Z</time>
      </trkpt>
      <trkpt lat="44.00207" lon="5.91557">
        <ele>482</ele>
        <time>2020-10-05T10:50:52.000Z</time>
      </trkpt>
      <trkpt lat="44.00207" lon="5.91557">
        <ele>482</ele>
        <time>2020-10-05T10:50:53.000Z</time>
      </trkpt>
      <trkpt lat="44.00207" lon="5.91558">
        <ele>482</ele>
        <time>2020-10-05T10:50:54.000Z</time>
      </trkpt>
      <trkpt lat="44.00207" lon="5.91558">
        <ele>482</ele>
        <time>2020-10-05T10:50:55.000Z</time>
      </trkpt>
      <trkpt lat="44.00206" lon="5.91558">
        <ele>482</ele>
        <time>2020-10-05T10:50:56.000Z</time>
      </trkpt>
      <trkpt lat="44.00206" lon="5.91559">
        <ele>483</ele>
        <time>2020-10-05T10:50:57.000Z</time>
      </trkpt>
      <trkpt lat="44.00205" lon="5.91559">
        <ele>483</ele>
        <time>2020-10-05T10:50:58.000Z</time>
      </trkpt>
      <trkpt lat="44.00205" lon="5.91559">
        <ele>483</ele>
        <time>2020-10-05T10:50:59.000Z</time>
      </trkpt>
      <trkpt lat="44.00205" lon="5.91559">
        <ele>483</ele>
        <time>2020-10-05T10:51:00.000Z</time>
      </trkpt>
      <trkpt lat="44.00205" lon="5.91559">
        <ele>483</ele>
        <time>2020-10-05T10:51:01.000Z</time>
      </trkpt>
      <trkpt lat="44.00204" lon="5.91559">
        <ele>483</ele>
        <time>2020-10-05T10:51:02.000Z</time>
      </trkpt>
      <trkpt lat="44.00204" lon="5.91559">
        <ele>483</ele>
        <time>2020-10-05T10:51:03.000Z</time>
      </trkpt>
      <trkpt lat="44.00204" lon="5.9156">
        <ele>484</ele>
        <time>2020-10-05T10:51:04.000Z</time>
      </trkpt>
      <trkpt lat="44.00204" lon="5.9156">
        <ele>484</ele>
        <time>2020-10-05T10:51:05.000Z</time>
      </trkpt>
      <trkpt lat="44.00204" lon="5.91559">
        <ele>484</ele>
        <time>2020-10-05T10:51:06.000Z</time>
      </trkpt>
      <trkpt lat="44.00204" lon="5.91559">
        <ele>484</ele>
        <time>2020-10-05T10:51:07.000Z</time>
      </trkpt>
      <trkpt lat="44.00203" lon="5.91559">
        <ele>484</ele>
        <time>2020-10-05T10:51:08.000Z</time>
      </trkpt>
      <trkpt lat="44.00203" lon="5.91559">
        <ele>484</ele>
        <time>2020-10-05T10:51:09.000Z</time>
      </trkpt>
      <trkpt lat="44.00202" lon="5.91559">
        <ele>484</ele>
        <time>2020-10-05T10:51:10.000Z</time>
      </trkpt>
      <trkpt lat="44.00202" lon="5.91559">
        <ele>485</ele>
        <time>2020-10-05T10:51:11.000Z</time>
      </trkpt>
      <trkpt lat="44.00202" lon="5.91559">
        <ele>485</ele>
        <time>2020-10-05T10:51:12.000Z</time>
      </trkpt>
      <trkpt lat="44.00202" lon="5.91559">
        <ele>485</ele>
        <time>2020-10-05T10:51:13.000Z</time>
      </trkpt>
      <trkpt lat="44.00202" lon="5.91559">
        <ele>485</ele>
        <time>2020-10-05T10:51:14.000Z</time>
      </trkpt>
      <trkpt lat="44.00202" lon="5.91559">
        <ele>485</ele>
        <time>2020-10-05T10:51:15.000Z</time>
      </trkpt>
      <trkpt lat="44.00202" lon="5.91559">
        <ele>485</ele>
        <time>2020-10-05T10:51:16.000Z</time>
      </trkpt>
      <trkpt lat="44.00202" lon="5.91559">
        <ele>485</ele>
        <time>2020-10-05T10:51:17.000Z</time>
      </trkpt>
      <trkpt lat="44.00202" lon="5.91559">
        <ele>485</ele>
        <time>2020-10-05T10:51:18.000Z</time>
      </trkpt>
      <trkpt lat="44.00202" lon="5.91559">
        <ele>486</ele>
        <time>2020-10-05T10:51:19.000Z</time>
      </trkpt>
      <trkpt lat="44.00202" lon="5.91559">
        <ele>486</ele>
        <time>2020-10-05T10:51:20.000Z</time>
      </trkpt>
      <trkpt lat="44.00202" lon="5.91559">
        <ele>486</ele>
        <time>2020-10-05T10:51:21.000Z</time>
      </trkpt>
      <trkpt lat="44.00202" lon="5.91559">
        <ele>486</ele>
        <time>2020-10-05T10:51:22.000Z</time>
      </trkpt>
      <trkpt lat="44.00202" lon="5.91558">
        <ele>486</ele>
        <time>2020-10-05T10:51:23.000Z</time>
      </trkpt>
      <trkpt lat="44.00202" lon="5.91558">
        <ele>486</ele>
        <time>2020-10-05T10:51:24.000Z</time>
      </trkpt>
      <trkpt lat="44.00202" lon="5.91558">
        <ele>486</ele>
        <time>2020-10-05T10:51:25.000Z</time>
      </trkpt>
      <trkpt lat="44.00202" lon="5.91558">
        <ele>486</ele>
        <time>2020-10-05T10:51:26.000Z</time>
      </trkpt>
      <trkpt lat="44.00202" lon="5.91558">
        <ele>486</ele>
        <time>2020-10-05T10:51:27.000Z</time>
      </trkpt>
      <trkpt lat="44.00202" lon="5.91558">
        <ele>486</ele>
        <time>2020-10-05T10:51:28.000Z</time>
      </trkpt>
      <trkpt lat="44.00202" lon="5.91558">
        <ele>486</ele>
        <time>2020-10-05T10:51:29.000Z</time>
      </trkpt>
      <trkpt lat="44.00202" lon="5.91558">
        <ele>486</ele>
        <time>2020-10-05T10:51:30.000Z</time>
      </trkpt>
      <trkpt lat="44.00202" lon="5.91558">
        <ele>486</ele>
        <time>2020-10-05T10:51:31.000Z</time>
      </trkpt>
      <trkpt lat="44.00202" lon="5.91558">
        <ele>487</ele>
        <time>2020-10-05T10:51:32.000Z</time>
      </trkpt>
      <trkpt lat="44.00202" lon="5.91558">
        <ele>487</ele>
        <time>2020-10-05T10:51:33.000Z</time>
      </trkpt>
      <trkpt lat="44.00202" lon="5.91558">
        <ele>487</ele>
        <time>2020-10-05T10:51:34.000Z</time>
      </trkpt>
      <trkpt lat="44.00202" lon="5.91558">
        <ele>487</ele>
        <time>2020-10-05T10:51:35.000Z</time>
      </trkpt>
      <trkpt lat="44.00202" lon="5.91558">
        <ele>487</ele>
        <time>2020-10-05T10:51:36.000Z</time>
      </trkpt>
      <trkpt lat="44.00201" lon="5.91558">
        <ele>487</ele>
        <time>2020-10-05T10:51:37.000Z</time>
      </trkpt>
      <trkpt lat="44.00201" lon="5.91559">
        <ele>487</ele>
        <time>2020-10-05T10:51:38.000Z</time>
      </trkpt>
      <trkpt lat="44.00201" lon="5.91559">
        <ele>487</ele>
        <time>2020-10-05T10:51:39.000Z</time>
      </trkpt>
      <trkpt lat="44.00201" lon="5.91559">
        <ele>487</ele>
        <time>2020-10-05T10:51:40.000Z</time>
      </trkpt>
      <trkpt lat="44.00201" lon="5.91559">
        <ele>487</ele>
        <time>2020-10-05T10:51:41.000Z</time>
      </trkpt>
      <trkpt lat="44.00201" lon="5.91559">
        <ele>487</ele>
        <time>2020-10-05T10:51:42.000Z</time>
      </trkpt>
      <trkpt lat="44.002" lon="5.9156">
        <ele>487</ele>
        <time>2020-10-05T10:51:43.000Z</time>
      </trkpt>
      <trkpt lat="44.002" lon="5.9156">
        <ele>487</ele>
        <time>2020-10-05T10:51:44.000Z</time>
      </trkpt>
      <trkpt lat="44.002" lon="5.9156">
        <ele>487</ele>
        <time>2020-10-05T10:51:45.000Z</time>
      </trkpt>
      <trkpt lat="44.002" lon="5.91561">
        <ele>487</ele>
        <time>2020-10-05T10:51:46.000Z</time>
      </trkpt>
      <trkpt lat="44.002" lon="5.91561">
        <ele>487</ele>
        <time>2020-10-05T10:51:47.000Z</time>
      </trkpt>
      <trkpt lat="44.002" lon="5.91561">
        <ele>487</ele>
        <time>2020-10-05T10:51:48.000Z</time>
      </trkpt>
      <trkpt lat="44.002" lon="5.91561">
        <ele>487</ele>
        <time>2020-10-05T10:51:49.000Z</time>
      </trkpt>
      <trkpt lat="44.002" lon="5.91561">
        <ele>487</ele>
        <time>2020-10-05T10:51:50.000Z</time>
      </trkpt>
      <trkpt lat="44.00199" lon="5.91561">
        <ele>487</ele>
        <time>2020-10-05T10:51:51.000Z</time>
      </trkpt>
      <trkpt lat="44.00199" lon="5.91561">
        <ele>487</ele>
        <time>2020-10-05T10:51:52.000Z</time>
      </trkpt>
      <trkpt lat="44.00199" lon="5.91562">
        <ele>487</ele>
        <time>2020-10-05T10:51:53.000Z</time>
      </trkpt>
      <trkpt lat="44.00198" lon="5.91562">
        <ele>487</ele>
        <time>2020-10-05T10:51:54.000Z</time>
      </trkpt>
      <trkpt lat="44.00198" lon="5.91562">
        <ele>487</ele>
        <time>2020-10-05T10:51:55.000Z</time>
      </trkpt>
      <trkpt lat="44.00198" lon="5.91562">
        <ele>487</ele>
        <time>2020-10-05T10:51:56.000Z</time>
      </trkpt>
      <trkpt lat="44.00197" lon="5.91561">
        <ele>487</ele>
        <time>2020-10-05T10:51:57.000Z</time>
      </trkpt>
      <trkpt lat="44.00196" lon="5.91561">
        <ele>487</ele>
        <time>2020-10-05T10:51:58.000Z</time>
      </trkpt>
      <trkpt lat="44.00196" lon="5.91561">
        <ele>488</ele>
        <time>2020-10-05T10:51:59.000Z</time>
      </trkpt>
      <trkpt lat="44.00195" lon="5.9156">
        <ele>488</ele>
        <time>2020-10-05T10:52:00.000Z</time>
      </trkpt>
      <trkpt lat="44.00195" lon="5.9156">
        <ele>488</ele>
        <time>2020-10-05T10:52:01.000Z</time>
      </trkpt>
      <trkpt lat="44.00195" lon="5.91559">
        <ele>488</ele>
        <time>2020-10-05T10:52:02.000Z</time>
      </trkpt>
      <trkpt lat="44.00195" lon="5.91559">
        <ele>488</ele>
        <time>2020-10-05T10:52:03.000Z</time>
      </trkpt>
      <trkpt lat="44.00194" lon="5.91559">
        <ele>488</ele>
        <time>2020-10-05T10:52:04.000Z</time>
      </trkpt>
      <trkpt lat="44.00194" lon="5.91559">
        <ele>488</ele>
        <time>2020-10-05T10:52:05.000Z</time>
      </trkpt>
      <trkpt lat="44.00193" lon="5.91559">
        <ele>488</ele>
        <time>2020-10-05T10:52:06.000Z</time>
      </trkpt>
      <trkpt lat="44.00193" lon="5.91559">
        <ele>488</ele>
        <time>2020-10-05T10:52:07.000Z</time>
      </trkpt>
      <trkpt lat="44.00193" lon="5.91559">
        <ele>488</ele>
        <time>2020-10-05T10:52:08.000Z</time>
      </trkpt>
      <trkpt lat="44.00192" lon="5.91559">
        <ele>488</ele>
        <time>2020-10-05T10:52:09.000Z</time>
      </trkpt>
      <trkpt lat="44.00192" lon="5.91559">
        <ele>488</ele>
        <time>2020-10-05T10:52:10.000Z</time>
      </trkpt>
      <trkpt lat="44.00192" lon="5.9156">
        <ele>488</ele>
        <time>2020-10-05T10:52:11.000Z</time>
      </trkpt>
      <trkpt lat="44.00192" lon="5.9156">
        <ele>488</ele>
        <time>2020-10-05T10:52:12.000Z</time>
      </trkpt>
      <trkpt lat="44.00191" lon="5.9156">
        <ele>488</ele>
        <time>2020-10-05T10:52:13.000Z</time>
      </trkpt>
      <trkpt lat="44.00191" lon="5.91561">
        <ele>488</ele>
        <time>2020-10-05T10:52:14.000Z</time>
      </trkpt>
      <trkpt lat="44.00191" lon="5.91561">
        <ele>488</ele>
        <time>2020-10-05T10:52:15.000Z</time>
      </trkpt>
      <trkpt lat="44.00191" lon="5.91562">
        <ele>488</ele>
        <time>2020-10-05T10:52:16.000Z</time>
      </trkpt>
      <trkpt lat="44.0019" lon="5.91562">
        <ele>488</ele>
        <time>2020-10-05T10:52:17.000Z</time>
      </trkpt>
      <trkpt lat="44.0019" lon="5.91563">
        <ele>488</ele>
        <time>2020-10-05T10:52:18.000Z</time>
      </trkpt>
      <trkpt lat="44.0019" lon="5.91563">
        <ele>488</ele>
        <time>2020-10-05T10:52:19.000Z</time>
      </trkpt>
      <trkpt lat="44.0019" lon="5.91563">
        <ele>488</ele>
        <time>2020-10-05T10:52:20.000Z</time>
      </trkpt>
      <trkpt lat="44.0019" lon="5.91563">
        <ele>488</ele>
        <time>2020-10-05T10:52:21.000Z</time>
      </trkpt>
      <trkpt lat="44.0019" lon="5.91564">
        <ele>488</ele>
        <time>2020-10-05T10:52:22.000Z</time>
      </trkpt>
      <trkpt lat="44.00189" lon="5.91564">
        <ele>488</ele>
        <time>2020-10-05T10:52:23.000Z</time>
      </trkpt>
      <trkpt lat="44.00189" lon="5.91564">
        <ele>488</ele>
        <time>2020-10-05T10:52:24.000Z</time>
      </trkpt>
      <trkpt lat="44.00189" lon="5.91564">
        <ele>488</ele>
        <time>2020-10-05T10:52:25.000Z</time>
      </trkpt>
      <trkpt lat="44.00189" lon="5.91564">
        <ele>488</ele>
        <time>2020-10-05T10:52:26.000Z</time>
      </trkpt>
      <trkpt lat="44.00189" lon="5.91564">
        <ele>488</ele>
        <time>2020-10-05T10:52:27.000Z</time>
      </trkpt>
      <trkpt lat="44.00189" lon="5.91564">
        <ele>488</ele>
        <time>2020-10-05T10:52:28.000Z</time>
      </trkpt>
      <trkpt lat="44.00188" lon="5.91564">
        <ele>488</ele>
        <time>2020-10-05T10:52:29.000Z</time>
      </trkpt>
      <trkpt lat="44.00188" lon="5.91564">
        <ele>488</ele>
        <time>2020-10-05T10:52:30.000Z</time>
      </trkpt>
      <trkpt lat="44.00187" lon="5.91564">
        <ele>488</ele>
        <time>2020-10-05T10:52:31.000Z</time>
      </trkpt>
      <trkpt lat="44.00187" lon="5.91564">
        <ele>488</ele>
        <time>2020-10-05T10:52:32.000Z</time>
      </trkpt>
      <trkpt lat="44.00187" lon="5.91564">
        <ele>488</ele>
        <time>2020-10-05T10:52:33.000Z</time>
      </trkpt>
      <trkpt lat="44.00187" lon="5.91564">
        <ele>488</ele>
        <time>2020-10-05T10:52:34.000Z</time>
      </trkpt>
      <trkpt lat="44.00187" lon="5.91564">
        <ele>488</ele>
        <time>2020-10-05T10:52:35.000Z</time>
      </trkpt>
      <trkpt lat="44.00187" lon="5.91564">
        <ele>488</ele>
        <time>2020-10-05T10:52:36.000Z</time>
      </trkpt>
      <trkpt lat="44.00187" lon="5.91563">
        <ele>488</ele>
        <time>2020-10-05T10:52:37.000Z</time>
      </trkpt>
      <trkpt lat="44.00186" lon="5.91563">
        <ele>488</ele>
        <time>2020-10-05T10:52:38.000Z</time>
      </trkpt>
      <trkpt lat="44.00186" lon="5.91563">
        <ele>488</ele>
        <time>2020-10-05T10:52:39.000Z</time>
      </trkpt>
      <trkpt lat="44.00186" lon="5.91563">
        <ele>488</ele>
        <time>2020-10-05T10:52:40.000Z</time>
      </trkpt>
      <trkpt lat="44.00185" lon="5.91562">
        <ele>488</ele>
        <time>2020-10-05T10:52:41.000Z</time>
      </trkpt>
      <trkpt lat="44.00185" lon="5.91562">
        <ele>488</ele>
        <time>2020-10-05T10:52:42.000Z</time>
      </trkpt>
      <trkpt lat="44.00185" lon="5.91561">
        <ele>488</ele>
        <time>2020-10-05T10:52:43.000Z</time>
      </trkpt>
      <trkpt lat="44.00185" lon="5.91561">
        <ele>488</ele>
        <time>2020-10-05T10:52:44.000Z</time>
      </trkpt>
      <trkpt lat="44.00185" lon="5.91561">
        <ele>488</ele>
        <time>2020-10-05T10:52:45.000Z</time>
      </trkpt>
      <trkpt lat="44.00185" lon="5.91561">
        <ele>488</ele>
        <time>2020-10-05T10:52:46.000Z</time>
      </trkpt>
      <trkpt lat="44.00185" lon="5.91561">
        <ele>488</ele>
        <time>2020-10-05T10:52:47.000Z</time>
      </trkpt>
      <trkpt lat="44.00185" lon="5.91561">
        <ele>488</ele>
        <time>2020-10-05T10:52:48.000Z</time>
      </trkpt>
      <trkpt lat="44.00185" lon="5.91561">
        <ele>488</ele>
        <time>2020-10-05T10:52:49.000Z</time>
      </trkpt>
      <trkpt lat="44.00185" lon="5.9156">
        <ele>488</ele>
        <time>2020-10-05T10:52:50.000Z</time>
      </trkpt>
      <trkpt lat="44.00185" lon="5.9156">
        <ele>488</ele>
        <time>2020-10-05T10:52:51.000Z</time>
      </trkpt>
      <trkpt lat="44.00185" lon="5.91559">
        <ele>488</ele>
        <time>2020-10-05T10:52:52.000Z</time>
      </trkpt>
      <trkpt lat="44.00184" lon="5.91559">
        <ele>489</ele>
        <time>2020-10-05T10:52:53.000Z</time>
      </trkpt>
      <trkpt lat="44.00184" lon="5.91559">
        <ele>489</ele>
        <time>2020-10-05T10:52:54.000Z</time>
      </trkpt>
      <trkpt lat="44.00184" lon="5.91558">
        <ele>489</ele>
        <time>2020-10-05T10:52:55.000Z</time>
      </trkpt>
      <trkpt lat="44.00184" lon="5.91558">
        <ele>489</ele>
        <time>2020-10-05T10:52:56.000Z</time>
      </trkpt>
      <trkpt lat="44.00184" lon="5.91558">
        <ele>489</ele>
        <time>2020-10-05T10:52:57.000Z</time>
      </trkpt>
      <trkpt lat="44.00184" lon="5.91557">
        <ele>489</ele>
        <time>2020-10-05T10:52:58.000Z</time>
      </trkpt>
      <trkpt lat="44.00184" lon="5.91558">
        <ele>489</ele>
        <time>2020-10-05T10:52:59.000Z</time>
      </trkpt>
      <trkpt lat="44.00184" lon="5.91558">
        <ele>489</ele>
        <time>2020-10-05T10:53:00.000Z</time>
      </trkpt>
      <trkpt lat="44.00184" lon="5.91557">
        <ele>489</ele>
        <time>2020-10-05T10:53:01.000Z</time>
      </trkpt>
      <trkpt lat="44.00184" lon="5.91557">
        <ele>489</ele>
        <time>2020-10-05T10:53:02.000Z</time>
      </trkpt>
      <trkpt lat="44.00184" lon="5.91557">
        <ele>489</ele>
        <time>2020-10-05T10:53:03.000Z</time>
      </trkpt>
      <trkpt lat="44.00184" lon="5.91557">
        <ele>489</ele>
        <time>2020-10-05T10:53:04.000Z</time>
      </trkpt>
      <trkpt lat="44.00184" lon="5.91557">
        <ele>489</ele>
        <time>2020-10-05T10:53:05.000Z</time>
      </trkpt>
      <trkpt lat="44.00184" lon="5.91557">
        <ele>489</ele>
        <time>2020-10-05T10:53:06.000Z</time>
      </trkpt>
      <trkpt lat="44.00184" lon="5.91556">
        <ele>490</ele>
        <time>2020-10-05T10:53:07.000Z</time>
      </trkpt>
      <trkpt lat="44.00183" lon="5.91556">
        <ele>490</ele>
        <time>2020-10-05T10:53:08.000Z</time>
      </trkpt>
      <trkpt lat="44.00183" lon="5.91556">
        <ele>490</ele>
        <time>2020-10-05T10:53:09.000Z</time>
      </trkpt>
      <trkpt lat="44.00183" lon="5.91556">
        <ele>490</ele>
        <time>2020-10-05T10:53:10.000Z</time>
      </trkpt>
      <trkpt lat="44.00183" lon="5.91556">
        <ele>490</ele>
        <time>2020-10-05T10:53:11.000Z</time>
      </trkpt>
      <trkpt lat="44.00183" lon="5.91556">
        <ele>490</ele>
        <time>2020-10-05T10:53:12.000Z</time>
      </trkpt>
      <trkpt lat="44.00183" lon="5.91556">
        <ele>490</ele>
        <time>2020-10-05T10:53:13.000Z</time>
      </trkpt>
      <trkpt lat="44.00183" lon="5.91556">
        <ele>490</ele>
        <time>2020-10-05T10:53:14.000Z</time>
      </trkpt>
      <trkpt lat="44.00183" lon="5.91556">
        <ele>490</ele>
        <time>2020-10-05T10:53:15.000Z</time>
      </trkpt>
      <trkpt lat="44.00183" lon="5.91556">
        <ele>490</ele>
        <time>2020-10-05T10:53:16.000Z</time>
      </trkpt>
      <trkpt lat="44.00183" lon="5.91556">
        <ele>490</ele>
        <time>2020-10-05T10:53:17.000Z</time>
      </trkpt>
      <trkpt lat="44.00183" lon="5.91556">
        <ele>490</ele>
        <time>2020-10-05T10:53:18.000Z</time>
      </trkpt>
      <trkpt lat="44.00183" lon="5.91556">
        <ele>491</ele>
        <time>2020-10-05T10:53:19.000Z</time>
      </trkpt>
      <trkpt lat="44.00183" lon="5.91556">
        <ele>491</ele>
        <time>2020-10-05T10:53:20.000Z</time>
      </trkpt>
      <trkpt lat="44.00183" lon="5.91556">
        <ele>491</ele>
        <time>2020-10-05T10:53:21.000Z</time>
      </trkpt>
      <trkpt lat="44.00183" lon="5.91556">
        <ele>491</ele>
        <time>2020-10-05T10:53:22.000Z</time>
      </trkpt>
      <trkpt lat="44.00182" lon="5.91557">
        <ele>491</ele>
        <time>2020-10-05T10:53:23.000Z</time>
      </trkpt>
      <trkpt lat="44.00182" lon="5.91557">
        <ele>491</ele>
        <time>2020-10-05T10:53:24.000Z</time>
      </trkpt>
      <trkpt lat="44.00181" lon="5.91557">
        <ele>491</ele>
        <time>2020-10-05T10:53:25.000Z</time>
      </trkpt>
      <trkpt lat="44.00181" lon="5.91556">
        <ele>491</ele>
        <time>2020-10-05T10:53:26.000Z</time>
      </trkpt>
      <trkpt lat="44.00181" lon="5.91556">
        <ele>491</ele>
        <time>2020-10-05T10:53:27.000Z</time>
      </trkpt>
      <trkpt lat="44.00181" lon="5.91556">
        <ele>491</ele>
        <time>2020-10-05T10:53:28.000Z</time>
      </trkpt>
      <trkpt lat="44.00181" lon="5.91555">
        <ele>491</ele>
        <time>2020-10-05T10:53:29.000Z</time>
      </trkpt>
      <trkpt lat="44.0018" lon="5.91554">
        <ele>491</ele>
        <time>2020-10-05T10:53:30.000Z</time>
      </trkpt>
      <trkpt lat="44.0018" lon="5.91554">
        <ele>491</ele>
        <time>2020-10-05T10:53:31.000Z</time>
      </trkpt>
      <trkpt lat="44.0018" lon="5.91554">
        <ele>491</ele>
        <time>2020-10-05T10:53:32.000Z</time>
      </trkpt>
      <trkpt lat="44.0018" lon="5.91554">
        <ele>491</ele>
        <time>2020-10-05T10:53:33.000Z</time>
      </trkpt>
      <trkpt lat="44.00181" lon="5.91553">
        <ele>491</ele>
        <time>2020-10-05T10:53:34.000Z</time>
      </trkpt>
      <trkpt lat="44.00181" lon="5.91553">
        <ele>491</ele>
        <time>2020-10-05T10:53:35.000Z</time>
      </trkpt>
      <trkpt lat="44.0018" lon="5.91553">
        <ele>491</ele>
        <time>2020-10-05T10:53:36.000Z</time>
      </trkpt>
      <trkpt lat="44.00181" lon="5.91553">
        <ele>491</ele>
        <time>2020-10-05T10:53:37.000Z</time>
      </trkpt>
      <trkpt lat="44.0018" lon="5.91553">
        <ele>492</ele>
        <time>2020-10-05T10:53:38.000Z</time>
      </trkpt>
      <trkpt lat="44.0018" lon="5.91552">
        <ele>492</ele>
        <time>2020-10-05T10:53:39.000Z</time>
      </trkpt>
      <trkpt lat="44.0018" lon="5.91552">
        <ele>492</ele>
        <time>2020-10-05T10:53:40.000Z</time>
      </trkpt>
      <trkpt lat="44.00181" lon="5.91551">
        <ele>492</ele>
        <time>2020-10-05T10:53:41.000Z</time>
      </trkpt>
      <trkpt lat="44.00181" lon="5.91549">
        <ele>492</ele>
        <time>2020-10-05T10:53:42.000Z</time>
      </trkpt>
      <trkpt lat="44.00181" lon="5.91549">
        <ele>492</ele>
        <time>2020-10-05T10:53:43.000Z</time>
      </trkpt>
      <trkpt lat="44.00181" lon="5.91549">
        <ele>492</ele>
        <time>2020-10-05T10:53:44.000Z</time>
      </trkpt>
      <trkpt lat="44.00181" lon="5.91548">
        <ele>492</ele>
        <time>2020-10-05T10:53:45.000Z</time>
      </trkpt>
      <trkpt lat="44.00181" lon="5.91548">
        <ele>492</ele>
        <time>2020-10-05T10:53:46.000Z</time>
      </trkpt>
      <trkpt lat="44.00181" lon="5.91548">
        <ele>492</ele>
        <time>2020-10-05T10:53:47.000Z</time>
      </trkpt>
      <trkpt lat="44.00181" lon="5.91548">
        <ele>492</ele>
        <time>2020-10-05T10:53:48.000Z</time>
      </trkpt>
      <trkpt lat="44.0018" lon="5.91548">
        <ele>492</ele>
        <time>2020-10-05T10:53:49.000Z</time>
      </trkpt>
      <trkpt lat="44.0018" lon="5.91548">
        <ele>492</ele>
        <time>2020-10-05T10:53:50.000Z</time>
      </trkpt>
      <trkpt lat="44.0018" lon="5.91548">
        <ele>492</ele>
        <time>2020-10-05T10:53:51.000Z</time>
      </trkpt>
      <trkpt lat="44.0018" lon="5.91548">
        <ele>492</ele>
        <time>2020-10-05T10:53:52.000Z</time>
      </trkpt>
      <trkpt lat="44.0018" lon="5.91548">
        <ele>492</ele>
        <time>2020-10-05T10:53:53.000Z</time>
      </trkpt>
      <trkpt lat="44.0018" lon="5.91548">
        <ele>492</ele>
        <time>2020-10-05T10:53:54.000Z</time>
      </trkpt>
      <trkpt lat="44.00179" lon="5.91548">
        <ele>492</ele>
        <time>2020-10-05T10:53:55.000Z</time>
      </trkpt>
      <trkpt lat="44.00179" lon="5.91548">
        <ele>492</ele>
        <time>2020-10-05T10:53:56.000Z</time>
      </trkpt>
      <trkpt lat="44.00178" lon="5.91548">
        <ele>492</ele>
        <time>2020-10-05T10:53:57.000Z</time>
      </trkpt>
      <trkpt lat="44.00178" lon="5.91548">
        <ele>493</ele>
        <time>2020-10-05T10:53:58.000Z</time>
      </trkpt>
      <trkpt lat="44.00178" lon="5.91548">
        <ele>493</ele>
        <time>2020-10-05T10:53:59.000Z</time>
      </trkpt>
      <trkpt lat="44.00177" lon="5.91548">
        <ele>493</ele>
        <time>2020-10-05T10:54:00.000Z</time>
      </trkpt>
      <trkpt lat="44.00177" lon="5.91548">
        <ele>493</ele>
        <time>2020-10-05T10:54:01.000Z</time>
      </trkpt>
      <trkpt lat="44.00176" lon="5.91548">
        <ele>494</ele>
        <time>2020-10-05T10:54:02.000Z</time>
      </trkpt>
      <trkpt lat="44.00176" lon="5.91549">
        <ele>494</ele>
        <time>2020-10-05T10:54:03.000Z</time>
      </trkpt>
      <trkpt lat="44.00175" lon="5.91549">
        <ele>494</ele>
        <time>2020-10-05T10:54:04.000Z</time>
      </trkpt>
      <trkpt lat="44.00175" lon="5.91548">
        <ele>494</ele>
        <time>2020-10-05T10:54:05.000Z</time>
      </trkpt>
      <trkpt lat="44.00174" lon="5.91548">
        <ele>494</ele>
        <time>2020-10-05T10:54:06.000Z</time>
      </trkpt>
      <trkpt lat="44.00174" lon="5.91548">
        <ele>494</ele>
        <time>2020-10-05T10:54:07.000Z</time>
      </trkpt>
      <trkpt lat="44.00173" lon="5.91548">
        <ele>495</ele>
        <time>2020-10-05T10:54:08.000Z</time>
      </trkpt>
      <trkpt lat="44.00173" lon="5.91547">
        <ele>495</ele>
        <time>2020-10-05T10:54:09.000Z</time>
      </trkpt>
      <trkpt lat="44.00173" lon="5.91547">
        <ele>495</ele>
        <time>2020-10-05T10:54:10.000Z</time>
      </trkpt>
      <trkpt lat="44.00172" lon="5.91546">
        <ele>495</ele>
        <time>2020-10-05T10:54:11.000Z</time>
      </trkpt>
      <trkpt lat="44.00172" lon="5.91546">
        <ele>495</ele>
        <time>2020-10-05T10:54:12.000Z</time>
      </trkpt>
      <trkpt lat="44.00172" lon="5.91546">
        <ele>495</ele>
        <time>2020-10-05T10:54:13.000Z</time>
      </trkpt>
      <trkpt lat="44.00172" lon="5.91545">
        <ele>495</ele>
        <time>2020-10-05T10:54:14.000Z</time>
      </trkpt>
      <trkpt lat="44.00171" lon="5.91545">
        <ele>496</ele>
        <time>2020-10-05T10:54:15.000Z</time>
      </trkpt>
      <trkpt lat="44.00171" lon="5.91545">
        <ele>496</ele>
        <time>2020-10-05T10:54:16.000Z</time>
      </trkpt>
      <trkpt lat="44.00171" lon="5.91544">
        <ele>496</ele>
        <time>2020-10-05T10:54:17.000Z</time>
      </trkpt>
      <trkpt lat="44.00171" lon="5.91544">
        <ele>496</ele>
        <time>2020-10-05T10:54:18.000Z</time>
      </trkpt>
      <trkpt lat="44.00172" lon="5.91543">
        <ele>496</ele>
        <time>2020-10-05T10:54:19.000Z</time>
      </trkpt>
      <trkpt lat="44.00172" lon="5.91543">
        <ele>496</ele>
        <time>2020-10-05T10:54:20.000Z</time>
      </trkpt>
      <trkpt lat="44.00171" lon="5.91543">
        <ele>496</ele>
        <time>2020-10-05T10:54:21.000Z</time>
      </trkpt>
      <trkpt lat="44.00171" lon="5.91543">
        <ele>496</ele>
        <time>2020-10-05T10:54:22.000Z</time>
      </trkpt>
      <trkpt lat="44.00171" lon="5.91543">
        <ele>496</ele>
        <time>2020-10-05T10:54:23.000Z</time>
      </trkpt>
      <trkpt lat="44.00171" lon="5.91543">
        <ele>496</ele>
        <time>2020-10-05T10:54:24.000Z</time>
      </trkpt>
      <trkpt lat="44.00171" lon="5.91543">
        <ele>496</ele>
        <time>2020-10-05T10:54:25.000Z</time>
      </trkpt>
      <trkpt lat="44.00171" lon="5.91543">
        <ele>496</ele>
        <time>2020-10-05T10:54:26.000Z</time>
      </trkpt>
      <trkpt lat="44.00171" lon="5.91543">
        <ele>497</ele>
        <time>2020-10-05T10:54:27.000Z</time>
      </trkpt>
      <trkpt lat="44.00171" lon="5.91543">
        <ele>497</ele>
        <time>2020-10-05T10:54:28.000Z</time>
      </trkpt>
      <trkpt lat="44.00171" lon="5.91543">
        <ele>497</ele>
        <time>2020-10-05T10:54:29.000Z</time>
      </trkpt>
      <trkpt lat="44.00171" lon="5.91543">
        <ele>497</ele>
        <time>2020-10-05T10:54:30.000Z</time>
      </trkpt>
      <trkpt lat="44.00171" lon="5.91543">
        <ele>497</ele>
        <time>2020-10-05T10:54:31.000Z</time>
      </trkpt>
      <trkpt lat="44.00171" lon="5.91543">
        <ele>497</ele>
        <time>2020-10-05T10:54:32.000Z</time>
      </trkpt>
      <trkpt lat="44.00171" lon="5.91542">
        <ele>497</ele>
        <time>2020-10-05T10:54:33.000Z</time>
      </trkpt>
      <trkpt lat="44.00171" lon="5.91542">
        <ele>497</ele>
        <time>2020-10-05T10:54:34.000Z</time>
      </trkpt>
      <trkpt lat="44.0017" lon="5.91542">
        <ele>497</ele>
        <time>2020-10-05T10:54:35.000Z</time>
      </trkpt>
      <trkpt lat="44.0017" lon="5.91542">
        <ele>497</ele>
        <time>2020-10-05T10:54:36.000Z</time>
      </trkpt>
      <trkpt lat="44.0017" lon="5.91543">
        <ele>497</ele>
        <time>2020-10-05T10:54:37.000Z</time>
      </trkpt>
      <trkpt lat="44.0017" lon="5.91543">
        <ele>497</ele>
        <time>2020-10-05T10:54:38.000Z</time>
      </trkpt>
      <trkpt lat="44.0017" lon="5.91543">
        <ele>497</ele>
        <time>2020-10-05T10:54:39.000Z</time>
      </trkpt>
      <trkpt lat="44.0017" lon="5.91543">
        <ele>497</ele>
        <time>2020-10-05T10:54:40.000Z</time>
      </trkpt>
      <trkpt lat="44.0017" lon="5.91543">
        <ele>497</ele>
        <time>2020-10-05T10:54:41.000Z</time>
      </trkpt>
      <trkpt lat="44.0017" lon="5.91543">
        <ele>497</ele>
        <time>2020-10-05T10:54:42.000Z</time>
      </trkpt>
      <trkpt lat="44.0017" lon="5.91543">
        <ele>497</ele>
        <time>2020-10-05T10:54:43.000Z</time>
      </trkpt>
      <trkpt lat="44.0017" lon="5.91542">
        <ele>497</ele>
        <time>2020-10-05T10:54:44.000Z</time>
      </trkpt>
      <trkpt lat="44.0017" lon="5.91542">
        <ele>497</ele>
        <time>2020-10-05T10:54:45.000Z</time>
      </trkpt>
      <trkpt lat="44.0017" lon="5.91542">
        <ele>497</ele>
        <time>2020-10-05T10:54:46.000Z</time>
      </trkpt>
      <trkpt lat="44.0017" lon="5.91541">
        <ele>497</ele>
        <time>2020-10-05T10:54:47.000Z</time>
      </trkpt>
      <trkpt lat="44.00169" lon="5.91541">
        <ele>497</ele>
        <time>2020-10-05T10:54:48.000Z</time>
      </trkpt>
      <trkpt lat="44.00169" lon="5.9154">
        <ele>498</ele>
        <time>2020-10-05T10:54:49.000Z</time>
      </trkpt>
      <trkpt lat="44.00169" lon="5.9154">
        <ele>498</ele>
        <time>2020-10-05T10:54:50.000Z</time>
      </trkpt>
      <trkpt lat="44.00169" lon="5.9154">
        <ele>498</ele>
        <time>2020-10-05T10:54:51.000Z</time>
      </trkpt>
      <trkpt lat="44.00169" lon="5.9154">
        <ele>498</ele>
        <time>2020-10-05T10:54:52.000Z</time>
      </trkpt>
      <trkpt lat="44.00169" lon="5.9154">
        <ele>498</ele>
        <time>2020-10-05T10:54:53.000Z</time>
      </trkpt>
      <trkpt lat="44.00169" lon="5.9154">
        <ele>498</ele>
        <time>2020-10-05T10:54:54.000Z</time>
      </trkpt>
      <trkpt lat="44.00169" lon="5.9154">
        <ele>498</ele>
        <time>2020-10-05T10:54:55.000Z</time>
      </trkpt>
      <trkpt lat="44.00169" lon="5.9154">
        <ele>498</ele>
        <time>2020-10-05T10:54:56.000Z</time>
      </trkpt>
      <trkpt lat="44.00169" lon="5.9154">
        <ele>498</ele>
        <time>2020-10-05T10:54:57.000Z</time>
      </trkpt>
      <trkpt lat="44.00169" lon="5.91539">
        <ele>498</ele>
        <time>2020-10-05T10:54:58.000Z</time>
      </trkpt>
      <trkpt lat="44.00169" lon="5.91539">
        <ele>498</ele>
        <time>2020-10-05T10:54:59.000Z</time>
      </trkpt>
      <trkpt lat="44.00169" lon="5.91539">
        <ele>499</ele>
        <time>2020-10-05T10:55:00.000Z</time>
      </trkpt>
      <trkpt lat="44.00169" lon="5.91538">
        <ele>499</ele>
        <time>2020-10-05T10:55:01.000Z</time>
      </trkpt>
      <trkpt lat="44.00169" lon="5.91538">
        <ele>499</ele>
        <time>2020-10-05T10:55:02.000Z</time>
      </trkpt>
      <trkpt lat="44.00169" lon="5.91537">
        <ele>499</ele>
        <time>2020-10-05T10:55:03.000Z</time>
      </trkpt>
      <trkpt lat="44.00169" lon="5.91536">
        <ele>499</ele>
        <time>2020-10-05T10:55:04.000Z</time>
      </trkpt>
      <trkpt lat="44.0017" lon="5.91536">
        <ele>499</ele>
        <time>2020-10-05T10:55:05.000Z</time>
      </trkpt>
      <trkpt lat="44.0017" lon="5.91536">
        <ele>499</ele>
        <time>2020-10-05T10:55:06.000Z</time>
      </trkpt>
      <trkpt lat="44.0017" lon="5.91535">
        <ele>500</ele>
        <time>2020-10-05T10:55:07.000Z</time>
      </trkpt>
      <trkpt lat="44.0017" lon="5.91534">
        <ele>500</ele>
        <time>2020-10-05T10:55:08.000Z</time>
      </trkpt>
      <trkpt lat="44.0017" lon="5.91533">
        <ele>500</ele>
        <time>2020-10-05T10:55:09.000Z</time>
      </trkpt>
      <trkpt lat="44.0017" lon="5.91533">
        <ele>500</ele>
        <time>2020-10-05T10:55:10.000Z</time>
      </trkpt>
      <trkpt lat="44.00169" lon="5.91532">
        <ele>500</ele>
        <time>2020-10-05T10:55:11.000Z</time>
      </trkpt>
      <trkpt lat="44.00169" lon="5.91531">
        <ele>500</ele>
        <time>2020-10-05T10:55:12.000Z</time>
      </trkpt>
      <trkpt lat="44.00169" lon="5.91531">
        <ele>500</ele>
        <time>2020-10-05T10:55:13.000Z</time>
      </trkpt>
      <trkpt lat="44.00169" lon="5.9153">
        <ele>500</ele>
        <time>2020-10-05T10:55:14.000Z</time>
      </trkpt>
      <trkpt lat="44.00168" lon="5.9153">
        <ele>500</ele>
        <time>2020-10-05T10:55:15.000Z</time>
      </trkpt>
      <trkpt lat="44.00168" lon="5.91529">
        <ele>500</ele>
        <time>2020-10-05T10:55:16.000Z</time>
      </trkpt>
      <trkpt lat="44.00168" lon="5.91528">
        <ele>500</ele>
        <time>2020-10-05T10:55:17.000Z</time>
      </trkpt>
      <trkpt lat="44.00168" lon="5.91528">
        <ele>500</ele>
        <time>2020-10-05T10:55:18.000Z</time>
      </trkpt>
      <trkpt lat="44.00167" lon="5.91528">
        <ele>501</ele>
        <time>2020-10-05T10:55:19.000Z</time>
      </trkpt>
      <trkpt lat="44.00167" lon="5.91527">
        <ele>501</ele>
        <time>2020-10-05T10:55:20.000Z</time>
      </trkpt>
      <trkpt lat="44.00167" lon="5.91527">
        <ele>501</ele>
        <time>2020-10-05T10:55:21.000Z</time>
      </trkpt>
      <trkpt lat="44.00167" lon="5.91527">
        <ele>501</ele>
        <time>2020-10-05T10:55:22.000Z</time>
      </trkpt>
      <trkpt lat="44.00167" lon="5.91527">
        <ele>501</ele>
        <time>2020-10-05T10:55:23.000Z</time>
      </trkpt>
      <trkpt lat="44.00167" lon="5.91527">
        <ele>501</ele>
        <time>2020-10-05T10:55:24.000Z</time>
      </trkpt>
      <trkpt lat="44.00167" lon="5.91526">
        <ele>501</ele>
        <time>2020-10-05T10:55:25.000Z</time>
      </trkpt>
      <trkpt lat="44.00167" lon="5.91526">
        <ele>501</ele>
        <time>2020-10-05T10:55:26.000Z</time>
      </trkpt>
      <trkpt lat="44.00167" lon="5.91526">
        <ele>501</ele>
        <time>2020-10-05T10:55:27.000Z</time>
      </trkpt>
      <trkpt lat="44.00167" lon="5.91526">
        <ele>501</ele>
        <time>2020-10-05T10:55:28.000Z</time>
      </trkpt>
      <trkpt lat="44.00166" lon="5.91526">
        <ele>501</ele>
        <time>2020-10-05T10:55:29.000Z</time>
      </trkpt>
      <trkpt lat="44.00166" lon="5.91526">
        <ele>501</ele>
        <time>2020-10-05T10:55:30.000Z</time>
      </trkpt>
      <trkpt lat="44.00166" lon="5.91526">
        <ele>501</ele>
        <time>2020-10-05T10:55:31.000Z</time>
      </trkpt>
      <trkpt lat="44.00166" lon="5.91526">
        <ele>501</ele>
        <time>2020-10-05T10:55:32.000Z</time>
      </trkpt>
      <trkpt lat="44.00166" lon="5.91526">
        <ele>501</ele>
        <time>2020-10-05T10:55:33.000Z</time>
      </trkpt>
      <trkpt lat="44.00166" lon="5.91525">
        <ele>501</ele>
        <time>2020-10-05T10:55:34.000Z</time>
      </trkpt>
      <trkpt lat="44.00166" lon="5.91525">
        <ele>501</ele>
        <time>2020-10-05T10:55:35.000Z</time>
      </trkpt>
      <trkpt lat="44.00166" lon="5.91525">
        <ele>501</ele>
        <time>2020-10-05T10:55:36.000Z</time>
      </trkpt>
      <trkpt lat="44.00166" lon="5.91525">
        <ele>501</ele>
        <time>2020-10-05T10:55:37.000Z</time>
      </trkpt>
      <trkpt lat="44.00166" lon="5.91525">
        <ele>501</ele>
        <time>2020-10-05T10:55:38.000Z</time>
      </trkpt>
      <trkpt lat="44.00166" lon="5.91525">
        <ele>501</ele>
        <time>2020-10-05T10:55:39.000Z</time>
      </trkpt>
      <trkpt lat="44.00166" lon="5.91524">
        <ele>501</ele>
        <time>2020-10-05T10:55:40.000Z</time>
      </trkpt>
      <trkpt lat="44.00166" lon="5.91524">
        <ele>501</ele>
        <time>2020-10-05T10:55:41.000Z</time>
      </trkpt>
      <trkpt lat="44.00166" lon="5.91524">
        <ele>501</ele>
        <time>2020-10-05T10:55:42.000Z</time>
      </trkpt>
      <trkpt lat="44.00166" lon="5.91524">
        <ele>502</ele>
        <time>2020-10-05T10:55:43.000Z</time>
      </trkpt>
      <trkpt lat="44.00165" lon="5.91524">
        <ele>502</ele>
        <time>2020-10-05T10:55:44.000Z</time>
      </trkpt>
      <trkpt lat="44.00165" lon="5.91524">
        <ele>502</ele>
        <time>2020-10-05T10:55:45.000Z</time>
      </trkpt>
      <trkpt lat="44.00165" lon="5.91524">
        <ele>502</ele>
        <time>2020-10-05T10:55:46.000Z</time>
      </trkpt>
      <trkpt lat="44.00165" lon="5.91524">
        <ele>502</ele>
        <time>2020-10-05T10:55:47.000Z</time>
      </trkpt>
      <trkpt lat="44.00165" lon="5.91524">
        <ele>502</ele>
        <time>2020-10-05T10:55:48.000Z</time>
      </trkpt>
      <trkpt lat="44.00164" lon="5.91523">
        <ele>502</ele>
        <time>2020-10-05T10:55:49.000Z</time>
      </trkpt>
      <trkpt lat="44.00164" lon="5.91524">
        <ele>502</ele>
        <time>2020-10-05T10:55:50.000Z</time>
      </trkpt>
      <trkpt lat="44.00164" lon="5.91524">
        <ele>502</ele>
        <time>2020-10-05T10:55:51.000Z</time>
      </trkpt>
      <trkpt lat="44.00164" lon="5.91523">
        <ele>503</ele>
        <time>2020-10-05T10:55:52.000Z</time>
      </trkpt>
      <trkpt lat="44.00164" lon="5.91523">
        <ele>503</ele>
        <time>2020-10-05T10:55:53.000Z</time>
      </trkpt>
      <trkpt lat="44.00164" lon="5.91524">
        <ele>503</ele>
        <time>2020-10-05T10:55:54.000Z</time>
      </trkpt>
      <trkpt lat="44.00164" lon="5.91524">
        <ele>503</ele>
        <time>2020-10-05T10:55:55.000Z</time>
      </trkpt>
      <trkpt lat="44.00163" lon="5.91524">
        <ele>503</ele>
        <time>2020-10-05T10:55:56.000Z</time>
      </trkpt>
      <trkpt lat="44.00163" lon="5.91524">
        <ele>503</ele>
        <time>2020-10-05T10:55:57.000Z</time>
      </trkpt>
      <trkpt lat="44.00163" lon="5.91525">
        <ele>504</ele>
        <time>2020-10-05T10:55:58.000Z</time>
      </trkpt>
      <trkpt lat="44.00162" lon="5.91525">
        <ele>504</ele>
        <time>2020-10-05T10:55:59.000Z</time>
      </trkpt>
      <trkpt lat="44.00162" lon="5.91526">
        <ele>504</ele>
        <time>2020-10-05T10:56:00.000Z</time>
      </trkpt>
      <trkpt lat="44.00161" lon="5.91526">
        <ele>504</ele>
        <time>2020-10-05T10:56:01.000Z</time>
      </trkpt>
      <trkpt lat="44.00161" lon="5.91527">
        <ele>504</ele>
        <time>2020-10-05T10:56:02.000Z</time>
      </trkpt>
      <trkpt lat="44.00161" lon="5.91527">
        <ele>505</ele>
        <time>2020-10-05T10:56:03.000Z</time>
      </trkpt>
      <trkpt lat="44.00161" lon="5.91527">
        <ele>505</ele>
        <time>2020-10-05T10:56:04.000Z</time>
      </trkpt>
      <trkpt lat="44.00161" lon="5.91527">
        <ele>505</ele>
        <time>2020-10-05T10:56:05.000Z</time>
      </trkpt>
      <trkpt lat="44.00161" lon="5.91527">
        <ele>505</ele>
        <time>2020-10-05T10:56:06.000Z</time>
      </trkpt>
      <trkpt lat="44.0016" lon="5.91528">
        <ele>505</ele>
        <time>2020-10-05T10:56:07.000Z</time>
      </trkpt>
      <trkpt lat="44.0016" lon="5.91528">
        <ele>505</ele>
        <time>2020-10-05T10:56:08.000Z</time>
      </trkpt>
      <trkpt lat="44.00159" lon="5.91529">
        <ele>506</ele>
        <time>2020-10-05T10:56:09.000Z</time>
      </trkpt>
      <trkpt lat="44.00159" lon="5.91529">
        <ele>506</ele>
        <time>2020-10-05T10:56:10.000Z</time>
      </trkpt>
      <trkpt lat="44.00159" lon="5.91529">
        <ele>506</ele>
        <time>2020-10-05T10:56:11.000Z</time>
      </trkpt>
      <trkpt lat="44.00158" lon="5.9153">
        <ele>506</ele>
        <time>2020-10-05T10:56:12.000Z</time>
      </trkpt>
      <trkpt lat="44.00158" lon="5.9153">
        <ele>506</ele>
        <time>2020-10-05T10:56:13.000Z</time>
      </trkpt>
      <trkpt lat="44.00157" lon="5.9153">
        <ele>507</ele>
        <time>2020-10-05T10:56:14.000Z</time>
      </trkpt>
      <trkpt lat="44.00157" lon="5.9153">
        <ele>507</ele>
        <time>2020-10-05T10:56:15.000Z</time>
      </trkpt>
      <trkpt lat="44.00157" lon="5.9153">
        <ele>507</ele>
        <time>2020-10-05T10:56:16.000Z</time>
      </trkpt>
      <trkpt lat="44.00157" lon="5.9153">
        <ele>507</ele>
        <time>2020-10-05T10:56:17.000Z</time>
      </trkpt>
      <trkpt lat="44.00157" lon="5.9153">
        <ele>507</ele>
        <time>2020-10-05T10:56:18.000Z</time>
      </trkpt>
      <trkpt lat="44.00157" lon="5.9153">
        <ele>507</ele>
        <time>2020-10-05T10:56:19.000Z</time>
      </trkpt>
      <trkpt lat="44.00157" lon="5.9153">
        <ele>507</ele>
        <time>2020-10-05T10:56:20.000Z</time>
      </trkpt>
      <trkpt lat="44.00157" lon="5.9153">
        <ele>507</ele>
        <time>2020-10-05T10:56:21.000Z</time>
      </trkpt>
      <trkpt lat="44.00157" lon="5.9153">
        <ele>507</ele>
        <time>2020-10-05T10:56:22.000Z</time>
      </trkpt>
      <trkpt lat="44.00157" lon="5.91531">
        <ele>507</ele>
        <time>2020-10-05T10:56:23.000Z</time>
      </trkpt>
      <trkpt lat="44.00156" lon="5.9153">
        <ele>507</ele>
        <time>2020-10-05T10:56:24.000Z</time>
      </trkpt>
      <trkpt lat="44.00156" lon="5.9153">
        <ele>508</ele>
        <time>2020-10-05T10:56:25.000Z</time>
      </trkpt>
      <trkpt lat="44.00155" lon="5.9153">
        <ele>508</ele>
        <time>2020-10-05T10:56:26.000Z</time>
      </trkpt>
      <trkpt lat="44.00155" lon="5.9153">
        <ele>508</ele>
        <time>2020-10-05T10:56:27.000Z</time>
      </trkpt>
      <trkpt lat="44.00155" lon="5.9153">
        <ele>508</ele>
        <time>2020-10-05T10:56:28.000Z</time>
      </trkpt>
      <trkpt lat="44.00154" lon="5.9153">
        <ele>508</ele>
        <time>2020-10-05T10:56:29.000Z</time>
      </trkpt>
      <trkpt lat="44.00154" lon="5.9153">
        <ele>508</ele>
        <time>2020-10-05T10:56:30.000Z</time>
      </trkpt>
      <trkpt lat="44.00154" lon="5.9153">
        <ele>508</ele>
        <time>2020-10-05T10:56:31.000Z</time>
      </trkpt>
      <trkpt lat="44.00154" lon="5.9153">
        <ele>509</ele>
        <time>2020-10-05T10:56:32.000Z</time>
      </trkpt>
      <trkpt lat="44.00154" lon="5.9153">
        <ele>509</ele>
        <time>2020-10-05T10:56:33.000Z</time>
      </trkpt>
      <trkpt lat="44.00153" lon="5.9153">
        <ele>509</ele>
        <time>2020-10-05T10:56:34.000Z</time>
      </trkpt>
      <trkpt lat="44.00153" lon="5.9153">
        <ele>509</ele>
        <time>2020-10-05T10:56:35.000Z</time>
      </trkpt>
      <trkpt lat="44.00152" lon="5.9153">
        <ele>509</ele>
        <time>2020-10-05T10:56:36.000Z</time>
      </trkpt>
      <trkpt lat="44.00152" lon="5.9153">
        <ele>509</ele>
        <time>2020-10-05T10:56:37.000Z</time>
      </trkpt>
      <trkpt lat="44.00152" lon="5.9153">
        <ele>509</ele>
        <time>2020-10-05T10:56:38.000Z</time>
      </trkpt>
      <trkpt lat="44.00152" lon="5.9153">
        <ele>509</ele>
        <time>2020-10-05T10:56:39.000Z</time>
      </trkpt>
      <trkpt lat="44.00152" lon="5.9153">
        <ele>510</ele>
        <time>2020-10-05T10:56:40.000Z</time>
      </trkpt>
      <trkpt lat="44.00152" lon="5.9153">
        <ele>510</ele>
        <time>2020-10-05T10:56:41.000Z</time>
      </trkpt>
      <trkpt lat="44.00152" lon="5.9153">
        <ele>510</ele>
        <time>2020-10-05T10:56:42.000Z</time>
      </trkpt>
      <trkpt lat="44.00152" lon="5.9153">
        <ele>510</ele>
        <time>2020-10-05T10:56:43.000Z</time>
      </trkpt>
      <trkpt lat="44.00151" lon="5.9153">
        <ele>510</ele>
        <time>2020-10-05T10:56:44.000Z</time>
      </trkpt>
      <trkpt lat="44.00151" lon="5.9153">
        <ele>510</ele>
        <time>2020-10-05T10:56:45.000Z</time>
      </trkpt>
      <trkpt lat="44.00151" lon="5.9153">
        <ele>510</ele>
        <time>2020-10-05T10:56:46.000Z</time>
      </trkpt>
      <trkpt lat="44.00151" lon="5.9153">
        <ele>510</ele>
        <time>2020-10-05T10:56:47.000Z</time>
      </trkpt>
      <trkpt lat="44.00151" lon="5.91529">
        <ele>510</ele>
        <time>2020-10-05T10:56:48.000Z</time>
      </trkpt>
      <trkpt lat="44.0015" lon="5.91529">
        <ele>510</ele>
        <time>2020-10-05T10:56:49.000Z</time>
      </trkpt>
      <trkpt lat="44.00151" lon="5.91528">
        <ele>510</ele>
        <time>2020-10-05T10:56:50.000Z</time>
      </trkpt>
      <trkpt lat="44.0015" lon="5.91528">
        <ele>511</ele>
        <time>2020-10-05T10:56:51.000Z</time>
      </trkpt>
      <trkpt lat="44.0015" lon="5.91529">
        <ele>511</ele>
        <time>2020-10-05T10:56:52.000Z</time>
      </trkpt>
      <trkpt lat="44.0015" lon="5.91529">
        <ele>511</ele>
        <time>2020-10-05T10:56:53.000Z</time>
      </trkpt>
      <trkpt lat="44.0015" lon="5.91528">
        <ele>511</ele>
        <time>2020-10-05T10:56:54.000Z</time>
      </trkpt>
      <trkpt lat="44.00151" lon="5.91528">
        <ele>511</ele>
        <time>2020-10-05T10:56:55.000Z</time>
      </trkpt>
      <trkpt lat="44.00151" lon="5.91528">
        <ele>511</ele>
        <time>2020-10-05T10:56:56.000Z</time>
      </trkpt>
      <trkpt lat="44.00151" lon="5.91528">
        <ele>511</ele>
        <time>2020-10-05T10:56:57.000Z</time>
      </trkpt>
      <trkpt lat="44.00151" lon="5.91528">
        <ele>511</ele>
        <time>2020-10-05T10:56:58.000Z</time>
      </trkpt>
      <trkpt lat="44.00151" lon="5.91528">
        <ele>511</ele>
        <time>2020-10-05T10:56:59.000Z</time>
      </trkpt>
      <trkpt lat="44.00151" lon="5.91528">
        <ele>511</ele>
        <time>2020-10-05T10:57:00.000Z</time>
      </trkpt>
      <trkpt lat="44.00151" lon="5.91528">
        <ele>511</ele>
        <time>2020-10-05T10:57:01.000Z</time>
      </trkpt>
      <trkpt lat="44.00151" lon="5.91528">
        <ele>511</ele>
        <time>2020-10-05T10:57:02.000Z</time>
      </trkpt>
      <trkpt lat="44.00151" lon="5.91528">
        <ele>511</ele>
        <time>2020-10-05T10:57:03.000Z</time>
      </trkpt>
      <trkpt lat="44.00151" lon="5.91528">
        <ele>511</ele>
        <time>2020-10-05T10:57:04.000Z</time>
      </trkpt>
      <trkpt lat="44.00151" lon="5.91528">
        <ele>511</ele>
        <time>2020-10-05T10:57:05.000Z</time>
      </trkpt>
      <trkpt lat="44.00151" lon="5.91528">
        <ele>511</ele>
        <time>2020-10-05T10:57:06.000Z</time>
      </trkpt>
      <trkpt lat="44.00151" lon="5.91528">
        <ele>511</ele>
        <time>2020-10-05T10:57:07.000Z</time>
      </trkpt>
      <trkpt lat="44.00151" lon="5.91528">
        <ele>511</ele>
        <time>2020-10-05T10:57:08.000Z</time>
      </trkpt>
      <trkpt lat="44.00151" lon="5.91528">
        <ele>511</ele>
        <time>2020-10-05T10:57:09.000Z</time>
      </trkpt>
      <trkpt lat="44.00151" lon="5.91527">
        <ele>511</ele>
        <time>2020-10-05T10:57:10.000Z</time>
      </trkpt>
      <trkpt lat="44.00151" lon="5.91527">
        <ele>512</ele>
        <time>2020-10-05T10:57:11.000Z</time>
      </trkpt>
      <trkpt lat="44.00151" lon="5.91527">
        <ele>512</ele>
        <time>2020-10-05T10:57:12.000Z</time>
      </trkpt>
      <trkpt lat="44.00151" lon="5.91527">
        <ele>512</ele>
        <time>2020-10-05T10:57:13.000Z</time>
      </trkpt>
      <trkpt lat="44.00151" lon="5.91527">
        <ele>512</ele>
        <time>2020-10-05T10:57:14.000Z</time>
      </trkpt>
      <trkpt lat="44.00151" lon="5.91527">
        <ele>512</ele>
        <time>2020-10-05T10:57:15.000Z</time>
      </trkpt>
      <trkpt lat="44.00151" lon="5.91527">
        <ele>512</ele>
        <time>2020-10-05T10:57:16.000Z</time>
      </trkpt>
      <trkpt lat="44.00151" lon="5.91526">
        <ele>512</ele>
        <time>2020-10-05T10:57:17.000Z</time>
      </trkpt>
      <trkpt lat="44.00151" lon="5.91526">
        <ele>512</ele>
        <time>2020-10-05T10:57:18.000Z</time>
      </trkpt>
      <trkpt lat="44.00151" lon="5.91525">
        <ele>512</ele>
        <time>2020-10-05T10:57:19.000Z</time>
      </trkpt>
      <trkpt lat="44.00151" lon="5.91525">
        <ele>512</ele>
        <time>2020-10-05T10:57:20.000Z</time>
      </trkpt>
      <trkpt lat="44.00151" lon="5.91525">
        <ele>512</ele>
        <time>2020-10-05T10:57:21.000Z</time>
      </trkpt>
      <trkpt lat="44.00151" lon="5.91525">
        <ele>512</ele>
        <time>2020-10-05T10:57:22.000Z</time>
      </trkpt>
      <trkpt lat="44.00151" lon="5.91524">
        <ele>513</ele>
        <time>2020-10-05T10:57:23.000Z</time>
      </trkpt>
      <trkpt lat="44.00151" lon="5.91525">
        <ele>513</ele>
        <time>2020-10-05T10:57:24.000Z</time>
      </trkpt>
      <trkpt lat="44.00151" lon="5.91525">
        <ele>513</ele>
        <time>2020-10-05T10:57:25.000Z</time>
      </trkpt>
      <trkpt lat="44.00151" lon="5.91524">
        <ele>513</ele>
        <time>2020-10-05T10:57:26.000Z</time>
      </trkpt>
      <trkpt lat="44.00151" lon="5.91524">
        <ele>513</ele>
        <time>2020-10-05T10:57:27.000Z</time>
      </trkpt>
      <trkpt lat="44.0015" lon="5.91523">
        <ele>513</ele>
        <time>2020-10-05T10:57:28.000Z</time>
      </trkpt>
      <trkpt lat="44.0015" lon="5.91523">
        <ele>513</ele>
        <time>2020-10-05T10:57:29.000Z</time>
      </trkpt>
      <trkpt lat="44.0015" lon="5.91523">
        <ele>514</ele>
        <time>2020-10-05T10:57:30.000Z</time>
      </trkpt>
      <trkpt lat="44.0015" lon="5.91523">
        <ele>514</ele>
        <time>2020-10-05T10:57:31.000Z</time>
      </trkpt>
      <trkpt lat="44.0015" lon="5.91523">
        <ele>514</ele>
        <time>2020-10-05T10:57:32.000Z</time>
      </trkpt>
      <trkpt lat="44.0015" lon="5.91523">
        <ele>514</ele>
        <time>2020-10-05T10:57:33.000Z</time>
      </trkpt>
      <trkpt lat="44.0015" lon="5.91522">
        <ele>514</ele>
        <time>2020-10-05T10:57:34.000Z</time>
      </trkpt>
      <trkpt lat="44.0015" lon="5.91522">
        <ele>514</ele>
        <time>2020-10-05T10:57:35.000Z</time>
      </trkpt>
      <trkpt lat="44.00149" lon="5.91522">
        <ele>514</ele>
        <time>2020-10-05T10:57:36.000Z</time>
      </trkpt>
      <trkpt lat="44.00149" lon="5.91521">
        <ele>514</ele>
        <time>2020-10-05T10:57:37.000Z</time>
      </trkpt>
      <trkpt lat="44.00149" lon="5.91521">
        <ele>514</ele>
        <time>2020-10-05T10:57:38.000Z</time>
      </trkpt>
      <trkpt lat="44.00149" lon="5.91521">
        <ele>515</ele>
        <time>2020-10-05T10:57:39.000Z</time>
      </trkpt>
      <trkpt lat="44.00149" lon="5.91521">
        <ele>515</ele>
        <time>2020-10-05T10:57:40.000Z</time>
      </trkpt>
      <trkpt lat="44.00149" lon="5.91521">
        <ele>515</ele>
        <time>2020-10-05T10:57:41.000Z</time>
      </trkpt>
      <trkpt lat="44.00149" lon="5.91521">
        <ele>515</ele>
        <time>2020-10-05T10:57:42.000Z</time>
      </trkpt>
      <trkpt lat="44.00149" lon="5.91521">
        <ele>515</ele>
        <time>2020-10-05T10:57:43.000Z</time>
      </trkpt>
      <trkpt lat="44.00149" lon="5.91521">
        <ele>515</ele>
        <time>2020-10-05T10:57:44.000Z</time>
      </trkpt>
      <trkpt lat="44.00149" lon="5.91521">
        <ele>515</ele>
        <time>2020-10-05T10:57:45.000Z</time>
      </trkpt>
      <trkpt lat="44.00149" lon="5.91521">
        <ele>515</ele>
        <time>2020-10-05T10:57:46.000Z</time>
      </trkpt>
      <trkpt lat="44.00149" lon="5.91521">
        <ele>515</ele>
        <time>2020-10-05T10:57:47.000Z</time>
      </trkpt>
      <trkpt lat="44.00149" lon="5.91521">
        <ele>515</ele>
        <time>2020-10-05T10:57:48.000Z</time>
      </trkpt>
      <trkpt lat="44.00149" lon="5.91521">
        <ele>515</ele>
        <time>2020-10-05T10:57:49.000Z</time>
      </trkpt>
      <trkpt lat="44.00149" lon="5.91521">
        <ele>515</ele>
        <time>2020-10-05T10:57:50.000Z</time>
      </trkpt>
      <trkpt lat="44.00149" lon="5.9152">
        <ele>516</ele>
        <time>2020-10-05T10:57:51.000Z</time>
      </trkpt>
      <trkpt lat="44.00149" lon="5.9152">
        <ele>516</ele>
        <time>2020-10-05T10:57:52.000Z</time>
      </trkpt>
      <trkpt lat="44.00149" lon="5.9152">
        <ele>516</ele>
        <time>2020-10-05T10:57:53.000Z</time>
      </trkpt>
      <trkpt lat="44.00149" lon="5.9152">
        <ele>516</ele>
        <time>2020-10-05T10:57:54.000Z</time>
      </trkpt>
      <trkpt lat="44.00149" lon="5.9152">
        <ele>516</ele>
        <time>2020-10-05T10:57:55.000Z</time>
      </trkpt>
      <trkpt lat="44.00149" lon="5.9152">
        <ele>516</ele>
        <time>2020-10-05T10:57:56.000Z</time>
      </trkpt>
      <trkpt lat="44.00149" lon="5.9152">
        <ele>516</ele>
        <time>2020-10-05T10:57:57.000Z</time>
      </trkpt>
      <trkpt lat="44.00149" lon="5.9152">
        <ele>516</ele>
        <time>2020-10-05T10:57:58.000Z</time>
      </trkpt>
      <trkpt lat="44.00149" lon="5.9152">
        <ele>516</ele>
        <time>2020-10-05T10:57:59.000Z</time>
      </trkpt>
      <trkpt lat="44.00149" lon="5.9152">
        <ele>516</ele>
        <time>2020-10-05T10:58:00.000Z</time>
      </trkpt>
      <trkpt lat="44.00149" lon="5.9152">
        <ele>516</ele>
        <time>2020-10-05T10:58:01.000Z</time>
      </trkpt>
      <trkpt lat="44.00149" lon="5.9152">
        <ele>516</ele>
        <time>2020-10-05T10:58:02.000Z</time>
      </trkpt>
      <trkpt lat="44.00149" lon="5.9152">
        <ele>516</ele>
        <time>2020-10-05T10:58:03.000Z</time>
      </trkpt>
      <trkpt lat="44.00149" lon="5.9152">
        <ele>517</ele>
        <time>2020-10-05T10:58:04.000Z</time>
      </trkpt>
      <trkpt lat="44.00149" lon="5.9152">
        <ele>517</ele>
        <time>2020-10-05T10:58:05.000Z</time>
      </trkpt>
      <trkpt lat="44.00149" lon="5.9152">
        <ele>517</ele>
        <time>2020-10-05T10:58:06.000Z</time>
      </trkpt>
      <trkpt lat="44.00149" lon="5.91521">
        <ele>517</ele>
        <time>2020-10-05T10:58:07.000Z</time>
      </trkpt>
      <trkpt lat="44.00149" lon="5.91521">
        <ele>517</ele>
        <time>2020-10-05T10:58:08.000Z</time>
      </trkpt>
      <trkpt lat="44.00149" lon="5.91521">
        <ele>517</ele>
        <time>2020-10-05T10:58:09.000Z</time>
      </trkpt>
      <trkpt lat="44.00148" lon="5.9152">
        <ele>517</ele>
        <time>2020-10-05T10:58:10.000Z</time>
      </trkpt>
      <trkpt lat="44.00148" lon="5.9152">
        <ele>517</ele>
        <time>2020-10-05T10:58:11.000Z</time>
      </trkpt>
      <trkpt lat="44.00148" lon="5.9152">
        <ele>517</ele>
        <time>2020-10-05T10:58:12.000Z</time>
      </trkpt>
      <trkpt lat="44.00148" lon="5.9152">
        <ele>518</ele>
        <time>2020-10-05T10:58:13.000Z</time>
      </trkpt>
      <trkpt lat="44.00147" lon="5.9152">
        <ele>518</ele>
        <time>2020-10-05T10:58:14.000Z</time>
      </trkpt>
      <trkpt lat="44.00147" lon="5.9152">
        <ele>518</ele>
        <time>2020-10-05T10:58:15.000Z</time>
      </trkpt>
      <trkpt lat="44.00146" lon="5.9152">
        <ele>518</ele>
        <time>2020-10-05T10:58:16.000Z</time>
      </trkpt>
      <trkpt lat="44.00146" lon="5.9152">
        <ele>518</ele>
        <time>2020-10-05T10:58:17.000Z</time>
      </trkpt>
      <trkpt lat="44.00146" lon="5.9152">
        <ele>518</ele>
        <time>2020-10-05T10:58:18.000Z</time>
      </trkpt>
      <trkpt lat="44.00146" lon="5.9152">
        <ele>518</ele>
        <time>2020-10-05T10:58:19.000Z</time>
      </trkpt>
      <trkpt lat="44.00146" lon="5.9152">
        <ele>518</ele>
        <time>2020-10-05T10:58:20.000Z</time>
      </trkpt>
      <trkpt lat="44.00145" lon="5.9152">
        <ele>518</ele>
        <time>2020-10-05T10:58:21.000Z</time>
      </trkpt>
      <trkpt lat="44.00145" lon="5.9152">
        <ele>518</ele>
        <time>2020-10-05T10:58:22.000Z</time>
      </trkpt>
      <trkpt lat="44.00145" lon="5.9152">
        <ele>518</ele>
        <time>2020-10-05T10:58:23.000Z</time>
      </trkpt>
      <trkpt lat="44.00144" lon="5.9152">
        <ele>519</ele>
        <time>2020-10-05T10:58:24.000Z</time>
      </trkpt>
      <trkpt lat="44.00144" lon="5.9152">
        <ele>519</ele>
        <time>2020-10-05T10:58:25.000Z</time>
      </trkpt>
      <trkpt lat="44.00144" lon="5.9152">
        <ele>519</ele>
        <time>2020-10-05T10:58:26.000Z</time>
      </trkpt>
      <trkpt lat="44.00144" lon="5.9152">
        <ele>519</ele>
        <time>2020-10-05T10:58:27.000Z</time>
      </trkpt>
      <trkpt lat="44.00144" lon="5.9152">
        <ele>519</ele>
        <time>2020-10-05T10:58:28.000Z</time>
      </trkpt>
      <trkpt lat="44.00144" lon="5.9152">
        <ele>519</ele>
        <time>2020-10-05T10:58:29.000Z</time>
      </trkpt>
      <trkpt lat="44.00144" lon="5.91519">
        <ele>519</ele>
        <time>2020-10-05T10:58:30.000Z</time>
      </trkpt>
      <trkpt lat="44.00144" lon="5.91519">
        <ele>519</ele>
        <time>2020-10-05T10:58:31.000Z</time>
      </trkpt>
      <trkpt lat="44.00144" lon="5.91519">
        <ele>519</ele>
        <time>2020-10-05T10:58:32.000Z</time>
      </trkpt>
      <trkpt lat="44.00144" lon="5.91519">
        <ele>519</ele>
        <time>2020-10-05T10:58:33.000Z</time>
      </trkpt>
      <trkpt lat="44.00144" lon="5.91519">
        <ele>519</ele>
        <time>2020-10-05T10:58:34.000Z</time>
      </trkpt>
      <trkpt lat="44.00144" lon="5.91519">
        <ele>519</ele>
        <time>2020-10-05T10:58:35.000Z</time>
      </trkpt>
      <trkpt lat="44.00144" lon="5.91519">
        <ele>519</ele>
        <time>2020-10-05T10:58:36.000Z</time>
      </trkpt>
      <trkpt lat="44.00143" lon="5.91519">
        <ele>519</ele>
        <time>2020-10-05T10:58:37.000Z</time>
      </trkpt>
      <trkpt lat="44.00143" lon="5.91518">
        <ele>519</ele>
        <time>2020-10-05T10:58:38.000Z</time>
      </trkpt>
      <trkpt lat="44.00143" lon="5.91518">
        <ele>519</ele>
        <time>2020-10-05T10:58:39.000Z</time>
      </trkpt>
      <trkpt lat="44.00143" lon="5.91518">
        <ele>519</ele>
        <time>2020-10-05T10:58:40.000Z</time>
      </trkpt>
      <trkpt lat="44.00142" lon="5.91517">
        <ele>520</ele>
        <time>2020-10-05T10:58:41.000Z</time>
      </trkpt>
      <trkpt lat="44.00142" lon="5.91516">
        <ele>520</ele>
        <time>2020-10-05T10:58:42.000Z</time>
      </trkpt>
      <trkpt lat="44.00142" lon="5.91516">
        <ele>520</ele>
        <time>2020-10-05T10:58:43.000Z</time>
      </trkpt>
      <trkpt lat="44.00142" lon="5.91516">
        <ele>520</ele>
        <time>2020-10-05T10:58:44.000Z</time>
      </trkpt>
      <trkpt lat="44.00141" lon="5.91516">
        <ele>520</ele>
        <time>2020-10-05T10:58:45.000Z</time>
      </trkpt>
      <trkpt lat="44.00141" lon="5.91515">
        <ele>520</ele>
        <time>2020-10-05T10:58:46.000Z</time>
      </trkpt>
      <trkpt lat="44.00141" lon="5.91515">
        <ele>520</ele>
        <time>2020-10-05T10:58:47.000Z</time>
      </trkpt>
      <trkpt lat="44.00141" lon="5.91515">
        <ele>520</ele>
        <time>2020-10-05T10:58:48.000Z</time>
      </trkpt>
      <trkpt lat="44.0014" lon="5.91515">
        <ele>521</ele>
        <time>2020-10-05T10:58:49.000Z</time>
      </trkpt>
      <trkpt lat="44.0014" lon="5.91515">
        <ele>521</ele>
        <time>2020-10-05T10:58:50.000Z</time>
      </trkpt>
      <trkpt lat="44.0014" lon="5.91515">
        <ele>521</ele>
        <time>2020-10-05T10:58:51.000Z</time>
      </trkpt>
      <trkpt lat="44.00139" lon="5.91514">
        <ele>521</ele>
        <time>2020-10-05T10:58:52.000Z</time>
      </trkpt>
      <trkpt lat="44.00139" lon="5.91514">
        <ele>521</ele>
        <time>2020-10-05T10:58:53.000Z</time>
      </trkpt>
      <trkpt lat="44.00139" lon="5.91514">
        <ele>521</ele>
        <time>2020-10-05T10:58:54.000Z</time>
      </trkpt>
      <trkpt lat="44.00139" lon="5.91514">
        <ele>521</ele>
        <time>2020-10-05T10:58:55.000Z</time>
      </trkpt>
      <trkpt lat="44.00139" lon="5.91514">
        <ele>521</ele>
        <time>2020-10-05T10:58:56.000Z</time>
      </trkpt>
      <trkpt lat="44.00139" lon="5.91514">
        <ele>521</ele>
        <time>2020-10-05T10:58:57.000Z</time>
      </trkpt>
      <trkpt lat="44.00139" lon="5.91514">
        <ele>521</ele>
        <time>2020-10-05T10:58:58.000Z</time>
      </trkpt>
      <trkpt lat="44.00139" lon="5.91513">
        <ele>521</ele>
        <time>2020-10-05T10:58:59.000Z</time>
      </trkpt>
      <trkpt lat="44.00139" lon="5.91513">
        <ele>521</ele>
        <time>2020-10-05T10:59:00.000Z</time>
      </trkpt>
      <trkpt lat="44.00138" lon="5.91513">
        <ele>522</ele>
        <time>2020-10-05T10:59:01.000Z</time>
      </trkpt>
      <trkpt lat="44.00138" lon="5.91513">
        <ele>522</ele>
        <time>2020-10-05T10:59:02.000Z</time>
      </trkpt>
      <trkpt lat="44.00138" lon="5.91513">
        <ele>522</ele>
        <time>2020-10-05T10:59:03.000Z</time>
      </trkpt>
      <trkpt lat="44.00138" lon="5.91513">
        <ele>522</ele>
        <time>2020-10-05T10:59:04.000Z</time>
      </trkpt>
      <trkpt lat="44.00138" lon="5.91513">
        <ele>522</ele>
        <time>2020-10-05T10:59:05.000Z</time>
      </trkpt>
      <trkpt lat="44.00138" lon="5.91513">
        <ele>522</ele>
        <time>2020-10-05T10:59:06.000Z</time>
      </trkpt>
      <trkpt lat="44.00138" lon="5.91513">
        <ele>522</ele>
        <time>2020-10-05T10:59:07.000Z</time>
      </trkpt>
      <trkpt lat="44.00138" lon="5.91513">
        <ele>522</ele>
        <time>2020-10-05T10:59:08.000Z</time>
      </trkpt>
      <trkpt lat="44.00138" lon="5.91513">
        <ele>521</ele>
        <time>2020-10-05T10:59:09.000Z</time>
      </trkpt>
      <trkpt lat="44.00138" lon="5.91512">
        <ele>522</ele>
        <time>2020-10-05T10:59:10.000Z</time>
      </trkpt>
      <trkpt lat="44.00138" lon="5.91512">
        <ele>522</ele>
        <time>2020-10-05T10:59:11.000Z</time>
      </trkpt>
      <trkpt lat="44.00138" lon="5.91512">
        <ele>522</ele>
        <time>2020-10-05T10:59:12.000Z</time>
      </trkpt>
      <trkpt lat="44.00137" lon="5.91512">
        <ele>522</ele>
        <time>2020-10-05T10:59:13.000Z</time>
      </trkpt>
      <trkpt lat="44.00137" lon="5.91511">
        <ele>522</ele>
        <time>2020-10-05T10:59:14.000Z</time>
      </trkpt>
      <trkpt lat="44.00137" lon="5.91512">
        <ele>522</ele>
        <time>2020-10-05T10:59:15.000Z</time>
      </trkpt>
      <trkpt lat="44.00136" lon="5.91512">
        <ele>523</ele>
        <time>2020-10-05T10:59:16.000Z</time>
      </trkpt>
      <trkpt lat="44.00136" lon="5.91512">
        <ele>523</ele>
        <time>2020-10-05T10:59:17.000Z</time>
      </trkpt>
      <trkpt lat="44.00136" lon="5.91511">
        <ele>523</ele>
        <time>2020-10-05T10:59:18.000Z</time>
      </trkpt>
      <trkpt lat="44.00136" lon="5.91511">
        <ele>523</ele>
        <time>2020-10-05T10:59:19.000Z</time>
      </trkpt>
      <trkpt lat="44.00135" lon="5.91511">
        <ele>523</ele>
        <time>2020-10-05T10:59:20.000Z</time>
      </trkpt>
      <trkpt lat="44.00135" lon="5.91511">
        <ele>523</ele>
        <time>2020-10-05T10:59:21.000Z</time>
      </trkpt>
      <trkpt lat="44.00135" lon="5.91511">
        <ele>523</ele>
        <time>2020-10-05T10:59:22.000Z</time>
      </trkpt>
      <trkpt lat="44.00135" lon="5.91511">
        <ele>523</ele>
        <time>2020-10-05T10:59:23.000Z</time>
      </trkpt>
      <trkpt lat="44.00135" lon="5.91511">
        <ele>523</ele>
        <time>2020-10-05T10:59:24.000Z</time>
      </trkpt>
      <trkpt lat="44.00135" lon="5.91511">
        <ele>523</ele>
        <time>2020-10-05T10:59:25.000Z</time>
      </trkpt>
      <trkpt lat="44.00135" lon="5.91511">
        <ele>523</ele>
        <time>2020-10-05T10:59:26.000Z</time>
      </trkpt>
      <trkpt lat="44.00135" lon="5.91511">
        <ele>523</ele>
        <time>2020-10-05T10:59:27.000Z</time>
      </trkpt>
      <trkpt lat="44.00135" lon="5.91511">
        <ele>523</ele>
        <time>2020-10-05T10:59:28.000Z</time>
      </trkpt>
      <trkpt lat="44.00135" lon="5.91511">
        <ele>523</ele>
        <time>2020-10-05T10:59:29.000Z</time>
      </trkpt>
      <trkpt lat="44.00135" lon="5.91511">
        <ele>523</ele>
        <time>2020-10-05T10:59:30.000Z</time>
      </trkpt>
      <trkpt lat="44.00135" lon="5.91511">
        <ele>524</ele>
        <time>2020-10-05T10:59:31.000Z</time>
      </trkpt>
      <trkpt lat="44.00135" lon="5.9151">
        <ele>524</ele>
        <time>2020-10-05T10:59:32.000Z</time>
      </trkpt>
      <trkpt lat="44.00135" lon="5.9151">
        <ele>524</ele>
        <time>2020-10-05T10:59:33.000Z</time>
      </trkpt>
      <trkpt lat="44.00135" lon="5.9151">
        <ele>524</ele>
        <time>2020-10-05T10:59:34.000Z</time>
      </trkpt>
      <trkpt lat="44.00135" lon="5.9151">
        <ele>524</ele>
        <time>2020-10-05T10:59:35.000Z</time>
      </trkpt>
      <trkpt lat="44.00134" lon="5.9151">
        <ele>524</ele>
        <time>2020-10-05T10:59:36.000Z</time>
      </trkpt>
      <trkpt lat="44.00134" lon="5.9151">
        <ele>524</ele>
        <time>2020-10-05T10:59:37.000Z</time>
      </trkpt>
      <trkpt lat="44.00133" lon="5.9151">
        <ele>524</ele>
        <time>2020-10-05T10:59:38.000Z</time>
      </trkpt>
      <trkpt lat="44.00133" lon="5.9151">
        <ele>524</ele>
        <time>2020-10-05T10:59:39.000Z</time>
      </trkpt>
      <trkpt lat="44.00133" lon="5.91509">
        <ele>525</ele>
        <time>2020-10-05T10:59:40.000Z</time>
      </trkpt>
      <trkpt lat="44.00132" lon="5.9151">
        <ele>525</ele>
        <time>2020-10-05T10:59:41.000Z</time>
      </trkpt>
      <trkpt lat="44.00132" lon="5.91509">
        <ele>525</ele>
        <time>2020-10-05T10:59:42.000Z</time>
      </trkpt>
      <trkpt lat="44.00132" lon="5.91509">
        <ele>525</ele>
        <time>2020-10-05T10:59:43.000Z</time>
      </trkpt>
      <trkpt lat="44.00131" lon="5.91508">
        <ele>525</ele>
        <time>2020-10-05T10:59:44.000Z</time>
      </trkpt>
      <trkpt lat="44.00131" lon="5.91508">
        <ele>525</ele>
        <time>2020-10-05T10:59:45.000Z</time>
      </trkpt>
      <trkpt lat="44.0013" lon="5.91508">
        <ele>525</ele>
        <time>2020-10-05T10:59:46.000Z</time>
      </trkpt>
      <trkpt lat="44.0013" lon="5.91508">
        <ele>526</ele>
        <time>2020-10-05T10:59:47.000Z</time>
      </trkpt>
      <trkpt lat="44.00129" lon="5.91507">
        <ele>526</ele>
        <time>2020-10-05T10:59:48.000Z</time>
      </trkpt>
      <trkpt lat="44.00129" lon="5.91507">
        <ele>526</ele>
        <time>2020-10-05T10:59:49.000Z</time>
      </trkpt>
      <trkpt lat="44.00129" lon="5.91506">
        <ele>526</ele>
        <time>2020-10-05T10:59:50.000Z</time>
      </trkpt>
      <trkpt lat="44.00128" lon="5.91506">
        <ele>526</ele>
        <time>2020-10-05T10:59:51.000Z</time>
      </trkpt>
      <trkpt lat="44.00128" lon="5.91505">
        <ele>526</ele>
        <time>2020-10-05T10:59:52.000Z</time>
      </trkpt>
      <trkpt lat="44.00128" lon="5.91505">
        <ele>526</ele>
        <time>2020-10-05T10:59:53.000Z</time>
      </trkpt>
      <trkpt lat="44.00128" lon="5.91504">
        <ele>527</ele>
        <time>2020-10-05T10:59:54.000Z</time>
      </trkpt>
      <trkpt lat="44.00128" lon="5.91503">
        <ele>527</ele>
        <time>2020-10-05T10:59:55.000Z</time>
      </trkpt>
      <trkpt lat="44.00128" lon="5.91502">
        <ele>527</ele>
        <time>2020-10-05T10:59:56.000Z</time>
      </trkpt>
      <trkpt lat="44.00128" lon="5.91502">
        <ele>527</ele>
        <time>2020-10-05T10:59:57.000Z</time>
      </trkpt>
      <trkpt lat="44.00128" lon="5.91502">
        <ele>527</ele>
        <time>2020-10-05T10:59:58.000Z</time>
      </trkpt>
      <trkpt lat="44.00128" lon="5.91502">
        <ele>527</ele>
        <time>2020-10-05T10:59:59.000Z</time>
      </trkpt>
      <trkpt lat="44.00128" lon="5.91502">
        <ele>527</ele>
        <time>2020-10-05T11:00:00.000Z</time>
      </trkpt>
      <trkpt lat="44.00128" lon="5.91502">
        <ele>527</ele>
        <time>2020-10-05T11:00:01.000Z</time>
      </trkpt>
      <trkpt lat="44.00128" lon="5.91502">
        <ele>527</ele>
        <time>2020-10-05T11:00:02.000Z</time>
      </trkpt>
      <trkpt lat="44.00128" lon="5.91502">
        <ele>527</ele>
        <time>2020-10-05T11:00:03.000Z</time>
      </trkpt>
      <trkpt lat="44.00128" lon="5.91502">
        <ele>527</ele>
        <time>2020-10-05T11:00:04.000Z</time>
      </trkpt>
      <trkpt lat="44.00128" lon="5.91502">
        <ele>527</ele>
        <time>2020-10-05T11:00:05.000Z</time>
      </trkpt>
      <trkpt lat="44.00128" lon="5.91502">
        <ele>527</ele>
        <time>2020-10-05T11:00:06.000Z</time>
      </trkpt>
      <trkpt lat="44.00128" lon="5.91502">
        <ele>527</ele>
        <time>2020-10-05T11:00:07.000Z</time>
      </trkpt>
      <trkpt lat="44.00128" lon="5.91502">
        <ele>527</ele>
        <time>2020-10-05T11:00:08.000Z</time>
      </trkpt>
      <trkpt lat="44.00128" lon="5.91502">
        <ele>527</ele>
        <time>2020-10-05T11:00:09.000Z</time>
      </trkpt>
      <trkpt lat="44.00128" lon="5.91502">
        <ele>527</ele>
        <time>2020-10-05T11:00:10.000Z</time>
      </trkpt>
      <trkpt lat="44.00128" lon="5.91502">
        <ele>527</ele>
        <time>2020-10-05T11:00:11.000Z</time>
      </trkpt>
      <trkpt lat="44.00128" lon="5.91502">
        <ele>527</ele>
        <time>2020-10-05T11:00:12.000Z</time>
      </trkpt>
      <trkpt lat="44.00128" lon="5.91502">
        <ele>527</ele>
        <time>2020-10-05T11:00:13.000Z</time>
      </trkpt>
      <trkpt lat="44.00128" lon="5.91502">
        <ele>527</ele>
        <time>2020-10-05T11:00:14.000Z</time>
      </trkpt>
      <trkpt lat="44.00128" lon="5.91502">
        <ele>527</ele>
        <time>2020-10-05T11:00:15.000Z</time>
      </trkpt>
      <trkpt lat="44.00128" lon="5.91502">
        <ele>527</ele>
        <time>2020-10-05T11:00:16.000Z</time>
      </trkpt>
      <trkpt lat="44.00128" lon="5.91502">
        <ele>527</ele>
        <time>2020-10-05T11:00:17.000Z</time>
      </trkpt>
      <trkpt lat="44.00128" lon="5.91502">
        <ele>527</ele>
        <time>2020-10-05T11:00:18.000Z</time>
      </trkpt>
      <trkpt lat="44.00128" lon="5.91501">
        <ele>527</ele>
        <time>2020-10-05T11:00:19.000Z</time>
      </trkpt>
      <trkpt lat="44.00128" lon="5.91501">
        <ele>527</ele>
        <time>2020-10-05T11:00:20.000Z</time>
      </trkpt>
      <trkpt lat="44.00128" lon="5.91501">
        <ele>527</ele>
        <time>2020-10-05T11:00:21.000Z</time>
      </trkpt>
      <trkpt lat="44.00128" lon="5.91502">
        <ele>527</ele>
        <time>2020-10-05T11:00:22.000Z</time>
      </trkpt>
      <trkpt lat="44.00128" lon="5.91502">
        <ele>527</ele>
        <time>2020-10-05T11:00:23.000Z</time>
      </trkpt>
      <trkpt lat="44.00128" lon="5.91502">
        <ele>527</ele>
        <time>2020-10-05T11:00:24.000Z</time>
      </trkpt>
      <trkpt lat="44.00128" lon="5.91502">
        <ele>527</ele>
        <time>2020-10-05T11:00:25.000Z</time>
      </trkpt>
      <trkpt lat="44.00128" lon="5.91502">
        <ele>527</ele>
        <time>2020-10-05T11:00:26.000Z</time>
      </trkpt>
      <trkpt lat="44.00128" lon="5.91501">
        <ele>527</ele>
        <time>2020-10-05T11:00:27.000Z</time>
      </trkpt>
      <trkpt lat="44.00128" lon="5.91501">
        <ele>527</ele>
        <time>2020-10-05T11:00:28.000Z</time>
      </trkpt>
      <trkpt lat="44.00128" lon="5.91501">
        <ele>527</ele>
        <time>2020-10-05T11:00:29.000Z</time>
      </trkpt>
      <trkpt lat="44.00128" lon="5.91501">
        <ele>527</ele>
        <time>2020-10-05T11:00:30.000Z</time>
      </trkpt>
      <trkpt lat="44.00128" lon="5.91501">
        <ele>527</ele>
        <time>2020-10-05T11:00:31.000Z</time>
      </trkpt>
      <trkpt lat="44.00128" lon="5.91501">
        <ele>527</ele>
        <time>2020-10-05T11:00:32.000Z</time>
      </trkpt>
      <trkpt lat="44.00128" lon="5.91501">
        <ele>527</ele>
        <time>2020-10-05T11:00:33.000Z</time>
      </trkpt>
      <trkpt lat="44.00128" lon="5.91501">
        <ele>527</ele>
        <time>2020-10-05T11:00:34.000Z</time>
      </trkpt>
      <trkpt lat="44.00128" lon="5.91501">
        <ele>527</ele>
        <time>2020-10-05T11:00:35.000Z</time>
      </trkpt>
      <trkpt lat="44.00128" lon="5.915">
        <ele>527</ele>
        <time>2020-10-05T11:00:36.000Z</time>
      </trkpt>
      <trkpt lat="44.00128" lon="5.91499">
        <ele>527</ele>
        <time>2020-10-05T11:00:37.000Z</time>
      </trkpt>
      <trkpt lat="44.00128" lon="5.91498">
        <ele>527</ele>
        <time>2020-10-05T11:00:38.000Z</time>
      </trkpt>
      <trkpt lat="44.00128" lon="5.91498">
        <ele>527</ele>
        <time>2020-10-05T11:00:39.000Z</time>
      </trkpt>
      <trkpt lat="44.00128" lon="5.91497">
        <ele>527</ele>
        <time>2020-10-05T11:00:40.000Z</time>
      </trkpt>
      <trkpt lat="44.00128" lon="5.91496">
        <ele>528</ele>
        <time>2020-10-05T11:00:41.000Z</time>
      </trkpt>
      <trkpt lat="44.00129" lon="5.91495">
        <ele>528</ele>
        <time>2020-10-05T11:00:42.000Z</time>
      </trkpt>
      <trkpt lat="44.00129" lon="5.91495">
        <ele>528</ele>
        <time>2020-10-05T11:00:43.000Z</time>
      </trkpt>
      <trkpt lat="44.00129" lon="5.91494">
        <ele>528</ele>
        <time>2020-10-05T11:00:44.000Z</time>
      </trkpt>
      <trkpt lat="44.0013" lon="5.91493">
        <ele>528</ele>
        <time>2020-10-05T11:00:45.000Z</time>
      </trkpt>
      <trkpt lat="44.0013" lon="5.91492">
        <ele>528</ele>
        <time>2020-10-05T11:00:46.000Z</time>
      </trkpt>
      <trkpt lat="44.0013" lon="5.91491">
        <ele>528</ele>
        <time>2020-10-05T11:00:47.000Z</time>
      </trkpt>
      <trkpt lat="44.00131" lon="5.91491">
        <ele>528</ele>
        <time>2020-10-05T11:00:48.000Z</time>
      </trkpt>
      <trkpt lat="44.00131" lon="5.9149">
        <ele>528</ele>
        <time>2020-10-05T11:00:49.000Z</time>
      </trkpt>
      <trkpt lat="44.00131" lon="5.91489">
        <ele>528</ele>
        <time>2020-10-05T11:00:50.000Z</time>
      </trkpt>
      <trkpt lat="44.00132" lon="5.91488">
        <ele>528</ele>
        <time>2020-10-05T11:00:51.000Z</time>
      </trkpt>
      <trkpt lat="44.00132" lon="5.91487">
        <ele>528</ele>
        <time>2020-10-05T11:00:52.000Z</time>
      </trkpt>
      <trkpt lat="44.00132" lon="5.91487">
        <ele>528</ele>
        <time>2020-10-05T11:00:53.000Z</time>
      </trkpt>
      <trkpt lat="44.00133" lon="5.91486">
        <ele>528</ele>
        <time>2020-10-05T11:00:54.000Z</time>
      </trkpt>
      <trkpt lat="44.00133" lon="5.91485">
        <ele>528</ele>
        <time>2020-10-05T11:00:55.000Z</time>
      </trkpt>
      <trkpt lat="44.00133" lon="5.91485">
        <ele>528</ele>
        <time>2020-10-05T11:00:56.000Z</time>
      </trkpt>
      <trkpt lat="44.00133" lon="5.91484">
        <ele>528</ele>
        <time>2020-10-05T11:00:57.000Z</time>
      </trkpt>
      <trkpt lat="44.00133" lon="5.91483">
        <ele>529</ele>
        <time>2020-10-05T11:00:58.000Z</time>
      </trkpt>
      <trkpt lat="44.00133" lon="5.91482">
        <ele>529</ele>
        <time>2020-10-05T11:00:59.000Z</time>
      </trkpt>
      <trkpt lat="44.00133" lon="5.91481">
        <ele>529</ele>
        <time>2020-10-05T11:01:00.000Z</time>
      </trkpt>
      <trkpt lat="44.00134" lon="5.91481">
        <ele>529</ele>
        <time>2020-10-05T11:01:01.000Z</time>
      </trkpt>
      <trkpt lat="44.00134" lon="5.9148">
        <ele>529</ele>
        <time>2020-10-05T11:01:02.000Z</time>
      </trkpt>
      <trkpt lat="44.00134" lon="5.91479">
        <ele>529</ele>
        <time>2020-10-05T11:01:03.000Z</time>
      </trkpt>
      <trkpt lat="44.00135" lon="5.91479">
        <ele>529</ele>
        <time>2020-10-05T11:01:04.000Z</time>
      </trkpt>
      <trkpt lat="44.00135" lon="5.91478">
        <ele>530</ele>
        <time>2020-10-05T11:01:05.000Z</time>
      </trkpt>
      <trkpt lat="44.00136" lon="5.91477">
        <ele>530</ele>
        <time>2020-10-05T11:01:06.000Z</time>
      </trkpt>
      <trkpt lat="44.00136" lon="5.91477">
        <ele>530</ele>
        <time>2020-10-05T11:01:07.000Z</time>
      </trkpt>
      <trkpt lat="44.00136" lon="5.91476">
        <ele>530</ele>
        <time>2020-10-05T11:01:08.000Z</time>
      </trkpt>
      <trkpt lat="44.00136" lon="5.91476">
        <ele>530</ele>
        <time>2020-10-05T11:01:09.000Z</time>
      </trkpt>
      <trkpt lat="44.00136" lon="5.91475">
        <ele>530</ele>
        <time>2020-10-05T11:01:10.000Z</time>
      </trkpt>
      <trkpt lat="44.00136" lon="5.91474">
        <ele>530</ele>
        <time>2020-10-05T11:01:11.000Z</time>
      </trkpt>
      <trkpt lat="44.00136" lon="5.91473">
        <ele>530</ele>
        <time>2020-10-05T11:01:12.000Z</time>
      </trkpt>
      <trkpt lat="44.00136" lon="5.91472">
        <ele>530</ele>
        <time>2020-10-05T11:01:13.000Z</time>
      </trkpt>
      <trkpt lat="44.00136" lon="5.91472">
        <ele>531</ele>
        <time>2020-10-05T11:01:14.000Z</time>
      </trkpt>
      <trkpt lat="44.00136" lon="5.91471">
        <ele>531</ele>
        <time>2020-10-05T11:01:15.000Z</time>
      </trkpt>
      <trkpt lat="44.00136" lon="5.9147">
        <ele>531</ele>
        <time>2020-10-05T11:01:16.000Z</time>
      </trkpt>
      <trkpt lat="44.00135" lon="5.91469">
        <ele>531</ele>
        <time>2020-10-05T11:01:17.000Z</time>
      </trkpt>
      <trkpt lat="44.00135" lon="5.91468">
        <ele>531</ele>
        <time>2020-10-05T11:01:18.000Z</time>
      </trkpt>
      <trkpt lat="44.00135" lon="5.91467">
        <ele>531</ele>
        <time>2020-10-05T11:01:19.000Z</time>
      </trkpt>
      <trkpt lat="44.00135" lon="5.91467">
        <ele>532</ele>
        <time>2020-10-05T11:01:20.000Z</time>
      </trkpt>
      <trkpt lat="44.00135" lon="5.91466">
        <ele>532</ele>
        <time>2020-10-05T11:01:21.000Z</time>
      </trkpt>
      <trkpt lat="44.00134" lon="5.91466">
        <ele>532</ele>
        <time>2020-10-05T11:01:22.000Z</time>
      </trkpt>
      <trkpt lat="44.00134" lon="5.91465">
        <ele>532</ele>
        <time>2020-10-05T11:01:23.000Z</time>
      </trkpt>
      <trkpt lat="44.00134" lon="5.91465">
        <ele>532</ele>
        <time>2020-10-05T11:01:24.000Z</time>
      </trkpt>
      <trkpt lat="44.00134" lon="5.91465">
        <ele>532</ele>
        <time>2020-10-05T11:01:25.000Z</time>
      </trkpt>
      <trkpt lat="44.00134" lon="5.91464">
        <ele>532</ele>
        <time>2020-10-05T11:01:26.000Z</time>
      </trkpt>
      <trkpt lat="44.00134" lon="5.91464">
        <ele>532</ele>
        <time>2020-10-05T11:01:27.000Z</time>
      </trkpt>
      <trkpt lat="44.00134" lon="5.91463">
        <ele>532</ele>
        <time>2020-10-05T11:01:28.000Z</time>
      </trkpt>
      <trkpt lat="44.00134" lon="5.91462">
        <ele>533</ele>
        <time>2020-10-05T11:01:29.000Z</time>
      </trkpt>
      <trkpt lat="44.00134" lon="5.91461">
        <ele>533</ele>
        <time>2020-10-05T11:01:30.000Z</time>
      </trkpt>
      <trkpt lat="44.00134" lon="5.91461">
        <ele>533</ele>
        <time>2020-10-05T11:01:31.000Z</time>
      </trkpt>
      <trkpt lat="44.00134" lon="5.9146">
        <ele>533</ele>
        <time>2020-10-05T11:01:32.000Z</time>
      </trkpt>
      <trkpt lat="44.00134" lon="5.91459">
        <ele>533</ele>
        <time>2020-10-05T11:01:33.000Z</time>
      </trkpt>
      <trkpt lat="44.00134" lon="5.91458">
        <ele>533</ele>
        <time>2020-10-05T11:01:34.000Z</time>
      </trkpt>
      <trkpt lat="44.00134" lon="5.91457">
        <ele>533</ele>
        <time>2020-10-05T11:01:35.000Z</time>
      </trkpt>
      <trkpt lat="44.00133" lon="5.91456">
        <ele>533</ele>
        <time>2020-10-05T11:01:36.000Z</time>
      </trkpt>
      <trkpt lat="44.00133" lon="5.91456">
        <ele>533</ele>
        <time>2020-10-05T11:01:37.000Z</time>
      </trkpt>
      <trkpt lat="44.00133" lon="5.91455">
        <ele>534</ele>
        <time>2020-10-05T11:01:38.000Z</time>
      </trkpt>
      <trkpt lat="44.00133" lon="5.91454">
        <ele>534</ele>
        <time>2020-10-05T11:01:39.000Z</time>
      </trkpt>
      <trkpt lat="44.00134" lon="5.91453">
        <ele>534</ele>
        <time>2020-10-05T11:01:40.000Z</time>
      </trkpt>
      <trkpt lat="44.00134" lon="5.91452">
        <ele>534</ele>
        <time>2020-10-05T11:01:41.000Z</time>
      </trkpt>
      <trkpt lat="44.00134" lon="5.91452">
        <ele>534</ele>
        <time>2020-10-05T11:01:42.000Z</time>
      </trkpt>
      <trkpt lat="44.00134" lon="5.91451">
        <ele>534</ele>
        <time>2020-10-05T11:01:43.000Z</time>
      </trkpt>
      <trkpt lat="44.00134" lon="5.91451">
        <ele>534</ele>
        <time>2020-10-05T11:01:44.000Z</time>
      </trkpt>
      <trkpt lat="44.00134" lon="5.91451">
        <ele>534</ele>
        <time>2020-10-05T11:01:45.000Z</time>
      </trkpt>
      <trkpt lat="44.00134" lon="5.91451">
        <ele>534</ele>
        <time>2020-10-05T11:01:46.000Z</time>
      </trkpt>
      <trkpt lat="44.00134" lon="5.91451">
        <ele>534</ele>
        <time>2020-10-05T11:01:47.000Z</time>
      </trkpt>
      <trkpt lat="44.00134" lon="5.91451">
        <ele>534</ele>
        <time>2020-10-05T11:01:48.000Z</time>
      </trkpt>
      <trkpt lat="44.00134" lon="5.91451">
        <ele>534</ele>
        <time>2020-10-05T11:01:49.000Z</time>
      </trkpt>
      <trkpt lat="44.00134" lon="5.91451">
        <ele>534</ele>
        <time>2020-10-05T11:01:50.000Z</time>
      </trkpt>
      <trkpt lat="44.00134" lon="5.91451">
        <ele>534</ele>
        <time>2020-10-05T11:01:51.000Z</time>
      </trkpt>
      <trkpt lat="44.00134" lon="5.91451">
        <ele>534</ele>
        <time>2020-10-05T11:01:52.000Z</time>
      </trkpt>
      <trkpt lat="44.00133" lon="5.91451">
        <ele>534</ele>
        <time>2020-10-05T11:01:53.000Z</time>
      </trkpt>
      <trkpt lat="44.00133" lon="5.91451">
        <ele>534</ele>
        <time>2020-10-05T11:01:54.000Z</time>
      </trkpt>
      <trkpt lat="44.00133" lon="5.9145">
        <ele>534</ele>
        <time>2020-10-05T11:01:55.000Z</time>
      </trkpt>
      <trkpt lat="44.00133" lon="5.9145">
        <ele>534</ele>
        <time>2020-10-05T11:01:56.000Z</time>
      </trkpt>
      <trkpt lat="44.00133" lon="5.9145">
        <ele>534</ele>
        <time>2020-10-05T11:01:57.000Z</time>
      </trkpt>
      <trkpt lat="44.00133" lon="5.9145">
        <ele>534</ele>
        <time>2020-10-05T11:01:58.000Z</time>
      </trkpt>
      <trkpt lat="44.00134" lon="5.9145">
        <ele>534</ele>
        <time>2020-10-05T11:01:59.000Z</time>
      </trkpt>
      <trkpt lat="44.00134" lon="5.9145">
        <ele>534</ele>
        <time>2020-10-05T11:02:00.000Z</time>
      </trkpt>
      <trkpt lat="44.00134" lon="5.9145">
        <ele>534</ele>
        <time>2020-10-05T11:02:01.000Z</time>
      </trkpt>
      <trkpt lat="44.00133" lon="5.9145">
        <ele>534</ele>
        <time>2020-10-05T11:02:02.000Z</time>
      </trkpt>
      <trkpt lat="44.00133" lon="5.9145">
        <ele>535</ele>
        <time>2020-10-05T11:02:03.000Z</time>
      </trkpt>
      <trkpt lat="44.00133" lon="5.9145">
        <ele>535</ele>
        <time>2020-10-05T11:02:04.000Z</time>
      </trkpt>
      <trkpt lat="44.00133" lon="5.9145">
        <ele>535</ele>
        <time>2020-10-05T11:02:05.000Z</time>
      </trkpt>
      <trkpt lat="44.00133" lon="5.9145">
        <ele>535</ele>
        <time>2020-10-05T11:02:06.000Z</time>
      </trkpt>
      <trkpt lat="44.00133" lon="5.9145">
        <ele>535</ele>
        <time>2020-10-05T11:02:07.000Z</time>
      </trkpt>
      <trkpt lat="44.00133" lon="5.9145">
        <ele>535</ele>
        <time>2020-10-05T11:02:08.000Z</time>
      </trkpt>
      <trkpt lat="44.00133" lon="5.9145">
        <ele>535</ele>
        <time>2020-10-05T11:02:09.000Z</time>
      </trkpt>
      <trkpt lat="44.00133" lon="5.9145">
        <ele>535</ele>
        <time>2020-10-05T11:02:10.000Z</time>
      </trkpt>
      <trkpt lat="44.00133" lon="5.9145">
        <ele>535</ele>
        <time>2020-10-05T11:02:11.000Z</time>
      </trkpt>
      <trkpt lat="44.00133" lon="5.9145">
        <ele>535</ele>
        <time>2020-10-05T11:02:12.000Z</time>
      </trkpt>
      <trkpt lat="44.00133" lon="5.9145">
        <ele>535</ele>
        <time>2020-10-05T11:02:13.000Z</time>
      </trkpt>
      <trkpt lat="44.00133" lon="5.9145">
        <ele>535</ele>
        <time>2020-10-05T11:02:14.000Z</time>
      </trkpt>
      <trkpt lat="44.00133" lon="5.91449">
        <ele>535</ele>
        <time>2020-10-05T11:02:15.000Z</time>
      </trkpt>
      <trkpt lat="44.00133" lon="5.91449">
        <ele>535</ele>
        <time>2020-10-05T11:02:16.000Z</time>
      </trkpt>
      <trkpt lat="44.00133" lon="5.91449">
        <ele>535</ele>
        <time>2020-10-05T11:02:17.000Z</time>
      </trkpt>
      <trkpt lat="44.00133" lon="5.91449">
        <ele>535</ele>
        <time>2020-10-05T11:02:18.000Z</time>
      </trkpt>
      <trkpt lat="44.00133" lon="5.91449">
        <ele>535</ele>
        <time>2020-10-05T11:02:19.000Z</time>
      </trkpt>
      <trkpt lat="44.00133" lon="5.91449">
        <ele>535</ele>
        <time>2020-10-05T11:02:20.000Z</time>
      </trkpt>
      <trkpt lat="44.00133" lon="5.91449">
        <ele>535</ele>
        <time>2020-10-05T11:02:21.000Z</time>
      </trkpt>
      <trkpt lat="44.00133" lon="5.91449">
        <ele>535</ele>
        <time>2020-10-05T11:02:22.000Z</time>
      </trkpt>
      <trkpt lat="44.00133" lon="5.91449">
        <ele>535</ele>
        <time>2020-10-05T11:02:23.000Z</time>
      </trkpt>
      <trkpt lat="44.00133" lon="5.91449">
        <ele>535</ele>
        <time>2020-10-05T11:02:24.000Z</time>
      </trkpt>
      <trkpt lat="44.00133" lon="5.91449">
        <ele>535</ele>
        <time>2020-10-05T11:02:25.000Z</time>
      </trkpt>
      <trkpt lat="44.00133" lon="5.91449">
        <ele>535</ele>
        <time>2020-10-05T11:02:26.000Z</time>
      </trkpt>
      <trkpt lat="44.00133" lon="5.91449">
        <ele>535</ele>
        <time>2020-10-05T11:02:27.000Z</time>
      </trkpt>
      <trkpt lat="44.00133" lon="5.91449">
        <ele>535</ele>
        <time>2020-10-05T11:02:28.000Z</time>
      </trkpt>
      <trkpt lat="44.00134" lon="5.91449">
        <ele>535</ele>
        <time>2020-10-05T11:02:29.000Z</time>
      </trkpt>
      <trkpt lat="44.00134" lon="5.91449">
        <ele>535</ele>
        <time>2020-10-05T11:02:30.000Z</time>
      </trkpt>
      <trkpt lat="44.00134" lon="5.91449">
        <ele>535</ele>
        <time>2020-10-05T11:02:31.000Z</time>
      </trkpt>
      <trkpt lat="44.00134" lon="5.91449">
        <ele>535</ele>
        <time>2020-10-05T11:02:32.000Z</time>
      </trkpt>
      <trkpt lat="44.00134" lon="5.91448">
        <ele>535</ele>
        <time>2020-10-05T11:02:33.000Z</time>
      </trkpt>
      <trkpt lat="44.00134" lon="5.91448">
        <ele>535</ele>
        <time>2020-10-05T11:02:34.000Z</time>
      </trkpt>
      <trkpt lat="44.00134" lon="5.91448">
        <ele>535</ele>
        <time>2020-10-05T11:02:35.000Z</time>
      </trkpt>
      <trkpt lat="44.00134" lon="5.91448">
        <ele>535</ele>
        <time>2020-10-05T11:02:36.000Z</time>
      </trkpt>
      <trkpt lat="44.00134" lon="5.91449">
        <ele>535</ele>
        <time>2020-10-05T11:02:37.000Z</time>
      </trkpt>
      <trkpt lat="44.00134" lon="5.91449">
        <ele>535</ele>
        <time>2020-10-05T11:02:38.000Z</time>
      </trkpt>
      <trkpt lat="44.00134" lon="5.91449">
        <ele>535</ele>
        <time>2020-10-05T11:02:39.000Z</time>
      </trkpt>
      <trkpt lat="44.00134" lon="5.91449">
        <ele>535</ele>
        <time>2020-10-05T11:02:40.000Z</time>
      </trkpt>
      <trkpt lat="44.00134" lon="5.91449">
        <ele>535</ele>
        <time>2020-10-05T11:02:41.000Z</time>
      </trkpt>
      <trkpt lat="44.00134" lon="5.91449">
        <ele>535</ele>
        <time>2020-10-05T11:02:42.000Z</time>
      </trkpt>
      <trkpt lat="44.00134" lon="5.91449">
        <ele>535</ele>
        <time>2020-10-05T11:02:43.000Z</time>
      </trkpt>
      <trkpt lat="44.00134" lon="5.91449">
        <ele>535</ele>
        <time>2020-10-05T11:02:44.000Z</time>
      </trkpt>
      <trkpt lat="44.00134" lon="5.91449">
        <ele>535</ele>
        <time>2020-10-05T11:02:45.000Z</time>
      </trkpt>
      <trkpt lat="44.00134" lon="5.91448">
        <ele>535</ele>
        <time>2020-10-05T11:02:46.000Z</time>
      </trkpt>
      <trkpt lat="44.00134" lon="5.91449">
        <ele>535</ele>
        <time>2020-10-05T11:02:47.000Z</time>
      </trkpt>
      <trkpt lat="44.00134" lon="5.91448">
        <ele>535</ele>
        <time>2020-10-05T11:02:48.000Z</time>
      </trkpt>
      <trkpt lat="44.00134" lon="5.91448">
        <ele>535</ele>
        <time>2020-10-05T11:02:49.000Z</time>
      </trkpt>
      <trkpt lat="44.00134" lon="5.91449">
        <ele>535</ele>
        <time>2020-10-05T11:02:50.000Z</time>
      </trkpt>
      <trkpt lat="44.00134" lon="5.91449">
        <ele>535</ele>
        <time>2020-10-05T11:02:51.000Z</time>
      </trkpt>
      <trkpt lat="44.00134" lon="5.91449">
        <ele>536</ele>
        <time>2020-10-05T11:02:52.000Z</time>
      </trkpt>
      <trkpt lat="44.00134" lon="5.91448">
        <ele>536</ele>
        <time>2020-10-05T11:02:53.000Z</time>
      </trkpt>
      <trkpt lat="44.00134" lon="5.91448">
        <ele>536</ele>
        <time>2020-10-05T11:02:54.000Z</time>
      </trkpt>
      <trkpt lat="44.00134" lon="5.91448">
        <ele>536</ele>
        <time>2020-10-05T11:02:55.000Z</time>
      </trkpt>
      <trkpt lat="44.00134" lon="5.91448">
        <ele>536</ele>
        <time>2020-10-05T11:02:56.000Z</time>
      </trkpt>
      <trkpt lat="44.00134" lon="5.91448">
        <ele>536</ele>
        <time>2020-10-05T11:02:57.000Z</time>
      </trkpt>
      <trkpt lat="44.00134" lon="5.91447">
        <ele>536</ele>
        <time>2020-10-05T11:02:58.000Z</time>
      </trkpt>
      <trkpt lat="44.00134" lon="5.91447">
        <ele>536</ele>
        <time>2020-10-05T11:02:59.000Z</time>
      </trkpt>
      <trkpt lat="44.00135" lon="5.91446">
        <ele>536</ele>
        <time>2020-10-05T11:03:00.000Z</time>
      </trkpt>
      <trkpt lat="44.00135" lon="5.91445">
        <ele>536</ele>
        <time>2020-10-05T11:03:01.000Z</time>
      </trkpt>
      <trkpt lat="44.00135" lon="5.91444">
        <ele>536</ele>
        <time>2020-10-05T11:03:02.000Z</time>
      </trkpt>
      <trkpt lat="44.00135" lon="5.91444">
        <ele>536</ele>
        <time>2020-10-05T11:03:03.000Z</time>
      </trkpt>
      <trkpt lat="44.00135" lon="5.91443">
        <ele>536</ele>
        <time>2020-10-05T11:03:04.000Z</time>
      </trkpt>
      <trkpt lat="44.00134" lon="5.91442">
        <ele>536</ele>
        <time>2020-10-05T11:03:05.000Z</time>
      </trkpt>
      <trkpt lat="44.00134" lon="5.91441">
        <ele>536</ele>
        <time>2020-10-05T11:03:06.000Z</time>
      </trkpt>
      <trkpt lat="44.00134" lon="5.9144">
        <ele>537</ele>
        <time>2020-10-05T11:03:07.000Z</time>
      </trkpt>
      <trkpt lat="44.00134" lon="5.91439">
        <ele>537</ele>
        <time>2020-10-05T11:03:08.000Z</time>
      </trkpt>
      <trkpt lat="44.00134" lon="5.91438">
        <ele>537</ele>
        <time>2020-10-05T11:03:09.000Z</time>
      </trkpt>
      <trkpt lat="44.00134" lon="5.91437">
        <ele>537</ele>
        <time>2020-10-05T11:03:10.000Z</time>
      </trkpt>
      <trkpt lat="44.00134" lon="5.91436">
        <ele>537</ele>
        <time>2020-10-05T11:03:11.000Z</time>
      </trkpt>
      <trkpt lat="44.00134" lon="5.91435">
        <ele>538</ele>
        <time>2020-10-05T11:03:12.000Z</time>
      </trkpt>
      <trkpt lat="44.00134" lon="5.91434">
        <ele>538</ele>
        <time>2020-10-05T11:03:13.000Z</time>
      </trkpt>
      <trkpt lat="44.00134" lon="5.91433">
        <ele>538</ele>
        <time>2020-10-05T11:03:14.000Z</time>
      </trkpt>
      <trkpt lat="44.00134" lon="5.91432">
        <ele>538</ele>
        <time>2020-10-05T11:03:15.000Z</time>
      </trkpt>
      <trkpt lat="44.00135" lon="5.91432">
        <ele>538</ele>
        <time>2020-10-05T11:03:16.000Z</time>
      </trkpt>
      <trkpt lat="44.00135" lon="5.91431">
        <ele>538</ele>
        <time>2020-10-05T11:03:17.000Z</time>
      </trkpt>
      <trkpt lat="44.00136" lon="5.9143">
        <ele>539</ele>
        <time>2020-10-05T11:03:18.000Z</time>
      </trkpt>
      <trkpt lat="44.00136" lon="5.9143">
        <ele>539</ele>
        <time>2020-10-05T11:03:19.000Z</time>
      </trkpt>
      <trkpt lat="44.00137" lon="5.91429">
        <ele>539</ele>
        <time>2020-10-05T11:03:20.000Z</time>
      </trkpt>
      <trkpt lat="44.00137" lon="5.91428">
        <ele>539</ele>
        <time>2020-10-05T11:03:21.000Z</time>
      </trkpt>
      <trkpt lat="44.00137" lon="5.91428">
        <ele>539</ele>
        <time>2020-10-05T11:03:22.000Z</time>
      </trkpt>
      <trkpt lat="44.00138" lon="5.91427">
        <ele>539</ele>
        <time>2020-10-05T11:03:23.000Z</time>
      </trkpt>
      <trkpt lat="44.00138" lon="5.91426">
        <ele>539</ele>
        <time>2020-10-05T11:03:24.000Z</time>
      </trkpt>
      <trkpt lat="44.00138" lon="5.91426">
        <ele>539</ele>
        <time>2020-10-05T11:03:25.000Z</time>
      </trkpt>
      <trkpt lat="44.00138" lon="5.91425">
        <ele>539</ele>
        <time>2020-10-05T11:03:26.000Z</time>
      </trkpt>
      <trkpt lat="44.00139" lon="5.91424">
        <ele>540</ele>
        <time>2020-10-05T11:03:27.000Z</time>
      </trkpt>
      <trkpt lat="44.00139" lon="5.91423">
        <ele>540</ele>
        <time>2020-10-05T11:03:28.000Z</time>
      </trkpt>
      <trkpt lat="44.0014" lon="5.91423">
        <ele>540</ele>
        <time>2020-10-05T11:03:29.000Z</time>
      </trkpt>
      <trkpt lat="44.0014" lon="5.91422">
        <ele>540</ele>
        <time>2020-10-05T11:03:30.000Z</time>
      </trkpt>
      <trkpt lat="44.00141" lon="5.91422">
        <ele>540</ele>
        <time>2020-10-05T11:03:31.000Z</time>
      </trkpt>
      <trkpt lat="44.00141" lon="5.91421">
        <ele>540</ele>
        <time>2020-10-05T11:03:32.000Z</time>
      </trkpt>
      <trkpt lat="44.00141" lon="5.9142">
        <ele>540</ele>
        <time>2020-10-05T11:03:33.000Z</time>
      </trkpt>
      <trkpt lat="44.00142" lon="5.91419">
        <ele>540</ele>
        <time>2020-10-05T11:03:34.000Z</time>
      </trkpt>
      <trkpt lat="44.00142" lon="5.91418">
        <ele>540</ele>
        <time>2020-10-05T11:03:35.000Z</time>
      </trkpt>
      <trkpt lat="44.00142" lon="5.91417">
        <ele>541</ele>
        <time>2020-10-05T11:03:36.000Z</time>
      </trkpt>
      <trkpt lat="44.00142" lon="5.91417">
        <ele>541</ele>
        <time>2020-10-05T11:03:37.000Z</time>
      </trkpt>
      <trkpt lat="44.00142" lon="5.91416">
        <ele>541</ele>
        <time>2020-10-05T11:03:38.000Z</time>
      </trkpt>
      <trkpt lat="44.00142" lon="5.91415">
        <ele>541</ele>
        <time>2020-10-05T11:03:39.000Z</time>
      </trkpt>
      <trkpt lat="44.00142" lon="5.91414">
        <ele>541</ele>
        <time>2020-10-05T11:03:40.000Z</time>
      </trkpt>
      <trkpt lat="44.00143" lon="5.91413">
        <ele>541</ele>
        <time>2020-10-05T11:03:41.000Z</time>
      </trkpt>
      <trkpt lat="44.00143" lon="5.91413">
        <ele>542</ele>
        <time>2020-10-05T11:03:42.000Z</time>
      </trkpt>
      <trkpt lat="44.00143" lon="5.91412">
        <ele>542</ele>
        <time>2020-10-05T11:03:43.000Z</time>
      </trkpt>
      <trkpt lat="44.00143" lon="5.91411">
        <ele>542</ele>
        <time>2020-10-05T11:03:44.000Z</time>
      </trkpt>
      <trkpt lat="44.00143" lon="5.9141">
        <ele>542</ele>
        <time>2020-10-05T11:03:45.000Z</time>
      </trkpt>
      <trkpt lat="44.00144" lon="5.9141">
        <ele>542</ele>
        <time>2020-10-05T11:03:46.000Z</time>
      </trkpt>
      <trkpt lat="44.00144" lon="5.91409">
        <ele>542</ele>
        <time>2020-10-05T11:03:47.000Z</time>
      </trkpt>
      <trkpt lat="44.00144" lon="5.91409">
        <ele>542</ele>
        <time>2020-10-05T11:03:48.000Z</time>
      </trkpt>
      <trkpt lat="44.00145" lon="5.91408">
        <ele>542</ele>
        <time>2020-10-05T11:03:49.000Z</time>
      </trkpt>
      <trkpt lat="44.00145" lon="5.91408">
        <ele>543</ele>
        <time>2020-10-05T11:03:50.000Z</time>
      </trkpt>
      <trkpt lat="44.00145" lon="5.91408">
        <ele>543</ele>
        <time>2020-10-05T11:03:51.000Z</time>
      </trkpt>
      <trkpt lat="44.00145" lon="5.91407">
        <ele>543</ele>
        <time>2020-10-05T11:03:52.000Z</time>
      </trkpt>
      <trkpt lat="44.00145" lon="5.91407">
        <ele>543</ele>
        <time>2020-10-05T11:03:53.000Z</time>
      </trkpt>
      <trkpt lat="44.00145" lon="5.91407">
        <ele>543</ele>
        <time>2020-10-05T11:03:54.000Z</time>
      </trkpt>
      <trkpt lat="44.00145" lon="5.91407">
        <ele>543</ele>
        <time>2020-10-05T11:03:55.000Z</time>
      </trkpt>
      <trkpt lat="44.00145" lon="5.91407">
        <ele>543</ele>
        <time>2020-10-05T11:03:56.000Z</time>
      </trkpt>
      <trkpt lat="44.00145" lon="5.91407">
        <ele>543</ele>
        <time>2020-10-05T11:03:57.000Z</time>
      </trkpt>
      <trkpt lat="44.00145" lon="5.91406">
        <ele>543</ele>
        <time>2020-10-05T11:03:58.000Z</time>
      </trkpt>
      <trkpt lat="44.00145" lon="5.91406">
        <ele>543</ele>
        <time>2020-10-05T11:03:59.000Z</time>
      </trkpt>
      <trkpt lat="44.00145" lon="5.91407">
        <ele>543</ele>
        <time>2020-10-05T11:04:00.000Z</time>
      </trkpt>
      <trkpt lat="44.00145" lon="5.91407">
        <ele>543</ele>
        <time>2020-10-05T11:04:01.000Z</time>
      </trkpt>
      <trkpt lat="44.00146" lon="5.91406">
        <ele>543</ele>
        <time>2020-10-05T11:04:02.000Z</time>
      </trkpt>
      <trkpt lat="44.00146" lon="5.91406">
        <ele>544</ele>
        <time>2020-10-05T11:04:03.000Z</time>
      </trkpt>
      <trkpt lat="44.00147" lon="5.91406">
        <ele>544</ele>
        <time>2020-10-05T11:04:04.000Z</time>
      </trkpt>
      <trkpt lat="44.00147" lon="5.91406">
        <ele>544</ele>
        <time>2020-10-05T11:04:05.000Z</time>
      </trkpt>
      <trkpt lat="44.00147" lon="5.91406">
        <ele>544</ele>
        <time>2020-10-05T11:04:06.000Z</time>
      </trkpt>
      <trkpt lat="44.00147" lon="5.91406">
        <ele>544</ele>
        <time>2020-10-05T11:04:07.000Z</time>
      </trkpt>
      <trkpt lat="44.00147" lon="5.91406">
        <ele>544</ele>
        <time>2020-10-05T11:04:08.000Z</time>
      </trkpt>
      <trkpt lat="44.00147" lon="5.91406">
        <ele>544</ele>
        <time>2020-10-05T11:04:09.000Z</time>
      </trkpt>
      <trkpt lat="44.00147" lon="5.91406">
        <ele>544</ele>
        <time>2020-10-05T11:04:10.000Z</time>
      </trkpt>
      <trkpt lat="44.00147" lon="5.91405">
        <ele>544</ele>
        <time>2020-10-05T11:04:11.000Z</time>
      </trkpt>
      <trkpt lat="44.00147" lon="5.91405">
        <ele>544</ele>
        <time>2020-10-05T11:04:12.000Z</time>
      </trkpt>
      <trkpt lat="44.00147" lon="5.91405">
        <ele>544</ele>
        <time>2020-10-05T11:04:13.000Z</time>
      </trkpt>
      <trkpt lat="44.00147" lon="5.91405">
        <ele>543</ele>
        <time>2020-10-05T11:04:14.000Z</time>
      </trkpt>
      <trkpt lat="44.00147" lon="5.91405">
        <ele>543</ele>
        <time>2020-10-05T11:04:15.000Z</time>
      </trkpt>
      <trkpt lat="44.00147" lon="5.91405">
        <ele>543</ele>
        <time>2020-10-05T11:04:16.000Z</time>
      </trkpt>
      <trkpt lat="44.00147" lon="5.91405">
        <ele>543</ele>
        <time>2020-10-05T11:04:17.000Z</time>
      </trkpt>
      <trkpt lat="44.00147" lon="5.91405">
        <ele>543</ele>
        <time>2020-10-05T11:04:18.000Z</time>
      </trkpt>
      <trkpt lat="44.00147" lon="5.91405">
        <ele>543</ele>
        <time>2020-10-05T11:04:19.000Z</time>
      </trkpt>
      <trkpt lat="44.00147" lon="5.91405">
        <ele>543</ele>
        <time>2020-10-05T11:04:20.000Z</time>
      </trkpt>
      <trkpt lat="44.00147" lon="5.91405">
        <ele>543</ele>
        <time>2020-10-05T11:04:21.000Z</time>
      </trkpt>
      <trkpt lat="44.00147" lon="5.91405">
        <ele>543</ele>
        <time>2020-10-05T11:04:22.000Z</time>
      </trkpt>
      <trkpt lat="44.00147" lon="5.91405">
        <ele>543</ele>
        <time>2020-10-05T11:04:23.000Z</time>
      </trkpt>
      <trkpt lat="44.00147" lon="5.91405">
        <ele>543</ele>
        <time>2020-10-05T11:04:24.000Z</time>
      </trkpt>
      <trkpt lat="44.00147" lon="5.91405">
        <ele>543</ele>
        <time>2020-10-05T11:04:25.000Z</time>
      </trkpt>
      <trkpt lat="44.00147" lon="5.91405">
        <ele>543</ele>
        <time>2020-10-05T11:04:26.000Z</time>
      </trkpt>
      <trkpt lat="44.00147" lon="5.91406">
        <ele>543</ele>
        <time>2020-10-05T11:04:27.000Z</time>
      </trkpt>
      <trkpt lat="44.00147" lon="5.91405">
        <ele>543</ele>
        <time>2020-10-05T11:04:28.000Z</time>
      </trkpt>
      <trkpt lat="44.00147" lon="5.91405">
        <ele>543</ele>
        <time>2020-10-05T11:04:29.000Z</time>
      </trkpt>
      <trkpt lat="44.00147" lon="5.91405">
        <ele>543</ele>
        <time>2020-10-05T11:04:30.000Z</time>
      </trkpt>
      <trkpt lat="44.00147" lon="5.91405">
        <ele>544</ele>
        <time>2020-10-05T11:04:31.000Z</time>
      </trkpt>
      <trkpt lat="44.00148" lon="5.91405">
        <ele>544</ele>
        <time>2020-10-05T11:04:32.000Z</time>
      </trkpt>
      <trkpt lat="44.00148" lon="5.91405">
        <ele>544</ele>
        <time>2020-10-05T11:04:33.000Z</time>
      </trkpt>
      <trkpt lat="44.00148" lon="5.91405">
        <ele>544</ele>
        <time>2020-10-05T11:04:34.000Z</time>
      </trkpt>
      <trkpt lat="44.00148" lon="5.91405">
        <ele>544</ele>
        <time>2020-10-05T11:04:35.000Z</time>
      </trkpt>
      <trkpt lat="44.00148" lon="5.91405">
        <ele>543</ele>
        <time>2020-10-05T11:04:36.000Z</time>
      </trkpt>
      <trkpt lat="44.00148" lon="5.91405">
        <ele>543</ele>
        <time>2020-10-05T11:04:37.000Z</time>
      </trkpt>
      <trkpt lat="44.00148" lon="5.91405">
        <ele>543</ele>
        <time>2020-10-05T11:04:38.000Z</time>
      </trkpt>
      <trkpt lat="44.00148" lon="5.91405">
        <ele>543</ele>
        <time>2020-10-05T11:04:39.000Z</time>
      </trkpt>
      <trkpt lat="44.00148" lon="5.91405">
        <ele>543</ele>
        <time>2020-10-05T11:04:40.000Z</time>
      </trkpt>
      <trkpt lat="44.00148" lon="5.91405">
        <ele>543</ele>
        <time>2020-10-05T11:04:41.000Z</time>
      </trkpt>
      <trkpt lat="44.00148" lon="5.91405">
        <ele>543</ele>
        <time>2020-10-05T11:04:42.000Z</time>
      </trkpt>
      <trkpt lat="44.00148" lon="5.91405">
        <ele>544</ele>
        <time>2020-10-05T11:04:43.000Z</time>
      </trkpt>
      <trkpt lat="44.00148" lon="5.91405">
        <ele>544</ele>
        <time>2020-10-05T11:04:44.000Z</time>
      </trkpt>
      <trkpt lat="44.00148" lon="5.91406">
        <ele>544</ele>
        <time>2020-10-05T11:04:45.000Z</time>
      </trkpt>
      <trkpt lat="44.00148" lon="5.91406">
        <ele>544</ele>
        <time>2020-10-05T11:04:46.000Z</time>
      </trkpt>
      <trkpt lat="44.00148" lon="5.91406">
        <ele>544</ele>
        <time>2020-10-05T11:04:47.000Z</time>
      </trkpt>
      <trkpt lat="44.00148" lon="5.91406">
        <ele>544</ele>
        <time>2020-10-05T11:04:48.000Z</time>
      </trkpt>
      <trkpt lat="44.00148" lon="5.91407">
        <ele>544</ele>
        <time>2020-10-05T11:04:49.000Z</time>
      </trkpt>
      <trkpt lat="44.00148" lon="5.91407">
        <ele>545</ele>
        <time>2020-10-05T11:04:50.000Z</time>
      </trkpt>
      <trkpt lat="44.00148" lon="5.91407">
        <ele>545</ele>
        <time>2020-10-05T11:04:51.000Z</time>
      </trkpt>
      <trkpt lat="44.00148" lon="5.91407">
        <ele>545</ele>
        <time>2020-10-05T11:04:52.000Z</time>
      </trkpt>
      <trkpt lat="44.00148" lon="5.91407">
        <ele>545</ele>
        <time>2020-10-05T11:04:53.000Z</time>
      </trkpt>
      <trkpt lat="44.00149" lon="5.91407">
        <ele>545</ele>
        <time>2020-10-05T11:04:54.000Z</time>
      </trkpt>
      <trkpt lat="44.00149" lon="5.91407">
        <ele>545</ele>
        <time>2020-10-05T11:04:55.000Z</time>
      </trkpt>
      <trkpt lat="44.00149" lon="5.91407">
        <ele>545</ele>
        <time>2020-10-05T11:04:56.000Z</time>
      </trkpt>
      <trkpt lat="44.00149" lon="5.91407">
        <ele>545</ele>
        <time>2020-10-05T11:04:57.000Z</time>
      </trkpt>
      <trkpt lat="44.00149" lon="5.91408">
        <ele>545</ele>
        <time>2020-10-05T11:04:58.000Z</time>
      </trkpt>
      <trkpt lat="44.00149" lon="5.91408">
        <ele>545</ele>
        <time>2020-10-05T11:04:59.000Z</time>
      </trkpt>
      <trkpt lat="44.00149" lon="5.91408">
        <ele>545</ele>
        <time>2020-10-05T11:05:00.000Z</time>
      </trkpt>
      <trkpt lat="44.00149" lon="5.91408">
        <ele>545</ele>
        <time>2020-10-05T11:05:01.000Z</time>
      </trkpt>
      <trkpt lat="44.00149" lon="5.91408">
        <ele>545</ele>
        <time>2020-10-05T11:05:02.000Z</time>
      </trkpt>
      <trkpt lat="44.00149" lon="5.91408">
        <ele>545</ele>
        <time>2020-10-05T11:05:03.000Z</time>
      </trkpt>
      <trkpt lat="44.00149" lon="5.91408">
        <ele>545</ele>
        <time>2020-10-05T11:05:04.000Z</time>
      </trkpt>
      <trkpt lat="44.00149" lon="5.91408">
        <ele>545</ele>
        <time>2020-10-05T11:05:05.000Z</time>
      </trkpt>
      <trkpt lat="44.00149" lon="5.91408">
        <ele>546</ele>
        <time>2020-10-05T11:05:06.000Z</time>
      </trkpt>
      <trkpt lat="44.00149" lon="5.91408">
        <ele>546</ele>
        <time>2020-10-05T11:05:07.000Z</time>
      </trkpt>
      <trkpt lat="44.00149" lon="5.91408">
        <ele>546</ele>
        <time>2020-10-05T11:05:08.000Z</time>
      </trkpt>
      <trkpt lat="44.00149" lon="5.91408">
        <ele>546</ele>
        <time>2020-10-05T11:05:09.000Z</time>
      </trkpt>
      <trkpt lat="44.00149" lon="5.91408">
        <ele>546</ele>
        <time>2020-10-05T11:05:10.000Z</time>
      </trkpt>
      <trkpt lat="44.00149" lon="5.91408">
        <ele>546</ele>
        <time>2020-10-05T11:05:11.000Z</time>
      </trkpt>
      <trkpt lat="44.00149" lon="5.91408">
        <ele>546</ele>
        <time>2020-10-05T11:05:12.000Z</time>
      </trkpt>
      <trkpt lat="44.00149" lon="5.91408">
        <ele>546</ele>
        <time>2020-10-05T11:05:13.000Z</time>
      </trkpt>
      <trkpt lat="44.00149" lon="5.91408">
        <ele>546</ele>
        <time>2020-10-05T11:05:14.000Z</time>
      </trkpt>
      <trkpt lat="44.00149" lon="5.91408">
        <ele>546</ele>
        <time>2020-10-05T11:05:15.000Z</time>
      </trkpt>
      <trkpt lat="44.00149" lon="5.91408">
        <ele>546</ele>
        <time>2020-10-05T11:05:16.000Z</time>
      </trkpt>
      <trkpt lat="44.00149" lon="5.91409">
        <ele>546</ele>
        <time>2020-10-05T11:05:17.000Z</time>
      </trkpt>
      <trkpt lat="44.00149" lon="5.91408">
        <ele>546</ele>
        <time>2020-10-05T11:05:18.000Z</time>
      </trkpt>
      <trkpt lat="44.00149" lon="5.91408">
        <ele>546</ele>
        <time>2020-10-05T11:05:19.000Z</time>
      </trkpt>
      <trkpt lat="44.00149" lon="5.91408">
        <ele>546</ele>
        <time>2020-10-05T11:05:20.000Z</time>
      </trkpt>
      <trkpt lat="44.00149" lon="5.91408">
        <ele>546</ele>
        <time>2020-10-05T11:05:21.000Z</time>
      </trkpt>
      <trkpt lat="44.00149" lon="5.91408">
        <ele>546</ele>
        <time>2020-10-05T11:05:22.000Z</time>
      </trkpt>
      <trkpt lat="44.00149" lon="5.91408">
        <ele>547</ele>
        <time>2020-10-05T11:05:23.000Z</time>
      </trkpt>
      <trkpt lat="44.00149" lon="5.91408">
        <ele>547</ele>
        <time>2020-10-05T11:05:24.000Z</time>
      </trkpt>
      <trkpt lat="44.00149" lon="5.91408">
        <ele>547</ele>
        <time>2020-10-05T11:05:25.000Z</time>
      </trkpt>
      <trkpt lat="44.0015" lon="5.91408">
        <ele>547</ele>
        <time>2020-10-05T11:05:26.000Z</time>
      </trkpt>
      <trkpt lat="44.0015" lon="5.91408">
        <ele>547</ele>
        <time>2020-10-05T11:05:27.000Z</time>
      </trkpt>
      <trkpt lat="44.0015" lon="5.91408">
        <ele>547</ele>
        <time>2020-10-05T11:05:28.000Z</time>
      </trkpt>
      <trkpt lat="44.0015" lon="5.91408">
        <ele>547</ele>
        <time>2020-10-05T11:05:29.000Z</time>
      </trkpt>
      <trkpt lat="44.0015" lon="5.91408">
        <ele>547</ele>
        <time>2020-10-05T11:05:30.000Z</time>
      </trkpt>
      <trkpt lat="44.0015" lon="5.91408">
        <ele>547</ele>
        <time>2020-10-05T11:05:31.000Z</time>
      </trkpt>
      <trkpt lat="44.0015" lon="5.91408">
        <ele>547</ele>
        <time>2020-10-05T11:05:32.000Z</time>
      </trkpt>
      <trkpt lat="44.0015" lon="5.91408">
        <ele>547</ele>
        <time>2020-10-05T11:05:33.000Z</time>
      </trkpt>
      <trkpt lat="44.0015" lon="5.91408">
        <ele>547</ele>
        <time>2020-10-05T11:05:34.000Z</time>
      </trkpt>
      <trkpt lat="44.0015" lon="5.91408">
        <ele>547</ele>
        <time>2020-10-05T11:05:35.000Z</time>
      </trkpt>
      <trkpt lat="44.0015" lon="5.91408">
        <ele>547</ele>
        <time>2020-10-05T11:05:36.000Z</time>
      </trkpt>
      <trkpt lat="44.0015" lon="5.91408">
        <ele>547</ele>
        <time>2020-10-05T11:05:37.000Z</time>
      </trkpt>
      <trkpt lat="44.0015" lon="5.91408">
        <ele>547</ele>
        <time>2020-10-05T11:05:38.000Z</time>
      </trkpt>
      <trkpt lat="44.0015" lon="5.91408">
        <ele>547</ele>
        <time>2020-10-05T11:05:39.000Z</time>
      </trkpt>
      <trkpt lat="44.0015" lon="5.91408">
        <ele>547</ele>
        <time>2020-10-05T11:05:40.000Z</time>
      </trkpt>
      <trkpt lat="44.0015" lon="5.91408">
        <ele>547</ele>
        <time>2020-10-05T11:05:41.000Z</time>
      </trkpt>
      <trkpt lat="44.0015" lon="5.91408">
        <ele>547</ele>
        <time>2020-10-05T11:05:42.000Z</time>
      </trkpt>
      <trkpt lat="44.0015" lon="5.91408">
        <ele>547</ele>
        <time>2020-10-05T11:05:43.000Z</time>
      </trkpt>
      <trkpt lat="44.0015" lon="5.91408">
        <ele>547</ele>
        <time>2020-10-05T11:05:44.000Z</time>
      </trkpt>
      <trkpt lat="44.0015" lon="5.91408">
        <ele>547</ele>
        <time>2020-10-05T11:05:45.000Z</time>
      </trkpt>
      <trkpt lat="44.0015" lon="5.91408">
        <ele>547</ele>
        <time>2020-10-05T11:05:46.000Z</time>
      </trkpt>
      <trkpt lat="44.0015" lon="5.91408">
        <ele>547</ele>
        <time>2020-10-05T11:05:47.000Z</time>
      </trkpt>
      <trkpt lat="44.0015" lon="5.91408">
        <ele>547</ele>
        <time>2020-10-05T11:05:48.000Z</time>
      </trkpt>
      <trkpt lat="44.0015" lon="5.91407">
        <ele>547</ele>
        <time>2020-10-05T11:05:49.000Z</time>
      </trkpt>
      <trkpt lat="44.0015" lon="5.91407">
        <ele>547</ele>
        <time>2020-10-05T11:05:50.000Z</time>
      </trkpt>
      <trkpt lat="44.0015" lon="5.91407">
        <ele>547</ele>
        <time>2020-10-05T11:05:51.000Z</time>
      </trkpt>
      <trkpt lat="44.0015" lon="5.91407">
        <ele>547</ele>
        <time>2020-10-05T11:05:52.000Z</time>
      </trkpt>
      <trkpt lat="44.0015" lon="5.91407">
        <ele>547</ele>
        <time>2020-10-05T11:05:53.000Z</time>
      </trkpt>
      <trkpt lat="44.0015" lon="5.91407">
        <ele>547</ele>
        <time>2020-10-05T11:05:54.000Z</time>
      </trkpt>
      <trkpt lat="44.0015" lon="5.91407">
        <ele>547</ele>
        <time>2020-10-05T11:05:55.000Z</time>
      </trkpt>
      <trkpt lat="44.0015" lon="5.91407">
        <ele>547</ele>
        <time>2020-10-05T11:05:56.000Z</time>
      </trkpt>
      <trkpt lat="44.0015" lon="5.91407">
        <ele>547</ele>
        <time>2020-10-05T11:05:57.000Z</time>
      </trkpt>
      <trkpt lat="44.0015" lon="5.91407">
        <ele>547</ele>
        <time>2020-10-05T11:05:58.000Z</time>
      </trkpt>
      <trkpt lat="44.0015" lon="5.91407">
        <ele>547</ele>
        <time>2020-10-05T11:05:59.000Z</time>
      </trkpt>
      <trkpt lat="44.0015" lon="5.91407">
        <ele>547</ele>
        <time>2020-10-05T11:06:00.000Z</time>
      </trkpt>
      <trkpt lat="44.0015" lon="5.91407">
        <ele>547</ele>
        <time>2020-10-05T11:06:01.000Z</time>
      </trkpt>
      <trkpt lat="44.0015" lon="5.91407">
        <ele>547</ele>
        <time>2020-10-05T11:06:02.000Z</time>
      </trkpt>
      <trkpt lat="44.0015" lon="5.91407">
        <ele>547</ele>
        <time>2020-10-05T11:06:03.000Z</time>
      </trkpt>
      <trkpt lat="44.0015" lon="5.91407">
        <ele>547</ele>
        <time>2020-10-05T11:06:04.000Z</time>
      </trkpt>
      <trkpt lat="44.0015" lon="5.91407">
        <ele>547</ele>
        <time>2020-10-05T11:06:05.000Z</time>
      </trkpt>
      <trkpt lat="44.0015" lon="5.91407">
        <ele>547</ele>
        <time>2020-10-05T11:06:06.000Z</time>
      </trkpt>
      <trkpt lat="44.0015" lon="5.91407">
        <ele>547</ele>
        <time>2020-10-05T11:06:07.000Z</time>
      </trkpt>
      <trkpt lat="44.0015" lon="5.91407">
        <ele>547</ele>
        <time>2020-10-05T11:06:08.000Z</time>
      </trkpt>
      <trkpt lat="44.0015" lon="5.91407">
        <ele>547</ele>
        <time>2020-10-05T11:06:09.000Z</time>
      </trkpt>
      <trkpt lat="44.0015" lon="5.91407">
        <ele>546</ele>
        <time>2020-10-05T11:06:10.000Z</time>
      </trkpt>
      <trkpt lat="44.0015" lon="5.91407">
        <ele>546</ele>
        <time>2020-10-05T11:06:11.000Z</time>
      </trkpt>
      <trkpt lat="44.0015" lon="5.91407">
        <ele>546</ele>
        <time>2020-10-05T11:06:12.000Z</time>
      </trkpt>
      <trkpt lat="44.0015" lon="5.91407">
        <ele>546</ele>
        <time>2020-10-05T11:06:13.000Z</time>
      </trkpt>
      <trkpt lat="44.0015" lon="5.91407">
        <ele>546</ele>
        <time>2020-10-05T11:06:14.000Z</time>
      </trkpt>
      <trkpt lat="44.0015" lon="5.91406">
        <ele>546</ele>
        <time>2020-10-05T11:06:15.000Z</time>
      </trkpt>
      <trkpt lat="44.0015" lon="5.91406">
        <ele>546</ele>
        <time>2020-10-05T11:06:16.000Z</time>
      </trkpt>
      <trkpt lat="44.0015" lon="5.91406">
        <ele>546</ele>
        <time>2020-10-05T11:06:17.000Z</time>
      </trkpt>
      <trkpt lat="44.00149" lon="5.91406">
        <ele>546</ele>
        <time>2020-10-05T11:06:18.000Z</time>
      </trkpt>
      <trkpt lat="44.00149" lon="5.91406">
        <ele>546</ele>
        <time>2020-10-05T11:06:19.000Z</time>
      </trkpt>
      <trkpt lat="44.00149" lon="5.91406">
        <ele>546</ele>
        <time>2020-10-05T11:06:20.000Z</time>
      </trkpt>
      <trkpt lat="44.00149" lon="5.91406">
        <ele>546</ele>
        <time>2020-10-05T11:06:21.000Z</time>
      </trkpt>
      <trkpt lat="44.00149" lon="5.91406">
        <ele>546</ele>
        <time>2020-10-05T11:06:22.000Z</time>
      </trkpt>
      <trkpt lat="44.00149" lon="5.91406">
        <ele>546</ele>
        <time>2020-10-05T11:06:23.000Z</time>
      </trkpt>
      <trkpt lat="44.00149" lon="5.91406">
        <ele>546</ele>
        <time>2020-10-05T11:06:24.000Z</time>
      </trkpt>
      <trkpt lat="44.00149" lon="5.91405">
        <ele>546</ele>
        <time>2020-10-05T11:06:25.000Z</time>
      </trkpt>
      <trkpt lat="44.00149" lon="5.91405">
        <ele>546</ele>
        <time>2020-10-05T11:06:26.000Z</time>
      </trkpt>
      <trkpt lat="44.00149" lon="5.91405">
        <ele>546</ele>
        <time>2020-10-05T11:06:27.000Z</time>
      </trkpt>
      <trkpt lat="44.00149" lon="5.91405">
        <ele>545</ele>
        <time>2020-10-05T11:06:28.000Z</time>
      </trkpt>
      <trkpt lat="44.00149" lon="5.91405">
        <ele>545</ele>
        <time>2020-10-05T11:06:29.000Z</time>
      </trkpt>
      <trkpt lat="44.00149" lon="5.91405">
        <ele>545</ele>
        <time>2020-10-05T11:06:30.000Z</time>
      </trkpt>
      <trkpt lat="44.00149" lon="5.91404">
        <ele>545</ele>
        <time>2020-10-05T11:06:31.000Z</time>
      </trkpt>
      <trkpt lat="44.00149" lon="5.91404">
        <ele>545</ele>
        <time>2020-10-05T11:06:32.000Z</time>
      </trkpt>
      <trkpt lat="44.00149" lon="5.91404">
        <ele>545</ele>
        <time>2020-10-05T11:06:33.000Z</time>
      </trkpt>
      <trkpt lat="44.00149" lon="5.91404">
        <ele>545</ele>
        <time>2020-10-05T11:06:34.000Z</time>
      </trkpt>
      <trkpt lat="44.00148" lon="5.91404">
        <ele>545</ele>
        <time>2020-10-05T11:06:35.000Z</time>
      </trkpt>
      <trkpt lat="44.00148" lon="5.91404">
        <ele>545</ele>
        <time>2020-10-05T11:06:36.000Z</time>
      </trkpt>
      <trkpt lat="44.00149" lon="5.91404">
        <ele>545</ele>
        <time>2020-10-05T11:06:37.000Z</time>
      </trkpt>
      <trkpt lat="44.00149" lon="5.91403">
        <ele>545</ele>
        <time>2020-10-05T11:06:38.000Z</time>
      </trkpt>
      <trkpt lat="44.00149" lon="5.91403">
        <ele>545</ele>
        <time>2020-10-05T11:06:39.000Z</time>
      </trkpt>
      <trkpt lat="44.0015" lon="5.91402">
        <ele>545</ele>
        <time>2020-10-05T11:06:40.000Z</time>
      </trkpt>
      <trkpt lat="44.0015" lon="5.91402">
        <ele>545</ele>
        <time>2020-10-05T11:06:41.000Z</time>
      </trkpt>
      <trkpt lat="44.0015" lon="5.91402">
        <ele>545</ele>
        <time>2020-10-05T11:06:42.000Z</time>
      </trkpt>
      <trkpt lat="44.0015" lon="5.91402">
        <ele>545</ele>
        <time>2020-10-05T11:06:43.000Z</time>
      </trkpt>
      <trkpt lat="44.00149" lon="5.91402">
        <ele>545</ele>
        <time>2020-10-05T11:06:44.000Z</time>
      </trkpt>
      <trkpt lat="44.00149" lon="5.91402">
        <ele>545</ele>
        <time>2020-10-05T11:06:45.000Z</time>
      </trkpt>
      <trkpt lat="44.00149" lon="5.91402">
        <ele>545</ele>
        <time>2020-10-05T11:06:46.000Z</time>
      </trkpt>
      <trkpt lat="44.00149" lon="5.91402">
        <ele>545</ele>
        <time>2020-10-05T11:06:47.000Z</time>
      </trkpt>
      <trkpt lat="44.00149" lon="5.91402">
        <ele>545</ele>
        <time>2020-10-05T11:06:48.000Z</time>
      </trkpt>
      <trkpt lat="44.00149" lon="5.91403">
        <ele>545</ele>
        <time>2020-10-05T11:06:49.000Z</time>
      </trkpt>
      <trkpt lat="44.00149" lon="5.91403">
        <ele>545</ele>
        <time>2020-10-05T11:06:50.000Z</time>
      </trkpt>
      <trkpt lat="44.00149" lon="5.91403">
        <ele>545</ele>
        <time>2020-10-05T11:06:51.000Z</time>
      </trkpt>
      <trkpt lat="44.00149" lon="5.91403">
        <ele>545</ele>
        <time>2020-10-05T11:06:52.000Z</time>
      </trkpt>
      <trkpt lat="44.00149" lon="5.91403">
        <ele>545</ele>
        <time>2020-10-05T11:06:53.000Z</time>
      </trkpt>
      <trkpt lat="44.00149" lon="5.91403">
        <ele>545</ele>
        <time>2020-10-05T11:06:54.000Z</time>
      </trkpt>
      <trkpt lat="44.00149" lon="5.91403">
        <ele>545</ele>
        <time>2020-10-05T11:06:55.000Z</time>
      </trkpt>
      <trkpt lat="44.00149" lon="5.91403">
        <ele>545</ele>
        <time>2020-10-05T11:06:56.000Z</time>
      </trkpt>
      <trkpt lat="44.00149" lon="5.91403">
        <ele>545</ele>
        <time>2020-10-05T11:06:57.000Z</time>
      </trkpt>
      <trkpt lat="44.00149" lon="5.91403">
        <ele>545</ele>
        <time>2020-10-05T11:06:58.000Z</time>
      </trkpt>
      <trkpt lat="44.00149" lon="5.91403">
        <ele>545</ele>
        <time>2020-10-05T11:06:59.000Z</time>
      </trkpt>
      <trkpt lat="44.00149" lon="5.91403">
        <ele>545</ele>
        <time>2020-10-05T11:07:00.000Z</time>
      </trkpt>
      <trkpt lat="44.00149" lon="5.91403">
        <ele>545</ele>
        <time>2020-10-05T11:07:01.000Z</time>
      </trkpt>
      <trkpt lat="44.00149" lon="5.91403">
        <ele>545</ele>
        <time>2020-10-05T11:07:02.000Z</time>
      </trkpt>
      <trkpt lat="44.00149" lon="5.91403">
        <ele>545</ele>
        <time>2020-10-05T11:07:03.000Z</time>
      </trkpt>
      <trkpt lat="44.00148" lon="5.91403">
        <ele>545</ele>
        <time>2020-10-05T11:07:04.000Z</time>
      </trkpt>
      <trkpt lat="44.00148" lon="5.91403">
        <ele>545</ele>
        <time>2020-10-05T11:07:05.000Z</time>
      </trkpt>
      <trkpt lat="44.00148" lon="5.91403">
        <ele>545</ele>
        <time>2020-10-05T11:07:06.000Z</time>
      </trkpt>
      <trkpt lat="44.00149" lon="5.91403">
        <ele>545</ele>
        <time>2020-10-05T11:07:07.000Z</time>
      </trkpt>
      <trkpt lat="44.00149" lon="5.91403">
        <ele>545</ele>
        <time>2020-10-05T11:07:08.000Z</time>
      </trkpt>
      <trkpt lat="44.00149" lon="5.91403">
        <ele>545</ele>
        <time>2020-10-05T11:07:09.000Z</time>
      </trkpt>
      <trkpt lat="44.00149" lon="5.91403">
        <ele>545</ele>
        <time>2020-10-05T11:07:10.000Z</time>
      </trkpt>
      <trkpt lat="44.00149" lon="5.91404">
        <ele>545</ele>
        <time>2020-10-05T11:07:11.000Z</time>
      </trkpt>
      <trkpt lat="44.00149" lon="5.91404">
        <ele>545</ele>
        <time>2020-10-05T11:07:12.000Z</time>
      </trkpt>
      <trkpt lat="44.00149" lon="5.91404">
        <ele>545</ele>
        <time>2020-10-05T11:07:13.000Z</time>
      </trkpt>
      <trkpt lat="44.00149" lon="5.91404">
        <ele>545</ele>
        <time>2020-10-05T11:07:14.000Z</time>
      </trkpt>
      <trkpt lat="44.00149" lon="5.91404">
        <ele>545</ele>
        <time>2020-10-05T11:07:15.000Z</time>
      </trkpt>
      <trkpt lat="44.00149" lon="5.91404">
        <ele>545</ele>
        <time>2020-10-05T11:07:16.000Z</time>
      </trkpt>
      <trkpt lat="44.00149" lon="5.91404">
        <ele>545</ele>
        <time>2020-10-05T11:07:17.000Z</time>
      </trkpt>
      <trkpt lat="44.00149" lon="5.91404">
        <ele>545</ele>
        <time>2020-10-05T11:07:18.000Z</time>
      </trkpt>
      <trkpt lat="44.00149" lon="5.91404">
        <ele>545</ele>
        <time>2020-10-05T11:07:19.000Z</time>
      </trkpt>
      <trkpt lat="44.00149" lon="5.91404">
        <ele>545</ele>
        <time>2020-10-05T11:07:20.000Z</time>
      </trkpt>
      <trkpt lat="44.00149" lon="5.91404">
        <ele>545</ele>
        <time>2020-10-05T11:07:21.000Z</time>
      </trkpt>
      <trkpt lat="44.00148" lon="5.91404">
        <ele>545</ele>
        <time>2020-10-05T11:07:22.000Z</time>
      </trkpt>
      <trkpt lat="44.00148" lon="5.91404">
        <ele>545</ele>
        <time>2020-10-05T11:07:23.000Z</time>
      </trkpt>
      <trkpt lat="44.00148" lon="5.91404">
        <ele>545</ele>
        <time>2020-10-05T11:07:24.000Z</time>
      </trkpt>
      <trkpt lat="44.00148" lon="5.91404">
        <ele>545</ele>
        <time>2020-10-05T11:07:25.000Z</time>
      </trkpt>
      <trkpt lat="44.00148" lon="5.91404">
        <ele>545</ele>
        <time>2020-10-05T11:07:26.000Z</time>
      </trkpt>
      <trkpt lat="44.00148" lon="5.91404">
        <ele>545</ele>
        <time>2020-10-05T11:07:27.000Z</time>
      </trkpt>
      <trkpt lat="44.00149" lon="5.91404">
        <ele>545</ele>
        <time>2020-10-05T11:07:28.000Z</time>
      </trkpt>
      <trkpt lat="44.00149" lon="5.91404">
        <ele>545</ele>
        <time>2020-10-05T11:07:29.000Z</time>
      </trkpt>
      <trkpt lat="44.00149" lon="5.91404">
        <ele>545</ele>
        <time>2020-10-05T11:07:30.000Z</time>
      </trkpt>
      <trkpt lat="44.00149" lon="5.91404">
        <ele>545</ele>
        <time>2020-10-05T11:07:31.000Z</time>
      </trkpt>
      <trkpt lat="44.00149" lon="5.91404">
        <ele>545</ele>
        <time>2020-10-05T11:07:32.000Z</time>
      </trkpt>
      <trkpt lat="44.00149" lon="5.91404">
        <ele>545</ele>
        <time>2020-10-05T11:07:33.000Z</time>
      </trkpt>
      <trkpt lat="44.00149" lon="5.91404">
        <ele>545</ele>
        <time>2020-10-05T11:07:34.000Z</time>
      </trkpt>
      <trkpt lat="44.00149" lon="5.91404">
        <ele>545</ele>
        <time>2020-10-05T11:07:35.000Z</time>
      </trkpt>
      <trkpt lat="44.00149" lon="5.91404">
        <ele>545</ele>
        <time>2020-10-05T11:07:36.000Z</time>
      </trkpt>
      <trkpt lat="44.00149" lon="5.91404">
        <ele>545</ele>
        <time>2020-10-05T11:07:37.000Z</time>
      </trkpt>
      <trkpt lat="44.00149" lon="5.91404">
        <ele>545</ele>
        <time>2020-10-05T11:07:38.000Z</time>
      </trkpt>
      <trkpt lat="44.00149" lon="5.91404">
        <ele>545</ele>
        <time>2020-10-05T11:07:39.000Z</time>
      </trkpt>
      <trkpt lat="44.00149" lon="5.91404">
        <ele>545</ele>
        <time>2020-10-05T11:07:40.000Z</time>
      </trkpt>
      <trkpt lat="44.00149" lon="5.91404">
        <ele>545</ele>
        <time>2020-10-05T11:07:41.000Z</time>
      </trkpt>
      <trkpt lat="44.00149" lon="5.91404">
        <ele>545</ele>
        <time>2020-10-05T11:07:42.000Z</time>
      </trkpt>
      <trkpt lat="44.00149" lon="5.91404">
        <ele>545</ele>
        <time>2020-10-05T11:07:43.000Z</time>
      </trkpt>
      <trkpt lat="44.00149" lon="5.91404">
        <ele>545</ele>
        <time>2020-10-05T11:07:44.000Z</time>
      </trkpt>
      <trkpt lat="44.00149" lon="5.91404">
        <ele>545</ele>
        <time>2020-10-05T11:07:45.000Z</time>
      </trkpt>
      <trkpt lat="44.00149" lon="5.91404">
        <ele>545</ele>
        <time>2020-10-05T11:07:46.000Z</time>
      </trkpt>
      <trkpt lat="44.00149" lon="5.91404">
        <ele>545</ele>
        <time>2020-10-05T11:07:47.000Z</time>
      </trkpt>
      <trkpt lat="44.00148" lon="5.91404">
        <ele>545</ele>
        <time>2020-10-05T11:07:48.000Z</time>
      </trkpt>
      <trkpt lat="44.00148" lon="5.91404">
        <ele>545</ele>
        <time>2020-10-05T11:07:49.000Z</time>
      </trkpt>
      <trkpt lat="44.00148" lon="5.91403">
        <ele>545</ele>
        <time>2020-10-05T11:07:50.000Z</time>
      </trkpt>
      <trkpt lat="44.00148" lon="5.91403">
        <ele>545</ele>
        <time>2020-10-05T11:07:51.000Z</time>
      </trkpt>
      <trkpt lat="44.00148" lon="5.91403">
        <ele>545</ele>
        <time>2020-10-05T11:07:52.000Z</time>
      </trkpt>
      <trkpt lat="44.00148" lon="5.91403">
        <ele>545</ele>
        <time>2020-10-05T11:07:53.000Z</time>
      </trkpt>
      <trkpt lat="44.00148" lon="5.91403">
        <ele>545</ele>
        <time>2020-10-05T11:07:54.000Z</time>
      </trkpt>
      <trkpt lat="44.00148" lon="5.91403">
        <ele>545</ele>
        <time>2020-10-05T11:07:55.000Z</time>
      </trkpt>
      <trkpt lat="44.00148" lon="5.91403">
        <ele>545</ele>
        <time>2020-10-05T11:07:56.000Z</time>
      </trkpt>
      <trkpt lat="44.00148" lon="5.91403">
        <ele>545</ele>
        <time>2020-10-05T11:07:57.000Z</time>
      </trkpt>
      <trkpt lat="44.00148" lon="5.91403">
        <ele>545</ele>
        <time>2020-10-05T11:07:58.000Z</time>
      </trkpt>
      <trkpt lat="44.00148" lon="5.91403">
        <ele>545</ele>
        <time>2020-10-05T11:07:59.000Z</time>
      </trkpt>
      <trkpt lat="44.00148" lon="5.91403">
        <ele>545</ele>
        <time>2020-10-05T11:08:00.000Z</time>
      </trkpt>
      <trkpt lat="44.00148" lon="5.91403">
        <ele>545</ele>
        <time>2020-10-05T11:08:01.000Z</time>
      </trkpt>
      <trkpt lat="44.00148" lon="5.91403">
        <ele>545</ele>
        <time>2020-10-05T11:08:02.000Z</time>
      </trkpt>
      <trkpt lat="44.00148" lon="5.91403">
        <ele>545</ele>
        <time>2020-10-05T11:08:03.000Z</time>
      </trkpt>
      <trkpt lat="44.00148" lon="5.91403">
        <ele>545</ele>
        <time>2020-10-05T11:08:04.000Z</time>
      </trkpt>
      <trkpt lat="44.00148" lon="5.91403">
        <ele>545</ele>
        <time>2020-10-05T11:08:05.000Z</time>
      </trkpt>
      <trkpt lat="44.00148" lon="5.91403">
        <ele>545</ele>
        <time>2020-10-05T11:08:06.000Z</time>
      </trkpt>
      <trkpt lat="44.00148" lon="5.91403">
        <ele>545</ele>
        <time>2020-10-05T11:08:07.000Z</time>
      </trkpt>
      <trkpt lat="44.00148" lon="5.91403">
        <ele>545</ele>
        <time>2020-10-05T11:08:08.000Z</time>
      </trkpt>
      <trkpt lat="44.00148" lon="5.91403">
        <ele>545</ele>
        <time>2020-10-05T11:08:09.000Z</time>
      </trkpt>
      <trkpt lat="44.00148" lon="5.91403">
        <ele>545</ele>
        <time>2020-10-05T11:08:10.000Z</time>
      </trkpt>
      <trkpt lat="44.00148" lon="5.91403">
        <ele>545</ele>
        <time>2020-10-05T11:08:11.000Z</time>
      </trkpt>
      <trkpt lat="44.00148" lon="5.91403">
        <ele>545</ele>
        <time>2020-10-05T11:08:12.000Z</time>
      </trkpt>
      <trkpt lat="44.00148" lon="5.91403">
        <ele>545</ele>
        <time>2020-10-05T11:08:13.000Z</time>
      </trkpt>
      <trkpt lat="44.00148" lon="5.91403">
        <ele>545</ele>
        <time>2020-10-05T11:08:14.000Z</time>
      </trkpt>
      <trkpt lat="44.00148" lon="5.91402">
        <ele>545</ele>
        <time>2020-10-05T11:08:15.000Z</time>
      </trkpt>
      <trkpt lat="44.00148" lon="5.91402">
        <ele>545</ele>
        <time>2020-10-05T11:08:16.000Z</time>
      </trkpt>
      <trkpt lat="44.00148" lon="5.91401">
        <ele>545</ele>
        <time>2020-10-05T11:08:17.000Z</time>
      </trkpt>
      <trkpt lat="44.00149" lon="5.914">
        <ele>545</ele>
        <time>2020-10-05T11:08:18.000Z</time>
      </trkpt>
      <trkpt lat="44.00149" lon="5.91399">
        <ele>545</ele>
        <time>2020-10-05T11:08:19.000Z</time>
      </trkpt>
      <trkpt lat="44.0015" lon="5.91398">
        <ele>545</ele>
        <time>2020-10-05T11:08:20.000Z</time>
      </trkpt>
      <trkpt lat="44.0015" lon="5.91397">
        <ele>546</ele>
        <time>2020-10-05T11:08:21.000Z</time>
      </trkpt>
      <trkpt lat="44.00151" lon="5.91396">
        <ele>546</ele>
        <time>2020-10-05T11:08:22.000Z</time>
      </trkpt>
      <trkpt lat="44.00151" lon="5.91395">
        <ele>546</ele>
        <time>2020-10-05T11:08:23.000Z</time>
      </trkpt>
      <trkpt lat="44.00152" lon="5.91394">
        <ele>546</ele>
        <time>2020-10-05T11:08:24.000Z</time>
      </trkpt>
      <trkpt lat="44.00152" lon="5.91394">
        <ele>546</ele>
        <time>2020-10-05T11:08:25.000Z</time>
      </trkpt>
      <trkpt lat="44.00153" lon="5.91393">
        <ele>546</ele>
        <time>2020-10-05T11:08:26.000Z</time>
      </trkpt>
      <trkpt lat="44.00154" lon="5.91392">
        <ele>546</ele>
        <time>2020-10-05T11:08:27.000Z</time>
      </trkpt>
      <trkpt lat="44.00154" lon="5.91391">
        <ele>546</ele>
        <time>2020-10-05T11:08:28.000Z</time>
      </trkpt>
      <trkpt lat="44.00155" lon="5.9139">
        <ele>546</ele>
        <time>2020-10-05T11:08:29.000Z</time>
      </trkpt>
      <trkpt lat="44.00155" lon="5.91389">
        <ele>546</ele>
        <time>2020-10-05T11:08:30.000Z</time>
      </trkpt>
      <trkpt lat="44.00156" lon="5.91388">
        <ele>546</ele>
        <time>2020-10-05T11:08:31.000Z</time>
      </trkpt>
      <trkpt lat="44.00157" lon="5.91387">
        <ele>546</ele>
        <time>2020-10-05T11:08:32.000Z</time>
      </trkpt>
      <trkpt lat="44.00157" lon="5.91386">
        <ele>546</ele>
        <time>2020-10-05T11:08:33.000Z</time>
      </trkpt>
      <trkpt lat="44.00158" lon="5.91385">
        <ele>546</ele>
        <time>2020-10-05T11:08:34.000Z</time>
      </trkpt>
      <trkpt lat="44.00158" lon="5.91384">
        <ele>546</ele>
        <time>2020-10-05T11:08:35.000Z</time>
      </trkpt>
      <trkpt lat="44.00158" lon="5.91383">
        <ele>546</ele>
        <time>2020-10-05T11:08:36.000Z</time>
      </trkpt>
      <trkpt lat="44.00159" lon="5.91381">
        <ele>546</ele>
        <time>2020-10-05T11:08:37.000Z</time>
      </trkpt>
      <trkpt lat="44.0016" lon="5.9138">
        <ele>546</ele>
        <time>2020-10-05T11:08:38.000Z</time>
      </trkpt>
      <trkpt lat="44.0016" lon="5.91379">
        <ele>546</ele>
        <time>2020-10-05T11:08:39.000Z</time>
      </trkpt>
      <trkpt lat="44.00161" lon="5.91378">
        <ele>546</ele>
        <time>2020-10-05T11:08:40.000Z</time>
      </trkpt>
      <trkpt lat="44.00161" lon="5.91377">
        <ele>546</ele>
        <time>2020-10-05T11:08:41.000Z</time>
      </trkpt>
      <trkpt lat="44.00161" lon="5.91376">
        <ele>546</ele>
        <time>2020-10-05T11:08:42.000Z</time>
      </trkpt>
      <trkpt lat="44.00162" lon="5.91375">
        <ele>546</ele>
        <time>2020-10-05T11:08:43.000Z</time>
      </trkpt>
      <trkpt lat="44.00163" lon="5.91374">
        <ele>546</ele>
        <time>2020-10-05T11:08:44.000Z</time>
      </trkpt>
      <trkpt lat="44.00163" lon="5.91373">
        <ele>546</ele>
        <time>2020-10-05T11:08:45.000Z</time>
      </trkpt>
      <trkpt lat="44.00164" lon="5.91372">
        <ele>546</ele>
        <time>2020-10-05T11:08:46.000Z</time>
      </trkpt>
      <trkpt lat="44.00164" lon="5.91371">
        <ele>547</ele>
        <time>2020-10-05T11:08:47.000Z</time>
      </trkpt>
      <trkpt lat="44.00164" lon="5.9137">
        <ele>547</ele>
        <time>2020-10-05T11:08:48.000Z</time>
      </trkpt>
      <trkpt lat="44.00164" lon="5.91369">
        <ele>547</ele>
        <time>2020-10-05T11:08:49.000Z</time>
      </trkpt>
      <trkpt lat="44.00164" lon="5.91368">
        <ele>547</ele>
        <time>2020-10-05T11:08:50.000Z</time>
      </trkpt>
      <trkpt lat="44.00164" lon="5.91367">
        <ele>547</ele>
        <time>2020-10-05T11:08:51.000Z</time>
      </trkpt>
      <trkpt lat="44.00164" lon="5.91366">
        <ele>547</ele>
        <time>2020-10-05T11:08:52.000Z</time>
      </trkpt>
      <trkpt lat="44.00164" lon="5.91364">
        <ele>547</ele>
        <time>2020-10-05T11:08:53.000Z</time>
      </trkpt>
      <trkpt lat="44.00164" lon="5.91364">
        <ele>547</ele>
        <time>2020-10-05T11:08:54.000Z</time>
      </trkpt>
      <trkpt lat="44.00165" lon="5.91363">
        <ele>547</ele>
        <time>2020-10-05T11:08:55.000Z</time>
      </trkpt>
      <trkpt lat="44.00166" lon="5.91362">
        <ele>547</ele>
        <time>2020-10-05T11:08:56.000Z</time>
      </trkpt>
      <trkpt lat="44.00166" lon="5.91361">
        <ele>548</ele>
        <time>2020-10-05T11:08:57.000Z</time>
      </trkpt>
      <trkpt lat="44.00167" lon="5.9136">
        <ele>548</ele>
        <time>2020-10-05T11:08:58.000Z</time>
      </trkpt>
      <trkpt lat="44.00167" lon="5.91359">
        <ele>548</ele>
        <time>2020-10-05T11:08:59.000Z</time>
      </trkpt>
      <trkpt lat="44.00168" lon="5.91359">
        <ele>548</ele>
        <time>2020-10-05T11:09:00.000Z</time>
      </trkpt>
      <trkpt lat="44.00168" lon="5.91358">
        <ele>548</ele>
        <time>2020-10-05T11:09:01.000Z</time>
      </trkpt>
      <trkpt lat="44.00169" lon="5.91357">
        <ele>548</ele>
        <time>2020-10-05T11:09:02.000Z</time>
      </trkpt>
      <trkpt lat="44.00169" lon="5.91356">
        <ele>548</ele>
        <time>2020-10-05T11:09:03.000Z</time>
      </trkpt>
      <trkpt lat="44.00169" lon="5.91355">
        <ele>548</ele>
        <time>2020-10-05T11:09:04.000Z</time>
      </trkpt>
      <trkpt lat="44.0017" lon="5.91354">
        <ele>548</ele>
        <time>2020-10-05T11:09:05.000Z</time>
      </trkpt>
      <trkpt lat="44.0017" lon="5.91353">
        <ele>549</ele>
        <time>2020-10-05T11:09:06.000Z</time>
      </trkpt>
      <trkpt lat="44.00171" lon="5.91352">
        <ele>549</ele>
        <time>2020-10-05T11:09:07.000Z</time>
      </trkpt>
      <trkpt lat="44.00171" lon="5.91351">
        <ele>549</ele>
        <time>2020-10-05T11:09:08.000Z</time>
      </trkpt>
      <trkpt lat="44.00172" lon="5.91351">
        <ele>549</ele>
        <time>2020-10-05T11:09:09.000Z</time>
      </trkpt>
      <trkpt lat="44.00172" lon="5.9135">
        <ele>549</ele>
        <time>2020-10-05T11:09:10.000Z</time>
      </trkpt>
      <trkpt lat="44.00173" lon="5.91349">
        <ele>549</ele>
        <time>2020-10-05T11:09:11.000Z</time>
      </trkpt>
      <trkpt lat="44.00174" lon="5.91348">
        <ele>549</ele>
        <time>2020-10-05T11:09:12.000Z</time>
      </trkpt>
      <trkpt lat="44.00174" lon="5.91348">
        <ele>549</ele>
        <time>2020-10-05T11:09:13.000Z</time>
      </trkpt>
      <trkpt lat="44.00175" lon="5.91347">
        <ele>549</ele>
        <time>2020-10-05T11:09:14.000Z</time>
      </trkpt>
      <trkpt lat="44.00175" lon="5.91346">
        <ele>549</ele>
        <time>2020-10-05T11:09:15.000Z</time>
      </trkpt>
      <trkpt lat="44.00176" lon="5.91346">
        <ele>549</ele>
        <time>2020-10-05T11:09:16.000Z</time>
      </trkpt>
      <trkpt lat="44.00177" lon="5.91345">
        <ele>549</ele>
        <time>2020-10-05T11:09:17.000Z</time>
      </trkpt>
      <trkpt lat="44.00177" lon="5.91345">
        <ele>550</ele>
        <time>2020-10-05T11:09:18.000Z</time>
      </trkpt>
      <trkpt lat="44.00178" lon="5.91344">
        <ele>550</ele>
        <time>2020-10-05T11:09:19.000Z</time>
      </trkpt>
      <trkpt lat="44.00179" lon="5.91344">
        <ele>550</ele>
        <time>2020-10-05T11:09:20.000Z</time>
      </trkpt>
      <trkpt lat="44.00179" lon="5.91343">
        <ele>550</ele>
        <time>2020-10-05T11:09:21.000Z</time>
      </trkpt>
      <trkpt lat="44.0018" lon="5.91342">
        <ele>550</ele>
        <time>2020-10-05T11:09:22.000Z</time>
      </trkpt>
      <trkpt lat="44.0018" lon="5.91342">
        <ele>550</ele>
        <time>2020-10-05T11:09:23.000Z</time>
      </trkpt>
      <trkpt lat="44.00181" lon="5.91341">
        <ele>550</ele>
        <time>2020-10-05T11:09:24.000Z</time>
      </trkpt>
      <trkpt lat="44.00182" lon="5.9134">
        <ele>550</ele>
        <time>2020-10-05T11:09:25.000Z</time>
      </trkpt>
      <trkpt lat="44.00182" lon="5.91339">
        <ele>550</ele>
        <time>2020-10-05T11:09:26.000Z</time>
      </trkpt>
      <trkpt lat="44.00183" lon="5.91338">
        <ele>550</ele>
        <time>2020-10-05T11:09:27.000Z</time>
      </trkpt>
      <trkpt lat="44.00184" lon="5.91337">
        <ele>550</ele>
        <time>2020-10-05T11:09:28.000Z</time>
      </trkpt>
      <trkpt lat="44.00184" lon="5.91337">
        <ele>550</ele>
        <time>2020-10-05T11:09:29.000Z</time>
      </trkpt>
      <trkpt lat="44.00185" lon="5.91336">
        <ele>550</ele>
        <time>2020-10-05T11:09:30.000Z</time>
      </trkpt>
      <trkpt lat="44.00185" lon="5.91335">
        <ele>551</ele>
        <time>2020-10-05T11:09:31.000Z</time>
      </trkpt>
      <trkpt lat="44.00185" lon="5.91335">
        <ele>551</ele>
        <time>2020-10-05T11:09:32.000Z</time>
      </trkpt>
      <trkpt lat="44.00186" lon="5.91335">
        <ele>551</ele>
        <time>2020-10-05T11:09:33.000Z</time>
      </trkpt>
      <trkpt lat="44.00186" lon="5.91335">
        <ele>551</ele>
        <time>2020-10-05T11:09:34.000Z</time>
      </trkpt>
      <trkpt lat="44.00186" lon="5.91335">
        <ele>551</ele>
        <time>2020-10-05T11:09:35.000Z</time>
      </trkpt>
      <trkpt lat="44.00186" lon="5.91334">
        <ele>551</ele>
        <time>2020-10-05T11:09:36.000Z</time>
      </trkpt>
      <trkpt lat="44.00186" lon="5.91334">
        <ele>551</ele>
        <time>2020-10-05T11:09:37.000Z</time>
      </trkpt>
      <trkpt lat="44.00187" lon="5.91333">
        <ele>551</ele>
        <time>2020-10-05T11:09:38.000Z</time>
      </trkpt>
      <trkpt lat="44.00187" lon="5.91332">
        <ele>551</ele>
        <time>2020-10-05T11:09:39.000Z</time>
      </trkpt>
      <trkpt lat="44.00188" lon="5.91331">
        <ele>551</ele>
        <time>2020-10-05T11:09:40.000Z</time>
      </trkpt>
      <trkpt lat="44.00189" lon="5.9133">
        <ele>551</ele>
        <time>2020-10-05T11:09:41.000Z</time>
      </trkpt>
      <trkpt lat="44.0019" lon="5.91329">
        <ele>551</ele>
        <time>2020-10-05T11:09:42.000Z</time>
      </trkpt>
      <trkpt lat="44.00191" lon="5.91329">
        <ele>552</ele>
        <time>2020-10-05T11:09:43.000Z</time>
      </trkpt>
      <trkpt lat="44.00191" lon="5.91328">
        <ele>552</ele>
        <time>2020-10-05T11:09:44.000Z</time>
      </trkpt>
      <trkpt lat="44.00192" lon="5.91327">
        <ele>552</ele>
        <time>2020-10-05T11:09:45.000Z</time>
      </trkpt>
      <trkpt lat="44.00192" lon="5.91326">
        <ele>552</ele>
        <time>2020-10-05T11:09:46.000Z</time>
      </trkpt>
      <trkpt lat="44.00193" lon="5.91325">
        <ele>552</ele>
        <time>2020-10-05T11:09:47.000Z</time>
      </trkpt>
      <trkpt lat="44.00194" lon="5.91324">
        <ele>552</ele>
        <time>2020-10-05T11:09:48.000Z</time>
      </trkpt>
      <trkpt lat="44.00194" lon="5.91324">
        <ele>552</ele>
        <time>2020-10-05T11:09:49.000Z</time>
      </trkpt>
      <trkpt lat="44.00195" lon="5.91323">
        <ele>552</ele>
        <time>2020-10-05T11:09:50.000Z</time>
      </trkpt>
      <trkpt lat="44.00195" lon="5.91322">
        <ele>552</ele>
        <time>2020-10-05T11:09:51.000Z</time>
      </trkpt>
      <trkpt lat="44.00196" lon="5.91322">
        <ele>552</ele>
        <time>2020-10-05T11:09:52.000Z</time>
      </trkpt>
      <trkpt lat="44.00196" lon="5.91321">
        <ele>552</ele>
        <time>2020-10-05T11:09:53.000Z</time>
      </trkpt>
      <trkpt lat="44.00197" lon="5.9132">
        <ele>552</ele>
        <time>2020-10-05T11:09:54.000Z</time>
      </trkpt>
      <trkpt lat="44.00198" lon="5.91319">
        <ele>552</ele>
        <time>2020-10-05T11:09:55.000Z</time>
      </trkpt>
      <trkpt lat="44.00199" lon="5.91319">
        <ele>552</ele>
        <time>2020-10-05T11:09:56.000Z</time>
      </trkpt>
      <trkpt lat="44.002" lon="5.91318">
        <ele>553</ele>
        <time>2020-10-05T11:09:57.000Z</time>
      </trkpt>
      <trkpt lat="44.00201" lon="5.91317">
        <ele>553</ele>
        <time>2020-10-05T11:09:58.000Z</time>
      </trkpt>
      <trkpt lat="44.00201" lon="5.91316">
        <ele>553</ele>
        <time>2020-10-05T11:09:59.000Z</time>
      </trkpt>
      <trkpt lat="44.00202" lon="5.91315">
        <ele>553</ele>
        <time>2020-10-05T11:10:00.000Z</time>
      </trkpt>
      <trkpt lat="44.00203" lon="5.91315">
        <ele>553</ele>
        <time>2020-10-05T11:10:01.000Z</time>
      </trkpt>
      <trkpt lat="44.00204" lon="5.91314">
        <ele>553</ele>
        <time>2020-10-05T11:10:02.000Z</time>
      </trkpt>
      <trkpt lat="44.00205" lon="5.91314">
        <ele>553</ele>
        <time>2020-10-05T11:10:03.000Z</time>
      </trkpt>
      <trkpt lat="44.00206" lon="5.91313">
        <ele>553</ele>
        <time>2020-10-05T11:10:04.000Z</time>
      </trkpt>
      <trkpt lat="44.00207" lon="5.91313">
        <ele>553</ele>
        <time>2020-10-05T11:10:05.000Z</time>
      </trkpt>
      <trkpt lat="44.00208" lon="5.91312">
        <ele>553</ele>
        <time>2020-10-05T11:10:06.000Z</time>
      </trkpt>
      <trkpt lat="44.00209" lon="5.91311">
        <ele>553</ele>
        <time>2020-10-05T11:10:07.000Z</time>
      </trkpt>
      <trkpt lat="44.00209" lon="5.91311">
        <ele>553</ele>
        <time>2020-10-05T11:10:08.000Z</time>
      </trkpt>
      <trkpt lat="44.0021" lon="5.9131">
        <ele>554</ele>
        <time>2020-10-05T11:10:09.000Z</time>
      </trkpt>
      <trkpt lat="44.00211" lon="5.9131">
        <ele>554</ele>
        <time>2020-10-05T11:10:10.000Z</time>
      </trkpt>
      <trkpt lat="44.00212" lon="5.9131">
        <ele>554</ele>
        <time>2020-10-05T11:10:11.000Z</time>
      </trkpt>
      <trkpt lat="44.00213" lon="5.9131">
        <ele>554</ele>
        <time>2020-10-05T11:10:12.000Z</time>
      </trkpt>
      <trkpt lat="44.00214" lon="5.91309">
        <ele>554</ele>
        <time>2020-10-05T11:10:13.000Z</time>
      </trkpt>
      <trkpt lat="44.00215" lon="5.91309">
        <ele>554</ele>
        <time>2020-10-05T11:10:14.000Z</time>
      </trkpt>
      <trkpt lat="44.00216" lon="5.91308">
        <ele>554</ele>
        <time>2020-10-05T11:10:15.000Z</time>
      </trkpt>
      <trkpt lat="44.00217" lon="5.91308">
        <ele>554</ele>
        <time>2020-10-05T11:10:16.000Z</time>
      </trkpt>
      <trkpt lat="44.00218" lon="5.91307">
        <ele>554</ele>
        <time>2020-10-05T11:10:17.000Z</time>
      </trkpt>
      <trkpt lat="44.00219" lon="5.91307">
        <ele>554</ele>
        <time>2020-10-05T11:10:18.000Z</time>
      </trkpt>
      <trkpt lat="44.0022" lon="5.91306">
        <ele>554</ele>
        <time>2020-10-05T11:10:19.000Z</time>
      </trkpt>
      <trkpt lat="44.00221" lon="5.91305">
        <ele>554</ele>
        <time>2020-10-05T11:10:20.000Z</time>
      </trkpt>
      <trkpt lat="44.00222" lon="5.91305">
        <ele>554</ele>
        <time>2020-10-05T11:10:21.000Z</time>
      </trkpt>
      <trkpt lat="44.00223" lon="5.91304">
        <ele>554</ele>
        <time>2020-10-05T11:10:22.000Z</time>
      </trkpt>
      <trkpt lat="44.00224" lon="5.91303">
        <ele>555</ele>
        <time>2020-10-05T11:10:23.000Z</time>
      </trkpt>
      <trkpt lat="44.00225" lon="5.91303">
        <ele>555</ele>
        <time>2020-10-05T11:10:24.000Z</time>
      </trkpt>
      <trkpt lat="44.00226" lon="5.91302">
        <ele>555</ele>
        <time>2020-10-05T11:10:25.000Z</time>
      </trkpt>
      <trkpt lat="44.00227" lon="5.91301">
        <ele>555</ele>
        <time>2020-10-05T11:10:26.000Z</time>
      </trkpt>
      <trkpt lat="44.00228" lon="5.913">
        <ele>555</ele>
        <time>2020-10-05T11:10:27.000Z</time>
      </trkpt>
      <trkpt lat="44.00229" lon="5.913">
        <ele>554</ele>
        <time>2020-10-05T11:10:28.000Z</time>
      </trkpt>
      <trkpt lat="44.00229" lon="5.91299">
        <ele>554</ele>
        <time>2020-10-05T11:10:29.000Z</time>
      </trkpt>
      <trkpt lat="44.0023" lon="5.91298">
        <ele>555</ele>
        <time>2020-10-05T11:10:30.000Z</time>
      </trkpt>
      <trkpt lat="44.00231" lon="5.91298">
        <ele>555</ele>
        <time>2020-10-05T11:10:31.000Z</time>
      </trkpt>
      <trkpt lat="44.00232" lon="5.91297">
        <ele>555</ele>
        <time>2020-10-05T11:10:32.000Z</time>
      </trkpt>
      <trkpt lat="44.00233" lon="5.91296">
        <ele>555</ele>
        <time>2020-10-05T11:10:33.000Z</time>
      </trkpt>
      <trkpt lat="44.00234" lon="5.91295">
        <ele>555</ele>
        <time>2020-10-05T11:10:34.000Z</time>
      </trkpt>
      <trkpt lat="44.00235" lon="5.91294">
        <ele>555</ele>
        <time>2020-10-05T11:10:35.000Z</time>
      </trkpt>
      <trkpt lat="44.00236" lon="5.91293">
        <ele>555</ele>
        <time>2020-10-05T11:10:36.000Z</time>
      </trkpt>
      <trkpt lat="44.00237" lon="5.91292">
        <ele>555</ele>
        <time>2020-10-05T11:10:37.000Z</time>
      </trkpt>
      <trkpt lat="44.00237" lon="5.91291">
        <ele>554</ele>
        <time>2020-10-05T11:10:38.000Z</time>
      </trkpt>
      <trkpt lat="44.00238" lon="5.91291">
        <ele>554</ele>
        <time>2020-10-05T11:10:39.000Z</time>
      </trkpt>
      <trkpt lat="44.00239" lon="5.9129">
        <ele>554</ele>
        <time>2020-10-05T11:10:40.000Z</time>
      </trkpt>
      <trkpt lat="44.0024" lon="5.91289">
        <ele>554</ele>
        <time>2020-10-05T11:10:41.000Z</time>
      </trkpt>
      <trkpt lat="44.00241" lon="5.91288">
        <ele>554</ele>
        <time>2020-10-05T11:10:42.000Z</time>
      </trkpt>
      <trkpt lat="44.00242" lon="5.91288">
        <ele>554</ele>
        <time>2020-10-05T11:10:43.000Z</time>
      </trkpt>
      <trkpt lat="44.00243" lon="5.91287">
        <ele>554</ele>
        <time>2020-10-05T11:10:44.000Z</time>
      </trkpt>
      <trkpt lat="44.00244" lon="5.91286">
        <ele>554</ele>
        <time>2020-10-05T11:10:45.000Z</time>
      </trkpt>
      <trkpt lat="44.00245" lon="5.91285">
        <ele>554</ele>
        <time>2020-10-05T11:10:46.000Z</time>
      </trkpt>
      <trkpt lat="44.00245" lon="5.91285">
        <ele>555</ele>
        <time>2020-10-05T11:10:47.000Z</time>
      </trkpt>
      <trkpt lat="44.00246" lon="5.91284">
        <ele>555</ele>
        <time>2020-10-05T11:10:48.000Z</time>
      </trkpt>
      <trkpt lat="44.00247" lon="5.91283">
        <ele>555</ele>
        <time>2020-10-05T11:10:49.000Z</time>
      </trkpt>
      <trkpt lat="44.00248" lon="5.91283">
        <ele>555</ele>
        <time>2020-10-05T11:10:50.000Z</time>
      </trkpt>
      <trkpt lat="44.00249" lon="5.91282">
        <ele>555</ele>
        <time>2020-10-05T11:10:51.000Z</time>
      </trkpt>
      <trkpt lat="44.0025" lon="5.91282">
        <ele>555</ele>
        <time>2020-10-05T11:10:52.000Z</time>
      </trkpt>
      <trkpt lat="44.0025" lon="5.91282">
        <ele>555</ele>
        <time>2020-10-05T11:10:53.000Z</time>
      </trkpt>
      <trkpt lat="44.00251" lon="5.91281">
        <ele>555</ele>
        <time>2020-10-05T11:10:54.000Z</time>
      </trkpt>
      <trkpt lat="44.00252" lon="5.91281">
        <ele>555</ele>
        <time>2020-10-05T11:10:55.000Z</time>
      </trkpt>
      <trkpt lat="44.00253" lon="5.91281">
        <ele>555</ele>
        <time>2020-10-05T11:10:56.000Z</time>
      </trkpt>
      <trkpt lat="44.00254" lon="5.91281">
        <ele>555</ele>
        <time>2020-10-05T11:10:57.000Z</time>
      </trkpt>
      <trkpt lat="44.00255" lon="5.91281">
        <ele>555</ele>
        <time>2020-10-05T11:10:58.000Z</time>
      </trkpt>
      <trkpt lat="44.00256" lon="5.91281">
        <ele>555</ele>
        <time>2020-10-05T11:10:59.000Z</time>
      </trkpt>
      <trkpt lat="44.00257" lon="5.91281">
        <ele>555</ele>
        <time>2020-10-05T11:11:00.000Z</time>
      </trkpt>
      <trkpt lat="44.00258" lon="5.91281">
        <ele>555</ele>
        <time>2020-10-05T11:11:01.000Z</time>
      </trkpt>
      <trkpt lat="44.00259" lon="5.91281">
        <ele>555</ele>
        <time>2020-10-05T11:11:02.000Z</time>
      </trkpt>
      <trkpt lat="44.00261" lon="5.91282">
        <ele>555</ele>
        <time>2020-10-05T11:11:03.000Z</time>
      </trkpt>
      <trkpt lat="44.00262" lon="5.91282">
        <ele>555</ele>
        <time>2020-10-05T11:11:04.000Z</time>
      </trkpt>
      <trkpt lat="44.00263" lon="5.91282">
        <ele>555</ele>
        <time>2020-10-05T11:11:05.000Z</time>
      </trkpt>
      <trkpt lat="44.00264" lon="5.91283">
        <ele>555</ele>
        <time>2020-10-05T11:11:06.000Z</time>
      </trkpt>
      <trkpt lat="44.00265" lon="5.91283">
        <ele>555</ele>
        <time>2020-10-05T11:11:07.000Z</time>
      </trkpt>
      <trkpt lat="44.00266" lon="5.91284">
        <ele>555</ele>
        <time>2020-10-05T11:11:08.000Z</time>
      </trkpt>
      <trkpt lat="44.00266" lon="5.91285">
        <ele>555</ele>
        <time>2020-10-05T11:11:09.000Z</time>
      </trkpt>
      <trkpt lat="44.00267" lon="5.91286">
        <ele>555</ele>
        <time>2020-10-05T11:11:10.000Z</time>
      </trkpt>
      <trkpt lat="44.00268" lon="5.91287">
        <ele>555</ele>
        <time>2020-10-05T11:11:11.000Z</time>
      </trkpt>
      <trkpt lat="44.00269" lon="5.91288">
        <ele>555</ele>
        <time>2020-10-05T11:11:12.000Z</time>
      </trkpt>
      <trkpt lat="44.0027" lon="5.91289">
        <ele>555</ele>
        <time>2020-10-05T11:11:13.000Z</time>
      </trkpt>
      <trkpt lat="44.0027" lon="5.9129">
        <ele>555</ele>
        <time>2020-10-05T11:11:14.000Z</time>
      </trkpt>
      <trkpt lat="44.00271" lon="5.9129">
        <ele>555</ele>
        <time>2020-10-05T11:11:15.000Z</time>
      </trkpt>
      <trkpt lat="44.00272" lon="5.91291">
        <ele>556</ele>
        <time>2020-10-05T11:11:16.000Z</time>
      </trkpt>
      <trkpt lat="44.00273" lon="5.91292">
        <ele>556</ele>
        <time>2020-10-05T11:11:17.000Z</time>
      </trkpt>
      <trkpt lat="44.00274" lon="5.91293">
        <ele>556</ele>
        <time>2020-10-05T11:11:18.000Z</time>
      </trkpt>
      <trkpt lat="44.00275" lon="5.91294">
        <ele>556</ele>
        <time>2020-10-05T11:11:19.000Z</time>
      </trkpt>
      <trkpt lat="44.00276" lon="5.91295">
        <ele>556</ele>
        <time>2020-10-05T11:11:20.000Z</time>
      </trkpt>
      <trkpt lat="44.00277" lon="5.91296">
        <ele>556</ele>
        <time>2020-10-05T11:11:21.000Z</time>
      </trkpt>
      <trkpt lat="44.00277" lon="5.91297">
        <ele>556</ele>
        <time>2020-10-05T11:11:22.000Z</time>
      </trkpt>
      <trkpt lat="44.00278" lon="5.91298">
        <ele>556</ele>
        <time>2020-10-05T11:11:23.000Z</time>
      </trkpt>
      <trkpt lat="44.00279" lon="5.91299">
        <ele>556</ele>
        <time>2020-10-05T11:11:24.000Z</time>
      </trkpt>
      <trkpt lat="44.0028" lon="5.913">
        <ele>556</ele>
        <time>2020-10-05T11:11:25.000Z</time>
      </trkpt>
      <trkpt lat="44.00281" lon="5.91301">
        <ele>556</ele>
        <time>2020-10-05T11:11:26.000Z</time>
      </trkpt>
      <trkpt lat="44.00281" lon="5.91302">
        <ele>556</ele>
        <time>2020-10-05T11:11:27.000Z</time>
      </trkpt>
      <trkpt lat="44.00282" lon="5.91303">
        <ele>557</ele>
        <time>2020-10-05T11:11:28.000Z</time>
      </trkpt>
      <trkpt lat="44.00283" lon="5.91304">
        <ele>557</ele>
        <time>2020-10-05T11:11:29.000Z</time>
      </trkpt>
      <trkpt lat="44.00284" lon="5.91305">
        <ele>557</ele>
        <time>2020-10-05T11:11:30.000Z</time>
      </trkpt>
      <trkpt lat="44.00285" lon="5.91306">
        <ele>557</ele>
        <time>2020-10-05T11:11:31.000Z</time>
      </trkpt>
      <trkpt lat="44.00286" lon="5.91306">
        <ele>557</ele>
        <time>2020-10-05T11:11:32.000Z</time>
      </trkpt>
      <trkpt lat="44.00286" lon="5.91307">
        <ele>557</ele>
        <time>2020-10-05T11:11:33.000Z</time>
      </trkpt>
      <trkpt lat="44.00287" lon="5.91307">
        <ele>557</ele>
        <time>2020-10-05T11:11:34.000Z</time>
      </trkpt>
      <trkpt lat="44.00288" lon="5.91308">
        <ele>557</ele>
        <time>2020-10-05T11:11:35.000Z</time>
      </trkpt>
      <trkpt lat="44.00289" lon="5.91309">
        <ele>557</ele>
        <time>2020-10-05T11:11:36.000Z</time>
      </trkpt>
      <trkpt lat="44.0029" lon="5.91309">
        <ele>557</ele>
        <time>2020-10-05T11:11:37.000Z</time>
      </trkpt>
      <trkpt lat="44.00291" lon="5.9131">
        <ele>557</ele>
        <time>2020-10-05T11:11:38.000Z</time>
      </trkpt>
      <trkpt lat="44.00292" lon="5.9131">
        <ele>557</ele>
        <time>2020-10-05T11:11:39.000Z</time>
      </trkpt>
      <trkpt lat="44.00292" lon="5.91311">
        <ele>557</ele>
        <time>2020-10-05T11:11:40.000Z</time>
      </trkpt>
      <trkpt lat="44.00293" lon="5.91311">
        <ele>557</ele>
        <time>2020-10-05T11:11:41.000Z</time>
      </trkpt>
      <trkpt lat="44.00294" lon="5.91311">
        <ele>558</ele>
        <time>2020-10-05T11:11:42.000Z</time>
      </trkpt>
      <trkpt lat="44.00295" lon="5.91312">
        <ele>558</ele>
        <time>2020-10-05T11:11:43.000Z</time>
      </trkpt>
      <trkpt lat="44.00297" lon="5.91312">
        <ele>558</ele>
        <time>2020-10-05T11:11:44.000Z</time>
      </trkpt>
      <trkpt lat="44.00297" lon="5.91312">
        <ele>558</ele>
        <time>2020-10-05T11:11:45.000Z</time>
      </trkpt>
      <trkpt lat="44.00298" lon="5.91312">
        <ele>558</ele>
        <time>2020-10-05T11:11:46.000Z</time>
      </trkpt>
      <trkpt lat="44.00299" lon="5.91312">
        <ele>558</ele>
        <time>2020-10-05T11:11:47.000Z</time>
      </trkpt>
      <trkpt lat="44.00299" lon="5.91312">
        <ele>558</ele>
        <time>2020-10-05T11:11:48.000Z</time>
      </trkpt>
      <trkpt lat="44.00299" lon="5.91312">
        <ele>558</ele>
        <time>2020-10-05T11:11:49.000Z</time>
      </trkpt>
      <trkpt lat="44.00299" lon="5.91312">
        <ele>558</ele>
        <time>2020-10-05T11:11:50.000Z</time>
      </trkpt>
      <trkpt lat="44.00299" lon="5.91312">
        <ele>558</ele>
        <time>2020-10-05T11:11:51.000Z</time>
      </trkpt>
      <trkpt lat="44.003" lon="5.91312">
        <ele>559</ele>
        <time>2020-10-05T11:11:52.000Z</time>
      </trkpt>
      <trkpt lat="44.00301" lon="5.91312">
        <ele>559</ele>
        <time>2020-10-05T11:11:53.000Z</time>
      </trkpt>
      <trkpt lat="44.00301" lon="5.91312">
        <ele>559</ele>
        <time>2020-10-05T11:11:54.000Z</time>
      </trkpt>
      <trkpt lat="44.00302" lon="5.91311">
        <ele>559</ele>
        <time>2020-10-05T11:11:55.000Z</time>
      </trkpt>
      <trkpt lat="44.00303" lon="5.91311">
        <ele>559</ele>
        <time>2020-10-05T11:11:56.000Z</time>
      </trkpt>
      <trkpt lat="44.00303" lon="5.91311">
        <ele>559</ele>
        <time>2020-10-05T11:11:57.000Z</time>
      </trkpt>
      <trkpt lat="44.00304" lon="5.91312">
        <ele>559</ele>
        <time>2020-10-05T11:11:58.000Z</time>
      </trkpt>
      <trkpt lat="44.00305" lon="5.91312">
        <ele>559</ele>
        <time>2020-10-05T11:11:59.000Z</time>
      </trkpt>
      <trkpt lat="44.00305" lon="5.91313">
        <ele>559</ele>
        <time>2020-10-05T11:12:00.000Z</time>
      </trkpt>
      <trkpt lat="44.00306" lon="5.91314">
        <ele>560</ele>
        <time>2020-10-05T11:12:01.000Z</time>
      </trkpt>
      <trkpt lat="44.00306" lon="5.91315">
        <ele>560</ele>
        <time>2020-10-05T11:12:02.000Z</time>
      </trkpt>
      <trkpt lat="44.00306" lon="5.91316">
        <ele>560</ele>
        <time>2020-10-05T11:12:03.000Z</time>
      </trkpt>
      <trkpt lat="44.00306" lon="5.91316">
        <ele>560</ele>
        <time>2020-10-05T11:12:04.000Z</time>
      </trkpt>
      <trkpt lat="44.00306" lon="5.91316">
        <ele>560</ele>
        <time>2020-10-05T11:12:05.000Z</time>
      </trkpt>
      <trkpt lat="44.00306" lon="5.91316">
        <ele>560</ele>
        <time>2020-10-05T11:12:06.000Z</time>
      </trkpt>
      <trkpt lat="44.00306" lon="5.91316">
        <ele>560</ele>
        <time>2020-10-05T11:12:07.000Z</time>
      </trkpt>
      <trkpt lat="44.00306" lon="5.91316">
        <ele>560</ele>
        <time>2020-10-05T11:12:08.000Z</time>
      </trkpt>
      <trkpt lat="44.00306" lon="5.91316">
        <ele>560</ele>
        <time>2020-10-05T11:12:09.000Z</time>
      </trkpt>
      <trkpt lat="44.00306" lon="5.91316">
        <ele>560</ele>
        <time>2020-10-05T11:12:10.000Z</time>
      </trkpt>
      <trkpt lat="44.00306" lon="5.91316">
        <ele>560</ele>
        <time>2020-10-05T11:12:11.000Z</time>
      </trkpt>
      <trkpt lat="44.00306" lon="5.91316">
        <ele>560</ele>
        <time>2020-10-05T11:12:12.000Z</time>
      </trkpt>
      <trkpt lat="44.00306" lon="5.91316">
        <ele>560</ele>
        <time>2020-10-05T11:12:13.000Z</time>
      </trkpt>
      <trkpt lat="44.00306" lon="5.91316">
        <ele>560</ele>
        <time>2020-10-05T11:12:14.000Z</time>
      </trkpt>
      <trkpt lat="44.00306" lon="5.91316">
        <ele>560</ele>
        <time>2020-10-05T11:12:15.000Z</time>
      </trkpt>
      <trkpt lat="44.00306" lon="5.91316">
        <ele>560</ele>
        <time>2020-10-05T11:12:16.000Z</time>
      </trkpt>
      <trkpt lat="44.00306" lon="5.91316">
        <ele>560</ele>
        <time>2020-10-05T11:12:17.000Z</time>
      </trkpt>
      <trkpt lat="44.00306" lon="5.91316">
        <ele>560</ele>
        <time>2020-10-05T11:12:18.000Z</time>
      </trkpt>
      <trkpt lat="44.00306" lon="5.91316">
        <ele>560</ele>
        <time>2020-10-05T11:12:19.000Z</time>
      </trkpt>
      <trkpt lat="44.00306" lon="5.91316">
        <ele>560</ele>
        <time>2020-10-05T11:12:20.000Z</time>
      </trkpt>
      <trkpt lat="44.00306" lon="5.91316">
        <ele>560</ele>
        <time>2020-10-05T11:12:21.000Z</time>
      </trkpt>
      <trkpt lat="44.00306" lon="5.91317">
        <ele>560</ele>
        <time>2020-10-05T11:12:22.000Z</time>
      </trkpt>
      <trkpt lat="44.00306" lon="5.91316">
        <ele>560</ele>
        <time>2020-10-05T11:12:23.000Z</time>
      </trkpt>
      <trkpt lat="44.00307" lon="5.91316">
        <ele>560</ele>
        <time>2020-10-05T11:12:24.000Z</time>
      </trkpt>
      <trkpt lat="44.00308" lon="5.91316">
        <ele>560</ele>
        <time>2020-10-05T11:12:25.000Z</time>
      </trkpt>
      <trkpt lat="44.00308" lon="5.91316">
        <ele>560</ele>
        <time>2020-10-05T11:12:26.000Z</time>
      </trkpt>
      <trkpt lat="44.00309" lon="5.91316">
        <ele>560</ele>
        <time>2020-10-05T11:12:27.000Z</time>
      </trkpt>
      <trkpt lat="44.0031" lon="5.91317">
        <ele>560</ele>
        <time>2020-10-05T11:12:28.000Z</time>
      </trkpt>
      <trkpt lat="44.00311" lon="5.91317">
        <ele>560</ele>
        <time>2020-10-05T11:12:29.000Z</time>
      </trkpt>
      <trkpt lat="44.00312" lon="5.91317">
        <ele>560</ele>
        <time>2020-10-05T11:12:30.000Z</time>
      </trkpt>
      <trkpt lat="44.00313" lon="5.91317">
        <ele>560</ele>
        <time>2020-10-05T11:12:31.000Z</time>
      </trkpt>
      <trkpt lat="44.00314" lon="5.91317">
        <ele>560</ele>
        <time>2020-10-05T11:12:32.000Z</time>
      </trkpt>
      <trkpt lat="44.00315" lon="5.91317">
        <ele>560</ele>
        <time>2020-10-05T11:12:33.000Z</time>
      </trkpt>
      <trkpt lat="44.00316" lon="5.91317">
        <ele>560</ele>
        <time>2020-10-05T11:12:34.000Z</time>
      </trkpt>
      <trkpt lat="44.00317" lon="5.91317">
        <ele>560</ele>
        <time>2020-10-05T11:12:35.000Z</time>
      </trkpt>
      <trkpt lat="44.00319" lon="5.91316">
        <ele>560</ele>
        <time>2020-10-05T11:12:36.000Z</time>
      </trkpt>
      <trkpt lat="44.0032" lon="5.91316">
        <ele>560</ele>
        <time>2020-10-05T11:12:37.000Z</time>
      </trkpt>
      <trkpt lat="44.00321" lon="5.91316">
        <ele>560</ele>
        <time>2020-10-05T11:12:38.000Z</time>
      </trkpt>
      <trkpt lat="44.00322" lon="5.91316">
        <ele>560</ele>
        <time>2020-10-05T11:12:39.000Z</time>
      </trkpt>
      <trkpt lat="44.00323" lon="5.91316">
        <ele>560</ele>
        <time>2020-10-05T11:12:40.000Z</time>
      </trkpt>
      <trkpt lat="44.00324" lon="5.91316">
        <ele>560</ele>
        <time>2020-10-05T11:12:41.000Z</time>
      </trkpt>
      <trkpt lat="44.00325" lon="5.91315">
        <ele>560</ele>
        <time>2020-10-05T11:12:42.000Z</time>
      </trkpt>
      <trkpt lat="44.00326" lon="5.91315">
        <ele>560</ele>
        <time>2020-10-05T11:12:43.000Z</time>
      </trkpt>
      <trkpt lat="44.00327" lon="5.91315">
        <ele>560</ele>
        <time>2020-10-05T11:12:44.000Z</time>
      </trkpt>
      <trkpt lat="44.00328" lon="5.91315">
        <ele>560</ele>
        <time>2020-10-05T11:12:45.000Z</time>
      </trkpt>
      <trkpt lat="44.00329" lon="5.91314">
        <ele>560</ele>
        <time>2020-10-05T11:12:46.000Z</time>
      </trkpt>
      <trkpt lat="44.0033" lon="5.91314">
        <ele>560</ele>
        <time>2020-10-05T11:12:47.000Z</time>
      </trkpt>
      <trkpt lat="44.0033" lon="5.91315">
        <ele>560</ele>
        <time>2020-10-05T11:12:48.000Z</time>
      </trkpt>
      <trkpt lat="44.00331" lon="5.91315">
        <ele>560</ele>
        <time>2020-10-05T11:12:49.000Z</time>
      </trkpt>
      <trkpt lat="44.00332" lon="5.91315">
        <ele>560</ele>
        <time>2020-10-05T11:12:50.000Z</time>
      </trkpt>
      <trkpt lat="44.00333" lon="5.91315">
        <ele>560</ele>
        <time>2020-10-05T11:12:51.000Z</time>
      </trkpt>
      <trkpt lat="44.00334" lon="5.91316">
        <ele>560</ele>
        <time>2020-10-05T11:12:52.000Z</time>
      </trkpt>
      <trkpt lat="44.00335" lon="5.91316">
        <ele>561</ele>
        <time>2020-10-05T11:12:53.000Z</time>
      </trkpt>
      <trkpt lat="44.00335" lon="5.91316">
        <ele>561</ele>
        <time>2020-10-05T11:12:54.000Z</time>
      </trkpt>
      <trkpt lat="44.00335" lon="5.91316">
        <ele>561</ele>
        <time>2020-10-05T11:12:55.000Z</time>
      </trkpt>
      <trkpt lat="44.00335" lon="5.91316">
        <ele>561</ele>
        <time>2020-10-05T11:12:56.000Z</time>
      </trkpt>
      <trkpt lat="44.00336" lon="5.91316">
        <ele>561</ele>
        <time>2020-10-05T11:12:57.000Z</time>
      </trkpt>
      <trkpt lat="44.00337" lon="5.91317">
        <ele>561</ele>
        <time>2020-10-05T11:12:58.000Z</time>
      </trkpt>
      <trkpt lat="44.00338" lon="5.91317">
        <ele>561</ele>
        <time>2020-10-05T11:12:59.000Z</time>
      </trkpt>
      <trkpt lat="44.00338" lon="5.91317">
        <ele>561</ele>
        <time>2020-10-05T11:13:00.000Z</time>
      </trkpt>
      <trkpt lat="44.00339" lon="5.91318">
        <ele>561</ele>
        <time>2020-10-05T11:13:01.000Z</time>
      </trkpt>
      <trkpt lat="44.0034" lon="5.91318">
        <ele>561</ele>
        <time>2020-10-05T11:13:02.000Z</time>
      </trkpt>
      <trkpt lat="44.00341" lon="5.91319">
        <ele>561</ele>
        <time>2020-10-05T11:13:03.000Z</time>
      </trkpt>
      <trkpt lat="44.00342" lon="5.9132">
        <ele>561</ele>
        <time>2020-10-05T11:13:04.000Z</time>
      </trkpt>
      <trkpt lat="44.00343" lon="5.91321">
        <ele>561</ele>
        <time>2020-10-05T11:13:05.000Z</time>
      </trkpt>
      <trkpt lat="44.00344" lon="5.91321">
        <ele>561</ele>
        <time>2020-10-05T11:13:06.000Z</time>
      </trkpt>
      <trkpt lat="44.00345" lon="5.91322">
        <ele>561</ele>
        <time>2020-10-05T11:13:07.000Z</time>
      </trkpt>
      <trkpt lat="44.00345" lon="5.91323">
        <ele>561</ele>
        <time>2020-10-05T11:13:08.000Z</time>
      </trkpt>
      <trkpt lat="44.00346" lon="5.91324">
        <ele>561</ele>
        <time>2020-10-05T11:13:09.000Z</time>
      </trkpt>
      <trkpt lat="44.00347" lon="5.91324">
        <ele>561</ele>
        <time>2020-10-05T11:13:10.000Z</time>
      </trkpt>
      <trkpt lat="44.00348" lon="5.91325">
        <ele>561</ele>
        <time>2020-10-05T11:13:11.000Z</time>
      </trkpt>
      <trkpt lat="44.00349" lon="5.91326">
        <ele>561</ele>
        <time>2020-10-05T11:13:12.000Z</time>
      </trkpt>
      <trkpt lat="44.0035" lon="5.91327">
        <ele>561</ele>
        <time>2020-10-05T11:13:13.000Z</time>
      </trkpt>
      <trkpt lat="44.00351" lon="5.91327">
        <ele>561</ele>
        <time>2020-10-05T11:13:14.000Z</time>
      </trkpt>
      <trkpt lat="44.00352" lon="5.91328">
        <ele>561</ele>
        <time>2020-10-05T11:13:15.000Z</time>
      </trkpt>
      <trkpt lat="44.00353" lon="5.91329">
        <ele>561</ele>
        <time>2020-10-05T11:13:16.000Z</time>
      </trkpt>
      <trkpt lat="44.00354" lon="5.9133">
        <ele>561</ele>
        <time>2020-10-05T11:13:17.000Z</time>
      </trkpt>
      <trkpt lat="44.00355" lon="5.9133">
        <ele>561</ele>
        <time>2020-10-05T11:13:18.000Z</time>
      </trkpt>
      <trkpt lat="44.00355" lon="5.91331">
        <ele>561</ele>
        <time>2020-10-05T11:13:19.000Z</time>
      </trkpt>
      <trkpt lat="44.00356" lon="5.91332">
        <ele>561</ele>
        <time>2020-10-05T11:13:20.000Z</time>
      </trkpt>
      <trkpt lat="44.00357" lon="5.91333">
        <ele>561</ele>
        <time>2020-10-05T11:13:21.000Z</time>
      </trkpt>
      <trkpt lat="44.00358" lon="5.91333">
        <ele>561</ele>
        <time>2020-10-05T11:13:22.000Z</time>
      </trkpt>
      <trkpt lat="44.00359" lon="5.91334">
        <ele>561</ele>
        <time>2020-10-05T11:13:23.000Z</time>
      </trkpt>
      <trkpt lat="44.0036" lon="5.91335">
        <ele>561</ele>
        <time>2020-10-05T11:13:24.000Z</time>
      </trkpt>
      <trkpt lat="44.00361" lon="5.91336">
        <ele>562</ele>
        <time>2020-10-05T11:13:25.000Z</time>
      </trkpt>
      <trkpt lat="44.00362" lon="5.91337">
        <ele>562</ele>
        <time>2020-10-05T11:13:26.000Z</time>
      </trkpt>
      <trkpt lat="44.00363" lon="5.91338">
        <ele>562</ele>
        <time>2020-10-05T11:13:27.000Z</time>
      </trkpt>
      <trkpt lat="44.00364" lon="5.91339">
        <ele>562</ele>
        <time>2020-10-05T11:13:28.000Z</time>
      </trkpt>
      <trkpt lat="44.00365" lon="5.9134">
        <ele>562</ele>
        <time>2020-10-05T11:13:29.000Z</time>
      </trkpt>
      <trkpt lat="44.00366" lon="5.91341">
        <ele>562</ele>
        <time>2020-10-05T11:13:30.000Z</time>
      </trkpt>
      <trkpt lat="44.00367" lon="5.91342">
        <ele>562</ele>
        <time>2020-10-05T11:13:31.000Z</time>
      </trkpt>
      <trkpt lat="44.00367" lon="5.91343">
        <ele>562</ele>
        <time>2020-10-05T11:13:32.000Z</time>
      </trkpt>
      <trkpt lat="44.00368" lon="5.91344">
        <ele>562</ele>
        <time>2020-10-05T11:13:33.000Z</time>
      </trkpt>
      <trkpt lat="44.00369" lon="5.91345">
        <ele>562</ele>
        <time>2020-10-05T11:13:34.000Z</time>
      </trkpt>
      <trkpt lat="44.0037" lon="5.91346">
        <ele>562</ele>
        <time>2020-10-05T11:13:35.000Z</time>
      </trkpt>
      <trkpt lat="44.00371" lon="5.91347">
        <ele>562</ele>
        <time>2020-10-05T11:13:36.000Z</time>
      </trkpt>
      <trkpt lat="44.00372" lon="5.91347">
        <ele>562</ele>
        <time>2020-10-05T11:13:37.000Z</time>
      </trkpt>
      <trkpt lat="44.00372" lon="5.91348">
        <ele>562</ele>
        <time>2020-10-05T11:13:38.000Z</time>
      </trkpt>
      <trkpt lat="44.00373" lon="5.9135">
        <ele>562</ele>
        <time>2020-10-05T11:13:39.000Z</time>
      </trkpt>
      <trkpt lat="44.00374" lon="5.91351">
        <ele>562</ele>
        <time>2020-10-05T11:13:40.000Z</time>
      </trkpt>
      <trkpt lat="44.00375" lon="5.91352">
        <ele>562</ele>
        <time>2020-10-05T11:13:41.000Z</time>
      </trkpt>
      <trkpt lat="44.00376" lon="5.91353">
        <ele>562</ele>
        <time>2020-10-05T11:13:42.000Z</time>
      </trkpt>
      <trkpt lat="44.00376" lon="5.91354">
        <ele>562</ele>
        <time>2020-10-05T11:13:43.000Z</time>
      </trkpt>
      <trkpt lat="44.00377" lon="5.91355">
        <ele>563</ele>
        <time>2020-10-05T11:13:44.000Z</time>
      </trkpt>
      <trkpt lat="44.00378" lon="5.91356">
        <ele>563</ele>
        <time>2020-10-05T11:13:45.000Z</time>
      </trkpt>
      <trkpt lat="44.00379" lon="5.91357">
        <ele>563</ele>
        <time>2020-10-05T11:13:46.000Z</time>
      </trkpt>
      <trkpt lat="44.00379" lon="5.91358">
        <ele>563</ele>
        <time>2020-10-05T11:13:47.000Z</time>
      </trkpt>
      <trkpt lat="44.0038" lon="5.91358">
        <ele>563</ele>
        <time>2020-10-05T11:13:48.000Z</time>
      </trkpt>
      <trkpt lat="44.0038" lon="5.91359">
        <ele>563</ele>
        <time>2020-10-05T11:13:49.000Z</time>
      </trkpt>
      <trkpt lat="44.00381" lon="5.9136">
        <ele>563</ele>
        <time>2020-10-05T11:13:50.000Z</time>
      </trkpt>
      <trkpt lat="44.00382" lon="5.9136">
        <ele>563</ele>
        <time>2020-10-05T11:13:51.000Z</time>
      </trkpt>
      <trkpt lat="44.00383" lon="5.9136">
        <ele>563</ele>
        <time>2020-10-05T11:13:52.000Z</time>
      </trkpt>
      <trkpt lat="44.00383" lon="5.91359">
        <ele>563</ele>
        <time>2020-10-05T11:13:53.000Z</time>
      </trkpt>
      <trkpt lat="44.00384" lon="5.91358">
        <ele>563</ele>
        <time>2020-10-05T11:13:54.000Z</time>
      </trkpt>
      <trkpt lat="44.00385" lon="5.91358">
        <ele>563</ele>
        <time>2020-10-05T11:13:55.000Z</time>
      </trkpt>
      <trkpt lat="44.00385" lon="5.91357">
        <ele>563</ele>
        <time>2020-10-05T11:13:56.000Z</time>
      </trkpt>
      <trkpt lat="44.00385" lon="5.91356">
        <ele>563</ele>
        <time>2020-10-05T11:13:57.000Z</time>
      </trkpt>
      <trkpt lat="44.00385" lon="5.91355">
        <ele>563</ele>
        <time>2020-10-05T11:13:58.000Z</time>
      </trkpt>
      <trkpt lat="44.00385" lon="5.91354">
        <ele>563</ele>
        <time>2020-10-05T11:13:59.000Z</time>
      </trkpt>
      <trkpt lat="44.00385" lon="5.91352">
        <ele>563</ele>
        <time>2020-10-05T11:14:00.000Z</time>
      </trkpt>
      <trkpt lat="44.00385" lon="5.91352">
        <ele>563</ele>
        <time>2020-10-05T11:14:01.000Z</time>
      </trkpt>
      <trkpt lat="44.00384" lon="5.9135">
        <ele>563</ele>
        <time>2020-10-05T11:14:02.000Z</time>
      </trkpt>
      <trkpt lat="44.00384" lon="5.91349">
        <ele>563</ele>
        <time>2020-10-05T11:14:03.000Z</time>
      </trkpt>
      <trkpt lat="44.00383" lon="5.91348">
        <ele>563</ele>
        <time>2020-10-05T11:14:04.000Z</time>
      </trkpt>
      <trkpt lat="44.00383" lon="5.91347">
        <ele>563</ele>
        <time>2020-10-05T11:14:05.000Z</time>
      </trkpt>
      <trkpt lat="44.00383" lon="5.91346">
        <ele>563</ele>
        <time>2020-10-05T11:14:06.000Z</time>
      </trkpt>
      <trkpt lat="44.00382" lon="5.91344">
        <ele>563</ele>
        <time>2020-10-05T11:14:07.000Z</time>
      </trkpt>
      <trkpt lat="44.00382" lon="5.91344">
        <ele>563</ele>
        <time>2020-10-05T11:14:08.000Z</time>
      </trkpt>
      <trkpt lat="44.00381" lon="5.91343">
        <ele>564</ele>
        <time>2020-10-05T11:14:09.000Z</time>
      </trkpt>
      <trkpt lat="44.0038" lon="5.91342">
        <ele>564</ele>
        <time>2020-10-05T11:14:10.000Z</time>
      </trkpt>
      <trkpt lat="44.0038" lon="5.91341">
        <ele>564</ele>
        <time>2020-10-05T11:14:11.000Z</time>
      </trkpt>
      <trkpt lat="44.00379" lon="5.9134">
        <ele>564</ele>
        <time>2020-10-05T11:14:12.000Z</time>
      </trkpt>
      <trkpt lat="44.00379" lon="5.91339">
        <ele>564</ele>
        <time>2020-10-05T11:14:13.000Z</time>
      </trkpt>
      <trkpt lat="44.00378" lon="5.91338">
        <ele>564</ele>
        <time>2020-10-05T11:14:14.000Z</time>
      </trkpt>
      <trkpt lat="44.00377" lon="5.91337">
        <ele>564</ele>
        <time>2020-10-05T11:14:15.000Z</time>
      </trkpt>
      <trkpt lat="44.00377" lon="5.91335">
        <ele>564</ele>
        <time>2020-10-05T11:14:16.000Z</time>
      </trkpt>
      <trkpt lat="44.00377" lon="5.91334">
        <ele>564</ele>
        <time>2020-10-05T11:14:17.000Z</time>
      </trkpt>
      <trkpt lat="44.00376" lon="5.91333">
        <ele>564</ele>
        <time>2020-10-05T11:14:18.000Z</time>
      </trkpt>
      <trkpt lat="44.00376" lon="5.91332">
        <ele>565</ele>
        <time>2020-10-05T11:14:19.000Z</time>
      </trkpt>
      <trkpt lat="44.00375" lon="5.91331">
        <ele>565</ele>
        <time>2020-10-05T11:14:20.000Z</time>
      </trkpt>
      <trkpt lat="44.00374" lon="5.9133">
        <ele>565</ele>
        <time>2020-10-05T11:14:21.000Z</time>
      </trkpt>
      <trkpt lat="44.00373" lon="5.91329">
        <ele>565</ele>
        <time>2020-10-05T11:14:22.000Z</time>
      </trkpt>
      <trkpt lat="44.00373" lon="5.91328">
        <ele>565</ele>
        <time>2020-10-05T11:14:23.000Z</time>
      </trkpt>
      <trkpt lat="44.00372" lon="5.91326">
        <ele>566</ele>
        <time>2020-10-05T11:14:24.000Z</time>
      </trkpt>
      <trkpt lat="44.00372" lon="5.91325">
        <ele>566</ele>
        <time>2020-10-05T11:14:25.000Z</time>
      </trkpt>
      <trkpt lat="44.00371" lon="5.91325">
        <ele>566</ele>
        <time>2020-10-05T11:14:26.000Z</time>
      </trkpt>
      <trkpt lat="44.00371" lon="5.91323">
        <ele>566</ele>
        <time>2020-10-05T11:14:27.000Z</time>
      </trkpt>
      <trkpt lat="44.0037" lon="5.91322">
        <ele>566</ele>
        <time>2020-10-05T11:14:28.000Z</time>
      </trkpt>
      <trkpt lat="44.00369" lon="5.91322">
        <ele>567</ele>
        <time>2020-10-05T11:14:29.000Z</time>
      </trkpt>
      <trkpt lat="44.00368" lon="5.91321">
        <ele>567</ele>
        <time>2020-10-05T11:14:30.000Z</time>
      </trkpt>
      <trkpt lat="44.00368" lon="5.9132">
        <ele>567</ele>
        <time>2020-10-05T11:14:31.000Z</time>
      </trkpt>
      <trkpt lat="44.00367" lon="5.91319">
        <ele>567</ele>
        <time>2020-10-05T11:14:32.000Z</time>
      </trkpt>
      <trkpt lat="44.00366" lon="5.91318">
        <ele>567</ele>
        <time>2020-10-05T11:14:33.000Z</time>
      </trkpt>
      <trkpt lat="44.00365" lon="5.91317">
        <ele>567</ele>
        <time>2020-10-05T11:14:34.000Z</time>
      </trkpt>
      <trkpt lat="44.00365" lon="5.91316">
        <ele>568</ele>
        <time>2020-10-05T11:14:35.000Z</time>
      </trkpt>
      <trkpt lat="44.00364" lon="5.91315">
        <ele>568</ele>
        <time>2020-10-05T11:14:36.000Z</time>
      </trkpt>
      <trkpt lat="44.00363" lon="5.91314">
        <ele>568</ele>
        <time>2020-10-05T11:14:37.000Z</time>
      </trkpt>
      <trkpt lat="44.00363" lon="5.91313">
        <ele>568</ele>
        <time>2020-10-05T11:14:38.000Z</time>
      </trkpt>
      <trkpt lat="44.00362" lon="5.91312">
        <ele>568</ele>
        <time>2020-10-05T11:14:39.000Z</time>
      </trkpt>
      <trkpt lat="44.00361" lon="5.91311">
        <ele>568</ele>
        <time>2020-10-05T11:14:40.000Z</time>
      </trkpt>
      <trkpt lat="44.00361" lon="5.9131">
        <ele>569</ele>
        <time>2020-10-05T11:14:41.000Z</time>
      </trkpt>
      <trkpt lat="44.0036" lon="5.91309">
        <ele>569</ele>
        <time>2020-10-05T11:14:42.000Z</time>
      </trkpt>
      <trkpt lat="44.00359" lon="5.91308">
        <ele>569</ele>
        <time>2020-10-05T11:14:43.000Z</time>
      </trkpt>
      <trkpt lat="44.00358" lon="5.91307">
        <ele>569</ele>
        <time>2020-10-05T11:14:44.000Z</time>
      </trkpt>
      <trkpt lat="44.00358" lon="5.91306">
        <ele>569</ele>
        <time>2020-10-05T11:14:45.000Z</time>
      </trkpt>
      <trkpt lat="44.00357" lon="5.91305">
        <ele>569</ele>
        <time>2020-10-05T11:14:46.000Z</time>
      </trkpt>
      <trkpt lat="44.00356" lon="5.91304">
        <ele>569</ele>
        <time>2020-10-05T11:14:47.000Z</time>
      </trkpt>
      <trkpt lat="44.00356" lon="5.91303">
        <ele>569</ele>
        <time>2020-10-05T11:14:48.000Z</time>
      </trkpt>
      <trkpt lat="44.00355" lon="5.91302">
        <ele>570</ele>
        <time>2020-10-05T11:14:49.000Z</time>
      </trkpt>
      <trkpt lat="44.00354" lon="5.91301">
        <ele>570</ele>
        <time>2020-10-05T11:14:50.000Z</time>
      </trkpt>
      <trkpt lat="44.00354" lon="5.913">
        <ele>570</ele>
        <time>2020-10-05T11:14:51.000Z</time>
      </trkpt>
      <trkpt lat="44.00353" lon="5.91299">
        <ele>570</ele>
        <time>2020-10-05T11:14:52.000Z</time>
      </trkpt>
      <trkpt lat="44.00352" lon="5.91298">
        <ele>570</ele>
        <time>2020-10-05T11:14:53.000Z</time>
      </trkpt>
      <trkpt lat="44.00352" lon="5.91298">
        <ele>570</ele>
        <time>2020-10-05T11:14:54.000Z</time>
      </trkpt>
      <trkpt lat="44.00351" lon="5.91296">
        <ele>570</ele>
        <time>2020-10-05T11:14:55.000Z</time>
      </trkpt>
      <trkpt lat="44.0035" lon="5.91296">
        <ele>570</ele>
        <time>2020-10-05T11:14:56.000Z</time>
      </trkpt>
      <trkpt lat="44.0035" lon="5.91295">
        <ele>570</ele>
        <time>2020-10-05T11:14:57.000Z</time>
      </trkpt>
      <trkpt lat="44.00349" lon="5.91294">
        <ele>570</ele>
        <time>2020-10-05T11:14:58.000Z</time>
      </trkpt>
      <trkpt lat="44.00348" lon="5.91294">
        <ele>570</ele>
        <time>2020-10-05T11:14:59.000Z</time>
      </trkpt>
      <trkpt lat="44.00347" lon="5.91293">
        <ele>570</ele>
        <time>2020-10-05T11:15:00.000Z</time>
      </trkpt>
      <trkpt lat="44.00346" lon="5.91292">
        <ele>570</ele>
        <time>2020-10-05T11:15:01.000Z</time>
      </trkpt>
      <trkpt lat="44.00346" lon="5.91291">
        <ele>570</ele>
        <time>2020-10-05T11:15:02.000Z</time>
      </trkpt>
      <trkpt lat="44.00345" lon="5.91291">
        <ele>570</ele>
        <time>2020-10-05T11:15:03.000Z</time>
      </trkpt>
      <trkpt lat="44.00344" lon="5.9129">
        <ele>570</ele>
        <time>2020-10-05T11:15:04.000Z</time>
      </trkpt>
      <trkpt lat="44.00344" lon="5.91289">
        <ele>570</ele>
        <time>2020-10-05T11:15:05.000Z</time>
      </trkpt>
      <trkpt lat="44.00343" lon="5.91288">
        <ele>571</ele>
        <time>2020-10-05T11:15:06.000Z</time>
      </trkpt>
      <trkpt lat="44.00342" lon="5.91287">
        <ele>571</ele>
        <time>2020-10-05T11:15:07.000Z</time>
      </trkpt>
      <trkpt lat="44.00342" lon="5.91287">
        <ele>571</ele>
        <time>2020-10-05T11:15:08.000Z</time>
      </trkpt>
      <trkpt lat="44.00341" lon="5.91286">
        <ele>571</ele>
        <time>2020-10-05T11:15:09.000Z</time>
      </trkpt>
      <trkpt lat="44.0034" lon="5.91285">
        <ele>571</ele>
        <time>2020-10-05T11:15:10.000Z</time>
      </trkpt>
      <trkpt lat="44.00339" lon="5.91284">
        <ele>571</ele>
        <time>2020-10-05T11:15:11.000Z</time>
      </trkpt>
      <trkpt lat="44.00339" lon="5.91284">
        <ele>571</ele>
        <time>2020-10-05T11:15:12.000Z</time>
      </trkpt>
      <trkpt lat="44.00338" lon="5.91283">
        <ele>571</ele>
        <time>2020-10-05T11:15:13.000Z</time>
      </trkpt>
      <trkpt lat="44.00337" lon="5.91283">
        <ele>571</ele>
        <time>2020-10-05T11:15:14.000Z</time>
      </trkpt>
      <trkpt lat="44.00337" lon="5.91282">
        <ele>571</ele>
        <time>2020-10-05T11:15:15.000Z</time>
      </trkpt>
      <trkpt lat="44.00336" lon="5.91281">
        <ele>571</ele>
        <time>2020-10-05T11:15:16.000Z</time>
      </trkpt>
      <trkpt lat="44.00335" lon="5.9128">
        <ele>571</ele>
        <time>2020-10-05T11:15:17.000Z</time>
      </trkpt>
      <trkpt lat="44.00335" lon="5.9128">
        <ele>571</ele>
        <time>2020-10-05T11:15:18.000Z</time>
      </trkpt>
      <trkpt lat="44.00334" lon="5.91279">
        <ele>571</ele>
        <time>2020-10-05T11:15:19.000Z</time>
      </trkpt>
      <trkpt lat="44.00333" lon="5.91279">
        <ele>571</ele>
        <time>2020-10-05T11:15:20.000Z</time>
      </trkpt>
      <trkpt lat="44.00333" lon="5.91278">
        <ele>571</ele>
        <time>2020-10-05T11:15:21.000Z</time>
      </trkpt>
      <trkpt lat="44.00332" lon="5.91277">
        <ele>571</ele>
        <time>2020-10-05T11:15:22.000Z</time>
      </trkpt>
      <trkpt lat="44.00331" lon="5.91277">
        <ele>571</ele>
        <time>2020-10-05T11:15:23.000Z</time>
      </trkpt>
      <trkpt lat="44.0033" lon="5.91277">
        <ele>572</ele>
        <time>2020-10-05T11:15:24.000Z</time>
      </trkpt>
      <trkpt lat="44.00329" lon="5.91276">
        <ele>572</ele>
        <time>2020-10-05T11:15:25.000Z</time>
      </trkpt>
      <trkpt lat="44.00329" lon="5.91276">
        <ele>572</ele>
        <time>2020-10-05T11:15:26.000Z</time>
      </trkpt>
      <trkpt lat="44.00328" lon="5.91275">
        <ele>572</ele>
        <time>2020-10-05T11:15:27.000Z</time>
      </trkpt>
      <trkpt lat="44.00327" lon="5.91275">
        <ele>572</ele>
        <time>2020-10-05T11:15:28.000Z</time>
      </trkpt>
      <trkpt lat="44.00326" lon="5.91274">
        <ele>573</ele>
        <time>2020-10-05T11:15:29.000Z</time>
      </trkpt>
      <trkpt lat="44.00326" lon="5.91274">
        <ele>573</ele>
        <time>2020-10-05T11:15:30.000Z</time>
      </trkpt>
      <trkpt lat="44.00325" lon="5.91273">
        <ele>573</ele>
        <time>2020-10-05T11:15:31.000Z</time>
      </trkpt>
      <trkpt lat="44.00324" lon="5.91272">
        <ele>573</ele>
        <time>2020-10-05T11:15:32.000Z</time>
      </trkpt>
      <trkpt lat="44.00324" lon="5.91271">
        <ele>573</ele>
        <time>2020-10-05T11:15:33.000Z</time>
      </trkpt>
      <trkpt lat="44.00324" lon="5.91269">
        <ele>573</ele>
        <time>2020-10-05T11:15:34.000Z</time>
      </trkpt>
      <trkpt lat="44.00324" lon="5.91268">
        <ele>573</ele>
        <time>2020-10-05T11:15:35.000Z</time>
      </trkpt>
      <trkpt lat="44.00323" lon="5.91267">
        <ele>574</ele>
        <time>2020-10-05T11:15:36.000Z</time>
      </trkpt>
      <trkpt lat="44.00323" lon="5.91266">
        <ele>574</ele>
        <time>2020-10-05T11:15:37.000Z</time>
      </trkpt>
      <trkpt lat="44.00324" lon="5.91266">
        <ele>574</ele>
        <time>2020-10-05T11:15:38.000Z</time>
      </trkpt>
      <trkpt lat="44.00324" lon="5.91264">
        <ele>574</ele>
        <time>2020-10-05T11:15:39.000Z</time>
      </trkpt>
      <trkpt lat="44.00324" lon="5.91264">
        <ele>574</ele>
        <time>2020-10-05T11:15:40.000Z</time>
      </trkpt>
      <trkpt lat="44.00325" lon="5.91263">
        <ele>574</ele>
        <time>2020-10-05T11:15:41.000Z</time>
      </trkpt>
      <trkpt lat="44.00326" lon="5.91262">
        <ele>574</ele>
        <time>2020-10-05T11:15:42.000Z</time>
      </trkpt>
      <trkpt lat="44.00326" lon="5.91262">
        <ele>575</ele>
        <time>2020-10-05T11:15:43.000Z</time>
      </trkpt>
      <trkpt lat="44.00327" lon="5.91261">
        <ele>575</ele>
        <time>2020-10-05T11:15:44.000Z</time>
      </trkpt>
      <trkpt lat="44.00328" lon="5.91261">
        <ele>575</ele>
        <time>2020-10-05T11:15:45.000Z</time>
      </trkpt>
      <trkpt lat="44.00329" lon="5.91261">
        <ele>575</ele>
        <time>2020-10-05T11:15:46.000Z</time>
      </trkpt>
      <trkpt lat="44.0033" lon="5.91261">
        <ele>575</ele>
        <time>2020-10-05T11:15:47.000Z</time>
      </trkpt>
      <trkpt lat="44.0033" lon="5.9126">
        <ele>575</ele>
        <time>2020-10-05T11:15:48.000Z</time>
      </trkpt>
      <trkpt lat="44.00331" lon="5.9126">
        <ele>576</ele>
        <time>2020-10-05T11:15:49.000Z</time>
      </trkpt>
      <trkpt lat="44.00332" lon="5.9126">
        <ele>576</ele>
        <time>2020-10-05T11:15:50.000Z</time>
      </trkpt>
      <trkpt lat="44.00333" lon="5.9126">
        <ele>576</ele>
        <time>2020-10-05T11:15:51.000Z</time>
      </trkpt>
      <trkpt lat="44.00333" lon="5.9126">
        <ele>576</ele>
        <time>2020-10-05T11:15:52.000Z</time>
      </trkpt>
      <trkpt lat="44.00334" lon="5.91261">
        <ele>576</ele>
        <time>2020-10-05T11:15:53.000Z</time>
      </trkpt>
      <trkpt lat="44.00335" lon="5.91261">
        <ele>576</ele>
        <time>2020-10-05T11:15:54.000Z</time>
      </trkpt>
      <trkpt lat="44.00335" lon="5.91262">
        <ele>576</ele>
        <time>2020-10-05T11:15:55.000Z</time>
      </trkpt>
      <trkpt lat="44.00336" lon="5.91263">
        <ele>576</ele>
        <time>2020-10-05T11:15:56.000Z</time>
      </trkpt>
      <trkpt lat="44.00337" lon="5.91263">
        <ele>576</ele>
        <time>2020-10-05T11:15:57.000Z</time>
      </trkpt>
      <trkpt lat="44.00337" lon="5.91263">
        <ele>576</ele>
        <time>2020-10-05T11:15:58.000Z</time>
      </trkpt>
      <trkpt lat="44.00338" lon="5.91264">
        <ele>576</ele>
        <time>2020-10-05T11:15:59.000Z</time>
      </trkpt>
      <trkpt lat="44.00339" lon="5.91265">
        <ele>576</ele>
        <time>2020-10-05T11:16:00.000Z</time>
      </trkpt>
      <trkpt lat="44.00339" lon="5.91265">
        <ele>576</ele>
        <time>2020-10-05T11:16:01.000Z</time>
      </trkpt>
      <trkpt lat="44.0034" lon="5.91265">
        <ele>576</ele>
        <time>2020-10-05T11:16:02.000Z</time>
      </trkpt>
      <trkpt lat="44.00341" lon="5.91266">
        <ele>576</ele>
        <time>2020-10-05T11:16:03.000Z</time>
      </trkpt>
      <trkpt lat="44.00341" lon="5.91267">
        <ele>576</ele>
        <time>2020-10-05T11:16:04.000Z</time>
      </trkpt>
      <trkpt lat="44.00342" lon="5.91267">
        <ele>576</ele>
        <time>2020-10-05T11:16:05.000Z</time>
      </trkpt>
      <trkpt lat="44.00343" lon="5.91268">
        <ele>576</ele>
        <time>2020-10-05T11:16:06.000Z</time>
      </trkpt>
      <trkpt lat="44.00343" lon="5.91269">
        <ele>576</ele>
        <time>2020-10-05T11:16:07.000Z</time>
      </trkpt>
      <trkpt lat="44.00344" lon="5.91269">
        <ele>576</ele>
        <time>2020-10-05T11:16:08.000Z</time>
      </trkpt>
      <trkpt lat="44.00345" lon="5.91269">
        <ele>576</ele>
        <time>2020-10-05T11:16:09.000Z</time>
      </trkpt>
      <trkpt lat="44.00346" lon="5.9127">
        <ele>576</ele>
        <time>2020-10-05T11:16:10.000Z</time>
      </trkpt>
      <trkpt lat="44.00346" lon="5.91271">
        <ele>576</ele>
        <time>2020-10-05T11:16:11.000Z</time>
      </trkpt>
      <trkpt lat="44.00347" lon="5.91271">
        <ele>576</ele>
        <time>2020-10-05T11:16:12.000Z</time>
      </trkpt>
      <trkpt lat="44.00347" lon="5.91272">
        <ele>576</ele>
        <time>2020-10-05T11:16:13.000Z</time>
      </trkpt>
      <trkpt lat="44.00348" lon="5.91273">
        <ele>576</ele>
        <time>2020-10-05T11:16:14.000Z</time>
      </trkpt>
      <trkpt lat="44.00349" lon="5.91273">
        <ele>576</ele>
        <time>2020-10-05T11:16:15.000Z</time>
      </trkpt>
      <trkpt lat="44.0035" lon="5.91274">
        <ele>576</ele>
        <time>2020-10-05T11:16:16.000Z</time>
      </trkpt>
      <trkpt lat="44.00351" lon="5.91274">
        <ele>576</ele>
        <time>2020-10-05T11:16:17.000Z</time>
      </trkpt>
      <trkpt lat="44.00351" lon="5.91275">
        <ele>576</ele>
        <time>2020-10-05T11:16:18.000Z</time>
      </trkpt>
      <trkpt lat="44.00352" lon="5.91275">
        <ele>576</ele>
        <time>2020-10-05T11:16:19.000Z</time>
      </trkpt>
      <trkpt lat="44.00353" lon="5.91276">
        <ele>576</ele>
        <time>2020-10-05T11:16:20.000Z</time>
      </trkpt>
      <trkpt lat="44.00353" lon="5.91276">
        <ele>576</ele>
        <time>2020-10-05T11:16:21.000Z</time>
      </trkpt>
      <trkpt lat="44.00354" lon="5.91277">
        <ele>576</ele>
        <time>2020-10-05T11:16:22.000Z</time>
      </trkpt>
      <trkpt lat="44.00355" lon="5.91277">
        <ele>576</ele>
        <time>2020-10-05T11:16:23.000Z</time>
      </trkpt>
      <trkpt lat="44.00355" lon="5.91277">
        <ele>576</ele>
        <time>2020-10-05T11:16:24.000Z</time>
      </trkpt>
      <trkpt lat="44.00356" lon="5.91278">
        <ele>576</ele>
        <time>2020-10-05T11:16:25.000Z</time>
      </trkpt>
      <trkpt lat="44.00357" lon="5.91278">
        <ele>576</ele>
        <time>2020-10-05T11:16:26.000Z</time>
      </trkpt>
      <trkpt lat="44.00358" lon="5.91279">
        <ele>576</ele>
        <time>2020-10-05T11:16:27.000Z</time>
      </trkpt>
      <trkpt lat="44.00358" lon="5.91279">
        <ele>576</ele>
        <time>2020-10-05T11:16:28.000Z</time>
      </trkpt>
      <trkpt lat="44.00359" lon="5.91279">
        <ele>577</ele>
        <time>2020-10-05T11:16:29.000Z</time>
      </trkpt>
      <trkpt lat="44.00359" lon="5.91279">
        <ele>577</ele>
        <time>2020-10-05T11:16:30.000Z</time>
      </trkpt>
      <trkpt lat="44.0036" lon="5.9128">
        <ele>577</ele>
        <time>2020-10-05T11:16:31.000Z</time>
      </trkpt>
      <trkpt lat="44.0036" lon="5.9128">
        <ele>577</ele>
        <time>2020-10-05T11:16:32.000Z</time>
      </trkpt>
      <trkpt lat="44.00361" lon="5.9128">
        <ele>577</ele>
        <time>2020-10-05T11:16:33.000Z</time>
      </trkpt>
      <trkpt lat="44.00362" lon="5.9128">
        <ele>577</ele>
        <time>2020-10-05T11:16:34.000Z</time>
      </trkpt>
      <trkpt lat="44.00362" lon="5.9128">
        <ele>577</ele>
        <time>2020-10-05T11:16:35.000Z</time>
      </trkpt>
      <trkpt lat="44.00363" lon="5.9128">
        <ele>577</ele>
        <time>2020-10-05T11:16:36.000Z</time>
      </trkpt>
      <trkpt lat="44.00364" lon="5.9128">
        <ele>577</ele>
        <time>2020-10-05T11:16:37.000Z</time>
      </trkpt>
      <trkpt lat="44.00365" lon="5.9128">
        <ele>577</ele>
        <time>2020-10-05T11:16:38.000Z</time>
      </trkpt>
      <trkpt lat="44.00365" lon="5.9128">
        <ele>577</ele>
        <time>2020-10-05T11:16:39.000Z</time>
      </trkpt>
      <trkpt lat="44.00366" lon="5.9128">
        <ele>577</ele>
        <time>2020-10-05T11:16:40.000Z</time>
      </trkpt>
      <trkpt lat="44.00366" lon="5.9128">
        <ele>577</ele>
        <time>2020-10-05T11:16:41.000Z</time>
      </trkpt>
      <trkpt lat="44.00367" lon="5.91281">
        <ele>577</ele>
        <time>2020-10-05T11:16:42.000Z</time>
      </trkpt>
      <trkpt lat="44.00368" lon="5.91282">
        <ele>577</ele>
        <time>2020-10-05T11:16:43.000Z</time>
      </trkpt>
      <trkpt lat="44.00369" lon="5.91282">
        <ele>577</ele>
        <time>2020-10-05T11:16:44.000Z</time>
      </trkpt>
      <trkpt lat="44.00369" lon="5.91282">
        <ele>577</ele>
        <time>2020-10-05T11:16:45.000Z</time>
      </trkpt>
      <trkpt lat="44.0037" lon="5.91282">
        <ele>577</ele>
        <time>2020-10-05T11:16:46.000Z</time>
      </trkpt>
      <trkpt lat="44.00371" lon="5.91282">
        <ele>577</ele>
        <time>2020-10-05T11:16:47.000Z</time>
      </trkpt>
      <trkpt lat="44.00372" lon="5.91281">
        <ele>577</ele>
        <time>2020-10-05T11:16:48.000Z</time>
      </trkpt>
      <trkpt lat="44.00372" lon="5.91282">
        <ele>577</ele>
        <time>2020-10-05T11:16:49.000Z</time>
      </trkpt>
      <trkpt lat="44.00373" lon="5.91282">
        <ele>577</ele>
        <time>2020-10-05T11:16:50.000Z</time>
      </trkpt>
      <trkpt lat="44.00374" lon="5.91282">
        <ele>578</ele>
        <time>2020-10-05T11:16:51.000Z</time>
      </trkpt>
      <trkpt lat="44.00375" lon="5.91282">
        <ele>578</ele>
        <time>2020-10-05T11:16:52.000Z</time>
      </trkpt>
      <trkpt lat="44.00376" lon="5.91282">
        <ele>578</ele>
        <time>2020-10-05T11:16:53.000Z</time>
      </trkpt>
      <trkpt lat="44.00377" lon="5.91282">
        <ele>578</ele>
        <time>2020-10-05T11:16:54.000Z</time>
      </trkpt>
      <trkpt lat="44.00378" lon="5.91282">
        <ele>578</ele>
        <time>2020-10-05T11:16:55.000Z</time>
      </trkpt>
      <trkpt lat="44.00379" lon="5.91281">
        <ele>578</ele>
        <time>2020-10-05T11:16:56.000Z</time>
      </trkpt>
      <trkpt lat="44.0038" lon="5.91281">
        <ele>578</ele>
        <time>2020-10-05T11:16:57.000Z</time>
      </trkpt>
      <trkpt lat="44.0038" lon="5.9128">
        <ele>578</ele>
        <time>2020-10-05T11:16:58.000Z</time>
      </trkpt>
      <trkpt lat="44.00381" lon="5.9128">
        <ele>578</ele>
        <time>2020-10-05T11:16:59.000Z</time>
      </trkpt>
      <trkpt lat="44.00382" lon="5.9128">
        <ele>578</ele>
        <time>2020-10-05T11:17:00.000Z</time>
      </trkpt>
      <trkpt lat="44.00383" lon="5.91279">
        <ele>578</ele>
        <time>2020-10-05T11:17:01.000Z</time>
      </trkpt>
      <trkpt lat="44.00384" lon="5.91279">
        <ele>578</ele>
        <time>2020-10-05T11:17:02.000Z</time>
      </trkpt>
      <trkpt lat="44.00385" lon="5.91279">
        <ele>578</ele>
        <time>2020-10-05T11:17:03.000Z</time>
      </trkpt>
      <trkpt lat="44.00386" lon="5.91279">
        <ele>578</ele>
        <time>2020-10-05T11:17:04.000Z</time>
      </trkpt>
      <trkpt lat="44.00386" lon="5.91279">
        <ele>578</ele>
        <time>2020-10-05T11:17:05.000Z</time>
      </trkpt>
      <trkpt lat="44.00387" lon="5.91279">
        <ele>578</ele>
        <time>2020-10-05T11:17:06.000Z</time>
      </trkpt>
      <trkpt lat="44.00388" lon="5.91279">
        <ele>578</ele>
        <time>2020-10-05T11:17:07.000Z</time>
      </trkpt>
      <trkpt lat="44.00389" lon="5.91279">
        <ele>578</ele>
        <time>2020-10-05T11:17:08.000Z</time>
      </trkpt>
      <trkpt lat="44.0039" lon="5.91279">
        <ele>578</ele>
        <time>2020-10-05T11:17:09.000Z</time>
      </trkpt>
      <trkpt lat="44.00391" lon="5.9128">
        <ele>578</ele>
        <time>2020-10-05T11:17:10.000Z</time>
      </trkpt>
      <trkpt lat="44.00392" lon="5.9128">
        <ele>578</ele>
        <time>2020-10-05T11:17:11.000Z</time>
      </trkpt>
      <trkpt lat="44.00393" lon="5.9128">
        <ele>578</ele>
        <time>2020-10-05T11:17:12.000Z</time>
      </trkpt>
      <trkpt lat="44.00394" lon="5.91279">
        <ele>578</ele>
        <time>2020-10-05T11:17:13.000Z</time>
      </trkpt>
      <trkpt lat="44.00395" lon="5.91279">
        <ele>578</ele>
        <time>2020-10-05T11:17:14.000Z</time>
      </trkpt>
      <trkpt lat="44.00396" lon="5.9128">
        <ele>578</ele>
        <time>2020-10-05T11:17:15.000Z</time>
      </trkpt>
      <trkpt lat="44.00396" lon="5.91281">
        <ele>578</ele>
        <time>2020-10-05T11:17:16.000Z</time>
      </trkpt>
      <trkpt lat="44.00397" lon="5.91281">
        <ele>579</ele>
        <time>2020-10-05T11:17:17.000Z</time>
      </trkpt>
      <trkpt lat="44.00398" lon="5.91282">
        <ele>579</ele>
        <time>2020-10-05T11:17:18.000Z</time>
      </trkpt>
      <trkpt lat="44.00398" lon="5.91283">
        <ele>579</ele>
        <time>2020-10-05T11:17:19.000Z</time>
      </trkpt>
      <trkpt lat="44.00399" lon="5.91284">
        <ele>579</ele>
        <time>2020-10-05T11:17:20.000Z</time>
      </trkpt>
      <trkpt lat="44.004" lon="5.91285">
        <ele>579</ele>
        <time>2020-10-05T11:17:21.000Z</time>
      </trkpt>
      <trkpt lat="44.00401" lon="5.91285">
        <ele>579</ele>
        <time>2020-10-05T11:17:22.000Z</time>
      </trkpt>
      <trkpt lat="44.00401" lon="5.91285">
        <ele>579</ele>
        <time>2020-10-05T11:17:23.000Z</time>
      </trkpt>
      <trkpt lat="44.00402" lon="5.91286">
        <ele>579</ele>
        <time>2020-10-05T11:17:24.000Z</time>
      </trkpt>
      <trkpt lat="44.00403" lon="5.91286">
        <ele>579</ele>
        <time>2020-10-05T11:17:25.000Z</time>
      </trkpt>
      <trkpt lat="44.00404" lon="5.91287">
        <ele>579</ele>
        <time>2020-10-05T11:17:26.000Z</time>
      </trkpt>
      <trkpt lat="44.00405" lon="5.91288">
        <ele>579</ele>
        <time>2020-10-05T11:17:27.000Z</time>
      </trkpt>
      <trkpt lat="44.00405" lon="5.91288">
        <ele>580</ele>
        <time>2020-10-05T11:17:28.000Z</time>
      </trkpt>
      <trkpt lat="44.00406" lon="5.91289">
        <ele>580</ele>
        <time>2020-10-05T11:17:29.000Z</time>
      </trkpt>
      <trkpt lat="44.00407" lon="5.9129">
        <ele>580</ele>
        <time>2020-10-05T11:17:30.000Z</time>
      </trkpt>
      <trkpt lat="44.00408" lon="5.9129">
        <ele>580</ele>
        <time>2020-10-05T11:17:31.000Z</time>
      </trkpt>
      <trkpt lat="44.00408" lon="5.91291">
        <ele>580</ele>
        <time>2020-10-05T11:17:32.000Z</time>
      </trkpt>
      <trkpt lat="44.00409" lon="5.91292">
        <ele>580</ele>
        <time>2020-10-05T11:17:33.000Z</time>
      </trkpt>
      <trkpt lat="44.0041" lon="5.91292">
        <ele>580</ele>
        <time>2020-10-05T11:17:34.000Z</time>
      </trkpt>
      <trkpt lat="44.00411" lon="5.91293">
        <ele>580</ele>
        <time>2020-10-05T11:17:35.000Z</time>
      </trkpt>
      <trkpt lat="44.00412" lon="5.91293">
        <ele>580</ele>
        <time>2020-10-05T11:17:36.000Z</time>
      </trkpt>
      <trkpt lat="44.00413" lon="5.91294">
        <ele>580</ele>
        <time>2020-10-05T11:17:37.000Z</time>
      </trkpt>
      <trkpt lat="44.00413" lon="5.91294">
        <ele>580</ele>
        <time>2020-10-05T11:17:38.000Z</time>
      </trkpt>
      <trkpt lat="44.00414" lon="5.91295">
        <ele>580</ele>
        <time>2020-10-05T11:17:39.000Z</time>
      </trkpt>
      <trkpt lat="44.00414" lon="5.91296">
        <ele>581</ele>
        <time>2020-10-05T11:17:40.000Z</time>
      </trkpt>
      <trkpt lat="44.00415" lon="5.91297">
        <ele>581</ele>
        <time>2020-10-05T11:17:41.000Z</time>
      </trkpt>
      <trkpt lat="44.00416" lon="5.91297">
        <ele>581</ele>
        <time>2020-10-05T11:17:42.000Z</time>
      </trkpt>
      <trkpt lat="44.00417" lon="5.91298">
        <ele>581</ele>
        <time>2020-10-05T11:17:43.000Z</time>
      </trkpt>
      <trkpt lat="44.00418" lon="5.91298">
        <ele>581</ele>
        <time>2020-10-05T11:17:44.000Z</time>
      </trkpt>
      <trkpt lat="44.00419" lon="5.91299">
        <ele>581</ele>
        <time>2020-10-05T11:17:45.000Z</time>
      </trkpt>
      <trkpt lat="44.0042" lon="5.913">
        <ele>581</ele>
        <time>2020-10-05T11:17:46.000Z</time>
      </trkpt>
      <trkpt lat="44.0042" lon="5.91301">
        <ele>581</ele>
        <time>2020-10-05T11:17:47.000Z</time>
      </trkpt>
      <trkpt lat="44.00421" lon="5.91301">
        <ele>581</ele>
        <time>2020-10-05T11:17:48.000Z</time>
      </trkpt>
      <trkpt lat="44.00422" lon="5.91302">
        <ele>582</ele>
        <time>2020-10-05T11:17:49.000Z</time>
      </trkpt>
      <trkpt lat="44.00423" lon="5.91302">
        <ele>582</ele>
        <time>2020-10-05T11:17:50.000Z</time>
      </trkpt>
      <trkpt lat="44.00424" lon="5.91303">
        <ele>582</ele>
        <time>2020-10-05T11:17:51.000Z</time>
      </trkpt>
      <trkpt lat="44.00425" lon="5.91303">
        <ele>582</ele>
        <time>2020-10-05T11:17:52.000Z</time>
      </trkpt>
      <trkpt lat="44.00425" lon="5.91304">
        <ele>582</ele>
        <time>2020-10-05T11:17:53.000Z</time>
      </trkpt>
      <trkpt lat="44.00426" lon="5.91305">
        <ele>582</ele>
        <time>2020-10-05T11:17:54.000Z</time>
      </trkpt>
      <trkpt lat="44.00427" lon="5.91306">
        <ele>582</ele>
        <time>2020-10-05T11:17:55.000Z</time>
      </trkpt>
      <trkpt lat="44.00428" lon="5.91306">
        <ele>582</ele>
        <time>2020-10-05T11:17:56.000Z</time>
      </trkpt>
      <trkpt lat="44.00428" lon="5.91307">
        <ele>582</ele>
        <time>2020-10-05T11:17:57.000Z</time>
      </trkpt>
      <trkpt lat="44.00429" lon="5.91308">
        <ele>582</ele>
        <time>2020-10-05T11:17:58.000Z</time>
      </trkpt>
      <trkpt lat="44.0043" lon="5.91308">
        <ele>583</ele>
        <time>2020-10-05T11:17:59.000Z</time>
      </trkpt>
      <trkpt lat="44.00431" lon="5.91309">
        <ele>583</ele>
        <time>2020-10-05T11:18:00.000Z</time>
      </trkpt>
      <trkpt lat="44.00432" lon="5.9131">
        <ele>583</ele>
        <time>2020-10-05T11:18:01.000Z</time>
      </trkpt>
      <trkpt lat="44.00432" lon="5.91311">
        <ele>583</ele>
        <time>2020-10-05T11:18:02.000Z</time>
      </trkpt>
      <trkpt lat="44.00432" lon="5.91311">
        <ele>583</ele>
        <time>2020-10-05T11:18:03.000Z</time>
      </trkpt>
      <trkpt lat="44.00433" lon="5.91311">
        <ele>583</ele>
        <time>2020-10-05T11:18:04.000Z</time>
      </trkpt>
      <trkpt lat="44.00433" lon="5.91311">
        <ele>584</ele>
        <time>2020-10-05T11:18:05.000Z</time>
      </trkpt>
      <trkpt lat="44.00433" lon="5.91311">
        <ele>584</ele>
        <time>2020-10-05T11:18:06.000Z</time>
      </trkpt>
      <trkpt lat="44.00433" lon="5.91312">
        <ele>584</ele>
        <time>2020-10-05T11:18:07.000Z</time>
      </trkpt>
      <trkpt lat="44.00433" lon="5.91312">
        <ele>584</ele>
        <time>2020-10-05T11:18:08.000Z</time>
      </trkpt>
      <trkpt lat="44.00433" lon="5.91312">
        <ele>584</ele>
        <time>2020-10-05T11:18:09.000Z</time>
      </trkpt>
      <trkpt lat="44.00433" lon="5.91312">
        <ele>584</ele>
        <time>2020-10-05T11:18:10.000Z</time>
      </trkpt>
      <trkpt lat="44.00433" lon="5.91312">
        <ele>584</ele>
        <time>2020-10-05T11:18:11.000Z</time>
      </trkpt>
      <trkpt lat="44.00433" lon="5.91312">
        <ele>584</ele>
        <time>2020-10-05T11:18:12.000Z</time>
      </trkpt>
      <trkpt lat="44.00433" lon="5.91312">
        <ele>584</ele>
        <time>2020-10-05T11:18:13.000Z</time>
      </trkpt>
      <trkpt lat="44.00433" lon="5.91312">
        <ele>585</ele>
        <time>2020-10-05T11:18:14.000Z</time>
      </trkpt>
      <trkpt lat="44.00433" lon="5.91312">
        <ele>585</ele>
        <time>2020-10-05T11:18:15.000Z</time>
      </trkpt>
      <trkpt lat="44.00433" lon="5.91312">
        <ele>585</ele>
        <time>2020-10-05T11:18:16.000Z</time>
      </trkpt>
      <trkpt lat="44.00432" lon="5.91312">
        <ele>585</ele>
        <time>2020-10-05T11:18:17.000Z</time>
      </trkpt>
      <trkpt lat="44.00432" lon="5.91312">
        <ele>585</ele>
        <time>2020-10-05T11:18:18.000Z</time>
      </trkpt>
      <trkpt lat="44.00432" lon="5.91312">
        <ele>585</ele>
        <time>2020-10-05T11:18:19.000Z</time>
      </trkpt>
      <trkpt lat="44.00432" lon="5.91312">
        <ele>585</ele>
        <time>2020-10-05T11:18:20.000Z</time>
      </trkpt>
      <trkpt lat="44.00432" lon="5.91312">
        <ele>585</ele>
        <time>2020-10-05T11:18:21.000Z</time>
      </trkpt>
      <trkpt lat="44.00432" lon="5.91312">
        <ele>585</ele>
        <time>2020-10-05T11:18:22.000Z</time>
      </trkpt>
      <trkpt lat="44.00433" lon="5.91312">
        <ele>585</ele>
        <time>2020-10-05T11:18:23.000Z</time>
      </trkpt>
      <trkpt lat="44.00433" lon="5.91312">
        <ele>585</ele>
        <time>2020-10-05T11:18:24.000Z</time>
      </trkpt>
      <trkpt lat="44.00434" lon="5.91313">
        <ele>585</ele>
        <time>2020-10-05T11:18:25.000Z</time>
      </trkpt>
      <trkpt lat="44.00435" lon="5.91313">
        <ele>585</ele>
        <time>2020-10-05T11:18:26.000Z</time>
      </trkpt>
      <trkpt lat="44.00436" lon="5.91313">
        <ele>586</ele>
        <time>2020-10-05T11:18:27.000Z</time>
      </trkpt>
      <trkpt lat="44.00437" lon="5.91314">
        <ele>586</ele>
        <time>2020-10-05T11:18:28.000Z</time>
      </trkpt>
      <trkpt lat="44.00438" lon="5.91315">
        <ele>586</ele>
        <time>2020-10-05T11:18:29.000Z</time>
      </trkpt>
      <trkpt lat="44.00439" lon="5.91315">
        <ele>585</ele>
        <time>2020-10-05T11:18:30.000Z</time>
      </trkpt>
      <trkpt lat="44.00439" lon="5.91316">
        <ele>585</ele>
        <time>2020-10-05T11:18:31.000Z</time>
      </trkpt>
      <trkpt lat="44.0044" lon="5.91316">
        <ele>585</ele>
        <time>2020-10-05T11:18:32.000Z</time>
      </trkpt>
      <trkpt lat="44.00441" lon="5.91317">
        <ele>585</ele>
        <time>2020-10-05T11:18:33.000Z</time>
      </trkpt>
      <trkpt lat="44.00442" lon="5.91318">
        <ele>585</ele>
        <time>2020-10-05T11:18:34.000Z</time>
      </trkpt>
      <trkpt lat="44.00443" lon="5.91318">
        <ele>585</ele>
        <time>2020-10-05T11:18:35.000Z</time>
      </trkpt>
      <trkpt lat="44.00444" lon="5.91319">
        <ele>585</ele>
        <time>2020-10-05T11:18:36.000Z</time>
      </trkpt>
      <trkpt lat="44.00445" lon="5.9132">
        <ele>585</ele>
        <time>2020-10-05T11:18:37.000Z</time>
      </trkpt>
      <trkpt lat="44.00446" lon="5.9132">
        <ele>585</ele>
        <time>2020-10-05T11:18:38.000Z</time>
      </trkpt>
      <trkpt lat="44.00447" lon="5.9132">
        <ele>585</ele>
        <time>2020-10-05T11:18:39.000Z</time>
      </trkpt>
      <trkpt lat="44.00447" lon="5.91321">
        <ele>585</ele>
        <time>2020-10-05T11:18:40.000Z</time>
      </trkpt>
      <trkpt lat="44.00448" lon="5.91322">
        <ele>585</ele>
        <time>2020-10-05T11:18:41.000Z</time>
      </trkpt>
      <trkpt lat="44.00449" lon="5.91323">
        <ele>585</ele>
        <time>2020-10-05T11:18:42.000Z</time>
      </trkpt>
      <trkpt lat="44.00449" lon="5.91324">
        <ele>585</ele>
        <time>2020-10-05T11:18:43.000Z</time>
      </trkpt>
      <trkpt lat="44.0045" lon="5.91324">
        <ele>585</ele>
        <time>2020-10-05T11:18:44.000Z</time>
      </trkpt>
      <trkpt lat="44.00451" lon="5.91325">
        <ele>585</ele>
        <time>2020-10-05T11:18:45.000Z</time>
      </trkpt>
      <trkpt lat="44.00452" lon="5.91326">
        <ele>585</ele>
        <time>2020-10-05T11:18:46.000Z</time>
      </trkpt>
      <trkpt lat="44.00452" lon="5.91327">
        <ele>585</ele>
        <time>2020-10-05T11:18:47.000Z</time>
      </trkpt>
      <trkpt lat="44.00453" lon="5.91328">
        <ele>585</ele>
        <time>2020-10-05T11:18:48.000Z</time>
      </trkpt>
      <trkpt lat="44.00454" lon="5.91329">
        <ele>585</ele>
        <time>2020-10-05T11:18:49.000Z</time>
      </trkpt>
      <trkpt lat="44.00454" lon="5.9133">
        <ele>585</ele>
        <time>2020-10-05T11:18:50.000Z</time>
      </trkpt>
      <trkpt lat="44.00455" lon="5.9133">
        <ele>585</ele>
        <time>2020-10-05T11:18:51.000Z</time>
      </trkpt>
      <trkpt lat="44.00456" lon="5.91331">
        <ele>585</ele>
        <time>2020-10-05T11:18:52.000Z</time>
      </trkpt>
      <trkpt lat="44.00456" lon="5.91332">
        <ele>585</ele>
        <time>2020-10-05T11:18:53.000Z</time>
      </trkpt>
      <trkpt lat="44.00457" lon="5.91332">
        <ele>585</ele>
        <time>2020-10-05T11:18:54.000Z</time>
      </trkpt>
      <trkpt lat="44.00458" lon="5.91333">
        <ele>585</ele>
        <time>2020-10-05T11:18:55.000Z</time>
      </trkpt>
      <trkpt lat="44.00458" lon="5.91334">
        <ele>585</ele>
        <time>2020-10-05T11:18:56.000Z</time>
      </trkpt>
      <trkpt lat="44.00459" lon="5.91335">
        <ele>585</ele>
        <time>2020-10-05T11:18:57.000Z</time>
      </trkpt>
      <trkpt lat="44.0046" lon="5.91335">
        <ele>585</ele>
        <time>2020-10-05T11:18:58.000Z</time>
      </trkpt>
      <trkpt lat="44.00461" lon="5.91336">
        <ele>585</ele>
        <time>2020-10-05T11:18:59.000Z</time>
      </trkpt>
      <trkpt lat="44.00461" lon="5.91337">
        <ele>585</ele>
        <time>2020-10-05T11:19:00.000Z</time>
      </trkpt>
      <trkpt lat="44.00462" lon="5.91337">
        <ele>585</ele>
        <time>2020-10-05T11:19:01.000Z</time>
      </trkpt>
      <trkpt lat="44.00463" lon="5.91338">
        <ele>585</ele>
        <time>2020-10-05T11:19:02.000Z</time>
      </trkpt>
      <trkpt lat="44.00463" lon="5.91338">
        <ele>586</ele>
        <time>2020-10-05T11:19:03.000Z</time>
      </trkpt>
      <trkpt lat="44.00464" lon="5.91338">
        <ele>586</ele>
        <time>2020-10-05T11:19:04.000Z</time>
      </trkpt>
      <trkpt lat="44.00465" lon="5.91338">
        <ele>586</ele>
        <time>2020-10-05T11:19:05.000Z</time>
      </trkpt>
      <trkpt lat="44.00466" lon="5.91338">
        <ele>586</ele>
        <time>2020-10-05T11:19:06.000Z</time>
      </trkpt>
      <trkpt lat="44.00467" lon="5.91339">
        <ele>586</ele>
        <time>2020-10-05T11:19:07.000Z</time>
      </trkpt>
      <trkpt lat="44.00467" lon="5.91339">
        <ele>586</ele>
        <time>2020-10-05T11:19:08.000Z</time>
      </trkpt>
      <trkpt lat="44.00468" lon="5.91339">
        <ele>586</ele>
        <time>2020-10-05T11:19:09.000Z</time>
      </trkpt>
      <trkpt lat="44.00469" lon="5.9134">
        <ele>586</ele>
        <time>2020-10-05T11:19:10.000Z</time>
      </trkpt>
      <trkpt lat="44.0047" lon="5.9134">
        <ele>587</ele>
        <time>2020-10-05T11:19:11.000Z</time>
      </trkpt>
      <trkpt lat="44.00471" lon="5.9134">
        <ele>587</ele>
        <time>2020-10-05T11:19:12.000Z</time>
      </trkpt>
      <trkpt lat="44.00472" lon="5.9134">
        <ele>587</ele>
        <time>2020-10-05T11:19:13.000Z</time>
      </trkpt>
      <trkpt lat="44.00472" lon="5.9134">
        <ele>587</ele>
        <time>2020-10-05T11:19:14.000Z</time>
      </trkpt>
      <trkpt lat="44.00473" lon="5.9134">
        <ele>588</ele>
        <time>2020-10-05T11:19:15.000Z</time>
      </trkpt>
      <trkpt lat="44.00474" lon="5.9134">
        <ele>588</ele>
        <time>2020-10-05T11:19:16.000Z</time>
      </trkpt>
      <trkpt lat="44.00475" lon="5.91339">
        <ele>588</ele>
        <time>2020-10-05T11:19:17.000Z</time>
      </trkpt>
      <trkpt lat="44.00476" lon="5.9134">
        <ele>588</ele>
        <time>2020-10-05T11:19:18.000Z</time>
      </trkpt>
      <trkpt lat="44.00477" lon="5.9134">
        <ele>589</ele>
        <time>2020-10-05T11:19:19.000Z</time>
      </trkpt>
      <trkpt lat="44.00477" lon="5.9134">
        <ele>589</ele>
        <time>2020-10-05T11:19:20.000Z</time>
      </trkpt>
      <trkpt lat="44.00478" lon="5.9134">
        <ele>589</ele>
        <time>2020-10-05T11:19:21.000Z</time>
      </trkpt>
      <trkpt lat="44.00479" lon="5.9134">
        <ele>589</ele>
        <time>2020-10-05T11:19:22.000Z</time>
      </trkpt>
      <trkpt lat="44.0048" lon="5.91341">
        <ele>589</ele>
        <time>2020-10-05T11:19:23.000Z</time>
      </trkpt>
      <trkpt lat="44.00481" lon="5.91341">
        <ele>589</ele>
        <time>2020-10-05T11:19:24.000Z</time>
      </trkpt>
      <trkpt lat="44.00483" lon="5.91341">
        <ele>589</ele>
        <time>2020-10-05T11:19:25.000Z</time>
      </trkpt>
      <trkpt lat="44.00483" lon="5.91341">
        <ele>589</ele>
        <time>2020-10-05T11:19:26.000Z</time>
      </trkpt>
      <trkpt lat="44.00484" lon="5.9134">
        <ele>590</ele>
        <time>2020-10-05T11:19:27.000Z</time>
      </trkpt>
      <trkpt lat="44.00485" lon="5.9134">
        <ele>590</ele>
        <time>2020-10-05T11:19:28.000Z</time>
      </trkpt>
      <trkpt lat="44.00486" lon="5.9134">
        <ele>590</ele>
        <time>2020-10-05T11:19:29.000Z</time>
      </trkpt>
      <trkpt lat="44.00487" lon="5.9134">
        <ele>590</ele>
        <time>2020-10-05T11:19:30.000Z</time>
      </trkpt>
      <trkpt lat="44.00488" lon="5.9134">
        <ele>590</ele>
        <time>2020-10-05T11:19:31.000Z</time>
      </trkpt>
      <trkpt lat="44.00489" lon="5.91339">
        <ele>590</ele>
        <time>2020-10-05T11:19:32.000Z</time>
      </trkpt>
      <trkpt lat="44.00489" lon="5.91339">
        <ele>590</ele>
        <time>2020-10-05T11:19:33.000Z</time>
      </trkpt>
      <trkpt lat="44.0049" lon="5.91339">
        <ele>590</ele>
        <time>2020-10-05T11:19:34.000Z</time>
      </trkpt>
      <trkpt lat="44.00491" lon="5.91339">
        <ele>590</ele>
        <time>2020-10-05T11:19:35.000Z</time>
      </trkpt>
      <trkpt lat="44.00492" lon="5.91339">
        <ele>590</ele>
        <time>2020-10-05T11:19:36.000Z</time>
      </trkpt>
      <trkpt lat="44.00493" lon="5.91339">
        <ele>590</ele>
        <time>2020-10-05T11:19:37.000Z</time>
      </trkpt>
      <trkpt lat="44.00494" lon="5.91339">
        <ele>591</ele>
        <time>2020-10-05T11:19:38.000Z</time>
      </trkpt>
      <trkpt lat="44.00494" lon="5.91339">
        <ele>591</ele>
        <time>2020-10-05T11:19:39.000Z</time>
      </trkpt>
      <trkpt lat="44.00495" lon="5.91338">
        <ele>591</ele>
        <time>2020-10-05T11:19:40.000Z</time>
      </trkpt>
      <trkpt lat="44.00496" lon="5.91339">
        <ele>591</ele>
        <time>2020-10-05T11:19:41.000Z</time>
      </trkpt>
      <trkpt lat="44.00497" lon="5.91338">
        <ele>591</ele>
        <time>2020-10-05T11:19:42.000Z</time>
      </trkpt>
      <trkpt lat="44.00498" lon="5.91338">
        <ele>591</ele>
        <time>2020-10-05T11:19:43.000Z</time>
      </trkpt>
      <trkpt lat="44.00499" lon="5.91338">
        <ele>591</ele>
        <time>2020-10-05T11:19:44.000Z</time>
      </trkpt>
      <trkpt lat="44.005" lon="5.91338">
        <ele>591</ele>
        <time>2020-10-05T11:19:45.000Z</time>
      </trkpt>
      <trkpt lat="44.00501" lon="5.91337">
        <ele>591</ele>
        <time>2020-10-05T11:19:46.000Z</time>
      </trkpt>
      <trkpt lat="44.00502" lon="5.91337">
        <ele>591</ele>
        <time>2020-10-05T11:19:47.000Z</time>
      </trkpt>
      <trkpt lat="44.00503" lon="5.91337">
        <ele>591</ele>
        <time>2020-10-05T11:19:48.000Z</time>
      </trkpt>
      <trkpt lat="44.00504" lon="5.91337">
        <ele>592</ele>
        <time>2020-10-05T11:19:49.000Z</time>
      </trkpt>
      <trkpt lat="44.00505" lon="5.91337">
        <ele>592</ele>
        <time>2020-10-05T11:19:50.000Z</time>
      </trkpt>
      <trkpt lat="44.00506" lon="5.91336">
        <ele>592</ele>
        <time>2020-10-05T11:19:51.000Z</time>
      </trkpt>
      <trkpt lat="44.00508" lon="5.91336">
        <ele>592</ele>
        <time>2020-10-05T11:19:52.000Z</time>
      </trkpt>
      <trkpt lat="44.00509" lon="5.91335">
        <ele>592</ele>
        <time>2020-10-05T11:19:53.000Z</time>
      </trkpt>
      <trkpt lat="44.0051" lon="5.91335">
        <ele>592</ele>
        <time>2020-10-05T11:19:54.000Z</time>
      </trkpt>
      <trkpt lat="44.00511" lon="5.91335">
        <ele>593</ele>
        <time>2020-10-05T11:19:55.000Z</time>
      </trkpt>
      <trkpt lat="44.00512" lon="5.91335">
        <ele>593</ele>
        <time>2020-10-05T11:19:56.000Z</time>
      </trkpt>
      <trkpt lat="44.00512" lon="5.91335">
        <ele>593</ele>
        <time>2020-10-05T11:19:57.000Z</time>
      </trkpt>
      <trkpt lat="44.00513" lon="5.91335">
        <ele>593</ele>
        <time>2020-10-05T11:19:58.000Z</time>
      </trkpt>
      <trkpt lat="44.00514" lon="5.91334">
        <ele>593</ele>
        <time>2020-10-05T11:19:59.000Z</time>
      </trkpt>
      <trkpt lat="44.00515" lon="5.91334">
        <ele>593</ele>
        <time>2020-10-05T11:20:00.000Z</time>
      </trkpt>
      <trkpt lat="44.00516" lon="5.91334">
        <ele>594</ele>
        <time>2020-10-05T11:20:01.000Z</time>
      </trkpt>
      <trkpt lat="44.00517" lon="5.91334">
        <ele>594</ele>
        <time>2020-10-05T11:20:02.000Z</time>
      </trkpt>
      <trkpt lat="44.00518" lon="5.91334">
        <ele>594</ele>
        <time>2020-10-05T11:20:03.000Z</time>
      </trkpt>
      <trkpt lat="44.00519" lon="5.91334">
        <ele>594</ele>
        <time>2020-10-05T11:20:04.000Z</time>
      </trkpt>
      <trkpt lat="44.00521" lon="5.91333">
        <ele>594</ele>
        <time>2020-10-05T11:20:05.000Z</time>
      </trkpt>
      <trkpt lat="44.00521" lon="5.91333">
        <ele>594</ele>
        <time>2020-10-05T11:20:06.000Z</time>
      </trkpt>
      <trkpt lat="44.00522" lon="5.91333">
        <ele>595</ele>
        <time>2020-10-05T11:20:07.000Z</time>
      </trkpt>
      <trkpt lat="44.00524" lon="5.91333">
        <ele>595</ele>
        <time>2020-10-05T11:20:08.000Z</time>
      </trkpt>
      <trkpt lat="44.00525" lon="5.91333">
        <ele>595</ele>
        <time>2020-10-05T11:20:09.000Z</time>
      </trkpt>
      <trkpt lat="44.00526" lon="5.91333">
        <ele>595</ele>
        <time>2020-10-05T11:20:10.000Z</time>
      </trkpt>
      <trkpt lat="44.00527" lon="5.91333">
        <ele>595</ele>
        <time>2020-10-05T11:20:11.000Z</time>
      </trkpt>
      <trkpt lat="44.00528" lon="5.91333">
        <ele>595</ele>
        <time>2020-10-05T11:20:12.000Z</time>
      </trkpt>
      <trkpt lat="44.00529" lon="5.91333">
        <ele>595</ele>
        <time>2020-10-05T11:20:13.000Z</time>
      </trkpt>
      <trkpt lat="44.0053" lon="5.91333">
        <ele>595</ele>
        <time>2020-10-05T11:20:14.000Z</time>
      </trkpt>
      <trkpt lat="44.00531" lon="5.91332">
        <ele>595</ele>
        <time>2020-10-05T11:20:15.000Z</time>
      </trkpt>
      <trkpt lat="44.00532" lon="5.91332">
        <ele>596</ele>
        <time>2020-10-05T11:20:16.000Z</time>
      </trkpt>
      <trkpt lat="44.00533" lon="5.91332">
        <ele>596</ele>
        <time>2020-10-05T11:20:17.000Z</time>
      </trkpt>
      <trkpt lat="44.00534" lon="5.91332">
        <ele>596</ele>
        <time>2020-10-05T11:20:18.000Z</time>
      </trkpt>
      <trkpt lat="44.00535" lon="5.91332">
        <ele>596</ele>
        <time>2020-10-05T11:20:19.000Z</time>
      </trkpt>
      <trkpt lat="44.00536" lon="5.91331">
        <ele>596</ele>
        <time>2020-10-05T11:20:20.000Z</time>
      </trkpt>
      <trkpt lat="44.00537" lon="5.91331">
        <ele>596</ele>
        <time>2020-10-05T11:20:21.000Z</time>
      </trkpt>
      <trkpt lat="44.00538" lon="5.9133">
        <ele>596</ele>
        <time>2020-10-05T11:20:22.000Z</time>
      </trkpt>
      <trkpt lat="44.00539" lon="5.9133">
        <ele>596</ele>
        <time>2020-10-05T11:20:23.000Z</time>
      </trkpt>
      <trkpt lat="44.0054" lon="5.91329">
        <ele>596</ele>
        <time>2020-10-05T11:20:24.000Z</time>
      </trkpt>
      <trkpt lat="44.00541" lon="5.91329">
        <ele>596</ele>
        <time>2020-10-05T11:20:25.000Z</time>
      </trkpt>
      <trkpt lat="44.00542" lon="5.91329">
        <ele>596</ele>
        <time>2020-10-05T11:20:26.000Z</time>
      </trkpt>
      <trkpt lat="44.00543" lon="5.91328">
        <ele>596</ele>
        <time>2020-10-05T11:20:27.000Z</time>
      </trkpt>
      <trkpt lat="44.00544" lon="5.91328">
        <ele>596</ele>
        <time>2020-10-05T11:20:28.000Z</time>
      </trkpt>
      <trkpt lat="44.00545" lon="5.91327">
        <ele>597</ele>
        <time>2020-10-05T11:20:29.000Z</time>
      </trkpt>
      <trkpt lat="44.00546" lon="5.91327">
        <ele>597</ele>
        <time>2020-10-05T11:20:30.000Z</time>
      </trkpt>
      <trkpt lat="44.00547" lon="5.91326">
        <ele>597</ele>
        <time>2020-10-05T11:20:31.000Z</time>
      </trkpt>
      <trkpt lat="44.00548" lon="5.91326">
        <ele>597</ele>
        <time>2020-10-05T11:20:32.000Z</time>
      </trkpt>
      <trkpt lat="44.00549" lon="5.91326">
        <ele>597</ele>
        <time>2020-10-05T11:20:33.000Z</time>
      </trkpt>
      <trkpt lat="44.0055" lon="5.91325">
        <ele>597</ele>
        <time>2020-10-05T11:20:34.000Z</time>
      </trkpt>
      <trkpt lat="44.00551" lon="5.91325">
        <ele>597</ele>
        <time>2020-10-05T11:20:35.000Z</time>
      </trkpt>
      <trkpt lat="44.00551" lon="5.91325">
        <ele>597</ele>
        <time>2020-10-05T11:20:36.000Z</time>
      </trkpt>
      <trkpt lat="44.00552" lon="5.91324">
        <ele>597</ele>
        <time>2020-10-05T11:20:37.000Z</time>
      </trkpt>
      <trkpt lat="44.00554" lon="5.91324">
        <ele>597</ele>
        <time>2020-10-05T11:20:38.000Z</time>
      </trkpt>
      <trkpt lat="44.00554" lon="5.91323">
        <ele>598</ele>
        <time>2020-10-05T11:20:39.000Z</time>
      </trkpt>
      <trkpt lat="44.00555" lon="5.91323">
        <ele>598</ele>
        <time>2020-10-05T11:20:40.000Z</time>
      </trkpt>
      <trkpt lat="44.00556" lon="5.91322">
        <ele>598</ele>
        <time>2020-10-05T11:20:41.000Z</time>
      </trkpt>
      <trkpt lat="44.00558" lon="5.91322">
        <ele>598</ele>
        <time>2020-10-05T11:20:42.000Z</time>
      </trkpt>
      <trkpt lat="44.00558" lon="5.91321">
        <ele>597</ele>
        <time>2020-10-05T11:20:43.000Z</time>
      </trkpt>
      <trkpt lat="44.00559" lon="5.91321">
        <ele>597</ele>
        <time>2020-10-05T11:20:44.000Z</time>
      </trkpt>
      <trkpt lat="44.0056" lon="5.9132">
        <ele>597</ele>
        <time>2020-10-05T11:20:45.000Z</time>
      </trkpt>
      <trkpt lat="44.00561" lon="5.9132">
        <ele>597</ele>
        <time>2020-10-05T11:20:46.000Z</time>
      </trkpt>
      <trkpt lat="44.00562" lon="5.91319">
        <ele>598</ele>
        <time>2020-10-05T11:20:47.000Z</time>
      </trkpt>
      <trkpt lat="44.00564" lon="5.91319">
        <ele>598</ele>
        <time>2020-10-05T11:20:48.000Z</time>
      </trkpt>
      <trkpt lat="44.00564" lon="5.91318">
        <ele>598</ele>
        <time>2020-10-05T11:20:49.000Z</time>
      </trkpt>
      <trkpt lat="44.00565" lon="5.91318">
        <ele>598</ele>
        <time>2020-10-05T11:20:50.000Z</time>
      </trkpt>
      <trkpt lat="44.00566" lon="5.91317">
        <ele>598</ele>
        <time>2020-10-05T11:20:51.000Z</time>
      </trkpt>
      <trkpt lat="44.00567" lon="5.91316">
        <ele>598</ele>
        <time>2020-10-05T11:20:52.000Z</time>
      </trkpt>
      <trkpt lat="44.00568" lon="5.91316">
        <ele>598</ele>
        <time>2020-10-05T11:20:53.000Z</time>
      </trkpt>
      <trkpt lat="44.00568" lon="5.91316">
        <ele>598</ele>
        <time>2020-10-05T11:20:54.000Z</time>
      </trkpt>
      <trkpt lat="44.00569" lon="5.91315">
        <ele>598</ele>
        <time>2020-10-05T11:20:55.000Z</time>
      </trkpt>
      <trkpt lat="44.0057" lon="5.91314">
        <ele>598</ele>
        <time>2020-10-05T11:20:56.000Z</time>
      </trkpt>
      <trkpt lat="44.00571" lon="5.91314">
        <ele>598</ele>
        <time>2020-10-05T11:20:57.000Z</time>
      </trkpt>
      <trkpt lat="44.00572" lon="5.91313">
        <ele>598</ele>
        <time>2020-10-05T11:20:58.000Z</time>
      </trkpt>
      <trkpt lat="44.00573" lon="5.91313">
        <ele>598</ele>
        <time>2020-10-05T11:20:59.000Z</time>
      </trkpt>
      <trkpt lat="44.00574" lon="5.91312">
        <ele>598</ele>
        <time>2020-10-05T11:21:00.000Z</time>
      </trkpt>
      <trkpt lat="44.00575" lon="5.91312">
        <ele>598</ele>
        <time>2020-10-05T11:21:01.000Z</time>
      </trkpt>
      <trkpt lat="44.00576" lon="5.91311">
        <ele>598</ele>
        <time>2020-10-05T11:21:02.000Z</time>
      </trkpt>
      <trkpt lat="44.00577" lon="5.91311">
        <ele>598</ele>
        <time>2020-10-05T11:21:03.000Z</time>
      </trkpt>
      <trkpt lat="44.00577" lon="5.9131">
        <ele>598</ele>
        <time>2020-10-05T11:21:04.000Z</time>
      </trkpt>
      <trkpt lat="44.00578" lon="5.9131">
        <ele>598</ele>
        <time>2020-10-05T11:21:05.000Z</time>
      </trkpt>
      <trkpt lat="44.00579" lon="5.91309">
        <ele>598</ele>
        <time>2020-10-05T11:21:06.000Z</time>
      </trkpt>
      <trkpt lat="44.0058" lon="5.91309">
        <ele>598</ele>
        <time>2020-10-05T11:21:07.000Z</time>
      </trkpt>
      <trkpt lat="44.00581" lon="5.91309">
        <ele>598</ele>
        <time>2020-10-05T11:21:08.000Z</time>
      </trkpt>
      <trkpt lat="44.00582" lon="5.91308">
        <ele>598</ele>
        <time>2020-10-05T11:21:09.000Z</time>
      </trkpt>
      <trkpt lat="44.00583" lon="5.91308">
        <ele>599</ele>
        <time>2020-10-05T11:21:10.000Z</time>
      </trkpt>
      <trkpt lat="44.00584" lon="5.91307">
        <ele>599</ele>
        <time>2020-10-05T11:21:11.000Z</time>
      </trkpt>
      <trkpt lat="44.00585" lon="5.91306">
        <ele>599</ele>
        <time>2020-10-05T11:21:12.000Z</time>
      </trkpt>
      <trkpt lat="44.00586" lon="5.91306">
        <ele>599</ele>
        <time>2020-10-05T11:21:13.000Z</time>
      </trkpt>
      <trkpt lat="44.00587" lon="5.91305">
        <ele>599</ele>
        <time>2020-10-05T11:21:14.000Z</time>
      </trkpt>
      <trkpt lat="44.00588" lon="5.91305">
        <ele>599</ele>
        <time>2020-10-05T11:21:15.000Z</time>
      </trkpt>
      <trkpt lat="44.00589" lon="5.91305">
        <ele>599</ele>
        <time>2020-10-05T11:21:16.000Z</time>
      </trkpt>
      <trkpt lat="44.0059" lon="5.91305">
        <ele>599</ele>
        <time>2020-10-05T11:21:17.000Z</time>
      </trkpt>
      <trkpt lat="44.00591" lon="5.91305">
        <ele>599</ele>
        <time>2020-10-05T11:21:18.000Z</time>
      </trkpt>
      <trkpt lat="44.00592" lon="5.91304">
        <ele>599</ele>
        <time>2020-10-05T11:21:19.000Z</time>
      </trkpt>
      <trkpt lat="44.00593" lon="5.91305">
        <ele>599</ele>
        <time>2020-10-05T11:21:20.000Z</time>
      </trkpt>
      <trkpt lat="44.00594" lon="5.91305">
        <ele>599</ele>
        <time>2020-10-05T11:21:21.000Z</time>
      </trkpt>
      <trkpt lat="44.00596" lon="5.91305">
        <ele>599</ele>
        <time>2020-10-05T11:21:22.000Z</time>
      </trkpt>
      <trkpt lat="44.00597" lon="5.91304">
        <ele>599</ele>
        <time>2020-10-05T11:21:23.000Z</time>
      </trkpt>
      <trkpt lat="44.00598" lon="5.91304">
        <ele>599</ele>
        <time>2020-10-05T11:21:24.000Z</time>
      </trkpt>
      <trkpt lat="44.00599" lon="5.91304">
        <ele>599</ele>
        <time>2020-10-05T11:21:25.000Z</time>
      </trkpt>
      <trkpt lat="44.006" lon="5.91304">
        <ele>599</ele>
        <time>2020-10-05T11:21:26.000Z</time>
      </trkpt>
      <trkpt lat="44.00601" lon="5.91304">
        <ele>599</ele>
        <time>2020-10-05T11:21:27.000Z</time>
      </trkpt>
      <trkpt lat="44.00602" lon="5.91304">
        <ele>599</ele>
        <time>2020-10-05T11:21:28.000Z</time>
      </trkpt>
      <trkpt lat="44.00603" lon="5.91304">
        <ele>599</ele>
        <time>2020-10-05T11:21:29.000Z</time>
      </trkpt>
      <trkpt lat="44.00604" lon="5.91304">
        <ele>599</ele>
        <time>2020-10-05T11:21:30.000Z</time>
      </trkpt>
      <trkpt lat="44.00605" lon="5.91304">
        <ele>599</ele>
        <time>2020-10-05T11:21:31.000Z</time>
      </trkpt>
      <trkpt lat="44.00606" lon="5.91305">
        <ele>599</ele>
        <time>2020-10-05T11:21:32.000Z</time>
      </trkpt>
      <trkpt lat="44.00607" lon="5.91305">
        <ele>600</ele>
        <time>2020-10-05T11:21:33.000Z</time>
      </trkpt>
      <trkpt lat="44.00609" lon="5.91306">
        <ele>600</ele>
        <time>2020-10-05T11:21:34.000Z</time>
      </trkpt>
      <trkpt lat="44.0061" lon="5.91306">
        <ele>600</ele>
        <time>2020-10-05T11:21:35.000Z</time>
      </trkpt>
      <trkpt lat="44.00611" lon="5.91306">
        <ele>600</ele>
        <time>2020-10-05T11:21:36.000Z</time>
      </trkpt>
      <trkpt lat="44.00612" lon="5.91307">
        <ele>600</ele>
        <time>2020-10-05T11:21:37.000Z</time>
      </trkpt>
      <trkpt lat="44.00613" lon="5.91307">
        <ele>600</ele>
        <time>2020-10-05T11:21:38.000Z</time>
      </trkpt>
      <trkpt lat="44.00614" lon="5.91307">
        <ele>600</ele>
        <time>2020-10-05T11:21:39.000Z</time>
      </trkpt>
      <trkpt lat="44.00615" lon="5.91307">
        <ele>600</ele>
        <time>2020-10-05T11:21:40.000Z</time>
      </trkpt>
      <trkpt lat="44.00616" lon="5.91307">
        <ele>600</ele>
        <time>2020-10-05T11:21:41.000Z</time>
      </trkpt>
      <trkpt lat="44.00617" lon="5.91308">
        <ele>600</ele>
        <time>2020-10-05T11:21:42.000Z</time>
      </trkpt>
      <trkpt lat="44.00619" lon="5.91308">
        <ele>600</ele>
        <time>2020-10-05T11:21:43.000Z</time>
      </trkpt>
      <trkpt lat="44.0062" lon="5.91308">
        <ele>600</ele>
        <time>2020-10-05T11:21:44.000Z</time>
      </trkpt>
      <trkpt lat="44.00621" lon="5.91309">
        <ele>600</ele>
        <time>2020-10-05T11:21:45.000Z</time>
      </trkpt>
      <trkpt lat="44.00622" lon="5.91309">
        <ele>600</ele>
        <time>2020-10-05T11:21:46.000Z</time>
      </trkpt>
      <trkpt lat="44.00623" lon="5.91309">
        <ele>600</ele>
        <time>2020-10-05T11:21:47.000Z</time>
      </trkpt>
      <trkpt lat="44.00624" lon="5.91309">
        <ele>600</ele>
        <time>2020-10-05T11:21:48.000Z</time>
      </trkpt>
      <trkpt lat="44.00625" lon="5.91309">
        <ele>600</ele>
        <time>2020-10-05T11:21:49.000Z</time>
      </trkpt>
      <trkpt lat="44.00626" lon="5.91309">
        <ele>600</ele>
        <time>2020-10-05T11:21:50.000Z</time>
      </trkpt>
      <trkpt lat="44.00627" lon="5.9131">
        <ele>600</ele>
        <time>2020-10-05T11:21:51.000Z</time>
      </trkpt>
      <trkpt lat="44.00628" lon="5.9131">
        <ele>600</ele>
        <time>2020-10-05T11:21:52.000Z</time>
      </trkpt>
      <trkpt lat="44.00629" lon="5.9131">
        <ele>600</ele>
        <time>2020-10-05T11:21:53.000Z</time>
      </trkpt>
      <trkpt lat="44.0063" lon="5.9131">
        <ele>600</ele>
        <time>2020-10-05T11:21:54.000Z</time>
      </trkpt>
      <trkpt lat="44.00631" lon="5.9131">
        <ele>600</ele>
        <time>2020-10-05T11:21:55.000Z</time>
      </trkpt>
      <trkpt lat="44.00632" lon="5.9131">
        <ele>600</ele>
        <time>2020-10-05T11:21:56.000Z</time>
      </trkpt>
      <trkpt lat="44.00634" lon="5.9131">
        <ele>600</ele>
        <time>2020-10-05T11:21:57.000Z</time>
      </trkpt>
      <trkpt lat="44.00635" lon="5.91311">
        <ele>600</ele>
        <time>2020-10-05T11:21:58.000Z</time>
      </trkpt>
      <trkpt lat="44.00636" lon="5.91311">
        <ele>600</ele>
        <time>2020-10-05T11:21:59.000Z</time>
      </trkpt>
      <trkpt lat="44.00637" lon="5.91311">
        <ele>600</ele>
        <time>2020-10-05T11:22:00.000Z</time>
      </trkpt>
      <trkpt lat="44.00638" lon="5.91311">
        <ele>600</ele>
        <time>2020-10-05T11:22:01.000Z</time>
      </trkpt>
      <trkpt lat="44.00639" lon="5.91312">
        <ele>600</ele>
        <time>2020-10-05T11:22:02.000Z</time>
      </trkpt>
      <trkpt lat="44.0064" lon="5.91312">
        <ele>600</ele>
        <time>2020-10-05T11:22:03.000Z</time>
      </trkpt>
      <trkpt lat="44.00641" lon="5.91312">
        <ele>600</ele>
        <time>2020-10-05T11:22:04.000Z</time>
      </trkpt>
      <trkpt lat="44.00642" lon="5.91312">
        <ele>600</ele>
        <time>2020-10-05T11:22:05.000Z</time>
      </trkpt>
      <trkpt lat="44.00643" lon="5.91311">
        <ele>600</ele>
        <time>2020-10-05T11:22:06.000Z</time>
      </trkpt>
      <trkpt lat="44.00644" lon="5.91311">
        <ele>600</ele>
        <time>2020-10-05T11:22:07.000Z</time>
      </trkpt>
      <trkpt lat="44.00645" lon="5.91311">
        <ele>600</ele>
        <time>2020-10-05T11:22:08.000Z</time>
      </trkpt>
      <trkpt lat="44.00646" lon="5.91311">
        <ele>600</ele>
        <time>2020-10-05T11:22:09.000Z</time>
      </trkpt>
      <trkpt lat="44.00647" lon="5.91311">
        <ele>600</ele>
        <time>2020-10-05T11:22:10.000Z</time>
      </trkpt>
      <trkpt lat="44.00648" lon="5.91311">
        <ele>600</ele>
        <time>2020-10-05T11:22:11.000Z</time>
      </trkpt>
      <trkpt lat="44.00649" lon="5.91311">
        <ele>600</ele>
        <time>2020-10-05T11:22:12.000Z</time>
      </trkpt>
      <trkpt lat="44.0065" lon="5.91311">
        <ele>600</ele>
        <time>2020-10-05T11:22:13.000Z</time>
      </trkpt>
      <trkpt lat="44.00651" lon="5.9131">
        <ele>600</ele>
        <time>2020-10-05T11:22:14.000Z</time>
      </trkpt>
      <trkpt lat="44.00652" lon="5.9131">
        <ele>600</ele>
        <time>2020-10-05T11:22:15.000Z</time>
      </trkpt>
      <trkpt lat="44.00653" lon="5.9131">
        <ele>600</ele>
        <time>2020-10-05T11:22:16.000Z</time>
      </trkpt>
      <trkpt lat="44.00654" lon="5.91309">
        <ele>600</ele>
        <time>2020-10-05T11:22:17.000Z</time>
      </trkpt>
      <trkpt lat="44.00655" lon="5.91309">
        <ele>600</ele>
        <time>2020-10-05T11:22:18.000Z</time>
      </trkpt>
      <trkpt lat="44.00656" lon="5.91309">
        <ele>600</ele>
        <time>2020-10-05T11:22:19.000Z</time>
      </trkpt>
      <trkpt lat="44.00657" lon="5.91308">
        <ele>600</ele>
        <time>2020-10-05T11:22:20.000Z</time>
      </trkpt>
      <trkpt lat="44.00658" lon="5.91308">
        <ele>600</ele>
        <time>2020-10-05T11:22:21.000Z</time>
      </trkpt>
      <trkpt lat="44.00658" lon="5.91307">
        <ele>600</ele>
        <time>2020-10-05T11:22:22.000Z</time>
      </trkpt>
      <trkpt lat="44.00659" lon="5.91306">
        <ele>600</ele>
        <time>2020-10-05T11:22:23.000Z</time>
      </trkpt>
      <trkpt lat="44.0066" lon="5.91306">
        <ele>600</ele>
        <time>2020-10-05T11:22:24.000Z</time>
      </trkpt>
      <trkpt lat="44.00661" lon="5.91306">
        <ele>600</ele>
        <time>2020-10-05T11:22:25.000Z</time>
      </trkpt>
      <trkpt lat="44.00663" lon="5.91305">
        <ele>600</ele>
        <time>2020-10-05T11:22:26.000Z</time>
      </trkpt>
      <trkpt lat="44.00664" lon="5.91305">
        <ele>600</ele>
        <time>2020-10-05T11:22:27.000Z</time>
      </trkpt>
      <trkpt lat="44.00664" lon="5.91304">
        <ele>600</ele>
        <time>2020-10-05T11:22:28.000Z</time>
      </trkpt>
      <trkpt lat="44.00665" lon="5.91303">
        <ele>600</ele>
        <time>2020-10-05T11:22:29.000Z</time>
      </trkpt>
      <trkpt lat="44.00666" lon="5.91302">
        <ele>600</ele>
        <time>2020-10-05T11:22:30.000Z</time>
      </trkpt>
      <trkpt lat="44.00667" lon="5.91301">
        <ele>600</ele>
        <time>2020-10-05T11:22:31.000Z</time>
      </trkpt>
      <trkpt lat="44.00668" lon="5.913">
        <ele>600</ele>
        <time>2020-10-05T11:22:32.000Z</time>
      </trkpt>
      <trkpt lat="44.00669" lon="5.913">
        <ele>600</ele>
        <time>2020-10-05T11:22:33.000Z</time>
      </trkpt>
      <trkpt lat="44.0067" lon="5.91299">
        <ele>600</ele>
        <time>2020-10-05T11:22:34.000Z</time>
      </trkpt>
      <trkpt lat="44.00671" lon="5.91299">
        <ele>600</ele>
        <time>2020-10-05T11:22:35.000Z</time>
      </trkpt>
      <trkpt lat="44.00672" lon="5.91298">
        <ele>600</ele>
        <time>2020-10-05T11:22:36.000Z</time>
      </trkpt>
      <trkpt lat="44.00673" lon="5.91297">
        <ele>600</ele>
        <time>2020-10-05T11:22:37.000Z</time>
      </trkpt>
      <trkpt lat="44.00674" lon="5.91297">
        <ele>600</ele>
        <time>2020-10-05T11:22:38.000Z</time>
      </trkpt>
      <trkpt lat="44.00675" lon="5.91296">
        <ele>600</ele>
        <time>2020-10-05T11:22:39.000Z</time>
      </trkpt>
      <trkpt lat="44.00676" lon="5.91295">
        <ele>600</ele>
        <time>2020-10-05T11:22:40.000Z</time>
      </trkpt>
      <trkpt lat="44.00677" lon="5.91294">
        <ele>600</ele>
        <time>2020-10-05T11:22:41.000Z</time>
      </trkpt>
      <trkpt lat="44.00678" lon="5.91294">
        <ele>600</ele>
        <time>2020-10-05T11:22:42.000Z</time>
      </trkpt>
      <trkpt lat="44.00679" lon="5.91293">
        <ele>600</ele>
        <time>2020-10-05T11:22:43.000Z</time>
      </trkpt>
      <trkpt lat="44.00679" lon="5.91292">
        <ele>600</ele>
        <time>2020-10-05T11:22:44.000Z</time>
      </trkpt>
      <trkpt lat="44.0068" lon="5.91292">
        <ele>600</ele>
        <time>2020-10-05T11:22:45.000Z</time>
      </trkpt>
      <trkpt lat="44.00681" lon="5.91291">
        <ele>600</ele>
        <time>2020-10-05T11:22:46.000Z</time>
      </trkpt>
      <trkpt lat="44.00682" lon="5.9129">
        <ele>600</ele>
        <time>2020-10-05T11:22:47.000Z</time>
      </trkpt>
      <trkpt lat="44.00683" lon="5.91289">
        <ele>600</ele>
        <time>2020-10-05T11:22:48.000Z</time>
      </trkpt>
      <trkpt lat="44.00684" lon="5.91289">
        <ele>600</ele>
        <time>2020-10-05T11:22:49.000Z</time>
      </trkpt>
      <trkpt lat="44.00685" lon="5.91288">
        <ele>600</ele>
        <time>2020-10-05T11:22:50.000Z</time>
      </trkpt>
      <trkpt lat="44.00686" lon="5.91287">
        <ele>600</ele>
        <time>2020-10-05T11:22:51.000Z</time>
      </trkpt>
      <trkpt lat="44.00687" lon="5.91286">
        <ele>600</ele>
        <time>2020-10-05T11:22:52.000Z</time>
      </trkpt>
      <trkpt lat="44.00688" lon="5.91286">
        <ele>600</ele>
        <time>2020-10-05T11:22:53.000Z</time>
      </trkpt>
      <trkpt lat="44.00689" lon="5.91285">
        <ele>600</ele>
        <time>2020-10-05T11:22:54.000Z</time>
      </trkpt>
      <trkpt lat="44.0069" lon="5.91284">
        <ele>600</ele>
        <time>2020-10-05T11:22:55.000Z</time>
      </trkpt>
      <trkpt lat="44.00691" lon="5.91283">
        <ele>600</ele>
        <time>2020-10-05T11:22:56.000Z</time>
      </trkpt>
      <trkpt lat="44.00691" lon="5.91282">
        <ele>600</ele>
        <time>2020-10-05T11:22:57.000Z</time>
      </trkpt>
      <trkpt lat="44.00693" lon="5.91282">
        <ele>600</ele>
        <time>2020-10-05T11:22:58.000Z</time>
      </trkpt>
      <trkpt lat="44.00694" lon="5.91281">
        <ele>600</ele>
        <time>2020-10-05T11:22:59.000Z</time>
      </trkpt>
      <trkpt lat="44.00695" lon="5.9128">
        <ele>600</ele>
        <time>2020-10-05T11:23:00.000Z</time>
      </trkpt>
      <trkpt lat="44.00696" lon="5.9128">
        <ele>600</ele>
        <time>2020-10-05T11:23:01.000Z</time>
      </trkpt>
      <trkpt lat="44.00697" lon="5.91279">
        <ele>601</ele>
        <time>2020-10-05T11:23:02.000Z</time>
      </trkpt>
      <trkpt lat="44.00698" lon="5.91278">
        <ele>601</ele>
        <time>2020-10-05T11:23:03.000Z</time>
      </trkpt>
      <trkpt lat="44.00699" lon="5.91278">
        <ele>601</ele>
        <time>2020-10-05T11:23:04.000Z</time>
      </trkpt>
      <trkpt lat="44.00699" lon="5.91277">
        <ele>601</ele>
        <time>2020-10-05T11:23:05.000Z</time>
      </trkpt>
      <trkpt lat="44.007" lon="5.91277">
        <ele>601</ele>
        <time>2020-10-05T11:23:06.000Z</time>
      </trkpt>
      <trkpt lat="44.00701" lon="5.91276">
        <ele>601</ele>
        <time>2020-10-05T11:23:07.000Z</time>
      </trkpt>
      <trkpt lat="44.00702" lon="5.91275">
        <ele>601</ele>
        <time>2020-10-05T11:23:08.000Z</time>
      </trkpt>
      <trkpt lat="44.00703" lon="5.91275">
        <ele>601</ele>
        <time>2020-10-05T11:23:09.000Z</time>
      </trkpt>
      <trkpt lat="44.00704" lon="5.91274">
        <ele>601</ele>
        <time>2020-10-05T11:23:10.000Z</time>
      </trkpt>
      <trkpt lat="44.00705" lon="5.91273">
        <ele>601</ele>
        <time>2020-10-05T11:23:11.000Z</time>
      </trkpt>
      <trkpt lat="44.00706" lon="5.91272">
        <ele>601</ele>
        <time>2020-10-05T11:23:12.000Z</time>
      </trkpt>
      <trkpt lat="44.00707" lon="5.91272">
        <ele>601</ele>
        <time>2020-10-05T11:23:13.000Z</time>
      </trkpt>
      <trkpt lat="44.00708" lon="5.91271">
        <ele>601</ele>
        <time>2020-10-05T11:23:14.000Z</time>
      </trkpt>
      <trkpt lat="44.00708" lon="5.9127">
        <ele>601</ele>
        <time>2020-10-05T11:23:15.000Z</time>
      </trkpt>
      <trkpt lat="44.00709" lon="5.91269">
        <ele>601</ele>
        <time>2020-10-05T11:23:16.000Z</time>
      </trkpt>
      <trkpt lat="44.0071" lon="5.91269">
        <ele>601</ele>
        <time>2020-10-05T11:23:17.000Z</time>
      </trkpt>
      <trkpt lat="44.00711" lon="5.91268">
        <ele>601</ele>
        <time>2020-10-05T11:23:18.000Z</time>
      </trkpt>
      <trkpt lat="44.00712" lon="5.91267">
        <ele>601</ele>
        <time>2020-10-05T11:23:19.000Z</time>
      </trkpt>
      <trkpt lat="44.00713" lon="5.91266">
        <ele>601</ele>
        <time>2020-10-05T11:23:20.000Z</time>
      </trkpt>
      <trkpt lat="44.00714" lon="5.91266">
        <ele>601</ele>
        <time>2020-10-05T11:23:21.000Z</time>
      </trkpt>
      <trkpt lat="44.00715" lon="5.91265">
        <ele>601</ele>
        <time>2020-10-05T11:23:22.000Z</time>
      </trkpt>
      <trkpt lat="44.00715" lon="5.91264">
        <ele>601</ele>
        <time>2020-10-05T11:23:23.000Z</time>
      </trkpt>
      <trkpt lat="44.00716" lon="5.91263">
        <ele>601</ele>
        <time>2020-10-05T11:23:24.000Z</time>
      </trkpt>
      <trkpt lat="44.00717" lon="5.91262">
        <ele>601</ele>
        <time>2020-10-05T11:23:25.000Z</time>
      </trkpt>
      <trkpt lat="44.00718" lon="5.91261">
        <ele>601</ele>
        <time>2020-10-05T11:23:26.000Z</time>
      </trkpt>
      <trkpt lat="44.00719" lon="5.91261">
        <ele>601</ele>
        <time>2020-10-05T11:23:27.000Z</time>
      </trkpt>
      <trkpt lat="44.0072" lon="5.9126">
        <ele>601</ele>
        <time>2020-10-05T11:23:28.000Z</time>
      </trkpt>
      <trkpt lat="44.00721" lon="5.91259">
        <ele>601</ele>
        <time>2020-10-05T11:23:29.000Z</time>
      </trkpt>
      <trkpt lat="44.00721" lon="5.91259">
        <ele>601</ele>
        <time>2020-10-05T11:23:30.000Z</time>
      </trkpt>
      <trkpt lat="44.00722" lon="5.91258">
        <ele>601</ele>
        <time>2020-10-05T11:23:31.000Z</time>
      </trkpt>
      <trkpt lat="44.00723" lon="5.91258">
        <ele>601</ele>
        <time>2020-10-05T11:23:32.000Z</time>
      </trkpt>
      <trkpt lat="44.00725" lon="5.91257">
        <ele>601</ele>
        <time>2020-10-05T11:23:33.000Z</time>
      </trkpt>
      <trkpt lat="44.00726" lon="5.91257">
        <ele>601</ele>
        <time>2020-10-05T11:23:34.000Z</time>
      </trkpt>
      <trkpt lat="44.00726" lon="5.91256">
        <ele>602</ele>
        <time>2020-10-05T11:23:35.000Z</time>
      </trkpt>
      <trkpt lat="44.00727" lon="5.91256">
        <ele>602</ele>
        <time>2020-10-05T11:23:36.000Z</time>
      </trkpt>
      <trkpt lat="44.00728" lon="5.91256">
        <ele>602</ele>
        <time>2020-10-05T11:23:37.000Z</time>
      </trkpt>
      <trkpt lat="44.00729" lon="5.91256">
        <ele>602</ele>
        <time>2020-10-05T11:23:38.000Z</time>
      </trkpt>
      <trkpt lat="44.0073" lon="5.91256">
        <ele>602</ele>
        <time>2020-10-05T11:23:39.000Z</time>
      </trkpt>
      <trkpt lat="44.00731" lon="5.91256">
        <ele>602</ele>
        <time>2020-10-05T11:23:40.000Z</time>
      </trkpt>
      <trkpt lat="44.00732" lon="5.91256">
        <ele>602</ele>
        <time>2020-10-05T11:23:41.000Z</time>
      </trkpt>
      <trkpt lat="44.00733" lon="5.91256">
        <ele>602</ele>
        <time>2020-10-05T11:23:42.000Z</time>
      </trkpt>
      <trkpt lat="44.00733" lon="5.91256">
        <ele>602</ele>
        <time>2020-10-05T11:23:43.000Z</time>
      </trkpt>
      <trkpt lat="44.00735" lon="5.91256">
        <ele>602</ele>
        <time>2020-10-05T11:23:44.000Z</time>
      </trkpt>
      <trkpt lat="44.00736" lon="5.91256">
        <ele>602</ele>
        <time>2020-10-05T11:23:45.000Z</time>
      </trkpt>
      <trkpt lat="44.00736" lon="5.91256">
        <ele>602</ele>
        <time>2020-10-05T11:23:46.000Z</time>
      </trkpt>
      <trkpt lat="44.00737" lon="5.91256">
        <ele>602</ele>
        <time>2020-10-05T11:23:47.000Z</time>
      </trkpt>
      <trkpt lat="44.00739" lon="5.91256">
        <ele>602</ele>
        <time>2020-10-05T11:23:48.000Z</time>
      </trkpt>
      <trkpt lat="44.0074" lon="5.91256">
        <ele>602</ele>
        <time>2020-10-05T11:23:49.000Z</time>
      </trkpt>
      <trkpt lat="44.0074" lon="5.91256">
        <ele>602</ele>
        <time>2020-10-05T11:23:50.000Z</time>
      </trkpt>
      <trkpt lat="44.00741" lon="5.91255">
        <ele>602</ele>
        <time>2020-10-05T11:23:51.000Z</time>
      </trkpt>
      <trkpt lat="44.00742" lon="5.91255">
        <ele>602</ele>
        <time>2020-10-05T11:23:52.000Z</time>
      </trkpt>
      <trkpt lat="44.00743" lon="5.91255">
        <ele>602</ele>
        <time>2020-10-05T11:23:53.000Z</time>
      </trkpt>
      <trkpt lat="44.00744" lon="5.91255">
        <ele>602</ele>
        <time>2020-10-05T11:23:54.000Z</time>
      </trkpt>
      <trkpt lat="44.00746" lon="5.91254">
        <ele>602</ele>
        <time>2020-10-05T11:23:55.000Z</time>
      </trkpt>
      <trkpt lat="44.00746" lon="5.91254">
        <ele>602</ele>
        <time>2020-10-05T11:23:56.000Z</time>
      </trkpt>
      <trkpt lat="44.00747" lon="5.91254">
        <ele>602</ele>
        <time>2020-10-05T11:23:57.000Z</time>
      </trkpt>
      <trkpt lat="44.00748" lon="5.91254">
        <ele>603</ele>
        <time>2020-10-05T11:23:58.000Z</time>
      </trkpt>
      <trkpt lat="44.00748" lon="5.91253">
        <ele>603</ele>
        <time>2020-10-05T11:23:59.000Z</time>
      </trkpt>
      <trkpt lat="44.00749" lon="5.91253">
        <ele>603</ele>
        <time>2020-10-05T11:24:00.000Z</time>
      </trkpt>
      <trkpt lat="44.0075" lon="5.91252">
        <ele>603</ele>
        <time>2020-10-05T11:24:01.000Z</time>
      </trkpt>
      <trkpt lat="44.00751" lon="5.91252">
        <ele>603</ele>
        <time>2020-10-05T11:24:02.000Z</time>
      </trkpt>
      <trkpt lat="44.00752" lon="5.91251">
        <ele>603</ele>
        <time>2020-10-05T11:24:03.000Z</time>
      </trkpt>
      <trkpt lat="44.00753" lon="5.91251">
        <ele>603</ele>
        <time>2020-10-05T11:24:04.000Z</time>
      </trkpt>
      <trkpt lat="44.00753" lon="5.9125">
        <ele>603</ele>
        <time>2020-10-05T11:24:05.000Z</time>
      </trkpt>
      <trkpt lat="44.00754" lon="5.91249">
        <ele>603</ele>
        <time>2020-10-05T11:24:06.000Z</time>
      </trkpt>
      <trkpt lat="44.00755" lon="5.91248">
        <ele>603</ele>
        <time>2020-10-05T11:24:07.000Z</time>
      </trkpt>
      <trkpt lat="44.00756" lon="5.91247">
        <ele>603</ele>
        <time>2020-10-05T11:24:08.000Z</time>
      </trkpt>
      <trkpt lat="44.00757" lon="5.91246">
        <ele>603</ele>
        <time>2020-10-05T11:24:09.000Z</time>
      </trkpt>
      <trkpt lat="44.00758" lon="5.91245">
        <ele>603</ele>
        <time>2020-10-05T11:24:10.000Z</time>
      </trkpt>
      <trkpt lat="44.00759" lon="5.91244">
        <ele>603</ele>
        <time>2020-10-05T11:24:11.000Z</time>
      </trkpt>
      <trkpt lat="44.00759" lon="5.91244">
        <ele>603</ele>
        <time>2020-10-05T11:24:12.000Z</time>
      </trkpt>
      <trkpt lat="44.0076" lon="5.91243">
        <ele>603</ele>
        <time>2020-10-05T11:24:13.000Z</time>
      </trkpt>
      <trkpt lat="44.00761" lon="5.91242">
        <ele>603</ele>
        <time>2020-10-05T11:24:14.000Z</time>
      </trkpt>
      <trkpt lat="44.00762" lon="5.91241">
        <ele>603</ele>
        <time>2020-10-05T11:24:15.000Z</time>
      </trkpt>
      <trkpt lat="44.00762" lon="5.9124">
        <ele>603</ele>
        <time>2020-10-05T11:24:16.000Z</time>
      </trkpt>
      <trkpt lat="44.00763" lon="5.9124">
        <ele>603</ele>
        <time>2020-10-05T11:24:17.000Z</time>
      </trkpt>
      <trkpt lat="44.00764" lon="5.91239">
        <ele>603</ele>
        <time>2020-10-05T11:24:18.000Z</time>
      </trkpt>
      <trkpt lat="44.00765" lon="5.91238">
        <ele>604</ele>
        <time>2020-10-05T11:24:19.000Z</time>
      </trkpt>
      <trkpt lat="44.00766" lon="5.91238">
        <ele>604</ele>
        <time>2020-10-05T11:24:20.000Z</time>
      </trkpt>
      <trkpt lat="44.00767" lon="5.91237">
        <ele>604</ele>
        <time>2020-10-05T11:24:21.000Z</time>
      </trkpt>
      <trkpt lat="44.00768" lon="5.91236">
        <ele>604</ele>
        <time>2020-10-05T11:24:22.000Z</time>
      </trkpt>
      <trkpt lat="44.00769" lon="5.91235">
        <ele>604</ele>
        <time>2020-10-05T11:24:23.000Z</time>
      </trkpt>
      <trkpt lat="44.00769" lon="5.91234">
        <ele>604</ele>
        <time>2020-10-05T11:24:24.000Z</time>
      </trkpt>
      <trkpt lat="44.0077" lon="5.91232">
        <ele>604</ele>
        <time>2020-10-05T11:24:25.000Z</time>
      </trkpt>
      <trkpt lat="44.0077" lon="5.91231">
        <ele>604</ele>
        <time>2020-10-05T11:24:26.000Z</time>
      </trkpt>
      <trkpt lat="44.0077" lon="5.91229">
        <ele>604</ele>
        <time>2020-10-05T11:24:27.000Z</time>
      </trkpt>
      <trkpt lat="44.0077" lon="5.91227">
        <ele>604</ele>
        <time>2020-10-05T11:24:28.000Z</time>
      </trkpt>
      <trkpt lat="44.0077" lon="5.91226">
        <ele>604</ele>
        <time>2020-10-05T11:24:29.000Z</time>
      </trkpt>
      <trkpt lat="44.0077" lon="5.91224">
        <ele>605</ele>
        <time>2020-10-05T11:24:30.000Z</time>
      </trkpt>
      <trkpt lat="44.00771" lon="5.91223">
        <ele>605</ele>
        <time>2020-10-05T11:24:31.000Z</time>
      </trkpt>
      <trkpt lat="44.00771" lon="5.91221">
        <ele>605</ele>
        <time>2020-10-05T11:24:32.000Z</time>
      </trkpt>
      <trkpt lat="44.00772" lon="5.9122">
        <ele>604</ele>
        <time>2020-10-05T11:24:33.000Z</time>
      </trkpt>
      <trkpt lat="44.00772" lon="5.91218">
        <ele>604</ele>
        <time>2020-10-05T11:24:34.000Z</time>
      </trkpt>
      <trkpt lat="44.00772" lon="5.91217">
        <ele>604</ele>
        <time>2020-10-05T11:24:35.000Z</time>
      </trkpt>
      <trkpt lat="44.00772" lon="5.91215">
        <ele>604</ele>
        <time>2020-10-05T11:24:36.000Z</time>
      </trkpt>
      <trkpt lat="44.00772" lon="5.91214">
        <ele>604</ele>
        <time>2020-10-05T11:24:37.000Z</time>
      </trkpt>
      <trkpt lat="44.00773" lon="5.91212">
        <ele>605</ele>
        <time>2020-10-05T11:24:38.000Z</time>
      </trkpt>
      <trkpt lat="44.00773" lon="5.91211">
        <ele>605</ele>
        <time>2020-10-05T11:24:39.000Z</time>
      </trkpt>
      <trkpt lat="44.00774" lon="5.91209">
        <ele>605</ele>
        <time>2020-10-05T11:24:40.000Z</time>
      </trkpt>
      <trkpt lat="44.00774" lon="5.91208">
        <ele>605</ele>
        <time>2020-10-05T11:24:41.000Z</time>
      </trkpt>
      <trkpt lat="44.00774" lon="5.91206">
        <ele>605</ele>
        <time>2020-10-05T11:24:42.000Z</time>
      </trkpt>
      <trkpt lat="44.00775" lon="5.91205">
        <ele>605</ele>
        <time>2020-10-05T11:24:43.000Z</time>
      </trkpt>
      <trkpt lat="44.00775" lon="5.91204">
        <ele>605</ele>
        <time>2020-10-05T11:24:44.000Z</time>
      </trkpt>
      <trkpt lat="44.00775" lon="5.91202">
        <ele>605</ele>
        <time>2020-10-05T11:24:45.000Z</time>
      </trkpt>
      <trkpt lat="44.00775" lon="5.912">
        <ele>605</ele>
        <time>2020-10-05T11:24:46.000Z</time>
      </trkpt>
      <trkpt lat="44.00775" lon="5.91199">
        <ele>605</ele>
        <time>2020-10-05T11:24:47.000Z</time>
      </trkpt>
      <trkpt lat="44.00775" lon="5.91197">
        <ele>605</ele>
        <time>2020-10-05T11:24:48.000Z</time>
      </trkpt>
      <trkpt lat="44.00775" lon="5.91196">
        <ele>605</ele>
        <time>2020-10-05T11:24:49.000Z</time>
      </trkpt>
      <trkpt lat="44.00775" lon="5.91194">
        <ele>605</ele>
        <time>2020-10-05T11:24:50.000Z</time>
      </trkpt>
      <trkpt lat="44.00776" lon="5.91193">
        <ele>605</ele>
        <time>2020-10-05T11:24:51.000Z</time>
      </trkpt>
      <trkpt lat="44.00776" lon="5.91191">
        <ele>605</ele>
        <time>2020-10-05T11:24:52.000Z</time>
      </trkpt>
      <trkpt lat="44.00776" lon="5.91189">
        <ele>605</ele>
        <time>2020-10-05T11:24:53.000Z</time>
      </trkpt>
      <trkpt lat="44.00776" lon="5.91188">
        <ele>606</ele>
        <time>2020-10-05T11:24:54.000Z</time>
      </trkpt>
      <trkpt lat="44.00776" lon="5.91186">
        <ele>606</ele>
        <time>2020-10-05T11:24:55.000Z</time>
      </trkpt>
      <trkpt lat="44.00776" lon="5.91185">
        <ele>606</ele>
        <time>2020-10-05T11:24:56.000Z</time>
      </trkpt>
      <trkpt lat="44.00776" lon="5.91183">
        <ele>606</ele>
        <time>2020-10-05T11:24:57.000Z</time>
      </trkpt>
      <trkpt lat="44.00776" lon="5.91181">
        <ele>606</ele>
        <time>2020-10-05T11:24:58.000Z</time>
      </trkpt>
      <trkpt lat="44.00776" lon="5.9118">
        <ele>606</ele>
        <time>2020-10-05T11:24:59.000Z</time>
      </trkpt>
      <trkpt lat="44.00777" lon="5.91178">
        <ele>606</ele>
        <time>2020-10-05T11:25:00.000Z</time>
      </trkpt>
      <trkpt lat="44.00777" lon="5.91177">
        <ele>606</ele>
        <time>2020-10-05T11:25:01.000Z</time>
      </trkpt>
      <trkpt lat="44.00777" lon="5.91175">
        <ele>606</ele>
        <time>2020-10-05T11:25:02.000Z</time>
      </trkpt>
      <trkpt lat="44.00777" lon="5.91174">
        <ele>607</ele>
        <time>2020-10-05T11:25:03.000Z</time>
      </trkpt>
      <trkpt lat="44.00777" lon="5.91172">
        <ele>607</ele>
        <time>2020-10-05T11:25:04.000Z</time>
      </trkpt>
      <trkpt lat="44.00777" lon="5.91171">
        <ele>607</ele>
        <time>2020-10-05T11:25:05.000Z</time>
      </trkpt>
      <trkpt lat="44.00777" lon="5.91169">
        <ele>607</ele>
        <time>2020-10-05T11:25:06.000Z</time>
      </trkpt>
      <trkpt lat="44.00777" lon="5.91167">
        <ele>607</ele>
        <time>2020-10-05T11:25:07.000Z</time>
      </trkpt>
      <trkpt lat="44.00777" lon="5.91166">
        <ele>607</ele>
        <time>2020-10-05T11:25:08.000Z</time>
      </trkpt>
      <trkpt lat="44.00777" lon="5.91164">
        <ele>607</ele>
        <time>2020-10-05T11:25:09.000Z</time>
      </trkpt>
      <trkpt lat="44.00777" lon="5.91162">
        <ele>607</ele>
        <time>2020-10-05T11:25:10.000Z</time>
      </trkpt>
      <trkpt lat="44.00778" lon="5.91161">
        <ele>607</ele>
        <time>2020-10-05T11:25:11.000Z</time>
      </trkpt>
      <trkpt lat="44.00778" lon="5.91159">
        <ele>607</ele>
        <time>2020-10-05T11:25:12.000Z</time>
      </trkpt>
      <trkpt lat="44.00778" lon="5.91157">
        <ele>607</ele>
        <time>2020-10-05T11:25:13.000Z</time>
      </trkpt>
      <trkpt lat="44.00778" lon="5.91156">
        <ele>607</ele>
        <time>2020-10-05T11:25:14.000Z</time>
      </trkpt>
      <trkpt lat="44.00778" lon="5.91154">
        <ele>608</ele>
        <time>2020-10-05T11:25:15.000Z</time>
      </trkpt>
      <trkpt lat="44.00778" lon="5.91153">
        <ele>608</ele>
        <time>2020-10-05T11:25:16.000Z</time>
      </trkpt>
      <trkpt lat="44.00778" lon="5.91151">
        <ele>608</ele>
        <time>2020-10-05T11:25:17.000Z</time>
      </trkpt>
      <trkpt lat="44.00778" lon="5.9115">
        <ele>608</ele>
        <time>2020-10-05T11:25:18.000Z</time>
      </trkpt>
      <trkpt lat="44.00778" lon="5.91148">
        <ele>608</ele>
        <time>2020-10-05T11:25:19.000Z</time>
      </trkpt>
      <trkpt lat="44.00778" lon="5.91147">
        <ele>608</ele>
        <time>2020-10-05T11:25:20.000Z</time>
      </trkpt>
      <trkpt lat="44.00778" lon="5.91145">
        <ele>608</ele>
        <time>2020-10-05T11:25:21.000Z</time>
      </trkpt>
      <trkpt lat="44.00779" lon="5.91143">
        <ele>608</ele>
        <time>2020-10-05T11:25:22.000Z</time>
      </trkpt>
      <trkpt lat="44.00779" lon="5.91142">
        <ele>608</ele>
        <time>2020-10-05T11:25:23.000Z</time>
      </trkpt>
      <trkpt lat="44.00779" lon="5.9114">
        <ele>608</ele>
        <time>2020-10-05T11:25:24.000Z</time>
      </trkpt>
      <trkpt lat="44.00779" lon="5.91138">
        <ele>609</ele>
        <time>2020-10-05T11:25:25.000Z</time>
      </trkpt>
      <trkpt lat="44.00779" lon="5.91136">
        <ele>609</ele>
        <time>2020-10-05T11:25:26.000Z</time>
      </trkpt>
      <trkpt lat="44.00779" lon="5.91134">
        <ele>609</ele>
        <time>2020-10-05T11:25:27.000Z</time>
      </trkpt>
      <trkpt lat="44.00779" lon="5.91132">
        <ele>609</ele>
        <time>2020-10-05T11:25:28.000Z</time>
      </trkpt>
      <trkpt lat="44.00779" lon="5.91131">
        <ele>609</ele>
        <time>2020-10-05T11:25:29.000Z</time>
      </trkpt>
      <trkpt lat="44.0078" lon="5.91129">
        <ele>609</ele>
        <time>2020-10-05T11:25:30.000Z</time>
      </trkpt>
      <trkpt lat="44.0078" lon="5.91128">
        <ele>609</ele>
        <time>2020-10-05T11:25:31.000Z</time>
      </trkpt>
      <trkpt lat="44.0078" lon="5.91127">
        <ele>610</ele>
        <time>2020-10-05T11:25:32.000Z</time>
      </trkpt>
      <trkpt lat="44.0078" lon="5.91125">
        <ele>610</ele>
        <time>2020-10-05T11:25:33.000Z</time>
      </trkpt>
      <trkpt lat="44.0078" lon="5.91123">
        <ele>610</ele>
        <time>2020-10-05T11:25:34.000Z</time>
      </trkpt>
      <trkpt lat="44.0078" lon="5.91121">
        <ele>610</ele>
        <time>2020-10-05T11:25:35.000Z</time>
      </trkpt>
      <trkpt lat="44.00781" lon="5.9112">
        <ele>610</ele>
        <time>2020-10-05T11:25:36.000Z</time>
      </trkpt>
      <trkpt lat="44.00781" lon="5.91118">
        <ele>611</ele>
        <time>2020-10-05T11:25:37.000Z</time>
      </trkpt>
      <trkpt lat="44.00781" lon="5.91116">
        <ele>611</ele>
        <time>2020-10-05T11:25:38.000Z</time>
      </trkpt>
      <trkpt lat="44.00781" lon="5.91115">
        <ele>611</ele>
        <time>2020-10-05T11:25:39.000Z</time>
      </trkpt>
      <trkpt lat="44.00781" lon="5.91113">
        <ele>611</ele>
        <time>2020-10-05T11:25:40.000Z</time>
      </trkpt>
      <trkpt lat="44.00781" lon="5.91112">
        <ele>611</ele>
        <time>2020-10-05T11:25:41.000Z</time>
      </trkpt>
      <trkpt lat="44.00781" lon="5.9111">
        <ele>612</ele>
        <time>2020-10-05T11:25:42.000Z</time>
      </trkpt>
      <trkpt lat="44.00781" lon="5.91108">
        <ele>612</ele>
        <time>2020-10-05T11:25:43.000Z</time>
      </trkpt>
      <trkpt lat="44.00781" lon="5.91107">
        <ele>612</ele>
        <time>2020-10-05T11:25:44.000Z</time>
      </trkpt>
      <trkpt lat="44.00781" lon="5.91105">
        <ele>612</ele>
        <time>2020-10-05T11:25:45.000Z</time>
      </trkpt>
      <trkpt lat="44.00781" lon="5.91104">
        <ele>612</ele>
        <time>2020-10-05T11:25:46.000Z</time>
      </trkpt>
      <trkpt lat="44.00781" lon="5.91102">
        <ele>612</ele>
        <time>2020-10-05T11:25:47.000Z</time>
      </trkpt>
      <trkpt lat="44.00781" lon="5.91101">
        <ele>613</ele>
        <time>2020-10-05T11:25:48.000Z</time>
      </trkpt>
      <trkpt lat="44.00781" lon="5.911">
        <ele>613</ele>
        <time>2020-10-05T11:25:49.000Z</time>
      </trkpt>
      <trkpt lat="44.00781" lon="5.91098">
        <ele>613</ele>
        <time>2020-10-05T11:25:50.000Z</time>
      </trkpt>
      <trkpt lat="44.0078" lon="5.91097">
        <ele>613</ele>
        <time>2020-10-05T11:25:51.000Z</time>
      </trkpt>
      <trkpt lat="44.0078" lon="5.91096">
        <ele>613</ele>
        <time>2020-10-05T11:25:52.000Z</time>
      </trkpt>
      <trkpt lat="44.0078" lon="5.91094">
        <ele>614</ele>
        <time>2020-10-05T11:25:53.000Z</time>
      </trkpt>
      <trkpt lat="44.00779" lon="5.91092">
        <ele>614</ele>
        <time>2020-10-05T11:25:54.000Z</time>
      </trkpt>
      <trkpt lat="44.00779" lon="5.91091">
        <ele>614</ele>
        <time>2020-10-05T11:25:55.000Z</time>
      </trkpt>
      <trkpt lat="44.00779" lon="5.91089">
        <ele>614</ele>
        <time>2020-10-05T11:25:56.000Z</time>
      </trkpt>
      <trkpt lat="44.00779" lon="5.91088">
        <ele>615</ele>
        <time>2020-10-05T11:25:57.000Z</time>
      </trkpt>
      <trkpt lat="44.00778" lon="5.91086">
        <ele>615</ele>
        <time>2020-10-05T11:25:58.000Z</time>
      </trkpt>
      <trkpt lat="44.00778" lon="5.91085">
        <ele>615</ele>
        <time>2020-10-05T11:25:59.000Z</time>
      </trkpt>
      <trkpt lat="44.00778" lon="5.91083">
        <ele>615</ele>
        <time>2020-10-05T11:26:00.000Z</time>
      </trkpt>
      <trkpt lat="44.00778" lon="5.91082">
        <ele>615</ele>
        <time>2020-10-05T11:26:01.000Z</time>
      </trkpt>
      <trkpt lat="44.00777" lon="5.91081">
        <ele>615</ele>
        <time>2020-10-05T11:26:02.000Z</time>
      </trkpt>
      <trkpt lat="44.00777" lon="5.91079">
        <ele>615</ele>
        <time>2020-10-05T11:26:03.000Z</time>
      </trkpt>
      <trkpt lat="44.00777" lon="5.91078">
        <ele>615</ele>
        <time>2020-10-05T11:26:04.000Z</time>
      </trkpt>
      <trkpt lat="44.00777" lon="5.91077">
        <ele>615</ele>
        <time>2020-10-05T11:26:05.000Z</time>
      </trkpt>
      <trkpt lat="44.00777" lon="5.91075">
        <ele>616</ele>
        <time>2020-10-05T11:26:06.000Z</time>
      </trkpt>
      <trkpt lat="44.00776" lon="5.91074">
        <ele>616</ele>
        <time>2020-10-05T11:26:07.000Z</time>
      </trkpt>
      <trkpt lat="44.00776" lon="5.91073">
        <ele>616</ele>
        <time>2020-10-05T11:26:08.000Z</time>
      </trkpt>
      <trkpt lat="44.00775" lon="5.91071">
        <ele>616</ele>
        <time>2020-10-05T11:26:09.000Z</time>
      </trkpt>
      <trkpt lat="44.00775" lon="5.9107">
        <ele>616</ele>
        <time>2020-10-05T11:26:10.000Z</time>
      </trkpt>
      <trkpt lat="44.00774" lon="5.91068">
        <ele>616</ele>
        <time>2020-10-05T11:26:11.000Z</time>
      </trkpt>
      <trkpt lat="44.00774" lon="5.91067">
        <ele>616</ele>
        <time>2020-10-05T11:26:12.000Z</time>
      </trkpt>
      <trkpt lat="44.00774" lon="5.91065">
        <ele>616</ele>
        <time>2020-10-05T11:26:13.000Z</time>
      </trkpt>
      <trkpt lat="44.00774" lon="5.91064">
        <ele>616</ele>
        <time>2020-10-05T11:26:14.000Z</time>
      </trkpt>
      <trkpt lat="44.00773" lon="5.91062">
        <ele>616</ele>
        <time>2020-10-05T11:26:15.000Z</time>
      </trkpt>
      <trkpt lat="44.00773" lon="5.91061">
        <ele>616</ele>
        <time>2020-10-05T11:26:16.000Z</time>
      </trkpt>
      <trkpt lat="44.00772" lon="5.91059">
        <ele>617</ele>
        <time>2020-10-05T11:26:17.000Z</time>
      </trkpt>
      <trkpt lat="44.00772" lon="5.91058">
        <ele>617</ele>
        <time>2020-10-05T11:26:18.000Z</time>
      </trkpt>
      <trkpt lat="44.00771" lon="5.91057">
        <ele>617</ele>
        <time>2020-10-05T11:26:19.000Z</time>
      </trkpt>
      <trkpt lat="44.00771" lon="5.91055">
        <ele>617</ele>
        <time>2020-10-05T11:26:20.000Z</time>
      </trkpt>
      <trkpt lat="44.0077" lon="5.91054">
        <ele>617</ele>
        <time>2020-10-05T11:26:21.000Z</time>
      </trkpt>
      <trkpt lat="44.00769" lon="5.91053">
        <ele>617</ele>
        <time>2020-10-05T11:26:22.000Z</time>
      </trkpt>
      <trkpt lat="44.00769" lon="5.91051">
        <ele>617</ele>
        <time>2020-10-05T11:26:23.000Z</time>
      </trkpt>
      <trkpt lat="44.00768" lon="5.9105">
        <ele>617</ele>
        <time>2020-10-05T11:26:24.000Z</time>
      </trkpt>
      <trkpt lat="44.00768" lon="5.91049">
        <ele>617</ele>
        <time>2020-10-05T11:26:25.000Z</time>
      </trkpt>
      <trkpt lat="44.00768" lon="5.91047">
        <ele>617</ele>
        <time>2020-10-05T11:26:26.000Z</time>
      </trkpt>
      <trkpt lat="44.00767" lon="5.91046">
        <ele>617</ele>
        <time>2020-10-05T11:26:27.000Z</time>
      </trkpt>
      <trkpt lat="44.00767" lon="5.91044">
        <ele>617</ele>
        <time>2020-10-05T11:26:28.000Z</time>
      </trkpt>
      <trkpt lat="44.00767" lon="5.91043">
        <ele>617</ele>
        <time>2020-10-05T11:26:29.000Z</time>
      </trkpt>
      <trkpt lat="44.00766" lon="5.91042">
        <ele>617</ele>
        <time>2020-10-05T11:26:30.000Z</time>
      </trkpt>
      <trkpt lat="44.00766" lon="5.9104">
        <ele>618</ele>
        <time>2020-10-05T11:26:31.000Z</time>
      </trkpt>
      <trkpt lat="44.00766" lon="5.91039">
        <ele>618</ele>
        <time>2020-10-05T11:26:32.000Z</time>
      </trkpt>
      <trkpt lat="44.00765" lon="5.91037">
        <ele>618</ele>
        <time>2020-10-05T11:26:33.000Z</time>
      </trkpt>
      <trkpt lat="44.00765" lon="5.91035">
        <ele>618</ele>
        <time>2020-10-05T11:26:34.000Z</time>
      </trkpt>
      <trkpt lat="44.00765" lon="5.91034">
        <ele>618</ele>
        <time>2020-10-05T11:26:35.000Z</time>
      </trkpt>
      <trkpt lat="44.00765" lon="5.91032">
        <ele>618</ele>
        <time>2020-10-05T11:26:36.000Z</time>
      </trkpt>
      <trkpt lat="44.00764" lon="5.91031">
        <ele>618</ele>
        <time>2020-10-05T11:26:37.000Z</time>
      </trkpt>
      <trkpt lat="44.00763" lon="5.91029">
        <ele>618</ele>
        <time>2020-10-05T11:26:38.000Z</time>
      </trkpt>
      <trkpt lat="44.00763" lon="5.91028">
        <ele>618</ele>
        <time>2020-10-05T11:26:39.000Z</time>
      </trkpt>
      <trkpt lat="44.00763" lon="5.91027">
        <ele>618</ele>
        <time>2020-10-05T11:26:40.000Z</time>
      </trkpt>
      <trkpt lat="44.00762" lon="5.91026">
        <ele>618</ele>
        <time>2020-10-05T11:26:41.000Z</time>
      </trkpt>
      <trkpt lat="44.00762" lon="5.91024">
        <ele>619</ele>
        <time>2020-10-05T11:26:42.000Z</time>
      </trkpt>
      <trkpt lat="44.00761" lon="5.91023">
        <ele>619</ele>
        <time>2020-10-05T11:26:43.000Z</time>
      </trkpt>
      <trkpt lat="44.0076" lon="5.91022">
        <ele>619</ele>
        <time>2020-10-05T11:26:44.000Z</time>
      </trkpt>
      <trkpt lat="44.0076" lon="5.91021">
        <ele>619</ele>
        <time>2020-10-05T11:26:45.000Z</time>
      </trkpt>
      <trkpt lat="44.00759" lon="5.91019">
        <ele>619</ele>
        <time>2020-10-05T11:26:46.000Z</time>
      </trkpt>
      <trkpt lat="44.00758" lon="5.91018">
        <ele>619</ele>
        <time>2020-10-05T11:26:47.000Z</time>
      </trkpt>
      <trkpt lat="44.00758" lon="5.91017">
        <ele>619</ele>
        <time>2020-10-05T11:26:48.000Z</time>
      </trkpt>
      <trkpt lat="44.00757" lon="5.91016">
        <ele>619</ele>
        <time>2020-10-05T11:26:49.000Z</time>
      </trkpt>
      <trkpt lat="44.00757" lon="5.91014">
        <ele>619</ele>
        <time>2020-10-05T11:26:50.000Z</time>
      </trkpt>
      <trkpt lat="44.00756" lon="5.91013">
        <ele>619</ele>
        <time>2020-10-05T11:26:51.000Z</time>
      </trkpt>
      <trkpt lat="44.00756" lon="5.91012">
        <ele>620</ele>
        <time>2020-10-05T11:26:52.000Z</time>
      </trkpt>
      <trkpt lat="44.00755" lon="5.91011">
        <ele>620</ele>
        <time>2020-10-05T11:26:53.000Z</time>
      </trkpt>
      <trkpt lat="44.00755" lon="5.9101">
        <ele>620</ele>
        <time>2020-10-05T11:26:54.000Z</time>
      </trkpt>
      <trkpt lat="44.00754" lon="5.91009">
        <ele>620</ele>
        <time>2020-10-05T11:26:55.000Z</time>
      </trkpt>
      <trkpt lat="44.00753" lon="5.91008">
        <ele>620</ele>
        <time>2020-10-05T11:26:56.000Z</time>
      </trkpt>
      <trkpt lat="44.00752" lon="5.91007">
        <ele>620</ele>
        <time>2020-10-05T11:26:57.000Z</time>
      </trkpt>
      <trkpt lat="44.00752" lon="5.91006">
        <ele>620</ele>
        <time>2020-10-05T11:26:58.000Z</time>
      </trkpt>
      <trkpt lat="44.00751" lon="5.91005">
        <ele>620</ele>
        <time>2020-10-05T11:26:59.000Z</time>
      </trkpt>
      <trkpt lat="44.00751" lon="5.91004">
        <ele>620</ele>
        <time>2020-10-05T11:27:00.000Z</time>
      </trkpt>
      <trkpt lat="44.0075" lon="5.91003">
        <ele>620</ele>
        <time>2020-10-05T11:27:01.000Z</time>
      </trkpt>
      <trkpt lat="44.00749" lon="5.91002">
        <ele>620</ele>
        <time>2020-10-05T11:27:02.000Z</time>
      </trkpt>
      <trkpt lat="44.00749" lon="5.91001">
        <ele>621</ele>
        <time>2020-10-05T11:27:03.000Z</time>
      </trkpt>
      <trkpt lat="44.00748" lon="5.91">
        <ele>621</ele>
        <time>2020-10-05T11:27:04.000Z</time>
      </trkpt>
      <trkpt lat="44.00747" lon="5.90999">
        <ele>621</ele>
        <time>2020-10-05T11:27:05.000Z</time>
      </trkpt>
      <trkpt lat="44.00747" lon="5.90998">
        <ele>621</ele>
        <time>2020-10-05T11:27:06.000Z</time>
      </trkpt>
      <trkpt lat="44.00746" lon="5.90997">
        <ele>621</ele>
        <time>2020-10-05T11:27:07.000Z</time>
      </trkpt>
      <trkpt lat="44.00746" lon="5.90996">
        <ele>621</ele>
        <time>2020-10-05T11:27:08.000Z</time>
      </trkpt>
      <trkpt lat="44.00745" lon="5.90995">
        <ele>621</ele>
        <time>2020-10-05T11:27:09.000Z</time>
      </trkpt>
      <trkpt lat="44.00744" lon="5.90993">
        <ele>622</ele>
        <time>2020-10-05T11:27:10.000Z</time>
      </trkpt>
      <trkpt lat="44.00744" lon="5.90992">
        <ele>622</ele>
        <time>2020-10-05T11:27:11.000Z</time>
      </trkpt>
      <trkpt lat="44.00743" lon="5.90991">
        <ele>622</ele>
        <time>2020-10-05T11:27:12.000Z</time>
      </trkpt>
      <trkpt lat="44.00742" lon="5.9099">
        <ele>622</ele>
        <time>2020-10-05T11:27:13.000Z</time>
      </trkpt>
      <trkpt lat="44.00741" lon="5.90989">
        <ele>622</ele>
        <time>2020-10-05T11:27:14.000Z</time>
      </trkpt>
      <trkpt lat="44.0074" lon="5.90988">
        <ele>622</ele>
        <time>2020-10-05T11:27:15.000Z</time>
      </trkpt>
      <trkpt lat="44.0074" lon="5.90987">
        <ele>622</ele>
        <time>2020-10-05T11:27:16.000Z</time>
      </trkpt>
      <trkpt lat="44.00739" lon="5.90985">
        <ele>622</ele>
        <time>2020-10-05T11:27:17.000Z</time>
      </trkpt>
      <trkpt lat="44.00739" lon="5.90984">
        <ele>622</ele>
        <time>2020-10-05T11:27:18.000Z</time>
      </trkpt>
      <trkpt lat="44.00738" lon="5.90983">
        <ele>622</ele>
        <time>2020-10-05T11:27:19.000Z</time>
      </trkpt>
      <trkpt lat="44.00738" lon="5.90981">
        <ele>622</ele>
        <time>2020-10-05T11:27:20.000Z</time>
      </trkpt>
      <trkpt lat="44.00738" lon="5.9098">
        <ele>622</ele>
        <time>2020-10-05T11:27:21.000Z</time>
      </trkpt>
      <trkpt lat="44.00738" lon="5.90979">
        <ele>622</ele>
        <time>2020-10-05T11:27:22.000Z</time>
      </trkpt>
      <trkpt lat="44.00737" lon="5.90977">
        <ele>622</ele>
        <time>2020-10-05T11:27:23.000Z</time>
      </trkpt>
      <trkpt lat="44.00736" lon="5.90976">
        <ele>623</ele>
        <time>2020-10-05T11:27:24.000Z</time>
      </trkpt>
      <trkpt lat="44.00736" lon="5.90975">
        <ele>623</ele>
        <time>2020-10-05T11:27:25.000Z</time>
      </trkpt>
      <trkpt lat="44.00735" lon="5.90973">
        <ele>623</ele>
        <time>2020-10-05T11:27:26.000Z</time>
      </trkpt>
      <trkpt lat="44.00735" lon="5.90972">
        <ele>623</ele>
        <time>2020-10-05T11:27:27.000Z</time>
      </trkpt>
      <trkpt lat="44.00734" lon="5.90971">
        <ele>623</ele>
        <time>2020-10-05T11:27:28.000Z</time>
      </trkpt>
      <trkpt lat="44.00734" lon="5.90969">
        <ele>623</ele>
        <time>2020-10-05T11:27:29.000Z</time>
      </trkpt>
      <trkpt lat="44.00733" lon="5.90968">
        <ele>623</ele>
        <time>2020-10-05T11:27:30.000Z</time>
      </trkpt>
      <trkpt lat="44.00733" lon="5.90967">
        <ele>623</ele>
        <time>2020-10-05T11:27:31.000Z</time>
      </trkpt>
      <trkpt lat="44.00732" lon="5.90966">
        <ele>623</ele>
        <time>2020-10-05T11:27:32.000Z</time>
      </trkpt>
      <trkpt lat="44.00731" lon="5.90965">
        <ele>623</ele>
        <time>2020-10-05T11:27:33.000Z</time>
      </trkpt>
      <trkpt lat="44.00731" lon="5.90964">
        <ele>623</ele>
        <time>2020-10-05T11:27:34.000Z</time>
      </trkpt>
      <trkpt lat="44.0073" lon="5.90962">
        <ele>623</ele>
        <time>2020-10-05T11:27:35.000Z</time>
      </trkpt>
      <trkpt lat="44.0073" lon="5.90961">
        <ele>623</ele>
        <time>2020-10-05T11:27:36.000Z</time>
      </trkpt>
      <trkpt lat="44.00729" lon="5.90959">
        <ele>623</ele>
        <time>2020-10-05T11:27:37.000Z</time>
      </trkpt>
      <trkpt lat="44.00729" lon="5.90958">
        <ele>623</ele>
        <time>2020-10-05T11:27:38.000Z</time>
      </trkpt>
      <trkpt lat="44.00729" lon="5.90956">
        <ele>623</ele>
        <time>2020-10-05T11:27:39.000Z</time>
      </trkpt>
      <trkpt lat="44.00728" lon="5.90955">
        <ele>624</ele>
        <time>2020-10-05T11:27:40.000Z</time>
      </trkpt>
      <trkpt lat="44.00728" lon="5.90953">
        <ele>624</ele>
        <time>2020-10-05T11:27:41.000Z</time>
      </trkpt>
      <trkpt lat="44.00728" lon="5.90952">
        <ele>624</ele>
        <time>2020-10-05T11:27:42.000Z</time>
      </trkpt>
      <trkpt lat="44.00727" lon="5.90951">
        <ele>624</ele>
        <time>2020-10-05T11:27:43.000Z</time>
      </trkpt>
      <trkpt lat="44.00727" lon="5.9095">
        <ele>624</ele>
        <time>2020-10-05T11:27:44.000Z</time>
      </trkpt>
      <trkpt lat="44.00726" lon="5.90949">
        <ele>624</ele>
        <time>2020-10-05T11:27:45.000Z</time>
      </trkpt>
      <trkpt lat="44.00725" lon="5.90948">
        <ele>624</ele>
        <time>2020-10-05T11:27:46.000Z</time>
      </trkpt>
      <trkpt lat="44.00725" lon="5.90947">
        <ele>624</ele>
        <time>2020-10-05T11:27:47.000Z</time>
      </trkpt>
      <trkpt lat="44.00724" lon="5.90946">
        <ele>624</ele>
        <time>2020-10-05T11:27:48.000Z</time>
      </trkpt>
      <trkpt lat="44.00724" lon="5.90945">
        <ele>624</ele>
        <time>2020-10-05T11:27:49.000Z</time>
      </trkpt>
      <trkpt lat="44.00723" lon="5.90944">
        <ele>624</ele>
        <time>2020-10-05T11:27:50.000Z</time>
      </trkpt>
      <trkpt lat="44.00722" lon="5.90942">
        <ele>624</ele>
        <time>2020-10-05T11:27:51.000Z</time>
      </trkpt>
      <trkpt lat="44.00721" lon="5.90942">
        <ele>625</ele>
        <time>2020-10-05T11:27:52.000Z</time>
      </trkpt>
      <trkpt lat="44.00721" lon="5.9094">
        <ele>625</ele>
        <time>2020-10-05T11:27:53.000Z</time>
      </trkpt>
      <trkpt lat="44.0072" lon="5.90939">
        <ele>625</ele>
        <time>2020-10-05T11:27:54.000Z</time>
      </trkpt>
      <trkpt lat="44.00719" lon="5.90938">
        <ele>625</ele>
        <time>2020-10-05T11:27:55.000Z</time>
      </trkpt>
      <trkpt lat="44.00719" lon="5.90937">
        <ele>625</ele>
        <time>2020-10-05T11:27:56.000Z</time>
      </trkpt>
      <trkpt lat="44.00718" lon="5.90936">
        <ele>625</ele>
        <time>2020-10-05T11:27:57.000Z</time>
      </trkpt>
      <trkpt lat="44.00717" lon="5.90934">
        <ele>625</ele>
        <time>2020-10-05T11:27:58.000Z</time>
      </trkpt>
      <trkpt lat="44.00717" lon="5.90933">
        <ele>625</ele>
        <time>2020-10-05T11:27:59.000Z</time>
      </trkpt>
      <trkpt lat="44.00717" lon="5.90932">
        <ele>625</ele>
        <time>2020-10-05T11:28:00.000Z</time>
      </trkpt>
      <trkpt lat="44.00716" lon="5.9093">
        <ele>625</ele>
        <time>2020-10-05T11:28:01.000Z</time>
      </trkpt>
      <trkpt lat="44.00716" lon="5.90929">
        <ele>625</ele>
        <time>2020-10-05T11:28:02.000Z</time>
      </trkpt>
      <trkpt lat="44.00715" lon="5.90927">
        <ele>625</ele>
        <time>2020-10-05T11:28:03.000Z</time>
      </trkpt>
      <trkpt lat="44.00715" lon="5.90926">
        <ele>625</ele>
        <time>2020-10-05T11:28:04.000Z</time>
      </trkpt>
      <trkpt lat="44.00715" lon="5.90924">
        <ele>625</ele>
        <time>2020-10-05T11:28:05.000Z</time>
      </trkpt>
      <trkpt lat="44.00714" lon="5.90923">
        <ele>625</ele>
        <time>2020-10-05T11:28:06.000Z</time>
      </trkpt>
      <trkpt lat="44.00714" lon="5.90921">
        <ele>625</ele>
        <time>2020-10-05T11:28:07.000Z</time>
      </trkpt>
      <trkpt lat="44.00714" lon="5.9092">
        <ele>625</ele>
        <time>2020-10-05T11:28:08.000Z</time>
      </trkpt>
      <trkpt lat="44.00714" lon="5.90918">
        <ele>625</ele>
        <time>2020-10-05T11:28:09.000Z</time>
      </trkpt>
      <trkpt lat="44.00714" lon="5.90917">
        <ele>625</ele>
        <time>2020-10-05T11:28:10.000Z</time>
      </trkpt>
      <trkpt lat="44.00713" lon="5.90916">
        <ele>625</ele>
        <time>2020-10-05T11:28:11.000Z</time>
      </trkpt>
      <trkpt lat="44.00713" lon="5.90914">
        <ele>626</ele>
        <time>2020-10-05T11:28:12.000Z</time>
      </trkpt>
      <trkpt lat="44.00713" lon="5.90912">
        <ele>626</ele>
        <time>2020-10-05T11:28:13.000Z</time>
      </trkpt>
      <trkpt lat="44.00713" lon="5.90911">
        <ele>626</ele>
        <time>2020-10-05T11:28:14.000Z</time>
      </trkpt>
      <trkpt lat="44.00713" lon="5.90909">
        <ele>626</ele>
        <time>2020-10-05T11:28:15.000Z</time>
      </trkpt>
      <trkpt lat="44.00713" lon="5.90908">
        <ele>626</ele>
        <time>2020-10-05T11:28:16.000Z</time>
      </trkpt>
      <trkpt lat="44.00713" lon="5.90906">
        <ele>626</ele>
        <time>2020-10-05T11:28:17.000Z</time>
      </trkpt>
      <trkpt lat="44.00713" lon="5.90905">
        <ele>626</ele>
        <time>2020-10-05T11:28:18.000Z</time>
      </trkpt>
      <trkpt lat="44.00712" lon="5.90903">
        <ele>626</ele>
        <time>2020-10-05T11:28:19.000Z</time>
      </trkpt>
      <trkpt lat="44.00712" lon="5.90902">
        <ele>626</ele>
        <time>2020-10-05T11:28:20.000Z</time>
      </trkpt>
      <trkpt lat="44.00712" lon="5.909">
        <ele>626</ele>
        <time>2020-10-05T11:28:21.000Z</time>
      </trkpt>
      <trkpt lat="44.00712" lon="5.90899">
        <ele>626</ele>
        <time>2020-10-05T11:28:22.000Z</time>
      </trkpt>
      <trkpt lat="44.00712" lon="5.90897">
        <ele>626</ele>
        <time>2020-10-05T11:28:23.000Z</time>
      </trkpt>
      <trkpt lat="44.00712" lon="5.90896">
        <ele>626</ele>
        <time>2020-10-05T11:28:24.000Z</time>
      </trkpt>
      <trkpt lat="44.00712" lon="5.90894">
        <ele>626</ele>
        <time>2020-10-05T11:28:25.000Z</time>
      </trkpt>
      <trkpt lat="44.00712" lon="5.90893">
        <ele>626</ele>
        <time>2020-10-05T11:28:26.000Z</time>
      </trkpt>
      <trkpt lat="44.00712" lon="5.90891">
        <ele>626</ele>
        <time>2020-10-05T11:28:27.000Z</time>
      </trkpt>
      <trkpt lat="44.00713" lon="5.9089">
        <ele>627</ele>
        <time>2020-10-05T11:28:28.000Z</time>
      </trkpt>
      <trkpt lat="44.00713" lon="5.90888">
        <ele>627</ele>
        <time>2020-10-05T11:28:29.000Z</time>
      </trkpt>
      <trkpt lat="44.00712" lon="5.90887">
        <ele>627</ele>
        <time>2020-10-05T11:28:30.000Z</time>
      </trkpt>
      <trkpt lat="44.00712" lon="5.90885">
        <ele>627</ele>
        <time>2020-10-05T11:28:31.000Z</time>
      </trkpt>
      <trkpt lat="44.00712" lon="5.90884">
        <ele>627</ele>
        <time>2020-10-05T11:28:32.000Z</time>
      </trkpt>
      <trkpt lat="44.00713" lon="5.90883">
        <ele>627</ele>
        <time>2020-10-05T11:28:33.000Z</time>
      </trkpt>
      <trkpt lat="44.00713" lon="5.90881">
        <ele>627</ele>
        <time>2020-10-05T11:28:34.000Z</time>
      </trkpt>
      <trkpt lat="44.00713" lon="5.9088">
        <ele>627</ele>
        <time>2020-10-05T11:28:35.000Z</time>
      </trkpt>
      <trkpt lat="44.00713" lon="5.90879">
        <ele>627</ele>
        <time>2020-10-05T11:28:36.000Z</time>
      </trkpt>
      <trkpt lat="44.00713" lon="5.90877">
        <ele>627</ele>
        <time>2020-10-05T11:28:37.000Z</time>
      </trkpt>
      <trkpt lat="44.00714" lon="5.90876">
        <ele>628</ele>
        <time>2020-10-05T11:28:38.000Z</time>
      </trkpt>
      <trkpt lat="44.00714" lon="5.90875">
        <ele>628</ele>
        <time>2020-10-05T11:28:39.000Z</time>
      </trkpt>
      <trkpt lat="44.00714" lon="5.90874">
        <ele>628</ele>
        <time>2020-10-05T11:28:40.000Z</time>
      </trkpt>
      <trkpt lat="44.00714" lon="5.90872">
        <ele>628</ele>
        <time>2020-10-05T11:28:41.000Z</time>
      </trkpt>
      <trkpt lat="44.00714" lon="5.90871">
        <ele>628</ele>
        <time>2020-10-05T11:28:42.000Z</time>
      </trkpt>
      <trkpt lat="44.00714" lon="5.90869">
        <ele>628</ele>
        <time>2020-10-05T11:28:43.000Z</time>
      </trkpt>
      <trkpt lat="44.00714" lon="5.90868">
        <ele>628</ele>
        <time>2020-10-05T11:28:44.000Z</time>
      </trkpt>
      <trkpt lat="44.00714" lon="5.90867">
        <ele>629</ele>
        <time>2020-10-05T11:28:45.000Z</time>
      </trkpt>
      <trkpt lat="44.00714" lon="5.90865">
        <ele>629</ele>
        <time>2020-10-05T11:28:46.000Z</time>
      </trkpt>
      <trkpt lat="44.00715" lon="5.90864">
        <ele>629</ele>
        <time>2020-10-05T11:28:47.000Z</time>
      </trkpt>
      <trkpt lat="44.00715" lon="5.90863">
        <ele>629</ele>
        <time>2020-10-05T11:28:48.000Z</time>
      </trkpt>
      <trkpt lat="44.00715" lon="5.90861">
        <ele>629</ele>
        <time>2020-10-05T11:28:49.000Z</time>
      </trkpt>
      <trkpt lat="44.00716" lon="5.9086">
        <ele>629</ele>
        <time>2020-10-05T11:28:50.000Z</time>
      </trkpt>
      <trkpt lat="44.00716" lon="5.90858">
        <ele>629</ele>
        <time>2020-10-05T11:28:51.000Z</time>
      </trkpt>
      <trkpt lat="44.00716" lon="5.90857">
        <ele>629</ele>
        <time>2020-10-05T11:28:52.000Z</time>
      </trkpt>
      <trkpt lat="44.00716" lon="5.90857">
        <ele>629</ele>
        <time>2020-10-05T11:28:53.000Z</time>
      </trkpt>
      <trkpt lat="44.00716" lon="5.90856">
        <ele>629</ele>
        <time>2020-10-05T11:28:54.000Z</time>
      </trkpt>
      <trkpt lat="44.00716" lon="5.90855">
        <ele>629</ele>
        <time>2020-10-05T11:28:55.000Z</time>
      </trkpt>
      <trkpt lat="44.00716" lon="5.90854">
        <ele>630</ele>
        <time>2020-10-05T11:28:56.000Z</time>
      </trkpt>
      <trkpt lat="44.00717" lon="5.90853">
        <ele>630</ele>
        <time>2020-10-05T11:28:57.000Z</time>
      </trkpt>
      <trkpt lat="44.00717" lon="5.90851">
        <ele>630</ele>
        <time>2020-10-05T11:28:58.000Z</time>
      </trkpt>
      <trkpt lat="44.00717" lon="5.90849">
        <ele>630</ele>
        <time>2020-10-05T11:28:59.000Z</time>
      </trkpt>
      <trkpt lat="44.00716" lon="5.90848">
        <ele>630</ele>
        <time>2020-10-05T11:29:00.000Z</time>
      </trkpt>
      <trkpt lat="44.00716" lon="5.90847">
        <ele>630</ele>
        <time>2020-10-05T11:29:01.000Z</time>
      </trkpt>
      <trkpt lat="44.00716" lon="5.90846">
        <ele>630</ele>
        <time>2020-10-05T11:29:02.000Z</time>
      </trkpt>
      <trkpt lat="44.00716" lon="5.90845">
        <ele>630</ele>
        <time>2020-10-05T11:29:03.000Z</time>
      </trkpt>
      <trkpt lat="44.00716" lon="5.90844">
        <ele>630</ele>
        <time>2020-10-05T11:29:04.000Z</time>
      </trkpt>
      <trkpt lat="44.00716" lon="5.90843">
        <ele>630</ele>
        <time>2020-10-05T11:29:05.000Z</time>
      </trkpt>
      <trkpt lat="44.00716" lon="5.90842">
        <ele>630</ele>
        <time>2020-10-05T11:29:06.000Z</time>
      </trkpt>
      <trkpt lat="44.00716" lon="5.90841">
        <ele>630</ele>
        <time>2020-10-05T11:29:07.000Z</time>
      </trkpt>
      <trkpt lat="44.00715" lon="5.9084">
        <ele>630</ele>
        <time>2020-10-05T11:29:08.000Z</time>
      </trkpt>
      <trkpt lat="44.00715" lon="5.9084">
        <ele>630</ele>
        <time>2020-10-05T11:29:09.000Z</time>
      </trkpt>
      <trkpt lat="44.00715" lon="5.9084">
        <ele>631</ele>
        <time>2020-10-05T11:29:10.000Z</time>
      </trkpt>
      <trkpt lat="44.00714" lon="5.9084">
        <ele>631</ele>
        <time>2020-10-05T11:29:11.000Z</time>
      </trkpt>
      <trkpt lat="44.00714" lon="5.9084">
        <ele>631</ele>
        <time>2020-10-05T11:29:12.000Z</time>
      </trkpt>
      <trkpt lat="44.00714" lon="5.9084">
        <ele>631</ele>
        <time>2020-10-05T11:29:13.000Z</time>
      </trkpt>
      <trkpt lat="44.00713" lon="5.9084">
        <ele>631</ele>
        <time>2020-10-05T11:29:14.000Z</time>
      </trkpt>
      <trkpt lat="44.00713" lon="5.90839">
        <ele>631</ele>
        <time>2020-10-05T11:29:15.000Z</time>
      </trkpt>
      <trkpt lat="44.00712" lon="5.90839">
        <ele>631</ele>
        <time>2020-10-05T11:29:16.000Z</time>
      </trkpt>
      <trkpt lat="44.00712" lon="5.90838">
        <ele>631</ele>
        <time>2020-10-05T11:29:17.000Z</time>
      </trkpt>
      <trkpt lat="44.00711" lon="5.90838">
        <ele>631</ele>
        <time>2020-10-05T11:29:18.000Z</time>
      </trkpt>
      <trkpt lat="44.0071" lon="5.90838">
        <ele>631</ele>
        <time>2020-10-05T11:29:19.000Z</time>
      </trkpt>
      <trkpt lat="44.00709" lon="5.90839">
        <ele>631</ele>
        <time>2020-10-05T11:29:20.000Z</time>
      </trkpt>
      <trkpt lat="44.00708" lon="5.90839">
        <ele>631</ele>
        <time>2020-10-05T11:29:21.000Z</time>
      </trkpt>
      <trkpt lat="44.00707" lon="5.9084">
        <ele>631</ele>
        <time>2020-10-05T11:29:22.000Z</time>
      </trkpt>
      <trkpt lat="44.00707" lon="5.9084">
        <ele>631</ele>
        <time>2020-10-05T11:29:23.000Z</time>
      </trkpt>
      <trkpt lat="44.00706" lon="5.90841">
        <ele>631</ele>
        <time>2020-10-05T11:29:24.000Z</time>
      </trkpt>
      <trkpt lat="44.00705" lon="5.90842">
        <ele>631</ele>
        <time>2020-10-05T11:29:25.000Z</time>
      </trkpt>
      <trkpt lat="44.00705" lon="5.90842">
        <ele>631</ele>
        <time>2020-10-05T11:29:26.000Z</time>
      </trkpt>
      <trkpt lat="44.00704" lon="5.90843">
        <ele>631</ele>
        <time>2020-10-05T11:29:27.000Z</time>
      </trkpt>
      <trkpt lat="44.00704" lon="5.90844">
        <ele>631</ele>
        <time>2020-10-05T11:29:28.000Z</time>
      </trkpt>
      <trkpt lat="44.00703" lon="5.90844">
        <ele>631</ele>
        <time>2020-10-05T11:29:29.000Z</time>
      </trkpt>
      <trkpt lat="44.00703" lon="5.90845">
        <ele>631</ele>
        <time>2020-10-05T11:29:30.000Z</time>
      </trkpt>
      <trkpt lat="44.00702" lon="5.90846">
        <ele>631</ele>
        <time>2020-10-05T11:29:31.000Z</time>
      </trkpt>
      <trkpt lat="44.00701" lon="5.90847">
        <ele>631</ele>
        <time>2020-10-05T11:29:32.000Z</time>
      </trkpt>
      <trkpt lat="44.00701" lon="5.90847">
        <ele>631</ele>
        <time>2020-10-05T11:29:33.000Z</time>
      </trkpt>
      <trkpt lat="44.007" lon="5.90847">
        <ele>631</ele>
        <time>2020-10-05T11:29:34.000Z</time>
      </trkpt>
      <trkpt lat="44.00699" lon="5.90847">
        <ele>631</ele>
        <time>2020-10-05T11:29:35.000Z</time>
      </trkpt>
      <trkpt lat="44.00698" lon="5.90847">
        <ele>632</ele>
        <time>2020-10-05T11:29:36.000Z</time>
      </trkpt>
      <trkpt lat="44.00697" lon="5.90847">
        <ele>632</ele>
        <time>2020-10-05T11:29:37.000Z</time>
      </trkpt>
      <trkpt lat="44.00696" lon="5.90847">
        <ele>632</ele>
        <time>2020-10-05T11:29:38.000Z</time>
      </trkpt>
      <trkpt lat="44.00695" lon="5.90847">
        <ele>632</ele>
        <time>2020-10-05T11:29:39.000Z</time>
      </trkpt>
      <trkpt lat="44.00694" lon="5.90846">
        <ele>632</ele>
        <time>2020-10-05T11:29:40.000Z</time>
      </trkpt>
      <trkpt lat="44.00693" lon="5.90846">
        <ele>632</ele>
        <time>2020-10-05T11:29:41.000Z</time>
      </trkpt>
      <trkpt lat="44.00693" lon="5.90845">
        <ele>632</ele>
        <time>2020-10-05T11:29:42.000Z</time>
      </trkpt>
      <trkpt lat="44.00692" lon="5.90845">
        <ele>632</ele>
        <time>2020-10-05T11:29:43.000Z</time>
      </trkpt>
      <trkpt lat="44.00692" lon="5.90844">
        <ele>632</ele>
        <time>2020-10-05T11:29:44.000Z</time>
      </trkpt>
      <trkpt lat="44.00691" lon="5.90844">
        <ele>632</ele>
        <time>2020-10-05T11:29:45.000Z</time>
      </trkpt>
      <trkpt lat="44.0069" lon="5.90843">
        <ele>632</ele>
        <time>2020-10-05T11:29:46.000Z</time>
      </trkpt>
      <trkpt lat="44.0069" lon="5.90842">
        <ele>632</ele>
        <time>2020-10-05T11:29:47.000Z</time>
      </trkpt>
      <trkpt lat="44.00689" lon="5.90842">
        <ele>632</ele>
        <time>2020-10-05T11:29:48.000Z</time>
      </trkpt>
      <trkpt lat="44.00688" lon="5.90841">
        <ele>632</ele>
        <time>2020-10-05T11:29:49.000Z</time>
      </trkpt>
      <trkpt lat="44.00688" lon="5.9084">
        <ele>632</ele>
        <time>2020-10-05T11:29:50.000Z</time>
      </trkpt>
      <trkpt lat="44.00688" lon="5.9084">
        <ele>632</ele>
        <time>2020-10-05T11:29:51.000Z</time>
      </trkpt>
      <trkpt lat="44.00687" lon="5.90839">
        <ele>632</ele>
        <time>2020-10-05T11:29:52.000Z</time>
      </trkpt>
      <trkpt lat="44.00687" lon="5.90839">
        <ele>632</ele>
        <time>2020-10-05T11:29:53.000Z</time>
      </trkpt>
      <trkpt lat="44.00686" lon="5.90838">
        <ele>632</ele>
        <time>2020-10-05T11:29:54.000Z</time>
      </trkpt>
      <trkpt lat="44.00686" lon="5.90838">
        <ele>632</ele>
        <time>2020-10-05T11:29:55.000Z</time>
      </trkpt>
      <trkpt lat="44.00685" lon="5.90837">
        <ele>632</ele>
        <time>2020-10-05T11:29:56.000Z</time>
      </trkpt>
      <trkpt lat="44.00684" lon="5.90837">
        <ele>632</ele>
        <time>2020-10-05T11:29:57.000Z</time>
      </trkpt>
      <trkpt lat="44.00684" lon="5.90836">
        <ele>632</ele>
        <time>2020-10-05T11:29:58.000Z</time>
      </trkpt>
      <trkpt lat="44.00683" lon="5.90835">
        <ele>632</ele>
        <time>2020-10-05T11:29:59.000Z</time>
      </trkpt>
      <trkpt lat="44.00683" lon="5.90835">
        <ele>632</ele>
        <time>2020-10-05T11:30:00.000Z</time>
      </trkpt>
      <trkpt lat="44.00682" lon="5.90834">
        <ele>632</ele>
        <time>2020-10-05T11:30:01.000Z</time>
      </trkpt>
      <trkpt lat="44.00682" lon="5.90834">
        <ele>632</ele>
        <time>2020-10-05T11:30:02.000Z</time>
      </trkpt>
      <trkpt lat="44.00681" lon="5.90834">
        <ele>633</ele>
        <time>2020-10-05T11:30:03.000Z</time>
      </trkpt>
      <trkpt lat="44.0068" lon="5.90833">
        <ele>633</ele>
        <time>2020-10-05T11:30:04.000Z</time>
      </trkpt>
      <trkpt lat="44.0068" lon="5.90833">
        <ele>633</ele>
        <time>2020-10-05T11:30:05.000Z</time>
      </trkpt>
      <trkpt lat="44.00679" lon="5.90833">
        <ele>633</ele>
        <time>2020-10-05T11:30:06.000Z</time>
      </trkpt>
      <trkpt lat="44.00679" lon="5.90833">
        <ele>633</ele>
        <time>2020-10-05T11:30:07.000Z</time>
      </trkpt>
      <trkpt lat="44.00678" lon="5.90833">
        <ele>633</ele>
        <time>2020-10-05T11:30:08.000Z</time>
      </trkpt>
      <trkpt lat="44.00678" lon="5.90832">
        <ele>633</ele>
        <time>2020-10-05T11:30:09.000Z</time>
      </trkpt>
      <trkpt lat="44.00677" lon="5.90832">
        <ele>633</ele>
        <time>2020-10-05T11:30:10.000Z</time>
      </trkpt>
      <trkpt lat="44.00677" lon="5.90832">
        <ele>633</ele>
        <time>2020-10-05T11:30:11.000Z</time>
      </trkpt>
      <trkpt lat="44.00676" lon="5.90831">
        <ele>633</ele>
        <time>2020-10-05T11:30:12.000Z</time>
      </trkpt>
      <trkpt lat="44.00676" lon="5.90831">
        <ele>633</ele>
        <time>2020-10-05T11:30:13.000Z</time>
      </trkpt>
      <trkpt lat="44.00675" lon="5.90831">
        <ele>633</ele>
        <time>2020-10-05T11:30:14.000Z</time>
      </trkpt>
      <trkpt lat="44.00675" lon="5.90831">
        <ele>633</ele>
        <time>2020-10-05T11:30:15.000Z</time>
      </trkpt>
      <trkpt lat="44.00674" lon="5.9083">
        <ele>633</ele>
        <time>2020-10-05T11:30:16.000Z</time>
      </trkpt>
      <trkpt lat="44.00674" lon="5.90829">
        <ele>633</ele>
        <time>2020-10-05T11:30:17.000Z</time>
      </trkpt>
      <trkpt lat="44.00673" lon="5.90829">
        <ele>633</ele>
        <time>2020-10-05T11:30:18.000Z</time>
      </trkpt>
      <trkpt lat="44.00673" lon="5.90829">
        <ele>633</ele>
        <time>2020-10-05T11:30:19.000Z</time>
      </trkpt>
      <trkpt lat="44.00672" lon="5.90829">
        <ele>634</ele>
        <time>2020-10-05T11:30:20.000Z</time>
      </trkpt>
      <trkpt lat="44.00671" lon="5.90828">
        <ele>634</ele>
        <time>2020-10-05T11:30:21.000Z</time>
      </trkpt>
      <trkpt lat="44.0067" lon="5.90828">
        <ele>634</ele>
        <time>2020-10-05T11:30:22.000Z</time>
      </trkpt>
      <trkpt lat="44.0067" lon="5.90827">
        <ele>634</ele>
        <time>2020-10-05T11:30:23.000Z</time>
      </trkpt>
      <trkpt lat="44.00669" lon="5.90827">
        <ele>634</ele>
        <time>2020-10-05T11:30:24.000Z</time>
      </trkpt>
      <trkpt lat="44.00668" lon="5.90827">
        <ele>634</ele>
        <time>2020-10-05T11:30:25.000Z</time>
      </trkpt>
      <trkpt lat="44.00668" lon="5.90826">
        <ele>634</ele>
        <time>2020-10-05T11:30:26.000Z</time>
      </trkpt>
      <trkpt lat="44.00667" lon="5.90826">
        <ele>634</ele>
        <time>2020-10-05T11:30:27.000Z</time>
      </trkpt>
      <trkpt lat="44.00666" lon="5.90826">
        <ele>634</ele>
        <time>2020-10-05T11:30:28.000Z</time>
      </trkpt>
      <trkpt lat="44.00665" lon="5.90825">
        <ele>635</ele>
        <time>2020-10-05T11:30:29.000Z</time>
      </trkpt>
      <trkpt lat="44.00665" lon="5.90825">
        <ele>635</ele>
        <time>2020-10-05T11:30:30.000Z</time>
      </trkpt>
      <trkpt lat="44.00664" lon="5.90825">
        <ele>635</ele>
        <time>2020-10-05T11:30:31.000Z</time>
      </trkpt>
      <trkpt lat="44.00663" lon="5.90824">
        <ele>635</ele>
        <time>2020-10-05T11:30:32.000Z</time>
      </trkpt>
      <trkpt lat="44.00663" lon="5.90824">
        <ele>635</ele>
        <time>2020-10-05T11:30:33.000Z</time>
      </trkpt>
      <trkpt lat="44.00662" lon="5.90824">
        <ele>635</ele>
        <time>2020-10-05T11:30:34.000Z</time>
      </trkpt>
      <trkpt lat="44.00661" lon="5.90823">
        <ele>635</ele>
        <time>2020-10-05T11:30:35.000Z</time>
      </trkpt>
      <trkpt lat="44.0066" lon="5.90823">
        <ele>635</ele>
        <time>2020-10-05T11:30:36.000Z</time>
      </trkpt>
      <trkpt lat="44.0066" lon="5.90823">
        <ele>635</ele>
        <time>2020-10-05T11:30:37.000Z</time>
      </trkpt>
      <trkpt lat="44.00659" lon="5.90823">
        <ele>635</ele>
        <time>2020-10-05T11:30:38.000Z</time>
      </trkpt>
      <trkpt lat="44.00658" lon="5.90823">
        <ele>636</ele>
        <time>2020-10-05T11:30:39.000Z</time>
      </trkpt>
      <trkpt lat="44.00657" lon="5.90822">
        <ele>636</ele>
        <time>2020-10-05T11:30:40.000Z</time>
      </trkpt>
      <trkpt lat="44.00657" lon="5.90822">
        <ele>636</ele>
        <time>2020-10-05T11:30:41.000Z</time>
      </trkpt>
      <trkpt lat="44.00657" lon="5.90822">
        <ele>636</ele>
        <time>2020-10-05T11:30:42.000Z</time>
      </trkpt>
      <trkpt lat="44.00657" lon="5.90822">
        <ele>636</ele>
        <time>2020-10-05T11:30:43.000Z</time>
      </trkpt>
      <trkpt lat="44.00656" lon="5.90822">
        <ele>636</ele>
        <time>2020-10-05T11:30:44.000Z</time>
      </trkpt>
      <trkpt lat="44.00656" lon="5.90822">
        <ele>636</ele>
        <time>2020-10-05T11:30:45.000Z</time>
      </trkpt>
      <trkpt lat="44.00656" lon="5.90822">
        <ele>636</ele>
        <time>2020-10-05T11:30:46.000Z</time>
      </trkpt>
      <trkpt lat="44.00655" lon="5.90821">
        <ele>636</ele>
        <time>2020-10-05T11:30:47.000Z</time>
      </trkpt>
      <trkpt lat="44.00654" lon="5.90821">
        <ele>636</ele>
        <time>2020-10-05T11:30:48.000Z</time>
      </trkpt>
      <trkpt lat="44.00654" lon="5.90821">
        <ele>636</ele>
        <time>2020-10-05T11:30:49.000Z</time>
      </trkpt>
      <trkpt lat="44.00654" lon="5.90821">
        <ele>636</ele>
        <time>2020-10-05T11:30:50.000Z</time>
      </trkpt>
      <trkpt lat="44.00653" lon="5.90821">
        <ele>636</ele>
        <time>2020-10-05T11:30:51.000Z</time>
      </trkpt>
      <trkpt lat="44.00653" lon="5.90821">
        <ele>636</ele>
        <time>2020-10-05T11:30:52.000Z</time>
      </trkpt>
      <trkpt lat="44.00652" lon="5.9082">
        <ele>636</ele>
        <time>2020-10-05T11:30:53.000Z</time>
      </trkpt>
      <trkpt lat="44.00651" lon="5.9082">
        <ele>636</ele>
        <time>2020-10-05T11:30:54.000Z</time>
      </trkpt>
      <trkpt lat="44.00651" lon="5.9082">
        <ele>636</ele>
        <time>2020-10-05T11:30:55.000Z</time>
      </trkpt>
      <trkpt lat="44.00651" lon="5.9082">
        <ele>636</ele>
        <time>2020-10-05T11:30:56.000Z</time>
      </trkpt>
      <trkpt lat="44.0065" lon="5.90819">
        <ele>636</ele>
        <time>2020-10-05T11:30:57.000Z</time>
      </trkpt>
      <trkpt lat="44.0065" lon="5.90819">
        <ele>636</ele>
        <time>2020-10-05T11:30:58.000Z</time>
      </trkpt>
      <trkpt lat="44.0065" lon="5.90819">
        <ele>636</ele>
        <time>2020-10-05T11:30:59.000Z</time>
      </trkpt>
      <trkpt lat="44.00649" lon="5.90819">
        <ele>636</ele>
        <time>2020-10-05T11:31:00.000Z</time>
      </trkpt>
      <trkpt lat="44.00648" lon="5.90818">
        <ele>636</ele>
        <time>2020-10-05T11:31:01.000Z</time>
      </trkpt>
      <trkpt lat="44.00647" lon="5.90818">
        <ele>636</ele>
        <time>2020-10-05T11:31:02.000Z</time>
      </trkpt>
      <trkpt lat="44.00646" lon="5.90818">
        <ele>637</ele>
        <time>2020-10-05T11:31:03.000Z</time>
      </trkpt>
      <trkpt lat="44.00645" lon="5.90818">
        <ele>637</ele>
        <time>2020-10-05T11:31:04.000Z</time>
      </trkpt>
      <trkpt lat="44.00644" lon="5.90817">
        <ele>637</ele>
        <time>2020-10-05T11:31:05.000Z</time>
      </trkpt>
      <trkpt lat="44.00643" lon="5.90817">
        <ele>637</ele>
        <time>2020-10-05T11:31:06.000Z</time>
      </trkpt>
      <trkpt lat="44.00642" lon="5.90817">
        <ele>637</ele>
        <time>2020-10-05T11:31:07.000Z</time>
      </trkpt>
      <trkpt lat="44.00642" lon="5.90817">
        <ele>637</ele>
        <time>2020-10-05T11:31:08.000Z</time>
      </trkpt>
      <trkpt lat="44.00641" lon="5.90817">
        <ele>637</ele>
        <time>2020-10-05T11:31:09.000Z</time>
      </trkpt>
      <trkpt lat="44.0064" lon="5.90816">
        <ele>637</ele>
        <time>2020-10-05T11:31:10.000Z</time>
      </trkpt>
      <trkpt lat="44.00639" lon="5.90816">
        <ele>637</ele>
        <time>2020-10-05T11:31:11.000Z</time>
      </trkpt>
      <trkpt lat="44.00638" lon="5.90815">
        <ele>637</ele>
        <time>2020-10-05T11:31:12.000Z</time>
      </trkpt>
      <trkpt lat="44.00638" lon="5.90815">
        <ele>637</ele>
        <time>2020-10-05T11:31:13.000Z</time>
      </trkpt>
      <trkpt lat="44.00637" lon="5.90815">
        <ele>637</ele>
        <time>2020-10-05T11:31:14.000Z</time>
      </trkpt>
      <trkpt lat="44.00637" lon="5.90814">
        <ele>637</ele>
        <time>2020-10-05T11:31:15.000Z</time>
      </trkpt>
      <trkpt lat="44.00636" lon="5.90814">
        <ele>637</ele>
        <time>2020-10-05T11:31:16.000Z</time>
      </trkpt>
      <trkpt lat="44.00635" lon="5.90814">
        <ele>637</ele>
        <time>2020-10-05T11:31:17.000Z</time>
      </trkpt>
      <trkpt lat="44.00634" lon="5.90813">
        <ele>637</ele>
        <time>2020-10-05T11:31:18.000Z</time>
      </trkpt>
      <trkpt lat="44.00633" lon="5.90813">
        <ele>637</ele>
        <time>2020-10-05T11:31:19.000Z</time>
      </trkpt>
      <trkpt lat="44.00632" lon="5.90812">
        <ele>637</ele>
        <time>2020-10-05T11:31:20.000Z</time>
      </trkpt>
      <trkpt lat="44.00631" lon="5.90812">
        <ele>637</ele>
        <time>2020-10-05T11:31:21.000Z</time>
      </trkpt>
      <trkpt lat="44.0063" lon="5.90812">
        <ele>638</ele>
        <time>2020-10-05T11:31:22.000Z</time>
      </trkpt>
      <trkpt lat="44.00629" lon="5.90811">
        <ele>638</ele>
        <time>2020-10-05T11:31:23.000Z</time>
      </trkpt>
      <trkpt lat="44.00629" lon="5.90811">
        <ele>638</ele>
        <time>2020-10-05T11:31:24.000Z</time>
      </trkpt>
      <trkpt lat="44.00627" lon="5.90811">
        <ele>638</ele>
        <time>2020-10-05T11:31:25.000Z</time>
      </trkpt>
      <trkpt lat="44.00627" lon="5.90811">
        <ele>638</ele>
        <time>2020-10-05T11:31:26.000Z</time>
      </trkpt>
      <trkpt lat="44.00626" lon="5.90811">
        <ele>639</ele>
        <time>2020-10-05T11:31:27.000Z</time>
      </trkpt>
      <trkpt lat="44.00625" lon="5.9081">
        <ele>639</ele>
        <time>2020-10-05T11:31:28.000Z</time>
      </trkpt>
      <trkpt lat="44.00624" lon="5.9081">
        <ele>639</ele>
        <time>2020-10-05T11:31:29.000Z</time>
      </trkpt>
      <trkpt lat="44.00623" lon="5.90809">
        <ele>639</ele>
        <time>2020-10-05T11:31:30.000Z</time>
      </trkpt>
      <trkpt lat="44.00621" lon="5.90809">
        <ele>639</ele>
        <time>2020-10-05T11:31:31.000Z</time>
      </trkpt>
      <trkpt lat="44.0062" lon="5.90808">
        <ele>639</ele>
        <time>2020-10-05T11:31:32.000Z</time>
      </trkpt>
      <trkpt lat="44.00619" lon="5.90808">
        <ele>639</ele>
        <time>2020-10-05T11:31:33.000Z</time>
      </trkpt>
      <trkpt lat="44.00618" lon="5.90808">
        <ele>639</ele>
        <time>2020-10-05T11:31:34.000Z</time>
      </trkpt>
      <trkpt lat="44.00617" lon="5.90807">
        <ele>639</ele>
        <time>2020-10-05T11:31:35.000Z</time>
      </trkpt>
      <trkpt lat="44.00616" lon="5.90807">
        <ele>639</ele>
        <time>2020-10-05T11:31:36.000Z</time>
      </trkpt>
      <trkpt lat="44.00615" lon="5.90807">
        <ele>640</ele>
        <time>2020-10-05T11:31:37.000Z</time>
      </trkpt>
      <trkpt lat="44.00614" lon="5.90806">
        <ele>640</ele>
        <time>2020-10-05T11:31:38.000Z</time>
      </trkpt>
      <trkpt lat="44.00613" lon="5.90806">
        <ele>640</ele>
        <time>2020-10-05T11:31:39.000Z</time>
      </trkpt>
      <trkpt lat="44.00613" lon="5.90806">
        <ele>640</ele>
        <time>2020-10-05T11:31:40.000Z</time>
      </trkpt>
      <trkpt lat="44.00612" lon="5.90806">
        <ele>640</ele>
        <time>2020-10-05T11:31:41.000Z</time>
      </trkpt>
      <trkpt lat="44.00611" lon="5.90805">
        <ele>641</ele>
        <time>2020-10-05T11:31:42.000Z</time>
      </trkpt>
      <trkpt lat="44.0061" lon="5.90805">
        <ele>641</ele>
        <time>2020-10-05T11:31:43.000Z</time>
      </trkpt>
      <trkpt lat="44.00609" lon="5.90804">
        <ele>641</ele>
        <time>2020-10-05T11:31:44.000Z</time>
      </trkpt>
      <trkpt lat="44.00608" lon="5.90804">
        <ele>641</ele>
        <time>2020-10-05T11:31:45.000Z</time>
      </trkpt>
      <trkpt lat="44.00607" lon="5.90803">
        <ele>641</ele>
        <time>2020-10-05T11:31:46.000Z</time>
      </trkpt>
      <trkpt lat="44.00606" lon="5.90803">
        <ele>641</ele>
        <time>2020-10-05T11:31:47.000Z</time>
      </trkpt>
      <trkpt lat="44.00605" lon="5.90803">
        <ele>641</ele>
        <time>2020-10-05T11:31:48.000Z</time>
      </trkpt>
      <trkpt lat="44.00604" lon="5.90802">
        <ele>641</ele>
        <time>2020-10-05T11:31:49.000Z</time>
      </trkpt>
      <trkpt lat="44.00603" lon="5.90802">
        <ele>642</ele>
        <time>2020-10-05T11:31:50.000Z</time>
      </trkpt>
      <trkpt lat="44.00603" lon="5.90802">
        <ele>642</ele>
        <time>2020-10-05T11:31:51.000Z</time>
      </trkpt>
      <trkpt lat="44.00602" lon="5.90801">
        <ele>642</ele>
        <time>2020-10-05T11:31:52.000Z</time>
      </trkpt>
      <trkpt lat="44.00601" lon="5.90801">
        <ele>642</ele>
        <time>2020-10-05T11:31:53.000Z</time>
      </trkpt>
      <trkpt lat="44.006" lon="5.908">
        <ele>642</ele>
        <time>2020-10-05T11:31:54.000Z</time>
      </trkpt>
      <trkpt lat="44.00599" lon="5.90799">
        <ele>642</ele>
        <time>2020-10-05T11:31:55.000Z</time>
      </trkpt>
      <trkpt lat="44.00598" lon="5.90799">
        <ele>642</ele>
        <time>2020-10-05T11:31:56.000Z</time>
      </trkpt>
      <trkpt lat="44.00598" lon="5.90799">
        <ele>642</ele>
        <time>2020-10-05T11:31:57.000Z</time>
      </trkpt>
      <trkpt lat="44.00596" lon="5.90799">
        <ele>642</ele>
        <time>2020-10-05T11:31:58.000Z</time>
      </trkpt>
      <trkpt lat="44.00595" lon="5.90798">
        <ele>643</ele>
        <time>2020-10-05T11:31:59.000Z</time>
      </trkpt>
      <trkpt lat="44.00595" lon="5.90798">
        <ele>643</ele>
        <time>2020-10-05T11:32:00.000Z</time>
      </trkpt>
      <trkpt lat="44.00594" lon="5.90798">
        <ele>643</ele>
        <time>2020-10-05T11:32:01.000Z</time>
      </trkpt>
      <trkpt lat="44.00593" lon="5.90797">
        <ele>643</ele>
        <time>2020-10-05T11:32:02.000Z</time>
      </trkpt>
      <trkpt lat="44.00592" lon="5.90797">
        <ele>643</ele>
        <time>2020-10-05T11:32:03.000Z</time>
      </trkpt>
      <trkpt lat="44.00592" lon="5.90796">
        <ele>643</ele>
        <time>2020-10-05T11:32:04.000Z</time>
      </trkpt>
      <trkpt lat="44.00591" lon="5.90796">
        <ele>643</ele>
        <time>2020-10-05T11:32:05.000Z</time>
      </trkpt>
      <trkpt lat="44.0059" lon="5.90796">
        <ele>643</ele>
        <time>2020-10-05T11:32:06.000Z</time>
      </trkpt>
      <trkpt lat="44.0059" lon="5.90796">
        <ele>643</ele>
        <time>2020-10-05T11:32:07.000Z</time>
      </trkpt>
      <trkpt lat="44.00589" lon="5.90795">
        <ele>643</ele>
        <time>2020-10-05T11:32:08.000Z</time>
      </trkpt>
      <trkpt lat="44.00588" lon="5.90795">
        <ele>643</ele>
        <time>2020-10-05T11:32:09.000Z</time>
      </trkpt>
      <trkpt lat="44.00587" lon="5.90795">
        <ele>643</ele>
        <time>2020-10-05T11:32:10.000Z</time>
      </trkpt>
      <trkpt lat="44.00587" lon="5.90795">
        <ele>643</ele>
        <time>2020-10-05T11:32:11.000Z</time>
      </trkpt>
      <trkpt lat="44.00586" lon="5.90795">
        <ele>643</ele>
        <time>2020-10-05T11:32:12.000Z</time>
      </trkpt>
      <trkpt lat="44.00586" lon="5.90795">
        <ele>643</ele>
        <time>2020-10-05T11:32:13.000Z</time>
      </trkpt>
      <trkpt lat="44.00585" lon="5.90795">
        <ele>644</ele>
        <time>2020-10-05T11:32:14.000Z</time>
      </trkpt>
      <trkpt lat="44.00584" lon="5.90795">
        <ele>644</ele>
        <time>2020-10-05T11:32:15.000Z</time>
      </trkpt>
      <trkpt lat="44.00583" lon="5.90795">
        <ele>644</ele>
        <time>2020-10-05T11:32:16.000Z</time>
      </trkpt>
      <trkpt lat="44.00583" lon="5.90795">
        <ele>644</ele>
        <time>2020-10-05T11:32:17.000Z</time>
      </trkpt>
      <trkpt lat="44.00582" lon="5.90795">
        <ele>644</ele>
        <time>2020-10-05T11:32:18.000Z</time>
      </trkpt>
      <trkpt lat="44.00581" lon="5.90794">
        <ele>644</ele>
        <time>2020-10-05T11:32:19.000Z</time>
      </trkpt>
      <trkpt lat="44.0058" lon="5.90794">
        <ele>644</ele>
        <time>2020-10-05T11:32:20.000Z</time>
      </trkpt>
      <trkpt lat="44.00579" lon="5.90793">
        <ele>644</ele>
        <time>2020-10-05T11:32:21.000Z</time>
      </trkpt>
      <trkpt lat="44.00578" lon="5.90793">
        <ele>644</ele>
        <time>2020-10-05T11:32:22.000Z</time>
      </trkpt>
      <trkpt lat="44.00577" lon="5.90792">
        <ele>644</ele>
        <time>2020-10-05T11:32:23.000Z</time>
      </trkpt>
      <trkpt lat="44.00576" lon="5.90792">
        <ele>644</ele>
        <time>2020-10-05T11:32:24.000Z</time>
      </trkpt>
      <trkpt lat="44.00576" lon="5.90792">
        <ele>644</ele>
        <time>2020-10-05T11:32:25.000Z</time>
      </trkpt>
      <trkpt lat="44.00575" lon="5.90792">
        <ele>645</ele>
        <time>2020-10-05T11:32:26.000Z</time>
      </trkpt>
      <trkpt lat="44.00574" lon="5.90792">
        <ele>645</ele>
        <time>2020-10-05T11:32:27.000Z</time>
      </trkpt>
      <trkpt lat="44.00573" lon="5.90792">
        <ele>645</ele>
        <time>2020-10-05T11:32:28.000Z</time>
      </trkpt>
      <trkpt lat="44.00572" lon="5.90792">
        <ele>645</ele>
        <time>2020-10-05T11:32:29.000Z</time>
      </trkpt>
      <trkpt lat="44.00571" lon="5.90792">
        <ele>645</ele>
        <time>2020-10-05T11:32:30.000Z</time>
      </trkpt>
      <trkpt lat="44.0057" lon="5.90792">
        <ele>645</ele>
        <time>2020-10-05T11:32:31.000Z</time>
      </trkpt>
      <trkpt lat="44.0057" lon="5.90791">
        <ele>646</ele>
        <time>2020-10-05T11:32:32.000Z</time>
      </trkpt>
      <trkpt lat="44.00569" lon="5.90791">
        <ele>646</ele>
        <time>2020-10-05T11:32:33.000Z</time>
      </trkpt>
      <trkpt lat="44.00568" lon="5.90791">
        <ele>646</ele>
        <time>2020-10-05T11:32:34.000Z</time>
      </trkpt>
      <trkpt lat="44.00568" lon="5.90791">
        <ele>646</ele>
        <time>2020-10-05T11:32:35.000Z</time>
      </trkpt>
      <trkpt lat="44.00567" lon="5.90791">
        <ele>646</ele>
        <time>2020-10-05T11:32:36.000Z</time>
      </trkpt>
      <trkpt lat="44.00567" lon="5.90791">
        <ele>646</ele>
        <time>2020-10-05T11:32:37.000Z</time>
      </trkpt>
      <trkpt lat="44.00566" lon="5.90791">
        <ele>646</ele>
        <time>2020-10-05T11:32:38.000Z</time>
      </trkpt>
      <trkpt lat="44.00565" lon="5.9079">
        <ele>647</ele>
        <time>2020-10-05T11:32:39.000Z</time>
      </trkpt>
      <trkpt lat="44.00564" lon="5.9079">
        <ele>647</ele>
        <time>2020-10-05T11:32:40.000Z</time>
      </trkpt>
      <trkpt lat="44.00563" lon="5.9079">
        <ele>647</ele>
        <time>2020-10-05T11:32:41.000Z</time>
      </trkpt>
      <trkpt lat="44.00563" lon="5.9079">
        <ele>647</ele>
        <time>2020-10-05T11:32:42.000Z</time>
      </trkpt>
      <trkpt lat="44.00562" lon="5.90789">
        <ele>647</ele>
        <time>2020-10-05T11:32:43.000Z</time>
      </trkpt>
      <trkpt lat="44.00561" lon="5.90789">
        <ele>647</ele>
        <time>2020-10-05T11:32:44.000Z</time>
      </trkpt>
      <trkpt lat="44.0056" lon="5.90789">
        <ele>647</ele>
        <time>2020-10-05T11:32:45.000Z</time>
      </trkpt>
      <trkpt lat="44.00559" lon="5.90789">
        <ele>648</ele>
        <time>2020-10-05T11:32:46.000Z</time>
      </trkpt>
      <trkpt lat="44.00559" lon="5.90789">
        <ele>648</ele>
        <time>2020-10-05T11:32:47.000Z</time>
      </trkpt>
      <trkpt lat="44.00558" lon="5.90789">
        <ele>648</ele>
        <time>2020-10-05T11:32:48.000Z</time>
      </trkpt>
      <trkpt lat="44.00557" lon="5.90789">
        <ele>648</ele>
        <time>2020-10-05T11:32:49.000Z</time>
      </trkpt>
      <trkpt lat="44.00556" lon="5.90789">
        <ele>648</ele>
        <time>2020-10-05T11:32:50.000Z</time>
      </trkpt>
      <trkpt lat="44.00556" lon="5.90789">
        <ele>648</ele>
        <time>2020-10-05T11:32:51.000Z</time>
      </trkpt>
      <trkpt lat="44.00555" lon="5.90788">
        <ele>649</ele>
        <time>2020-10-05T11:32:52.000Z</time>
      </trkpt>
      <trkpt lat="44.00554" lon="5.90789">
        <ele>649</ele>
        <time>2020-10-05T11:32:53.000Z</time>
      </trkpt>
      <trkpt lat="44.00553" lon="5.90789">
        <ele>649</ele>
        <time>2020-10-05T11:32:54.000Z</time>
      </trkpt>
      <trkpt lat="44.00553" lon="5.90789">
        <ele>649</ele>
        <time>2020-10-05T11:32:55.000Z</time>
      </trkpt>
      <trkpt lat="44.00552" lon="5.9079">
        <ele>649</ele>
        <time>2020-10-05T11:32:56.000Z</time>
      </trkpt>
      <trkpt lat="44.00552" lon="5.9079">
        <ele>649</ele>
        <time>2020-10-05T11:32:57.000Z</time>
      </trkpt>
      <trkpt lat="44.00551" lon="5.9079">
        <ele>649</ele>
        <time>2020-10-05T11:32:58.000Z</time>
      </trkpt>
      <trkpt lat="44.0055" lon="5.9079">
        <ele>649</ele>
        <time>2020-10-05T11:32:59.000Z</time>
      </trkpt>
      <trkpt lat="44.00549" lon="5.9079">
        <ele>649</ele>
        <time>2020-10-05T11:33:00.000Z</time>
      </trkpt>
      <trkpt lat="44.00549" lon="5.90791">
        <ele>649</ele>
        <time>2020-10-05T11:33:01.000Z</time>
      </trkpt>
      <trkpt lat="44.00548" lon="5.90791">
        <ele>649</ele>
        <time>2020-10-05T11:33:02.000Z</time>
      </trkpt>
      <trkpt lat="44.00547" lon="5.90791">
        <ele>649</ele>
        <time>2020-10-05T11:33:03.000Z</time>
      </trkpt>
      <trkpt lat="44.00546" lon="5.90791">
        <ele>650</ele>
        <time>2020-10-05T11:33:04.000Z</time>
      </trkpt>
      <trkpt lat="44.00546" lon="5.90791">
        <ele>650</ele>
        <time>2020-10-05T11:33:05.000Z</time>
      </trkpt>
      <trkpt lat="44.00545" lon="5.90791">
        <ele>650</ele>
        <time>2020-10-05T11:33:06.000Z</time>
      </trkpt>
      <trkpt lat="44.00545" lon="5.90791">
        <ele>650</ele>
        <time>2020-10-05T11:33:07.000Z</time>
      </trkpt>
      <trkpt lat="44.00544" lon="5.90791">
        <ele>650</ele>
        <time>2020-10-05T11:33:08.000Z</time>
      </trkpt>
      <trkpt lat="44.00543" lon="5.90791">
        <ele>650</ele>
        <time>2020-10-05T11:33:09.000Z</time>
      </trkpt>
      <trkpt lat="44.00542" lon="5.90791">
        <ele>650</ele>
        <time>2020-10-05T11:33:10.000Z</time>
      </trkpt>
      <trkpt lat="44.00542" lon="5.90791">
        <ele>650</ele>
        <time>2020-10-05T11:33:11.000Z</time>
      </trkpt>
      <trkpt lat="44.00541" lon="5.90791">
        <ele>650</ele>
        <time>2020-10-05T11:33:12.000Z</time>
      </trkpt>
      <trkpt lat="44.0054" lon="5.90791">
        <ele>650</ele>
        <time>2020-10-05T11:33:13.000Z</time>
      </trkpt>
      <trkpt lat="44.00539" lon="5.9079">
        <ele>650</ele>
        <time>2020-10-05T11:33:14.000Z</time>
      </trkpt>
      <trkpt lat="44.00538" lon="5.9079">
        <ele>651</ele>
        <time>2020-10-05T11:33:15.000Z</time>
      </trkpt>
      <trkpt lat="44.00538" lon="5.9079">
        <ele>651</ele>
        <time>2020-10-05T11:33:16.000Z</time>
      </trkpt>
      <trkpt lat="44.00537" lon="5.9079">
        <ele>651</ele>
        <time>2020-10-05T11:33:17.000Z</time>
      </trkpt>
      <trkpt lat="44.00536" lon="5.9079">
        <ele>651</ele>
        <time>2020-10-05T11:33:18.000Z</time>
      </trkpt>
      <trkpt lat="44.00535" lon="5.90789">
        <ele>651</ele>
        <time>2020-10-05T11:33:19.000Z</time>
      </trkpt>
      <trkpt lat="44.00534" lon="5.90789">
        <ele>651</ele>
        <time>2020-10-05T11:33:20.000Z</time>
      </trkpt>
      <trkpt lat="44.00534" lon="5.90789">
        <ele>651</ele>
        <time>2020-10-05T11:33:21.000Z</time>
      </trkpt>
      <trkpt lat="44.00533" lon="5.90789">
        <ele>651</ele>
        <time>2020-10-05T11:33:22.000Z</time>
      </trkpt>
      <trkpt lat="44.00532" lon="5.90789">
        <ele>651</ele>
        <time>2020-10-05T11:33:23.000Z</time>
      </trkpt>
      <trkpt lat="44.00531" lon="5.90788">
        <ele>652</ele>
        <time>2020-10-05T11:33:24.000Z</time>
      </trkpt>
      <trkpt lat="44.0053" lon="5.90788">
        <ele>652</ele>
        <time>2020-10-05T11:33:25.000Z</time>
      </trkpt>
      <trkpt lat="44.0053" lon="5.90788">
        <ele>652</ele>
        <time>2020-10-05T11:33:26.000Z</time>
      </trkpt>
      <trkpt lat="44.00529" lon="5.90788">
        <ele>652</ele>
        <time>2020-10-05T11:33:27.000Z</time>
      </trkpt>
      <trkpt lat="44.00528" lon="5.90788">
        <ele>652</ele>
        <time>2020-10-05T11:33:28.000Z</time>
      </trkpt>
      <trkpt lat="44.00527" lon="5.90788">
        <ele>652</ele>
        <time>2020-10-05T11:33:29.000Z</time>
      </trkpt>
      <trkpt lat="44.00526" lon="5.90787">
        <ele>652</ele>
        <time>2020-10-05T11:33:30.000Z</time>
      </trkpt>
      <trkpt lat="44.00526" lon="5.90787">
        <ele>652</ele>
        <time>2020-10-05T11:33:31.000Z</time>
      </trkpt>
      <trkpt lat="44.00525" lon="5.90787">
        <ele>652</ele>
        <time>2020-10-05T11:33:32.000Z</time>
      </trkpt>
      <trkpt lat="44.00524" lon="5.90787">
        <ele>652</ele>
        <time>2020-10-05T11:33:33.000Z</time>
      </trkpt>
      <trkpt lat="44.00523" lon="5.90787">
        <ele>653</ele>
        <time>2020-10-05T11:33:34.000Z</time>
      </trkpt>
      <trkpt lat="44.00522" lon="5.90787">
        <ele>653</ele>
        <time>2020-10-05T11:33:35.000Z</time>
      </trkpt>
      <trkpt lat="44.00522" lon="5.90787">
        <ele>653</ele>
        <time>2020-10-05T11:33:36.000Z</time>
      </trkpt>
      <trkpt lat="44.00521" lon="5.90787">
        <ele>653</ele>
        <time>2020-10-05T11:33:37.000Z</time>
      </trkpt>
      <trkpt lat="44.00521" lon="5.90787">
        <ele>653</ele>
        <time>2020-10-05T11:33:38.000Z</time>
      </trkpt>
      <trkpt lat="44.0052" lon="5.90787">
        <ele>653</ele>
        <time>2020-10-05T11:33:39.000Z</time>
      </trkpt>
      <trkpt lat="44.00519" lon="5.90787">
        <ele>654</ele>
        <time>2020-10-05T11:33:40.000Z</time>
      </trkpt>
      <trkpt lat="44.00518" lon="5.90787">
        <ele>654</ele>
        <time>2020-10-05T11:33:41.000Z</time>
      </trkpt>
      <trkpt lat="44.00517" lon="5.90787">
        <ele>654</ele>
        <time>2020-10-05T11:33:42.000Z</time>
      </trkpt>
      <trkpt lat="44.00516" lon="5.90786">
        <ele>654</ele>
        <time>2020-10-05T11:33:43.000Z</time>
      </trkpt>
      <trkpt lat="44.00515" lon="5.90786">
        <ele>654</ele>
        <time>2020-10-05T11:33:44.000Z</time>
      </trkpt>
      <trkpt lat="44.00515" lon="5.90786">
        <ele>655</ele>
        <time>2020-10-05T11:33:45.000Z</time>
      </trkpt>
      <trkpt lat="44.00514" lon="5.90786">
        <ele>655</ele>
        <time>2020-10-05T11:33:46.000Z</time>
      </trkpt>
      <trkpt lat="44.00513" lon="5.90786">
        <ele>655</ele>
        <time>2020-10-05T11:33:47.000Z</time>
      </trkpt>
      <trkpt lat="44.00513" lon="5.90786">
        <ele>655</ele>
        <time>2020-10-05T11:33:48.000Z</time>
      </trkpt>
      <trkpt lat="44.00512" lon="5.90786">
        <ele>655</ele>
        <time>2020-10-05T11:33:49.000Z</time>
      </trkpt>
      <trkpt lat="44.00511" lon="5.90786">
        <ele>655</ele>
        <time>2020-10-05T11:33:50.000Z</time>
      </trkpt>
      <trkpt lat="44.00511" lon="5.90786">
        <ele>656</ele>
        <time>2020-10-05T11:33:51.000Z</time>
      </trkpt>
      <trkpt lat="44.0051" lon="5.90786">
        <ele>656</ele>
        <time>2020-10-05T11:33:52.000Z</time>
      </trkpt>
      <trkpt lat="44.00509" lon="5.90786">
        <ele>656</ele>
        <time>2020-10-05T11:33:53.000Z</time>
      </trkpt>
      <trkpt lat="44.00508" lon="5.90786">
        <ele>656</ele>
        <time>2020-10-05T11:33:54.000Z</time>
      </trkpt>
      <trkpt lat="44.00507" lon="5.90786">
        <ele>656</ele>
        <time>2020-10-05T11:33:55.000Z</time>
      </trkpt>
      <trkpt lat="44.00507" lon="5.90786">
        <ele>656</ele>
        <time>2020-10-05T11:33:56.000Z</time>
      </trkpt>
      <trkpt lat="44.00506" lon="5.90786">
        <ele>657</ele>
        <time>2020-10-05T11:33:57.000Z</time>
      </trkpt>
      <trkpt lat="44.00505" lon="5.90786">
        <ele>657</ele>
        <time>2020-10-05T11:33:58.000Z</time>
      </trkpt>
      <trkpt lat="44.00504" lon="5.90786">
        <ele>657</ele>
        <time>2020-10-05T11:33:59.000Z</time>
      </trkpt>
      <trkpt lat="44.00503" lon="5.90786">
        <ele>657</ele>
        <time>2020-10-05T11:34:00.000Z</time>
      </trkpt>
      <trkpt lat="44.00502" lon="5.90786">
        <ele>657</ele>
        <time>2020-10-05T11:34:01.000Z</time>
      </trkpt>
      <trkpt lat="44.00501" lon="5.90786">
        <ele>657</ele>
        <time>2020-10-05T11:34:02.000Z</time>
      </trkpt>
      <trkpt lat="44.005" lon="5.90786">
        <ele>658</ele>
        <time>2020-10-05T11:34:03.000Z</time>
      </trkpt>
      <trkpt lat="44.00499" lon="5.90786">
        <ele>658</ele>
        <time>2020-10-05T11:34:04.000Z</time>
      </trkpt>
      <trkpt lat="44.00498" lon="5.90786">
        <ele>658</ele>
        <time>2020-10-05T11:34:05.000Z</time>
      </trkpt>
      <trkpt lat="44.00498" lon="5.90785">
        <ele>658</ele>
        <time>2020-10-05T11:34:06.000Z</time>
      </trkpt>
      <trkpt lat="44.00497" lon="5.90785">
        <ele>658</ele>
        <time>2020-10-05T11:34:07.000Z</time>
      </trkpt>
      <trkpt lat="44.00496" lon="5.90785">
        <ele>658</ele>
        <time>2020-10-05T11:34:08.000Z</time>
      </trkpt>
      <trkpt lat="44.00496" lon="5.90785">
        <ele>658</ele>
        <time>2020-10-05T11:34:09.000Z</time>
      </trkpt>
      <trkpt lat="44.00495" lon="5.90785">
        <ele>658</ele>
        <time>2020-10-05T11:34:10.000Z</time>
      </trkpt>
      <trkpt lat="44.00494" lon="5.90785">
        <ele>658</ele>
        <time>2020-10-05T11:34:11.000Z</time>
      </trkpt>
      <trkpt lat="44.00493" lon="5.90785">
        <ele>658</ele>
        <time>2020-10-05T11:34:12.000Z</time>
      </trkpt>
      <trkpt lat="44.00493" lon="5.90785">
        <ele>658</ele>
        <time>2020-10-05T11:34:13.000Z</time>
      </trkpt>
      <trkpt lat="44.00492" lon="5.90785">
        <ele>658</ele>
        <time>2020-10-05T11:34:14.000Z</time>
      </trkpt>
      <trkpt lat="44.00491" lon="5.90784">
        <ele>658</ele>
        <time>2020-10-05T11:34:15.000Z</time>
      </trkpt>
      <trkpt lat="44.0049" lon="5.90784">
        <ele>658</ele>
        <time>2020-10-05T11:34:16.000Z</time>
      </trkpt>
      <trkpt lat="44.0049" lon="5.90783">
        <ele>659</ele>
        <time>2020-10-05T11:34:17.000Z</time>
      </trkpt>
      <trkpt lat="44.00489" lon="5.90783">
        <ele>659</ele>
        <time>2020-10-05T11:34:18.000Z</time>
      </trkpt>
      <trkpt lat="44.00488" lon="5.90783">
        <ele>659</ele>
        <time>2020-10-05T11:34:19.000Z</time>
      </trkpt>
      <trkpt lat="44.00487" lon="5.90782">
        <ele>659</ele>
        <time>2020-10-05T11:34:20.000Z</time>
      </trkpt>
      <trkpt lat="44.00487" lon="5.90782">
        <ele>659</ele>
        <time>2020-10-05T11:34:21.000Z</time>
      </trkpt>
      <trkpt lat="44.00486" lon="5.90782">
        <ele>659</ele>
        <time>2020-10-05T11:34:22.000Z</time>
      </trkpt>
      <trkpt lat="44.00485" lon="5.90782">
        <ele>659</ele>
        <time>2020-10-05T11:34:23.000Z</time>
      </trkpt>
      <trkpt lat="44.00484" lon="5.90781">
        <ele>659</ele>
        <time>2020-10-05T11:34:24.000Z</time>
      </trkpt>
      <trkpt lat="44.00483" lon="5.90781">
        <ele>659</ele>
        <time>2020-10-05T11:34:25.000Z</time>
      </trkpt>
      <trkpt lat="44.00482" lon="5.90781">
        <ele>659</ele>
        <time>2020-10-05T11:34:26.000Z</time>
      </trkpt>
      <trkpt lat="44.00481" lon="5.9078">
        <ele>659</ele>
        <time>2020-10-05T11:34:27.000Z</time>
      </trkpt>
      <trkpt lat="44.0048" lon="5.9078">
        <ele>660</ele>
        <time>2020-10-05T11:34:28.000Z</time>
      </trkpt>
      <trkpt lat="44.0048" lon="5.9078">
        <ele>660</ele>
        <time>2020-10-05T11:34:29.000Z</time>
      </trkpt>
      <trkpt lat="44.00479" lon="5.90779">
        <ele>660</ele>
        <time>2020-10-05T11:34:30.000Z</time>
      </trkpt>
      <trkpt lat="44.00478" lon="5.90779">
        <ele>660</ele>
        <time>2020-10-05T11:34:31.000Z</time>
      </trkpt>
      <trkpt lat="44.00477" lon="5.90779">
        <ele>660</ele>
        <time>2020-10-05T11:34:32.000Z</time>
      </trkpt>
      <trkpt lat="44.00476" lon="5.90778">
        <ele>660</ele>
        <time>2020-10-05T11:34:33.000Z</time>
      </trkpt>
      <trkpt lat="44.00475" lon="5.90777">
        <ele>660</ele>
        <time>2020-10-05T11:34:34.000Z</time>
      </trkpt>
      <trkpt lat="44.00475" lon="5.90777">
        <ele>660</ele>
        <time>2020-10-05T11:34:35.000Z</time>
      </trkpt>
      <trkpt lat="44.00474" lon="5.90776">
        <ele>660</ele>
        <time>2020-10-05T11:34:36.000Z</time>
      </trkpt>
      <trkpt lat="44.00474" lon="5.90776">
        <ele>660</ele>
        <time>2020-10-05T11:34:37.000Z</time>
      </trkpt>
      <trkpt lat="44.00474" lon="5.90776">
        <ele>660</ele>
        <time>2020-10-05T11:34:38.000Z</time>
      </trkpt>
      <trkpt lat="44.00473" lon="5.90776">
        <ele>660</ele>
        <time>2020-10-05T11:34:39.000Z</time>
      </trkpt>
      <trkpt lat="44.00473" lon="5.90776">
        <ele>660</ele>
        <time>2020-10-05T11:34:40.000Z</time>
      </trkpt>
      <trkpt lat="44.00473" lon="5.90776">
        <ele>660</ele>
        <time>2020-10-05T11:34:41.000Z</time>
      </trkpt>
      <trkpt lat="44.00473" lon="5.90776">
        <ele>661</ele>
        <time>2020-10-05T11:34:42.000Z</time>
      </trkpt>
      <trkpt lat="44.00473" lon="5.90776">
        <ele>661</ele>
        <time>2020-10-05T11:34:43.000Z</time>
      </trkpt>
      <trkpt lat="44.00473" lon="5.90776">
        <ele>661</ele>
        <time>2020-10-05T11:34:44.000Z</time>
      </trkpt>
      <trkpt lat="44.00473" lon="5.90776">
        <ele>661</ele>
        <time>2020-10-05T11:34:45.000Z</time>
      </trkpt>
      <trkpt lat="44.00473" lon="5.90776">
        <ele>661</ele>
        <time>2020-10-05T11:34:46.000Z</time>
      </trkpt>
      <trkpt lat="44.00473" lon="5.90775">
        <ele>661</ele>
        <time>2020-10-05T11:34:47.000Z</time>
      </trkpt>
      <trkpt lat="44.00472" lon="5.90775">
        <ele>661</ele>
        <time>2020-10-05T11:34:48.000Z</time>
      </trkpt>
      <trkpt lat="44.00471" lon="5.90775">
        <ele>661</ele>
        <time>2020-10-05T11:34:49.000Z</time>
      </trkpt>
      <trkpt lat="44.00471" lon="5.90774">
        <ele>661</ele>
        <time>2020-10-05T11:34:50.000Z</time>
      </trkpt>
      <trkpt lat="44.0047" lon="5.90774">
        <ele>661</ele>
        <time>2020-10-05T11:34:51.000Z</time>
      </trkpt>
      <trkpt lat="44.00469" lon="5.90774">
        <ele>661</ele>
        <time>2020-10-05T11:34:52.000Z</time>
      </trkpt>
      <trkpt lat="44.00468" lon="5.90773">
        <ele>661</ele>
        <time>2020-10-05T11:34:53.000Z</time>
      </trkpt>
      <trkpt lat="44.00467" lon="5.90773">
        <ele>661</ele>
        <time>2020-10-05T11:34:54.000Z</time>
      </trkpt>
      <trkpt lat="44.00466" lon="5.90773">
        <ele>661</ele>
        <time>2020-10-05T11:34:55.000Z</time>
      </trkpt>
      <trkpt lat="44.00466" lon="5.90773">
        <ele>661</ele>
        <time>2020-10-05T11:34:56.000Z</time>
      </trkpt>
      <trkpt lat="44.00465" lon="5.90773">
        <ele>662</ele>
        <time>2020-10-05T11:34:57.000Z</time>
      </trkpt>
      <trkpt lat="44.00464" lon="5.90773">
        <ele>662</ele>
        <time>2020-10-05T11:34:58.000Z</time>
      </trkpt>
      <trkpt lat="44.00463" lon="5.90772">
        <ele>662</ele>
        <time>2020-10-05T11:34:59.000Z</time>
      </trkpt>
      <trkpt lat="44.00462" lon="5.90772">
        <ele>662</ele>
        <time>2020-10-05T11:35:00.000Z</time>
      </trkpt>
      <trkpt lat="44.00462" lon="5.90772">
        <ele>662</ele>
        <time>2020-10-05T11:35:01.000Z</time>
      </trkpt>
      <trkpt lat="44.00461" lon="5.90772">
        <ele>662</ele>
        <time>2020-10-05T11:35:02.000Z</time>
      </trkpt>
      <trkpt lat="44.0046" lon="5.90772">
        <ele>662</ele>
        <time>2020-10-05T11:35:03.000Z</time>
      </trkpt>
      <trkpt lat="44.00459" lon="5.90771">
        <ele>662</ele>
        <time>2020-10-05T11:35:04.000Z</time>
      </trkpt>
      <trkpt lat="44.00459" lon="5.90771">
        <ele>662</ele>
        <time>2020-10-05T11:35:05.000Z</time>
      </trkpt>
      <trkpt lat="44.00458" lon="5.90771">
        <ele>662</ele>
        <time>2020-10-05T11:35:06.000Z</time>
      </trkpt>
      <trkpt lat="44.00457" lon="5.90771">
        <ele>663</ele>
        <time>2020-10-05T11:35:07.000Z</time>
      </trkpt>
      <trkpt lat="44.00457" lon="5.90771">
        <ele>663</ele>
        <time>2020-10-05T11:35:08.000Z</time>
      </trkpt>
      <trkpt lat="44.00456" lon="5.90771">
        <ele>663</ele>
        <time>2020-10-05T11:35:09.000Z</time>
      </trkpt>
      <trkpt lat="44.00455" lon="5.90771">
        <ele>663</ele>
        <time>2020-10-05T11:35:10.000Z</time>
      </trkpt>
      <trkpt lat="44.00454" lon="5.9077">
        <ele>663</ele>
        <time>2020-10-05T11:35:11.000Z</time>
      </trkpt>
      <trkpt lat="44.00453" lon="5.9077">
        <ele>663</ele>
        <time>2020-10-05T11:35:12.000Z</time>
      </trkpt>
      <trkpt lat="44.00452" lon="5.90769">
        <ele>663</ele>
        <time>2020-10-05T11:35:13.000Z</time>
      </trkpt>
      <trkpt lat="44.00451" lon="5.9077">
        <ele>663</ele>
        <time>2020-10-05T11:35:14.000Z</time>
      </trkpt>
      <trkpt lat="44.0045" lon="5.9077">
        <ele>663</ele>
        <time>2020-10-05T11:35:15.000Z</time>
      </trkpt>
      <trkpt lat="44.0045" lon="5.9077">
        <ele>663</ele>
        <time>2020-10-05T11:35:16.000Z</time>
      </trkpt>
      <trkpt lat="44.00449" lon="5.9077">
        <ele>664</ele>
        <time>2020-10-05T11:35:17.000Z</time>
      </trkpt>
      <trkpt lat="44.00448" lon="5.9077">
        <ele>664</ele>
        <time>2020-10-05T11:35:18.000Z</time>
      </trkpt>
      <trkpt lat="44.00447" lon="5.9077">
        <ele>664</ele>
        <time>2020-10-05T11:35:19.000Z</time>
      </trkpt>
      <trkpt lat="44.00446" lon="5.9077">
        <ele>664</ele>
        <time>2020-10-05T11:35:20.000Z</time>
      </trkpt>
      <trkpt lat="44.00445" lon="5.90771">
        <ele>664</ele>
        <time>2020-10-05T11:35:21.000Z</time>
      </trkpt>
      <trkpt lat="44.00444" lon="5.9077">
        <ele>664</ele>
        <time>2020-10-05T11:35:22.000Z</time>
      </trkpt>
      <trkpt lat="44.00443" lon="5.9077">
        <ele>664</ele>
        <time>2020-10-05T11:35:23.000Z</time>
      </trkpt>
      <trkpt lat="44.00442" lon="5.9077">
        <ele>664</ele>
        <time>2020-10-05T11:35:24.000Z</time>
      </trkpt>
      <trkpt lat="44.00441" lon="5.9077">
        <ele>665</ele>
        <time>2020-10-05T11:35:25.000Z</time>
      </trkpt>
      <trkpt lat="44.0044" lon="5.9077">
        <ele>665</ele>
        <time>2020-10-05T11:35:26.000Z</time>
      </trkpt>
      <trkpt lat="44.00439" lon="5.9077">
        <ele>665</ele>
        <time>2020-10-05T11:35:27.000Z</time>
      </trkpt>
      <trkpt lat="44.00438" lon="5.9077">
        <ele>665</ele>
        <time>2020-10-05T11:35:28.000Z</time>
      </trkpt>
      <trkpt lat="44.00438" lon="5.9077">
        <ele>665</ele>
        <time>2020-10-05T11:35:29.000Z</time>
      </trkpt>
      <trkpt lat="44.00437" lon="5.9077">
        <ele>665</ele>
        <time>2020-10-05T11:35:30.000Z</time>
      </trkpt>
      <trkpt lat="44.00436" lon="5.9077">
        <ele>666</ele>
        <time>2020-10-05T11:35:31.000Z</time>
      </trkpt>
      <trkpt lat="44.00436" lon="5.9077">
        <ele>666</ele>
        <time>2020-10-05T11:35:32.000Z</time>
      </trkpt>
      <trkpt lat="44.00435" lon="5.9077">
        <ele>666</ele>
        <time>2020-10-05T11:35:33.000Z</time>
      </trkpt>
      <trkpt lat="44.00435" lon="5.9077">
        <ele>666</ele>
        <time>2020-10-05T11:35:34.000Z</time>
      </trkpt>
      <trkpt lat="44.00434" lon="5.9077">
        <ele>666</ele>
        <time>2020-10-05T11:35:35.000Z</time>
      </trkpt>
      <trkpt lat="44.00433" lon="5.9077">
        <ele>666</ele>
        <time>2020-10-05T11:35:36.000Z</time>
      </trkpt>
      <trkpt lat="44.00432" lon="5.90771">
        <ele>666</ele>
        <time>2020-10-05T11:35:37.000Z</time>
      </trkpt>
      <trkpt lat="44.00432" lon="5.90771">
        <ele>666</ele>
        <time>2020-10-05T11:35:38.000Z</time>
      </trkpt>
      <trkpt lat="44.00431" lon="5.9077">
        <ele>666</ele>
        <time>2020-10-05T11:35:39.000Z</time>
      </trkpt>
      <trkpt lat="44.0043" lon="5.9077">
        <ele>667</ele>
        <time>2020-10-05T11:35:40.000Z</time>
      </trkpt>
      <trkpt lat="44.0043" lon="5.9077">
        <ele>667</ele>
        <time>2020-10-05T11:35:41.000Z</time>
      </trkpt>
      <trkpt lat="44.00429" lon="5.9077">
        <ele>667</ele>
        <time>2020-10-05T11:35:42.000Z</time>
      </trkpt>
      <trkpt lat="44.00428" lon="5.90769">
        <ele>667</ele>
        <time>2020-10-05T11:35:43.000Z</time>
      </trkpt>
      <trkpt lat="44.00428" lon="5.90769">
        <ele>667</ele>
        <time>2020-10-05T11:35:44.000Z</time>
      </trkpt>
      <trkpt lat="44.00427" lon="5.90769">
        <ele>667</ele>
        <time>2020-10-05T11:35:45.000Z</time>
      </trkpt>
      <trkpt lat="44.00426" lon="5.90769">
        <ele>667</ele>
        <time>2020-10-05T11:35:46.000Z</time>
      </trkpt>
      <trkpt lat="44.00425" lon="5.90768">
        <ele>667</ele>
        <time>2020-10-05T11:35:47.000Z</time>
      </trkpt>
      <trkpt lat="44.00424" lon="5.90768">
        <ele>667</ele>
        <time>2020-10-05T11:35:48.000Z</time>
      </trkpt>
      <trkpt lat="44.00423" lon="5.90768">
        <ele>667</ele>
        <time>2020-10-05T11:35:49.000Z</time>
      </trkpt>
      <trkpt lat="44.00422" lon="5.90767">
        <ele>667</ele>
        <time>2020-10-05T11:35:50.000Z</time>
      </trkpt>
      <trkpt lat="44.00421" lon="5.90767">
        <ele>667</ele>
        <time>2020-10-05T11:35:51.000Z</time>
      </trkpt>
      <trkpt lat="44.0042" lon="5.90767">
        <ele>667</ele>
        <time>2020-10-05T11:35:52.000Z</time>
      </trkpt>
      <trkpt lat="44.00419" lon="5.90766">
        <ele>668</ele>
        <time>2020-10-05T11:35:53.000Z</time>
      </trkpt>
      <trkpt lat="44.00418" lon="5.90766">
        <ele>668</ele>
        <time>2020-10-05T11:35:54.000Z</time>
      </trkpt>
      <trkpt lat="44.00417" lon="5.90765">
        <ele>668</ele>
        <time>2020-10-05T11:35:55.000Z</time>
      </trkpt>
      <trkpt lat="44.00416" lon="5.90765">
        <ele>668</ele>
        <time>2020-10-05T11:35:56.000Z</time>
      </trkpt>
      <trkpt lat="44.00415" lon="5.90765">
        <ele>669</ele>
        <time>2020-10-05T11:35:57.000Z</time>
      </trkpt>
      <trkpt lat="44.00414" lon="5.90764">
        <ele>669</ele>
        <time>2020-10-05T11:35:58.000Z</time>
      </trkpt>
      <trkpt lat="44.00413" lon="5.90763">
        <ele>669</ele>
        <time>2020-10-05T11:35:59.000Z</time>
      </trkpt>
      <trkpt lat="44.00412" lon="5.90763">
        <ele>669</ele>
        <time>2020-10-05T11:36:00.000Z</time>
      </trkpt>
      <trkpt lat="44.00412" lon="5.90763">
        <ele>669</ele>
        <time>2020-10-05T11:36:01.000Z</time>
      </trkpt>
      <trkpt lat="44.00411" lon="5.90763">
        <ele>670</ele>
        <time>2020-10-05T11:36:02.000Z</time>
      </trkpt>
      <trkpt lat="44.0041" lon="5.90763">
        <ele>670</ele>
        <time>2020-10-05T11:36:03.000Z</time>
      </trkpt>
      <trkpt lat="44.00409" lon="5.90762">
        <ele>670</ele>
        <time>2020-10-05T11:36:04.000Z</time>
      </trkpt>
      <trkpt lat="44.00408" lon="5.90761">
        <ele>670</ele>
        <time>2020-10-05T11:36:05.000Z</time>
      </trkpt>
      <trkpt lat="44.00407" lon="5.9076">
        <ele>670</ele>
        <time>2020-10-05T11:36:06.000Z</time>
      </trkpt>
      <trkpt lat="44.00406" lon="5.9076">
        <ele>671</ele>
        <time>2020-10-05T11:36:07.000Z</time>
      </trkpt>
      <trkpt lat="44.00405" lon="5.9076">
        <ele>671</ele>
        <time>2020-10-05T11:36:08.000Z</time>
      </trkpt>
      <trkpt lat="44.00404" lon="5.9076">
        <ele>671</ele>
        <time>2020-10-05T11:36:09.000Z</time>
      </trkpt>
      <trkpt lat="44.00404" lon="5.90759">
        <ele>671</ele>
        <time>2020-10-05T11:36:10.000Z</time>
      </trkpt>
      <trkpt lat="44.00403" lon="5.90759">
        <ele>671</ele>
        <time>2020-10-05T11:36:11.000Z</time>
      </trkpt>
      <trkpt lat="44.00403" lon="5.90759">
        <ele>671</ele>
        <time>2020-10-05T11:36:12.000Z</time>
      </trkpt>
      <trkpt lat="44.00402" lon="5.90759">
        <ele>671</ele>
        <time>2020-10-05T11:36:13.000Z</time>
      </trkpt>
      <trkpt lat="44.00401" lon="5.90759">
        <ele>671</ele>
        <time>2020-10-05T11:36:14.000Z</time>
      </trkpt>
      <trkpt lat="44.004" lon="5.90758">
        <ele>671</ele>
        <time>2020-10-05T11:36:15.000Z</time>
      </trkpt>
      <trkpt lat="44.00399" lon="5.90758">
        <ele>671</ele>
        <time>2020-10-05T11:36:16.000Z</time>
      </trkpt>
      <trkpt lat="44.00398" lon="5.90757">
        <ele>671</ele>
        <time>2020-10-05T11:36:17.000Z</time>
      </trkpt>
      <trkpt lat="44.00397" lon="5.90757">
        <ele>671</ele>
        <time>2020-10-05T11:36:18.000Z</time>
      </trkpt>
      <trkpt lat="44.00396" lon="5.90756">
        <ele>671</ele>
        <time>2020-10-05T11:36:19.000Z</time>
      </trkpt>
      <trkpt lat="44.00396" lon="5.90756">
        <ele>671</ele>
        <time>2020-10-05T11:36:20.000Z</time>
      </trkpt>
      <trkpt lat="44.00394" lon="5.90755">
        <ele>671</ele>
        <time>2020-10-05T11:36:21.000Z</time>
      </trkpt>
      <trkpt lat="44.00393" lon="5.90754">
        <ele>671</ele>
        <time>2020-10-05T11:36:22.000Z</time>
      </trkpt>
      <trkpt lat="44.00392" lon="5.90753">
        <ele>671</ele>
        <time>2020-10-05T11:36:23.000Z</time>
      </trkpt>
      <trkpt lat="44.00391" lon="5.90752">
        <ele>671</ele>
        <time>2020-10-05T11:36:24.000Z</time>
      </trkpt>
      <trkpt lat="44.0039" lon="5.90752">
        <ele>672</ele>
        <time>2020-10-05T11:36:25.000Z</time>
      </trkpt>
      <trkpt lat="44.0039" lon="5.90751">
        <ele>672</ele>
        <time>2020-10-05T11:36:26.000Z</time>
      </trkpt>
      <trkpt lat="44.00389" lon="5.9075">
        <ele>672</ele>
        <time>2020-10-05T11:36:27.000Z</time>
      </trkpt>
      <trkpt lat="44.00388" lon="5.9075">
        <ele>672</ele>
        <time>2020-10-05T11:36:28.000Z</time>
      </trkpt>
      <trkpt lat="44.00386" lon="5.90749">
        <ele>672</ele>
        <time>2020-10-05T11:36:29.000Z</time>
      </trkpt>
      <trkpt lat="44.00385" lon="5.90749">
        <ele>672</ele>
        <time>2020-10-05T11:36:30.000Z</time>
      </trkpt>
      <trkpt lat="44.00384" lon="5.90748">
        <ele>672</ele>
        <time>2020-10-05T11:36:31.000Z</time>
      </trkpt>
      <trkpt lat="44.00383" lon="5.90748">
        <ele>672</ele>
        <time>2020-10-05T11:36:32.000Z</time>
      </trkpt>
      <trkpt lat="44.00382" lon="5.90747">
        <ele>672</ele>
        <time>2020-10-05T11:36:33.000Z</time>
      </trkpt>
      <trkpt lat="44.00381" lon="5.90746">
        <ele>672</ele>
        <time>2020-10-05T11:36:34.000Z</time>
      </trkpt>
      <trkpt lat="44.00381" lon="5.90746">
        <ele>672</ele>
        <time>2020-10-05T11:36:35.000Z</time>
      </trkpt>
      <trkpt lat="44.00381" lon="5.90746">
        <ele>673</ele>
        <time>2020-10-05T11:36:36.000Z</time>
      </trkpt>
      <trkpt lat="44.0038" lon="5.90745">
        <ele>673</ele>
        <time>2020-10-05T11:36:37.000Z</time>
      </trkpt>
      <trkpt lat="44.0038" lon="5.90745">
        <ele>673</ele>
        <time>2020-10-05T11:36:38.000Z</time>
      </trkpt>
      <trkpt lat="44.00379" lon="5.90745">
        <ele>673</ele>
        <time>2020-10-05T11:36:39.000Z</time>
      </trkpt>
      <trkpt lat="44.00378" lon="5.90744">
        <ele>673</ele>
        <time>2020-10-05T11:36:40.000Z</time>
      </trkpt>
      <trkpt lat="44.00377" lon="5.90743">
        <ele>673</ele>
        <time>2020-10-05T11:36:41.000Z</time>
      </trkpt>
      <trkpt lat="44.00376" lon="5.90743">
        <ele>673</ele>
        <time>2020-10-05T11:36:42.000Z</time>
      </trkpt>
      <trkpt lat="44.00376" lon="5.90743">
        <ele>674</ele>
        <time>2020-10-05T11:36:43.000Z</time>
      </trkpt>
      <trkpt lat="44.00374" lon="5.90743">
        <ele>674</ele>
        <time>2020-10-05T11:36:44.000Z</time>
      </trkpt>
      <trkpt lat="44.00373" lon="5.90742">
        <ele>674</ele>
        <time>2020-10-05T11:36:45.000Z</time>
      </trkpt>
      <trkpt lat="44.00372" lon="5.90741">
        <ele>674</ele>
        <time>2020-10-05T11:36:46.000Z</time>
      </trkpt>
      <trkpt lat="44.00372" lon="5.90741">
        <ele>674</ele>
        <time>2020-10-05T11:36:47.000Z</time>
      </trkpt>
      <trkpt lat="44.00371" lon="5.9074">
        <ele>674</ele>
        <time>2020-10-05T11:36:48.000Z</time>
      </trkpt>
      <trkpt lat="44.0037" lon="5.90739">
        <ele>674</ele>
        <time>2020-10-05T11:36:49.000Z</time>
      </trkpt>
      <trkpt lat="44.00369" lon="5.90739">
        <ele>675</ele>
        <time>2020-10-05T11:36:50.000Z</time>
      </trkpt>
      <trkpt lat="44.00368" lon="5.90739">
        <ele>675</ele>
        <time>2020-10-05T11:36:51.000Z</time>
      </trkpt>
      <trkpt lat="44.00367" lon="5.90738">
        <ele>675</ele>
        <time>2020-10-05T11:36:52.000Z</time>
      </trkpt>
      <trkpt lat="44.00366" lon="5.90738">
        <ele>675</ele>
        <time>2020-10-05T11:36:53.000Z</time>
      </trkpt>
      <trkpt lat="44.00365" lon="5.90738">
        <ele>675</ele>
        <time>2020-10-05T11:36:54.000Z</time>
      </trkpt>
      <trkpt lat="44.00364" lon="5.90737">
        <ele>675</ele>
        <time>2020-10-05T11:36:55.000Z</time>
      </trkpt>
      <trkpt lat="44.00363" lon="5.90737">
        <ele>675</ele>
        <time>2020-10-05T11:36:56.000Z</time>
      </trkpt>
      <trkpt lat="44.00362" lon="5.90736">
        <ele>675</ele>
        <time>2020-10-05T11:36:57.000Z</time>
      </trkpt>
      <trkpt lat="44.00361" lon="5.90736">
        <ele>675</ele>
        <time>2020-10-05T11:36:58.000Z</time>
      </trkpt>
      <trkpt lat="44.0036" lon="5.90735">
        <ele>675</ele>
        <time>2020-10-05T11:36:59.000Z</time>
      </trkpt>
      <trkpt lat="44.00359" lon="5.90735">
        <ele>675</ele>
        <time>2020-10-05T11:37:00.000Z</time>
      </trkpt>
      <trkpt lat="44.00358" lon="5.90734">
        <ele>675</ele>
        <time>2020-10-05T11:37:01.000Z</time>
      </trkpt>
      <trkpt lat="44.00357" lon="5.90734">
        <ele>676</ele>
        <time>2020-10-05T11:37:02.000Z</time>
      </trkpt>
      <trkpt lat="44.00356" lon="5.90733">
        <ele>676</ele>
        <time>2020-10-05T11:37:03.000Z</time>
      </trkpt>
      <trkpt lat="44.00355" lon="5.90733">
        <ele>676</ele>
        <time>2020-10-05T11:37:04.000Z</time>
      </trkpt>
      <trkpt lat="44.00354" lon="5.90732">
        <ele>676</ele>
        <time>2020-10-05T11:37:05.000Z</time>
      </trkpt>
      <trkpt lat="44.00353" lon="5.90732">
        <ele>676</ele>
        <time>2020-10-05T11:37:06.000Z</time>
      </trkpt>
      <trkpt lat="44.00353" lon="5.90731">
        <ele>676</ele>
        <time>2020-10-05T11:37:07.000Z</time>
      </trkpt>
      <trkpt lat="44.00352" lon="5.90731">
        <ele>676</ele>
        <time>2020-10-05T11:37:08.000Z</time>
      </trkpt>
      <trkpt lat="44.00351" lon="5.90731">
        <ele>676</ele>
        <time>2020-10-05T11:37:09.000Z</time>
      </trkpt>
      <trkpt lat="44.0035" lon="5.90731">
        <ele>676</ele>
        <time>2020-10-05T11:37:10.000Z</time>
      </trkpt>
      <trkpt lat="44.00349" lon="5.90731">
        <ele>676</ele>
        <time>2020-10-05T11:37:11.000Z</time>
      </trkpt>
      <trkpt lat="44.00348" lon="5.90731">
        <ele>676</ele>
        <time>2020-10-05T11:37:12.000Z</time>
      </trkpt>
      <trkpt lat="44.00347" lon="5.90731">
        <ele>676</ele>
        <time>2020-10-05T11:37:13.000Z</time>
      </trkpt>
      <trkpt lat="44.00346" lon="5.9073">
        <ele>676</ele>
        <time>2020-10-05T11:37:14.000Z</time>
      </trkpt>
      <trkpt lat="44.00346" lon="5.9073">
        <ele>677</ele>
        <time>2020-10-05T11:37:15.000Z</time>
      </trkpt>
      <trkpt lat="44.00344" lon="5.9073">
        <ele>677</ele>
        <time>2020-10-05T11:37:16.000Z</time>
      </trkpt>
      <trkpt lat="44.00343" lon="5.9073">
        <ele>677</ele>
        <time>2020-10-05T11:37:17.000Z</time>
      </trkpt>
      <trkpt lat="44.00342" lon="5.90729">
        <ele>677</ele>
        <time>2020-10-05T11:37:18.000Z</time>
      </trkpt>
      <trkpt lat="44.00341" lon="5.90729">
        <ele>677</ele>
        <time>2020-10-05T11:37:19.000Z</time>
      </trkpt>
      <trkpt lat="44.00341" lon="5.90729">
        <ele>677</ele>
        <time>2020-10-05T11:37:20.000Z</time>
      </trkpt>
      <trkpt lat="44.0034" lon="5.90729">
        <ele>677</ele>
        <time>2020-10-05T11:37:21.000Z</time>
      </trkpt>
      <trkpt lat="44.00339" lon="5.90729">
        <ele>677</ele>
        <time>2020-10-05T11:37:22.000Z</time>
      </trkpt>
      <trkpt lat="44.00338" lon="5.90729">
        <ele>677</ele>
        <time>2020-10-05T11:37:23.000Z</time>
      </trkpt>
      <trkpt lat="44.00337" lon="5.90729">
        <ele>677</ele>
        <time>2020-10-05T11:37:24.000Z</time>
      </trkpt>
      <trkpt lat="44.00337" lon="5.90729">
        <ele>678</ele>
        <time>2020-10-05T11:37:25.000Z</time>
      </trkpt>
      <trkpt lat="44.00336" lon="5.90729">
        <ele>678</ele>
        <time>2020-10-05T11:37:26.000Z</time>
      </trkpt>
      <trkpt lat="44.00335" lon="5.90728">
        <ele>678</ele>
        <time>2020-10-05T11:37:27.000Z</time>
      </trkpt>
      <trkpt lat="44.00335" lon="5.90728">
        <ele>678</ele>
        <time>2020-10-05T11:37:28.000Z</time>
      </trkpt>
      <trkpt lat="44.00334" lon="5.90728">
        <ele>678</ele>
        <time>2020-10-05T11:37:29.000Z</time>
      </trkpt>
      <trkpt lat="44.00333" lon="5.90728">
        <ele>678</ele>
        <time>2020-10-05T11:37:30.000Z</time>
      </trkpt>
      <trkpt lat="44.00333" lon="5.90728">
        <ele>679</ele>
        <time>2020-10-05T11:37:31.000Z</time>
      </trkpt>
      <trkpt lat="44.00332" lon="5.90728">
        <ele>679</ele>
        <time>2020-10-05T11:37:32.000Z</time>
      </trkpt>
      <trkpt lat="44.00331" lon="5.90728">
        <ele>679</ele>
        <time>2020-10-05T11:37:33.000Z</time>
      </trkpt>
      <trkpt lat="44.0033" lon="5.90728">
        <ele>679</ele>
        <time>2020-10-05T11:37:34.000Z</time>
      </trkpt>
      <trkpt lat="44.00329" lon="5.90727">
        <ele>679</ele>
        <time>2020-10-05T11:37:35.000Z</time>
      </trkpt>
      <trkpt lat="44.00328" lon="5.90727">
        <ele>679</ele>
        <time>2020-10-05T11:37:36.000Z</time>
      </trkpt>
      <trkpt lat="44.00327" lon="5.90727">
        <ele>679</ele>
        <time>2020-10-05T11:37:37.000Z</time>
      </trkpt>
      <trkpt lat="44.00327" lon="5.90727">
        <ele>679</ele>
        <time>2020-10-05T11:37:38.000Z</time>
      </trkpt>
      <trkpt lat="44.00326" lon="5.90726">
        <ele>679</ele>
        <time>2020-10-05T11:37:39.000Z</time>
      </trkpt>
      <trkpt lat="44.00325" lon="5.90726">
        <ele>679</ele>
        <time>2020-10-05T11:37:40.000Z</time>
      </trkpt>
      <trkpt lat="44.00325" lon="5.90725">
        <ele>680</ele>
        <time>2020-10-05T11:37:41.000Z</time>
      </trkpt>
      <trkpt lat="44.00324" lon="5.90725">
        <ele>680</ele>
        <time>2020-10-05T11:37:42.000Z</time>
      </trkpt>
      <trkpt lat="44.00323" lon="5.90725">
        <ele>680</ele>
        <time>2020-10-05T11:37:43.000Z</time>
      </trkpt>
      <trkpt lat="44.00323" lon="5.90725">
        <ele>680</ele>
        <time>2020-10-05T11:37:44.000Z</time>
      </trkpt>
      <trkpt lat="44.00322" lon="5.90725">
        <ele>680</ele>
        <time>2020-10-05T11:37:45.000Z</time>
      </trkpt>
      <trkpt lat="44.00321" lon="5.90724">
        <ele>680</ele>
        <time>2020-10-05T11:37:46.000Z</time>
      </trkpt>
      <trkpt lat="44.00321" lon="5.90724">
        <ele>680</ele>
        <time>2020-10-05T11:37:47.000Z</time>
      </trkpt>
      <trkpt lat="44.0032" lon="5.90723">
        <ele>680</ele>
        <time>2020-10-05T11:37:48.000Z</time>
      </trkpt>
      <trkpt lat="44.00319" lon="5.90722">
        <ele>680</ele>
        <time>2020-10-05T11:37:49.000Z</time>
      </trkpt>
      <trkpt lat="44.00318" lon="5.90722">
        <ele>680</ele>
        <time>2020-10-05T11:37:50.000Z</time>
      </trkpt>
      <trkpt lat="44.00317" lon="5.90721">
        <ele>680</ele>
        <time>2020-10-05T11:37:51.000Z</time>
      </trkpt>
      <trkpt lat="44.00317" lon="5.90721">
        <ele>680</ele>
        <time>2020-10-05T11:37:52.000Z</time>
      </trkpt>
      <trkpt lat="44.00316" lon="5.90721">
        <ele>681</ele>
        <time>2020-10-05T11:37:53.000Z</time>
      </trkpt>
      <trkpt lat="44.00315" lon="5.90721">
        <ele>681</ele>
        <time>2020-10-05T11:37:54.000Z</time>
      </trkpt>
      <trkpt lat="44.00315" lon="5.90721">
        <ele>681</ele>
        <time>2020-10-05T11:37:55.000Z</time>
      </trkpt>
      <trkpt lat="44.00314" lon="5.90721">
        <ele>681</ele>
        <time>2020-10-05T11:37:56.000Z</time>
      </trkpt>
      <trkpt lat="44.00314" lon="5.9072">
        <ele>681</ele>
        <time>2020-10-05T11:37:57.000Z</time>
      </trkpt>
      <trkpt lat="44.00313" lon="5.9072">
        <ele>681</ele>
        <time>2020-10-05T11:37:58.000Z</time>
      </trkpt>
      <trkpt lat="44.00312" lon="5.9072">
        <ele>681</ele>
        <time>2020-10-05T11:37:59.000Z</time>
      </trkpt>
      <trkpt lat="44.00311" lon="5.9072">
        <ele>681</ele>
        <time>2020-10-05T11:38:00.000Z</time>
      </trkpt>
      <trkpt lat="44.0031" lon="5.9072">
        <ele>682</ele>
        <time>2020-10-05T11:38:01.000Z</time>
      </trkpt>
      <trkpt lat="44.0031" lon="5.90719">
        <ele>682</ele>
        <time>2020-10-05T11:38:02.000Z</time>
      </trkpt>
      <trkpt lat="44.00309" lon="5.90719">
        <ele>682</ele>
        <time>2020-10-05T11:38:03.000Z</time>
      </trkpt>
      <trkpt lat="44.00308" lon="5.9072">
        <ele>682</ele>
        <time>2020-10-05T11:38:04.000Z</time>
      </trkpt>
      <trkpt lat="44.00308" lon="5.90719">
        <ele>682</ele>
        <time>2020-10-05T11:38:05.000Z</time>
      </trkpt>
      <trkpt lat="44.00308" lon="5.9072">
        <ele>682</ele>
        <time>2020-10-05T11:38:06.000Z</time>
      </trkpt>
      <trkpt lat="44.00308" lon="5.90719">
        <ele>682</ele>
        <time>2020-10-05T11:38:07.000Z</time>
      </trkpt>
      <trkpt lat="44.00308" lon="5.90719">
        <ele>682</ele>
        <time>2020-10-05T11:38:08.000Z</time>
      </trkpt>
      <trkpt lat="44.00308" lon="5.90719">
        <ele>682</ele>
        <time>2020-10-05T11:38:09.000Z</time>
      </trkpt>
      <trkpt lat="44.00308" lon="5.90719">
        <ele>683</ele>
        <time>2020-10-05T11:38:10.000Z</time>
      </trkpt>
      <trkpt lat="44.00308" lon="5.90719">
        <ele>683</ele>
        <time>2020-10-05T11:38:11.000Z</time>
      </trkpt>
      <trkpt lat="44.00308" lon="5.90719">
        <ele>683</ele>
        <time>2020-10-05T11:38:12.000Z</time>
      </trkpt>
      <trkpt lat="44.00307" lon="5.90719">
        <ele>683</ele>
        <time>2020-10-05T11:38:13.000Z</time>
      </trkpt>
      <trkpt lat="44.00307" lon="5.90719">
        <ele>683</ele>
        <time>2020-10-05T11:38:14.000Z</time>
      </trkpt>
      <trkpt lat="44.00307" lon="5.90719">
        <ele>683</ele>
        <time>2020-10-05T11:38:15.000Z</time>
      </trkpt>
      <trkpt lat="44.00307" lon="5.90719">
        <ele>683</ele>
        <time>2020-10-05T11:38:16.000Z</time>
      </trkpt>
      <trkpt lat="44.00307" lon="5.90719">
        <ele>683</ele>
        <time>2020-10-05T11:38:17.000Z</time>
      </trkpt>
      <trkpt lat="44.00307" lon="5.90719">
        <ele>684</ele>
        <time>2020-10-05T11:38:18.000Z</time>
      </trkpt>
      <trkpt lat="44.00307" lon="5.90719">
        <ele>684</ele>
        <time>2020-10-05T11:38:19.000Z</time>
      </trkpt>
      <trkpt lat="44.00307" lon="5.90719">
        <ele>684</ele>
        <time>2020-10-05T11:38:20.000Z</time>
      </trkpt>
      <trkpt lat="44.00307" lon="5.90719">
        <ele>684</ele>
        <time>2020-10-05T11:38:21.000Z</time>
      </trkpt>
      <trkpt lat="44.00307" lon="5.90719">
        <ele>684</ele>
        <time>2020-10-05T11:38:22.000Z</time>
      </trkpt>
      <trkpt lat="44.00306" lon="5.90719">
        <ele>684</ele>
        <time>2020-10-05T11:38:23.000Z</time>
      </trkpt>
      <trkpt lat="44.00306" lon="5.90719">
        <ele>684</ele>
        <time>2020-10-05T11:38:24.000Z</time>
      </trkpt>
      <trkpt lat="44.00306" lon="5.90719">
        <ele>685</ele>
        <time>2020-10-05T11:38:25.000Z</time>
      </trkpt>
      <trkpt lat="44.00306" lon="5.90719">
        <ele>685</ele>
        <time>2020-10-05T11:38:26.000Z</time>
      </trkpt>
      <trkpt lat="44.00306" lon="5.90718">
        <ele>685</ele>
        <time>2020-10-05T11:38:27.000Z</time>
      </trkpt>
      <trkpt lat="44.00306" lon="5.90718">
        <ele>685</ele>
        <time>2020-10-05T11:38:28.000Z</time>
      </trkpt>
      <trkpt lat="44.00306" lon="5.90718">
        <ele>685</ele>
        <time>2020-10-05T11:38:29.000Z</time>
      </trkpt>
      <trkpt lat="44.00306" lon="5.90718">
        <ele>685</ele>
        <time>2020-10-05T11:38:30.000Z</time>
      </trkpt>
      <trkpt lat="44.00306" lon="5.90718">
        <ele>685</ele>
        <time>2020-10-05T11:38:31.000Z</time>
      </trkpt>
      <trkpt lat="44.00306" lon="5.90718">
        <ele>685</ele>
        <time>2020-10-05T11:38:32.000Z</time>
      </trkpt>
      <trkpt lat="44.00306" lon="5.90719">
        <ele>685</ele>
        <time>2020-10-05T11:38:33.000Z</time>
      </trkpt>
      <trkpt lat="44.00306" lon="5.90719">
        <ele>685</ele>
        <time>2020-10-05T11:38:34.000Z</time>
      </trkpt>
      <trkpt lat="44.00305" lon="5.90719">
        <ele>685</ele>
        <time>2020-10-05T11:38:35.000Z</time>
      </trkpt>
      <trkpt lat="44.00305" lon="5.90719">
        <ele>686</ele>
        <time>2020-10-05T11:38:36.000Z</time>
      </trkpt>
      <trkpt lat="44.00304" lon="5.90719">
        <ele>686</ele>
        <time>2020-10-05T11:38:37.000Z</time>
      </trkpt>
      <trkpt lat="44.00304" lon="5.90719">
        <ele>686</ele>
        <time>2020-10-05T11:38:38.000Z</time>
      </trkpt>
      <trkpt lat="44.00303" lon="5.90719">
        <ele>686</ele>
        <time>2020-10-05T11:38:39.000Z</time>
      </trkpt>
      <trkpt lat="44.00302" lon="5.90719">
        <ele>686</ele>
        <time>2020-10-05T11:38:40.000Z</time>
      </trkpt>
      <trkpt lat="44.00301" lon="5.90719">
        <ele>686</ele>
        <time>2020-10-05T11:38:41.000Z</time>
      </trkpt>
      <trkpt lat="44.00301" lon="5.90719">
        <ele>686</ele>
        <time>2020-10-05T11:38:42.000Z</time>
      </trkpt>
      <trkpt lat="44.003" lon="5.90718">
        <ele>686</ele>
        <time>2020-10-05T11:38:43.000Z</time>
      </trkpt>
      <trkpt lat="44.00299" lon="5.90718">
        <ele>686</ele>
        <time>2020-10-05T11:38:44.000Z</time>
      </trkpt>
      <trkpt lat="44.00298" lon="5.90718">
        <ele>686</ele>
        <time>2020-10-05T11:38:45.000Z</time>
      </trkpt>
      <trkpt lat="44.00298" lon="5.90718">
        <ele>686</ele>
        <time>2020-10-05T11:38:46.000Z</time>
      </trkpt>
      <trkpt lat="44.00297" lon="5.90717">
        <ele>687</ele>
        <time>2020-10-05T11:38:47.000Z</time>
      </trkpt>
      <trkpt lat="44.00297" lon="5.90717">
        <ele>687</ele>
        <time>2020-10-05T11:38:48.000Z</time>
      </trkpt>
      <trkpt lat="44.00296" lon="5.90717">
        <ele>687</ele>
        <time>2020-10-05T11:38:49.000Z</time>
      </trkpt>
      <trkpt lat="44.00295" lon="5.90716">
        <ele>687</ele>
        <time>2020-10-05T11:38:50.000Z</time>
      </trkpt>
      <trkpt lat="44.00295" lon="5.90716">
        <ele>687</ele>
        <time>2020-10-05T11:38:51.000Z</time>
      </trkpt>
      <trkpt lat="44.00294" lon="5.90716">
        <ele>687</ele>
        <time>2020-10-05T11:38:52.000Z</time>
      </trkpt>
      <trkpt lat="44.00294" lon="5.90715">
        <ele>687</ele>
        <time>2020-10-05T11:38:53.000Z</time>
      </trkpt>
      <trkpt lat="44.00293" lon="5.90715">
        <ele>687</ele>
        <time>2020-10-05T11:38:54.000Z</time>
      </trkpt>
      <trkpt lat="44.00292" lon="5.90715">
        <ele>687</ele>
        <time>2020-10-05T11:38:55.000Z</time>
      </trkpt>
      <trkpt lat="44.00291" lon="5.90714">
        <ele>687</ele>
        <time>2020-10-05T11:38:56.000Z</time>
      </trkpt>
      <trkpt lat="44.0029" lon="5.90714">
        <ele>687</ele>
        <time>2020-10-05T11:38:57.000Z</time>
      </trkpt>
      <trkpt lat="44.00289" lon="5.90713">
        <ele>687</ele>
        <time>2020-10-05T11:38:58.000Z</time>
      </trkpt>
      <trkpt lat="44.00289" lon="5.90713">
        <ele>687</ele>
        <time>2020-10-05T11:38:59.000Z</time>
      </trkpt>
      <trkpt lat="44.00288" lon="5.90713">
        <ele>688</ele>
        <time>2020-10-05T11:39:00.000Z</time>
      </trkpt>
      <trkpt lat="44.00287" lon="5.90713">
        <ele>688</ele>
        <time>2020-10-05T11:39:01.000Z</time>
      </trkpt>
      <trkpt lat="44.00286" lon="5.90712">
        <ele>688</ele>
        <time>2020-10-05T11:39:02.000Z</time>
      </trkpt>
      <trkpt lat="44.00285" lon="5.90712">
        <ele>688</ele>
        <time>2020-10-05T11:39:03.000Z</time>
      </trkpt>
      <trkpt lat="44.00284" lon="5.90712">
        <ele>688</ele>
        <time>2020-10-05T11:39:04.000Z</time>
      </trkpt>
      <trkpt lat="44.00284" lon="5.90712">
        <ele>688</ele>
        <time>2020-10-05T11:39:05.000Z</time>
      </trkpt>
      <trkpt lat="44.00283" lon="5.90711">
        <ele>688</ele>
        <time>2020-10-05T11:39:06.000Z</time>
      </trkpt>
      <trkpt lat="44.00283" lon="5.90711">
        <ele>688</ele>
        <time>2020-10-05T11:39:07.000Z</time>
      </trkpt>
      <trkpt lat="44.00283" lon="5.90711">
        <ele>688</ele>
        <time>2020-10-05T11:39:08.000Z</time>
      </trkpt>
      <trkpt lat="44.00282" lon="5.90711">
        <ele>688</ele>
        <time>2020-10-05T11:39:09.000Z</time>
      </trkpt>
      <trkpt lat="44.00281" lon="5.90711">
        <ele>688</ele>
        <time>2020-10-05T11:39:10.000Z</time>
      </trkpt>
      <trkpt lat="44.0028" lon="5.9071">
        <ele>688</ele>
        <time>2020-10-05T11:39:11.000Z</time>
      </trkpt>
      <trkpt lat="44.00279" lon="5.9071">
        <ele>688</ele>
        <time>2020-10-05T11:39:12.000Z</time>
      </trkpt>
      <trkpt lat="44.00278" lon="5.9071">
        <ele>688</ele>
        <time>2020-10-05T11:39:13.000Z</time>
      </trkpt>
      <trkpt lat="44.00277" lon="5.9071">
        <ele>688</ele>
        <time>2020-10-05T11:39:14.000Z</time>
      </trkpt>
      <trkpt lat="44.00276" lon="5.9071">
        <ele>688</ele>
        <time>2020-10-05T11:39:15.000Z</time>
      </trkpt>
      <trkpt lat="44.00276" lon="5.9071">
        <ele>688</ele>
        <time>2020-10-05T11:39:16.000Z</time>
      </trkpt>
      <trkpt lat="44.00275" lon="5.9071">
        <ele>688</ele>
        <time>2020-10-05T11:39:17.000Z</time>
      </trkpt>
      <trkpt lat="44.00274" lon="5.9071">
        <ele>688</ele>
        <time>2020-10-05T11:39:18.000Z</time>
      </trkpt>
      <trkpt lat="44.00273" lon="5.9071">
        <ele>688</ele>
        <time>2020-10-05T11:39:19.000Z</time>
      </trkpt>
      <trkpt lat="44.00272" lon="5.9071">
        <ele>688</ele>
        <time>2020-10-05T11:39:20.000Z</time>
      </trkpt>
      <trkpt lat="44.00271" lon="5.9071">
        <ele>688</ele>
        <time>2020-10-05T11:39:21.000Z</time>
      </trkpt>
      <trkpt lat="44.00271" lon="5.9071">
        <ele>689</ele>
        <time>2020-10-05T11:39:22.000Z</time>
      </trkpt>
      <trkpt lat="44.0027" lon="5.9071">
        <ele>689</ele>
        <time>2020-10-05T11:39:23.000Z</time>
      </trkpt>
      <trkpt lat="44.0027" lon="5.9071">
        <ele>689</ele>
        <time>2020-10-05T11:39:24.000Z</time>
      </trkpt>
      <trkpt lat="44.00269" lon="5.9071">
        <ele>689</ele>
        <time>2020-10-05T11:39:25.000Z</time>
      </trkpt>
      <trkpt lat="44.00268" lon="5.9071">
        <ele>689</ele>
        <time>2020-10-05T11:39:26.000Z</time>
      </trkpt>
      <trkpt lat="44.00268" lon="5.90709">
        <ele>689</ele>
        <time>2020-10-05T11:39:27.000Z</time>
      </trkpt>
      <trkpt lat="44.00268" lon="5.90709">
        <ele>689</ele>
        <time>2020-10-05T11:39:28.000Z</time>
      </trkpt>
      <trkpt lat="44.00267" lon="5.90709">
        <ele>690</ele>
        <time>2020-10-05T11:39:29.000Z</time>
      </trkpt>
      <trkpt lat="44.00267" lon="5.90709">
        <ele>690</ele>
        <time>2020-10-05T11:39:30.000Z</time>
      </trkpt>
      <trkpt lat="44.00266" lon="5.90708">
        <ele>690</ele>
        <time>2020-10-05T11:39:31.000Z</time>
      </trkpt>
      <trkpt lat="44.00266" lon="5.90708">
        <ele>690</ele>
        <time>2020-10-05T11:39:32.000Z</time>
      </trkpt>
      <trkpt lat="44.00266" lon="5.90708">
        <ele>690</ele>
        <time>2020-10-05T11:39:33.000Z</time>
      </trkpt>
      <trkpt lat="44.00266" lon="5.90708">
        <ele>690</ele>
        <time>2020-10-05T11:39:34.000Z</time>
      </trkpt>
      <trkpt lat="44.00266" lon="5.90708">
        <ele>690</ele>
        <time>2020-10-05T11:39:35.000Z</time>
      </trkpt>
      <trkpt lat="44.00266" lon="5.90708">
        <ele>690</ele>
        <time>2020-10-05T11:39:36.000Z</time>
      </trkpt>
      <trkpt lat="44.00266" lon="5.90708">
        <ele>690</ele>
        <time>2020-10-05T11:39:37.000Z</time>
      </trkpt>
      <trkpt lat="44.00266" lon="5.90708">
        <ele>690</ele>
        <time>2020-10-05T11:39:38.000Z</time>
      </trkpt>
      <trkpt lat="44.00266" lon="5.90708">
        <ele>691</ele>
        <time>2020-10-05T11:39:39.000Z</time>
      </trkpt>
      <trkpt lat="44.00266" lon="5.90708">
        <ele>691</ele>
        <time>2020-10-05T11:39:40.000Z</time>
      </trkpt>
      <trkpt lat="44.00266" lon="5.90708">
        <ele>691</ele>
        <time>2020-10-05T11:39:41.000Z</time>
      </trkpt>
      <trkpt lat="44.00266" lon="5.90708">
        <ele>691</ele>
        <time>2020-10-05T11:39:42.000Z</time>
      </trkpt>
      <trkpt lat="44.00266" lon="5.90708">
        <ele>691</ele>
        <time>2020-10-05T11:39:43.000Z</time>
      </trkpt>
      <trkpt lat="44.00266" lon="5.90708">
        <ele>691</ele>
        <time>2020-10-05T11:39:44.000Z</time>
      </trkpt>
      <trkpt lat="44.00266" lon="5.90708">
        <ele>691</ele>
        <time>2020-10-05T11:39:45.000Z</time>
      </trkpt>
      <trkpt lat="44.00266" lon="5.90708">
        <ele>691</ele>
        <time>2020-10-05T11:39:46.000Z</time>
      </trkpt>
      <trkpt lat="44.00266" lon="5.90708">
        <ele>691</ele>
        <time>2020-10-05T11:39:47.000Z</time>
      </trkpt>
      <trkpt lat="44.00266" lon="5.90707">
        <ele>691</ele>
        <time>2020-10-05T11:39:48.000Z</time>
      </trkpt>
      <trkpt lat="44.00266" lon="5.90708">
        <ele>692</ele>
        <time>2020-10-05T11:39:49.000Z</time>
      </trkpt>
      <trkpt lat="44.00266" lon="5.90708">
        <ele>692</ele>
        <time>2020-10-05T11:39:50.000Z</time>
      </trkpt>
      <trkpt lat="44.00266" lon="5.90707">
        <ele>692</ele>
        <time>2020-10-05T11:39:51.000Z</time>
      </trkpt>
      <trkpt lat="44.00266" lon="5.90707">
        <ele>692</ele>
        <time>2020-10-05T11:39:52.000Z</time>
      </trkpt>
      <trkpt lat="44.00266" lon="5.90707">
        <ele>692</ele>
        <time>2020-10-05T11:39:53.000Z</time>
      </trkpt>
      <trkpt lat="44.00266" lon="5.90707">
        <ele>692</ele>
        <time>2020-10-05T11:39:54.000Z</time>
      </trkpt>
      <trkpt lat="44.00266" lon="5.90707">
        <ele>692</ele>
        <time>2020-10-05T11:39:55.000Z</time>
      </trkpt>
      <trkpt lat="44.00266" lon="5.90707">
        <ele>692</ele>
        <time>2020-10-05T11:39:56.000Z</time>
      </trkpt>
      <trkpt lat="44.00266" lon="5.90707">
        <ele>692</ele>
        <time>2020-10-05T11:39:57.000Z</time>
      </trkpt>
      <trkpt lat="44.00266" lon="5.90707">
        <ele>692</ele>
        <time>2020-10-05T11:39:58.000Z</time>
      </trkpt>
      <trkpt lat="44.00266" lon="5.90707">
        <ele>692</ele>
        <time>2020-10-05T11:39:59.000Z</time>
      </trkpt>
      <trkpt lat="44.00266" lon="5.90708">
        <ele>692</ele>
        <time>2020-10-05T11:40:00.000Z</time>
      </trkpt>
      <trkpt lat="44.00266" lon="5.90707">
        <ele>693</ele>
        <time>2020-10-05T11:40:01.000Z</time>
      </trkpt>
      <trkpt lat="44.00266" lon="5.90707">
        <ele>693</ele>
        <time>2020-10-05T11:40:02.000Z</time>
      </trkpt>
      <trkpt lat="44.00266" lon="5.90707">
        <ele>693</ele>
        <time>2020-10-05T11:40:03.000Z</time>
      </trkpt>
      <trkpt lat="44.00266" lon="5.90707">
        <ele>693</ele>
        <time>2020-10-05T11:40:04.000Z</time>
      </trkpt>
      <trkpt lat="44.00266" lon="5.90707">
        <ele>693</ele>
        <time>2020-10-05T11:40:05.000Z</time>
      </trkpt>
      <trkpt lat="44.00266" lon="5.90707">
        <ele>693</ele>
        <time>2020-10-05T11:40:06.000Z</time>
      </trkpt>
      <trkpt lat="44.00267" lon="5.90708">
        <ele>693</ele>
        <time>2020-10-05T11:40:07.000Z</time>
      </trkpt>
      <trkpt lat="44.00267" lon="5.90708">
        <ele>693</ele>
        <time>2020-10-05T11:40:08.000Z</time>
      </trkpt>
      <trkpt lat="44.00267" lon="5.90708">
        <ele>693</ele>
        <time>2020-10-05T11:40:09.000Z</time>
      </trkpt>
      <trkpt lat="44.00267" lon="5.90708">
        <ele>693</ele>
        <time>2020-10-05T11:40:10.000Z</time>
      </trkpt>
      <trkpt lat="44.00267" lon="5.90708">
        <ele>693</ele>
        <time>2020-10-05T11:40:11.000Z</time>
      </trkpt>
      <trkpt lat="44.00268" lon="5.90709">
        <ele>693</ele>
        <time>2020-10-05T11:40:12.000Z</time>
      </trkpt>
      <trkpt lat="44.00268" lon="5.90709">
        <ele>693</ele>
        <time>2020-10-05T11:40:13.000Z</time>
      </trkpt>
      <trkpt lat="44.00269" lon="5.90709">
        <ele>693</ele>
        <time>2020-10-05T11:40:14.000Z</time>
      </trkpt>
      <trkpt lat="44.00269" lon="5.90709">
        <ele>693</ele>
        <time>2020-10-05T11:40:15.000Z</time>
      </trkpt>
      <trkpt lat="44.0027" lon="5.90709">
        <ele>693</ele>
        <time>2020-10-05T11:40:16.000Z</time>
      </trkpt>
      <trkpt lat="44.0027" lon="5.90709">
        <ele>693</ele>
        <time>2020-10-05T11:40:17.000Z</time>
      </trkpt>
      <trkpt lat="44.00271" lon="5.90709">
        <ele>693</ele>
        <time>2020-10-05T11:40:18.000Z</time>
      </trkpt>
      <trkpt lat="44.00272" lon="5.9071">
        <ele>693</ele>
        <time>2020-10-05T11:40:19.000Z</time>
      </trkpt>
      <trkpt lat="44.00272" lon="5.9071">
        <ele>693</ele>
        <time>2020-10-05T11:40:20.000Z</time>
      </trkpt>
      <trkpt lat="44.00273" lon="5.9071">
        <ele>693</ele>
        <time>2020-10-05T11:40:21.000Z</time>
      </trkpt>
      <trkpt lat="44.00274" lon="5.90711">
        <ele>693</ele>
        <time>2020-10-05T11:40:22.000Z</time>
      </trkpt>
      <trkpt lat="44.00275" lon="5.90712">
        <ele>693</ele>
        <time>2020-10-05T11:40:23.000Z</time>
      </trkpt>
      <trkpt lat="44.00275" lon="5.90712">
        <ele>693</ele>
        <time>2020-10-05T11:40:24.000Z</time>
      </trkpt>
      <trkpt lat="44.00276" lon="5.90713">
        <ele>693</ele>
        <time>2020-10-05T11:40:25.000Z</time>
      </trkpt>
      <trkpt lat="44.00277" lon="5.90713">
        <ele>693</ele>
        <time>2020-10-05T11:40:26.000Z</time>
      </trkpt>
      <trkpt lat="44.00277" lon="5.90714">
        <ele>693</ele>
        <time>2020-10-05T11:40:27.000Z</time>
      </trkpt>
      <trkpt lat="44.00278" lon="5.90714">
        <ele>693</ele>
        <time>2020-10-05T11:40:28.000Z</time>
      </trkpt>
      <trkpt lat="44.00278" lon="5.90714">
        <ele>694</ele>
        <time>2020-10-05T11:40:29.000Z</time>
      </trkpt>
      <trkpt lat="44.00279" lon="5.90715">
        <ele>694</ele>
        <time>2020-10-05T11:40:30.000Z</time>
      </trkpt>
      <trkpt lat="44.00279" lon="5.90715">
        <ele>694</ele>
        <time>2020-10-05T11:40:31.000Z</time>
      </trkpt>
      <trkpt lat="44.0028" lon="5.90716">
        <ele>694</ele>
        <time>2020-10-05T11:40:32.000Z</time>
      </trkpt>
      <trkpt lat="44.00281" lon="5.90716">
        <ele>694</ele>
        <time>2020-10-05T11:40:33.000Z</time>
      </trkpt>
      <trkpt lat="44.00281" lon="5.90717">
        <ele>694</ele>
        <time>2020-10-05T11:40:34.000Z</time>
      </trkpt>
      <trkpt lat="44.00282" lon="5.90717">
        <ele>694</ele>
        <time>2020-10-05T11:40:35.000Z</time>
      </trkpt>
      <trkpt lat="44.00283" lon="5.90718">
        <ele>694</ele>
        <time>2020-10-05T11:40:36.000Z</time>
      </trkpt>
      <trkpt lat="44.00283" lon="5.90718">
        <ele>694</ele>
        <time>2020-10-05T11:40:37.000Z</time>
      </trkpt>
      <trkpt lat="44.00284" lon="5.90719">
        <ele>694</ele>
        <time>2020-10-05T11:40:38.000Z</time>
      </trkpt>
      <trkpt lat="44.00285" lon="5.9072">
        <ele>694</ele>
        <time>2020-10-05T11:40:39.000Z</time>
      </trkpt>
      <trkpt lat="44.00285" lon="5.9072">
        <ele>694</ele>
        <time>2020-10-05T11:40:40.000Z</time>
      </trkpt>
      <trkpt lat="44.00286" lon="5.90721">
        <ele>695</ele>
        <time>2020-10-05T11:40:41.000Z</time>
      </trkpt>
      <trkpt lat="44.00287" lon="5.90722">
        <ele>695</ele>
        <time>2020-10-05T11:40:42.000Z</time>
      </trkpt>
      <trkpt lat="44.00287" lon="5.90723">
        <ele>695</ele>
        <time>2020-10-05T11:40:43.000Z</time>
      </trkpt>
      <trkpt lat="44.00288" lon="5.90723">
        <ele>695</ele>
        <time>2020-10-05T11:40:44.000Z</time>
      </trkpt>
      <trkpt lat="44.00289" lon="5.90724">
        <ele>695</ele>
        <time>2020-10-05T11:40:45.000Z</time>
      </trkpt>
      <trkpt lat="44.00289" lon="5.90725">
        <ele>695</ele>
        <time>2020-10-05T11:40:46.000Z</time>
      </trkpt>
      <trkpt lat="44.0029" lon="5.90726">
        <ele>695</ele>
        <time>2020-10-05T11:40:47.000Z</time>
      </trkpt>
      <trkpt lat="44.00291" lon="5.90727">
        <ele>695</ele>
        <time>2020-10-05T11:40:48.000Z</time>
      </trkpt>
      <trkpt lat="44.00292" lon="5.90728">
        <ele>695</ele>
        <time>2020-10-05T11:40:49.000Z</time>
      </trkpt>
      <trkpt lat="44.00293" lon="5.90729">
        <ele>695</ele>
        <time>2020-10-05T11:40:50.000Z</time>
      </trkpt>
      <trkpt lat="44.00293" lon="5.90729">
        <ele>695</ele>
        <time>2020-10-05T11:40:51.000Z</time>
      </trkpt>
      <trkpt lat="44.00294" lon="5.9073">
        <ele>695</ele>
        <time>2020-10-05T11:40:52.000Z</time>
      </trkpt>
      <trkpt lat="44.00295" lon="5.90731">
        <ele>695</ele>
        <time>2020-10-05T11:40:53.000Z</time>
      </trkpt>
      <trkpt lat="44.00296" lon="5.90732">
        <ele>695</ele>
        <time>2020-10-05T11:40:54.000Z</time>
      </trkpt>
      <trkpt lat="44.00297" lon="5.90733">
        <ele>695</ele>
        <time>2020-10-05T11:40:55.000Z</time>
      </trkpt>
      <trkpt lat="44.00298" lon="5.90734">
        <ele>695</ele>
        <time>2020-10-05T11:40:56.000Z</time>
      </trkpt>
      <trkpt lat="44.00299" lon="5.90735">
        <ele>696</ele>
        <time>2020-10-05T11:40:57.000Z</time>
      </trkpt>
      <trkpt lat="44.003" lon="5.90736">
        <ele>696</ele>
        <time>2020-10-05T11:40:58.000Z</time>
      </trkpt>
      <trkpt lat="44.00301" lon="5.90737">
        <ele>696</ele>
        <time>2020-10-05T11:40:59.000Z</time>
      </trkpt>
      <trkpt lat="44.00302" lon="5.90737">
        <ele>696</ele>
        <time>2020-10-05T11:41:00.000Z</time>
      </trkpt>
      <trkpt lat="44.00303" lon="5.90738">
        <ele>696</ele>
        <time>2020-10-05T11:41:01.000Z</time>
      </trkpt>
      <trkpt lat="44.00304" lon="5.90739">
        <ele>696</ele>
        <time>2020-10-05T11:41:02.000Z</time>
      </trkpt>
      <trkpt lat="44.00305" lon="5.9074">
        <ele>696</ele>
        <time>2020-10-05T11:41:03.000Z</time>
      </trkpt>
      <trkpt lat="44.00306" lon="5.9074">
        <ele>696</ele>
        <time>2020-10-05T11:41:04.000Z</time>
      </trkpt>
      <trkpt lat="44.00306" lon="5.90741">
        <ele>696</ele>
        <time>2020-10-05T11:41:05.000Z</time>
      </trkpt>
      <trkpt lat="44.00307" lon="5.90742">
        <ele>696</ele>
        <time>2020-10-05T11:41:06.000Z</time>
      </trkpt>
      <trkpt lat="44.00308" lon="5.90743">
        <ele>696</ele>
        <time>2020-10-05T11:41:07.000Z</time>
      </trkpt>
      <trkpt lat="44.00309" lon="5.90744">
        <ele>696</ele>
        <time>2020-10-05T11:41:08.000Z</time>
      </trkpt>
      <trkpt lat="44.00309" lon="5.90744">
        <ele>696</ele>
        <time>2020-10-05T11:41:09.000Z</time>
      </trkpt>
      <trkpt lat="44.0031" lon="5.90745">
        <ele>696</ele>
        <time>2020-10-05T11:41:10.000Z</time>
      </trkpt>
      <trkpt lat="44.00311" lon="5.90746">
        <ele>696</ele>
        <time>2020-10-05T11:41:11.000Z</time>
      </trkpt>
      <trkpt lat="44.00312" lon="5.90747">
        <ele>696</ele>
        <time>2020-10-05T11:41:12.000Z</time>
      </trkpt>
      <trkpt lat="44.00313" lon="5.90747">
        <ele>697</ele>
        <time>2020-10-05T11:41:13.000Z</time>
      </trkpt>
      <trkpt lat="44.00313" lon="5.90748">
        <ele>697</ele>
        <time>2020-10-05T11:41:14.000Z</time>
      </trkpt>
      <trkpt lat="44.00314" lon="5.90748">
        <ele>697</ele>
        <time>2020-10-05T11:41:15.000Z</time>
      </trkpt>
      <trkpt lat="44.00315" lon="5.90748">
        <ele>697</ele>
        <time>2020-10-05T11:41:16.000Z</time>
      </trkpt>
      <trkpt lat="44.00316" lon="5.90748">
        <ele>697</ele>
        <time>2020-10-05T11:41:17.000Z</time>
      </trkpt>
      <trkpt lat="44.00317" lon="5.90748">
        <ele>697</ele>
        <time>2020-10-05T11:41:18.000Z</time>
      </trkpt>
      <trkpt lat="44.00318" lon="5.90748">
        <ele>697</ele>
        <time>2020-10-05T11:41:19.000Z</time>
      </trkpt>
      <trkpt lat="44.00319" lon="5.90749">
        <ele>697</ele>
        <time>2020-10-05T11:41:20.000Z</time>
      </trkpt>
      <trkpt lat="44.0032" lon="5.90749">
        <ele>697</ele>
        <time>2020-10-05T11:41:21.000Z</time>
      </trkpt>
      <trkpt lat="44.00321" lon="5.9075">
        <ele>697</ele>
        <time>2020-10-05T11:41:22.000Z</time>
      </trkpt>
      <trkpt lat="44.00322" lon="5.90751">
        <ele>697</ele>
        <time>2020-10-05T11:41:23.000Z</time>
      </trkpt>
      <trkpt lat="44.00323" lon="5.90752">
        <ele>697</ele>
        <time>2020-10-05T11:41:24.000Z</time>
      </trkpt>
      <trkpt lat="44.00324" lon="5.90752">
        <ele>697</ele>
        <time>2020-10-05T11:41:25.000Z</time>
      </trkpt>
      <trkpt lat="44.00325" lon="5.90753">
        <ele>697</ele>
        <time>2020-10-05T11:41:26.000Z</time>
      </trkpt>
      <trkpt lat="44.00326" lon="5.90754">
        <ele>698</ele>
        <time>2020-10-05T11:41:27.000Z</time>
      </trkpt>
      <trkpt lat="44.00326" lon="5.90754">
        <ele>698</ele>
        <time>2020-10-05T11:41:28.000Z</time>
      </trkpt>
      <trkpt lat="44.00327" lon="5.90755">
        <ele>698</ele>
        <time>2020-10-05T11:41:29.000Z</time>
      </trkpt>
      <trkpt lat="44.00328" lon="5.90756">
        <ele>698</ele>
        <time>2020-10-05T11:41:30.000Z</time>
      </trkpt>
      <trkpt lat="44.00329" lon="5.90756">
        <ele>698</ele>
        <time>2020-10-05T11:41:31.000Z</time>
      </trkpt>
      <trkpt lat="44.0033" lon="5.90756">
        <ele>698</ele>
        <time>2020-10-05T11:41:32.000Z</time>
      </trkpt>
      <trkpt lat="44.00331" lon="5.90756">
        <ele>698</ele>
        <time>2020-10-05T11:41:33.000Z</time>
      </trkpt>
      <trkpt lat="44.00332" lon="5.90757">
        <ele>698</ele>
        <time>2020-10-05T11:41:34.000Z</time>
      </trkpt>
      <trkpt lat="44.00333" lon="5.90757">
        <ele>698</ele>
        <time>2020-10-05T11:41:35.000Z</time>
      </trkpt>
      <trkpt lat="44.00333" lon="5.90758">
        <ele>698</ele>
        <time>2020-10-05T11:41:36.000Z</time>
      </trkpt>
      <trkpt lat="44.00334" lon="5.90758">
        <ele>698</ele>
        <time>2020-10-05T11:41:37.000Z</time>
      </trkpt>
      <trkpt lat="44.00335" lon="5.90758">
        <ele>698</ele>
        <time>2020-10-05T11:41:38.000Z</time>
      </trkpt>
      <trkpt lat="44.00336" lon="5.90759">
        <ele>698</ele>
        <time>2020-10-05T11:41:39.000Z</time>
      </trkpt>
      <trkpt lat="44.00337" lon="5.90759">
        <ele>698</ele>
        <time>2020-10-05T11:41:40.000Z</time>
      </trkpt>
      <trkpt lat="44.00337" lon="5.9076">
        <ele>698</ele>
        <time>2020-10-05T11:41:41.000Z</time>
      </trkpt>
      <trkpt lat="44.00338" lon="5.90761">
        <ele>699</ele>
        <time>2020-10-05T11:41:42.000Z</time>
      </trkpt>
      <trkpt lat="44.00339" lon="5.90761">
        <ele>699</ele>
        <time>2020-10-05T11:41:43.000Z</time>
      </trkpt>
      <trkpt lat="44.00339" lon="5.90762">
        <ele>699</ele>
        <time>2020-10-05T11:41:44.000Z</time>
      </trkpt>
      <trkpt lat="44.0034" lon="5.90762">
        <ele>699</ele>
        <time>2020-10-05T11:41:45.000Z</time>
      </trkpt>
      <trkpt lat="44.0034" lon="5.90763">
        <ele>699</ele>
        <time>2020-10-05T11:41:46.000Z</time>
      </trkpt>
      <trkpt lat="44.00341" lon="5.90764">
        <ele>699</ele>
        <time>2020-10-05T11:41:47.000Z</time>
      </trkpt>
      <trkpt lat="44.00342" lon="5.90764">
        <ele>699</ele>
        <time>2020-10-05T11:41:48.000Z</time>
      </trkpt>
      <trkpt lat="44.00342" lon="5.90764">
        <ele>699</ele>
        <time>2020-10-05T11:41:49.000Z</time>
      </trkpt>
      <trkpt lat="44.00343" lon="5.90765">
        <ele>699</ele>
        <time>2020-10-05T11:41:50.000Z</time>
      </trkpt>
      <trkpt lat="44.00343" lon="5.90765">
        <ele>699</ele>
        <time>2020-10-05T11:41:51.000Z</time>
      </trkpt>
      <trkpt lat="44.00344" lon="5.90765">
        <ele>699</ele>
        <time>2020-10-05T11:41:52.000Z</time>
      </trkpt>
      <trkpt lat="44.00344" lon="5.90766">
        <ele>699</ele>
        <time>2020-10-05T11:41:53.000Z</time>
      </trkpt>
      <trkpt lat="44.00345" lon="5.90766">
        <ele>699</ele>
        <time>2020-10-05T11:41:54.000Z</time>
      </trkpt>
      <trkpt lat="44.00346" lon="5.90767">
        <ele>699</ele>
        <time>2020-10-05T11:41:55.000Z</time>
      </trkpt>
      <trkpt lat="44.00346" lon="5.90767">
        <ele>700</ele>
        <time>2020-10-05T11:41:56.000Z</time>
      </trkpt>
      <trkpt lat="44.00347" lon="5.90768">
        <ele>700</ele>
        <time>2020-10-05T11:41:57.000Z</time>
      </trkpt>
      <trkpt lat="44.00348" lon="5.90769">
        <ele>700</ele>
        <time>2020-10-05T11:41:58.000Z</time>
      </trkpt>
      <trkpt lat="44.00348" lon="5.90769">
        <ele>700</ele>
        <time>2020-10-05T11:41:59.000Z</time>
      </trkpt>
      <trkpt lat="44.00349" lon="5.9077">
        <ele>700</ele>
        <time>2020-10-05T11:42:00.000Z</time>
      </trkpt>
      <trkpt lat="44.0035" lon="5.90771">
        <ele>700</ele>
        <time>2020-10-05T11:42:01.000Z</time>
      </trkpt>
      <trkpt lat="44.00351" lon="5.90771">
        <ele>700</ele>
        <time>2020-10-05T11:42:02.000Z</time>
      </trkpt>
      <trkpt lat="44.00351" lon="5.90772">
        <ele>700</ele>
        <time>2020-10-05T11:42:03.000Z</time>
      </trkpt>
      <trkpt lat="44.00352" lon="5.90772">
        <ele>700</ele>
        <time>2020-10-05T11:42:04.000Z</time>
      </trkpt>
      <trkpt lat="44.00352" lon="5.90773">
        <ele>700</ele>
        <time>2020-10-05T11:42:05.000Z</time>
      </trkpt>
      <trkpt lat="44.00352" lon="5.90773">
        <ele>700</ele>
        <time>2020-10-05T11:42:06.000Z</time>
      </trkpt>
      <trkpt lat="44.00352" lon="5.90774">
        <ele>700</ele>
        <time>2020-10-05T11:42:07.000Z</time>
      </trkpt>
      <trkpt lat="44.00353" lon="5.90775">
        <ele>700</ele>
        <time>2020-10-05T11:42:08.000Z</time>
      </trkpt>
      <trkpt lat="44.00353" lon="5.90775">
        <ele>700</ele>
        <time>2020-10-05T11:42:09.000Z</time>
      </trkpt>
      <trkpt lat="44.00353" lon="5.90776">
        <ele>700</ele>
        <time>2020-10-05T11:42:10.000Z</time>
      </trkpt>
      <trkpt lat="44.00353" lon="5.90777">
        <ele>700</ele>
        <time>2020-10-05T11:42:11.000Z</time>
      </trkpt>
      <trkpt lat="44.00353" lon="5.90777">
        <ele>701</ele>
        <time>2020-10-05T11:42:12.000Z</time>
      </trkpt>
      <trkpt lat="44.00353" lon="5.90777">
        <ele>701</ele>
        <time>2020-10-05T11:42:13.000Z</time>
      </trkpt>
      <trkpt lat="44.00353" lon="5.90777">
        <ele>700</ele>
        <time>2020-10-05T11:42:14.000Z</time>
      </trkpt>
      <trkpt lat="44.00353" lon="5.90777">
        <ele>700</ele>
        <time>2020-10-05T11:42:15.000Z</time>
      </trkpt>
      <trkpt lat="44.00353" lon="5.90777">
        <ele>700</ele>
        <time>2020-10-05T11:42:16.000Z</time>
      </trkpt>
      <trkpt lat="44.00353" lon="5.90778">
        <ele>700</ele>
        <time>2020-10-05T11:42:17.000Z</time>
      </trkpt>
      <trkpt lat="44.00353" lon="5.90778">
        <ele>700</ele>
        <time>2020-10-05T11:42:18.000Z</time>
      </trkpt>
      <trkpt lat="44.00353" lon="5.90778">
        <ele>700</ele>
        <time>2020-10-05T11:42:19.000Z</time>
      </trkpt>
      <trkpt lat="44.00353" lon="5.90778">
        <ele>700</ele>
        <time>2020-10-05T11:42:20.000Z</time>
      </trkpt>
      <trkpt lat="44.00353" lon="5.90778">
        <ele>700</ele>
        <time>2020-10-05T11:42:21.000Z</time>
      </trkpt>
      <trkpt lat="44.00353" lon="5.90778">
        <ele>700</ele>
        <time>2020-10-05T11:42:22.000Z</time>
      </trkpt>
      <trkpt lat="44.00353" lon="5.90778">
        <ele>700</ele>
        <time>2020-10-05T11:42:23.000Z</time>
      </trkpt>
      <trkpt lat="44.00353" lon="5.90779">
        <ele>700</ele>
        <time>2020-10-05T11:42:24.000Z</time>
      </trkpt>
      <trkpt lat="44.00353" lon="5.90779">
        <ele>700</ele>
        <time>2020-10-05T11:42:25.000Z</time>
      </trkpt>
      <trkpt lat="44.00353" lon="5.90779">
        <ele>700</ele>
        <time>2020-10-05T11:42:26.000Z</time>
      </trkpt>
      <trkpt lat="44.00353" lon="5.90779">
        <ele>700</ele>
        <time>2020-10-05T11:42:27.000Z</time>
      </trkpt>
      <trkpt lat="44.00353" lon="5.90779">
        <ele>700</ele>
        <time>2020-10-05T11:42:28.000Z</time>
      </trkpt>
      <trkpt lat="44.00353" lon="5.90779">
        <ele>700</ele>
        <time>2020-10-05T11:42:29.000Z</time>
      </trkpt>
      <trkpt lat="44.00353" lon="5.90779">
        <ele>700</ele>
        <time>2020-10-05T11:42:30.000Z</time>
      </trkpt>
      <trkpt lat="44.00353" lon="5.9078">
        <ele>700</ele>
        <time>2020-10-05T11:42:31.000Z</time>
      </trkpt>
      <trkpt lat="44.00353" lon="5.9078">
        <ele>700</ele>
        <time>2020-10-05T11:42:32.000Z</time>
      </trkpt>
      <trkpt lat="44.00353" lon="5.9078">
        <ele>700</ele>
        <time>2020-10-05T11:42:33.000Z</time>
      </trkpt>
      <trkpt lat="44.00353" lon="5.9078">
        <ele>700</ele>
        <time>2020-10-05T11:42:34.000Z</time>
      </trkpt>
      <trkpt lat="44.00353" lon="5.9078">
        <ele>700</ele>
        <time>2020-10-05T11:42:35.000Z</time>
      </trkpt>
      <trkpt lat="44.00353" lon="5.9078">
        <ele>700</ele>
        <time>2020-10-05T11:42:36.000Z</time>
      </trkpt>
      <trkpt lat="44.00353" lon="5.9078">
        <ele>700</ele>
        <time>2020-10-05T11:42:37.000Z</time>
      </trkpt>
      <trkpt lat="44.00353" lon="5.9078">
        <ele>700</ele>
        <time>2020-10-05T11:42:38.000Z</time>
      </trkpt>
      <trkpt lat="44.00353" lon="5.9078">
        <ele>700</ele>
        <time>2020-10-05T11:42:39.000Z</time>
      </trkpt>
      <trkpt lat="44.00353" lon="5.9078">
        <ele>700</ele>
        <time>2020-10-05T11:42:40.000Z</time>
      </trkpt>
      <trkpt lat="44.00353" lon="5.90781">
        <ele>700</ele>
        <time>2020-10-05T11:42:41.000Z</time>
      </trkpt>
      <trkpt lat="44.00352" lon="5.90781">
        <ele>701</ele>
        <time>2020-10-05T11:42:42.000Z</time>
      </trkpt>
      <trkpt lat="44.00352" lon="5.90781">
        <ele>701</ele>
        <time>2020-10-05T11:42:43.000Z</time>
      </trkpt>
      <trkpt lat="44.00352" lon="5.90781">
        <ele>701</ele>
        <time>2020-10-05T11:42:44.000Z</time>
      </trkpt>
      <trkpt lat="44.00352" lon="5.90781">
        <ele>701</ele>
        <time>2020-10-05T11:42:45.000Z</time>
      </trkpt>
      <trkpt lat="44.00352" lon="5.90781">
        <ele>701</ele>
        <time>2020-10-05T11:42:46.000Z</time>
      </trkpt>
      <trkpt lat="44.00352" lon="5.90781">
        <ele>701</ele>
        <time>2020-10-05T11:42:47.000Z</time>
      </trkpt>
      <trkpt lat="44.00352" lon="5.90782">
        <ele>701</ele>
        <time>2020-10-05T11:42:48.000Z</time>
      </trkpt>
      <trkpt lat="44.00352" lon="5.90782">
        <ele>701</ele>
        <time>2020-10-05T11:42:49.000Z</time>
      </trkpt>
      <trkpt lat="44.00352" lon="5.90782">
        <ele>700</ele>
        <time>2020-10-05T11:42:50.000Z</time>
      </trkpt>
      <trkpt lat="44.00352" lon="5.90782">
        <ele>700</ele>
        <time>2020-10-05T11:42:51.000Z</time>
      </trkpt>
      <trkpt lat="44.00352" lon="5.90782">
        <ele>700</ele>
        <time>2020-10-05T11:42:52.000Z</time>
      </trkpt>
      <trkpt lat="44.00352" lon="5.90783">
        <ele>701</ele>
        <time>2020-10-05T11:42:53.000Z</time>
      </trkpt>
      <trkpt lat="44.00351" lon="5.90783">
        <ele>701</ele>
        <time>2020-10-05T11:42:54.000Z</time>
      </trkpt>
      <trkpt lat="44.00351" lon="5.90784">
        <ele>701</ele>
        <time>2020-10-05T11:42:55.000Z</time>
      </trkpt>
      <trkpt lat="44.00351" lon="5.90784">
        <ele>701</ele>
        <time>2020-10-05T11:42:56.000Z</time>
      </trkpt>
      <trkpt lat="44.00351" lon="5.90785">
        <ele>701</ele>
        <time>2020-10-05T11:42:57.000Z</time>
      </trkpt>
      <trkpt lat="44.00351" lon="5.90786">
        <ele>701</ele>
        <time>2020-10-05T11:42:58.000Z</time>
      </trkpt>
      <trkpt lat="44.00351" lon="5.90786">
        <ele>701</ele>
        <time>2020-10-05T11:42:59.000Z</time>
      </trkpt>
      <trkpt lat="44.0035" lon="5.90787">
        <ele>701</ele>
        <time>2020-10-05T11:43:00.000Z</time>
      </trkpt>
      <trkpt lat="44.0035" lon="5.90788">
        <ele>701</ele>
        <time>2020-10-05T11:43:01.000Z</time>
      </trkpt>
      <trkpt lat="44.0035" lon="5.90788">
        <ele>701</ele>
        <time>2020-10-05T11:43:02.000Z</time>
      </trkpt>
      <trkpt lat="44.0035" lon="5.90789">
        <ele>701</ele>
        <time>2020-10-05T11:43:03.000Z</time>
      </trkpt>
      <trkpt lat="44.0035" lon="5.9079">
        <ele>701</ele>
        <time>2020-10-05T11:43:04.000Z</time>
      </trkpt>
      <trkpt lat="44.00351" lon="5.90791">
        <ele>701</ele>
        <time>2020-10-05T11:43:05.000Z</time>
      </trkpt>
      <trkpt lat="44.00351" lon="5.90792">
        <ele>701</ele>
        <time>2020-10-05T11:43:06.000Z</time>
      </trkpt>
      <trkpt lat="44.00351" lon="5.90794">
        <ele>701</ele>
        <time>2020-10-05T11:43:07.000Z</time>
      </trkpt>
      <trkpt lat="44.00352" lon="5.90795">
        <ele>701</ele>
        <time>2020-10-05T11:43:08.000Z</time>
      </trkpt>
      <trkpt lat="44.00353" lon="5.90796">
        <ele>701</ele>
        <time>2020-10-05T11:43:09.000Z</time>
      </trkpt>
      <trkpt lat="44.00354" lon="5.90797">
        <ele>701</ele>
        <time>2020-10-05T11:43:10.000Z</time>
      </trkpt>
      <trkpt lat="44.00355" lon="5.90799">
        <ele>701</ele>
        <time>2020-10-05T11:43:11.000Z</time>
      </trkpt>
      <trkpt lat="44.00356" lon="5.908">
        <ele>701</ele>
        <time>2020-10-05T11:43:12.000Z</time>
      </trkpt>
      <trkpt lat="44.00357" lon="5.90801">
        <ele>701</ele>
        <time>2020-10-05T11:43:13.000Z</time>
      </trkpt>
      <trkpt lat="44.00358" lon="5.90802">
        <ele>701</ele>
        <time>2020-10-05T11:43:14.000Z</time>
      </trkpt>
      <trkpt lat="44.00358" lon="5.90803">
        <ele>701</ele>
        <time>2020-10-05T11:43:15.000Z</time>
      </trkpt>
      <trkpt lat="44.00359" lon="5.90804">
        <ele>701</ele>
        <time>2020-10-05T11:43:16.000Z</time>
      </trkpt>
      <trkpt lat="44.0036" lon="5.90805">
        <ele>701</ele>
        <time>2020-10-05T11:43:17.000Z</time>
      </trkpt>
      <trkpt lat="44.00361" lon="5.90806">
        <ele>701</ele>
        <time>2020-10-05T11:43:18.000Z</time>
      </trkpt>
      <trkpt lat="44.00361" lon="5.90807">
        <ele>701</ele>
        <time>2020-10-05T11:43:19.000Z</time>
      </trkpt>
      <trkpt lat="44.00362" lon="5.90808">
        <ele>701</ele>
        <time>2020-10-05T11:43:20.000Z</time>
      </trkpt>
      <trkpt lat="44.00363" lon="5.90808">
        <ele>701</ele>
        <time>2020-10-05T11:43:21.000Z</time>
      </trkpt>
      <trkpt lat="44.00364" lon="5.90808">
        <ele>701</ele>
        <time>2020-10-05T11:43:22.000Z</time>
      </trkpt>
      <trkpt lat="44.00365" lon="5.90808">
        <ele>701</ele>
        <time>2020-10-05T11:43:23.000Z</time>
      </trkpt>
      <trkpt lat="44.00366" lon="5.90807">
        <ele>701</ele>
        <time>2020-10-05T11:43:24.000Z</time>
      </trkpt>
      <trkpt lat="44.00367" lon="5.90807">
        <ele>701</ele>
        <time>2020-10-05T11:43:25.000Z</time>
      </trkpt>
      <trkpt lat="44.00368" lon="5.90807">
        <ele>701</ele>
        <time>2020-10-05T11:43:26.000Z</time>
      </trkpt>
      <trkpt lat="44.00369" lon="5.90806">
        <ele>701</ele>
        <time>2020-10-05T11:43:27.000Z</time>
      </trkpt>
      <trkpt lat="44.00369" lon="5.90805">
        <ele>701</ele>
        <time>2020-10-05T11:43:28.000Z</time>
      </trkpt>
      <trkpt lat="44.0037" lon="5.90805">
        <ele>701</ele>
        <time>2020-10-05T11:43:29.000Z</time>
      </trkpt>
      <trkpt lat="44.00371" lon="5.90804">
        <ele>701</ele>
        <time>2020-10-05T11:43:30.000Z</time>
      </trkpt>
      <trkpt lat="44.00372" lon="5.90804">
        <ele>701</ele>
        <time>2020-10-05T11:43:31.000Z</time>
      </trkpt>
      <trkpt lat="44.00372" lon="5.90804">
        <ele>701</ele>
        <time>2020-10-05T11:43:32.000Z</time>
      </trkpt>
      <trkpt lat="44.00373" lon="5.90804">
        <ele>701</ele>
        <time>2020-10-05T11:43:33.000Z</time>
      </trkpt>
      <trkpt lat="44.00373" lon="5.90805">
        <ele>701</ele>
        <time>2020-10-05T11:43:34.000Z</time>
      </trkpt>
      <trkpt lat="44.00373" lon="5.90804">
        <ele>701</ele>
        <time>2020-10-05T11:43:35.000Z</time>
      </trkpt>
      <trkpt lat="44.00374" lon="5.90804">
        <ele>701</ele>
        <time>2020-10-05T11:43:36.000Z</time>
      </trkpt>
      <trkpt lat="44.00374" lon="5.90804">
        <ele>701</ele>
        <time>2020-10-05T11:43:37.000Z</time>
      </trkpt>
      <trkpt lat="44.00374" lon="5.90804">
        <ele>701</ele>
        <time>2020-10-05T11:43:38.000Z</time>
      </trkpt>
      <trkpt lat="44.00374" lon="5.90804">
        <ele>701</ele>
        <time>2020-10-05T11:43:39.000Z</time>
      </trkpt>
      <trkpt lat="44.00374" lon="5.90804">
        <ele>701</ele>
        <time>2020-10-05T11:43:40.000Z</time>
      </trkpt>
      <trkpt lat="44.00374" lon="5.90803">
        <ele>701</ele>
        <time>2020-10-05T11:43:41.000Z</time>
      </trkpt>
      <trkpt lat="44.00374" lon="5.90803">
        <ele>701</ele>
        <time>2020-10-05T11:43:42.000Z</time>
      </trkpt>
      <trkpt lat="44.00374" lon="5.90803">
        <ele>701</ele>
        <time>2020-10-05T11:43:43.000Z</time>
      </trkpt>
      <trkpt lat="44.00374" lon="5.90803">
        <ele>701</ele>
        <time>2020-10-05T11:43:44.000Z</time>
      </trkpt>
      <trkpt lat="44.00374" lon="5.90803">
        <ele>701</ele>
        <time>2020-10-05T11:43:45.000Z</time>
      </trkpt>
      <trkpt lat="44.00374" lon="5.90803">
        <ele>701</ele>
        <time>2020-10-05T11:43:46.000Z</time>
      </trkpt>
      <trkpt lat="44.00374" lon="5.90803">
        <ele>701</ele>
        <time>2020-10-05T11:43:47.000Z</time>
      </trkpt>
      <trkpt lat="44.00374" lon="5.90803">
        <ele>701</ele>
        <time>2020-10-05T11:43:48.000Z</time>
      </trkpt>
      <trkpt lat="44.00374" lon="5.90803">
        <ele>701</ele>
        <time>2020-10-05T11:43:49.000Z</time>
      </trkpt>
      <trkpt lat="44.00374" lon="5.90803">
        <ele>701</ele>
        <time>2020-10-05T11:43:50.000Z</time>
      </trkpt>
      <trkpt lat="44.00374" lon="5.90803">
        <ele>701</ele>
        <time>2020-10-05T11:43:51.000Z</time>
      </trkpt>
      <trkpt lat="44.00374" lon="5.90803">
        <ele>701</ele>
        <time>2020-10-05T11:43:52.000Z</time>
      </trkpt>
      <trkpt lat="44.00374" lon="5.90803">
        <ele>701</ele>
        <time>2020-10-05T11:43:53.000Z</time>
      </trkpt>
      <trkpt lat="44.00374" lon="5.90803">
        <ele>701</ele>
        <time>2020-10-05T11:43:54.000Z</time>
      </trkpt>
      <trkpt lat="44.00374" lon="5.90803">
        <ele>701</ele>
        <time>2020-10-05T11:43:55.000Z</time>
      </trkpt>
      <trkpt lat="44.00374" lon="5.90803">
        <ele>701</ele>
        <time>2020-10-05T11:43:56.000Z</time>
      </trkpt>
      <trkpt lat="44.00374" lon="5.90803">
        <ele>701</ele>
        <time>2020-10-05T11:43:57.000Z</time>
      </trkpt>
      <trkpt lat="44.00374" lon="5.90803">
        <ele>701</ele>
        <time>2020-10-05T11:43:58.000Z</time>
      </trkpt>
      <trkpt lat="44.00375" lon="5.90803">
        <ele>701</ele>
        <time>2020-10-05T11:43:59.000Z</time>
      </trkpt>
      <trkpt lat="44.00375" lon="5.90803">
        <ele>701</ele>
        <time>2020-10-05T11:44:00.000Z</time>
      </trkpt>
      <trkpt lat="44.00375" lon="5.90803">
        <ele>701</ele>
        <time>2020-10-05T11:44:01.000Z</time>
      </trkpt>
      <trkpt lat="44.00375" lon="5.90803">
        <ele>701</ele>
        <time>2020-10-05T11:44:02.000Z</time>
      </trkpt>
      <trkpt lat="44.00375" lon="5.90803">
        <ele>701</ele>
        <time>2020-10-05T11:44:03.000Z</time>
      </trkpt>
      <trkpt lat="44.00375" lon="5.90803">
        <ele>701</ele>
        <time>2020-10-05T11:44:04.000Z</time>
      </trkpt>
      <trkpt lat="44.00375" lon="5.90803">
        <ele>701</ele>
        <time>2020-10-05T11:44:05.000Z</time>
      </trkpt>
      <trkpt lat="44.00375" lon="5.90803">
        <ele>701</ele>
        <time>2020-10-05T11:44:06.000Z</time>
      </trkpt>
      <trkpt lat="44.00375" lon="5.90803">
        <ele>701</ele>
        <time>2020-10-05T11:44:07.000Z</time>
      </trkpt>
      <trkpt lat="44.00375" lon="5.90803">
        <ele>701</ele>
        <time>2020-10-05T11:44:08.000Z</time>
      </trkpt>
      <trkpt lat="44.00375" lon="5.90804">
        <ele>701</ele>
        <time>2020-10-05T11:44:09.000Z</time>
      </trkpt>
      <trkpt lat="44.00375" lon="5.90804">
        <ele>701</ele>
        <time>2020-10-05T11:44:10.000Z</time>
      </trkpt>
      <trkpt lat="44.00375" lon="5.90804">
        <ele>701</ele>
        <time>2020-10-05T11:44:11.000Z</time>
      </trkpt>
      <trkpt lat="44.00375" lon="5.90804">
        <ele>701</ele>
        <time>2020-10-05T11:44:12.000Z</time>
      </trkpt>
      <trkpt lat="44.00375" lon="5.90804">
        <ele>701</ele>
        <time>2020-10-05T11:44:13.000Z</time>
      </trkpt>
      <trkpt lat="44.00375" lon="5.90804">
        <ele>701</ele>
        <time>2020-10-05T11:44:14.000Z</time>
      </trkpt>
      <trkpt lat="44.00375" lon="5.90803">
        <ele>701</ele>
        <time>2020-10-05T11:44:15.000Z</time>
      </trkpt>
      <trkpt lat="44.00375" lon="5.90804">
        <ele>701</ele>
        <time>2020-10-05T11:44:16.000Z</time>
      </trkpt>
      <trkpt lat="44.00375" lon="5.90804">
        <ele>701</ele>
        <time>2020-10-05T11:44:17.000Z</time>
      </trkpt>
      <trkpt lat="44.00375" lon="5.90804">
        <ele>701</ele>
        <time>2020-10-05T11:44:18.000Z</time>
      </trkpt>
      <trkpt lat="44.00375" lon="5.90804">
        <ele>702</ele>
        <time>2020-10-05T11:44:19.000Z</time>
      </trkpt>
      <trkpt lat="44.00375" lon="5.90804">
        <ele>702</ele>
        <time>2020-10-05T11:44:20.000Z</time>
      </trkpt>
      <trkpt lat="44.00375" lon="5.90804">
        <ele>702</ele>
        <time>2020-10-05T11:44:21.000Z</time>
      </trkpt>
      <trkpt lat="44.00375" lon="5.90804">
        <ele>702</ele>
        <time>2020-10-05T11:44:22.000Z</time>
      </trkpt>
      <trkpt lat="44.00375" lon="5.90804">
        <ele>702</ele>
        <time>2020-10-05T11:44:23.000Z</time>
      </trkpt>
      <trkpt lat="44.00375" lon="5.90804">
        <ele>702</ele>
        <time>2020-10-05T11:44:24.000Z</time>
      </trkpt>
      <trkpt lat="44.00375" lon="5.90804">
        <ele>702</ele>
        <time>2020-10-05T11:44:25.000Z</time>
      </trkpt>
      <trkpt lat="44.00375" lon="5.90803">
        <ele>702</ele>
        <time>2020-10-05T11:44:26.000Z</time>
      </trkpt>
      <trkpt lat="44.00375" lon="5.90803">
        <ele>702</ele>
        <time>2020-10-05T11:44:27.000Z</time>
      </trkpt>
      <trkpt lat="44.00375" lon="5.90803">
        <ele>702</ele>
        <time>2020-10-05T11:44:28.000Z</time>
      </trkpt>
      <trkpt lat="44.00375" lon="5.90803">
        <ele>702</ele>
        <time>2020-10-05T11:44:29.000Z</time>
      </trkpt>
      <trkpt lat="44.00375" lon="5.90803">
        <ele>702</ele>
        <time>2020-10-05T11:44:30.000Z</time>
      </trkpt>
      <trkpt lat="44.00375" lon="5.90803">
        <ele>702</ele>
        <time>2020-10-05T11:44:31.000Z</time>
      </trkpt>
      <trkpt lat="44.00376" lon="5.90803">
        <ele>702</ele>
        <time>2020-10-05T11:44:32.000Z</time>
      </trkpt>
      <trkpt lat="44.00376" lon="5.90803">
        <ele>702</ele>
        <time>2020-10-05T11:44:33.000Z</time>
      </trkpt>
      <trkpt lat="44.00376" lon="5.90803">
        <ele>702</ele>
        <time>2020-10-05T11:44:34.000Z</time>
      </trkpt>
      <trkpt lat="44.00376" lon="5.90803">
        <ele>702</ele>
        <time>2020-10-05T11:44:35.000Z</time>
      </trkpt>
      <trkpt lat="44.00376" lon="5.90803">
        <ele>702</ele>
        <time>2020-10-05T11:44:36.000Z</time>
      </trkpt>
      <trkpt lat="44.00376" lon="5.90803">
        <ele>702</ele>
        <time>2020-10-05T11:44:37.000Z</time>
      </trkpt>
      <trkpt lat="44.00376" lon="5.90803">
        <ele>702</ele>
        <time>2020-10-05T11:44:38.000Z</time>
      </trkpt>
      <trkpt lat="44.00376" lon="5.90803">
        <ele>702</ele>
        <time>2020-10-05T11:44:39.000Z</time>
      </trkpt>
      <trkpt lat="44.00376" lon="5.90803">
        <ele>702</ele>
        <time>2020-10-05T11:44:40.000Z</time>
      </trkpt>
      <trkpt lat="44.00376" lon="5.90803">
        <ele>702</ele>
        <time>2020-10-05T11:44:41.000Z</time>
      </trkpt>
      <trkpt lat="44.00375" lon="5.90803">
        <ele>702</ele>
        <time>2020-10-05T11:44:42.000Z</time>
      </trkpt>
      <trkpt lat="44.00375" lon="5.90803">
        <ele>702</ele>
        <time>2020-10-05T11:44:43.000Z</time>
      </trkpt>
      <trkpt lat="44.00376" lon="5.90803">
        <ele>702</ele>
        <time>2020-10-05T11:44:44.000Z</time>
      </trkpt>
      <trkpt lat="44.00376" lon="5.90803">
        <ele>702</ele>
        <time>2020-10-05T11:44:45.000Z</time>
      </trkpt>
      <trkpt lat="44.00376" lon="5.90803">
        <ele>702</ele>
        <time>2020-10-05T11:44:46.000Z</time>
      </trkpt>
      <trkpt lat="44.00376" lon="5.90803">
        <ele>702</ele>
        <time>2020-10-05T11:44:47.000Z</time>
      </trkpt>
      <trkpt lat="44.00376" lon="5.90803">
        <ele>702</ele>
        <time>2020-10-05T11:44:48.000Z</time>
      </trkpt>
      <trkpt lat="44.00376" lon="5.90803">
        <ele>702</ele>
        <time>2020-10-05T11:44:49.000Z</time>
      </trkpt>
      <trkpt lat="44.00376" lon="5.90803">
        <ele>702</ele>
        <time>2020-10-05T11:44:50.000Z</time>
      </trkpt>
      <trkpt lat="44.00376" lon="5.90803">
        <ele>702</ele>
        <time>2020-10-05T11:44:51.000Z</time>
      </trkpt>
      <trkpt lat="44.00376" lon="5.90803">
        <ele>702</ele>
        <time>2020-10-05T11:44:52.000Z</time>
      </trkpt>
      <trkpt lat="44.00376" lon="5.90803">
        <ele>702</ele>
        <time>2020-10-05T11:44:53.000Z</time>
      </trkpt>
      <trkpt lat="44.00376" lon="5.90803">
        <ele>702</ele>
        <time>2020-10-05T11:44:54.000Z</time>
      </trkpt>
      <trkpt lat="44.00376" lon="5.90803">
        <ele>702</ele>
        <time>2020-10-05T11:44:55.000Z</time>
      </trkpt>
      <trkpt lat="44.00376" lon="5.90803">
        <ele>702</ele>
        <time>2020-10-05T11:44:56.000Z</time>
      </trkpt>
      <trkpt lat="44.00376" lon="5.90803">
        <ele>702</ele>
        <time>2020-10-05T11:44:57.000Z</time>
      </trkpt>
      <trkpt lat="44.00375" lon="5.90803">
        <ele>702</ele>
        <time>2020-10-05T11:44:58.000Z</time>
      </trkpt>
      <trkpt lat="44.00375" lon="5.90803">
        <ele>702</ele>
        <time>2020-10-05T11:44:59.000Z</time>
      </trkpt>
      <trkpt lat="44.00375" lon="5.90803">
        <ele>702</ele>
        <time>2020-10-05T11:45:00.000Z</time>
      </trkpt>
      <trkpt lat="44.00375" lon="5.90803">
        <ele>702</ele>
        <time>2020-10-05T11:45:01.000Z</time>
      </trkpt>
      <trkpt lat="44.00375" lon="5.90803">
        <ele>702</ele>
        <time>2020-10-05T11:45:02.000Z</time>
      </trkpt>
      <trkpt lat="44.00375" lon="5.90803">
        <ele>702</ele>
        <time>2020-10-05T11:45:03.000Z</time>
      </trkpt>
      <trkpt lat="44.00375" lon="5.90803">
        <ele>702</ele>
        <time>2020-10-05T11:45:04.000Z</time>
      </trkpt>
      <trkpt lat="44.00375" lon="5.90803">
        <ele>702</ele>
        <time>2020-10-05T11:45:05.000Z</time>
      </trkpt>
      <trkpt lat="44.00375" lon="5.90803">
        <ele>702</ele>
        <time>2020-10-05T11:45:06.000Z</time>
      </trkpt>
      <trkpt lat="44.00375" lon="5.90803">
        <ele>702</ele>
        <time>2020-10-05T11:45:07.000Z</time>
      </trkpt>
      <trkpt lat="44.00375" lon="5.90803">
        <ele>702</ele>
        <time>2020-10-05T11:45:08.000Z</time>
      </trkpt>
      <trkpt lat="44.00375" lon="5.90803">
        <ele>702</ele>
        <time>2020-10-05T11:45:09.000Z</time>
      </trkpt>
      <trkpt lat="44.00375" lon="5.90803">
        <ele>702</ele>
        <time>2020-10-05T11:45:10.000Z</time>
      </trkpt>
      <trkpt lat="44.00375" lon="5.90804">
        <ele>702</ele>
        <time>2020-10-05T11:45:11.000Z</time>
      </trkpt>
      <trkpt lat="44.00375" lon="5.90804">
        <ele>702</ele>
        <time>2020-10-05T11:45:12.000Z</time>
      </trkpt>
      <trkpt lat="44.00375" lon="5.90804">
        <ele>702</ele>
        <time>2020-10-05T11:45:13.000Z</time>
      </trkpt>
      <trkpt lat="44.00376" lon="5.90804">
        <ele>702</ele>
        <time>2020-10-05T11:45:14.000Z</time>
      </trkpt>
      <trkpt lat="44.00376" lon="5.90804">
        <ele>702</ele>
        <time>2020-10-05T11:45:15.000Z</time>
      </trkpt>
      <trkpt lat="44.00375" lon="5.90804">
        <ele>702</ele>
        <time>2020-10-05T11:45:16.000Z</time>
      </trkpt>
      <trkpt lat="44.00375" lon="5.90804">
        <ele>702</ele>
        <time>2020-10-05T11:45:17.000Z</time>
      </trkpt>
      <trkpt lat="44.00374" lon="5.90804">
        <ele>702</ele>
        <time>2020-10-05T11:45:18.000Z</time>
      </trkpt>
      <trkpt lat="44.00373" lon="5.90805">
        <ele>702</ele>
        <time>2020-10-05T11:45:19.000Z</time>
      </trkpt>
      <trkpt lat="44.00372" lon="5.90805">
        <ele>702</ele>
        <time>2020-10-05T11:45:20.000Z</time>
      </trkpt>
      <trkpt lat="44.00371" lon="5.90805">
        <ele>702</ele>
        <time>2020-10-05T11:45:21.000Z</time>
      </trkpt>
      <trkpt lat="44.00371" lon="5.90806">
        <ele>702</ele>
        <time>2020-10-05T11:45:22.000Z</time>
      </trkpt>
      <trkpt lat="44.0037" lon="5.90806">
        <ele>702</ele>
        <time>2020-10-05T11:45:23.000Z</time>
      </trkpt>
      <trkpt lat="44.00369" lon="5.90807">
        <ele>702</ele>
        <time>2020-10-05T11:45:24.000Z</time>
      </trkpt>
      <trkpt lat="44.00369" lon="5.90808">
        <ele>702</ele>
        <time>2020-10-05T11:45:25.000Z</time>
      </trkpt>
      <trkpt lat="44.00368" lon="5.90808">
        <ele>702</ele>
        <time>2020-10-05T11:45:26.000Z</time>
      </trkpt>
      <trkpt lat="44.00368" lon="5.9081">
        <ele>702</ele>
        <time>2020-10-05T11:45:27.000Z</time>
      </trkpt>
      <trkpt lat="44.00368" lon="5.90811">
        <ele>702</ele>
        <time>2020-10-05T11:45:28.000Z</time>
      </trkpt>
      <trkpt lat="44.00369" lon="5.90812">
        <ele>702</ele>
        <time>2020-10-05T11:45:29.000Z</time>
      </trkpt>
      <trkpt lat="44.00369" lon="5.90812">
        <ele>702</ele>
        <time>2020-10-05T11:45:30.000Z</time>
      </trkpt>
      <trkpt lat="44.00369" lon="5.90813">
        <ele>702</ele>
        <time>2020-10-05T11:45:31.000Z</time>
      </trkpt>
      <trkpt lat="44.0037" lon="5.90813">
        <ele>702</ele>
        <time>2020-10-05T11:45:32.000Z</time>
      </trkpt>
      <trkpt lat="44.0037" lon="5.90814">
        <ele>702</ele>
        <time>2020-10-05T11:45:33.000Z</time>
      </trkpt>
      <trkpt lat="44.00371" lon="5.90815">
        <ele>702</ele>
        <time>2020-10-05T11:45:34.000Z</time>
      </trkpt>
      <trkpt lat="44.00371" lon="5.90815">
        <ele>702</ele>
        <time>2020-10-05T11:45:35.000Z</time>
      </trkpt>
      <trkpt lat="44.00372" lon="5.90816">
        <ele>702</ele>
        <time>2020-10-05T11:45:36.000Z</time>
      </trkpt>
      <trkpt lat="44.00373" lon="5.90817">
        <ele>702</ele>
        <time>2020-10-05T11:45:37.000Z</time>
      </trkpt>
      <trkpt lat="44.00374" lon="5.90818">
        <ele>702</ele>
        <time>2020-10-05T11:45:38.000Z</time>
      </trkpt>
      <trkpt lat="44.00375" lon="5.90819">
        <ele>702</ele>
        <time>2020-10-05T11:45:39.000Z</time>
      </trkpt>
      <trkpt lat="44.00375" lon="5.90819">
        <ele>702</ele>
        <time>2020-10-05T11:45:40.000Z</time>
      </trkpt>
      <trkpt lat="44.00376" lon="5.9082">
        <ele>702</ele>
        <time>2020-10-05T11:45:41.000Z</time>
      </trkpt>
      <trkpt lat="44.00377" lon="5.90821">
        <ele>702</ele>
        <time>2020-10-05T11:45:42.000Z</time>
      </trkpt>
      <trkpt lat="44.00378" lon="5.90822">
        <ele>702</ele>
        <time>2020-10-05T11:45:43.000Z</time>
      </trkpt>
      <trkpt lat="44.00378" lon="5.90824">
        <ele>702</ele>
        <time>2020-10-05T11:45:44.000Z</time>
      </trkpt>
      <trkpt lat="44.00379" lon="5.90824">
        <ele>702</ele>
        <time>2020-10-05T11:45:45.000Z</time>
      </trkpt>
      <trkpt lat="44.0038" lon="5.90825">
        <ele>702</ele>
        <time>2020-10-05T11:45:46.000Z</time>
      </trkpt>
      <trkpt lat="44.00381" lon="5.90826">
        <ele>702</ele>
        <time>2020-10-05T11:45:47.000Z</time>
      </trkpt>
      <trkpt lat="44.00382" lon="5.90827">
        <ele>702</ele>
        <time>2020-10-05T11:45:48.000Z</time>
      </trkpt>
      <trkpt lat="44.00383" lon="5.90828">
        <ele>702</ele>
        <time>2020-10-05T11:45:49.000Z</time>
      </trkpt>
      <trkpt lat="44.00383" lon="5.9083">
        <ele>702</ele>
        <time>2020-10-05T11:45:50.000Z</time>
      </trkpt>
      <trkpt lat="44.00384" lon="5.90831">
        <ele>702</ele>
        <time>2020-10-05T11:45:51.000Z</time>
      </trkpt>
      <trkpt lat="44.00385" lon="5.90832">
        <ele>702</ele>
        <time>2020-10-05T11:45:52.000Z</time>
      </trkpt>
      <trkpt lat="44.00385" lon="5.90833">
        <ele>702</ele>
        <time>2020-10-05T11:45:53.000Z</time>
      </trkpt>
      <trkpt lat="44.00386" lon="5.90835">
        <ele>702</ele>
        <time>2020-10-05T11:45:54.000Z</time>
      </trkpt>
      <trkpt lat="44.00386" lon="5.90836">
        <ele>702</ele>
        <time>2020-10-05T11:45:55.000Z</time>
      </trkpt>
      <trkpt lat="44.00387" lon="5.90837">
        <ele>702</ele>
        <time>2020-10-05T11:45:56.000Z</time>
      </trkpt>
      <trkpt lat="44.00387" lon="5.90838">
        <ele>702</ele>
        <time>2020-10-05T11:45:57.000Z</time>
      </trkpt>
      <trkpt lat="44.00388" lon="5.90839">
        <ele>702</ele>
        <time>2020-10-05T11:45:58.000Z</time>
      </trkpt>
      <trkpt lat="44.00389" lon="5.9084">
        <ele>702</ele>
        <time>2020-10-05T11:45:59.000Z</time>
      </trkpt>
      <trkpt lat="44.0039" lon="5.90841">
        <ele>702</ele>
        <time>2020-10-05T11:46:00.000Z</time>
      </trkpt>
      <trkpt lat="44.0039" lon="5.90841">
        <ele>702</ele>
        <time>2020-10-05T11:46:01.000Z</time>
      </trkpt>
      <trkpt lat="44.00391" lon="5.90842">
        <ele>702</ele>
        <time>2020-10-05T11:46:02.000Z</time>
      </trkpt>
      <trkpt lat="44.00392" lon="5.90842">
        <ele>702</ele>
        <time>2020-10-05T11:46:03.000Z</time>
      </trkpt>
      <trkpt lat="44.00392" lon="5.90843">
        <ele>702</ele>
        <time>2020-10-05T11:46:04.000Z</time>
      </trkpt>
      <trkpt lat="44.00392" lon="5.90843">
        <ele>703</ele>
        <time>2020-10-05T11:46:05.000Z</time>
      </trkpt>
      <trkpt lat="44.00393" lon="5.90844">
        <ele>702</ele>
        <time>2020-10-05T11:46:06.000Z</time>
      </trkpt>
      <trkpt lat="44.00393" lon="5.90845">
        <ele>702</ele>
        <time>2020-10-05T11:46:07.000Z</time>
      </trkpt>
      <trkpt lat="44.00394" lon="5.90846">
        <ele>702</ele>
        <time>2020-10-05T11:46:08.000Z</time>
      </trkpt>
      <trkpt lat="44.00394" lon="5.90847">
        <ele>702</ele>
        <time>2020-10-05T11:46:09.000Z</time>
      </trkpt>
      <trkpt lat="44.00395" lon="5.90848">
        <ele>702</ele>
        <time>2020-10-05T11:46:10.000Z</time>
      </trkpt>
      <trkpt lat="44.00395" lon="5.90849">
        <ele>702</ele>
        <time>2020-10-05T11:46:11.000Z</time>
      </trkpt>
      <trkpt lat="44.00395" lon="5.9085">
        <ele>702</ele>
        <time>2020-10-05T11:46:12.000Z</time>
      </trkpt>
      <trkpt lat="44.00395" lon="5.90851">
        <ele>702</ele>
        <time>2020-10-05T11:46:13.000Z</time>
      </trkpt>
      <trkpt lat="44.00395" lon="5.90852">
        <ele>702</ele>
        <time>2020-10-05T11:46:14.000Z</time>
      </trkpt>
      <trkpt lat="44.00396" lon="5.90853">
        <ele>702</ele>
        <time>2020-10-05T11:46:15.000Z</time>
      </trkpt>
      <trkpt lat="44.00396" lon="5.90854">
        <ele>702</ele>
        <time>2020-10-05T11:46:16.000Z</time>
      </trkpt>
      <trkpt lat="44.00396" lon="5.90855">
        <ele>702</ele>
        <time>2020-10-05T11:46:17.000Z</time>
      </trkpt>
      <trkpt lat="44.00397" lon="5.90856">
        <ele>702</ele>
        <time>2020-10-05T11:46:18.000Z</time>
      </trkpt>
      <trkpt lat="44.00397" lon="5.90857">
        <ele>702</ele>
        <time>2020-10-05T11:46:19.000Z</time>
      </trkpt>
      <trkpt lat="44.00396" lon="5.90858">
        <ele>702</ele>
        <time>2020-10-05T11:46:20.000Z</time>
      </trkpt>
      <trkpt lat="44.00396" lon="5.90859">
        <ele>702</ele>
        <time>2020-10-05T11:46:21.000Z</time>
      </trkpt>
      <trkpt lat="44.00396" lon="5.9086">
        <ele>702</ele>
        <time>2020-10-05T11:46:22.000Z</time>
      </trkpt>
      <trkpt lat="44.00397" lon="5.90862">
        <ele>702</ele>
        <time>2020-10-05T11:46:23.000Z</time>
      </trkpt>
      <trkpt lat="44.00396" lon="5.90863">
        <ele>702</ele>
        <time>2020-10-05T11:46:24.000Z</time>
      </trkpt>
      <trkpt lat="44.00397" lon="5.90864">
        <ele>702</ele>
        <time>2020-10-05T11:46:25.000Z</time>
      </trkpt>
      <trkpt lat="44.00396" lon="5.90865">
        <ele>702</ele>
        <time>2020-10-05T11:46:26.000Z</time>
      </trkpt>
      <trkpt lat="44.00397" lon="5.90867">
        <ele>702</ele>
        <time>2020-10-05T11:46:27.000Z</time>
      </trkpt>
      <trkpt lat="44.00397" lon="5.90867">
        <ele>702</ele>
        <time>2020-10-05T11:46:28.000Z</time>
      </trkpt>
      <trkpt lat="44.00397" lon="5.90869">
        <ele>702</ele>
        <time>2020-10-05T11:46:29.000Z</time>
      </trkpt>
      <trkpt lat="44.00397" lon="5.9087">
        <ele>702</ele>
        <time>2020-10-05T11:46:30.000Z</time>
      </trkpt>
      <trkpt lat="44.00398" lon="5.90871">
        <ele>702</ele>
        <time>2020-10-05T11:46:31.000Z</time>
      </trkpt>
      <trkpt lat="44.00398" lon="5.90872">
        <ele>702</ele>
        <time>2020-10-05T11:46:32.000Z</time>
      </trkpt>
      <trkpt lat="44.00398" lon="5.90874">
        <ele>702</ele>
        <time>2020-10-05T11:46:33.000Z</time>
      </trkpt>
      <trkpt lat="44.00399" lon="5.90875">
        <ele>702</ele>
        <time>2020-10-05T11:46:34.000Z</time>
      </trkpt>
      <trkpt lat="44.00399" lon="5.90876">
        <ele>702</ele>
        <time>2020-10-05T11:46:35.000Z</time>
      </trkpt>
      <trkpt lat="44.004" lon="5.90878">
        <ele>702</ele>
        <time>2020-10-05T11:46:36.000Z</time>
      </trkpt>
      <trkpt lat="44.004" lon="5.90879">
        <ele>702</ele>
        <time>2020-10-05T11:46:37.000Z</time>
      </trkpt>
      <trkpt lat="44.004" lon="5.90881">
        <ele>702</ele>
        <time>2020-10-05T11:46:38.000Z</time>
      </trkpt>
      <trkpt lat="44.00401" lon="5.90883">
        <ele>702</ele>
        <time>2020-10-05T11:46:39.000Z</time>
      </trkpt>
      <trkpt lat="44.00401" lon="5.90885">
        <ele>702</ele>
        <time>2020-10-05T11:46:40.000Z</time>
      </trkpt>
      <trkpt lat="44.00402" lon="5.90886">
        <ele>702</ele>
        <time>2020-10-05T11:46:41.000Z</time>
      </trkpt>
      <trkpt lat="44.00402" lon="5.90888">
        <ele>702</ele>
        <time>2020-10-05T11:46:42.000Z</time>
      </trkpt>
      <trkpt lat="44.00403" lon="5.90889">
        <ele>702</ele>
        <time>2020-10-05T11:46:43.000Z</time>
      </trkpt>
      <trkpt lat="44.00403" lon="5.90891">
        <ele>702</ele>
        <time>2020-10-05T11:46:44.000Z</time>
      </trkpt>
      <trkpt lat="44.00404" lon="5.90892">
        <ele>702</ele>
        <time>2020-10-05T11:46:45.000Z</time>
      </trkpt>
      <trkpt lat="44.00404" lon="5.90894">
        <ele>702</ele>
        <time>2020-10-05T11:46:46.000Z</time>
      </trkpt>
      <trkpt lat="44.00405" lon="5.90895">
        <ele>702</ele>
        <time>2020-10-05T11:46:47.000Z</time>
      </trkpt>
      <trkpt lat="44.00405" lon="5.90896">
        <ele>702</ele>
        <time>2020-10-05T11:46:48.000Z</time>
      </trkpt>
      <trkpt lat="44.00406" lon="5.90898">
        <ele>702</ele>
        <time>2020-10-05T11:46:49.000Z</time>
      </trkpt>
      <trkpt lat="44.00406" lon="5.909">
        <ele>702</ele>
        <time>2020-10-05T11:46:50.000Z</time>
      </trkpt>
      <trkpt lat="44.00406" lon="5.90901">
        <ele>702</ele>
        <time>2020-10-05T11:46:51.000Z</time>
      </trkpt>
      <trkpt lat="44.00406" lon="5.90903">
        <ele>702</ele>
        <time>2020-10-05T11:46:52.000Z</time>
      </trkpt>
      <trkpt lat="44.00407" lon="5.90904">
        <ele>702</ele>
        <time>2020-10-05T11:46:53.000Z</time>
      </trkpt>
      <trkpt lat="44.00407" lon="5.90905">
        <ele>702</ele>
        <time>2020-10-05T11:46:54.000Z</time>
      </trkpt>
      <trkpt lat="44.00408" lon="5.90907">
        <ele>702</ele>
        <time>2020-10-05T11:46:55.000Z</time>
      </trkpt>
      <trkpt lat="44.00408" lon="5.90908">
        <ele>702</ele>
        <time>2020-10-05T11:46:56.000Z</time>
      </trkpt>
      <trkpt lat="44.00408" lon="5.9091">
        <ele>702</ele>
        <time>2020-10-05T11:46:57.000Z</time>
      </trkpt>
      <trkpt lat="44.00409" lon="5.90911">
        <ele>702</ele>
        <time>2020-10-05T11:46:58.000Z</time>
      </trkpt>
      <trkpt lat="44.0041" lon="5.90912">
        <ele>702</ele>
        <time>2020-10-05T11:46:59.000Z</time>
      </trkpt>
      <trkpt lat="44.0041" lon="5.90914">
        <ele>702</ele>
        <time>2020-10-05T11:47:00.000Z</time>
      </trkpt>
      <trkpt lat="44.00411" lon="5.90915">
        <ele>702</ele>
        <time>2020-10-05T11:47:01.000Z</time>
      </trkpt>
      <trkpt lat="44.00411" lon="5.90916">
        <ele>702</ele>
        <time>2020-10-05T11:47:02.000Z</time>
      </trkpt>
      <trkpt lat="44.00411" lon="5.90917">
        <ele>702</ele>
        <time>2020-10-05T11:47:03.000Z</time>
      </trkpt>
      <trkpt lat="44.00412" lon="5.90919">
        <ele>702</ele>
        <time>2020-10-05T11:47:04.000Z</time>
      </trkpt>
      <trkpt lat="44.00412" lon="5.9092">
        <ele>702</ele>
        <time>2020-10-05T11:47:05.000Z</time>
      </trkpt>
      <trkpt lat="44.00413" lon="5.90921">
        <ele>702</ele>
        <time>2020-10-05T11:47:06.000Z</time>
      </trkpt>
      <trkpt lat="44.00413" lon="5.90923">
        <ele>702</ele>
        <time>2020-10-05T11:47:07.000Z</time>
      </trkpt>
      <trkpt lat="44.00413" lon="5.90924">
        <ele>702</ele>
        <time>2020-10-05T11:47:08.000Z</time>
      </trkpt>
      <trkpt lat="44.00414" lon="5.90925">
        <ele>702</ele>
        <time>2020-10-05T11:47:09.000Z</time>
      </trkpt>
      <trkpt lat="44.00414" lon="5.90926">
        <ele>702</ele>
        <time>2020-10-05T11:47:10.000Z</time>
      </trkpt>
      <trkpt lat="44.00414" lon="5.90928">
        <ele>702</ele>
        <time>2020-10-05T11:47:11.000Z</time>
      </trkpt>
      <trkpt lat="44.00414" lon="5.90929">
        <ele>702</ele>
        <time>2020-10-05T11:47:12.000Z</time>
      </trkpt>
      <trkpt lat="44.00414" lon="5.9093">
        <ele>702</ele>
        <time>2020-10-05T11:47:13.000Z</time>
      </trkpt>
      <trkpt lat="44.00414" lon="5.90931">
        <ele>702</ele>
        <time>2020-10-05T11:47:14.000Z</time>
      </trkpt>
      <trkpt lat="44.00414" lon="5.90933">
        <ele>702</ele>
        <time>2020-10-05T11:47:15.000Z</time>
      </trkpt>
      <trkpt lat="44.00414" lon="5.90934">
        <ele>702</ele>
        <time>2020-10-05T11:47:16.000Z</time>
      </trkpt>
      <trkpt lat="44.00414" lon="5.90935">
        <ele>701</ele>
        <time>2020-10-05T11:47:17.000Z</time>
      </trkpt>
      <trkpt lat="44.00414" lon="5.90936">
        <ele>701</ele>
        <time>2020-10-05T11:47:18.000Z</time>
      </trkpt>
      <trkpt lat="44.00414" lon="5.90937">
        <ele>701</ele>
        <time>2020-10-05T11:47:19.000Z</time>
      </trkpt>
      <trkpt lat="44.00414" lon="5.90937">
        <ele>701</ele>
        <time>2020-10-05T11:47:20.000Z</time>
      </trkpt>
      <trkpt lat="44.00414" lon="5.90938">
        <ele>701</ele>
        <time>2020-10-05T11:47:21.000Z</time>
      </trkpt>
      <trkpt lat="44.00414" lon="5.90939">
        <ele>701</ele>
        <time>2020-10-05T11:47:22.000Z</time>
      </trkpt>
      <trkpt lat="44.00414" lon="5.9094">
        <ele>701</ele>
        <time>2020-10-05T11:47:23.000Z</time>
      </trkpt>
      <trkpt lat="44.00414" lon="5.90941">
        <ele>701</ele>
        <time>2020-10-05T11:47:24.000Z</time>
      </trkpt>
      <trkpt lat="44.00414" lon="5.90942">
        <ele>701</ele>
        <time>2020-10-05T11:47:25.000Z</time>
      </trkpt>
      <trkpt lat="44.00414" lon="5.90944">
        <ele>701</ele>
        <time>2020-10-05T11:47:26.000Z</time>
      </trkpt>
      <trkpt lat="44.00414" lon="5.90945">
        <ele>701</ele>
        <time>2020-10-05T11:47:27.000Z</time>
      </trkpt>
      <trkpt lat="44.00414" lon="5.90946">
        <ele>701</ele>
        <time>2020-10-05T11:47:28.000Z</time>
      </trkpt>
      <trkpt lat="44.00413" lon="5.90947">
        <ele>701</ele>
        <time>2020-10-05T11:47:29.000Z</time>
      </trkpt>
      <trkpt lat="44.00414" lon="5.90948">
        <ele>701</ele>
        <time>2020-10-05T11:47:30.000Z</time>
      </trkpt>
      <trkpt lat="44.00414" lon="5.90949">
        <ele>701</ele>
        <time>2020-10-05T11:47:31.000Z</time>
      </trkpt>
      <trkpt lat="44.00414" lon="5.9095">
        <ele>701</ele>
        <time>2020-10-05T11:47:32.000Z</time>
      </trkpt>
      <trkpt lat="44.00414" lon="5.90951">
        <ele>701</ele>
        <time>2020-10-05T11:47:33.000Z</time>
      </trkpt>
      <trkpt lat="44.00413" lon="5.90952">
        <ele>701</ele>
        <time>2020-10-05T11:47:34.000Z</time>
      </trkpt>
      <trkpt lat="44.00413" lon="5.90954">
        <ele>701</ele>
        <time>2020-10-05T11:47:35.000Z</time>
      </trkpt>
      <trkpt lat="44.00413" lon="5.90955">
        <ele>701</ele>
        <time>2020-10-05T11:47:36.000Z</time>
      </trkpt>
      <trkpt lat="44.00413" lon="5.90956">
        <ele>701</ele>
        <time>2020-10-05T11:47:37.000Z</time>
      </trkpt>
      <trkpt lat="44.00413" lon="5.90957">
        <ele>701</ele>
        <time>2020-10-05T11:47:38.000Z</time>
      </trkpt>
      <trkpt lat="44.00413" lon="5.90959">
        <ele>701</ele>
        <time>2020-10-05T11:47:39.000Z</time>
      </trkpt>
      <trkpt lat="44.00414" lon="5.9096">
        <ele>701</ele>
        <time>2020-10-05T11:47:40.000Z</time>
      </trkpt>
      <trkpt lat="44.00414" lon="5.90961">
        <ele>701</ele>
        <time>2020-10-05T11:47:41.000Z</time>
      </trkpt>
      <trkpt lat="44.00414" lon="5.90963">
        <ele>701</ele>
        <time>2020-10-05T11:47:42.000Z</time>
      </trkpt>
      <trkpt lat="44.00415" lon="5.90964">
        <ele>701</ele>
        <time>2020-10-05T11:47:43.000Z</time>
      </trkpt>
      <trkpt lat="44.00416" lon="5.90965">
        <ele>701</ele>
        <time>2020-10-05T11:47:44.000Z</time>
      </trkpt>
      <trkpt lat="44.00417" lon="5.90966">
        <ele>701</ele>
        <time>2020-10-05T11:47:45.000Z</time>
      </trkpt>
      <trkpt lat="44.00418" lon="5.90966">
        <ele>701</ele>
        <time>2020-10-05T11:47:46.000Z</time>
      </trkpt>
      <trkpt lat="44.00418" lon="5.90967">
        <ele>701</ele>
        <time>2020-10-05T11:47:47.000Z</time>
      </trkpt>
      <trkpt lat="44.00419" lon="5.90967">
        <ele>701</ele>
        <time>2020-10-05T11:47:48.000Z</time>
      </trkpt>
      <trkpt lat="44.0042" lon="5.90968">
        <ele>701</ele>
        <time>2020-10-05T11:47:49.000Z</time>
      </trkpt>
      <trkpt lat="44.00421" lon="5.90968">
        <ele>701</ele>
        <time>2020-10-05T11:47:50.000Z</time>
      </trkpt>
      <trkpt lat="44.00422" lon="5.90968">
        <ele>701</ele>
        <time>2020-10-05T11:47:51.000Z</time>
      </trkpt>
      <trkpt lat="44.00422" lon="5.90968">
        <ele>701</ele>
        <time>2020-10-05T11:47:52.000Z</time>
      </trkpt>
      <trkpt lat="44.00423" lon="5.90967">
        <ele>701</ele>
        <time>2020-10-05T11:47:53.000Z</time>
      </trkpt>
      <trkpt lat="44.00424" lon="5.90967">
        <ele>701</ele>
        <time>2020-10-05T11:47:54.000Z</time>
      </trkpt>
      <trkpt lat="44.00425" lon="5.90966">
        <ele>701</ele>
        <time>2020-10-05T11:47:55.000Z</time>
      </trkpt>
      <trkpt lat="44.00425" lon="5.90966">
        <ele>701</ele>
        <time>2020-10-05T11:47:56.000Z</time>
      </trkpt>
      <trkpt lat="44.00426" lon="5.90965">
        <ele>701</ele>
        <time>2020-10-05T11:47:57.000Z</time>
      </trkpt>
      <trkpt lat="44.00427" lon="5.90965">
        <ele>701</ele>
        <time>2020-10-05T11:47:58.000Z</time>
      </trkpt>
      <trkpt lat="44.00428" lon="5.90965">
        <ele>701</ele>
        <time>2020-10-05T11:47:59.000Z</time>
      </trkpt>
      <trkpt lat="44.00429" lon="5.90966">
        <ele>701</ele>
        <time>2020-10-05T11:48:00.000Z</time>
      </trkpt>
      <trkpt lat="44.00429" lon="5.90966">
        <ele>701</ele>
        <time>2020-10-05T11:48:01.000Z</time>
      </trkpt>
      <trkpt lat="44.0043" lon="5.90967">
        <ele>701</ele>
        <time>2020-10-05T11:48:02.000Z</time>
      </trkpt>
      <trkpt lat="44.0043" lon="5.90968">
        <ele>701</ele>
        <time>2020-10-05T11:48:03.000Z</time>
      </trkpt>
      <trkpt lat="44.00431" lon="5.90969">
        <ele>701</ele>
        <time>2020-10-05T11:48:04.000Z</time>
      </trkpt>
      <trkpt lat="44.00431" lon="5.9097">
        <ele>701</ele>
        <time>2020-10-05T11:48:05.000Z</time>
      </trkpt>
      <trkpt lat="44.00432" lon="5.90971">
        <ele>701</ele>
        <time>2020-10-05T11:48:06.000Z</time>
      </trkpt>
      <trkpt lat="44.00432" lon="5.90972">
        <ele>701</ele>
        <time>2020-10-05T11:48:07.000Z</time>
      </trkpt>
      <trkpt lat="44.00432" lon="5.90973">
        <ele>701</ele>
        <time>2020-10-05T11:48:08.000Z</time>
      </trkpt>
      <trkpt lat="44.00432" lon="5.90974">
        <ele>701</ele>
        <time>2020-10-05T11:48:09.000Z</time>
      </trkpt>
      <trkpt lat="44.00433" lon="5.90975">
        <ele>701</ele>
        <time>2020-10-05T11:48:10.000Z</time>
      </trkpt>
      <trkpt lat="44.00433" lon="5.90977">
        <ele>701</ele>
        <time>2020-10-05T11:48:11.000Z</time>
      </trkpt>
      <trkpt lat="44.00434" lon="5.90978">
        <ele>701</ele>
        <time>2020-10-05T11:48:12.000Z</time>
      </trkpt>
      <trkpt lat="44.00434" lon="5.90979">
        <ele>701</ele>
        <time>2020-10-05T11:48:13.000Z</time>
      </trkpt>
      <trkpt lat="44.00434" lon="5.9098">
        <ele>701</ele>
        <time>2020-10-05T11:48:14.000Z</time>
      </trkpt>
      <trkpt lat="44.00435" lon="5.90981">
        <ele>701</ele>
        <time>2020-10-05T11:48:15.000Z</time>
      </trkpt>
      <trkpt lat="44.00436" lon="5.90982">
        <ele>701</ele>
        <time>2020-10-05T11:48:16.000Z</time>
      </trkpt>
      <trkpt lat="44.00436" lon="5.90983">
        <ele>701</ele>
        <time>2020-10-05T11:48:17.000Z</time>
      </trkpt>
      <trkpt lat="44.00437" lon="5.90984">
        <ele>701</ele>
        <time>2020-10-05T11:48:18.000Z</time>
      </trkpt>
      <trkpt lat="44.00438" lon="5.90984">
        <ele>701</ele>
        <time>2020-10-05T11:48:19.000Z</time>
      </trkpt>
      <trkpt lat="44.00439" lon="5.90985">
        <ele>701</ele>
        <time>2020-10-05T11:48:20.000Z</time>
      </trkpt>
      <trkpt lat="44.0044" lon="5.90985">
        <ele>701</ele>
        <time>2020-10-05T11:48:21.000Z</time>
      </trkpt>
      <trkpt lat="44.00441" lon="5.90985">
        <ele>701</ele>
        <time>2020-10-05T11:48:22.000Z</time>
      </trkpt>
      <trkpt lat="44.00441" lon="5.90985">
        <ele>701</ele>
        <time>2020-10-05T11:48:23.000Z</time>
      </trkpt>
      <trkpt lat="44.00442" lon="5.90986">
        <ele>701</ele>
        <time>2020-10-05T11:48:24.000Z</time>
      </trkpt>
      <trkpt lat="44.00443" lon="5.90986">
        <ele>701</ele>
        <time>2020-10-05T11:48:25.000Z</time>
      </trkpt>
      <trkpt lat="44.00444" lon="5.90985">
        <ele>701</ele>
        <time>2020-10-05T11:48:26.000Z</time>
      </trkpt>
      <trkpt lat="44.00444" lon="5.90985">
        <ele>701</ele>
        <time>2020-10-05T11:48:27.000Z</time>
      </trkpt>
      <trkpt lat="44.00445" lon="5.90985">
        <ele>701</ele>
        <time>2020-10-05T11:48:28.000Z</time>
      </trkpt>
      <trkpt lat="44.00446" lon="5.90985">
        <ele>701</ele>
        <time>2020-10-05T11:48:29.000Z</time>
      </trkpt>
      <trkpt lat="44.00446" lon="5.90985">
        <ele>701</ele>
        <time>2020-10-05T11:48:30.000Z</time>
      </trkpt>
      <trkpt lat="44.00446" lon="5.90985">
        <ele>701</ele>
        <time>2020-10-05T11:48:31.000Z</time>
      </trkpt>
      <trkpt lat="44.00447" lon="5.90985">
        <ele>701</ele>
        <time>2020-10-05T11:48:32.000Z</time>
      </trkpt>
      <trkpt lat="44.00448" lon="5.90985">
        <ele>701</ele>
        <time>2020-10-05T11:48:33.000Z</time>
      </trkpt>
      <trkpt lat="44.00448" lon="5.90985">
        <ele>701</ele>
        <time>2020-10-05T11:48:34.000Z</time>
      </trkpt>
      <trkpt lat="44.00449" lon="5.90986">
        <ele>701</ele>
        <time>2020-10-05T11:48:35.000Z</time>
      </trkpt>
      <trkpt lat="44.00449" lon="5.90986">
        <ele>701</ele>
        <time>2020-10-05T11:48:36.000Z</time>
      </trkpt>
      <trkpt lat="44.0045" lon="5.90986">
        <ele>701</ele>
        <time>2020-10-05T11:48:37.000Z</time>
      </trkpt>
      <trkpt lat="44.0045" lon="5.90986">
        <ele>701</ele>
        <time>2020-10-05T11:48:38.000Z</time>
      </trkpt>
      <trkpt lat="44.0045" lon="5.90986">
        <ele>701</ele>
        <time>2020-10-05T11:48:39.000Z</time>
      </trkpt>
      <trkpt lat="44.0045" lon="5.90986">
        <ele>701</ele>
        <time>2020-10-05T11:48:40.000Z</time>
      </trkpt>
      <trkpt lat="44.0045" lon="5.90986">
        <ele>701</ele>
        <time>2020-10-05T11:48:41.000Z</time>
      </trkpt>
      <trkpt lat="44.0045" lon="5.90987">
        <ele>701</ele>
        <time>2020-10-05T11:48:42.000Z</time>
      </trkpt>
      <trkpt lat="44.0045" lon="5.90987">
        <ele>701</ele>
        <time>2020-10-05T11:48:43.000Z</time>
      </trkpt>
      <trkpt lat="44.00451" lon="5.90987">
        <ele>701</ele>
        <time>2020-10-05T11:48:44.000Z</time>
      </trkpt>
      <trkpt lat="44.00451" lon="5.90988">
        <ele>701</ele>
        <time>2020-10-05T11:48:45.000Z</time>
      </trkpt>
      <trkpt lat="44.00452" lon="5.90988">
        <ele>701</ele>
        <time>2020-10-05T11:48:46.000Z</time>
      </trkpt>
      <trkpt lat="44.00452" lon="5.90988">
        <ele>701</ele>
        <time>2020-10-05T11:48:47.000Z</time>
      </trkpt>
      <trkpt lat="44.00453" lon="5.90988">
        <ele>701</ele>
        <time>2020-10-05T11:48:48.000Z</time>
      </trkpt>
      <trkpt lat="44.00453" lon="5.90988">
        <ele>701</ele>
        <time>2020-10-05T11:48:49.000Z</time>
      </trkpt>
      <trkpt lat="44.00454" lon="5.90988">
        <ele>701</ele>
        <time>2020-10-05T11:48:50.000Z</time>
      </trkpt>
      <trkpt lat="44.00454" lon="5.90988">
        <ele>701</ele>
        <time>2020-10-05T11:48:51.000Z</time>
      </trkpt>
      <trkpt lat="44.00454" lon="5.90988">
        <ele>702</ele>
        <time>2020-10-05T11:48:52.000Z</time>
      </trkpt>
      <trkpt lat="44.00455" lon="5.90987">
        <ele>702</ele>
        <time>2020-10-05T11:48:53.000Z</time>
      </trkpt>
      <trkpt lat="44.00455" lon="5.90986">
        <ele>702</ele>
        <time>2020-10-05T11:48:54.000Z</time>
      </trkpt>
      <trkpt lat="44.00455" lon="5.90985">
        <ele>702</ele>
        <time>2020-10-05T11:48:55.000Z</time>
      </trkpt>
      <trkpt lat="44.00456" lon="5.90985">
        <ele>702</ele>
        <time>2020-10-05T11:48:56.000Z</time>
      </trkpt>
      <trkpt lat="44.00456" lon="5.90984">
        <ele>702</ele>
        <time>2020-10-05T11:48:57.000Z</time>
      </trkpt>
      <trkpt lat="44.00456" lon="5.90982">
        <ele>702</ele>
        <time>2020-10-05T11:48:58.000Z</time>
      </trkpt>
      <trkpt lat="44.00456" lon="5.90981">
        <ele>703</ele>
        <time>2020-10-05T11:48:59.000Z</time>
      </trkpt>
      <trkpt lat="44.00457" lon="5.9098">
        <ele>703</ele>
        <time>2020-10-05T11:49:00.000Z</time>
      </trkpt>
      <trkpt lat="44.00457" lon="5.90978">
        <ele>703</ele>
        <time>2020-10-05T11:49:01.000Z</time>
      </trkpt>
      <trkpt lat="44.00457" lon="5.90977">
        <ele>703</ele>
        <time>2020-10-05T11:49:02.000Z</time>
      </trkpt>
      <trkpt lat="44.00457" lon="5.90976">
        <ele>703</ele>
        <time>2020-10-05T11:49:03.000Z</time>
      </trkpt>
      <trkpt lat="44.00457" lon="5.90975">
        <ele>703</ele>
        <time>2020-10-05T11:49:04.000Z</time>
      </trkpt>
      <trkpt lat="44.00457" lon="5.90974">
        <ele>704</ele>
        <time>2020-10-05T11:49:05.000Z</time>
      </trkpt>
      <trkpt lat="44.00457" lon="5.90973">
        <ele>704</ele>
        <time>2020-10-05T11:49:06.000Z</time>
      </trkpt>
      <trkpt lat="44.00457" lon="5.90972">
        <ele>704</ele>
        <time>2020-10-05T11:49:07.000Z</time>
      </trkpt>
      <trkpt lat="44.00457" lon="5.90971">
        <ele>704</ele>
        <time>2020-10-05T11:49:08.000Z</time>
      </trkpt>
      <trkpt lat="44.00457" lon="5.9097">
        <ele>704</ele>
        <time>2020-10-05T11:49:09.000Z</time>
      </trkpt>
      <trkpt lat="44.00457" lon="5.90969">
        <ele>704</ele>
        <time>2020-10-05T11:49:10.000Z</time>
      </trkpt>
      <trkpt lat="44.00458" lon="5.90968">
        <ele>704</ele>
        <time>2020-10-05T11:49:11.000Z</time>
      </trkpt>
      <trkpt lat="44.00458" lon="5.90967">
        <ele>704</ele>
        <time>2020-10-05T11:49:12.000Z</time>
      </trkpt>
      <trkpt lat="44.00458" lon="5.90966">
        <ele>704</ele>
        <time>2020-10-05T11:49:13.000Z</time>
      </trkpt>
      <trkpt lat="44.00458" lon="5.90965">
        <ele>704</ele>
        <time>2020-10-05T11:49:14.000Z</time>
      </trkpt>
      <trkpt lat="44.00458" lon="5.90965">
        <ele>704</ele>
        <time>2020-10-05T11:49:15.000Z</time>
      </trkpt>
      <trkpt lat="44.00458" lon="5.90965">
        <ele>704</ele>
        <time>2020-10-05T11:49:16.000Z</time>
      </trkpt>
      <trkpt lat="44.00458" lon="5.90965">
        <ele>704</ele>
        <time>2020-10-05T11:49:17.000Z</time>
      </trkpt>
      <trkpt lat="44.00458" lon="5.90965">
        <ele>704</ele>
        <time>2020-10-05T11:49:18.000Z</time>
      </trkpt>
      <trkpt lat="44.00458" lon="5.90965">
        <ele>705</ele>
        <time>2020-10-05T11:49:19.000Z</time>
      </trkpt>
      <trkpt lat="44.00458" lon="5.90965">
        <ele>705</ele>
        <time>2020-10-05T11:49:20.000Z</time>
      </trkpt>
      <trkpt lat="44.00458" lon="5.90965">
        <ele>705</ele>
        <time>2020-10-05T11:49:21.000Z</time>
      </trkpt>
      <trkpt lat="44.00458" lon="5.90964">
        <ele>705</ele>
        <time>2020-10-05T11:49:22.000Z</time>
      </trkpt>
      <trkpt lat="44.00458" lon="5.90963">
        <ele>705</ele>
        <time>2020-10-05T11:49:23.000Z</time>
      </trkpt>
      <trkpt lat="44.00458" lon="5.90963">
        <ele>705</ele>
        <time>2020-10-05T11:49:24.000Z</time>
      </trkpt>
      <trkpt lat="44.00459" lon="5.90962">
        <ele>705</ele>
        <time>2020-10-05T11:49:25.000Z</time>
      </trkpt>
      <trkpt lat="44.00459" lon="5.90961">
        <ele>705</ele>
        <time>2020-10-05T11:49:26.000Z</time>
      </trkpt>
      <trkpt lat="44.00459" lon="5.90961">
        <ele>705</ele>
        <time>2020-10-05T11:49:27.000Z</time>
      </trkpt>
      <trkpt lat="44.0046" lon="5.9096">
        <ele>705</ele>
        <time>2020-10-05T11:49:28.000Z</time>
      </trkpt>
      <trkpt lat="44.0046" lon="5.9096">
        <ele>705</ele>
        <time>2020-10-05T11:49:29.000Z</time>
      </trkpt>
      <trkpt lat="44.0046" lon="5.9096">
        <ele>705</ele>
        <time>2020-10-05T11:49:30.000Z</time>
      </trkpt>
      <trkpt lat="44.0046" lon="5.9096">
        <ele>705</ele>
        <time>2020-10-05T11:49:31.000Z</time>
      </trkpt>
      <trkpt lat="44.0046" lon="5.9096">
        <ele>705</ele>
        <time>2020-10-05T11:49:32.000Z</time>
      </trkpt>
      <trkpt lat="44.0046" lon="5.9096">
        <ele>705</ele>
        <time>2020-10-05T11:49:33.000Z</time>
      </trkpt>
      <trkpt lat="44.0046" lon="5.9096">
        <ele>705</ele>
        <time>2020-10-05T11:49:34.000Z</time>
      </trkpt>
      <trkpt lat="44.0046" lon="5.90959">
        <ele>705</ele>
        <time>2020-10-05T11:49:35.000Z</time>
      </trkpt>
      <trkpt lat="44.0046" lon="5.90959">
        <ele>705</ele>
        <time>2020-10-05T11:49:36.000Z</time>
      </trkpt>
      <trkpt lat="44.00461" lon="5.90959">
        <ele>705</ele>
        <time>2020-10-05T11:49:37.000Z</time>
      </trkpt>
      <trkpt lat="44.00461" lon="5.90959">
        <ele>705</ele>
        <time>2020-10-05T11:49:38.000Z</time>
      </trkpt>
      <trkpt lat="44.00461" lon="5.90959">
        <ele>705</ele>
        <time>2020-10-05T11:49:39.000Z</time>
      </trkpt>
      <trkpt lat="44.00461" lon="5.90959">
        <ele>705</ele>
        <time>2020-10-05T11:49:40.000Z</time>
      </trkpt>
      <trkpt lat="44.00461" lon="5.90959">
        <ele>705</ele>
        <time>2020-10-05T11:49:41.000Z</time>
      </trkpt>
      <trkpt lat="44.00461" lon="5.90959">
        <ele>705</ele>
        <time>2020-10-05T11:49:42.000Z</time>
      </trkpt>
      <trkpt lat="44.00461" lon="5.90959">
        <ele>705</ele>
        <time>2020-10-05T11:49:43.000Z</time>
      </trkpt>
      <trkpt lat="44.00461" lon="5.90959">
        <ele>705</ele>
        <time>2020-10-05T11:49:44.000Z</time>
      </trkpt>
      <trkpt lat="44.00461" lon="5.90959">
        <ele>705</ele>
        <time>2020-10-05T11:49:45.000Z</time>
      </trkpt>
      <trkpt lat="44.00461" lon="5.90959">
        <ele>705</ele>
        <time>2020-10-05T11:49:46.000Z</time>
      </trkpt>
      <trkpt lat="44.00461" lon="5.90959">
        <ele>705</ele>
        <time>2020-10-05T11:49:47.000Z</time>
      </trkpt>
      <trkpt lat="44.00461" lon="5.90959">
        <ele>705</ele>
        <time>2020-10-05T11:49:48.000Z</time>
      </trkpt>
      <trkpt lat="44.00461" lon="5.90959">
        <ele>705</ele>
        <time>2020-10-05T11:49:49.000Z</time>
      </trkpt>
      <trkpt lat="44.00461" lon="5.90959">
        <ele>705</ele>
        <time>2020-10-05T11:49:50.000Z</time>
      </trkpt>
      <trkpt lat="44.00461" lon="5.90959">
        <ele>705</ele>
        <time>2020-10-05T11:49:51.000Z</time>
      </trkpt>
      <trkpt lat="44.00461" lon="5.90959">
        <ele>705</ele>
        <time>2020-10-05T11:49:52.000Z</time>
      </trkpt>
      <trkpt lat="44.00461" lon="5.90959">
        <ele>705</ele>
        <time>2020-10-05T11:49:53.000Z</time>
      </trkpt>
      <trkpt lat="44.00461" lon="5.90959">
        <ele>705</ele>
        <time>2020-10-05T11:49:54.000Z</time>
      </trkpt>
      <trkpt lat="44.00461" lon="5.90958">
        <ele>705</ele>
        <time>2020-10-05T11:49:55.000Z</time>
      </trkpt>
      <trkpt lat="44.00461" lon="5.90957">
        <ele>705</ele>
        <time>2020-10-05T11:49:56.000Z</time>
      </trkpt>
      <trkpt lat="44.00461" lon="5.90957">
        <ele>705</ele>
        <time>2020-10-05T11:49:57.000Z</time>
      </trkpt>
      <trkpt lat="44.00462" lon="5.90956">
        <ele>705</ele>
        <time>2020-10-05T11:49:58.000Z</time>
      </trkpt>
      <trkpt lat="44.00463" lon="5.90955">
        <ele>705</ele>
        <time>2020-10-05T11:49:59.000Z</time>
      </trkpt>
      <trkpt lat="44.00464" lon="5.90955">
        <ele>705</ele>
        <time>2020-10-05T11:50:00.000Z</time>
      </trkpt>
      <trkpt lat="44.00464" lon="5.90956">
        <ele>704</ele>
        <time>2020-10-05T11:50:01.000Z</time>
      </trkpt>
      <trkpt lat="44.00465" lon="5.90957">
        <ele>704</ele>
        <time>2020-10-05T11:50:02.000Z</time>
      </trkpt>
      <trkpt lat="44.00465" lon="5.90958">
        <ele>705</ele>
        <time>2020-10-05T11:50:03.000Z</time>
      </trkpt>
      <trkpt lat="44.00465" lon="5.90959">
        <ele>705</ele>
        <time>2020-10-05T11:50:04.000Z</time>
      </trkpt>
      <trkpt lat="44.00466" lon="5.90961">
        <ele>705</ele>
        <time>2020-10-05T11:50:05.000Z</time>
      </trkpt>
      <trkpt lat="44.00466" lon="5.90962">
        <ele>705</ele>
        <time>2020-10-05T11:50:06.000Z</time>
      </trkpt>
      <trkpt lat="44.00466" lon="5.90963">
        <ele>705</ele>
        <time>2020-10-05T11:50:07.000Z</time>
      </trkpt>
      <trkpt lat="44.00466" lon="5.90964">
        <ele>705</ele>
        <time>2020-10-05T11:50:08.000Z</time>
      </trkpt>
      <trkpt lat="44.00466" lon="5.90964">
        <ele>704</ele>
        <time>2020-10-05T11:50:09.000Z</time>
      </trkpt>
      <trkpt lat="44.00466" lon="5.90965">
        <ele>704</ele>
        <time>2020-10-05T11:50:10.000Z</time>
      </trkpt>
      <trkpt lat="44.00467" lon="5.90965">
        <ele>704</ele>
        <time>2020-10-05T11:50:11.000Z</time>
      </trkpt>
      <trkpt lat="44.00467" lon="5.90965">
        <ele>704</ele>
        <time>2020-10-05T11:50:12.000Z</time>
      </trkpt>
      <trkpt lat="44.00468" lon="5.90965">
        <ele>704</ele>
        <time>2020-10-05T11:50:13.000Z</time>
      </trkpt>
      <trkpt lat="44.00468" lon="5.90965">
        <ele>704</ele>
        <time>2020-10-05T11:50:14.000Z</time>
      </trkpt>
      <trkpt lat="44.00469" lon="5.90966">
        <ele>704</ele>
        <time>2020-10-05T11:50:15.000Z</time>
      </trkpt>
      <trkpt lat="44.0047" lon="5.90966">
        <ele>704</ele>
        <time>2020-10-05T11:50:16.000Z</time>
      </trkpt>
      <trkpt lat="44.0047" lon="5.90967">
        <ele>704</ele>
        <time>2020-10-05T11:50:17.000Z</time>
      </trkpt>
      <trkpt lat="44.0047" lon="5.90967">
        <ele>704</ele>
        <time>2020-10-05T11:50:18.000Z</time>
      </trkpt>
      <trkpt lat="44.00471" lon="5.90968">
        <ele>704</ele>
        <time>2020-10-05T11:50:19.000Z</time>
      </trkpt>
      <trkpt lat="44.00471" lon="5.90968">
        <ele>704</ele>
        <time>2020-10-05T11:50:20.000Z</time>
      </trkpt>
      <trkpt lat="44.00471" lon="5.90968">
        <ele>704</ele>
        <time>2020-10-05T11:50:21.000Z</time>
      </trkpt>
      <trkpt lat="44.00471" lon="5.90968">
        <ele>704</ele>
        <time>2020-10-05T11:50:22.000Z</time>
      </trkpt>
      <trkpt lat="44.00471" lon="5.90968">
        <ele>704</ele>
        <time>2020-10-05T11:50:23.000Z</time>
      </trkpt>
      <trkpt lat="44.00471" lon="5.90968">
        <ele>704</ele>
        <time>2020-10-05T11:50:24.000Z</time>
      </trkpt>
      <trkpt lat="44.00471" lon="5.90968">
        <ele>705</ele>
        <time>2020-10-05T11:50:25.000Z</time>
      </trkpt>
      <trkpt lat="44.00471" lon="5.90968">
        <ele>705</ele>
        <time>2020-10-05T11:50:26.000Z</time>
      </trkpt>
      <trkpt lat="44.00471" lon="5.90968">
        <ele>705</ele>
        <time>2020-10-05T11:50:27.000Z</time>
      </trkpt>
      <trkpt lat="44.00471" lon="5.90968">
        <ele>705</ele>
        <time>2020-10-05T11:50:28.000Z</time>
      </trkpt>
      <trkpt lat="44.0047" lon="5.90968">
        <ele>705</ele>
        <time>2020-10-05T11:50:29.000Z</time>
      </trkpt>
      <trkpt lat="44.0047" lon="5.90968">
        <ele>705</ele>
        <time>2020-10-05T11:50:30.000Z</time>
      </trkpt>
      <trkpt lat="44.00469" lon="5.90968">
        <ele>705</ele>
        <time>2020-10-05T11:50:31.000Z</time>
      </trkpt>
      <trkpt lat="44.00469" lon="5.90968">
        <ele>705</ele>
        <time>2020-10-05T11:50:32.000Z</time>
      </trkpt>
      <trkpt lat="44.00468" lon="5.90968">
        <ele>705</ele>
        <time>2020-10-05T11:50:33.000Z</time>
      </trkpt>
      <trkpt lat="44.00468" lon="5.90968">
        <ele>705</ele>
        <time>2020-10-05T11:50:34.000Z</time>
      </trkpt>
      <trkpt lat="44.00467" lon="5.90968">
        <ele>705</ele>
        <time>2020-10-05T11:50:35.000Z</time>
      </trkpt>
      <trkpt lat="44.00467" lon="5.90967">
        <ele>705</ele>
        <time>2020-10-05T11:50:36.000Z</time>
      </trkpt>
      <trkpt lat="44.00466" lon="5.90967">
        <ele>705</ele>
        <time>2020-10-05T11:50:37.000Z</time>
      </trkpt>
      <trkpt lat="44.00466" lon="5.90967">
        <ele>705</ele>
        <time>2020-10-05T11:50:38.000Z</time>
      </trkpt>
      <trkpt lat="44.00465" lon="5.90966">
        <ele>706</ele>
        <time>2020-10-05T11:50:39.000Z</time>
      </trkpt>
      <trkpt lat="44.00465" lon="5.90966">
        <ele>706</ele>
        <time>2020-10-05T11:50:40.000Z</time>
      </trkpt>
      <trkpt lat="44.00465" lon="5.90966">
        <ele>706</ele>
        <time>2020-10-05T11:50:41.000Z</time>
      </trkpt>
      <trkpt lat="44.00465" lon="5.90966">
        <ele>706</ele>
        <time>2020-10-05T11:50:42.000Z</time>
      </trkpt>
      <trkpt lat="44.00465" lon="5.90966">
        <ele>706</ele>
        <time>2020-10-05T11:50:43.000Z</time>
      </trkpt>
      <trkpt lat="44.00465" lon="5.90966">
        <ele>706</ele>
        <time>2020-10-05T11:50:44.000Z</time>
      </trkpt>
      <trkpt lat="44.00464" lon="5.90966">
        <ele>706</ele>
        <time>2020-10-05T11:50:45.000Z</time>
      </trkpt>
      <trkpt lat="44.00464" lon="5.90966">
        <ele>706</ele>
        <time>2020-10-05T11:50:46.000Z</time>
      </trkpt>
      <trkpt lat="44.00464" lon="5.90966">
        <ele>706</ele>
        <time>2020-10-05T11:50:47.000Z</time>
      </trkpt>
      <trkpt lat="44.00465" lon="5.90966">
        <ele>706</ele>
        <time>2020-10-05T11:50:48.000Z</time>
      </trkpt>
      <trkpt lat="44.00465" lon="5.90967">
        <ele>706</ele>
        <time>2020-10-05T11:50:49.000Z</time>
      </trkpt>
      <trkpt lat="44.00465" lon="5.90968">
        <ele>706</ele>
        <time>2020-10-05T11:50:50.000Z</time>
      </trkpt>
      <trkpt lat="44.00465" lon="5.9097">
        <ele>706</ele>
        <time>2020-10-05T11:50:51.000Z</time>
      </trkpt>
      <trkpt lat="44.00466" lon="5.90971">
        <ele>706</ele>
        <time>2020-10-05T11:50:52.000Z</time>
      </trkpt>
      <trkpt lat="44.00466" lon="5.90973">
        <ele>706</ele>
        <time>2020-10-05T11:50:53.000Z</time>
      </trkpt>
      <trkpt lat="44.00466" lon="5.90974">
        <ele>706</ele>
        <time>2020-10-05T11:50:54.000Z</time>
      </trkpt>
      <trkpt lat="44.00467" lon="5.90976">
        <ele>706</ele>
        <time>2020-10-05T11:50:55.000Z</time>
      </trkpt>
      <trkpt lat="44.00467" lon="5.90977">
        <ele>706</ele>
        <time>2020-10-05T11:50:56.000Z</time>
      </trkpt>
      <trkpt lat="44.00467" lon="5.90978">
        <ele>706</ele>
        <time>2020-10-05T11:50:57.000Z</time>
      </trkpt>
      <trkpt lat="44.00467" lon="5.90979">
        <ele>706</ele>
        <time>2020-10-05T11:50:58.000Z</time>
      </trkpt>
      <trkpt lat="44.00467" lon="5.90981">
        <ele>706</ele>
        <time>2020-10-05T11:50:59.000Z</time>
      </trkpt>
      <trkpt lat="44.00467" lon="5.90982">
        <ele>706</ele>
        <time>2020-10-05T11:51:00.000Z</time>
      </trkpt>
      <trkpt lat="44.00467" lon="5.90983">
        <ele>706</ele>
        <time>2020-10-05T11:51:01.000Z</time>
      </trkpt>
      <trkpt lat="44.00467" lon="5.90984">
        <ele>706</ele>
        <time>2020-10-05T11:51:02.000Z</time>
      </trkpt>
      <trkpt lat="44.00468" lon="5.90984">
        <ele>706</ele>
        <time>2020-10-05T11:51:03.000Z</time>
      </trkpt>
      <trkpt lat="44.00468" lon="5.90985">
        <ele>706</ele>
        <time>2020-10-05T11:51:04.000Z</time>
      </trkpt>
      <trkpt lat="44.00469" lon="5.90985">
        <ele>706</ele>
        <time>2020-10-05T11:51:05.000Z</time>
      </trkpt>
      <trkpt lat="44.00469" lon="5.90985">
        <ele>706</ele>
        <time>2020-10-05T11:51:06.000Z</time>
      </trkpt>
      <trkpt lat="44.0047" lon="5.90985">
        <ele>706</ele>
        <time>2020-10-05T11:51:07.000Z</time>
      </trkpt>
      <trkpt lat="44.0047" lon="5.90985">
        <ele>706</ele>
        <time>2020-10-05T11:51:08.000Z</time>
      </trkpt>
      <trkpt lat="44.0047" lon="5.90985">
        <ele>706</ele>
        <time>2020-10-05T11:51:09.000Z</time>
      </trkpt>
      <trkpt lat="44.0047" lon="5.90985">
        <ele>706</ele>
        <time>2020-10-05T11:51:10.000Z</time>
      </trkpt>
      <trkpt lat="44.0047" lon="5.90985">
        <ele>706</ele>
        <time>2020-10-05T11:51:11.000Z</time>
      </trkpt>
      <trkpt lat="44.0047" lon="5.90985">
        <ele>706</ele>
        <time>2020-10-05T11:51:12.000Z</time>
      </trkpt>
      <trkpt lat="44.0047" lon="5.90985">
        <ele>706</ele>
        <time>2020-10-05T11:51:13.000Z</time>
      </trkpt>
      <trkpt lat="44.0047" lon="5.90985">
        <ele>706</ele>
        <time>2020-10-05T11:51:14.000Z</time>
      </trkpt>
      <trkpt lat="44.0047" lon="5.90985">
        <ele>706</ele>
        <time>2020-10-05T11:51:15.000Z</time>
      </trkpt>
      <trkpt lat="44.0047" lon="5.90985">
        <ele>706</ele>
        <time>2020-10-05T11:51:16.000Z</time>
      </trkpt>
      <trkpt lat="44.0047" lon="5.90985">
        <ele>706</ele>
        <time>2020-10-05T11:51:17.000Z</time>
      </trkpt>
      <trkpt lat="44.0047" lon="5.90985">
        <ele>706</ele>
        <time>2020-10-05T11:51:18.000Z</time>
      </trkpt>
      <trkpt lat="44.0047" lon="5.90985">
        <ele>706</ele>
        <time>2020-10-05T11:51:19.000Z</time>
      </trkpt>
      <trkpt lat="44.0047" lon="5.90985">
        <ele>706</ele>
        <time>2020-10-05T11:51:20.000Z</time>
      </trkpt>
      <trkpt lat="44.0047" lon="5.90985">
        <ele>706</ele>
        <time>2020-10-05T11:51:21.000Z</time>
      </trkpt>
      <trkpt lat="44.0047" lon="5.90985">
        <ele>706</ele>
        <time>2020-10-05T11:51:22.000Z</time>
      </trkpt>
      <trkpt lat="44.0047" lon="5.90985">
        <ele>706</ele>
        <time>2020-10-05T11:51:23.000Z</time>
      </trkpt>
      <trkpt lat="44.0047" lon="5.90985">
        <ele>706</ele>
        <time>2020-10-05T11:51:24.000Z</time>
      </trkpt>
      <trkpt lat="44.0047" lon="5.90985">
        <ele>706</ele>
        <time>2020-10-05T11:51:25.000Z</time>
      </trkpt>
      <trkpt lat="44.0047" lon="5.90985">
        <ele>706</ele>
        <time>2020-10-05T11:51:26.000Z</time>
      </trkpt>
      <trkpt lat="44.0047" lon="5.90985">
        <ele>706</ele>
        <time>2020-10-05T11:51:27.000Z</time>
      </trkpt>
      <trkpt lat="44.0047" lon="5.90985">
        <ele>706</ele>
        <time>2020-10-05T11:51:28.000Z</time>
      </trkpt>
      <trkpt lat="44.0047" lon="5.90984">
        <ele>706</ele>
        <time>2020-10-05T11:51:29.000Z</time>
      </trkpt>
      <trkpt lat="44.0047" lon="5.90984">
        <ele>706</ele>
        <time>2020-10-05T11:51:30.000Z</time>
      </trkpt>
      <trkpt lat="44.0047" lon="5.90984">
        <ele>706</ele>
        <time>2020-10-05T11:51:31.000Z</time>
      </trkpt>
      <trkpt lat="44.0047" lon="5.90985">
        <ele>706</ele>
        <time>2020-10-05T11:51:32.000Z</time>
      </trkpt>
      <trkpt lat="44.0047" lon="5.90985">
        <ele>706</ele>
        <time>2020-10-05T11:51:33.000Z</time>
      </trkpt>
      <trkpt lat="44.0047" lon="5.90985">
        <ele>706</ele>
        <time>2020-10-05T11:51:34.000Z</time>
      </trkpt>
      <trkpt lat="44.0047" lon="5.90985">
        <ele>706</ele>
        <time>2020-10-05T11:51:35.000Z</time>
      </trkpt>
      <trkpt lat="44.00469" lon="5.90985">
        <ele>706</ele>
        <time>2020-10-05T11:51:36.000Z</time>
      </trkpt>
      <trkpt lat="44.00469" lon="5.90985">
        <ele>706</ele>
        <time>2020-10-05T11:51:37.000Z</time>
      </trkpt>
      <trkpt lat="44.00469" lon="5.90985">
        <ele>706</ele>
        <time>2020-10-05T11:51:38.000Z</time>
      </trkpt>
      <trkpt lat="44.00469" lon="5.90985">
        <ele>706</ele>
        <time>2020-10-05T11:51:39.000Z</time>
      </trkpt>
      <trkpt lat="44.00469" lon="5.90985">
        <ele>706</ele>
        <time>2020-10-05T11:51:40.000Z</time>
      </trkpt>
      <trkpt lat="44.00469" lon="5.90985">
        <ele>706</ele>
        <time>2020-10-05T11:51:41.000Z</time>
      </trkpt>
      <trkpt lat="44.00469" lon="5.90985">
        <ele>706</ele>
        <time>2020-10-05T11:51:42.000Z</time>
      </trkpt>
      <trkpt lat="44.00469" lon="5.90985">
        <ele>706</ele>
        <time>2020-10-05T11:51:43.000Z</time>
      </trkpt>
      <trkpt lat="44.00469" lon="5.90985">
        <ele>706</ele>
        <time>2020-10-05T11:51:44.000Z</time>
      </trkpt>
      <trkpt lat="44.00469" lon="5.90985">
        <ele>706</ele>
        <time>2020-10-05T11:51:45.000Z</time>
      </trkpt>
      <trkpt lat="44.00469" lon="5.90985">
        <ele>706</ele>
        <time>2020-10-05T11:51:46.000Z</time>
      </trkpt>
      <trkpt lat="44.00469" lon="5.90985">
        <ele>706</ele>
        <time>2020-10-05T11:51:47.000Z</time>
      </trkpt>
      <trkpt lat="44.00469" lon="5.90985">
        <ele>706</ele>
        <time>2020-10-05T11:51:48.000Z</time>
      </trkpt>
      <trkpt lat="44.00469" lon="5.90985">
        <ele>706</ele>
        <time>2020-10-05T11:51:49.000Z</time>
      </trkpt>
      <trkpt lat="44.00469" lon="5.90985">
        <ele>706</ele>
        <time>2020-10-05T11:51:50.000Z</time>
      </trkpt>
      <trkpt lat="44.00469" lon="5.90985">
        <ele>706</ele>
        <time>2020-10-05T11:51:51.000Z</time>
      </trkpt>
      <trkpt lat="44.00469" lon="5.90985">
        <ele>706</ele>
        <time>2020-10-05T11:51:52.000Z</time>
      </trkpt>
      <trkpt lat="44.00469" lon="5.90985">
        <ele>706</ele>
        <time>2020-10-05T11:51:53.000Z</time>
      </trkpt>
      <trkpt lat="44.00469" lon="5.90985">
        <ele>706</ele>
        <time>2020-10-05T11:51:54.000Z</time>
      </trkpt>
      <trkpt lat="44.00469" lon="5.90985">
        <ele>706</ele>
        <time>2020-10-05T11:51:55.000Z</time>
      </trkpt>
      <trkpt lat="44.00469" lon="5.90985">
        <ele>706</ele>
        <time>2020-10-05T11:51:56.000Z</time>
      </trkpt>
      <trkpt lat="44.00468" lon="5.90985">
        <ele>706</ele>
        <time>2020-10-05T11:51:57.000Z</time>
      </trkpt>
      <trkpt lat="44.00468" lon="5.90985">
        <ele>706</ele>
        <time>2020-10-05T11:51:58.000Z</time>
      </trkpt>
      <trkpt lat="44.00468" lon="5.90985">
        <ele>706</ele>
        <time>2020-10-05T11:51:59.000Z</time>
      </trkpt>
      <trkpt lat="44.00467" lon="5.90984">
        <ele>706</ele>
        <time>2020-10-05T11:52:00.000Z</time>
      </trkpt>
      <trkpt lat="44.00467" lon="5.90984">
        <ele>706</ele>
        <time>2020-10-05T11:52:01.000Z</time>
      </trkpt>
      <trkpt lat="44.00467" lon="5.90984">
        <ele>707</ele>
        <time>2020-10-05T11:52:02.000Z</time>
      </trkpt>
      <trkpt lat="44.00466" lon="5.90984">
        <ele>707</ele>
        <time>2020-10-05T11:52:03.000Z</time>
      </trkpt>
      <trkpt lat="44.00466" lon="5.90984">
        <ele>707</ele>
        <time>2020-10-05T11:52:04.000Z</time>
      </trkpt>
      <trkpt lat="44.00466" lon="5.90984">
        <ele>707</ele>
        <time>2020-10-05T11:52:05.000Z</time>
      </trkpt>
      <trkpt lat="44.00466" lon="5.90984">
        <ele>707</ele>
        <time>2020-10-05T11:52:06.000Z</time>
      </trkpt>
      <trkpt lat="44.00466" lon="5.90984">
        <ele>707</ele>
        <time>2020-10-05T11:52:07.000Z</time>
      </trkpt>
      <trkpt lat="44.00465" lon="5.90984">
        <ele>707</ele>
        <time>2020-10-05T11:52:08.000Z</time>
      </trkpt>
      <trkpt lat="44.00465" lon="5.90984">
        <ele>707</ele>
        <time>2020-10-05T11:52:09.000Z</time>
      </trkpt>
      <trkpt lat="44.00465" lon="5.90984">
        <ele>707</ele>
        <time>2020-10-05T11:52:10.000Z</time>
      </trkpt>
      <trkpt lat="44.00465" lon="5.90984">
        <ele>707</ele>
        <time>2020-10-05T11:52:11.000Z</time>
      </trkpt>
      <trkpt lat="44.00465" lon="5.90985">
        <ele>707</ele>
        <time>2020-10-05T11:52:12.000Z</time>
      </trkpt>
      <trkpt lat="44.00465" lon="5.90985">
        <ele>707</ele>
        <time>2020-10-05T11:52:13.000Z</time>
      </trkpt>
      <trkpt lat="44.00465" lon="5.90985">
        <ele>707</ele>
        <time>2020-10-05T11:52:14.000Z</time>
      </trkpt>
      <trkpt lat="44.00465" lon="5.90985">
        <ele>707</ele>
        <time>2020-10-05T11:52:15.000Z</time>
      </trkpt>
      <trkpt lat="44.00465" lon="5.90985">
        <ele>707</ele>
        <time>2020-10-05T11:52:16.000Z</time>
      </trkpt>
      <trkpt lat="44.00465" lon="5.90985">
        <ele>707</ele>
        <time>2020-10-05T11:52:17.000Z</time>
      </trkpt>
      <trkpt lat="44.00465" lon="5.90985">
        <ele>707</ele>
        <time>2020-10-05T11:52:18.000Z</time>
      </trkpt>
      <trkpt lat="44.00465" lon="5.90985">
        <ele>707</ele>
        <time>2020-10-05T11:52:19.000Z</time>
      </trkpt>
      <trkpt lat="44.00465" lon="5.90985">
        <ele>707</ele>
        <time>2020-10-05T11:52:20.000Z</time>
      </trkpt>
      <trkpt lat="44.00465" lon="5.90984">
        <ele>707</ele>
        <time>2020-10-05T11:52:21.000Z</time>
      </trkpt>
      <trkpt lat="44.00465" lon="5.90984">
        <ele>707</ele>
        <time>2020-10-05T11:52:22.000Z</time>
      </trkpt>
      <trkpt lat="44.00465" lon="5.90984">
        <ele>707</ele>
        <time>2020-10-05T11:52:23.000Z</time>
      </trkpt>
      <trkpt lat="44.00465" lon="5.90984">
        <ele>707</ele>
        <time>2020-10-05T11:52:24.000Z</time>
      </trkpt>
      <trkpt lat="44.00465" lon="5.90984">
        <ele>707</ele>
        <time>2020-10-05T11:52:25.000Z</time>
      </trkpt>
      <trkpt lat="44.00464" lon="5.90984">
        <ele>707</ele>
        <time>2020-10-05T11:52:26.000Z</time>
      </trkpt>
      <trkpt lat="44.00464" lon="5.90984">
        <ele>707</ele>
        <time>2020-10-05T11:52:27.000Z</time>
      </trkpt>
      <trkpt lat="44.00464" lon="5.90984">
        <ele>707</ele>
        <time>2020-10-05T11:52:28.000Z</time>
      </trkpt>
      <trkpt lat="44.00464" lon="5.90984">
        <ele>707</ele>
        <time>2020-10-05T11:52:29.000Z</time>
      </trkpt>
      <trkpt lat="44.00464" lon="5.90984">
        <ele>707</ele>
        <time>2020-10-05T11:52:30.000Z</time>
      </trkpt>
      <trkpt lat="44.00464" lon="5.90984">
        <ele>708</ele>
        <time>2020-10-05T11:52:31.000Z</time>
      </trkpt>
      <trkpt lat="44.00465" lon="5.90984">
        <ele>708</ele>
        <time>2020-10-05T11:52:32.000Z</time>
      </trkpt>
      <trkpt lat="44.00465" lon="5.90984">
        <ele>708</ele>
        <time>2020-10-05T11:52:33.000Z</time>
      </trkpt>
      <trkpt lat="44.00465" lon="5.90984">
        <ele>708</ele>
        <time>2020-10-05T11:52:34.000Z</time>
      </trkpt>
      <trkpt lat="44.00465" lon="5.90984">
        <ele>708</ele>
        <time>2020-10-05T11:52:35.000Z</time>
      </trkpt>
      <trkpt lat="44.00465" lon="5.90984">
        <ele>708</ele>
        <time>2020-10-05T11:52:36.000Z</time>
      </trkpt>
      <trkpt lat="44.00465" lon="5.90984">
        <ele>708</ele>
        <time>2020-10-05T11:52:37.000Z</time>
      </trkpt>
      <trkpt lat="44.00465" lon="5.90984">
        <ele>708</ele>
        <time>2020-10-05T11:52:38.000Z</time>
      </trkpt>
      <trkpt lat="44.00465" lon="5.90984">
        <ele>708</ele>
        <time>2020-10-05T11:52:39.000Z</time>
      </trkpt>
      <trkpt lat="44.00465" lon="5.90984">
        <ele>708</ele>
        <time>2020-10-05T11:52:40.000Z</time>
      </trkpt>
      <trkpt lat="44.00465" lon="5.90984">
        <ele>708</ele>
        <time>2020-10-05T11:52:41.000Z</time>
      </trkpt>
      <trkpt lat="44.00465" lon="5.90984">
        <ele>708</ele>
        <time>2020-10-05T11:52:42.000Z</time>
      </trkpt>
      <trkpt lat="44.00465" lon="5.90984">
        <ele>708</ele>
        <time>2020-10-05T11:52:43.000Z</time>
      </trkpt>
      <trkpt lat="44.00465" lon="5.90984">
        <ele>708</ele>
        <time>2020-10-05T11:52:44.000Z</time>
      </trkpt>
      <trkpt lat="44.00465" lon="5.90984">
        <ele>708</ele>
        <time>2020-10-05T11:52:45.000Z</time>
      </trkpt>
      <trkpt lat="44.00465" lon="5.90984">
        <ele>708</ele>
        <time>2020-10-05T11:52:46.000Z</time>
      </trkpt>
      <trkpt lat="44.00465" lon="5.90984">
        <ele>708</ele>
        <time>2020-10-05T11:52:47.000Z</time>
      </trkpt>
      <trkpt lat="44.00465" lon="5.90984">
        <ele>708</ele>
        <time>2020-10-05T11:52:48.000Z</time>
      </trkpt>
      <trkpt lat="44.00465" lon="5.90984">
        <ele>708</ele>
        <time>2020-10-05T11:52:49.000Z</time>
      </trkpt>
      <trkpt lat="44.00465" lon="5.90985">
        <ele>708</ele>
        <time>2020-10-05T11:52:50.000Z</time>
      </trkpt>
      <trkpt lat="44.00466" lon="5.90985">
        <ele>708</ele>
        <time>2020-10-05T11:52:51.000Z</time>
      </trkpt>
      <trkpt lat="44.00466" lon="5.90985">
        <ele>708</ele>
        <time>2020-10-05T11:52:52.000Z</time>
      </trkpt>
      <trkpt lat="44.00466" lon="5.90985">
        <ele>708</ele>
        <time>2020-10-05T11:52:53.000Z</time>
      </trkpt>
      <trkpt lat="44.00466" lon="5.90985">
        <ele>708</ele>
        <time>2020-10-05T11:52:54.000Z</time>
      </trkpt>
      <trkpt lat="44.00467" lon="5.90986">
        <ele>708</ele>
        <time>2020-10-05T11:52:55.000Z</time>
      </trkpt>
      <trkpt lat="44.00467" lon="5.90986">
        <ele>708</ele>
        <time>2020-10-05T11:52:56.000Z</time>
      </trkpt>
      <trkpt lat="44.00466" lon="5.90986">
        <ele>708</ele>
        <time>2020-10-05T11:52:57.000Z</time>
      </trkpt>
      <trkpt lat="44.00466" lon="5.90987">
        <ele>708</ele>
        <time>2020-10-05T11:52:58.000Z</time>
      </trkpt>
      <trkpt lat="44.00466" lon="5.90987">
        <ele>708</ele>
        <time>2020-10-05T11:52:59.000Z</time>
      </trkpt>
      <trkpt lat="44.00466" lon="5.90987">
        <ele>708</ele>
        <time>2020-10-05T11:53:00.000Z</time>
      </trkpt>
      <trkpt lat="44.00466" lon="5.90987">
        <ele>708</ele>
        <time>2020-10-05T11:53:01.000Z</time>
      </trkpt>
      <trkpt lat="44.00466" lon="5.90987">
        <ele>708</ele>
        <time>2020-10-05T11:53:02.000Z</time>
      </trkpt>
      <trkpt lat="44.00466" lon="5.90987">
        <ele>708</ele>
        <time>2020-10-05T11:53:03.000Z</time>
      </trkpt>
      <trkpt lat="44.00466" lon="5.90988">
        <ele>708</ele>
        <time>2020-10-05T11:53:04.000Z</time>
      </trkpt>
      <trkpt lat="44.00466" lon="5.90988">
        <ele>708</ele>
        <time>2020-10-05T11:53:05.000Z</time>
      </trkpt>
      <trkpt lat="44.00466" lon="5.90989">
        <ele>708</ele>
        <time>2020-10-05T11:53:06.000Z</time>
      </trkpt>
      <trkpt lat="44.00466" lon="5.90989">
        <ele>708</ele>
        <time>2020-10-05T11:53:07.000Z</time>
      </trkpt>
      <trkpt lat="44.00467" lon="5.90989">
        <ele>708</ele>
        <time>2020-10-05T11:53:08.000Z</time>
      </trkpt>
      <trkpt lat="44.00467" lon="5.90989">
        <ele>708</ele>
        <time>2020-10-05T11:53:09.000Z</time>
      </trkpt>
      <trkpt lat="44.00467" lon="5.9099">
        <ele>708</ele>
        <time>2020-10-05T11:53:10.000Z</time>
      </trkpt>
      <trkpt lat="44.00467" lon="5.9099">
        <ele>708</ele>
        <time>2020-10-05T11:53:11.000Z</time>
      </trkpt>
      <trkpt lat="44.00468" lon="5.90991">
        <ele>708</ele>
        <time>2020-10-05T11:53:12.000Z</time>
      </trkpt>
      <trkpt lat="44.00468" lon="5.90992">
        <ele>708</ele>
        <time>2020-10-05T11:53:13.000Z</time>
      </trkpt>
      <trkpt lat="44.00469" lon="5.90993">
        <ele>708</ele>
        <time>2020-10-05T11:53:14.000Z</time>
      </trkpt>
      <trkpt lat="44.00469" lon="5.90994">
        <ele>708</ele>
        <time>2020-10-05T11:53:15.000Z</time>
      </trkpt>
      <trkpt lat="44.00469" lon="5.90994">
        <ele>708</ele>
        <time>2020-10-05T11:53:16.000Z</time>
      </trkpt>
      <trkpt lat="44.00469" lon="5.90995">
        <ele>708</ele>
        <time>2020-10-05T11:53:17.000Z</time>
      </trkpt>
      <trkpt lat="44.0047" lon="5.90995">
        <ele>708</ele>
        <time>2020-10-05T11:53:18.000Z</time>
      </trkpt>
      <trkpt lat="44.0047" lon="5.90996">
        <ele>707</ele>
        <time>2020-10-05T11:53:19.000Z</time>
      </trkpt>
      <trkpt lat="44.00471" lon="5.90996">
        <ele>707</ele>
        <time>2020-10-05T11:53:20.000Z</time>
      </trkpt>
      <trkpt lat="44.00471" lon="5.90996">
        <ele>707</ele>
        <time>2020-10-05T11:53:21.000Z</time>
      </trkpt>
      <trkpt lat="44.00471" lon="5.90996">
        <ele>707</ele>
        <time>2020-10-05T11:53:22.000Z</time>
      </trkpt>
      <trkpt lat="44.00471" lon="5.90996">
        <ele>707</ele>
        <time>2020-10-05T11:53:23.000Z</time>
      </trkpt>
      <trkpt lat="44.00472" lon="5.90996">
        <ele>707</ele>
        <time>2020-10-05T11:53:24.000Z</time>
      </trkpt>
      <trkpt lat="44.00472" lon="5.90996">
        <ele>707</ele>
        <time>2020-10-05T11:53:25.000Z</time>
      </trkpt>
      <trkpt lat="44.00472" lon="5.90996">
        <ele>707</ele>
        <time>2020-10-05T11:53:26.000Z</time>
      </trkpt>
      <trkpt lat="44.00472" lon="5.90997">
        <ele>707</ele>
        <time>2020-10-05T11:53:27.000Z</time>
      </trkpt>
      <trkpt lat="44.00472" lon="5.90997">
        <ele>707</ele>
        <time>2020-10-05T11:53:28.000Z</time>
      </trkpt>
      <trkpt lat="44.00472" lon="5.90997">
        <ele>707</ele>
        <time>2020-10-05T11:53:29.000Z</time>
      </trkpt>
      <trkpt lat="44.00472" lon="5.90996">
        <ele>707</ele>
        <time>2020-10-05T11:53:30.000Z</time>
      </trkpt>
      <trkpt lat="44.00472" lon="5.90996">
        <ele>707</ele>
        <time>2020-10-05T11:53:31.000Z</time>
      </trkpt>
      <trkpt lat="44.00472" lon="5.90996">
        <ele>707</ele>
        <time>2020-10-05T11:53:32.000Z</time>
      </trkpt>
      <trkpt lat="44.00472" lon="5.90996">
        <ele>707</ele>
        <time>2020-10-05T11:53:33.000Z</time>
      </trkpt>
      <trkpt lat="44.00472" lon="5.90996">
        <ele>707</ele>
        <time>2020-10-05T11:53:34.000Z</time>
      </trkpt>
      <trkpt lat="44.00472" lon="5.90996">
        <ele>707</ele>
        <time>2020-10-05T11:53:35.000Z</time>
      </trkpt>
      <trkpt lat="44.00472" lon="5.90996">
        <ele>707</ele>
        <time>2020-10-05T11:53:36.000Z</time>
      </trkpt>
      <trkpt lat="44.00472" lon="5.90996">
        <ele>707</ele>
        <time>2020-10-05T11:53:37.000Z</time>
      </trkpt>
      <trkpt lat="44.00472" lon="5.90996">
        <ele>707</ele>
        <time>2020-10-05T11:53:38.000Z</time>
      </trkpt>
      <trkpt lat="44.00472" lon="5.90996">
        <ele>707</ele>
        <time>2020-10-05T11:53:39.000Z</time>
      </trkpt>
      <trkpt lat="44.00472" lon="5.90996">
        <ele>707</ele>
        <time>2020-10-05T11:53:40.000Z</time>
      </trkpt>
      <trkpt lat="44.00472" lon="5.90996">
        <ele>707</ele>
        <time>2020-10-05T11:53:41.000Z</time>
      </trkpt>
      <trkpt lat="44.00472" lon="5.90996">
        <ele>707</ele>
        <time>2020-10-05T11:53:42.000Z</time>
      </trkpt>
      <trkpt lat="44.00472" lon="5.90996">
        <ele>707</ele>
        <time>2020-10-05T11:53:43.000Z</time>
      </trkpt>
      <trkpt lat="44.00472" lon="5.90996">
        <ele>707</ele>
        <time>2020-10-05T11:53:44.000Z</time>
      </trkpt>
      <trkpt lat="44.00472" lon="5.90996">
        <ele>707</ele>
        <time>2020-10-05T11:53:45.000Z</time>
      </trkpt>
      <trkpt lat="44.00472" lon="5.90996">
        <ele>707</ele>
        <time>2020-10-05T11:53:46.000Z</time>
      </trkpt>
      <trkpt lat="44.00472" lon="5.90996">
        <ele>707</ele>
        <time>2020-10-05T11:53:47.000Z</time>
      </trkpt>
      <trkpt lat="44.00472" lon="5.90996">
        <ele>707</ele>
        <time>2020-10-05T11:53:48.000Z</time>
      </trkpt>
      <trkpt lat="44.00472" lon="5.90996">
        <ele>707</ele>
        <time>2020-10-05T11:53:49.000Z</time>
      </trkpt>
      <trkpt lat="44.00472" lon="5.90996">
        <ele>707</ele>
        <time>2020-10-05T11:53:50.000Z</time>
      </trkpt>
      <trkpt lat="44.00472" lon="5.90995">
        <ele>707</ele>
        <time>2020-10-05T11:53:51.000Z</time>
      </trkpt>
      <trkpt lat="44.00472" lon="5.90995">
        <ele>707</ele>
        <time>2020-10-05T11:53:52.000Z</time>
      </trkpt>
      <trkpt lat="44.00472" lon="5.90995">
        <ele>707</ele>
        <time>2020-10-05T11:53:53.000Z</time>
      </trkpt>
      <trkpt lat="44.00472" lon="5.90995">
        <ele>707</ele>
        <time>2020-10-05T11:53:54.000Z</time>
      </trkpt>
      <trkpt lat="44.00471" lon="5.90995">
        <ele>707</ele>
        <time>2020-10-05T11:53:55.000Z</time>
      </trkpt>
      <trkpt lat="44.00471" lon="5.90995">
        <ele>707</ele>
        <time>2020-10-05T11:53:56.000Z</time>
      </trkpt>
      <trkpt lat="44.00471" lon="5.90995">
        <ele>708</ele>
        <time>2020-10-05T11:53:57.000Z</time>
      </trkpt>
      <trkpt lat="44.00471" lon="5.90995">
        <ele>708</ele>
        <time>2020-10-05T11:53:58.000Z</time>
      </trkpt>
      <trkpt lat="44.00471" lon="5.90995">
        <ele>708</ele>
        <time>2020-10-05T11:53:59.000Z</time>
      </trkpt>
      <trkpt lat="44.00471" lon="5.90995">
        <ele>708</ele>
        <time>2020-10-05T11:54:00.000Z</time>
      </trkpt>
      <trkpt lat="44.00471" lon="5.90995">
        <ele>708</ele>
        <time>2020-10-05T11:54:01.000Z</time>
      </trkpt>
      <trkpt lat="44.00471" lon="5.90995">
        <ele>708</ele>
        <time>2020-10-05T11:54:02.000Z</time>
      </trkpt>
      <trkpt lat="44.00471" lon="5.90995">
        <ele>708</ele>
        <time>2020-10-05T11:54:03.000Z</time>
      </trkpt>
      <trkpt lat="44.00471" lon="5.90995">
        <ele>708</ele>
        <time>2020-10-05T11:54:04.000Z</time>
      </trkpt>
      <trkpt lat="44.00471" lon="5.90996">
        <ele>708</ele>
        <time>2020-10-05T11:54:05.000Z</time>
      </trkpt>
      <trkpt lat="44.00472" lon="5.90996">
        <ele>708</ele>
        <time>2020-10-05T11:54:06.000Z</time>
      </trkpt>
      <trkpt lat="44.00472" lon="5.90997">
        <ele>708</ele>
        <time>2020-10-05T11:54:07.000Z</time>
      </trkpt>
      <trkpt lat="44.00472" lon="5.90998">
        <ele>708</ele>
        <time>2020-10-05T11:54:08.000Z</time>
      </trkpt>
      <trkpt lat="44.00472" lon="5.90998">
        <ele>708</ele>
        <time>2020-10-05T11:54:09.000Z</time>
      </trkpt>
      <trkpt lat="44.00471" lon="5.90998">
        <ele>708</ele>
        <time>2020-10-05T11:54:10.000Z</time>
      </trkpt>
      <trkpt lat="44.00471" lon="5.90998">
        <ele>708</ele>
        <time>2020-10-05T11:54:11.000Z</time>
      </trkpt>
      <trkpt lat="44.00471" lon="5.90998">
        <ele>708</ele>
        <time>2020-10-05T11:54:12.000Z</time>
      </trkpt>
      <trkpt lat="44.00471" lon="5.90998">
        <ele>708</ele>
        <time>2020-10-05T11:54:13.000Z</time>
      </trkpt>
      <trkpt lat="44.00471" lon="5.90998">
        <ele>708</ele>
        <time>2020-10-05T11:54:14.000Z</time>
      </trkpt>
      <trkpt lat="44.00471" lon="5.90999">
        <ele>708</ele>
        <time>2020-10-05T11:54:15.000Z</time>
      </trkpt>
      <trkpt lat="44.00471" lon="5.90999">
        <ele>708</ele>
        <time>2020-10-05T11:54:16.000Z</time>
      </trkpt>
      <trkpt lat="44.00471" lon="5.91">
        <ele>708</ele>
        <time>2020-10-05T11:54:17.000Z</time>
      </trkpt>
      <trkpt lat="44.00471" lon="5.91001">
        <ele>708</ele>
        <time>2020-10-05T11:54:18.000Z</time>
      </trkpt>
      <trkpt lat="44.00472" lon="5.91001">
        <ele>708</ele>
        <time>2020-10-05T11:54:19.000Z</time>
      </trkpt>
      <trkpt lat="44.00472" lon="5.91002">
        <ele>708</ele>
        <time>2020-10-05T11:54:20.000Z</time>
      </trkpt>
      <trkpt lat="44.00472" lon="5.91004">
        <ele>708</ele>
        <time>2020-10-05T11:54:21.000Z</time>
      </trkpt>
      <trkpt lat="44.00472" lon="5.91005">
        <ele>708</ele>
        <time>2020-10-05T11:54:22.000Z</time>
      </trkpt>
      <trkpt lat="44.00472" lon="5.91006">
        <ele>708</ele>
        <time>2020-10-05T11:54:23.000Z</time>
      </trkpt>
      <trkpt lat="44.00472" lon="5.91007">
        <ele>708</ele>
        <time>2020-10-05T11:54:24.000Z</time>
      </trkpt>
      <trkpt lat="44.00472" lon="5.91009">
        <ele>708</ele>
        <time>2020-10-05T11:54:25.000Z</time>
      </trkpt>
      <trkpt lat="44.00472" lon="5.9101">
        <ele>708</ele>
        <time>2020-10-05T11:54:26.000Z</time>
      </trkpt>
      <trkpt lat="44.00472" lon="5.91012">
        <ele>708</ele>
        <time>2020-10-05T11:54:27.000Z</time>
      </trkpt>
      <trkpt lat="44.00472" lon="5.91013">
        <ele>708</ele>
        <time>2020-10-05T11:54:28.000Z</time>
      </trkpt>
      <trkpt lat="44.00472" lon="5.91014">
        <ele>708</ele>
        <time>2020-10-05T11:54:29.000Z</time>
      </trkpt>
      <trkpt lat="44.00473" lon="5.91016">
        <ele>708</ele>
        <time>2020-10-05T11:54:30.000Z</time>
      </trkpt>
      <trkpt lat="44.00473" lon="5.91018">
        <ele>708</ele>
        <time>2020-10-05T11:54:31.000Z</time>
      </trkpt>
      <trkpt lat="44.00473" lon="5.91019">
        <ele>708</ele>
        <time>2020-10-05T11:54:32.000Z</time>
      </trkpt>
      <trkpt lat="44.00474" lon="5.9102">
        <ele>708</ele>
        <time>2020-10-05T11:54:33.000Z</time>
      </trkpt>
      <trkpt lat="44.00474" lon="5.91022">
        <ele>707</ele>
        <time>2020-10-05T11:54:34.000Z</time>
      </trkpt>
      <trkpt lat="44.00475" lon="5.91023">
        <ele>707</ele>
        <time>2020-10-05T11:54:35.000Z</time>
      </trkpt>
      <trkpt lat="44.00475" lon="5.91024">
        <ele>707</ele>
        <time>2020-10-05T11:54:36.000Z</time>
      </trkpt>
      <trkpt lat="44.00476" lon="5.91025">
        <ele>707</ele>
        <time>2020-10-05T11:54:37.000Z</time>
      </trkpt>
      <trkpt lat="44.00476" lon="5.91026">
        <ele>707</ele>
        <time>2020-10-05T11:54:38.000Z</time>
      </trkpt>
      <trkpt lat="44.00477" lon="5.91027">
        <ele>707</ele>
        <time>2020-10-05T11:54:39.000Z</time>
      </trkpt>
      <trkpt lat="44.00477" lon="5.91028">
        <ele>707</ele>
        <time>2020-10-05T11:54:40.000Z</time>
      </trkpt>
      <trkpt lat="44.00478" lon="5.91028">
        <ele>707</ele>
        <time>2020-10-05T11:54:41.000Z</time>
      </trkpt>
      <trkpt lat="44.00478" lon="5.91029">
        <ele>707</ele>
        <time>2020-10-05T11:54:42.000Z</time>
      </trkpt>
      <trkpt lat="44.00478" lon="5.91029">
        <ele>707</ele>
        <time>2020-10-05T11:54:43.000Z</time>
      </trkpt>
      <trkpt lat="44.00478" lon="5.91029">
        <ele>707</ele>
        <time>2020-10-05T11:54:44.000Z</time>
      </trkpt>
      <trkpt lat="44.00479" lon="5.9103">
        <ele>707</ele>
        <time>2020-10-05T11:54:45.000Z</time>
      </trkpt>
      <trkpt lat="44.00479" lon="5.91031">
        <ele>706</ele>
        <time>2020-10-05T11:54:46.000Z</time>
      </trkpt>
      <trkpt lat="44.00479" lon="5.91031">
        <ele>706</ele>
        <time>2020-10-05T11:54:47.000Z</time>
      </trkpt>
      <trkpt lat="44.00479" lon="5.91032">
        <ele>706</ele>
        <time>2020-10-05T11:54:48.000Z</time>
      </trkpt>
      <trkpt lat="44.00479" lon="5.91032">
        <ele>706</ele>
        <time>2020-10-05T11:54:49.000Z</time>
      </trkpt>
      <trkpt lat="44.00479" lon="5.91032">
        <ele>706</ele>
        <time>2020-10-05T11:54:50.000Z</time>
      </trkpt>
      <trkpt lat="44.00479" lon="5.91032">
        <ele>706</ele>
        <time>2020-10-05T11:54:51.000Z</time>
      </trkpt>
      <trkpt lat="44.00479" lon="5.91032">
        <ele>706</ele>
        <time>2020-10-05T11:54:52.000Z</time>
      </trkpt>
      <trkpt lat="44.00479" lon="5.91033">
        <ele>706</ele>
        <time>2020-10-05T11:54:53.000Z</time>
      </trkpt>
      <trkpt lat="44.00479" lon="5.91033">
        <ele>706</ele>
        <time>2020-10-05T11:54:54.000Z</time>
      </trkpt>
      <trkpt lat="44.00479" lon="5.91033">
        <ele>706</ele>
        <time>2020-10-05T11:54:55.000Z</time>
      </trkpt>
      <trkpt lat="44.00479" lon="5.91033">
        <ele>706</ele>
        <time>2020-10-05T11:54:56.000Z</time>
      </trkpt>
      <trkpt lat="44.00479" lon="5.91033">
        <ele>706</ele>
        <time>2020-10-05T11:54:57.000Z</time>
      </trkpt>
      <trkpt lat="44.00479" lon="5.91033">
        <ele>706</ele>
        <time>2020-10-05T11:54:58.000Z</time>
      </trkpt>
      <trkpt lat="44.0048" lon="5.91034">
        <ele>706</ele>
        <time>2020-10-05T11:54:59.000Z</time>
      </trkpt>
      <trkpt lat="44.0048" lon="5.91035">
        <ele>706</ele>
        <time>2020-10-05T11:55:00.000Z</time>
      </trkpt>
      <trkpt lat="44.0048" lon="5.91035">
        <ele>706</ele>
        <time>2020-10-05T11:55:01.000Z</time>
      </trkpt>
      <trkpt lat="44.00481" lon="5.91036">
        <ele>706</ele>
        <time>2020-10-05T11:55:02.000Z</time>
      </trkpt>
      <trkpt lat="44.00481" lon="5.91036">
        <ele>706</ele>
        <time>2020-10-05T11:55:03.000Z</time>
      </trkpt>
      <trkpt lat="44.00481" lon="5.91036">
        <ele>706</ele>
        <time>2020-10-05T11:55:04.000Z</time>
      </trkpt>
      <trkpt lat="44.00481" lon="5.91036">
        <ele>706</ele>
        <time>2020-10-05T11:55:05.000Z</time>
      </trkpt>
      <trkpt lat="44.00481" lon="5.91036">
        <ele>706</ele>
        <time>2020-10-05T11:55:06.000Z</time>
      </trkpt>
      <trkpt lat="44.00482" lon="5.91036">
        <ele>706</ele>
        <time>2020-10-05T11:55:07.000Z</time>
      </trkpt>
      <trkpt lat="44.00482" lon="5.91036">
        <ele>706</ele>
        <time>2020-10-05T11:55:08.000Z</time>
      </trkpt>
      <trkpt lat="44.00482" lon="5.91036">
        <ele>706</ele>
        <time>2020-10-05T11:55:09.000Z</time>
      </trkpt>
      <trkpt lat="44.00482" lon="5.91036">
        <ele>706</ele>
        <time>2020-10-05T11:55:10.000Z</time>
      </trkpt>
      <trkpt lat="44.00482" lon="5.91036">
        <ele>706</ele>
        <time>2020-10-05T11:55:11.000Z</time>
      </trkpt>
      <trkpt lat="44.00482" lon="5.91036">
        <ele>705</ele>
        <time>2020-10-05T11:55:12.000Z</time>
      </trkpt>
      <trkpt lat="44.00482" lon="5.91036">
        <ele>705</ele>
        <time>2020-10-05T11:55:13.000Z</time>
      </trkpt>
      <trkpt lat="44.00482" lon="5.91036">
        <ele>705</ele>
        <time>2020-10-05T11:55:14.000Z</time>
      </trkpt>
      <trkpt lat="44.00482" lon="5.91036">
        <ele>705</ele>
        <time>2020-10-05T11:55:15.000Z</time>
      </trkpt>
      <trkpt lat="44.00482" lon="5.91036">
        <ele>705</ele>
        <time>2020-10-05T11:55:16.000Z</time>
      </trkpt>
      <trkpt lat="44.00482" lon="5.91036">
        <ele>705</ele>
        <time>2020-10-05T11:55:17.000Z</time>
      </trkpt>
      <trkpt lat="44.00482" lon="5.91036">
        <ele>705</ele>
        <time>2020-10-05T11:55:18.000Z</time>
      </trkpt>
      <trkpt lat="44.00482" lon="5.91036">
        <ele>705</ele>
        <time>2020-10-05T11:55:19.000Z</time>
      </trkpt>
      <trkpt lat="44.00483" lon="5.91036">
        <ele>705</ele>
        <time>2020-10-05T11:55:20.000Z</time>
      </trkpt>
      <trkpt lat="44.00483" lon="5.91036">
        <ele>705</ele>
        <time>2020-10-05T11:55:21.000Z</time>
      </trkpt>
      <trkpt lat="44.00483" lon="5.91036">
        <ele>705</ele>
        <time>2020-10-05T11:55:22.000Z</time>
      </trkpt>
      <trkpt lat="44.00483" lon="5.91036">
        <ele>705</ele>
        <time>2020-10-05T11:55:23.000Z</time>
      </trkpt>
      <trkpt lat="44.00483" lon="5.91036">
        <ele>705</ele>
        <time>2020-10-05T11:55:24.000Z</time>
      </trkpt>
      <trkpt lat="44.00483" lon="5.91036">
        <ele>705</ele>
        <time>2020-10-05T11:55:25.000Z</time>
      </trkpt>
      <trkpt lat="44.00483" lon="5.91036">
        <ele>705</ele>
        <time>2020-10-05T11:55:26.000Z</time>
      </trkpt>
      <trkpt lat="44.00483" lon="5.91036">
        <ele>705</ele>
        <time>2020-10-05T11:55:27.000Z</time>
      </trkpt>
      <trkpt lat="44.00483" lon="5.91036">
        <ele>705</ele>
        <time>2020-10-05T11:55:28.000Z</time>
      </trkpt>
      <trkpt lat="44.00483" lon="5.91036">
        <ele>705</ele>
        <time>2020-10-05T11:55:29.000Z</time>
      </trkpt>
      <trkpt lat="44.00483" lon="5.91036">
        <ele>705</ele>
        <time>2020-10-05T11:55:30.000Z</time>
      </trkpt>
      <trkpt lat="44.00483" lon="5.91036">
        <ele>705</ele>
        <time>2020-10-05T11:55:31.000Z</time>
      </trkpt>
      <trkpt lat="44.00483" lon="5.91037">
        <ele>705</ele>
        <time>2020-10-05T11:55:32.000Z</time>
      </trkpt>
      <trkpt lat="44.00483" lon="5.91037">
        <ele>705</ele>
        <time>2020-10-05T11:55:33.000Z</time>
      </trkpt>
      <trkpt lat="44.00483" lon="5.91037">
        <ele>705</ele>
        <time>2020-10-05T11:55:34.000Z</time>
      </trkpt>
      <trkpt lat="44.00483" lon="5.91037">
        <ele>705</ele>
        <time>2020-10-05T11:55:35.000Z</time>
      </trkpt>
      <trkpt lat="44.00483" lon="5.91037">
        <ele>705</ele>
        <time>2020-10-05T11:55:36.000Z</time>
      </trkpt>
      <trkpt lat="44.00483" lon="5.91037">
        <ele>705</ele>
        <time>2020-10-05T11:55:37.000Z</time>
      </trkpt>
      <trkpt lat="44.00483" lon="5.91037">
        <ele>705</ele>
        <time>2020-10-05T11:55:38.000Z</time>
      </trkpt>
      <trkpt lat="44.00483" lon="5.91038">
        <ele>705</ele>
        <time>2020-10-05T11:55:39.000Z</time>
      </trkpt>
      <trkpt lat="44.00483" lon="5.91038">
        <ele>705</ele>
        <time>2020-10-05T11:55:40.000Z</time>
      </trkpt>
      <trkpt lat="44.00483" lon="5.91038">
        <ele>705</ele>
        <time>2020-10-05T11:55:41.000Z</time>
      </trkpt>
      <trkpt lat="44.00483" lon="5.91039">
        <ele>705</ele>
        <time>2020-10-05T11:55:42.000Z</time>
      </trkpt>
      <trkpt lat="44.00482" lon="5.91039">
        <ele>705</ele>
        <time>2020-10-05T11:55:43.000Z</time>
      </trkpt>
      <trkpt lat="44.00482" lon="5.91039">
        <ele>705</ele>
        <time>2020-10-05T11:55:44.000Z</time>
      </trkpt>
      <trkpt lat="44.00482" lon="5.91038">
        <ele>705</ele>
        <time>2020-10-05T11:55:45.000Z</time>
      </trkpt>
      <trkpt lat="44.00482" lon="5.91038">
        <ele>705</ele>
        <time>2020-10-05T11:55:46.000Z</time>
      </trkpt>
      <trkpt lat="44.00482" lon="5.91038">
        <ele>705</ele>
        <time>2020-10-05T11:55:47.000Z</time>
      </trkpt>
      <trkpt lat="44.00482" lon="5.91038">
        <ele>705</ele>
        <time>2020-10-05T11:55:48.000Z</time>
      </trkpt>
      <trkpt lat="44.00482" lon="5.91038">
        <ele>705</ele>
        <time>2020-10-05T11:55:49.000Z</time>
      </trkpt>
      <trkpt lat="44.00482" lon="5.91038">
        <ele>705</ele>
        <time>2020-10-05T11:55:50.000Z</time>
      </trkpt>
      <trkpt lat="44.00482" lon="5.91038">
        <ele>704</ele>
        <time>2020-10-05T11:55:51.000Z</time>
      </trkpt>
      <trkpt lat="44.00482" lon="5.91038">
        <ele>704</ele>
        <time>2020-10-05T11:55:52.000Z</time>
      </trkpt>
      <trkpt lat="44.00482" lon="5.91038">
        <ele>704</ele>
        <time>2020-10-05T11:55:53.000Z</time>
      </trkpt>
      <trkpt lat="44.00482" lon="5.91038">
        <ele>704</ele>
        <time>2020-10-05T11:55:54.000Z</time>
      </trkpt>
      <trkpt lat="44.00482" lon="5.91038">
        <ele>704</ele>
        <time>2020-10-05T11:55:55.000Z</time>
      </trkpt>
      <trkpt lat="44.00482" lon="5.91038">
        <ele>704</ele>
        <time>2020-10-05T11:55:56.000Z</time>
      </trkpt>
      <trkpt lat="44.00482" lon="5.91038">
        <ele>704</ele>
        <time>2020-10-05T11:55:57.000Z</time>
      </trkpt>
      <trkpt lat="44.00482" lon="5.91038">
        <ele>704</ele>
        <time>2020-10-05T11:55:58.000Z</time>
      </trkpt>
      <trkpt lat="44.00482" lon="5.91038">
        <ele>704</ele>
        <time>2020-10-05T11:55:59.000Z</time>
      </trkpt>
      <trkpt lat="44.00482" lon="5.91038">
        <ele>704</ele>
        <time>2020-10-05T11:56:00.000Z</time>
      </trkpt>
      <trkpt lat="44.00482" lon="5.91038">
        <ele>704</ele>
        <time>2020-10-05T11:56:01.000Z</time>
      </trkpt>
      <trkpt lat="44.00482" lon="5.91038">
        <ele>704</ele>
        <time>2020-10-05T11:56:02.000Z</time>
      </trkpt>
      <trkpt lat="44.00482" lon="5.91038">
        <ele>704</ele>
        <time>2020-10-05T11:56:03.000Z</time>
      </trkpt>
      <trkpt lat="44.00482" lon="5.91038">
        <ele>704</ele>
        <time>2020-10-05T11:56:04.000Z</time>
      </trkpt>
      <trkpt lat="44.00482" lon="5.91038">
        <ele>704</ele>
        <time>2020-10-05T11:56:05.000Z</time>
      </trkpt>
      <trkpt lat="44.00482" lon="5.91038">
        <ele>704</ele>
        <time>2020-10-05T11:56:06.000Z</time>
      </trkpt>
      <trkpt lat="44.00482" lon="5.91038">
        <ele>704</ele>
        <time>2020-10-05T11:56:07.000Z</time>
      </trkpt>
      <trkpt lat="44.00481" lon="5.91037">
        <ele>704</ele>
        <time>2020-10-05T11:56:08.000Z</time>
      </trkpt>
      <trkpt lat="44.00481" lon="5.91037">
        <ele>704</ele>
        <time>2020-10-05T11:56:09.000Z</time>
      </trkpt>
      <trkpt lat="44.00481" lon="5.91037">
        <ele>704</ele>
        <time>2020-10-05T11:56:10.000Z</time>
      </trkpt>
      <trkpt lat="44.00481" lon="5.91037">
        <ele>704</ele>
        <time>2020-10-05T11:56:11.000Z</time>
      </trkpt>
      <trkpt lat="44.00481" lon="5.91037">
        <ele>704</ele>
        <time>2020-10-05T11:56:12.000Z</time>
      </trkpt>
      <trkpt lat="44.00481" lon="5.91037">
        <ele>704</ele>
        <time>2020-10-05T11:56:13.000Z</time>
      </trkpt>
      <trkpt lat="44.00482" lon="5.91037">
        <ele>704</ele>
        <time>2020-10-05T11:56:14.000Z</time>
      </trkpt>
      <trkpt lat="44.00482" lon="5.91037">
        <ele>704</ele>
        <time>2020-10-05T11:56:15.000Z</time>
      </trkpt>
      <trkpt lat="44.00482" lon="5.91037">
        <ele>704</ele>
        <time>2020-10-05T11:56:16.000Z</time>
      </trkpt>
      <trkpt lat="44.00482" lon="5.91037">
        <ele>704</ele>
        <time>2020-10-05T11:56:17.000Z</time>
      </trkpt>
      <trkpt lat="44.00481" lon="5.91037">
        <ele>704</ele>
        <time>2020-10-05T11:56:18.000Z</time>
      </trkpt>
      <trkpt lat="44.00481" lon="5.91037">
        <ele>704</ele>
        <time>2020-10-05T11:56:19.000Z</time>
      </trkpt>
      <trkpt lat="44.00481" lon="5.91037">
        <ele>704</ele>
        <time>2020-10-05T11:56:20.000Z</time>
      </trkpt>
      <trkpt lat="44.00481" lon="5.91037">
        <ele>704</ele>
        <time>2020-10-05T11:56:21.000Z</time>
      </trkpt>
      <trkpt lat="44.00481" lon="5.91037">
        <ele>704</ele>
        <time>2020-10-05T11:56:22.000Z</time>
      </trkpt>
      <trkpt lat="44.00481" lon="5.91037">
        <ele>704</ele>
        <time>2020-10-05T11:56:23.000Z</time>
      </trkpt>
      <trkpt lat="44.00481" lon="5.91037">
        <ele>704</ele>
        <time>2020-10-05T11:56:24.000Z</time>
      </trkpt>
      <trkpt lat="44.00481" lon="5.91037">
        <ele>704</ele>
        <time>2020-10-05T11:56:25.000Z</time>
      </trkpt>
      <trkpt lat="44.00481" lon="5.91037">
        <ele>704</ele>
        <time>2020-10-05T11:56:26.000Z</time>
      </trkpt>
      <trkpt lat="44.00481" lon="5.91037">
        <ele>704</ele>
        <time>2020-10-05T11:56:27.000Z</time>
      </trkpt>
      <trkpt lat="44.00481" lon="5.91037">
        <ele>704</ele>
        <time>2020-10-05T11:56:28.000Z</time>
      </trkpt>
      <trkpt lat="44.00481" lon="5.91037">
        <ele>704</ele>
        <time>2020-10-05T11:56:29.000Z</time>
      </trkpt>
      <trkpt lat="44.00481" lon="5.91037">
        <ele>704</ele>
        <time>2020-10-05T11:56:30.000Z</time>
      </trkpt>
      <trkpt lat="44.00481" lon="5.91037">
        <ele>704</ele>
        <time>2020-10-05T11:56:31.000Z</time>
      </trkpt>
      <trkpt lat="44.00481" lon="5.91037">
        <ele>704</ele>
        <time>2020-10-05T11:56:32.000Z</time>
      </trkpt>
      <trkpt lat="44.00481" lon="5.91037">
        <ele>704</ele>
        <time>2020-10-05T11:56:33.000Z</time>
      </trkpt>
      <trkpt lat="44.00481" lon="5.91037">
        <ele>704</ele>
        <time>2020-10-05T11:56:34.000Z</time>
      </trkpt>
      <trkpt lat="44.00481" lon="5.91037">
        <ele>704</ele>
        <time>2020-10-05T11:56:35.000Z</time>
      </trkpt>
      <trkpt lat="44.00481" lon="5.91037">
        <ele>704</ele>
        <time>2020-10-05T11:56:36.000Z</time>
      </trkpt>
      <trkpt lat="44.00481" lon="5.91037">
        <ele>704</ele>
        <time>2020-10-05T11:56:37.000Z</time>
      </trkpt>
      <trkpt lat="44.00481" lon="5.91037">
        <ele>704</ele>
        <time>2020-10-05T11:56:38.000Z</time>
      </trkpt>
      <trkpt lat="44.00481" lon="5.91037">
        <ele>704</ele>
        <time>2020-10-05T11:56:39.000Z</time>
      </trkpt>
      <trkpt lat="44.00481" lon="5.91037">
        <ele>704</ele>
        <time>2020-10-05T11:56:40.000Z</time>
      </trkpt>
      <trkpt lat="44.00481" lon="5.91037">
        <ele>704</ele>
        <time>2020-10-05T11:56:41.000Z</time>
      </trkpt>
      <trkpt lat="44.00481" lon="5.91037">
        <ele>704</ele>
        <time>2020-10-05T11:56:42.000Z</time>
      </trkpt>
      <trkpt lat="44.00481" lon="5.91037">
        <ele>704</ele>
        <time>2020-10-05T11:56:43.000Z</time>
      </trkpt>
      <trkpt lat="44.00481" lon="5.91037">
        <ele>704</ele>
        <time>2020-10-05T11:56:44.000Z</time>
      </trkpt>
      <trkpt lat="44.00481" lon="5.91037">
        <ele>704</ele>
        <time>2020-10-05T11:56:45.000Z</time>
      </trkpt>
      <trkpt lat="44.00481" lon="5.91037">
        <ele>704</ele>
        <time>2020-10-05T11:56:46.000Z</time>
      </trkpt>
      <trkpt lat="44.00481" lon="5.91037">
        <ele>704</ele>
        <time>2020-10-05T11:56:47.000Z</time>
      </trkpt>
      <trkpt lat="44.00481" lon="5.91037">
        <ele>704</ele>
        <time>2020-10-05T11:56:48.000Z</time>
      </trkpt>
      <trkpt lat="44.00481" lon="5.91037">
        <ele>704</ele>
        <time>2020-10-05T11:56:49.000Z</time>
      </trkpt>
      <trkpt lat="44.00481" lon="5.91037">
        <ele>704</ele>
        <time>2020-10-05T11:56:50.000Z</time>
      </trkpt>
      <trkpt lat="44.00481" lon="5.91037">
        <ele>704</ele>
        <time>2020-10-05T11:56:51.000Z</time>
      </trkpt>
      <trkpt lat="44.00481" lon="5.91037">
        <ele>704</ele>
        <time>2020-10-05T11:56:52.000Z</time>
      </trkpt>
      <trkpt lat="44.00481" lon="5.91037">
        <ele>704</ele>
        <time>2020-10-05T11:56:53.000Z</time>
      </trkpt>
      <trkpt lat="44.00481" lon="5.91037">
        <ele>704</ele>
        <time>2020-10-05T11:56:54.000Z</time>
      </trkpt>
      <trkpt lat="44.00481" lon="5.91037">
        <ele>704</ele>
        <time>2020-10-05T11:56:55.000Z</time>
      </trkpt>
      <trkpt lat="44.00481" lon="5.91037">
        <ele>704</ele>
        <time>2020-10-05T11:56:56.000Z</time>
      </trkpt>
      <trkpt lat="44.00481" lon="5.91037">
        <ele>704</ele>
        <time>2020-10-05T11:56:57.000Z</time>
      </trkpt>
      <trkpt lat="44.00481" lon="5.91037">
        <ele>704</ele>
        <time>2020-10-05T11:56:58.000Z</time>
      </trkpt>
      <trkpt lat="44.00481" lon="5.91037">
        <ele>704</ele>
        <time>2020-10-05T11:56:59.000Z</time>
      </trkpt>
      <trkpt lat="44.00481" lon="5.91037">
        <ele>704</ele>
        <time>2020-10-05T11:57:00.000Z</time>
      </trkpt>
      <trkpt lat="44.00481" lon="5.91037">
        <ele>704</ele>
        <time>2020-10-05T11:57:01.000Z</time>
      </trkpt>
      <trkpt lat="44.00481" lon="5.91037">
        <ele>704</ele>
        <time>2020-10-05T11:57:02.000Z</time>
      </trkpt>
      <trkpt lat="44.00481" lon="5.91037">
        <ele>704</ele>
        <time>2020-10-05T11:57:03.000Z</time>
      </trkpt>
      <trkpt lat="44.00481" lon="5.91037">
        <ele>704</ele>
        <time>2020-10-05T11:57:04.000Z</time>
      </trkpt>
      <trkpt lat="44.00481" lon="5.91037">
        <ele>704</ele>
        <time>2020-10-05T11:57:05.000Z</time>
      </trkpt>
      <trkpt lat="44.00481" lon="5.91037">
        <ele>704</ele>
        <time>2020-10-05T11:57:06.000Z</time>
      </trkpt>
      <trkpt lat="44.00481" lon="5.91037">
        <ele>704</ele>
        <time>2020-10-05T11:57:07.000Z</time>
      </trkpt>
      <trkpt lat="44.00481" lon="5.91037">
        <ele>704</ele>
        <time>2020-10-05T11:57:08.000Z</time>
      </trkpt>
      <trkpt lat="44.00481" lon="5.91037">
        <ele>704</ele>
        <time>2020-10-05T11:57:09.000Z</time>
      </trkpt>
      <trkpt lat="44.00481" lon="5.91037">
        <ele>704</ele>
        <time>2020-10-05T11:57:10.000Z</time>
      </trkpt>
      <trkpt lat="44.00481" lon="5.91037">
        <ele>704</ele>
        <time>2020-10-05T11:57:11.000Z</time>
      </trkpt>
      <trkpt lat="44.00481" lon="5.91037">
        <ele>704</ele>
        <time>2020-10-05T11:57:12.000Z</time>
      </trkpt>
      <trkpt lat="44.00481" lon="5.91037">
        <ele>704</ele>
        <time>2020-10-05T11:57:13.000Z</time>
      </trkpt>
      <trkpt lat="44.00481" lon="5.91037">
        <ele>704</ele>
        <time>2020-10-05T11:57:14.000Z</time>
      </trkpt>
      <trkpt lat="44.00481" lon="5.91037">
        <ele>704</ele>
        <time>2020-10-05T11:57:15.000Z</time>
      </trkpt>
      <trkpt lat="44.00481" lon="5.91037">
        <ele>704</ele>
        <time>2020-10-05T11:57:16.000Z</time>
      </trkpt>
      <trkpt lat="44.00481" lon="5.91037">
        <ele>704</ele>
        <time>2020-10-05T11:57:17.000Z</time>
      </trkpt>
      <trkpt lat="44.00481" lon="5.91037">
        <ele>704</ele>
        <time>2020-10-05T11:57:18.000Z</time>
      </trkpt>
      <trkpt lat="44.00481" lon="5.91037">
        <ele>704</ele>
        <time>2020-10-05T11:57:19.000Z</time>
      </trkpt>
      <trkpt lat="44.00482" lon="5.91037">
        <ele>704</ele>
        <time>2020-10-05T11:57:20.000Z</time>
      </trkpt>
      <trkpt lat="44.00482" lon="5.91037">
        <ele>704</ele>
        <time>2020-10-05T11:57:21.000Z</time>
      </trkpt>
      <trkpt lat="44.00482" lon="5.91037">
        <ele>704</ele>
        <time>2020-10-05T11:57:22.000Z</time>
      </trkpt>
      <trkpt lat="44.00482" lon="5.91037">
        <ele>704</ele>
        <time>2020-10-05T11:57:23.000Z</time>
      </trkpt>
      <trkpt lat="44.00482" lon="5.91037">
        <ele>704</ele>
        <time>2020-10-05T11:57:24.000Z</time>
      </trkpt>
      <trkpt lat="44.00482" lon="5.91037">
        <ele>704</ele>
        <time>2020-10-05T11:57:25.000Z</time>
      </trkpt>
      <trkpt lat="44.00482" lon="5.91037">
        <ele>704</ele>
        <time>2020-10-05T11:57:26.000Z</time>
      </trkpt>
      <trkpt lat="44.00482" lon="5.91037">
        <ele>704</ele>
        <time>2020-10-05T11:57:27.000Z</time>
      </trkpt>
      <trkpt lat="44.00482" lon="5.91037">
        <ele>704</ele>
        <time>2020-10-05T11:57:28.000Z</time>
      </trkpt>
      <trkpt lat="44.00482" lon="5.91037">
        <ele>704</ele>
        <time>2020-10-05T11:57:29.000Z</time>
      </trkpt>
      <trkpt lat="44.00482" lon="5.91037">
        <ele>704</ele>
        <time>2020-10-05T11:57:30.000Z</time>
      </trkpt>
      <trkpt lat="44.00482" lon="5.91037">
        <ele>704</ele>
        <time>2020-10-05T11:57:31.000Z</time>
      </trkpt>
      <trkpt lat="44.00482" lon="5.91037">
        <ele>704</ele>
        <time>2020-10-05T11:57:32.000Z</time>
      </trkpt>
      <trkpt lat="44.00482" lon="5.91037">
        <ele>704</ele>
        <time>2020-10-05T11:57:33.000Z</time>
      </trkpt>
      <trkpt lat="44.00482" lon="5.91037">
        <ele>704</ele>
        <time>2020-10-05T11:57:34.000Z</time>
      </trkpt>
      <trkpt lat="44.00482" lon="5.91037">
        <ele>704</ele>
        <time>2020-10-05T11:57:35.000Z</time>
      </trkpt>
      <trkpt lat="44.00482" lon="5.91037">
        <ele>704</ele>
        <time>2020-10-05T11:57:36.000Z</time>
      </trkpt>
      <trkpt lat="44.00482" lon="5.91037">
        <ele>704</ele>
        <time>2020-10-05T11:57:37.000Z</time>
      </trkpt>
      <trkpt lat="44.00482" lon="5.91037">
        <ele>704</ele>
        <time>2020-10-05T11:57:38.000Z</time>
      </trkpt>
      <trkpt lat="44.00482" lon="5.91037">
        <ele>704</ele>
        <time>2020-10-05T11:57:39.000Z</time>
      </trkpt>
      <trkpt lat="44.00482" lon="5.91037">
        <ele>704</ele>
        <time>2020-10-05T11:57:40.000Z</time>
      </trkpt>
      <trkpt lat="44.00482" lon="5.91037">
        <ele>704</ele>
        <time>2020-10-05T11:57:41.000Z</time>
      </trkpt>
      <trkpt lat="44.00482" lon="5.91037">
        <ele>704</ele>
        <time>2020-10-05T11:57:42.000Z</time>
      </trkpt>
      <trkpt lat="44.00482" lon="5.91037">
        <ele>704</ele>
        <time>2020-10-05T11:57:43.000Z</time>
      </trkpt>
      <trkpt lat="44.00482" lon="5.91037">
        <ele>704</ele>
        <time>2020-10-05T11:57:44.000Z</time>
      </trkpt>
      <trkpt lat="44.00482" lon="5.91037">
        <ele>704</ele>
        <time>2020-10-05T11:57:45.000Z</time>
      </trkpt>
      <trkpt lat="44.00482" lon="5.91037">
        <ele>704</ele>
        <time>2020-10-05T11:57:46.000Z</time>
      </trkpt>
      <trkpt lat="44.00482" lon="5.91037">
        <ele>704</ele>
        <time>2020-10-05T11:57:47.000Z</time>
      </trkpt>
      <trkpt lat="44.00482" lon="5.91037">
        <ele>704</ele>
        <time>2020-10-05T11:57:48.000Z</time>
      </trkpt>
      <trkpt lat="44.00482" lon="5.91037">
        <ele>704</ele>
        <time>2020-10-05T11:57:49.000Z</time>
      </trkpt>
      <trkpt lat="44.00482" lon="5.91037">
        <ele>704</ele>
        <time>2020-10-05T11:57:50.000Z</time>
      </trkpt>
      <trkpt lat="44.00482" lon="5.91037">
        <ele>704</ele>
        <time>2020-10-05T11:57:51.000Z</time>
      </trkpt>
      <trkpt lat="44.00482" lon="5.91037">
        <ele>704</ele>
        <time>2020-10-05T11:57:52.000Z</time>
      </trkpt>
      <trkpt lat="44.00482" lon="5.91037">
        <ele>704</ele>
        <time>2020-10-05T11:57:53.000Z</time>
      </trkpt>
      <trkpt lat="44.00482" lon="5.91037">
        <ele>704</ele>
        <time>2020-10-05T11:57:54.000Z</time>
      </trkpt>
      <trkpt lat="44.00482" lon="5.91037">
        <ele>704</ele>
        <time>2020-10-05T11:57:55.000Z</time>
      </trkpt>
      <trkpt lat="44.00482" lon="5.91037">
        <ele>704</ele>
        <time>2020-10-05T11:57:56.000Z</time>
      </trkpt>
      <trkpt lat="44.00482" lon="5.91037">
        <ele>704</ele>
        <time>2020-10-05T11:57:57.000Z</time>
      </trkpt>
      <trkpt lat="44.00482" lon="5.91036">
        <ele>704</ele>
        <time>2020-10-05T11:57:58.000Z</time>
      </trkpt>
      <trkpt lat="44.00482" lon="5.91036">
        <ele>704</ele>
        <time>2020-10-05T11:57:59.000Z</time>
      </trkpt>
      <trkpt lat="44.00482" lon="5.91036">
        <ele>704</ele>
        <time>2020-10-05T11:58:00.000Z</time>
      </trkpt>
      <trkpt lat="44.00482" lon="5.91036">
        <ele>704</ele>
        <time>2020-10-05T11:58:01.000Z</time>
      </trkpt>
      <trkpt lat="44.00482" lon="5.91036">
        <ele>704</ele>
        <time>2020-10-05T11:58:02.000Z</time>
      </trkpt>
      <trkpt lat="44.00482" lon="5.91036">
        <ele>704</ele>
        <time>2020-10-05T11:58:03.000Z</time>
      </trkpt>
      <trkpt lat="44.00482" lon="5.91036">
        <ele>704</ele>
        <time>2020-10-05T11:58:04.000Z</time>
      </trkpt>
      <trkpt lat="44.00482" lon="5.91036">
        <ele>704</ele>
        <time>2020-10-05T11:58:05.000Z</time>
      </trkpt>
      <trkpt lat="44.00482" lon="5.91036">
        <ele>704</ele>
        <time>2020-10-05T11:58:06.000Z</time>
      </trkpt>
      <trkpt lat="44.00482" lon="5.91036">
        <ele>704</ele>
        <time>2020-10-05T11:58:07.000Z</time>
      </trkpt>
      <trkpt lat="44.00482" lon="5.91036">
        <ele>704</ele>
        <time>2020-10-05T11:58:08.000Z</time>
      </trkpt>
      <trkpt lat="44.00482" lon="5.91036">
        <ele>704</ele>
        <time>2020-10-05T11:58:09.000Z</time>
      </trkpt>
      <trkpt lat="44.00482" lon="5.91036">
        <ele>704</ele>
        <time>2020-10-05T11:58:10.000Z</time>
      </trkpt>
      <trkpt lat="44.00482" lon="5.91036">
        <ele>704</ele>
        <time>2020-10-05T11:58:11.000Z</time>
      </trkpt>
      <trkpt lat="44.00482" lon="5.91036">
        <ele>704</ele>
        <time>2020-10-05T11:58:12.000Z</time>
      </trkpt>
      <trkpt lat="44.00482" lon="5.91036">
        <ele>704</ele>
        <time>2020-10-05T11:58:13.000Z</time>
      </trkpt>
      <trkpt lat="44.00482" lon="5.91036">
        <ele>704</ele>
        <time>2020-10-05T11:58:14.000Z</time>
      </trkpt>
      <trkpt lat="44.00482" lon="5.91036">
        <ele>704</ele>
        <time>2020-10-05T11:58:15.000Z</time>
      </trkpt>
      <trkpt lat="44.00482" lon="5.91036">
        <ele>704</ele>
        <time>2020-10-05T11:58:16.000Z</time>
      </trkpt>
      <trkpt lat="44.00482" lon="5.91036">
        <ele>704</ele>
        <time>2020-10-05T11:58:17.000Z</time>
      </trkpt>
      <trkpt lat="44.00482" lon="5.91036">
        <ele>704</ele>
        <time>2020-10-05T11:58:18.000Z</time>
      </trkpt>
      <trkpt lat="44.00482" lon="5.91036">
        <ele>704</ele>
        <time>2020-10-05T11:58:19.000Z</time>
      </trkpt>
      <trkpt lat="44.00482" lon="5.91036">
        <ele>704</ele>
        <time>2020-10-05T11:58:20.000Z</time>
      </trkpt>
      <trkpt lat="44.00483" lon="5.91036">
        <ele>704</ele>
        <time>2020-10-05T11:58:21.000Z</time>
      </trkpt>
      <trkpt lat="44.00483" lon="5.91036">
        <ele>704</ele>
        <time>2020-10-05T11:58:22.000Z</time>
      </trkpt>
      <trkpt lat="44.00483" lon="5.91036">
        <ele>704</ele>
        <time>2020-10-05T11:58:23.000Z</time>
      </trkpt>
      <trkpt lat="44.00483" lon="5.91036">
        <ele>704</ele>
        <time>2020-10-05T11:58:24.000Z</time>
      </trkpt>
      <trkpt lat="44.00483" lon="5.91036">
        <ele>704</ele>
        <time>2020-10-05T11:58:25.000Z</time>
      </trkpt>
      <trkpt lat="44.00483" lon="5.91036">
        <ele>704</ele>
        <time>2020-10-05T11:58:26.000Z</time>
      </trkpt>
      <trkpt lat="44.00483" lon="5.91036">
        <ele>704</ele>
        <time>2020-10-05T11:58:27.000Z</time>
      </trkpt>
      <trkpt lat="44.00482" lon="5.91036">
        <ele>704</ele>
        <time>2020-10-05T11:58:28.000Z</time>
      </trkpt>
      <trkpt lat="44.00482" lon="5.91036">
        <ele>704</ele>
        <time>2020-10-05T11:58:29.000Z</time>
      </trkpt>
      <trkpt lat="44.00482" lon="5.91036">
        <ele>704</ele>
        <time>2020-10-05T11:58:30.000Z</time>
      </trkpt>
      <trkpt lat="44.00482" lon="5.91035">
        <ele>704</ele>
        <time>2020-10-05T11:58:31.000Z</time>
      </trkpt>
      <trkpt lat="44.00482" lon="5.91035">
        <ele>704</ele>
        <time>2020-10-05T11:58:32.000Z</time>
      </trkpt>
      <trkpt lat="44.00482" lon="5.91035">
        <ele>704</ele>
        <time>2020-10-05T11:58:33.000Z</time>
      </trkpt>
      <trkpt lat="44.00482" lon="5.91035">
        <ele>704</ele>
        <time>2020-10-05T11:58:34.000Z</time>
      </trkpt>
      <trkpt lat="44.00482" lon="5.91035">
        <ele>704</ele>
        <time>2020-10-05T11:58:35.000Z</time>
      </trkpt>
      <trkpt lat="44.00482" lon="5.91035">
        <ele>704</ele>
        <time>2020-10-05T11:58:36.000Z</time>
      </trkpt>
      <trkpt lat="44.00483" lon="5.91035">
        <ele>704</ele>
        <time>2020-10-05T11:58:37.000Z</time>
      </trkpt>
      <trkpt lat="44.00483" lon="5.91035">
        <ele>704</ele>
        <time>2020-10-05T11:58:38.000Z</time>
      </trkpt>
      <trkpt lat="44.00484" lon="5.91034">
        <ele>704</ele>
        <time>2020-10-05T11:58:39.000Z</time>
      </trkpt>
      <trkpt lat="44.00484" lon="5.91034">
        <ele>704</ele>
        <time>2020-10-05T11:58:40.000Z</time>
      </trkpt>
      <trkpt lat="44.00485" lon="5.91034">
        <ele>704</ele>
        <time>2020-10-05T11:58:41.000Z</time>
      </trkpt>
      <trkpt lat="44.00486" lon="5.91034">
        <ele>704</ele>
        <time>2020-10-05T11:58:42.000Z</time>
      </trkpt>
      <trkpt lat="44.00486" lon="5.91034">
        <ele>704</ele>
        <time>2020-10-05T11:58:43.000Z</time>
      </trkpt>
      <trkpt lat="44.00487" lon="5.91034">
        <ele>704</ele>
        <time>2020-10-05T11:58:44.000Z</time>
      </trkpt>
      <trkpt lat="44.00488" lon="5.91033">
        <ele>704</ele>
        <time>2020-10-05T11:58:45.000Z</time>
      </trkpt>
      <trkpt lat="44.00489" lon="5.91033">
        <ele>704</ele>
        <time>2020-10-05T11:58:46.000Z</time>
      </trkpt>
      <trkpt lat="44.00489" lon="5.91033">
        <ele>704</ele>
        <time>2020-10-05T11:58:47.000Z</time>
      </trkpt>
      <trkpt lat="44.0049" lon="5.91034">
        <ele>704</ele>
        <time>2020-10-05T11:58:48.000Z</time>
      </trkpt>
      <trkpt lat="44.0049" lon="5.91034">
        <ele>704</ele>
        <time>2020-10-05T11:58:49.000Z</time>
      </trkpt>
      <trkpt lat="44.00491" lon="5.91034">
        <ele>704</ele>
        <time>2020-10-05T11:58:50.000Z</time>
      </trkpt>
      <trkpt lat="44.00491" lon="5.91034">
        <ele>704</ele>
        <time>2020-10-05T11:58:51.000Z</time>
      </trkpt>
      <trkpt lat="44.00492" lon="5.91035">
        <ele>704</ele>
        <time>2020-10-05T11:58:52.000Z</time>
      </trkpt>
      <trkpt lat="44.00492" lon="5.91035">
        <ele>704</ele>
        <time>2020-10-05T11:58:53.000Z</time>
      </trkpt>
      <trkpt lat="44.00492" lon="5.91035">
        <ele>705</ele>
        <time>2020-10-05T11:58:54.000Z</time>
      </trkpt>
      <trkpt lat="44.00493" lon="5.91035">
        <ele>705</ele>
        <time>2020-10-05T11:58:55.000Z</time>
      </trkpt>
      <trkpt lat="44.00493" lon="5.91035">
        <ele>705</ele>
        <time>2020-10-05T11:58:56.000Z</time>
      </trkpt>
      <trkpt lat="44.00493" lon="5.91035">
        <ele>705</ele>
        <time>2020-10-05T11:58:57.000Z</time>
      </trkpt>
      <trkpt lat="44.00493" lon="5.91035">
        <ele>705</ele>
        <time>2020-10-05T11:58:58.000Z</time>
      </trkpt>
      <trkpt lat="44.00493" lon="5.91035">
        <ele>705</ele>
        <time>2020-10-05T11:58:59.000Z</time>
      </trkpt>
      <trkpt lat="44.00493" lon="5.91035">
        <ele>705</ele>
        <time>2020-10-05T11:59:00.000Z</time>
      </trkpt>
      <trkpt lat="44.00494" lon="5.91036">
        <ele>705</ele>
        <time>2020-10-05T11:59:01.000Z</time>
      </trkpt>
      <trkpt lat="44.00494" lon="5.91037">
        <ele>705</ele>
        <time>2020-10-05T11:59:02.000Z</time>
      </trkpt>
      <trkpt lat="44.00494" lon="5.91037">
        <ele>705</ele>
        <time>2020-10-05T11:59:03.000Z</time>
      </trkpt>
      <trkpt lat="44.00494" lon="5.91037">
        <ele>705</ele>
        <time>2020-10-05T11:59:04.000Z</time>
      </trkpt>
      <trkpt lat="44.00495" lon="5.91038">
        <ele>705</ele>
        <time>2020-10-05T11:59:05.000Z</time>
      </trkpt>
      <trkpt lat="44.00495" lon="5.91038">
        <ele>705</ele>
        <time>2020-10-05T11:59:06.000Z</time>
      </trkpt>
      <trkpt lat="44.00495" lon="5.91038">
        <ele>705</ele>
        <time>2020-10-05T11:59:07.000Z</time>
      </trkpt>
      <trkpt lat="44.00495" lon="5.91038">
        <ele>705</ele>
        <time>2020-10-05T11:59:08.000Z</time>
      </trkpt>
      <trkpt lat="44.00495" lon="5.91038">
        <ele>705</ele>
        <time>2020-10-05T11:59:09.000Z</time>
      </trkpt>
      <trkpt lat="44.00495" lon="5.91038">
        <ele>705</ele>
        <time>2020-10-05T11:59:10.000Z</time>
      </trkpt>
      <trkpt lat="44.00495" lon="5.91038">
        <ele>705</ele>
        <time>2020-10-05T11:59:11.000Z</time>
      </trkpt>
      <trkpt lat="44.00495" lon="5.91039">
        <ele>705</ele>
        <time>2020-10-05T11:59:12.000Z</time>
      </trkpt>
      <trkpt lat="44.00495" lon="5.91038">
        <ele>705</ele>
        <time>2020-10-05T11:59:13.000Z</time>
      </trkpt>
      <trkpt lat="44.00495" lon="5.91038">
        <ele>705</ele>
        <time>2020-10-05T11:59:14.000Z</time>
      </trkpt>
      <trkpt lat="44.00496" lon="5.91038">
        <ele>705</ele>
        <time>2020-10-05T11:59:15.000Z</time>
      </trkpt>
      <trkpt lat="44.00497" lon="5.91038">
        <ele>705</ele>
        <time>2020-10-05T11:59:16.000Z</time>
      </trkpt>
      <trkpt lat="44.00498" lon="5.91038">
        <ele>705</ele>
        <time>2020-10-05T11:59:17.000Z</time>
      </trkpt>
      <trkpt lat="44.00499" lon="5.91039">
        <ele>705</ele>
        <time>2020-10-05T11:59:18.000Z</time>
      </trkpt>
      <trkpt lat="44.005" lon="5.91039">
        <ele>705</ele>
        <time>2020-10-05T11:59:19.000Z</time>
      </trkpt>
      <trkpt lat="44.00501" lon="5.9104">
        <ele>705</ele>
        <time>2020-10-05T11:59:20.000Z</time>
      </trkpt>
      <trkpt lat="44.00502" lon="5.9104">
        <ele>705</ele>
        <time>2020-10-05T11:59:21.000Z</time>
      </trkpt>
      <trkpt lat="44.00503" lon="5.9104">
        <ele>705</ele>
        <time>2020-10-05T11:59:22.000Z</time>
      </trkpt>
      <trkpt lat="44.00504" lon="5.9104">
        <ele>705</ele>
        <time>2020-10-05T11:59:23.000Z</time>
      </trkpt>
      <trkpt lat="44.00504" lon="5.91041">
        <ele>705</ele>
        <time>2020-10-05T11:59:24.000Z</time>
      </trkpt>
      <trkpt lat="44.00505" lon="5.91041">
        <ele>705</ele>
        <time>2020-10-05T11:59:25.000Z</time>
      </trkpt>
      <trkpt lat="44.00505" lon="5.91042">
        <ele>705</ele>
        <time>2020-10-05T11:59:26.000Z</time>
      </trkpt>
      <trkpt lat="44.00506" lon="5.91043">
        <ele>704</ele>
        <time>2020-10-05T11:59:27.000Z</time>
      </trkpt>
      <trkpt lat="44.00506" lon="5.91044">
        <ele>704</ele>
        <time>2020-10-05T11:59:28.000Z</time>
      </trkpt>
      <trkpt lat="44.00506" lon="5.91044">
        <ele>704</ele>
        <time>2020-10-05T11:59:29.000Z</time>
      </trkpt>
      <trkpt lat="44.00506" lon="5.91045">
        <ele>704</ele>
        <time>2020-10-05T11:59:30.000Z</time>
      </trkpt>
      <trkpt lat="44.00506" lon="5.91045">
        <ele>704</ele>
        <time>2020-10-05T11:59:31.000Z</time>
      </trkpt>
      <trkpt lat="44.00506" lon="5.91045">
        <ele>704</ele>
        <time>2020-10-05T11:59:32.000Z</time>
      </trkpt>
      <trkpt lat="44.00507" lon="5.91045">
        <ele>704</ele>
        <time>2020-10-05T11:59:33.000Z</time>
      </trkpt>
      <trkpt lat="44.00507" lon="5.91045">
        <ele>704</ele>
        <time>2020-10-05T11:59:34.000Z</time>
      </trkpt>
      <trkpt lat="44.00507" lon="5.91045">
        <ele>704</ele>
        <time>2020-10-05T11:59:35.000Z</time>
      </trkpt>
      <trkpt lat="44.00507" lon="5.91045">
        <ele>704</ele>
        <time>2020-10-05T11:59:36.000Z</time>
      </trkpt>
      <trkpt lat="44.00507" lon="5.91045">
        <ele>704</ele>
        <time>2020-10-05T11:59:37.000Z</time>
      </trkpt>
      <trkpt lat="44.00507" lon="5.91045">
        <ele>704</ele>
        <time>2020-10-05T11:59:38.000Z</time>
      </trkpt>
      <trkpt lat="44.00507" lon="5.91046">
        <ele>704</ele>
        <time>2020-10-05T11:59:39.000Z</time>
      </trkpt>
      <trkpt lat="44.00507" lon="5.91046">
        <ele>704</ele>
        <time>2020-10-05T11:59:40.000Z</time>
      </trkpt>
      <trkpt lat="44.00507" lon="5.91046">
        <ele>704</ele>
        <time>2020-10-05T11:59:41.000Z</time>
      </trkpt>
      <trkpt lat="44.00507" lon="5.91046">
        <ele>704</ele>
        <time>2020-10-05T11:59:42.000Z</time>
      </trkpt>
      <trkpt lat="44.00507" lon="5.91046">
        <ele>704</ele>
        <time>2020-10-05T11:59:43.000Z</time>
      </trkpt>
      <trkpt lat="44.00507" lon="5.91046">
        <ele>704</ele>
        <time>2020-10-05T11:59:44.000Z</time>
      </trkpt>
      <trkpt lat="44.00507" lon="5.91046">
        <ele>704</ele>
        <time>2020-10-05T11:59:45.000Z</time>
      </trkpt>
      <trkpt lat="44.00507" lon="5.91046">
        <ele>704</ele>
        <time>2020-10-05T11:59:46.000Z</time>
      </trkpt>
      <trkpt lat="44.00507" lon="5.91046">
        <ele>704</ele>
        <time>2020-10-05T11:59:47.000Z</time>
      </trkpt>
      <trkpt lat="44.00507" lon="5.91046">
        <ele>704</ele>
        <time>2020-10-05T11:59:48.000Z</time>
      </trkpt>
      <trkpt lat="44.00507" lon="5.91046">
        <ele>704</ele>
        <time>2020-10-05T11:59:49.000Z</time>
      </trkpt>
      <trkpt lat="44.00507" lon="5.91046">
        <ele>704</ele>
        <time>2020-10-05T11:59:50.000Z</time>
      </trkpt>
      <trkpt lat="44.00507" lon="5.91047">
        <ele>704</ele>
        <time>2020-10-05T11:59:51.000Z</time>
      </trkpt>
      <trkpt lat="44.00507" lon="5.91047">
        <ele>704</ele>
        <time>2020-10-05T11:59:52.000Z</time>
      </trkpt>
      <trkpt lat="44.00507" lon="5.91046">
        <ele>704</ele>
        <time>2020-10-05T11:59:53.000Z</time>
      </trkpt>
      <trkpt lat="44.00508" lon="5.91047">
        <ele>704</ele>
        <time>2020-10-05T11:59:54.000Z</time>
      </trkpt>
      <trkpt lat="44.00508" lon="5.91047">
        <ele>704</ele>
        <time>2020-10-05T11:59:55.000Z</time>
      </trkpt>
      <trkpt lat="44.00508" lon="5.91047">
        <ele>704</ele>
        <time>2020-10-05T11:59:56.000Z</time>
      </trkpt>
      <trkpt lat="44.00508" lon="5.91047">
        <ele>704</ele>
        <time>2020-10-05T11:59:57.000Z</time>
      </trkpt>
      <trkpt lat="44.00508" lon="5.91047">
        <ele>704</ele>
        <time>2020-10-05T11:59:58.000Z</time>
      </trkpt>
      <trkpt lat="44.00508" lon="5.91047">
        <ele>704</ele>
        <time>2020-10-05T11:59:59.000Z</time>
      </trkpt>
      <trkpt lat="44.00508" lon="5.91047">
        <ele>704</ele>
        <time>2020-10-05T12:00:00.000Z</time>
      </trkpt>
      <trkpt lat="44.00508" lon="5.91047">
        <ele>704</ele>
        <time>2020-10-05T12:00:01.000Z</time>
      </trkpt>
      <trkpt lat="44.00508" lon="5.91047">
        <ele>705</ele>
        <time>2020-10-05T12:00:02.000Z</time>
      </trkpt>
      <trkpt lat="44.00508" lon="5.91047">
        <ele>705</ele>
        <time>2020-10-05T12:00:03.000Z</time>
      </trkpt>
      <trkpt lat="44.00508" lon="5.91047">
        <ele>705</ele>
        <time>2020-10-05T12:00:04.000Z</time>
      </trkpt>
      <trkpt lat="44.00508" lon="5.91047">
        <ele>705</ele>
        <time>2020-10-05T12:00:05.000Z</time>
      </trkpt>
      <trkpt lat="44.00508" lon="5.91047">
        <ele>705</ele>
        <time>2020-10-05T12:00:06.000Z</time>
      </trkpt>
      <trkpt lat="44.00507" lon="5.91047">
        <ele>705</ele>
        <time>2020-10-05T12:00:07.000Z</time>
      </trkpt>
      <trkpt lat="44.00508" lon="5.91047">
        <ele>705</ele>
        <time>2020-10-05T12:00:08.000Z</time>
      </trkpt>
      <trkpt lat="44.00508" lon="5.91047">
        <ele>705</ele>
        <time>2020-10-05T12:00:09.000Z</time>
      </trkpt>
      <trkpt lat="44.00508" lon="5.91047">
        <ele>705</ele>
        <time>2020-10-05T12:00:10.000Z</time>
      </trkpt>
      <trkpt lat="44.00508" lon="5.91047">
        <ele>705</ele>
        <time>2020-10-05T12:00:11.000Z</time>
      </trkpt>
      <trkpt lat="44.00508" lon="5.91047">
        <ele>705</ele>
        <time>2020-10-05T12:00:12.000Z</time>
      </trkpt>
      <trkpt lat="44.00508" lon="5.91047">
        <ele>705</ele>
        <time>2020-10-05T12:00:13.000Z</time>
      </trkpt>
      <trkpt lat="44.00508" lon="5.91047">
        <ele>705</ele>
        <time>2020-10-05T12:00:14.000Z</time>
      </trkpt>
      <trkpt lat="44.00507" lon="5.91047">
        <ele>705</ele>
        <time>2020-10-05T12:00:15.000Z</time>
      </trkpt>
      <trkpt lat="44.00507" lon="5.91047">
        <ele>705</ele>
        <time>2020-10-05T12:00:16.000Z</time>
      </trkpt>
      <trkpt lat="44.00507" lon="5.91047">
        <ele>705</ele>
        <time>2020-10-05T12:00:17.000Z</time>
      </trkpt>
      <trkpt lat="44.00507" lon="5.91047">
        <ele>705</ele>
        <time>2020-10-05T12:00:18.000Z</time>
      </trkpt>
      <trkpt lat="44.00507" lon="5.91047">
        <ele>705</ele>
        <time>2020-10-05T12:00:19.000Z</time>
      </trkpt>
      <trkpt lat="44.00507" lon="5.91047">
        <ele>705</ele>
        <time>2020-10-05T12:00:20.000Z</time>
      </trkpt>
      <trkpt lat="44.00507" lon="5.91047">
        <ele>705</ele>
        <time>2020-10-05T12:00:21.000Z</time>
      </trkpt>
      <trkpt lat="44.00507" lon="5.91047">
        <ele>705</ele>
        <time>2020-10-05T12:00:22.000Z</time>
      </trkpt>
      <trkpt lat="44.00507" lon="5.91047">
        <ele>705</ele>
        <time>2020-10-05T12:00:23.000Z</time>
      </trkpt>
      <trkpt lat="44.00507" lon="5.91047">
        <ele>705</ele>
        <time>2020-10-05T12:00:24.000Z</time>
      </trkpt>
      <trkpt lat="44.00507" lon="5.91047">
        <ele>705</ele>
        <time>2020-10-05T12:00:25.000Z</time>
      </trkpt>
      <trkpt lat="44.00507" lon="5.91047">
        <ele>705</ele>
        <time>2020-10-05T12:00:26.000Z</time>
      </trkpt>
      <trkpt lat="44.00507" lon="5.91047">
        <ele>705</ele>
        <time>2020-10-05T12:00:27.000Z</time>
      </trkpt>
      <trkpt lat="44.00507" lon="5.91047">
        <ele>705</ele>
        <time>2020-10-05T12:00:28.000Z</time>
      </trkpt>
      <trkpt lat="44.00507" lon="5.91047">
        <ele>705</ele>
        <time>2020-10-05T12:00:29.000Z</time>
      </trkpt>
      <trkpt lat="44.00507" lon="5.91047">
        <ele>705</ele>
        <time>2020-10-05T12:00:30.000Z</time>
      </trkpt>
      <trkpt lat="44.00507" lon="5.91047">
        <ele>705</ele>
        <time>2020-10-05T12:00:31.000Z</time>
      </trkpt>
      <trkpt lat="44.00507" lon="5.91047">
        <ele>705</ele>
        <time>2020-10-05T12:00:32.000Z</time>
      </trkpt>
      <trkpt lat="44.00507" lon="5.91047">
        <ele>705</ele>
        <time>2020-10-05T12:00:33.000Z</time>
      </trkpt>
      <trkpt lat="44.00507" lon="5.91047">
        <ele>705</ele>
        <time>2020-10-05T12:00:34.000Z</time>
      </trkpt>
      <trkpt lat="44.00507" lon="5.91047">
        <ele>705</ele>
        <time>2020-10-05T12:00:35.000Z</time>
      </trkpt>
      <trkpt lat="44.00507" lon="5.91047">
        <ele>705</ele>
        <time>2020-10-05T12:00:36.000Z</time>
      </trkpt>
      <trkpt lat="44.00507" lon="5.91047">
        <ele>705</ele>
        <time>2020-10-05T12:00:37.000Z</time>
      </trkpt>
      <trkpt lat="44.00507" lon="5.91047">
        <ele>705</ele>
        <time>2020-10-05T12:00:38.000Z</time>
      </trkpt>
      <trkpt lat="44.00507" lon="5.91047">
        <ele>705</ele>
        <time>2020-10-05T12:00:39.000Z</time>
      </trkpt>
      <trkpt lat="44.00507" lon="5.91047">
        <ele>705</ele>
        <time>2020-10-05T12:00:40.000Z</time>
      </trkpt>
      <trkpt lat="44.00507" lon="5.91047">
        <ele>705</ele>
        <time>2020-10-05T12:00:41.000Z</time>
      </trkpt>
      <trkpt lat="44.00507" lon="5.91047">
        <ele>705</ele>
        <time>2020-10-05T12:00:42.000Z</time>
      </trkpt>
      <trkpt lat="44.00507" lon="5.91047">
        <ele>705</ele>
        <time>2020-10-05T12:00:43.000Z</time>
      </trkpt>
      <trkpt lat="44.00507" lon="5.91047">
        <ele>705</ele>
        <time>2020-10-05T12:00:44.000Z</time>
      </trkpt>
      <trkpt lat="44.00507" lon="5.91047">
        <ele>705</ele>
        <time>2020-10-05T12:00:45.000Z</time>
      </trkpt>
      <trkpt lat="44.00507" lon="5.91047">
        <ele>705</ele>
        <time>2020-10-05T12:00:46.000Z</time>
      </trkpt>
      <trkpt lat="44.00507" lon="5.91047">
        <ele>705</ele>
        <time>2020-10-05T12:00:47.000Z</time>
      </trkpt>
      <trkpt lat="44.00507" lon="5.91047">
        <ele>705</ele>
        <time>2020-10-05T12:00:48.000Z</time>
      </trkpt>
      <trkpt lat="44.00507" lon="5.91047">
        <ele>705</ele>
        <time>2020-10-05T12:00:49.000Z</time>
      </trkpt>
      <trkpt lat="44.00507" lon="5.91047">
        <ele>705</ele>
        <time>2020-10-05T12:00:50.000Z</time>
      </trkpt>
      <trkpt lat="44.00507" lon="5.91047">
        <ele>705</ele>
        <time>2020-10-05T12:00:51.000Z</time>
      </trkpt>
      <trkpt lat="44.00507" lon="5.91047">
        <ele>705</ele>
        <time>2020-10-05T12:00:52.000Z</time>
      </trkpt>
      <trkpt lat="44.00507" lon="5.91047">
        <ele>705</ele>
        <time>2020-10-05T12:00:53.000Z</time>
      </trkpt>
      <trkpt lat="44.00507" lon="5.91047">
        <ele>705</ele>
        <time>2020-10-05T12:00:54.000Z</time>
      </trkpt>
      <trkpt lat="44.00507" lon="5.91047">
        <ele>705</ele>
        <time>2020-10-05T12:00:55.000Z</time>
      </trkpt>
      <trkpt lat="44.00507" lon="5.91047">
        <ele>705</ele>
        <time>2020-10-05T12:00:56.000Z</time>
      </trkpt>
      <trkpt lat="44.00507" lon="5.91047">
        <ele>705</ele>
        <time>2020-10-05T12:00:57.000Z</time>
      </trkpt>
      <trkpt lat="44.00507" lon="5.91047">
        <ele>705</ele>
        <time>2020-10-05T12:00:58.000Z</time>
      </trkpt>
      <trkpt lat="44.00507" lon="5.91047">
        <ele>705</ele>
        <time>2020-10-05T12:00:59.000Z</time>
      </trkpt>
      <trkpt lat="44.00507" lon="5.91047">
        <ele>705</ele>
        <time>2020-10-05T12:01:00.000Z</time>
      </trkpt>
      <trkpt lat="44.00507" lon="5.91047">
        <ele>705</ele>
        <time>2020-10-05T12:01:01.000Z</time>
      </trkpt>
      <trkpt lat="44.00507" lon="5.91047">
        <ele>705</ele>
        <time>2020-10-05T12:01:02.000Z</time>
      </trkpt>
      <trkpt lat="44.00507" lon="5.91047">
        <ele>705</ele>
        <time>2020-10-05T12:01:03.000Z</time>
      </trkpt>
      <trkpt lat="44.00507" lon="5.91047">
        <ele>705</ele>
        <time>2020-10-05T12:01:04.000Z</time>
      </trkpt>
      <trkpt lat="44.00507" lon="5.91047">
        <ele>705</ele>
        <time>2020-10-05T12:01:05.000Z</time>
      </trkpt>
      <trkpt lat="44.00507" lon="5.91047">
        <ele>705</ele>
        <time>2020-10-05T12:01:06.000Z</time>
      </trkpt>
      <trkpt lat="44.00507" lon="5.91047">
        <ele>705</ele>
        <time>2020-10-05T12:01:07.000Z</time>
      </trkpt>
      <trkpt lat="44.00507" lon="5.91047">
        <ele>705</ele>
        <time>2020-10-05T12:01:08.000Z</time>
      </trkpt>
      <trkpt lat="44.00507" lon="5.91047">
        <ele>705</ele>
        <time>2020-10-05T12:01:09.000Z</time>
      </trkpt>
      <trkpt lat="44.00507" lon="5.91047">
        <ele>705</ele>
        <time>2020-10-05T12:01:10.000Z</time>
      </trkpt>
      <trkpt lat="44.00507" lon="5.91047">
        <ele>705</ele>
        <time>2020-10-05T12:01:11.000Z</time>
      </trkpt>
      <trkpt lat="44.00507" lon="5.91047">
        <ele>705</ele>
        <time>2020-10-05T12:01:12.000Z</time>
      </trkpt>
      <trkpt lat="44.00507" lon="5.91047">
        <ele>705</ele>
        <time>2020-10-05T12:01:13.000Z</time>
      </trkpt>
      <trkpt lat="44.00507" lon="5.91047">
        <ele>705</ele>
        <time>2020-10-05T12:01:14.000Z</time>
      </trkpt>
      <trkpt lat="44.00507" lon="5.91047">
        <ele>705</ele>
        <time>2020-10-05T12:01:15.000Z</time>
      </trkpt>
      <trkpt lat="44.00507" lon="5.91047">
        <ele>705</ele>
        <time>2020-10-05T12:01:16.000Z</time>
      </trkpt>
      <trkpt lat="44.00507" lon="5.91047">
        <ele>705</ele>
        <time>2020-10-05T12:01:17.000Z</time>
      </trkpt>
      <trkpt lat="44.00507" lon="5.91047">
        <ele>705</ele>
        <time>2020-10-05T12:01:18.000Z</time>
      </trkpt>
      <trkpt lat="44.00507" lon="5.91047">
        <ele>705</ele>
        <time>2020-10-05T12:01:19.000Z</time>
      </trkpt>
      <trkpt lat="44.00507" lon="5.91047">
        <ele>705</ele>
        <time>2020-10-05T12:01:20.000Z</time>
      </trkpt>
      <trkpt lat="44.00507" lon="5.91047">
        <ele>705</ele>
        <time>2020-10-05T12:01:21.000Z</time>
      </trkpt>
      <trkpt lat="44.00507" lon="5.91047">
        <ele>705</ele>
        <time>2020-10-05T12:01:22.000Z</time>
      </trkpt>
      <trkpt lat="44.00507" lon="5.91047">
        <ele>705</ele>
        <time>2020-10-05T12:01:23.000Z</time>
      </trkpt>
      <trkpt lat="44.00507" lon="5.91047">
        <ele>705</ele>
        <time>2020-10-05T12:01:24.000Z</time>
      </trkpt>
      <trkpt lat="44.00507" lon="5.91047">
        <ele>705</ele>
        <time>2020-10-05T12:01:25.000Z</time>
      </trkpt>
      <trkpt lat="44.00507" lon="5.91047">
        <ele>705</ele>
        <time>2020-10-05T12:01:26.000Z</time>
      </trkpt>
      <trkpt lat="44.00508" lon="5.91047">
        <ele>705</ele>
        <time>2020-10-05T12:01:27.000Z</time>
      </trkpt>
      <trkpt lat="44.00508" lon="5.91047">
        <ele>705</ele>
        <time>2020-10-05T12:01:28.000Z</time>
      </trkpt>
      <trkpt lat="44.00508" lon="5.91047">
        <ele>705</ele>
        <time>2020-10-05T12:01:29.000Z</time>
      </trkpt>
      <trkpt lat="44.00508" lon="5.91047">
        <ele>705</ele>
        <time>2020-10-05T12:01:30.000Z</time>
      </trkpt>
      <trkpt lat="44.00508" lon="5.91047">
        <ele>705</ele>
        <time>2020-10-05T12:01:31.000Z</time>
      </trkpt>
      <trkpt lat="44.00508" lon="5.91047">
        <ele>705</ele>
        <time>2020-10-05T12:01:32.000Z</time>
      </trkpt>
      <trkpt lat="44.00508" lon="5.91048">
        <ele>705</ele>
        <time>2020-10-05T12:01:33.000Z</time>
      </trkpt>
      <trkpt lat="44.00508" lon="5.91048">
        <ele>705</ele>
        <time>2020-10-05T12:01:34.000Z</time>
      </trkpt>
      <trkpt lat="44.00507" lon="5.91048">
        <ele>705</ele>
        <time>2020-10-05T12:01:35.000Z</time>
      </trkpt>
      <trkpt lat="44.00507" lon="5.91048">
        <ele>705</ele>
        <time>2020-10-05T12:01:36.000Z</time>
      </trkpt>
      <trkpt lat="44.00507" lon="5.91048">
        <ele>705</ele>
        <time>2020-10-05T12:01:37.000Z</time>
      </trkpt>
      <trkpt lat="44.00507" lon="5.91048">
        <ele>705</ele>
        <time>2020-10-05T12:01:38.000Z</time>
      </trkpt>
      <trkpt lat="44.00507" lon="5.91048">
        <ele>705</ele>
        <time>2020-10-05T12:01:39.000Z</time>
      </trkpt>
      <trkpt lat="44.00507" lon="5.91048">
        <ele>705</ele>
        <time>2020-10-05T12:01:40.000Z</time>
      </trkpt>
      <trkpt lat="44.00507" lon="5.91048">
        <ele>705</ele>
        <time>2020-10-05T12:01:41.000Z</time>
      </trkpt>
      <trkpt lat="44.00507" lon="5.91048">
        <ele>705</ele>
        <time>2020-10-05T12:01:42.000Z</time>
      </trkpt>
      <trkpt lat="44.00508" lon="5.91048">
        <ele>705</ele>
        <time>2020-10-05T12:01:43.000Z</time>
      </trkpt>
      <trkpt lat="44.00508" lon="5.91048">
        <ele>705</ele>
        <time>2020-10-05T12:01:44.000Z</time>
      </trkpt>
      <trkpt lat="44.00508" lon="5.91048">
        <ele>705</ele>
        <time>2020-10-05T12:01:45.000Z</time>
      </trkpt>
      <trkpt lat="44.00508" lon="5.91048">
        <ele>705</ele>
        <time>2020-10-05T12:01:46.000Z</time>
      </trkpt>
      <trkpt lat="44.00508" lon="5.91048">
        <ele>705</ele>
        <time>2020-10-05T12:01:47.000Z</time>
      </trkpt>
      <trkpt lat="44.00508" lon="5.91048">
        <ele>705</ele>
        <time>2020-10-05T12:01:48.000Z</time>
      </trkpt>
      <trkpt lat="44.00508" lon="5.91048">
        <ele>705</ele>
        <time>2020-10-05T12:01:49.000Z</time>
      </trkpt>
      <trkpt lat="44.00508" lon="5.91048">
        <ele>705</ele>
        <time>2020-10-05T12:01:50.000Z</time>
      </trkpt>
      <trkpt lat="44.00508" lon="5.91048">
        <ele>705</ele>
        <time>2020-10-05T12:01:51.000Z</time>
      </trkpt>
      <trkpt lat="44.00508" lon="5.91048">
        <ele>705</ele>
        <time>2020-10-05T12:01:52.000Z</time>
      </trkpt>
      <trkpt lat="44.00508" lon="5.91048">
        <ele>705</ele>
        <time>2020-10-05T12:01:53.000Z</time>
      </trkpt>
      <trkpt lat="44.00508" lon="5.91048">
        <ele>705</ele>
        <time>2020-10-05T12:01:54.000Z</time>
      </trkpt>
      <trkpt lat="44.00508" lon="5.91048">
        <ele>705</ele>
        <time>2020-10-05T12:01:55.000Z</time>
      </trkpt>
      <trkpt lat="44.00508" lon="5.91048">
        <ele>705</ele>
        <time>2020-10-05T12:01:56.000Z</time>
      </trkpt>
      <trkpt lat="44.00508" lon="5.91048">
        <ele>705</ele>
        <time>2020-10-05T12:01:57.000Z</time>
      </trkpt>
      <trkpt lat="44.00508" lon="5.91048">
        <ele>705</ele>
        <time>2020-10-05T12:01:58.000Z</time>
      </trkpt>
      <trkpt lat="44.00508" lon="5.91048">
        <ele>705</ele>
        <time>2020-10-05T12:01:59.000Z</time>
      </trkpt>
      <trkpt lat="44.00508" lon="5.91048">
        <ele>705</ele>
        <time>2020-10-05T12:02:00.000Z</time>
      </trkpt>
      <trkpt lat="44.00508" lon="5.91048">
        <ele>705</ele>
        <time>2020-10-05T12:02:01.000Z</time>
      </trkpt>
      <trkpt lat="44.00508" lon="5.91048">
        <ele>705</ele>
        <time>2020-10-05T12:02:02.000Z</time>
      </trkpt>
      <trkpt lat="44.00508" lon="5.91048">
        <ele>705</ele>
        <time>2020-10-05T12:02:03.000Z</time>
      </trkpt>
      <trkpt lat="44.00508" lon="5.91049">
        <ele>705</ele>
        <time>2020-10-05T12:02:04.000Z</time>
      </trkpt>
      <trkpt lat="44.00508" lon="5.91049">
        <ele>705</ele>
        <time>2020-10-05T12:02:05.000Z</time>
      </trkpt>
      <trkpt lat="44.00508" lon="5.91048">
        <ele>705</ele>
        <time>2020-10-05T12:02:06.000Z</time>
      </trkpt>
      <trkpt lat="44.00508" lon="5.91048">
        <ele>705</ele>
        <time>2020-10-05T12:02:07.000Z</time>
      </trkpt>
      <trkpt lat="44.00508" lon="5.91048">
        <ele>705</ele>
        <time>2020-10-05T12:02:08.000Z</time>
      </trkpt>
      <trkpt lat="44.00508" lon="5.91049">
        <ele>705</ele>
        <time>2020-10-05T12:02:09.000Z</time>
      </trkpt>
      <trkpt lat="44.00508" lon="5.91049">
        <ele>705</ele>
        <time>2020-10-05T12:02:10.000Z</time>
      </trkpt>
      <trkpt lat="44.00508" lon="5.91049">
        <ele>705</ele>
        <time>2020-10-05T12:02:11.000Z</time>
      </trkpt>
      <trkpt lat="44.00508" lon="5.91049">
        <ele>705</ele>
        <time>2020-10-05T12:02:12.000Z</time>
      </trkpt>
      <trkpt lat="44.00508" lon="5.91049">
        <ele>705</ele>
        <time>2020-10-05T12:02:13.000Z</time>
      </trkpt>
      <trkpt lat="44.00508" lon="5.91049">
        <ele>705</ele>
        <time>2020-10-05T12:02:14.000Z</time>
      </trkpt>
      <trkpt lat="44.00508" lon="5.91049">
        <ele>705</ele>
        <time>2020-10-05T12:02:15.000Z</time>
      </trkpt>
      <trkpt lat="44.00508" lon="5.91049">
        <ele>705</ele>
        <time>2020-10-05T12:02:16.000Z</time>
      </trkpt>
      <trkpt lat="44.00508" lon="5.91049">
        <ele>705</ele>
        <time>2020-10-05T12:02:17.000Z</time>
      </trkpt>
      <trkpt lat="44.00508" lon="5.91049">
        <ele>705</ele>
        <time>2020-10-05T12:02:18.000Z</time>
      </trkpt>
      <trkpt lat="44.00508" lon="5.91049">
        <ele>705</ele>
        <time>2020-10-05T12:02:19.000Z</time>
      </trkpt>
      <trkpt lat="44.00508" lon="5.91049">
        <ele>705</ele>
        <time>2020-10-05T12:02:20.000Z</time>
      </trkpt>
      <trkpt lat="44.00508" lon="5.91049">
        <ele>705</ele>
        <time>2020-10-05T12:02:21.000Z</time>
      </trkpt>
      <trkpt lat="44.00508" lon="5.91049">
        <ele>705</ele>
        <time>2020-10-05T12:02:22.000Z</time>
      </trkpt>
      <trkpt lat="44.00508" lon="5.91049">
        <ele>705</ele>
        <time>2020-10-05T12:02:23.000Z</time>
      </trkpt>
      <trkpt lat="44.00508" lon="5.91049">
        <ele>705</ele>
        <time>2020-10-05T12:02:24.000Z</time>
      </trkpt>
      <trkpt lat="44.00508" lon="5.91049">
        <ele>705</ele>
        <time>2020-10-05T12:02:25.000Z</time>
      </trkpt>
      <trkpt lat="44.00508" lon="5.91049">
        <ele>705</ele>
        <time>2020-10-05T12:02:26.000Z</time>
      </trkpt>
      <trkpt lat="44.00508" lon="5.91049">
        <ele>705</ele>
        <time>2020-10-05T12:02:27.000Z</time>
      </trkpt>
      <trkpt lat="44.00508" lon="5.91049">
        <ele>705</ele>
        <time>2020-10-05T12:02:28.000Z</time>
      </trkpt>
      <trkpt lat="44.00508" lon="5.91049">
        <ele>705</ele>
        <time>2020-10-05T12:02:29.000Z</time>
      </trkpt>
      <trkpt lat="44.00508" lon="5.91049">
        <ele>705</ele>
        <time>2020-10-05T12:02:30.000Z</time>
      </trkpt>
      <trkpt lat="44.00508" lon="5.91049">
        <ele>705</ele>
        <time>2020-10-05T12:02:31.000Z</time>
      </trkpt>
      <trkpt lat="44.00509" lon="5.91049">
        <ele>705</ele>
        <time>2020-10-05T12:02:32.000Z</time>
      </trkpt>
      <trkpt lat="44.00509" lon="5.91049">
        <ele>705</ele>
        <time>2020-10-05T12:02:33.000Z</time>
      </trkpt>
      <trkpt lat="44.00509" lon="5.91049">
        <ele>705</ele>
        <time>2020-10-05T12:02:34.000Z</time>
      </trkpt>
      <trkpt lat="44.00509" lon="5.91049">
        <ele>705</ele>
        <time>2020-10-05T12:02:35.000Z</time>
      </trkpt>
      <trkpt lat="44.00509" lon="5.91049">
        <ele>704</ele>
        <time>2020-10-05T12:02:36.000Z</time>
      </trkpt>
      <trkpt lat="44.00509" lon="5.9105">
        <ele>704</ele>
        <time>2020-10-05T12:02:37.000Z</time>
      </trkpt>
      <trkpt lat="44.00509" lon="5.9105">
        <ele>704</ele>
        <time>2020-10-05T12:02:38.000Z</time>
      </trkpt>
      <trkpt lat="44.00508" lon="5.9105">
        <ele>704</ele>
        <time>2020-10-05T12:02:39.000Z</time>
      </trkpt>
      <trkpt lat="44.00508" lon="5.9105">
        <ele>704</ele>
        <time>2020-10-05T12:02:40.000Z</time>
      </trkpt>
      <trkpt lat="44.00508" lon="5.9105">
        <ele>704</ele>
        <time>2020-10-05T12:02:41.000Z</time>
      </trkpt>
      <trkpt lat="44.00508" lon="5.9105">
        <ele>704</ele>
        <time>2020-10-05T12:02:42.000Z</time>
      </trkpt>
      <trkpt lat="44.00508" lon="5.9105">
        <ele>704</ele>
        <time>2020-10-05T12:02:43.000Z</time>
      </trkpt>
      <trkpt lat="44.00508" lon="5.9105">
        <ele>704</ele>
        <time>2020-10-05T12:02:44.000Z</time>
      </trkpt>
      <trkpt lat="44.00508" lon="5.9105">
        <ele>704</ele>
        <time>2020-10-05T12:02:45.000Z</time>
      </trkpt>
      <trkpt lat="44.00508" lon="5.9105">
        <ele>704</ele>
        <time>2020-10-05T12:02:46.000Z</time>
      </trkpt>
      <trkpt lat="44.00508" lon="5.9105">
        <ele>704</ele>
        <time>2020-10-05T12:02:47.000Z</time>
      </trkpt>
      <trkpt lat="44.00508" lon="5.9105">
        <ele>704</ele>
        <time>2020-10-05T12:02:48.000Z</time>
      </trkpt>
      <trkpt lat="44.00508" lon="5.9105">
        <ele>704</ele>
        <time>2020-10-05T12:02:49.000Z</time>
      </trkpt>
      <trkpt lat="44.00508" lon="5.9105">
        <ele>704</ele>
        <time>2020-10-05T12:02:50.000Z</time>
      </trkpt>
      <trkpt lat="44.00508" lon="5.9105">
        <ele>704</ele>
        <time>2020-10-05T12:02:51.000Z</time>
      </trkpt>
      <trkpt lat="44.00508" lon="5.9105">
        <ele>704</ele>
        <time>2020-10-05T12:02:52.000Z</time>
      </trkpt>
      <trkpt lat="44.00508" lon="5.9105">
        <ele>704</ele>
        <time>2020-10-05T12:02:53.000Z</time>
      </trkpt>
      <trkpt lat="44.00508" lon="5.9105">
        <ele>704</ele>
        <time>2020-10-05T12:02:54.000Z</time>
      </trkpt>
      <trkpt lat="44.00508" lon="5.9105">
        <ele>704</ele>
        <time>2020-10-05T12:02:55.000Z</time>
      </trkpt>
      <trkpt lat="44.00508" lon="5.9105">
        <ele>704</ele>
        <time>2020-10-05T12:02:56.000Z</time>
      </trkpt>
      <trkpt lat="44.00508" lon="5.9105">
        <ele>704</ele>
        <time>2020-10-05T12:02:57.000Z</time>
      </trkpt>
      <trkpt lat="44.00508" lon="5.9105">
        <ele>704</ele>
        <time>2020-10-05T12:02:58.000Z</time>
      </trkpt>
      <trkpt lat="44.00508" lon="5.9105">
        <ele>704</ele>
        <time>2020-10-05T12:02:59.000Z</time>
      </trkpt>
      <trkpt lat="44.00508" lon="5.9105">
        <ele>704</ele>
        <time>2020-10-05T12:03:00.000Z</time>
      </trkpt>
      <trkpt lat="44.00508" lon="5.9105">
        <ele>704</ele>
        <time>2020-10-05T12:03:01.000Z</time>
      </trkpt>
      <trkpt lat="44.00508" lon="5.9105">
        <ele>704</ele>
        <time>2020-10-05T12:03:02.000Z</time>
      </trkpt>
      <trkpt lat="44.00508" lon="5.9105">
        <ele>704</ele>
        <time>2020-10-05T12:03:03.000Z</time>
      </trkpt>
      <trkpt lat="44.00508" lon="5.9105">
        <ele>704</ele>
        <time>2020-10-05T12:03:04.000Z</time>
      </trkpt>
      <trkpt lat="44.00508" lon="5.9105">
        <ele>704</ele>
        <time>2020-10-05T12:03:05.000Z</time>
      </trkpt>
      <trkpt lat="44.00508" lon="5.9105">
        <ele>704</ele>
        <time>2020-10-05T12:03:06.000Z</time>
      </trkpt>
      <trkpt lat="44.00508" lon="5.9105">
        <ele>704</ele>
        <time>2020-10-05T12:03:07.000Z</time>
      </trkpt>
      <trkpt lat="44.00508" lon="5.9105">
        <ele>704</ele>
        <time>2020-10-05T12:03:08.000Z</time>
      </trkpt>
      <trkpt lat="44.00508" lon="5.9105">
        <ele>704</ele>
        <time>2020-10-05T12:03:09.000Z</time>
      </trkpt>
      <trkpt lat="44.00508" lon="5.9105">
        <ele>704</ele>
        <time>2020-10-05T12:03:10.000Z</time>
      </trkpt>
      <trkpt lat="44.00508" lon="5.9105">
        <ele>704</ele>
        <time>2020-10-05T12:03:11.000Z</time>
      </trkpt>
      <trkpt lat="44.00508" lon="5.9105">
        <ele>704</ele>
        <time>2020-10-05T12:03:12.000Z</time>
      </trkpt>
      <trkpt lat="44.00508" lon="5.9105">
        <ele>704</ele>
        <time>2020-10-05T12:03:13.000Z</time>
      </trkpt>
      <trkpt lat="44.00508" lon="5.9105">
        <ele>704</ele>
        <time>2020-10-05T12:03:14.000Z</time>
      </trkpt>
      <trkpt lat="44.00508" lon="5.9105">
        <ele>704</ele>
        <time>2020-10-05T12:03:15.000Z</time>
      </trkpt>
      <trkpt lat="44.00508" lon="5.91049">
        <ele>704</ele>
        <time>2020-10-05T12:03:16.000Z</time>
      </trkpt>
      <trkpt lat="44.00508" lon="5.91049">
        <ele>704</ele>
        <time>2020-10-05T12:03:17.000Z</time>
      </trkpt>
      <trkpt lat="44.00508" lon="5.91049">
        <ele>704</ele>
        <time>2020-10-05T12:03:18.000Z</time>
      </trkpt>
      <trkpt lat="44.00508" lon="5.91049">
        <ele>704</ele>
        <time>2020-10-05T12:03:19.000Z</time>
      </trkpt>
      <trkpt lat="44.00508" lon="5.91049">
        <ele>704</ele>
        <time>2020-10-05T12:03:20.000Z</time>
      </trkpt>
      <trkpt lat="44.00508" lon="5.91049">
        <ele>704</ele>
        <time>2020-10-05T12:03:21.000Z</time>
      </trkpt>
      <trkpt lat="44.00508" lon="5.91049">
        <ele>704</ele>
        <time>2020-10-05T12:03:22.000Z</time>
      </trkpt>
      <trkpt lat="44.00508" lon="5.91049">
        <ele>704</ele>
        <time>2020-10-05T12:03:23.000Z</time>
      </trkpt>
      <trkpt lat="44.00507" lon="5.9105">
        <ele>704</ele>
        <time>2020-10-05T12:03:24.000Z</time>
      </trkpt>
      <trkpt lat="44.00507" lon="5.9105">
        <ele>704</ele>
        <time>2020-10-05T12:03:25.000Z</time>
      </trkpt>
      <trkpt lat="44.00508" lon="5.9105">
        <ele>704</ele>
        <time>2020-10-05T12:03:26.000Z</time>
      </trkpt>
      <trkpt lat="44.00508" lon="5.9105">
        <ele>704</ele>
        <time>2020-10-05T12:03:27.000Z</time>
      </trkpt>
      <trkpt lat="44.00508" lon="5.9105">
        <ele>704</ele>
        <time>2020-10-05T12:03:28.000Z</time>
      </trkpt>
      <trkpt lat="44.00508" lon="5.9105">
        <ele>704</ele>
        <time>2020-10-05T12:03:29.000Z</time>
      </trkpt>
      <trkpt lat="44.00508" lon="5.9105">
        <ele>704</ele>
        <time>2020-10-05T12:03:30.000Z</time>
      </trkpt>
      <trkpt lat="44.00508" lon="5.9105">
        <ele>704</ele>
        <time>2020-10-05T12:03:31.000Z</time>
      </trkpt>
      <trkpt lat="44.00508" lon="5.9105">
        <ele>704</ele>
        <time>2020-10-05T12:03:32.000Z</time>
      </trkpt>
      <trkpt lat="44.00508" lon="5.9105">
        <ele>704</ele>
        <time>2020-10-05T12:03:33.000Z</time>
      </trkpt>
      <trkpt lat="44.00508" lon="5.9105">
        <ele>704</ele>
        <time>2020-10-05T12:03:34.000Z</time>
      </trkpt>
      <trkpt lat="44.00508" lon="5.91049">
        <ele>704</ele>
        <time>2020-10-05T12:03:35.000Z</time>
      </trkpt>
      <trkpt lat="44.00508" lon="5.91049">
        <ele>704</ele>
        <time>2020-10-05T12:03:36.000Z</time>
      </trkpt>
      <trkpt lat="44.00508" lon="5.91049">
        <ele>704</ele>
        <time>2020-10-05T12:03:37.000Z</time>
      </trkpt>
      <trkpt lat="44.00507" lon="5.91049">
        <ele>704</ele>
        <time>2020-10-05T12:03:38.000Z</time>
      </trkpt>
      <trkpt lat="44.00507" lon="5.91049">
        <ele>704</ele>
        <time>2020-10-05T12:03:39.000Z</time>
      </trkpt>
      <trkpt lat="44.00507" lon="5.91049">
        <ele>704</ele>
        <time>2020-10-05T12:03:40.000Z</time>
      </trkpt>
      <trkpt lat="44.00507" lon="5.91049">
        <ele>704</ele>
        <time>2020-10-05T12:03:41.000Z</time>
      </trkpt>
      <trkpt lat="44.00507" lon="5.91049">
        <ele>704</ele>
        <time>2020-10-05T12:03:42.000Z</time>
      </trkpt>
      <trkpt lat="44.00508" lon="5.91049">
        <ele>704</ele>
        <time>2020-10-05T12:03:43.000Z</time>
      </trkpt>
      <trkpt lat="44.00508" lon="5.91049">
        <ele>704</ele>
        <time>2020-10-05T12:03:44.000Z</time>
      </trkpt>
      <trkpt lat="44.00508" lon="5.91049">
        <ele>704</ele>
        <time>2020-10-05T12:03:45.000Z</time>
      </trkpt>
      <trkpt lat="44.00508" lon="5.91049">
        <ele>704</ele>
        <time>2020-10-05T12:03:46.000Z</time>
      </trkpt>
      <trkpt lat="44.00508" lon="5.91049">
        <ele>704</ele>
        <time>2020-10-05T12:03:47.000Z</time>
      </trkpt>
      <trkpt lat="44.00507" lon="5.91049">
        <ele>704</ele>
        <time>2020-10-05T12:03:48.000Z</time>
      </trkpt>
      <trkpt lat="44.00507" lon="5.91049">
        <ele>704</ele>
        <time>2020-10-05T12:03:49.000Z</time>
      </trkpt>
      <trkpt lat="44.00508" lon="5.91049">
        <ele>704</ele>
        <time>2020-10-05T12:03:50.000Z</time>
      </trkpt>
      <trkpt lat="44.00508" lon="5.91049">
        <ele>704</ele>
        <time>2020-10-05T12:03:51.000Z</time>
      </trkpt>
      <trkpt lat="44.00508" lon="5.91049">
        <ele>704</ele>
        <time>2020-10-05T12:03:52.000Z</time>
      </trkpt>
      <trkpt lat="44.00508" lon="5.91049">
        <ele>704</ele>
        <time>2020-10-05T12:03:53.000Z</time>
      </trkpt>
      <trkpt lat="44.00508" lon="5.91049">
        <ele>704</ele>
        <time>2020-10-05T12:03:54.000Z</time>
      </trkpt>
      <trkpt lat="44.00509" lon="5.9105">
        <ele>704</ele>
        <time>2020-10-05T12:03:55.000Z</time>
      </trkpt>
      <trkpt lat="44.00509" lon="5.9105">
        <ele>704</ele>
        <time>2020-10-05T12:03:56.000Z</time>
      </trkpt>
      <trkpt lat="44.0051" lon="5.9105">
        <ele>704</ele>
        <time>2020-10-05T12:03:57.000Z</time>
      </trkpt>
      <trkpt lat="44.0051" lon="5.91051">
        <ele>704</ele>
        <time>2020-10-05T12:03:58.000Z</time>
      </trkpt>
      <trkpt lat="44.00511" lon="5.91052">
        <ele>704</ele>
        <time>2020-10-05T12:03:59.000Z</time>
      </trkpt>
      <trkpt lat="44.00512" lon="5.91052">
        <ele>704</ele>
        <time>2020-10-05T12:04:00.000Z</time>
      </trkpt>
      <trkpt lat="44.00512" lon="5.91052">
        <ele>704</ele>
        <time>2020-10-05T12:04:01.000Z</time>
      </trkpt>
      <trkpt lat="44.00513" lon="5.91053">
        <ele>704</ele>
        <time>2020-10-05T12:04:02.000Z</time>
      </trkpt>
      <trkpt lat="44.00514" lon="5.91053">
        <ele>704</ele>
        <time>2020-10-05T12:04:03.000Z</time>
      </trkpt>
      <trkpt lat="44.00515" lon="5.91054">
        <ele>704</ele>
        <time>2020-10-05T12:04:04.000Z</time>
      </trkpt>
      <trkpt lat="44.00516" lon="5.91055">
        <ele>704</ele>
        <time>2020-10-05T12:04:05.000Z</time>
      </trkpt>
      <trkpt lat="44.00517" lon="5.91055">
        <ele>704</ele>
        <time>2020-10-05T12:04:06.000Z</time>
      </trkpt>
      <trkpt lat="44.00517" lon="5.91056">
        <ele>704</ele>
        <time>2020-10-05T12:04:07.000Z</time>
      </trkpt>
      <trkpt lat="44.00518" lon="5.91057">
        <ele>704</ele>
        <time>2020-10-05T12:04:08.000Z</time>
      </trkpt>
      <trkpt lat="44.00518" lon="5.91058">
        <ele>704</ele>
        <time>2020-10-05T12:04:09.000Z</time>
      </trkpt>
      <trkpt lat="44.00519" lon="5.91059">
        <ele>703</ele>
        <time>2020-10-05T12:04:10.000Z</time>
      </trkpt>
      <trkpt lat="44.00519" lon="5.9106">
        <ele>703</ele>
        <time>2020-10-05T12:04:11.000Z</time>
      </trkpt>
      <trkpt lat="44.0052" lon="5.9106">
        <ele>703</ele>
        <time>2020-10-05T12:04:12.000Z</time>
      </trkpt>
      <trkpt lat="44.00521" lon="5.9106">
        <ele>703</ele>
        <time>2020-10-05T12:04:13.000Z</time>
      </trkpt>
      <trkpt lat="44.00522" lon="5.91061">
        <ele>704</ele>
        <time>2020-10-05T12:04:14.000Z</time>
      </trkpt>
      <trkpt lat="44.00523" lon="5.91062">
        <ele>704</ele>
        <time>2020-10-05T12:04:15.000Z</time>
      </trkpt>
      <trkpt lat="44.00524" lon="5.91063">
        <ele>704</ele>
        <time>2020-10-05T12:04:16.000Z</time>
      </trkpt>
      <trkpt lat="44.00525" lon="5.91064">
        <ele>704</ele>
        <time>2020-10-05T12:04:17.000Z</time>
      </trkpt>
      <trkpt lat="44.00525" lon="5.91065">
        <ele>704</ele>
        <time>2020-10-05T12:04:18.000Z</time>
      </trkpt>
      <trkpt lat="44.00526" lon="5.91065">
        <ele>704</ele>
        <time>2020-10-05T12:04:19.000Z</time>
      </trkpt>
      <trkpt lat="44.00527" lon="5.91066">
        <ele>704</ele>
        <time>2020-10-05T12:04:20.000Z</time>
      </trkpt>
      <trkpt lat="44.00528" lon="5.91067">
        <ele>704</ele>
        <time>2020-10-05T12:04:21.000Z</time>
      </trkpt>
      <trkpt lat="44.00529" lon="5.91067">
        <ele>704</ele>
        <time>2020-10-05T12:04:22.000Z</time>
      </trkpt>
      <trkpt lat="44.00529" lon="5.91068">
        <ele>704</ele>
        <time>2020-10-05T12:04:23.000Z</time>
      </trkpt>
      <trkpt lat="44.0053" lon="5.91068">
        <ele>704</ele>
        <time>2020-10-05T12:04:24.000Z</time>
      </trkpt>
      <trkpt lat="44.00531" lon="5.91068">
        <ele>704</ele>
        <time>2020-10-05T12:04:25.000Z</time>
      </trkpt>
      <trkpt lat="44.00531" lon="5.91068">
        <ele>704</ele>
        <time>2020-10-05T12:04:26.000Z</time>
      </trkpt>
      <trkpt lat="44.00531" lon="5.91069">
        <ele>704</ele>
        <time>2020-10-05T12:04:27.000Z</time>
      </trkpt>
      <trkpt lat="44.00532" lon="5.91069">
        <ele>704</ele>
        <time>2020-10-05T12:04:28.000Z</time>
      </trkpt>
      <trkpt lat="44.00532" lon="5.9107">
        <ele>704</ele>
        <time>2020-10-05T12:04:29.000Z</time>
      </trkpt>
      <trkpt lat="44.00533" lon="5.9107">
        <ele>704</ele>
        <time>2020-10-05T12:04:30.000Z</time>
      </trkpt>
      <trkpt lat="44.00533" lon="5.91071">
        <ele>704</ele>
        <time>2020-10-05T12:04:31.000Z</time>
      </trkpt>
      <trkpt lat="44.00534" lon="5.91071">
        <ele>704</ele>
        <time>2020-10-05T12:04:32.000Z</time>
      </trkpt>
      <trkpt lat="44.00534" lon="5.91071">
        <ele>704</ele>
        <time>2020-10-05T12:04:33.000Z</time>
      </trkpt>
      <trkpt lat="44.00534" lon="5.91071">
        <ele>704</ele>
        <time>2020-10-05T12:04:34.000Z</time>
      </trkpt>
      <trkpt lat="44.00534" lon="5.91071">
        <ele>704</ele>
        <time>2020-10-05T12:04:35.000Z</time>
      </trkpt>
      <trkpt lat="44.00534" lon="5.91071">
        <ele>704</ele>
        <time>2020-10-05T12:04:36.000Z</time>
      </trkpt>
      <trkpt lat="44.00534" lon="5.91071">
        <ele>704</ele>
        <time>2020-10-05T12:04:37.000Z</time>
      </trkpt>
      <trkpt lat="44.00534" lon="5.91071">
        <ele>704</ele>
        <time>2020-10-05T12:04:38.000Z</time>
      </trkpt>
      <trkpt lat="44.00534" lon="5.91071">
        <ele>704</ele>
        <time>2020-10-05T12:04:39.000Z</time>
      </trkpt>
      <trkpt lat="44.00534" lon="5.91071">
        <ele>704</ele>
        <time>2020-10-05T12:04:40.000Z</time>
      </trkpt>
      <trkpt lat="44.00534" lon="5.91071">
        <ele>704</ele>
        <time>2020-10-05T12:04:41.000Z</time>
      </trkpt>
      <trkpt lat="44.00535" lon="5.91071">
        <ele>704</ele>
        <time>2020-10-05T12:04:42.000Z</time>
      </trkpt>
      <trkpt lat="44.00535" lon="5.91071">
        <ele>704</ele>
        <time>2020-10-05T12:04:43.000Z</time>
      </trkpt>
      <trkpt lat="44.00536" lon="5.91072">
        <ele>704</ele>
        <time>2020-10-05T12:04:44.000Z</time>
      </trkpt>
      <trkpt lat="44.00537" lon="5.91073">
        <ele>704</ele>
        <time>2020-10-05T12:04:45.000Z</time>
      </trkpt>
      <trkpt lat="44.00537" lon="5.91073">
        <ele>704</ele>
        <time>2020-10-05T12:04:46.000Z</time>
      </trkpt>
      <trkpt lat="44.00538" lon="5.91074">
        <ele>704</ele>
        <time>2020-10-05T12:04:47.000Z</time>
      </trkpt>
      <trkpt lat="44.00539" lon="5.91074">
        <ele>704</ele>
        <time>2020-10-05T12:04:48.000Z</time>
      </trkpt>
      <trkpt lat="44.0054" lon="5.91075">
        <ele>704</ele>
        <time>2020-10-05T12:04:49.000Z</time>
      </trkpt>
      <trkpt lat="44.0054" lon="5.91075">
        <ele>704</ele>
        <time>2020-10-05T12:04:50.000Z</time>
      </trkpt>
      <trkpt lat="44.00541" lon="5.91075">
        <ele>704</ele>
        <time>2020-10-05T12:04:51.000Z</time>
      </trkpt>
      <trkpt lat="44.00542" lon="5.91075">
        <ele>705</ele>
        <time>2020-10-05T12:04:52.000Z</time>
      </trkpt>
      <trkpt lat="44.00543" lon="5.91075">
        <ele>705</ele>
        <time>2020-10-05T12:04:53.000Z</time>
      </trkpt>
      <trkpt lat="44.00544" lon="5.91075">
        <ele>705</ele>
        <time>2020-10-05T12:04:54.000Z</time>
      </trkpt>
      <trkpt lat="44.00545" lon="5.91075">
        <ele>705</ele>
        <time>2020-10-05T12:04:55.000Z</time>
      </trkpt>
      <trkpt lat="44.00546" lon="5.91075">
        <ele>705</ele>
        <time>2020-10-05T12:04:56.000Z</time>
      </trkpt>
      <trkpt lat="44.00547" lon="5.91076">
        <ele>705</ele>
        <time>2020-10-05T12:04:57.000Z</time>
      </trkpt>
      <trkpt lat="44.00547" lon="5.91077">
        <ele>705</ele>
        <time>2020-10-05T12:04:58.000Z</time>
      </trkpt>
      <trkpt lat="44.00548" lon="5.91077">
        <ele>705</ele>
        <time>2020-10-05T12:04:59.000Z</time>
      </trkpt>
      <trkpt lat="44.00549" lon="5.91078">
        <ele>705</ele>
        <time>2020-10-05T12:05:00.000Z</time>
      </trkpt>
      <trkpt lat="44.0055" lon="5.91078">
        <ele>705</ele>
        <time>2020-10-05T12:05:01.000Z</time>
      </trkpt>
      <trkpt lat="44.0055" lon="5.91079">
        <ele>705</ele>
        <time>2020-10-05T12:05:02.000Z</time>
      </trkpt>
      <trkpt lat="44.00551" lon="5.91079">
        <ele>705</ele>
        <time>2020-10-05T12:05:03.000Z</time>
      </trkpt>
      <trkpt lat="44.00552" lon="5.91079">
        <ele>706</ele>
        <time>2020-10-05T12:05:04.000Z</time>
      </trkpt>
      <trkpt lat="44.00552" lon="5.91079">
        <ele>706</ele>
        <time>2020-10-05T12:05:05.000Z</time>
      </trkpt>
      <trkpt lat="44.00552" lon="5.91079">
        <ele>706</ele>
        <time>2020-10-05T12:05:06.000Z</time>
      </trkpt>
      <trkpt lat="44.00552" lon="5.91079">
        <ele>706</ele>
        <time>2020-10-05T12:05:07.000Z</time>
      </trkpt>
      <trkpt lat="44.00552" lon="5.91079">
        <ele>706</ele>
        <time>2020-10-05T12:05:08.000Z</time>
      </trkpt>
      <trkpt lat="44.00552" lon="5.91079">
        <ele>706</ele>
        <time>2020-10-05T12:05:09.000Z</time>
      </trkpt>
      <trkpt lat="44.00552" lon="5.91078">
        <ele>706</ele>
        <time>2020-10-05T12:05:10.000Z</time>
      </trkpt>
      <trkpt lat="44.00553" lon="5.91077">
        <ele>706</ele>
        <time>2020-10-05T12:05:11.000Z</time>
      </trkpt>
      <trkpt lat="44.00553" lon="5.91076">
        <ele>706</ele>
        <time>2020-10-05T12:05:12.000Z</time>
      </trkpt>
      <trkpt lat="44.00554" lon="5.91075">
        <ele>706</ele>
        <time>2020-10-05T12:05:13.000Z</time>
      </trkpt>
      <trkpt lat="44.00554" lon="5.91074">
        <ele>706</ele>
        <time>2020-10-05T12:05:14.000Z</time>
      </trkpt>
      <trkpt lat="44.00555" lon="5.91072">
        <ele>706</ele>
        <time>2020-10-05T12:05:15.000Z</time>
      </trkpt>
      <trkpt lat="44.00556" lon="5.91071">
        <ele>706</ele>
        <time>2020-10-05T12:05:16.000Z</time>
      </trkpt>
      <trkpt lat="44.00556" lon="5.91071">
        <ele>706</ele>
        <time>2020-10-05T12:05:17.000Z</time>
      </trkpt>
      <trkpt lat="44.00557" lon="5.9107">
        <ele>706</ele>
        <time>2020-10-05T12:05:18.000Z</time>
      </trkpt>
      <trkpt lat="44.00558" lon="5.9107">
        <ele>706</ele>
        <time>2020-10-05T12:05:19.000Z</time>
      </trkpt>
      <trkpt lat="44.00559" lon="5.91069">
        <ele>706</ele>
        <time>2020-10-05T12:05:20.000Z</time>
      </trkpt>
      <trkpt lat="44.0056" lon="5.91069">
        <ele>706</ele>
        <time>2020-10-05T12:05:21.000Z</time>
      </trkpt>
      <trkpt lat="44.0056" lon="5.91068">
        <ele>706</ele>
        <time>2020-10-05T12:05:22.000Z</time>
      </trkpt>
      <trkpt lat="44.00561" lon="5.91068">
        <ele>706</ele>
        <time>2020-10-05T12:05:23.000Z</time>
      </trkpt>
      <trkpt lat="44.00562" lon="5.91067">
        <ele>706</ele>
        <time>2020-10-05T12:05:24.000Z</time>
      </trkpt>
      <trkpt lat="44.00563" lon="5.91067">
        <ele>706</ele>
        <time>2020-10-05T12:05:25.000Z</time>
      </trkpt>
      <trkpt lat="44.00564" lon="5.91068">
        <ele>706</ele>
        <time>2020-10-05T12:05:26.000Z</time>
      </trkpt>
      <trkpt lat="44.00565" lon="5.91068">
        <ele>706</ele>
        <time>2020-10-05T12:05:27.000Z</time>
      </trkpt>
      <trkpt lat="44.00566" lon="5.91068">
        <ele>706</ele>
        <time>2020-10-05T12:05:28.000Z</time>
      </trkpt>
      <trkpt lat="44.00567" lon="5.91068">
        <ele>706</ele>
        <time>2020-10-05T12:05:29.000Z</time>
      </trkpt>
      <trkpt lat="44.00567" lon="5.91068">
        <ele>706</ele>
        <time>2020-10-05T12:05:30.000Z</time>
      </trkpt>
      <trkpt lat="44.00568" lon="5.91069">
        <ele>706</ele>
        <time>2020-10-05T12:05:31.000Z</time>
      </trkpt>
      <trkpt lat="44.00568" lon="5.9107">
        <ele>706</ele>
        <time>2020-10-05T12:05:32.000Z</time>
      </trkpt>
      <trkpt lat="44.00568" lon="5.9107">
        <ele>706</ele>
        <time>2020-10-05T12:05:33.000Z</time>
      </trkpt>
      <trkpt lat="44.00568" lon="5.9107">
        <ele>707</ele>
        <time>2020-10-05T12:05:34.000Z</time>
      </trkpt>
      <trkpt lat="44.00568" lon="5.9107">
        <ele>707</ele>
        <time>2020-10-05T12:05:35.000Z</time>
      </trkpt>
      <trkpt lat="44.00568" lon="5.9107">
        <ele>707</ele>
        <time>2020-10-05T12:05:36.000Z</time>
      </trkpt>
      <trkpt lat="44.00568" lon="5.9107">
        <ele>707</ele>
        <time>2020-10-05T12:05:37.000Z</time>
      </trkpt>
      <trkpt lat="44.00569" lon="5.9107">
        <ele>707</ele>
        <time>2020-10-05T12:05:38.000Z</time>
      </trkpt>
      <trkpt lat="44.00568" lon="5.9107">
        <ele>707</ele>
        <time>2020-10-05T12:05:39.000Z</time>
      </trkpt>
      <trkpt lat="44.00569" lon="5.9107">
        <ele>707</ele>
        <time>2020-10-05T12:05:40.000Z</time>
      </trkpt>
      <trkpt lat="44.00569" lon="5.9107">
        <ele>707</ele>
        <time>2020-10-05T12:05:41.000Z</time>
      </trkpt>
      <trkpt lat="44.00569" lon="5.91071">
        <ele>707</ele>
        <time>2020-10-05T12:05:42.000Z</time>
      </trkpt>
      <trkpt lat="44.00569" lon="5.91071">
        <ele>707</ele>
        <time>2020-10-05T12:05:43.000Z</time>
      </trkpt>
      <trkpt lat="44.00569" lon="5.91071">
        <ele>708</ele>
        <time>2020-10-05T12:05:44.000Z</time>
      </trkpt>
      <trkpt lat="44.00569" lon="5.91071">
        <ele>708</ele>
        <time>2020-10-05T12:05:45.000Z</time>
      </trkpt>
      <trkpt lat="44.00569" lon="5.91071">
        <ele>708</ele>
        <time>2020-10-05T12:05:46.000Z</time>
      </trkpt>
      <trkpt lat="44.00569" lon="5.91071">
        <ele>708</ele>
        <time>2020-10-05T12:05:47.000Z</time>
      </trkpt>
      <trkpt lat="44.00569" lon="5.91071">
        <ele>708</ele>
        <time>2020-10-05T12:05:48.000Z</time>
      </trkpt>
      <trkpt lat="44.00569" lon="5.91071">
        <ele>708</ele>
        <time>2020-10-05T12:05:49.000Z</time>
      </trkpt>
      <trkpt lat="44.0057" lon="5.91071">
        <ele>708</ele>
        <time>2020-10-05T12:05:50.000Z</time>
      </trkpt>
      <trkpt lat="44.0057" lon="5.91071">
        <ele>708</ele>
        <time>2020-10-05T12:05:51.000Z</time>
      </trkpt>
      <trkpt lat="44.0057" lon="5.91071">
        <ele>708</ele>
        <time>2020-10-05T12:05:52.000Z</time>
      </trkpt>
      <trkpt lat="44.0057" lon="5.91071">
        <ele>708</ele>
        <time>2020-10-05T12:05:53.000Z</time>
      </trkpt>
      <trkpt lat="44.0057" lon="5.91071">
        <ele>708</ele>
        <time>2020-10-05T12:05:54.000Z</time>
      </trkpt>
      <trkpt lat="44.0057" lon="5.91071">
        <ele>708</ele>
        <time>2020-10-05T12:05:55.000Z</time>
      </trkpt>
      <trkpt lat="44.0057" lon="5.91071">
        <ele>708</ele>
        <time>2020-10-05T12:05:56.000Z</time>
      </trkpt>
      <trkpt lat="44.0057" lon="5.91071">
        <ele>708</ele>
        <time>2020-10-05T12:05:57.000Z</time>
      </trkpt>
      <trkpt lat="44.0057" lon="5.9107">
        <ele>708</ele>
        <time>2020-10-05T12:05:58.000Z</time>
      </trkpt>
      <trkpt lat="44.0057" lon="5.9107">
        <ele>708</ele>
        <time>2020-10-05T12:05:59.000Z</time>
      </trkpt>
      <trkpt lat="44.0057" lon="5.9107">
        <ele>708</ele>
        <time>2020-10-05T12:06:00.000Z</time>
      </trkpt>
      <trkpt lat="44.0057" lon="5.9107">
        <ele>708</ele>
        <time>2020-10-05T12:06:01.000Z</time>
      </trkpt>
      <trkpt lat="44.0057" lon="5.9107">
        <ele>708</ele>
        <time>2020-10-05T12:06:02.000Z</time>
      </trkpt>
      <trkpt lat="44.0057" lon="5.9107">
        <ele>709</ele>
        <time>2020-10-05T12:06:03.000Z</time>
      </trkpt>
      <trkpt lat="44.0057" lon="5.9107">
        <ele>709</ele>
        <time>2020-10-05T12:06:04.000Z</time>
      </trkpt>
      <trkpt lat="44.0057" lon="5.9107">
        <ele>709</ele>
        <time>2020-10-05T12:06:05.000Z</time>
      </trkpt>
      <trkpt lat="44.0057" lon="5.9107">
        <ele>709</ele>
        <time>2020-10-05T12:06:06.000Z</time>
      </trkpt>
      <trkpt lat="44.0057" lon="5.9107">
        <ele>709</ele>
        <time>2020-10-05T12:06:07.000Z</time>
      </trkpt>
      <trkpt lat="44.0057" lon="5.9107">
        <ele>709</ele>
        <time>2020-10-05T12:06:08.000Z</time>
      </trkpt>
      <trkpt lat="44.0057" lon="5.9107">
        <ele>709</ele>
        <time>2020-10-05T12:06:09.000Z</time>
      </trkpt>
      <trkpt lat="44.0057" lon="5.9107">
        <ele>709</ele>
        <time>2020-10-05T12:06:10.000Z</time>
      </trkpt>
      <trkpt lat="44.0057" lon="5.9107">
        <ele>709</ele>
        <time>2020-10-05T12:06:11.000Z</time>
      </trkpt>
      <trkpt lat="44.0057" lon="5.9107">
        <ele>709</ele>
        <time>2020-10-05T12:06:12.000Z</time>
      </trkpt>
      <trkpt lat="44.0057" lon="5.91069">
        <ele>709</ele>
        <time>2020-10-05T12:06:13.000Z</time>
      </trkpt>
      <trkpt lat="44.0057" lon="5.91068">
        <ele>709</ele>
        <time>2020-10-05T12:06:14.000Z</time>
      </trkpt>
      <trkpt lat="44.0057" lon="5.91068">
        <ele>709</ele>
        <time>2020-10-05T12:06:15.000Z</time>
      </trkpt>
      <trkpt lat="44.00571" lon="5.91068">
        <ele>709</ele>
        <time>2020-10-05T12:06:16.000Z</time>
      </trkpt>
      <trkpt lat="44.00571" lon="5.91068">
        <ele>709</ele>
        <time>2020-10-05T12:06:17.000Z</time>
      </trkpt>
      <trkpt lat="44.0057" lon="5.91068">
        <ele>709</ele>
        <time>2020-10-05T12:06:18.000Z</time>
      </trkpt>
      <trkpt lat="44.00571" lon="5.91068">
        <ele>709</ele>
        <time>2020-10-05T12:06:19.000Z</time>
      </trkpt>
      <trkpt lat="44.00571" lon="5.91068">
        <ele>709</ele>
        <time>2020-10-05T12:06:20.000Z</time>
      </trkpt>
      <trkpt lat="44.00571" lon="5.91068">
        <ele>709</ele>
        <time>2020-10-05T12:06:21.000Z</time>
      </trkpt>
      <trkpt lat="44.00571" lon="5.91068">
        <ele>709</ele>
        <time>2020-10-05T12:06:22.000Z</time>
      </trkpt>
      <trkpt lat="44.00571" lon="5.91068">
        <ele>709</ele>
        <time>2020-10-05T12:06:23.000Z</time>
      </trkpt>
      <trkpt lat="44.00571" lon="5.91068">
        <ele>709</ele>
        <time>2020-10-05T12:06:24.000Z</time>
      </trkpt>
      <trkpt lat="44.00571" lon="5.91068">
        <ele>709</ele>
        <time>2020-10-05T12:06:25.000Z</time>
      </trkpt>
      <trkpt lat="44.00571" lon="5.91068">
        <ele>709</ele>
        <time>2020-10-05T12:06:26.000Z</time>
      </trkpt>
      <trkpt lat="44.00571" lon="5.91068">
        <ele>709</ele>
        <time>2020-10-05T12:06:27.000Z</time>
      </trkpt>
      <trkpt lat="44.00571" lon="5.91068">
        <ele>709</ele>
        <time>2020-10-05T12:06:28.000Z</time>
      </trkpt>
      <trkpt lat="44.00571" lon="5.91068">
        <ele>709</ele>
        <time>2020-10-05T12:06:29.000Z</time>
      </trkpt>
      <trkpt lat="44.00571" lon="5.91068">
        <ele>709</ele>
        <time>2020-10-05T12:06:30.000Z</time>
      </trkpt>
      <trkpt lat="44.00571" lon="5.91068">
        <ele>709</ele>
        <time>2020-10-05T12:06:31.000Z</time>
      </trkpt>
      <trkpt lat="44.00571" lon="5.91068">
        <ele>709</ele>
        <time>2020-10-05T12:06:32.000Z</time>
      </trkpt>
      <trkpt lat="44.00571" lon="5.91068">
        <ele>709</ele>
        <time>2020-10-05T12:06:33.000Z</time>
      </trkpt>
      <trkpt lat="44.00571" lon="5.91068">
        <ele>709</ele>
        <time>2020-10-05T12:06:34.000Z</time>
      </trkpt>
      <trkpt lat="44.00571" lon="5.91068">
        <ele>709</ele>
        <time>2020-10-05T12:06:35.000Z</time>
      </trkpt>
      <trkpt lat="44.00571" lon="5.91068">
        <ele>709</ele>
        <time>2020-10-05T12:06:36.000Z</time>
      </trkpt>
      <trkpt lat="44.00571" lon="5.91068">
        <ele>709</ele>
        <time>2020-10-05T12:06:37.000Z</time>
      </trkpt>
      <trkpt lat="44.00571" lon="5.91068">
        <ele>709</ele>
        <time>2020-10-05T12:06:38.000Z</time>
      </trkpt>
      <trkpt lat="44.00571" lon="5.91068">
        <ele>709</ele>
        <time>2020-10-05T12:06:39.000Z</time>
      </trkpt>
      <trkpt lat="44.00571" lon="5.91068">
        <ele>709</ele>
        <time>2020-10-05T12:06:40.000Z</time>
      </trkpt>
      <trkpt lat="44.00571" lon="5.91068">
        <ele>709</ele>
        <time>2020-10-05T12:06:41.000Z</time>
      </trkpt>
      <trkpt lat="44.00571" lon="5.91068">
        <ele>709</ele>
        <time>2020-10-05T12:06:42.000Z</time>
      </trkpt>
      <trkpt lat="44.00571" lon="5.91068">
        <ele>709</ele>
        <time>2020-10-05T12:06:43.000Z</time>
      </trkpt>
      <trkpt lat="44.00571" lon="5.91068">
        <ele>709</ele>
        <time>2020-10-05T12:06:44.000Z</time>
      </trkpt>
      <trkpt lat="44.00571" lon="5.91068">
        <ele>709</ele>
        <time>2020-10-05T12:06:45.000Z</time>
      </trkpt>
      <trkpt lat="44.00571" lon="5.91068">
        <ele>709</ele>
        <time>2020-10-05T12:06:46.000Z</time>
      </trkpt>
      <trkpt lat="44.00571" lon="5.91068">
        <ele>709</ele>
        <time>2020-10-05T12:06:47.000Z</time>
      </trkpt>
      <trkpt lat="44.00571" lon="5.91068">
        <ele>709</ele>
        <time>2020-10-05T12:06:48.000Z</time>
      </trkpt>
      <trkpt lat="44.00571" lon="5.91068">
        <ele>709</ele>
        <time>2020-10-05T12:06:49.000Z</time>
      </trkpt>
      <trkpt lat="44.00571" lon="5.91068">
        <ele>709</ele>
        <time>2020-10-05T12:06:50.000Z</time>
      </trkpt>
      <trkpt lat="44.00571" lon="5.91068">
        <ele>709</ele>
        <time>2020-10-05T12:06:51.000Z</time>
      </trkpt>
      <trkpt lat="44.00571" lon="5.91068">
        <ele>709</ele>
        <time>2020-10-05T12:06:52.000Z</time>
      </trkpt>
      <trkpt lat="44.00571" lon="5.91068">
        <ele>709</ele>
        <time>2020-10-05T12:06:53.000Z</time>
      </trkpt>
      <trkpt lat="44.00571" lon="5.91068">
        <ele>709</ele>
        <time>2020-10-05T12:06:54.000Z</time>
      </trkpt>
      <trkpt lat="44.00571" lon="5.91068">
        <ele>709</ele>
        <time>2020-10-05T12:06:55.000Z</time>
      </trkpt>
      <trkpt lat="44.00571" lon="5.91068">
        <ele>709</ele>
        <time>2020-10-05T12:06:56.000Z</time>
      </trkpt>
      <trkpt lat="44.00571" lon="5.91068">
        <ele>709</ele>
        <time>2020-10-05T12:06:57.000Z</time>
      </trkpt>
      <trkpt lat="44.00571" lon="5.91068">
        <ele>709</ele>
        <time>2020-10-05T12:06:58.000Z</time>
      </trkpt>
      <trkpt lat="44.00571" lon="5.91068">
        <ele>709</ele>
        <time>2020-10-05T12:06:59.000Z</time>
      </trkpt>
      <trkpt lat="44.00571" lon="5.91068">
        <ele>709</ele>
        <time>2020-10-05T12:07:00.000Z</time>
      </trkpt>
      <trkpt lat="44.00571" lon="5.91068">
        <ele>709</ele>
        <time>2020-10-05T12:07:01.000Z</time>
      </trkpt>
      <trkpt lat="44.00571" lon="5.91068">
        <ele>709</ele>
        <time>2020-10-05T12:07:02.000Z</time>
      </trkpt>
      <trkpt lat="44.00571" lon="5.91068">
        <ele>709</ele>
        <time>2020-10-05T12:07:03.000Z</time>
      </trkpt>
      <trkpt lat="44.00571" lon="5.91068">
        <ele>709</ele>
        <time>2020-10-05T12:07:04.000Z</time>
      </trkpt>
      <trkpt lat="44.00571" lon="5.91068">
        <ele>709</ele>
        <time>2020-10-05T12:07:05.000Z</time>
      </trkpt>
      <trkpt lat="44.00571" lon="5.91069">
        <ele>709</ele>
        <time>2020-10-05T12:07:06.000Z</time>
      </trkpt>
      <trkpt lat="44.0057" lon="5.91069">
        <ele>709</ele>
        <time>2020-10-05T12:07:07.000Z</time>
      </trkpt>
      <trkpt lat="44.00569" lon="5.91069">
        <ele>709</ele>
        <time>2020-10-05T12:07:08.000Z</time>
      </trkpt>
      <trkpt lat="44.00569" lon="5.91068">
        <ele>709</ele>
        <time>2020-10-05T12:07:09.000Z</time>
      </trkpt>
      <trkpt lat="44.00569" lon="5.91068">
        <ele>709</ele>
        <time>2020-10-05T12:07:10.000Z</time>
      </trkpt>
      <trkpt lat="44.0057" lon="5.91068">
        <ele>709</ele>
        <time>2020-10-05T12:07:11.000Z</time>
      </trkpt>
      <trkpt lat="44.0057" lon="5.91067">
        <ele>709</ele>
        <time>2020-10-05T12:07:12.000Z</time>
      </trkpt>
      <trkpt lat="44.0057" lon="5.91067">
        <ele>709</ele>
        <time>2020-10-05T12:07:13.000Z</time>
      </trkpt>
      <trkpt lat="44.0057" lon="5.91066">
        <ele>710</ele>
        <time>2020-10-05T12:07:14.000Z</time>
      </trkpt>
      <trkpt lat="44.0057" lon="5.91066">
        <ele>710</ele>
        <time>2020-10-05T12:07:15.000Z</time>
      </trkpt>
      <trkpt lat="44.0057" lon="5.91065">
        <ele>710</ele>
        <time>2020-10-05T12:07:16.000Z</time>
      </trkpt>
      <trkpt lat="44.0057" lon="5.91065">
        <ele>710</ele>
        <time>2020-10-05T12:07:17.000Z</time>
      </trkpt>
      <trkpt lat="44.00569" lon="5.91065">
        <ele>710</ele>
        <time>2020-10-05T12:07:18.000Z</time>
      </trkpt>
      <trkpt lat="44.00569" lon="5.91064">
        <ele>710</ele>
        <time>2020-10-05T12:07:19.000Z</time>
      </trkpt>
      <trkpt lat="44.00568" lon="5.91063">
        <ele>710</ele>
        <time>2020-10-05T12:07:20.000Z</time>
      </trkpt>
      <trkpt lat="44.00568" lon="5.91062">
        <ele>710</ele>
        <time>2020-10-05T12:07:21.000Z</time>
      </trkpt>
      <trkpt lat="44.00567" lon="5.9106">
        <ele>710</ele>
        <time>2020-10-05T12:07:22.000Z</time>
      </trkpt>
      <trkpt lat="44.00567" lon="5.9106">
        <ele>710</ele>
        <time>2020-10-05T12:07:23.000Z</time>
      </trkpt>
      <trkpt lat="44.00568" lon="5.91059">
        <ele>710</ele>
        <time>2020-10-05T12:07:24.000Z</time>
      </trkpt>
      <trkpt lat="44.00568" lon="5.91058">
        <ele>710</ele>
        <time>2020-10-05T12:07:25.000Z</time>
      </trkpt>
      <trkpt lat="44.00568" lon="5.91057">
        <ele>710</ele>
        <time>2020-10-05T12:07:26.000Z</time>
      </trkpt>
      <trkpt lat="44.00568" lon="5.91056">
        <ele>710</ele>
        <time>2020-10-05T12:07:27.000Z</time>
      </trkpt>
      <trkpt lat="44.00568" lon="5.91055">
        <ele>711</ele>
        <time>2020-10-05T12:07:28.000Z</time>
      </trkpt>
      <trkpt lat="44.00568" lon="5.91053">
        <ele>711</ele>
        <time>2020-10-05T12:07:29.000Z</time>
      </trkpt>
      <trkpt lat="44.00569" lon="5.91052">
        <ele>711</ele>
        <time>2020-10-05T12:07:30.000Z</time>
      </trkpt>
      <trkpt lat="44.00569" lon="5.91052">
        <ele>711</ele>
        <time>2020-10-05T12:07:31.000Z</time>
      </trkpt>
      <trkpt lat="44.00569" lon="5.91051">
        <ele>711</ele>
        <time>2020-10-05T12:07:32.000Z</time>
      </trkpt>
      <trkpt lat="44.00569" lon="5.9105">
        <ele>711</ele>
        <time>2020-10-05T12:07:33.000Z</time>
      </trkpt>
      <trkpt lat="44.00569" lon="5.91049">
        <ele>711</ele>
        <time>2020-10-05T12:07:34.000Z</time>
      </trkpt>
      <trkpt lat="44.0057" lon="5.91048">
        <ele>711</ele>
        <time>2020-10-05T12:07:35.000Z</time>
      </trkpt>
      <trkpt lat="44.0057" lon="5.91047">
        <ele>711</ele>
        <time>2020-10-05T12:07:36.000Z</time>
      </trkpt>
      <trkpt lat="44.0057" lon="5.91046">
        <ele>711</ele>
        <time>2020-10-05T12:07:37.000Z</time>
      </trkpt>
      <trkpt lat="44.00571" lon="5.91045">
        <ele>711</ele>
        <time>2020-10-05T12:07:38.000Z</time>
      </trkpt>
      <trkpt lat="44.00571" lon="5.91043">
        <ele>711</ele>
        <time>2020-10-05T12:07:39.000Z</time>
      </trkpt>
      <trkpt lat="44.00572" lon="5.91042">
        <ele>711</ele>
        <time>2020-10-05T12:07:40.000Z</time>
      </trkpt>
      <trkpt lat="44.00573" lon="5.91041">
        <ele>711</ele>
        <time>2020-10-05T12:07:41.000Z</time>
      </trkpt>
      <trkpt lat="44.00574" lon="5.9104">
        <ele>711</ele>
        <time>2020-10-05T12:07:42.000Z</time>
      </trkpt>
      <trkpt lat="44.00574" lon="5.91039">
        <ele>711</ele>
        <time>2020-10-05T12:07:43.000Z</time>
      </trkpt>
      <trkpt lat="44.00575" lon="5.91039">
        <ele>711</ele>
        <time>2020-10-05T12:07:44.000Z</time>
      </trkpt>
      <trkpt lat="44.00576" lon="5.91038">
        <ele>711</ele>
        <time>2020-10-05T12:07:45.000Z</time>
      </trkpt>
      <trkpt lat="44.00576" lon="5.91038">
        <ele>711</ele>
        <time>2020-10-05T12:07:46.000Z</time>
      </trkpt>
      <trkpt lat="44.00577" lon="5.91037">
        <ele>711</ele>
        <time>2020-10-05T12:07:47.000Z</time>
      </trkpt>
      <trkpt lat="44.00577" lon="5.91036">
        <ele>711</ele>
        <time>2020-10-05T12:07:48.000Z</time>
      </trkpt>
      <trkpt lat="44.00578" lon="5.91035">
        <ele>711</ele>
        <time>2020-10-05T12:07:49.000Z</time>
      </trkpt>
      <trkpt lat="44.00578" lon="5.91034">
        <ele>711</ele>
        <time>2020-10-05T12:07:50.000Z</time>
      </trkpt>
      <trkpt lat="44.00579" lon="5.91033">
        <ele>712</ele>
        <time>2020-10-05T12:07:51.000Z</time>
      </trkpt>
      <trkpt lat="44.00579" lon="5.91031">
        <ele>712</ele>
        <time>2020-10-05T12:07:52.000Z</time>
      </trkpt>
      <trkpt lat="44.0058" lon="5.91031">
        <ele>712</ele>
        <time>2020-10-05T12:07:53.000Z</time>
      </trkpt>
      <trkpt lat="44.0058" lon="5.9103">
        <ele>712</ele>
        <time>2020-10-05T12:07:54.000Z</time>
      </trkpt>
      <trkpt lat="44.0058" lon="5.91028">
        <ele>712</ele>
        <time>2020-10-05T12:07:55.000Z</time>
      </trkpt>
      <trkpt lat="44.0058" lon="5.91027">
        <ele>712</ele>
        <time>2020-10-05T12:07:56.000Z</time>
      </trkpt>
      <trkpt lat="44.00581" lon="5.91026">
        <ele>713</ele>
        <time>2020-10-05T12:07:57.000Z</time>
      </trkpt>
      <trkpt lat="44.00582" lon="5.91026">
        <ele>713</ele>
        <time>2020-10-05T12:07:58.000Z</time>
      </trkpt>
      <trkpt lat="44.00582" lon="5.91025">
        <ele>713</ele>
        <time>2020-10-05T12:07:59.000Z</time>
      </trkpt>
      <trkpt lat="44.00583" lon="5.91024">
        <ele>713</ele>
        <time>2020-10-05T12:08:00.000Z</time>
      </trkpt>
      <trkpt lat="44.00584" lon="5.91024">
        <ele>713</ele>
        <time>2020-10-05T12:08:01.000Z</time>
      </trkpt>
      <trkpt lat="44.00584" lon="5.91023">
        <ele>714</ele>
        <time>2020-10-05T12:08:02.000Z</time>
      </trkpt>
      <trkpt lat="44.00585" lon="5.91023">
        <ele>714</ele>
        <time>2020-10-05T12:08:03.000Z</time>
      </trkpt>
      <trkpt lat="44.00585" lon="5.91023">
        <ele>714</ele>
        <time>2020-10-05T12:08:04.000Z</time>
      </trkpt>
      <trkpt lat="44.00586" lon="5.91022">
        <ele>714</ele>
        <time>2020-10-05T12:08:05.000Z</time>
      </trkpt>
      <trkpt lat="44.00586" lon="5.91022">
        <ele>714</ele>
        <time>2020-10-05T12:08:06.000Z</time>
      </trkpt>
      <trkpt lat="44.00586" lon="5.91022">
        <ele>714</ele>
        <time>2020-10-05T12:08:07.000Z</time>
      </trkpt>
      <trkpt lat="44.00586" lon="5.91022">
        <ele>715</ele>
        <time>2020-10-05T12:08:08.000Z</time>
      </trkpt>
      <trkpt lat="44.00586" lon="5.91022">
        <ele>715</ele>
        <time>2020-10-05T12:08:09.000Z</time>
      </trkpt>
      <trkpt lat="44.00586" lon="5.91022">
        <ele>715</ele>
        <time>2020-10-05T12:08:10.000Z</time>
      </trkpt>
      <trkpt lat="44.00586" lon="5.91022">
        <ele>715</ele>
        <time>2020-10-05T12:08:11.000Z</time>
      </trkpt>
      <trkpt lat="44.00586" lon="5.91022">
        <ele>715</ele>
        <time>2020-10-05T12:08:12.000Z</time>
      </trkpt>
      <trkpt lat="44.00587" lon="5.91022">
        <ele>715</ele>
        <time>2020-10-05T12:08:13.000Z</time>
      </trkpt>
      <trkpt lat="44.00587" lon="5.91022">
        <ele>715</ele>
        <time>2020-10-05T12:08:14.000Z</time>
      </trkpt>
      <trkpt lat="44.00587" lon="5.91022">
        <ele>715</ele>
        <time>2020-10-05T12:08:15.000Z</time>
      </trkpt>
      <trkpt lat="44.00587" lon="5.91022">
        <ele>715</ele>
        <time>2020-10-05T12:08:16.000Z</time>
      </trkpt>
      <trkpt lat="44.00587" lon="5.91022">
        <ele>715</ele>
        <time>2020-10-05T12:08:17.000Z</time>
      </trkpt>
      <trkpt lat="44.00586" lon="5.91022">
        <ele>716</ele>
        <time>2020-10-05T12:08:18.000Z</time>
      </trkpt>
      <trkpt lat="44.00586" lon="5.91022">
        <ele>716</ele>
        <time>2020-10-05T12:08:19.000Z</time>
      </trkpt>
      <trkpt lat="44.00586" lon="5.91022">
        <ele>716</ele>
        <time>2020-10-05T12:08:20.000Z</time>
      </trkpt>
      <trkpt lat="44.00586" lon="5.91022">
        <ele>716</ele>
        <time>2020-10-05T12:08:21.000Z</time>
      </trkpt>
      <trkpt lat="44.00586" lon="5.91022">
        <ele>716</ele>
        <time>2020-10-05T12:08:22.000Z</time>
      </trkpt>
      <trkpt lat="44.00587" lon="5.91022">
        <ele>716</ele>
        <time>2020-10-05T12:08:23.000Z</time>
      </trkpt>
      <trkpt lat="44.00587" lon="5.91022">
        <ele>716</ele>
        <time>2020-10-05T12:08:24.000Z</time>
      </trkpt>
      <trkpt lat="44.00587" lon="5.91022">
        <ele>716</ele>
        <time>2020-10-05T12:08:25.000Z</time>
      </trkpt>
      <trkpt lat="44.00587" lon="5.91022">
        <ele>716</ele>
        <time>2020-10-05T12:08:26.000Z</time>
      </trkpt>
      <trkpt lat="44.00587" lon="5.91022">
        <ele>716</ele>
        <time>2020-10-05T12:08:27.000Z</time>
      </trkpt>
      <trkpt lat="44.00587" lon="5.91022">
        <ele>716</ele>
        <time>2020-10-05T12:08:28.000Z</time>
      </trkpt>
      <trkpt lat="44.00587" lon="5.91022">
        <ele>716</ele>
        <time>2020-10-05T12:08:29.000Z</time>
      </trkpt>
      <trkpt lat="44.00587" lon="5.91022">
        <ele>716</ele>
        <time>2020-10-05T12:08:30.000Z</time>
      </trkpt>
      <trkpt lat="44.00587" lon="5.91022">
        <ele>716</ele>
        <time>2020-10-05T12:08:31.000Z</time>
      </trkpt>
      <trkpt lat="44.00587" lon="5.91022">
        <ele>716</ele>
        <time>2020-10-05T12:08:32.000Z</time>
      </trkpt>
      <trkpt lat="44.00587" lon="5.91022">
        <ele>716</ele>
        <time>2020-10-05T12:08:33.000Z</time>
      </trkpt>
      <trkpt lat="44.00587" lon="5.91022">
        <ele>716</ele>
        <time>2020-10-05T12:08:34.000Z</time>
      </trkpt>
      <trkpt lat="44.00587" lon="5.91022">
        <ele>716</ele>
        <time>2020-10-05T12:08:35.000Z</time>
      </trkpt>
      <trkpt lat="44.00587" lon="5.91022">
        <ele>716</ele>
        <time>2020-10-05T12:08:36.000Z</time>
      </trkpt>
      <trkpt lat="44.00587" lon="5.91022">
        <ele>716</ele>
        <time>2020-10-05T12:08:37.000Z</time>
      </trkpt>
      <trkpt lat="44.00587" lon="5.91022">
        <ele>716</ele>
        <time>2020-10-05T12:08:38.000Z</time>
      </trkpt>
      <trkpt lat="44.00587" lon="5.91022">
        <ele>716</ele>
        <time>2020-10-05T12:08:39.000Z</time>
      </trkpt>
      <trkpt lat="44.00587" lon="5.91022">
        <ele>716</ele>
        <time>2020-10-05T12:08:40.000Z</time>
      </trkpt>
      <trkpt lat="44.00587" lon="5.91022">
        <ele>716</ele>
        <time>2020-10-05T12:08:41.000Z</time>
      </trkpt>
      <trkpt lat="44.00587" lon="5.91022">
        <ele>716</ele>
        <time>2020-10-05T12:08:42.000Z</time>
      </trkpt>
      <trkpt lat="44.00587" lon="5.91022">
        <ele>716</ele>
        <time>2020-10-05T12:08:43.000Z</time>
      </trkpt>
      <trkpt lat="44.00587" lon="5.91023">
        <ele>716</ele>
        <time>2020-10-05T12:08:44.000Z</time>
      </trkpt>
      <trkpt lat="44.00586" lon="5.91022">
        <ele>716</ele>
        <time>2020-10-05T12:08:45.000Z</time>
      </trkpt>
      <trkpt lat="44.00586" lon="5.91022">
        <ele>716</ele>
        <time>2020-10-05T12:08:46.000Z</time>
      </trkpt>
      <trkpt lat="44.00586" lon="5.91022">
        <ele>716</ele>
        <time>2020-10-05T12:08:47.000Z</time>
      </trkpt>
      <trkpt lat="44.00586" lon="5.91022">
        <ele>716</ele>
        <time>2020-10-05T12:08:48.000Z</time>
      </trkpt>
      <trkpt lat="44.00586" lon="5.91022">
        <ele>716</ele>
        <time>2020-10-05T12:08:49.000Z</time>
      </trkpt>
      <trkpt lat="44.00587" lon="5.91022">
        <ele>716</ele>
        <time>2020-10-05T12:08:50.000Z</time>
      </trkpt>
      <trkpt lat="44.00587" lon="5.91022">
        <ele>716</ele>
        <time>2020-10-05T12:08:51.000Z</time>
      </trkpt>
      <trkpt lat="44.00587" lon="5.91022">
        <ele>716</ele>
        <time>2020-10-05T12:08:52.000Z</time>
      </trkpt>
      <trkpt lat="44.00587" lon="5.91022">
        <ele>716</ele>
        <time>2020-10-05T12:08:53.000Z</time>
      </trkpt>
      <trkpt lat="44.00587" lon="5.91022">
        <ele>716</ele>
        <time>2020-10-05T12:08:54.000Z</time>
      </trkpt>
      <trkpt lat="44.00587" lon="5.91022">
        <ele>716</ele>
        <time>2020-10-05T12:08:55.000Z</time>
      </trkpt>
      <trkpt lat="44.00586" lon="5.91022">
        <ele>716</ele>
        <time>2020-10-05T12:08:56.000Z</time>
      </trkpt>
      <trkpt lat="44.00586" lon="5.91022">
        <ele>716</ele>
        <time>2020-10-05T12:08:57.000Z</time>
      </trkpt>
      <trkpt lat="44.00586" lon="5.91022">
        <ele>716</ele>
        <time>2020-10-05T12:08:58.000Z</time>
      </trkpt>
      <trkpt lat="44.00586" lon="5.91022">
        <ele>716</ele>
        <time>2020-10-05T12:08:59.000Z</time>
      </trkpt>
      <trkpt lat="44.00586" lon="5.91022">
        <ele>716</ele>
        <time>2020-10-05T12:09:00.000Z</time>
      </trkpt>
      <trkpt lat="44.00586" lon="5.91022">
        <ele>716</ele>
        <time>2020-10-05T12:09:01.000Z</time>
      </trkpt>
      <trkpt lat="44.00586" lon="5.91022">
        <ele>716</ele>
        <time>2020-10-05T12:09:02.000Z</time>
      </trkpt>
      <trkpt lat="44.00586" lon="5.91022">
        <ele>716</ele>
        <time>2020-10-05T12:09:03.000Z</time>
      </trkpt>
      <trkpt lat="44.00586" lon="5.91022">
        <ele>716</ele>
        <time>2020-10-05T12:09:04.000Z</time>
      </trkpt>
      <trkpt lat="44.00586" lon="5.91022">
        <ele>716</ele>
        <time>2020-10-05T12:09:05.000Z</time>
      </trkpt>
      <trkpt lat="44.00586" lon="5.91022">
        <ele>716</ele>
        <time>2020-10-05T12:09:06.000Z</time>
      </trkpt>
      <trkpt lat="44.00586" lon="5.91022">
        <ele>716</ele>
        <time>2020-10-05T12:09:07.000Z</time>
      </trkpt>
      <trkpt lat="44.00586" lon="5.91022">
        <ele>716</ele>
        <time>2020-10-05T12:09:08.000Z</time>
      </trkpt>
      <trkpt lat="44.00586" lon="5.91022">
        <ele>716</ele>
        <time>2020-10-05T12:09:09.000Z</time>
      </trkpt>
      <trkpt lat="44.00585" lon="5.91021">
        <ele>716</ele>
        <time>2020-10-05T12:09:10.000Z</time>
      </trkpt>
      <trkpt lat="44.00585" lon="5.91021">
        <ele>716</ele>
        <time>2020-10-05T12:09:11.000Z</time>
      </trkpt>
      <trkpt lat="44.00584" lon="5.9102">
        <ele>716</ele>
        <time>2020-10-05T12:09:12.000Z</time>
      </trkpt>
      <trkpt lat="44.00584" lon="5.9102">
        <ele>716</ele>
        <time>2020-10-05T12:09:13.000Z</time>
      </trkpt>
      <trkpt lat="44.00583" lon="5.91019">
        <ele>716</ele>
        <time>2020-10-05T12:09:14.000Z</time>
      </trkpt>
      <trkpt lat="44.00583" lon="5.91019">
        <ele>716</ele>
        <time>2020-10-05T12:09:15.000Z</time>
      </trkpt>
      <trkpt lat="44.00582" lon="5.91019">
        <ele>717</ele>
        <time>2020-10-05T12:09:16.000Z</time>
      </trkpt>
      <trkpt lat="44.00581" lon="5.91018">
        <ele>717</ele>
        <time>2020-10-05T12:09:17.000Z</time>
      </trkpt>
      <trkpt lat="44.00581" lon="5.91018">
        <ele>717</ele>
        <time>2020-10-05T12:09:18.000Z</time>
      </trkpt>
      <trkpt lat="44.00581" lon="5.91017">
        <ele>717</ele>
        <time>2020-10-05T12:09:19.000Z</time>
      </trkpt>
      <trkpt lat="44.00581" lon="5.91016">
        <ele>717</ele>
        <time>2020-10-05T12:09:20.000Z</time>
      </trkpt>
      <trkpt lat="44.00581" lon="5.91015">
        <ele>717</ele>
        <time>2020-10-05T12:09:21.000Z</time>
      </trkpt>
      <trkpt lat="44.00581" lon="5.91015">
        <ele>717</ele>
        <time>2020-10-05T12:09:22.000Z</time>
      </trkpt>
      <trkpt lat="44.00581" lon="5.91015">
        <ele>717</ele>
        <time>2020-10-05T12:09:23.000Z</time>
      </trkpt>
      <trkpt lat="44.00581" lon="5.91015">
        <ele>717</ele>
        <time>2020-10-05T12:09:24.000Z</time>
      </trkpt>
      <trkpt lat="44.00581" lon="5.91015">
        <ele>717</ele>
        <time>2020-10-05T12:09:25.000Z</time>
      </trkpt>
      <trkpt lat="44.00581" lon="5.91015">
        <ele>718</ele>
        <time>2020-10-05T12:09:26.000Z</time>
      </trkpt>
      <trkpt lat="44.00581" lon="5.91015">
        <ele>718</ele>
        <time>2020-10-05T12:09:27.000Z</time>
      </trkpt>
      <trkpt lat="44.00581" lon="5.91015">
        <ele>718</ele>
        <time>2020-10-05T12:09:28.000Z</time>
      </trkpt>
      <trkpt lat="44.00581" lon="5.91015">
        <ele>718</ele>
        <time>2020-10-05T12:09:29.000Z</time>
      </trkpt>
      <trkpt lat="44.00581" lon="5.91015">
        <ele>718</ele>
        <time>2020-10-05T12:09:30.000Z</time>
      </trkpt>
      <trkpt lat="44.00581" lon="5.91015">
        <ele>718</ele>
        <time>2020-10-05T12:09:31.000Z</time>
      </trkpt>
      <trkpt lat="44.00581" lon="5.91015">
        <ele>718</ele>
        <time>2020-10-05T12:09:32.000Z</time>
      </trkpt>
      <trkpt lat="44.00581" lon="5.91015">
        <ele>718</ele>
        <time>2020-10-05T12:09:33.000Z</time>
      </trkpt>
      <trkpt lat="44.00581" lon="5.91015">
        <ele>718</ele>
        <time>2020-10-05T12:09:34.000Z</time>
      </trkpt>
      <trkpt lat="44.00581" lon="5.91015">
        <ele>718</ele>
        <time>2020-10-05T12:09:35.000Z</time>
      </trkpt>
      <trkpt lat="44.00581" lon="5.91015">
        <ele>718</ele>
        <time>2020-10-05T12:09:36.000Z</time>
      </trkpt>
      <trkpt lat="44.00581" lon="5.91015">
        <ele>718</ele>
        <time>2020-10-05T12:09:37.000Z</time>
      </trkpt>
      <trkpt lat="44.00581" lon="5.91015">
        <ele>718</ele>
        <time>2020-10-05T12:09:38.000Z</time>
      </trkpt>
      <trkpt lat="44.00581" lon="5.91015">
        <ele>718</ele>
        <time>2020-10-05T12:09:39.000Z</time>
      </trkpt>
      <trkpt lat="44.00581" lon="5.91015">
        <ele>718</ele>
        <time>2020-10-05T12:09:40.000Z</time>
      </trkpt>
      <trkpt lat="44.00581" lon="5.91015">
        <ele>718</ele>
        <time>2020-10-05T12:09:41.000Z</time>
      </trkpt>
      <trkpt lat="44.00581" lon="5.91015">
        <ele>718</ele>
        <time>2020-10-05T12:09:42.000Z</time>
      </trkpt>
      <trkpt lat="44.00581" lon="5.91015">
        <ele>718</ele>
        <time>2020-10-05T12:09:43.000Z</time>
      </trkpt>
      <trkpt lat="44.00581" lon="5.91015">
        <ele>718</ele>
        <time>2020-10-05T12:09:44.000Z</time>
      </trkpt>
      <trkpt lat="44.0058" lon="5.91015">
        <ele>718</ele>
        <time>2020-10-05T12:09:45.000Z</time>
      </trkpt>
      <trkpt lat="44.0058" lon="5.91015">
        <ele>718</ele>
        <time>2020-10-05T12:09:46.000Z</time>
      </trkpt>
      <trkpt lat="44.0058" lon="5.91015">
        <ele>718</ele>
        <time>2020-10-05T12:09:47.000Z</time>
      </trkpt>
      <trkpt lat="44.0058" lon="5.91015">
        <ele>718</ele>
        <time>2020-10-05T12:09:48.000Z</time>
      </trkpt>
      <trkpt lat="44.0058" lon="5.91015">
        <ele>718</ele>
        <time>2020-10-05T12:09:49.000Z</time>
      </trkpt>
      <trkpt lat="44.0058" lon="5.91015">
        <ele>718</ele>
        <time>2020-10-05T12:09:50.000Z</time>
      </trkpt>
      <trkpt lat="44.0058" lon="5.91015">
        <ele>718</ele>
        <time>2020-10-05T12:09:51.000Z</time>
      </trkpt>
      <trkpt lat="44.0058" lon="5.91015">
        <ele>718</ele>
        <time>2020-10-05T12:09:52.000Z</time>
      </trkpt>
      <trkpt lat="44.0058" lon="5.91015">
        <ele>718</ele>
        <time>2020-10-05T12:09:53.000Z</time>
      </trkpt>
      <trkpt lat="44.0058" lon="5.91015">
        <ele>718</ele>
        <time>2020-10-05T12:09:54.000Z</time>
      </trkpt>
      <trkpt lat="44.0058" lon="5.91015">
        <ele>718</ele>
        <time>2020-10-05T12:09:55.000Z</time>
      </trkpt>
      <trkpt lat="44.0058" lon="5.91015">
        <ele>718</ele>
        <time>2020-10-05T12:09:56.000Z</time>
      </trkpt>
      <trkpt lat="44.0058" lon="5.91015">
        <ele>718</ele>
        <time>2020-10-05T12:09:57.000Z</time>
      </trkpt>
      <trkpt lat="44.0058" lon="5.91015">
        <ele>718</ele>
        <time>2020-10-05T12:09:58.000Z</time>
      </trkpt>
      <trkpt lat="44.0058" lon="5.91015">
        <ele>718</ele>
        <time>2020-10-05T12:09:59.000Z</time>
      </trkpt>
      <trkpt lat="44.0058" lon="5.91015">
        <ele>718</ele>
        <time>2020-10-05T12:10:00.000Z</time>
      </trkpt>
      <trkpt lat="44.0058" lon="5.91015">
        <ele>718</ele>
        <time>2020-10-05T12:10:01.000Z</time>
      </trkpt>
      <trkpt lat="44.0058" lon="5.91015">
        <ele>718</ele>
        <time>2020-10-05T12:10:02.000Z</time>
      </trkpt>
      <trkpt lat="44.0058" lon="5.91015">
        <ele>718</ele>
        <time>2020-10-05T12:10:03.000Z</time>
      </trkpt>
      <trkpt lat="44.0058" lon="5.91015">
        <ele>718</ele>
        <time>2020-10-05T12:10:04.000Z</time>
      </trkpt>
      <trkpt lat="44.0058" lon="5.91015">
        <ele>718</ele>
        <time>2020-10-05T12:10:05.000Z</time>
      </trkpt>
      <trkpt lat="44.0058" lon="5.91015">
        <ele>718</ele>
        <time>2020-10-05T12:10:06.000Z</time>
      </trkpt>
      <trkpt lat="44.0058" lon="5.91015">
        <ele>718</ele>
        <time>2020-10-05T12:10:07.000Z</time>
      </trkpt>
      <trkpt lat="44.0058" lon="5.91015">
        <ele>718</ele>
        <time>2020-10-05T12:10:08.000Z</time>
      </trkpt>
      <trkpt lat="44.0058" lon="5.91015">
        <ele>718</ele>
        <time>2020-10-05T12:10:09.000Z</time>
      </trkpt>
      <trkpt lat="44.0058" lon="5.91015">
        <ele>718</ele>
        <time>2020-10-05T12:10:10.000Z</time>
      </trkpt>
      <trkpt lat="44.0058" lon="5.91015">
        <ele>718</ele>
        <time>2020-10-05T12:10:11.000Z</time>
      </trkpt>
      <trkpt lat="44.0058" lon="5.91015">
        <ele>718</ele>
        <time>2020-10-05T12:10:12.000Z</time>
      </trkpt>
      <trkpt lat="44.0058" lon="5.91015">
        <ele>718</ele>
        <time>2020-10-05T12:10:13.000Z</time>
      </trkpt>
      <trkpt lat="44.0058" lon="5.91016">
        <ele>718</ele>
        <time>2020-10-05T12:10:14.000Z</time>
      </trkpt>
      <trkpt lat="44.0058" lon="5.91015">
        <ele>718</ele>
        <time>2020-10-05T12:10:15.000Z</time>
      </trkpt>
      <trkpt lat="44.0058" lon="5.91015">
        <ele>719</ele>
        <time>2020-10-05T12:10:16.000Z</time>
      </trkpt>
      <trkpt lat="44.0058" lon="5.91015">
        <ele>719</ele>
        <time>2020-10-05T12:10:17.000Z</time>
      </trkpt>
      <trkpt lat="44.0058" lon="5.91015">
        <ele>719</ele>
        <time>2020-10-05T12:10:18.000Z</time>
      </trkpt>
      <trkpt lat="44.0058" lon="5.91015">
        <ele>718</ele>
        <time>2020-10-05T12:10:19.000Z</time>
      </trkpt>
      <trkpt lat="44.0058" lon="5.91015">
        <ele>718</ele>
        <time>2020-10-05T12:10:20.000Z</time>
      </trkpt>
      <trkpt lat="44.0058" lon="5.91015">
        <ele>718</ele>
        <time>2020-10-05T12:10:21.000Z</time>
      </trkpt>
      <trkpt lat="44.0058" lon="5.91015">
        <ele>718</ele>
        <time>2020-10-05T12:10:22.000Z</time>
      </trkpt>
      <trkpt lat="44.0058" lon="5.91015">
        <ele>718</ele>
        <time>2020-10-05T12:10:23.000Z</time>
      </trkpt>
      <trkpt lat="44.0058" lon="5.91015">
        <ele>719</ele>
        <time>2020-10-05T12:10:24.000Z</time>
      </trkpt>
      <trkpt lat="44.0058" lon="5.91015">
        <ele>719</ele>
        <time>2020-10-05T12:10:25.000Z</time>
      </trkpt>
      <trkpt lat="44.0058" lon="5.91015">
        <ele>719</ele>
        <time>2020-10-05T12:10:26.000Z</time>
      </trkpt>
      <trkpt lat="44.0058" lon="5.91015">
        <ele>719</ele>
        <time>2020-10-05T12:10:27.000Z</time>
      </trkpt>
      <trkpt lat="44.0058" lon="5.91015">
        <ele>719</ele>
        <time>2020-10-05T12:10:28.000Z</time>
      </trkpt>
      <trkpt lat="44.0058" lon="5.91015">
        <ele>719</ele>
        <time>2020-10-05T12:10:29.000Z</time>
      </trkpt>
      <trkpt lat="44.0058" lon="5.91015">
        <ele>719</ele>
        <time>2020-10-05T12:10:30.000Z</time>
      </trkpt>
      <trkpt lat="44.0058" lon="5.91015">
        <ele>719</ele>
        <time>2020-10-05T12:10:31.000Z</time>
      </trkpt>
      <trkpt lat="44.0058" lon="5.91015">
        <ele>719</ele>
        <time>2020-10-05T12:10:32.000Z</time>
      </trkpt>
      <trkpt lat="44.0058" lon="5.91015">
        <ele>719</ele>
        <time>2020-10-05T12:10:33.000Z</time>
      </trkpt>
      <trkpt lat="44.0058" lon="5.91015">
        <ele>719</ele>
        <time>2020-10-05T12:10:34.000Z</time>
      </trkpt>
      <trkpt lat="44.0058" lon="5.91015">
        <ele>719</ele>
        <time>2020-10-05T12:10:35.000Z</time>
      </trkpt>
      <trkpt lat="44.0058" lon="5.91015">
        <ele>719</ele>
        <time>2020-10-05T12:10:36.000Z</time>
      </trkpt>
      <trkpt lat="44.0058" lon="5.91016">
        <ele>719</ele>
        <time>2020-10-05T12:10:37.000Z</time>
      </trkpt>
      <trkpt lat="44.0058" lon="5.91016">
        <ele>719</ele>
        <time>2020-10-05T12:10:38.000Z</time>
      </trkpt>
      <trkpt lat="44.0058" lon="5.91016">
        <ele>719</ele>
        <time>2020-10-05T12:10:39.000Z</time>
      </trkpt>
      <trkpt lat="44.0058" lon="5.91016">
        <ele>719</ele>
        <time>2020-10-05T12:10:40.000Z</time>
      </trkpt>
      <trkpt lat="44.0058" lon="5.91016">
        <ele>719</ele>
        <time>2020-10-05T12:10:41.000Z</time>
      </trkpt>
      <trkpt lat="44.0058" lon="5.91016">
        <ele>719</ele>
        <time>2020-10-05T12:10:42.000Z</time>
      </trkpt>
      <trkpt lat="44.0058" lon="5.91016">
        <ele>719</ele>
        <time>2020-10-05T12:10:43.000Z</time>
      </trkpt>
      <trkpt lat="44.0058" lon="5.91016">
        <ele>719</ele>
        <time>2020-10-05T12:10:44.000Z</time>
      </trkpt>
      <trkpt lat="44.0058" lon="5.91016">
        <ele>718</ele>
        <time>2020-10-05T12:10:45.000Z</time>
      </trkpt>
      <trkpt lat="44.0058" lon="5.91015">
        <ele>718</ele>
        <time>2020-10-05T12:10:46.000Z</time>
      </trkpt>
      <trkpt lat="44.0058" lon="5.91015">
        <ele>718</ele>
        <time>2020-10-05T12:10:47.000Z</time>
      </trkpt>
      <trkpt lat="44.0058" lon="5.91015">
        <ele>718</ele>
        <time>2020-10-05T12:10:48.000Z</time>
      </trkpt>
      <trkpt lat="44.0058" lon="5.91015">
        <ele>719</ele>
        <time>2020-10-05T12:10:49.000Z</time>
      </trkpt>
      <trkpt lat="44.0058" lon="5.91015">
        <ele>719</ele>
        <time>2020-10-05T12:10:50.000Z</time>
      </trkpt>
      <trkpt lat="44.0058" lon="5.91015">
        <ele>719</ele>
        <time>2020-10-05T12:10:51.000Z</time>
      </trkpt>
      <trkpt lat="44.0058" lon="5.91015">
        <ele>719</ele>
        <time>2020-10-05T12:10:52.000Z</time>
      </trkpt>
      <trkpt lat="44.0058" lon="5.91015">
        <ele>719</ele>
        <time>2020-10-05T12:10:53.000Z</time>
      </trkpt>
      <trkpt lat="44.0058" lon="5.91015">
        <ele>719</ele>
        <time>2020-10-05T12:10:54.000Z</time>
      </trkpt>
      <trkpt lat="44.0058" lon="5.91015">
        <ele>719</ele>
        <time>2020-10-05T12:10:55.000Z</time>
      </trkpt>
      <trkpt lat="44.0058" lon="5.91015">
        <ele>719</ele>
        <time>2020-10-05T12:10:56.000Z</time>
      </trkpt>
      <trkpt lat="44.0058" lon="5.91015">
        <ele>719</ele>
        <time>2020-10-05T12:10:57.000Z</time>
      </trkpt>
      <trkpt lat="44.0058" lon="5.91015">
        <ele>719</ele>
        <time>2020-10-05T12:10:58.000Z</time>
      </trkpt>
      <trkpt lat="44.0058" lon="5.91015">
        <ele>719</ele>
        <time>2020-10-05T12:10:59.000Z</time>
      </trkpt>
      <trkpt lat="44.0058" lon="5.91015">
        <ele>719</ele>
        <time>2020-10-05T12:11:00.000Z</time>
      </trkpt>
      <trkpt lat="44.0058" lon="5.91015">
        <ele>719</ele>
        <time>2020-10-05T12:11:01.000Z</time>
      </trkpt>
      <trkpt lat="44.0058" lon="5.91015">
        <ele>719</ele>
        <time>2020-10-05T12:11:02.000Z</time>
      </trkpt>
      <trkpt lat="44.0058" lon="5.91015">
        <ele>719</ele>
        <time>2020-10-05T12:11:03.000Z</time>
      </trkpt>
      <trkpt lat="44.0058" lon="5.91015">
        <ele>719</ele>
        <time>2020-10-05T12:11:04.000Z</time>
      </trkpt>
      <trkpt lat="44.0058" lon="5.91015">
        <ele>719</ele>
        <time>2020-10-05T12:11:05.000Z</time>
      </trkpt>
      <trkpt lat="44.0058" lon="5.91015">
        <ele>719</ele>
        <time>2020-10-05T12:11:06.000Z</time>
      </trkpt>
      <trkpt lat="44.0058" lon="5.91015">
        <ele>719</ele>
        <time>2020-10-05T12:11:07.000Z</time>
      </trkpt>
      <trkpt lat="44.0058" lon="5.91015">
        <ele>719</ele>
        <time>2020-10-05T12:11:08.000Z</time>
      </trkpt>
      <trkpt lat="44.0058" lon="5.91015">
        <ele>719</ele>
        <time>2020-10-05T12:11:09.000Z</time>
      </trkpt>
      <trkpt lat="44.0058" lon="5.91015">
        <ele>719</ele>
        <time>2020-10-05T12:11:10.000Z</time>
      </trkpt>
      <trkpt lat="44.0058" lon="5.91015">
        <ele>719</ele>
        <time>2020-10-05T12:11:11.000Z</time>
      </trkpt>
      <trkpt lat="44.0058" lon="5.91015">
        <ele>719</ele>
        <time>2020-10-05T12:11:12.000Z</time>
      </trkpt>
      <trkpt lat="44.0058" lon="5.91015">
        <ele>719</ele>
        <time>2020-10-05T12:11:13.000Z</time>
      </trkpt>
      <trkpt lat="44.0058" lon="5.91015">
        <ele>719</ele>
        <time>2020-10-05T12:11:14.000Z</time>
      </trkpt>
      <trkpt lat="44.0058" lon="5.91015">
        <ele>719</ele>
        <time>2020-10-05T12:11:15.000Z</time>
      </trkpt>
      <trkpt lat="44.0058" lon="5.91015">
        <ele>719</ele>
        <time>2020-10-05T12:11:16.000Z</time>
      </trkpt>
      <trkpt lat="44.00581" lon="5.91015">
        <ele>719</ele>
        <time>2020-10-05T12:11:17.000Z</time>
      </trkpt>
      <trkpt lat="44.00581" lon="5.91015">
        <ele>719</ele>
        <time>2020-10-05T12:11:18.000Z</time>
      </trkpt>
      <trkpt lat="44.00581" lon="5.91015">
        <ele>719</ele>
        <time>2020-10-05T12:11:19.000Z</time>
      </trkpt>
      <trkpt lat="44.00581" lon="5.91015">
        <ele>719</ele>
        <time>2020-10-05T12:11:20.000Z</time>
      </trkpt>
      <trkpt lat="44.00581" lon="5.91015">
        <ele>719</ele>
        <time>2020-10-05T12:11:21.000Z</time>
      </trkpt>
      <trkpt lat="44.0058" lon="5.91015">
        <ele>719</ele>
        <time>2020-10-05T12:11:22.000Z</time>
      </trkpt>
      <trkpt lat="44.0058" lon="5.91015">
        <ele>719</ele>
        <time>2020-10-05T12:11:23.000Z</time>
      </trkpt>
      <trkpt lat="44.0058" lon="5.91015">
        <ele>719</ele>
        <time>2020-10-05T12:11:24.000Z</time>
      </trkpt>
      <trkpt lat="44.0058" lon="5.91015">
        <ele>719</ele>
        <time>2020-10-05T12:11:25.000Z</time>
      </trkpt>
      <trkpt lat="44.0058" lon="5.91014">
        <ele>719</ele>
        <time>2020-10-05T12:11:26.000Z</time>
      </trkpt>
      <trkpt lat="44.0058" lon="5.91014">
        <ele>719</ele>
        <time>2020-10-05T12:11:27.000Z</time>
      </trkpt>
      <trkpt lat="44.0058" lon="5.91013">
        <ele>719</ele>
        <time>2020-10-05T12:11:28.000Z</time>
      </trkpt>
      <trkpt lat="44.0058" lon="5.91013">
        <ele>719</ele>
        <time>2020-10-05T12:11:29.000Z</time>
      </trkpt>
      <trkpt lat="44.0058" lon="5.91012">
        <ele>719</ele>
        <time>2020-10-05T12:11:30.000Z</time>
      </trkpt>
      <trkpt lat="44.00579" lon="5.91011">
        <ele>718</ele>
        <time>2020-10-05T12:11:31.000Z</time>
      </trkpt>
      <trkpt lat="44.00579" lon="5.9101">
        <ele>718</ele>
        <time>2020-10-05T12:11:32.000Z</time>
      </trkpt>
      <trkpt lat="44.00578" lon="5.9101">
        <ele>718</ele>
        <time>2020-10-05T12:11:33.000Z</time>
      </trkpt>
      <trkpt lat="44.00578" lon="5.9101">
        <ele>718</ele>
        <time>2020-10-05T12:11:34.000Z</time>
      </trkpt>
      <trkpt lat="44.00577" lon="5.9101">
        <ele>718</ele>
        <time>2020-10-05T12:11:35.000Z</time>
      </trkpt>
      <trkpt lat="44.00576" lon="5.9101">
        <ele>718</ele>
        <time>2020-10-05T12:11:36.000Z</time>
      </trkpt>
      <trkpt lat="44.00576" lon="5.91009">
        <ele>718</ele>
        <time>2020-10-05T12:11:37.000Z</time>
      </trkpt>
      <trkpt lat="44.00575" lon="5.91008">
        <ele>718</ele>
        <time>2020-10-05T12:11:38.000Z</time>
      </trkpt>
      <trkpt lat="44.00575" lon="5.91007">
        <ele>717</ele>
        <time>2020-10-05T12:11:39.000Z</time>
      </trkpt>
      <trkpt lat="44.00575" lon="5.91006">
        <ele>717</ele>
        <time>2020-10-05T12:11:40.000Z</time>
      </trkpt>
      <trkpt lat="44.00574" lon="5.91005">
        <ele>717</ele>
        <time>2020-10-05T12:11:41.000Z</time>
      </trkpt>
      <trkpt lat="44.00574" lon="5.91004">
        <ele>717</ele>
        <time>2020-10-05T12:11:42.000Z</time>
      </trkpt>
      <trkpt lat="44.00573" lon="5.91003">
        <ele>717</ele>
        <time>2020-10-05T12:11:43.000Z</time>
      </trkpt>
      <trkpt lat="44.00572" lon="5.91002">
        <ele>717</ele>
        <time>2020-10-05T12:11:44.000Z</time>
      </trkpt>
      <trkpt lat="44.00572" lon="5.91001">
        <ele>717</ele>
        <time>2020-10-05T12:11:45.000Z</time>
      </trkpt>
      <trkpt lat="44.00571" lon="5.91001">
        <ele>717</ele>
        <time>2020-10-05T12:11:46.000Z</time>
      </trkpt>
      <trkpt lat="44.0057" lon="5.91">
        <ele>717</ele>
        <time>2020-10-05T12:11:47.000Z</time>
      </trkpt>
      <trkpt lat="44.0057" lon="5.91">
        <ele>717</ele>
        <time>2020-10-05T12:11:48.000Z</time>
      </trkpt>
      <trkpt lat="44.0057" lon="5.90998">
        <ele>716</ele>
        <time>2020-10-05T12:11:49.000Z</time>
      </trkpt>
      <trkpt lat="44.0057" lon="5.90997">
        <ele>716</ele>
        <time>2020-10-05T12:11:50.000Z</time>
      </trkpt>
      <trkpt lat="44.00569" lon="5.90996">
        <ele>716</ele>
        <time>2020-10-05T12:11:51.000Z</time>
      </trkpt>
      <trkpt lat="44.00569" lon="5.90995">
        <ele>716</ele>
        <time>2020-10-05T12:11:52.000Z</time>
      </trkpt>
      <trkpt lat="44.00569" lon="5.90994">
        <ele>717</ele>
        <time>2020-10-05T12:11:53.000Z</time>
      </trkpt>
      <trkpt lat="44.00568" lon="5.90993">
        <ele>716</ele>
        <time>2020-10-05T12:11:54.000Z</time>
      </trkpt>
      <trkpt lat="44.00568" lon="5.90992">
        <ele>717</ele>
        <time>2020-10-05T12:11:55.000Z</time>
      </trkpt>
      <trkpt lat="44.00567" lon="5.90991">
        <ele>717</ele>
        <time>2020-10-05T12:11:56.000Z</time>
      </trkpt>
      <trkpt lat="44.00567" lon="5.9099">
        <ele>716</ele>
        <time>2020-10-05T12:11:57.000Z</time>
      </trkpt>
      <trkpt lat="44.00567" lon="5.90989">
        <ele>716</ele>
        <time>2020-10-05T12:11:58.000Z</time>
      </trkpt>
      <trkpt lat="44.00566" lon="5.90988">
        <ele>716</ele>
        <time>2020-10-05T12:11:59.000Z</time>
      </trkpt>
      <trkpt lat="44.00566" lon="5.90987">
        <ele>716</ele>
        <time>2020-10-05T12:12:00.000Z</time>
      </trkpt>
      <trkpt lat="44.00566" lon="5.90986">
        <ele>716</ele>
        <time>2020-10-05T12:12:01.000Z</time>
      </trkpt>
      <trkpt lat="44.00566" lon="5.90984">
        <ele>716</ele>
        <time>2020-10-05T12:12:02.000Z</time>
      </trkpt>
      <trkpt lat="44.00565" lon="5.90982">
        <ele>716</ele>
        <time>2020-10-05T12:12:03.000Z</time>
      </trkpt>
      <trkpt lat="44.00565" lon="5.90981">
        <ele>716</ele>
        <time>2020-10-05T12:12:04.000Z</time>
      </trkpt>
      <trkpt lat="44.00565" lon="5.90979">
        <ele>716</ele>
        <time>2020-10-05T12:12:05.000Z</time>
      </trkpt>
      <trkpt lat="44.00565" lon="5.90978">
        <ele>716</ele>
        <time>2020-10-05T12:12:06.000Z</time>
      </trkpt>
      <trkpt lat="44.00564" lon="5.90976">
        <ele>716</ele>
        <time>2020-10-05T12:12:07.000Z</time>
      </trkpt>
      <trkpt lat="44.00564" lon="5.90976">
        <ele>716</ele>
        <time>2020-10-05T12:12:08.000Z</time>
      </trkpt>
      <trkpt lat="44.00563" lon="5.90975">
        <ele>716</ele>
        <time>2020-10-05T12:12:09.000Z</time>
      </trkpt>
      <trkpt lat="44.00563" lon="5.90974">
        <ele>716</ele>
        <time>2020-10-05T12:12:10.000Z</time>
      </trkpt>
      <trkpt lat="44.00562" lon="5.90972">
        <ele>716</ele>
        <time>2020-10-05T12:12:11.000Z</time>
      </trkpt>
      <trkpt lat="44.00561" lon="5.90971">
        <ele>716</ele>
        <time>2020-10-05T12:12:12.000Z</time>
      </trkpt>
      <trkpt lat="44.00561" lon="5.9097">
        <ele>716</ele>
        <time>2020-10-05T12:12:13.000Z</time>
      </trkpt>
      <trkpt lat="44.0056" lon="5.90969">
        <ele>716</ele>
        <time>2020-10-05T12:12:14.000Z</time>
      </trkpt>
      <trkpt lat="44.0056" lon="5.90968">
        <ele>716</ele>
        <time>2020-10-05T12:12:15.000Z</time>
      </trkpt>
      <trkpt lat="44.0056" lon="5.90967">
        <ele>716</ele>
        <time>2020-10-05T12:12:16.000Z</time>
      </trkpt>
      <trkpt lat="44.0056" lon="5.90966">
        <ele>716</ele>
        <time>2020-10-05T12:12:17.000Z</time>
      </trkpt>
      <trkpt lat="44.0056" lon="5.90964">
        <ele>716</ele>
        <time>2020-10-05T12:12:18.000Z</time>
      </trkpt>
      <trkpt lat="44.0056" lon="5.90963">
        <ele>717</ele>
        <time>2020-10-05T12:12:19.000Z</time>
      </trkpt>
      <trkpt lat="44.0056" lon="5.90963">
        <ele>717</ele>
        <time>2020-10-05T12:12:20.000Z</time>
      </trkpt>
      <trkpt lat="44.0056" lon="5.90962">
        <ele>717</ele>
        <time>2020-10-05T12:12:21.000Z</time>
      </trkpt>
      <trkpt lat="44.0056" lon="5.90962">
        <ele>717</ele>
        <time>2020-10-05T12:12:22.000Z</time>
      </trkpt>
      <trkpt lat="44.0056" lon="5.90961">
        <ele>717</ele>
        <time>2020-10-05T12:12:23.000Z</time>
      </trkpt>
      <trkpt lat="44.00559" lon="5.9096">
        <ele>717</ele>
        <time>2020-10-05T12:12:24.000Z</time>
      </trkpt>
      <trkpt lat="44.00559" lon="5.90959">
        <ele>717</ele>
        <time>2020-10-05T12:12:25.000Z</time>
      </trkpt>
      <trkpt lat="44.00559" lon="5.90958">
        <ele>717</ele>
        <time>2020-10-05T12:12:26.000Z</time>
      </trkpt>
      <trkpt lat="44.00558" lon="5.90957">
        <ele>717</ele>
        <time>2020-10-05T12:12:27.000Z</time>
      </trkpt>
      <trkpt lat="44.00558" lon="5.90956">
        <ele>717</ele>
        <time>2020-10-05T12:12:28.000Z</time>
      </trkpt>
      <trkpt lat="44.00557" lon="5.90955">
        <ele>717</ele>
        <time>2020-10-05T12:12:29.000Z</time>
      </trkpt>
      <trkpt lat="44.00557" lon="5.90954">
        <ele>717</ele>
        <time>2020-10-05T12:12:30.000Z</time>
      </trkpt>
      <trkpt lat="44.00556" lon="5.90953">
        <ele>717</ele>
        <time>2020-10-05T12:12:31.000Z</time>
      </trkpt>
      <trkpt lat="44.00555" lon="5.90952">
        <ele>717</ele>
        <time>2020-10-05T12:12:32.000Z</time>
      </trkpt>
      <trkpt lat="44.00555" lon="5.90951">
        <ele>716</ele>
        <time>2020-10-05T12:12:33.000Z</time>
      </trkpt>
      <trkpt lat="44.00554" lon="5.9095">
        <ele>716</ele>
        <time>2020-10-05T12:12:34.000Z</time>
      </trkpt>
      <trkpt lat="44.00553" lon="5.90949">
        <ele>716</ele>
        <time>2020-10-05T12:12:35.000Z</time>
      </trkpt>
      <trkpt lat="44.00553" lon="5.90949">
        <ele>716</ele>
        <time>2020-10-05T12:12:36.000Z</time>
      </trkpt>
      <trkpt lat="44.00552" lon="5.90948">
        <ele>716</ele>
        <time>2020-10-05T12:12:37.000Z</time>
      </trkpt>
      <trkpt lat="44.00552" lon="5.90948">
        <ele>716</ele>
        <time>2020-10-05T12:12:38.000Z</time>
      </trkpt>
      <trkpt lat="44.00551" lon="5.90947">
        <ele>716</ele>
        <time>2020-10-05T12:12:39.000Z</time>
      </trkpt>
      <trkpt lat="44.00551" lon="5.90947">
        <ele>716</ele>
        <time>2020-10-05T12:12:40.000Z</time>
      </trkpt>
      <trkpt lat="44.0055" lon="5.90947">
        <ele>716</ele>
        <time>2020-10-05T12:12:41.000Z</time>
      </trkpt>
      <trkpt lat="44.0055" lon="5.90947">
        <ele>716</ele>
        <time>2020-10-05T12:12:42.000Z</time>
      </trkpt>
      <trkpt lat="44.00549" lon="5.90946">
        <ele>716</ele>
        <time>2020-10-05T12:12:43.000Z</time>
      </trkpt>
      <trkpt lat="44.00549" lon="5.90945">
        <ele>716</ele>
        <time>2020-10-05T12:12:44.000Z</time>
      </trkpt>
      <trkpt lat="44.00548" lon="5.90945">
        <ele>716</ele>
        <time>2020-10-05T12:12:45.000Z</time>
      </trkpt>
      <trkpt lat="44.00548" lon="5.90945">
        <ele>715</ele>
        <time>2020-10-05T12:12:46.000Z</time>
      </trkpt>
      <trkpt lat="44.00547" lon="5.90945">
        <ele>715</ele>
        <time>2020-10-05T12:12:47.000Z</time>
      </trkpt>
      <trkpt lat="44.00547" lon="5.90945">
        <ele>715</ele>
        <time>2020-10-05T12:12:48.000Z</time>
      </trkpt>
      <trkpt lat="44.00547" lon="5.90944">
        <ele>715</ele>
        <time>2020-10-05T12:12:49.000Z</time>
      </trkpt>
      <trkpt lat="44.00546" lon="5.90944">
        <ele>715</ele>
        <time>2020-10-05T12:12:50.000Z</time>
      </trkpt>
      <trkpt lat="44.00546" lon="5.90943">
        <ele>715</ele>
        <time>2020-10-05T12:12:51.000Z</time>
      </trkpt>
      <trkpt lat="44.00545" lon="5.90942">
        <ele>715</ele>
        <time>2020-10-05T12:12:52.000Z</time>
      </trkpt>
      <trkpt lat="44.00544" lon="5.90941">
        <ele>715</ele>
        <time>2020-10-05T12:12:53.000Z</time>
      </trkpt>
      <trkpt lat="44.00544" lon="5.9094">
        <ele>715</ele>
        <time>2020-10-05T12:12:54.000Z</time>
      </trkpt>
      <trkpt lat="44.00543" lon="5.90939">
        <ele>715</ele>
        <time>2020-10-05T12:12:55.000Z</time>
      </trkpt>
      <trkpt lat="44.00542" lon="5.90938">
        <ele>714</ele>
        <time>2020-10-05T12:12:56.000Z</time>
      </trkpt>
      <trkpt lat="44.00542" lon="5.90938">
        <ele>714</ele>
        <time>2020-10-05T12:12:57.000Z</time>
      </trkpt>
      <trkpt lat="44.00541" lon="5.90936">
        <ele>714</ele>
        <time>2020-10-05T12:12:58.000Z</time>
      </trkpt>
      <trkpt lat="44.00541" lon="5.90935">
        <ele>714</ele>
        <time>2020-10-05T12:12:59.000Z</time>
      </trkpt>
      <trkpt lat="44.0054" lon="5.90934">
        <ele>714</ele>
        <time>2020-10-05T12:13:00.000Z</time>
      </trkpt>
      <trkpt lat="44.00539" lon="5.90934">
        <ele>714</ele>
        <time>2020-10-05T12:13:01.000Z</time>
      </trkpt>
      <trkpt lat="44.00539" lon="5.90933">
        <ele>714</ele>
        <time>2020-10-05T12:13:02.000Z</time>
      </trkpt>
      <trkpt lat="44.00538" lon="5.90932">
        <ele>714</ele>
        <time>2020-10-05T12:13:03.000Z</time>
      </trkpt>
      <trkpt lat="44.00538" lon="5.90932">
        <ele>714</ele>
        <time>2020-10-05T12:13:04.000Z</time>
      </trkpt>
      <trkpt lat="44.00537" lon="5.90932">
        <ele>714</ele>
        <time>2020-10-05T12:13:05.000Z</time>
      </trkpt>
      <trkpt lat="44.00537" lon="5.90931">
        <ele>714</ele>
        <time>2020-10-05T12:13:06.000Z</time>
      </trkpt>
      <trkpt lat="44.00536" lon="5.90931">
        <ele>714</ele>
        <time>2020-10-05T12:13:07.000Z</time>
      </trkpt>
      <trkpt lat="44.00535" lon="5.9093">
        <ele>714</ele>
        <time>2020-10-05T12:13:08.000Z</time>
      </trkpt>
      <trkpt lat="44.00534" lon="5.9093">
        <ele>714</ele>
        <time>2020-10-05T12:13:09.000Z</time>
      </trkpt>
      <trkpt lat="44.00534" lon="5.90929">
        <ele>714</ele>
        <time>2020-10-05T12:13:10.000Z</time>
      </trkpt>
      <trkpt lat="44.00533" lon="5.90928">
        <ele>714</ele>
        <time>2020-10-05T12:13:11.000Z</time>
      </trkpt>
      <trkpt lat="44.00533" lon="5.90927">
        <ele>714</ele>
        <time>2020-10-05T12:13:12.000Z</time>
      </trkpt>
      <trkpt lat="44.00533" lon="5.90927">
        <ele>714</ele>
        <time>2020-10-05T12:13:13.000Z</time>
      </trkpt>
      <trkpt lat="44.00532" lon="5.90926">
        <ele>714</ele>
        <time>2020-10-05T12:13:14.000Z</time>
      </trkpt>
      <trkpt lat="44.00532" lon="5.90925">
        <ele>714</ele>
        <time>2020-10-05T12:13:15.000Z</time>
      </trkpt>
      <trkpt lat="44.00532" lon="5.90924">
        <ele>714</ele>
        <time>2020-10-05T12:13:16.000Z</time>
      </trkpt>
      <trkpt lat="44.00531" lon="5.90924">
        <ele>713</ele>
        <time>2020-10-05T12:13:17.000Z</time>
      </trkpt>
      <trkpt lat="44.0053" lon="5.90925">
        <ele>713</ele>
        <time>2020-10-05T12:13:18.000Z</time>
      </trkpt>
      <trkpt lat="44.00529" lon="5.90925">
        <ele>713</ele>
        <time>2020-10-05T12:13:19.000Z</time>
      </trkpt>
      <trkpt lat="44.00529" lon="5.90924">
        <ele>713</ele>
        <time>2020-10-05T12:13:20.000Z</time>
      </trkpt>
      <trkpt lat="44.00528" lon="5.90924">
        <ele>713</ele>
        <time>2020-10-05T12:13:21.000Z</time>
      </trkpt>
      <trkpt lat="44.00527" lon="5.90924">
        <ele>713</ele>
        <time>2020-10-05T12:13:22.000Z</time>
      </trkpt>
      <trkpt lat="44.00527" lon="5.90923">
        <ele>713</ele>
        <time>2020-10-05T12:13:23.000Z</time>
      </trkpt>
      <trkpt lat="44.00526" lon="5.90923">
        <ele>713</ele>
        <time>2020-10-05T12:13:24.000Z</time>
      </trkpt>
      <trkpt lat="44.00525" lon="5.90923">
        <ele>713</ele>
        <time>2020-10-05T12:13:25.000Z</time>
      </trkpt>
      <trkpt lat="44.00524" lon="5.90922">
        <ele>713</ele>
        <time>2020-10-05T12:13:26.000Z</time>
      </trkpt>
      <trkpt lat="44.00523" lon="5.90922">
        <ele>713</ele>
        <time>2020-10-05T12:13:27.000Z</time>
      </trkpt>
      <trkpt lat="44.00523" lon="5.90921">
        <ele>713</ele>
        <time>2020-10-05T12:13:28.000Z</time>
      </trkpt>
      <trkpt lat="44.00522" lon="5.9092">
        <ele>713</ele>
        <time>2020-10-05T12:13:29.000Z</time>
      </trkpt>
      <trkpt lat="44.00522" lon="5.9092">
        <ele>713</ele>
        <time>2020-10-05T12:13:30.000Z</time>
      </trkpt>
      <trkpt lat="44.00521" lon="5.9092">
        <ele>713</ele>
        <time>2020-10-05T12:13:31.000Z</time>
      </trkpt>
      <trkpt lat="44.00521" lon="5.90919">
        <ele>713</ele>
        <time>2020-10-05T12:13:32.000Z</time>
      </trkpt>
      <trkpt lat="44.0052" lon="5.90919">
        <ele>713</ele>
        <time>2020-10-05T12:13:33.000Z</time>
      </trkpt>
      <trkpt lat="44.00519" lon="5.90918">
        <ele>713</ele>
        <time>2020-10-05T12:13:34.000Z</time>
      </trkpt>
      <trkpt lat="44.00519" lon="5.90918">
        <ele>713</ele>
        <time>2020-10-05T12:13:35.000Z</time>
      </trkpt>
      <trkpt lat="44.00518" lon="5.90917">
        <ele>713</ele>
        <time>2020-10-05T12:13:36.000Z</time>
      </trkpt>
      <trkpt lat="44.00518" lon="5.90917">
        <ele>713</ele>
        <time>2020-10-05T12:13:37.000Z</time>
      </trkpt>
      <trkpt lat="44.00518" lon="5.90917">
        <ele>713</ele>
        <time>2020-10-05T12:13:38.000Z</time>
      </trkpt>
      <trkpt lat="44.00518" lon="5.90917">
        <ele>713</ele>
        <time>2020-10-05T12:13:39.000Z</time>
      </trkpt>
      <trkpt lat="44.00518" lon="5.90917">
        <ele>713</ele>
        <time>2020-10-05T12:13:40.000Z</time>
      </trkpt>
      <trkpt lat="44.00518" lon="5.90917">
        <ele>713</ele>
        <time>2020-10-05T12:13:41.000Z</time>
      </trkpt>
      <trkpt lat="44.00517" lon="5.90917">
        <ele>713</ele>
        <time>2020-10-05T12:13:42.000Z</time>
      </trkpt>
      <trkpt lat="44.00517" lon="5.90917">
        <ele>713</ele>
        <time>2020-10-05T12:13:43.000Z</time>
      </trkpt>
      <trkpt lat="44.00516" lon="5.90916">
        <ele>713</ele>
        <time>2020-10-05T12:13:44.000Z</time>
      </trkpt>
      <trkpt lat="44.00516" lon="5.90916">
        <ele>713</ele>
        <time>2020-10-05T12:13:45.000Z</time>
      </trkpt>
      <trkpt lat="44.00516" lon="5.90915">
        <ele>713</ele>
        <time>2020-10-05T12:13:46.000Z</time>
      </trkpt>
      <trkpt lat="44.00515" lon="5.90915">
        <ele>713</ele>
        <time>2020-10-05T12:13:47.000Z</time>
      </trkpt>
      <trkpt lat="44.00514" lon="5.90915">
        <ele>713</ele>
        <time>2020-10-05T12:13:48.000Z</time>
      </trkpt>
      <trkpt lat="44.00514" lon="5.90914">
        <ele>713</ele>
        <time>2020-10-05T12:13:49.000Z</time>
      </trkpt>
      <trkpt lat="44.00514" lon="5.90914">
        <ele>713</ele>
        <time>2020-10-05T12:13:50.000Z</time>
      </trkpt>
      <trkpt lat="44.00513" lon="5.90913">
        <ele>713</ele>
        <time>2020-10-05T12:13:51.000Z</time>
      </trkpt>
      <trkpt lat="44.00513" lon="5.90913">
        <ele>713</ele>
        <time>2020-10-05T12:13:52.000Z</time>
      </trkpt>
      <trkpt lat="44.00513" lon="5.90913">
        <ele>713</ele>
        <time>2020-10-05T12:13:53.000Z</time>
      </trkpt>
      <trkpt lat="44.00512" lon="5.90913">
        <ele>713</ele>
        <time>2020-10-05T12:13:54.000Z</time>
      </trkpt>
      <trkpt lat="44.00512" lon="5.90913">
        <ele>713</ele>
        <time>2020-10-05T12:13:55.000Z</time>
      </trkpt>
      <trkpt lat="44.00511" lon="5.90912">
        <ele>713</ele>
        <time>2020-10-05T12:13:56.000Z</time>
      </trkpt>
      <trkpt lat="44.0051" lon="5.90912">
        <ele>713</ele>
        <time>2020-10-05T12:13:57.000Z</time>
      </trkpt>
      <trkpt lat="44.00509" lon="5.90911">
        <ele>712</ele>
        <time>2020-10-05T12:13:58.000Z</time>
      </trkpt>
      <trkpt lat="44.00508" lon="5.9091">
        <ele>712</ele>
        <time>2020-10-05T12:13:59.000Z</time>
      </trkpt>
      <trkpt lat="44.00508" lon="5.9091">
        <ele>712</ele>
        <time>2020-10-05T12:14:00.000Z</time>
      </trkpt>
      <trkpt lat="44.00508" lon="5.90909">
        <ele>712</ele>
        <time>2020-10-05T12:14:01.000Z</time>
      </trkpt>
      <trkpt lat="44.00507" lon="5.90909">
        <ele>712</ele>
        <time>2020-10-05T12:14:02.000Z</time>
      </trkpt>
      <trkpt lat="44.00507" lon="5.90909">
        <ele>712</ele>
        <time>2020-10-05T12:14:03.000Z</time>
      </trkpt>
      <trkpt lat="44.00507" lon="5.90908">
        <ele>712</ele>
        <time>2020-10-05T12:14:04.000Z</time>
      </trkpt>
      <trkpt lat="44.00507" lon="5.90908">
        <ele>712</ele>
        <time>2020-10-05T12:14:05.000Z</time>
      </trkpt>
      <trkpt lat="44.00506" lon="5.90908">
        <ele>712</ele>
        <time>2020-10-05T12:14:06.000Z</time>
      </trkpt>
      <trkpt lat="44.00506" lon="5.90908">
        <ele>712</ele>
        <time>2020-10-05T12:14:07.000Z</time>
      </trkpt>
      <trkpt lat="44.00506" lon="5.90908">
        <ele>712</ele>
        <time>2020-10-05T12:14:08.000Z</time>
      </trkpt>
      <trkpt lat="44.00506" lon="5.90907">
        <ele>712</ele>
        <time>2020-10-05T12:14:09.000Z</time>
      </trkpt>
      <trkpt lat="44.00506" lon="5.90907">
        <ele>712</ele>
        <time>2020-10-05T12:14:10.000Z</time>
      </trkpt>
      <trkpt lat="44.00506" lon="5.90907">
        <ele>712</ele>
        <time>2020-10-05T12:14:11.000Z</time>
      </trkpt>
      <trkpt lat="44.00506" lon="5.90907">
        <ele>712</ele>
        <time>2020-10-05T12:14:12.000Z</time>
      </trkpt>
      <trkpt lat="44.00506" lon="5.90907">
        <ele>712</ele>
        <time>2020-10-05T12:14:13.000Z</time>
      </trkpt>
      <trkpt lat="44.00506" lon="5.90907">
        <ele>712</ele>
        <time>2020-10-05T12:14:14.000Z</time>
      </trkpt>
      <trkpt lat="44.00506" lon="5.90907">
        <ele>712</ele>
        <time>2020-10-05T12:14:15.000Z</time>
      </trkpt>
      <trkpt lat="44.00506" lon="5.90907">
        <ele>712</ele>
        <time>2020-10-05T12:14:16.000Z</time>
      </trkpt>
      <trkpt lat="44.00505" lon="5.90906">
        <ele>712</ele>
        <time>2020-10-05T12:14:17.000Z</time>
      </trkpt>
      <trkpt lat="44.00505" lon="5.90906">
        <ele>712</ele>
        <time>2020-10-05T12:14:18.000Z</time>
      </trkpt>
      <trkpt lat="44.00504" lon="5.90906">
        <ele>712</ele>
        <time>2020-10-05T12:14:19.000Z</time>
      </trkpt>
      <trkpt lat="44.00504" lon="5.90906">
        <ele>712</ele>
        <time>2020-10-05T12:14:20.000Z</time>
      </trkpt>
      <trkpt lat="44.00503" lon="5.90906">
        <ele>712</ele>
        <time>2020-10-05T12:14:21.000Z</time>
      </trkpt>
      <trkpt lat="44.00503" lon="5.90906">
        <ele>713</ele>
        <time>2020-10-05T12:14:22.000Z</time>
      </trkpt>
      <trkpt lat="44.00503" lon="5.90906">
        <ele>712</ele>
        <time>2020-10-05T12:14:23.000Z</time>
      </trkpt>
      <trkpt lat="44.00502" lon="5.90907">
        <ele>712</ele>
        <time>2020-10-05T12:14:24.000Z</time>
      </trkpt>
      <trkpt lat="44.00502" lon="5.90907">
        <ele>712</ele>
        <time>2020-10-05T12:14:25.000Z</time>
      </trkpt>
      <trkpt lat="44.00501" lon="5.90906">
        <ele>712</ele>
        <time>2020-10-05T12:14:26.000Z</time>
      </trkpt>
      <trkpt lat="44.005" lon="5.90907">
        <ele>712</ele>
        <time>2020-10-05T12:14:27.000Z</time>
      </trkpt>
      <trkpt lat="44.005" lon="5.90907">
        <ele>712</ele>
        <time>2020-10-05T12:14:28.000Z</time>
      </trkpt>
      <trkpt lat="44.00499" lon="5.90907">
        <ele>712</ele>
        <time>2020-10-05T12:14:29.000Z</time>
      </trkpt>
      <trkpt lat="44.00498" lon="5.90908">
        <ele>712</ele>
        <time>2020-10-05T12:14:30.000Z</time>
      </trkpt>
      <trkpt lat="44.00497" lon="5.90908">
        <ele>712</ele>
        <time>2020-10-05T12:14:31.000Z</time>
      </trkpt>
      <trkpt lat="44.00497" lon="5.90908">
        <ele>711</ele>
        <time>2020-10-05T12:14:32.000Z</time>
      </trkpt>
      <trkpt lat="44.00496" lon="5.90908">
        <ele>711</ele>
        <time>2020-10-05T12:14:33.000Z</time>
      </trkpt>
      <trkpt lat="44.00496" lon="5.90907">
        <ele>711</ele>
        <time>2020-10-05T12:14:34.000Z</time>
      </trkpt>
      <trkpt lat="44.00495" lon="5.90907">
        <ele>711</ele>
        <time>2020-10-05T12:14:35.000Z</time>
      </trkpt>
      <trkpt lat="44.00495" lon="5.90906">
        <ele>711</ele>
        <time>2020-10-05T12:14:36.000Z</time>
      </trkpt>
      <trkpt lat="44.00494" lon="5.90905">
        <ele>711</ele>
        <time>2020-10-05T12:14:37.000Z</time>
      </trkpt>
      <trkpt lat="44.00494" lon="5.90905">
        <ele>711</ele>
        <time>2020-10-05T12:14:38.000Z</time>
      </trkpt>
      <trkpt lat="44.00493" lon="5.90904">
        <ele>711</ele>
        <time>2020-10-05T12:14:39.000Z</time>
      </trkpt>
      <trkpt lat="44.00492" lon="5.90903">
        <ele>711</ele>
        <time>2020-10-05T12:14:40.000Z</time>
      </trkpt>
      <trkpt lat="44.00492" lon="5.90903">
        <ele>711</ele>
        <time>2020-10-05T12:14:41.000Z</time>
      </trkpt>
      <trkpt lat="44.00491" lon="5.90902">
        <ele>711</ele>
        <time>2020-10-05T12:14:42.000Z</time>
      </trkpt>
      <trkpt lat="44.0049" lon="5.90902">
        <ele>711</ele>
        <time>2020-10-05T12:14:43.000Z</time>
      </trkpt>
      <trkpt lat="44.00489" lon="5.90902">
        <ele>711</ele>
        <time>2020-10-05T12:14:44.000Z</time>
      </trkpt>
      <trkpt lat="44.00488" lon="5.90901">
        <ele>711</ele>
        <time>2020-10-05T12:14:45.000Z</time>
      </trkpt>
      <trkpt lat="44.00487" lon="5.909">
        <ele>711</ele>
        <time>2020-10-05T12:14:46.000Z</time>
      </trkpt>
      <trkpt lat="44.00487" lon="5.90899">
        <ele>711</ele>
        <time>2020-10-05T12:14:47.000Z</time>
      </trkpt>
      <trkpt lat="44.00486" lon="5.90898">
        <ele>711</ele>
        <time>2020-10-05T12:14:48.000Z</time>
      </trkpt>
      <trkpt lat="44.00486" lon="5.90896">
        <ele>711</ele>
        <time>2020-10-05T12:14:49.000Z</time>
      </trkpt>
      <trkpt lat="44.00485" lon="5.90895">
        <ele>710</ele>
        <time>2020-10-05T12:14:50.000Z</time>
      </trkpt>
      <trkpt lat="44.00484" lon="5.90894">
        <ele>710</ele>
        <time>2020-10-05T12:14:51.000Z</time>
      </trkpt>
      <trkpt lat="44.00484" lon="5.90893">
        <ele>710</ele>
        <time>2020-10-05T12:14:52.000Z</time>
      </trkpt>
      <trkpt lat="44.00483" lon="5.90893">
        <ele>710</ele>
        <time>2020-10-05T12:14:53.000Z</time>
      </trkpt>
      <trkpt lat="44.00483" lon="5.90892">
        <ele>710</ele>
        <time>2020-10-05T12:14:54.000Z</time>
      </trkpt>
      <trkpt lat="44.00483" lon="5.90892">
        <ele>710</ele>
        <time>2020-10-05T12:14:55.000Z</time>
      </trkpt>
      <trkpt lat="44.00483" lon="5.90892">
        <ele>710</ele>
        <time>2020-10-05T12:14:56.000Z</time>
      </trkpt>
      <trkpt lat="44.00483" lon="5.90891">
        <ele>710</ele>
        <time>2020-10-05T12:14:57.000Z</time>
      </trkpt>
      <trkpt lat="44.00483" lon="5.90891">
        <ele>710</ele>
        <time>2020-10-05T12:14:58.000Z</time>
      </trkpt>
      <trkpt lat="44.00483" lon="5.90891">
        <ele>710</ele>
        <time>2020-10-05T12:14:59.000Z</time>
      </trkpt>
      <trkpt lat="44.00483" lon="5.9089">
        <ele>710</ele>
        <time>2020-10-05T12:15:00.000Z</time>
      </trkpt>
      <trkpt lat="44.00483" lon="5.9089">
        <ele>710</ele>
        <time>2020-10-05T12:15:01.000Z</time>
      </trkpt>
      <trkpt lat="44.00483" lon="5.9089">
        <ele>710</ele>
        <time>2020-10-05T12:15:02.000Z</time>
      </trkpt>
      <trkpt lat="44.00483" lon="5.9089">
        <ele>710</ele>
        <time>2020-10-05T12:15:03.000Z</time>
      </trkpt>
      <trkpt lat="44.00483" lon="5.9089">
        <ele>710</ele>
        <time>2020-10-05T12:15:04.000Z</time>
      </trkpt>
      <trkpt lat="44.00483" lon="5.9089">
        <ele>710</ele>
        <time>2020-10-05T12:15:05.000Z</time>
      </trkpt>
      <trkpt lat="44.00483" lon="5.9089">
        <ele>710</ele>
        <time>2020-10-05T12:15:06.000Z</time>
      </trkpt>
      <trkpt lat="44.00483" lon="5.9089">
        <ele>710</ele>
        <time>2020-10-05T12:15:07.000Z</time>
      </trkpt>
      <trkpt lat="44.00483" lon="5.9089">
        <ele>710</ele>
        <time>2020-10-05T12:15:08.000Z</time>
      </trkpt>
      <trkpt lat="44.00482" lon="5.9089">
        <ele>710</ele>
        <time>2020-10-05T12:15:09.000Z</time>
      </trkpt>
      <trkpt lat="44.00482" lon="5.9089">
        <ele>709</ele>
        <time>2020-10-05T12:15:10.000Z</time>
      </trkpt>
      <trkpt lat="44.00481" lon="5.9089">
        <ele>709</ele>
        <time>2020-10-05T12:15:11.000Z</time>
      </trkpt>
      <trkpt lat="44.0048" lon="5.9089">
        <ele>709</ele>
        <time>2020-10-05T12:15:12.000Z</time>
      </trkpt>
      <trkpt lat="44.0048" lon="5.90891">
        <ele>709</ele>
        <time>2020-10-05T12:15:13.000Z</time>
      </trkpt>
      <trkpt lat="44.00479" lon="5.90891">
        <ele>709</ele>
        <time>2020-10-05T12:15:14.000Z</time>
      </trkpt>
      <trkpt lat="44.00478" lon="5.9089">
        <ele>709</ele>
        <time>2020-10-05T12:15:15.000Z</time>
      </trkpt>
      <trkpt lat="44.00477" lon="5.9089">
        <ele>709</ele>
        <time>2020-10-05T12:15:16.000Z</time>
      </trkpt>
      <trkpt lat="44.00477" lon="5.90889">
        <ele>709</ele>
        <time>2020-10-05T12:15:17.000Z</time>
      </trkpt>
      <trkpt lat="44.00476" lon="5.90889">
        <ele>709</ele>
        <time>2020-10-05T12:15:18.000Z</time>
      </trkpt>
      <trkpt lat="44.00476" lon="5.90889">
        <ele>708</ele>
        <time>2020-10-05T12:15:19.000Z</time>
      </trkpt>
      <trkpt lat="44.00475" lon="5.90888">
        <ele>708</ele>
        <time>2020-10-05T12:15:20.000Z</time>
      </trkpt>
      <trkpt lat="44.00475" lon="5.90888">
        <ele>708</ele>
        <time>2020-10-05T12:15:21.000Z</time>
      </trkpt>
      <trkpt lat="44.00475" lon="5.90887">
        <ele>708</ele>
        <time>2020-10-05T12:15:22.000Z</time>
      </trkpt>
      <trkpt lat="44.00474" lon="5.90887">
        <ele>708</ele>
        <time>2020-10-05T12:15:23.000Z</time>
      </trkpt>
      <trkpt lat="44.00474" lon="5.90887">
        <ele>708</ele>
        <time>2020-10-05T12:15:24.000Z</time>
      </trkpt>
      <trkpt lat="44.00474" lon="5.90886">
        <ele>708</ele>
        <time>2020-10-05T12:15:25.000Z</time>
      </trkpt>
      <trkpt lat="44.00474" lon="5.90886">
        <ele>708</ele>
        <time>2020-10-05T12:15:26.000Z</time>
      </trkpt>
      <trkpt lat="44.00473" lon="5.90886">
        <ele>708</ele>
        <time>2020-10-05T12:15:27.000Z</time>
      </trkpt>
      <trkpt lat="44.00473" lon="5.90886">
        <ele>708</ele>
        <time>2020-10-05T12:15:28.000Z</time>
      </trkpt>
      <trkpt lat="44.00473" lon="5.90886">
        <ele>708</ele>
        <time>2020-10-05T12:15:29.000Z</time>
      </trkpt>
      <trkpt lat="44.00473" lon="5.90886">
        <ele>708</ele>
        <time>2020-10-05T12:15:30.000Z</time>
      </trkpt>
      <trkpt lat="44.00473" lon="5.90886">
        <ele>708</ele>
        <time>2020-10-05T12:15:31.000Z</time>
      </trkpt>
      <trkpt lat="44.00473" lon="5.90885">
        <ele>708</ele>
        <time>2020-10-05T12:15:32.000Z</time>
      </trkpt>
      <trkpt lat="44.00473" lon="5.90885">
        <ele>708</ele>
        <time>2020-10-05T12:15:33.000Z</time>
      </trkpt>
      <trkpt lat="44.00472" lon="5.90885">
        <ele>708</ele>
        <time>2020-10-05T12:15:34.000Z</time>
      </trkpt>
      <trkpt lat="44.00471" lon="5.90884">
        <ele>708</ele>
        <time>2020-10-05T12:15:35.000Z</time>
      </trkpt>
      <trkpt lat="44.00471" lon="5.90882">
        <ele>708</ele>
        <time>2020-10-05T12:15:36.000Z</time>
      </trkpt>
      <trkpt lat="44.0047" lon="5.90881">
        <ele>708</ele>
        <time>2020-10-05T12:15:37.000Z</time>
      </trkpt>
      <trkpt lat="44.0047" lon="5.9088">
        <ele>708</ele>
        <time>2020-10-05T12:15:38.000Z</time>
      </trkpt>
      <trkpt lat="44.00469" lon="5.90879">
        <ele>708</ele>
        <time>2020-10-05T12:15:39.000Z</time>
      </trkpt>
      <trkpt lat="44.00468" lon="5.90879">
        <ele>708</ele>
        <time>2020-10-05T12:15:40.000Z</time>
      </trkpt>
      <trkpt lat="44.00467" lon="5.90878">
        <ele>708</ele>
        <time>2020-10-05T12:15:41.000Z</time>
      </trkpt>
      <trkpt lat="44.00467" lon="5.90878">
        <ele>708</ele>
        <time>2020-10-05T12:15:42.000Z</time>
      </trkpt>
      <trkpt lat="44.00466" lon="5.90878">
        <ele>708</ele>
        <time>2020-10-05T12:15:43.000Z</time>
      </trkpt>
      <trkpt lat="44.00465" lon="5.90877">
        <ele>708</ele>
        <time>2020-10-05T12:15:44.000Z</time>
      </trkpt>
      <trkpt lat="44.00465" lon="5.90877">
        <ele>708</ele>
        <time>2020-10-05T12:15:45.000Z</time>
      </trkpt>
      <trkpt lat="44.00464" lon="5.90877">
        <ele>708</ele>
        <time>2020-10-05T12:15:46.000Z</time>
      </trkpt>
      <trkpt lat="44.00463" lon="5.90877">
        <ele>708</ele>
        <time>2020-10-05T12:15:47.000Z</time>
      </trkpt>
      <trkpt lat="44.00463" lon="5.90877">
        <ele>708</ele>
        <time>2020-10-05T12:15:48.000Z</time>
      </trkpt>
      <trkpt lat="44.00462" lon="5.90878">
        <ele>708</ele>
        <time>2020-10-05T12:15:49.000Z</time>
      </trkpt>
      <trkpt lat="44.00462" lon="5.90878">
        <ele>708</ele>
        <time>2020-10-05T12:15:50.000Z</time>
      </trkpt>
      <trkpt lat="44.00461" lon="5.90878">
        <ele>708</ele>
        <time>2020-10-05T12:15:51.000Z</time>
      </trkpt>
      <trkpt lat="44.00461" lon="5.90879">
        <ele>708</ele>
        <time>2020-10-05T12:15:52.000Z</time>
      </trkpt>
      <trkpt lat="44.0046" lon="5.9088">
        <ele>708</ele>
        <time>2020-10-05T12:15:53.000Z</time>
      </trkpt>
      <trkpt lat="44.0046" lon="5.90881">
        <ele>708</ele>
        <time>2020-10-05T12:15:54.000Z</time>
      </trkpt>
      <trkpt lat="44.0046" lon="5.90881">
        <ele>708</ele>
        <time>2020-10-05T12:15:55.000Z</time>
      </trkpt>
      <trkpt lat="44.0046" lon="5.90881">
        <ele>708</ele>
        <time>2020-10-05T12:15:56.000Z</time>
      </trkpt>
      <trkpt lat="44.0046" lon="5.90881">
        <ele>708</ele>
        <time>2020-10-05T12:15:57.000Z</time>
      </trkpt>
      <trkpt lat="44.0046" lon="5.90881">
        <ele>708</ele>
        <time>2020-10-05T12:15:58.000Z</time>
      </trkpt>
      <trkpt lat="44.0046" lon="5.90881">
        <ele>708</ele>
        <time>2020-10-05T12:15:59.000Z</time>
      </trkpt>
      <trkpt lat="44.0046" lon="5.90881">
        <ele>708</ele>
        <time>2020-10-05T12:16:00.000Z</time>
      </trkpt>
      <trkpt lat="44.0046" lon="5.90881">
        <ele>708</ele>
        <time>2020-10-05T12:16:01.000Z</time>
      </trkpt>
      <trkpt lat="44.0046" lon="5.90881">
        <ele>708</ele>
        <time>2020-10-05T12:16:02.000Z</time>
      </trkpt>
      <trkpt lat="44.0046" lon="5.90881">
        <ele>708</ele>
        <time>2020-10-05T12:16:03.000Z</time>
      </trkpt>
      <trkpt lat="44.0046" lon="5.90881">
        <ele>708</ele>
        <time>2020-10-05T12:16:04.000Z</time>
      </trkpt>
      <trkpt lat="44.0046" lon="5.90881">
        <ele>708</ele>
        <time>2020-10-05T12:16:05.000Z</time>
      </trkpt>
      <trkpt lat="44.0046" lon="5.90881">
        <ele>708</ele>
        <time>2020-10-05T12:16:06.000Z</time>
      </trkpt>
      <trkpt lat="44.0046" lon="5.90881">
        <ele>708</ele>
        <time>2020-10-05T12:16:07.000Z</time>
      </trkpt>
      <trkpt lat="44.0046" lon="5.90881">
        <ele>708</ele>
        <time>2020-10-05T12:16:08.000Z</time>
      </trkpt>
      <trkpt lat="44.0046" lon="5.90881">
        <ele>708</ele>
        <time>2020-10-05T12:16:09.000Z</time>
      </trkpt>
      <trkpt lat="44.00459" lon="5.90881">
        <ele>708</ele>
        <time>2020-10-05T12:16:10.000Z</time>
      </trkpt>
      <trkpt lat="44.00459" lon="5.90881">
        <ele>708</ele>
        <time>2020-10-05T12:16:11.000Z</time>
      </trkpt>
      <trkpt lat="44.00458" lon="5.9088">
        <ele>708</ele>
        <time>2020-10-05T12:16:12.000Z</time>
      </trkpt>
      <trkpt lat="44.00457" lon="5.9088">
        <ele>708</ele>
        <time>2020-10-05T12:16:13.000Z</time>
      </trkpt>
      <trkpt lat="44.00457" lon="5.9088">
        <ele>708</ele>
        <time>2020-10-05T12:16:14.000Z</time>
      </trkpt>
      <trkpt lat="44.00457" lon="5.90879">
        <ele>708</ele>
        <time>2020-10-05T12:16:15.000Z</time>
      </trkpt>
      <trkpt lat="44.00456" lon="5.90878">
        <ele>708</ele>
        <time>2020-10-05T12:16:16.000Z</time>
      </trkpt>
      <trkpt lat="44.00455" lon="5.90878">
        <ele>708</ele>
        <time>2020-10-05T12:16:17.000Z</time>
      </trkpt>
      <trkpt lat="44.00455" lon="5.90878">
        <ele>708</ele>
        <time>2020-10-05T12:16:18.000Z</time>
      </trkpt>
      <trkpt lat="44.00454" lon="5.90877">
        <ele>708</ele>
        <time>2020-10-05T12:16:19.000Z</time>
      </trkpt>
      <trkpt lat="44.00454" lon="5.90876">
        <ele>708</ele>
        <time>2020-10-05T12:16:20.000Z</time>
      </trkpt>
      <trkpt lat="44.00453" lon="5.90875">
        <ele>708</ele>
        <time>2020-10-05T12:16:21.000Z</time>
      </trkpt>
      <trkpt lat="44.00452" lon="5.90874">
        <ele>708</ele>
        <time>2020-10-05T12:16:22.000Z</time>
      </trkpt>
      <trkpt lat="44.00451" lon="5.90874">
        <ele>707</ele>
        <time>2020-10-05T12:16:23.000Z</time>
      </trkpt>
      <trkpt lat="44.0045" lon="5.90873">
        <ele>707</ele>
        <time>2020-10-05T12:16:24.000Z</time>
      </trkpt>
      <trkpt lat="44.0045" lon="5.90872">
        <ele>707</ele>
        <time>2020-10-05T12:16:25.000Z</time>
      </trkpt>
      <trkpt lat="44.00449" lon="5.90871">
        <ele>707</ele>
        <time>2020-10-05T12:16:26.000Z</time>
      </trkpt>
      <trkpt lat="44.00448" lon="5.9087">
        <ele>707</ele>
        <time>2020-10-05T12:16:27.000Z</time>
      </trkpt>
      <trkpt lat="44.00448" lon="5.9087">
        <ele>707</ele>
        <time>2020-10-05T12:16:28.000Z</time>
      </trkpt>
      <trkpt lat="44.00448" lon="5.90869">
        <ele>707</ele>
        <time>2020-10-05T12:16:29.000Z</time>
      </trkpt>
      <trkpt lat="44.00448" lon="5.90868">
        <ele>707</ele>
        <time>2020-10-05T12:16:30.000Z</time>
      </trkpt>
      <trkpt lat="44.00448" lon="5.90867">
        <ele>707</ele>
        <time>2020-10-05T12:16:31.000Z</time>
      </trkpt>
      <trkpt lat="44.00448" lon="5.90868">
        <ele>707</ele>
        <time>2020-10-05T12:16:32.000Z</time>
      </trkpt>
      <trkpt lat="44.00448" lon="5.90867">
        <ele>707</ele>
        <time>2020-10-05T12:16:33.000Z</time>
      </trkpt>
      <trkpt lat="44.00447" lon="5.90867">
        <ele>706</ele>
        <time>2020-10-05T12:16:34.000Z</time>
      </trkpt>
      <trkpt lat="44.00446" lon="5.90867">
        <ele>706</ele>
        <time>2020-10-05T12:16:35.000Z</time>
      </trkpt>
      <trkpt lat="44.00446" lon="5.90866">
        <ele>706</ele>
        <time>2020-10-05T12:16:36.000Z</time>
      </trkpt>
      <trkpt lat="44.00445" lon="5.90866">
        <ele>706</ele>
        <time>2020-10-05T12:16:37.000Z</time>
      </trkpt>
      <trkpt lat="44.00444" lon="5.90866">
        <ele>706</ele>
        <time>2020-10-05T12:16:38.000Z</time>
      </trkpt>
      <trkpt lat="44.00443" lon="5.90866">
        <ele>706</ele>
        <time>2020-10-05T12:16:39.000Z</time>
      </trkpt>
      <trkpt lat="44.00443" lon="5.90865">
        <ele>706</ele>
        <time>2020-10-05T12:16:40.000Z</time>
      </trkpt>
      <trkpt lat="44.00442" lon="5.90864">
        <ele>706</ele>
        <time>2020-10-05T12:16:41.000Z</time>
      </trkpt>
      <trkpt lat="44.00441" lon="5.90864">
        <ele>706</ele>
        <time>2020-10-05T12:16:42.000Z</time>
      </trkpt>
      <trkpt lat="44.0044" lon="5.90863">
        <ele>706</ele>
        <time>2020-10-05T12:16:43.000Z</time>
      </trkpt>
      <trkpt lat="44.00439" lon="5.90862">
        <ele>706</ele>
        <time>2020-10-05T12:16:44.000Z</time>
      </trkpt>
      <trkpt lat="44.00438" lon="5.90862">
        <ele>706</ele>
        <time>2020-10-05T12:16:45.000Z</time>
      </trkpt>
      <trkpt lat="44.00437" lon="5.90862">
        <ele>706</ele>
        <time>2020-10-05T12:16:46.000Z</time>
      </trkpt>
      <trkpt lat="44.00436" lon="5.90862">
        <ele>706</ele>
        <time>2020-10-05T12:16:47.000Z</time>
      </trkpt>
      <trkpt lat="44.00436" lon="5.90862">
        <ele>706</ele>
        <time>2020-10-05T12:16:48.000Z</time>
      </trkpt>
      <trkpt lat="44.00435" lon="5.90862">
        <ele>705</ele>
        <time>2020-10-05T12:16:49.000Z</time>
      </trkpt>
      <trkpt lat="44.00434" lon="5.90862">
        <ele>705</ele>
        <time>2020-10-05T12:16:50.000Z</time>
      </trkpt>
      <trkpt lat="44.00433" lon="5.90862">
        <ele>705</ele>
        <time>2020-10-05T12:16:51.000Z</time>
      </trkpt>
      <trkpt lat="44.00432" lon="5.90862">
        <ele>705</ele>
        <time>2020-10-05T12:16:52.000Z</time>
      </trkpt>
      <trkpt lat="44.00431" lon="5.90862">
        <ele>705</ele>
        <time>2020-10-05T12:16:53.000Z</time>
      </trkpt>
      <trkpt lat="44.0043" lon="5.90862">
        <ele>705</ele>
        <time>2020-10-05T12:16:54.000Z</time>
      </trkpt>
      <trkpt lat="44.00429" lon="5.90862">
        <ele>705</ele>
        <time>2020-10-05T12:16:55.000Z</time>
      </trkpt>
      <trkpt lat="44.00428" lon="5.90862">
        <ele>705</ele>
        <time>2020-10-05T12:16:56.000Z</time>
      </trkpt>
      <trkpt lat="44.00427" lon="5.90862">
        <ele>705</ele>
        <time>2020-10-05T12:16:57.000Z</time>
      </trkpt>
      <trkpt lat="44.00426" lon="5.90861">
        <ele>704</ele>
        <time>2020-10-05T12:16:58.000Z</time>
      </trkpt>
      <trkpt lat="44.00425" lon="5.90861">
        <ele>704</ele>
        <time>2020-10-05T12:16:59.000Z</time>
      </trkpt>
      <trkpt lat="44.00424" lon="5.90859">
        <ele>704</ele>
        <time>2020-10-05T12:17:00.000Z</time>
      </trkpt>
      <trkpt lat="44.00424" lon="5.90858">
        <ele>704</ele>
        <time>2020-10-05T12:17:01.000Z</time>
      </trkpt>
      <trkpt lat="44.00423" lon="5.90856">
        <ele>704</ele>
        <time>2020-10-05T12:17:02.000Z</time>
      </trkpt>
      <trkpt lat="44.00423" lon="5.90855">
        <ele>704</ele>
        <time>2020-10-05T12:17:03.000Z</time>
      </trkpt>
      <trkpt lat="44.00422" lon="5.90854">
        <ele>704</ele>
        <time>2020-10-05T12:17:04.000Z</time>
      </trkpt>
      <trkpt lat="44.00422" lon="5.90852">
        <ele>704</ele>
        <time>2020-10-05T12:17:05.000Z</time>
      </trkpt>
      <trkpt lat="44.00421" lon="5.90851">
        <ele>704</ele>
        <time>2020-10-05T12:17:06.000Z</time>
      </trkpt>
      <trkpt lat="44.00421" lon="5.90849">
        <ele>704</ele>
        <time>2020-10-05T12:17:07.000Z</time>
      </trkpt>
      <trkpt lat="44.0042" lon="5.90848">
        <ele>704</ele>
        <time>2020-10-05T12:17:08.000Z</time>
      </trkpt>
      <trkpt lat="44.0042" lon="5.90847">
        <ele>704</ele>
        <time>2020-10-05T12:17:09.000Z</time>
      </trkpt>
      <trkpt lat="44.0042" lon="5.90846">
        <ele>704</ele>
        <time>2020-10-05T12:17:10.000Z</time>
      </trkpt>
      <trkpt lat="44.0042" lon="5.90845">
        <ele>704</ele>
        <time>2020-10-05T12:17:11.000Z</time>
      </trkpt>
      <trkpt lat="44.00421" lon="5.90845">
        <ele>704</ele>
        <time>2020-10-05T12:17:12.000Z</time>
      </trkpt>
      <trkpt lat="44.00421" lon="5.90844">
        <ele>704</ele>
        <time>2020-10-05T12:17:13.000Z</time>
      </trkpt>
      <trkpt lat="44.0042" lon="5.90845">
        <ele>704</ele>
        <time>2020-10-05T12:17:14.000Z</time>
      </trkpt>
      <trkpt lat="44.0042" lon="5.90845">
        <ele>704</ele>
        <time>2020-10-05T12:17:15.000Z</time>
      </trkpt>
      <trkpt lat="44.00419" lon="5.90845">
        <ele>704</ele>
        <time>2020-10-05T12:17:16.000Z</time>
      </trkpt>
      <trkpt lat="44.00418" lon="5.90845">
        <ele>704</ele>
        <time>2020-10-05T12:17:17.000Z</time>
      </trkpt>
      <trkpt lat="44.00417" lon="5.90844">
        <ele>704</ele>
        <time>2020-10-05T12:17:18.000Z</time>
      </trkpt>
      <trkpt lat="44.00417" lon="5.90844">
        <ele>704</ele>
        <time>2020-10-05T12:17:19.000Z</time>
      </trkpt>
      <trkpt lat="44.00416" lon="5.90844">
        <ele>704</ele>
        <time>2020-10-05T12:17:20.000Z</time>
      </trkpt>
      <trkpt lat="44.00415" lon="5.90845">
        <ele>704</ele>
        <time>2020-10-05T12:17:21.000Z</time>
      </trkpt>
      <trkpt lat="44.00413" lon="5.90845">
        <ele>704</ele>
        <time>2020-10-05T12:17:22.000Z</time>
      </trkpt>
      <trkpt lat="44.00412" lon="5.90845">
        <ele>704</ele>
        <time>2020-10-05T12:17:23.000Z</time>
      </trkpt>
      <trkpt lat="44.00412" lon="5.90845">
        <ele>704</ele>
        <time>2020-10-05T12:17:24.000Z</time>
      </trkpt>
      <trkpt lat="44.00411" lon="5.90844">
        <ele>704</ele>
        <time>2020-10-05T12:17:25.000Z</time>
      </trkpt>
      <trkpt lat="44.0041" lon="5.90843">
        <ele>704</ele>
        <time>2020-10-05T12:17:26.000Z</time>
      </trkpt>
      <trkpt lat="44.00409" lon="5.90843">
        <ele>704</ele>
        <time>2020-10-05T12:17:27.000Z</time>
      </trkpt>
      <trkpt lat="44.00408" lon="5.90842">
        <ele>704</ele>
        <time>2020-10-05T12:17:28.000Z</time>
      </trkpt>
      <trkpt lat="44.00407" lon="5.90841">
        <ele>704</ele>
        <time>2020-10-05T12:17:29.000Z</time>
      </trkpt>
      <trkpt lat="44.00406" lon="5.90841">
        <ele>704</ele>
        <time>2020-10-05T12:17:30.000Z</time>
      </trkpt>
      <trkpt lat="44.00406" lon="5.9084">
        <ele>704</ele>
        <time>2020-10-05T12:17:31.000Z</time>
      </trkpt>
      <trkpt lat="44.00405" lon="5.90839">
        <ele>704</ele>
        <time>2020-10-05T12:17:32.000Z</time>
      </trkpt>
      <trkpt lat="44.00404" lon="5.90839">
        <ele>704</ele>
        <time>2020-10-05T12:17:33.000Z</time>
      </trkpt>
      <trkpt lat="44.00403" lon="5.90838">
        <ele>704</ele>
        <time>2020-10-05T12:17:34.000Z</time>
      </trkpt>
      <trkpt lat="44.00402" lon="5.90837">
        <ele>703</ele>
        <time>2020-10-05T12:17:35.000Z</time>
      </trkpt>
      <trkpt lat="44.00402" lon="5.90837">
        <ele>703</ele>
        <time>2020-10-05T12:17:36.000Z</time>
      </trkpt>
      <trkpt lat="44.00401" lon="5.90836">
        <ele>703</ele>
        <time>2020-10-05T12:17:37.000Z</time>
      </trkpt>
      <trkpt lat="44.004" lon="5.90835">
        <ele>703</ele>
        <time>2020-10-05T12:17:38.000Z</time>
      </trkpt>
      <trkpt lat="44.00399" lon="5.90835">
        <ele>703</ele>
        <time>2020-10-05T12:17:39.000Z</time>
      </trkpt>
      <trkpt lat="44.00399" lon="5.90833">
        <ele>703</ele>
        <time>2020-10-05T12:17:40.000Z</time>
      </trkpt>
      <trkpt lat="44.00398" lon="5.90832">
        <ele>703</ele>
        <time>2020-10-05T12:17:41.000Z</time>
      </trkpt>
      <trkpt lat="44.00397" lon="5.90832">
        <ele>703</ele>
        <time>2020-10-05T12:17:42.000Z</time>
      </trkpt>
      <trkpt lat="44.00397" lon="5.90831">
        <ele>703</ele>
        <time>2020-10-05T12:17:43.000Z</time>
      </trkpt>
      <trkpt lat="44.00396" lon="5.9083">
        <ele>703</ele>
        <time>2020-10-05T12:17:44.000Z</time>
      </trkpt>
      <trkpt lat="44.00395" lon="5.90829">
        <ele>702</ele>
        <time>2020-10-05T12:17:45.000Z</time>
      </trkpt>
      <trkpt lat="44.00394" lon="5.90829">
        <ele>702</ele>
        <time>2020-10-05T12:17:46.000Z</time>
      </trkpt>
      <trkpt lat="44.00394" lon="5.90828">
        <ele>702</ele>
        <time>2020-10-05T12:17:47.000Z</time>
      </trkpt>
      <trkpt lat="44.00392" lon="5.90827">
        <ele>702</ele>
        <time>2020-10-05T12:17:48.000Z</time>
      </trkpt>
      <trkpt lat="44.00391" lon="5.90827">
        <ele>702</ele>
        <time>2020-10-05T12:17:49.000Z</time>
      </trkpt>
      <trkpt lat="44.00391" lon="5.90827">
        <ele>702</ele>
        <time>2020-10-05T12:17:50.000Z</time>
      </trkpt>
      <trkpt lat="44.0039" lon="5.90827">
        <ele>702</ele>
        <time>2020-10-05T12:17:51.000Z</time>
      </trkpt>
      <trkpt lat="44.00389" lon="5.90827">
        <ele>702</ele>
        <time>2020-10-05T12:17:52.000Z</time>
      </trkpt>
      <trkpt lat="44.00388" lon="5.90827">
        <ele>702</ele>
        <time>2020-10-05T12:17:53.000Z</time>
      </trkpt>
      <trkpt lat="44.00387" lon="5.90827">
        <ele>702</ele>
        <time>2020-10-05T12:17:54.000Z</time>
      </trkpt>
      <trkpt lat="44.00387" lon="5.90827">
        <ele>702</ele>
        <time>2020-10-05T12:17:55.000Z</time>
      </trkpt>
      <trkpt lat="44.00386" lon="5.90827">
        <ele>702</ele>
        <time>2020-10-05T12:17:56.000Z</time>
      </trkpt>
      <trkpt lat="44.00385" lon="5.90826">
        <ele>702</ele>
        <time>2020-10-05T12:17:57.000Z</time>
      </trkpt>
      <trkpt lat="44.00385" lon="5.90826">
        <ele>702</ele>
        <time>2020-10-05T12:17:58.000Z</time>
      </trkpt>
      <trkpt lat="44.00384" lon="5.90825">
        <ele>702</ele>
        <time>2020-10-05T12:17:59.000Z</time>
      </trkpt>
      <trkpt lat="44.00384" lon="5.90824">
        <ele>702</ele>
        <time>2020-10-05T12:18:00.000Z</time>
      </trkpt>
      <trkpt lat="44.00383" lon="5.90823">
        <ele>702</ele>
        <time>2020-10-05T12:18:01.000Z</time>
      </trkpt>
      <trkpt lat="44.00383" lon="5.90822">
        <ele>702</ele>
        <time>2020-10-05T12:18:02.000Z</time>
      </trkpt>
      <trkpt lat="44.00382" lon="5.90821">
        <ele>702</ele>
        <time>2020-10-05T12:18:03.000Z</time>
      </trkpt>
      <trkpt lat="44.00381" lon="5.9082">
        <ele>702</ele>
        <time>2020-10-05T12:18:04.000Z</time>
      </trkpt>
      <trkpt lat="44.0038" lon="5.90819">
        <ele>702</ele>
        <time>2020-10-05T12:18:05.000Z</time>
      </trkpt>
      <trkpt lat="44.0038" lon="5.90818">
        <ele>702</ele>
        <time>2020-10-05T12:18:06.000Z</time>
      </trkpt>
      <trkpt lat="44.00379" lon="5.90817">
        <ele>702</ele>
        <time>2020-10-05T12:18:07.000Z</time>
      </trkpt>
      <trkpt lat="44.00378" lon="5.90816">
        <ele>702</ele>
        <time>2020-10-05T12:18:08.000Z</time>
      </trkpt>
      <trkpt lat="44.00378" lon="5.90815">
        <ele>702</ele>
        <time>2020-10-05T12:18:09.000Z</time>
      </trkpt>
      <trkpt lat="44.00378" lon="5.90814">
        <ele>702</ele>
        <time>2020-10-05T12:18:10.000Z</time>
      </trkpt>
      <trkpt lat="44.00377" lon="5.90813">
        <ele>702</ele>
        <time>2020-10-05T12:18:11.000Z</time>
      </trkpt>
      <trkpt lat="44.00377" lon="5.90812">
        <ele>702</ele>
        <time>2020-10-05T12:18:12.000Z</time>
      </trkpt>
      <trkpt lat="44.00376" lon="5.90812">
        <ele>702</ele>
        <time>2020-10-05T12:18:13.000Z</time>
      </trkpt>
      <trkpt lat="44.00376" lon="5.90811">
        <ele>702</ele>
        <time>2020-10-05T12:18:14.000Z</time>
      </trkpt>
      <trkpt lat="44.00375" lon="5.9081">
        <ele>702</ele>
        <time>2020-10-05T12:18:15.000Z</time>
      </trkpt>
      <trkpt lat="44.00375" lon="5.90809">
        <ele>702</ele>
        <time>2020-10-05T12:18:16.000Z</time>
      </trkpt>
      <trkpt lat="44.00375" lon="5.90809">
        <ele>702</ele>
        <time>2020-10-05T12:18:17.000Z</time>
      </trkpt>
      <trkpt lat="44.00374" lon="5.90809">
        <ele>702</ele>
        <time>2020-10-05T12:18:18.000Z</time>
      </trkpt>
      <trkpt lat="44.00373" lon="5.90809">
        <ele>702</ele>
        <time>2020-10-05T12:18:19.000Z</time>
      </trkpt>
      <trkpt lat="44.00372" lon="5.9081">
        <ele>702</ele>
        <time>2020-10-05T12:18:20.000Z</time>
      </trkpt>
      <trkpt lat="44.00371" lon="5.9081">
        <ele>702</ele>
        <time>2020-10-05T12:18:21.000Z</time>
      </trkpt>
      <trkpt lat="44.0037" lon="5.9081">
        <ele>702</ele>
        <time>2020-10-05T12:18:22.000Z</time>
      </trkpt>
      <trkpt lat="44.00369" lon="5.90811">
        <ele>702</ele>
        <time>2020-10-05T12:18:23.000Z</time>
      </trkpt>
      <trkpt lat="44.00368" lon="5.90811">
        <ele>702</ele>
        <time>2020-10-05T12:18:24.000Z</time>
      </trkpt>
      <trkpt lat="44.00367" lon="5.90811">
        <ele>702</ele>
        <time>2020-10-05T12:18:25.000Z</time>
      </trkpt>
      <trkpt lat="44.00366" lon="5.90811">
        <ele>702</ele>
        <time>2020-10-05T12:18:26.000Z</time>
      </trkpt>
      <trkpt lat="44.00365" lon="5.90812">
        <ele>702</ele>
        <time>2020-10-05T12:18:27.000Z</time>
      </trkpt>
      <trkpt lat="44.00364" lon="5.90812">
        <ele>702</ele>
        <time>2020-10-05T12:18:28.000Z</time>
      </trkpt>
      <trkpt lat="44.00363" lon="5.90812">
        <ele>702</ele>
        <time>2020-10-05T12:18:29.000Z</time>
      </trkpt>
      <trkpt lat="44.00362" lon="5.90812">
        <ele>702</ele>
        <time>2020-10-05T12:18:30.000Z</time>
      </trkpt>
      <trkpt lat="44.00361" lon="5.90811">
        <ele>702</ele>
        <time>2020-10-05T12:18:31.000Z</time>
      </trkpt>
      <trkpt lat="44.00361" lon="5.90811">
        <ele>702</ele>
        <time>2020-10-05T12:18:32.000Z</time>
      </trkpt>
      <trkpt lat="44.0036" lon="5.9081">
        <ele>702</ele>
        <time>2020-10-05T12:18:33.000Z</time>
      </trkpt>
      <trkpt lat="44.00359" lon="5.90809">
        <ele>702</ele>
        <time>2020-10-05T12:18:34.000Z</time>
      </trkpt>
      <trkpt lat="44.00358" lon="5.90808">
        <ele>702</ele>
        <time>2020-10-05T12:18:35.000Z</time>
      </trkpt>
      <trkpt lat="44.00358" lon="5.90807">
        <ele>702</ele>
        <time>2020-10-05T12:18:36.000Z</time>
      </trkpt>
      <trkpt lat="44.00357" lon="5.90806">
        <ele>702</ele>
        <time>2020-10-05T12:18:37.000Z</time>
      </trkpt>
      <trkpt lat="44.00356" lon="5.90805">
        <ele>702</ele>
        <time>2020-10-05T12:18:38.000Z</time>
      </trkpt>
      <trkpt lat="44.00356" lon="5.90804">
        <ele>701</ele>
        <time>2020-10-05T12:18:39.000Z</time>
      </trkpt>
      <trkpt lat="44.00355" lon="5.90803">
        <ele>701</ele>
        <time>2020-10-05T12:18:40.000Z</time>
      </trkpt>
      <trkpt lat="44.00355" lon="5.90802">
        <ele>701</ele>
        <time>2020-10-05T12:18:41.000Z</time>
      </trkpt>
      <trkpt lat="44.00354" lon="5.908">
        <ele>701</ele>
        <time>2020-10-05T12:18:42.000Z</time>
      </trkpt>
      <trkpt lat="44.00354" lon="5.90799">
        <ele>701</ele>
        <time>2020-10-05T12:18:43.000Z</time>
      </trkpt>
      <trkpt lat="44.00353" lon="5.90797">
        <ele>701</ele>
        <time>2020-10-05T12:18:44.000Z</time>
      </trkpt>
      <trkpt lat="44.00353" lon="5.90796">
        <ele>701</ele>
        <time>2020-10-05T12:18:45.000Z</time>
      </trkpt>
      <trkpt lat="44.00353" lon="5.90795">
        <ele>701</ele>
        <time>2020-10-05T12:18:46.000Z</time>
      </trkpt>
      <trkpt lat="44.00353" lon="5.90794">
        <ele>701</ele>
        <time>2020-10-05T12:18:47.000Z</time>
      </trkpt>
      <trkpt lat="44.00353" lon="5.90793">
        <ele>701</ele>
        <time>2020-10-05T12:18:48.000Z</time>
      </trkpt>
      <trkpt lat="44.00352" lon="5.90792">
        <ele>701</ele>
        <time>2020-10-05T12:18:49.000Z</time>
      </trkpt>
      <trkpt lat="44.00352" lon="5.90791">
        <ele>700</ele>
        <time>2020-10-05T12:18:50.000Z</time>
      </trkpt>
      <trkpt lat="44.00352" lon="5.9079">
        <ele>700</ele>
        <time>2020-10-05T12:18:51.000Z</time>
      </trkpt>
      <trkpt lat="44.00352" lon="5.9079">
        <ele>700</ele>
        <time>2020-10-05T12:18:52.000Z</time>
      </trkpt>
      <trkpt lat="44.00351" lon="5.90789">
        <ele>700</ele>
        <time>2020-10-05T12:18:53.000Z</time>
      </trkpt>
      <trkpt lat="44.00351" lon="5.90788">
        <ele>700</ele>
        <time>2020-10-05T12:18:54.000Z</time>
      </trkpt>
      <trkpt lat="44.00351" lon="5.90787">
        <ele>700</ele>
        <time>2020-10-05T12:18:55.000Z</time>
      </trkpt>
      <trkpt lat="44.00351" lon="5.90786">
        <ele>700</ele>
        <time>2020-10-05T12:18:56.000Z</time>
      </trkpt>
      <trkpt lat="44.00351" lon="5.90785">
        <ele>700</ele>
        <time>2020-10-05T12:18:57.000Z</time>
      </trkpt>
      <trkpt lat="44.00351" lon="5.90785">
        <ele>699</ele>
        <time>2020-10-05T12:18:58.000Z</time>
      </trkpt>
      <trkpt lat="44.00351" lon="5.90785">
        <ele>699</ele>
        <time>2020-10-05T12:18:59.000Z</time>
      </trkpt>
      <trkpt lat="44.00351" lon="5.90785">
        <ele>700</ele>
        <time>2020-10-05T12:19:00.000Z</time>
      </trkpt>
      <trkpt lat="44.00351" lon="5.90785">
        <ele>700</ele>
        <time>2020-10-05T12:19:01.000Z</time>
      </trkpt>
      <trkpt lat="44.00352" lon="5.90785">
        <ele>700</ele>
        <time>2020-10-05T12:19:02.000Z</time>
      </trkpt>
      <trkpt lat="44.00352" lon="5.90785">
        <ele>700</ele>
        <time>2020-10-05T12:19:03.000Z</time>
      </trkpt>
      <trkpt lat="44.00352" lon="5.90785">
        <ele>700</ele>
        <time>2020-10-05T12:19:04.000Z</time>
      </trkpt>
      <trkpt lat="44.00352" lon="5.90785">
        <ele>700</ele>
        <time>2020-10-05T12:19:05.000Z</time>
      </trkpt>
      <trkpt lat="44.00351" lon="5.90785">
        <ele>700</ele>
        <time>2020-10-05T12:19:06.000Z</time>
      </trkpt>
      <trkpt lat="44.00351" lon="5.90784">
        <ele>700</ele>
        <time>2020-10-05T12:19:07.000Z</time>
      </trkpt>
      <trkpt lat="44.00351" lon="5.90784">
        <ele>700</ele>
        <time>2020-10-05T12:19:08.000Z</time>
      </trkpt>
      <trkpt lat="44.00351" lon="5.90784">
        <ele>700</ele>
        <time>2020-10-05T12:19:09.000Z</time>
      </trkpt>
      <trkpt lat="44.00351" lon="5.90784">
        <ele>700</ele>
        <time>2020-10-05T12:19:10.000Z</time>
      </trkpt>
      <trkpt lat="44.00351" lon="5.90784">
        <ele>700</ele>
        <time>2020-10-05T12:19:11.000Z</time>
      </trkpt>
      <trkpt lat="44.00351" lon="5.90783">
        <ele>700</ele>
        <time>2020-10-05T12:19:12.000Z</time>
      </trkpt>
      <trkpt lat="44.00352" lon="5.90783">
        <ele>700</ele>
        <time>2020-10-05T12:19:13.000Z</time>
      </trkpt>
      <trkpt lat="44.00352" lon="5.90783">
        <ele>700</ele>
        <time>2020-10-05T12:19:14.000Z</time>
      </trkpt>
      <trkpt lat="44.00353" lon="5.90783">
        <ele>700</ele>
        <time>2020-10-05T12:19:15.000Z</time>
      </trkpt>
      <trkpt lat="44.00353" lon="5.90783">
        <ele>700</ele>
        <time>2020-10-05T12:19:16.000Z</time>
      </trkpt>
      <trkpt lat="44.00354" lon="5.90783">
        <ele>700</ele>
        <time>2020-10-05T12:19:17.000Z</time>
      </trkpt>
      <trkpt lat="44.00354" lon="5.90783">
        <ele>700</ele>
        <time>2020-10-05T12:19:18.000Z</time>
      </trkpt>
      <trkpt lat="44.00354" lon="5.90783">
        <ele>700</ele>
        <time>2020-10-05T12:19:19.000Z</time>
      </trkpt>
      <trkpt lat="44.00355" lon="5.90783">
        <ele>701</ele>
        <time>2020-10-05T12:19:20.000Z</time>
      </trkpt>
      <trkpt lat="44.00356" lon="5.90783">
        <ele>701</ele>
        <time>2020-10-05T12:19:21.000Z</time>
      </trkpt>
      <trkpt lat="44.00357" lon="5.90784">
        <ele>701</ele>
        <time>2020-10-05T12:19:22.000Z</time>
      </trkpt>
      <trkpt lat="44.00358" lon="5.90784">
        <ele>701</ele>
        <time>2020-10-05T12:19:23.000Z</time>
      </trkpt>
      <trkpt lat="44.00359" lon="5.90785">
        <ele>701</ele>
        <time>2020-10-05T12:19:24.000Z</time>
      </trkpt>
      <trkpt lat="44.0036" lon="5.90786">
        <ele>701</ele>
        <time>2020-10-05T12:19:25.000Z</time>
      </trkpt>
      <trkpt lat="44.0036" lon="5.90787">
        <ele>701</ele>
        <time>2020-10-05T12:19:26.000Z</time>
      </trkpt>
      <trkpt lat="44.00361" lon="5.90787">
        <ele>700</ele>
        <time>2020-10-05T12:19:27.000Z</time>
      </trkpt>
      <trkpt lat="44.00361" lon="5.90788">
        <ele>700</ele>
        <time>2020-10-05T12:19:28.000Z</time>
      </trkpt>
      <trkpt lat="44.00362" lon="5.90788">
        <ele>700</ele>
        <time>2020-10-05T12:19:29.000Z</time>
      </trkpt>
      <trkpt lat="44.00362" lon="5.90788">
        <ele>700</ele>
        <time>2020-10-05T12:19:30.000Z</time>
      </trkpt>
      <trkpt lat="44.00362" lon="5.90788">
        <ele>700</ele>
        <time>2020-10-05T12:19:31.000Z</time>
      </trkpt>
      <trkpt lat="44.00362" lon="5.90789">
        <ele>700</ele>
        <time>2020-10-05T12:19:32.000Z</time>
      </trkpt>
      <trkpt lat="44.00362" lon="5.90789">
        <ele>700</ele>
        <time>2020-10-05T12:19:33.000Z</time>
      </trkpt>
      <trkpt lat="44.00362" lon="5.90789">
        <ele>700</ele>
        <time>2020-10-05T12:19:34.000Z</time>
      </trkpt>
      <trkpt lat="44.00362" lon="5.90789">
        <ele>700</ele>
        <time>2020-10-05T12:19:35.000Z</time>
      </trkpt>
      <trkpt lat="44.00362" lon="5.90789">
        <ele>700</ele>
        <time>2020-10-05T12:19:36.000Z</time>
      </trkpt>
      <trkpt lat="44.00362" lon="5.9079">
        <ele>700</ele>
        <time>2020-10-05T12:19:37.000Z</time>
      </trkpt>
      <trkpt lat="44.00363" lon="5.9079">
        <ele>700</ele>
        <time>2020-10-05T12:19:38.000Z</time>
      </trkpt>
      <trkpt lat="44.00363" lon="5.9079">
        <ele>700</ele>
        <time>2020-10-05T12:19:39.000Z</time>
      </trkpt>
      <trkpt lat="44.00363" lon="5.9079">
        <ele>700</ele>
        <time>2020-10-05T12:19:40.000Z</time>
      </trkpt>
      <trkpt lat="44.00363" lon="5.9079">
        <ele>700</ele>
        <time>2020-10-05T12:19:41.000Z</time>
      </trkpt>
      <trkpt lat="44.00363" lon="5.90791">
        <ele>700</ele>
        <time>2020-10-05T12:19:42.000Z</time>
      </trkpt>
      <trkpt lat="44.00363" lon="5.90791">
        <ele>700</ele>
        <time>2020-10-05T12:19:43.000Z</time>
      </trkpt>
      <trkpt lat="44.00363" lon="5.90791">
        <ele>700</ele>
        <time>2020-10-05T12:19:44.000Z</time>
      </trkpt>
      <trkpt lat="44.00362" lon="5.90791">
        <ele>700</ele>
        <time>2020-10-05T12:19:45.000Z</time>
      </trkpt>
      <trkpt lat="44.00362" lon="5.90791">
        <ele>700</ele>
        <time>2020-10-05T12:19:46.000Z</time>
      </trkpt>
      <trkpt lat="44.00362" lon="5.90791">
        <ele>700</ele>
        <time>2020-10-05T12:19:47.000Z</time>
      </trkpt>
      <trkpt lat="44.00362" lon="5.90791">
        <ele>700</ele>
        <time>2020-10-05T12:19:48.000Z</time>
      </trkpt>
      <trkpt lat="44.00362" lon="5.90791">
        <ele>700</ele>
        <time>2020-10-05T12:19:49.000Z</time>
      </trkpt>
      <trkpt lat="44.00362" lon="5.9079">
        <ele>700</ele>
        <time>2020-10-05T12:19:50.000Z</time>
      </trkpt>
      <trkpt lat="44.00362" lon="5.90791">
        <ele>700</ele>
        <time>2020-10-05T12:19:51.000Z</time>
      </trkpt>
      <trkpt lat="44.00362" lon="5.90791">
        <ele>700</ele>
        <time>2020-10-05T12:19:52.000Z</time>
      </trkpt>
      <trkpt lat="44.00362" lon="5.90791">
        <ele>700</ele>
        <time>2020-10-05T12:19:53.000Z</time>
      </trkpt>
      <trkpt lat="44.00362" lon="5.90791">
        <ele>700</ele>
        <time>2020-10-05T12:19:54.000Z</time>
      </trkpt>
      <trkpt lat="44.00363" lon="5.90791">
        <ele>700</ele>
        <time>2020-10-05T12:19:55.000Z</time>
      </trkpt>
      <trkpt lat="44.00363" lon="5.90791">
        <ele>700</ele>
        <time>2020-10-05T12:19:56.000Z</time>
      </trkpt>
      <trkpt lat="44.00363" lon="5.90791">
        <ele>700</ele>
        <time>2020-10-05T12:19:57.000Z</time>
      </trkpt>
      <trkpt lat="44.00363" lon="5.90791">
        <ele>700</ele>
        <time>2020-10-05T12:19:58.000Z</time>
      </trkpt>
      <trkpt lat="44.00363" lon="5.90791">
        <ele>700</ele>
        <time>2020-10-05T12:19:59.000Z</time>
      </trkpt>
      <trkpt lat="44.00363" lon="5.90791">
        <ele>700</ele>
        <time>2020-10-05T12:20:00.000Z</time>
      </trkpt>
      <trkpt lat="44.00363" lon="5.90791">
        <ele>700</ele>
        <time>2020-10-05T12:20:01.000Z</time>
      </trkpt>
      <trkpt lat="44.00363" lon="5.90791">
        <ele>700</ele>
        <time>2020-10-05T12:20:02.000Z</time>
      </trkpt>
      <trkpt lat="44.00363" lon="5.90791">
        <ele>700</ele>
        <time>2020-10-05T12:20:03.000Z</time>
      </trkpt>
      <trkpt lat="44.00363" lon="5.90791">
        <ele>700</ele>
        <time>2020-10-05T12:20:04.000Z</time>
      </trkpt>
      <trkpt lat="44.00363" lon="5.90791">
        <ele>700</ele>
        <time>2020-10-05T12:20:05.000Z</time>
      </trkpt>
      <trkpt lat="44.00363" lon="5.90792">
        <ele>700</ele>
        <time>2020-10-05T12:20:06.000Z</time>
      </trkpt>
      <trkpt lat="44.00363" lon="5.90792">
        <ele>700</ele>
        <time>2020-10-05T12:20:07.000Z</time>
      </trkpt>
      <trkpt lat="44.00363" lon="5.90792">
        <ele>700</ele>
        <time>2020-10-05T12:20:08.000Z</time>
      </trkpt>
      <trkpt lat="44.00363" lon="5.90792">
        <ele>700</ele>
        <time>2020-10-05T12:20:09.000Z</time>
      </trkpt>
      <trkpt lat="44.00364" lon="5.90792">
        <ele>700</ele>
        <time>2020-10-05T12:20:10.000Z</time>
      </trkpt>
      <trkpt lat="44.00364" lon="5.90792">
        <ele>700</ele>
        <time>2020-10-05T12:20:11.000Z</time>
      </trkpt>
      <trkpt lat="44.00365" lon="5.90793">
        <ele>700</ele>
        <time>2020-10-05T12:20:12.000Z</time>
      </trkpt>
      <trkpt lat="44.00365" lon="5.90793">
        <ele>700</ele>
        <time>2020-10-05T12:20:13.000Z</time>
      </trkpt>
      <trkpt lat="44.00365" lon="5.90793">
        <ele>700</ele>
        <time>2020-10-05T12:20:14.000Z</time>
      </trkpt>
      <trkpt lat="44.00365" lon="5.90794">
        <ele>700</ele>
        <time>2020-10-05T12:20:15.000Z</time>
      </trkpt>
      <trkpt lat="44.00365" lon="5.90794">
        <ele>700</ele>
        <time>2020-10-05T12:20:16.000Z</time>
      </trkpt>
      <trkpt lat="44.00365" lon="5.90794">
        <ele>700</ele>
        <time>2020-10-05T12:20:17.000Z</time>
      </trkpt>
      <trkpt lat="44.00365" lon="5.90794">
        <ele>700</ele>
        <time>2020-10-05T12:20:18.000Z</time>
      </trkpt>
      <trkpt lat="44.00365" lon="5.90793">
        <ele>700</ele>
        <time>2020-10-05T12:20:19.000Z</time>
      </trkpt>
      <trkpt lat="44.00365" lon="5.90794">
        <ele>700</ele>
        <time>2020-10-05T12:20:20.000Z</time>
      </trkpt>
      <trkpt lat="44.00365" lon="5.90794">
        <ele>700</ele>
        <time>2020-10-05T12:20:21.000Z</time>
      </trkpt>
      <trkpt lat="44.00365" lon="5.90795">
        <ele>700</ele>
        <time>2020-10-05T12:20:22.000Z</time>
      </trkpt>
      <trkpt lat="44.00365" lon="5.90796">
        <ele>701</ele>
        <time>2020-10-05T12:20:23.000Z</time>
      </trkpt>
      <trkpt lat="44.00365" lon="5.90797">
        <ele>701</ele>
        <time>2020-10-05T12:20:24.000Z</time>
      </trkpt>
      <trkpt lat="44.00366" lon="5.90798">
        <ele>701</ele>
        <time>2020-10-05T12:20:25.000Z</time>
      </trkpt>
      <trkpt lat="44.00366" lon="5.90798">
        <ele>701</ele>
        <time>2020-10-05T12:20:26.000Z</time>
      </trkpt>
      <trkpt lat="44.00365" lon="5.90798">
        <ele>701</ele>
        <time>2020-10-05T12:20:27.000Z</time>
      </trkpt>
      <trkpt lat="44.00365" lon="5.90798">
        <ele>701</ele>
        <time>2020-10-05T12:20:28.000Z</time>
      </trkpt>
      <trkpt lat="44.00365" lon="5.90798">
        <ele>701</ele>
        <time>2020-10-05T12:20:29.000Z</time>
      </trkpt>
      <trkpt lat="44.00365" lon="5.90798">
        <ele>701</ele>
        <time>2020-10-05T12:20:30.000Z</time>
      </trkpt>
      <trkpt lat="44.00365" lon="5.90798">
        <ele>701</ele>
        <time>2020-10-05T12:20:31.000Z</time>
      </trkpt>
      <trkpt lat="44.00364" lon="5.90797">
        <ele>701</ele>
        <time>2020-10-05T12:20:32.000Z</time>
      </trkpt>
      <trkpt lat="44.00364" lon="5.90797">
        <ele>701</ele>
        <time>2020-10-05T12:20:33.000Z</time>
      </trkpt>
      <trkpt lat="44.00364" lon="5.90797">
        <ele>701</ele>
        <time>2020-10-05T12:20:34.000Z</time>
      </trkpt>
      <trkpt lat="44.00364" lon="5.90796">
        <ele>701</ele>
        <time>2020-10-05T12:20:35.000Z</time>
      </trkpt>
      <trkpt lat="44.00364" lon="5.90796">
        <ele>701</ele>
        <time>2020-10-05T12:20:36.000Z</time>
      </trkpt>
      <trkpt lat="44.00364" lon="5.90796">
        <ele>701</ele>
        <time>2020-10-05T12:20:37.000Z</time>
      </trkpt>
      <trkpt lat="44.00364" lon="5.90795">
        <ele>701</ele>
        <time>2020-10-05T12:20:38.000Z</time>
      </trkpt>
      <trkpt lat="44.00364" lon="5.90795">
        <ele>700</ele>
        <time>2020-10-05T12:20:39.000Z</time>
      </trkpt>
      <trkpt lat="44.00363" lon="5.90794">
        <ele>700</ele>
        <time>2020-10-05T12:20:40.000Z</time>
      </trkpt>
      <trkpt lat="44.00363" lon="5.90794">
        <ele>700</ele>
        <time>2020-10-05T12:20:41.000Z</time>
      </trkpt>
      <trkpt lat="44.00363" lon="5.90793">
        <ele>700</ele>
        <time>2020-10-05T12:20:42.000Z</time>
      </trkpt>
      <trkpt lat="44.00362" lon="5.90793">
        <ele>700</ele>
        <time>2020-10-05T12:20:43.000Z</time>
      </trkpt>
      <trkpt lat="44.00362" lon="5.90792">
        <ele>700</ele>
        <time>2020-10-05T12:20:44.000Z</time>
      </trkpt>
      <trkpt lat="44.00361" lon="5.90791">
        <ele>700</ele>
        <time>2020-10-05T12:20:45.000Z</time>
      </trkpt>
      <trkpt lat="44.00361" lon="5.90791">
        <ele>700</ele>
        <time>2020-10-05T12:20:46.000Z</time>
      </trkpt>
      <trkpt lat="44.0036" lon="5.9079">
        <ele>700</ele>
        <time>2020-10-05T12:20:47.000Z</time>
      </trkpt>
      <trkpt lat="44.00359" lon="5.90789">
        <ele>700</ele>
        <time>2020-10-05T12:20:48.000Z</time>
      </trkpt>
      <trkpt lat="44.00359" lon="5.90789">
        <ele>700</ele>
        <time>2020-10-05T12:20:49.000Z</time>
      </trkpt>
      <trkpt lat="44.00358" lon="5.90789">
        <ele>700</ele>
        <time>2020-10-05T12:20:50.000Z</time>
      </trkpt>
      <trkpt lat="44.00357" lon="5.90789">
        <ele>700</ele>
        <time>2020-10-05T12:20:51.000Z</time>
      </trkpt>
      <trkpt lat="44.00356" lon="5.90788">
        <ele>700</ele>
        <time>2020-10-05T12:20:52.000Z</time>
      </trkpt>
      <trkpt lat="44.00356" lon="5.90788">
        <ele>700</ele>
        <time>2020-10-05T12:20:53.000Z</time>
      </trkpt>
      <trkpt lat="44.00356" lon="5.90788">
        <ele>700</ele>
        <time>2020-10-05T12:20:54.000Z</time>
      </trkpt>
      <trkpt lat="44.00356" lon="5.90788">
        <ele>700</ele>
        <time>2020-10-05T12:20:55.000Z</time>
      </trkpt>
      <trkpt lat="44.00356" lon="5.90787">
        <ele>700</ele>
        <time>2020-10-05T12:20:56.000Z</time>
      </trkpt>
      <trkpt lat="44.00356" lon="5.90787">
        <ele>700</ele>
        <time>2020-10-05T12:20:57.000Z</time>
      </trkpt>
      <trkpt lat="44.00355" lon="5.90787">
        <ele>700</ele>
        <time>2020-10-05T12:20:58.000Z</time>
      </trkpt>
      <trkpt lat="44.00355" lon="5.90787">
        <ele>700</ele>
        <time>2020-10-05T12:20:59.000Z</time>
      </trkpt>
      <trkpt lat="44.00355" lon="5.90787">
        <ele>700</ele>
        <time>2020-10-05T12:21:00.000Z</time>
      </trkpt>
      <trkpt lat="44.00355" lon="5.90787">
        <ele>700</ele>
        <time>2020-10-05T12:21:01.000Z</time>
      </trkpt>
      <trkpt lat="44.00355" lon="5.90787">
        <ele>700</ele>
        <time>2020-10-05T12:21:02.000Z</time>
      </trkpt>
      <trkpt lat="44.00355" lon="5.90787">
        <ele>700</ele>
        <time>2020-10-05T12:21:03.000Z</time>
      </trkpt>
      <trkpt lat="44.00355" lon="5.90787">
        <ele>700</ele>
        <time>2020-10-05T12:21:04.000Z</time>
      </trkpt>
      <trkpt lat="44.00355" lon="5.90787">
        <ele>700</ele>
        <time>2020-10-05T12:21:05.000Z</time>
      </trkpt>
      <trkpt lat="44.00355" lon="5.90787">
        <ele>700</ele>
        <time>2020-10-05T12:21:06.000Z</time>
      </trkpt>
      <trkpt lat="44.00355" lon="5.90787">
        <ele>700</ele>
        <time>2020-10-05T12:21:07.000Z</time>
      </trkpt>
      <trkpt lat="44.00355" lon="5.90787">
        <ele>700</ele>
        <time>2020-10-05T12:21:08.000Z</time>
      </trkpt>
      <trkpt lat="44.00354" lon="5.90787">
        <ele>700</ele>
        <time>2020-10-05T12:21:09.000Z</time>
      </trkpt>
      <trkpt lat="44.00354" lon="5.90786">
        <ele>700</ele>
        <time>2020-10-05T12:21:10.000Z</time>
      </trkpt>
      <trkpt lat="44.00354" lon="5.90785">
        <ele>700</ele>
        <time>2020-10-05T12:21:11.000Z</time>
      </trkpt>
      <trkpt lat="44.00353" lon="5.90784">
        <ele>700</ele>
        <time>2020-10-05T12:21:12.000Z</time>
      </trkpt>
      <trkpt lat="44.00353" lon="5.90783">
        <ele>700</ele>
        <time>2020-10-05T12:21:13.000Z</time>
      </trkpt>
      <trkpt lat="44.00352" lon="5.90783">
        <ele>700</ele>
        <time>2020-10-05T12:21:14.000Z</time>
      </trkpt>
      <trkpt lat="44.00352" lon="5.90782">
        <ele>700</ele>
        <time>2020-10-05T12:21:15.000Z</time>
      </trkpt>
      <trkpt lat="44.00351" lon="5.90781">
        <ele>700</ele>
        <time>2020-10-05T12:21:16.000Z</time>
      </trkpt>
      <trkpt lat="44.00351" lon="5.9078">
        <ele>700</ele>
        <time>2020-10-05T12:21:17.000Z</time>
      </trkpt>
      <trkpt lat="44.0035" lon="5.9078">
        <ele>700</ele>
        <time>2020-10-05T12:21:18.000Z</time>
      </trkpt>
      <trkpt lat="44.0035" lon="5.90779">
        <ele>700</ele>
        <time>2020-10-05T12:21:19.000Z</time>
      </trkpt>
      <trkpt lat="44.0035" lon="5.90779">
        <ele>700</ele>
        <time>2020-10-05T12:21:20.000Z</time>
      </trkpt>
      <trkpt lat="44.00349" lon="5.90779">
        <ele>700</ele>
        <time>2020-10-05T12:21:21.000Z</time>
      </trkpt>
      <trkpt lat="44.00349" lon="5.90778">
        <ele>700</ele>
        <time>2020-10-05T12:21:22.000Z</time>
      </trkpt>
      <trkpt lat="44.00348" lon="5.90778">
        <ele>700</ele>
        <time>2020-10-05T12:21:23.000Z</time>
      </trkpt>
      <trkpt lat="44.00348" lon="5.90777">
        <ele>700</ele>
        <time>2020-10-05T12:21:24.000Z</time>
      </trkpt>
      <trkpt lat="44.00347" lon="5.90777">
        <ele>700</ele>
        <time>2020-10-05T12:21:25.000Z</time>
      </trkpt>
      <trkpt lat="44.00347" lon="5.90777">
        <ele>700</ele>
        <time>2020-10-05T12:21:26.000Z</time>
      </trkpt>
      <trkpt lat="44.00346" lon="5.90776">
        <ele>700</ele>
        <time>2020-10-05T12:21:27.000Z</time>
      </trkpt>
      <trkpt lat="44.00345" lon="5.90776">
        <ele>700</ele>
        <time>2020-10-05T12:21:28.000Z</time>
      </trkpt>
      <trkpt lat="44.00344" lon="5.90776">
        <ele>700</ele>
        <time>2020-10-05T12:21:29.000Z</time>
      </trkpt>
      <trkpt lat="44.00344" lon="5.90775">
        <ele>700</ele>
        <time>2020-10-05T12:21:30.000Z</time>
      </trkpt>
      <trkpt lat="44.00343" lon="5.90774">
        <ele>700</ele>
        <time>2020-10-05T12:21:31.000Z</time>
      </trkpt>
      <trkpt lat="44.00343" lon="5.90773">
        <ele>700</ele>
        <time>2020-10-05T12:21:32.000Z</time>
      </trkpt>
      <trkpt lat="44.00342" lon="5.90772">
        <ele>699</ele>
        <time>2020-10-05T12:21:33.000Z</time>
      </trkpt>
      <trkpt lat="44.00341" lon="5.90771">
        <ele>699</ele>
        <time>2020-10-05T12:21:34.000Z</time>
      </trkpt>
      <trkpt lat="44.00341" lon="5.9077">
        <ele>699</ele>
        <time>2020-10-05T12:21:35.000Z</time>
      </trkpt>
      <trkpt lat="44.0034" lon="5.90769">
        <ele>699</ele>
        <time>2020-10-05T12:21:36.000Z</time>
      </trkpt>
      <trkpt lat="44.00339" lon="5.90768">
        <ele>699</ele>
        <time>2020-10-05T12:21:37.000Z</time>
      </trkpt>
      <trkpt lat="44.00338" lon="5.90767">
        <ele>699</ele>
        <time>2020-10-05T12:21:38.000Z</time>
      </trkpt>
      <trkpt lat="44.00337" lon="5.90767">
        <ele>699</ele>
        <time>2020-10-05T12:21:39.000Z</time>
      </trkpt>
      <trkpt lat="44.00336" lon="5.90766">
        <ele>699</ele>
        <time>2020-10-05T12:21:40.000Z</time>
      </trkpt>
      <trkpt lat="44.00335" lon="5.90766">
        <ele>699</ele>
        <time>2020-10-05T12:21:41.000Z</time>
      </trkpt>
      <trkpt lat="44.00335" lon="5.90765">
        <ele>699</ele>
        <time>2020-10-05T12:21:42.000Z</time>
      </trkpt>
      <trkpt lat="44.00334" lon="5.90765">
        <ele>699</ele>
        <time>2020-10-05T12:21:43.000Z</time>
      </trkpt>
      <trkpt lat="44.00333" lon="5.90764">
        <ele>699</ele>
        <time>2020-10-05T12:21:44.000Z</time>
      </trkpt>
      <trkpt lat="44.00332" lon="5.90764">
        <ele>699</ele>
        <time>2020-10-05T12:21:45.000Z</time>
      </trkpt>
      <trkpt lat="44.00331" lon="5.90763">
        <ele>699</ele>
        <time>2020-10-05T12:21:46.000Z</time>
      </trkpt>
      <trkpt lat="44.0033" lon="5.90762">
        <ele>699</ele>
        <time>2020-10-05T12:21:47.000Z</time>
      </trkpt>
      <trkpt lat="44.00329" lon="5.90762">
        <ele>699</ele>
        <time>2020-10-05T12:21:48.000Z</time>
      </trkpt>
      <trkpt lat="44.00328" lon="5.90761">
        <ele>699</ele>
        <time>2020-10-05T12:21:49.000Z</time>
      </trkpt>
      <trkpt lat="44.00327" lon="5.9076">
        <ele>699</ele>
        <time>2020-10-05T12:21:50.000Z</time>
      </trkpt>
      <trkpt lat="44.00326" lon="5.90759">
        <ele>699</ele>
        <time>2020-10-05T12:21:51.000Z</time>
      </trkpt>
      <trkpt lat="44.00325" lon="5.90758">
        <ele>699</ele>
        <time>2020-10-05T12:21:52.000Z</time>
      </trkpt>
      <trkpt lat="44.00324" lon="5.90758">
        <ele>699</ele>
        <time>2020-10-05T12:21:53.000Z</time>
      </trkpt>
      <trkpt lat="44.00323" lon="5.90757">
        <ele>699</ele>
        <time>2020-10-05T12:21:54.000Z</time>
      </trkpt>
      <trkpt lat="44.00321" lon="5.90756">
        <ele>699</ele>
        <time>2020-10-05T12:21:55.000Z</time>
      </trkpt>
      <trkpt lat="44.0032" lon="5.90755">
        <ele>699</ele>
        <time>2020-10-05T12:21:56.000Z</time>
      </trkpt>
      <trkpt lat="44.00319" lon="5.90753">
        <ele>698</ele>
        <time>2020-10-05T12:21:57.000Z</time>
      </trkpt>
      <trkpt lat="44.00317" lon="5.90752">
        <ele>699</ele>
        <time>2020-10-05T12:21:58.000Z</time>
      </trkpt>
      <trkpt lat="44.00316" lon="5.90751">
        <ele>698</ele>
        <time>2020-10-05T12:21:59.000Z</time>
      </trkpt>
      <trkpt lat="44.00315" lon="5.90751">
        <ele>698</ele>
        <time>2020-10-05T12:22:00.000Z</time>
      </trkpt>
      <trkpt lat="44.00314" lon="5.9075">
        <ele>698</ele>
        <time>2020-10-05T12:22:01.000Z</time>
      </trkpt>
      <trkpt lat="44.00313" lon="5.90749">
        <ele>698</ele>
        <time>2020-10-05T12:22:02.000Z</time>
      </trkpt>
      <trkpt lat="44.00312" lon="5.90748">
        <ele>698</ele>
        <time>2020-10-05T12:22:03.000Z</time>
      </trkpt>
      <trkpt lat="44.00311" lon="5.90747">
        <ele>698</ele>
        <time>2020-10-05T12:22:04.000Z</time>
      </trkpt>
      <trkpt lat="44.0031" lon="5.90746">
        <ele>698</ele>
        <time>2020-10-05T12:22:05.000Z</time>
      </trkpt>
      <trkpt lat="44.00309" lon="5.90745">
        <ele>698</ele>
        <time>2020-10-05T12:22:06.000Z</time>
      </trkpt>
      <trkpt lat="44.00308" lon="5.90745">
        <ele>698</ele>
        <time>2020-10-05T12:22:07.000Z</time>
      </trkpt>
      <trkpt lat="44.00307" lon="5.90744">
        <ele>698</ele>
        <time>2020-10-05T12:22:08.000Z</time>
      </trkpt>
      <trkpt lat="44.00306" lon="5.90743">
        <ele>698</ele>
        <time>2020-10-05T12:22:09.000Z</time>
      </trkpt>
      <trkpt lat="44.00306" lon="5.90742">
        <ele>698</ele>
        <time>2020-10-05T12:22:10.000Z</time>
      </trkpt>
      <trkpt lat="44.00305" lon="5.90742">
        <ele>698</ele>
        <time>2020-10-05T12:22:11.000Z</time>
      </trkpt>
      <trkpt lat="44.00304" lon="5.90741">
        <ele>698</ele>
        <time>2020-10-05T12:22:12.000Z</time>
      </trkpt>
      <trkpt lat="44.00303" lon="5.9074">
        <ele>698</ele>
        <time>2020-10-05T12:22:13.000Z</time>
      </trkpt>
      <trkpt lat="44.00303" lon="5.9074">
        <ele>698</ele>
        <time>2020-10-05T12:22:14.000Z</time>
      </trkpt>
      <trkpt lat="44.00302" lon="5.90739">
        <ele>698</ele>
        <time>2020-10-05T12:22:15.000Z</time>
      </trkpt>
      <trkpt lat="44.00301" lon="5.90738">
        <ele>698</ele>
        <time>2020-10-05T12:22:16.000Z</time>
      </trkpt>
      <trkpt lat="44.003" lon="5.90738">
        <ele>698</ele>
        <time>2020-10-05T12:22:17.000Z</time>
      </trkpt>
      <trkpt lat="44.003" lon="5.90737">
        <ele>698</ele>
        <time>2020-10-05T12:22:18.000Z</time>
      </trkpt>
      <trkpt lat="44.00299" lon="5.90737">
        <ele>698</ele>
        <time>2020-10-05T12:22:19.000Z</time>
      </trkpt>
      <trkpt lat="44.00298" lon="5.90736">
        <ele>698</ele>
        <time>2020-10-05T12:22:20.000Z</time>
      </trkpt>
      <trkpt lat="44.00298" lon="5.90735">
        <ele>698</ele>
        <time>2020-10-05T12:22:21.000Z</time>
      </trkpt>
      <trkpt lat="44.00297" lon="5.90734">
        <ele>698</ele>
        <time>2020-10-05T12:22:22.000Z</time>
      </trkpt>
      <trkpt lat="44.00296" lon="5.90733">
        <ele>698</ele>
        <time>2020-10-05T12:22:23.000Z</time>
      </trkpt>
      <trkpt lat="44.00295" lon="5.90732">
        <ele>698</ele>
        <time>2020-10-05T12:22:24.000Z</time>
      </trkpt>
      <trkpt lat="44.00294" lon="5.90731">
        <ele>698</ele>
        <time>2020-10-05T12:22:25.000Z</time>
      </trkpt>
      <trkpt lat="44.00293" lon="5.9073">
        <ele>698</ele>
        <time>2020-10-05T12:22:26.000Z</time>
      </trkpt>
      <trkpt lat="44.00292" lon="5.90729">
        <ele>698</ele>
        <time>2020-10-05T12:22:27.000Z</time>
      </trkpt>
      <trkpt lat="44.00292" lon="5.90728">
        <ele>698</ele>
        <time>2020-10-05T12:22:28.000Z</time>
      </trkpt>
      <trkpt lat="44.00291" lon="5.90728">
        <ele>698</ele>
        <time>2020-10-05T12:22:29.000Z</time>
      </trkpt>
      <trkpt lat="44.0029" lon="5.90727">
        <ele>698</ele>
        <time>2020-10-05T12:22:30.000Z</time>
      </trkpt>
      <trkpt lat="44.00289" lon="5.90726">
        <ele>698</ele>
        <time>2020-10-05T12:22:31.000Z</time>
      </trkpt>
      <trkpt lat="44.00289" lon="5.90726">
        <ele>698</ele>
        <time>2020-10-05T12:22:32.000Z</time>
      </trkpt>
      <trkpt lat="44.00288" lon="5.90725">
        <ele>698</ele>
        <time>2020-10-05T12:22:33.000Z</time>
      </trkpt>
      <trkpt lat="44.00287" lon="5.90725">
        <ele>698</ele>
        <time>2020-10-05T12:22:34.000Z</time>
      </trkpt>
      <trkpt lat="44.00286" lon="5.90724">
        <ele>697</ele>
        <time>2020-10-05T12:22:35.000Z</time>
      </trkpt>
      <trkpt lat="44.00285" lon="5.90723">
        <ele>698</ele>
        <time>2020-10-05T12:22:36.000Z</time>
      </trkpt>
      <trkpt lat="44.00284" lon="5.90723">
        <ele>698</ele>
        <time>2020-10-05T12:22:37.000Z</time>
      </trkpt>
      <trkpt lat="44.00283" lon="5.90722">
        <ele>697</ele>
        <time>2020-10-05T12:22:38.000Z</time>
      </trkpt>
      <trkpt lat="44.00282" lon="5.90721">
        <ele>697</ele>
        <time>2020-10-05T12:22:39.000Z</time>
      </trkpt>
      <trkpt lat="44.00281" lon="5.90721">
        <ele>697</ele>
        <time>2020-10-05T12:22:40.000Z</time>
      </trkpt>
      <trkpt lat="44.0028" lon="5.9072">
        <ele>697</ele>
        <time>2020-10-05T12:22:41.000Z</time>
      </trkpt>
      <trkpt lat="44.0028" lon="5.9072">
        <ele>697</ele>
        <time>2020-10-05T12:22:42.000Z</time>
      </trkpt>
      <trkpt lat="44.00279" lon="5.9072">
        <ele>697</ele>
        <time>2020-10-05T12:22:43.000Z</time>
      </trkpt>
      <trkpt lat="44.00278" lon="5.90719">
        <ele>697</ele>
        <time>2020-10-05T12:22:44.000Z</time>
      </trkpt>
      <trkpt lat="44.00277" lon="5.90719">
        <ele>697</ele>
        <time>2020-10-05T12:22:45.000Z</time>
      </trkpt>
      <trkpt lat="44.00276" lon="5.90719">
        <ele>697</ele>
        <time>2020-10-05T12:22:46.000Z</time>
      </trkpt>
      <trkpt lat="44.00275" lon="5.90718">
        <ele>697</ele>
        <time>2020-10-05T12:22:47.000Z</time>
      </trkpt>
      <trkpt lat="44.00274" lon="5.90717">
        <ele>697</ele>
        <time>2020-10-05T12:22:48.000Z</time>
      </trkpt>
      <trkpt lat="44.00273" lon="5.90717">
        <ele>697</ele>
        <time>2020-10-05T12:22:49.000Z</time>
      </trkpt>
      <trkpt lat="44.00272" lon="5.90716">
        <ele>696</ele>
        <time>2020-10-05T12:22:50.000Z</time>
      </trkpt>
      <trkpt lat="44.00271" lon="5.90715">
        <ele>696</ele>
        <time>2020-10-05T12:22:51.000Z</time>
      </trkpt>
      <trkpt lat="44.00269" lon="5.90715">
        <ele>696</ele>
        <time>2020-10-05T12:22:52.000Z</time>
      </trkpt>
      <trkpt lat="44.00268" lon="5.90714">
        <ele>697</ele>
        <time>2020-10-05T12:22:53.000Z</time>
      </trkpt>
      <trkpt lat="44.00267" lon="5.90713">
        <ele>697</ele>
        <time>2020-10-05T12:22:54.000Z</time>
      </trkpt>
      <trkpt lat="44.00266" lon="5.90713">
        <ele>697</ele>
        <time>2020-10-05T12:22:55.000Z</time>
      </trkpt>
      <trkpt lat="44.00264" lon="5.90712">
        <ele>697</ele>
        <time>2020-10-05T12:22:56.000Z</time>
      </trkpt>
      <trkpt lat="44.00263" lon="5.90712">
        <ele>697</ele>
        <time>2020-10-05T12:22:57.000Z</time>
      </trkpt>
      <trkpt lat="44.00262" lon="5.90712">
        <ele>697</ele>
        <time>2020-10-05T12:22:58.000Z</time>
      </trkpt>
      <trkpt lat="44.00261" lon="5.90712">
        <ele>697</ele>
        <time>2020-10-05T12:22:59.000Z</time>
      </trkpt>
      <trkpt lat="44.0026" lon="5.90711">
        <ele>697</ele>
        <time>2020-10-05T12:23:00.000Z</time>
      </trkpt>
      <trkpt lat="44.00259" lon="5.90711">
        <ele>697</ele>
        <time>2020-10-05T12:23:01.000Z</time>
      </trkpt>
      <trkpt lat="44.00258" lon="5.90711">
        <ele>697</ele>
        <time>2020-10-05T12:23:02.000Z</time>
      </trkpt>
      <trkpt lat="44.00257" lon="5.9071">
        <ele>697</ele>
        <time>2020-10-05T12:23:03.000Z</time>
      </trkpt>
      <trkpt lat="44.00256" lon="5.90709">
        <ele>697</ele>
        <time>2020-10-05T12:23:04.000Z</time>
      </trkpt>
      <trkpt lat="44.00255" lon="5.90709">
        <ele>697</ele>
        <time>2020-10-05T12:23:05.000Z</time>
      </trkpt>
      <trkpt lat="44.00254" lon="5.90708">
        <ele>697</ele>
        <time>2020-10-05T12:23:06.000Z</time>
      </trkpt>
      <trkpt lat="44.00253" lon="5.90708">
        <ele>697</ele>
        <time>2020-10-05T12:23:07.000Z</time>
      </trkpt>
      <trkpt lat="44.00252" lon="5.90707">
        <ele>697</ele>
        <time>2020-10-05T12:23:08.000Z</time>
      </trkpt>
      <trkpt lat="44.00251" lon="5.90707">
        <ele>697</ele>
        <time>2020-10-05T12:23:09.000Z</time>
      </trkpt>
      <trkpt lat="44.0025" lon="5.90706">
        <ele>697</ele>
        <time>2020-10-05T12:23:10.000Z</time>
      </trkpt>
      <trkpt lat="44.00249" lon="5.90705">
        <ele>697</ele>
        <time>2020-10-05T12:23:11.000Z</time>
      </trkpt>
      <trkpt lat="44.00248" lon="5.90705">
        <ele>697</ele>
        <time>2020-10-05T12:23:12.000Z</time>
      </trkpt>
      <trkpt lat="44.00247" lon="5.90704">
        <ele>697</ele>
        <time>2020-10-05T12:23:13.000Z</time>
      </trkpt>
      <trkpt lat="44.00246" lon="5.90704">
        <ele>697</ele>
        <time>2020-10-05T12:23:14.000Z</time>
      </trkpt>
      <trkpt lat="44.00245" lon="5.90704">
        <ele>697</ele>
        <time>2020-10-05T12:23:15.000Z</time>
      </trkpt>
      <trkpt lat="44.00244" lon="5.90704">
        <ele>696</ele>
        <time>2020-10-05T12:23:16.000Z</time>
      </trkpt>
      <trkpt lat="44.00243" lon="5.90704">
        <ele>696</ele>
        <time>2020-10-05T12:23:17.000Z</time>
      </trkpt>
      <trkpt lat="44.00242" lon="5.90705">
        <ele>696</ele>
        <time>2020-10-05T12:23:18.000Z</time>
      </trkpt>
      <trkpt lat="44.00241" lon="5.90705">
        <ele>696</ele>
        <time>2020-10-05T12:23:19.000Z</time>
      </trkpt>
      <trkpt lat="44.0024" lon="5.90705">
        <ele>696</ele>
        <time>2020-10-05T12:23:20.000Z</time>
      </trkpt>
      <trkpt lat="44.00239" lon="5.90704">
        <ele>695</ele>
        <time>2020-10-05T12:23:21.000Z</time>
      </trkpt>
      <trkpt lat="44.00238" lon="5.90704">
        <ele>695</ele>
        <time>2020-10-05T12:23:22.000Z</time>
      </trkpt>
      <trkpt lat="44.00237" lon="5.90703">
        <ele>695</ele>
        <time>2020-10-05T12:23:23.000Z</time>
      </trkpt>
      <trkpt lat="44.00236" lon="5.90703">
        <ele>695</ele>
        <time>2020-10-05T12:23:24.000Z</time>
      </trkpt>
      <trkpt lat="44.00235" lon="5.90702">
        <ele>695</ele>
        <time>2020-10-05T12:23:25.000Z</time>
      </trkpt>
      <trkpt lat="44.00234" lon="5.90702">
        <ele>695</ele>
        <time>2020-10-05T12:23:26.000Z</time>
      </trkpt>
      <trkpt lat="44.00233" lon="5.90702">
        <ele>695</ele>
        <time>2020-10-05T12:23:27.000Z</time>
      </trkpt>
      <trkpt lat="44.00232" lon="5.90701">
        <ele>695</ele>
        <time>2020-10-05T12:23:28.000Z</time>
      </trkpt>
      <trkpt lat="44.00231" lon="5.90701">
        <ele>695</ele>
        <time>2020-10-05T12:23:29.000Z</time>
      </trkpt>
      <trkpt lat="44.00229" lon="5.90701">
        <ele>695</ele>
        <time>2020-10-05T12:23:30.000Z</time>
      </trkpt>
      <trkpt lat="44.00229" lon="5.90701">
        <ele>695</ele>
        <time>2020-10-05T12:23:31.000Z</time>
      </trkpt>
      <trkpt lat="44.00228" lon="5.90701">
        <ele>695</ele>
        <time>2020-10-05T12:23:32.000Z</time>
      </trkpt>
      <trkpt lat="44.00226" lon="5.90701">
        <ele>695</ele>
        <time>2020-10-05T12:23:33.000Z</time>
      </trkpt>
      <trkpt lat="44.00225" lon="5.907">
        <ele>695</ele>
        <time>2020-10-05T12:23:34.000Z</time>
      </trkpt>
      <trkpt lat="44.00224" lon="5.907">
        <ele>695</ele>
        <time>2020-10-05T12:23:35.000Z</time>
      </trkpt>
      <trkpt lat="44.00223" lon="5.907">
        <ele>695</ele>
        <time>2020-10-05T12:23:36.000Z</time>
      </trkpt>
      <trkpt lat="44.00222" lon="5.907">
        <ele>695</ele>
        <time>2020-10-05T12:23:37.000Z</time>
      </trkpt>
      <trkpt lat="44.00221" lon="5.907">
        <ele>695</ele>
        <time>2020-10-05T12:23:38.000Z</time>
      </trkpt>
      <trkpt lat="44.0022" lon="5.907">
        <ele>695</ele>
        <time>2020-10-05T12:23:39.000Z</time>
      </trkpt>
      <trkpt lat="44.00219" lon="5.90701">
        <ele>695</ele>
        <time>2020-10-05T12:23:40.000Z</time>
      </trkpt>
      <trkpt lat="44.00218" lon="5.90702">
        <ele>695</ele>
        <time>2020-10-05T12:23:41.000Z</time>
      </trkpt>
      <trkpt lat="44.00217" lon="5.90703">
        <ele>695</ele>
        <time>2020-10-05T12:23:42.000Z</time>
      </trkpt>
      <trkpt lat="44.00216" lon="5.90704">
        <ele>695</ele>
        <time>2020-10-05T12:23:43.000Z</time>
      </trkpt>
      <trkpt lat="44.00215" lon="5.90705">
        <ele>695</ele>
        <time>2020-10-05T12:23:44.000Z</time>
      </trkpt>
      <trkpt lat="44.00214" lon="5.90705">
        <ele>695</ele>
        <time>2020-10-05T12:23:45.000Z</time>
      </trkpt>
      <trkpt lat="44.00213" lon="5.90706">
        <ele>695</ele>
        <time>2020-10-05T12:23:46.000Z</time>
      </trkpt>
      <trkpt lat="44.00212" lon="5.90707">
        <ele>695</ele>
        <time>2020-10-05T12:23:47.000Z</time>
      </trkpt>
      <trkpt lat="44.00211" lon="5.90708">
        <ele>695</ele>
        <time>2020-10-05T12:23:48.000Z</time>
      </trkpt>
      <trkpt lat="44.00211" lon="5.90709">
        <ele>695</ele>
        <time>2020-10-05T12:23:49.000Z</time>
      </trkpt>
      <trkpt lat="44.0021" lon="5.90709">
        <ele>695</ele>
        <time>2020-10-05T12:23:50.000Z</time>
      </trkpt>
      <trkpt lat="44.00209" lon="5.9071">
        <ele>695</ele>
        <time>2020-10-05T12:23:51.000Z</time>
      </trkpt>
      <trkpt lat="44.00208" lon="5.90711">
        <ele>695</ele>
        <time>2020-10-05T12:23:52.000Z</time>
      </trkpt>
      <trkpt lat="44.00207" lon="5.90711">
        <ele>695</ele>
        <time>2020-10-05T12:23:53.000Z</time>
      </trkpt>
      <trkpt lat="44.00205" lon="5.90712">
        <ele>695</ele>
        <time>2020-10-05T12:23:54.000Z</time>
      </trkpt>
      <trkpt lat="44.00204" lon="5.90712">
        <ele>695</ele>
        <time>2020-10-05T12:23:55.000Z</time>
      </trkpt>
      <trkpt lat="44.00203" lon="5.90712">
        <ele>695</ele>
        <time>2020-10-05T12:23:56.000Z</time>
      </trkpt>
      <trkpt lat="44.00203" lon="5.90712">
        <ele>695</ele>
        <time>2020-10-05T12:23:57.000Z</time>
      </trkpt>
      <trkpt lat="44.00202" lon="5.90712">
        <ele>695</ele>
        <time>2020-10-05T12:23:58.000Z</time>
      </trkpt>
      <trkpt lat="44.00201" lon="5.90712">
        <ele>695</ele>
        <time>2020-10-05T12:23:59.000Z</time>
      </trkpt>
      <trkpt lat="44.00199" lon="5.90712">
        <ele>695</ele>
        <time>2020-10-05T12:24:00.000Z</time>
      </trkpt>
      <trkpt lat="44.00198" lon="5.90712">
        <ele>695</ele>
        <time>2020-10-05T12:24:01.000Z</time>
      </trkpt>
      <trkpt lat="44.00197" lon="5.90712">
        <ele>695</ele>
        <time>2020-10-05T12:24:02.000Z</time>
      </trkpt>
      <trkpt lat="44.00197" lon="5.90711">
        <ele>695</ele>
        <time>2020-10-05T12:24:03.000Z</time>
      </trkpt>
      <trkpt lat="44.00196" lon="5.9071">
        <ele>695</ele>
        <time>2020-10-05T12:24:04.000Z</time>
      </trkpt>
      <trkpt lat="44.00196" lon="5.90709">
        <ele>695</ele>
        <time>2020-10-05T12:24:05.000Z</time>
      </trkpt>
      <trkpt lat="44.00197" lon="5.90708">
        <ele>695</ele>
        <time>2020-10-05T12:24:06.000Z</time>
      </trkpt>
      <trkpt lat="44.00197" lon="5.90707">
        <ele>696</ele>
        <time>2020-10-05T12:24:07.000Z</time>
      </trkpt>
      <trkpt lat="44.00197" lon="5.90707">
        <ele>695</ele>
        <time>2020-10-05T12:24:08.000Z</time>
      </trkpt>
      <trkpt lat="44.00197" lon="5.90707">
        <ele>695</ele>
        <time>2020-10-05T12:24:09.000Z</time>
      </trkpt>
      <trkpt lat="44.00197" lon="5.90707">
        <ele>695</ele>
        <time>2020-10-05T12:24:10.000Z</time>
      </trkpt>
      <trkpt lat="44.00197" lon="5.90706">
        <ele>695</ele>
        <time>2020-10-05T12:24:11.000Z</time>
      </trkpt>
      <trkpt lat="44.00197" lon="5.90706">
        <ele>695</ele>
        <time>2020-10-05T12:24:12.000Z</time>
      </trkpt>
      <trkpt lat="44.00197" lon="5.90706">
        <ele>695</ele>
        <time>2020-10-05T12:24:13.000Z</time>
      </trkpt>
      <trkpt lat="44.00197" lon="5.90706">
        <ele>695</ele>
        <time>2020-10-05T12:24:14.000Z</time>
      </trkpt>
      <trkpt lat="44.00197" lon="5.90706">
        <ele>695</ele>
        <time>2020-10-05T12:24:15.000Z</time>
      </trkpt>
      <trkpt lat="44.00197" lon="5.90706">
        <ele>695</ele>
        <time>2020-10-05T12:24:16.000Z</time>
      </trkpt>
      <trkpt lat="44.00197" lon="5.90706">
        <ele>695</ele>
        <time>2020-10-05T12:24:17.000Z</time>
      </trkpt>
      <trkpt lat="44.00197" lon="5.90706">
        <ele>695</ele>
        <time>2020-10-05T12:24:18.000Z</time>
      </trkpt>
      <trkpt lat="44.00197" lon="5.90706">
        <ele>695</ele>
        <time>2020-10-05T12:24:19.000Z</time>
      </trkpt>
      <trkpt lat="44.00197" lon="5.90706">
        <ele>695</ele>
        <time>2020-10-05T12:24:20.000Z</time>
      </trkpt>
      <trkpt lat="44.00197" lon="5.90706">
        <ele>695</ele>
        <time>2020-10-05T12:24:21.000Z</time>
      </trkpt>
      <trkpt lat="44.00197" lon="5.90706">
        <ele>695</ele>
        <time>2020-10-05T12:24:22.000Z</time>
      </trkpt>
      <trkpt lat="44.00197" lon="5.90706">
        <ele>695</ele>
        <time>2020-10-05T12:24:23.000Z</time>
      </trkpt>
      <trkpt lat="44.00197" lon="5.90706">
        <ele>695</ele>
        <time>2020-10-05T12:24:24.000Z</time>
      </trkpt>
      <trkpt lat="44.00197" lon="5.90705">
        <ele>694</ele>
        <time>2020-10-05T12:24:25.000Z</time>
      </trkpt>
      <trkpt lat="44.00197" lon="5.90705">
        <ele>694</ele>
        <time>2020-10-05T12:24:26.000Z</time>
      </trkpt>
      <trkpt lat="44.00197" lon="5.90705">
        <ele>694</ele>
        <time>2020-10-05T12:24:27.000Z</time>
      </trkpt>
      <trkpt lat="44.00197" lon="5.90705">
        <ele>694</ele>
        <time>2020-10-05T12:24:28.000Z</time>
      </trkpt>
      <trkpt lat="44.00197" lon="5.90705">
        <ele>694</ele>
        <time>2020-10-05T12:24:29.000Z</time>
      </trkpt>
      <trkpt lat="44.00197" lon="5.90705">
        <ele>694</ele>
        <time>2020-10-05T12:24:30.000Z</time>
      </trkpt>
      <trkpt lat="44.00197" lon="5.90705">
        <ele>694</ele>
        <time>2020-10-05T12:24:31.000Z</time>
      </trkpt>
      <trkpt lat="44.00197" lon="5.90705">
        <ele>694</ele>
        <time>2020-10-05T12:24:32.000Z</time>
      </trkpt>
      <trkpt lat="44.00197" lon="5.90705">
        <ele>694</ele>
        <time>2020-10-05T12:24:33.000Z</time>
      </trkpt>
      <trkpt lat="44.00197" lon="5.90705">
        <ele>694</ele>
        <time>2020-10-05T12:24:34.000Z</time>
      </trkpt>
      <trkpt lat="44.00197" lon="5.90705">
        <ele>694</ele>
        <time>2020-10-05T12:24:35.000Z</time>
      </trkpt>
      <trkpt lat="44.00197" lon="5.90705">
        <ele>694</ele>
        <time>2020-10-05T12:24:36.000Z</time>
      </trkpt>
      <trkpt lat="44.00197" lon="5.90705">
        <ele>694</ele>
        <time>2020-10-05T12:24:37.000Z</time>
      </trkpt>
      <trkpt lat="44.00197" lon="5.90705">
        <ele>694</ele>
        <time>2020-10-05T12:24:38.000Z</time>
      </trkpt>
      <trkpt lat="44.00197" lon="5.90705">
        <ele>694</ele>
        <time>2020-10-05T12:24:39.000Z</time>
      </trkpt>
      <trkpt lat="44.00197" lon="5.90705">
        <ele>694</ele>
        <time>2020-10-05T12:24:40.000Z</time>
      </trkpt>
      <trkpt lat="44.00197" lon="5.90705">
        <ele>694</ele>
        <time>2020-10-05T12:24:41.000Z</time>
      </trkpt>
      <trkpt lat="44.00197" lon="5.90705">
        <ele>694</ele>
        <time>2020-10-05T12:24:42.000Z</time>
      </trkpt>
      <trkpt lat="44.00197" lon="5.90705">
        <ele>694</ele>
        <time>2020-10-05T12:24:43.000Z</time>
      </trkpt>
      <trkpt lat="44.00197" lon="5.90705">
        <ele>694</ele>
        <time>2020-10-05T12:24:44.000Z</time>
      </trkpt>
      <trkpt lat="44.00197" lon="5.90705">
        <ele>694</ele>
        <time>2020-10-05T12:24:45.000Z</time>
      </trkpt>
      <trkpt lat="44.00197" lon="5.90705">
        <ele>694</ele>
        <time>2020-10-05T12:24:46.000Z</time>
      </trkpt>
      <trkpt lat="44.00197" lon="5.90705">
        <ele>694</ele>
        <time>2020-10-05T12:24:47.000Z</time>
      </trkpt>
      <trkpt lat="44.00197" lon="5.90705">
        <ele>694</ele>
        <time>2020-10-05T12:24:48.000Z</time>
      </trkpt>
      <trkpt lat="44.00197" lon="5.90705">
        <ele>694</ele>
        <time>2020-10-05T12:24:49.000Z</time>
      </trkpt>
      <trkpt lat="44.00197" lon="5.90705">
        <ele>694</ele>
        <time>2020-10-05T12:24:50.000Z</time>
      </trkpt>
      <trkpt lat="44.00197" lon="5.90705">
        <ele>694</ele>
        <time>2020-10-05T12:24:51.000Z</time>
      </trkpt>
      <trkpt lat="44.00197" lon="5.90705">
        <ele>694</ele>
        <time>2020-10-05T12:24:52.000Z</time>
      </trkpt>
      <trkpt lat="44.00197" lon="5.90705">
        <ele>694</ele>
        <time>2020-10-05T12:24:53.000Z</time>
      </trkpt>
      <trkpt lat="44.00197" lon="5.90705">
        <ele>694</ele>
        <time>2020-10-05T12:24:54.000Z</time>
      </trkpt>
      <trkpt lat="44.00197" lon="5.90705">
        <ele>694</ele>
        <time>2020-10-05T12:24:55.000Z</time>
      </trkpt>
      <trkpt lat="44.00197" lon="5.90705">
        <ele>694</ele>
        <time>2020-10-05T12:24:56.000Z</time>
      </trkpt>
      <trkpt lat="44.00197" lon="5.90705">
        <ele>694</ele>
        <time>2020-10-05T12:24:57.000Z</time>
      </trkpt>
      <trkpt lat="44.00196" lon="5.90706">
        <ele>694</ele>
        <time>2020-10-05T12:24:58.000Z</time>
      </trkpt>
      <trkpt lat="44.00195" lon="5.90706">
        <ele>694</ele>
        <time>2020-10-05T12:24:59.000Z</time>
      </trkpt>
      <trkpt lat="44.00194" lon="5.90707">
        <ele>694</ele>
        <time>2020-10-05T12:25:00.000Z</time>
      </trkpt>
      <trkpt lat="44.00193" lon="5.90707">
        <ele>694</ele>
        <time>2020-10-05T12:25:01.000Z</time>
      </trkpt>
      <trkpt lat="44.00192" lon="5.90707">
        <ele>694</ele>
        <time>2020-10-05T12:25:02.000Z</time>
      </trkpt>
      <trkpt lat="44.0019" lon="5.90706">
        <ele>694</ele>
        <time>2020-10-05T12:25:03.000Z</time>
      </trkpt>
      <trkpt lat="44.00189" lon="5.90705">
        <ele>693</ele>
        <time>2020-10-05T12:25:04.000Z</time>
      </trkpt>
      <trkpt lat="44.00188" lon="5.90704">
        <ele>693</ele>
        <time>2020-10-05T12:25:05.000Z</time>
      </trkpt>
      <trkpt lat="44.00187" lon="5.90703">
        <ele>693</ele>
        <time>2020-10-05T12:25:06.000Z</time>
      </trkpt>
      <trkpt lat="44.00186" lon="5.90703">
        <ele>693</ele>
        <time>2020-10-05T12:25:07.000Z</time>
      </trkpt>
      <trkpt lat="44.00185" lon="5.90703">
        <ele>693</ele>
        <time>2020-10-05T12:25:08.000Z</time>
      </trkpt>
      <trkpt lat="44.00184" lon="5.90702">
        <ele>693</ele>
        <time>2020-10-05T12:25:09.000Z</time>
      </trkpt>
      <trkpt lat="44.00184" lon="5.90702">
        <ele>693</ele>
        <time>2020-10-05T12:25:10.000Z</time>
      </trkpt>
      <trkpt lat="44.00183" lon="5.90701">
        <ele>693</ele>
        <time>2020-10-05T12:25:11.000Z</time>
      </trkpt>
      <trkpt lat="44.00182" lon="5.907">
        <ele>693</ele>
        <time>2020-10-05T12:25:12.000Z</time>
      </trkpt>
      <trkpt lat="44.00181" lon="5.907">
        <ele>693</ele>
        <time>2020-10-05T12:25:13.000Z</time>
      </trkpt>
      <trkpt lat="44.0018" lon="5.90699">
        <ele>692</ele>
        <time>2020-10-05T12:25:14.000Z</time>
      </trkpt>
      <trkpt lat="44.00179" lon="5.90698">
        <ele>692</ele>
        <time>2020-10-05T12:25:15.000Z</time>
      </trkpt>
      <trkpt lat="44.00178" lon="5.90697">
        <ele>692</ele>
        <time>2020-10-05T12:25:16.000Z</time>
      </trkpt>
      <trkpt lat="44.00178" lon="5.90696">
        <ele>692</ele>
        <time>2020-10-05T12:25:17.000Z</time>
      </trkpt>
      <trkpt lat="44.00177" lon="5.90695">
        <ele>692</ele>
        <time>2020-10-05T12:25:18.000Z</time>
      </trkpt>
      <trkpt lat="44.00176" lon="5.90694">
        <ele>692</ele>
        <time>2020-10-05T12:25:19.000Z</time>
      </trkpt>
      <trkpt lat="44.00175" lon="5.90693">
        <ele>692</ele>
        <time>2020-10-05T12:25:20.000Z</time>
      </trkpt>
      <trkpt lat="44.00174" lon="5.90692">
        <ele>692</ele>
        <time>2020-10-05T12:25:21.000Z</time>
      </trkpt>
      <trkpt lat="44.00173" lon="5.90691">
        <ele>692</ele>
        <time>2020-10-05T12:25:22.000Z</time>
      </trkpt>
      <trkpt lat="44.00172" lon="5.9069">
        <ele>692</ele>
        <time>2020-10-05T12:25:23.000Z</time>
      </trkpt>
      <trkpt lat="44.00171" lon="5.90689">
        <ele>692</ele>
        <time>2020-10-05T12:25:24.000Z</time>
      </trkpt>
      <trkpt lat="44.0017" lon="5.90688">
        <ele>691</ele>
        <time>2020-10-05T12:25:25.000Z</time>
      </trkpt>
      <trkpt lat="44.00169" lon="5.90687">
        <ele>691</ele>
        <time>2020-10-05T12:25:26.000Z</time>
      </trkpt>
      <trkpt lat="44.00168" lon="5.90686">
        <ele>691</ele>
        <time>2020-10-05T12:25:27.000Z</time>
      </trkpt>
      <trkpt lat="44.00167" lon="5.90685">
        <ele>691</ele>
        <time>2020-10-05T12:25:28.000Z</time>
      </trkpt>
      <trkpt lat="44.00166" lon="5.90683">
        <ele>691</ele>
        <time>2020-10-05T12:25:29.000Z</time>
      </trkpt>
      <trkpt lat="44.00165" lon="5.90682">
        <ele>691</ele>
        <time>2020-10-05T12:25:30.000Z</time>
      </trkpt>
      <trkpt lat="44.00164" lon="5.90681">
        <ele>691</ele>
        <time>2020-10-05T12:25:31.000Z</time>
      </trkpt>
      <trkpt lat="44.00163" lon="5.9068">
        <ele>691</ele>
        <time>2020-10-05T12:25:32.000Z</time>
      </trkpt>
      <trkpt lat="44.00162" lon="5.90678">
        <ele>691</ele>
        <time>2020-10-05T12:25:33.000Z</time>
      </trkpt>
      <trkpt lat="44.00161" lon="5.90677">
        <ele>691</ele>
        <time>2020-10-05T12:25:34.000Z</time>
      </trkpt>
      <trkpt lat="44.0016" lon="5.90676">
        <ele>691</ele>
        <time>2020-10-05T12:25:35.000Z</time>
      </trkpt>
      <trkpt lat="44.0016" lon="5.90674">
        <ele>691</ele>
        <time>2020-10-05T12:25:36.000Z</time>
      </trkpt>
      <trkpt lat="44.00159" lon="5.90673">
        <ele>691</ele>
        <time>2020-10-05T12:25:37.000Z</time>
      </trkpt>
      <trkpt lat="44.00158" lon="5.90672">
        <ele>691</ele>
        <time>2020-10-05T12:25:38.000Z</time>
      </trkpt>
      <trkpt lat="44.00157" lon="5.90671">
        <ele>691</ele>
        <time>2020-10-05T12:25:39.000Z</time>
      </trkpt>
      <trkpt lat="44.00156" lon="5.9067">
        <ele>691</ele>
        <time>2020-10-05T12:25:40.000Z</time>
      </trkpt>
      <trkpt lat="44.00155" lon="5.90669">
        <ele>691</ele>
        <time>2020-10-05T12:25:41.000Z</time>
      </trkpt>
      <trkpt lat="44.00154" lon="5.90668">
        <ele>691</ele>
        <time>2020-10-05T12:25:42.000Z</time>
      </trkpt>
      <trkpt lat="44.00153" lon="5.90668">
        <ele>691</ele>
        <time>2020-10-05T12:25:43.000Z</time>
      </trkpt>
      <trkpt lat="44.00152" lon="5.90667">
        <ele>691</ele>
        <time>2020-10-05T12:25:44.000Z</time>
      </trkpt>
      <trkpt lat="44.00151" lon="5.90666">
        <ele>691</ele>
        <time>2020-10-05T12:25:45.000Z</time>
      </trkpt>
      <trkpt lat="44.0015" lon="5.90665">
        <ele>691</ele>
        <time>2020-10-05T12:25:46.000Z</time>
      </trkpt>
      <trkpt lat="44.00149" lon="5.90664">
        <ele>691</ele>
        <time>2020-10-05T12:25:47.000Z</time>
      </trkpt>
      <trkpt lat="44.00148" lon="5.90663">
        <ele>691</ele>
        <time>2020-10-05T12:25:48.000Z</time>
      </trkpt>
      <trkpt lat="44.00147" lon="5.90662">
        <ele>691</ele>
        <time>2020-10-05T12:25:49.000Z</time>
      </trkpt>
      <trkpt lat="44.00146" lon="5.90661">
        <ele>690</ele>
        <time>2020-10-05T12:25:50.000Z</time>
      </trkpt>
      <trkpt lat="44.00145" lon="5.90659">
        <ele>690</ele>
        <time>2020-10-05T12:25:51.000Z</time>
      </trkpt>
      <trkpt lat="44.00143" lon="5.90658">
        <ele>690</ele>
        <time>2020-10-05T12:25:52.000Z</time>
      </trkpt>
      <trkpt lat="44.00142" lon="5.90657">
        <ele>690</ele>
        <time>2020-10-05T12:25:53.000Z</time>
      </trkpt>
      <trkpt lat="44.00141" lon="5.90656">
        <ele>690</ele>
        <time>2020-10-05T12:25:54.000Z</time>
      </trkpt>
      <trkpt lat="44.0014" lon="5.90655">
        <ele>690</ele>
        <time>2020-10-05T12:25:55.000Z</time>
      </trkpt>
      <trkpt lat="44.00139" lon="5.90654">
        <ele>690</ele>
        <time>2020-10-05T12:25:56.000Z</time>
      </trkpt>
      <trkpt lat="44.00138" lon="5.90654">
        <ele>690</ele>
        <time>2020-10-05T12:25:57.000Z</time>
      </trkpt>
      <trkpt lat="44.00138" lon="5.90653">
        <ele>690</ele>
        <time>2020-10-05T12:25:58.000Z</time>
      </trkpt>
      <trkpt lat="44.00138" lon="5.90653">
        <ele>690</ele>
        <time>2020-10-05T12:25:59.000Z</time>
      </trkpt>
      <trkpt lat="44.00137" lon="5.90652">
        <ele>690</ele>
        <time>2020-10-05T12:26:00.000Z</time>
      </trkpt>
      <trkpt lat="44.00137" lon="5.90652">
        <ele>690</ele>
        <time>2020-10-05T12:26:01.000Z</time>
      </trkpt>
      <trkpt lat="44.00137" lon="5.90652">
        <ele>690</ele>
        <time>2020-10-05T12:26:02.000Z</time>
      </trkpt>
      <trkpt lat="44.00137" lon="5.90652">
        <ele>690</ele>
        <time>2020-10-05T12:26:03.000Z</time>
      </trkpt>
      <trkpt lat="44.00137" lon="5.90652">
        <ele>690</ele>
        <time>2020-10-05T12:26:04.000Z</time>
      </trkpt>
      <trkpt lat="44.00137" lon="5.90652">
        <ele>690</ele>
        <time>2020-10-05T12:26:05.000Z</time>
      </trkpt>
      <trkpt lat="44.00137" lon="5.90652">
        <ele>690</ele>
        <time>2020-10-05T12:26:06.000Z</time>
      </trkpt>
      <trkpt lat="44.00136" lon="5.90652">
        <ele>690</ele>
        <time>2020-10-05T12:26:07.000Z</time>
      </trkpt>
      <trkpt lat="44.00136" lon="5.90652">
        <ele>690</ele>
        <time>2020-10-05T12:26:08.000Z</time>
      </trkpt>
      <trkpt lat="44.00135" lon="5.90652">
        <ele>690</ele>
        <time>2020-10-05T12:26:09.000Z</time>
      </trkpt>
      <trkpt lat="44.00134" lon="5.90651">
        <ele>690</ele>
        <time>2020-10-05T12:26:10.000Z</time>
      </trkpt>
      <trkpt lat="44.00133" lon="5.90651">
        <ele>690</ele>
        <time>2020-10-05T12:26:11.000Z</time>
      </trkpt>
      <trkpt lat="44.00133" lon="5.9065">
        <ele>690</ele>
        <time>2020-10-05T12:26:12.000Z</time>
      </trkpt>
      <trkpt lat="44.00131" lon="5.90649">
        <ele>690</ele>
        <time>2020-10-05T12:26:13.000Z</time>
      </trkpt>
      <trkpt lat="44.00131" lon="5.90648">
        <ele>690</ele>
        <time>2020-10-05T12:26:14.000Z</time>
      </trkpt>
      <trkpt lat="44.0013" lon="5.90647">
        <ele>690</ele>
        <time>2020-10-05T12:26:15.000Z</time>
      </trkpt>
      <trkpt lat="44.00129" lon="5.90647">
        <ele>690</ele>
        <time>2020-10-05T12:26:16.000Z</time>
      </trkpt>
      <trkpt lat="44.00129" lon="5.90646">
        <ele>689</ele>
        <time>2020-10-05T12:26:17.000Z</time>
      </trkpt>
      <trkpt lat="44.00128" lon="5.90646">
        <ele>689</ele>
        <time>2020-10-05T12:26:18.000Z</time>
      </trkpt>
      <trkpt lat="44.00127" lon="5.90645">
        <ele>689</ele>
        <time>2020-10-05T12:26:19.000Z</time>
      </trkpt>
      <trkpt lat="44.00127" lon="5.90645">
        <ele>689</ele>
        <time>2020-10-05T12:26:20.000Z</time>
      </trkpt>
      <trkpt lat="44.00126" lon="5.90644">
        <ele>689</ele>
        <time>2020-10-05T12:26:21.000Z</time>
      </trkpt>
      <trkpt lat="44.00126" lon="5.90644">
        <ele>689</ele>
        <time>2020-10-05T12:26:22.000Z</time>
      </trkpt>
      <trkpt lat="44.00125" lon="5.90644">
        <ele>689</ele>
        <time>2020-10-05T12:26:23.000Z</time>
      </trkpt>
      <trkpt lat="44.00124" lon="5.90643">
        <ele>689</ele>
        <time>2020-10-05T12:26:24.000Z</time>
      </trkpt>
      <trkpt lat="44.00123" lon="5.90644">
        <ele>689</ele>
        <time>2020-10-05T12:26:25.000Z</time>
      </trkpt>
      <trkpt lat="44.00122" lon="5.90643">
        <ele>689</ele>
        <time>2020-10-05T12:26:26.000Z</time>
      </trkpt>
      <trkpt lat="44.00121" lon="5.90643">
        <ele>689</ele>
        <time>2020-10-05T12:26:27.000Z</time>
      </trkpt>
      <trkpt lat="44.00121" lon="5.90642">
        <ele>689</ele>
        <time>2020-10-05T12:26:28.000Z</time>
      </trkpt>
      <trkpt lat="44.0012" lon="5.90642">
        <ele>689</ele>
        <time>2020-10-05T12:26:29.000Z</time>
      </trkpt>
      <trkpt lat="44.00119" lon="5.90642">
        <ele>689</ele>
        <time>2020-10-05T12:26:30.000Z</time>
      </trkpt>
      <trkpt lat="44.00118" lon="5.90641">
        <ele>689</ele>
        <time>2020-10-05T12:26:31.000Z</time>
      </trkpt>
      <trkpt lat="44.00117" lon="5.90641">
        <ele>689</ele>
        <time>2020-10-05T12:26:32.000Z</time>
      </trkpt>
      <trkpt lat="44.00116" lon="5.9064">
        <ele>689</ele>
        <time>2020-10-05T12:26:33.000Z</time>
      </trkpt>
      <trkpt lat="44.00115" lon="5.9064">
        <ele>689</ele>
        <time>2020-10-05T12:26:34.000Z</time>
      </trkpt>
      <trkpt lat="44.00115" lon="5.9064">
        <ele>689</ele>
        <time>2020-10-05T12:26:35.000Z</time>
      </trkpt>
      <trkpt lat="44.00114" lon="5.9064">
        <ele>689</ele>
        <time>2020-10-05T12:26:36.000Z</time>
      </trkpt>
      <trkpt lat="44.00113" lon="5.9064">
        <ele>689</ele>
        <time>2020-10-05T12:26:37.000Z</time>
      </trkpt>
      <trkpt lat="44.00113" lon="5.90639">
        <ele>689</ele>
        <time>2020-10-05T12:26:38.000Z</time>
      </trkpt>
      <trkpt lat="44.00112" lon="5.90639">
        <ele>689</ele>
        <time>2020-10-05T12:26:39.000Z</time>
      </trkpt>
      <trkpt lat="44.00111" lon="5.90638">
        <ele>689</ele>
        <time>2020-10-05T12:26:40.000Z</time>
      </trkpt>
      <trkpt lat="44.0011" lon="5.90637">
        <ele>689</ele>
        <time>2020-10-05T12:26:41.000Z</time>
      </trkpt>
      <trkpt lat="44.00109" lon="5.90637">
        <ele>689</ele>
        <time>2020-10-05T12:26:42.000Z</time>
      </trkpt>
      <trkpt lat="44.00108" lon="5.90636">
        <ele>689</ele>
        <time>2020-10-05T12:26:43.000Z</time>
      </trkpt>
      <trkpt lat="44.00108" lon="5.90635">
        <ele>689</ele>
        <time>2020-10-05T12:26:44.000Z</time>
      </trkpt>
      <trkpt lat="44.00107" lon="5.90634">
        <ele>689</ele>
        <time>2020-10-05T12:26:45.000Z</time>
      </trkpt>
      <trkpt lat="44.00106" lon="5.90634">
        <ele>689</ele>
        <time>2020-10-05T12:26:46.000Z</time>
      </trkpt>
      <trkpt lat="44.00105" lon="5.90632">
        <ele>689</ele>
        <time>2020-10-05T12:26:47.000Z</time>
      </trkpt>
      <trkpt lat="44.00104" lon="5.90632">
        <ele>689</ele>
        <time>2020-10-05T12:26:48.000Z</time>
      </trkpt>
      <trkpt lat="44.00103" lon="5.90631">
        <ele>689</ele>
        <time>2020-10-05T12:26:49.000Z</time>
      </trkpt>
      <trkpt lat="44.00102" lon="5.90629">
        <ele>689</ele>
        <time>2020-10-05T12:26:50.000Z</time>
      </trkpt>
      <trkpt lat="44.00101" lon="5.90628">
        <ele>689</ele>
        <time>2020-10-05T12:26:51.000Z</time>
      </trkpt>
      <trkpt lat="44.00101" lon="5.90627">
        <ele>689</ele>
        <time>2020-10-05T12:26:52.000Z</time>
      </trkpt>
      <trkpt lat="44.001" lon="5.90626">
        <ele>689</ele>
        <time>2020-10-05T12:26:53.000Z</time>
      </trkpt>
      <trkpt lat="44.00099" lon="5.90625">
        <ele>689</ele>
        <time>2020-10-05T12:26:54.000Z</time>
      </trkpt>
      <trkpt lat="44.00098" lon="5.90624">
        <ele>689</ele>
        <time>2020-10-05T12:26:55.000Z</time>
      </trkpt>
      <trkpt lat="44.00097" lon="5.90623">
        <ele>689</ele>
        <time>2020-10-05T12:26:56.000Z</time>
      </trkpt>
      <trkpt lat="44.00096" lon="5.90622">
        <ele>689</ele>
        <time>2020-10-05T12:26:57.000Z</time>
      </trkpt>
      <trkpt lat="44.00095" lon="5.90621">
        <ele>688</ele>
        <time>2020-10-05T12:26:58.000Z</time>
      </trkpt>
      <trkpt lat="44.00095" lon="5.9062">
        <ele>688</ele>
        <time>2020-10-05T12:26:59.000Z</time>
      </trkpt>
      <trkpt lat="44.00094" lon="5.90619">
        <ele>688</ele>
        <time>2020-10-05T12:27:00.000Z</time>
      </trkpt>
      <trkpt lat="44.00093" lon="5.90618">
        <ele>688</ele>
        <time>2020-10-05T12:27:01.000Z</time>
      </trkpt>
      <trkpt lat="44.00092" lon="5.90618">
        <ele>688</ele>
        <time>2020-10-05T12:27:02.000Z</time>
      </trkpt>
      <trkpt lat="44.00091" lon="5.90617">
        <ele>688</ele>
        <time>2020-10-05T12:27:03.000Z</time>
      </trkpt>
      <trkpt lat="44.00091" lon="5.90616">
        <ele>688</ele>
        <time>2020-10-05T12:27:04.000Z</time>
      </trkpt>
      <trkpt lat="44.0009" lon="5.90615">
        <ele>688</ele>
        <time>2020-10-05T12:27:05.000Z</time>
      </trkpt>
      <trkpt lat="44.00089" lon="5.90615">
        <ele>689</ele>
        <time>2020-10-05T12:27:06.000Z</time>
      </trkpt>
      <trkpt lat="44.00088" lon="5.90614">
        <ele>689</ele>
        <time>2020-10-05T12:27:07.000Z</time>
      </trkpt>
      <trkpt lat="44.00087" lon="5.90614">
        <ele>689</ele>
        <time>2020-10-05T12:27:08.000Z</time>
      </trkpt>
      <trkpt lat="44.00086" lon="5.90613">
        <ele>689</ele>
        <time>2020-10-05T12:27:09.000Z</time>
      </trkpt>
      <trkpt lat="44.00085" lon="5.90612">
        <ele>689</ele>
        <time>2020-10-05T12:27:10.000Z</time>
      </trkpt>
      <trkpt lat="44.00084" lon="5.90612">
        <ele>689</ele>
        <time>2020-10-05T12:27:11.000Z</time>
      </trkpt>
      <trkpt lat="44.00083" lon="5.90611">
        <ele>689</ele>
        <time>2020-10-05T12:27:12.000Z</time>
      </trkpt>
      <trkpt lat="44.00082" lon="5.9061">
        <ele>689</ele>
        <time>2020-10-05T12:27:13.000Z</time>
      </trkpt>
      <trkpt lat="44.00081" lon="5.9061">
        <ele>689</ele>
        <time>2020-10-05T12:27:14.000Z</time>
      </trkpt>
      <trkpt lat="44.0008" lon="5.90609">
        <ele>689</ele>
        <time>2020-10-05T12:27:15.000Z</time>
      </trkpt>
      <trkpt lat="44.00079" lon="5.90608">
        <ele>689</ele>
        <time>2020-10-05T12:27:16.000Z</time>
      </trkpt>
      <trkpt lat="44.00078" lon="5.90607">
        <ele>689</ele>
        <time>2020-10-05T12:27:17.000Z</time>
      </trkpt>
      <trkpt lat="44.00077" lon="5.90606">
        <ele>689</ele>
        <time>2020-10-05T12:27:18.000Z</time>
      </trkpt>
      <trkpt lat="44.00077" lon="5.90605">
        <ele>689</ele>
        <time>2020-10-05T12:27:19.000Z</time>
      </trkpt>
      <trkpt lat="44.00076" lon="5.90604">
        <ele>689</ele>
        <time>2020-10-05T12:27:20.000Z</time>
      </trkpt>
      <trkpt lat="44.00076" lon="5.90603">
        <ele>689</ele>
        <time>2020-10-05T12:27:21.000Z</time>
      </trkpt>
      <trkpt lat="44.00075" lon="5.90602">
        <ele>688</ele>
        <time>2020-10-05T12:27:22.000Z</time>
      </trkpt>
      <trkpt lat="44.00074" lon="5.90602">
        <ele>688</ele>
        <time>2020-10-05T12:27:23.000Z</time>
      </trkpt>
      <trkpt lat="44.00073" lon="5.90601">
        <ele>688</ele>
        <time>2020-10-05T12:27:24.000Z</time>
      </trkpt>
      <trkpt lat="44.00073" lon="5.90599">
        <ele>688</ele>
        <time>2020-10-05T12:27:25.000Z</time>
      </trkpt>
      <trkpt lat="44.00072" lon="5.90597">
        <ele>688</ele>
        <time>2020-10-05T12:27:26.000Z</time>
      </trkpt>
      <trkpt lat="44.00071" lon="5.90596">
        <ele>688</ele>
        <time>2020-10-05T12:27:27.000Z</time>
      </trkpt>
      <trkpt lat="44.00071" lon="5.90595">
        <ele>689</ele>
        <time>2020-10-05T12:27:28.000Z</time>
      </trkpt>
      <trkpt lat="44.0007" lon="5.90595">
        <ele>689</ele>
        <time>2020-10-05T12:27:29.000Z</time>
      </trkpt>
      <trkpt lat="44.00069" lon="5.90593">
        <ele>689</ele>
        <time>2020-10-05T12:27:30.000Z</time>
      </trkpt>
      <trkpt lat="44.00069" lon="5.90592">
        <ele>688</ele>
        <time>2020-10-05T12:27:31.000Z</time>
      </trkpt>
      <trkpt lat="44.00068" lon="5.90591">
        <ele>688</ele>
        <time>2020-10-05T12:27:32.000Z</time>
      </trkpt>
      <trkpt lat="44.00067" lon="5.9059">
        <ele>688</ele>
        <time>2020-10-05T12:27:33.000Z</time>
      </trkpt>
      <trkpt lat="44.00066" lon="5.90589">
        <ele>688</ele>
        <time>2020-10-05T12:27:34.000Z</time>
      </trkpt>
      <trkpt lat="44.00066" lon="5.90587">
        <ele>688</ele>
        <time>2020-10-05T12:27:35.000Z</time>
      </trkpt>
      <trkpt lat="44.00065" lon="5.90586">
        <ele>688</ele>
        <time>2020-10-05T12:27:36.000Z</time>
      </trkpt>
      <trkpt lat="44.00065" lon="5.90584">
        <ele>688</ele>
        <time>2020-10-05T12:27:37.000Z</time>
      </trkpt>
      <trkpt lat="44.00064" lon="5.90583">
        <ele>688</ele>
        <time>2020-10-05T12:27:38.000Z</time>
      </trkpt>
      <trkpt lat="44.00064" lon="5.90582">
        <ele>688</ele>
        <time>2020-10-05T12:27:39.000Z</time>
      </trkpt>
      <trkpt lat="44.00063" lon="5.90581">
        <ele>688</ele>
        <time>2020-10-05T12:27:40.000Z</time>
      </trkpt>
      <trkpt lat="44.00063" lon="5.9058">
        <ele>688</ele>
        <time>2020-10-05T12:27:41.000Z</time>
      </trkpt>
      <trkpt lat="44.00062" lon="5.90579">
        <ele>688</ele>
        <time>2020-10-05T12:27:42.000Z</time>
      </trkpt>
      <trkpt lat="44.00062" lon="5.90578">
        <ele>688</ele>
        <time>2020-10-05T12:27:43.000Z</time>
      </trkpt>
      <trkpt lat="44.00062" lon="5.90576">
        <ele>688</ele>
        <time>2020-10-05T12:27:44.000Z</time>
      </trkpt>
      <trkpt lat="44.00061" lon="5.90575">
        <ele>688</ele>
        <time>2020-10-05T12:27:45.000Z</time>
      </trkpt>
      <trkpt lat="44.00061" lon="5.90574">
        <ele>687</ele>
        <time>2020-10-05T12:27:46.000Z</time>
      </trkpt>
      <trkpt lat="44.0006" lon="5.90572">
        <ele>687</ele>
        <time>2020-10-05T12:27:47.000Z</time>
      </trkpt>
      <trkpt lat="44.0006" lon="5.90571">
        <ele>687</ele>
        <time>2020-10-05T12:27:48.000Z</time>
      </trkpt>
      <trkpt lat="44.00059" lon="5.9057">
        <ele>687</ele>
        <time>2020-10-05T12:27:49.000Z</time>
      </trkpt>
      <trkpt lat="44.00058" lon="5.90568">
        <ele>687</ele>
        <time>2020-10-05T12:27:50.000Z</time>
      </trkpt>
      <trkpt lat="44.00058" lon="5.90567">
        <ele>687</ele>
        <time>2020-10-05T12:27:51.000Z</time>
      </trkpt>
      <trkpt lat="44.00057" lon="5.90566">
        <ele>686</ele>
        <time>2020-10-05T12:27:52.000Z</time>
      </trkpt>
      <trkpt lat="44.00056" lon="5.90565">
        <ele>686</ele>
        <time>2020-10-05T12:27:53.000Z</time>
      </trkpt>
      <trkpt lat="44.00055" lon="5.90564">
        <ele>686</ele>
        <time>2020-10-05T12:27:54.000Z</time>
      </trkpt>
      <trkpt lat="44.00054" lon="5.90563">
        <ele>686</ele>
        <time>2020-10-05T12:27:55.000Z</time>
      </trkpt>
      <trkpt lat="44.00053" lon="5.90562">
        <ele>686</ele>
        <time>2020-10-05T12:27:56.000Z</time>
      </trkpt>
      <trkpt lat="44.00052" lon="5.90562">
        <ele>686</ele>
        <time>2020-10-05T12:27:57.000Z</time>
      </trkpt>
      <trkpt lat="44.00051" lon="5.90561">
        <ele>686</ele>
        <time>2020-10-05T12:27:58.000Z</time>
      </trkpt>
      <trkpt lat="44.0005" lon="5.90561">
        <ele>686</ele>
        <time>2020-10-05T12:27:59.000Z</time>
      </trkpt>
      <trkpt lat="44.00049" lon="5.9056">
        <ele>686</ele>
        <time>2020-10-05T12:28:00.000Z</time>
      </trkpt>
      <trkpt lat="44.00048" lon="5.90559">
        <ele>686</ele>
        <time>2020-10-05T12:28:01.000Z</time>
      </trkpt>
      <trkpt lat="44.00047" lon="5.90559">
        <ele>686</ele>
        <time>2020-10-05T12:28:02.000Z</time>
      </trkpt>
      <trkpt lat="44.00046" lon="5.90558">
        <ele>685</ele>
        <time>2020-10-05T12:28:03.000Z</time>
      </trkpt>
      <trkpt lat="44.00045" lon="5.90557">
        <ele>685</ele>
        <time>2020-10-05T12:28:04.000Z</time>
      </trkpt>
      <trkpt lat="44.00044" lon="5.90557">
        <ele>685</ele>
        <time>2020-10-05T12:28:05.000Z</time>
      </trkpt>
      <trkpt lat="44.00043" lon="5.90557">
        <ele>685</ele>
        <time>2020-10-05T12:28:06.000Z</time>
      </trkpt>
      <trkpt lat="44.00042" lon="5.90557">
        <ele>685</ele>
        <time>2020-10-05T12:28:07.000Z</time>
      </trkpt>
      <trkpt lat="44.00041" lon="5.90556">
        <ele>685</ele>
        <time>2020-10-05T12:28:08.000Z</time>
      </trkpt>
      <trkpt lat="44.0004" lon="5.90555">
        <ele>685</ele>
        <time>2020-10-05T12:28:09.000Z</time>
      </trkpt>
      <trkpt lat="44.00039" lon="5.90555">
        <ele>685</ele>
        <time>2020-10-05T12:28:10.000Z</time>
      </trkpt>
      <trkpt lat="44.00038" lon="5.90554">
        <ele>685</ele>
        <time>2020-10-05T12:28:11.000Z</time>
      </trkpt>
      <trkpt lat="44.00037" lon="5.90553">
        <ele>684</ele>
        <time>2020-10-05T12:28:12.000Z</time>
      </trkpt>
      <trkpt lat="44.00036" lon="5.90553">
        <ele>684</ele>
        <time>2020-10-05T12:28:13.000Z</time>
      </trkpt>
      <trkpt lat="44.00035" lon="5.90552">
        <ele>684</ele>
        <time>2020-10-05T12:28:14.000Z</time>
      </trkpt>
      <trkpt lat="44.00034" lon="5.90552">
        <ele>684</ele>
        <time>2020-10-05T12:28:15.000Z</time>
      </trkpt>
      <trkpt lat="44.00032" lon="5.90552">
        <ele>684</ele>
        <time>2020-10-05T12:28:16.000Z</time>
      </trkpt>
      <trkpt lat="44.00031" lon="5.90551">
        <ele>684</ele>
        <time>2020-10-05T12:28:17.000Z</time>
      </trkpt>
      <trkpt lat="44.0003" lon="5.90551">
        <ele>684</ele>
        <time>2020-10-05T12:28:18.000Z</time>
      </trkpt>
      <trkpt lat="44.00029" lon="5.9055">
        <ele>684</ele>
        <time>2020-10-05T12:28:19.000Z</time>
      </trkpt>
      <trkpt lat="44.00028" lon="5.9055">
        <ele>685</ele>
        <time>2020-10-05T12:28:20.000Z</time>
      </trkpt>
      <trkpt lat="44.00028" lon="5.90549">
        <ele>685</ele>
        <time>2020-10-05T12:28:21.000Z</time>
      </trkpt>
      <trkpt lat="44.00027" lon="5.90549">
        <ele>685</ele>
        <time>2020-10-05T12:28:22.000Z</time>
      </trkpt>
      <trkpt lat="44.00026" lon="5.90548">
        <ele>685</ele>
        <time>2020-10-05T12:28:23.000Z</time>
      </trkpt>
      <trkpt lat="44.00025" lon="5.90548">
        <ele>685</ele>
        <time>2020-10-05T12:28:24.000Z</time>
      </trkpt>
      <trkpt lat="44.00024" lon="5.90547">
        <ele>685</ele>
        <time>2020-10-05T12:28:25.000Z</time>
      </trkpt>
      <trkpt lat="44.00023" lon="5.90547">
        <ele>685</ele>
        <time>2020-10-05T12:28:26.000Z</time>
      </trkpt>
      <trkpt lat="44.00022" lon="5.90546">
        <ele>685</ele>
        <time>2020-10-05T12:28:27.000Z</time>
      </trkpt>
      <trkpt lat="44.00021" lon="5.90545">
        <ele>685</ele>
        <time>2020-10-05T12:28:28.000Z</time>
      </trkpt>
      <trkpt lat="44.0002" lon="5.90544">
        <ele>685</ele>
        <time>2020-10-05T12:28:29.000Z</time>
      </trkpt>
      <trkpt lat="44.0002" lon="5.90543">
        <ele>685</ele>
        <time>2020-10-05T12:28:30.000Z</time>
      </trkpt>
      <trkpt lat="44.00019" lon="5.90542">
        <ele>685</ele>
        <time>2020-10-05T12:28:31.000Z</time>
      </trkpt>
      <trkpt lat="44.00018" lon="5.90541">
        <ele>685</ele>
        <time>2020-10-05T12:28:32.000Z</time>
      </trkpt>
      <trkpt lat="44.00017" lon="5.9054">
        <ele>685</ele>
        <time>2020-10-05T12:28:33.000Z</time>
      </trkpt>
      <trkpt lat="44.00015" lon="5.9054">
        <ele>685</ele>
        <time>2020-10-05T12:28:34.000Z</time>
      </trkpt>
      <trkpt lat="44.00015" lon="5.90539">
        <ele>685</ele>
        <time>2020-10-05T12:28:35.000Z</time>
      </trkpt>
      <trkpt lat="44.00014" lon="5.90539">
        <ele>685</ele>
        <time>2020-10-05T12:28:36.000Z</time>
      </trkpt>
      <trkpt lat="44.00013" lon="5.90539">
        <ele>685</ele>
        <time>2020-10-05T12:28:37.000Z</time>
      </trkpt>
      <trkpt lat="44.00012" lon="5.90538">
        <ele>685</ele>
        <time>2020-10-05T12:28:38.000Z</time>
      </trkpt>
      <trkpt lat="44.00011" lon="5.90537">
        <ele>685</ele>
        <time>2020-10-05T12:28:39.000Z</time>
      </trkpt>
      <trkpt lat="44.0001" lon="5.90537">
        <ele>685</ele>
        <time>2020-10-05T12:28:40.000Z</time>
      </trkpt>
      <trkpt lat="44.00009" lon="5.90536">
        <ele>685</ele>
        <time>2020-10-05T12:28:41.000Z</time>
      </trkpt>
      <trkpt lat="44.00008" lon="5.90535">
        <ele>685</ele>
        <time>2020-10-05T12:28:42.000Z</time>
      </trkpt>
      <trkpt lat="44.00007" lon="5.90534">
        <ele>685</ele>
        <time>2020-10-05T12:28:43.000Z</time>
      </trkpt>
      <trkpt lat="44.00006" lon="5.90533">
        <ele>685</ele>
        <time>2020-10-05T12:28:44.000Z</time>
      </trkpt>
      <trkpt lat="44.00005" lon="5.90532">
        <ele>685</ele>
        <time>2020-10-05T12:28:45.000Z</time>
      </trkpt>
      <trkpt lat="44.00004" lon="5.90531">
        <ele>685</ele>
        <time>2020-10-05T12:28:46.000Z</time>
      </trkpt>
      <trkpt lat="44.00002" lon="5.9053">
        <ele>684</ele>
        <time>2020-10-05T12:28:47.000Z</time>
      </trkpt>
      <trkpt lat="44.00001" lon="5.9053">
        <ele>684</ele>
        <time>2020-10-05T12:28:48.000Z</time>
      </trkpt>
      <trkpt lat="44" lon="5.90529">
        <ele>684</ele>
        <time>2020-10-05T12:28:49.000Z</time>
      </trkpt>
      <trkpt lat="43.99999" lon="5.90529">
        <ele>684</ele>
        <time>2020-10-05T12:28:50.000Z</time>
      </trkpt>
      <trkpt lat="43.99998" lon="5.90529">
        <ele>684</ele>
        <time>2020-10-05T12:28:51.000Z</time>
      </trkpt>
      <trkpt lat="43.99997" lon="5.90529">
        <ele>684</ele>
        <time>2020-10-05T12:28:52.000Z</time>
      </trkpt>
      <trkpt lat="43.99995" lon="5.90529">
        <ele>684</ele>
        <time>2020-10-05T12:28:53.000Z</time>
      </trkpt>
      <trkpt lat="43.99994" lon="5.90529">
        <ele>683</ele>
        <time>2020-10-05T12:28:54.000Z</time>
      </trkpt>
      <trkpt lat="43.99993" lon="5.90529">
        <ele>683</ele>
        <time>2020-10-05T12:28:55.000Z</time>
      </trkpt>
      <trkpt lat="43.99992" lon="5.9053">
        <ele>683</ele>
        <time>2020-10-05T12:28:56.000Z</time>
      </trkpt>
      <trkpt lat="43.99991" lon="5.90531">
        <ele>683</ele>
        <time>2020-10-05T12:28:57.000Z</time>
      </trkpt>
      <trkpt lat="43.9999" lon="5.90531">
        <ele>683</ele>
        <time>2020-10-05T12:28:58.000Z</time>
      </trkpt>
      <trkpt lat="43.99989" lon="5.90531">
        <ele>683</ele>
        <time>2020-10-05T12:28:59.000Z</time>
      </trkpt>
      <trkpt lat="43.99988" lon="5.90531">
        <ele>683</ele>
        <time>2020-10-05T12:29:00.000Z</time>
      </trkpt>
      <trkpt lat="43.99987" lon="5.90531">
        <ele>683</ele>
        <time>2020-10-05T12:29:01.000Z</time>
      </trkpt>
      <trkpt lat="43.99986" lon="5.90531">
        <ele>683</ele>
        <time>2020-10-05T12:29:02.000Z</time>
      </trkpt>
      <trkpt lat="43.99985" lon="5.9053">
        <ele>683</ele>
        <time>2020-10-05T12:29:03.000Z</time>
      </trkpt>
      <trkpt lat="43.99984" lon="5.9053">
        <ele>683</ele>
        <time>2020-10-05T12:29:04.000Z</time>
      </trkpt>
      <trkpt lat="43.99983" lon="5.9053">
        <ele>683</ele>
        <time>2020-10-05T12:29:05.000Z</time>
      </trkpt>
      <trkpt lat="43.99982" lon="5.90529">
        <ele>683</ele>
        <time>2020-10-05T12:29:06.000Z</time>
      </trkpt>
      <trkpt lat="43.99981" lon="5.90529">
        <ele>683</ele>
        <time>2020-10-05T12:29:07.000Z</time>
      </trkpt>
      <trkpt lat="43.9998" lon="5.90529">
        <ele>683</ele>
        <time>2020-10-05T12:29:08.000Z</time>
      </trkpt>
      <trkpt lat="43.99979" lon="5.90529">
        <ele>682</ele>
        <time>2020-10-05T12:29:09.000Z</time>
      </trkpt>
      <trkpt lat="43.99978" lon="5.90529">
        <ele>682</ele>
        <time>2020-10-05T12:29:10.000Z</time>
      </trkpt>
      <trkpt lat="43.99976" lon="5.90528">
        <ele>682</ele>
        <time>2020-10-05T12:29:11.000Z</time>
      </trkpt>
      <trkpt lat="43.99975" lon="5.90528">
        <ele>682</ele>
        <time>2020-10-05T12:29:12.000Z</time>
      </trkpt>
      <trkpt lat="43.99974" lon="5.90528">
        <ele>682</ele>
        <time>2020-10-05T12:29:13.000Z</time>
      </trkpt>
      <trkpt lat="43.99973" lon="5.90528">
        <ele>682</ele>
        <time>2020-10-05T12:29:14.000Z</time>
      </trkpt>
      <trkpt lat="43.99972" lon="5.90527">
        <ele>681</ele>
        <time>2020-10-05T12:29:15.000Z</time>
      </trkpt>
      <trkpt lat="43.99971" lon="5.90527">
        <ele>681</ele>
        <time>2020-10-05T12:29:16.000Z</time>
      </trkpt>
      <trkpt lat="43.9997" lon="5.90527">
        <ele>681</ele>
        <time>2020-10-05T12:29:17.000Z</time>
      </trkpt>
      <trkpt lat="43.99969" lon="5.90528">
        <ele>681</ele>
        <time>2020-10-05T12:29:18.000Z</time>
      </trkpt>
      <trkpt lat="43.99968" lon="5.90528">
        <ele>681</ele>
        <time>2020-10-05T12:29:19.000Z</time>
      </trkpt>
      <trkpt lat="43.99967" lon="5.90529">
        <ele>681</ele>
        <time>2020-10-05T12:29:20.000Z</time>
      </trkpt>
      <trkpt lat="43.99966" lon="5.90529">
        <ele>680</ele>
        <time>2020-10-05T12:29:21.000Z</time>
      </trkpt>
      <trkpt lat="43.99965" lon="5.9053">
        <ele>680</ele>
        <time>2020-10-05T12:29:22.000Z</time>
      </trkpt>
      <trkpt lat="43.99964" lon="5.90531">
        <ele>680</ele>
        <time>2020-10-05T12:29:23.000Z</time>
      </trkpt>
      <trkpt lat="43.99963" lon="5.90531">
        <ele>680</ele>
        <time>2020-10-05T12:29:24.000Z</time>
      </trkpt>
      <trkpt lat="43.99961" lon="5.90531">
        <ele>680</ele>
        <time>2020-10-05T12:29:25.000Z</time>
      </trkpt>
      <trkpt lat="43.9996" lon="5.90532">
        <ele>680</ele>
        <time>2020-10-05T12:29:26.000Z</time>
      </trkpt>
      <trkpt lat="43.99959" lon="5.90532">
        <ele>680</ele>
        <time>2020-10-05T12:29:27.000Z</time>
      </trkpt>
      <trkpt lat="43.99958" lon="5.90532">
        <ele>680</ele>
        <time>2020-10-05T12:29:28.000Z</time>
      </trkpt>
      <trkpt lat="43.99957" lon="5.90533">
        <ele>679</ele>
        <time>2020-10-05T12:29:29.000Z</time>
      </trkpt>
      <trkpt lat="43.99956" lon="5.90533">
        <ele>679</ele>
        <time>2020-10-05T12:29:30.000Z</time>
      </trkpt>
      <trkpt lat="43.99955" lon="5.90534">
        <ele>679</ele>
        <time>2020-10-05T12:29:31.000Z</time>
      </trkpt>
      <trkpt lat="43.99954" lon="5.90535">
        <ele>679</ele>
        <time>2020-10-05T12:29:32.000Z</time>
      </trkpt>
      <trkpt lat="43.99953" lon="5.90535">
        <ele>679</ele>
        <time>2020-10-05T12:29:33.000Z</time>
      </trkpt>
      <trkpt lat="43.99952" lon="5.90535">
        <ele>679</ele>
        <time>2020-10-05T12:29:34.000Z</time>
      </trkpt>
      <trkpt lat="43.99951" lon="5.90536">
        <ele>679</ele>
        <time>2020-10-05T12:29:35.000Z</time>
      </trkpt>
      <trkpt lat="43.99949" lon="5.90536">
        <ele>679</ele>
        <time>2020-10-05T12:29:36.000Z</time>
      </trkpt>
      <trkpt lat="43.99948" lon="5.90536">
        <ele>679</ele>
        <time>2020-10-05T12:29:37.000Z</time>
      </trkpt>
      <trkpt lat="43.99947" lon="5.90536">
        <ele>678</ele>
        <time>2020-10-05T12:29:38.000Z</time>
      </trkpt>
      <trkpt lat="43.99946" lon="5.90536">
        <ele>678</ele>
        <time>2020-10-05T12:29:39.000Z</time>
      </trkpt>
      <trkpt lat="43.99945" lon="5.90536">
        <ele>678</ele>
        <time>2020-10-05T12:29:40.000Z</time>
      </trkpt>
      <trkpt lat="43.99944" lon="5.90535">
        <ele>678</ele>
        <time>2020-10-05T12:29:41.000Z</time>
      </trkpt>
      <trkpt lat="43.99942" lon="5.90535">
        <ele>678</ele>
        <time>2020-10-05T12:29:42.000Z</time>
      </trkpt>
      <trkpt lat="43.99941" lon="5.90535">
        <ele>678</ele>
        <time>2020-10-05T12:29:43.000Z</time>
      </trkpt>
      <trkpt lat="43.9994" lon="5.90535">
        <ele>678</ele>
        <time>2020-10-05T12:29:44.000Z</time>
      </trkpt>
      <trkpt lat="43.99939" lon="5.90535">
        <ele>678</ele>
        <time>2020-10-05T12:29:45.000Z</time>
      </trkpt>
      <trkpt lat="43.99937" lon="5.90535">
        <ele>678</ele>
        <time>2020-10-05T12:29:46.000Z</time>
      </trkpt>
      <trkpt lat="43.99936" lon="5.90535">
        <ele>678</ele>
        <time>2020-10-05T12:29:47.000Z</time>
      </trkpt>
      <trkpt lat="43.99935" lon="5.90535">
        <ele>678</ele>
        <time>2020-10-05T12:29:48.000Z</time>
      </trkpt>
      <trkpt lat="43.99934" lon="5.90535">
        <ele>677</ele>
        <time>2020-10-05T12:29:49.000Z</time>
      </trkpt>
      <trkpt lat="43.99933" lon="5.90536">
        <ele>677</ele>
        <time>2020-10-05T12:29:50.000Z</time>
      </trkpt>
      <trkpt lat="43.99932" lon="5.90537">
        <ele>677</ele>
        <time>2020-10-05T12:29:51.000Z</time>
      </trkpt>
      <trkpt lat="43.99931" lon="5.90538">
        <ele>677</ele>
        <time>2020-10-05T12:29:52.000Z</time>
      </trkpt>
      <trkpt lat="43.99929" lon="5.90538">
        <ele>677</ele>
        <time>2020-10-05T12:29:53.000Z</time>
      </trkpt>
      <trkpt lat="43.99928" lon="5.90539">
        <ele>677</ele>
        <time>2020-10-05T12:29:54.000Z</time>
      </trkpt>
      <trkpt lat="43.99927" lon="5.9054">
        <ele>677</ele>
        <time>2020-10-05T12:29:55.000Z</time>
      </trkpt>
      <trkpt lat="43.99927" lon="5.9054">
        <ele>677</ele>
        <time>2020-10-05T12:29:56.000Z</time>
      </trkpt>
      <trkpt lat="43.99926" lon="5.9054">
        <ele>677</ele>
        <time>2020-10-05T12:29:57.000Z</time>
      </trkpt>
      <trkpt lat="43.99925" lon="5.9054">
        <ele>677</ele>
        <time>2020-10-05T12:29:58.000Z</time>
      </trkpt>
      <trkpt lat="43.99924" lon="5.9054">
        <ele>677</ele>
        <time>2020-10-05T12:29:59.000Z</time>
      </trkpt>
      <trkpt lat="43.99922" lon="5.9054">
        <ele>677</ele>
        <time>2020-10-05T12:30:00.000Z</time>
      </trkpt>
      <trkpt lat="43.99921" lon="5.9054">
        <ele>677</ele>
        <time>2020-10-05T12:30:01.000Z</time>
      </trkpt>
      <trkpt lat="43.9992" lon="5.9054">
        <ele>677</ele>
        <time>2020-10-05T12:30:02.000Z</time>
      </trkpt>
      <trkpt lat="43.99919" lon="5.9054">
        <ele>677</ele>
        <time>2020-10-05T12:30:03.000Z</time>
      </trkpt>
      <trkpt lat="43.99917" lon="5.9054">
        <ele>677</ele>
        <time>2020-10-05T12:30:04.000Z</time>
      </trkpt>
      <trkpt lat="43.99916" lon="5.9054">
        <ele>677</ele>
        <time>2020-10-05T12:30:05.000Z</time>
      </trkpt>
      <trkpt lat="43.99915" lon="5.90541">
        <ele>676</ele>
        <time>2020-10-05T12:30:06.000Z</time>
      </trkpt>
      <trkpt lat="43.99914" lon="5.90542">
        <ele>676</ele>
        <time>2020-10-05T12:30:07.000Z</time>
      </trkpt>
      <trkpt lat="43.99913" lon="5.90543">
        <ele>676</ele>
        <time>2020-10-05T12:30:08.000Z</time>
      </trkpt>
      <trkpt lat="43.99912" lon="5.90543">
        <ele>676</ele>
        <time>2020-10-05T12:30:09.000Z</time>
      </trkpt>
      <trkpt lat="43.99911" lon="5.90544">
        <ele>676</ele>
        <time>2020-10-05T12:30:10.000Z</time>
      </trkpt>
      <trkpt lat="43.9991" lon="5.90545">
        <ele>676</ele>
        <time>2020-10-05T12:30:11.000Z</time>
      </trkpt>
      <trkpt lat="43.99909" lon="5.90547">
        <ele>676</ele>
        <time>2020-10-05T12:30:12.000Z</time>
      </trkpt>
      <trkpt lat="43.99909" lon="5.90548">
        <ele>676</ele>
        <time>2020-10-05T12:30:13.000Z</time>
      </trkpt>
      <trkpt lat="43.99908" lon="5.90549">
        <ele>676</ele>
        <time>2020-10-05T12:30:14.000Z</time>
      </trkpt>
      <trkpt lat="43.99907" lon="5.9055">
        <ele>675</ele>
        <time>2020-10-05T12:30:15.000Z</time>
      </trkpt>
      <trkpt lat="43.99906" lon="5.9055">
        <ele>675</ele>
        <time>2020-10-05T12:30:16.000Z</time>
      </trkpt>
      <trkpt lat="43.99905" lon="5.90551">
        <ele>675</ele>
        <time>2020-10-05T12:30:17.000Z</time>
      </trkpt>
      <trkpt lat="43.99904" lon="5.90551">
        <ele>675</ele>
        <time>2020-10-05T12:30:18.000Z</time>
      </trkpt>
      <trkpt lat="43.99903" lon="5.90552">
        <ele>674</ele>
        <time>2020-10-05T12:30:19.000Z</time>
      </trkpt>
      <trkpt lat="43.99902" lon="5.90552">
        <ele>674</ele>
        <time>2020-10-05T12:30:20.000Z</time>
      </trkpt>
      <trkpt lat="43.99901" lon="5.90553">
        <ele>674</ele>
        <time>2020-10-05T12:30:21.000Z</time>
      </trkpt>
      <trkpt lat="43.999" lon="5.90554">
        <ele>674</ele>
        <time>2020-10-05T12:30:22.000Z</time>
      </trkpt>
      <trkpt lat="43.99899" lon="5.90554">
        <ele>674</ele>
        <time>2020-10-05T12:30:23.000Z</time>
      </trkpt>
      <trkpt lat="43.99898" lon="5.90555">
        <ele>674</ele>
        <time>2020-10-05T12:30:24.000Z</time>
      </trkpt>
      <trkpt lat="43.99897" lon="5.90555">
        <ele>673</ele>
        <time>2020-10-05T12:30:25.000Z</time>
      </trkpt>
      <trkpt lat="43.99896" lon="5.90555">
        <ele>673</ele>
        <time>2020-10-05T12:30:26.000Z</time>
      </trkpt>
      <trkpt lat="43.99896" lon="5.90556">
        <ele>673</ele>
        <time>2020-10-05T12:30:27.000Z</time>
      </trkpt>
      <trkpt lat="43.99896" lon="5.90555">
        <ele>673</ele>
        <time>2020-10-05T12:30:28.000Z</time>
      </trkpt>
      <trkpt lat="43.99896" lon="5.90555">
        <ele>673</ele>
        <time>2020-10-05T12:30:29.000Z</time>
      </trkpt>
      <trkpt lat="43.99896" lon="5.90555">
        <ele>673</ele>
        <time>2020-10-05T12:30:30.000Z</time>
      </trkpt>
      <trkpt lat="43.99896" lon="5.90555">
        <ele>673</ele>
        <time>2020-10-05T12:30:31.000Z</time>
      </trkpt>
      <trkpt lat="43.99896" lon="5.90555">
        <ele>673</ele>
        <time>2020-10-05T12:30:32.000Z</time>
      </trkpt>
      <trkpt lat="43.99895" lon="5.90555">
        <ele>673</ele>
        <time>2020-10-05T12:30:33.000Z</time>
      </trkpt>
      <trkpt lat="43.99895" lon="5.90555">
        <ele>673</ele>
        <time>2020-10-05T12:30:34.000Z</time>
      </trkpt>
      <trkpt lat="43.99894" lon="5.90555">
        <ele>673</ele>
        <time>2020-10-05T12:30:35.000Z</time>
      </trkpt>
      <trkpt lat="43.99893" lon="5.90555">
        <ele>673</ele>
        <time>2020-10-05T12:30:36.000Z</time>
      </trkpt>
      <trkpt lat="43.99893" lon="5.90555">
        <ele>673</ele>
        <time>2020-10-05T12:30:37.000Z</time>
      </trkpt>
      <trkpt lat="43.99892" lon="5.90555">
        <ele>673</ele>
        <time>2020-10-05T12:30:38.000Z</time>
      </trkpt>
      <trkpt lat="43.99892" lon="5.90555">
        <ele>673</ele>
        <time>2020-10-05T12:30:39.000Z</time>
      </trkpt>
      <trkpt lat="43.99892" lon="5.90555">
        <ele>673</ele>
        <time>2020-10-05T12:30:40.000Z</time>
      </trkpt>
      <trkpt lat="43.99892" lon="5.90555">
        <ele>673</ele>
        <time>2020-10-05T12:30:41.000Z</time>
      </trkpt>
      <trkpt lat="43.99892" lon="5.90555">
        <ele>673</ele>
        <time>2020-10-05T12:30:42.000Z</time>
      </trkpt>
      <trkpt lat="43.99892" lon="5.90555">
        <ele>673</ele>
        <time>2020-10-05T12:30:43.000Z</time>
      </trkpt>
      <trkpt lat="43.99892" lon="5.90554">
        <ele>673</ele>
        <time>2020-10-05T12:30:44.000Z</time>
      </trkpt>
      <trkpt lat="43.99892" lon="5.90554">
        <ele>673</ele>
        <time>2020-10-05T12:30:45.000Z</time>
      </trkpt>
      <trkpt lat="43.99892" lon="5.90554">
        <ele>673</ele>
        <time>2020-10-05T12:30:46.000Z</time>
      </trkpt>
      <trkpt lat="43.99891" lon="5.90554">
        <ele>673</ele>
        <time>2020-10-05T12:30:47.000Z</time>
      </trkpt>
      <trkpt lat="43.99891" lon="5.90554">
        <ele>673</ele>
        <time>2020-10-05T12:30:48.000Z</time>
      </trkpt>
      <trkpt lat="43.99891" lon="5.90554">
        <ele>673</ele>
        <time>2020-10-05T12:30:49.000Z</time>
      </trkpt>
      <trkpt lat="43.99891" lon="5.90554">
        <ele>673</ele>
        <time>2020-10-05T12:30:50.000Z</time>
      </trkpt>
      <trkpt lat="43.99891" lon="5.90554">
        <ele>673</ele>
        <time>2020-10-05T12:30:51.000Z</time>
      </trkpt>
      <trkpt lat="43.99891" lon="5.90554">
        <ele>673</ele>
        <time>2020-10-05T12:30:52.000Z</time>
      </trkpt>
      <trkpt lat="43.99891" lon="5.90554">
        <ele>673</ele>
        <time>2020-10-05T12:30:53.000Z</time>
      </trkpt>
      <trkpt lat="43.99891" lon="5.90554">
        <ele>673</ele>
        <time>2020-10-05T12:30:54.000Z</time>
      </trkpt>
      <trkpt lat="43.99891" lon="5.90554">
        <ele>673</ele>
        <time>2020-10-05T12:30:55.000Z</time>
      </trkpt>
      <trkpt lat="43.99891" lon="5.90554">
        <ele>673</ele>
        <time>2020-10-05T12:30:56.000Z</time>
      </trkpt>
      <trkpt lat="43.99891" lon="5.90554">
        <ele>673</ele>
        <time>2020-10-05T12:30:57.000Z</time>
      </trkpt>
      <trkpt lat="43.99891" lon="5.90554">
        <ele>673</ele>
        <time>2020-10-05T12:30:58.000Z</time>
      </trkpt>
      <trkpt lat="43.99891" lon="5.90554">
        <ele>673</ele>
        <time>2020-10-05T12:30:59.000Z</time>
      </trkpt>
      <trkpt lat="43.99891" lon="5.90554">
        <ele>673</ele>
        <time>2020-10-05T12:31:00.000Z</time>
      </trkpt>
      <trkpt lat="43.99891" lon="5.90554">
        <ele>673</ele>
        <time>2020-10-05T12:31:01.000Z</time>
      </trkpt>
      <trkpt lat="43.99891" lon="5.90554">
        <ele>673</ele>
        <time>2020-10-05T12:31:02.000Z</time>
      </trkpt>
      <trkpt lat="43.9989" lon="5.90553">
        <ele>673</ele>
        <time>2020-10-05T12:31:03.000Z</time>
      </trkpt>
      <trkpt lat="43.9989" lon="5.90553">
        <ele>673</ele>
        <time>2020-10-05T12:31:04.000Z</time>
      </trkpt>
      <trkpt lat="43.9989" lon="5.90553">
        <ele>673</ele>
        <time>2020-10-05T12:31:05.000Z</time>
      </trkpt>
      <trkpt lat="43.99889" lon="5.90553">
        <ele>673</ele>
        <time>2020-10-05T12:31:06.000Z</time>
      </trkpt>
      <trkpt lat="43.99889" lon="5.90553">
        <ele>673</ele>
        <time>2020-10-05T12:31:07.000Z</time>
      </trkpt>
      <trkpt lat="43.99888" lon="5.90553">
        <ele>673</ele>
        <time>2020-10-05T12:31:08.000Z</time>
      </trkpt>
      <trkpt lat="43.99888" lon="5.90553">
        <ele>673</ele>
        <time>2020-10-05T12:31:09.000Z</time>
      </trkpt>
      <trkpt lat="43.99888" lon="5.90553">
        <ele>673</ele>
        <time>2020-10-05T12:31:10.000Z</time>
      </trkpt>
      <trkpt lat="43.99888" lon="5.90553">
        <ele>673</ele>
        <time>2020-10-05T12:31:11.000Z</time>
      </trkpt>
      <trkpt lat="43.99888" lon="5.90553">
        <ele>673</ele>
        <time>2020-10-05T12:31:12.000Z</time>
      </trkpt>
      <trkpt lat="43.99888" lon="5.90553">
        <ele>673</ele>
        <time>2020-10-05T12:31:13.000Z</time>
      </trkpt>
      <trkpt lat="43.99888" lon="5.90553">
        <ele>673</ele>
        <time>2020-10-05T12:31:14.000Z</time>
      </trkpt>
      <trkpt lat="43.99888" lon="5.90553">
        <ele>673</ele>
        <time>2020-10-05T12:31:15.000Z</time>
      </trkpt>
      <trkpt lat="43.99888" lon="5.90553">
        <ele>673</ele>
        <time>2020-10-05T12:31:16.000Z</time>
      </trkpt>
      <trkpt lat="43.99888" lon="5.90553">
        <ele>673</ele>
        <time>2020-10-05T12:31:17.000Z</time>
      </trkpt>
      <trkpt lat="43.99888" lon="5.90553">
        <ele>673</ele>
        <time>2020-10-05T12:31:18.000Z</time>
      </trkpt>
      <trkpt lat="43.99888" lon="5.90553">
        <ele>673</ele>
        <time>2020-10-05T12:31:19.000Z</time>
      </trkpt>
      <trkpt lat="43.99888" lon="5.90553">
        <ele>673</ele>
        <time>2020-10-05T12:31:20.000Z</time>
      </trkpt>
      <trkpt lat="43.99888" lon="5.90553">
        <ele>673</ele>
        <time>2020-10-05T12:31:21.000Z</time>
      </trkpt>
      <trkpt lat="43.99888" lon="5.90553">
        <ele>673</ele>
        <time>2020-10-05T12:31:22.000Z</time>
      </trkpt>
      <trkpt lat="43.99888" lon="5.90553">
        <ele>673</ele>
        <time>2020-10-05T12:31:23.000Z</time>
      </trkpt>
      <trkpt lat="43.99888" lon="5.90553">
        <ele>673</ele>
        <time>2020-10-05T12:31:24.000Z</time>
      </trkpt>
      <trkpt lat="43.99888" lon="5.90553">
        <ele>673</ele>
        <time>2020-10-05T12:31:25.000Z</time>
      </trkpt>
      <trkpt lat="43.99888" lon="5.90553">
        <ele>673</ele>
        <time>2020-10-05T12:31:26.000Z</time>
      </trkpt>
      <trkpt lat="43.99888" lon="5.90553">
        <ele>672</ele>
        <time>2020-10-05T12:31:27.000Z</time>
      </trkpt>
      <trkpt lat="43.99888" lon="5.90553">
        <ele>672</ele>
        <time>2020-10-05T12:31:28.000Z</time>
      </trkpt>
      <trkpt lat="43.99888" lon="5.90553">
        <ele>672</ele>
        <time>2020-10-05T12:31:29.000Z</time>
      </trkpt>
      <trkpt lat="43.99888" lon="5.90553">
        <ele>672</ele>
        <time>2020-10-05T12:31:30.000Z</time>
      </trkpt>
      <trkpt lat="43.99888" lon="5.90553">
        <ele>672</ele>
        <time>2020-10-05T12:31:31.000Z</time>
      </trkpt>
      <trkpt lat="43.99888" lon="5.90553">
        <ele>672</ele>
        <time>2020-10-05T12:31:32.000Z</time>
      </trkpt>
      <trkpt lat="43.99888" lon="5.90553">
        <ele>672</ele>
        <time>2020-10-05T12:31:33.000Z</time>
      </trkpt>
      <trkpt lat="43.99888" lon="5.90553">
        <ele>672</ele>
        <time>2020-10-05T12:31:34.000Z</time>
      </trkpt>
      <trkpt lat="43.99888" lon="5.90553">
        <ele>672</ele>
        <time>2020-10-05T12:31:35.000Z</time>
      </trkpt>
      <trkpt lat="43.99888" lon="5.90553">
        <ele>672</ele>
        <time>2020-10-05T12:31:36.000Z</time>
      </trkpt>
      <trkpt lat="43.99888" lon="5.90553">
        <ele>672</ele>
        <time>2020-10-05T12:31:37.000Z</time>
      </trkpt>
      <trkpt lat="43.99888" lon="5.90553">
        <ele>672</ele>
        <time>2020-10-05T12:31:38.000Z</time>
      </trkpt>
      <trkpt lat="43.99888" lon="5.90553">
        <ele>672</ele>
        <time>2020-10-05T12:31:39.000Z</time>
      </trkpt>
      <trkpt lat="43.99888" lon="5.90553">
        <ele>672</ele>
        <time>2020-10-05T12:31:40.000Z</time>
      </trkpt>
      <trkpt lat="43.99888" lon="5.90553">
        <ele>672</ele>
        <time>2020-10-05T12:31:41.000Z</time>
      </trkpt>
      <trkpt lat="43.99888" lon="5.90553">
        <ele>672</ele>
        <time>2020-10-05T12:31:42.000Z</time>
      </trkpt>
      <trkpt lat="43.99888" lon="5.90553">
        <ele>672</ele>
        <time>2020-10-05T12:31:43.000Z</time>
      </trkpt>
      <trkpt lat="43.99888" lon="5.90553">
        <ele>672</ele>
        <time>2020-10-05T12:31:44.000Z</time>
      </trkpt>
      <trkpt lat="43.99888" lon="5.90553">
        <ele>672</ele>
        <time>2020-10-05T12:31:45.000Z</time>
      </trkpt>
      <trkpt lat="43.99888" lon="5.90553">
        <ele>672</ele>
        <time>2020-10-05T12:31:46.000Z</time>
      </trkpt>
      <trkpt lat="43.99888" lon="5.90553">
        <ele>672</ele>
        <time>2020-10-05T12:31:47.000Z</time>
      </trkpt>
      <trkpt lat="43.99888" lon="5.90553">
        <ele>672</ele>
        <time>2020-10-05T12:31:48.000Z</time>
      </trkpt>
      <trkpt lat="43.99888" lon="5.90553">
        <ele>672</ele>
        <time>2020-10-05T12:31:49.000Z</time>
      </trkpt>
      <trkpt lat="43.99888" lon="5.90553">
        <ele>672</ele>
        <time>2020-10-05T12:31:50.000Z</time>
      </trkpt>
      <trkpt lat="43.99888" lon="5.90553">
        <ele>672</ele>
        <time>2020-10-05T12:31:51.000Z</time>
      </trkpt>
      <trkpt lat="43.99888" lon="5.90553">
        <ele>672</ele>
        <time>2020-10-05T12:31:52.000Z</time>
      </trkpt>
      <trkpt lat="43.99888" lon="5.90553">
        <ele>672</ele>
        <time>2020-10-05T12:31:53.000Z</time>
      </trkpt>
      <trkpt lat="43.99888" lon="5.90553">
        <ele>672</ele>
        <time>2020-10-05T12:31:54.000Z</time>
      </trkpt>
      <trkpt lat="43.99888" lon="5.90553">
        <ele>672</ele>
        <time>2020-10-05T12:31:55.000Z</time>
      </trkpt>
      <trkpt lat="43.99888" lon="5.90553">
        <ele>672</ele>
        <time>2020-10-05T12:31:56.000Z</time>
      </trkpt>
      <trkpt lat="43.99888" lon="5.90553">
        <ele>672</ele>
        <time>2020-10-05T12:31:57.000Z</time>
      </trkpt>
      <trkpt lat="43.99888" lon="5.90553">
        <ele>672</ele>
        <time>2020-10-05T12:31:58.000Z</time>
      </trkpt>
      <trkpt lat="43.99888" lon="5.90553">
        <ele>672</ele>
        <time>2020-10-05T12:31:59.000Z</time>
      </trkpt>
      <trkpt lat="43.99888" lon="5.90553">
        <ele>672</ele>
        <time>2020-10-05T12:32:00.000Z</time>
      </trkpt>
      <trkpt lat="43.99888" lon="5.90553">
        <ele>672</ele>
        <time>2020-10-05T12:32:01.000Z</time>
      </trkpt>
      <trkpt lat="43.99888" lon="5.90553">
        <ele>672</ele>
        <time>2020-10-05T12:32:02.000Z</time>
      </trkpt>
      <trkpt lat="43.99888" lon="5.90553">
        <ele>672</ele>
        <time>2020-10-05T12:32:03.000Z</time>
      </trkpt>
      <trkpt lat="43.99888" lon="5.90553">
        <ele>672</ele>
        <time>2020-10-05T12:32:04.000Z</time>
      </trkpt>
      <trkpt lat="43.99888" lon="5.90553">
        <ele>672</ele>
        <time>2020-10-05T12:32:05.000Z</time>
      </trkpt>
      <trkpt lat="43.99888" lon="5.90553">
        <ele>672</ele>
        <time>2020-10-05T12:32:06.000Z</time>
      </trkpt>
      <trkpt lat="43.99888" lon="5.90553">
        <ele>672</ele>
        <time>2020-10-05T12:32:07.000Z</time>
      </trkpt>
      <trkpt lat="43.99888" lon="5.90553">
        <ele>672</ele>
        <time>2020-10-05T12:32:08.000Z</time>
      </trkpt>
      <trkpt lat="43.99888" lon="5.90553">
        <ele>672</ele>
        <time>2020-10-05T12:32:09.000Z</time>
      </trkpt>
      <trkpt lat="43.99888" lon="5.90553">
        <ele>672</ele>
        <time>2020-10-05T12:32:10.000Z</time>
      </trkpt>
      <trkpt lat="43.99888" lon="5.90553">
        <ele>672</ele>
        <time>2020-10-05T12:32:11.000Z</time>
      </trkpt>
      <trkpt lat="43.99888" lon="5.90554">
        <ele>672</ele>
        <time>2020-10-05T12:32:12.000Z</time>
      </trkpt>
      <trkpt lat="43.99888" lon="5.90554">
        <ele>672</ele>
        <time>2020-10-05T12:32:13.000Z</time>
      </trkpt>
      <trkpt lat="43.99888" lon="5.90554">
        <ele>672</ele>
        <time>2020-10-05T12:32:14.000Z</time>
      </trkpt>
      <trkpt lat="43.99888" lon="5.90554">
        <ele>672</ele>
        <time>2020-10-05T12:32:15.000Z</time>
      </trkpt>
      <trkpt lat="43.99888" lon="5.90554">
        <ele>672</ele>
        <time>2020-10-05T12:32:16.000Z</time>
      </trkpt>
      <trkpt lat="43.99887" lon="5.90554">
        <ele>672</ele>
        <time>2020-10-05T12:32:17.000Z</time>
      </trkpt>
      <trkpt lat="43.99887" lon="5.90554">
        <ele>672</ele>
        <time>2020-10-05T12:32:18.000Z</time>
      </trkpt>
      <trkpt lat="43.99886" lon="5.90554">
        <ele>672</ele>
        <time>2020-10-05T12:32:19.000Z</time>
      </trkpt>
      <trkpt lat="43.99885" lon="5.90554">
        <ele>672</ele>
        <time>2020-10-05T12:32:20.000Z</time>
      </trkpt>
      <trkpt lat="43.99884" lon="5.90554">
        <ele>672</ele>
        <time>2020-10-05T12:32:21.000Z</time>
      </trkpt>
      <trkpt lat="43.99884" lon="5.90554">
        <ele>672</ele>
        <time>2020-10-05T12:32:22.000Z</time>
      </trkpt>
      <trkpt lat="43.99884" lon="5.90554">
        <ele>672</ele>
        <time>2020-10-05T12:32:23.000Z</time>
      </trkpt>
      <trkpt lat="43.99884" lon="5.90554">
        <ele>672</ele>
        <time>2020-10-05T12:32:24.000Z</time>
      </trkpt>
      <trkpt lat="43.99884" lon="5.90554">
        <ele>672</ele>
        <time>2020-10-05T12:32:25.000Z</time>
      </trkpt>
      <trkpt lat="43.99884" lon="5.90554">
        <ele>672</ele>
        <time>2020-10-05T12:32:26.000Z</time>
      </trkpt>
      <trkpt lat="43.99884" lon="5.90554">
        <ele>672</ele>
        <time>2020-10-05T12:32:27.000Z</time>
      </trkpt>
      <trkpt lat="43.99884" lon="5.90554">
        <ele>672</ele>
        <time>2020-10-05T12:32:28.000Z</time>
      </trkpt>
      <trkpt lat="43.99883" lon="5.90554">
        <ele>672</ele>
        <time>2020-10-05T12:32:29.000Z</time>
      </trkpt>
      <trkpt lat="43.99883" lon="5.90554">
        <ele>672</ele>
        <time>2020-10-05T12:32:30.000Z</time>
      </trkpt>
      <trkpt lat="43.99883" lon="5.90554">
        <ele>672</ele>
        <time>2020-10-05T12:32:31.000Z</time>
      </trkpt>
      <trkpt lat="43.99883" lon="5.90554">
        <ele>672</ele>
        <time>2020-10-05T12:32:32.000Z</time>
      </trkpt>
      <trkpt lat="43.99883" lon="5.90554">
        <ele>672</ele>
        <time>2020-10-05T12:32:33.000Z</time>
      </trkpt>
      <trkpt lat="43.99884" lon="5.90554">
        <ele>671</ele>
        <time>2020-10-05T12:32:34.000Z</time>
      </trkpt>
      <trkpt lat="43.99884" lon="5.90554">
        <ele>671</ele>
        <time>2020-10-05T12:32:35.000Z</time>
      </trkpt>
      <trkpt lat="43.99884" lon="5.90554">
        <ele>671</ele>
        <time>2020-10-05T12:32:36.000Z</time>
      </trkpt>
      <trkpt lat="43.99884" lon="5.90554">
        <ele>671</ele>
        <time>2020-10-05T12:32:37.000Z</time>
      </trkpt>
      <trkpt lat="43.99884" lon="5.90554">
        <ele>671</ele>
        <time>2020-10-05T12:32:38.000Z</time>
      </trkpt>
      <trkpt lat="43.99884" lon="5.90554">
        <ele>671</ele>
        <time>2020-10-05T12:32:39.000Z</time>
      </trkpt>
      <trkpt lat="43.99883" lon="5.90554">
        <ele>671</ele>
        <time>2020-10-05T12:32:40.000Z</time>
      </trkpt>
      <trkpt lat="43.99883" lon="5.90554">
        <ele>671</ele>
        <time>2020-10-05T12:32:41.000Z</time>
      </trkpt>
      <trkpt lat="43.99883" lon="5.90554">
        <ele>671</ele>
        <time>2020-10-05T12:32:42.000Z</time>
      </trkpt>
      <trkpt lat="43.99883" lon="5.90554">
        <ele>671</ele>
        <time>2020-10-05T12:32:43.000Z</time>
      </trkpt>
      <trkpt lat="43.99883" lon="5.90554">
        <ele>671</ele>
        <time>2020-10-05T12:32:44.000Z</time>
      </trkpt>
      <trkpt lat="43.99883" lon="5.90554">
        <ele>671</ele>
        <time>2020-10-05T12:32:45.000Z</time>
      </trkpt>
      <trkpt lat="43.99883" lon="5.90554">
        <ele>671</ele>
        <time>2020-10-05T12:32:46.000Z</time>
      </trkpt>
      <trkpt lat="43.99883" lon="5.90554">
        <ele>671</ele>
        <time>2020-10-05T12:32:47.000Z</time>
      </trkpt>
      <trkpt lat="43.99884" lon="5.90554">
        <ele>671</ele>
        <time>2020-10-05T12:32:48.000Z</time>
      </trkpt>
      <trkpt lat="43.99883" lon="5.90554">
        <ele>671</ele>
        <time>2020-10-05T12:32:49.000Z</time>
      </trkpt>
      <trkpt lat="43.99883" lon="5.90554">
        <ele>671</ele>
        <time>2020-10-05T12:32:50.000Z</time>
      </trkpt>
      <trkpt lat="43.99883" lon="5.90554">
        <ele>671</ele>
        <time>2020-10-05T12:32:51.000Z</time>
      </trkpt>
      <trkpt lat="43.99883" lon="5.90554">
        <ele>671</ele>
        <time>2020-10-05T12:32:52.000Z</time>
      </trkpt>
      <trkpt lat="43.99883" lon="5.90554">
        <ele>671</ele>
        <time>2020-10-05T12:32:53.000Z</time>
      </trkpt>
      <trkpt lat="43.99883" lon="5.90554">
        <ele>671</ele>
        <time>2020-10-05T12:32:54.000Z</time>
      </trkpt>
      <trkpt lat="43.99883" lon="5.90554">
        <ele>671</ele>
        <time>2020-10-05T12:32:55.000Z</time>
      </trkpt>
      <trkpt lat="43.99883" lon="5.90554">
        <ele>671</ele>
        <time>2020-10-05T12:32:56.000Z</time>
      </trkpt>
      <trkpt lat="43.99883" lon="5.90554">
        <ele>671</ele>
        <time>2020-10-05T12:32:57.000Z</time>
      </trkpt>
      <trkpt lat="43.99883" lon="5.90554">
        <ele>671</ele>
        <time>2020-10-05T12:32:58.000Z</time>
      </trkpt>
      <trkpt lat="43.99883" lon="5.90554">
        <ele>671</ele>
        <time>2020-10-05T12:32:59.000Z</time>
      </trkpt>
      <trkpt lat="43.99884" lon="5.90554">
        <ele>671</ele>
        <time>2020-10-05T12:33:00.000Z</time>
      </trkpt>
      <trkpt lat="43.99884" lon="5.90554">
        <ele>672</ele>
        <time>2020-10-05T12:33:01.000Z</time>
      </trkpt>
      <trkpt lat="43.99884" lon="5.90554">
        <ele>672</ele>
        <time>2020-10-05T12:33:02.000Z</time>
      </trkpt>
      <trkpt lat="43.99884" lon="5.90554">
        <ele>671</ele>
        <time>2020-10-05T12:33:03.000Z</time>
      </trkpt>
      <trkpt lat="43.99884" lon="5.90554">
        <ele>671</ele>
        <time>2020-10-05T12:33:04.000Z</time>
      </trkpt>
      <trkpt lat="43.99884" lon="5.90554">
        <ele>671</ele>
        <time>2020-10-05T12:33:05.000Z</time>
      </trkpt>
      <trkpt lat="43.99884" lon="5.90554">
        <ele>671</ele>
        <time>2020-10-05T12:33:06.000Z</time>
      </trkpt>
      <trkpt lat="43.99884" lon="5.90554">
        <ele>671</ele>
        <time>2020-10-05T12:33:07.000Z</time>
      </trkpt>
      <trkpt lat="43.99884" lon="5.90554">
        <ele>671</ele>
        <time>2020-10-05T12:33:08.000Z</time>
      </trkpt>
      <trkpt lat="43.99884" lon="5.90554">
        <ele>671</ele>
        <time>2020-10-05T12:33:09.000Z</time>
      </trkpt>
      <trkpt lat="43.99884" lon="5.90553">
        <ele>671</ele>
        <time>2020-10-05T12:33:10.000Z</time>
      </trkpt>
      <trkpt lat="43.99884" lon="5.90553">
        <ele>671</ele>
        <time>2020-10-05T12:33:11.000Z</time>
      </trkpt>
      <trkpt lat="43.99884" lon="5.90552">
        <ele>671</ele>
        <time>2020-10-05T12:33:12.000Z</time>
      </trkpt>
      <trkpt lat="43.99884" lon="5.90552">
        <ele>671</ele>
        <time>2020-10-05T12:33:13.000Z</time>
      </trkpt>
      <trkpt lat="43.99884" lon="5.90551">
        <ele>671</ele>
        <time>2020-10-05T12:33:14.000Z</time>
      </trkpt>
      <trkpt lat="43.99884" lon="5.90551">
        <ele>671</ele>
        <time>2020-10-05T12:33:15.000Z</time>
      </trkpt>
      <trkpt lat="43.99884" lon="5.90551">
        <ele>671</ele>
        <time>2020-10-05T12:33:16.000Z</time>
      </trkpt>
      <trkpt lat="43.99885" lon="5.90551">
        <ele>672</ele>
        <time>2020-10-05T12:33:17.000Z</time>
      </trkpt>
      <trkpt lat="43.99885" lon="5.90551">
        <ele>672</ele>
        <time>2020-10-05T12:33:18.000Z</time>
      </trkpt>
      <trkpt lat="43.99885" lon="5.90552">
        <ele>671</ele>
        <time>2020-10-05T12:33:19.000Z</time>
      </trkpt>
      <trkpt lat="43.99885" lon="5.90552">
        <ele>671</ele>
        <time>2020-10-05T12:33:20.000Z</time>
      </trkpt>
      <trkpt lat="43.99885" lon="5.90552">
        <ele>671</ele>
        <time>2020-10-05T12:33:21.000Z</time>
      </trkpt>
      <trkpt lat="43.99885" lon="5.90552">
        <ele>672</ele>
        <time>2020-10-05T12:33:22.000Z</time>
      </trkpt>
      <trkpt lat="43.99885" lon="5.90552">
        <ele>672</ele>
        <time>2020-10-05T12:33:23.000Z</time>
      </trkpt>
      <trkpt lat="43.99885" lon="5.90552">
        <ele>672</ele>
        <time>2020-10-05T12:33:24.000Z</time>
      </trkpt>
      <trkpt lat="43.99885" lon="5.90552">
        <ele>672</ele>
        <time>2020-10-05T12:33:25.000Z</time>
      </trkpt>
      <trkpt lat="43.99885" lon="5.90552">
        <ele>672</ele>
        <time>2020-10-05T12:33:26.000Z</time>
      </trkpt>
      <trkpt lat="43.99885" lon="5.90552">
        <ele>672</ele>
        <time>2020-10-05T12:33:27.000Z</time>
      </trkpt>
      <trkpt lat="43.99885" lon="5.90552">
        <ele>672</ele>
        <time>2020-10-05T12:33:28.000Z</time>
      </trkpt>
      <trkpt lat="43.99885" lon="5.90552">
        <ele>672</ele>
        <time>2020-10-05T12:33:29.000Z</time>
      </trkpt>
      <trkpt lat="43.99885" lon="5.90552">
        <ele>672</ele>
        <time>2020-10-05T12:33:30.000Z</time>
      </trkpt>
      <trkpt lat="43.99885" lon="5.90552">
        <ele>672</ele>
        <time>2020-10-05T12:33:31.000Z</time>
      </trkpt>
      <trkpt lat="43.99885" lon="5.90552">
        <ele>672</ele>
        <time>2020-10-05T12:33:32.000Z</time>
      </trkpt>
      <trkpt lat="43.99885" lon="5.90552">
        <ele>672</ele>
        <time>2020-10-05T12:33:33.000Z</time>
      </trkpt>
      <trkpt lat="43.99885" lon="5.90552">
        <ele>672</ele>
        <time>2020-10-05T12:33:34.000Z</time>
      </trkpt>
      <trkpt lat="43.99885" lon="5.90552">
        <ele>672</ele>
        <time>2020-10-05T12:33:35.000Z</time>
      </trkpt>
      <trkpt lat="43.99885" lon="5.90552">
        <ele>672</ele>
        <time>2020-10-05T12:33:36.000Z</time>
      </trkpt>
      <trkpt lat="43.99885" lon="5.90552">
        <ele>672</ele>
        <time>2020-10-05T12:33:37.000Z</time>
      </trkpt>
      <trkpt lat="43.99885" lon="5.90553">
        <ele>672</ele>
        <time>2020-10-05T12:33:38.000Z</time>
      </trkpt>
      <trkpt lat="43.99885" lon="5.90552">
        <ele>672</ele>
        <time>2020-10-05T12:33:39.000Z</time>
      </trkpt>
      <trkpt lat="43.99885" lon="5.90553">
        <ele>672</ele>
        <time>2020-10-05T12:33:40.000Z</time>
      </trkpt>
      <trkpt lat="43.99885" lon="5.90552">
        <ele>672</ele>
        <time>2020-10-05T12:33:41.000Z</time>
      </trkpt>
      <trkpt lat="43.99885" lon="5.90553">
        <ele>672</ele>
        <time>2020-10-05T12:33:42.000Z</time>
      </trkpt>
      <trkpt lat="43.99886" lon="5.90553">
        <ele>672</ele>
        <time>2020-10-05T12:33:43.000Z</time>
      </trkpt>
      <trkpt lat="43.99886" lon="5.90553">
        <ele>672</ele>
        <time>2020-10-05T12:33:44.000Z</time>
      </trkpt>
      <trkpt lat="43.99886" lon="5.90553">
        <ele>672</ele>
        <time>2020-10-05T12:33:45.000Z</time>
      </trkpt>
      <trkpt lat="43.99886" lon="5.90553">
        <ele>672</ele>
        <time>2020-10-05T12:33:46.000Z</time>
      </trkpt>
      <trkpt lat="43.99886" lon="5.90553">
        <ele>672</ele>
        <time>2020-10-05T12:33:47.000Z</time>
      </trkpt>
      <trkpt lat="43.99886" lon="5.90553">
        <ele>672</ele>
        <time>2020-10-05T12:33:48.000Z</time>
      </trkpt>
      <trkpt lat="43.99886" lon="5.90553">
        <ele>672</ele>
        <time>2020-10-05T12:33:49.000Z</time>
      </trkpt>
      <trkpt lat="43.99886" lon="5.90553">
        <ele>672</ele>
        <time>2020-10-05T12:33:50.000Z</time>
      </trkpt>
      <trkpt lat="43.99886" lon="5.90553">
        <ele>672</ele>
        <time>2020-10-05T12:33:51.000Z</time>
      </trkpt>
      <trkpt lat="43.99886" lon="5.90553">
        <ele>672</ele>
        <time>2020-10-05T12:33:52.000Z</time>
      </trkpt>
      <trkpt lat="43.99886" lon="5.90553">
        <ele>672</ele>
        <time>2020-10-05T12:33:53.000Z</time>
      </trkpt>
      <trkpt lat="43.99886" lon="5.90553">
        <ele>672</ele>
        <time>2020-10-05T12:33:54.000Z</time>
      </trkpt>
      <trkpt lat="43.99886" lon="5.90553">
        <ele>672</ele>
        <time>2020-10-05T12:33:55.000Z</time>
      </trkpt>
      <trkpt lat="43.99886" lon="5.90553">
        <ele>672</ele>
        <time>2020-10-05T12:33:56.000Z</time>
      </trkpt>
      <trkpt lat="43.99886" lon="5.90553">
        <ele>672</ele>
        <time>2020-10-05T12:33:57.000Z</time>
      </trkpt>
      <trkpt lat="43.99886" lon="5.90553">
        <ele>672</ele>
        <time>2020-10-05T12:33:58.000Z</time>
      </trkpt>
      <trkpt lat="43.99886" lon="5.90553">
        <ele>672</ele>
        <time>2020-10-05T12:33:59.000Z</time>
      </trkpt>
      <trkpt lat="43.99886" lon="5.90553">
        <ele>672</ele>
        <time>2020-10-05T12:34:00.000Z</time>
      </trkpt>
      <trkpt lat="43.99886" lon="5.90553">
        <ele>672</ele>
        <time>2020-10-05T12:34:01.000Z</time>
      </trkpt>
      <trkpt lat="43.99886" lon="5.90553">
        <ele>672</ele>
        <time>2020-10-05T12:34:02.000Z</time>
      </trkpt>
      <trkpt lat="43.99886" lon="5.90553">
        <ele>672</ele>
        <time>2020-10-05T12:34:03.000Z</time>
      </trkpt>
      <trkpt lat="43.99886" lon="5.90553">
        <ele>672</ele>
        <time>2020-10-05T12:34:04.000Z</time>
      </trkpt>
      <trkpt lat="43.99886" lon="5.90553">
        <ele>672</ele>
        <time>2020-10-05T12:34:05.000Z</time>
      </trkpt>
      <trkpt lat="43.99886" lon="5.90553">
        <ele>672</ele>
        <time>2020-10-05T12:34:06.000Z</time>
      </trkpt>
      <trkpt lat="43.99886" lon="5.90553">
        <ele>672</ele>
        <time>2020-10-05T12:34:07.000Z</time>
      </trkpt>
      <trkpt lat="43.99886" lon="5.90553">
        <ele>672</ele>
        <time>2020-10-05T12:34:08.000Z</time>
      </trkpt>
      <trkpt lat="43.99886" lon="5.90553">
        <ele>672</ele>
        <time>2020-10-05T12:34:09.000Z</time>
      </trkpt>
      <trkpt lat="43.99886" lon="5.90553">
        <ele>672</ele>
        <time>2020-10-05T12:34:10.000Z</time>
      </trkpt>
      <trkpt lat="43.99886" lon="5.90553">
        <ele>672</ele>
        <time>2020-10-05T12:34:11.000Z</time>
      </trkpt>
      <trkpt lat="43.99886" lon="5.90553">
        <ele>672</ele>
        <time>2020-10-05T12:34:12.000Z</time>
      </trkpt>
      <trkpt lat="43.99886" lon="5.90553">
        <ele>672</ele>
        <time>2020-10-05T12:34:13.000Z</time>
      </trkpt>
      <trkpt lat="43.99886" lon="5.90553">
        <ele>672</ele>
        <time>2020-10-05T12:34:14.000Z</time>
      </trkpt>
      <trkpt lat="43.99886" lon="5.90553">
        <ele>672</ele>
        <time>2020-10-05T12:34:15.000Z</time>
      </trkpt>
      <trkpt lat="43.99886" lon="5.90553">
        <ele>672</ele>
        <time>2020-10-05T12:34:16.000Z</time>
      </trkpt>
      <trkpt lat="43.99886" lon="5.90553">
        <ele>672</ele>
        <time>2020-10-05T12:34:17.000Z</time>
      </trkpt>
      <trkpt lat="43.99886" lon="5.90553">
        <ele>672</ele>
        <time>2020-10-05T12:34:18.000Z</time>
      </trkpt>
      <trkpt lat="43.99886" lon="5.90553">
        <ele>672</ele>
        <time>2020-10-05T12:34:19.000Z</time>
      </trkpt>
      <trkpt lat="43.99886" lon="5.90553">
        <ele>672</ele>
        <time>2020-10-05T12:34:20.000Z</time>
      </trkpt>
      <trkpt lat="43.99886" lon="5.90553">
        <ele>672</ele>
        <time>2020-10-05T12:34:21.000Z</time>
      </trkpt>
      <trkpt lat="43.99886" lon="5.90553">
        <ele>672</ele>
        <time>2020-10-05T12:34:22.000Z</time>
      </trkpt>
      <trkpt lat="43.99886" lon="5.90553">
        <ele>672</ele>
        <time>2020-10-05T12:34:23.000Z</time>
      </trkpt>
      <trkpt lat="43.99886" lon="5.90553">
        <ele>672</ele>
        <time>2020-10-05T12:34:24.000Z</time>
      </trkpt>
      <trkpt lat="43.99886" lon="5.90553">
        <ele>672</ele>
        <time>2020-10-05T12:34:25.000Z</time>
      </trkpt>
      <trkpt lat="43.99886" lon="5.90553">
        <ele>672</ele>
        <time>2020-10-05T12:34:26.000Z</time>
      </trkpt>
      <trkpt lat="43.99886" lon="5.90553">
        <ele>672</ele>
        <time>2020-10-05T12:34:27.000Z</time>
      </trkpt>
      <trkpt lat="43.99886" lon="5.90553">
        <ele>672</ele>
        <time>2020-10-05T12:34:28.000Z</time>
      </trkpt>
      <trkpt lat="43.99886" lon="5.90553">
        <ele>672</ele>
        <time>2020-10-05T12:34:29.000Z</time>
      </trkpt>
      <trkpt lat="43.99886" lon="5.90553">
        <ele>672</ele>
        <time>2020-10-05T12:34:30.000Z</time>
      </trkpt>
      <trkpt lat="43.99886" lon="5.90553">
        <ele>672</ele>
        <time>2020-10-05T12:34:31.000Z</time>
      </trkpt>
      <trkpt lat="43.99886" lon="5.90553">
        <ele>672</ele>
        <time>2020-10-05T12:34:32.000Z</time>
      </trkpt>
      <trkpt lat="43.99886" lon="5.90553">
        <ele>672</ele>
        <time>2020-10-05T12:34:33.000Z</time>
      </trkpt>
      <trkpt lat="43.99886" lon="5.90553">
        <ele>672</ele>
        <time>2020-10-05T12:34:34.000Z</time>
      </trkpt>
      <trkpt lat="43.99886" lon="5.90553">
        <ele>672</ele>
        <time>2020-10-05T12:34:35.000Z</time>
      </trkpt>
      <trkpt lat="43.99886" lon="5.90553">
        <ele>672</ele>
        <time>2020-10-05T12:34:36.000Z</time>
      </trkpt>
      <trkpt lat="43.99886" lon="5.90553">
        <ele>672</ele>
        <time>2020-10-05T12:34:37.000Z</time>
      </trkpt>
      <trkpt lat="43.99886" lon="5.90553">
        <ele>672</ele>
        <time>2020-10-05T12:34:38.000Z</time>
      </trkpt>
      <trkpt lat="43.99886" lon="5.90553">
        <ele>672</ele>
        <time>2020-10-05T12:34:39.000Z</time>
      </trkpt>
      <trkpt lat="43.99886" lon="5.90553">
        <ele>672</ele>
        <time>2020-10-05T12:34:40.000Z</time>
      </trkpt>
      <trkpt lat="43.99886" lon="5.90553">
        <ele>672</ele>
        <time>2020-10-05T12:34:41.000Z</time>
      </trkpt>
      <trkpt lat="43.99886" lon="5.90553">
        <ele>672</ele>
        <time>2020-10-05T12:34:42.000Z</time>
      </trkpt>
      <trkpt lat="43.99886" lon="5.90553">
        <ele>672</ele>
        <time>2020-10-05T12:34:43.000Z</time>
      </trkpt>
      <trkpt lat="43.99886" lon="5.90553">
        <ele>672</ele>
        <time>2020-10-05T12:34:44.000Z</time>
      </trkpt>
      <trkpt lat="43.99886" lon="5.90553">
        <ele>672</ele>
        <time>2020-10-05T12:34:45.000Z</time>
      </trkpt>
      <trkpt lat="43.99886" lon="5.90553">
        <ele>672</ele>
        <time>2020-10-05T12:34:46.000Z</time>
      </trkpt>
      <trkpt lat="43.99886" lon="5.90553">
        <ele>672</ele>
        <time>2020-10-05T12:34:47.000Z</time>
      </trkpt>
      <trkpt lat="43.99886" lon="5.90553">
        <ele>672</ele>
        <time>2020-10-05T12:34:48.000Z</time>
      </trkpt>
      <trkpt lat="43.99886" lon="5.90553">
        <ele>672</ele>
        <time>2020-10-05T12:34:49.000Z</time>
      </trkpt>
      <trkpt lat="43.99886" lon="5.90554">
        <ele>672</ele>
        <time>2020-10-05T12:34:50.000Z</time>
      </trkpt>
      <trkpt lat="43.99886" lon="5.90554">
        <ele>672</ele>
        <time>2020-10-05T12:34:51.000Z</time>
      </trkpt>
      <trkpt lat="43.99887" lon="5.90555">
        <ele>672</ele>
        <time>2020-10-05T12:34:52.000Z</time>
      </trkpt>
      <trkpt lat="43.99886" lon="5.90555">
        <ele>672</ele>
        <time>2020-10-05T12:34:53.000Z</time>
      </trkpt>
      <trkpt lat="43.99886" lon="5.90555">
        <ele>672</ele>
        <time>2020-10-05T12:34:54.000Z</time>
      </trkpt>
      <trkpt lat="43.99886" lon="5.90555">
        <ele>672</ele>
        <time>2020-10-05T12:34:55.000Z</time>
      </trkpt>
      <trkpt lat="43.99886" lon="5.90555">
        <ele>672</ele>
        <time>2020-10-05T12:34:56.000Z</time>
      </trkpt>
      <trkpt lat="43.99886" lon="5.90555">
        <ele>672</ele>
        <time>2020-10-05T12:34:57.000Z</time>
      </trkpt>
      <trkpt lat="43.99886" lon="5.90555">
        <ele>672</ele>
        <time>2020-10-05T12:34:58.000Z</time>
      </trkpt>
      <trkpt lat="43.99886" lon="5.90555">
        <ele>672</ele>
        <time>2020-10-05T12:34:59.000Z</time>
      </trkpt>
      <trkpt lat="43.99885" lon="5.90555">
        <ele>672</ele>
        <time>2020-10-05T12:35:00.000Z</time>
      </trkpt>
      <trkpt lat="43.99885" lon="5.90555">
        <ele>672</ele>
        <time>2020-10-05T12:35:01.000Z</time>
      </trkpt>
      <trkpt lat="43.99885" lon="5.90555">
        <ele>672</ele>
        <time>2020-10-05T12:35:02.000Z</time>
      </trkpt>
      <trkpt lat="43.99885" lon="5.90555">
        <ele>672</ele>
        <time>2020-10-05T12:35:03.000Z</time>
      </trkpt>
      <trkpt lat="43.99885" lon="5.90555">
        <ele>672</ele>
        <time>2020-10-05T12:35:04.000Z</time>
      </trkpt>
      <trkpt lat="43.99885" lon="5.90554">
        <ele>672</ele>
        <time>2020-10-05T12:35:05.000Z</time>
      </trkpt>
      <trkpt lat="43.99885" lon="5.90554">
        <ele>672</ele>
        <time>2020-10-05T12:35:06.000Z</time>
      </trkpt>
      <trkpt lat="43.99884" lon="5.90554">
        <ele>672</ele>
        <time>2020-10-05T12:35:07.000Z</time>
      </trkpt>
      <trkpt lat="43.99884" lon="5.90554">
        <ele>672</ele>
        <time>2020-10-05T12:35:08.000Z</time>
      </trkpt>
      <trkpt lat="43.99884" lon="5.90554">
        <ele>672</ele>
        <time>2020-10-05T12:35:09.000Z</time>
      </trkpt>
      <trkpt lat="43.99884" lon="5.90554">
        <ele>672</ele>
        <time>2020-10-05T12:35:10.000Z</time>
      </trkpt>
      <trkpt lat="43.99884" lon="5.90555">
        <ele>672</ele>
        <time>2020-10-05T12:35:11.000Z</time>
      </trkpt>
      <trkpt lat="43.99884" lon="5.90556">
        <ele>672</ele>
        <time>2020-10-05T12:35:12.000Z</time>
      </trkpt>
      <trkpt lat="43.99883" lon="5.90557">
        <ele>672</ele>
        <time>2020-10-05T12:35:13.000Z</time>
      </trkpt>
      <trkpt lat="43.99883" lon="5.90557">
        <ele>671</ele>
        <time>2020-10-05T12:35:14.000Z</time>
      </trkpt>
      <trkpt lat="43.99883" lon="5.90558">
        <ele>671</ele>
        <time>2020-10-05T12:35:15.000Z</time>
      </trkpt>
      <trkpt lat="43.99882" lon="5.90559">
        <ele>671</ele>
        <time>2020-10-05T12:35:16.000Z</time>
      </trkpt>
      <trkpt lat="43.99882" lon="5.9056">
        <ele>671</ele>
        <time>2020-10-05T12:35:17.000Z</time>
      </trkpt>
      <trkpt lat="43.99881" lon="5.90561">
        <ele>671</ele>
        <time>2020-10-05T12:35:18.000Z</time>
      </trkpt>
      <trkpt lat="43.9988" lon="5.90562">
        <ele>671</ele>
        <time>2020-10-05T12:35:19.000Z</time>
      </trkpt>
      <trkpt lat="43.9988" lon="5.90563">
        <ele>671</ele>
        <time>2020-10-05T12:35:20.000Z</time>
      </trkpt>
      <trkpt lat="43.99879" lon="5.90564">
        <ele>671</ele>
        <time>2020-10-05T12:35:21.000Z</time>
      </trkpt>
      <trkpt lat="43.99878" lon="5.90565">
        <ele>671</ele>
        <time>2020-10-05T12:35:22.000Z</time>
      </trkpt>
      <trkpt lat="43.99877" lon="5.90566">
        <ele>671</ele>
        <time>2020-10-05T12:35:23.000Z</time>
      </trkpt>
      <trkpt lat="43.99876" lon="5.90567">
        <ele>671</ele>
        <time>2020-10-05T12:35:24.000Z</time>
      </trkpt>
      <trkpt lat="43.99875" lon="5.90568">
        <ele>671</ele>
        <time>2020-10-05T12:35:25.000Z</time>
      </trkpt>
      <trkpt lat="43.99874" lon="5.90568">
        <ele>671</ele>
        <time>2020-10-05T12:35:26.000Z</time>
      </trkpt>
      <trkpt lat="43.99873" lon="5.90569">
        <ele>670</ele>
        <time>2020-10-05T12:35:27.000Z</time>
      </trkpt>
      <trkpt lat="43.99872" lon="5.90569">
        <ele>670</ele>
        <time>2020-10-05T12:35:28.000Z</time>
      </trkpt>
      <trkpt lat="43.99871" lon="5.9057">
        <ele>670</ele>
        <time>2020-10-05T12:35:29.000Z</time>
      </trkpt>
      <trkpt lat="43.9987" lon="5.9057">
        <ele>670</ele>
        <time>2020-10-05T12:35:30.000Z</time>
      </trkpt>
      <trkpt lat="43.99869" lon="5.9057">
        <ele>670</ele>
        <time>2020-10-05T12:35:31.000Z</time>
      </trkpt>
      <trkpt lat="43.99868" lon="5.9057">
        <ele>670</ele>
        <time>2020-10-05T12:35:32.000Z</time>
      </trkpt>
      <trkpt lat="43.99867" lon="5.90569">
        <ele>670</ele>
        <time>2020-10-05T12:35:33.000Z</time>
      </trkpt>
      <trkpt lat="43.99866" lon="5.90569">
        <ele>670</ele>
        <time>2020-10-05T12:35:34.000Z</time>
      </trkpt>
      <trkpt lat="43.99865" lon="5.90568">
        <ele>670</ele>
        <time>2020-10-05T12:35:35.000Z</time>
      </trkpt>
      <trkpt lat="43.99864" lon="5.90568">
        <ele>670</ele>
        <time>2020-10-05T12:35:36.000Z</time>
      </trkpt>
      <trkpt lat="43.99863" lon="5.90568">
        <ele>670</ele>
        <time>2020-10-05T12:35:37.000Z</time>
      </trkpt>
      <trkpt lat="43.99862" lon="5.90569">
        <ele>669</ele>
        <time>2020-10-05T12:35:38.000Z</time>
      </trkpt>
      <trkpt lat="43.99861" lon="5.90568">
        <ele>669</ele>
        <time>2020-10-05T12:35:39.000Z</time>
      </trkpt>
      <trkpt lat="43.9986" lon="5.90568">
        <ele>670</ele>
        <time>2020-10-05T12:35:40.000Z</time>
      </trkpt>
      <trkpt lat="43.99859" lon="5.90568">
        <ele>670</ele>
        <time>2020-10-05T12:35:41.000Z</time>
      </trkpt>
      <trkpt lat="43.99858" lon="5.90567">
        <ele>670</ele>
        <time>2020-10-05T12:35:42.000Z</time>
      </trkpt>
      <trkpt lat="43.99857" lon="5.90567">
        <ele>670</ele>
        <time>2020-10-05T12:35:43.000Z</time>
      </trkpt>
      <trkpt lat="43.99856" lon="5.90566">
        <ele>670</ele>
        <time>2020-10-05T12:35:44.000Z</time>
      </trkpt>
      <trkpt lat="43.99855" lon="5.90565">
        <ele>670</ele>
        <time>2020-10-05T12:35:45.000Z</time>
      </trkpt>
      <trkpt lat="43.99854" lon="5.90565">
        <ele>670</ele>
        <time>2020-10-05T12:35:46.000Z</time>
      </trkpt>
      <trkpt lat="43.99853" lon="5.90565">
        <ele>670</ele>
        <time>2020-10-05T12:35:47.000Z</time>
      </trkpt>
      <trkpt lat="43.99851" lon="5.90565">
        <ele>670</ele>
        <time>2020-10-05T12:35:48.000Z</time>
      </trkpt>
      <trkpt lat="43.9985" lon="5.90565">
        <ele>670</ele>
        <time>2020-10-05T12:35:49.000Z</time>
      </trkpt>
      <trkpt lat="43.99849" lon="5.90565">
        <ele>670</ele>
        <time>2020-10-05T12:35:50.000Z</time>
      </trkpt>
      <trkpt lat="43.99848" lon="5.90565">
        <ele>670</ele>
        <time>2020-10-05T12:35:51.000Z</time>
      </trkpt>
      <trkpt lat="43.99847" lon="5.90565">
        <ele>670</ele>
        <time>2020-10-05T12:35:52.000Z</time>
      </trkpt>
      <trkpt lat="43.99846" lon="5.90565">
        <ele>670</ele>
        <time>2020-10-05T12:35:53.000Z</time>
      </trkpt>
      <trkpt lat="43.99845" lon="5.90565">
        <ele>670</ele>
        <time>2020-10-05T12:35:54.000Z</time>
      </trkpt>
      <trkpt lat="43.99843" lon="5.90565">
        <ele>670</ele>
        <time>2020-10-05T12:35:55.000Z</time>
      </trkpt>
      <trkpt lat="43.99842" lon="5.90565">
        <ele>670</ele>
        <time>2020-10-05T12:35:56.000Z</time>
      </trkpt>
      <trkpt lat="43.99841" lon="5.90564">
        <ele>670</ele>
        <time>2020-10-05T12:35:57.000Z</time>
      </trkpt>
      <trkpt lat="43.9984" lon="5.90564">
        <ele>670</ele>
        <time>2020-10-05T12:35:58.000Z</time>
      </trkpt>
      <trkpt lat="43.99839" lon="5.90564">
        <ele>670</ele>
        <time>2020-10-05T12:35:59.000Z</time>
      </trkpt>
      <trkpt lat="43.99837" lon="5.90563">
        <ele>670</ele>
        <time>2020-10-05T12:36:00.000Z</time>
      </trkpt>
      <trkpt lat="43.99836" lon="5.90563">
        <ele>670</ele>
        <time>2020-10-05T12:36:01.000Z</time>
      </trkpt>
      <trkpt lat="43.99836" lon="5.90562">
        <ele>670</ele>
        <time>2020-10-05T12:36:02.000Z</time>
      </trkpt>
      <trkpt lat="43.99836" lon="5.90562">
        <ele>670</ele>
        <time>2020-10-05T12:36:03.000Z</time>
      </trkpt>
      <trkpt lat="43.99836" lon="5.90562">
        <ele>670</ele>
        <time>2020-10-05T12:36:04.000Z</time>
      </trkpt>
      <trkpt lat="43.99836" lon="5.90562">
        <ele>670</ele>
        <time>2020-10-05T12:36:05.000Z</time>
      </trkpt>
      <trkpt lat="43.99836" lon="5.90562">
        <ele>670</ele>
        <time>2020-10-05T12:36:06.000Z</time>
      </trkpt>
      <trkpt lat="43.99836" lon="5.90562">
        <ele>670</ele>
        <time>2020-10-05T12:36:07.000Z</time>
      </trkpt>
      <trkpt lat="43.99836" lon="5.90562">
        <ele>670</ele>
        <time>2020-10-05T12:36:08.000Z</time>
      </trkpt>
      <trkpt lat="43.99836" lon="5.90562">
        <ele>670</ele>
        <time>2020-10-05T12:36:09.000Z</time>
      </trkpt>
      <trkpt lat="43.99836" lon="5.90562">
        <ele>670</ele>
        <time>2020-10-05T12:36:10.000Z</time>
      </trkpt>
      <trkpt lat="43.99836" lon="5.90562">
        <ele>670</ele>
        <time>2020-10-05T12:36:11.000Z</time>
      </trkpt>
      <trkpt lat="43.99836" lon="5.90562">
        <ele>670</ele>
        <time>2020-10-05T12:36:12.000Z</time>
      </trkpt>
      <trkpt lat="43.99835" lon="5.90562">
        <ele>670</ele>
        <time>2020-10-05T12:36:13.000Z</time>
      </trkpt>
      <trkpt lat="43.99835" lon="5.90563">
        <ele>670</ele>
        <time>2020-10-05T12:36:14.000Z</time>
      </trkpt>
      <trkpt lat="43.99834" lon="5.90563">
        <ele>670</ele>
        <time>2020-10-05T12:36:15.000Z</time>
      </trkpt>
      <trkpt lat="43.99834" lon="5.90563">
        <ele>670</ele>
        <time>2020-10-05T12:36:16.000Z</time>
      </trkpt>
      <trkpt lat="43.99834" lon="5.90563">
        <ele>670</ele>
        <time>2020-10-05T12:36:17.000Z</time>
      </trkpt>
      <trkpt lat="43.99834" lon="5.90563">
        <ele>670</ele>
        <time>2020-10-05T12:36:18.000Z</time>
      </trkpt>
      <trkpt lat="43.99834" lon="5.90563">
        <ele>670</ele>
        <time>2020-10-05T12:36:19.000Z</time>
      </trkpt>
      <trkpt lat="43.99834" lon="5.90563">
        <ele>670</ele>
        <time>2020-10-05T12:36:20.000Z</time>
      </trkpt>
      <trkpt lat="43.99834" lon="5.90563">
        <ele>670</ele>
        <time>2020-10-05T12:36:21.000Z</time>
      </trkpt>
      <trkpt lat="43.99834" lon="5.90563">
        <ele>670</ele>
        <time>2020-10-05T12:36:22.000Z</time>
      </trkpt>
      <trkpt lat="43.99834" lon="5.90563">
        <ele>670</ele>
        <time>2020-10-05T12:36:23.000Z</time>
      </trkpt>
      <trkpt lat="43.99834" lon="5.90562">
        <ele>670</ele>
        <time>2020-10-05T12:36:24.000Z</time>
      </trkpt>
      <trkpt lat="43.99834" lon="5.90562">
        <ele>670</ele>
        <time>2020-10-05T12:36:25.000Z</time>
      </trkpt>
      <trkpt lat="43.99834" lon="5.90562">
        <ele>670</ele>
        <time>2020-10-05T12:36:26.000Z</time>
      </trkpt>
      <trkpt lat="43.99834" lon="5.90562">
        <ele>670</ele>
        <time>2020-10-05T12:36:27.000Z</time>
      </trkpt>
      <trkpt lat="43.99834" lon="5.90562">
        <ele>670</ele>
        <time>2020-10-05T12:36:28.000Z</time>
      </trkpt>
      <trkpt lat="43.99834" lon="5.90562">
        <ele>670</ele>
        <time>2020-10-05T12:36:29.000Z</time>
      </trkpt>
      <trkpt lat="43.99834" lon="5.90562">
        <ele>670</ele>
        <time>2020-10-05T12:36:30.000Z</time>
      </trkpt>
      <trkpt lat="43.99834" lon="5.90562">
        <ele>670</ele>
        <time>2020-10-05T12:36:31.000Z</time>
      </trkpt>
      <trkpt lat="43.99835" lon="5.90562">
        <ele>670</ele>
        <time>2020-10-05T12:36:32.000Z</time>
      </trkpt>
      <trkpt lat="43.99835" lon="5.90563">
        <ele>670</ele>
        <time>2020-10-05T12:36:33.000Z</time>
      </trkpt>
      <trkpt lat="43.99835" lon="5.90563">
        <ele>670</ele>
        <time>2020-10-05T12:36:34.000Z</time>
      </trkpt>
      <trkpt lat="43.99836" lon="5.90564">
        <ele>670</ele>
        <time>2020-10-05T12:36:35.000Z</time>
      </trkpt>
      <trkpt lat="43.99836" lon="5.90566">
        <ele>669</ele>
        <time>2020-10-05T12:36:36.000Z</time>
      </trkpt>
      <trkpt lat="43.99837" lon="5.90567">
        <ele>669</ele>
        <time>2020-10-05T12:36:37.000Z</time>
      </trkpt>
      <trkpt lat="43.99837" lon="5.90568">
        <ele>669</ele>
        <time>2020-10-05T12:36:38.000Z</time>
      </trkpt>
      <trkpt lat="43.99837" lon="5.9057">
        <ele>669</ele>
        <time>2020-10-05T12:36:39.000Z</time>
      </trkpt>
      <trkpt lat="43.99837" lon="5.90571">
        <ele>669</ele>
        <time>2020-10-05T12:36:40.000Z</time>
      </trkpt>
      <trkpt lat="43.99837" lon="5.90572">
        <ele>669</ele>
        <time>2020-10-05T12:36:41.000Z</time>
      </trkpt>
      <trkpt lat="43.99837" lon="5.90573">
        <ele>669</ele>
        <time>2020-10-05T12:36:42.000Z</time>
      </trkpt>
      <trkpt lat="43.99837" lon="5.90575">
        <ele>669</ele>
        <time>2020-10-05T12:36:43.000Z</time>
      </trkpt>
      <trkpt lat="43.99837" lon="5.90576">
        <ele>669</ele>
        <time>2020-10-05T12:36:44.000Z</time>
      </trkpt>
      <trkpt lat="43.99837" lon="5.90578">
        <ele>669</ele>
        <time>2020-10-05T12:36:45.000Z</time>
      </trkpt>
      <trkpt lat="43.99837" lon="5.90579">
        <ele>669</ele>
        <time>2020-10-05T12:36:46.000Z</time>
      </trkpt>
      <trkpt lat="43.99837" lon="5.90581">
        <ele>669</ele>
        <time>2020-10-05T12:36:47.000Z</time>
      </trkpt>
      <trkpt lat="43.99837" lon="5.90583">
        <ele>668</ele>
        <time>2020-10-05T12:36:48.000Z</time>
      </trkpt>
      <trkpt lat="43.99837" lon="5.90584">
        <ele>668</ele>
        <time>2020-10-05T12:36:49.000Z</time>
      </trkpt>
      <trkpt lat="43.99837" lon="5.90585">
        <ele>668</ele>
        <time>2020-10-05T12:36:50.000Z</time>
      </trkpt>
      <trkpt lat="43.99837" lon="5.90587">
        <ele>668</ele>
        <time>2020-10-05T12:36:51.000Z</time>
      </trkpt>
      <trkpt lat="43.99836" lon="5.90588">
        <ele>668</ele>
        <time>2020-10-05T12:36:52.000Z</time>
      </trkpt>
      <trkpt lat="43.99836" lon="5.9059">
        <ele>668</ele>
        <time>2020-10-05T12:36:53.000Z</time>
      </trkpt>
      <trkpt lat="43.99836" lon="5.90591">
        <ele>668</ele>
        <time>2020-10-05T12:36:54.000Z</time>
      </trkpt>
      <trkpt lat="43.99836" lon="5.90592">
        <ele>668</ele>
        <time>2020-10-05T12:36:55.000Z</time>
      </trkpt>
      <trkpt lat="43.99836" lon="5.90593">
        <ele>668</ele>
        <time>2020-10-05T12:36:56.000Z</time>
      </trkpt>
      <trkpt lat="43.99836" lon="5.90594">
        <ele>668</ele>
        <time>2020-10-05T12:36:57.000Z</time>
      </trkpt>
      <trkpt lat="43.99836" lon="5.90595">
        <ele>668</ele>
        <time>2020-10-05T12:36:58.000Z</time>
      </trkpt>
      <trkpt lat="43.99836" lon="5.90597">
        <ele>668</ele>
        <time>2020-10-05T12:36:59.000Z</time>
      </trkpt>
      <trkpt lat="43.99836" lon="5.90598">
        <ele>668</ele>
        <time>2020-10-05T12:37:00.000Z</time>
      </trkpt>
      <trkpt lat="43.99836" lon="5.906">
        <ele>668</ele>
        <time>2020-10-05T12:37:01.000Z</time>
      </trkpt>
      <trkpt lat="43.99836" lon="5.90602">
        <ele>668</ele>
        <time>2020-10-05T12:37:02.000Z</time>
      </trkpt>
      <trkpt lat="43.99836" lon="5.90603">
        <ele>668</ele>
        <time>2020-10-05T12:37:03.000Z</time>
      </trkpt>
      <trkpt lat="43.99836" lon="5.90604">
        <ele>668</ele>
        <time>2020-10-05T12:37:04.000Z</time>
      </trkpt>
      <trkpt lat="43.99836" lon="5.90606">
        <ele>668</ele>
        <time>2020-10-05T12:37:05.000Z</time>
      </trkpt>
      <trkpt lat="43.99836" lon="5.90607">
        <ele>668</ele>
        <time>2020-10-05T12:37:06.000Z</time>
      </trkpt>
      <trkpt lat="43.99837" lon="5.90609">
        <ele>668</ele>
        <time>2020-10-05T12:37:07.000Z</time>
      </trkpt>
      <trkpt lat="43.99837" lon="5.9061">
        <ele>668</ele>
        <time>2020-10-05T12:37:08.000Z</time>
      </trkpt>
      <trkpt lat="43.99837" lon="5.90612">
        <ele>667</ele>
        <time>2020-10-05T12:37:09.000Z</time>
      </trkpt>
      <trkpt lat="43.99837" lon="5.90614">
        <ele>667</ele>
        <time>2020-10-05T12:37:10.000Z</time>
      </trkpt>
      <trkpt lat="43.99837" lon="5.90616">
        <ele>667</ele>
        <time>2020-10-05T12:37:11.000Z</time>
      </trkpt>
      <trkpt lat="43.99837" lon="5.90618">
        <ele>667</ele>
        <time>2020-10-05T12:37:12.000Z</time>
      </trkpt>
      <trkpt lat="43.99837" lon="5.9062">
        <ele>667</ele>
        <time>2020-10-05T12:37:13.000Z</time>
      </trkpt>
      <trkpt lat="43.99838" lon="5.90622">
        <ele>667</ele>
        <time>2020-10-05T12:37:14.000Z</time>
      </trkpt>
      <trkpt lat="43.99838" lon="5.90624">
        <ele>667</ele>
        <time>2020-10-05T12:37:15.000Z</time>
      </trkpt>
      <trkpt lat="43.99838" lon="5.90625">
        <ele>667</ele>
        <time>2020-10-05T12:37:16.000Z</time>
      </trkpt>
      <trkpt lat="43.99838" lon="5.90626">
        <ele>667</ele>
        <time>2020-10-05T12:37:17.000Z</time>
      </trkpt>
      <trkpt lat="43.99838" lon="5.90628">
        <ele>667</ele>
        <time>2020-10-05T12:37:18.000Z</time>
      </trkpt>
      <trkpt lat="43.99837" lon="5.9063">
        <ele>666</ele>
        <time>2020-10-05T12:37:19.000Z</time>
      </trkpt>
      <trkpt lat="43.99837" lon="5.90631">
        <ele>666</ele>
        <time>2020-10-05T12:37:20.000Z</time>
      </trkpt>
      <trkpt lat="43.99837" lon="5.90633">
        <ele>666</ele>
        <time>2020-10-05T12:37:21.000Z</time>
      </trkpt>
      <trkpt lat="43.99837" lon="5.90634">
        <ele>666</ele>
        <time>2020-10-05T12:37:22.000Z</time>
      </trkpt>
      <trkpt lat="43.99837" lon="5.90636">
        <ele>666</ele>
        <time>2020-10-05T12:37:23.000Z</time>
      </trkpt>
      <trkpt lat="43.99837" lon="5.90637">
        <ele>666</ele>
        <time>2020-10-05T12:37:24.000Z</time>
      </trkpt>
      <trkpt lat="43.99837" lon="5.90638">
        <ele>666</ele>
        <time>2020-10-05T12:37:25.000Z</time>
      </trkpt>
      <trkpt lat="43.99837" lon="5.9064">
        <ele>666</ele>
        <time>2020-10-05T12:37:26.000Z</time>
      </trkpt>
      <trkpt lat="43.99837" lon="5.90642">
        <ele>666</ele>
        <time>2020-10-05T12:37:27.000Z</time>
      </trkpt>
      <trkpt lat="43.99838" lon="5.90643">
        <ele>666</ele>
        <time>2020-10-05T12:37:28.000Z</time>
      </trkpt>
      <trkpt lat="43.99838" lon="5.90644">
        <ele>666</ele>
        <time>2020-10-05T12:37:29.000Z</time>
      </trkpt>
      <trkpt lat="43.99838" lon="5.90646">
        <ele>666</ele>
        <time>2020-10-05T12:37:30.000Z</time>
      </trkpt>
      <trkpt lat="43.99838" lon="5.90647">
        <ele>666</ele>
        <time>2020-10-05T12:37:31.000Z</time>
      </trkpt>
      <trkpt lat="43.99839" lon="5.90649">
        <ele>666</ele>
        <time>2020-10-05T12:37:32.000Z</time>
      </trkpt>
      <trkpt lat="43.99839" lon="5.9065">
        <ele>666</ele>
        <time>2020-10-05T12:37:33.000Z</time>
      </trkpt>
      <trkpt lat="43.99839" lon="5.90652">
        <ele>666</ele>
        <time>2020-10-05T12:37:34.000Z</time>
      </trkpt>
      <trkpt lat="43.99839" lon="5.90653">
        <ele>666</ele>
        <time>2020-10-05T12:37:35.000Z</time>
      </trkpt>
      <trkpt lat="43.9984" lon="5.90655">
        <ele>666</ele>
        <time>2020-10-05T12:37:36.000Z</time>
      </trkpt>
      <trkpt lat="43.9984" lon="5.90656">
        <ele>666</ele>
        <time>2020-10-05T12:37:37.000Z</time>
      </trkpt>
      <trkpt lat="43.9984" lon="5.90658">
        <ele>666</ele>
        <time>2020-10-05T12:37:38.000Z</time>
      </trkpt>
      <trkpt lat="43.9984" lon="5.9066">
        <ele>666</ele>
        <time>2020-10-05T12:37:39.000Z</time>
      </trkpt>
      <trkpt lat="43.9984" lon="5.90661">
        <ele>666</ele>
        <time>2020-10-05T12:37:40.000Z</time>
      </trkpt>
      <trkpt lat="43.9984" lon="5.90663">
        <ele>666</ele>
        <time>2020-10-05T12:37:41.000Z</time>
      </trkpt>
      <trkpt lat="43.9984" lon="5.90664">
        <ele>666</ele>
        <time>2020-10-05T12:37:42.000Z</time>
      </trkpt>
      <trkpt lat="43.9984" lon="5.90666">
        <ele>666</ele>
        <time>2020-10-05T12:37:43.000Z</time>
      </trkpt>
      <trkpt lat="43.9984" lon="5.90667">
        <ele>666</ele>
        <time>2020-10-05T12:37:44.000Z</time>
      </trkpt>
      <trkpt lat="43.9984" lon="5.90669">
        <ele>666</ele>
        <time>2020-10-05T12:37:45.000Z</time>
      </trkpt>
      <trkpt lat="43.9984" lon="5.9067">
        <ele>666</ele>
        <time>2020-10-05T12:37:46.000Z</time>
      </trkpt>
      <trkpt lat="43.99839" lon="5.90672">
        <ele>666</ele>
        <time>2020-10-05T12:37:47.000Z</time>
      </trkpt>
      <trkpt lat="43.99839" lon="5.90673">
        <ele>666</ele>
        <time>2020-10-05T12:37:48.000Z</time>
      </trkpt>
      <trkpt lat="43.99839" lon="5.90675">
        <ele>666</ele>
        <time>2020-10-05T12:37:49.000Z</time>
      </trkpt>
      <trkpt lat="43.99839" lon="5.90676">
        <ele>666</ele>
        <time>2020-10-05T12:37:50.000Z</time>
      </trkpt>
      <trkpt lat="43.99839" lon="5.90678">
        <ele>666</ele>
        <time>2020-10-05T12:37:51.000Z</time>
      </trkpt>
      <trkpt lat="43.99839" lon="5.90679">
        <ele>666</ele>
        <time>2020-10-05T12:37:52.000Z</time>
      </trkpt>
      <trkpt lat="43.99838" lon="5.90681">
        <ele>666</ele>
        <time>2020-10-05T12:37:53.000Z</time>
      </trkpt>
      <trkpt lat="43.99838" lon="5.90682">
        <ele>666</ele>
        <time>2020-10-05T12:37:54.000Z</time>
      </trkpt>
      <trkpt lat="43.99838" lon="5.90683">
        <ele>666</ele>
        <time>2020-10-05T12:37:55.000Z</time>
      </trkpt>
      <trkpt lat="43.99837" lon="5.90685">
        <ele>666</ele>
        <time>2020-10-05T12:37:56.000Z</time>
      </trkpt>
      <trkpt lat="43.99837" lon="5.90686">
        <ele>666</ele>
        <time>2020-10-05T12:37:57.000Z</time>
      </trkpt>
      <trkpt lat="43.99837" lon="5.90688">
        <ele>666</ele>
        <time>2020-10-05T12:37:58.000Z</time>
      </trkpt>
      <trkpt lat="43.99837" lon="5.90689">
        <ele>665</ele>
        <time>2020-10-05T12:37:59.000Z</time>
      </trkpt>
      <trkpt lat="43.99837" lon="5.90691">
        <ele>665</ele>
        <time>2020-10-05T12:38:00.000Z</time>
      </trkpt>
      <trkpt lat="43.99836" lon="5.90693">
        <ele>665</ele>
        <time>2020-10-05T12:38:01.000Z</time>
      </trkpt>
      <trkpt lat="43.99836" lon="5.90695">
        <ele>665</ele>
        <time>2020-10-05T12:38:02.000Z</time>
      </trkpt>
      <trkpt lat="43.99836" lon="5.90697">
        <ele>665</ele>
        <time>2020-10-05T12:38:03.000Z</time>
      </trkpt>
      <trkpt lat="43.99836" lon="5.90698">
        <ele>665</ele>
        <time>2020-10-05T12:38:04.000Z</time>
      </trkpt>
      <trkpt lat="43.99835" lon="5.907">
        <ele>665</ele>
        <time>2020-10-05T12:38:05.000Z</time>
      </trkpt>
      <trkpt lat="43.99835" lon="5.90702">
        <ele>664</ele>
        <time>2020-10-05T12:38:06.000Z</time>
      </trkpt>
      <trkpt lat="43.99835" lon="5.90703">
        <ele>664</ele>
        <time>2020-10-05T12:38:07.000Z</time>
      </trkpt>
      <trkpt lat="43.99835" lon="5.90705">
        <ele>664</ele>
        <time>2020-10-05T12:38:08.000Z</time>
      </trkpt>
      <trkpt lat="43.99835" lon="5.90706">
        <ele>664</ele>
        <time>2020-10-05T12:38:09.000Z</time>
      </trkpt>
      <trkpt lat="43.99834" lon="5.90708">
        <ele>664</ele>
        <time>2020-10-05T12:38:10.000Z</time>
      </trkpt>
      <trkpt lat="43.99834" lon="5.90709">
        <ele>664</ele>
        <time>2020-10-05T12:38:11.000Z</time>
      </trkpt>
      <trkpt lat="43.99834" lon="5.9071">
        <ele>664</ele>
        <time>2020-10-05T12:38:12.000Z</time>
      </trkpt>
      <trkpt lat="43.99833" lon="5.90712">
        <ele>664</ele>
        <time>2020-10-05T12:38:13.000Z</time>
      </trkpt>
      <trkpt lat="43.99833" lon="5.90713">
        <ele>663</ele>
        <time>2020-10-05T12:38:14.000Z</time>
      </trkpt>
      <trkpt lat="43.99833" lon="5.90715">
        <ele>663</ele>
        <time>2020-10-05T12:38:15.000Z</time>
      </trkpt>
      <trkpt lat="43.99832" lon="5.90716">
        <ele>663</ele>
        <time>2020-10-05T12:38:16.000Z</time>
      </trkpt>
      <trkpt lat="43.99832" lon="5.90718">
        <ele>663</ele>
        <time>2020-10-05T12:38:17.000Z</time>
      </trkpt>
      <trkpt lat="43.99831" lon="5.90719">
        <ele>663</ele>
        <time>2020-10-05T12:38:18.000Z</time>
      </trkpt>
      <trkpt lat="43.9983" lon="5.9072">
        <ele>663</ele>
        <time>2020-10-05T12:38:19.000Z</time>
      </trkpt>
      <trkpt lat="43.9983" lon="5.90721">
        <ele>663</ele>
        <time>2020-10-05T12:38:20.000Z</time>
      </trkpt>
      <trkpt lat="43.99829" lon="5.90722">
        <ele>663</ele>
        <time>2020-10-05T12:38:21.000Z</time>
      </trkpt>
      <trkpt lat="43.99829" lon="5.90723">
        <ele>663</ele>
        <time>2020-10-05T12:38:22.000Z</time>
      </trkpt>
      <trkpt lat="43.99829" lon="5.90724">
        <ele>663</ele>
        <time>2020-10-05T12:38:23.000Z</time>
      </trkpt>
      <trkpt lat="43.99829" lon="5.90725">
        <ele>663</ele>
        <time>2020-10-05T12:38:24.000Z</time>
      </trkpt>
      <trkpt lat="43.99829" lon="5.90725">
        <ele>663</ele>
        <time>2020-10-05T12:38:25.000Z</time>
      </trkpt>
      <trkpt lat="43.99829" lon="5.90725">
        <ele>662</ele>
        <time>2020-10-05T12:38:26.000Z</time>
      </trkpt>
      <trkpt lat="43.99829" lon="5.90725">
        <ele>662</ele>
        <time>2020-10-05T12:38:27.000Z</time>
      </trkpt>
      <trkpt lat="43.99829" lon="5.90725">
        <ele>662</ele>
        <time>2020-10-05T12:38:28.000Z</time>
      </trkpt>
      <trkpt lat="43.99829" lon="5.90725">
        <ele>662</ele>
        <time>2020-10-05T12:38:29.000Z</time>
      </trkpt>
      <trkpt lat="43.99829" lon="5.90725">
        <ele>662</ele>
        <time>2020-10-05T12:38:30.000Z</time>
      </trkpt>
      <trkpt lat="43.99829" lon="5.90725">
        <ele>662</ele>
        <time>2020-10-05T12:38:31.000Z</time>
      </trkpt>
      <trkpt lat="43.99829" lon="5.90726">
        <ele>662</ele>
        <time>2020-10-05T12:38:32.000Z</time>
      </trkpt>
      <trkpt lat="43.99829" lon="5.90726">
        <ele>662</ele>
        <time>2020-10-05T12:38:33.000Z</time>
      </trkpt>
      <trkpt lat="43.99829" lon="5.90726">
        <ele>662</ele>
        <time>2020-10-05T12:38:34.000Z</time>
      </trkpt>
      <trkpt lat="43.99829" lon="5.90727">
        <ele>662</ele>
        <time>2020-10-05T12:38:35.000Z</time>
      </trkpt>
      <trkpt lat="43.99828" lon="5.90728">
        <ele>662</ele>
        <time>2020-10-05T12:38:36.000Z</time>
      </trkpt>
      <trkpt lat="43.99828" lon="5.90728">
        <ele>662</ele>
        <time>2020-10-05T12:38:37.000Z</time>
      </trkpt>
      <trkpt lat="43.99828" lon="5.90729">
        <ele>662</ele>
        <time>2020-10-05T12:38:38.000Z</time>
      </trkpt>
      <trkpt lat="43.99828" lon="5.90729">
        <ele>662</ele>
        <time>2020-10-05T12:38:39.000Z</time>
      </trkpt>
      <trkpt lat="43.99828" lon="5.90729">
        <ele>662</ele>
        <time>2020-10-05T12:38:40.000Z</time>
      </trkpt>
      <trkpt lat="43.99828" lon="5.9073">
        <ele>662</ele>
        <time>2020-10-05T12:38:41.000Z</time>
      </trkpt>
      <trkpt lat="43.99828" lon="5.9073">
        <ele>662</ele>
        <time>2020-10-05T12:38:42.000Z</time>
      </trkpt>
      <trkpt lat="43.99828" lon="5.90731">
        <ele>662</ele>
        <time>2020-10-05T12:38:43.000Z</time>
      </trkpt>
      <trkpt lat="43.99828" lon="5.90732">
        <ele>662</ele>
        <time>2020-10-05T12:38:44.000Z</time>
      </trkpt>
      <trkpt lat="43.99827" lon="5.90733">
        <ele>662</ele>
        <time>2020-10-05T12:38:45.000Z</time>
      </trkpt>
      <trkpt lat="43.99827" lon="5.90734">
        <ele>662</ele>
        <time>2020-10-05T12:38:46.000Z</time>
      </trkpt>
      <trkpt lat="43.99827" lon="5.90735">
        <ele>662</ele>
        <time>2020-10-05T12:38:47.000Z</time>
      </trkpt>
      <trkpt lat="43.99827" lon="5.90736">
        <ele>661</ele>
        <time>2020-10-05T12:38:48.000Z</time>
      </trkpt>
      <trkpt lat="43.99826" lon="5.90737">
        <ele>661</ele>
        <time>2020-10-05T12:38:49.000Z</time>
      </trkpt>
      <trkpt lat="43.99826" lon="5.90738">
        <ele>661</ele>
        <time>2020-10-05T12:38:50.000Z</time>
      </trkpt>
      <trkpt lat="43.99826" lon="5.90738">
        <ele>661</ele>
        <time>2020-10-05T12:38:51.000Z</time>
      </trkpt>
      <trkpt lat="43.99827" lon="5.90739">
        <ele>662</ele>
        <time>2020-10-05T12:38:52.000Z</time>
      </trkpt>
      <trkpt lat="43.99827" lon="5.9074">
        <ele>662</ele>
        <time>2020-10-05T12:38:53.000Z</time>
      </trkpt>
      <trkpt lat="43.99827" lon="5.90741">
        <ele>662</ele>
        <time>2020-10-05T12:38:54.000Z</time>
      </trkpt>
      <trkpt lat="43.99827" lon="5.90741">
        <ele>662</ele>
        <time>2020-10-05T12:38:55.000Z</time>
      </trkpt>
      <trkpt lat="43.99827" lon="5.90742">
        <ele>661</ele>
        <time>2020-10-05T12:38:56.000Z</time>
      </trkpt>
      <trkpt lat="43.99827" lon="5.90743">
        <ele>661</ele>
        <time>2020-10-05T12:38:57.000Z</time>
      </trkpt>
      <trkpt lat="43.99827" lon="5.90744">
        <ele>661</ele>
        <time>2020-10-05T12:38:58.000Z</time>
      </trkpt>
      <trkpt lat="43.99827" lon="5.90745">
        <ele>662</ele>
        <time>2020-10-05T12:38:59.000Z</time>
      </trkpt>
      <trkpt lat="43.99826" lon="5.90746">
        <ele>661</ele>
        <time>2020-10-05T12:39:00.000Z</time>
      </trkpt>
      <trkpt lat="43.99826" lon="5.90747">
        <ele>661</ele>
        <time>2020-10-05T12:39:01.000Z</time>
      </trkpt>
      <trkpt lat="43.99826" lon="5.90749">
        <ele>661</ele>
        <time>2020-10-05T12:39:02.000Z</time>
      </trkpt>
      <trkpt lat="43.99827" lon="5.9075">
        <ele>661</ele>
        <time>2020-10-05T12:39:03.000Z</time>
      </trkpt>
      <trkpt lat="43.99827" lon="5.90752">
        <ele>661</ele>
        <time>2020-10-05T12:39:04.000Z</time>
      </trkpt>
      <trkpt lat="43.99826" lon="5.90754">
        <ele>661</ele>
        <time>2020-10-05T12:39:05.000Z</time>
      </trkpt>
      <trkpt lat="43.99826" lon="5.90755">
        <ele>661</ele>
        <time>2020-10-05T12:39:06.000Z</time>
      </trkpt>
      <trkpt lat="43.99826" lon="5.90755">
        <ele>661</ele>
        <time>2020-10-05T12:39:07.000Z</time>
      </trkpt>
      <trkpt lat="43.99826" lon="5.90755">
        <ele>661</ele>
        <time>2020-10-05T12:39:08.000Z</time>
      </trkpt>
      <trkpt lat="43.99826" lon="5.90755">
        <ele>661</ele>
        <time>2020-10-05T12:39:09.000Z</time>
      </trkpt>
      <trkpt lat="43.99826" lon="5.90756">
        <ele>661</ele>
        <time>2020-10-05T12:39:10.000Z</time>
      </trkpt>
      <trkpt lat="43.99826" lon="5.90756">
        <ele>661</ele>
        <time>2020-10-05T12:39:11.000Z</time>
      </trkpt>
      <trkpt lat="43.99826" lon="5.90757">
        <ele>661</ele>
        <time>2020-10-05T12:39:12.000Z</time>
      </trkpt>
      <trkpt lat="43.99825" lon="5.90758">
        <ele>661</ele>
        <time>2020-10-05T12:39:13.000Z</time>
      </trkpt>
      <trkpt lat="43.99825" lon="5.9076">
        <ele>661</ele>
        <time>2020-10-05T12:39:14.000Z</time>
      </trkpt>
      <trkpt lat="43.99825" lon="5.90761">
        <ele>661</ele>
        <time>2020-10-05T12:39:15.000Z</time>
      </trkpt>
      <trkpt lat="43.99825" lon="5.90763">
        <ele>661</ele>
        <time>2020-10-05T12:39:16.000Z</time>
      </trkpt>
      <trkpt lat="43.99825" lon="5.90764">
        <ele>661</ele>
        <time>2020-10-05T12:39:17.000Z</time>
      </trkpt>
      <trkpt lat="43.99825" lon="5.90765">
        <ele>661</ele>
        <time>2020-10-05T12:39:18.000Z</time>
      </trkpt>
      <trkpt lat="43.99824" lon="5.90767">
        <ele>661</ele>
        <time>2020-10-05T12:39:19.000Z</time>
      </trkpt>
      <trkpt lat="43.99824" lon="5.90768">
        <ele>661</ele>
        <time>2020-10-05T12:39:20.000Z</time>
      </trkpt>
      <trkpt lat="43.99824" lon="5.90769">
        <ele>661</ele>
        <time>2020-10-05T12:39:21.000Z</time>
      </trkpt>
      <trkpt lat="43.99824" lon="5.90771">
        <ele>661</ele>
        <time>2020-10-05T12:39:22.000Z</time>
      </trkpt>
      <trkpt lat="43.99824" lon="5.90772">
        <ele>661</ele>
        <time>2020-10-05T12:39:23.000Z</time>
      </trkpt>
      <trkpt lat="43.99824" lon="5.90774">
        <ele>661</ele>
        <time>2020-10-05T12:39:24.000Z</time>
      </trkpt>
      <trkpt lat="43.99823" lon="5.90775">
        <ele>661</ele>
        <time>2020-10-05T12:39:25.000Z</time>
      </trkpt>
      <trkpt lat="43.99823" lon="5.90776">
        <ele>661</ele>
        <time>2020-10-05T12:39:26.000Z</time>
      </trkpt>
      <trkpt lat="43.99823" lon="5.90777">
        <ele>661</ele>
        <time>2020-10-05T12:39:27.000Z</time>
      </trkpt>
      <trkpt lat="43.99823" lon="5.90778">
        <ele>661</ele>
        <time>2020-10-05T12:39:28.000Z</time>
      </trkpt>
      <trkpt lat="43.99824" lon="5.90779">
        <ele>661</ele>
        <time>2020-10-05T12:39:29.000Z</time>
      </trkpt>
      <trkpt lat="43.99824" lon="5.9078">
        <ele>661</ele>
        <time>2020-10-05T12:39:30.000Z</time>
      </trkpt>
      <trkpt lat="43.99823" lon="5.90782">
        <ele>661</ele>
        <time>2020-10-05T12:39:31.000Z</time>
      </trkpt>
      <trkpt lat="43.99823" lon="5.90783">
        <ele>661</ele>
        <time>2020-10-05T12:39:32.000Z</time>
      </trkpt>
      <trkpt lat="43.99823" lon="5.90784">
        <ele>661</ele>
        <time>2020-10-05T12:39:33.000Z</time>
      </trkpt>
      <trkpt lat="43.99823" lon="5.90786">
        <ele>661</ele>
        <time>2020-10-05T12:39:34.000Z</time>
      </trkpt>
      <trkpt lat="43.99824" lon="5.90787">
        <ele>661</ele>
        <time>2020-10-05T12:39:35.000Z</time>
      </trkpt>
      <trkpt lat="43.99824" lon="5.90788">
        <ele>661</ele>
        <time>2020-10-05T12:39:36.000Z</time>
      </trkpt>
      <trkpt lat="43.99824" lon="5.90789">
        <ele>661</ele>
        <time>2020-10-05T12:39:37.000Z</time>
      </trkpt>
      <trkpt lat="43.99824" lon="5.9079">
        <ele>661</ele>
        <time>2020-10-05T12:39:38.000Z</time>
      </trkpt>
      <trkpt lat="43.99824" lon="5.90791">
        <ele>662</ele>
        <time>2020-10-05T12:39:39.000Z</time>
      </trkpt>
      <trkpt lat="43.99824" lon="5.90791">
        <ele>662</ele>
        <time>2020-10-05T12:39:40.000Z</time>
      </trkpt>
      <trkpt lat="43.99824" lon="5.90792">
        <ele>662</ele>
        <time>2020-10-05T12:39:41.000Z</time>
      </trkpt>
      <trkpt lat="43.99824" lon="5.90792">
        <ele>662</ele>
        <time>2020-10-05T12:39:42.000Z</time>
      </trkpt>
      <trkpt lat="43.99824" lon="5.90793">
        <ele>662</ele>
        <time>2020-10-05T12:39:43.000Z</time>
      </trkpt>
      <trkpt lat="43.99823" lon="5.90793">
        <ele>662</ele>
        <time>2020-10-05T12:39:44.000Z</time>
      </trkpt>
      <trkpt lat="43.99823" lon="5.90793">
        <ele>662</ele>
        <time>2020-10-05T12:39:45.000Z</time>
      </trkpt>
      <trkpt lat="43.99822" lon="5.90793">
        <ele>662</ele>
        <time>2020-10-05T12:39:46.000Z</time>
      </trkpt>
      <trkpt lat="43.99822" lon="5.90793">
        <ele>662</ele>
        <time>2020-10-05T12:39:47.000Z</time>
      </trkpt>
      <trkpt lat="43.99822" lon="5.90794">
        <ele>662</ele>
        <time>2020-10-05T12:39:48.000Z</time>
      </trkpt>
      <trkpt lat="43.99821" lon="5.90794">
        <ele>662</ele>
        <time>2020-10-05T12:39:49.000Z</time>
      </trkpt>
      <trkpt lat="43.99821" lon="5.90795">
        <ele>662</ele>
        <time>2020-10-05T12:39:50.000Z</time>
      </trkpt>
      <trkpt lat="43.9982" lon="5.90795">
        <ele>662</ele>
        <time>2020-10-05T12:39:51.000Z</time>
      </trkpt>
      <trkpt lat="43.9982" lon="5.90795">
        <ele>662</ele>
        <time>2020-10-05T12:39:52.000Z</time>
      </trkpt>
      <trkpt lat="43.9982" lon="5.90796">
        <ele>662</ele>
        <time>2020-10-05T12:39:53.000Z</time>
      </trkpt>
      <trkpt lat="43.99821" lon="5.90796">
        <ele>662</ele>
        <time>2020-10-05T12:39:54.000Z</time>
      </trkpt>
      <trkpt lat="43.99821" lon="5.90796">
        <ele>662</ele>
        <time>2020-10-05T12:39:55.000Z</time>
      </trkpt>
      <trkpt lat="43.99821" lon="5.90796">
        <ele>662</ele>
        <time>2020-10-05T12:39:56.000Z</time>
      </trkpt>
      <trkpt lat="43.99821" lon="5.90796">
        <ele>662</ele>
        <time>2020-10-05T12:39:57.000Z</time>
      </trkpt>
      <trkpt lat="43.99821" lon="5.90796">
        <ele>662</ele>
        <time>2020-10-05T12:39:58.000Z</time>
      </trkpt>
      <trkpt lat="43.99821" lon="5.90795">
        <ele>662</ele>
        <time>2020-10-05T12:39:59.000Z</time>
      </trkpt>
      <trkpt lat="43.99821" lon="5.90795">
        <ele>662</ele>
        <time>2020-10-05T12:40:00.000Z</time>
      </trkpt>
      <trkpt lat="43.99821" lon="5.90795">
        <ele>662</ele>
        <time>2020-10-05T12:40:01.000Z</time>
      </trkpt>
      <trkpt lat="43.99821" lon="5.90795">
        <ele>662</ele>
        <time>2020-10-05T12:40:02.000Z</time>
      </trkpt>
      <trkpt lat="43.99821" lon="5.90795">
        <ele>662</ele>
        <time>2020-10-05T12:40:03.000Z</time>
      </trkpt>
      <trkpt lat="43.99821" lon="5.90795">
        <ele>662</ele>
        <time>2020-10-05T12:40:04.000Z</time>
      </trkpt>
      <trkpt lat="43.99821" lon="5.90795">
        <ele>662</ele>
        <time>2020-10-05T12:40:05.000Z</time>
      </trkpt>
      <trkpt lat="43.99821" lon="5.90795">
        <ele>662</ele>
        <time>2020-10-05T12:40:06.000Z</time>
      </trkpt>
      <trkpt lat="43.99821" lon="5.90795">
        <ele>662</ele>
        <time>2020-10-05T12:40:07.000Z</time>
      </trkpt>
      <trkpt lat="43.9982" lon="5.90794">
        <ele>662</ele>
        <time>2020-10-05T12:40:08.000Z</time>
      </trkpt>
      <trkpt lat="43.9982" lon="5.90794">
        <ele>662</ele>
        <time>2020-10-05T12:40:09.000Z</time>
      </trkpt>
      <trkpt lat="43.9982" lon="5.90794">
        <ele>662</ele>
        <time>2020-10-05T12:40:10.000Z</time>
      </trkpt>
      <trkpt lat="43.9982" lon="5.90793">
        <ele>662</ele>
        <time>2020-10-05T12:40:11.000Z</time>
      </trkpt>
      <trkpt lat="43.9982" lon="5.90794">
        <ele>662</ele>
        <time>2020-10-05T12:40:12.000Z</time>
      </trkpt>
      <trkpt lat="43.9982" lon="5.90793">
        <ele>662</ele>
        <time>2020-10-05T12:40:13.000Z</time>
      </trkpt>
      <trkpt lat="43.9982" lon="5.90793">
        <ele>662</ele>
        <time>2020-10-05T12:40:14.000Z</time>
      </trkpt>
      <trkpt lat="43.9982" lon="5.90793">
        <ele>662</ele>
        <time>2020-10-05T12:40:15.000Z</time>
      </trkpt>
      <trkpt lat="43.9982" lon="5.90793">
        <ele>662</ele>
        <time>2020-10-05T12:40:16.000Z</time>
      </trkpt>
      <trkpt lat="43.9982" lon="5.90793">
        <ele>663</ele>
        <time>2020-10-05T12:40:17.000Z</time>
      </trkpt>
      <trkpt lat="43.9982" lon="5.90793">
        <ele>663</ele>
        <time>2020-10-05T12:40:18.000Z</time>
      </trkpt>
      <trkpt lat="43.9982" lon="5.90793">
        <ele>663</ele>
        <time>2020-10-05T12:40:19.000Z</time>
      </trkpt>
      <trkpt lat="43.9982" lon="5.90793">
        <ele>663</ele>
        <time>2020-10-05T12:40:20.000Z</time>
      </trkpt>
      <trkpt lat="43.9982" lon="5.90793">
        <ele>663</ele>
        <time>2020-10-05T12:40:21.000Z</time>
      </trkpt>
      <trkpt lat="43.9982" lon="5.90793">
        <ele>663</ele>
        <time>2020-10-05T12:40:22.000Z</time>
      </trkpt>
      <trkpt lat="43.9982" lon="5.90794">
        <ele>663</ele>
        <time>2020-10-05T12:40:23.000Z</time>
      </trkpt>
      <trkpt lat="43.9982" lon="5.90794">
        <ele>663</ele>
        <time>2020-10-05T12:40:24.000Z</time>
      </trkpt>
      <trkpt lat="43.9982" lon="5.90794">
        <ele>663</ele>
        <time>2020-10-05T12:40:25.000Z</time>
      </trkpt>
      <trkpt lat="43.9982" lon="5.90795">
        <ele>663</ele>
        <time>2020-10-05T12:40:26.000Z</time>
      </trkpt>
      <trkpt lat="43.99821" lon="5.90795">
        <ele>663</ele>
        <time>2020-10-05T12:40:27.000Z</time>
      </trkpt>
      <trkpt lat="43.99821" lon="5.90795">
        <ele>663</ele>
        <time>2020-10-05T12:40:28.000Z</time>
      </trkpt>
      <trkpt lat="43.99821" lon="5.90795">
        <ele>663</ele>
        <time>2020-10-05T12:40:29.000Z</time>
      </trkpt>
      <trkpt lat="43.99821" lon="5.90795">
        <ele>663</ele>
        <time>2020-10-05T12:40:30.000Z</time>
      </trkpt>
      <trkpt lat="43.99822" lon="5.90795">
        <ele>663</ele>
        <time>2020-10-05T12:40:31.000Z</time>
      </trkpt>
      <trkpt lat="43.99822" lon="5.90795">
        <ele>663</ele>
        <time>2020-10-05T12:40:32.000Z</time>
      </trkpt>
      <trkpt lat="43.99822" lon="5.90794">
        <ele>663</ele>
        <time>2020-10-05T12:40:33.000Z</time>
      </trkpt>
      <trkpt lat="43.99822" lon="5.90794">
        <ele>663</ele>
        <time>2020-10-05T12:40:34.000Z</time>
      </trkpt>
      <trkpt lat="43.99822" lon="5.90794">
        <ele>663</ele>
        <time>2020-10-05T12:40:35.000Z</time>
      </trkpt>
      <trkpt lat="43.99822" lon="5.90794">
        <ele>663</ele>
        <time>2020-10-05T12:40:36.000Z</time>
      </trkpt>
      <trkpt lat="43.99822" lon="5.90794">
        <ele>663</ele>
        <time>2020-10-05T12:40:37.000Z</time>
      </trkpt>
      <trkpt lat="43.99822" lon="5.90794">
        <ele>663</ele>
        <time>2020-10-05T12:40:38.000Z</time>
      </trkpt>
      <trkpt lat="43.99822" lon="5.90793">
        <ele>663</ele>
        <time>2020-10-05T12:40:39.000Z</time>
      </trkpt>
      <trkpt lat="43.99822" lon="5.90793">
        <ele>663</ele>
        <time>2020-10-05T12:40:40.000Z</time>
      </trkpt>
      <trkpt lat="43.99822" lon="5.90793">
        <ele>663</ele>
        <time>2020-10-05T12:40:41.000Z</time>
      </trkpt>
      <trkpt lat="43.99822" lon="5.90792">
        <ele>663</ele>
        <time>2020-10-05T12:40:42.000Z</time>
      </trkpt>
      <trkpt lat="43.99822" lon="5.90792">
        <ele>663</ele>
        <time>2020-10-05T12:40:43.000Z</time>
      </trkpt>
      <trkpt lat="43.99822" lon="5.90792">
        <ele>663</ele>
        <time>2020-10-05T12:40:44.000Z</time>
      </trkpt>
      <trkpt lat="43.99822" lon="5.90792">
        <ele>663</ele>
        <time>2020-10-05T12:40:45.000Z</time>
      </trkpt>
      <trkpt lat="43.99822" lon="5.90792">
        <ele>663</ele>
        <time>2020-10-05T12:40:46.000Z</time>
      </trkpt>
      <trkpt lat="43.99822" lon="5.90792">
        <ele>663</ele>
        <time>2020-10-05T12:40:47.000Z</time>
      </trkpt>
      <trkpt lat="43.99822" lon="5.90792">
        <ele>663</ele>
        <time>2020-10-05T12:40:48.000Z</time>
      </trkpt>
      <trkpt lat="43.99821" lon="5.90792">
        <ele>663</ele>
        <time>2020-10-05T12:40:49.000Z</time>
      </trkpt>
      <trkpt lat="43.99821" lon="5.90792">
        <ele>663</ele>
        <time>2020-10-05T12:40:50.000Z</time>
      </trkpt>
      <trkpt lat="43.99821" lon="5.90792">
        <ele>663</ele>
        <time>2020-10-05T12:40:51.000Z</time>
      </trkpt>
      <trkpt lat="43.99821" lon="5.90792">
        <ele>663</ele>
        <time>2020-10-05T12:40:52.000Z</time>
      </trkpt>
      <trkpt lat="43.99821" lon="5.90792">
        <ele>663</ele>
        <time>2020-10-05T12:40:53.000Z</time>
      </trkpt>
      <trkpt lat="43.99821" lon="5.90792">
        <ele>663</ele>
        <time>2020-10-05T12:40:54.000Z</time>
      </trkpt>
      <trkpt lat="43.99821" lon="5.90792">
        <ele>663</ele>
        <time>2020-10-05T12:40:55.000Z</time>
      </trkpt>
      <trkpt lat="43.99821" lon="5.90792">
        <ele>663</ele>
        <time>2020-10-05T12:40:56.000Z</time>
      </trkpt>
      <trkpt lat="43.99821" lon="5.90792">
        <ele>663</ele>
        <time>2020-10-05T12:40:57.000Z</time>
      </trkpt>
      <trkpt lat="43.99821" lon="5.90791">
        <ele>663</ele>
        <time>2020-10-05T12:40:58.000Z</time>
      </trkpt>
      <trkpt lat="43.99821" lon="5.90791">
        <ele>663</ele>
        <time>2020-10-05T12:40:59.000Z</time>
      </trkpt>
      <trkpt lat="43.99821" lon="5.90791">
        <ele>664</ele>
        <time>2020-10-05T12:41:00.000Z</time>
      </trkpt>
      <trkpt lat="43.99821" lon="5.90791">
        <ele>664</ele>
        <time>2020-10-05T12:41:01.000Z</time>
      </trkpt>
      <trkpt lat="43.99821" lon="5.90791">
        <ele>664</ele>
        <time>2020-10-05T12:41:02.000Z</time>
      </trkpt>
      <trkpt lat="43.99821" lon="5.90791">
        <ele>664</ele>
        <time>2020-10-05T12:41:03.000Z</time>
      </trkpt>
      <trkpt lat="43.99821" lon="5.90791">
        <ele>664</ele>
        <time>2020-10-05T12:41:04.000Z</time>
      </trkpt>
      <trkpt lat="43.99821" lon="5.90791">
        <ele>664</ele>
        <time>2020-10-05T12:41:05.000Z</time>
      </trkpt>
      <trkpt lat="43.99821" lon="5.90791">
        <ele>664</ele>
        <time>2020-10-05T12:41:06.000Z</time>
      </trkpt>
      <trkpt lat="43.99821" lon="5.90791">
        <ele>664</ele>
        <time>2020-10-05T12:41:07.000Z</time>
      </trkpt>
      <trkpt lat="43.99821" lon="5.90791">
        <ele>664</ele>
        <time>2020-10-05T12:41:08.000Z</time>
      </trkpt>
      <trkpt lat="43.99822" lon="5.90791">
        <ele>664</ele>
        <time>2020-10-05T12:41:09.000Z</time>
      </trkpt>
      <trkpt lat="43.99822" lon="5.90791">
        <ele>664</ele>
        <time>2020-10-05T12:41:10.000Z</time>
      </trkpt>
      <trkpt lat="43.99822" lon="5.9079">
        <ele>664</ele>
        <time>2020-10-05T12:41:11.000Z</time>
      </trkpt>
      <trkpt lat="43.99822" lon="5.9079">
        <ele>664</ele>
        <time>2020-10-05T12:41:12.000Z</time>
      </trkpt>
      <trkpt lat="43.99822" lon="5.9079">
        <ele>664</ele>
        <time>2020-10-05T12:41:13.000Z</time>
      </trkpt>
      <trkpt lat="43.99822" lon="5.90789">
        <ele>664</ele>
        <time>2020-10-05T12:41:14.000Z</time>
      </trkpt>
      <trkpt lat="43.99821" lon="5.90789">
        <ele>664</ele>
        <time>2020-10-05T12:41:15.000Z</time>
      </trkpt>
      <trkpt lat="43.99821" lon="5.90788">
        <ele>664</ele>
        <time>2020-10-05T12:41:16.000Z</time>
      </trkpt>
      <trkpt lat="43.99821" lon="5.90787">
        <ele>664</ele>
        <time>2020-10-05T12:41:17.000Z</time>
      </trkpt>
      <trkpt lat="43.9982" lon="5.90787">
        <ele>664</ele>
        <time>2020-10-05T12:41:18.000Z</time>
      </trkpt>
      <trkpt lat="43.9982" lon="5.90786">
        <ele>664</ele>
        <time>2020-10-05T12:41:19.000Z</time>
      </trkpt>
      <trkpt lat="43.9982" lon="5.90785">
        <ele>664</ele>
        <time>2020-10-05T12:41:20.000Z</time>
      </trkpt>
      <trkpt lat="43.9982" lon="5.90784">
        <ele>664</ele>
        <time>2020-10-05T12:41:21.000Z</time>
      </trkpt>
      <trkpt lat="43.9982" lon="5.90783">
        <ele>664</ele>
        <time>2020-10-05T12:41:22.000Z</time>
      </trkpt>
      <trkpt lat="43.99819" lon="5.90782">
        <ele>664</ele>
        <time>2020-10-05T12:41:23.000Z</time>
      </trkpt>
      <trkpt lat="43.99819" lon="5.90782">
        <ele>664</ele>
        <time>2020-10-05T12:41:24.000Z</time>
      </trkpt>
      <trkpt lat="43.99819" lon="5.9078">
        <ele>664</ele>
        <time>2020-10-05T12:41:25.000Z</time>
      </trkpt>
      <trkpt lat="43.99819" lon="5.9078">
        <ele>664</ele>
        <time>2020-10-05T12:41:26.000Z</time>
      </trkpt>
      <trkpt lat="43.99819" lon="5.90779">
        <ele>664</ele>
        <time>2020-10-05T12:41:27.000Z</time>
      </trkpt>
      <trkpt lat="43.99819" lon="5.90778">
        <ele>664</ele>
        <time>2020-10-05T12:41:28.000Z</time>
      </trkpt>
      <trkpt lat="43.99819" lon="5.90777">
        <ele>664</ele>
        <time>2020-10-05T12:41:29.000Z</time>
      </trkpt>
      <trkpt lat="43.99819" lon="5.90776">
        <ele>664</ele>
        <time>2020-10-05T12:41:30.000Z</time>
      </trkpt>
      <trkpt lat="43.99819" lon="5.90775">
        <ele>664</ele>
        <time>2020-10-05T12:41:31.000Z</time>
      </trkpt>
      <trkpt lat="43.99819" lon="5.90775">
        <ele>664</ele>
        <time>2020-10-05T12:41:32.000Z</time>
      </trkpt>
      <trkpt lat="43.99819" lon="5.90775">
        <ele>664</ele>
        <time>2020-10-05T12:41:33.000Z</time>
      </trkpt>
      <trkpt lat="43.99819" lon="5.90775">
        <ele>664</ele>
        <time>2020-10-05T12:41:34.000Z</time>
      </trkpt>
      <trkpt lat="43.99819" lon="5.90775">
        <ele>664</ele>
        <time>2020-10-05T12:41:35.000Z</time>
      </trkpt>
      <trkpt lat="43.99819" lon="5.90775">
        <ele>664</ele>
        <time>2020-10-05T12:41:36.000Z</time>
      </trkpt>
      <trkpt lat="43.99819" lon="5.90776">
        <ele>664</ele>
        <time>2020-10-05T12:41:37.000Z</time>
      </trkpt>
      <trkpt lat="43.99818" lon="5.90776">
        <ele>664</ele>
        <time>2020-10-05T12:41:38.000Z</time>
      </trkpt>
      <trkpt lat="43.99818" lon="5.90777">
        <ele>664</ele>
        <time>2020-10-05T12:41:39.000Z</time>
      </trkpt>
      <trkpt lat="43.99817" lon="5.90777">
        <ele>664</ele>
        <time>2020-10-05T12:41:40.000Z</time>
      </trkpt>
      <trkpt lat="43.99817" lon="5.90778">
        <ele>664</ele>
        <time>2020-10-05T12:41:41.000Z</time>
      </trkpt>
      <trkpt lat="43.99817" lon="5.90778">
        <ele>664</ele>
        <time>2020-10-05T12:41:42.000Z</time>
      </trkpt>
      <trkpt lat="43.99817" lon="5.90777">
        <ele>664</ele>
        <time>2020-10-05T12:41:43.000Z</time>
      </trkpt>
      <trkpt lat="43.99817" lon="5.90777">
        <ele>664</ele>
        <time>2020-10-05T12:41:44.000Z</time>
      </trkpt>
      <trkpt lat="43.99817" lon="5.90777">
        <ele>664</ele>
        <time>2020-10-05T12:41:45.000Z</time>
      </trkpt>
      <trkpt lat="43.99817" lon="5.90777">
        <ele>664</ele>
        <time>2020-10-05T12:41:46.000Z</time>
      </trkpt>
      <trkpt lat="43.99817" lon="5.90778">
        <ele>664</ele>
        <time>2020-10-05T12:41:47.000Z</time>
      </trkpt>
      <trkpt lat="43.99817" lon="5.90777">
        <ele>664</ele>
        <time>2020-10-05T12:41:48.000Z</time>
      </trkpt>
      <trkpt lat="43.99817" lon="5.90777">
        <ele>664</ele>
        <time>2020-10-05T12:41:49.000Z</time>
      </trkpt>
      <trkpt lat="43.99817" lon="5.90777">
        <ele>664</ele>
        <time>2020-10-05T12:41:50.000Z</time>
      </trkpt>
      <trkpt lat="43.99817" lon="5.90777">
        <ele>664</ele>
        <time>2020-10-05T12:41:51.000Z</time>
      </trkpt>
      <trkpt lat="43.99817" lon="5.90778">
        <ele>664</ele>
        <time>2020-10-05T12:41:52.000Z</time>
      </trkpt>
      <trkpt lat="43.99817" lon="5.90778">
        <ele>664</ele>
        <time>2020-10-05T12:41:53.000Z</time>
      </trkpt>
      <trkpt lat="43.99817" lon="5.90777">
        <ele>663</ele>
        <time>2020-10-05T12:41:54.000Z</time>
      </trkpt>
      <trkpt lat="43.99817" lon="5.90777">
        <ele>663</ele>
        <time>2020-10-05T12:41:55.000Z</time>
      </trkpt>
      <trkpt lat="43.99818" lon="5.90776">
        <ele>663</ele>
        <time>2020-10-05T12:41:56.000Z</time>
      </trkpt>
      <trkpt lat="43.99819" lon="5.90776">
        <ele>663</ele>
        <time>2020-10-05T12:41:57.000Z</time>
      </trkpt>
      <trkpt lat="43.99819" lon="5.90776">
        <ele>663</ele>
        <time>2020-10-05T12:41:58.000Z</time>
      </trkpt>
      <trkpt lat="43.9982" lon="5.90775">
        <ele>663</ele>
        <time>2020-10-05T12:41:59.000Z</time>
      </trkpt>
      <trkpt lat="43.9982" lon="5.90774">
        <ele>663</ele>
        <time>2020-10-05T12:42:00.000Z</time>
      </trkpt>
      <trkpt lat="43.99821" lon="5.90773">
        <ele>663</ele>
        <time>2020-10-05T12:42:01.000Z</time>
      </trkpt>
      <trkpt lat="43.99821" lon="5.90772">
        <ele>663</ele>
        <time>2020-10-05T12:42:02.000Z</time>
      </trkpt>
      <trkpt lat="43.99821" lon="5.90771">
        <ele>663</ele>
        <time>2020-10-05T12:42:03.000Z</time>
      </trkpt>
      <trkpt lat="43.99821" lon="5.90769">
        <ele>663</ele>
        <time>2020-10-05T12:42:04.000Z</time>
      </trkpt>
      <trkpt lat="43.99821" lon="5.90768">
        <ele>663</ele>
        <time>2020-10-05T12:42:05.000Z</time>
      </trkpt>
      <trkpt lat="43.99821" lon="5.90767">
        <ele>663</ele>
        <time>2020-10-05T12:42:06.000Z</time>
      </trkpt>
      <trkpt lat="43.99822" lon="5.90765">
        <ele>663</ele>
        <time>2020-10-05T12:42:07.000Z</time>
      </trkpt>
      <trkpt lat="43.99822" lon="5.90764">
        <ele>662</ele>
        <time>2020-10-05T12:42:08.000Z</time>
      </trkpt>
      <trkpt lat="43.99822" lon="5.90762">
        <ele>662</ele>
        <time>2020-10-05T12:42:09.000Z</time>
      </trkpt>
      <trkpt lat="43.99822" lon="5.90761">
        <ele>662</ele>
        <time>2020-10-05T12:42:10.000Z</time>
      </trkpt>
      <trkpt lat="43.99822" lon="5.9076">
        <ele>662</ele>
        <time>2020-10-05T12:42:11.000Z</time>
      </trkpt>
      <trkpt lat="43.99823" lon="5.90759">
        <ele>662</ele>
        <time>2020-10-05T12:42:12.000Z</time>
      </trkpt>
      <trkpt lat="43.99823" lon="5.90757">
        <ele>662</ele>
        <time>2020-10-05T12:42:13.000Z</time>
      </trkpt>
      <trkpt lat="43.99823" lon="5.90756">
        <ele>662</ele>
        <time>2020-10-05T12:42:14.000Z</time>
      </trkpt>
      <trkpt lat="43.99823" lon="5.90754">
        <ele>662</ele>
        <time>2020-10-05T12:42:15.000Z</time>
      </trkpt>
      <trkpt lat="43.99823" lon="5.90752">
        <ele>662</ele>
        <time>2020-10-05T12:42:16.000Z</time>
      </trkpt>
      <trkpt lat="43.99823" lon="5.90751">
        <ele>662</ele>
        <time>2020-10-05T12:42:17.000Z</time>
      </trkpt>
      <trkpt lat="43.99823" lon="5.9075">
        <ele>662</ele>
        <time>2020-10-05T12:42:18.000Z</time>
      </trkpt>
      <trkpt lat="43.99823" lon="5.90748">
        <ele>662</ele>
        <time>2020-10-05T12:42:19.000Z</time>
      </trkpt>
      <trkpt lat="43.99824" lon="5.90747">
        <ele>662</ele>
        <time>2020-10-05T12:42:20.000Z</time>
      </trkpt>
      <trkpt lat="43.99824" lon="5.90746">
        <ele>662</ele>
        <time>2020-10-05T12:42:21.000Z</time>
      </trkpt>
      <trkpt lat="43.99824" lon="5.90744">
        <ele>662</ele>
        <time>2020-10-05T12:42:22.000Z</time>
      </trkpt>
      <trkpt lat="43.99824" lon="5.90743">
        <ele>662</ele>
        <time>2020-10-05T12:42:23.000Z</time>
      </trkpt>
      <trkpt lat="43.99825" lon="5.90741">
        <ele>662</ele>
        <time>2020-10-05T12:42:24.000Z</time>
      </trkpt>
      <trkpt lat="43.99825" lon="5.9074">
        <ele>662</ele>
        <time>2020-10-05T12:42:25.000Z</time>
      </trkpt>
      <trkpt lat="43.99825" lon="5.90738">
        <ele>662</ele>
        <time>2020-10-05T12:42:26.000Z</time>
      </trkpt>
      <trkpt lat="43.99825" lon="5.90737">
        <ele>662</ele>
        <time>2020-10-05T12:42:27.000Z</time>
      </trkpt>
      <trkpt lat="43.99826" lon="5.90736">
        <ele>662</ele>
        <time>2020-10-05T12:42:28.000Z</time>
      </trkpt>
      <trkpt lat="43.99826" lon="5.90735">
        <ele>662</ele>
        <time>2020-10-05T12:42:29.000Z</time>
      </trkpt>
      <trkpt lat="43.99826" lon="5.90733">
        <ele>662</ele>
        <time>2020-10-05T12:42:30.000Z</time>
      </trkpt>
      <trkpt lat="43.99827" lon="5.90732">
        <ele>662</ele>
        <time>2020-10-05T12:42:31.000Z</time>
      </trkpt>
      <trkpt lat="43.99827" lon="5.9073">
        <ele>663</ele>
        <time>2020-10-05T12:42:32.000Z</time>
      </trkpt>
      <trkpt lat="43.99828" lon="5.90729">
        <ele>663</ele>
        <time>2020-10-05T12:42:33.000Z</time>
      </trkpt>
      <trkpt lat="43.99828" lon="5.90727">
        <ele>663</ele>
        <time>2020-10-05T12:42:34.000Z</time>
      </trkpt>
      <trkpt lat="43.99829" lon="5.90726">
        <ele>663</ele>
        <time>2020-10-05T12:42:35.000Z</time>
      </trkpt>
      <trkpt lat="43.99829" lon="5.90724">
        <ele>663</ele>
        <time>2020-10-05T12:42:36.000Z</time>
      </trkpt>
      <trkpt lat="43.99829" lon="5.90723">
        <ele>663</ele>
        <time>2020-10-05T12:42:37.000Z</time>
      </trkpt>
      <trkpt lat="43.99829" lon="5.90721">
        <ele>663</ele>
        <time>2020-10-05T12:42:38.000Z</time>
      </trkpt>
      <trkpt lat="43.99829" lon="5.9072">
        <ele>663</ele>
        <time>2020-10-05T12:42:39.000Z</time>
      </trkpt>
      <trkpt lat="43.99829" lon="5.90719">
        <ele>663</ele>
        <time>2020-10-05T12:42:40.000Z</time>
      </trkpt>
      <trkpt lat="43.99829" lon="5.90718">
        <ele>663</ele>
        <time>2020-10-05T12:42:41.000Z</time>
      </trkpt>
      <trkpt lat="43.99829" lon="5.90716">
        <ele>663</ele>
        <time>2020-10-05T12:42:42.000Z</time>
      </trkpt>
      <trkpt lat="43.99829" lon="5.90715">
        <ele>663</ele>
        <time>2020-10-05T12:42:43.000Z</time>
      </trkpt>
      <trkpt lat="43.99829" lon="5.90715">
        <ele>663</ele>
        <time>2020-10-05T12:42:44.000Z</time>
      </trkpt>
      <trkpt lat="43.99829" lon="5.90714">
        <ele>663</ele>
        <time>2020-10-05T12:42:45.000Z</time>
      </trkpt>
      <trkpt lat="43.99829" lon="5.90713">
        <ele>663</ele>
        <time>2020-10-05T12:42:46.000Z</time>
      </trkpt>
      <trkpt lat="43.99828" lon="5.90712">
        <ele>663</ele>
        <time>2020-10-05T12:42:47.000Z</time>
      </trkpt>
      <trkpt lat="43.99828" lon="5.90711">
        <ele>663</ele>
        <time>2020-10-05T12:42:48.000Z</time>
      </trkpt>
      <trkpt lat="43.99828" lon="5.90709">
        <ele>663</ele>
        <time>2020-10-05T12:42:49.000Z</time>
      </trkpt>
      <trkpt lat="43.99828" lon="5.90708">
        <ele>663</ele>
        <time>2020-10-05T12:42:50.000Z</time>
      </trkpt>
      <trkpt lat="43.99827" lon="5.90706">
        <ele>663</ele>
        <time>2020-10-05T12:42:51.000Z</time>
      </trkpt>
      <trkpt lat="43.99827" lon="5.90704">
        <ele>663</ele>
        <time>2020-10-05T12:42:52.000Z</time>
      </trkpt>
      <trkpt lat="43.99827" lon="5.90703">
        <ele>663</ele>
        <time>2020-10-05T12:42:53.000Z</time>
      </trkpt>
      <trkpt lat="43.99826" lon="5.90701">
        <ele>663</ele>
        <time>2020-10-05T12:42:54.000Z</time>
      </trkpt>
      <trkpt lat="43.99825" lon="5.90699">
        <ele>663</ele>
        <time>2020-10-05T12:42:55.000Z</time>
      </trkpt>
      <trkpt lat="43.99825" lon="5.90697">
        <ele>663</ele>
        <time>2020-10-05T12:42:56.000Z</time>
      </trkpt>
      <trkpt lat="43.99824" lon="5.90695">
        <ele>663</ele>
        <time>2020-10-05T12:42:57.000Z</time>
      </trkpt>
      <trkpt lat="43.99823" lon="5.90693">
        <ele>663</ele>
        <time>2020-10-05T12:42:58.000Z</time>
      </trkpt>
      <trkpt lat="43.99823" lon="5.90691">
        <ele>663</ele>
        <time>2020-10-05T12:42:59.000Z</time>
      </trkpt>
      <trkpt lat="43.99823" lon="5.90689">
        <ele>663</ele>
        <time>2020-10-05T12:43:00.000Z</time>
      </trkpt>
      <trkpt lat="43.99822" lon="5.90688">
        <ele>663</ele>
        <time>2020-10-05T12:43:01.000Z</time>
      </trkpt>
      <trkpt lat="43.99822" lon="5.90687">
        <ele>663</ele>
        <time>2020-10-05T12:43:02.000Z</time>
      </trkpt>
      <trkpt lat="43.99822" lon="5.90685">
        <ele>663</ele>
        <time>2020-10-05T12:43:03.000Z</time>
      </trkpt>
      <trkpt lat="43.99822" lon="5.90685">
        <ele>663</ele>
        <time>2020-10-05T12:43:04.000Z</time>
      </trkpt>
      <trkpt lat="43.99822" lon="5.90684">
        <ele>662</ele>
        <time>2020-10-05T12:43:05.000Z</time>
      </trkpt>
      <trkpt lat="43.99822" lon="5.90683">
        <ele>662</ele>
        <time>2020-10-05T12:43:06.000Z</time>
      </trkpt>
      <trkpt lat="43.99821" lon="5.90683">
        <ele>662</ele>
        <time>2020-10-05T12:43:07.000Z</time>
      </trkpt>
      <trkpt lat="43.99821" lon="5.90682">
        <ele>662</ele>
        <time>2020-10-05T12:43:08.000Z</time>
      </trkpt>
      <trkpt lat="43.99821" lon="5.90681">
        <ele>662</ele>
        <time>2020-10-05T12:43:09.000Z</time>
      </trkpt>
      <trkpt lat="43.99821" lon="5.9068">
        <ele>662</ele>
        <time>2020-10-05T12:43:10.000Z</time>
      </trkpt>
      <trkpt lat="43.99821" lon="5.9068">
        <ele>662</ele>
        <time>2020-10-05T12:43:11.000Z</time>
      </trkpt>
      <trkpt lat="43.99821" lon="5.90678">
        <ele>662</ele>
        <time>2020-10-05T12:43:12.000Z</time>
      </trkpt>
      <trkpt lat="43.99821" lon="5.90677">
        <ele>662</ele>
        <time>2020-10-05T12:43:13.000Z</time>
      </trkpt>
      <trkpt lat="43.99821" lon="5.90676">
        <ele>662</ele>
        <time>2020-10-05T12:43:14.000Z</time>
      </trkpt>
      <trkpt lat="43.99821" lon="5.90675">
        <ele>662</ele>
        <time>2020-10-05T12:43:15.000Z</time>
      </trkpt>
      <trkpt lat="43.9982" lon="5.90673">
        <ele>662</ele>
        <time>2020-10-05T12:43:16.000Z</time>
      </trkpt>
      <trkpt lat="43.9982" lon="5.90672">
        <ele>662</ele>
        <time>2020-10-05T12:43:17.000Z</time>
      </trkpt>
      <trkpt lat="43.9982" lon="5.90671">
        <ele>662</ele>
        <time>2020-10-05T12:43:18.000Z</time>
      </trkpt>
      <trkpt lat="43.99819" lon="5.9067">
        <ele>662</ele>
        <time>2020-10-05T12:43:19.000Z</time>
      </trkpt>
      <trkpt lat="43.99819" lon="5.90668">
        <ele>662</ele>
        <time>2020-10-05T12:43:20.000Z</time>
      </trkpt>
      <trkpt lat="43.99818" lon="5.90667">
        <ele>662</ele>
        <time>2020-10-05T12:43:21.000Z</time>
      </trkpt>
      <trkpt lat="43.99818" lon="5.90666">
        <ele>661</ele>
        <time>2020-10-05T12:43:22.000Z</time>
      </trkpt>
      <trkpt lat="43.99818" lon="5.90664">
        <ele>661</ele>
        <time>2020-10-05T12:43:23.000Z</time>
      </trkpt>
      <trkpt lat="43.99818" lon="5.90663">
        <ele>661</ele>
        <time>2020-10-05T12:43:24.000Z</time>
      </trkpt>
      <trkpt lat="43.99818" lon="5.90662">
        <ele>661</ele>
        <time>2020-10-05T12:43:25.000Z</time>
      </trkpt>
      <trkpt lat="43.99818" lon="5.9066">
        <ele>661</ele>
        <time>2020-10-05T12:43:26.000Z</time>
      </trkpt>
      <trkpt lat="43.99819" lon="5.90659">
        <ele>661</ele>
        <time>2020-10-05T12:43:27.000Z</time>
      </trkpt>
      <trkpt lat="43.99819" lon="5.90658">
        <ele>661</ele>
        <time>2020-10-05T12:43:28.000Z</time>
      </trkpt>
      <trkpt lat="43.99819" lon="5.90657">
        <ele>661</ele>
        <time>2020-10-05T12:43:29.000Z</time>
      </trkpt>
      <trkpt lat="43.99819" lon="5.90656">
        <ele>661</ele>
        <time>2020-10-05T12:43:30.000Z</time>
      </trkpt>
      <trkpt lat="43.99819" lon="5.90655">
        <ele>661</ele>
        <time>2020-10-05T12:43:31.000Z</time>
      </trkpt>
      <trkpt lat="43.99819" lon="5.90653">
        <ele>661</ele>
        <time>2020-10-05T12:43:32.000Z</time>
      </trkpt>
      <trkpt lat="43.99818" lon="5.90652">
        <ele>661</ele>
        <time>2020-10-05T12:43:33.000Z</time>
      </trkpt>
      <trkpt lat="43.99818" lon="5.9065">
        <ele>661</ele>
        <time>2020-10-05T12:43:34.000Z</time>
      </trkpt>
      <trkpt lat="43.99818" lon="5.90649">
        <ele>661</ele>
        <time>2020-10-05T12:43:35.000Z</time>
      </trkpt>
      <trkpt lat="43.99818" lon="5.90648">
        <ele>661</ele>
        <time>2020-10-05T12:43:36.000Z</time>
      </trkpt>
      <trkpt lat="43.99818" lon="5.90646">
        <ele>661</ele>
        <time>2020-10-05T12:43:37.000Z</time>
      </trkpt>
      <trkpt lat="43.99818" lon="5.90645">
        <ele>661</ele>
        <time>2020-10-05T12:43:38.000Z</time>
      </trkpt>
      <trkpt lat="43.99818" lon="5.90644">
        <ele>661</ele>
        <time>2020-10-05T12:43:39.000Z</time>
      </trkpt>
      <trkpt lat="43.99818" lon="5.90643">
        <ele>661</ele>
        <time>2020-10-05T12:43:40.000Z</time>
      </trkpt>
      <trkpt lat="43.99818" lon="5.90641">
        <ele>661</ele>
        <time>2020-10-05T12:43:41.000Z</time>
      </trkpt>
      <trkpt lat="43.99817" lon="5.9064">
        <ele>661</ele>
        <time>2020-10-05T12:43:42.000Z</time>
      </trkpt>
      <trkpt lat="43.99817" lon="5.90638">
        <ele>661</ele>
        <time>2020-10-05T12:43:43.000Z</time>
      </trkpt>
      <trkpt lat="43.99816" lon="5.90637">
        <ele>661</ele>
        <time>2020-10-05T12:43:44.000Z</time>
      </trkpt>
      <trkpt lat="43.99816" lon="5.90636">
        <ele>661</ele>
        <time>2020-10-05T12:43:45.000Z</time>
      </trkpt>
      <trkpt lat="43.99816" lon="5.90635">
        <ele>661</ele>
        <time>2020-10-05T12:43:46.000Z</time>
      </trkpt>
      <trkpt lat="43.99815" lon="5.90635">
        <ele>661</ele>
        <time>2020-10-05T12:43:47.000Z</time>
      </trkpt>
      <trkpt lat="43.99815" lon="5.90634">
        <ele>661</ele>
        <time>2020-10-05T12:43:48.000Z</time>
      </trkpt>
      <trkpt lat="43.99814" lon="5.90633">
        <ele>661</ele>
        <time>2020-10-05T12:43:49.000Z</time>
      </trkpt>
      <trkpt lat="43.99814" lon="5.90632">
        <ele>661</ele>
        <time>2020-10-05T12:43:50.000Z</time>
      </trkpt>
      <trkpt lat="43.99814" lon="5.90632">
        <ele>661</ele>
        <time>2020-10-05T12:43:51.000Z</time>
      </trkpt>
      <trkpt lat="43.99814" lon="5.90632">
        <ele>661</ele>
        <time>2020-10-05T12:43:52.000Z</time>
      </trkpt>
      <trkpt lat="43.99814" lon="5.90631">
        <ele>661</ele>
        <time>2020-10-05T12:43:53.000Z</time>
      </trkpt>
      <trkpt lat="43.99814" lon="5.90631">
        <ele>661</ele>
        <time>2020-10-05T12:43:54.000Z</time>
      </trkpt>
      <trkpt lat="43.99813" lon="5.9063">
        <ele>662</ele>
        <time>2020-10-05T12:43:55.000Z</time>
      </trkpt>
      <trkpt lat="43.99813" lon="5.90629">
        <ele>662</ele>
        <time>2020-10-05T12:43:56.000Z</time>
      </trkpt>
      <trkpt lat="43.99813" lon="5.90628">
        <ele>662</ele>
        <time>2020-10-05T12:43:57.000Z</time>
      </trkpt>
      <trkpt lat="43.99813" lon="5.90628">
        <ele>662</ele>
        <time>2020-10-05T12:43:58.000Z</time>
      </trkpt>
      <trkpt lat="43.99813" lon="5.90627">
        <ele>662</ele>
        <time>2020-10-05T12:43:59.000Z</time>
      </trkpt>
      <trkpt lat="43.99813" lon="5.90626">
        <ele>662</ele>
        <time>2020-10-05T12:44:00.000Z</time>
      </trkpt>
      <trkpt lat="43.99813" lon="5.90624">
        <ele>662</ele>
        <time>2020-10-05T12:44:01.000Z</time>
      </trkpt>
      <trkpt lat="43.99813" lon="5.90623">
        <ele>662</ele>
        <time>2020-10-05T12:44:02.000Z</time>
      </trkpt>
      <trkpt lat="43.99813" lon="5.90621">
        <ele>662</ele>
        <time>2020-10-05T12:44:03.000Z</time>
      </trkpt>
      <trkpt lat="43.99812" lon="5.9062">
        <ele>662</ele>
        <time>2020-10-05T12:44:04.000Z</time>
      </trkpt>
      <trkpt lat="43.99812" lon="5.90618">
        <ele>663</ele>
        <time>2020-10-05T12:44:05.000Z</time>
      </trkpt>
      <trkpt lat="43.99812" lon="5.90616">
        <ele>663</ele>
        <time>2020-10-05T12:44:06.000Z</time>
      </trkpt>
      <trkpt lat="43.99812" lon="5.90615">
        <ele>663</ele>
        <time>2020-10-05T12:44:07.000Z</time>
      </trkpt>
      <trkpt lat="43.99812" lon="5.90613">
        <ele>663</ele>
        <time>2020-10-05T12:44:08.000Z</time>
      </trkpt>
      <trkpt lat="43.99812" lon="5.90611">
        <ele>663</ele>
        <time>2020-10-05T12:44:09.000Z</time>
      </trkpt>
      <trkpt lat="43.99812" lon="5.9061">
        <ele>663</ele>
        <time>2020-10-05T12:44:10.000Z</time>
      </trkpt>
      <trkpt lat="43.99812" lon="5.90609">
        <ele>663</ele>
        <time>2020-10-05T12:44:11.000Z</time>
      </trkpt>
      <trkpt lat="43.99812" lon="5.90608">
        <ele>663</ele>
        <time>2020-10-05T12:44:12.000Z</time>
      </trkpt>
      <trkpt lat="43.99811" lon="5.90607">
        <ele>663</ele>
        <time>2020-10-05T12:44:13.000Z</time>
      </trkpt>
      <trkpt lat="43.99811" lon="5.90606">
        <ele>664</ele>
        <time>2020-10-05T12:44:14.000Z</time>
      </trkpt>
      <trkpt lat="43.9981" lon="5.90605">
        <ele>664</ele>
        <time>2020-10-05T12:44:15.000Z</time>
      </trkpt>
      <trkpt lat="43.9981" lon="5.90604">
        <ele>664</ele>
        <time>2020-10-05T12:44:16.000Z</time>
      </trkpt>
      <trkpt lat="43.9981" lon="5.90603">
        <ele>664</ele>
        <time>2020-10-05T12:44:17.000Z</time>
      </trkpt>
      <trkpt lat="43.9981" lon="5.90601">
        <ele>664</ele>
        <time>2020-10-05T12:44:18.000Z</time>
      </trkpt>
      <trkpt lat="43.9981" lon="5.906">
        <ele>664</ele>
        <time>2020-10-05T12:44:19.000Z</time>
      </trkpt>
      <trkpt lat="43.99809" lon="5.90599">
        <ele>664</ele>
        <time>2020-10-05T12:44:20.000Z</time>
      </trkpt>
      <trkpt lat="43.99809" lon="5.90597">
        <ele>664</ele>
        <time>2020-10-05T12:44:21.000Z</time>
      </trkpt>
      <trkpt lat="43.99809" lon="5.90596">
        <ele>664</ele>
        <time>2020-10-05T12:44:22.000Z</time>
      </trkpt>
      <trkpt lat="43.99809" lon="5.90595">
        <ele>664</ele>
        <time>2020-10-05T12:44:23.000Z</time>
      </trkpt>
      <trkpt lat="43.99808" lon="5.90594">
        <ele>664</ele>
        <time>2020-10-05T12:44:24.000Z</time>
      </trkpt>
      <trkpt lat="43.99808" lon="5.90593">
        <ele>664</ele>
        <time>2020-10-05T12:44:25.000Z</time>
      </trkpt>
      <trkpt lat="43.99808" lon="5.90592">
        <ele>664</ele>
        <time>2020-10-05T12:44:26.000Z</time>
      </trkpt>
      <trkpt lat="43.99808" lon="5.90591">
        <ele>664</ele>
        <time>2020-10-05T12:44:27.000Z</time>
      </trkpt>
      <trkpt lat="43.99807" lon="5.9059">
        <ele>664</ele>
        <time>2020-10-05T12:44:28.000Z</time>
      </trkpt>
      <trkpt lat="43.99807" lon="5.90588">
        <ele>664</ele>
        <time>2020-10-05T12:44:29.000Z</time>
      </trkpt>
      <trkpt lat="43.99807" lon="5.90587">
        <ele>664</ele>
        <time>2020-10-05T12:44:30.000Z</time>
      </trkpt>
      <trkpt lat="43.99807" lon="5.90586">
        <ele>664</ele>
        <time>2020-10-05T12:44:31.000Z</time>
      </trkpt>
      <trkpt lat="43.99807" lon="5.90585">
        <ele>664</ele>
        <time>2020-10-05T12:44:32.000Z</time>
      </trkpt>
      <trkpt lat="43.99806" lon="5.90583">
        <ele>664</ele>
        <time>2020-10-05T12:44:33.000Z</time>
      </trkpt>
      <trkpt lat="43.99806" lon="5.90582">
        <ele>664</ele>
        <time>2020-10-05T12:44:34.000Z</time>
      </trkpt>
      <trkpt lat="43.99806" lon="5.90581">
        <ele>664</ele>
        <time>2020-10-05T12:44:35.000Z</time>
      </trkpt>
      <trkpt lat="43.99805" lon="5.9058">
        <ele>664</ele>
        <time>2020-10-05T12:44:36.000Z</time>
      </trkpt>
      <trkpt lat="43.99805" lon="5.9058">
        <ele>664</ele>
        <time>2020-10-05T12:44:37.000Z</time>
      </trkpt>
      <trkpt lat="43.99805" lon="5.90579">
        <ele>664</ele>
        <time>2020-10-05T12:44:38.000Z</time>
      </trkpt>
      <trkpt lat="43.99805" lon="5.90578">
        <ele>664</ele>
        <time>2020-10-05T12:44:39.000Z</time>
      </trkpt>
      <trkpt lat="43.99805" lon="5.90577">
        <ele>664</ele>
        <time>2020-10-05T12:44:40.000Z</time>
      </trkpt>
      <trkpt lat="43.99805" lon="5.90576">
        <ele>664</ele>
        <time>2020-10-05T12:44:41.000Z</time>
      </trkpt>
      <trkpt lat="43.99805" lon="5.90576">
        <ele>664</ele>
        <time>2020-10-05T12:44:42.000Z</time>
      </trkpt>
      <trkpt lat="43.99805" lon="5.90575">
        <ele>664</ele>
        <time>2020-10-05T12:44:43.000Z</time>
      </trkpt>
      <trkpt lat="43.99805" lon="5.90575">
        <ele>664</ele>
        <time>2020-10-05T12:44:44.000Z</time>
      </trkpt>
      <trkpt lat="43.99805" lon="5.90575">
        <ele>664</ele>
        <time>2020-10-05T12:44:45.000Z</time>
      </trkpt>
      <trkpt lat="43.99805" lon="5.90575">
        <ele>664</ele>
        <time>2020-10-05T12:44:46.000Z</time>
      </trkpt>
      <trkpt lat="43.99805" lon="5.90574">
        <ele>664</ele>
        <time>2020-10-05T12:44:47.000Z</time>
      </trkpt>
      <trkpt lat="43.99805" lon="5.90574">
        <ele>664</ele>
        <time>2020-10-05T12:44:48.000Z</time>
      </trkpt>
      <trkpt lat="43.99805" lon="5.90574">
        <ele>664</ele>
        <time>2020-10-05T12:44:49.000Z</time>
      </trkpt>
      <trkpt lat="43.99805" lon="5.90574">
        <ele>664</ele>
        <time>2020-10-05T12:44:50.000Z</time>
      </trkpt>
      <trkpt lat="43.99805" lon="5.90573">
        <ele>665</ele>
        <time>2020-10-05T12:44:51.000Z</time>
      </trkpt>
      <trkpt lat="43.99805" lon="5.90573">
        <ele>665</ele>
        <time>2020-10-05T12:44:52.000Z</time>
      </trkpt>
      <trkpt lat="43.99805" lon="5.90573">
        <ele>665</ele>
        <time>2020-10-05T12:44:53.000Z</time>
      </trkpt>
      <trkpt lat="43.99805" lon="5.90573">
        <ele>665</ele>
        <time>2020-10-05T12:44:54.000Z</time>
      </trkpt>
      <trkpt lat="43.99805" lon="5.90573">
        <ele>665</ele>
        <time>2020-10-05T12:44:55.000Z</time>
      </trkpt>
      <trkpt lat="43.99805" lon="5.90573">
        <ele>665</ele>
        <time>2020-10-05T12:44:56.000Z</time>
      </trkpt>
      <trkpt lat="43.99805" lon="5.90573">
        <ele>665</ele>
        <time>2020-10-05T12:44:57.000Z</time>
      </trkpt>
      <trkpt lat="43.99806" lon="5.90573">
        <ele>665</ele>
        <time>2020-10-05T12:44:58.000Z</time>
      </trkpt>
      <trkpt lat="43.99806" lon="5.90572">
        <ele>665</ele>
        <time>2020-10-05T12:44:59.000Z</time>
      </trkpt>
      <trkpt lat="43.99806" lon="5.90572">
        <ele>665</ele>
        <time>2020-10-05T12:45:00.000Z</time>
      </trkpt>
      <trkpt lat="43.99806" lon="5.90572">
        <ele>665</ele>
        <time>2020-10-05T12:45:01.000Z</time>
      </trkpt>
      <trkpt lat="43.99806" lon="5.90571">
        <ele>666</ele>
        <time>2020-10-05T12:45:02.000Z</time>
      </trkpt>
      <trkpt lat="43.99807" lon="5.90571">
        <ele>666</ele>
        <time>2020-10-05T12:45:03.000Z</time>
      </trkpt>
      <trkpt lat="43.99807" lon="5.90571">
        <ele>666</ele>
        <time>2020-10-05T12:45:04.000Z</time>
      </trkpt>
      <trkpt lat="43.99808" lon="5.9057">
        <ele>666</ele>
        <time>2020-10-05T12:45:05.000Z</time>
      </trkpt>
      <trkpt lat="43.99808" lon="5.90571">
        <ele>666</ele>
        <time>2020-10-05T12:45:06.000Z</time>
      </trkpt>
      <trkpt lat="43.99809" lon="5.90571">
        <ele>666</ele>
        <time>2020-10-05T12:45:07.000Z</time>
      </trkpt>
      <trkpt lat="43.99809" lon="5.9057">
        <ele>666</ele>
        <time>2020-10-05T12:45:08.000Z</time>
      </trkpt>
      <trkpt lat="43.99808" lon="5.9057">
        <ele>666</ele>
        <time>2020-10-05T12:45:09.000Z</time>
      </trkpt>
      <trkpt lat="43.99808" lon="5.90569">
        <ele>666</ele>
        <time>2020-10-05T12:45:10.000Z</time>
      </trkpt>
      <trkpt lat="43.99808" lon="5.90569">
        <ele>667</ele>
        <time>2020-10-05T12:45:11.000Z</time>
      </trkpt>
      <trkpt lat="43.99808" lon="5.90569">
        <ele>667</ele>
        <time>2020-10-05T12:45:12.000Z</time>
      </trkpt>
      <trkpt lat="43.99807" lon="5.90569">
        <ele>667</ele>
        <time>2020-10-05T12:45:13.000Z</time>
      </trkpt>
      <trkpt lat="43.99807" lon="5.90569">
        <ele>667</ele>
        <time>2020-10-05T12:45:14.000Z</time>
      </trkpt>
      <trkpt lat="43.99807" lon="5.90569">
        <ele>667</ele>
        <time>2020-10-05T12:45:15.000Z</time>
      </trkpt>
      <trkpt lat="43.99807" lon="5.90568">
        <ele>667</ele>
        <time>2020-10-05T12:45:16.000Z</time>
      </trkpt>
      <trkpt lat="43.99807" lon="5.90568">
        <ele>667</ele>
        <time>2020-10-05T12:45:17.000Z</time>
      </trkpt>
      <trkpt lat="43.99807" lon="5.90568">
        <ele>667</ele>
        <time>2020-10-05T12:45:18.000Z</time>
      </trkpt>
      <trkpt lat="43.99807" lon="5.90568">
        <ele>667</ele>
        <time>2020-10-05T12:45:19.000Z</time>
      </trkpt>
      <trkpt lat="43.99807" lon="5.90568">
        <ele>667</ele>
        <time>2020-10-05T12:45:20.000Z</time>
      </trkpt>
      <trkpt lat="43.99807" lon="5.90567">
        <ele>667</ele>
        <time>2020-10-05T12:45:21.000Z</time>
      </trkpt>
      <trkpt lat="43.99807" lon="5.90567">
        <ele>667</ele>
        <time>2020-10-05T12:45:22.000Z</time>
      </trkpt>
      <trkpt lat="43.99807" lon="5.90567">
        <ele>667</ele>
        <time>2020-10-05T12:45:23.000Z</time>
      </trkpt>
      <trkpt lat="43.99807" lon="5.90567">
        <ele>667</ele>
        <time>2020-10-05T12:45:24.000Z</time>
      </trkpt>
      <trkpt lat="43.99807" lon="5.90567">
        <ele>667</ele>
        <time>2020-10-05T12:45:25.000Z</time>
      </trkpt>
      <trkpt lat="43.99807" lon="5.90567">
        <ele>667</ele>
        <time>2020-10-05T12:45:26.000Z</time>
      </trkpt>
      <trkpt lat="43.99807" lon="5.90567">
        <ele>667</ele>
        <time>2020-10-05T12:45:27.000Z</time>
      </trkpt>
      <trkpt lat="43.99807" lon="5.90566">
        <ele>667</ele>
        <time>2020-10-05T12:45:28.000Z</time>
      </trkpt>
      <trkpt lat="43.99807" lon="5.90566">
        <ele>667</ele>
        <time>2020-10-05T12:45:29.000Z</time>
      </trkpt>
      <trkpt lat="43.99807" lon="5.90566">
        <ele>667</ele>
        <time>2020-10-05T12:45:30.000Z</time>
      </trkpt>
      <trkpt lat="43.99807" lon="5.90566">
        <ele>667</ele>
        <time>2020-10-05T12:45:31.000Z</time>
      </trkpt>
      <trkpt lat="43.99807" lon="5.90566">
        <ele>667</ele>
        <time>2020-10-05T12:45:32.000Z</time>
      </trkpt>
      <trkpt lat="43.99807" lon="5.90566">
        <ele>667</ele>
        <time>2020-10-05T12:45:33.000Z</time>
      </trkpt>
      <trkpt lat="43.99807" lon="5.90566">
        <ele>667</ele>
        <time>2020-10-05T12:45:34.000Z</time>
      </trkpt>
      <trkpt lat="43.99807" lon="5.90566">
        <ele>667</ele>
        <time>2020-10-05T12:45:35.000Z</time>
      </trkpt>
      <trkpt lat="43.99807" lon="5.90566">
        <ele>667</ele>
        <time>2020-10-05T12:45:36.000Z</time>
      </trkpt>
      <trkpt lat="43.99807" lon="5.90565">
        <ele>667</ele>
        <time>2020-10-05T12:45:37.000Z</time>
      </trkpt>
      <trkpt lat="43.99807" lon="5.90565">
        <ele>667</ele>
        <time>2020-10-05T12:45:38.000Z</time>
      </trkpt>
      <trkpt lat="43.99807" lon="5.90565">
        <ele>667</ele>
        <time>2020-10-05T12:45:39.000Z</time>
      </trkpt>
      <trkpt lat="43.99807" lon="5.90565">
        <ele>667</ele>
        <time>2020-10-05T12:45:40.000Z</time>
      </trkpt>
      <trkpt lat="43.99807" lon="5.90565">
        <ele>667</ele>
        <time>2020-10-05T12:45:41.000Z</time>
      </trkpt>
      <trkpt lat="43.99807" lon="5.90565">
        <ele>667</ele>
        <time>2020-10-05T12:45:42.000Z</time>
      </trkpt>
      <trkpt lat="43.99807" lon="5.90565">
        <ele>667</ele>
        <time>2020-10-05T12:45:43.000Z</time>
      </trkpt>
      <trkpt lat="43.99807" lon="5.90564">
        <ele>667</ele>
        <time>2020-10-05T12:45:44.000Z</time>
      </trkpt>
      <trkpt lat="43.99806" lon="5.90564">
        <ele>667</ele>
        <time>2020-10-05T12:45:45.000Z</time>
      </trkpt>
      <trkpt lat="43.99806" lon="5.90564">
        <ele>667</ele>
        <time>2020-10-05T12:45:46.000Z</time>
      </trkpt>
      <trkpt lat="43.99806" lon="5.90564">
        <ele>667</ele>
        <time>2020-10-05T12:45:47.000Z</time>
      </trkpt>
      <trkpt lat="43.99806" lon="5.90564">
        <ele>668</ele>
        <time>2020-10-05T12:45:48.000Z</time>
      </trkpt>
      <trkpt lat="43.99806" lon="5.90564">
        <ele>668</ele>
        <time>2020-10-05T12:45:49.000Z</time>
      </trkpt>
      <trkpt lat="43.99806" lon="5.90563">
        <ele>668</ele>
        <time>2020-10-05T12:45:50.000Z</time>
      </trkpt>
      <trkpt lat="43.99806" lon="5.90563">
        <ele>668</ele>
        <time>2020-10-05T12:45:51.000Z</time>
      </trkpt>
      <trkpt lat="43.99806" lon="5.90562">
        <ele>668</ele>
        <time>2020-10-05T12:45:52.000Z</time>
      </trkpt>
      <trkpt lat="43.99806" lon="5.90562">
        <ele>668</ele>
        <time>2020-10-05T12:45:53.000Z</time>
      </trkpt>
      <trkpt lat="43.99806" lon="5.90562">
        <ele>668</ele>
        <time>2020-10-05T12:45:54.000Z</time>
      </trkpt>
      <trkpt lat="43.99806" lon="5.90562">
        <ele>668</ele>
        <time>2020-10-05T12:45:55.000Z</time>
      </trkpt>
      <trkpt lat="43.99806" lon="5.90562">
        <ele>668</ele>
        <time>2020-10-05T12:45:56.000Z</time>
      </trkpt>
      <trkpt lat="43.99806" lon="5.90562">
        <ele>668</ele>
        <time>2020-10-05T12:45:57.000Z</time>
      </trkpt>
      <trkpt lat="43.99806" lon="5.90563">
        <ele>668</ele>
        <time>2020-10-05T12:45:58.000Z</time>
      </trkpt>
      <trkpt lat="43.99806" lon="5.90563">
        <ele>668</ele>
        <time>2020-10-05T12:45:59.000Z</time>
      </trkpt>
      <trkpt lat="43.99806" lon="5.90563">
        <ele>668</ele>
        <time>2020-10-05T12:46:00.000Z</time>
      </trkpt>
      <trkpt lat="43.99806" lon="5.90562">
        <ele>668</ele>
        <time>2020-10-05T12:46:01.000Z</time>
      </trkpt>
      <trkpt lat="43.99806" lon="5.90562">
        <ele>668</ele>
        <time>2020-10-05T12:46:02.000Z</time>
      </trkpt>
      <trkpt lat="43.99806" lon="5.90562">
        <ele>668</ele>
        <time>2020-10-05T12:46:03.000Z</time>
      </trkpt>
      <trkpt lat="43.99806" lon="5.90562">
        <ele>668</ele>
        <time>2020-10-05T12:46:04.000Z</time>
      </trkpt>
      <trkpt lat="43.99806" lon="5.90562">
        <ele>668</ele>
        <time>2020-10-05T12:46:05.000Z</time>
      </trkpt>
      <trkpt lat="43.99806" lon="5.90562">
        <ele>668</ele>
        <time>2020-10-05T12:46:06.000Z</time>
      </trkpt>
      <trkpt lat="43.99806" lon="5.90562">
        <ele>668</ele>
        <time>2020-10-05T12:46:07.000Z</time>
      </trkpt>
      <trkpt lat="43.99806" lon="5.90561">
        <ele>668</ele>
        <time>2020-10-05T12:46:08.000Z</time>
      </trkpt>
      <trkpt lat="43.99806" lon="5.90561">
        <ele>668</ele>
        <time>2020-10-05T12:46:09.000Z</time>
      </trkpt>
      <trkpt lat="43.99806" lon="5.90561">
        <ele>668</ele>
        <time>2020-10-05T12:46:10.000Z</time>
      </trkpt>
      <trkpt lat="43.99806" lon="5.90561">
        <ele>668</ele>
        <time>2020-10-05T12:46:11.000Z</time>
      </trkpt>
      <trkpt lat="43.99806" lon="5.90561">
        <ele>668</ele>
        <time>2020-10-05T12:46:12.000Z</time>
      </trkpt>
      <trkpt lat="43.99806" lon="5.90561">
        <ele>668</ele>
        <time>2020-10-05T12:46:13.000Z</time>
      </trkpt>
      <trkpt lat="43.99806" lon="5.90561">
        <ele>668</ele>
        <time>2020-10-05T12:46:14.000Z</time>
      </trkpt>
      <trkpt lat="43.99806" lon="5.90561">
        <ele>668</ele>
        <time>2020-10-05T12:46:15.000Z</time>
      </trkpt>
      <trkpt lat="43.99806" lon="5.90561">
        <ele>668</ele>
        <time>2020-10-05T12:46:16.000Z</time>
      </trkpt>
      <trkpt lat="43.99806" lon="5.90561">
        <ele>668</ele>
        <time>2020-10-05T12:46:17.000Z</time>
      </trkpt>
      <trkpt lat="43.99806" lon="5.90562">
        <ele>668</ele>
        <time>2020-10-05T12:46:18.000Z</time>
      </trkpt>
      <trkpt lat="43.99806" lon="5.90562">
        <ele>668</ele>
        <time>2020-10-05T12:46:19.000Z</time>
      </trkpt>
      <trkpt lat="43.99806" lon="5.90563">
        <ele>668</ele>
        <time>2020-10-05T12:46:20.000Z</time>
      </trkpt>
      <trkpt lat="43.99806" lon="5.90563">
        <ele>668</ele>
        <time>2020-10-05T12:46:21.000Z</time>
      </trkpt>
      <trkpt lat="43.99806" lon="5.90564">
        <ele>669</ele>
        <time>2020-10-05T12:46:22.000Z</time>
      </trkpt>
      <trkpt lat="43.99806" lon="5.90564">
        <ele>669</ele>
        <time>2020-10-05T12:46:23.000Z</time>
      </trkpt>
      <trkpt lat="43.99807" lon="5.90564">
        <ele>669</ele>
        <time>2020-10-05T12:46:24.000Z</time>
      </trkpt>
      <trkpt lat="43.99807" lon="5.90565">
        <ele>669</ele>
        <time>2020-10-05T12:46:25.000Z</time>
      </trkpt>
      <trkpt lat="43.99807" lon="5.90565">
        <ele>669</ele>
        <time>2020-10-05T12:46:26.000Z</time>
      </trkpt>
      <trkpt lat="43.99807" lon="5.90565">
        <ele>669</ele>
        <time>2020-10-05T12:46:27.000Z</time>
      </trkpt>
      <trkpt lat="43.99807" lon="5.90565">
        <ele>669</ele>
        <time>2020-10-05T12:46:28.000Z</time>
      </trkpt>
      <trkpt lat="43.99807" lon="5.90565">
        <ele>669</ele>
        <time>2020-10-05T12:46:29.000Z</time>
      </trkpt>
      <trkpt lat="43.99807" lon="5.90565">
        <ele>669</ele>
        <time>2020-10-05T12:46:30.000Z</time>
      </trkpt>
      <trkpt lat="43.99807" lon="5.90565">
        <ele>669</ele>
        <time>2020-10-05T12:46:31.000Z</time>
      </trkpt>
      <trkpt lat="43.99807" lon="5.90564">
        <ele>669</ele>
        <time>2020-10-05T12:46:32.000Z</time>
      </trkpt>
      <trkpt lat="43.99807" lon="5.90564">
        <ele>669</ele>
        <time>2020-10-05T12:46:33.000Z</time>
      </trkpt>
      <trkpt lat="43.99807" lon="5.90564">
        <ele>669</ele>
        <time>2020-10-05T12:46:34.000Z</time>
      </trkpt>
      <trkpt lat="43.99807" lon="5.90564">
        <ele>669</ele>
        <time>2020-10-05T12:46:35.000Z</time>
      </trkpt>
      <trkpt lat="43.99807" lon="5.90564">
        <ele>669</ele>
        <time>2020-10-05T12:46:36.000Z</time>
      </trkpt>
      <trkpt lat="43.99807" lon="5.90564">
        <ele>669</ele>
        <time>2020-10-05T12:46:37.000Z</time>
      </trkpt>
      <trkpt lat="43.99807" lon="5.90564">
        <ele>669</ele>
        <time>2020-10-05T12:46:38.000Z</time>
      </trkpt>
      <trkpt lat="43.99807" lon="5.90564">
        <ele>669</ele>
        <time>2020-10-05T12:46:39.000Z</time>
      </trkpt>
      <trkpt lat="43.99807" lon="5.90564">
        <ele>669</ele>
        <time>2020-10-05T12:46:40.000Z</time>
      </trkpt>
      <trkpt lat="43.99807" lon="5.90564">
        <ele>669</ele>
        <time>2020-10-05T12:46:41.000Z</time>
      </trkpt>
      <trkpt lat="43.99806" lon="5.90565">
        <ele>669</ele>
        <time>2020-10-05T12:46:42.000Z</time>
      </trkpt>
      <trkpt lat="43.99806" lon="5.90565">
        <ele>669</ele>
        <time>2020-10-05T12:46:43.000Z</time>
      </trkpt>
      <trkpt lat="43.99806" lon="5.90566">
        <ele>669</ele>
        <time>2020-10-05T12:46:44.000Z</time>
      </trkpt>
      <trkpt lat="43.99806" lon="5.90567">
        <ele>669</ele>
        <time>2020-10-05T12:46:45.000Z</time>
      </trkpt>
      <trkpt lat="43.99806" lon="5.90567">
        <ele>669</ele>
        <time>2020-10-05T12:46:46.000Z</time>
      </trkpt>
      <trkpt lat="43.99806" lon="5.90568">
        <ele>669</ele>
        <time>2020-10-05T12:46:47.000Z</time>
      </trkpt>
      <trkpt lat="43.99806" lon="5.90569">
        <ele>669</ele>
        <time>2020-10-05T12:46:48.000Z</time>
      </trkpt>
      <trkpt lat="43.99806" lon="5.9057">
        <ele>669</ele>
        <time>2020-10-05T12:46:49.000Z</time>
      </trkpt>
      <trkpt lat="43.99806" lon="5.90571">
        <ele>669</ele>
        <time>2020-10-05T12:46:50.000Z</time>
      </trkpt>
      <trkpt lat="43.99806" lon="5.90571">
        <ele>669</ele>
        <time>2020-10-05T12:46:51.000Z</time>
      </trkpt>
      <trkpt lat="43.99806" lon="5.90572">
        <ele>669</ele>
        <time>2020-10-05T12:46:52.000Z</time>
      </trkpt>
      <trkpt lat="43.99806" lon="5.90573">
        <ele>669</ele>
        <time>2020-10-05T12:46:53.000Z</time>
      </trkpt>
      <trkpt lat="43.99806" lon="5.90575">
        <ele>669</ele>
        <time>2020-10-05T12:46:54.000Z</time>
      </trkpt>
      <trkpt lat="43.99807" lon="5.90576">
        <ele>669</ele>
        <time>2020-10-05T12:46:55.000Z</time>
      </trkpt>
      <trkpt lat="43.99807" lon="5.90578">
        <ele>669</ele>
        <time>2020-10-05T12:46:56.000Z</time>
      </trkpt>
      <trkpt lat="43.99807" lon="5.90579">
        <ele>669</ele>
        <time>2020-10-05T12:46:57.000Z</time>
      </trkpt>
      <trkpt lat="43.99808" lon="5.9058">
        <ele>669</ele>
        <time>2020-10-05T12:46:58.000Z</time>
      </trkpt>
      <trkpt lat="43.99808" lon="5.90581">
        <ele>669</ele>
        <time>2020-10-05T12:46:59.000Z</time>
      </trkpt>
      <trkpt lat="43.99809" lon="5.90582">
        <ele>669</ele>
        <time>2020-10-05T12:47:00.000Z</time>
      </trkpt>
      <trkpt lat="43.99809" lon="5.90583">
        <ele>669</ele>
        <time>2020-10-05T12:47:01.000Z</time>
      </trkpt>
      <trkpt lat="43.9981" lon="5.90584">
        <ele>669</ele>
        <time>2020-10-05T12:47:02.000Z</time>
      </trkpt>
      <trkpt lat="43.9981" lon="5.90585">
        <ele>669</ele>
        <time>2020-10-05T12:47:03.000Z</time>
      </trkpt>
      <trkpt lat="43.9981" lon="5.90586">
        <ele>669</ele>
        <time>2020-10-05T12:47:04.000Z</time>
      </trkpt>
      <trkpt lat="43.9981" lon="5.90587">
        <ele>669</ele>
        <time>2020-10-05T12:47:05.000Z</time>
      </trkpt>
      <trkpt lat="43.9981" lon="5.90589">
        <ele>669</ele>
        <time>2020-10-05T12:47:06.000Z</time>
      </trkpt>
      <trkpt lat="43.9981" lon="5.9059">
        <ele>669</ele>
        <time>2020-10-05T12:47:07.000Z</time>
      </trkpt>
      <trkpt lat="43.9981" lon="5.90591">
        <ele>669</ele>
        <time>2020-10-05T12:47:08.000Z</time>
      </trkpt>
      <trkpt lat="43.9981" lon="5.90592">
        <ele>669</ele>
        <time>2020-10-05T12:47:09.000Z</time>
      </trkpt>
      <trkpt lat="43.9981" lon="5.90593">
        <ele>670</ele>
        <time>2020-10-05T12:47:10.000Z</time>
      </trkpt>
      <trkpt lat="43.9981" lon="5.90594">
        <ele>670</ele>
        <time>2020-10-05T12:47:11.000Z</time>
      </trkpt>
      <trkpt lat="43.9981" lon="5.90596">
        <ele>670</ele>
        <time>2020-10-05T12:47:12.000Z</time>
      </trkpt>
      <trkpt lat="43.9981" lon="5.90597">
        <ele>670</ele>
        <time>2020-10-05T12:47:13.000Z</time>
      </trkpt>
      <trkpt lat="43.9981" lon="5.90597">
        <ele>670</ele>
        <time>2020-10-05T12:47:14.000Z</time>
      </trkpt>
      <trkpt lat="43.9981" lon="5.90598">
        <ele>670</ele>
        <time>2020-10-05T12:47:15.000Z</time>
      </trkpt>
      <trkpt lat="43.99811" lon="5.90599">
        <ele>670</ele>
        <time>2020-10-05T12:47:16.000Z</time>
      </trkpt>
      <trkpt lat="43.99811" lon="5.906">
        <ele>670</ele>
        <time>2020-10-05T12:47:17.000Z</time>
      </trkpt>
      <trkpt lat="43.99811" lon="5.90601">
        <ele>670</ele>
        <time>2020-10-05T12:47:18.000Z</time>
      </trkpt>
      <trkpt lat="43.99811" lon="5.90602">
        <ele>670</ele>
        <time>2020-10-05T12:47:19.000Z</time>
      </trkpt>
      <trkpt lat="43.99811" lon="5.90604">
        <ele>670</ele>
        <time>2020-10-05T12:47:20.000Z</time>
      </trkpt>
      <trkpt lat="43.99812" lon="5.90605">
        <ele>670</ele>
        <time>2020-10-05T12:47:21.000Z</time>
      </trkpt>
      <trkpt lat="43.99812" lon="5.90606">
        <ele>670</ele>
        <time>2020-10-05T12:47:22.000Z</time>
      </trkpt>
      <trkpt lat="43.99812" lon="5.90607">
        <ele>670</ele>
        <time>2020-10-05T12:47:23.000Z</time>
      </trkpt>
      <trkpt lat="43.99812" lon="5.90608">
        <ele>670</ele>
        <time>2020-10-05T12:47:24.000Z</time>
      </trkpt>
      <trkpt lat="43.99812" lon="5.90609">
        <ele>670</ele>
        <time>2020-10-05T12:47:25.000Z</time>
      </trkpt>
      <trkpt lat="43.99812" lon="5.9061">
        <ele>670</ele>
        <time>2020-10-05T12:47:26.000Z</time>
      </trkpt>
      <trkpt lat="43.99812" lon="5.9061">
        <ele>670</ele>
        <time>2020-10-05T12:47:27.000Z</time>
      </trkpt>
      <trkpt lat="43.99812" lon="5.90611">
        <ele>670</ele>
        <time>2020-10-05T12:47:28.000Z</time>
      </trkpt>
      <trkpt lat="43.99813" lon="5.90612">
        <ele>670</ele>
        <time>2020-10-05T12:47:29.000Z</time>
      </trkpt>
      <trkpt lat="43.99813" lon="5.90612">
        <ele>670</ele>
        <time>2020-10-05T12:47:30.000Z</time>
      </trkpt>
      <trkpt lat="43.99812" lon="5.90613">
        <ele>670</ele>
        <time>2020-10-05T12:47:31.000Z</time>
      </trkpt>
      <trkpt lat="43.99812" lon="5.90614">
        <ele>670</ele>
        <time>2020-10-05T12:47:32.000Z</time>
      </trkpt>
      <trkpt lat="43.99812" lon="5.90615">
        <ele>670</ele>
        <time>2020-10-05T12:47:33.000Z</time>
      </trkpt>
      <trkpt lat="43.99812" lon="5.90616">
        <ele>670</ele>
        <time>2020-10-05T12:47:34.000Z</time>
      </trkpt>
      <trkpt lat="43.99812" lon="5.90617">
        <ele>670</ele>
        <time>2020-10-05T12:47:35.000Z</time>
      </trkpt>
      <trkpt lat="43.99813" lon="5.90619">
        <ele>670</ele>
        <time>2020-10-05T12:47:36.000Z</time>
      </trkpt>
      <trkpt lat="43.99814" lon="5.90621">
        <ele>670</ele>
        <time>2020-10-05T12:47:37.000Z</time>
      </trkpt>
      <trkpt lat="43.99814" lon="5.90622">
        <ele>670</ele>
        <time>2020-10-05T12:47:38.000Z</time>
      </trkpt>
      <trkpt lat="43.99815" lon="5.90624">
        <ele>670</ele>
        <time>2020-10-05T12:47:39.000Z</time>
      </trkpt>
      <trkpt lat="43.99815" lon="5.90626">
        <ele>670</ele>
        <time>2020-10-05T12:47:40.000Z</time>
      </trkpt>
      <trkpt lat="43.99815" lon="5.90628">
        <ele>670</ele>
        <time>2020-10-05T12:47:41.000Z</time>
      </trkpt>
      <trkpt lat="43.99816" lon="5.9063">
        <ele>670</ele>
        <time>2020-10-05T12:47:42.000Z</time>
      </trkpt>
      <trkpt lat="43.99816" lon="5.90632">
        <ele>670</ele>
        <time>2020-10-05T12:47:43.000Z</time>
      </trkpt>
      <trkpt lat="43.99816" lon="5.90634">
        <ele>670</ele>
        <time>2020-10-05T12:47:44.000Z</time>
      </trkpt>
      <trkpt lat="43.99816" lon="5.90636">
        <ele>671</ele>
        <time>2020-10-05T12:47:45.000Z</time>
      </trkpt>
      <trkpt lat="43.99817" lon="5.90638">
        <ele>671</ele>
        <time>2020-10-05T12:47:46.000Z</time>
      </trkpt>
      <trkpt lat="43.99817" lon="5.90639">
        <ele>671</ele>
        <time>2020-10-05T12:47:47.000Z</time>
      </trkpt>
      <trkpt lat="43.99817" lon="5.90641">
        <ele>671</ele>
        <time>2020-10-05T12:47:48.000Z</time>
      </trkpt>
      <trkpt lat="43.99818" lon="5.90642">
        <ele>671</ele>
        <time>2020-10-05T12:47:49.000Z</time>
      </trkpt>
      <trkpt lat="43.99818" lon="5.90644">
        <ele>671</ele>
        <time>2020-10-05T12:47:50.000Z</time>
      </trkpt>
      <trkpt lat="43.99818" lon="5.90646">
        <ele>671</ele>
        <time>2020-10-05T12:47:51.000Z</time>
      </trkpt>
      <trkpt lat="43.99819" lon="5.90648">
        <ele>671</ele>
        <time>2020-10-05T12:47:52.000Z</time>
      </trkpt>
      <trkpt lat="43.9982" lon="5.9065">
        <ele>671</ele>
        <time>2020-10-05T12:47:53.000Z</time>
      </trkpt>
      <trkpt lat="43.9982" lon="5.90651">
        <ele>671</ele>
        <time>2020-10-05T12:47:54.000Z</time>
      </trkpt>
      <trkpt lat="43.9982" lon="5.90653">
        <ele>671</ele>
        <time>2020-10-05T12:47:55.000Z</time>
      </trkpt>
      <trkpt lat="43.9982" lon="5.90654">
        <ele>671</ele>
        <time>2020-10-05T12:47:56.000Z</time>
      </trkpt>
      <trkpt lat="43.9982" lon="5.90656">
        <ele>671</ele>
        <time>2020-10-05T12:47:57.000Z</time>
      </trkpt>
      <trkpt lat="43.99821" lon="5.90657">
        <ele>671</ele>
        <time>2020-10-05T12:47:58.000Z</time>
      </trkpt>
      <trkpt lat="43.99821" lon="5.90658">
        <ele>671</ele>
        <time>2020-10-05T12:47:59.000Z</time>
      </trkpt>
      <trkpt lat="43.99821" lon="5.90659">
        <ele>671</ele>
        <time>2020-10-05T12:48:00.000Z</time>
      </trkpt>
      <trkpt lat="43.99821" lon="5.90661">
        <ele>671</ele>
        <time>2020-10-05T12:48:01.000Z</time>
      </trkpt>
      <trkpt lat="43.99821" lon="5.90662">
        <ele>672</ele>
        <time>2020-10-05T12:48:02.000Z</time>
      </trkpt>
      <trkpt lat="43.99821" lon="5.90663">
        <ele>672</ele>
        <time>2020-10-05T12:48:03.000Z</time>
      </trkpt>
      <trkpt lat="43.99821" lon="5.90664">
        <ele>672</ele>
        <time>2020-10-05T12:48:04.000Z</time>
      </trkpt>
      <trkpt lat="43.99821" lon="5.90665">
        <ele>672</ele>
        <time>2020-10-05T12:48:05.000Z</time>
      </trkpt>
      <trkpt lat="43.99821" lon="5.90667">
        <ele>672</ele>
        <time>2020-10-05T12:48:06.000Z</time>
      </trkpt>
      <trkpt lat="43.99821" lon="5.90668">
        <ele>672</ele>
        <time>2020-10-05T12:48:07.000Z</time>
      </trkpt>
      <trkpt lat="43.99821" lon="5.90669">
        <ele>672</ele>
        <time>2020-10-05T12:48:08.000Z</time>
      </trkpt>
      <trkpt lat="43.99821" lon="5.9067">
        <ele>672</ele>
        <time>2020-10-05T12:48:09.000Z</time>
      </trkpt>
      <trkpt lat="43.99821" lon="5.90672">
        <ele>672</ele>
        <time>2020-10-05T12:48:10.000Z</time>
      </trkpt>
      <trkpt lat="43.99821" lon="5.90674">
        <ele>672</ele>
        <time>2020-10-05T12:48:11.000Z</time>
      </trkpt>
      <trkpt lat="43.99821" lon="5.90675">
        <ele>672</ele>
        <time>2020-10-05T12:48:12.000Z</time>
      </trkpt>
      <trkpt lat="43.99821" lon="5.90677">
        <ele>672</ele>
        <time>2020-10-05T12:48:13.000Z</time>
      </trkpt>
      <trkpt lat="43.99821" lon="5.90679">
        <ele>672</ele>
        <time>2020-10-05T12:48:14.000Z</time>
      </trkpt>
      <trkpt lat="43.99821" lon="5.90681">
        <ele>672</ele>
        <time>2020-10-05T12:48:15.000Z</time>
      </trkpt>
      <trkpt lat="43.99822" lon="5.90683">
        <ele>672</ele>
        <time>2020-10-05T12:48:16.000Z</time>
      </trkpt>
      <trkpt lat="43.99823" lon="5.90685">
        <ele>672</ele>
        <time>2020-10-05T12:48:17.000Z</time>
      </trkpt>
      <trkpt lat="43.99824" lon="5.90687">
        <ele>672</ele>
        <time>2020-10-05T12:48:18.000Z</time>
      </trkpt>
      <trkpt lat="43.99825" lon="5.90689">
        <ele>672</ele>
        <time>2020-10-05T12:48:19.000Z</time>
      </trkpt>
      <trkpt lat="43.99825" lon="5.90691">
        <ele>672</ele>
        <time>2020-10-05T12:48:20.000Z</time>
      </trkpt>
      <trkpt lat="43.99826" lon="5.90693">
        <ele>672</ele>
        <time>2020-10-05T12:48:21.000Z</time>
      </trkpt>
      <trkpt lat="43.99826" lon="5.90695">
        <ele>672</ele>
        <time>2020-10-05T12:48:22.000Z</time>
      </trkpt>
      <trkpt lat="43.99826" lon="5.90696">
        <ele>672</ele>
        <time>2020-10-05T12:48:23.000Z</time>
      </trkpt>
      <trkpt lat="43.99827" lon="5.90697">
        <ele>672</ele>
        <time>2020-10-05T12:48:24.000Z</time>
      </trkpt>
      <trkpt lat="43.99827" lon="5.90698">
        <ele>672</ele>
        <time>2020-10-05T12:48:25.000Z</time>
      </trkpt>
      <trkpt lat="43.99827" lon="5.90699">
        <ele>672</ele>
        <time>2020-10-05T12:48:26.000Z</time>
      </trkpt>
      <trkpt lat="43.99827" lon="5.907">
        <ele>672</ele>
        <time>2020-10-05T12:48:27.000Z</time>
      </trkpt>
      <trkpt lat="43.99827" lon="5.90702">
        <ele>672</ele>
        <time>2020-10-05T12:48:28.000Z</time>
      </trkpt>
      <trkpt lat="43.99827" lon="5.90703">
        <ele>672</ele>
        <time>2020-10-05T12:48:29.000Z</time>
      </trkpt>
      <trkpt lat="43.99827" lon="5.90704">
        <ele>672</ele>
        <time>2020-10-05T12:48:30.000Z</time>
      </trkpt>
      <trkpt lat="43.99827" lon="5.90705">
        <ele>672</ele>
        <time>2020-10-05T12:48:31.000Z</time>
      </trkpt>
      <trkpt lat="43.99827" lon="5.90706">
        <ele>671</ele>
        <time>2020-10-05T12:48:32.000Z</time>
      </trkpt>
      <trkpt lat="43.99827" lon="5.90707">
        <ele>671</ele>
        <time>2020-10-05T12:48:33.000Z</time>
      </trkpt>
      <trkpt lat="43.99826" lon="5.90708">
        <ele>670</ele>
        <time>2020-10-05T12:48:34.000Z</time>
      </trkpt>
      <trkpt lat="43.99826" lon="5.90709">
        <ele>670</ele>
        <time>2020-10-05T12:48:35.000Z</time>
      </trkpt>
      <trkpt lat="43.99826" lon="5.90711">
        <ele>670</ele>
        <time>2020-10-05T12:48:36.000Z</time>
      </trkpt>
      <trkpt lat="43.99825" lon="5.90712">
        <ele>669</ele>
        <time>2020-10-05T12:48:37.000Z</time>
      </trkpt>
      <trkpt lat="43.99825" lon="5.90714">
        <ele>669</ele>
        <time>2020-10-05T12:48:38.000Z</time>
      </trkpt>
      <trkpt lat="43.99824" lon="5.90716">
        <ele>668</ele>
        <time>2020-10-05T12:48:39.000Z</time>
      </trkpt>
      <trkpt lat="43.99824" lon="5.90717">
        <ele>668</ele>
        <time>2020-10-05T12:48:40.000Z</time>
      </trkpt>
      <trkpt lat="43.99823" lon="5.90719">
        <ele>668</ele>
        <time>2020-10-05T12:48:41.000Z</time>
      </trkpt>
      <trkpt lat="43.99822" lon="5.9072">
        <ele>667</ele>
        <time>2020-10-05T12:48:42.000Z</time>
      </trkpt>
      <trkpt lat="43.99822" lon="5.90721">
        <ele>667</ele>
        <time>2020-10-05T12:48:43.000Z</time>
      </trkpt>
      <trkpt lat="43.99822" lon="5.90722">
        <ele>666</ele>
        <time>2020-10-05T12:48:44.000Z</time>
      </trkpt>
      <trkpt lat="43.99822" lon="5.90722">
        <ele>666</ele>
        <time>2020-10-05T12:48:45.000Z</time>
      </trkpt>
      <trkpt lat="43.99822" lon="5.90723">
        <ele>666</ele>
        <time>2020-10-05T12:48:46.000Z</time>
      </trkpt>
      <trkpt lat="43.99822" lon="5.90723">
        <ele>666</ele>
        <time>2020-10-05T12:48:47.000Z</time>
      </trkpt>
      <trkpt lat="43.99821" lon="5.90724">
        <ele>665</ele>
        <time>2020-10-05T12:48:48.000Z</time>
      </trkpt>
      <trkpt lat="43.99821" lon="5.90724">
        <ele>665</ele>
        <time>2020-10-05T12:48:49.000Z</time>
      </trkpt>
      <trkpt lat="43.99821" lon="5.90725">
        <ele>665</ele>
        <time>2020-10-05T12:48:50.000Z</time>
      </trkpt>
      <trkpt lat="43.9982" lon="5.90726">
        <ele>665</ele>
        <time>2020-10-05T12:48:51.000Z</time>
      </trkpt>
      <trkpt lat="43.9982" lon="5.90726">
        <ele>665</ele>
        <time>2020-10-05T12:48:52.000Z</time>
      </trkpt>
      <trkpt lat="43.9982" lon="5.90727">
        <ele>664</ele>
        <time>2020-10-05T12:48:53.000Z</time>
      </trkpt>
      <trkpt lat="43.99819" lon="5.90727">
        <ele>664</ele>
        <time>2020-10-05T12:48:54.000Z</time>
      </trkpt>
      <trkpt lat="43.9982" lon="5.90727">
        <ele>664</ele>
        <time>2020-10-05T12:48:55.000Z</time>
      </trkpt>
      <trkpt lat="43.9982" lon="5.90728">
        <ele>664</ele>
        <time>2020-10-05T12:48:56.000Z</time>
      </trkpt>
      <trkpt lat="43.9982" lon="5.90728">
        <ele>664</ele>
        <time>2020-10-05T12:48:57.000Z</time>
      </trkpt>
      <trkpt lat="43.9982" lon="5.90728">
        <ele>664</ele>
        <time>2020-10-05T12:48:58.000Z</time>
      </trkpt>
      <trkpt lat="43.9982" lon="5.90728">
        <ele>664</ele>
        <time>2020-10-05T12:48:59.000Z</time>
      </trkpt>
      <trkpt lat="43.9982" lon="5.90728">
        <ele>663</ele>
        <time>2020-10-05T12:49:00.000Z</time>
      </trkpt>
      <trkpt lat="43.9982" lon="5.90728">
        <ele>663</ele>
        <time>2020-10-05T12:49:01.000Z</time>
      </trkpt>
      <trkpt lat="43.9982" lon="5.90728">
        <ele>663</ele>
        <time>2020-10-05T12:49:02.000Z</time>
      </trkpt>
      <trkpt lat="43.9982" lon="5.90728">
        <ele>663</ele>
        <time>2020-10-05T12:49:03.000Z</time>
      </trkpt>
      <trkpt lat="43.9982" lon="5.90727">
        <ele>663</ele>
        <time>2020-10-05T12:49:04.000Z</time>
      </trkpt>
      <trkpt lat="43.99821" lon="5.90727">
        <ele>662</ele>
        <time>2020-10-05T12:49:05.000Z</time>
      </trkpt>
      <trkpt lat="43.99822" lon="5.90727">
        <ele>662</ele>
        <time>2020-10-05T12:49:06.000Z</time>
      </trkpt>
      <trkpt lat="43.99822" lon="5.90728">
        <ele>662</ele>
        <time>2020-10-05T12:49:07.000Z</time>
      </trkpt>
      <trkpt lat="43.99822" lon="5.90729">
        <ele>662</ele>
        <time>2020-10-05T12:49:08.000Z</time>
      </trkpt>
      <trkpt lat="43.99822" lon="5.9073">
        <ele>661</ele>
        <time>2020-10-05T12:49:09.000Z</time>
      </trkpt>
      <trkpt lat="43.99822" lon="5.90732">
        <ele>661</ele>
        <time>2020-10-05T12:49:10.000Z</time>
      </trkpt>
      <trkpt lat="43.99822" lon="5.90733">
        <ele>661</ele>
        <time>2020-10-05T12:49:11.000Z</time>
      </trkpt>
      <trkpt lat="43.99822" lon="5.90735">
        <ele>661</ele>
        <time>2020-10-05T12:49:12.000Z</time>
      </trkpt>
      <trkpt lat="43.99822" lon="5.90736">
        <ele>661</ele>
        <time>2020-10-05T12:49:13.000Z</time>
      </trkpt>
      <trkpt lat="43.99822" lon="5.90738">
        <ele>661</ele>
        <time>2020-10-05T12:49:14.000Z</time>
      </trkpt>
      <trkpt lat="43.99822" lon="5.9074">
        <ele>661</ele>
        <time>2020-10-05T12:49:15.000Z</time>
      </trkpt>
      <trkpt lat="43.99822" lon="5.90742">
        <ele>660</ele>
        <time>2020-10-05T12:49:16.000Z</time>
      </trkpt>
      <trkpt lat="43.99822" lon="5.90744">
        <ele>660</ele>
        <time>2020-10-05T12:49:17.000Z</time>
      </trkpt>
      <trkpt lat="43.99822" lon="5.90746">
        <ele>660</ele>
        <time>2020-10-05T12:49:18.000Z</time>
      </trkpt>
      <trkpt lat="43.99822" lon="5.90749">
        <ele>660</ele>
        <time>2020-10-05T12:49:19.000Z</time>
      </trkpt>
      <trkpt lat="43.99822" lon="5.90751">
        <ele>660</ele>
        <time>2020-10-05T12:49:20.000Z</time>
      </trkpt>
      <trkpt lat="43.99822" lon="5.90753">
        <ele>660</ele>
        <time>2020-10-05T12:49:21.000Z</time>
      </trkpt>
      <trkpt lat="43.99822" lon="5.90754">
        <ele>660</ele>
        <time>2020-10-05T12:49:22.000Z</time>
      </trkpt>
      <trkpt lat="43.99822" lon="5.90756">
        <ele>660</ele>
        <time>2020-10-05T12:49:23.000Z</time>
      </trkpt>
      <trkpt lat="43.99821" lon="5.90758">
        <ele>660</ele>
        <time>2020-10-05T12:49:24.000Z</time>
      </trkpt>
      <trkpt lat="43.99821" lon="5.9076">
        <ele>661</ele>
        <time>2020-10-05T12:49:25.000Z</time>
      </trkpt>
      <trkpt lat="43.99821" lon="5.90761">
        <ele>661</ele>
        <time>2020-10-05T12:49:26.000Z</time>
      </trkpt>
      <trkpt lat="43.99821" lon="5.90762">
        <ele>661</ele>
        <time>2020-10-05T12:49:27.000Z</time>
      </trkpt>
      <trkpt lat="43.99821" lon="5.90764">
        <ele>661</ele>
        <time>2020-10-05T12:49:28.000Z</time>
      </trkpt>
      <trkpt lat="43.99821" lon="5.90766">
        <ele>661</ele>
        <time>2020-10-05T12:49:29.000Z</time>
      </trkpt>
      <trkpt lat="43.99821" lon="5.90768">
        <ele>661</ele>
        <time>2020-10-05T12:49:30.000Z</time>
      </trkpt>
      <trkpt lat="43.99821" lon="5.9077">
        <ele>661</ele>
        <time>2020-10-05T12:49:31.000Z</time>
      </trkpt>
      <trkpt lat="43.99821" lon="5.90772">
        <ele>661</ele>
        <time>2020-10-05T12:49:32.000Z</time>
      </trkpt>
      <trkpt lat="43.99821" lon="5.90773">
        <ele>661</ele>
        <time>2020-10-05T12:49:33.000Z</time>
      </trkpt>
      <trkpt lat="43.9982" lon="5.90775">
        <ele>661</ele>
        <time>2020-10-05T12:49:34.000Z</time>
      </trkpt>
      <trkpt lat="43.9982" lon="5.90777">
        <ele>660</ele>
        <time>2020-10-05T12:49:35.000Z</time>
      </trkpt>
      <trkpt lat="43.99819" lon="5.90778">
        <ele>660</ele>
        <time>2020-10-05T12:49:36.000Z</time>
      </trkpt>
      <trkpt lat="43.99819" lon="5.90779">
        <ele>660</ele>
        <time>2020-10-05T12:49:37.000Z</time>
      </trkpt>
      <trkpt lat="43.99819" lon="5.9078">
        <ele>660</ele>
        <time>2020-10-05T12:49:38.000Z</time>
      </trkpt>
      <trkpt lat="43.99818" lon="5.9078">
        <ele>660</ele>
        <time>2020-10-05T12:49:39.000Z</time>
      </trkpt>
      <trkpt lat="43.99818" lon="5.9078">
        <ele>660</ele>
        <time>2020-10-05T12:49:40.000Z</time>
      </trkpt>
      <trkpt lat="43.99818" lon="5.90781">
        <ele>660</ele>
        <time>2020-10-05T12:49:41.000Z</time>
      </trkpt>
      <trkpt lat="43.99818" lon="5.90781">
        <ele>660</ele>
        <time>2020-10-05T12:49:42.000Z</time>
      </trkpt>
      <trkpt lat="43.99818" lon="5.9078">
        <ele>660</ele>
        <time>2020-10-05T12:49:43.000Z</time>
      </trkpt>
      <trkpt lat="43.99817" lon="5.9078">
        <ele>660</ele>
        <time>2020-10-05T12:49:44.000Z</time>
      </trkpt>
      <trkpt lat="43.99817" lon="5.9078">
        <ele>660</ele>
        <time>2020-10-05T12:49:45.000Z</time>
      </trkpt>
      <trkpt lat="43.99817" lon="5.9078">
        <ele>660</ele>
        <time>2020-10-05T12:49:46.000Z</time>
      </trkpt>
      <trkpt lat="43.99817" lon="5.9078">
        <ele>660</ele>
        <time>2020-10-05T12:49:47.000Z</time>
      </trkpt>
      <trkpt lat="43.99817" lon="5.9078">
        <ele>660</ele>
        <time>2020-10-05T12:49:48.000Z</time>
      </trkpt>
      <trkpt lat="43.99817" lon="5.9078">
        <ele>660</ele>
        <time>2020-10-05T12:49:49.000Z</time>
      </trkpt>
      <trkpt lat="43.99817" lon="5.9078">
        <ele>660</ele>
        <time>2020-10-05T12:49:50.000Z</time>
      </trkpt>
      <trkpt lat="43.99817" lon="5.9078">
        <ele>660</ele>
        <time>2020-10-05T12:49:51.000Z</time>
      </trkpt>
      <trkpt lat="43.99817" lon="5.9078">
        <ele>660</ele>
        <time>2020-10-05T12:49:52.000Z</time>
      </trkpt>
      <trkpt lat="43.99817" lon="5.9078">
        <ele>660</ele>
        <time>2020-10-05T12:49:53.000Z</time>
      </trkpt>
      <trkpt lat="43.99817" lon="5.9078">
        <ele>660</ele>
        <time>2020-10-05T12:49:54.000Z</time>
      </trkpt>
      <trkpt lat="43.99817" lon="5.90779">
        <ele>660</ele>
        <time>2020-10-05T12:49:55.000Z</time>
      </trkpt>
      <trkpt lat="43.99817" lon="5.90779">
        <ele>660</ele>
        <time>2020-10-05T12:49:56.000Z</time>
      </trkpt>
      <trkpt lat="43.99817" lon="5.90779">
        <ele>660</ele>
        <time>2020-10-05T12:49:57.000Z</time>
      </trkpt>
      <trkpt lat="43.99817" lon="5.90779">
        <ele>660</ele>
        <time>2020-10-05T12:49:58.000Z</time>
      </trkpt>
      <trkpt lat="43.99817" lon="5.90779">
        <ele>660</ele>
        <time>2020-10-05T12:49:59.000Z</time>
      </trkpt>
      <trkpt lat="43.99817" lon="5.90779">
        <ele>660</ele>
        <time>2020-10-05T12:50:00.000Z</time>
      </trkpt>
      <trkpt lat="43.99816" lon="5.90779">
        <ele>660</ele>
        <time>2020-10-05T12:50:01.000Z</time>
      </trkpt>
      <trkpt lat="43.99816" lon="5.90779">
        <ele>660</ele>
        <time>2020-10-05T12:50:02.000Z</time>
      </trkpt>
      <trkpt lat="43.99816" lon="5.90779">
        <ele>660</ele>
        <time>2020-10-05T12:50:03.000Z</time>
      </trkpt>
      <trkpt lat="43.99816" lon="5.90779">
        <ele>660</ele>
        <time>2020-10-05T12:50:04.000Z</time>
      </trkpt>
      <trkpt lat="43.99816" lon="5.90779">
        <ele>660</ele>
        <time>2020-10-05T12:50:05.000Z</time>
      </trkpt>
      <trkpt lat="43.99816" lon="5.90779">
        <ele>660</ele>
        <time>2020-10-05T12:50:06.000Z</time>
      </trkpt>
      <trkpt lat="43.99816" lon="5.90779">
        <ele>660</ele>
        <time>2020-10-05T12:50:07.000Z</time>
      </trkpt>
      <trkpt lat="43.99816" lon="5.90779">
        <ele>660</ele>
        <time>2020-10-05T12:50:08.000Z</time>
      </trkpt>
      <trkpt lat="43.99816" lon="5.90779">
        <ele>660</ele>
        <time>2020-10-05T12:50:09.000Z</time>
      </trkpt>
      <trkpt lat="43.99816" lon="5.90779">
        <ele>660</ele>
        <time>2020-10-05T12:50:10.000Z</time>
      </trkpt>
      <trkpt lat="43.99816" lon="5.90779">
        <ele>660</ele>
        <time>2020-10-05T12:50:11.000Z</time>
      </trkpt>
      <trkpt lat="43.99816" lon="5.90779">
        <ele>660</ele>
        <time>2020-10-05T12:50:12.000Z</time>
      </trkpt>
      <trkpt lat="43.99816" lon="5.90779">
        <ele>660</ele>
        <time>2020-10-05T12:50:13.000Z</time>
      </trkpt>
      <trkpt lat="43.99816" lon="5.90779">
        <ele>660</ele>
        <time>2020-10-05T12:50:14.000Z</time>
      </trkpt>
      <trkpt lat="43.99816" lon="5.90778">
        <ele>660</ele>
        <time>2020-10-05T12:50:15.000Z</time>
      </trkpt>
      <trkpt lat="43.99816" lon="5.90778">
        <ele>660</ele>
        <time>2020-10-05T12:50:16.000Z</time>
      </trkpt>
      <trkpt lat="43.99816" lon="5.90778">
        <ele>660</ele>
        <time>2020-10-05T12:50:17.000Z</time>
      </trkpt>
      <trkpt lat="43.99816" lon="5.90778">
        <ele>660</ele>
        <time>2020-10-05T12:50:18.000Z</time>
      </trkpt>
      <trkpt lat="43.99816" lon="5.90778">
        <ele>660</ele>
        <time>2020-10-05T12:50:19.000Z</time>
      </trkpt>
      <trkpt lat="43.99816" lon="5.90778">
        <ele>660</ele>
        <time>2020-10-05T12:50:20.000Z</time>
      </trkpt>
      <trkpt lat="43.99816" lon="5.90778">
        <ele>661</ele>
        <time>2020-10-05T12:50:21.000Z</time>
      </trkpt>
      <trkpt lat="43.99816" lon="5.90778">
        <ele>661</ele>
        <time>2020-10-05T12:50:22.000Z</time>
      </trkpt>
      <trkpt lat="43.99816" lon="5.90778">
        <ele>661</ele>
        <time>2020-10-05T12:50:23.000Z</time>
      </trkpt>
      <trkpt lat="43.99816" lon="5.90778">
        <ele>661</ele>
        <time>2020-10-05T12:50:24.000Z</time>
      </trkpt>
      <trkpt lat="43.99816" lon="5.90778">
        <ele>661</ele>
        <time>2020-10-05T12:50:25.000Z</time>
      </trkpt>
      <trkpt lat="43.99816" lon="5.90778">
        <ele>661</ele>
        <time>2020-10-05T12:50:26.000Z</time>
      </trkpt>
      <trkpt lat="43.99816" lon="5.90778">
        <ele>661</ele>
        <time>2020-10-05T12:50:27.000Z</time>
      </trkpt>
      <trkpt lat="43.99816" lon="5.90778">
        <ele>661</ele>
        <time>2020-10-05T12:50:28.000Z</time>
      </trkpt>
      <trkpt lat="43.99816" lon="5.90778">
        <ele>661</ele>
        <time>2020-10-05T12:50:29.000Z</time>
      </trkpt>
      <trkpt lat="43.99816" lon="5.90778">
        <ele>661</ele>
        <time>2020-10-05T12:50:30.000Z</time>
      </trkpt>
      <trkpt lat="43.99816" lon="5.90778">
        <ele>661</ele>
        <time>2020-10-05T12:50:31.000Z</time>
      </trkpt>
      <trkpt lat="43.99816" lon="5.90778">
        <ele>661</ele>
        <time>2020-10-05T12:50:32.000Z</time>
      </trkpt>
      <trkpt lat="43.99816" lon="5.90778">
        <ele>661</ele>
        <time>2020-10-05T12:50:33.000Z</time>
      </trkpt>
      <trkpt lat="43.99816" lon="5.90778">
        <ele>661</ele>
        <time>2020-10-05T12:50:34.000Z</time>
      </trkpt>
      <trkpt lat="43.99816" lon="5.90778">
        <ele>661</ele>
        <time>2020-10-05T12:50:35.000Z</time>
      </trkpt>
      <trkpt lat="43.99816" lon="5.90778">
        <ele>661</ele>
        <time>2020-10-05T12:50:36.000Z</time>
      </trkpt>
      <trkpt lat="43.99816" lon="5.90778">
        <ele>661</ele>
        <time>2020-10-05T12:50:37.000Z</time>
      </trkpt>
      <trkpt lat="43.99816" lon="5.90778">
        <ele>661</ele>
        <time>2020-10-05T12:50:38.000Z</time>
      </trkpt>
      <trkpt lat="43.99816" lon="5.90778">
        <ele>661</ele>
        <time>2020-10-05T12:50:39.000Z</time>
      </trkpt>
      <trkpt lat="43.99816" lon="5.90778">
        <ele>661</ele>
        <time>2020-10-05T12:50:40.000Z</time>
      </trkpt>
      <trkpt lat="43.99816" lon="5.90778">
        <ele>661</ele>
        <time>2020-10-05T12:50:41.000Z</time>
      </trkpt>
      <trkpt lat="43.99816" lon="5.90779">
        <ele>661</ele>
        <time>2020-10-05T12:50:42.000Z</time>
      </trkpt>
      <trkpt lat="43.99816" lon="5.90778">
        <ele>661</ele>
        <time>2020-10-05T12:50:43.000Z</time>
      </trkpt>
      <trkpt lat="43.99816" lon="5.90778">
        <ele>661</ele>
        <time>2020-10-05T12:50:44.000Z</time>
      </trkpt>
      <trkpt lat="43.99816" lon="5.90778">
        <ele>661</ele>
        <time>2020-10-05T12:50:45.000Z</time>
      </trkpt>
      <trkpt lat="43.99816" lon="5.90778">
        <ele>661</ele>
        <time>2020-10-05T12:50:46.000Z</time>
      </trkpt>
      <trkpt lat="43.99816" lon="5.90778">
        <ele>661</ele>
        <time>2020-10-05T12:50:47.000Z</time>
      </trkpt>
      <trkpt lat="43.99816" lon="5.90778">
        <ele>661</ele>
        <time>2020-10-05T12:50:48.000Z</time>
      </trkpt>
      <trkpt lat="43.99816" lon="5.90778">
        <ele>661</ele>
        <time>2020-10-05T12:50:49.000Z</time>
      </trkpt>
      <trkpt lat="43.99816" lon="5.90778">
        <ele>661</ele>
        <time>2020-10-05T12:50:50.000Z</time>
      </trkpt>
      <trkpt lat="43.99816" lon="5.90778">
        <ele>661</ele>
        <time>2020-10-05T12:50:51.000Z</time>
      </trkpt>
      <trkpt lat="43.99816" lon="5.90778">
        <ele>661</ele>
        <time>2020-10-05T12:50:52.000Z</time>
      </trkpt>
      <trkpt lat="43.99816" lon="5.90778">
        <ele>661</ele>
        <time>2020-10-05T12:50:53.000Z</time>
      </trkpt>
      <trkpt lat="43.99816" lon="5.90778">
        <ele>661</ele>
        <time>2020-10-05T12:50:54.000Z</time>
      </trkpt>
      <trkpt lat="43.99815" lon="5.90778">
        <ele>661</ele>
        <time>2020-10-05T12:50:55.000Z</time>
      </trkpt>
      <trkpt lat="43.99815" lon="5.90778">
        <ele>661</ele>
        <time>2020-10-05T12:50:56.000Z</time>
      </trkpt>
      <trkpt lat="43.99815" lon="5.90778">
        <ele>661</ele>
        <time>2020-10-05T12:50:57.000Z</time>
      </trkpt>
      <trkpt lat="43.99815" lon="5.90778">
        <ele>661</ele>
        <time>2020-10-05T12:50:58.000Z</time>
      </trkpt>
      <trkpt lat="43.99815" lon="5.90778">
        <ele>662</ele>
        <time>2020-10-05T12:50:59.000Z</time>
      </trkpt>
      <trkpt lat="43.99815" lon="5.90778">
        <ele>662</ele>
        <time>2020-10-05T12:51:00.000Z</time>
      </trkpt>
      <trkpt lat="43.99815" lon="5.90778">
        <ele>662</ele>
        <time>2020-10-05T12:51:01.000Z</time>
      </trkpt>
      <trkpt lat="43.99815" lon="5.90778">
        <ele>662</ele>
        <time>2020-10-05T12:51:02.000Z</time>
      </trkpt>
      <trkpt lat="43.99815" lon="5.90778">
        <ele>662</ele>
        <time>2020-10-05T12:51:03.000Z</time>
      </trkpt>
      <trkpt lat="43.99815" lon="5.90778">
        <ele>662</ele>
        <time>2020-10-05T12:51:04.000Z</time>
      </trkpt>
      <trkpt lat="43.99815" lon="5.90778">
        <ele>662</ele>
        <time>2020-10-05T12:51:05.000Z</time>
      </trkpt>
      <trkpt lat="43.99815" lon="5.90779">
        <ele>662</ele>
        <time>2020-10-05T12:51:06.000Z</time>
      </trkpt>
      <trkpt lat="43.99815" lon="5.90779">
        <ele>662</ele>
        <time>2020-10-05T12:51:07.000Z</time>
      </trkpt>
      <trkpt lat="43.99816" lon="5.90779">
        <ele>662</ele>
        <time>2020-10-05T12:51:08.000Z</time>
      </trkpt>
      <trkpt lat="43.99816" lon="5.90779">
        <ele>662</ele>
        <time>2020-10-05T12:51:09.000Z</time>
      </trkpt>
      <trkpt lat="43.99816" lon="5.90779">
        <ele>662</ele>
        <time>2020-10-05T12:51:10.000Z</time>
      </trkpt>
      <trkpt lat="43.99816" lon="5.90779">
        <ele>662</ele>
        <time>2020-10-05T12:51:11.000Z</time>
      </trkpt>
      <trkpt lat="43.99816" lon="5.90778">
        <ele>663</ele>
        <time>2020-10-05T12:51:12.000Z</time>
      </trkpt>
      <trkpt lat="43.99816" lon="5.90778">
        <ele>663</ele>
        <time>2020-10-05T12:51:13.000Z</time>
      </trkpt>
      <trkpt lat="43.99816" lon="5.90778">
        <ele>663</ele>
        <time>2020-10-05T12:51:14.000Z</time>
      </trkpt>
      <trkpt lat="43.99816" lon="5.90777">
        <ele>663</ele>
        <time>2020-10-05T12:51:15.000Z</time>
      </trkpt>
      <trkpt lat="43.99816" lon="5.90777">
        <ele>663</ele>
        <time>2020-10-05T12:51:16.000Z</time>
      </trkpt>
      <trkpt lat="43.99816" lon="5.90777">
        <ele>663</ele>
        <time>2020-10-05T12:51:17.000Z</time>
      </trkpt>
      <trkpt lat="43.99816" lon="5.90777">
        <ele>663</ele>
        <time>2020-10-05T12:51:18.000Z</time>
      </trkpt>
      <trkpt lat="43.99816" lon="5.90777">
        <ele>663</ele>
        <time>2020-10-05T12:51:19.000Z</time>
      </trkpt>
      <trkpt lat="43.99816" lon="5.90777">
        <ele>663</ele>
        <time>2020-10-05T12:51:20.000Z</time>
      </trkpt>
      <trkpt lat="43.99816" lon="5.90777">
        <ele>663</ele>
        <time>2020-10-05T12:51:21.000Z</time>
      </trkpt>
      <trkpt lat="43.99816" lon="5.90777">
        <ele>663</ele>
        <time>2020-10-05T12:51:22.000Z</time>
      </trkpt>
      <trkpt lat="43.99816" lon="5.90776">
        <ele>664</ele>
        <time>2020-10-05T12:51:23.000Z</time>
      </trkpt>
      <trkpt lat="43.99816" lon="5.90776">
        <ele>664</ele>
        <time>2020-10-05T12:51:24.000Z</time>
      </trkpt>
      <trkpt lat="43.99816" lon="5.90776">
        <ele>664</ele>
        <time>2020-10-05T12:51:25.000Z</time>
      </trkpt>
      <trkpt lat="43.99816" lon="5.90776">
        <ele>664</ele>
        <time>2020-10-05T12:51:26.000Z</time>
      </trkpt>
      <trkpt lat="43.99817" lon="5.90776">
        <ele>664</ele>
        <time>2020-10-05T12:51:27.000Z</time>
      </trkpt>
      <trkpt lat="43.99816" lon="5.90776">
        <ele>664</ele>
        <time>2020-10-05T12:51:28.000Z</time>
      </trkpt>
      <trkpt lat="43.99817" lon="5.90776">
        <ele>664</ele>
        <time>2020-10-05T12:51:29.000Z</time>
      </trkpt>
      <trkpt lat="43.99817" lon="5.90776">
        <ele>664</ele>
        <time>2020-10-05T12:51:30.000Z</time>
      </trkpt>
      <trkpt lat="43.99817" lon="5.90776">
        <ele>664</ele>
        <time>2020-10-05T12:51:31.000Z</time>
      </trkpt>
      <trkpt lat="43.99817" lon="5.90776">
        <ele>664</ele>
        <time>2020-10-05T12:51:32.000Z</time>
      </trkpt>
      <trkpt lat="43.99817" lon="5.90776">
        <ele>664</ele>
        <time>2020-10-05T12:51:33.000Z</time>
      </trkpt>
      <trkpt lat="43.99817" lon="5.90776">
        <ele>664</ele>
        <time>2020-10-05T12:51:34.000Z</time>
      </trkpt>
      <trkpt lat="43.99817" lon="5.90776">
        <ele>665</ele>
        <time>2020-10-05T12:51:35.000Z</time>
      </trkpt>
      <trkpt lat="43.99816" lon="5.90776">
        <ele>665</ele>
        <time>2020-10-05T12:51:36.000Z</time>
      </trkpt>
      <trkpt lat="43.99816" lon="5.90775">
        <ele>665</ele>
        <time>2020-10-05T12:51:37.000Z</time>
      </trkpt>
      <trkpt lat="43.99816" lon="5.90775">
        <ele>665</ele>
        <time>2020-10-05T12:51:38.000Z</time>
      </trkpt>
      <trkpt lat="43.99817" lon="5.90775">
        <ele>665</ele>
        <time>2020-10-05T12:51:39.000Z</time>
      </trkpt>
      <trkpt lat="43.99817" lon="5.90775">
        <ele>665</ele>
        <time>2020-10-05T12:51:40.000Z</time>
      </trkpt>
      <trkpt lat="43.99818" lon="5.90775">
        <ele>665</ele>
        <time>2020-10-05T12:51:41.000Z</time>
      </trkpt>
      <trkpt lat="43.99818" lon="5.90776">
        <ele>665</ele>
        <time>2020-10-05T12:51:42.000Z</time>
      </trkpt>
      <trkpt lat="43.99818" lon="5.90776">
        <ele>665</ele>
        <time>2020-10-05T12:51:43.000Z</time>
      </trkpt>
      <trkpt lat="43.99818" lon="5.90776">
        <ele>666</ele>
        <time>2020-10-05T12:51:44.000Z</time>
      </trkpt>
      <trkpt lat="43.99818" lon="5.90776">
        <ele>666</ele>
        <time>2020-10-05T12:51:45.000Z</time>
      </trkpt>
      <trkpt lat="43.99818" lon="5.90776">
        <ele>666</ele>
        <time>2020-10-05T12:51:46.000Z</time>
      </trkpt>
      <trkpt lat="43.99818" lon="5.90776">
        <ele>666</ele>
        <time>2020-10-05T12:51:47.000Z</time>
      </trkpt>
      <trkpt lat="43.99818" lon="5.90776">
        <ele>666</ele>
        <time>2020-10-05T12:51:48.000Z</time>
      </trkpt>
      <trkpt lat="43.99818" lon="5.90776">
        <ele>666</ele>
        <time>2020-10-05T12:51:49.000Z</time>
      </trkpt>
      <trkpt lat="43.99818" lon="5.90775">
        <ele>666</ele>
        <time>2020-10-05T12:51:50.000Z</time>
      </trkpt>
      <trkpt lat="43.99818" lon="5.90775">
        <ele>667</ele>
        <time>2020-10-05T12:51:51.000Z</time>
      </trkpt>
      <trkpt lat="43.99818" lon="5.90775">
        <ele>667</ele>
        <time>2020-10-05T12:51:52.000Z</time>
      </trkpt>
      <trkpt lat="43.99818" lon="5.90775">
        <ele>667</ele>
        <time>2020-10-05T12:51:53.000Z</time>
      </trkpt>
      <trkpt lat="43.99817" lon="5.90775">
        <ele>667</ele>
        <time>2020-10-05T12:51:54.000Z</time>
      </trkpt>
      <trkpt lat="43.99817" lon="5.90775">
        <ele>667</ele>
        <time>2020-10-05T12:51:55.000Z</time>
      </trkpt>
      <trkpt lat="43.99817" lon="5.90775">
        <ele>667</ele>
        <time>2020-10-05T12:51:56.000Z</time>
      </trkpt>
      <trkpt lat="43.99817" lon="5.90775">
        <ele>667</ele>
        <time>2020-10-05T12:51:57.000Z</time>
      </trkpt>
      <trkpt lat="43.99817" lon="5.90774">
        <ele>667</ele>
        <time>2020-10-05T12:51:58.000Z</time>
      </trkpt>
      <trkpt lat="43.99817" lon="5.90774">
        <ele>667</ele>
        <time>2020-10-05T12:51:59.000Z</time>
      </trkpt>
      <trkpt lat="43.99817" lon="5.90774">
        <ele>667</ele>
        <time>2020-10-05T12:52:00.000Z</time>
      </trkpt>
      <trkpt lat="43.99817" lon="5.90774">
        <ele>667</ele>
        <time>2020-10-05T12:52:01.000Z</time>
      </trkpt>
      <trkpt lat="43.99817" lon="5.90773">
        <ele>667</ele>
        <time>2020-10-05T12:52:02.000Z</time>
      </trkpt>
      <trkpt lat="43.99816" lon="5.90773">
        <ele>667</ele>
        <time>2020-10-05T12:52:03.000Z</time>
      </trkpt>
      <trkpt lat="43.99816" lon="5.90773">
        <ele>667</ele>
        <time>2020-10-05T12:52:04.000Z</time>
      </trkpt>
      <trkpt lat="43.99816" lon="5.90773">
        <ele>667</ele>
        <time>2020-10-05T12:52:05.000Z</time>
      </trkpt>
      <trkpt lat="43.99816" lon="5.90773">
        <ele>667</ele>
        <time>2020-10-05T12:52:06.000Z</time>
      </trkpt>
      <trkpt lat="43.99816" lon="5.90773">
        <ele>667</ele>
        <time>2020-10-05T12:52:07.000Z</time>
      </trkpt>
      <trkpt lat="43.99816" lon="5.90773">
        <ele>667</ele>
        <time>2020-10-05T12:52:08.000Z</time>
      </trkpt>
      <trkpt lat="43.99816" lon="5.90772">
        <ele>667</ele>
        <time>2020-10-05T12:52:09.000Z</time>
      </trkpt>
      <trkpt lat="43.99816" lon="5.90772">
        <ele>667</ele>
        <time>2020-10-05T12:52:10.000Z</time>
      </trkpt>
      <trkpt lat="43.99816" lon="5.90772">
        <ele>667</ele>
        <time>2020-10-05T12:52:11.000Z</time>
      </trkpt>
      <trkpt lat="43.99816" lon="5.90772">
        <ele>667</ele>
        <time>2020-10-05T12:52:12.000Z</time>
      </trkpt>
      <trkpt lat="43.99816" lon="5.90771">
        <ele>667</ele>
        <time>2020-10-05T12:52:13.000Z</time>
      </trkpt>
      <trkpt lat="43.99817" lon="5.90771">
        <ele>667</ele>
        <time>2020-10-05T12:52:14.000Z</time>
      </trkpt>
      <trkpt lat="43.99817" lon="5.90771">
        <ele>667</ele>
        <time>2020-10-05T12:52:15.000Z</time>
      </trkpt>
      <trkpt lat="43.99818" lon="5.9077">
        <ele>667</ele>
        <time>2020-10-05T12:52:16.000Z</time>
      </trkpt>
      <trkpt lat="43.99818" lon="5.9077">
        <ele>667</ele>
        <time>2020-10-05T12:52:17.000Z</time>
      </trkpt>
      <trkpt lat="43.99819" lon="5.90771">
        <ele>667</ele>
        <time>2020-10-05T12:52:18.000Z</time>
      </trkpt>
      <trkpt lat="43.9982" lon="5.90771">
        <ele>668</ele>
        <time>2020-10-05T12:52:19.000Z</time>
      </trkpt>
      <trkpt lat="43.9982" lon="5.90771">
        <ele>668</ele>
        <time>2020-10-05T12:52:20.000Z</time>
      </trkpt>
      <trkpt lat="43.99821" lon="5.90772">
        <ele>668</ele>
        <time>2020-10-05T12:52:21.000Z</time>
      </trkpt>
      <trkpt lat="43.99822" lon="5.90772">
        <ele>668</ele>
        <time>2020-10-05T12:52:22.000Z</time>
      </trkpt>
      <trkpt lat="43.99822" lon="5.90772">
        <ele>667</ele>
        <time>2020-10-05T12:52:23.000Z</time>
      </trkpt>
      <trkpt lat="43.99823" lon="5.90773">
        <ele>667</ele>
        <time>2020-10-05T12:52:24.000Z</time>
      </trkpt>
      <trkpt lat="43.99823" lon="5.90773">
        <ele>667</ele>
        <time>2020-10-05T12:52:25.000Z</time>
      </trkpt>
      <trkpt lat="43.99824" lon="5.90775">
        <ele>666</ele>
        <time>2020-10-05T12:52:26.000Z</time>
      </trkpt>
      <trkpt lat="43.99825" lon="5.90776">
        <ele>666</ele>
        <time>2020-10-05T12:52:27.000Z</time>
      </trkpt>
      <trkpt lat="43.99825" lon="5.90777">
        <ele>666</ele>
        <time>2020-10-05T12:52:28.000Z</time>
      </trkpt>
      <trkpt lat="43.99825" lon="5.90778">
        <ele>665</ele>
        <time>2020-10-05T12:52:29.000Z</time>
      </trkpt>
      <trkpt lat="43.99825" lon="5.90778">
        <ele>665</ele>
        <time>2020-10-05T12:52:30.000Z</time>
      </trkpt>
      <trkpt lat="43.99826" lon="5.90778">
        <ele>665</ele>
        <time>2020-10-05T12:52:31.000Z</time>
      </trkpt>
      <trkpt lat="43.99826" lon="5.90779">
        <ele>665</ele>
        <time>2020-10-05T12:52:32.000Z</time>
      </trkpt>
      <trkpt lat="43.99826" lon="5.90779">
        <ele>664</ele>
        <time>2020-10-05T12:52:33.000Z</time>
      </trkpt>
      <trkpt lat="43.99826" lon="5.90779">
        <ele>664</ele>
        <time>2020-10-05T12:52:34.000Z</time>
      </trkpt>
      <trkpt lat="43.99826" lon="5.90779">
        <ele>664</ele>
        <time>2020-10-05T12:52:35.000Z</time>
      </trkpt>
      <trkpt lat="43.99826" lon="5.90779">
        <ele>664</ele>
        <time>2020-10-05T12:52:36.000Z</time>
      </trkpt>
      <trkpt lat="43.99826" lon="5.9078">
        <ele>664</ele>
        <time>2020-10-05T12:52:37.000Z</time>
      </trkpt>
      <trkpt lat="43.99827" lon="5.9078">
        <ele>664</ele>
        <time>2020-10-05T12:52:38.000Z</time>
      </trkpt>
      <trkpt lat="43.99827" lon="5.9078">
        <ele>664</ele>
        <time>2020-10-05T12:52:39.000Z</time>
      </trkpt>
      <trkpt lat="43.99827" lon="5.9078">
        <ele>663</ele>
        <time>2020-10-05T12:52:40.000Z</time>
      </trkpt>
      <trkpt lat="43.99827" lon="5.9078">
        <ele>663</ele>
        <time>2020-10-05T12:52:41.000Z</time>
      </trkpt>
      <trkpt lat="43.99827" lon="5.90781">
        <ele>663</ele>
        <time>2020-10-05T12:52:42.000Z</time>
      </trkpt>
      <trkpt lat="43.99826" lon="5.90782">
        <ele>663</ele>
        <time>2020-10-05T12:52:43.000Z</time>
      </trkpt>
      <trkpt lat="43.99826" lon="5.90782">
        <ele>663</ele>
        <time>2020-10-05T12:52:44.000Z</time>
      </trkpt>
      <trkpt lat="43.99826" lon="5.90782">
        <ele>663</ele>
        <time>2020-10-05T12:52:45.000Z</time>
      </trkpt>
      <trkpt lat="43.99826" lon="5.90781">
        <ele>663</ele>
        <time>2020-10-05T12:52:46.000Z</time>
      </trkpt>
      <trkpt lat="43.99826" lon="5.90781">
        <ele>663</ele>
        <time>2020-10-05T12:52:47.000Z</time>
      </trkpt>
      <trkpt lat="43.99826" lon="5.90781">
        <ele>663</ele>
        <time>2020-10-05T12:52:48.000Z</time>
      </trkpt>
      <trkpt lat="43.99826" lon="5.90781">
        <ele>663</ele>
        <time>2020-10-05T12:52:49.000Z</time>
      </trkpt>
      <trkpt lat="43.99826" lon="5.90781">
        <ele>663</ele>
        <time>2020-10-05T12:52:50.000Z</time>
      </trkpt>
      <trkpt lat="43.99826" lon="5.90781">
        <ele>663</ele>
        <time>2020-10-05T12:52:51.000Z</time>
      </trkpt>
      <trkpt lat="43.99827" lon="5.90781">
        <ele>663</ele>
        <time>2020-10-05T12:52:52.000Z</time>
      </trkpt>
      <trkpt lat="43.99827" lon="5.90782">
        <ele>663</ele>
        <time>2020-10-05T12:52:53.000Z</time>
      </trkpt>
      <trkpt lat="43.99827" lon="5.90782">
        <ele>663</ele>
        <time>2020-10-05T12:52:54.000Z</time>
      </trkpt>
      <trkpt lat="43.99827" lon="5.90782">
        <ele>663</ele>
        <time>2020-10-05T12:52:55.000Z</time>
      </trkpt>
      <trkpt lat="43.99827" lon="5.90782">
        <ele>663</ele>
        <time>2020-10-05T12:52:56.000Z</time>
      </trkpt>
      <trkpt lat="43.99827" lon="5.90782">
        <ele>663</ele>
        <time>2020-10-05T12:52:57.000Z</time>
      </trkpt>
      <trkpt lat="43.99827" lon="5.90782">
        <ele>663</ele>
        <time>2020-10-05T12:52:58.000Z</time>
      </trkpt>
      <trkpt lat="43.99827" lon="5.90782">
        <ele>663</ele>
        <time>2020-10-05T12:52:59.000Z</time>
      </trkpt>
      <trkpt lat="43.99827" lon="5.90782">
        <ele>663</ele>
        <time>2020-10-05T12:53:00.000Z</time>
      </trkpt>
      <trkpt lat="43.99827" lon="5.90782">
        <ele>663</ele>
        <time>2020-10-05T12:53:01.000Z</time>
      </trkpt>
      <trkpt lat="43.99827" lon="5.90783">
        <ele>663</ele>
        <time>2020-10-05T12:53:02.000Z</time>
      </trkpt>
      <trkpt lat="43.99827" lon="5.90784">
        <ele>663</ele>
        <time>2020-10-05T12:53:03.000Z</time>
      </trkpt>
      <trkpt lat="43.99827" lon="5.90785">
        <ele>663</ele>
        <time>2020-10-05T12:53:04.000Z</time>
      </trkpt>
      <trkpt lat="43.99827" lon="5.90786">
        <ele>663</ele>
        <time>2020-10-05T12:53:05.000Z</time>
      </trkpt>
      <trkpt lat="43.99827" lon="5.90787">
        <ele>663</ele>
        <time>2020-10-05T12:53:06.000Z</time>
      </trkpt>
      <trkpt lat="43.99827" lon="5.90788">
        <ele>663</ele>
        <time>2020-10-05T12:53:07.000Z</time>
      </trkpt>
      <trkpt lat="43.99827" lon="5.90789">
        <ele>663</ele>
        <time>2020-10-05T12:53:08.000Z</time>
      </trkpt>
      <trkpt lat="43.99828" lon="5.9079">
        <ele>663</ele>
        <time>2020-10-05T12:53:09.000Z</time>
      </trkpt>
      <trkpt lat="43.99828" lon="5.90791">
        <ele>663</ele>
        <time>2020-10-05T12:53:10.000Z</time>
      </trkpt>
      <trkpt lat="43.99827" lon="5.90792">
        <ele>663</ele>
        <time>2020-10-05T12:53:11.000Z</time>
      </trkpt>
      <trkpt lat="43.99827" lon="5.90794">
        <ele>663</ele>
        <time>2020-10-05T12:53:12.000Z</time>
      </trkpt>
      <trkpt lat="43.99827" lon="5.90795">
        <ele>663</ele>
        <time>2020-10-05T12:53:13.000Z</time>
      </trkpt>
      <trkpt lat="43.99827" lon="5.90796">
        <ele>664</ele>
        <time>2020-10-05T12:53:14.000Z</time>
      </trkpt>
      <trkpt lat="43.99827" lon="5.90797">
        <ele>664</ele>
        <time>2020-10-05T12:53:15.000Z</time>
      </trkpt>
      <trkpt lat="43.99827" lon="5.90798">
        <ele>664</ele>
        <time>2020-10-05T12:53:16.000Z</time>
      </trkpt>
      <trkpt lat="43.99827" lon="5.90799">
        <ele>664</ele>
        <time>2020-10-05T12:53:17.000Z</time>
      </trkpt>
      <trkpt lat="43.99827" lon="5.908">
        <ele>664</ele>
        <time>2020-10-05T12:53:18.000Z</time>
      </trkpt>
      <trkpt lat="43.99827" lon="5.90802">
        <ele>664</ele>
        <time>2020-10-05T12:53:19.000Z</time>
      </trkpt>
      <trkpt lat="43.99827" lon="5.90803">
        <ele>664</ele>
        <time>2020-10-05T12:53:20.000Z</time>
      </trkpt>
      <trkpt lat="43.99827" lon="5.90804">
        <ele>664</ele>
        <time>2020-10-05T12:53:21.000Z</time>
      </trkpt>
      <trkpt lat="43.99827" lon="5.90805">
        <ele>664</ele>
        <time>2020-10-05T12:53:22.000Z</time>
      </trkpt>
      <trkpt lat="43.99828" lon="5.90806">
        <ele>665</ele>
        <time>2020-10-05T12:53:23.000Z</time>
      </trkpt>
      <trkpt lat="43.99828" lon="5.90807">
        <ele>665</ele>
        <time>2020-10-05T12:53:24.000Z</time>
      </trkpt>
      <trkpt lat="43.99829" lon="5.90808">
        <ele>665</ele>
        <time>2020-10-05T12:53:25.000Z</time>
      </trkpt>
      <trkpt lat="43.99829" lon="5.9081">
        <ele>665</ele>
        <time>2020-10-05T12:53:26.000Z</time>
      </trkpt>
      <trkpt lat="43.99829" lon="5.90811">
        <ele>665</ele>
        <time>2020-10-05T12:53:27.000Z</time>
      </trkpt>
      <trkpt lat="43.9983" lon="5.90812">
        <ele>665</ele>
        <time>2020-10-05T12:53:28.000Z</time>
      </trkpt>
      <trkpt lat="43.9983" lon="5.90814">
        <ele>665</ele>
        <time>2020-10-05T12:53:29.000Z</time>
      </trkpt>
      <trkpt lat="43.99831" lon="5.90816">
        <ele>665</ele>
        <time>2020-10-05T12:53:30.000Z</time>
      </trkpt>
      <trkpt lat="43.99832" lon="5.90817">
        <ele>665</ele>
        <time>2020-10-05T12:53:31.000Z</time>
      </trkpt>
      <trkpt lat="43.99832" lon="5.90819">
        <ele>665</ele>
        <time>2020-10-05T12:53:32.000Z</time>
      </trkpt>
      <trkpt lat="43.99833" lon="5.9082">
        <ele>665</ele>
        <time>2020-10-05T12:53:33.000Z</time>
      </trkpt>
      <trkpt lat="43.99834" lon="5.90821">
        <ele>665</ele>
        <time>2020-10-05T12:53:34.000Z</time>
      </trkpt>
      <trkpt lat="43.99835" lon="5.90823">
        <ele>665</ele>
        <time>2020-10-05T12:53:35.000Z</time>
      </trkpt>
      <trkpt lat="43.99835" lon="5.90824">
        <ele>665</ele>
        <time>2020-10-05T12:53:36.000Z</time>
      </trkpt>
      <trkpt lat="43.99836" lon="5.90825">
        <ele>665</ele>
        <time>2020-10-05T12:53:37.000Z</time>
      </trkpt>
      <trkpt lat="43.99836" lon="5.90826">
        <ele>665</ele>
        <time>2020-10-05T12:53:38.000Z</time>
      </trkpt>
      <trkpt lat="43.99837" lon="5.90827">
        <ele>665</ele>
        <time>2020-10-05T12:53:39.000Z</time>
      </trkpt>
      <trkpt lat="43.99837" lon="5.90828">
        <ele>665</ele>
        <time>2020-10-05T12:53:40.000Z</time>
      </trkpt>
      <trkpt lat="43.99837" lon="5.90829">
        <ele>665</ele>
        <time>2020-10-05T12:53:41.000Z</time>
      </trkpt>
      <trkpt lat="43.99838" lon="5.9083">
        <ele>665</ele>
        <time>2020-10-05T12:53:42.000Z</time>
      </trkpt>
      <trkpt lat="43.99838" lon="5.9083">
        <ele>665</ele>
        <time>2020-10-05T12:53:43.000Z</time>
      </trkpt>
      <trkpt lat="43.99839" lon="5.90831">
        <ele>665</ele>
        <time>2020-10-05T12:53:44.000Z</time>
      </trkpt>
      <trkpt lat="43.9984" lon="5.90831">
        <ele>664</ele>
        <time>2020-10-05T12:53:45.000Z</time>
      </trkpt>
      <trkpt lat="43.99841" lon="5.90831">
        <ele>664</ele>
        <time>2020-10-05T12:53:46.000Z</time>
      </trkpt>
      <trkpt lat="43.99841" lon="5.90832">
        <ele>664</ele>
        <time>2020-10-05T12:53:47.000Z</time>
      </trkpt>
      <trkpt lat="43.99842" lon="5.90832">
        <ele>664</ele>
        <time>2020-10-05T12:53:48.000Z</time>
      </trkpt>
      <trkpt lat="43.99843" lon="5.90833">
        <ele>664</ele>
        <time>2020-10-05T12:53:49.000Z</time>
      </trkpt>
      <trkpt lat="43.99844" lon="5.90833">
        <ele>664</ele>
        <time>2020-10-05T12:53:50.000Z</time>
      </trkpt>
      <trkpt lat="43.99845" lon="5.90834">
        <ele>664</ele>
        <time>2020-10-05T12:53:51.000Z</time>
      </trkpt>
      <trkpt lat="43.99846" lon="5.90835">
        <ele>664</ele>
        <time>2020-10-05T12:53:52.000Z</time>
      </trkpt>
      <trkpt lat="43.99847" lon="5.90835">
        <ele>664</ele>
        <time>2020-10-05T12:53:53.000Z</time>
      </trkpt>
      <trkpt lat="43.99848" lon="5.90836">
        <ele>664</ele>
        <time>2020-10-05T12:53:54.000Z</time>
      </trkpt>
      <trkpt lat="43.99849" lon="5.90836">
        <ele>664</ele>
        <time>2020-10-05T12:53:55.000Z</time>
      </trkpt>
      <trkpt lat="43.9985" lon="5.90837">
        <ele>664</ele>
        <time>2020-10-05T12:53:56.000Z</time>
      </trkpt>
      <trkpt lat="43.9985" lon="5.90838">
        <ele>664</ele>
        <time>2020-10-05T12:53:57.000Z</time>
      </trkpt>
      <trkpt lat="43.99851" lon="5.90839">
        <ele>664</ele>
        <time>2020-10-05T12:53:58.000Z</time>
      </trkpt>
      <trkpt lat="43.99852" lon="5.90839">
        <ele>664</ele>
        <time>2020-10-05T12:53:59.000Z</time>
      </trkpt>
      <trkpt lat="43.99853" lon="5.9084">
        <ele>664</ele>
        <time>2020-10-05T12:54:00.000Z</time>
      </trkpt>
      <trkpt lat="43.99854" lon="5.90841">
        <ele>664</ele>
        <time>2020-10-05T12:54:01.000Z</time>
      </trkpt>
      <trkpt lat="43.99854" lon="5.90842">
        <ele>664</ele>
        <time>2020-10-05T12:54:02.000Z</time>
      </trkpt>
      <trkpt lat="43.99855" lon="5.90843">
        <ele>664</ele>
        <time>2020-10-05T12:54:03.000Z</time>
      </trkpt>
      <trkpt lat="43.99855" lon="5.90844">
        <ele>664</ele>
        <time>2020-10-05T12:54:04.000Z</time>
      </trkpt>
      <trkpt lat="43.99856" lon="5.90845">
        <ele>664</ele>
        <time>2020-10-05T12:54:05.000Z</time>
      </trkpt>
      <trkpt lat="43.99857" lon="5.90846">
        <ele>664</ele>
        <time>2020-10-05T12:54:06.000Z</time>
      </trkpt>
      <trkpt lat="43.99857" lon="5.90848">
        <ele>664</ele>
        <time>2020-10-05T12:54:07.000Z</time>
      </trkpt>
      <trkpt lat="43.99858" lon="5.90849">
        <ele>664</ele>
        <time>2020-10-05T12:54:08.000Z</time>
      </trkpt>
      <trkpt lat="43.99859" lon="5.9085">
        <ele>664</ele>
        <time>2020-10-05T12:54:09.000Z</time>
      </trkpt>
      <trkpt lat="43.9986" lon="5.90851">
        <ele>664</ele>
        <time>2020-10-05T12:54:10.000Z</time>
      </trkpt>
      <trkpt lat="43.9986" lon="5.90853">
        <ele>664</ele>
        <time>2020-10-05T12:54:11.000Z</time>
      </trkpt>
      <trkpt lat="43.99861" lon="5.90854">
        <ele>665</ele>
        <time>2020-10-05T12:54:12.000Z</time>
      </trkpt>
      <trkpt lat="43.99861" lon="5.90855">
        <ele>665</ele>
        <time>2020-10-05T12:54:13.000Z</time>
      </trkpt>
      <trkpt lat="43.99862" lon="5.90856">
        <ele>665</ele>
        <time>2020-10-05T12:54:14.000Z</time>
      </trkpt>
      <trkpt lat="43.99863" lon="5.90858">
        <ele>665</ele>
        <time>2020-10-05T12:54:15.000Z</time>
      </trkpt>
      <trkpt lat="43.99863" lon="5.9086">
        <ele>665</ele>
        <time>2020-10-05T12:54:16.000Z</time>
      </trkpt>
      <trkpt lat="43.99864" lon="5.90861">
        <ele>665</ele>
        <time>2020-10-05T12:54:17.000Z</time>
      </trkpt>
      <trkpt lat="43.99865" lon="5.90862">
        <ele>665</ele>
        <time>2020-10-05T12:54:18.000Z</time>
      </trkpt>
      <trkpt lat="43.99866" lon="5.90864">
        <ele>665</ele>
        <time>2020-10-05T12:54:19.000Z</time>
      </trkpt>
      <trkpt lat="43.99866" lon="5.90865">
        <ele>665</ele>
        <time>2020-10-05T12:54:20.000Z</time>
      </trkpt>
      <trkpt lat="43.99866" lon="5.90865">
        <ele>665</ele>
        <time>2020-10-05T12:54:21.000Z</time>
      </trkpt>
      <trkpt lat="43.99867" lon="5.90866">
        <ele>665</ele>
        <time>2020-10-05T12:54:22.000Z</time>
      </trkpt>
      <trkpt lat="43.99867" lon="5.90868">
        <ele>665</ele>
        <time>2020-10-05T12:54:23.000Z</time>
      </trkpt>
      <trkpt lat="43.99868" lon="5.90869">
        <ele>665</ele>
        <time>2020-10-05T12:54:24.000Z</time>
      </trkpt>
      <trkpt lat="43.99868" lon="5.9087">
        <ele>665</ele>
        <time>2020-10-05T12:54:25.000Z</time>
      </trkpt>
      <trkpt lat="43.99868" lon="5.90871">
        <ele>665</ele>
        <time>2020-10-05T12:54:26.000Z</time>
      </trkpt>
      <trkpt lat="43.99869" lon="5.90872">
        <ele>665</ele>
        <time>2020-10-05T12:54:27.000Z</time>
      </trkpt>
      <trkpt lat="43.99869" lon="5.90873">
        <ele>665</ele>
        <time>2020-10-05T12:54:28.000Z</time>
      </trkpt>
      <trkpt lat="43.99869" lon="5.90874">
        <ele>665</ele>
        <time>2020-10-05T12:54:29.000Z</time>
      </trkpt>
      <trkpt lat="43.9987" lon="5.90875">
        <ele>665</ele>
        <time>2020-10-05T12:54:30.000Z</time>
      </trkpt>
      <trkpt lat="43.9987" lon="5.90876">
        <ele>665</ele>
        <time>2020-10-05T12:54:31.000Z</time>
      </trkpt>
      <trkpt lat="43.99871" lon="5.90877">
        <ele>665</ele>
        <time>2020-10-05T12:54:32.000Z</time>
      </trkpt>
      <trkpt lat="43.99871" lon="5.90878">
        <ele>665</ele>
        <time>2020-10-05T12:54:33.000Z</time>
      </trkpt>
      <trkpt lat="43.99872" lon="5.9088">
        <ele>665</ele>
        <time>2020-10-05T12:54:34.000Z</time>
      </trkpt>
      <trkpt lat="43.99872" lon="5.90881">
        <ele>665</ele>
        <time>2020-10-05T12:54:35.000Z</time>
      </trkpt>
      <trkpt lat="43.99873" lon="5.90882">
        <ele>665</ele>
        <time>2020-10-05T12:54:36.000Z</time>
      </trkpt>
      <trkpt lat="43.99874" lon="5.90883">
        <ele>665</ele>
        <time>2020-10-05T12:54:37.000Z</time>
      </trkpt>
      <trkpt lat="43.99874" lon="5.90885">
        <ele>665</ele>
        <time>2020-10-05T12:54:38.000Z</time>
      </trkpt>
      <trkpt lat="43.99875" lon="5.90887">
        <ele>665</ele>
        <time>2020-10-05T12:54:39.000Z</time>
      </trkpt>
      <trkpt lat="43.99875" lon="5.90888">
        <ele>664</ele>
        <time>2020-10-05T12:54:40.000Z</time>
      </trkpt>
      <trkpt lat="43.99876" lon="5.9089">
        <ele>664</ele>
        <time>2020-10-05T12:54:41.000Z</time>
      </trkpt>
      <trkpt lat="43.99876" lon="5.90891">
        <ele>664</ele>
        <time>2020-10-05T12:54:42.000Z</time>
      </trkpt>
      <trkpt lat="43.99877" lon="5.90893">
        <ele>664</ele>
        <time>2020-10-05T12:54:43.000Z</time>
      </trkpt>
      <trkpt lat="43.99877" lon="5.90894">
        <ele>664</ele>
        <time>2020-10-05T12:54:44.000Z</time>
      </trkpt>
      <trkpt lat="43.99878" lon="5.90895">
        <ele>664</ele>
        <time>2020-10-05T12:54:45.000Z</time>
      </trkpt>
      <trkpt lat="43.99878" lon="5.90896">
        <ele>664</ele>
        <time>2020-10-05T12:54:46.000Z</time>
      </trkpt>
      <trkpt lat="43.99878" lon="5.90897">
        <ele>664</ele>
        <time>2020-10-05T12:54:47.000Z</time>
      </trkpt>
      <trkpt lat="43.99879" lon="5.90899">
        <ele>664</ele>
        <time>2020-10-05T12:54:48.000Z</time>
      </trkpt>
      <trkpt lat="43.99879" lon="5.909">
        <ele>664</ele>
        <time>2020-10-05T12:54:49.000Z</time>
      </trkpt>
      <trkpt lat="43.9988" lon="5.90902">
        <ele>664</ele>
        <time>2020-10-05T12:54:50.000Z</time>
      </trkpt>
      <trkpt lat="43.9988" lon="5.90903">
        <ele>664</ele>
        <time>2020-10-05T12:54:51.000Z</time>
      </trkpt>
      <trkpt lat="43.99881" lon="5.90905">
        <ele>664</ele>
        <time>2020-10-05T12:54:52.000Z</time>
      </trkpt>
      <trkpt lat="43.99881" lon="5.90906">
        <ele>664</ele>
        <time>2020-10-05T12:54:53.000Z</time>
      </trkpt>
      <trkpt lat="43.99882" lon="5.90907">
        <ele>664</ele>
        <time>2020-10-05T12:54:54.000Z</time>
      </trkpt>
      <trkpt lat="43.99882" lon="5.90908">
        <ele>664</ele>
        <time>2020-10-05T12:54:55.000Z</time>
      </trkpt>
      <trkpt lat="43.99883" lon="5.90909">
        <ele>664</ele>
        <time>2020-10-05T12:54:56.000Z</time>
      </trkpt>
      <trkpt lat="43.99884" lon="5.9091">
        <ele>664</ele>
        <time>2020-10-05T12:54:57.000Z</time>
      </trkpt>
      <trkpt lat="43.99884" lon="5.90911">
        <ele>664</ele>
        <time>2020-10-05T12:54:58.000Z</time>
      </trkpt>
      <trkpt lat="43.99885" lon="5.90912">
        <ele>664</ele>
        <time>2020-10-05T12:54:59.000Z</time>
      </trkpt>
      <trkpt lat="43.99885" lon="5.90913">
        <ele>664</ele>
        <time>2020-10-05T12:55:00.000Z</time>
      </trkpt>
      <trkpt lat="43.99885" lon="5.90914">
        <ele>664</ele>
        <time>2020-10-05T12:55:01.000Z</time>
      </trkpt>
      <trkpt lat="43.99886" lon="5.90915">
        <ele>664</ele>
        <time>2020-10-05T12:55:02.000Z</time>
      </trkpt>
      <trkpt lat="43.99886" lon="5.90916">
        <ele>664</ele>
        <time>2020-10-05T12:55:03.000Z</time>
      </trkpt>
      <trkpt lat="43.99887" lon="5.90917">
        <ele>664</ele>
        <time>2020-10-05T12:55:04.000Z</time>
      </trkpt>
      <trkpt lat="43.99887" lon="5.90918">
        <ele>664</ele>
        <time>2020-10-05T12:55:05.000Z</time>
      </trkpt>
      <trkpt lat="43.99887" lon="5.90919">
        <ele>664</ele>
        <time>2020-10-05T12:55:06.000Z</time>
      </trkpt>
      <trkpt lat="43.99888" lon="5.90921">
        <ele>664</ele>
        <time>2020-10-05T12:55:07.000Z</time>
      </trkpt>
      <trkpt lat="43.99888" lon="5.90922">
        <ele>664</ele>
        <time>2020-10-05T12:55:08.000Z</time>
      </trkpt>
      <trkpt lat="43.99889" lon="5.90923">
        <ele>664</ele>
        <time>2020-10-05T12:55:09.000Z</time>
      </trkpt>
      <trkpt lat="43.99889" lon="5.90924">
        <ele>664</ele>
        <time>2020-10-05T12:55:10.000Z</time>
      </trkpt>
      <trkpt lat="43.9989" lon="5.90925">
        <ele>665</ele>
        <time>2020-10-05T12:55:11.000Z</time>
      </trkpt>
      <trkpt lat="43.9989" lon="5.90927">
        <ele>665</ele>
        <time>2020-10-05T12:55:12.000Z</time>
      </trkpt>
      <trkpt lat="43.99891" lon="5.90928">
        <ele>665</ele>
        <time>2020-10-05T12:55:13.000Z</time>
      </trkpt>
      <trkpt lat="43.99891" lon="5.90929">
        <ele>665</ele>
        <time>2020-10-05T12:55:14.000Z</time>
      </trkpt>
      <trkpt lat="43.99892" lon="5.90931">
        <ele>665</ele>
        <time>2020-10-05T12:55:15.000Z</time>
      </trkpt>
      <trkpt lat="43.99893" lon="5.90932">
        <ele>665</ele>
        <time>2020-10-05T12:55:16.000Z</time>
      </trkpt>
      <trkpt lat="43.99893" lon="5.90933">
        <ele>665</ele>
        <time>2020-10-05T12:55:17.000Z</time>
      </trkpt>
      <trkpt lat="43.99894" lon="5.90934">
        <ele>665</ele>
        <time>2020-10-05T12:55:18.000Z</time>
      </trkpt>
      <trkpt lat="43.99894" lon="5.90935">
        <ele>665</ele>
        <time>2020-10-05T12:55:19.000Z</time>
      </trkpt>
      <trkpt lat="43.99895" lon="5.90936">
        <ele>665</ele>
        <time>2020-10-05T12:55:20.000Z</time>
      </trkpt>
      <trkpt lat="43.99896" lon="5.90938">
        <ele>666</ele>
        <time>2020-10-05T12:55:21.000Z</time>
      </trkpt>
      <trkpt lat="43.99896" lon="5.90939">
        <ele>666</ele>
        <time>2020-10-05T12:55:22.000Z</time>
      </trkpt>
      <trkpt lat="43.99897" lon="5.9094">
        <ele>666</ele>
        <time>2020-10-05T12:55:23.000Z</time>
      </trkpt>
      <trkpt lat="43.99897" lon="5.90941">
        <ele>666</ele>
        <time>2020-10-05T12:55:24.000Z</time>
      </trkpt>
      <trkpt lat="43.99898" lon="5.90943">
        <ele>666</ele>
        <time>2020-10-05T12:55:25.000Z</time>
      </trkpt>
      <trkpt lat="43.99899" lon="5.90944">
        <ele>666</ele>
        <time>2020-10-05T12:55:26.000Z</time>
      </trkpt>
      <trkpt lat="43.99899" lon="5.90945">
        <ele>666</ele>
        <time>2020-10-05T12:55:27.000Z</time>
      </trkpt>
      <trkpt lat="43.999" lon="5.90947">
        <ele>666</ele>
        <time>2020-10-05T12:55:28.000Z</time>
      </trkpt>
      <trkpt lat="43.99901" lon="5.90948">
        <ele>666</ele>
        <time>2020-10-05T12:55:29.000Z</time>
      </trkpt>
      <trkpt lat="43.99901" lon="5.90949">
        <ele>666</ele>
        <time>2020-10-05T12:55:30.000Z</time>
      </trkpt>
      <trkpt lat="43.99902" lon="5.9095">
        <ele>666</ele>
        <time>2020-10-05T12:55:31.000Z</time>
      </trkpt>
      <trkpt lat="43.99902" lon="5.90952">
        <ele>666</ele>
        <time>2020-10-05T12:55:32.000Z</time>
      </trkpt>
      <trkpt lat="43.99903" lon="5.90953">
        <ele>666</ele>
        <time>2020-10-05T12:55:33.000Z</time>
      </trkpt>
      <trkpt lat="43.99903" lon="5.90953">
        <ele>666</ele>
        <time>2020-10-05T12:55:34.000Z</time>
      </trkpt>
      <trkpt lat="43.99904" lon="5.90954">
        <ele>666</ele>
        <time>2020-10-05T12:55:35.000Z</time>
      </trkpt>
      <trkpt lat="43.99904" lon="5.90955">
        <ele>666</ele>
        <time>2020-10-05T12:55:36.000Z</time>
      </trkpt>
      <trkpt lat="43.99905" lon="5.90956">
        <ele>667</ele>
        <time>2020-10-05T12:55:37.000Z</time>
      </trkpt>
      <trkpt lat="43.99905" lon="5.90957">
        <ele>667</ele>
        <time>2020-10-05T12:55:38.000Z</time>
      </trkpt>
      <trkpt lat="43.99906" lon="5.90958">
        <ele>667</ele>
        <time>2020-10-05T12:55:39.000Z</time>
      </trkpt>
      <trkpt lat="43.99906" lon="5.9096">
        <ele>666</ele>
        <time>2020-10-05T12:55:40.000Z</time>
      </trkpt>
      <trkpt lat="43.99907" lon="5.90961">
        <ele>666</ele>
        <time>2020-10-05T12:55:41.000Z</time>
      </trkpt>
      <trkpt lat="43.99907" lon="5.90962">
        <ele>666</ele>
        <time>2020-10-05T12:55:42.000Z</time>
      </trkpt>
      <trkpt lat="43.99908" lon="5.90964">
        <ele>666</ele>
        <time>2020-10-05T12:55:43.000Z</time>
      </trkpt>
      <trkpt lat="43.99909" lon="5.90965">
        <ele>666</ele>
        <time>2020-10-05T12:55:44.000Z</time>
      </trkpt>
      <trkpt lat="43.9991" lon="5.90967">
        <ele>667</ele>
        <time>2020-10-05T12:55:45.000Z</time>
      </trkpt>
      <trkpt lat="43.9991" lon="5.90968">
        <ele>667</ele>
        <time>2020-10-05T12:55:46.000Z</time>
      </trkpt>
      <trkpt lat="43.99911" lon="5.9097">
        <ele>667</ele>
        <time>2020-10-05T12:55:47.000Z</time>
      </trkpt>
      <trkpt lat="43.99912" lon="5.90971">
        <ele>667</ele>
        <time>2020-10-05T12:55:48.000Z</time>
      </trkpt>
      <trkpt lat="43.99912" lon="5.90973">
        <ele>667</ele>
        <time>2020-10-05T12:55:49.000Z</time>
      </trkpt>
      <trkpt lat="43.99913" lon="5.90975">
        <ele>667</ele>
        <time>2020-10-05T12:55:50.000Z</time>
      </trkpt>
      <trkpt lat="43.99913" lon="5.90976">
        <ele>667</ele>
        <time>2020-10-05T12:55:51.000Z</time>
      </trkpt>
      <trkpt lat="43.99914" lon="5.90977">
        <ele>667</ele>
        <time>2020-10-05T12:55:52.000Z</time>
      </trkpt>
      <trkpt lat="43.99915" lon="5.90979">
        <ele>667</ele>
        <time>2020-10-05T12:55:53.000Z</time>
      </trkpt>
      <trkpt lat="43.99916" lon="5.9098">
        <ele>667</ele>
        <time>2020-10-05T12:55:54.000Z</time>
      </trkpt>
      <trkpt lat="43.99916" lon="5.90982">
        <ele>667</ele>
        <time>2020-10-05T12:55:55.000Z</time>
      </trkpt>
      <trkpt lat="43.99917" lon="5.90983">
        <ele>667</ele>
        <time>2020-10-05T12:55:56.000Z</time>
      </trkpt>
      <trkpt lat="43.99917" lon="5.90985">
        <ele>667</ele>
        <time>2020-10-05T12:55:57.000Z</time>
      </trkpt>
      <trkpt lat="43.99918" lon="5.90986">
        <ele>667</ele>
        <time>2020-10-05T12:55:58.000Z</time>
      </trkpt>
      <trkpt lat="43.99919" lon="5.90988">
        <ele>667</ele>
        <time>2020-10-05T12:55:59.000Z</time>
      </trkpt>
      <trkpt lat="43.99919" lon="5.9099">
        <ele>667</ele>
        <time>2020-10-05T12:56:00.000Z</time>
      </trkpt>
      <trkpt lat="43.9992" lon="5.90991">
        <ele>667</ele>
        <time>2020-10-05T12:56:01.000Z</time>
      </trkpt>
      <trkpt lat="43.9992" lon="5.90993">
        <ele>667</ele>
        <time>2020-10-05T12:56:02.000Z</time>
      </trkpt>
      <trkpt lat="43.99921" lon="5.90994">
        <ele>667</ele>
        <time>2020-10-05T12:56:03.000Z</time>
      </trkpt>
      <trkpt lat="43.99922" lon="5.90996">
        <ele>667</ele>
        <time>2020-10-05T12:56:04.000Z</time>
      </trkpt>
      <trkpt lat="43.99923" lon="5.90998">
        <ele>667</ele>
        <time>2020-10-05T12:56:05.000Z</time>
      </trkpt>
      <trkpt lat="43.99923" lon="5.91">
        <ele>667</ele>
        <time>2020-10-05T12:56:06.000Z</time>
      </trkpt>
      <trkpt lat="43.99924" lon="5.91001">
        <ele>667</ele>
        <time>2020-10-05T12:56:07.000Z</time>
      </trkpt>
      <trkpt lat="43.99924" lon="5.91003">
        <ele>667</ele>
        <time>2020-10-05T12:56:08.000Z</time>
      </trkpt>
      <trkpt lat="43.99925" lon="5.91004">
        <ele>667</ele>
        <time>2020-10-05T12:56:09.000Z</time>
      </trkpt>
      <trkpt lat="43.99925" lon="5.91006">
        <ele>666</ele>
        <time>2020-10-05T12:56:10.000Z</time>
      </trkpt>
      <trkpt lat="43.99926" lon="5.91008">
        <ele>666</ele>
        <time>2020-10-05T12:56:11.000Z</time>
      </trkpt>
      <trkpt lat="43.99926" lon="5.9101">
        <ele>666</ele>
        <time>2020-10-05T12:56:12.000Z</time>
      </trkpt>
      <trkpt lat="43.99927" lon="5.91012">
        <ele>666</ele>
        <time>2020-10-05T12:56:13.000Z</time>
      </trkpt>
      <trkpt lat="43.99928" lon="5.91014">
        <ele>666</ele>
        <time>2020-10-05T12:56:14.000Z</time>
      </trkpt>
      <trkpt lat="43.99928" lon="5.91015">
        <ele>666</ele>
        <time>2020-10-05T12:56:15.000Z</time>
      </trkpt>
      <trkpt lat="43.99929" lon="5.91016">
        <ele>666</ele>
        <time>2020-10-05T12:56:16.000Z</time>
      </trkpt>
      <trkpt lat="43.99929" lon="5.91017">
        <ele>666</ele>
        <time>2020-10-05T12:56:17.000Z</time>
      </trkpt>
      <trkpt lat="43.9993" lon="5.91019">
        <ele>666</ele>
        <time>2020-10-05T12:56:18.000Z</time>
      </trkpt>
      <trkpt lat="43.9993" lon="5.9102">
        <ele>666</ele>
        <time>2020-10-05T12:56:19.000Z</time>
      </trkpt>
      <trkpt lat="43.9993" lon="5.91021">
        <ele>666</ele>
        <time>2020-10-05T12:56:20.000Z</time>
      </trkpt>
      <trkpt lat="43.9993" lon="5.91023">
        <ele>666</ele>
        <time>2020-10-05T12:56:21.000Z</time>
      </trkpt>
      <trkpt lat="43.99931" lon="5.91024">
        <ele>666</ele>
        <time>2020-10-05T12:56:22.000Z</time>
      </trkpt>
      <trkpt lat="43.99931" lon="5.91025">
        <ele>666</ele>
        <time>2020-10-05T12:56:23.000Z</time>
      </trkpt>
      <trkpt lat="43.99931" lon="5.91026">
        <ele>665</ele>
        <time>2020-10-05T12:56:24.000Z</time>
      </trkpt>
      <trkpt lat="43.99932" lon="5.91027">
        <ele>665</ele>
        <time>2020-10-05T12:56:25.000Z</time>
      </trkpt>
      <trkpt lat="43.99932" lon="5.91028">
        <ele>665</ele>
        <time>2020-10-05T12:56:26.000Z</time>
      </trkpt>
      <trkpt lat="43.99932" lon="5.91028">
        <ele>665</ele>
        <time>2020-10-05T12:56:27.000Z</time>
      </trkpt>
      <trkpt lat="43.99932" lon="5.91028">
        <ele>665</ele>
        <time>2020-10-05T12:56:28.000Z</time>
      </trkpt>
      <trkpt lat="43.99932" lon="5.91029">
        <ele>665</ele>
        <time>2020-10-05T12:56:29.000Z</time>
      </trkpt>
      <trkpt lat="43.99932" lon="5.91029">
        <ele>665</ele>
        <time>2020-10-05T12:56:30.000Z</time>
      </trkpt>
      <trkpt lat="43.99932" lon="5.91029">
        <ele>665</ele>
        <time>2020-10-05T12:56:31.000Z</time>
      </trkpt>
      <trkpt lat="43.99932" lon="5.91029">
        <ele>665</ele>
        <time>2020-10-05T12:56:32.000Z</time>
      </trkpt>
      <trkpt lat="43.99932" lon="5.91029">
        <ele>664</ele>
        <time>2020-10-05T12:56:33.000Z</time>
      </trkpt>
      <trkpt lat="43.99932" lon="5.91029">
        <ele>664</ele>
        <time>2020-10-05T12:56:34.000Z</time>
      </trkpt>
      <trkpt lat="43.99932" lon="5.91029">
        <ele>664</ele>
        <time>2020-10-05T12:56:35.000Z</time>
      </trkpt>
      <trkpt lat="43.99932" lon="5.91029">
        <ele>664</ele>
        <time>2020-10-05T12:56:36.000Z</time>
      </trkpt>
      <trkpt lat="43.99932" lon="5.91029">
        <ele>664</ele>
        <time>2020-10-05T12:56:37.000Z</time>
      </trkpt>
      <trkpt lat="43.99932" lon="5.91029">
        <ele>664</ele>
        <time>2020-10-05T12:56:38.000Z</time>
      </trkpt>
      <trkpt lat="43.99932" lon="5.91029">
        <ele>664</ele>
        <time>2020-10-05T12:56:39.000Z</time>
      </trkpt>
      <trkpt lat="43.99932" lon="5.9103">
        <ele>664</ele>
        <time>2020-10-05T12:56:40.000Z</time>
      </trkpt>
      <trkpt lat="43.99932" lon="5.9103">
        <ele>664</ele>
        <time>2020-10-05T12:56:41.000Z</time>
      </trkpt>
      <trkpt lat="43.99932" lon="5.9103">
        <ele>664</ele>
        <time>2020-10-05T12:56:42.000Z</time>
      </trkpt>
      <trkpt lat="43.99932" lon="5.9103">
        <ele>664</ele>
        <time>2020-10-05T12:56:43.000Z</time>
      </trkpt>
      <trkpt lat="43.99932" lon="5.9103">
        <ele>664</ele>
        <time>2020-10-05T12:56:44.000Z</time>
      </trkpt>
      <trkpt lat="43.99933" lon="5.9103">
        <ele>663</ele>
        <time>2020-10-05T12:56:45.000Z</time>
      </trkpt>
      <trkpt lat="43.99933" lon="5.9103">
        <ele>663</ele>
        <time>2020-10-05T12:56:46.000Z</time>
      </trkpt>
      <trkpt lat="43.99933" lon="5.9103">
        <ele>663</ele>
        <time>2020-10-05T12:56:47.000Z</time>
      </trkpt>
      <trkpt lat="43.99933" lon="5.9103">
        <ele>663</ele>
        <time>2020-10-05T12:56:48.000Z</time>
      </trkpt>
      <trkpt lat="43.99933" lon="5.9103">
        <ele>663</ele>
        <time>2020-10-05T12:56:49.000Z</time>
      </trkpt>
      <trkpt lat="43.99933" lon="5.9103">
        <ele>663</ele>
        <time>2020-10-05T12:56:50.000Z</time>
      </trkpt>
      <trkpt lat="43.99933" lon="5.9103">
        <ele>663</ele>
        <time>2020-10-05T12:56:51.000Z</time>
      </trkpt>
      <trkpt lat="43.99933" lon="5.9103">
        <ele>663</ele>
        <time>2020-10-05T12:56:52.000Z</time>
      </trkpt>
      <trkpt lat="43.99933" lon="5.9103">
        <ele>663</ele>
        <time>2020-10-05T12:56:53.000Z</time>
      </trkpt>
      <trkpt lat="43.99933" lon="5.9103">
        <ele>663</ele>
        <time>2020-10-05T12:56:54.000Z</time>
      </trkpt>
      <trkpt lat="43.99933" lon="5.9103">
        <ele>663</ele>
        <time>2020-10-05T12:56:55.000Z</time>
      </trkpt>
      <trkpt lat="43.99933" lon="5.9103">
        <ele>662</ele>
        <time>2020-10-05T12:56:56.000Z</time>
      </trkpt>
      <trkpt lat="43.99933" lon="5.9103">
        <ele>662</ele>
        <time>2020-10-05T12:56:57.000Z</time>
      </trkpt>
      <trkpt lat="43.99933" lon="5.9103">
        <ele>662</ele>
        <time>2020-10-05T12:56:58.000Z</time>
      </trkpt>
      <trkpt lat="43.99933" lon="5.9103">
        <ele>662</ele>
        <time>2020-10-05T12:56:59.000Z</time>
      </trkpt>
      <trkpt lat="43.99933" lon="5.9103">
        <ele>662</ele>
        <time>2020-10-05T12:57:00.000Z</time>
      </trkpt>
      <trkpt lat="43.99933" lon="5.9103">
        <ele>662</ele>
        <time>2020-10-05T12:57:01.000Z</time>
      </trkpt>
      <trkpt lat="43.99933" lon="5.9103">
        <ele>662</ele>
        <time>2020-10-05T12:57:02.000Z</time>
      </trkpt>
      <trkpt lat="43.99933" lon="5.9103">
        <ele>662</ele>
        <time>2020-10-05T12:57:03.000Z</time>
      </trkpt>
      <trkpt lat="43.99933" lon="5.9103">
        <ele>662</ele>
        <time>2020-10-05T12:57:04.000Z</time>
      </trkpt>
      <trkpt lat="43.99933" lon="5.9103">
        <ele>662</ele>
        <time>2020-10-05T12:57:05.000Z</time>
      </trkpt>
      <trkpt lat="43.99933" lon="5.9103">
        <ele>662</ele>
        <time>2020-10-05T12:57:06.000Z</time>
      </trkpt>
      <trkpt lat="43.99933" lon="5.91029">
        <ele>662</ele>
        <time>2020-10-05T12:57:07.000Z</time>
      </trkpt>
      <trkpt lat="43.99933" lon="5.91029">
        <ele>662</ele>
        <time>2020-10-05T12:57:08.000Z</time>
      </trkpt>
      <trkpt lat="43.99933" lon="5.91029">
        <ele>662</ele>
        <time>2020-10-05T12:57:09.000Z</time>
      </trkpt>
      <trkpt lat="43.99933" lon="5.91029">
        <ele>662</ele>
        <time>2020-10-05T12:57:10.000Z</time>
      </trkpt>
      <trkpt lat="43.99933" lon="5.91029">
        <ele>662</ele>
        <time>2020-10-05T12:57:11.000Z</time>
      </trkpt>
      <trkpt lat="43.99933" lon="5.91029">
        <ele>662</ele>
        <time>2020-10-05T12:57:12.000Z</time>
      </trkpt>
      <trkpt lat="43.99933" lon="5.91029">
        <ele>662</ele>
        <time>2020-10-05T12:57:13.000Z</time>
      </trkpt>
      <trkpt lat="43.99933" lon="5.91029">
        <ele>662</ele>
        <time>2020-10-05T12:57:14.000Z</time>
      </trkpt>
      <trkpt lat="43.99933" lon="5.91029">
        <ele>662</ele>
        <time>2020-10-05T12:57:15.000Z</time>
      </trkpt>
      <trkpt lat="43.99933" lon="5.91029">
        <ele>662</ele>
        <time>2020-10-05T12:57:16.000Z</time>
      </trkpt>
      <trkpt lat="43.99933" lon="5.91028">
        <ele>662</ele>
        <time>2020-10-05T12:57:17.000Z</time>
      </trkpt>
      <trkpt lat="43.99933" lon="5.91028">
        <ele>662</ele>
        <time>2020-10-05T12:57:18.000Z</time>
      </trkpt>
      <trkpt lat="43.99933" lon="5.91028">
        <ele>662</ele>
        <time>2020-10-05T12:57:19.000Z</time>
      </trkpt>
      <trkpt lat="43.99933" lon="5.91028">
        <ele>662</ele>
        <time>2020-10-05T12:57:20.000Z</time>
      </trkpt>
      <trkpt lat="43.99933" lon="5.91028">
        <ele>662</ele>
        <time>2020-10-05T12:57:21.000Z</time>
      </trkpt>
      <trkpt lat="43.99933" lon="5.91028">
        <ele>662</ele>
        <time>2020-10-05T12:57:22.000Z</time>
      </trkpt>
      <trkpt lat="43.99933" lon="5.91028">
        <ele>663</ele>
        <time>2020-10-05T12:57:23.000Z</time>
      </trkpt>
      <trkpt lat="43.99933" lon="5.91028">
        <ele>663</ele>
        <time>2020-10-05T12:57:24.000Z</time>
      </trkpt>
      <trkpt lat="43.99933" lon="5.91028">
        <ele>663</ele>
        <time>2020-10-05T12:57:25.000Z</time>
      </trkpt>
      <trkpt lat="43.99933" lon="5.91027">
        <ele>663</ele>
        <time>2020-10-05T12:57:26.000Z</time>
      </trkpt>
      <trkpt lat="43.99933" lon="5.91027">
        <ele>663</ele>
        <time>2020-10-05T12:57:27.000Z</time>
      </trkpt>
      <trkpt lat="43.99933" lon="5.91027">
        <ele>663</ele>
        <time>2020-10-05T12:57:28.000Z</time>
      </trkpt>
      <trkpt lat="43.99933" lon="5.91027">
        <ele>663</ele>
        <time>2020-10-05T12:57:29.000Z</time>
      </trkpt>
      <trkpt lat="43.99933" lon="5.91027">
        <ele>663</ele>
        <time>2020-10-05T12:57:30.000Z</time>
      </trkpt>
      <trkpt lat="43.99933" lon="5.91027">
        <ele>663</ele>
        <time>2020-10-05T12:57:31.000Z</time>
      </trkpt>
      <trkpt lat="43.99933" lon="5.91027">
        <ele>663</ele>
        <time>2020-10-05T12:57:32.000Z</time>
      </trkpt>
      <trkpt lat="43.99933" lon="5.91027">
        <ele>664</ele>
        <time>2020-10-05T12:57:33.000Z</time>
      </trkpt>
      <trkpt lat="43.99932" lon="5.91026">
        <ele>664</ele>
        <time>2020-10-05T12:57:34.000Z</time>
      </trkpt>
      <trkpt lat="43.99932" lon="5.91026">
        <ele>664</ele>
        <time>2020-10-05T12:57:35.000Z</time>
      </trkpt>
      <trkpt lat="43.99932" lon="5.91026">
        <ele>664</ele>
        <time>2020-10-05T12:57:36.000Z</time>
      </trkpt>
      <trkpt lat="43.99932" lon="5.91026">
        <ele>664</ele>
        <time>2020-10-05T12:57:37.000Z</time>
      </trkpt>
      <trkpt lat="43.99932" lon="5.91026">
        <ele>664</ele>
        <time>2020-10-05T12:57:38.000Z</time>
      </trkpt>
      <trkpt lat="43.99932" lon="5.91026">
        <ele>664</ele>
        <time>2020-10-05T12:57:39.000Z</time>
      </trkpt>
      <trkpt lat="43.99932" lon="5.91025">
        <ele>665</ele>
        <time>2020-10-05T12:57:40.000Z</time>
      </trkpt>
      <trkpt lat="43.99932" lon="5.91025">
        <ele>665</ele>
        <time>2020-10-05T12:57:41.000Z</time>
      </trkpt>
      <trkpt lat="43.99932" lon="5.91025">
        <ele>665</ele>
        <time>2020-10-05T12:57:42.000Z</time>
      </trkpt>
      <trkpt lat="43.99932" lon="5.91025">
        <ele>665</ele>
        <time>2020-10-05T12:57:43.000Z</time>
      </trkpt>
      <trkpt lat="43.99932" lon="5.91024">
        <ele>666</ele>
        <time>2020-10-05T12:57:44.000Z</time>
      </trkpt>
      <trkpt lat="43.99932" lon="5.91023">
        <ele>666</ele>
        <time>2020-10-05T12:57:45.000Z</time>
      </trkpt>
      <trkpt lat="43.99932" lon="5.91023">
        <ele>666</ele>
        <time>2020-10-05T12:57:46.000Z</time>
      </trkpt>
      <trkpt lat="43.99932" lon="5.91023">
        <ele>667</ele>
        <time>2020-10-05T12:57:47.000Z</time>
      </trkpt>
      <trkpt lat="43.99932" lon="5.91022">
        <ele>667</ele>
        <time>2020-10-05T12:57:48.000Z</time>
      </trkpt>
      <trkpt lat="43.99932" lon="5.91022">
        <ele>667</ele>
        <time>2020-10-05T12:57:49.000Z</time>
      </trkpt>
      <trkpt lat="43.99932" lon="5.91022">
        <ele>667</ele>
        <time>2020-10-05T12:57:50.000Z</time>
      </trkpt>
      <trkpt lat="43.99932" lon="5.91022">
        <ele>668</ele>
        <time>2020-10-05T12:57:51.000Z</time>
      </trkpt>
      <trkpt lat="43.99932" lon="5.91022">
        <ele>668</ele>
        <time>2020-10-05T12:57:52.000Z</time>
      </trkpt>
      <trkpt lat="43.99932" lon="5.91021">
        <ele>668</ele>
        <time>2020-10-05T12:57:53.000Z</time>
      </trkpt>
      <trkpt lat="43.99932" lon="5.91021">
        <ele>668</ele>
        <time>2020-10-05T12:57:54.000Z</time>
      </trkpt>
      <trkpt lat="43.99932" lon="5.91021">
        <ele>668</ele>
        <time>2020-10-05T12:57:55.000Z</time>
      </trkpt>
      <trkpt lat="43.99931" lon="5.91021">
        <ele>668</ele>
        <time>2020-10-05T12:57:56.000Z</time>
      </trkpt>
      <trkpt lat="43.99931" lon="5.91021">
        <ele>668</ele>
        <time>2020-10-05T12:57:57.000Z</time>
      </trkpt>
      <trkpt lat="43.99931" lon="5.91021">
        <ele>669</ele>
        <time>2020-10-05T12:57:58.000Z</time>
      </trkpt>
      <trkpt lat="43.99931" lon="5.91021">
        <ele>669</ele>
        <time>2020-10-05T12:57:59.000Z</time>
      </trkpt>
      <trkpt lat="43.99931" lon="5.91021">
        <ele>669</ele>
        <time>2020-10-05T12:58:00.000Z</time>
      </trkpt>
      <trkpt lat="43.99931" lon="5.91021">
        <ele>669</ele>
        <time>2020-10-05T12:58:01.000Z</time>
      </trkpt>
      <trkpt lat="43.99931" lon="5.91021">
        <ele>669</ele>
        <time>2020-10-05T12:58:02.000Z</time>
      </trkpt>
      <trkpt lat="43.99931" lon="5.91021">
        <ele>669</ele>
        <time>2020-10-05T12:58:03.000Z</time>
      </trkpt>
      <trkpt lat="43.99931" lon="5.91021">
        <ele>669</ele>
        <time>2020-10-05T12:58:04.000Z</time>
      </trkpt>
      <trkpt lat="43.99931" lon="5.9102">
        <ele>669</ele>
        <time>2020-10-05T12:58:05.000Z</time>
      </trkpt>
      <trkpt lat="43.99931" lon="5.9102">
        <ele>669</ele>
        <time>2020-10-05T12:58:06.000Z</time>
      </trkpt>
      <trkpt lat="43.99931" lon="5.9102">
        <ele>669</ele>
        <time>2020-10-05T12:58:07.000Z</time>
      </trkpt>
      <trkpt lat="43.99931" lon="5.9102">
        <ele>669</ele>
        <time>2020-10-05T12:58:08.000Z</time>
      </trkpt>
      <trkpt lat="43.99931" lon="5.9102">
        <ele>669</ele>
        <time>2020-10-05T12:58:09.000Z</time>
      </trkpt>
      <trkpt lat="43.99931" lon="5.9102">
        <ele>669</ele>
        <time>2020-10-05T12:58:10.000Z</time>
      </trkpt>
      <trkpt lat="43.99932" lon="5.9102">
        <ele>669</ele>
        <time>2020-10-05T12:58:11.000Z</time>
      </trkpt>
      <trkpt lat="43.99932" lon="5.9102">
        <ele>669</ele>
        <time>2020-10-05T12:58:12.000Z</time>
      </trkpt>
      <trkpt lat="43.99932" lon="5.9102">
        <ele>669</ele>
        <time>2020-10-05T12:58:13.000Z</time>
      </trkpt>
      <trkpt lat="43.99932" lon="5.9102">
        <ele>669</ele>
        <time>2020-10-05T12:58:14.000Z</time>
      </trkpt>
      <trkpt lat="43.99932" lon="5.9102">
        <ele>669</ele>
        <time>2020-10-05T12:58:15.000Z</time>
      </trkpt>
      <trkpt lat="43.99932" lon="5.9102">
        <ele>670</ele>
        <time>2020-10-05T12:58:16.000Z</time>
      </trkpt>
      <trkpt lat="43.99932" lon="5.9102">
        <ele>670</ele>
        <time>2020-10-05T12:58:17.000Z</time>
      </trkpt>
      <trkpt lat="43.99932" lon="5.9102">
        <ele>670</ele>
        <time>2020-10-05T12:58:18.000Z</time>
      </trkpt>
      <trkpt lat="43.99932" lon="5.9102">
        <ele>670</ele>
        <time>2020-10-05T12:58:19.000Z</time>
      </trkpt>
      <trkpt lat="43.99932" lon="5.9102">
        <ele>670</ele>
        <time>2020-10-05T12:58:20.000Z</time>
      </trkpt>
      <trkpt lat="43.99932" lon="5.9102">
        <ele>670</ele>
        <time>2020-10-05T12:58:21.000Z</time>
      </trkpt>
      <trkpt lat="43.99932" lon="5.9102">
        <ele>670</ele>
        <time>2020-10-05T12:58:22.000Z</time>
      </trkpt>
      <trkpt lat="43.99932" lon="5.9102">
        <ele>670</ele>
        <time>2020-10-05T12:58:23.000Z</time>
      </trkpt>
      <trkpt lat="43.99932" lon="5.9102">
        <ele>670</ele>
        <time>2020-10-05T12:58:24.000Z</time>
      </trkpt>
      <trkpt lat="43.99932" lon="5.9102">
        <ele>670</ele>
        <time>2020-10-05T12:58:25.000Z</time>
      </trkpt>
      <trkpt lat="43.99932" lon="5.9102">
        <ele>670</ele>
        <time>2020-10-05T12:58:26.000Z</time>
      </trkpt>
      <trkpt lat="43.99931" lon="5.9102">
        <ele>670</ele>
        <time>2020-10-05T12:58:27.000Z</time>
      </trkpt>
      <trkpt lat="43.99931" lon="5.9102">
        <ele>670</ele>
        <time>2020-10-05T12:58:28.000Z</time>
      </trkpt>
      <trkpt lat="43.99931" lon="5.9102">
        <ele>670</ele>
        <time>2020-10-05T12:58:29.000Z</time>
      </trkpt>
      <trkpt lat="43.99931" lon="5.9102">
        <ele>670</ele>
        <time>2020-10-05T12:58:30.000Z</time>
      </trkpt>
      <trkpt lat="43.99931" lon="5.9102">
        <ele>670</ele>
        <time>2020-10-05T12:58:31.000Z</time>
      </trkpt>
      <trkpt lat="43.99931" lon="5.9102">
        <ele>670</ele>
        <time>2020-10-05T12:58:32.000Z</time>
      </trkpt>
      <trkpt lat="43.99931" lon="5.9102">
        <ele>670</ele>
        <time>2020-10-05T12:58:33.000Z</time>
      </trkpt>
      <trkpt lat="43.99931" lon="5.9102">
        <ele>670</ele>
        <time>2020-10-05T12:58:34.000Z</time>
      </trkpt>
      <trkpt lat="43.99931" lon="5.9102">
        <ele>670</ele>
        <time>2020-10-05T12:58:35.000Z</time>
      </trkpt>
      <trkpt lat="43.99931" lon="5.9102">
        <ele>670</ele>
        <time>2020-10-05T12:58:36.000Z</time>
      </trkpt>
      <trkpt lat="43.99931" lon="5.9102">
        <ele>670</ele>
        <time>2020-10-05T12:58:37.000Z</time>
      </trkpt>
      <trkpt lat="43.99931" lon="5.9102">
        <ele>670</ele>
        <time>2020-10-05T12:58:38.000Z</time>
      </trkpt>
      <trkpt lat="43.99931" lon="5.9102">
        <ele>670</ele>
        <time>2020-10-05T12:58:39.000Z</time>
      </trkpt>
      <trkpt lat="43.99931" lon="5.9102">
        <ele>670</ele>
        <time>2020-10-05T12:58:40.000Z</time>
      </trkpt>
      <trkpt lat="43.99931" lon="5.9102">
        <ele>670</ele>
        <time>2020-10-05T12:58:41.000Z</time>
      </trkpt>
      <trkpt lat="43.99931" lon="5.9102">
        <ele>670</ele>
        <time>2020-10-05T12:58:42.000Z</time>
      </trkpt>
      <trkpt lat="43.99931" lon="5.9102">
        <ele>670</ele>
        <time>2020-10-05T12:58:43.000Z</time>
      </trkpt>
      <trkpt lat="43.99931" lon="5.9102">
        <ele>670</ele>
        <time>2020-10-05T12:58:44.000Z</time>
      </trkpt>
      <trkpt lat="43.99931" lon="5.9102">
        <ele>670</ele>
        <time>2020-10-05T12:58:45.000Z</time>
      </trkpt>
      <trkpt lat="43.99931" lon="5.9102">
        <ele>670</ele>
        <time>2020-10-05T12:58:46.000Z</time>
      </trkpt>
      <trkpt lat="43.99931" lon="5.9102">
        <ele>670</ele>
        <time>2020-10-05T12:58:47.000Z</time>
      </trkpt>
      <trkpt lat="43.99931" lon="5.9102">
        <ele>670</ele>
        <time>2020-10-05T12:58:48.000Z</time>
      </trkpt>
      <trkpt lat="43.99931" lon="5.9102">
        <ele>670</ele>
        <time>2020-10-05T12:58:49.000Z</time>
      </trkpt>
      <trkpt lat="43.99931" lon="5.9102">
        <ele>669</ele>
        <time>2020-10-05T12:58:50.000Z</time>
      </trkpt>
      <trkpt lat="43.99931" lon="5.9102">
        <ele>669</ele>
        <time>2020-10-05T12:58:51.000Z</time>
      </trkpt>
      <trkpt lat="43.99931" lon="5.9102">
        <ele>669</ele>
        <time>2020-10-05T12:58:52.000Z</time>
      </trkpt>
      <trkpt lat="43.99931" lon="5.9102">
        <ele>669</ele>
        <time>2020-10-05T12:58:53.000Z</time>
      </trkpt>
      <trkpt lat="43.99931" lon="5.9102">
        <ele>669</ele>
        <time>2020-10-05T12:58:54.000Z</time>
      </trkpt>
      <trkpt lat="43.99931" lon="5.9102">
        <ele>669</ele>
        <time>2020-10-05T12:58:55.000Z</time>
      </trkpt>
      <trkpt lat="43.99931" lon="5.9102">
        <ele>669</ele>
        <time>2020-10-05T12:58:56.000Z</time>
      </trkpt>
      <trkpt lat="43.99931" lon="5.9102">
        <ele>669</ele>
        <time>2020-10-05T12:58:57.000Z</time>
      </trkpt>
      <trkpt lat="43.99931" lon="5.9102">
        <ele>669</ele>
        <time>2020-10-05T12:58:58.000Z</time>
      </trkpt>
      <trkpt lat="43.9993" lon="5.9102">
        <ele>669</ele>
        <time>2020-10-05T12:58:59.000Z</time>
      </trkpt>
      <trkpt lat="43.9993" lon="5.9102">
        <ele>669</ele>
        <time>2020-10-05T12:59:00.000Z</time>
      </trkpt>
      <trkpt lat="43.99929" lon="5.9102">
        <ele>669</ele>
        <time>2020-10-05T12:59:01.000Z</time>
      </trkpt>
      <trkpt lat="43.99929" lon="5.91019">
        <ele>669</ele>
        <time>2020-10-05T12:59:02.000Z</time>
      </trkpt>
      <trkpt lat="43.99929" lon="5.91018">
        <ele>669</ele>
        <time>2020-10-05T12:59:03.000Z</time>
      </trkpt>
      <trkpt lat="43.99929" lon="5.91018">
        <ele>669</ele>
        <time>2020-10-05T12:59:04.000Z</time>
      </trkpt>
      <trkpt lat="43.99929" lon="5.91018">
        <ele>669</ele>
        <time>2020-10-05T12:59:05.000Z</time>
      </trkpt>
      <trkpt lat="43.99929" lon="5.91018">
        <ele>669</ele>
        <time>2020-10-05T12:59:06.000Z</time>
      </trkpt>
      <trkpt lat="43.99929" lon="5.91017">
        <ele>669</ele>
        <time>2020-10-05T12:59:07.000Z</time>
      </trkpt>
      <trkpt lat="43.99929" lon="5.91017">
        <ele>669</ele>
        <time>2020-10-05T12:59:08.000Z</time>
      </trkpt>
      <trkpt lat="43.99929" lon="5.91016">
        <ele>669</ele>
        <time>2020-10-05T12:59:09.000Z</time>
      </trkpt>
      <trkpt lat="43.99928" lon="5.91015">
        <ele>669</ele>
        <time>2020-10-05T12:59:10.000Z</time>
      </trkpt>
      <trkpt lat="43.99928" lon="5.91015">
        <ele>669</ele>
        <time>2020-10-05T12:59:11.000Z</time>
      </trkpt>
      <trkpt lat="43.99928" lon="5.91014">
        <ele>669</ele>
        <time>2020-10-05T12:59:12.000Z</time>
      </trkpt>
      <trkpt lat="43.99927" lon="5.91013">
        <ele>669</ele>
        <time>2020-10-05T12:59:13.000Z</time>
      </trkpt>
      <trkpt lat="43.99927" lon="5.91012">
        <ele>669</ele>
        <time>2020-10-05T12:59:14.000Z</time>
      </trkpt>
      <trkpt lat="43.99927" lon="5.91011">
        <ele>669</ele>
        <time>2020-10-05T12:59:15.000Z</time>
      </trkpt>
      <trkpt lat="43.99926" lon="5.9101">
        <ele>669</ele>
        <time>2020-10-05T12:59:16.000Z</time>
      </trkpt>
      <trkpt lat="43.99926" lon="5.91009">
        <ele>669</ele>
        <time>2020-10-05T12:59:17.000Z</time>
      </trkpt>
      <trkpt lat="43.99926" lon="5.91008">
        <ele>669</ele>
        <time>2020-10-05T12:59:18.000Z</time>
      </trkpt>
      <trkpt lat="43.99925" lon="5.91007">
        <ele>669</ele>
        <time>2020-10-05T12:59:19.000Z</time>
      </trkpt>
      <trkpt lat="43.99925" lon="5.91006">
        <ele>669</ele>
        <time>2020-10-05T12:59:20.000Z</time>
      </trkpt>
      <trkpt lat="43.99925" lon="5.91005">
        <ele>669</ele>
        <time>2020-10-05T12:59:21.000Z</time>
      </trkpt>
      <trkpt lat="43.99924" lon="5.91005">
        <ele>669</ele>
        <time>2020-10-05T12:59:22.000Z</time>
      </trkpt>
      <trkpt lat="43.99924" lon="5.91004">
        <ele>669</ele>
        <time>2020-10-05T12:59:23.000Z</time>
      </trkpt>
      <trkpt lat="43.99924" lon="5.91003">
        <ele>669</ele>
        <time>2020-10-05T12:59:24.000Z</time>
      </trkpt>
      <trkpt lat="43.99924" lon="5.91003">
        <ele>669</ele>
        <time>2020-10-05T12:59:25.000Z</time>
      </trkpt>
      <trkpt lat="43.99923" lon="5.91003">
        <ele>669</ele>
        <time>2020-10-05T12:59:26.000Z</time>
      </trkpt>
      <trkpt lat="43.99923" lon="5.91002">
        <ele>669</ele>
        <time>2020-10-05T12:59:27.000Z</time>
      </trkpt>
      <trkpt lat="43.99923" lon="5.91002">
        <ele>669</ele>
        <time>2020-10-05T12:59:28.000Z</time>
      </trkpt>
      <trkpt lat="43.99923" lon="5.91002">
        <ele>668</ele>
        <time>2020-10-05T12:59:29.000Z</time>
      </trkpt>
      <trkpt lat="43.99922" lon="5.91002">
        <ele>668</ele>
        <time>2020-10-05T12:59:30.000Z</time>
      </trkpt>
      <trkpt lat="43.99922" lon="5.91002">
        <ele>668</ele>
        <time>2020-10-05T12:59:31.000Z</time>
      </trkpt>
      <trkpt lat="43.99922" lon="5.91002">
        <ele>668</ele>
        <time>2020-10-05T12:59:32.000Z</time>
      </trkpt>
      <trkpt lat="43.99922" lon="5.91002">
        <ele>668</ele>
        <time>2020-10-05T12:59:33.000Z</time>
      </trkpt>
      <trkpt lat="43.99922" lon="5.91002">
        <ele>668</ele>
        <time>2020-10-05T12:59:34.000Z</time>
      </trkpt>
      <trkpt lat="43.99922" lon="5.91003">
        <ele>668</ele>
        <time>2020-10-05T12:59:35.000Z</time>
      </trkpt>
      <trkpt lat="43.99923" lon="5.91003">
        <ele>668</ele>
        <time>2020-10-05T12:59:36.000Z</time>
      </trkpt>
      <trkpt lat="43.99923" lon="5.91003">
        <ele>668</ele>
        <time>2020-10-05T12:59:37.000Z</time>
      </trkpt>
      <trkpt lat="43.99923" lon="5.91003">
        <ele>668</ele>
        <time>2020-10-05T12:59:38.000Z</time>
      </trkpt>
      <trkpt lat="43.99923" lon="5.91003">
        <ele>668</ele>
        <time>2020-10-05T12:59:39.000Z</time>
      </trkpt>
      <trkpt lat="43.99923" lon="5.91003">
        <ele>668</ele>
        <time>2020-10-05T12:59:40.000Z</time>
      </trkpt>
      <trkpt lat="43.99923" lon="5.91003">
        <ele>668</ele>
        <time>2020-10-05T12:59:41.000Z</time>
      </trkpt>
      <trkpt lat="43.99923" lon="5.91003">
        <ele>668</ele>
        <time>2020-10-05T12:59:42.000Z</time>
      </trkpt>
      <trkpt lat="43.99923" lon="5.91003">
        <ele>668</ele>
        <time>2020-10-05T12:59:43.000Z</time>
      </trkpt>
      <trkpt lat="43.99923" lon="5.91003">
        <ele>668</ele>
        <time>2020-10-05T12:59:44.000Z</time>
      </trkpt>
      <trkpt lat="43.99923" lon="5.91003">
        <ele>668</ele>
        <time>2020-10-05T12:59:45.000Z</time>
      </trkpt>
      <trkpt lat="43.99923" lon="5.91003">
        <ele>668</ele>
        <time>2020-10-05T12:59:46.000Z</time>
      </trkpt>
      <trkpt lat="43.99923" lon="5.91003">
        <ele>668</ele>
        <time>2020-10-05T12:59:47.000Z</time>
      </trkpt>
      <trkpt lat="43.99923" lon="5.91003">
        <ele>668</ele>
        <time>2020-10-05T12:59:48.000Z</time>
      </trkpt>
      <trkpt lat="43.99922" lon="5.91004">
        <ele>668</ele>
        <time>2020-10-05T12:59:49.000Z</time>
      </trkpt>
      <trkpt lat="43.99922" lon="5.91004">
        <ele>668</ele>
        <time>2020-10-05T12:59:50.000Z</time>
      </trkpt>
      <trkpt lat="43.99922" lon="5.91003">
        <ele>668</ele>
        <time>2020-10-05T12:59:51.000Z</time>
      </trkpt>
      <trkpt lat="43.99922" lon="5.91003">
        <ele>668</ele>
        <time>2020-10-05T12:59:52.000Z</time>
      </trkpt>
      <trkpt lat="43.99922" lon="5.91002">
        <ele>668</ele>
        <time>2020-10-05T12:59:53.000Z</time>
      </trkpt>
      <trkpt lat="43.99922" lon="5.91002">
        <ele>668</ele>
        <time>2020-10-05T12:59:54.000Z</time>
      </trkpt>
      <trkpt lat="43.99922" lon="5.91001">
        <ele>668</ele>
        <time>2020-10-05T12:59:55.000Z</time>
      </trkpt>
      <trkpt lat="43.99921" lon="5.91001">
        <ele>668</ele>
        <time>2020-10-05T12:59:56.000Z</time>
      </trkpt>
      <trkpt lat="43.99921" lon="5.91">
        <ele>668</ele>
        <time>2020-10-05T12:59:57.000Z</time>
      </trkpt>
      <trkpt lat="43.99921" lon="5.91">
        <ele>668</ele>
        <time>2020-10-05T12:59:58.000Z</time>
      </trkpt>
      <trkpt lat="43.9992" lon="5.90999">
        <ele>668</ele>
        <time>2020-10-05T12:59:59.000Z</time>
      </trkpt>
      <trkpt lat="43.9992" lon="5.90998">
        <ele>668</ele>
        <time>2020-10-05T13:00:00.000Z</time>
      </trkpt>
      <trkpt lat="43.9992" lon="5.90998">
        <ele>668</ele>
        <time>2020-10-05T13:00:01.000Z</time>
      </trkpt>
      <trkpt lat="43.99919" lon="5.90997">
        <ele>668</ele>
        <time>2020-10-05T13:00:02.000Z</time>
      </trkpt>
      <trkpt lat="43.99919" lon="5.90996">
        <ele>668</ele>
        <time>2020-10-05T13:00:03.000Z</time>
      </trkpt>
      <trkpt lat="43.99919" lon="5.90995">
        <ele>668</ele>
        <time>2020-10-05T13:00:04.000Z</time>
      </trkpt>
      <trkpt lat="43.99919" lon="5.90994">
        <ele>668</ele>
        <time>2020-10-05T13:00:05.000Z</time>
      </trkpt>
      <trkpt lat="43.99919" lon="5.90993">
        <ele>668</ele>
        <time>2020-10-05T13:00:06.000Z</time>
      </trkpt>
      <trkpt lat="43.99918" lon="5.90992">
        <ele>667</ele>
        <time>2020-10-05T13:00:07.000Z</time>
      </trkpt>
      <trkpt lat="43.99918" lon="5.90991">
        <ele>667</ele>
        <time>2020-10-05T13:00:08.000Z</time>
      </trkpt>
      <trkpt lat="43.99917" lon="5.9099">
        <ele>667</ele>
        <time>2020-10-05T13:00:09.000Z</time>
      </trkpt>
      <trkpt lat="43.99917" lon="5.90989">
        <ele>667</ele>
        <time>2020-10-05T13:00:10.000Z</time>
      </trkpt>
      <trkpt lat="43.99916" lon="5.90988">
        <ele>667</ele>
        <time>2020-10-05T13:00:11.000Z</time>
      </trkpt>
      <trkpt lat="43.99916" lon="5.90987">
        <ele>667</ele>
        <time>2020-10-05T13:00:12.000Z</time>
      </trkpt>
      <trkpt lat="43.99916" lon="5.90986">
        <ele>667</ele>
        <time>2020-10-05T13:00:13.000Z</time>
      </trkpt>
      <trkpt lat="43.99916" lon="5.90985">
        <ele>667</ele>
        <time>2020-10-05T13:00:14.000Z</time>
      </trkpt>
      <trkpt lat="43.99915" lon="5.90984">
        <ele>666</ele>
        <time>2020-10-05T13:00:15.000Z</time>
      </trkpt>
      <trkpt lat="43.99915" lon="5.90982">
        <ele>666</ele>
        <time>2020-10-05T13:00:16.000Z</time>
      </trkpt>
      <trkpt lat="43.99914" lon="5.90981">
        <ele>666</ele>
        <time>2020-10-05T13:00:17.000Z</time>
      </trkpt>
      <trkpt lat="43.99914" lon="5.9098">
        <ele>666</ele>
        <time>2020-10-05T13:00:18.000Z</time>
      </trkpt>
      <trkpt lat="43.99914" lon="5.90979">
        <ele>666</ele>
        <time>2020-10-05T13:00:19.000Z</time>
      </trkpt>
      <trkpt lat="43.99913" lon="5.90978">
        <ele>666</ele>
        <time>2020-10-05T13:00:20.000Z</time>
      </trkpt>
      <trkpt lat="43.99913" lon="5.90977">
        <ele>666</ele>
        <time>2020-10-05T13:00:21.000Z</time>
      </trkpt>
      <trkpt lat="43.99912" lon="5.90976">
        <ele>666</ele>
        <time>2020-10-05T13:00:22.000Z</time>
      </trkpt>
      <trkpt lat="43.99912" lon="5.90975">
        <ele>666</ele>
        <time>2020-10-05T13:00:23.000Z</time>
      </trkpt>
      <trkpt lat="43.99911" lon="5.90974">
        <ele>666</ele>
        <time>2020-10-05T13:00:24.000Z</time>
      </trkpt>
      <trkpt lat="43.99911" lon="5.90972">
        <ele>666</ele>
        <time>2020-10-05T13:00:25.000Z</time>
      </trkpt>
      <trkpt lat="43.99911" lon="5.90971">
        <ele>665</ele>
        <time>2020-10-05T13:00:26.000Z</time>
      </trkpt>
      <trkpt lat="43.9991" lon="5.9097">
        <ele>665</ele>
        <time>2020-10-05T13:00:27.000Z</time>
      </trkpt>
      <trkpt lat="43.9991" lon="5.90969">
        <ele>665</ele>
        <time>2020-10-05T13:00:28.000Z</time>
      </trkpt>
      <trkpt lat="43.99909" lon="5.90969">
        <ele>665</ele>
        <time>2020-10-05T13:00:29.000Z</time>
      </trkpt>
      <trkpt lat="43.99909" lon="5.90968">
        <ele>665</ele>
        <time>2020-10-05T13:00:30.000Z</time>
      </trkpt>
      <trkpt lat="43.99908" lon="5.90966">
        <ele>665</ele>
        <time>2020-10-05T13:00:31.000Z</time>
      </trkpt>
      <trkpt lat="43.99908" lon="5.90965">
        <ele>664</ele>
        <time>2020-10-05T13:00:32.000Z</time>
      </trkpt>
      <trkpt lat="43.99908" lon="5.90964">
        <ele>664</ele>
        <time>2020-10-05T13:00:33.000Z</time>
      </trkpt>
      <trkpt lat="43.99907" lon="5.90964">
        <ele>664</ele>
        <time>2020-10-05T13:00:34.000Z</time>
      </trkpt>
      <trkpt lat="43.99907" lon="5.90963">
        <ele>664</ele>
        <time>2020-10-05T13:00:35.000Z</time>
      </trkpt>
      <trkpt lat="43.99907" lon="5.90962">
        <ele>664</ele>
        <time>2020-10-05T13:00:36.000Z</time>
      </trkpt>
      <trkpt lat="43.99906" lon="5.90962">
        <ele>664</ele>
        <time>2020-10-05T13:00:37.000Z</time>
      </trkpt>
      <trkpt lat="43.99906" lon="5.90961">
        <ele>664</ele>
        <time>2020-10-05T13:00:38.000Z</time>
      </trkpt>
      <trkpt lat="43.99906" lon="5.90961">
        <ele>664</ele>
        <time>2020-10-05T13:00:39.000Z</time>
      </trkpt>
      <trkpt lat="43.99906" lon="5.9096">
        <ele>664</ele>
        <time>2020-10-05T13:00:40.000Z</time>
      </trkpt>
      <trkpt lat="43.99905" lon="5.9096">
        <ele>664</ele>
        <time>2020-10-05T13:00:41.000Z</time>
      </trkpt>
      <trkpt lat="43.99905" lon="5.90959">
        <ele>664</ele>
        <time>2020-10-05T13:00:42.000Z</time>
      </trkpt>
      <trkpt lat="43.99905" lon="5.90958">
        <ele>664</ele>
        <time>2020-10-05T13:00:43.000Z</time>
      </trkpt>
      <trkpt lat="43.99904" lon="5.90956">
        <ele>664</ele>
        <time>2020-10-05T13:00:44.000Z</time>
      </trkpt>
      <trkpt lat="43.99904" lon="5.90955">
        <ele>664</ele>
        <time>2020-10-05T13:00:45.000Z</time>
      </trkpt>
      <trkpt lat="43.99903" lon="5.90954">
        <ele>663</ele>
        <time>2020-10-05T13:00:46.000Z</time>
      </trkpt>
      <trkpt lat="43.99903" lon="5.90953">
        <ele>663</ele>
        <time>2020-10-05T13:00:47.000Z</time>
      </trkpt>
      <trkpt lat="43.99902" lon="5.90952">
        <ele>663</ele>
        <time>2020-10-05T13:00:48.000Z</time>
      </trkpt>
      <trkpt lat="43.99901" lon="5.90951">
        <ele>663</ele>
        <time>2020-10-05T13:00:49.000Z</time>
      </trkpt>
      <trkpt lat="43.99901" lon="5.90949">
        <ele>663</ele>
        <time>2020-10-05T13:00:50.000Z</time>
      </trkpt>
      <trkpt lat="43.99901" lon="5.90949">
        <ele>663</ele>
        <time>2020-10-05T13:00:51.000Z</time>
      </trkpt>
      <trkpt lat="43.99901" lon="5.90948">
        <ele>663</ele>
        <time>2020-10-05T13:00:52.000Z</time>
      </trkpt>
      <trkpt lat="43.99901" lon="5.90947">
        <ele>663</ele>
        <time>2020-10-05T13:00:53.000Z</time>
      </trkpt>
      <trkpt lat="43.99901" lon="5.90947">
        <ele>663</ele>
        <time>2020-10-05T13:00:54.000Z</time>
      </trkpt>
      <trkpt lat="43.99901" lon="5.90946">
        <ele>663</ele>
        <time>2020-10-05T13:00:55.000Z</time>
      </trkpt>
      <trkpt lat="43.999" lon="5.90945">
        <ele>663</ele>
        <time>2020-10-05T13:00:56.000Z</time>
      </trkpt>
      <trkpt lat="43.999" lon="5.90945">
        <ele>663</ele>
        <time>2020-10-05T13:00:57.000Z</time>
      </trkpt>
      <trkpt lat="43.99899" lon="5.90944">
        <ele>663</ele>
        <time>2020-10-05T13:00:58.000Z</time>
      </trkpt>
      <trkpt lat="43.99899" lon="5.90943">
        <ele>663</ele>
        <time>2020-10-05T13:00:59.000Z</time>
      </trkpt>
      <trkpt lat="43.99898" lon="5.90942">
        <ele>663</ele>
        <time>2020-10-05T13:01:00.000Z</time>
      </trkpt>
      <trkpt lat="43.99898" lon="5.90941">
        <ele>663</ele>
        <time>2020-10-05T13:01:01.000Z</time>
      </trkpt>
      <trkpt lat="43.99897" lon="5.9094">
        <ele>663</ele>
        <time>2020-10-05T13:01:02.000Z</time>
      </trkpt>
      <trkpt lat="43.99896" lon="5.90938">
        <ele>663</ele>
        <time>2020-10-05T13:01:03.000Z</time>
      </trkpt>
      <trkpt lat="43.99896" lon="5.90937">
        <ele>663</ele>
        <time>2020-10-05T13:01:04.000Z</time>
      </trkpt>
      <trkpt lat="43.99895" lon="5.90936">
        <ele>663</ele>
        <time>2020-10-05T13:01:05.000Z</time>
      </trkpt>
      <trkpt lat="43.99895" lon="5.90935">
        <ele>663</ele>
        <time>2020-10-05T13:01:06.000Z</time>
      </trkpt>
      <trkpt lat="43.99894" lon="5.90933">
        <ele>663</ele>
        <time>2020-10-05T13:01:07.000Z</time>
      </trkpt>
      <trkpt lat="43.99894" lon="5.90932">
        <ele>663</ele>
        <time>2020-10-05T13:01:08.000Z</time>
      </trkpt>
      <trkpt lat="43.99893" lon="5.90931">
        <ele>662</ele>
        <time>2020-10-05T13:01:09.000Z</time>
      </trkpt>
      <trkpt lat="43.99893" lon="5.9093">
        <ele>662</ele>
        <time>2020-10-05T13:01:10.000Z</time>
      </trkpt>
      <trkpt lat="43.99892" lon="5.90929">
        <ele>662</ele>
        <time>2020-10-05T13:01:11.000Z</time>
      </trkpt>
      <trkpt lat="43.99891" lon="5.90928">
        <ele>663</ele>
        <time>2020-10-05T13:01:12.000Z</time>
      </trkpt>
      <trkpt lat="43.99891" lon="5.90927">
        <ele>663</ele>
        <time>2020-10-05T13:01:13.000Z</time>
      </trkpt>
      <trkpt lat="43.9989" lon="5.90926">
        <ele>663</ele>
        <time>2020-10-05T13:01:14.000Z</time>
      </trkpt>
      <trkpt lat="43.9989" lon="5.90924">
        <ele>663</ele>
        <time>2020-10-05T13:01:15.000Z</time>
      </trkpt>
      <trkpt lat="43.99889" lon="5.90923">
        <ele>663</ele>
        <time>2020-10-05T13:01:16.000Z</time>
      </trkpt>
      <trkpt lat="43.99888" lon="5.90922">
        <ele>663</ele>
        <time>2020-10-05T13:01:17.000Z</time>
      </trkpt>
      <trkpt lat="43.99887" lon="5.9092">
        <ele>663</ele>
        <time>2020-10-05T13:01:18.000Z</time>
      </trkpt>
      <trkpt lat="43.99887" lon="5.90919">
        <ele>663</ele>
        <time>2020-10-05T13:01:19.000Z</time>
      </trkpt>
      <trkpt lat="43.99887" lon="5.90917">
        <ele>663</ele>
        <time>2020-10-05T13:01:20.000Z</time>
      </trkpt>
      <trkpt lat="43.99886" lon="5.90916">
        <ele>663</ele>
        <time>2020-10-05T13:01:21.000Z</time>
      </trkpt>
      <trkpt lat="43.99886" lon="5.90914">
        <ele>663</ele>
        <time>2020-10-05T13:01:22.000Z</time>
      </trkpt>
      <trkpt lat="43.99885" lon="5.90913">
        <ele>663</ele>
        <time>2020-10-05T13:01:23.000Z</time>
      </trkpt>
      <trkpt lat="43.99885" lon="5.90912">
        <ele>663</ele>
        <time>2020-10-05T13:01:24.000Z</time>
      </trkpt>
      <trkpt lat="43.99884" lon="5.9091">
        <ele>663</ele>
        <time>2020-10-05T13:01:25.000Z</time>
      </trkpt>
      <trkpt lat="43.99884" lon="5.90909">
        <ele>663</ele>
        <time>2020-10-05T13:01:26.000Z</time>
      </trkpt>
      <trkpt lat="43.99883" lon="5.90908">
        <ele>663</ele>
        <time>2020-10-05T13:01:27.000Z</time>
      </trkpt>
      <trkpt lat="43.99883" lon="5.90907">
        <ele>663</ele>
        <time>2020-10-05T13:01:28.000Z</time>
      </trkpt>
      <trkpt lat="43.99882" lon="5.90906">
        <ele>663</ele>
        <time>2020-10-05T13:01:29.000Z</time>
      </trkpt>
      <trkpt lat="43.99881" lon="5.90904">
        <ele>663</ele>
        <time>2020-10-05T13:01:30.000Z</time>
      </trkpt>
      <trkpt lat="43.99881" lon="5.90902">
        <ele>663</ele>
        <time>2020-10-05T13:01:31.000Z</time>
      </trkpt>
      <trkpt lat="43.9988" lon="5.90901">
        <ele>663</ele>
        <time>2020-10-05T13:01:32.000Z</time>
      </trkpt>
      <trkpt lat="43.9988" lon="5.90899">
        <ele>663</ele>
        <time>2020-10-05T13:01:33.000Z</time>
      </trkpt>
      <trkpt lat="43.99879" lon="5.90898">
        <ele>663</ele>
        <time>2020-10-05T13:01:34.000Z</time>
      </trkpt>
      <trkpt lat="43.99879" lon="5.90896">
        <ele>663</ele>
        <time>2020-10-05T13:01:35.000Z</time>
      </trkpt>
      <trkpt lat="43.99879" lon="5.90894">
        <ele>663</ele>
        <time>2020-10-05T13:01:36.000Z</time>
      </trkpt>
      <trkpt lat="43.99878" lon="5.90893">
        <ele>663</ele>
        <time>2020-10-05T13:01:37.000Z</time>
      </trkpt>
      <trkpt lat="43.99878" lon="5.90891">
        <ele>663</ele>
        <time>2020-10-05T13:01:38.000Z</time>
      </trkpt>
      <trkpt lat="43.99877" lon="5.9089">
        <ele>663</ele>
        <time>2020-10-05T13:01:39.000Z</time>
      </trkpt>
      <trkpt lat="43.99876" lon="5.90889">
        <ele>664</ele>
        <time>2020-10-05T13:01:40.000Z</time>
      </trkpt>
      <trkpt lat="43.99876" lon="5.90887">
        <ele>664</ele>
        <time>2020-10-05T13:01:41.000Z</time>
      </trkpt>
      <trkpt lat="43.99875" lon="5.90886">
        <ele>664</ele>
        <time>2020-10-05T13:01:42.000Z</time>
      </trkpt>
      <trkpt lat="43.99875" lon="5.90884">
        <ele>664</ele>
        <time>2020-10-05T13:01:43.000Z</time>
      </trkpt>
      <trkpt lat="43.99874" lon="5.90883">
        <ele>664</ele>
        <time>2020-10-05T13:01:44.000Z</time>
      </trkpt>
      <trkpt lat="43.99874" lon="5.90881">
        <ele>664</ele>
        <time>2020-10-05T13:01:45.000Z</time>
      </trkpt>
      <trkpt lat="43.99873" lon="5.9088">
        <ele>664</ele>
        <time>2020-10-05T13:01:46.000Z</time>
      </trkpt>
      <trkpt lat="43.99873" lon="5.90879">
        <ele>664</ele>
        <time>2020-10-05T13:01:47.000Z</time>
      </trkpt>
      <trkpt lat="43.99872" lon="5.90878">
        <ele>664</ele>
        <time>2020-10-05T13:01:48.000Z</time>
      </trkpt>
      <trkpt lat="43.99872" lon="5.90877">
        <ele>664</ele>
        <time>2020-10-05T13:01:49.000Z</time>
      </trkpt>
      <trkpt lat="43.99871" lon="5.90876">
        <ele>664</ele>
        <time>2020-10-05T13:01:50.000Z</time>
      </trkpt>
      <trkpt lat="43.99871" lon="5.90875">
        <ele>664</ele>
        <time>2020-10-05T13:01:51.000Z</time>
      </trkpt>
      <trkpt lat="43.9987" lon="5.90874">
        <ele>664</ele>
        <time>2020-10-05T13:01:52.000Z</time>
      </trkpt>
      <trkpt lat="43.99869" lon="5.90872">
        <ele>663</ele>
        <time>2020-10-05T13:01:53.000Z</time>
      </trkpt>
      <trkpt lat="43.99869" lon="5.9087">
        <ele>663</ele>
        <time>2020-10-05T13:01:54.000Z</time>
      </trkpt>
      <trkpt lat="43.99868" lon="5.90869">
        <ele>663</ele>
        <time>2020-10-05T13:01:55.000Z</time>
      </trkpt>
      <trkpt lat="43.99868" lon="5.90867">
        <ele>663</ele>
        <time>2020-10-05T13:01:56.000Z</time>
      </trkpt>
      <trkpt lat="43.99867" lon="5.90865">
        <ele>663</ele>
        <time>2020-10-05T13:01:57.000Z</time>
      </trkpt>
      <trkpt lat="43.99866" lon="5.90864">
        <ele>663</ele>
        <time>2020-10-05T13:01:58.000Z</time>
      </trkpt>
      <trkpt lat="43.99865" lon="5.90862">
        <ele>663</ele>
        <time>2020-10-05T13:01:59.000Z</time>
      </trkpt>
      <trkpt lat="43.99865" lon="5.90861">
        <ele>663</ele>
        <time>2020-10-05T13:02:00.000Z</time>
      </trkpt>
      <trkpt lat="43.99864" lon="5.90859">
        <ele>663</ele>
        <time>2020-10-05T13:02:01.000Z</time>
      </trkpt>
      <trkpt lat="43.99863" lon="5.90858">
        <ele>663</ele>
        <time>2020-10-05T13:02:02.000Z</time>
      </trkpt>
      <trkpt lat="43.99862" lon="5.90856">
        <ele>663</ele>
        <time>2020-10-05T13:02:03.000Z</time>
      </trkpt>
      <trkpt lat="43.99862" lon="5.90854">
        <ele>663</ele>
        <time>2020-10-05T13:02:04.000Z</time>
      </trkpt>
      <trkpt lat="43.99861" lon="5.90853">
        <ele>663</ele>
        <time>2020-10-05T13:02:05.000Z</time>
      </trkpt>
      <trkpt lat="43.9986" lon="5.90852">
        <ele>663</ele>
        <time>2020-10-05T13:02:06.000Z</time>
      </trkpt>
      <trkpt lat="43.99859" lon="5.9085">
        <ele>663</ele>
        <time>2020-10-05T13:02:07.000Z</time>
      </trkpt>
      <trkpt lat="43.99858" lon="5.90849">
        <ele>663</ele>
        <time>2020-10-05T13:02:08.000Z</time>
      </trkpt>
      <trkpt lat="43.99857" lon="5.90848">
        <ele>663</ele>
        <time>2020-10-05T13:02:09.000Z</time>
      </trkpt>
      <trkpt lat="43.99856" lon="5.90846">
        <ele>663</ele>
        <time>2020-10-05T13:02:10.000Z</time>
      </trkpt>
      <trkpt lat="43.99855" lon="5.90845">
        <ele>663</ele>
        <time>2020-10-05T13:02:11.000Z</time>
      </trkpt>
      <trkpt lat="43.99854" lon="5.90844">
        <ele>663</ele>
        <time>2020-10-05T13:02:12.000Z</time>
      </trkpt>
      <trkpt lat="43.99853" lon="5.90843">
        <ele>663</ele>
        <time>2020-10-05T13:02:13.000Z</time>
      </trkpt>
      <trkpt lat="43.99852" lon="5.90841">
        <ele>663</ele>
        <time>2020-10-05T13:02:14.000Z</time>
      </trkpt>
      <trkpt lat="43.99851" lon="5.9084">
        <ele>663</ele>
        <time>2020-10-05T13:02:15.000Z</time>
      </trkpt>
      <trkpt lat="43.99849" lon="5.90839">
        <ele>663</ele>
        <time>2020-10-05T13:02:16.000Z</time>
      </trkpt>
      <trkpt lat="43.99848" lon="5.90839">
        <ele>663</ele>
        <time>2020-10-05T13:02:17.000Z</time>
      </trkpt>
      <trkpt lat="43.99847" lon="5.90838">
        <ele>663</ele>
        <time>2020-10-05T13:02:18.000Z</time>
      </trkpt>
      <trkpt lat="43.99846" lon="5.90838">
        <ele>663</ele>
        <time>2020-10-05T13:02:19.000Z</time>
      </trkpt>
      <trkpt lat="43.99845" lon="5.90837">
        <ele>663</ele>
        <time>2020-10-05T13:02:20.000Z</time>
      </trkpt>
      <trkpt lat="43.99844" lon="5.90836">
        <ele>663</ele>
        <time>2020-10-05T13:02:21.000Z</time>
      </trkpt>
      <trkpt lat="43.99843" lon="5.90835">
        <ele>663</ele>
        <time>2020-10-05T13:02:22.000Z</time>
      </trkpt>
      <trkpt lat="43.99842" lon="5.90834">
        <ele>663</ele>
        <time>2020-10-05T13:02:23.000Z</time>
      </trkpt>
      <trkpt lat="43.99841" lon="5.90833">
        <ele>663</ele>
        <time>2020-10-05T13:02:24.000Z</time>
      </trkpt>
      <trkpt lat="43.9984" lon="5.90831">
        <ele>663</ele>
        <time>2020-10-05T13:02:25.000Z</time>
      </trkpt>
      <trkpt lat="43.99839" lon="5.9083">
        <ele>663</ele>
        <time>2020-10-05T13:02:26.000Z</time>
      </trkpt>
      <trkpt lat="43.99838" lon="5.90829">
        <ele>663</ele>
        <time>2020-10-05T13:02:27.000Z</time>
      </trkpt>
      <trkpt lat="43.99838" lon="5.90827">
        <ele>663</ele>
        <time>2020-10-05T13:02:28.000Z</time>
      </trkpt>
      <trkpt lat="43.99837" lon="5.90826">
        <ele>663</ele>
        <time>2020-10-05T13:02:29.000Z</time>
      </trkpt>
      <trkpt lat="43.99836" lon="5.90824">
        <ele>663</ele>
        <time>2020-10-05T13:02:30.000Z</time>
      </trkpt>
      <trkpt lat="43.99835" lon="5.90823">
        <ele>663</ele>
        <time>2020-10-05T13:02:31.000Z</time>
      </trkpt>
      <trkpt lat="43.99834" lon="5.90822">
        <ele>663</ele>
        <time>2020-10-05T13:02:32.000Z</time>
      </trkpt>
      <trkpt lat="43.99833" lon="5.9082">
        <ele>663</ele>
        <time>2020-10-05T13:02:33.000Z</time>
      </trkpt>
      <trkpt lat="43.99833" lon="5.90819">
        <ele>664</ele>
        <time>2020-10-05T13:02:34.000Z</time>
      </trkpt>
      <trkpt lat="43.99832" lon="5.90817">
        <ele>664</ele>
        <time>2020-10-05T13:02:35.000Z</time>
      </trkpt>
      <trkpt lat="43.99832" lon="5.90815">
        <ele>664</ele>
        <time>2020-10-05T13:02:36.000Z</time>
      </trkpt>
      <trkpt lat="43.99831" lon="5.90814">
        <ele>664</ele>
        <time>2020-10-05T13:02:37.000Z</time>
      </trkpt>
      <trkpt lat="43.9983" lon="5.90813">
        <ele>664</ele>
        <time>2020-10-05T13:02:38.000Z</time>
      </trkpt>
      <trkpt lat="43.9983" lon="5.90811">
        <ele>664</ele>
        <time>2020-10-05T13:02:39.000Z</time>
      </trkpt>
      <trkpt lat="43.9983" lon="5.9081">
        <ele>664</ele>
        <time>2020-10-05T13:02:40.000Z</time>
      </trkpt>
      <trkpt lat="43.99829" lon="5.90808">
        <ele>664</ele>
        <time>2020-10-05T13:02:41.000Z</time>
      </trkpt>
      <trkpt lat="43.99829" lon="5.90806">
        <ele>664</ele>
        <time>2020-10-05T13:02:42.000Z</time>
      </trkpt>
      <trkpt lat="43.99828" lon="5.90804">
        <ele>664</ele>
        <time>2020-10-05T13:02:43.000Z</time>
      </trkpt>
      <trkpt lat="43.99828" lon="5.90803">
        <ele>664</ele>
        <time>2020-10-05T13:02:44.000Z</time>
      </trkpt>
      <trkpt lat="43.99827" lon="5.90801">
        <ele>664</ele>
        <time>2020-10-05T13:02:45.000Z</time>
      </trkpt>
      <trkpt lat="43.99827" lon="5.90799">
        <ele>664</ele>
        <time>2020-10-05T13:02:46.000Z</time>
      </trkpt>
      <trkpt lat="43.99827" lon="5.90798">
        <ele>664</ele>
        <time>2020-10-05T13:02:47.000Z</time>
      </trkpt>
      <trkpt lat="43.99826" lon="5.90796">
        <ele>664</ele>
        <time>2020-10-05T13:02:48.000Z</time>
      </trkpt>
      <trkpt lat="43.99826" lon="5.90795">
        <ele>664</ele>
        <time>2020-10-05T13:02:49.000Z</time>
      </trkpt>
      <trkpt lat="43.99826" lon="5.90793">
        <ele>664</ele>
        <time>2020-10-05T13:02:50.000Z</time>
      </trkpt>
      <trkpt lat="43.99826" lon="5.90791">
        <ele>664</ele>
        <time>2020-10-05T13:02:51.000Z</time>
      </trkpt>
      <trkpt lat="43.99826" lon="5.90789">
        <ele>664</ele>
        <time>2020-10-05T13:02:52.000Z</time>
      </trkpt>
      <trkpt lat="43.99826" lon="5.90787">
        <ele>664</ele>
        <time>2020-10-05T13:02:53.000Z</time>
      </trkpt>
      <trkpt lat="43.99826" lon="5.90786">
        <ele>664</ele>
        <time>2020-10-05T13:02:54.000Z</time>
      </trkpt>
      <trkpt lat="43.99826" lon="5.90784">
        <ele>664</ele>
        <time>2020-10-05T13:02:55.000Z</time>
      </trkpt>
      <trkpt lat="43.99826" lon="5.90782">
        <ele>664</ele>
        <time>2020-10-05T13:02:56.000Z</time>
      </trkpt>
      <trkpt lat="43.99826" lon="5.90781">
        <ele>664</ele>
        <time>2020-10-05T13:02:57.000Z</time>
      </trkpt>
      <trkpt lat="43.99826" lon="5.90779">
        <ele>664</ele>
        <time>2020-10-05T13:02:58.000Z</time>
      </trkpt>
      <trkpt lat="43.99826" lon="5.90777">
        <ele>664</ele>
        <time>2020-10-05T13:02:59.000Z</time>
      </trkpt>
      <trkpt lat="43.99827" lon="5.90775">
        <ele>664</ele>
        <time>2020-10-05T13:03:00.000Z</time>
      </trkpt>
      <trkpt lat="43.99827" lon="5.90774">
        <ele>664</ele>
        <time>2020-10-05T13:03:01.000Z</time>
      </trkpt>
      <trkpt lat="43.99827" lon="5.90773">
        <ele>664</ele>
        <time>2020-10-05T13:03:02.000Z</time>
      </trkpt>
      <trkpt lat="43.99827" lon="5.90771">
        <ele>664</ele>
        <time>2020-10-05T13:03:03.000Z</time>
      </trkpt>
      <trkpt lat="43.99827" lon="5.90769">
        <ele>665</ele>
        <time>2020-10-05T13:03:04.000Z</time>
      </trkpt>
      <trkpt lat="43.99827" lon="5.90767">
        <ele>665</ele>
        <time>2020-10-05T13:03:05.000Z</time>
      </trkpt>
      <trkpt lat="43.99827" lon="5.90765">
        <ele>665</ele>
        <time>2020-10-05T13:03:06.000Z</time>
      </trkpt>
      <trkpt lat="43.99827" lon="5.90764">
        <ele>665</ele>
        <time>2020-10-05T13:03:07.000Z</time>
      </trkpt>
      <trkpt lat="43.99827" lon="5.90762">
        <ele>665</ele>
        <time>2020-10-05T13:03:08.000Z</time>
      </trkpt>
      <trkpt lat="43.99828" lon="5.9076">
        <ele>665</ele>
        <time>2020-10-05T13:03:09.000Z</time>
      </trkpt>
      <trkpt lat="43.99828" lon="5.90758">
        <ele>665</ele>
        <time>2020-10-05T13:03:10.000Z</time>
      </trkpt>
      <trkpt lat="43.99828" lon="5.90757">
        <ele>665</ele>
        <time>2020-10-05T13:03:11.000Z</time>
      </trkpt>
      <trkpt lat="43.99828" lon="5.90755">
        <ele>665</ele>
        <time>2020-10-05T13:03:12.000Z</time>
      </trkpt>
      <trkpt lat="43.99828" lon="5.90753">
        <ele>665</ele>
        <time>2020-10-05T13:03:13.000Z</time>
      </trkpt>
      <trkpt lat="43.99829" lon="5.90752">
        <ele>665</ele>
        <time>2020-10-05T13:03:14.000Z</time>
      </trkpt>
      <trkpt lat="43.99829" lon="5.9075">
        <ele>665</ele>
        <time>2020-10-05T13:03:15.000Z</time>
      </trkpt>
      <trkpt lat="43.99829" lon="5.90749">
        <ele>665</ele>
        <time>2020-10-05T13:03:16.000Z</time>
      </trkpt>
      <trkpt lat="43.9983" lon="5.90747">
        <ele>665</ele>
        <time>2020-10-05T13:03:17.000Z</time>
      </trkpt>
      <trkpt lat="43.9983" lon="5.90745">
        <ele>665</ele>
        <time>2020-10-05T13:03:18.000Z</time>
      </trkpt>
      <trkpt lat="43.9983" lon="5.90744">
        <ele>665</ele>
        <time>2020-10-05T13:03:19.000Z</time>
      </trkpt>
      <trkpt lat="43.99831" lon="5.90742">
        <ele>665</ele>
        <time>2020-10-05T13:03:20.000Z</time>
      </trkpt>
      <trkpt lat="43.99831" lon="5.9074">
        <ele>665</ele>
        <time>2020-10-05T13:03:21.000Z</time>
      </trkpt>
      <trkpt lat="43.99832" lon="5.90739">
        <ele>665</ele>
        <time>2020-10-05T13:03:22.000Z</time>
      </trkpt>
      <trkpt lat="43.99832" lon="5.90738">
        <ele>665</ele>
        <time>2020-10-05T13:03:23.000Z</time>
      </trkpt>
      <trkpt lat="43.99832" lon="5.90736">
        <ele>665</ele>
        <time>2020-10-05T13:03:24.000Z</time>
      </trkpt>
      <trkpt lat="43.99833" lon="5.90735">
        <ele>665</ele>
        <time>2020-10-05T13:03:25.000Z</time>
      </trkpt>
      <trkpt lat="43.99833" lon="5.90734">
        <ele>665</ele>
        <time>2020-10-05T13:03:26.000Z</time>
      </trkpt>
      <trkpt lat="43.99834" lon="5.90732">
        <ele>665</ele>
        <time>2020-10-05T13:03:27.000Z</time>
      </trkpt>
      <trkpt lat="43.99834" lon="5.90731">
        <ele>665</ele>
        <time>2020-10-05T13:03:28.000Z</time>
      </trkpt>
      <trkpt lat="43.99835" lon="5.9073">
        <ele>665</ele>
        <time>2020-10-05T13:03:29.000Z</time>
      </trkpt>
      <trkpt lat="43.99835" lon="5.90729">
        <ele>665</ele>
        <time>2020-10-05T13:03:30.000Z</time>
      </trkpt>
      <trkpt lat="43.99835" lon="5.90728">
        <ele>665</ele>
        <time>2020-10-05T13:03:31.000Z</time>
      </trkpt>
      <trkpt lat="43.99836" lon="5.90727">
        <ele>665</ele>
        <time>2020-10-05T13:03:32.000Z</time>
      </trkpt>
      <trkpt lat="43.99836" lon="5.90726">
        <ele>665</ele>
        <time>2020-10-05T13:03:33.000Z</time>
      </trkpt>
      <trkpt lat="43.99836" lon="5.90724">
        <ele>665</ele>
        <time>2020-10-05T13:03:34.000Z</time>
      </trkpt>
      <trkpt lat="43.99836" lon="5.90723">
        <ele>665</ele>
        <time>2020-10-05T13:03:35.000Z</time>
      </trkpt>
      <trkpt lat="43.99837" lon="5.90721">
        <ele>665</ele>
        <time>2020-10-05T13:03:36.000Z</time>
      </trkpt>
      <trkpt lat="43.99837" lon="5.9072">
        <ele>666</ele>
        <time>2020-10-05T13:03:37.000Z</time>
      </trkpt>
      <trkpt lat="43.99838" lon="5.90719">
        <ele>666</ele>
        <time>2020-10-05T13:03:38.000Z</time>
      </trkpt>
      <trkpt lat="43.99838" lon="5.90718">
        <ele>666</ele>
        <time>2020-10-05T13:03:39.000Z</time>
      </trkpt>
      <trkpt lat="43.99839" lon="5.90717">
        <ele>666</ele>
        <time>2020-10-05T13:03:40.000Z</time>
      </trkpt>
      <trkpt lat="43.99839" lon="5.90715">
        <ele>666</ele>
        <time>2020-10-05T13:03:41.000Z</time>
      </trkpt>
      <trkpt lat="43.99839" lon="5.90714">
        <ele>666</ele>
        <time>2020-10-05T13:03:42.000Z</time>
      </trkpt>
      <trkpt lat="43.9984" lon="5.90713">
        <ele>666</ele>
        <time>2020-10-05T13:03:43.000Z</time>
      </trkpt>
      <trkpt lat="43.9984" lon="5.90712">
        <ele>666</ele>
        <time>2020-10-05T13:03:44.000Z</time>
      </trkpt>
      <trkpt lat="43.9984" lon="5.9071">
        <ele>666</ele>
        <time>2020-10-05T13:03:45.000Z</time>
      </trkpt>
      <trkpt lat="43.99841" lon="5.90709">
        <ele>666</ele>
        <time>2020-10-05T13:03:46.000Z</time>
      </trkpt>
      <trkpt lat="43.99841" lon="5.90708">
        <ele>666</ele>
        <time>2020-10-05T13:03:47.000Z</time>
      </trkpt>
      <trkpt lat="43.99841" lon="5.90707">
        <ele>666</ele>
        <time>2020-10-05T13:03:48.000Z</time>
      </trkpt>
      <trkpt lat="43.99841" lon="5.90706">
        <ele>666</ele>
        <time>2020-10-05T13:03:49.000Z</time>
      </trkpt>
      <trkpt lat="43.99841" lon="5.90706">
        <ele>666</ele>
        <time>2020-10-05T13:03:50.000Z</time>
      </trkpt>
      <trkpt lat="43.9984" lon="5.90705">
        <ele>666</ele>
        <time>2020-10-05T13:03:51.000Z</time>
      </trkpt>
      <trkpt lat="43.9984" lon="5.90704">
        <ele>666</ele>
        <time>2020-10-05T13:03:52.000Z</time>
      </trkpt>
      <trkpt lat="43.9984" lon="5.90704">
        <ele>666</ele>
        <time>2020-10-05T13:03:53.000Z</time>
      </trkpt>
      <trkpt lat="43.9984" lon="5.90703">
        <ele>665</ele>
        <time>2020-10-05T13:03:54.000Z</time>
      </trkpt>
      <trkpt lat="43.99839" lon="5.90702">
        <ele>665</ele>
        <time>2020-10-05T13:03:55.000Z</time>
      </trkpt>
      <trkpt lat="43.99839" lon="5.90702">
        <ele>666</ele>
        <time>2020-10-05T13:03:56.000Z</time>
      </trkpt>
      <trkpt lat="43.99839" lon="5.90702">
        <ele>666</ele>
        <time>2020-10-05T13:03:57.000Z</time>
      </trkpt>
      <trkpt lat="43.99839" lon="5.90701">
        <ele>666</ele>
        <time>2020-10-05T13:03:58.000Z</time>
      </trkpt>
      <trkpt lat="43.99839" lon="5.90701">
        <ele>666</ele>
        <time>2020-10-05T13:03:59.000Z</time>
      </trkpt>
      <trkpt lat="43.99839" lon="5.907">
        <ele>666</ele>
        <time>2020-10-05T13:04:00.000Z</time>
      </trkpt>
      <trkpt lat="43.99839" lon="5.90699">
        <ele>666</ele>
        <time>2020-10-05T13:04:01.000Z</time>
      </trkpt>
      <trkpt lat="43.99838" lon="5.90697">
        <ele>666</ele>
        <time>2020-10-05T13:04:02.000Z</time>
      </trkpt>
      <trkpt lat="43.99838" lon="5.90695">
        <ele>666</ele>
        <time>2020-10-05T13:04:03.000Z</time>
      </trkpt>
      <trkpt lat="43.99838" lon="5.90693">
        <ele>666</ele>
        <time>2020-10-05T13:04:04.000Z</time>
      </trkpt>
      <trkpt lat="43.99838" lon="5.90691">
        <ele>666</ele>
        <time>2020-10-05T13:04:05.000Z</time>
      </trkpt>
      <trkpt lat="43.99838" lon="5.90689">
        <ele>666</ele>
        <time>2020-10-05T13:04:06.000Z</time>
      </trkpt>
      <trkpt lat="43.99837" lon="5.90687">
        <ele>666</ele>
        <time>2020-10-05T13:04:07.000Z</time>
      </trkpt>
      <trkpt lat="43.99837" lon="5.90685">
        <ele>666</ele>
        <time>2020-10-05T13:04:08.000Z</time>
      </trkpt>
      <trkpt lat="43.99837" lon="5.90683">
        <ele>666</ele>
        <time>2020-10-05T13:04:09.000Z</time>
      </trkpt>
      <trkpt lat="43.99837" lon="5.90682">
        <ele>666</ele>
        <time>2020-10-05T13:04:10.000Z</time>
      </trkpt>
      <trkpt lat="43.99837" lon="5.9068">
        <ele>666</ele>
        <time>2020-10-05T13:04:11.000Z</time>
      </trkpt>
      <trkpt lat="43.99837" lon="5.90678">
        <ele>666</ele>
        <time>2020-10-05T13:04:12.000Z</time>
      </trkpt>
      <trkpt lat="43.99837" lon="5.90677">
        <ele>666</ele>
        <time>2020-10-05T13:04:13.000Z</time>
      </trkpt>
      <trkpt lat="43.99837" lon="5.90675">
        <ele>666</ele>
        <time>2020-10-05T13:04:14.000Z</time>
      </trkpt>
      <trkpt lat="43.99837" lon="5.90673">
        <ele>666</ele>
        <time>2020-10-05T13:04:15.000Z</time>
      </trkpt>
      <trkpt lat="43.99837" lon="5.90671">
        <ele>666</ele>
        <time>2020-10-05T13:04:16.000Z</time>
      </trkpt>
      <trkpt lat="43.99837" lon="5.90669">
        <ele>666</ele>
        <time>2020-10-05T13:04:17.000Z</time>
      </trkpt>
      <trkpt lat="43.99837" lon="5.90667">
        <ele>666</ele>
        <time>2020-10-05T13:04:18.000Z</time>
      </trkpt>
      <trkpt lat="43.99837" lon="5.90666">
        <ele>666</ele>
        <time>2020-10-05T13:04:19.000Z</time>
      </trkpt>
      <trkpt lat="43.99837" lon="5.90664">
        <ele>666</ele>
        <time>2020-10-05T13:04:20.000Z</time>
      </trkpt>
      <trkpt lat="43.99837" lon="5.90662">
        <ele>665</ele>
        <time>2020-10-05T13:04:21.000Z</time>
      </trkpt>
      <trkpt lat="43.99837" lon="5.90661">
        <ele>665</ele>
        <time>2020-10-05T13:04:22.000Z</time>
      </trkpt>
      <trkpt lat="43.99836" lon="5.90659">
        <ele>665</ele>
        <time>2020-10-05T13:04:23.000Z</time>
      </trkpt>
      <trkpt lat="43.99836" lon="5.90658">
        <ele>665</ele>
        <time>2020-10-05T13:04:24.000Z</time>
      </trkpt>
      <trkpt lat="43.99836" lon="5.90657">
        <ele>665</ele>
        <time>2020-10-05T13:04:25.000Z</time>
      </trkpt>
      <trkpt lat="43.99836" lon="5.90655">
        <ele>665</ele>
        <time>2020-10-05T13:04:26.000Z</time>
      </trkpt>
      <trkpt lat="43.99836" lon="5.90653">
        <ele>665</ele>
        <time>2020-10-05T13:04:27.000Z</time>
      </trkpt>
      <trkpt lat="43.99835" lon="5.90652">
        <ele>665</ele>
        <time>2020-10-05T13:04:28.000Z</time>
      </trkpt>
      <trkpt lat="43.99835" lon="5.9065">
        <ele>665</ele>
        <time>2020-10-05T13:04:29.000Z</time>
      </trkpt>
      <trkpt lat="43.99835" lon="5.90648">
        <ele>665</ele>
        <time>2020-10-05T13:04:30.000Z</time>
      </trkpt>
      <trkpt lat="43.99835" lon="5.90646">
        <ele>665</ele>
        <time>2020-10-05T13:04:31.000Z</time>
      </trkpt>
      <trkpt lat="43.99835" lon="5.90644">
        <ele>665</ele>
        <time>2020-10-05T13:04:32.000Z</time>
      </trkpt>
      <trkpt lat="43.99835" lon="5.90642">
        <ele>665</ele>
        <time>2020-10-05T13:04:33.000Z</time>
      </trkpt>
      <trkpt lat="43.99835" lon="5.9064">
        <ele>665</ele>
        <time>2020-10-05T13:04:34.000Z</time>
      </trkpt>
      <trkpt lat="43.99835" lon="5.90639">
        <ele>665</ele>
        <time>2020-10-05T13:04:35.000Z</time>
      </trkpt>
      <trkpt lat="43.99835" lon="5.90637">
        <ele>665</ele>
        <time>2020-10-05T13:04:36.000Z</time>
      </trkpt>
      <trkpt lat="43.99835" lon="5.90636">
        <ele>665</ele>
        <time>2020-10-05T13:04:37.000Z</time>
      </trkpt>
      <trkpt lat="43.99835" lon="5.90634">
        <ele>665</ele>
        <time>2020-10-05T13:04:38.000Z</time>
      </trkpt>
      <trkpt lat="43.99835" lon="5.90632">
        <ele>665</ele>
        <time>2020-10-05T13:04:39.000Z</time>
      </trkpt>
      <trkpt lat="43.99835" lon="5.90631">
        <ele>665</ele>
        <time>2020-10-05T13:04:40.000Z</time>
      </trkpt>
      <trkpt lat="43.99835" lon="5.90629">
        <ele>665</ele>
        <time>2020-10-05T13:04:41.000Z</time>
      </trkpt>
      <trkpt lat="43.99835" lon="5.90627">
        <ele>666</ele>
        <time>2020-10-05T13:04:42.000Z</time>
      </trkpt>
      <trkpt lat="43.99835" lon="5.90625">
        <ele>666</ele>
        <time>2020-10-05T13:04:43.000Z</time>
      </trkpt>
      <trkpt lat="43.99834" lon="5.90624">
        <ele>666</ele>
        <time>2020-10-05T13:04:44.000Z</time>
      </trkpt>
      <trkpt lat="43.99834" lon="5.90622">
        <ele>666</ele>
        <time>2020-10-05T13:04:45.000Z</time>
      </trkpt>
      <trkpt lat="43.99834" lon="5.9062">
        <ele>666</ele>
        <time>2020-10-05T13:04:46.000Z</time>
      </trkpt>
      <trkpt lat="43.99834" lon="5.90618">
        <ele>666</ele>
        <time>2020-10-05T13:04:47.000Z</time>
      </trkpt>
      <trkpt lat="43.99834" lon="5.90616">
        <ele>666</ele>
        <time>2020-10-05T13:04:48.000Z</time>
      </trkpt>
      <trkpt lat="43.99834" lon="5.90614">
        <ele>666</ele>
        <time>2020-10-05T13:04:49.000Z</time>
      </trkpt>
      <trkpt lat="43.99835" lon="5.90613">
        <ele>666</ele>
        <time>2020-10-05T13:04:50.000Z</time>
      </trkpt>
      <trkpt lat="43.99835" lon="5.90611">
        <ele>666</ele>
        <time>2020-10-05T13:04:51.000Z</time>
      </trkpt>
      <trkpt lat="43.99835" lon="5.90609">
        <ele>666</ele>
        <time>2020-10-05T13:04:52.000Z</time>
      </trkpt>
      <trkpt lat="43.99835" lon="5.90608">
        <ele>666</ele>
        <time>2020-10-05T13:04:53.000Z</time>
      </trkpt>
      <trkpt lat="43.99835" lon="5.90606">
        <ele>666</ele>
        <time>2020-10-05T13:04:54.000Z</time>
      </trkpt>
      <trkpt lat="43.99835" lon="5.90605">
        <ele>666</ele>
        <time>2020-10-05T13:04:55.000Z</time>
      </trkpt>
      <trkpt lat="43.99835" lon="5.90603">
        <ele>666</ele>
        <time>2020-10-05T13:04:56.000Z</time>
      </trkpt>
      <trkpt lat="43.99835" lon="5.90601">
        <ele>666</ele>
        <time>2020-10-05T13:04:57.000Z</time>
      </trkpt>
      <trkpt lat="43.99835" lon="5.906">
        <ele>666</ele>
        <time>2020-10-05T13:04:58.000Z</time>
      </trkpt>
      <trkpt lat="43.99835" lon="5.90598">
        <ele>666</ele>
        <time>2020-10-05T13:04:59.000Z</time>
      </trkpt>
      <trkpt lat="43.99835" lon="5.90596">
        <ele>666</ele>
        <time>2020-10-05T13:05:00.000Z</time>
      </trkpt>
      <trkpt lat="43.99835" lon="5.90595">
        <ele>666</ele>
        <time>2020-10-05T13:05:01.000Z</time>
      </trkpt>
      <trkpt lat="43.99835" lon="5.90593">
        <ele>666</ele>
        <time>2020-10-05T13:05:02.000Z</time>
      </trkpt>
      <trkpt lat="43.99835" lon="5.90591">
        <ele>666</ele>
        <time>2020-10-05T13:05:03.000Z</time>
      </trkpt>
      <trkpt lat="43.99835" lon="5.90589">
        <ele>666</ele>
        <time>2020-10-05T13:05:04.000Z</time>
      </trkpt>
      <trkpt lat="43.99834" lon="5.90587">
        <ele>666</ele>
        <time>2020-10-05T13:05:05.000Z</time>
      </trkpt>
      <trkpt lat="43.99834" lon="5.90586">
        <ele>666</ele>
        <time>2020-10-05T13:05:06.000Z</time>
      </trkpt>
      <trkpt lat="43.99834" lon="5.90584">
        <ele>666</ele>
        <time>2020-10-05T13:05:07.000Z</time>
      </trkpt>
      <trkpt lat="43.99834" lon="5.90583">
        <ele>666</ele>
        <time>2020-10-05T13:05:08.000Z</time>
      </trkpt>
      <trkpt lat="43.99834" lon="5.90582">
        <ele>666</ele>
        <time>2020-10-05T13:05:09.000Z</time>
      </trkpt>
      <trkpt lat="43.99834" lon="5.9058">
        <ele>666</ele>
        <time>2020-10-05T13:05:10.000Z</time>
      </trkpt>
      <trkpt lat="43.99834" lon="5.90579">
        <ele>666</ele>
        <time>2020-10-05T13:05:11.000Z</time>
      </trkpt>
      <trkpt lat="43.99833" lon="5.90577">
        <ele>666</ele>
        <time>2020-10-05T13:05:12.000Z</time>
      </trkpt>
      <trkpt lat="43.99833" lon="5.90576">
        <ele>666</ele>
        <time>2020-10-05T13:05:13.000Z</time>
      </trkpt>
      <trkpt lat="43.99833" lon="5.90575">
        <ele>666</ele>
        <time>2020-10-05T13:05:14.000Z</time>
      </trkpt>
      <trkpt lat="43.99833" lon="5.90574">
        <ele>667</ele>
        <time>2020-10-05T13:05:15.000Z</time>
      </trkpt>
      <trkpt lat="43.99833" lon="5.90573">
        <ele>667</ele>
        <time>2020-10-05T13:05:16.000Z</time>
      </trkpt>
      <trkpt lat="43.99833" lon="5.90571">
        <ele>667</ele>
        <time>2020-10-05T13:05:17.000Z</time>
      </trkpt>
      <trkpt lat="43.99832" lon="5.9057">
        <ele>667</ele>
        <time>2020-10-05T13:05:18.000Z</time>
      </trkpt>
      <trkpt lat="43.99832" lon="5.90569">
        <ele>667</ele>
        <time>2020-10-05T13:05:19.000Z</time>
      </trkpt>
      <trkpt lat="43.99832" lon="5.90567">
        <ele>667</ele>
        <time>2020-10-05T13:05:20.000Z</time>
      </trkpt>
      <trkpt lat="43.99832" lon="5.90566">
        <ele>667</ele>
        <time>2020-10-05T13:05:21.000Z</time>
      </trkpt>
      <trkpt lat="43.99831" lon="5.90565">
        <ele>667</ele>
        <time>2020-10-05T13:05:22.000Z</time>
      </trkpt>
      <trkpt lat="43.9983" lon="5.90564">
        <ele>667</ele>
        <time>2020-10-05T13:05:23.000Z</time>
      </trkpt>
      <trkpt lat="43.9983" lon="5.90563">
        <ele>667</ele>
        <time>2020-10-05T13:05:24.000Z</time>
      </trkpt>
      <trkpt lat="43.99829" lon="5.90562">
        <ele>667</ele>
        <time>2020-10-05T13:05:25.000Z</time>
      </trkpt>
      <trkpt lat="43.99828" lon="5.90561">
        <ele>668</ele>
        <time>2020-10-05T13:05:26.000Z</time>
      </trkpt>
      <trkpt lat="43.99827" lon="5.9056">
        <ele>668</ele>
        <time>2020-10-05T13:05:27.000Z</time>
      </trkpt>
      <trkpt lat="43.99826" lon="5.90559">
        <ele>668</ele>
        <time>2020-10-05T13:05:28.000Z</time>
      </trkpt>
      <trkpt lat="43.99825" lon="5.90558">
        <ele>668</ele>
        <time>2020-10-05T13:05:29.000Z</time>
      </trkpt>
      <trkpt lat="43.99824" lon="5.90557">
        <ele>668</ele>
        <time>2020-10-05T13:05:30.000Z</time>
      </trkpt>
      <trkpt lat="43.99823" lon="5.90556">
        <ele>668</ele>
        <time>2020-10-05T13:05:31.000Z</time>
      </trkpt>
      <trkpt lat="43.99821" lon="5.90555">
        <ele>668</ele>
        <time>2020-10-05T13:05:32.000Z</time>
      </trkpt>
      <trkpt lat="43.9982" lon="5.90555">
        <ele>668</ele>
        <time>2020-10-05T13:05:33.000Z</time>
      </trkpt>
      <trkpt lat="43.99819" lon="5.90554">
        <ele>668</ele>
        <time>2020-10-05T13:05:34.000Z</time>
      </trkpt>
      <trkpt lat="43.99818" lon="5.90554">
        <ele>669</ele>
        <time>2020-10-05T13:05:35.000Z</time>
      </trkpt>
      <trkpt lat="43.99817" lon="5.90553">
        <ele>669</ele>
        <time>2020-10-05T13:05:36.000Z</time>
      </trkpt>
      <trkpt lat="43.99816" lon="5.90552">
        <ele>669</ele>
        <time>2020-10-05T13:05:37.000Z</time>
      </trkpt>
      <trkpt lat="43.99814" lon="5.90551">
        <ele>669</ele>
        <time>2020-10-05T13:05:38.000Z</time>
      </trkpt>
      <trkpt lat="43.99813" lon="5.9055">
        <ele>669</ele>
        <time>2020-10-05T13:05:39.000Z</time>
      </trkpt>
      <trkpt lat="43.99812" lon="5.9055">
        <ele>669</ele>
        <time>2020-10-05T13:05:40.000Z</time>
      </trkpt>
      <trkpt lat="43.99811" lon="5.90549">
        <ele>669</ele>
        <time>2020-10-05T13:05:41.000Z</time>
      </trkpt>
      <trkpt lat="43.9981" lon="5.90549">
        <ele>669</ele>
        <time>2020-10-05T13:05:42.000Z</time>
      </trkpt>
      <trkpt lat="43.99809" lon="5.90548">
        <ele>669</ele>
        <time>2020-10-05T13:05:43.000Z</time>
      </trkpt>
      <trkpt lat="43.99808" lon="5.90547">
        <ele>669</ele>
        <time>2020-10-05T13:05:44.000Z</time>
      </trkpt>
      <trkpt lat="43.99807" lon="5.90547">
        <ele>669</ele>
        <time>2020-10-05T13:05:45.000Z</time>
      </trkpt>
      <trkpt lat="43.99806" lon="5.90547">
        <ele>670</ele>
        <time>2020-10-05T13:05:46.000Z</time>
      </trkpt>
      <trkpt lat="43.99805" lon="5.90546">
        <ele>670</ele>
        <time>2020-10-05T13:05:47.000Z</time>
      </trkpt>
      <trkpt lat="43.99804" lon="5.90546">
        <ele>670</ele>
        <time>2020-10-05T13:05:48.000Z</time>
      </trkpt>
      <trkpt lat="43.99803" lon="5.90545">
        <ele>670</ele>
        <time>2020-10-05T13:05:49.000Z</time>
      </trkpt>
      <trkpt lat="43.99802" lon="5.90545">
        <ele>670</ele>
        <time>2020-10-05T13:05:50.000Z</time>
      </trkpt>
      <trkpt lat="43.99801" lon="5.90544">
        <ele>670</ele>
        <time>2020-10-05T13:05:51.000Z</time>
      </trkpt>
      <trkpt lat="43.99801" lon="5.90544">
        <ele>670</ele>
        <time>2020-10-05T13:05:52.000Z</time>
      </trkpt>
      <trkpt lat="43.998" lon="5.90543">
        <ele>670</ele>
        <time>2020-10-05T13:05:53.000Z</time>
      </trkpt>
      <trkpt lat="43.99799" lon="5.90543">
        <ele>670</ele>
        <time>2020-10-05T13:05:54.000Z</time>
      </trkpt>
      <trkpt lat="43.99799" lon="5.90543">
        <ele>670</ele>
        <time>2020-10-05T13:05:55.000Z</time>
      </trkpt>
      <trkpt lat="43.99798" lon="5.90542">
        <ele>670</ele>
        <time>2020-10-05T13:05:56.000Z</time>
      </trkpt>
      <trkpt lat="43.99797" lon="5.90542">
        <ele>670</ele>
        <time>2020-10-05T13:05:57.000Z</time>
      </trkpt>
      <trkpt lat="43.99796" lon="5.90541">
        <ele>670</ele>
        <time>2020-10-05T13:05:58.000Z</time>
      </trkpt>
      <trkpt lat="43.99795" lon="5.9054">
        <ele>670</ele>
        <time>2020-10-05T13:05:59.000Z</time>
      </trkpt>
      <trkpt lat="43.99794" lon="5.9054">
        <ele>670</ele>
        <time>2020-10-05T13:06:00.000Z</time>
      </trkpt>
      <trkpt lat="43.99793" lon="5.90539">
        <ele>670</ele>
        <time>2020-10-05T13:06:01.000Z</time>
      </trkpt>
      <trkpt lat="43.99792" lon="5.90538">
        <ele>670</ele>
        <time>2020-10-05T13:06:02.000Z</time>
      </trkpt>
      <trkpt lat="43.99791" lon="5.90537">
        <ele>671</ele>
        <time>2020-10-05T13:06:03.000Z</time>
      </trkpt>
      <trkpt lat="43.9979" lon="5.90537">
        <ele>671</ele>
        <time>2020-10-05T13:06:04.000Z</time>
      </trkpt>
      <trkpt lat="43.99789" lon="5.90536">
        <ele>671</ele>
        <time>2020-10-05T13:06:05.000Z</time>
      </trkpt>
      <trkpt lat="43.99788" lon="5.90535">
        <ele>671</ele>
        <time>2020-10-05T13:06:06.000Z</time>
      </trkpt>
      <trkpt lat="43.99787" lon="5.90534">
        <ele>671</ele>
        <time>2020-10-05T13:06:07.000Z</time>
      </trkpt>
      <trkpt lat="43.99786" lon="5.90534">
        <ele>671</ele>
        <time>2020-10-05T13:06:08.000Z</time>
      </trkpt>
      <trkpt lat="43.99785" lon="5.90533">
        <ele>671</ele>
        <time>2020-10-05T13:06:09.000Z</time>
      </trkpt>
      <trkpt lat="43.99784" lon="5.90533">
        <ele>671</ele>
        <time>2020-10-05T13:06:10.000Z</time>
      </trkpt>
      <trkpt lat="43.99783" lon="5.90532">
        <ele>671</ele>
        <time>2020-10-05T13:06:11.000Z</time>
      </trkpt>
      <trkpt lat="43.99782" lon="5.90532">
        <ele>671</ele>
        <time>2020-10-05T13:06:12.000Z</time>
      </trkpt>
      <trkpt lat="43.99781" lon="5.90531">
        <ele>671</ele>
        <time>2020-10-05T13:06:13.000Z</time>
      </trkpt>
      <trkpt lat="43.9978" lon="5.9053">
        <ele>671</ele>
        <time>2020-10-05T13:06:14.000Z</time>
      </trkpt>
      <trkpt lat="43.99779" lon="5.9053">
        <ele>671</ele>
        <time>2020-10-05T13:06:15.000Z</time>
      </trkpt>
      <trkpt lat="43.99778" lon="5.90529">
        <ele>671</ele>
        <time>2020-10-05T13:06:16.000Z</time>
      </trkpt>
      <trkpt lat="43.99777" lon="5.90528">
        <ele>671</ele>
        <time>2020-10-05T13:06:17.000Z</time>
      </trkpt>
      <trkpt lat="43.99776" lon="5.90527">
        <ele>671</ele>
        <time>2020-10-05T13:06:18.000Z</time>
      </trkpt>
      <trkpt lat="43.99775" lon="5.90526">
        <ele>671</ele>
        <time>2020-10-05T13:06:19.000Z</time>
      </trkpt>
      <trkpt lat="43.99774" lon="5.90525">
        <ele>671</ele>
        <time>2020-10-05T13:06:20.000Z</time>
      </trkpt>
      <trkpt lat="43.99773" lon="5.90524">
        <ele>671</ele>
        <time>2020-10-05T13:06:21.000Z</time>
      </trkpt>
      <trkpt lat="43.99772" lon="5.90523">
        <ele>671</ele>
        <time>2020-10-05T13:06:22.000Z</time>
      </trkpt>
      <trkpt lat="43.99771" lon="5.90522">
        <ele>671</ele>
        <time>2020-10-05T13:06:23.000Z</time>
      </trkpt>
      <trkpt lat="43.9977" lon="5.90521">
        <ele>671</ele>
        <time>2020-10-05T13:06:24.000Z</time>
      </trkpt>
      <trkpt lat="43.99769" lon="5.90521">
        <ele>671</ele>
        <time>2020-10-05T13:06:25.000Z</time>
      </trkpt>
      <trkpt lat="43.99767" lon="5.90521">
        <ele>671</ele>
        <time>2020-10-05T13:06:26.000Z</time>
      </trkpt>
      <trkpt lat="43.99766" lon="5.9052">
        <ele>671</ele>
        <time>2020-10-05T13:06:27.000Z</time>
      </trkpt>
      <trkpt lat="43.99765" lon="5.9052">
        <ele>671</ele>
        <time>2020-10-05T13:06:28.000Z</time>
      </trkpt>
      <trkpt lat="43.99764" lon="5.90519">
        <ele>672</ele>
        <time>2020-10-05T13:06:29.000Z</time>
      </trkpt>
      <trkpt lat="43.99763" lon="5.90519">
        <ele>672</ele>
        <time>2020-10-05T13:06:30.000Z</time>
      </trkpt>
      <trkpt lat="43.99762" lon="5.90519">
        <ele>672</ele>
        <time>2020-10-05T13:06:31.000Z</time>
      </trkpt>
      <trkpt lat="43.99761" lon="5.90518">
        <ele>672</ele>
        <time>2020-10-05T13:06:32.000Z</time>
      </trkpt>
      <trkpt lat="43.9976" lon="5.90518">
        <ele>672</ele>
        <time>2020-10-05T13:06:33.000Z</time>
      </trkpt>
      <trkpt lat="43.99758" lon="5.90517">
        <ele>672</ele>
        <time>2020-10-05T13:06:34.000Z</time>
      </trkpt>
      <trkpt lat="43.99757" lon="5.90517">
        <ele>672</ele>
        <time>2020-10-05T13:06:35.000Z</time>
      </trkpt>
      <trkpt lat="43.99756" lon="5.90516">
        <ele>672</ele>
        <time>2020-10-05T13:06:36.000Z</time>
      </trkpt>
      <trkpt lat="43.99755" lon="5.90516">
        <ele>672</ele>
        <time>2020-10-05T13:06:37.000Z</time>
      </trkpt>
      <trkpt lat="43.99754" lon="5.90516">
        <ele>672</ele>
        <time>2020-10-05T13:06:38.000Z</time>
      </trkpt>
      <trkpt lat="43.99752" lon="5.90516">
        <ele>672</ele>
        <time>2020-10-05T13:06:39.000Z</time>
      </trkpt>
      <trkpt lat="43.99751" lon="5.90517">
        <ele>672</ele>
        <time>2020-10-05T13:06:40.000Z</time>
      </trkpt>
      <trkpt lat="43.9975" lon="5.90517">
        <ele>672</ele>
        <time>2020-10-05T13:06:41.000Z</time>
      </trkpt>
      <trkpt lat="43.99749" lon="5.90518">
        <ele>672</ele>
        <time>2020-10-05T13:06:42.000Z</time>
      </trkpt>
      <trkpt lat="43.99748" lon="5.90519">
        <ele>672</ele>
        <time>2020-10-05T13:06:43.000Z</time>
      </trkpt>
      <trkpt lat="43.99746" lon="5.9052">
        <ele>672</ele>
        <time>2020-10-05T13:06:44.000Z</time>
      </trkpt>
      <trkpt lat="43.99745" lon="5.90521">
        <ele>672</ele>
        <time>2020-10-05T13:06:45.000Z</time>
      </trkpt>
      <trkpt lat="43.99744" lon="5.90522">
        <ele>672</ele>
        <time>2020-10-05T13:06:46.000Z</time>
      </trkpt>
      <trkpt lat="43.99743" lon="5.90523">
        <ele>672</ele>
        <time>2020-10-05T13:06:47.000Z</time>
      </trkpt>
      <trkpt lat="43.99742" lon="5.90523">
        <ele>673</ele>
        <time>2020-10-05T13:06:48.000Z</time>
      </trkpt>
      <trkpt lat="43.99741" lon="5.90524">
        <ele>673</ele>
        <time>2020-10-05T13:06:49.000Z</time>
      </trkpt>
      <trkpt lat="43.99739" lon="5.90523">
        <ele>673</ele>
        <time>2020-10-05T13:06:50.000Z</time>
      </trkpt>
      <trkpt lat="43.99738" lon="5.90523">
        <ele>673</ele>
        <time>2020-10-05T13:06:51.000Z</time>
      </trkpt>
      <trkpt lat="43.99737" lon="5.90523">
        <ele>673</ele>
        <time>2020-10-05T13:06:52.000Z</time>
      </trkpt>
      <trkpt lat="43.99736" lon="5.90522">
        <ele>673</ele>
        <time>2020-10-05T13:06:53.000Z</time>
      </trkpt>
      <trkpt lat="43.99735" lon="5.90522">
        <ele>673</ele>
        <time>2020-10-05T13:06:54.000Z</time>
      </trkpt>
      <trkpt lat="43.99734" lon="5.90522">
        <ele>673</ele>
        <time>2020-10-05T13:06:55.000Z</time>
      </trkpt>
      <trkpt lat="43.99732" lon="5.90522">
        <ele>673</ele>
        <time>2020-10-05T13:06:56.000Z</time>
      </trkpt>
      <trkpt lat="43.99731" lon="5.90522">
        <ele>674</ele>
        <time>2020-10-05T13:06:57.000Z</time>
      </trkpt>
      <trkpt lat="43.9973" lon="5.90522">
        <ele>674</ele>
        <time>2020-10-05T13:06:58.000Z</time>
      </trkpt>
      <trkpt lat="43.99728" lon="5.90522">
        <ele>674</ele>
        <time>2020-10-05T13:06:59.000Z</time>
      </trkpt>
      <trkpt lat="43.99727" lon="5.90522">
        <ele>674</ele>
        <time>2020-10-05T13:07:00.000Z</time>
      </trkpt>
      <trkpt lat="43.99726" lon="5.90522">
        <ele>674</ele>
        <time>2020-10-05T13:07:01.000Z</time>
      </trkpt>
      <trkpt lat="43.99725" lon="5.90522">
        <ele>674</ele>
        <time>2020-10-05T13:07:02.000Z</time>
      </trkpt>
      <trkpt lat="43.99724" lon="5.90522">
        <ele>674</ele>
        <time>2020-10-05T13:07:03.000Z</time>
      </trkpt>
      <trkpt lat="43.99723" lon="5.90522">
        <ele>674</ele>
        <time>2020-10-05T13:07:04.000Z</time>
      </trkpt>
      <trkpt lat="43.99722" lon="5.90522">
        <ele>674</ele>
        <time>2020-10-05T13:07:05.000Z</time>
      </trkpt>
      <trkpt lat="43.9972" lon="5.90522">
        <ele>674</ele>
        <time>2020-10-05T13:07:06.000Z</time>
      </trkpt>
      <trkpt lat="43.99719" lon="5.90522">
        <ele>674</ele>
        <time>2020-10-05T13:07:07.000Z</time>
      </trkpt>
      <trkpt lat="43.99718" lon="5.90522">
        <ele>674</ele>
        <time>2020-10-05T13:07:08.000Z</time>
      </trkpt>
      <trkpt lat="43.99717" lon="5.90521">
        <ele>674</ele>
        <time>2020-10-05T13:07:09.000Z</time>
      </trkpt>
      <trkpt lat="43.99715" lon="5.90521">
        <ele>674</ele>
        <time>2020-10-05T13:07:10.000Z</time>
      </trkpt>
      <trkpt lat="43.99714" lon="5.90521">
        <ele>674</ele>
        <time>2020-10-05T13:07:11.000Z</time>
      </trkpt>
      <trkpt lat="43.99713" lon="5.90521">
        <ele>673</ele>
        <time>2020-10-05T13:07:12.000Z</time>
      </trkpt>
      <trkpt lat="43.99712" lon="5.90521">
        <ele>673</ele>
        <time>2020-10-05T13:07:13.000Z</time>
      </trkpt>
      <trkpt lat="43.99711" lon="5.90521">
        <ele>673</ele>
        <time>2020-10-05T13:07:14.000Z</time>
      </trkpt>
      <trkpt lat="43.9971" lon="5.9052">
        <ele>673</ele>
        <time>2020-10-05T13:07:15.000Z</time>
      </trkpt>
      <trkpt lat="43.99708" lon="5.9052">
        <ele>673</ele>
        <time>2020-10-05T13:07:16.000Z</time>
      </trkpt>
      <trkpt lat="43.99707" lon="5.90519">
        <ele>673</ele>
        <time>2020-10-05T13:07:17.000Z</time>
      </trkpt>
      <trkpt lat="43.99706" lon="5.9052">
        <ele>673</ele>
        <time>2020-10-05T13:07:18.000Z</time>
      </trkpt>
      <trkpt lat="43.99705" lon="5.9052">
        <ele>673</ele>
        <time>2020-10-05T13:07:19.000Z</time>
      </trkpt>
      <trkpt lat="43.99704" lon="5.9052">
        <ele>673</ele>
        <time>2020-10-05T13:07:20.000Z</time>
      </trkpt>
      <trkpt lat="43.99703" lon="5.9052">
        <ele>673</ele>
        <time>2020-10-05T13:07:21.000Z</time>
      </trkpt>
      <trkpt lat="43.99702" lon="5.9052">
        <ele>673</ele>
        <time>2020-10-05T13:07:22.000Z</time>
      </trkpt>
      <trkpt lat="43.99701" lon="5.9052">
        <ele>673</ele>
        <time>2020-10-05T13:07:23.000Z</time>
      </trkpt>
      <trkpt lat="43.997" lon="5.90521">
        <ele>673</ele>
        <time>2020-10-05T13:07:24.000Z</time>
      </trkpt>
      <trkpt lat="43.99699" lon="5.90521">
        <ele>673</ele>
        <time>2020-10-05T13:07:25.000Z</time>
      </trkpt>
      <trkpt lat="43.99698" lon="5.90521">
        <ele>673</ele>
        <time>2020-10-05T13:07:26.000Z</time>
      </trkpt>
      <trkpt lat="43.99697" lon="5.90522">
        <ele>672</ele>
        <time>2020-10-05T13:07:27.000Z</time>
      </trkpt>
      <trkpt lat="43.99696" lon="5.90523">
        <ele>672</ele>
        <time>2020-10-05T13:07:28.000Z</time>
      </trkpt>
      <trkpt lat="43.99695" lon="5.90525">
        <ele>672</ele>
        <time>2020-10-05T13:07:29.000Z</time>
      </trkpt>
      <trkpt lat="43.99694" lon="5.90527">
        <ele>671</ele>
        <time>2020-10-05T13:07:30.000Z</time>
      </trkpt>
      <trkpt lat="43.99693" lon="5.90528">
        <ele>671</ele>
        <time>2020-10-05T13:07:31.000Z</time>
      </trkpt>
      <trkpt lat="43.99692" lon="5.9053">
        <ele>671</ele>
        <time>2020-10-05T13:07:32.000Z</time>
      </trkpt>
      <trkpt lat="43.99692" lon="5.90531">
        <ele>670</ele>
        <time>2020-10-05T13:07:33.000Z</time>
      </trkpt>
      <trkpt lat="43.99691" lon="5.90533">
        <ele>670</ele>
        <time>2020-10-05T13:07:34.000Z</time>
      </trkpt>
      <trkpt lat="43.9969" lon="5.90534">
        <ele>669</ele>
        <time>2020-10-05T13:07:35.000Z</time>
      </trkpt>
      <trkpt lat="43.99689" lon="5.90536">
        <ele>669</ele>
        <time>2020-10-05T13:07:36.000Z</time>
      </trkpt>
      <trkpt lat="43.99688" lon="5.90537">
        <ele>669</ele>
        <time>2020-10-05T13:07:37.000Z</time>
      </trkpt>
      <trkpt lat="43.99688" lon="5.90539">
        <ele>668</ele>
        <time>2020-10-05T13:07:38.000Z</time>
      </trkpt>
      <trkpt lat="43.99687" lon="5.9054">
        <ele>668</ele>
        <time>2020-10-05T13:07:39.000Z</time>
      </trkpt>
      <trkpt lat="43.99686" lon="5.90542">
        <ele>668</ele>
        <time>2020-10-05T13:07:40.000Z</time>
      </trkpt>
      <trkpt lat="43.99685" lon="5.90543">
        <ele>667</ele>
        <time>2020-10-05T13:07:41.000Z</time>
      </trkpt>
      <trkpt lat="43.99684" lon="5.90545">
        <ele>667</ele>
        <time>2020-10-05T13:07:42.000Z</time>
      </trkpt>
      <trkpt lat="43.99684" lon="5.90547">
        <ele>667</ele>
        <time>2020-10-05T13:07:43.000Z</time>
      </trkpt>
      <trkpt lat="43.99683" lon="5.90549">
        <ele>667</ele>
        <time>2020-10-05T13:07:44.000Z</time>
      </trkpt>
      <trkpt lat="43.99683" lon="5.90551">
        <ele>667</ele>
        <time>2020-10-05T13:07:45.000Z</time>
      </trkpt>
      <trkpt lat="43.99682" lon="5.90552">
        <ele>667</ele>
        <time>2020-10-05T13:07:46.000Z</time>
      </trkpt>
      <trkpt lat="43.99682" lon="5.90554">
        <ele>667</ele>
        <time>2020-10-05T13:07:47.000Z</time>
      </trkpt>
      <trkpt lat="43.99681" lon="5.90556">
        <ele>666</ele>
        <time>2020-10-05T13:07:48.000Z</time>
      </trkpt>
      <trkpt lat="43.99681" lon="5.90558">
        <ele>666</ele>
        <time>2020-10-05T13:07:49.000Z</time>
      </trkpt>
      <trkpt lat="43.99681" lon="5.9056">
        <ele>666</ele>
        <time>2020-10-05T13:07:50.000Z</time>
      </trkpt>
      <trkpt lat="43.99681" lon="5.90562">
        <ele>666</ele>
        <time>2020-10-05T13:07:51.000Z</time>
      </trkpt>
      <trkpt lat="43.9968" lon="5.90564">
        <ele>666</ele>
        <time>2020-10-05T13:07:52.000Z</time>
      </trkpt>
      <trkpt lat="43.9968" lon="5.90566">
        <ele>666</ele>
        <time>2020-10-05T13:07:53.000Z</time>
      </trkpt>
      <trkpt lat="43.9968" lon="5.90567">
        <ele>666</ele>
        <time>2020-10-05T13:07:54.000Z</time>
      </trkpt>
      <trkpt lat="43.99679" lon="5.90569">
        <ele>665</ele>
        <time>2020-10-05T13:07:55.000Z</time>
      </trkpt>
      <trkpt lat="43.99679" lon="5.90571">
        <ele>665</ele>
        <time>2020-10-05T13:07:56.000Z</time>
      </trkpt>
      <trkpt lat="43.99678" lon="5.90572">
        <ele>665</ele>
        <time>2020-10-05T13:07:57.000Z</time>
      </trkpt>
      <trkpt lat="43.99677" lon="5.90574">
        <ele>665</ele>
        <time>2020-10-05T13:07:58.000Z</time>
      </trkpt>
      <trkpt lat="43.99676" lon="5.90575">
        <ele>664</ele>
        <time>2020-10-05T13:07:59.000Z</time>
      </trkpt>
      <trkpt lat="43.99676" lon="5.90576">
        <ele>664</ele>
        <time>2020-10-05T13:08:00.000Z</time>
      </trkpt>
      <trkpt lat="43.99675" lon="5.90577">
        <ele>664</ele>
        <time>2020-10-05T13:08:01.000Z</time>
      </trkpt>
      <trkpt lat="43.99674" lon="5.90578">
        <ele>664</ele>
        <time>2020-10-05T13:08:02.000Z</time>
      </trkpt>
      <trkpt lat="43.99673" lon="5.90579">
        <ele>664</ele>
        <time>2020-10-05T13:08:03.000Z</time>
      </trkpt>
      <trkpt lat="43.99673" lon="5.9058">
        <ele>664</ele>
        <time>2020-10-05T13:08:04.000Z</time>
      </trkpt>
      <trkpt lat="43.99672" lon="5.90581">
        <ele>664</ele>
        <time>2020-10-05T13:08:05.000Z</time>
      </trkpt>
      <trkpt lat="43.99671" lon="5.90582">
        <ele>664</ele>
        <time>2020-10-05T13:08:06.000Z</time>
      </trkpt>
      <trkpt lat="43.9967" lon="5.90583">
        <ele>664</ele>
        <time>2020-10-05T13:08:07.000Z</time>
      </trkpt>
      <trkpt lat="43.99669" lon="5.90585">
        <ele>663</ele>
        <time>2020-10-05T13:08:08.000Z</time>
      </trkpt>
      <trkpt lat="43.99669" lon="5.90586">
        <ele>663</ele>
        <time>2020-10-05T13:08:09.000Z</time>
      </trkpt>
      <trkpt lat="43.99667" lon="5.90587">
        <ele>663</ele>
        <time>2020-10-05T13:08:10.000Z</time>
      </trkpt>
      <trkpt lat="43.99666" lon="5.90588">
        <ele>663</ele>
        <time>2020-10-05T13:08:11.000Z</time>
      </trkpt>
      <trkpt lat="43.99665" lon="5.90588">
        <ele>663</ele>
        <time>2020-10-05T13:08:12.000Z</time>
      </trkpt>
      <trkpt lat="43.99665" lon="5.90589">
        <ele>663</ele>
        <time>2020-10-05T13:08:13.000Z</time>
      </trkpt>
      <trkpt lat="43.99664" lon="5.9059">
        <ele>663</ele>
        <time>2020-10-05T13:08:14.000Z</time>
      </trkpt>
      <trkpt lat="43.99663" lon="5.90591">
        <ele>663</ele>
        <time>2020-10-05T13:08:15.000Z</time>
      </trkpt>
      <trkpt lat="43.99662" lon="5.90592">
        <ele>663</ele>
        <time>2020-10-05T13:08:16.000Z</time>
      </trkpt>
      <trkpt lat="43.99662" lon="5.90593">
        <ele>663</ele>
        <time>2020-10-05T13:08:17.000Z</time>
      </trkpt>
      <trkpt lat="43.99661" lon="5.90594">
        <ele>663</ele>
        <time>2020-10-05T13:08:18.000Z</time>
      </trkpt>
      <trkpt lat="43.9966" lon="5.90596">
        <ele>663</ele>
        <time>2020-10-05T13:08:19.000Z</time>
      </trkpt>
      <trkpt lat="43.9966" lon="5.90597">
        <ele>663</ele>
        <time>2020-10-05T13:08:20.000Z</time>
      </trkpt>
      <trkpt lat="43.99659" lon="5.90599">
        <ele>663</ele>
        <time>2020-10-05T13:08:21.000Z</time>
      </trkpt>
      <trkpt lat="43.99659" lon="5.90601">
        <ele>663</ele>
        <time>2020-10-05T13:08:22.000Z</time>
      </trkpt>
      <trkpt lat="43.99659" lon="5.90602">
        <ele>663</ele>
        <time>2020-10-05T13:08:23.000Z</time>
      </trkpt>
      <trkpt lat="43.99658" lon="5.90604">
        <ele>663</ele>
        <time>2020-10-05T13:08:24.000Z</time>
      </trkpt>
      <trkpt lat="43.99658" lon="5.90605">
        <ele>663</ele>
        <time>2020-10-05T13:08:25.000Z</time>
      </trkpt>
      <trkpt lat="43.99658" lon="5.90607">
        <ele>663</ele>
        <time>2020-10-05T13:08:26.000Z</time>
      </trkpt>
      <trkpt lat="43.99658" lon="5.90608">
        <ele>663</ele>
        <time>2020-10-05T13:08:27.000Z</time>
      </trkpt>
      <trkpt lat="43.99658" lon="5.9061">
        <ele>663</ele>
        <time>2020-10-05T13:08:28.000Z</time>
      </trkpt>
      <trkpt lat="43.99658" lon="5.90611">
        <ele>663</ele>
        <time>2020-10-05T13:08:29.000Z</time>
      </trkpt>
      <trkpt lat="43.99658" lon="5.90612">
        <ele>663</ele>
        <time>2020-10-05T13:08:30.000Z</time>
      </trkpt>
      <trkpt lat="43.99658" lon="5.90614">
        <ele>663</ele>
        <time>2020-10-05T13:08:31.000Z</time>
      </trkpt>
      <trkpt lat="43.99657" lon="5.90615">
        <ele>663</ele>
        <time>2020-10-05T13:08:32.000Z</time>
      </trkpt>
      <trkpt lat="43.99657" lon="5.90616">
        <ele>663</ele>
        <time>2020-10-05T13:08:33.000Z</time>
      </trkpt>
      <trkpt lat="43.99657" lon="5.90618">
        <ele>663</ele>
        <time>2020-10-05T13:08:34.000Z</time>
      </trkpt>
      <trkpt lat="43.99657" lon="5.90619">
        <ele>663</ele>
        <time>2020-10-05T13:08:35.000Z</time>
      </trkpt>
      <trkpt lat="43.99657" lon="5.9062">
        <ele>663</ele>
        <time>2020-10-05T13:08:36.000Z</time>
      </trkpt>
      <trkpt lat="43.99658" lon="5.90621">
        <ele>663</ele>
        <time>2020-10-05T13:08:37.000Z</time>
      </trkpt>
      <trkpt lat="43.99658" lon="5.90623">
        <ele>663</ele>
        <time>2020-10-05T13:08:38.000Z</time>
      </trkpt>
      <trkpt lat="43.99658" lon="5.90624">
        <ele>663</ele>
        <time>2020-10-05T13:08:39.000Z</time>
      </trkpt>
      <trkpt lat="43.99658" lon="5.90626">
        <ele>663</ele>
        <time>2020-10-05T13:08:40.000Z</time>
      </trkpt>
      <trkpt lat="43.99658" lon="5.90627">
        <ele>663</ele>
        <time>2020-10-05T13:08:41.000Z</time>
      </trkpt>
      <trkpt lat="43.99659" lon="5.90628">
        <ele>663</ele>
        <time>2020-10-05T13:08:42.000Z</time>
      </trkpt>
      <trkpt lat="43.99659" lon="5.9063">
        <ele>663</ele>
        <time>2020-10-05T13:08:43.000Z</time>
      </trkpt>
      <trkpt lat="43.99659" lon="5.90632">
        <ele>663</ele>
        <time>2020-10-05T13:08:44.000Z</time>
      </trkpt>
      <trkpt lat="43.99659" lon="5.90633">
        <ele>663</ele>
        <time>2020-10-05T13:08:45.000Z</time>
      </trkpt>
      <trkpt lat="43.9966" lon="5.90635">
        <ele>663</ele>
        <time>2020-10-05T13:08:46.000Z</time>
      </trkpt>
      <trkpt lat="43.9966" lon="5.90637">
        <ele>663</ele>
        <time>2020-10-05T13:08:47.000Z</time>
      </trkpt>
      <trkpt lat="43.9966" lon="5.90638">
        <ele>663</ele>
        <time>2020-10-05T13:08:48.000Z</time>
      </trkpt>
      <trkpt lat="43.9966" lon="5.90639">
        <ele>663</ele>
        <time>2020-10-05T13:08:49.000Z</time>
      </trkpt>
      <trkpt lat="43.99661" lon="5.90641">
        <ele>663</ele>
        <time>2020-10-05T13:08:50.000Z</time>
      </trkpt>
      <trkpt lat="43.99661" lon="5.90642">
        <ele>663</ele>
        <time>2020-10-05T13:08:51.000Z</time>
      </trkpt>
      <trkpt lat="43.99661" lon="5.90644">
        <ele>662</ele>
        <time>2020-10-05T13:08:52.000Z</time>
      </trkpt>
      <trkpt lat="43.99662" lon="5.90646">
        <ele>662</ele>
        <time>2020-10-05T13:08:53.000Z</time>
      </trkpt>
      <trkpt lat="43.99663" lon="5.90647">
        <ele>662</ele>
        <time>2020-10-05T13:08:54.000Z</time>
      </trkpt>
      <trkpt lat="43.99663" lon="5.90648">
        <ele>663</ele>
        <time>2020-10-05T13:08:55.000Z</time>
      </trkpt>
      <trkpt lat="43.99664" lon="5.90649">
        <ele>662</ele>
        <time>2020-10-05T13:08:56.000Z</time>
      </trkpt>
      <trkpt lat="43.99664" lon="5.90651">
        <ele>662</ele>
        <time>2020-10-05T13:08:57.000Z</time>
      </trkpt>
      <trkpt lat="43.99664" lon="5.90652">
        <ele>663</ele>
        <time>2020-10-05T13:08:58.000Z</time>
      </trkpt>
      <trkpt lat="43.99665" lon="5.90653">
        <ele>663</ele>
        <time>2020-10-05T13:08:59.000Z</time>
      </trkpt>
      <trkpt lat="43.99665" lon="5.90654">
        <ele>663</ele>
        <time>2020-10-05T13:09:00.000Z</time>
      </trkpt>
      <trkpt lat="43.99666" lon="5.90655">
        <ele>663</ele>
        <time>2020-10-05T13:09:01.000Z</time>
      </trkpt>
      <trkpt lat="43.99666" lon="5.90657">
        <ele>663</ele>
        <time>2020-10-05T13:09:02.000Z</time>
      </trkpt>
      <trkpt lat="43.99667" lon="5.90658">
        <ele>663</ele>
        <time>2020-10-05T13:09:03.000Z</time>
      </trkpt>
      <trkpt lat="43.99667" lon="5.90659">
        <ele>663</ele>
        <time>2020-10-05T13:09:04.000Z</time>
      </trkpt>
      <trkpt lat="43.99667" lon="5.90661">
        <ele>662</ele>
        <time>2020-10-05T13:09:05.000Z</time>
      </trkpt>
      <trkpt lat="43.99667" lon="5.90662">
        <ele>662</ele>
        <time>2020-10-05T13:09:06.000Z</time>
      </trkpt>
      <trkpt lat="43.99666" lon="5.90664">
        <ele>662</ele>
        <time>2020-10-05T13:09:07.000Z</time>
      </trkpt>
      <trkpt lat="43.99666" lon="5.90666">
        <ele>662</ele>
        <time>2020-10-05T13:09:08.000Z</time>
      </trkpt>
      <trkpt lat="43.99665" lon="5.90668">
        <ele>661</ele>
        <time>2020-10-05T13:09:09.000Z</time>
      </trkpt>
      <trkpt lat="43.99665" lon="5.90669">
        <ele>661</ele>
        <time>2020-10-05T13:09:10.000Z</time>
      </trkpt>
      <trkpt lat="43.99664" lon="5.9067">
        <ele>661</ele>
        <time>2020-10-05T13:09:11.000Z</time>
      </trkpt>
      <trkpt lat="43.99664" lon="5.90671">
        <ele>660</ele>
        <time>2020-10-05T13:09:12.000Z</time>
      </trkpt>
      <trkpt lat="43.99663" lon="5.90672">
        <ele>660</ele>
        <time>2020-10-05T13:09:13.000Z</time>
      </trkpt>
      <trkpt lat="43.99662" lon="5.90673">
        <ele>660</ele>
        <time>2020-10-05T13:09:14.000Z</time>
      </trkpt>
      <trkpt lat="43.99661" lon="5.90674">
        <ele>660</ele>
        <time>2020-10-05T13:09:15.000Z</time>
      </trkpt>
      <trkpt lat="43.9966" lon="5.90675">
        <ele>659</ele>
        <time>2020-10-05T13:09:16.000Z</time>
      </trkpt>
      <trkpt lat="43.99659" lon="5.90675">
        <ele>659</ele>
        <time>2020-10-05T13:09:17.000Z</time>
      </trkpt>
      <trkpt lat="43.99658" lon="5.90676">
        <ele>659</ele>
        <time>2020-10-05T13:09:18.000Z</time>
      </trkpt>
      <trkpt lat="43.99657" lon="5.90677">
        <ele>659</ele>
        <time>2020-10-05T13:09:19.000Z</time>
      </trkpt>
      <trkpt lat="43.99657" lon="5.90677">
        <ele>658</ele>
        <time>2020-10-05T13:09:20.000Z</time>
      </trkpt>
      <trkpt lat="43.99656" lon="5.90678">
        <ele>658</ele>
        <time>2020-10-05T13:09:21.000Z</time>
      </trkpt>
      <trkpt lat="43.99655" lon="5.90679">
        <ele>658</ele>
        <time>2020-10-05T13:09:22.000Z</time>
      </trkpt>
      <trkpt lat="43.99654" lon="5.9068">
        <ele>658</ele>
        <time>2020-10-05T13:09:23.000Z</time>
      </trkpt>
      <trkpt lat="43.99653" lon="5.9068">
        <ele>658</ele>
        <time>2020-10-05T13:09:24.000Z</time>
      </trkpt>
      <trkpt lat="43.99652" lon="5.90681">
        <ele>657</ele>
        <time>2020-10-05T13:09:25.000Z</time>
      </trkpt>
      <trkpt lat="43.99651" lon="5.90682">
        <ele>657</ele>
        <time>2020-10-05T13:09:26.000Z</time>
      </trkpt>
      <trkpt lat="43.9965" lon="5.90682">
        <ele>657</ele>
        <time>2020-10-05T13:09:27.000Z</time>
      </trkpt>
      <trkpt lat="43.99649" lon="5.90683">
        <ele>657</ele>
        <time>2020-10-05T13:09:28.000Z</time>
      </trkpt>
      <trkpt lat="43.99648" lon="5.90684">
        <ele>657</ele>
        <time>2020-10-05T13:09:29.000Z</time>
      </trkpt>
      <trkpt lat="43.99647" lon="5.90684">
        <ele>657</ele>
        <time>2020-10-05T13:09:30.000Z</time>
      </trkpt>
      <trkpt lat="43.99646" lon="5.90684">
        <ele>657</ele>
        <time>2020-10-05T13:09:31.000Z</time>
      </trkpt>
      <trkpt lat="43.99645" lon="5.90685">
        <ele>657</ele>
        <time>2020-10-05T13:09:32.000Z</time>
      </trkpt>
      <trkpt lat="43.99644" lon="5.90685">
        <ele>656</ele>
        <time>2020-10-05T13:09:33.000Z</time>
      </trkpt>
      <trkpt lat="43.99643" lon="5.90685">
        <ele>656</ele>
        <time>2020-10-05T13:09:34.000Z</time>
      </trkpt>
      <trkpt lat="43.99642" lon="5.90686">
        <ele>656</ele>
        <time>2020-10-05T13:09:35.000Z</time>
      </trkpt>
      <trkpt lat="43.99641" lon="5.90686">
        <ele>656</ele>
        <time>2020-10-05T13:09:36.000Z</time>
      </trkpt>
      <trkpt lat="43.9964" lon="5.90687">
        <ele>656</ele>
        <time>2020-10-05T13:09:37.000Z</time>
      </trkpt>
      <trkpt lat="43.99639" lon="5.90687">
        <ele>656</ele>
        <time>2020-10-05T13:09:38.000Z</time>
      </trkpt>
      <trkpt lat="43.99638" lon="5.90688">
        <ele>656</ele>
        <time>2020-10-05T13:09:39.000Z</time>
      </trkpt>
      <trkpt lat="43.99638" lon="5.90688">
        <ele>656</ele>
        <time>2020-10-05T13:09:40.000Z</time>
      </trkpt>
      <trkpt lat="43.99637" lon="5.90689">
        <ele>656</ele>
        <time>2020-10-05T13:09:41.000Z</time>
      </trkpt>
      <trkpt lat="43.99636" lon="5.9069">
        <ele>655</ele>
        <time>2020-10-05T13:09:42.000Z</time>
      </trkpt>
      <trkpt lat="43.99635" lon="5.9069">
        <ele>655</ele>
        <time>2020-10-05T13:09:43.000Z</time>
      </trkpt>
      <trkpt lat="43.99635" lon="5.90691">
        <ele>655</ele>
        <time>2020-10-05T13:09:44.000Z</time>
      </trkpt>
      <trkpt lat="43.99634" lon="5.90691">
        <ele>655</ele>
        <time>2020-10-05T13:09:45.000Z</time>
      </trkpt>
      <trkpt lat="43.99634" lon="5.90691">
        <ele>655</ele>
        <time>2020-10-05T13:09:46.000Z</time>
      </trkpt>
      <trkpt lat="43.99634" lon="5.90692">
        <ele>655</ele>
        <time>2020-10-05T13:09:47.000Z</time>
      </trkpt>
      <trkpt lat="43.99634" lon="5.90692">
        <ele>655</ele>
        <time>2020-10-05T13:09:48.000Z</time>
      </trkpt>
      <trkpt lat="43.99634" lon="5.90692">
        <ele>655</ele>
        <time>2020-10-05T13:09:49.000Z</time>
      </trkpt>
      <trkpt lat="43.99634" lon="5.90692">
        <ele>654</ele>
        <time>2020-10-05T13:09:50.000Z</time>
      </trkpt>
      <trkpt lat="43.99634" lon="5.90692">
        <ele>654</ele>
        <time>2020-10-05T13:09:51.000Z</time>
      </trkpt>
      <trkpt lat="43.99633" lon="5.90692">
        <ele>654</ele>
        <time>2020-10-05T13:09:52.000Z</time>
      </trkpt>
      <trkpt lat="43.99633" lon="5.90692">
        <ele>654</ele>
        <time>2020-10-05T13:09:53.000Z</time>
      </trkpt>
      <trkpt lat="43.99633" lon="5.90692">
        <ele>654</ele>
        <time>2020-10-05T13:09:54.000Z</time>
      </trkpt>
      <trkpt lat="43.99633" lon="5.90692">
        <ele>654</ele>
        <time>2020-10-05T13:09:55.000Z</time>
      </trkpt>
      <trkpt lat="43.99632" lon="5.90692">
        <ele>654</ele>
        <time>2020-10-05T13:09:56.000Z</time>
      </trkpt>
      <trkpt lat="43.99631" lon="5.90691">
        <ele>654</ele>
        <time>2020-10-05T13:09:57.000Z</time>
      </trkpt>
      <trkpt lat="43.9963" lon="5.90691">
        <ele>654</ele>
        <time>2020-10-05T13:09:58.000Z</time>
      </trkpt>
      <trkpt lat="43.99629" lon="5.9069">
        <ele>654</ele>
        <time>2020-10-05T13:09:59.000Z</time>
      </trkpt>
      <trkpt lat="43.99628" lon="5.9069">
        <ele>654</ele>
        <time>2020-10-05T13:10:00.000Z</time>
      </trkpt>
      <trkpt lat="43.99627" lon="5.90689">
        <ele>654</ele>
        <time>2020-10-05T13:10:01.000Z</time>
      </trkpt>
      <trkpt lat="43.99626" lon="5.90689">
        <ele>654</ele>
        <time>2020-10-05T13:10:02.000Z</time>
      </trkpt>
      <trkpt lat="43.99625" lon="5.90688">
        <ele>654</ele>
        <time>2020-10-05T13:10:03.000Z</time>
      </trkpt>
      <trkpt lat="43.99624" lon="5.90688">
        <ele>654</ele>
        <time>2020-10-05T13:10:04.000Z</time>
      </trkpt>
      <trkpt lat="43.99623" lon="5.90687">
        <ele>654</ele>
        <time>2020-10-05T13:10:05.000Z</time>
      </trkpt>
      <trkpt lat="43.99622" lon="5.90687">
        <ele>654</ele>
        <time>2020-10-05T13:10:06.000Z</time>
      </trkpt>
      <trkpt lat="43.99621" lon="5.90686">
        <ele>654</ele>
        <time>2020-10-05T13:10:07.000Z</time>
      </trkpt>
      <trkpt lat="43.9962" lon="5.90685">
        <ele>654</ele>
        <time>2020-10-05T13:10:08.000Z</time>
      </trkpt>
      <trkpt lat="43.99619" lon="5.90684">
        <ele>654</ele>
        <time>2020-10-05T13:10:09.000Z</time>
      </trkpt>
      <trkpt lat="43.99618" lon="5.90684">
        <ele>654</ele>
        <time>2020-10-05T13:10:10.000Z</time>
      </trkpt>
      <trkpt lat="43.99616" lon="5.90683">
        <ele>654</ele>
        <time>2020-10-05T13:10:11.000Z</time>
      </trkpt>
      <trkpt lat="43.99615" lon="5.90682">
        <ele>654</ele>
        <time>2020-10-05T13:10:12.000Z</time>
      </trkpt>
      <trkpt lat="43.99615" lon="5.90681">
        <ele>654</ele>
        <time>2020-10-05T13:10:13.000Z</time>
      </trkpt>
      <trkpt lat="43.99614" lon="5.9068">
        <ele>654</ele>
        <time>2020-10-05T13:10:14.000Z</time>
      </trkpt>
      <trkpt lat="43.99613" lon="5.90679">
        <ele>654</ele>
        <time>2020-10-05T13:10:15.000Z</time>
      </trkpt>
      <trkpt lat="43.99612" lon="5.90678">
        <ele>654</ele>
        <time>2020-10-05T13:10:16.000Z</time>
      </trkpt>
      <trkpt lat="43.9961" lon="5.90677">
        <ele>654</ele>
        <time>2020-10-05T13:10:17.000Z</time>
      </trkpt>
      <trkpt lat="43.9961" lon="5.90676">
        <ele>654</ele>
        <time>2020-10-05T13:10:18.000Z</time>
      </trkpt>
      <trkpt lat="43.99609" lon="5.90676">
        <ele>654</ele>
        <time>2020-10-05T13:10:19.000Z</time>
      </trkpt>
      <trkpt lat="43.99607" lon="5.90674">
        <ele>654</ele>
        <time>2020-10-05T13:10:20.000Z</time>
      </trkpt>
      <trkpt lat="43.99606" lon="5.90673">
        <ele>654</ele>
        <time>2020-10-05T13:10:21.000Z</time>
      </trkpt>
      <trkpt lat="43.99606" lon="5.90672">
        <ele>654</ele>
        <time>2020-10-05T13:10:22.000Z</time>
      </trkpt>
      <trkpt lat="43.99605" lon="5.90671">
        <ele>654</ele>
        <time>2020-10-05T13:10:23.000Z</time>
      </trkpt>
      <trkpt lat="43.99603" lon="5.9067">
        <ele>654</ele>
        <time>2020-10-05T13:10:24.000Z</time>
      </trkpt>
      <trkpt lat="43.99603" lon="5.90669">
        <ele>654</ele>
        <time>2020-10-05T13:10:25.000Z</time>
      </trkpt>
      <trkpt lat="43.99602" lon="5.90668">
        <ele>654</ele>
        <time>2020-10-05T13:10:26.000Z</time>
      </trkpt>
      <trkpt lat="43.99601" lon="5.90667">
        <ele>654</ele>
        <time>2020-10-05T13:10:27.000Z</time>
      </trkpt>
      <trkpt lat="43.99601" lon="5.90667">
        <ele>654</ele>
        <time>2020-10-05T13:10:28.000Z</time>
      </trkpt>
      <trkpt lat="43.996" lon="5.90666">
        <ele>654</ele>
        <time>2020-10-05T13:10:29.000Z</time>
      </trkpt>
      <trkpt lat="43.99599" lon="5.90665">
        <ele>654</ele>
        <time>2020-10-05T13:10:30.000Z</time>
      </trkpt>
      <trkpt lat="43.99598" lon="5.90665">
        <ele>654</ele>
        <time>2020-10-05T13:10:31.000Z</time>
      </trkpt>
      <trkpt lat="43.99598" lon="5.90664">
        <ele>654</ele>
        <time>2020-10-05T13:10:32.000Z</time>
      </trkpt>
      <trkpt lat="43.99597" lon="5.90663">
        <ele>654</ele>
        <time>2020-10-05T13:10:33.000Z</time>
      </trkpt>
      <trkpt lat="43.99596" lon="5.90662">
        <ele>654</ele>
        <time>2020-10-05T13:10:34.000Z</time>
      </trkpt>
      <trkpt lat="43.99596" lon="5.90661">
        <ele>654</ele>
        <time>2020-10-05T13:10:35.000Z</time>
      </trkpt>
      <trkpt lat="43.99595" lon="5.9066">
        <ele>654</ele>
        <time>2020-10-05T13:10:36.000Z</time>
      </trkpt>
      <trkpt lat="43.99595" lon="5.90659">
        <ele>654</ele>
        <time>2020-10-05T13:10:37.000Z</time>
      </trkpt>
      <trkpt lat="43.99594" lon="5.90657">
        <ele>654</ele>
        <time>2020-10-05T13:10:38.000Z</time>
      </trkpt>
      <trkpt lat="43.99593" lon="5.90656">
        <ele>654</ele>
        <time>2020-10-05T13:10:39.000Z</time>
      </trkpt>
      <trkpt lat="43.99592" lon="5.90655">
        <ele>654</ele>
        <time>2020-10-05T13:10:40.000Z</time>
      </trkpt>
      <trkpt lat="43.99592" lon="5.90654">
        <ele>654</ele>
        <time>2020-10-05T13:10:41.000Z</time>
      </trkpt>
      <trkpt lat="43.99591" lon="5.90654">
        <ele>655</ele>
        <time>2020-10-05T13:10:42.000Z</time>
      </trkpt>
      <trkpt lat="43.99591" lon="5.90653">
        <ele>655</ele>
        <time>2020-10-05T13:10:43.000Z</time>
      </trkpt>
      <trkpt lat="43.9959" lon="5.90652">
        <ele>655</ele>
        <time>2020-10-05T13:10:44.000Z</time>
      </trkpt>
      <trkpt lat="43.99589" lon="5.90651">
        <ele>654</ele>
        <time>2020-10-05T13:10:45.000Z</time>
      </trkpt>
      <trkpt lat="43.99589" lon="5.9065">
        <ele>654</ele>
        <time>2020-10-05T13:10:46.000Z</time>
      </trkpt>
      <trkpt lat="43.99588" lon="5.90649">
        <ele>654</ele>
        <time>2020-10-05T13:10:47.000Z</time>
      </trkpt>
      <trkpt lat="43.99588" lon="5.90648">
        <ele>654</ele>
        <time>2020-10-05T13:10:48.000Z</time>
      </trkpt>
      <trkpt lat="43.99587" lon="5.90647">
        <ele>654</ele>
        <time>2020-10-05T13:10:49.000Z</time>
      </trkpt>
      <trkpt lat="43.99586" lon="5.90646">
        <ele>654</ele>
        <time>2020-10-05T13:10:50.000Z</time>
      </trkpt>
      <trkpt lat="43.99585" lon="5.90645">
        <ele>654</ele>
        <time>2020-10-05T13:10:51.000Z</time>
      </trkpt>
      <trkpt lat="43.99585" lon="5.90644">
        <ele>654</ele>
        <time>2020-10-05T13:10:52.000Z</time>
      </trkpt>
      <trkpt lat="43.99584" lon="5.90643">
        <ele>654</ele>
        <time>2020-10-05T13:10:53.000Z</time>
      </trkpt>
      <trkpt lat="43.99583" lon="5.90642">
        <ele>654</ele>
        <time>2020-10-05T13:10:54.000Z</time>
      </trkpt>
      <trkpt lat="43.99582" lon="5.90641">
        <ele>655</ele>
        <time>2020-10-05T13:10:55.000Z</time>
      </trkpt>
      <trkpt lat="43.99581" lon="5.9064">
        <ele>655</ele>
        <time>2020-10-05T13:10:56.000Z</time>
      </trkpt>
      <trkpt lat="43.99581" lon="5.90639">
        <ele>655</ele>
        <time>2020-10-05T13:10:57.000Z</time>
      </trkpt>
      <trkpt lat="43.9958" lon="5.90639">
        <ele>655</ele>
        <time>2020-10-05T13:10:58.000Z</time>
      </trkpt>
      <trkpt lat="43.99579" lon="5.90638">
        <ele>655</ele>
        <time>2020-10-05T13:10:59.000Z</time>
      </trkpt>
      <trkpt lat="43.99578" lon="5.90637">
        <ele>655</ele>
        <time>2020-10-05T13:11:00.000Z</time>
      </trkpt>
      <trkpt lat="43.99577" lon="5.90636">
        <ele>655</ele>
        <time>2020-10-05T13:11:01.000Z</time>
      </trkpt>
      <trkpt lat="43.99577" lon="5.90635">
        <ele>655</ele>
        <time>2020-10-05T13:11:02.000Z</time>
      </trkpt>
      <trkpt lat="43.99576" lon="5.90633">
        <ele>655</ele>
        <time>2020-10-05T13:11:03.000Z</time>
      </trkpt>
      <trkpt lat="43.99575" lon="5.90632">
        <ele>655</ele>
        <time>2020-10-05T13:11:04.000Z</time>
      </trkpt>
      <trkpt lat="43.99574" lon="5.90631">
        <ele>655</ele>
        <time>2020-10-05T13:11:05.000Z</time>
      </trkpt>
      <trkpt lat="43.99573" lon="5.9063">
        <ele>655</ele>
        <time>2020-10-05T13:11:06.000Z</time>
      </trkpt>
      <trkpt lat="43.99572" lon="5.90628">
        <ele>655</ele>
        <time>2020-10-05T13:11:07.000Z</time>
      </trkpt>
      <trkpt lat="43.99571" lon="5.90627">
        <ele>655</ele>
        <time>2020-10-05T13:11:08.000Z</time>
      </trkpt>
      <trkpt lat="43.9957" lon="5.90626">
        <ele>655</ele>
        <time>2020-10-05T13:11:09.000Z</time>
      </trkpt>
      <trkpt lat="43.99569" lon="5.90624">
        <ele>655</ele>
        <time>2020-10-05T13:11:10.000Z</time>
      </trkpt>
      <trkpt lat="43.99568" lon="5.90623">
        <ele>655</ele>
        <time>2020-10-05T13:11:11.000Z</time>
      </trkpt>
      <trkpt lat="43.99567" lon="5.90622">
        <ele>655</ele>
        <time>2020-10-05T13:11:12.000Z</time>
      </trkpt>
      <trkpt lat="43.99566" lon="5.90621">
        <ele>655</ele>
        <time>2020-10-05T13:11:13.000Z</time>
      </trkpt>
      <trkpt lat="43.99565" lon="5.9062">
        <ele>655</ele>
        <time>2020-10-05T13:11:14.000Z</time>
      </trkpt>
      <trkpt lat="43.99564" lon="5.90619">
        <ele>655</ele>
        <time>2020-10-05T13:11:15.000Z</time>
      </trkpt>
      <trkpt lat="43.99563" lon="5.90618">
        <ele>655</ele>
        <time>2020-10-05T13:11:16.000Z</time>
      </trkpt>
      <trkpt lat="43.99562" lon="5.90616">
        <ele>655</ele>
        <time>2020-10-05T13:11:17.000Z</time>
      </trkpt>
      <trkpt lat="43.99562" lon="5.90615">
        <ele>655</ele>
        <time>2020-10-05T13:11:18.000Z</time>
      </trkpt>
      <trkpt lat="43.99561" lon="5.90614">
        <ele>655</ele>
        <time>2020-10-05T13:11:19.000Z</time>
      </trkpt>
      <trkpt lat="43.9956" lon="5.90612">
        <ele>655</ele>
        <time>2020-10-05T13:11:20.000Z</time>
      </trkpt>
      <trkpt lat="43.99559" lon="5.90611">
        <ele>655</ele>
        <time>2020-10-05T13:11:21.000Z</time>
      </trkpt>
      <trkpt lat="43.99558" lon="5.9061">
        <ele>655</ele>
        <time>2020-10-05T13:11:22.000Z</time>
      </trkpt>
      <trkpt lat="43.99557" lon="5.90609">
        <ele>655</ele>
        <time>2020-10-05T13:11:23.000Z</time>
      </trkpt>
      <trkpt lat="43.99556" lon="5.90607">
        <ele>655</ele>
        <time>2020-10-05T13:11:24.000Z</time>
      </trkpt>
      <trkpt lat="43.99555" lon="5.90606">
        <ele>655</ele>
        <time>2020-10-05T13:11:25.000Z</time>
      </trkpt>
      <trkpt lat="43.99554" lon="5.90605">
        <ele>655</ele>
        <time>2020-10-05T13:11:26.000Z</time>
      </trkpt>
      <trkpt lat="43.99554" lon="5.90605">
        <ele>655</ele>
        <time>2020-10-05T13:11:27.000Z</time>
      </trkpt>
      <trkpt lat="43.99553" lon="5.90604">
        <ele>655</ele>
        <time>2020-10-05T13:11:28.000Z</time>
      </trkpt>
      <trkpt lat="43.99552" lon="5.90603">
        <ele>655</ele>
        <time>2020-10-05T13:11:29.000Z</time>
      </trkpt>
      <trkpt lat="43.99552" lon="5.90603">
        <ele>655</ele>
        <time>2020-10-05T13:11:30.000Z</time>
      </trkpt>
      <trkpt lat="43.99551" lon="5.90602">
        <ele>656</ele>
        <time>2020-10-05T13:11:31.000Z</time>
      </trkpt>
      <trkpt lat="43.99551" lon="5.90602">
        <ele>656</ele>
        <time>2020-10-05T13:11:32.000Z</time>
      </trkpt>
      <trkpt lat="43.9955" lon="5.90601">
        <ele>656</ele>
        <time>2020-10-05T13:11:33.000Z</time>
      </trkpt>
      <trkpt lat="43.99549" lon="5.906">
        <ele>656</ele>
        <time>2020-10-05T13:11:34.000Z</time>
      </trkpt>
      <trkpt lat="43.99548" lon="5.90599">
        <ele>656</ele>
        <time>2020-10-05T13:11:35.000Z</time>
      </trkpt>
      <trkpt lat="43.99547" lon="5.90598">
        <ele>656</ele>
        <time>2020-10-05T13:11:36.000Z</time>
      </trkpt>
      <trkpt lat="43.99546" lon="5.90597">
        <ele>656</ele>
        <time>2020-10-05T13:11:37.000Z</time>
      </trkpt>
      <trkpt lat="43.99545" lon="5.90597">
        <ele>656</ele>
        <time>2020-10-05T13:11:38.000Z</time>
      </trkpt>
      <trkpt lat="43.99544" lon="5.90596">
        <ele>656</ele>
        <time>2020-10-05T13:11:39.000Z</time>
      </trkpt>
      <trkpt lat="43.99543" lon="5.90596">
        <ele>656</ele>
        <time>2020-10-05T13:11:40.000Z</time>
      </trkpt>
      <trkpt lat="43.99542" lon="5.90596">
        <ele>656</ele>
        <time>2020-10-05T13:11:41.000Z</time>
      </trkpt>
      <trkpt lat="43.99541" lon="5.90595">
        <ele>656</ele>
        <time>2020-10-05T13:11:42.000Z</time>
      </trkpt>
      <trkpt lat="43.9954" lon="5.90595">
        <ele>656</ele>
        <time>2020-10-05T13:11:43.000Z</time>
      </trkpt>
      <trkpt lat="43.9954" lon="5.90595">
        <ele>655</ele>
        <time>2020-10-05T13:11:44.000Z</time>
      </trkpt>
      <trkpt lat="43.99539" lon="5.90595">
        <ele>655</ele>
        <time>2020-10-05T13:11:45.000Z</time>
      </trkpt>
      <trkpt lat="43.99538" lon="5.90596">
        <ele>655</ele>
        <time>2020-10-05T13:11:46.000Z</time>
      </trkpt>
      <trkpt lat="43.99537" lon="5.90596">
        <ele>655</ele>
        <time>2020-10-05T13:11:47.000Z</time>
      </trkpt>
      <trkpt lat="43.99536" lon="5.90597">
        <ele>655</ele>
        <time>2020-10-05T13:11:48.000Z</time>
      </trkpt>
      <trkpt lat="43.99535" lon="5.90598">
        <ele>655</ele>
        <time>2020-10-05T13:11:49.000Z</time>
      </trkpt>
      <trkpt lat="43.99534" lon="5.90598">
        <ele>655</ele>
        <time>2020-10-05T13:11:50.000Z</time>
      </trkpt>
      <trkpt lat="43.99533" lon="5.90599">
        <ele>654</ele>
        <time>2020-10-05T13:11:51.000Z</time>
      </trkpt>
      <trkpt lat="43.99532" lon="5.90599">
        <ele>654</ele>
        <time>2020-10-05T13:11:52.000Z</time>
      </trkpt>
      <trkpt lat="43.99531" lon="5.906">
        <ele>654</ele>
        <time>2020-10-05T13:11:53.000Z</time>
      </trkpt>
      <trkpt lat="43.9953" lon="5.906">
        <ele>654</ele>
        <time>2020-10-05T13:11:54.000Z</time>
      </trkpt>
      <trkpt lat="43.99529" lon="5.90601">
        <ele>654</ele>
        <time>2020-10-05T13:11:55.000Z</time>
      </trkpt>
      <trkpt lat="43.99528" lon="5.90602">
        <ele>654</ele>
        <time>2020-10-05T13:11:56.000Z</time>
      </trkpt>
      <trkpt lat="43.99527" lon="5.90603">
        <ele>654</ele>
        <time>2020-10-05T13:11:57.000Z</time>
      </trkpt>
      <trkpt lat="43.99526" lon="5.90603">
        <ele>654</ele>
        <time>2020-10-05T13:11:58.000Z</time>
      </trkpt>
      <trkpt lat="43.99526" lon="5.90604">
        <ele>654</ele>
        <time>2020-10-05T13:11:59.000Z</time>
      </trkpt>
      <trkpt lat="43.99525" lon="5.90605">
        <ele>654</ele>
        <time>2020-10-05T13:12:00.000Z</time>
      </trkpt>
      <trkpt lat="43.99523" lon="5.90605">
        <ele>654</ele>
        <time>2020-10-05T13:12:01.000Z</time>
      </trkpt>
      <trkpt lat="43.99522" lon="5.90605">
        <ele>654</ele>
        <time>2020-10-05T13:12:02.000Z</time>
      </trkpt>
      <trkpt lat="43.99521" lon="5.90606">
        <ele>654</ele>
        <time>2020-10-05T13:12:03.000Z</time>
      </trkpt>
      <trkpt lat="43.9952" lon="5.90606">
        <ele>654</ele>
        <time>2020-10-05T13:12:04.000Z</time>
      </trkpt>
      <trkpt lat="43.99519" lon="5.90606">
        <ele>654</ele>
        <time>2020-10-05T13:12:05.000Z</time>
      </trkpt>
      <trkpt lat="43.99518" lon="5.90606">
        <ele>654</ele>
        <time>2020-10-05T13:12:06.000Z</time>
      </trkpt>
      <trkpt lat="43.99517" lon="5.90605">
        <ele>654</ele>
        <time>2020-10-05T13:12:07.000Z</time>
      </trkpt>
      <trkpt lat="43.99516" lon="5.90605">
        <ele>654</ele>
        <time>2020-10-05T13:12:08.000Z</time>
      </trkpt>
      <trkpt lat="43.99514" lon="5.90605">
        <ele>654</ele>
        <time>2020-10-05T13:12:09.000Z</time>
      </trkpt>
      <trkpt lat="43.99513" lon="5.90605">
        <ele>654</ele>
        <time>2020-10-05T13:12:10.000Z</time>
      </trkpt>
      <trkpt lat="43.99512" lon="5.90605">
        <ele>654</ele>
        <time>2020-10-05T13:12:11.000Z</time>
      </trkpt>
      <trkpt lat="43.99511" lon="5.90604">
        <ele>654</ele>
        <time>2020-10-05T13:12:12.000Z</time>
      </trkpt>
      <trkpt lat="43.9951" lon="5.90603">
        <ele>654</ele>
        <time>2020-10-05T13:12:13.000Z</time>
      </trkpt>
      <trkpt lat="43.99509" lon="5.90603">
        <ele>654</ele>
        <time>2020-10-05T13:12:14.000Z</time>
      </trkpt>
      <trkpt lat="43.99507" lon="5.90602">
        <ele>654</ele>
        <time>2020-10-05T13:12:15.000Z</time>
      </trkpt>
      <trkpt lat="43.99507" lon="5.90601">
        <ele>654</ele>
        <time>2020-10-05T13:12:16.000Z</time>
      </trkpt>
      <trkpt lat="43.99506" lon="5.90601">
        <ele>654</ele>
        <time>2020-10-05T13:12:17.000Z</time>
      </trkpt>
      <trkpt lat="43.99505" lon="5.906">
        <ele>654</ele>
        <time>2020-10-05T13:12:18.000Z</time>
      </trkpt>
      <trkpt lat="43.99504" lon="5.90599">
        <ele>654</ele>
        <time>2020-10-05T13:12:19.000Z</time>
      </trkpt>
      <trkpt lat="43.99502" lon="5.90599">
        <ele>654</ele>
        <time>2020-10-05T13:12:20.000Z</time>
      </trkpt>
      <trkpt lat="43.99501" lon="5.90597">
        <ele>654</ele>
        <time>2020-10-05T13:12:21.000Z</time>
      </trkpt>
      <trkpt lat="43.995" lon="5.90597">
        <ele>654</ele>
        <time>2020-10-05T13:12:22.000Z</time>
      </trkpt>
      <trkpt lat="43.99499" lon="5.90596">
        <ele>654</ele>
        <time>2020-10-05T13:12:23.000Z</time>
      </trkpt>
      <trkpt lat="43.99498" lon="5.90595">
        <ele>654</ele>
        <time>2020-10-05T13:12:24.000Z</time>
      </trkpt>
      <trkpt lat="43.99497" lon="5.90594">
        <ele>654</ele>
        <time>2020-10-05T13:12:25.000Z</time>
      </trkpt>
      <trkpt lat="43.99496" lon="5.90593">
        <ele>654</ele>
        <time>2020-10-05T13:12:26.000Z</time>
      </trkpt>
      <trkpt lat="43.99495" lon="5.90592">
        <ele>654</ele>
        <time>2020-10-05T13:12:27.000Z</time>
      </trkpt>
      <trkpt lat="43.99494" lon="5.90591">
        <ele>654</ele>
        <time>2020-10-05T13:12:28.000Z</time>
      </trkpt>
      <trkpt lat="43.99494" lon="5.90591">
        <ele>654</ele>
        <time>2020-10-05T13:12:29.000Z</time>
      </trkpt>
      <trkpt lat="43.99493" lon="5.9059">
        <ele>654</ele>
        <time>2020-10-05T13:12:30.000Z</time>
      </trkpt>
      <trkpt lat="43.99492" lon="5.90589">
        <ele>653</ele>
        <time>2020-10-05T13:12:31.000Z</time>
      </trkpt>
      <trkpt lat="43.9949" lon="5.90588">
        <ele>653</ele>
        <time>2020-10-05T13:12:32.000Z</time>
      </trkpt>
      <trkpt lat="43.99489" lon="5.90586">
        <ele>653</ele>
        <time>2020-10-05T13:12:33.000Z</time>
      </trkpt>
      <trkpt lat="43.99488" lon="5.90585">
        <ele>653</ele>
        <time>2020-10-05T13:12:34.000Z</time>
      </trkpt>
      <trkpt lat="43.99488" lon="5.90584">
        <ele>653</ele>
        <time>2020-10-05T13:12:35.000Z</time>
      </trkpt>
      <trkpt lat="43.99487" lon="5.90583">
        <ele>653</ele>
        <time>2020-10-05T13:12:36.000Z</time>
      </trkpt>
      <trkpt lat="43.99486" lon="5.90582">
        <ele>653</ele>
        <time>2020-10-05T13:12:37.000Z</time>
      </trkpt>
      <trkpt lat="43.99485" lon="5.90581">
        <ele>653</ele>
        <time>2020-10-05T13:12:38.000Z</time>
      </trkpt>
      <trkpt lat="43.99484" lon="5.9058">
        <ele>653</ele>
        <time>2020-10-05T13:12:39.000Z</time>
      </trkpt>
      <trkpt lat="43.99483" lon="5.90579">
        <ele>653</ele>
        <time>2020-10-05T13:12:40.000Z</time>
      </trkpt>
      <trkpt lat="43.99482" lon="5.90578">
        <ele>653</ele>
        <time>2020-10-05T13:12:41.000Z</time>
      </trkpt>
      <trkpt lat="43.99482" lon="5.90577">
        <ele>653</ele>
        <time>2020-10-05T13:12:42.000Z</time>
      </trkpt>
      <trkpt lat="43.99481" lon="5.90575">
        <ele>653</ele>
        <time>2020-10-05T13:12:43.000Z</time>
      </trkpt>
      <trkpt lat="43.9948" lon="5.90574">
        <ele>653</ele>
        <time>2020-10-05T13:12:44.000Z</time>
      </trkpt>
      <trkpt lat="43.9948" lon="5.90572">
        <ele>653</ele>
        <time>2020-10-05T13:12:45.000Z</time>
      </trkpt>
      <trkpt lat="43.99479" lon="5.90571">
        <ele>653</ele>
        <time>2020-10-05T13:12:46.000Z</time>
      </trkpt>
      <trkpt lat="43.99478" lon="5.9057">
        <ele>653</ele>
        <time>2020-10-05T13:12:47.000Z</time>
      </trkpt>
      <trkpt lat="43.99478" lon="5.90569">
        <ele>652</ele>
        <time>2020-10-05T13:12:48.000Z</time>
      </trkpt>
      <trkpt lat="43.99477" lon="5.90567">
        <ele>652</ele>
        <time>2020-10-05T13:12:49.000Z</time>
      </trkpt>
      <trkpt lat="43.99476" lon="5.90567">
        <ele>652</ele>
        <time>2020-10-05T13:12:50.000Z</time>
      </trkpt>
      <trkpt lat="43.99476" lon="5.90566">
        <ele>652</ele>
        <time>2020-10-05T13:12:51.000Z</time>
      </trkpt>
      <trkpt lat="43.99475" lon="5.90565">
        <ele>652</ele>
        <time>2020-10-05T13:12:52.000Z</time>
      </trkpt>
      <trkpt lat="43.99474" lon="5.90565">
        <ele>652</ele>
        <time>2020-10-05T13:12:53.000Z</time>
      </trkpt>
      <trkpt lat="43.99474" lon="5.90564">
        <ele>652</ele>
        <time>2020-10-05T13:12:54.000Z</time>
      </trkpt>
      <trkpt lat="43.99474" lon="5.90564">
        <ele>652</ele>
        <time>2020-10-05T13:12:55.000Z</time>
      </trkpt>
      <trkpt lat="43.99473" lon="5.90564">
        <ele>651</ele>
        <time>2020-10-05T13:12:56.000Z</time>
      </trkpt>
      <trkpt lat="43.99472" lon="5.90563">
        <ele>651</ele>
        <time>2020-10-05T13:12:57.000Z</time>
      </trkpt>
      <trkpt lat="43.99472" lon="5.90563">
        <ele>651</ele>
        <time>2020-10-05T13:12:58.000Z</time>
      </trkpt>
      <trkpt lat="43.99471" lon="5.90562">
        <ele>651</ele>
        <time>2020-10-05T13:12:59.000Z</time>
      </trkpt>
      <trkpt lat="43.99471" lon="5.90561">
        <ele>651</ele>
        <time>2020-10-05T13:13:00.000Z</time>
      </trkpt>
      <trkpt lat="43.9947" lon="5.9056">
        <ele>651</ele>
        <time>2020-10-05T13:13:01.000Z</time>
      </trkpt>
      <trkpt lat="43.9947" lon="5.9056">
        <ele>651</ele>
        <time>2020-10-05T13:13:02.000Z</time>
      </trkpt>
      <trkpt lat="43.9947" lon="5.9056">
        <ele>651</ele>
        <time>2020-10-05T13:13:03.000Z</time>
      </trkpt>
      <trkpt lat="43.99469" lon="5.90561">
        <ele>651</ele>
        <time>2020-10-05T13:13:04.000Z</time>
      </trkpt>
      <trkpt lat="43.99468" lon="5.90561">
        <ele>651</ele>
        <time>2020-10-05T13:13:05.000Z</time>
      </trkpt>
      <trkpt lat="43.99467" lon="5.90561">
        <ele>651</ele>
        <time>2020-10-05T13:13:06.000Z</time>
      </trkpt>
      <trkpt lat="43.99466" lon="5.90562">
        <ele>651</ele>
        <time>2020-10-05T13:13:07.000Z</time>
      </trkpt>
      <trkpt lat="43.99465" lon="5.90563">
        <ele>651</ele>
        <time>2020-10-05T13:13:08.000Z</time>
      </trkpt>
      <trkpt lat="43.99464" lon="5.90563">
        <ele>651</ele>
        <time>2020-10-05T13:13:09.000Z</time>
      </trkpt>
      <trkpt lat="43.99463" lon="5.90564">
        <ele>651</ele>
        <time>2020-10-05T13:13:10.000Z</time>
      </trkpt>
      <trkpt lat="43.99462" lon="5.90564">
        <ele>651</ele>
        <time>2020-10-05T13:13:11.000Z</time>
      </trkpt>
      <trkpt lat="43.99461" lon="5.90565">
        <ele>651</ele>
        <time>2020-10-05T13:13:12.000Z</time>
      </trkpt>
      <trkpt lat="43.99459" lon="5.90565">
        <ele>651</ele>
        <time>2020-10-05T13:13:13.000Z</time>
      </trkpt>
      <trkpt lat="43.99458" lon="5.90565">
        <ele>651</ele>
        <time>2020-10-05T13:13:14.000Z</time>
      </trkpt>
      <trkpt lat="43.99457" lon="5.90566">
        <ele>652</ele>
        <time>2020-10-05T13:13:15.000Z</time>
      </trkpt>
      <trkpt lat="43.99457" lon="5.90566">
        <ele>652</ele>
        <time>2020-10-05T13:13:16.000Z</time>
      </trkpt>
      <trkpt lat="43.99456" lon="5.90566">
        <ele>652</ele>
        <time>2020-10-05T13:13:17.000Z</time>
      </trkpt>
      <trkpt lat="43.99455" lon="5.90566">
        <ele>652</ele>
        <time>2020-10-05T13:13:18.000Z</time>
      </trkpt>
      <trkpt lat="43.99454" lon="5.90565">
        <ele>652</ele>
        <time>2020-10-05T13:13:19.000Z</time>
      </trkpt>
      <trkpt lat="43.99453" lon="5.90565">
        <ele>652</ele>
        <time>2020-10-05T13:13:20.000Z</time>
      </trkpt>
      <trkpt lat="43.99452" lon="5.90564">
        <ele>652</ele>
        <time>2020-10-05T13:13:21.000Z</time>
      </trkpt>
      <trkpt lat="43.99451" lon="5.90563">
        <ele>652</ele>
        <time>2020-10-05T13:13:22.000Z</time>
      </trkpt>
      <trkpt lat="43.99451" lon="5.90562">
        <ele>652</ele>
        <time>2020-10-05T13:13:23.000Z</time>
      </trkpt>
      <trkpt lat="43.9945" lon="5.90561">
        <ele>652</ele>
        <time>2020-10-05T13:13:24.000Z</time>
      </trkpt>
      <trkpt lat="43.99449" lon="5.9056">
        <ele>652</ele>
        <time>2020-10-05T13:13:25.000Z</time>
      </trkpt>
      <trkpt lat="43.99449" lon="5.90559">
        <ele>652</ele>
        <time>2020-10-05T13:13:26.000Z</time>
      </trkpt>
      <trkpt lat="43.99448" lon="5.90558">
        <ele>652</ele>
        <time>2020-10-05T13:13:27.000Z</time>
      </trkpt>
      <trkpt lat="43.99448" lon="5.90557">
        <ele>652</ele>
        <time>2020-10-05T13:13:28.000Z</time>
      </trkpt>
      <trkpt lat="43.99447" lon="5.90556">
        <ele>652</ele>
        <time>2020-10-05T13:13:29.000Z</time>
      </trkpt>
      <trkpt lat="43.99447" lon="5.90556">
        <ele>652</ele>
        <time>2020-10-05T13:13:30.000Z</time>
      </trkpt>
      <trkpt lat="43.99446" lon="5.90555">
        <ele>652</ele>
        <time>2020-10-05T13:13:31.000Z</time>
      </trkpt>
      <trkpt lat="43.99446" lon="5.90554">
        <ele>652</ele>
        <time>2020-10-05T13:13:32.000Z</time>
      </trkpt>
      <trkpt lat="43.99446" lon="5.90553">
        <ele>652</ele>
        <time>2020-10-05T13:13:33.000Z</time>
      </trkpt>
      <trkpt lat="43.99446" lon="5.90553">
        <ele>652</ele>
        <time>2020-10-05T13:13:34.000Z</time>
      </trkpt>
      <trkpt lat="43.99445" lon="5.90552">
        <ele>652</ele>
        <time>2020-10-05T13:13:35.000Z</time>
      </trkpt>
      <trkpt lat="43.99445" lon="5.90551">
        <ele>652</ele>
        <time>2020-10-05T13:13:36.000Z</time>
      </trkpt>
      <trkpt lat="43.99445" lon="5.9055">
        <ele>652</ele>
        <time>2020-10-05T13:13:37.000Z</time>
      </trkpt>
      <trkpt lat="43.99445" lon="5.9055">
        <ele>652</ele>
        <time>2020-10-05T13:13:38.000Z</time>
      </trkpt>
      <trkpt lat="43.99445" lon="5.90549">
        <ele>652</ele>
        <time>2020-10-05T13:13:39.000Z</time>
      </trkpt>
      <trkpt lat="43.99444" lon="5.90548">
        <ele>652</ele>
        <time>2020-10-05T13:13:40.000Z</time>
      </trkpt>
      <trkpt lat="43.99444" lon="5.90547">
        <ele>652</ele>
        <time>2020-10-05T13:13:41.000Z</time>
      </trkpt>
      <trkpt lat="43.99444" lon="5.90546">
        <ele>652</ele>
        <time>2020-10-05T13:13:42.000Z</time>
      </trkpt>
      <trkpt lat="43.99444" lon="5.90544">
        <ele>652</ele>
        <time>2020-10-05T13:13:43.000Z</time>
      </trkpt>
      <trkpt lat="43.99444" lon="5.90543">
        <ele>652</ele>
        <time>2020-10-05T13:13:44.000Z</time>
      </trkpt>
      <trkpt lat="43.99444" lon="5.90542">
        <ele>652</ele>
        <time>2020-10-05T13:13:45.000Z</time>
      </trkpt>
      <trkpt lat="43.99444" lon="5.90542">
        <ele>652</ele>
        <time>2020-10-05T13:13:46.000Z</time>
      </trkpt>
      <trkpt lat="43.99444" lon="5.90541">
        <ele>652</ele>
        <time>2020-10-05T13:13:47.000Z</time>
      </trkpt>
      <trkpt lat="43.99444" lon="5.90541">
        <ele>652</ele>
        <time>2020-10-05T13:13:48.000Z</time>
      </trkpt>
      <trkpt lat="43.99444" lon="5.90542">
        <ele>652</ele>
        <time>2020-10-05T13:13:49.000Z</time>
      </trkpt>
      <trkpt lat="43.99444" lon="5.90542">
        <ele>652</ele>
        <time>2020-10-05T13:13:50.000Z</time>
      </trkpt>
      <trkpt lat="43.99444" lon="5.90542">
        <ele>652</ele>
        <time>2020-10-05T13:13:51.000Z</time>
      </trkpt>
      <trkpt lat="43.99444" lon="5.90542">
        <ele>652</ele>
        <time>2020-10-05T13:13:52.000Z</time>
      </trkpt>
      <trkpt lat="43.99445" lon="5.90542">
        <ele>652</ele>
        <time>2020-10-05T13:13:53.000Z</time>
      </trkpt>
      <trkpt lat="43.99445" lon="5.90542">
        <ele>652</ele>
        <time>2020-10-05T13:13:54.000Z</time>
      </trkpt>
      <trkpt lat="43.99445" lon="5.90542">
        <ele>652</ele>
        <time>2020-10-05T13:13:55.000Z</time>
      </trkpt>
      <trkpt lat="43.99445" lon="5.90542">
        <ele>652</ele>
        <time>2020-10-05T13:13:56.000Z</time>
      </trkpt>
      <trkpt lat="43.99445" lon="5.90542">
        <ele>652</ele>
        <time>2020-10-05T13:13:57.000Z</time>
      </trkpt>
      <trkpt lat="43.99445" lon="5.90542">
        <ele>652</ele>
        <time>2020-10-05T13:13:58.000Z</time>
      </trkpt>
      <trkpt lat="43.99446" lon="5.90542">
        <ele>652</ele>
        <time>2020-10-05T13:13:59.000Z</time>
      </trkpt>
      <trkpt lat="43.99446" lon="5.9054">
        <ele>652</ele>
        <time>2020-10-05T13:14:00.000Z</time>
      </trkpt>
      <trkpt lat="43.99446" lon="5.90538">
        <ele>652</ele>
        <time>2020-10-05T13:14:01.000Z</time>
      </trkpt>
      <trkpt lat="43.99446" lon="5.90536">
        <ele>652</ele>
        <time>2020-10-05T13:14:02.000Z</time>
      </trkpt>
      <trkpt lat="43.99447" lon="5.90534">
        <ele>652</ele>
        <time>2020-10-05T13:14:03.000Z</time>
      </trkpt>
      <trkpt lat="43.99447" lon="5.90532">
        <ele>652</ele>
        <time>2020-10-05T13:14:04.000Z</time>
      </trkpt>
      <trkpt lat="43.99447" lon="5.9053">
        <ele>652</ele>
        <time>2020-10-05T13:14:05.000Z</time>
      </trkpt>
      <trkpt lat="43.99447" lon="5.90528">
        <ele>652</ele>
        <time>2020-10-05T13:14:06.000Z</time>
      </trkpt>
      <trkpt lat="43.99448" lon="5.90526">
        <ele>652</ele>
        <time>2020-10-05T13:14:07.000Z</time>
      </trkpt>
      <trkpt lat="43.99448" lon="5.90524">
        <ele>652</ele>
        <time>2020-10-05T13:14:08.000Z</time>
      </trkpt>
      <trkpt lat="43.99449" lon="5.90522">
        <ele>652</ele>
        <time>2020-10-05T13:14:09.000Z</time>
      </trkpt>
      <trkpt lat="43.9945" lon="5.9052">
        <ele>652</ele>
        <time>2020-10-05T13:14:10.000Z</time>
      </trkpt>
      <trkpt lat="43.9945" lon="5.90519">
        <ele>652</ele>
        <time>2020-10-05T13:14:11.000Z</time>
      </trkpt>
      <trkpt lat="43.9945" lon="5.90517">
        <ele>652</ele>
        <time>2020-10-05T13:14:12.000Z</time>
      </trkpt>
      <trkpt lat="43.99451" lon="5.90515">
        <ele>652</ele>
        <time>2020-10-05T13:14:13.000Z</time>
      </trkpt>
      <trkpt lat="43.99452" lon="5.90513">
        <ele>652</ele>
        <time>2020-10-05T13:14:14.000Z</time>
      </trkpt>
      <trkpt lat="43.99452" lon="5.90512">
        <ele>652</ele>
        <time>2020-10-05T13:14:15.000Z</time>
      </trkpt>
      <trkpt lat="43.99453" lon="5.90511">
        <ele>652</ele>
        <time>2020-10-05T13:14:16.000Z</time>
      </trkpt>
      <trkpt lat="43.99454" lon="5.9051">
        <ele>652</ele>
        <time>2020-10-05T13:14:17.000Z</time>
      </trkpt>
      <trkpt lat="43.99454" lon="5.90509">
        <ele>652</ele>
        <time>2020-10-05T13:14:18.000Z</time>
      </trkpt>
      <trkpt lat="43.99455" lon="5.90508">
        <ele>652</ele>
        <time>2020-10-05T13:14:19.000Z</time>
      </trkpt>
      <trkpt lat="43.99456" lon="5.90506">
        <ele>652</ele>
        <time>2020-10-05T13:14:20.000Z</time>
      </trkpt>
      <trkpt lat="43.99456" lon="5.90505">
        <ele>652</ele>
        <time>2020-10-05T13:14:21.000Z</time>
      </trkpt>
      <trkpt lat="43.99456" lon="5.90504">
        <ele>652</ele>
        <time>2020-10-05T13:14:22.000Z</time>
      </trkpt>
      <trkpt lat="43.99456" lon="5.90503">
        <ele>652</ele>
        <time>2020-10-05T13:14:23.000Z</time>
      </trkpt>
      <trkpt lat="43.99456" lon="5.90501">
        <ele>652</ele>
        <time>2020-10-05T13:14:24.000Z</time>
      </trkpt>
      <trkpt lat="43.99457" lon="5.905">
        <ele>652</ele>
        <time>2020-10-05T13:14:25.000Z</time>
      </trkpt>
      <trkpt lat="43.99457" lon="5.90499">
        <ele>652</ele>
        <time>2020-10-05T13:14:26.000Z</time>
      </trkpt>
      <trkpt lat="43.99457" lon="5.90497">
        <ele>652</ele>
        <time>2020-10-05T13:14:27.000Z</time>
      </trkpt>
      <trkpt lat="43.99457" lon="5.90496">
        <ele>652</ele>
        <time>2020-10-05T13:14:28.000Z</time>
      </trkpt>
      <trkpt lat="43.99458" lon="5.90495">
        <ele>652</ele>
        <time>2020-10-05T13:14:29.000Z</time>
      </trkpt>
      <trkpt lat="43.99458" lon="5.90494">
        <ele>651</ele>
        <time>2020-10-05T13:14:30.000Z</time>
      </trkpt>
      <trkpt lat="43.99459" lon="5.90493">
        <ele>651</ele>
        <time>2020-10-05T13:14:31.000Z</time>
      </trkpt>
      <trkpt lat="43.99459" lon="5.90491">
        <ele>651</ele>
        <time>2020-10-05T13:14:32.000Z</time>
      </trkpt>
      <trkpt lat="43.9946" lon="5.9049">
        <ele>651</ele>
        <time>2020-10-05T13:14:33.000Z</time>
      </trkpt>
      <trkpt lat="43.9946" lon="5.90489">
        <ele>651</ele>
        <time>2020-10-05T13:14:34.000Z</time>
      </trkpt>
      <trkpt lat="43.9946" lon="5.90487">
        <ele>651</ele>
        <time>2020-10-05T13:14:35.000Z</time>
      </trkpt>
      <trkpt lat="43.9946" lon="5.90486">
        <ele>651</ele>
        <time>2020-10-05T13:14:36.000Z</time>
      </trkpt>
      <trkpt lat="43.9946" lon="5.90485">
        <ele>651</ele>
        <time>2020-10-05T13:14:37.000Z</time>
      </trkpt>
      <trkpt lat="43.9946" lon="5.90483">
        <ele>651</ele>
        <time>2020-10-05T13:14:38.000Z</time>
      </trkpt>
      <trkpt lat="43.99461" lon="5.90481">
        <ele>651</ele>
        <time>2020-10-05T13:14:39.000Z</time>
      </trkpt>
      <trkpt lat="43.99461" lon="5.9048">
        <ele>651</ele>
        <time>2020-10-05T13:14:40.000Z</time>
      </trkpt>
      <trkpt lat="43.99461" lon="5.90478">
        <ele>651</ele>
        <time>2020-10-05T13:14:41.000Z</time>
      </trkpt>
      <trkpt lat="43.99461" lon="5.90477">
        <ele>651</ele>
        <time>2020-10-05T13:14:42.000Z</time>
      </trkpt>
      <trkpt lat="43.99462" lon="5.90476">
        <ele>651</ele>
        <time>2020-10-05T13:14:43.000Z</time>
      </trkpt>
      <trkpt lat="43.99462" lon="5.90476">
        <ele>651</ele>
        <time>2020-10-05T13:14:44.000Z</time>
      </trkpt>
      <trkpt lat="43.99462" lon="5.90475">
        <ele>651</ele>
        <time>2020-10-05T13:14:45.000Z</time>
      </trkpt>
      <trkpt lat="43.99462" lon="5.90475">
        <ele>651</ele>
        <time>2020-10-05T13:14:46.000Z</time>
      </trkpt>
      <trkpt lat="43.99462" lon="5.90475">
        <ele>651</ele>
        <time>2020-10-05T13:14:47.000Z</time>
      </trkpt>
      <trkpt lat="43.99462" lon="5.90475">
        <ele>651</ele>
        <time>2020-10-05T13:14:48.000Z</time>
      </trkpt>
      <trkpt lat="43.99462" lon="5.90474">
        <ele>651</ele>
        <time>2020-10-05T13:14:49.000Z</time>
      </trkpt>
      <trkpt lat="43.99462" lon="5.90474">
        <ele>651</ele>
        <time>2020-10-05T13:14:50.000Z</time>
      </trkpt>
      <trkpt lat="43.99462" lon="5.90474">
        <ele>651</ele>
        <time>2020-10-05T13:14:51.000Z</time>
      </trkpt>
      <trkpt lat="43.99462" lon="5.90474">
        <ele>651</ele>
        <time>2020-10-05T13:14:52.000Z</time>
      </trkpt>
      <trkpt lat="43.99463" lon="5.90474">
        <ele>651</ele>
        <time>2020-10-05T13:14:53.000Z</time>
      </trkpt>
      <trkpt lat="43.99463" lon="5.90474">
        <ele>651</ele>
        <time>2020-10-05T13:14:54.000Z</time>
      </trkpt>
      <trkpt lat="43.99463" lon="5.90474">
        <ele>651</ele>
        <time>2020-10-05T13:14:55.000Z</time>
      </trkpt>
      <trkpt lat="43.99463" lon="5.90474">
        <ele>651</ele>
        <time>2020-10-05T13:14:56.000Z</time>
      </trkpt>
      <trkpt lat="43.99464" lon="5.90473">
        <ele>651</ele>
        <time>2020-10-05T13:14:57.000Z</time>
      </trkpt>
      <trkpt lat="43.99464" lon="5.90472">
        <ele>651</ele>
        <time>2020-10-05T13:14:58.000Z</time>
      </trkpt>
      <trkpt lat="43.99465" lon="5.90471">
        <ele>651</ele>
        <time>2020-10-05T13:14:59.000Z</time>
      </trkpt>
      <trkpt lat="43.99465" lon="5.9047">
        <ele>651</ele>
        <time>2020-10-05T13:15:00.000Z</time>
      </trkpt>
      <trkpt lat="43.99466" lon="5.90469">
        <ele>651</ele>
        <time>2020-10-05T13:15:01.000Z</time>
      </trkpt>
      <trkpt lat="43.99466" lon="5.90468">
        <ele>652</ele>
        <time>2020-10-05T13:15:02.000Z</time>
      </trkpt>
      <trkpt lat="43.99467" lon="5.90466">
        <ele>652</ele>
        <time>2020-10-05T13:15:03.000Z</time>
      </trkpt>
      <trkpt lat="43.99468" lon="5.90465">
        <ele>652</ele>
        <time>2020-10-05T13:15:04.000Z</time>
      </trkpt>
      <trkpt lat="43.99469" lon="5.90464">
        <ele>652</ele>
        <time>2020-10-05T13:15:05.000Z</time>
      </trkpt>
      <trkpt lat="43.9947" lon="5.90463">
        <ele>652</ele>
        <time>2020-10-05T13:15:06.000Z</time>
      </trkpt>
      <trkpt lat="43.9947" lon="5.90463">
        <ele>652</ele>
        <time>2020-10-05T13:15:07.000Z</time>
      </trkpt>
      <trkpt lat="43.99471" lon="5.90462">
        <ele>652</ele>
        <time>2020-10-05T13:15:08.000Z</time>
      </trkpt>
      <trkpt lat="43.99471" lon="5.90461">
        <ele>652</ele>
        <time>2020-10-05T13:15:09.000Z</time>
      </trkpt>
      <trkpt lat="43.99472" lon="5.90461">
        <ele>652</ele>
        <time>2020-10-05T13:15:10.000Z</time>
      </trkpt>
      <trkpt lat="43.99472" lon="5.9046">
        <ele>652</ele>
        <time>2020-10-05T13:15:11.000Z</time>
      </trkpt>
      <trkpt lat="43.99472" lon="5.9046">
        <ele>652</ele>
        <time>2020-10-05T13:15:12.000Z</time>
      </trkpt>
      <trkpt lat="43.99472" lon="5.9046">
        <ele>652</ele>
        <time>2020-10-05T13:15:13.000Z</time>
      </trkpt>
      <trkpt lat="43.99472" lon="5.90461">
        <ele>652</ele>
        <time>2020-10-05T13:15:14.000Z</time>
      </trkpt>
      <trkpt lat="43.99472" lon="5.90461">
        <ele>652</ele>
        <time>2020-10-05T13:15:15.000Z</time>
      </trkpt>
      <trkpt lat="43.99471" lon="5.90461">
        <ele>652</ele>
        <time>2020-10-05T13:15:16.000Z</time>
      </trkpt>
      <trkpt lat="43.99471" lon="5.90461">
        <ele>652</ele>
        <time>2020-10-05T13:15:17.000Z</time>
      </trkpt>
      <trkpt lat="43.99471" lon="5.90462">
        <ele>652</ele>
        <time>2020-10-05T13:15:18.000Z</time>
      </trkpt>
      <trkpt lat="43.99471" lon="5.90462">
        <ele>652</ele>
        <time>2020-10-05T13:15:19.000Z</time>
      </trkpt>
      <trkpt lat="43.99471" lon="5.90462">
        <ele>652</ele>
        <time>2020-10-05T13:15:20.000Z</time>
      </trkpt>
      <trkpt lat="43.99471" lon="5.90462">
        <ele>652</ele>
        <time>2020-10-05T13:15:21.000Z</time>
      </trkpt>
      <trkpt lat="43.99471" lon="5.90462">
        <ele>652</ele>
        <time>2020-10-05T13:15:22.000Z</time>
      </trkpt>
      <trkpt lat="43.99471" lon="5.90463">
        <ele>652</ele>
        <time>2020-10-05T13:15:23.000Z</time>
      </trkpt>
      <trkpt lat="43.9947" lon="5.90463">
        <ele>652</ele>
        <time>2020-10-05T13:15:24.000Z</time>
      </trkpt>
      <trkpt lat="43.9947" lon="5.90463">
        <ele>652</ele>
        <time>2020-10-05T13:15:25.000Z</time>
      </trkpt>
      <trkpt lat="43.9947" lon="5.90464">
        <ele>652</ele>
        <time>2020-10-05T13:15:26.000Z</time>
      </trkpt>
      <trkpt lat="43.9947" lon="5.90464">
        <ele>652</ele>
        <time>2020-10-05T13:15:27.000Z</time>
      </trkpt>
      <trkpt lat="43.9947" lon="5.90464">
        <ele>652</ele>
        <time>2020-10-05T13:15:28.000Z</time>
      </trkpt>
      <trkpt lat="43.99469" lon="5.90465">
        <ele>652</ele>
        <time>2020-10-05T13:15:29.000Z</time>
      </trkpt>
      <trkpt lat="43.99469" lon="5.90466">
        <ele>652</ele>
        <time>2020-10-05T13:15:30.000Z</time>
      </trkpt>
      <trkpt lat="43.99469" lon="5.90467">
        <ele>652</ele>
        <time>2020-10-05T13:15:31.000Z</time>
      </trkpt>
      <trkpt lat="43.99469" lon="5.90467">
        <ele>652</ele>
        <time>2020-10-05T13:15:32.000Z</time>
      </trkpt>
      <trkpt lat="43.99469" lon="5.90467">
        <ele>652</ele>
        <time>2020-10-05T13:15:33.000Z</time>
      </trkpt>
      <trkpt lat="43.99469" lon="5.90467">
        <ele>652</ele>
        <time>2020-10-05T13:15:34.000Z</time>
      </trkpt>
      <trkpt lat="43.99469" lon="5.90468">
        <ele>652</ele>
        <time>2020-10-05T13:15:35.000Z</time>
      </trkpt>
      <trkpt lat="43.99469" lon="5.90469">
        <ele>652</ele>
        <time>2020-10-05T13:15:36.000Z</time>
      </trkpt>
      <trkpt lat="43.99468" lon="5.90469">
        <ele>652</ele>
        <time>2020-10-05T13:15:37.000Z</time>
      </trkpt>
      <trkpt lat="43.99468" lon="5.9047">
        <ele>652</ele>
        <time>2020-10-05T13:15:38.000Z</time>
      </trkpt>
      <trkpt lat="43.99467" lon="5.9047">
        <ele>652</ele>
        <time>2020-10-05T13:15:39.000Z</time>
      </trkpt>
      <trkpt lat="43.99467" lon="5.9047">
        <ele>652</ele>
        <time>2020-10-05T13:15:40.000Z</time>
      </trkpt>
      <trkpt lat="43.99466" lon="5.90471">
        <ele>652</ele>
        <time>2020-10-05T13:15:41.000Z</time>
      </trkpt>
      <trkpt lat="43.99466" lon="5.90471">
        <ele>652</ele>
        <time>2020-10-05T13:15:42.000Z</time>
      </trkpt>
      <trkpt lat="43.99466" lon="5.90472">
        <ele>652</ele>
        <time>2020-10-05T13:15:43.000Z</time>
      </trkpt>
      <trkpt lat="43.99466" lon="5.90472">
        <ele>652</ele>
        <time>2020-10-05T13:15:44.000Z</time>
      </trkpt>
      <trkpt lat="43.99466" lon="5.90472">
        <ele>652</ele>
        <time>2020-10-05T13:15:45.000Z</time>
      </trkpt>
      <trkpt lat="43.99466" lon="5.90472">
        <ele>652</ele>
        <time>2020-10-05T13:15:46.000Z</time>
      </trkpt>
      <trkpt lat="43.99466" lon="5.90473">
        <ele>652</ele>
        <time>2020-10-05T13:15:47.000Z</time>
      </trkpt>
      <trkpt lat="43.99466" lon="5.90473">
        <ele>652</ele>
        <time>2020-10-05T13:15:48.000Z</time>
      </trkpt>
      <trkpt lat="43.99466" lon="5.90474">
        <ele>652</ele>
        <time>2020-10-05T13:15:49.000Z</time>
      </trkpt>
      <trkpt lat="43.99465" lon="5.90474">
        <ele>652</ele>
        <time>2020-10-05T13:15:50.000Z</time>
      </trkpt>
      <trkpt lat="43.99465" lon="5.90474">
        <ele>652</ele>
        <time>2020-10-05T13:15:51.000Z</time>
      </trkpt>
      <trkpt lat="43.99465" lon="5.90475">
        <ele>652</ele>
        <time>2020-10-05T13:15:52.000Z</time>
      </trkpt>
      <trkpt lat="43.99465" lon="5.90475">
        <ele>652</ele>
        <time>2020-10-05T13:15:53.000Z</time>
      </trkpt>
      <trkpt lat="43.99466" lon="5.90475">
        <ele>652</ele>
        <time>2020-10-05T13:15:54.000Z</time>
      </trkpt>
      <trkpt lat="43.99466" lon="5.90475">
        <ele>653</ele>
        <time>2020-10-05T13:15:55.000Z</time>
      </trkpt>
      <trkpt lat="43.99466" lon="5.90475">
        <ele>653</ele>
        <time>2020-10-05T13:15:56.000Z</time>
      </trkpt>
      <trkpt lat="43.99466" lon="5.90475">
        <ele>653</ele>
        <time>2020-10-05T13:15:57.000Z</time>
      </trkpt>
      <trkpt lat="43.99466" lon="5.90475">
        <ele>653</ele>
        <time>2020-10-05T13:15:58.000Z</time>
      </trkpt>
      <trkpt lat="43.99466" lon="5.90474">
        <ele>653</ele>
        <time>2020-10-05T13:15:59.000Z</time>
      </trkpt>
      <trkpt lat="43.99467" lon="5.90474">
        <ele>653</ele>
        <time>2020-10-05T13:16:00.000Z</time>
      </trkpt>
      <trkpt lat="43.99467" lon="5.90473">
        <ele>653</ele>
        <time>2020-10-05T13:16:01.000Z</time>
      </trkpt>
      <trkpt lat="43.99468" lon="5.90473">
        <ele>653</ele>
        <time>2020-10-05T13:16:02.000Z</time>
      </trkpt>
      <trkpt lat="43.99468" lon="5.90473">
        <ele>653</ele>
        <time>2020-10-05T13:16:03.000Z</time>
      </trkpt>
      <trkpt lat="43.99468" lon="5.90473">
        <ele>653</ele>
        <time>2020-10-05T13:16:04.000Z</time>
      </trkpt>
      <trkpt lat="43.99468" lon="5.90472">
        <ele>653</ele>
        <time>2020-10-05T13:16:05.000Z</time>
      </trkpt>
      <trkpt lat="43.99468" lon="5.90472">
        <ele>653</ele>
        <time>2020-10-05T13:16:06.000Z</time>
      </trkpt>
      <trkpt lat="43.99468" lon="5.90472">
        <ele>653</ele>
        <time>2020-10-05T13:16:07.000Z</time>
      </trkpt>
      <trkpt lat="43.99468" lon="5.90472">
        <ele>653</ele>
        <time>2020-10-05T13:16:08.000Z</time>
      </trkpt>
      <trkpt lat="43.99468" lon="5.90472">
        <ele>653</ele>
        <time>2020-10-05T13:16:09.000Z</time>
      </trkpt>
      <trkpt lat="43.99469" lon="5.90471">
        <ele>653</ele>
        <time>2020-10-05T13:16:10.000Z</time>
      </trkpt>
      <trkpt lat="43.99469" lon="5.90471">
        <ele>653</ele>
        <time>2020-10-05T13:16:11.000Z</time>
      </trkpt>
      <trkpt lat="43.99469" lon="5.9047">
        <ele>653</ele>
        <time>2020-10-05T13:16:12.000Z</time>
      </trkpt>
      <trkpt lat="43.9947" lon="5.90469">
        <ele>653</ele>
        <time>2020-10-05T13:16:13.000Z</time>
      </trkpt>
      <trkpt lat="43.9947" lon="5.90469">
        <ele>653</ele>
        <time>2020-10-05T13:16:14.000Z</time>
      </trkpt>
      <trkpt lat="43.99471" lon="5.90468">
        <ele>653</ele>
        <time>2020-10-05T13:16:15.000Z</time>
      </trkpt>
      <trkpt lat="43.99471" lon="5.90466">
        <ele>653</ele>
        <time>2020-10-05T13:16:16.000Z</time>
      </trkpt>
      <trkpt lat="43.99472" lon="5.90466">
        <ele>653</ele>
        <time>2020-10-05T13:16:17.000Z</time>
      </trkpt>
      <trkpt lat="43.99472" lon="5.90465">
        <ele>653</ele>
        <time>2020-10-05T13:16:18.000Z</time>
      </trkpt>
      <trkpt lat="43.99473" lon="5.90464">
        <ele>653</ele>
        <time>2020-10-05T13:16:19.000Z</time>
      </trkpt>
      <trkpt lat="43.99474" lon="5.90463">
        <ele>653</ele>
        <time>2020-10-05T13:16:20.000Z</time>
      </trkpt>
      <trkpt lat="43.99474" lon="5.90462">
        <ele>653</ele>
        <time>2020-10-05T13:16:21.000Z</time>
      </trkpt>
      <trkpt lat="43.99475" lon="5.90462">
        <ele>653</ele>
        <time>2020-10-05T13:16:22.000Z</time>
      </trkpt>
      <trkpt lat="43.99475" lon="5.90461">
        <ele>653</ele>
        <time>2020-10-05T13:16:23.000Z</time>
      </trkpt>
      <trkpt lat="43.99476" lon="5.90461">
        <ele>653</ele>
        <time>2020-10-05T13:16:24.000Z</time>
      </trkpt>
      <trkpt lat="43.99476" lon="5.9046">
        <ele>653</ele>
        <time>2020-10-05T13:16:25.000Z</time>
      </trkpt>
      <trkpt lat="43.99476" lon="5.9046">
        <ele>653</ele>
        <time>2020-10-05T13:16:26.000Z</time>
      </trkpt>
      <trkpt lat="43.99477" lon="5.9046">
        <ele>653</ele>
        <time>2020-10-05T13:16:27.000Z</time>
      </trkpt>
      <trkpt lat="43.99477" lon="5.9046">
        <ele>653</ele>
        <time>2020-10-05T13:16:28.000Z</time>
      </trkpt>
      <trkpt lat="43.99477" lon="5.9046">
        <ele>653</ele>
        <time>2020-10-05T13:16:29.000Z</time>
      </trkpt>
      <trkpt lat="43.99478" lon="5.9046">
        <ele>653</ele>
        <time>2020-10-05T13:16:30.000Z</time>
      </trkpt>
      <trkpt lat="43.99479" lon="5.90459">
        <ele>653</ele>
        <time>2020-10-05T13:16:31.000Z</time>
      </trkpt>
      <trkpt lat="43.9948" lon="5.90458">
        <ele>653</ele>
        <time>2020-10-05T13:16:32.000Z</time>
      </trkpt>
      <trkpt lat="43.9948" lon="5.90457">
        <ele>653</ele>
        <time>2020-10-05T13:16:33.000Z</time>
      </trkpt>
      <trkpt lat="43.99481" lon="5.90457">
        <ele>653</ele>
        <time>2020-10-05T13:16:34.000Z</time>
      </trkpt>
      <trkpt lat="43.99481" lon="5.90456">
        <ele>653</ele>
        <time>2020-10-05T13:16:35.000Z</time>
      </trkpt>
      <trkpt lat="43.99482" lon="5.90455">
        <ele>653</ele>
        <time>2020-10-05T13:16:36.000Z</time>
      </trkpt>
      <trkpt lat="43.99482" lon="5.90454">
        <ele>652</ele>
        <time>2020-10-05T13:16:37.000Z</time>
      </trkpt>
      <trkpt lat="43.99482" lon="5.90454">
        <ele>652</ele>
        <time>2020-10-05T13:16:38.000Z</time>
      </trkpt>
      <trkpt lat="43.99483" lon="5.90453">
        <ele>652</ele>
        <time>2020-10-05T13:16:39.000Z</time>
      </trkpt>
      <trkpt lat="43.99483" lon="5.90453">
        <ele>652</ele>
        <time>2020-10-05T13:16:40.000Z</time>
      </trkpt>
      <trkpt lat="43.99483" lon="5.90453">
        <ele>652</ele>
        <time>2020-10-05T13:16:41.000Z</time>
      </trkpt>
      <trkpt lat="43.99484" lon="5.90453">
        <ele>652</ele>
        <time>2020-10-05T13:16:42.000Z</time>
      </trkpt>
      <trkpt lat="43.99484" lon="5.90453">
        <ele>652</ele>
        <time>2020-10-05T13:16:43.000Z</time>
      </trkpt>
      <trkpt lat="43.99484" lon="5.90454">
        <ele>652</ele>
        <time>2020-10-05T13:16:44.000Z</time>
      </trkpt>
      <trkpt lat="43.99484" lon="5.90455">
        <ele>652</ele>
        <time>2020-10-05T13:16:45.000Z</time>
      </trkpt>
      <trkpt lat="43.99483" lon="5.90455">
        <ele>652</ele>
        <time>2020-10-05T13:16:46.000Z</time>
      </trkpt>
      <trkpt lat="43.99483" lon="5.90455">
        <ele>652</ele>
        <time>2020-10-05T13:16:47.000Z</time>
      </trkpt>
      <trkpt lat="43.99483" lon="5.90455">
        <ele>652</ele>
        <time>2020-10-05T13:16:48.000Z</time>
      </trkpt>
      <trkpt lat="43.99483" lon="5.90455">
        <ele>652</ele>
        <time>2020-10-05T13:16:49.000Z</time>
      </trkpt>
      <trkpt lat="43.99483" lon="5.90455">
        <ele>652</ele>
        <time>2020-10-05T13:16:50.000Z</time>
      </trkpt>
      <trkpt lat="43.99483" lon="5.90456">
        <ele>652</ele>
        <time>2020-10-05T13:16:51.000Z</time>
      </trkpt>
      <trkpt lat="43.99482" lon="5.90456">
        <ele>652</ele>
        <time>2020-10-05T13:16:52.000Z</time>
      </trkpt>
      <trkpt lat="43.99482" lon="5.90456">
        <ele>652</ele>
        <time>2020-10-05T13:16:53.000Z</time>
      </trkpt>
      <trkpt lat="43.99481" lon="5.90457">
        <ele>652</ele>
        <time>2020-10-05T13:16:54.000Z</time>
      </trkpt>
      <trkpt lat="43.99481" lon="5.90458">
        <ele>652</ele>
        <time>2020-10-05T13:16:55.000Z</time>
      </trkpt>
      <trkpt lat="43.9948" lon="5.90459">
        <ele>652</ele>
        <time>2020-10-05T13:16:56.000Z</time>
      </trkpt>
      <trkpt lat="43.99479" lon="5.9046">
        <ele>652</ele>
        <time>2020-10-05T13:16:57.000Z</time>
      </trkpt>
      <trkpt lat="43.99479" lon="5.90461">
        <ele>652</ele>
        <time>2020-10-05T13:16:58.000Z</time>
      </trkpt>
      <trkpt lat="43.99478" lon="5.90463">
        <ele>652</ele>
        <time>2020-10-05T13:16:59.000Z</time>
      </trkpt>
      <trkpt lat="43.99477" lon="5.90465">
        <ele>651</ele>
        <time>2020-10-05T13:17:00.000Z</time>
      </trkpt>
      <trkpt lat="43.99476" lon="5.90466">
        <ele>651</ele>
        <time>2020-10-05T13:17:01.000Z</time>
      </trkpt>
      <trkpt lat="43.99475" lon="5.90467">
        <ele>651</ele>
        <time>2020-10-05T13:17:02.000Z</time>
      </trkpt>
      <trkpt lat="43.99475" lon="5.90468">
        <ele>651</ele>
        <time>2020-10-05T13:17:03.000Z</time>
      </trkpt>
      <trkpt lat="43.99475" lon="5.90468">
        <ele>651</ele>
        <time>2020-10-05T13:17:04.000Z</time>
      </trkpt>
      <trkpt lat="43.99474" lon="5.90469">
        <ele>651</ele>
        <time>2020-10-05T13:17:05.000Z</time>
      </trkpt>
      <trkpt lat="43.99474" lon="5.90469">
        <ele>651</ele>
        <time>2020-10-05T13:17:06.000Z</time>
      </trkpt>
      <trkpt lat="43.99473" lon="5.90469">
        <ele>651</ele>
        <time>2020-10-05T13:17:07.000Z</time>
      </trkpt>
      <trkpt lat="43.99467" lon="5.90477">
        <ele>651</ele>
        <time>2020-10-05T13:54:21.988Z</time>
      </trkpt>
      <trkpt lat="43.99467" lon="5.90477">
        <ele>651</ele>
        <time>2020-10-05T13:54:22.988Z</time>
      </trkpt>
      <trkpt lat="43.99467" lon="5.90477">
        <ele>651</ele>
        <time>2020-10-05T13:54:23.988Z</time>
      </trkpt>
      <trkpt lat="43.99467" lon="5.90477">
        <ele>651</ele>
        <time>2020-10-05T13:54:24.988Z</time>
      </trkpt>
      <trkpt lat="43.99467" lon="5.90477">
        <ele>651</ele>
        <time>2020-10-05T13:54:25.988Z</time>
      </trkpt>
      <trkpt lat="43.99466" lon="5.90477">
        <ele>651</ele>
        <time>2020-10-05T13:54:26.988Z</time>
      </trkpt>
      <trkpt lat="43.99466" lon="5.90478">
        <ele>651</ele>
        <time>2020-10-05T13:54:27.988Z</time>
      </trkpt>
      <trkpt lat="43.99465" lon="5.90479">
        <ele>651</ele>
        <time>2020-10-05T13:54:28.988Z</time>
      </trkpt>
      <trkpt lat="43.99465" lon="5.90481">
        <ele>651</ele>
        <time>2020-10-05T13:54:29.988Z</time>
      </trkpt>
      <trkpt lat="43.99465" lon="5.90482">
        <ele>651</ele>
        <time>2020-10-05T13:54:30.988Z</time>
      </trkpt>
      <trkpt lat="43.99465" lon="5.90484">
        <ele>651</ele>
        <time>2020-10-05T13:54:31.988Z</time>
      </trkpt>
      <trkpt lat="43.99464" lon="5.90485">
        <ele>651</ele>
        <time>2020-10-05T13:54:32.988Z</time>
      </trkpt>
      <trkpt lat="43.99464" lon="5.90486">
        <ele>651</ele>
        <time>2020-10-05T13:54:33.988Z</time>
      </trkpt>
      <trkpt lat="43.99464" lon="5.90486">
        <ele>651</ele>
        <time>2020-10-05T13:54:34.988Z</time>
      </trkpt>
      <trkpt lat="43.99464" lon="5.90486">
        <ele>652</ele>
        <time>2020-10-05T13:54:35.988Z</time>
      </trkpt>
      <trkpt lat="43.99464" lon="5.90486">
        <ele>652</ele>
        <time>2020-10-05T13:54:36.988Z</time>
      </trkpt>
      <trkpt lat="43.99464" lon="5.90486">
        <ele>652</ele>
        <time>2020-10-05T13:54:37.988Z</time>
      </trkpt>
      <trkpt lat="43.99464" lon="5.90486">
        <ele>652</ele>
        <time>2020-10-05T13:54:38.988Z</time>
      </trkpt>
      <trkpt lat="43.99464" lon="5.90486">
        <ele>652</ele>
        <time>2020-10-05T13:54:39.988Z</time>
      </trkpt>
      <trkpt lat="43.99463" lon="5.90487">
        <ele>652</ele>
        <time>2020-10-05T13:54:40.988Z</time>
      </trkpt>
      <trkpt lat="43.99463" lon="5.90487">
        <ele>652</ele>
        <time>2020-10-05T13:54:41.988Z</time>
      </trkpt>
      <trkpt lat="43.99463" lon="5.90488">
        <ele>652</ele>
        <time>2020-10-05T13:54:42.988Z</time>
      </trkpt>
      <trkpt lat="43.99463" lon="5.90488">
        <ele>652</ele>
        <time>2020-10-05T13:54:43.988Z</time>
      </trkpt>
      <trkpt lat="43.99463" lon="5.90489">
        <ele>652</ele>
        <time>2020-10-05T13:54:44.988Z</time>
      </trkpt>
      <trkpt lat="43.99463" lon="5.9049">
        <ele>652</ele>
        <time>2020-10-05T13:54:45.988Z</time>
      </trkpt>
      <trkpt lat="43.99463" lon="5.90491">
        <ele>653</ele>
        <time>2020-10-05T13:54:46.988Z</time>
      </trkpt>
      <trkpt lat="43.99463" lon="5.90492">
        <ele>653</ele>
        <time>2020-10-05T13:54:47.988Z</time>
      </trkpt>
      <trkpt lat="43.99463" lon="5.90492">
        <ele>653</ele>
        <time>2020-10-05T13:54:48.988Z</time>
      </trkpt>
      <trkpt lat="43.99463" lon="5.90493">
        <ele>653</ele>
        <time>2020-10-05T13:54:49.988Z</time>
      </trkpt>
      <trkpt lat="43.99462" lon="5.90494">
        <ele>653</ele>
        <time>2020-10-05T13:54:50.988Z</time>
      </trkpt>
      <trkpt lat="43.99462" lon="5.90495">
        <ele>653</ele>
        <time>2020-10-05T13:54:51.988Z</time>
      </trkpt>
      <trkpt lat="43.99462" lon="5.90496">
        <ele>653</ele>
        <time>2020-10-05T13:54:52.988Z</time>
      </trkpt>
      <trkpt lat="43.99461" lon="5.90497">
        <ele>653</ele>
        <time>2020-10-05T13:54:53.988Z</time>
      </trkpt>
      <trkpt lat="43.99461" lon="5.90498">
        <ele>653</ele>
        <time>2020-10-05T13:54:54.988Z</time>
      </trkpt>
      <trkpt lat="43.99461" lon="5.905">
        <ele>653</ele>
        <time>2020-10-05T13:54:55.988Z</time>
      </trkpt>
      <trkpt lat="43.99461" lon="5.90501">
        <ele>653</ele>
        <time>2020-10-05T13:54:56.988Z</time>
      </trkpt>
      <trkpt lat="43.99461" lon="5.90502">
        <ele>653</ele>
        <time>2020-10-05T13:54:57.988Z</time>
      </trkpt>
      <trkpt lat="43.99461" lon="5.90503">
        <ele>654</ele>
        <time>2020-10-05T13:54:58.988Z</time>
      </trkpt>
      <trkpt lat="43.99461" lon="5.90504">
        <ele>654</ele>
        <time>2020-10-05T13:54:59.988Z</time>
      </trkpt>
      <trkpt lat="43.9946" lon="5.90505">
        <ele>654</ele>
        <time>2020-10-05T13:55:00.988Z</time>
      </trkpt>
      <trkpt lat="43.9946" lon="5.90506">
        <ele>654</ele>
        <time>2020-10-05T13:55:01.988Z</time>
      </trkpt>
      <trkpt lat="43.9946" lon="5.90507">
        <ele>654</ele>
        <time>2020-10-05T13:55:02.988Z</time>
      </trkpt>
      <trkpt lat="43.99459" lon="5.90508">
        <ele>654</ele>
        <time>2020-10-05T13:55:03.988Z</time>
      </trkpt>
      <trkpt lat="43.99458" lon="5.90509">
        <ele>653</ele>
        <time>2020-10-05T13:55:04.988Z</time>
      </trkpt>
      <trkpt lat="43.99457" lon="5.9051">
        <ele>653</ele>
        <time>2020-10-05T13:55:05.988Z</time>
      </trkpt>
      <trkpt lat="43.99456" lon="5.90511">
        <ele>653</ele>
        <time>2020-10-05T13:55:06.988Z</time>
      </trkpt>
      <trkpt lat="43.99455" lon="5.90512">
        <ele>653</ele>
        <time>2020-10-05T13:55:07.988Z</time>
      </trkpt>
      <trkpt lat="43.99454" lon="5.90513">
        <ele>653</ele>
        <time>2020-10-05T13:55:08.988Z</time>
      </trkpt>
      <trkpt lat="43.99453" lon="5.90515">
        <ele>653</ele>
        <time>2020-10-05T13:55:09.988Z</time>
      </trkpt>
      <trkpt lat="43.99453" lon="5.90516">
        <ele>652</ele>
        <time>2020-10-05T13:55:10.988Z</time>
      </trkpt>
      <trkpt lat="43.99452" lon="5.90517">
        <ele>652</ele>
        <time>2020-10-05T13:55:11.988Z</time>
      </trkpt>
      <trkpt lat="43.99451" lon="5.90518">
        <ele>652</ele>
        <time>2020-10-05T13:55:12.988Z</time>
      </trkpt>
      <trkpt lat="43.9945" lon="5.90519">
        <ele>652</ele>
        <time>2020-10-05T13:55:13.988Z</time>
      </trkpt>
      <trkpt lat="43.99449" lon="5.9052">
        <ele>652</ele>
        <time>2020-10-05T13:55:14.988Z</time>
      </trkpt>
      <trkpt lat="43.99448" lon="5.90522">
        <ele>652</ele>
        <time>2020-10-05T13:55:15.988Z</time>
      </trkpt>
      <trkpt lat="43.99448" lon="5.90523">
        <ele>652</ele>
        <time>2020-10-05T13:55:16.988Z</time>
      </trkpt>
      <trkpt lat="43.99447" lon="5.90524">
        <ele>652</ele>
        <time>2020-10-05T13:55:17.988Z</time>
      </trkpt>
      <trkpt lat="43.99447" lon="5.90525">
        <ele>652</ele>
        <time>2020-10-05T13:55:18.988Z</time>
      </trkpt>
      <trkpt lat="43.99447" lon="5.90527">
        <ele>651</ele>
        <time>2020-10-05T13:55:19.988Z</time>
      </trkpt>
      <trkpt lat="43.99446" lon="5.90528">
        <ele>651</ele>
        <time>2020-10-05T13:55:20.988Z</time>
      </trkpt>
      <trkpt lat="43.99446" lon="5.9053">
        <ele>651</ele>
        <time>2020-10-05T13:55:21.988Z</time>
      </trkpt>
      <trkpt lat="43.99446" lon="5.90531">
        <ele>651</ele>
        <time>2020-10-05T13:55:22.988Z</time>
      </trkpt>
      <trkpt lat="43.99446" lon="5.90532">
        <ele>651</ele>
        <time>2020-10-05T13:55:23.988Z</time>
      </trkpt>
      <trkpt lat="43.99446" lon="5.90533">
        <ele>651</ele>
        <time>2020-10-05T13:55:24.988Z</time>
      </trkpt>
      <trkpt lat="43.99446" lon="5.90534">
        <ele>651</ele>
        <time>2020-10-05T13:55:25.988Z</time>
      </trkpt>
      <trkpt lat="43.99446" lon="5.90535">
        <ele>651</ele>
        <time>2020-10-05T13:55:26.988Z</time>
      </trkpt>
      <trkpt lat="43.99446" lon="5.90536">
        <ele>651</ele>
        <time>2020-10-05T13:55:27.988Z</time>
      </trkpt>
      <trkpt lat="43.99446" lon="5.90537">
        <ele>651</ele>
        <time>2020-10-05T13:55:28.988Z</time>
      </trkpt>
      <trkpt lat="43.99446" lon="5.90538">
        <ele>651</ele>
        <time>2020-10-05T13:55:29.988Z</time>
      </trkpt>
      <trkpt lat="43.99446" lon="5.90539">
        <ele>651</ele>
        <time>2020-10-05T13:55:30.988Z</time>
      </trkpt>
      <trkpt lat="43.99446" lon="5.90541">
        <ele>651</ele>
        <time>2020-10-05T13:55:31.988Z</time>
      </trkpt>
      <trkpt lat="43.99447" lon="5.90542">
        <ele>651</ele>
        <time>2020-10-05T13:55:32.988Z</time>
      </trkpt>
      <trkpt lat="43.99447" lon="5.90543">
        <ele>651</ele>
        <time>2020-10-05T13:55:33.988Z</time>
      </trkpt>
      <trkpt lat="43.99448" lon="5.90544">
        <ele>651</ele>
        <time>2020-10-05T13:55:34.988Z</time>
      </trkpt>
      <trkpt lat="43.99448" lon="5.90545">
        <ele>651</ele>
        <time>2020-10-05T13:55:35.988Z</time>
      </trkpt>
      <trkpt lat="43.99448" lon="5.90546">
        <ele>651</ele>
        <time>2020-10-05T13:55:36.988Z</time>
      </trkpt>
      <trkpt lat="43.99448" lon="5.90548">
        <ele>651</ele>
        <time>2020-10-05T13:55:37.988Z</time>
      </trkpt>
      <trkpt lat="43.99448" lon="5.90549">
        <ele>651</ele>
        <time>2020-10-05T13:55:38.988Z</time>
      </trkpt>
      <trkpt lat="43.99449" lon="5.90551">
        <ele>651</ele>
        <time>2020-10-05T13:55:39.988Z</time>
      </trkpt>
      <trkpt lat="43.99449" lon="5.90552">
        <ele>651</ele>
        <time>2020-10-05T13:55:40.988Z</time>
      </trkpt>
      <trkpt lat="43.99449" lon="5.90554">
        <ele>651</ele>
        <time>2020-10-05T13:55:41.988Z</time>
      </trkpt>
      <trkpt lat="43.9945" lon="5.90555">
        <ele>651</ele>
        <time>2020-10-05T13:55:42.988Z</time>
      </trkpt>
      <trkpt lat="43.9945" lon="5.90557">
        <ele>651</ele>
        <time>2020-10-05T13:55:43.988Z</time>
      </trkpt>
      <trkpt lat="43.9945" lon="5.90559">
        <ele>651</ele>
        <time>2020-10-05T13:55:44.988Z</time>
      </trkpt>
      <trkpt lat="43.9945" lon="5.9056">
        <ele>651</ele>
        <time>2020-10-05T13:55:45.988Z</time>
      </trkpt>
      <trkpt lat="43.99449" lon="5.90561">
        <ele>651</ele>
        <time>2020-10-05T13:55:46.988Z</time>
      </trkpt>
      <trkpt lat="43.99449" lon="5.90562">
        <ele>651</ele>
        <time>2020-10-05T13:55:47.988Z</time>
      </trkpt>
      <trkpt lat="43.99448" lon="5.90564">
        <ele>651</ele>
        <time>2020-10-05T13:55:48.988Z</time>
      </trkpt>
      <trkpt lat="43.99447" lon="5.90565">
        <ele>651</ele>
        <time>2020-10-05T13:55:49.988Z</time>
      </trkpt>
      <trkpt lat="43.99447" lon="5.90566">
        <ele>651</ele>
        <time>2020-10-05T13:55:50.988Z</time>
      </trkpt>
      <trkpt lat="43.99446" lon="5.90568">
        <ele>651</ele>
        <time>2020-10-05T13:55:51.988Z</time>
      </trkpt>
      <trkpt lat="43.99446" lon="5.9057">
        <ele>651</ele>
        <time>2020-10-05T13:55:52.988Z</time>
      </trkpt>
      <trkpt lat="43.99446" lon="5.90572">
        <ele>651</ele>
        <time>2020-10-05T13:55:53.988Z</time>
      </trkpt>
      <trkpt lat="43.99446" lon="5.90573">
        <ele>651</ele>
        <time>2020-10-05T13:55:54.988Z</time>
      </trkpt>
      <trkpt lat="43.99446" lon="5.90575">
        <ele>651</ele>
        <time>2020-10-05T13:55:55.988Z</time>
      </trkpt>
      <trkpt lat="43.99446" lon="5.90577">
        <ele>651</ele>
        <time>2020-10-05T13:55:56.988Z</time>
      </trkpt>
      <trkpt lat="43.99445" lon="5.90579">
        <ele>651</ele>
        <time>2020-10-05T13:55:57.988Z</time>
      </trkpt>
      <trkpt lat="43.99445" lon="5.9058">
        <ele>651</ele>
        <time>2020-10-05T13:55:58.988Z</time>
      </trkpt>
      <trkpt lat="43.99445" lon="5.90581">
        <ele>651</ele>
        <time>2020-10-05T13:55:59.988Z</time>
      </trkpt>
      <trkpt lat="43.99445" lon="5.90583">
        <ele>651</ele>
        <time>2020-10-05T13:56:00.988Z</time>
      </trkpt>
      <trkpt lat="43.99444" lon="5.90584">
        <ele>651</ele>
        <time>2020-10-05T13:56:01.988Z</time>
      </trkpt>
      <trkpt lat="43.99444" lon="5.90586">
        <ele>651</ele>
        <time>2020-10-05T13:56:02.988Z</time>
      </trkpt>
      <trkpt lat="43.99444" lon="5.90588">
        <ele>651</ele>
        <time>2020-10-05T13:56:03.988Z</time>
      </trkpt>
      <trkpt lat="43.99444" lon="5.90589">
        <ele>651</ele>
        <time>2020-10-05T13:56:04.988Z</time>
      </trkpt>
      <trkpt lat="43.99443" lon="5.90591">
        <ele>651</ele>
        <time>2020-10-05T13:56:05.988Z</time>
      </trkpt>
      <trkpt lat="43.99442" lon="5.90592">
        <ele>651</ele>
        <time>2020-10-05T13:56:06.988Z</time>
      </trkpt>
      <trkpt lat="43.99442" lon="5.90594">
        <ele>651</ele>
        <time>2020-10-05T13:56:07.988Z</time>
      </trkpt>
      <trkpt lat="43.99441" lon="5.90595">
        <ele>651</ele>
        <time>2020-10-05T13:56:08.988Z</time>
      </trkpt>
      <trkpt lat="43.99441" lon="5.90597">
        <ele>651</ele>
        <time>2020-10-05T13:56:09.988Z</time>
      </trkpt>
      <trkpt lat="43.9944" lon="5.90599">
        <ele>651</ele>
        <time>2020-10-05T13:56:10.988Z</time>
      </trkpt>
      <trkpt lat="43.9944" lon="5.90601">
        <ele>651</ele>
        <time>2020-10-05T13:56:11.988Z</time>
      </trkpt>
      <trkpt lat="43.99439" lon="5.90602">
        <ele>651</ele>
        <time>2020-10-05T13:56:12.988Z</time>
      </trkpt>
      <trkpt lat="43.99438" lon="5.90604">
        <ele>651</ele>
        <time>2020-10-05T13:56:13.988Z</time>
      </trkpt>
      <trkpt lat="43.99438" lon="5.90605">
        <ele>651</ele>
        <time>2020-10-05T13:56:14.988Z</time>
      </trkpt>
      <trkpt lat="43.99437" lon="5.90607">
        <ele>651</ele>
        <time>2020-10-05T13:56:15.988Z</time>
      </trkpt>
      <trkpt lat="43.99437" lon="5.90608">
        <ele>651</ele>
        <time>2020-10-05T13:56:16.988Z</time>
      </trkpt>
      <trkpt lat="43.99436" lon="5.90609">
        <ele>651</ele>
        <time>2020-10-05T13:56:17.988Z</time>
      </trkpt>
      <trkpt lat="43.99436" lon="5.90611">
        <ele>651</ele>
        <time>2020-10-05T13:56:18.988Z</time>
      </trkpt>
      <trkpt lat="43.99435" lon="5.90612">
        <ele>651</ele>
        <time>2020-10-05T13:56:19.988Z</time>
      </trkpt>
      <trkpt lat="43.99435" lon="5.90614">
        <ele>651</ele>
        <time>2020-10-05T13:56:20.988Z</time>
      </trkpt>
      <trkpt lat="43.99434" lon="5.90615">
        <ele>651</ele>
        <time>2020-10-05T13:56:21.988Z</time>
      </trkpt>
      <trkpt lat="43.99434" lon="5.90616">
        <ele>651</ele>
        <time>2020-10-05T13:56:22.988Z</time>
      </trkpt>
      <trkpt lat="43.99434" lon="5.90618">
        <ele>651</ele>
        <time>2020-10-05T13:56:23.988Z</time>
      </trkpt>
      <trkpt lat="43.99433" lon="5.90619">
        <ele>651</ele>
        <time>2020-10-05T13:56:24.988Z</time>
      </trkpt>
      <trkpt lat="43.99432" lon="5.90621">
        <ele>651</ele>
        <time>2020-10-05T13:56:25.988Z</time>
      </trkpt>
      <trkpt lat="43.99432" lon="5.90622">
        <ele>651</ele>
        <time>2020-10-05T13:56:26.988Z</time>
      </trkpt>
      <trkpt lat="43.99432" lon="5.90624">
        <ele>651</ele>
        <time>2020-10-05T13:56:27.988Z</time>
      </trkpt>
      <trkpt lat="43.99432" lon="5.90625">
        <ele>651</ele>
        <time>2020-10-05T13:56:28.988Z</time>
      </trkpt>
      <trkpt lat="43.99432" lon="5.90627">
        <ele>651</ele>
        <time>2020-10-05T13:56:29.988Z</time>
      </trkpt>
      <trkpt lat="43.99432" lon="5.90628">
        <ele>651</ele>
        <time>2020-10-05T13:56:30.988Z</time>
      </trkpt>
      <trkpt lat="43.99432" lon="5.9063">
        <ele>651</ele>
        <time>2020-10-05T13:56:31.988Z</time>
      </trkpt>
      <trkpt lat="43.99432" lon="5.90632">
        <ele>651</ele>
        <time>2020-10-05T13:56:32.988Z</time>
      </trkpt>
      <trkpt lat="43.99432" lon="5.90633">
        <ele>651</ele>
        <time>2020-10-05T13:56:33.988Z</time>
      </trkpt>
      <trkpt lat="43.99432" lon="5.90635">
        <ele>651</ele>
        <time>2020-10-05T13:56:34.988Z</time>
      </trkpt>
      <trkpt lat="43.99433" lon="5.90636">
        <ele>651</ele>
        <time>2020-10-05T13:56:35.988Z</time>
      </trkpt>
      <trkpt lat="43.99433" lon="5.90637">
        <ele>651</ele>
        <time>2020-10-05T13:56:36.988Z</time>
      </trkpt>
      <trkpt lat="43.99433" lon="5.90639">
        <ele>651</ele>
        <time>2020-10-05T13:56:37.988Z</time>
      </trkpt>
      <trkpt lat="43.99432" lon="5.9064">
        <ele>651</ele>
        <time>2020-10-05T13:56:38.988Z</time>
      </trkpt>
      <trkpt lat="43.99432" lon="5.90641">
        <ele>651</ele>
        <time>2020-10-05T13:56:39.988Z</time>
      </trkpt>
      <trkpt lat="43.99431" lon="5.90642">
        <ele>651</ele>
        <time>2020-10-05T13:56:40.988Z</time>
      </trkpt>
      <trkpt lat="43.99431" lon="5.90644">
        <ele>651</ele>
        <time>2020-10-05T13:56:41.988Z</time>
      </trkpt>
      <trkpt lat="43.99431" lon="5.90645">
        <ele>651</ele>
        <time>2020-10-05T13:56:42.988Z</time>
      </trkpt>
      <trkpt lat="43.99431" lon="5.90646">
        <ele>651</ele>
        <time>2020-10-05T13:56:43.988Z</time>
      </trkpt>
      <trkpt lat="43.99431" lon="5.90647">
        <ele>651</ele>
        <time>2020-10-05T13:56:44.988Z</time>
      </trkpt>
      <trkpt lat="43.99432" lon="5.90648">
        <ele>651</ele>
        <time>2020-10-05T13:56:45.988Z</time>
      </trkpt>
      <trkpt lat="43.99432" lon="5.9065">
        <ele>651</ele>
        <time>2020-10-05T13:56:46.988Z</time>
      </trkpt>
      <trkpt lat="43.99432" lon="5.90651">
        <ele>651</ele>
        <time>2020-10-05T13:56:47.988Z</time>
      </trkpt>
      <trkpt lat="43.99432" lon="5.90652">
        <ele>650</ele>
        <time>2020-10-05T13:56:48.988Z</time>
      </trkpt>
      <trkpt lat="43.99432" lon="5.90653">
        <ele>650</ele>
        <time>2020-10-05T13:56:49.988Z</time>
      </trkpt>
      <trkpt lat="43.99432" lon="5.90654">
        <ele>650</ele>
        <time>2020-10-05T13:56:50.988Z</time>
      </trkpt>
      <trkpt lat="43.99432" lon="5.90655">
        <ele>650</ele>
        <time>2020-10-05T13:56:51.988Z</time>
      </trkpt>
      <trkpt lat="43.99432" lon="5.90656">
        <ele>650</ele>
        <time>2020-10-05T13:56:52.988Z</time>
      </trkpt>
      <trkpt lat="43.99431" lon="5.90658">
        <ele>650</ele>
        <time>2020-10-05T13:56:53.988Z</time>
      </trkpt>
      <trkpt lat="43.99431" lon="5.90659">
        <ele>650</ele>
        <time>2020-10-05T13:56:54.988Z</time>
      </trkpt>
      <trkpt lat="43.99431" lon="5.90661">
        <ele>650</ele>
        <time>2020-10-05T13:56:55.988Z</time>
      </trkpt>
      <trkpt lat="43.9943" lon="5.90662">
        <ele>650</ele>
        <time>2020-10-05T13:56:56.988Z</time>
      </trkpt>
      <trkpt lat="43.9943" lon="5.90664">
        <ele>650</ele>
        <time>2020-10-05T13:56:57.988Z</time>
      </trkpt>
      <trkpt lat="43.99429" lon="5.90666">
        <ele>650</ele>
        <time>2020-10-05T13:56:58.988Z</time>
      </trkpt>
      <trkpt lat="43.99429" lon="5.90668">
        <ele>650</ele>
        <time>2020-10-05T13:56:59.988Z</time>
      </trkpt>
      <trkpt lat="43.99428" lon="5.90669">
        <ele>649</ele>
        <time>2020-10-05T13:57:00.988Z</time>
      </trkpt>
      <trkpt lat="43.99428" lon="5.9067">
        <ele>649</ele>
        <time>2020-10-05T13:57:01.988Z</time>
      </trkpt>
      <trkpt lat="43.99428" lon="5.90671">
        <ele>649</ele>
        <time>2020-10-05T13:57:02.988Z</time>
      </trkpt>
      <trkpt lat="43.99427" lon="5.90672">
        <ele>649</ele>
        <time>2020-10-05T13:57:03.988Z</time>
      </trkpt>
      <trkpt lat="43.99427" lon="5.90672">
        <ele>649</ele>
        <time>2020-10-05T13:57:04.988Z</time>
      </trkpt>
      <trkpt lat="43.99427" lon="5.90672">
        <ele>649</ele>
        <time>2020-10-05T13:57:05.988Z</time>
      </trkpt>
      <trkpt lat="43.99427" lon="5.90672">
        <ele>649</ele>
        <time>2020-10-05T13:57:06.988Z</time>
      </trkpt>
      <trkpt lat="43.99428" lon="5.90673">
        <ele>649</ele>
        <time>2020-10-05T13:57:07.988Z</time>
      </trkpt>
      <trkpt lat="43.99428" lon="5.90673">
        <ele>649</ele>
        <time>2020-10-05T13:57:08.988Z</time>
      </trkpt>
      <trkpt lat="43.99428" lon="5.90674">
        <ele>649</ele>
        <time>2020-10-05T13:57:09.988Z</time>
      </trkpt>
      <trkpt lat="43.99429" lon="5.90676">
        <ele>649</ele>
        <time>2020-10-05T13:57:10.988Z</time>
      </trkpt>
      <trkpt lat="43.99429" lon="5.90677">
        <ele>649</ele>
        <time>2020-10-05T13:57:11.988Z</time>
      </trkpt>
      <trkpt lat="43.9943" lon="5.90679">
        <ele>648</ele>
        <time>2020-10-05T13:57:12.988Z</time>
      </trkpt>
      <trkpt lat="43.99431" lon="5.9068">
        <ele>648</ele>
        <time>2020-10-05T13:57:13.988Z</time>
      </trkpt>
      <trkpt lat="43.99431" lon="5.90681">
        <ele>648</ele>
        <time>2020-10-05T13:57:14.988Z</time>
      </trkpt>
      <trkpt lat="43.99431" lon="5.90682">
        <ele>648</ele>
        <time>2020-10-05T13:57:15.988Z</time>
      </trkpt>
      <trkpt lat="43.99432" lon="5.90683">
        <ele>648</ele>
        <time>2020-10-05T13:57:16.988Z</time>
      </trkpt>
      <trkpt lat="43.99433" lon="5.90684">
        <ele>648</ele>
        <time>2020-10-05T13:57:17.988Z</time>
      </trkpt>
      <trkpt lat="43.99433" lon="5.90684">
        <ele>648</ele>
        <time>2020-10-05T13:57:18.988Z</time>
      </trkpt>
      <trkpt lat="43.99434" lon="5.90685">
        <ele>648</ele>
        <time>2020-10-05T13:57:19.988Z</time>
      </trkpt>
      <trkpt lat="43.99435" lon="5.90685">
        <ele>648</ele>
        <time>2020-10-05T13:57:20.988Z</time>
      </trkpt>
      <trkpt lat="43.99436" lon="5.90687">
        <ele>648</ele>
        <time>2020-10-05T13:57:21.988Z</time>
      </trkpt>
      <trkpt lat="43.99437" lon="5.90687">
        <ele>648</ele>
        <time>2020-10-05T13:57:22.988Z</time>
      </trkpt>
      <trkpt lat="43.99438" lon="5.90688">
        <ele>648</ele>
        <time>2020-10-05T13:57:23.988Z</time>
      </trkpt>
      <trkpt lat="43.99439" lon="5.90689">
        <ele>648</ele>
        <time>2020-10-05T13:57:24.988Z</time>
      </trkpt>
      <trkpt lat="43.9944" lon="5.90689">
        <ele>648</ele>
        <time>2020-10-05T13:57:25.988Z</time>
      </trkpt>
      <trkpt lat="43.9944" lon="5.9069">
        <ele>648</ele>
        <time>2020-10-05T13:57:26.988Z</time>
      </trkpt>
      <trkpt lat="43.99442" lon="5.9069">
        <ele>648</ele>
        <time>2020-10-05T13:57:27.988Z</time>
      </trkpt>
      <trkpt lat="43.99442" lon="5.9069">
        <ele>648</ele>
        <time>2020-10-05T13:57:28.988Z</time>
      </trkpt>
      <trkpt lat="43.99442" lon="5.9069">
        <ele>648</ele>
        <time>2020-10-05T13:57:29.988Z</time>
      </trkpt>
      <trkpt lat="43.99442" lon="5.9069">
        <ele>648</ele>
        <time>2020-10-05T13:57:30.988Z</time>
      </trkpt>
      <trkpt lat="43.99443" lon="5.90691">
        <ele>648</ele>
        <time>2020-10-05T13:57:31.988Z</time>
      </trkpt>
      <trkpt lat="43.99444" lon="5.90692">
        <ele>648</ele>
        <time>2020-10-05T13:57:32.988Z</time>
      </trkpt>
      <trkpt lat="43.99445" lon="5.90693">
        <ele>648</ele>
        <time>2020-10-05T13:57:33.988Z</time>
      </trkpt>
      <trkpt lat="43.99446" lon="5.90694">
        <ele>648</ele>
        <time>2020-10-05T13:57:34.988Z</time>
      </trkpt>
      <trkpt lat="43.99447" lon="5.90694">
        <ele>648</ele>
        <time>2020-10-05T13:57:35.988Z</time>
      </trkpt>
      <trkpt lat="43.99448" lon="5.90695">
        <ele>648</ele>
        <time>2020-10-05T13:57:36.988Z</time>
      </trkpt>
      <trkpt lat="43.99448" lon="5.90696">
        <ele>648</ele>
        <time>2020-10-05T13:57:37.988Z</time>
      </trkpt>
      <trkpt lat="43.99449" lon="5.90697">
        <ele>648</ele>
        <time>2020-10-05T13:57:38.988Z</time>
      </trkpt>
      <trkpt lat="43.9945" lon="5.90698">
        <ele>648</ele>
        <time>2020-10-05T13:57:39.988Z</time>
      </trkpt>
      <trkpt lat="43.99451" lon="5.90699">
        <ele>648</ele>
        <time>2020-10-05T13:57:40.988Z</time>
      </trkpt>
      <trkpt lat="43.99452" lon="5.90699">
        <ele>648</ele>
        <time>2020-10-05T13:57:41.988Z</time>
      </trkpt>
      <trkpt lat="43.99453" lon="5.90699">
        <ele>648</ele>
        <time>2020-10-05T13:57:42.988Z</time>
      </trkpt>
      <trkpt lat="43.99454" lon="5.90699">
        <ele>648</ele>
        <time>2020-10-05T13:57:43.988Z</time>
      </trkpt>
      <trkpt lat="43.99455" lon="5.90699">
        <ele>648</ele>
        <time>2020-10-05T13:57:44.988Z</time>
      </trkpt>
      <trkpt lat="43.99456" lon="5.90699">
        <ele>648</ele>
        <time>2020-10-05T13:57:45.988Z</time>
      </trkpt>
      <trkpt lat="43.99457" lon="5.90698">
        <ele>647</ele>
        <time>2020-10-05T13:57:46.988Z</time>
      </trkpt>
      <trkpt lat="43.99458" lon="5.90697">
        <ele>647</ele>
        <time>2020-10-05T13:57:47.988Z</time>
      </trkpt>
      <trkpt lat="43.99459" lon="5.90697">
        <ele>647</ele>
        <time>2020-10-05T13:57:48.988Z</time>
      </trkpt>
      <trkpt lat="43.9946" lon="5.90696">
        <ele>647</ele>
        <time>2020-10-05T13:57:49.988Z</time>
      </trkpt>
      <trkpt lat="43.99461" lon="5.90696">
        <ele>647</ele>
        <time>2020-10-05T13:57:50.988Z</time>
      </trkpt>
      <trkpt lat="43.99462" lon="5.90696">
        <ele>647</ele>
        <time>2020-10-05T13:57:51.988Z</time>
      </trkpt>
      <trkpt lat="43.99463" lon="5.90697">
        <ele>647</ele>
        <time>2020-10-05T13:57:52.988Z</time>
      </trkpt>
      <trkpt lat="43.99464" lon="5.90698">
        <ele>647</ele>
        <time>2020-10-05T13:57:53.988Z</time>
      </trkpt>
      <trkpt lat="43.99465" lon="5.90699">
        <ele>647</ele>
        <time>2020-10-05T13:57:54.988Z</time>
      </trkpt>
      <trkpt lat="43.99466" lon="5.90701">
        <ele>647</ele>
        <time>2020-10-05T13:57:55.988Z</time>
      </trkpt>
      <trkpt lat="43.99467" lon="5.90702">
        <ele>646</ele>
        <time>2020-10-05T13:57:56.988Z</time>
      </trkpt>
      <trkpt lat="43.99468" lon="5.90702">
        <ele>646</ele>
        <time>2020-10-05T13:57:57.988Z</time>
      </trkpt>
      <trkpt lat="43.99469" lon="5.90703">
        <ele>646</ele>
        <time>2020-10-05T13:57:58.988Z</time>
      </trkpt>
      <trkpt lat="43.9947" lon="5.90703">
        <ele>646</ele>
        <time>2020-10-05T13:57:59.988Z</time>
      </trkpt>
      <trkpt lat="43.99471" lon="5.90703">
        <ele>646</ele>
        <time>2020-10-05T13:58:00.988Z</time>
      </trkpt>
      <trkpt lat="43.99472" lon="5.90704">
        <ele>646</ele>
        <time>2020-10-05T13:58:01.988Z</time>
      </trkpt>
      <trkpt lat="43.99473" lon="5.90704">
        <ele>646</ele>
        <time>2020-10-05T13:58:02.988Z</time>
      </trkpt>
      <trkpt lat="43.99474" lon="5.90704">
        <ele>646</ele>
        <time>2020-10-05T13:58:03.988Z</time>
      </trkpt>
      <trkpt lat="43.99475" lon="5.90706">
        <ele>646</ele>
        <time>2020-10-05T13:58:04.988Z</time>
      </trkpt>
      <trkpt lat="43.99475" lon="5.90707">
        <ele>646</ele>
        <time>2020-10-05T13:58:05.988Z</time>
      </trkpt>
      <trkpt lat="43.99475" lon="5.90708">
        <ele>646</ele>
        <time>2020-10-05T13:58:06.988Z</time>
      </trkpt>
      <trkpt lat="43.99474" lon="5.90709">
        <ele>646</ele>
        <time>2020-10-05T13:58:07.988Z</time>
      </trkpt>
      <trkpt lat="43.99473" lon="5.9071">
        <ele>646</ele>
        <time>2020-10-05T13:58:08.988Z</time>
      </trkpt>
      <trkpt lat="43.99472" lon="5.90711">
        <ele>646</ele>
        <time>2020-10-05T13:58:09.988Z</time>
      </trkpt>
      <trkpt lat="43.99471" lon="5.90712">
        <ele>646</ele>
        <time>2020-10-05T13:58:10.988Z</time>
      </trkpt>
      <trkpt lat="43.9947" lon="5.90712">
        <ele>645</ele>
        <time>2020-10-05T13:58:11.988Z</time>
      </trkpt>
      <trkpt lat="43.99469" lon="5.90713">
        <ele>645</ele>
        <time>2020-10-05T13:58:12.988Z</time>
      </trkpt>
      <trkpt lat="43.99468" lon="5.90714">
        <ele>645</ele>
        <time>2020-10-05T13:58:13.988Z</time>
      </trkpt>
      <trkpt lat="43.99467" lon="5.90714">
        <ele>645</ele>
        <time>2020-10-05T13:58:14.988Z</time>
      </trkpt>
      <trkpt lat="43.99465" lon="5.90715">
        <ele>645</ele>
        <time>2020-10-05T13:58:15.988Z</time>
      </trkpt>
      <trkpt lat="43.99464" lon="5.90715">
        <ele>645</ele>
        <time>2020-10-05T13:58:16.988Z</time>
      </trkpt>
      <trkpt lat="43.99463" lon="5.90715">
        <ele>645</ele>
        <time>2020-10-05T13:58:17.988Z</time>
      </trkpt>
      <trkpt lat="43.99462" lon="5.90715">
        <ele>645</ele>
        <time>2020-10-05T13:58:18.988Z</time>
      </trkpt>
      <trkpt lat="43.99461" lon="5.90715">
        <ele>645</ele>
        <time>2020-10-05T13:58:19.988Z</time>
      </trkpt>
      <trkpt lat="43.9946" lon="5.90715">
        <ele>645</ele>
        <time>2020-10-05T13:58:20.988Z</time>
      </trkpt>
      <trkpt lat="43.99458" lon="5.90715">
        <ele>645</ele>
        <time>2020-10-05T13:58:21.988Z</time>
      </trkpt>
      <trkpt lat="43.99457" lon="5.90714">
        <ele>645</ele>
        <time>2020-10-05T13:58:22.988Z</time>
      </trkpt>
      <trkpt lat="43.99456" lon="5.90714">
        <ele>645</ele>
        <time>2020-10-05T13:58:23.988Z</time>
      </trkpt>
      <trkpt lat="43.99455" lon="5.90713">
        <ele>645</ele>
        <time>2020-10-05T13:58:24.988Z</time>
      </trkpt>
      <trkpt lat="43.99454" lon="5.90713">
        <ele>645</ele>
        <time>2020-10-05T13:58:25.988Z</time>
      </trkpt>
      <trkpt lat="43.99453" lon="5.90712">
        <ele>645</ele>
        <time>2020-10-05T13:58:26.988Z</time>
      </trkpt>
      <trkpt lat="43.99452" lon="5.90711">
        <ele>645</ele>
        <time>2020-10-05T13:58:27.988Z</time>
      </trkpt>
      <trkpt lat="43.9945" lon="5.90711">
        <ele>644</ele>
        <time>2020-10-05T13:58:28.988Z</time>
      </trkpt>
      <trkpt lat="43.99449" lon="5.9071">
        <ele>644</ele>
        <time>2020-10-05T13:58:29.988Z</time>
      </trkpt>
      <trkpt lat="43.99448" lon="5.90709">
        <ele>644</ele>
        <time>2020-10-05T13:58:30.988Z</time>
      </trkpt>
      <trkpt lat="43.99447" lon="5.90709">
        <ele>644</ele>
        <time>2020-10-05T13:58:31.988Z</time>
      </trkpt>
      <trkpt lat="43.99445" lon="5.90708">
        <ele>644</ele>
        <time>2020-10-05T13:58:32.988Z</time>
      </trkpt>
      <trkpt lat="43.99444" lon="5.90707">
        <ele>644</ele>
        <time>2020-10-05T13:58:33.988Z</time>
      </trkpt>
      <trkpt lat="43.99443" lon="5.90706">
        <ele>644</ele>
        <time>2020-10-05T13:58:34.988Z</time>
      </trkpt>
      <trkpt lat="43.99442" lon="5.90706">
        <ele>644</ele>
        <time>2020-10-05T13:58:35.988Z</time>
      </trkpt>
      <trkpt lat="43.99441" lon="5.90705">
        <ele>644</ele>
        <time>2020-10-05T13:58:36.988Z</time>
      </trkpt>
      <trkpt lat="43.9944" lon="5.90705">
        <ele>644</ele>
        <time>2020-10-05T13:58:37.988Z</time>
      </trkpt>
      <trkpt lat="43.99439" lon="5.90704">
        <ele>644</ele>
        <time>2020-10-05T13:58:38.988Z</time>
      </trkpt>
      <trkpt lat="43.99438" lon="5.90704">
        <ele>644</ele>
        <time>2020-10-05T13:58:39.988Z</time>
      </trkpt>
      <trkpt lat="43.99437" lon="5.90703">
        <ele>644</ele>
        <time>2020-10-05T13:58:40.988Z</time>
      </trkpt>
      <trkpt lat="43.99436" lon="5.90703">
        <ele>644</ele>
        <time>2020-10-05T13:58:41.988Z</time>
      </trkpt>
      <trkpt lat="43.99435" lon="5.90702">
        <ele>644</ele>
        <time>2020-10-05T13:58:42.988Z</time>
      </trkpt>
      <trkpt lat="43.99434" lon="5.90702">
        <ele>645</ele>
        <time>2020-10-05T13:58:43.988Z</time>
      </trkpt>
      <trkpt lat="43.99433" lon="5.90701">
        <ele>645</ele>
        <time>2020-10-05T13:58:44.988Z</time>
      </trkpt>
      <trkpt lat="43.99432" lon="5.90701">
        <ele>645</ele>
        <time>2020-10-05T13:58:45.988Z</time>
      </trkpt>
      <trkpt lat="43.99431" lon="5.907">
        <ele>645</ele>
        <time>2020-10-05T13:58:46.988Z</time>
      </trkpt>
      <trkpt lat="43.99431" lon="5.907">
        <ele>645</ele>
        <time>2020-10-05T13:58:47.988Z</time>
      </trkpt>
      <trkpt lat="43.9943" lon="5.907">
        <ele>645</ele>
        <time>2020-10-05T13:58:48.988Z</time>
      </trkpt>
      <trkpt lat="43.9943" lon="5.90701">
        <ele>645</ele>
        <time>2020-10-05T13:58:49.988Z</time>
      </trkpt>
      <trkpt lat="43.9943" lon="5.90701">
        <ele>645</ele>
        <time>2020-10-05T13:58:50.988Z</time>
      </trkpt>
      <trkpt lat="43.9943" lon="5.90701">
        <ele>645</ele>
        <time>2020-10-05T13:58:51.988Z</time>
      </trkpt>
      <trkpt lat="43.99429" lon="5.907">
        <ele>645</ele>
        <time>2020-10-05T13:58:52.988Z</time>
      </trkpt>
      <trkpt lat="43.99428" lon="5.90699">
        <ele>645</ele>
        <time>2020-10-05T13:58:53.988Z</time>
      </trkpt>
      <trkpt lat="43.99428" lon="5.90698">
        <ele>645</ele>
        <time>2020-10-05T13:58:54.988Z</time>
      </trkpt>
      <trkpt lat="43.99427" lon="5.90698">
        <ele>645</ele>
        <time>2020-10-05T13:58:55.988Z</time>
      </trkpt>
      <trkpt lat="43.99426" lon="5.90697">
        <ele>645</ele>
        <time>2020-10-05T13:58:56.988Z</time>
      </trkpt>
      <trkpt lat="43.99425" lon="5.90696">
        <ele>645</ele>
        <time>2020-10-05T13:58:57.988Z</time>
      </trkpt>
      <trkpt lat="43.99424" lon="5.90694">
        <ele>645</ele>
        <time>2020-10-05T13:58:58.988Z</time>
      </trkpt>
      <trkpt lat="43.99424" lon="5.90693">
        <ele>645</ele>
        <time>2020-10-05T13:58:59.988Z</time>
      </trkpt>
      <trkpt lat="43.99423" lon="5.90692">
        <ele>644</ele>
        <time>2020-10-05T13:59:00.988Z</time>
      </trkpt>
      <trkpt lat="43.99422" lon="5.9069">
        <ele>644</ele>
        <time>2020-10-05T13:59:01.988Z</time>
      </trkpt>
      <trkpt lat="43.99422" lon="5.90689">
        <ele>644</ele>
        <time>2020-10-05T13:59:02.988Z</time>
      </trkpt>
      <trkpt lat="43.99421" lon="5.90687">
        <ele>644</ele>
        <time>2020-10-05T13:59:03.988Z</time>
      </trkpt>
      <trkpt lat="43.9942" lon="5.90686">
        <ele>643</ele>
        <time>2020-10-05T13:59:04.988Z</time>
      </trkpt>
      <trkpt lat="43.9942" lon="5.90684">
        <ele>643</ele>
        <time>2020-10-05T13:59:05.988Z</time>
      </trkpt>
      <trkpt lat="43.99419" lon="5.90683">
        <ele>643</ele>
        <time>2020-10-05T13:59:06.988Z</time>
      </trkpt>
      <trkpt lat="43.99419" lon="5.90681">
        <ele>643</ele>
        <time>2020-10-05T13:59:07.988Z</time>
      </trkpt>
      <trkpt lat="43.99419" lon="5.9068">
        <ele>643</ele>
        <time>2020-10-05T13:59:08.988Z</time>
      </trkpt>
      <trkpt lat="43.99419" lon="5.90678">
        <ele>642</ele>
        <time>2020-10-05T13:59:09.988Z</time>
      </trkpt>
      <trkpt lat="43.99418" lon="5.90676">
        <ele>642</ele>
        <time>2020-10-05T13:59:10.988Z</time>
      </trkpt>
      <trkpt lat="43.99418" lon="5.90675">
        <ele>642</ele>
        <time>2020-10-05T13:59:11.988Z</time>
      </trkpt>
      <trkpt lat="43.99417" lon="5.90673">
        <ele>642</ele>
        <time>2020-10-05T13:59:12.988Z</time>
      </trkpt>
      <trkpt lat="43.99417" lon="5.90671">
        <ele>641</ele>
        <time>2020-10-05T13:59:13.988Z</time>
      </trkpt>
      <trkpt lat="43.99416" lon="5.9067">
        <ele>641</ele>
        <time>2020-10-05T13:59:14.988Z</time>
      </trkpt>
      <trkpt lat="43.99416" lon="5.90668">
        <ele>641</ele>
        <time>2020-10-05T13:59:15.988Z</time>
      </trkpt>
      <trkpt lat="43.99416" lon="5.90667">
        <ele>641</ele>
        <time>2020-10-05T13:59:16.988Z</time>
      </trkpt>
      <trkpt lat="43.99416" lon="5.90665">
        <ele>641</ele>
        <time>2020-10-05T13:59:17.988Z</time>
      </trkpt>
      <trkpt lat="43.99416" lon="5.90663">
        <ele>640</ele>
        <time>2020-10-05T13:59:18.988Z</time>
      </trkpt>
      <trkpt lat="43.99415" lon="5.90662">
        <ele>640</ele>
        <time>2020-10-05T13:59:19.988Z</time>
      </trkpt>
      <trkpt lat="43.99415" lon="5.9066">
        <ele>640</ele>
        <time>2020-10-05T13:59:20.988Z</time>
      </trkpt>
      <trkpt lat="43.99415" lon="5.90658">
        <ele>640</ele>
        <time>2020-10-05T13:59:21.988Z</time>
      </trkpt>
      <trkpt lat="43.99415" lon="5.90656">
        <ele>640</ele>
        <time>2020-10-05T13:59:22.988Z</time>
      </trkpt>
      <trkpt lat="43.99415" lon="5.90655">
        <ele>640</ele>
        <time>2020-10-05T13:59:23.988Z</time>
      </trkpt>
      <trkpt lat="43.99415" lon="5.90653">
        <ele>640</ele>
        <time>2020-10-05T13:59:24.988Z</time>
      </trkpt>
      <trkpt lat="43.99416" lon="5.90652">
        <ele>639</ele>
        <time>2020-10-05T13:59:25.988Z</time>
      </trkpt>
      <trkpt lat="43.99416" lon="5.9065">
        <ele>639</ele>
        <time>2020-10-05T13:59:26.988Z</time>
      </trkpt>
      <trkpt lat="43.99416" lon="5.90648">
        <ele>639</ele>
        <time>2020-10-05T13:59:27.988Z</time>
      </trkpt>
      <trkpt lat="43.99416" lon="5.90647">
        <ele>639</ele>
        <time>2020-10-05T13:59:28.988Z</time>
      </trkpt>
      <trkpt lat="43.99416" lon="5.90645">
        <ele>639</ele>
        <time>2020-10-05T13:59:29.988Z</time>
      </trkpt>
      <trkpt lat="43.99416" lon="5.90643">
        <ele>639</ele>
        <time>2020-10-05T13:59:30.988Z</time>
      </trkpt>
      <trkpt lat="43.99416" lon="5.90641">
        <ele>639</ele>
        <time>2020-10-05T13:59:31.988Z</time>
      </trkpt>
      <trkpt lat="43.99416" lon="5.90639">
        <ele>638</ele>
        <time>2020-10-05T13:59:32.988Z</time>
      </trkpt>
      <trkpt lat="43.99416" lon="5.90637">
        <ele>638</ele>
        <time>2020-10-05T13:59:33.988Z</time>
      </trkpt>
      <trkpt lat="43.99417" lon="5.90636">
        <ele>638</ele>
        <time>2020-10-05T13:59:34.988Z</time>
      </trkpt>
      <trkpt lat="43.99417" lon="5.90634">
        <ele>638</ele>
        <time>2020-10-05T13:59:35.988Z</time>
      </trkpt>
      <trkpt lat="43.99417" lon="5.90632">
        <ele>638</ele>
        <time>2020-10-05T13:59:36.988Z</time>
      </trkpt>
      <trkpt lat="43.99417" lon="5.90631">
        <ele>638</ele>
        <time>2020-10-05T13:59:37.988Z</time>
      </trkpt>
      <trkpt lat="43.99417" lon="5.90629">
        <ele>638</ele>
        <time>2020-10-05T13:59:38.988Z</time>
      </trkpt>
      <trkpt lat="43.99418" lon="5.90628">
        <ele>638</ele>
        <time>2020-10-05T13:59:39.988Z</time>
      </trkpt>
      <trkpt lat="43.99418" lon="5.90626">
        <ele>638</ele>
        <time>2020-10-05T13:59:40.988Z</time>
      </trkpt>
      <trkpt lat="43.99418" lon="5.90624">
        <ele>638</ele>
        <time>2020-10-05T13:59:41.988Z</time>
      </trkpt>
      <trkpt lat="43.99418" lon="5.90623">
        <ele>637</ele>
        <time>2020-10-05T13:59:42.988Z</time>
      </trkpt>
      <trkpt lat="43.99418" lon="5.90621">
        <ele>637</ele>
        <time>2020-10-05T13:59:43.988Z</time>
      </trkpt>
      <trkpt lat="43.99417" lon="5.9062">
        <ele>637</ele>
        <time>2020-10-05T13:59:44.988Z</time>
      </trkpt>
      <trkpt lat="43.99417" lon="5.90619">
        <ele>637</ele>
        <time>2020-10-05T13:59:45.988Z</time>
      </trkpt>
      <trkpt lat="43.99416" lon="5.90617">
        <ele>637</ele>
        <time>2020-10-05T13:59:46.988Z</time>
      </trkpt>
      <trkpt lat="43.99416" lon="5.90617">
        <ele>637</ele>
        <time>2020-10-05T13:59:47.988Z</time>
      </trkpt>
      <trkpt lat="43.99415" lon="5.90616">
        <ele>637</ele>
        <time>2020-10-05T13:59:48.988Z</time>
      </trkpt>
      <trkpt lat="43.99414" lon="5.90616">
        <ele>636</ele>
        <time>2020-10-05T13:59:49.988Z</time>
      </trkpt>
      <trkpt lat="43.99413" lon="5.90616">
        <ele>636</ele>
        <time>2020-10-05T13:59:50.988Z</time>
      </trkpt>
      <trkpt lat="43.99412" lon="5.90616">
        <ele>636</ele>
        <time>2020-10-05T13:59:51.988Z</time>
      </trkpt>
      <trkpt lat="43.99411" lon="5.90616">
        <ele>636</ele>
        <time>2020-10-05T13:59:52.988Z</time>
      </trkpt>
      <trkpt lat="43.99409" lon="5.90617">
        <ele>636</ele>
        <time>2020-10-05T13:59:53.988Z</time>
      </trkpt>
      <trkpt lat="43.99408" lon="5.90618">
        <ele>636</ele>
        <time>2020-10-05T13:59:54.988Z</time>
      </trkpt>
      <trkpt lat="43.99407" lon="5.90618">
        <ele>635</ele>
        <time>2020-10-05T13:59:55.988Z</time>
      </trkpt>
      <trkpt lat="43.99406" lon="5.90619">
        <ele>635</ele>
        <time>2020-10-05T13:59:56.988Z</time>
      </trkpt>
      <trkpt lat="43.99405" lon="5.9062">
        <ele>635</ele>
        <time>2020-10-05T13:59:57.988Z</time>
      </trkpt>
      <trkpt lat="43.99404" lon="5.90621">
        <ele>635</ele>
        <time>2020-10-05T13:59:58.988Z</time>
      </trkpt>
      <trkpt lat="43.99403" lon="5.90622">
        <ele>635</ele>
        <time>2020-10-05T13:59:59.988Z</time>
      </trkpt>
      <trkpt lat="43.99403" lon="5.90624">
        <ele>635</ele>
        <time>2020-10-05T14:00:00.988Z</time>
      </trkpt>
      <trkpt lat="43.99402" lon="5.90625">
        <ele>635</ele>
        <time>2020-10-05T14:00:01.988Z</time>
      </trkpt>
      <trkpt lat="43.99402" lon="5.90626">
        <ele>635</ele>
        <time>2020-10-05T14:00:02.988Z</time>
      </trkpt>
      <trkpt lat="43.99401" lon="5.90628">
        <ele>635</ele>
        <time>2020-10-05T14:00:03.988Z</time>
      </trkpt>
      <trkpt lat="43.99401" lon="5.90629">
        <ele>634</ele>
        <time>2020-10-05T14:00:04.988Z</time>
      </trkpt>
      <trkpt lat="43.99401" lon="5.90631">
        <ele>634</ele>
        <time>2020-10-05T14:00:05.988Z</time>
      </trkpt>
      <trkpt lat="43.99401" lon="5.90633">
        <ele>634</ele>
        <time>2020-10-05T14:00:06.988Z</time>
      </trkpt>
      <trkpt lat="43.99401" lon="5.90634">
        <ele>634</ele>
        <time>2020-10-05T14:00:07.988Z</time>
      </trkpt>
      <trkpt lat="43.994" lon="5.90636">
        <ele>634</ele>
        <time>2020-10-05T14:00:08.988Z</time>
      </trkpt>
      <trkpt lat="43.994" lon="5.90637">
        <ele>634</ele>
        <time>2020-10-05T14:00:09.988Z</time>
      </trkpt>
      <trkpt lat="43.994" lon="5.90639">
        <ele>634</ele>
        <time>2020-10-05T14:00:10.988Z</time>
      </trkpt>
      <trkpt lat="43.994" lon="5.9064">
        <ele>634</ele>
        <time>2020-10-05T14:00:11.988Z</time>
      </trkpt>
      <trkpt lat="43.99399" lon="5.90642">
        <ele>633</ele>
        <time>2020-10-05T14:00:12.988Z</time>
      </trkpt>
      <trkpt lat="43.99399" lon="5.90644">
        <ele>633</ele>
        <time>2020-10-05T14:00:13.988Z</time>
      </trkpt>
      <trkpt lat="43.99398" lon="5.90646">
        <ele>633</ele>
        <time>2020-10-05T14:00:14.988Z</time>
      </trkpt>
      <trkpt lat="43.99398" lon="5.90646">
        <ele>633</ele>
        <time>2020-10-05T14:00:15.988Z</time>
      </trkpt>
      <trkpt lat="43.99398" lon="5.90647">
        <ele>633</ele>
        <time>2020-10-05T14:00:16.988Z</time>
      </trkpt>
      <trkpt lat="43.99397" lon="5.90647">
        <ele>633</ele>
        <time>2020-10-05T14:00:17.988Z</time>
      </trkpt>
      <trkpt lat="43.99397" lon="5.90648">
        <ele>632</ele>
        <time>2020-10-05T14:00:18.988Z</time>
      </trkpt>
      <trkpt lat="43.99397" lon="5.90648">
        <ele>632</ele>
        <time>2020-10-05T14:00:19.988Z</time>
      </trkpt>
      <trkpt lat="43.99397" lon="5.90648">
        <ele>632</ele>
        <time>2020-10-05T14:00:20.988Z</time>
      </trkpt>
      <trkpt lat="43.99397" lon="5.90649">
        <ele>632</ele>
        <time>2020-10-05T14:00:21.988Z</time>
      </trkpt>
      <trkpt lat="43.99396" lon="5.90649">
        <ele>632</ele>
        <time>2020-10-05T14:00:22.988Z</time>
      </trkpt>
      <trkpt lat="43.99396" lon="5.90649">
        <ele>632</ele>
        <time>2020-10-05T14:00:23.988Z</time>
      </trkpt>
      <trkpt lat="43.99396" lon="5.90649">
        <ele>632</ele>
        <time>2020-10-05T14:00:24.988Z</time>
      </trkpt>
      <trkpt lat="43.99396" lon="5.90649">
        <ele>631</ele>
        <time>2020-10-05T14:00:25.988Z</time>
      </trkpt>
      <trkpt lat="43.99396" lon="5.9065">
        <ele>631</ele>
        <time>2020-10-05T14:00:26.988Z</time>
      </trkpt>
      <trkpt lat="43.99395" lon="5.9065">
        <ele>631</ele>
        <time>2020-10-05T14:00:27.988Z</time>
      </trkpt>
      <trkpt lat="43.99395" lon="5.9065">
        <ele>631</ele>
        <time>2020-10-05T14:00:28.988Z</time>
      </trkpt>
      <trkpt lat="43.99394" lon="5.9065">
        <ele>631</ele>
        <time>2020-10-05T14:00:29.988Z</time>
      </trkpt>
      <trkpt lat="43.99394" lon="5.9065">
        <ele>631</ele>
        <time>2020-10-05T14:00:30.988Z</time>
      </trkpt>
      <trkpt lat="43.99393" lon="5.90651">
        <ele>631</ele>
        <time>2020-10-05T14:00:31.988Z</time>
      </trkpt>
      <trkpt lat="43.99393" lon="5.90651">
        <ele>630</ele>
        <time>2020-10-05T14:00:32.988Z</time>
      </trkpt>
      <trkpt lat="43.99393" lon="5.90651">
        <ele>630</ele>
        <time>2020-10-05T14:00:33.988Z</time>
      </trkpt>
      <trkpt lat="43.99392" lon="5.90652">
        <ele>630</ele>
        <time>2020-10-05T14:00:34.988Z</time>
      </trkpt>
      <trkpt lat="43.99392" lon="5.90652">
        <ele>630</ele>
        <time>2020-10-05T14:00:35.988Z</time>
      </trkpt>
      <trkpt lat="43.99391" lon="5.90653">
        <ele>630</ele>
        <time>2020-10-05T14:00:36.988Z</time>
      </trkpt>
      <trkpt lat="43.99391" lon="5.90653">
        <ele>630</ele>
        <time>2020-10-05T14:00:37.988Z</time>
      </trkpt>
      <trkpt lat="43.9939" lon="5.90653">
        <ele>629</ele>
        <time>2020-10-05T14:00:38.988Z</time>
      </trkpt>
      <trkpt lat="43.9939" lon="5.90653">
        <ele>629</ele>
        <time>2020-10-05T14:00:39.988Z</time>
      </trkpt>
      <trkpt lat="43.99389" lon="5.90653">
        <ele>629</ele>
        <time>2020-10-05T14:00:40.988Z</time>
      </trkpt>
      <trkpt lat="43.99389" lon="5.90653">
        <ele>629</ele>
        <time>2020-10-05T14:00:41.988Z</time>
      </trkpt>
      <trkpt lat="43.99389" lon="5.90653">
        <ele>629</ele>
        <time>2020-10-05T14:00:42.988Z</time>
      </trkpt>
      <trkpt lat="43.99389" lon="5.90654">
        <ele>629</ele>
        <time>2020-10-05T14:00:43.988Z</time>
      </trkpt>
      <trkpt lat="43.99389" lon="5.90654">
        <ele>629</ele>
        <time>2020-10-05T14:00:44.988Z</time>
      </trkpt>
      <trkpt lat="43.99389" lon="5.90655">
        <ele>629</ele>
        <time>2020-10-05T14:00:45.988Z</time>
      </trkpt>
      <trkpt lat="43.99388" lon="5.90655">
        <ele>629</ele>
        <time>2020-10-05T14:00:46.988Z</time>
      </trkpt>
      <trkpt lat="43.99388" lon="5.90655">
        <ele>629</ele>
        <time>2020-10-05T14:00:47.988Z</time>
      </trkpt>
      <trkpt lat="43.99388" lon="5.90655">
        <ele>629</ele>
        <time>2020-10-05T14:00:48.988Z</time>
      </trkpt>
      <trkpt lat="43.99387" lon="5.90655">
        <ele>629</ele>
        <time>2020-10-05T14:00:49.988Z</time>
      </trkpt>
      <trkpt lat="43.99387" lon="5.90655">
        <ele>629</ele>
        <time>2020-10-05T14:00:50.988Z</time>
      </trkpt>
      <trkpt lat="43.99387" lon="5.90655">
        <ele>629</ele>
        <time>2020-10-05T14:00:51.988Z</time>
      </trkpt>
      <trkpt lat="43.99387" lon="5.90656">
        <ele>629</ele>
        <time>2020-10-05T14:00:52.988Z</time>
      </trkpt>
      <trkpt lat="43.99387" lon="5.90656">
        <ele>629</ele>
        <time>2020-10-05T14:00:53.988Z</time>
      </trkpt>
      <trkpt lat="43.99387" lon="5.90656">
        <ele>629</ele>
        <time>2020-10-05T14:00:54.988Z</time>
      </trkpt>
      <trkpt lat="43.99387" lon="5.90657">
        <ele>629</ele>
        <time>2020-10-05T14:00:55.988Z</time>
      </trkpt>
      <trkpt lat="43.99387" lon="5.90658">
        <ele>629</ele>
        <time>2020-10-05T14:00:56.988Z</time>
      </trkpt>
      <trkpt lat="43.99387" lon="5.90658">
        <ele>628</ele>
        <time>2020-10-05T14:00:57.988Z</time>
      </trkpt>
      <trkpt lat="43.99387" lon="5.90659">
        <ele>628</ele>
        <time>2020-10-05T14:00:58.988Z</time>
      </trkpt>
      <trkpt lat="43.99387" lon="5.90659">
        <ele>628</ele>
        <time>2020-10-05T14:00:59.988Z</time>
      </trkpt>
      <trkpt lat="43.99387" lon="5.9066">
        <ele>628</ele>
        <time>2020-10-05T14:01:00.988Z</time>
      </trkpt>
      <trkpt lat="43.99387" lon="5.9066">
        <ele>628</ele>
        <time>2020-10-05T14:01:01.988Z</time>
      </trkpt>
      <trkpt lat="43.99387" lon="5.90661">
        <ele>628</ele>
        <time>2020-10-05T14:01:02.988Z</time>
      </trkpt>
      <trkpt lat="43.99387" lon="5.90662">
        <ele>628</ele>
        <time>2020-10-05T14:01:03.988Z</time>
      </trkpt>
      <trkpt lat="43.99387" lon="5.90663">
        <ele>628</ele>
        <time>2020-10-05T14:01:04.988Z</time>
      </trkpt>
      <trkpt lat="43.99387" lon="5.90663">
        <ele>627</ele>
        <time>2020-10-05T14:01:05.988Z</time>
      </trkpt>
      <trkpt lat="43.99387" lon="5.90664">
        <ele>627</ele>
        <time>2020-10-05T14:01:06.988Z</time>
      </trkpt>
      <trkpt lat="43.99386" lon="5.90665">
        <ele>627</ele>
        <time>2020-10-05T14:01:07.988Z</time>
      </trkpt>
      <trkpt lat="43.99386" lon="5.90666">
        <ele>627</ele>
        <time>2020-10-05T14:01:08.988Z</time>
      </trkpt>
      <trkpt lat="43.99385" lon="5.90667">
        <ele>627</ele>
        <time>2020-10-05T14:01:09.988Z</time>
      </trkpt>
      <trkpt lat="43.99385" lon="5.90668">
        <ele>627</ele>
        <time>2020-10-05T14:01:10.988Z</time>
      </trkpt>
      <trkpt lat="43.99384" lon="5.90669">
        <ele>626</ele>
        <time>2020-10-05T14:01:11.988Z</time>
      </trkpt>
      <trkpt lat="43.99384" lon="5.9067">
        <ele>626</ele>
        <time>2020-10-05T14:01:12.988Z</time>
      </trkpt>
      <trkpt lat="43.99383" lon="5.90671">
        <ele>626</ele>
        <time>2020-10-05T14:01:13.988Z</time>
      </trkpt>
      <trkpt lat="43.99383" lon="5.90672">
        <ele>626</ele>
        <time>2020-10-05T14:01:14.988Z</time>
      </trkpt>
      <trkpt lat="43.99383" lon="5.90672">
        <ele>626</ele>
        <time>2020-10-05T14:01:15.988Z</time>
      </trkpt>
      <trkpt lat="43.99383" lon="5.90673">
        <ele>626</ele>
        <time>2020-10-05T14:01:16.988Z</time>
      </trkpt>
      <trkpt lat="43.99383" lon="5.90674">
        <ele>626</ele>
        <time>2020-10-05T14:01:17.988Z</time>
      </trkpt>
      <trkpt lat="43.99383" lon="5.90675">
        <ele>626</ele>
        <time>2020-10-05T14:01:18.988Z</time>
      </trkpt>
      <trkpt lat="43.99383" lon="5.90675">
        <ele>626</ele>
        <time>2020-10-05T14:01:19.988Z</time>
      </trkpt>
      <trkpt lat="43.99382" lon="5.90676">
        <ele>626</ele>
        <time>2020-10-05T14:01:20.988Z</time>
      </trkpt>
      <trkpt lat="43.99382" lon="5.90676">
        <ele>626</ele>
        <time>2020-10-05T14:01:21.988Z</time>
      </trkpt>
      <trkpt lat="43.99382" lon="5.90676">
        <ele>626</ele>
        <time>2020-10-05T14:01:22.988Z</time>
      </trkpt>
      <trkpt lat="43.99382" lon="5.90677">
        <ele>626</ele>
        <time>2020-10-05T14:01:23.988Z</time>
      </trkpt>
      <trkpt lat="43.99382" lon="5.90677">
        <ele>625</ele>
        <time>2020-10-05T14:01:24.988Z</time>
      </trkpt>
      <trkpt lat="43.99382" lon="5.90677">
        <ele>625</ele>
        <time>2020-10-05T14:01:25.988Z</time>
      </trkpt>
      <trkpt lat="43.99382" lon="5.90678">
        <ele>625</ele>
        <time>2020-10-05T14:01:26.988Z</time>
      </trkpt>
      <trkpt lat="43.99382" lon="5.90678">
        <ele>625</ele>
        <time>2020-10-05T14:01:27.988Z</time>
      </trkpt>
      <trkpt lat="43.99382" lon="5.90679">
        <ele>625</ele>
        <time>2020-10-05T14:01:28.988Z</time>
      </trkpt>
      <trkpt lat="43.99382" lon="5.90679">
        <ele>625</ele>
        <time>2020-10-05T14:01:29.988Z</time>
      </trkpt>
      <trkpt lat="43.99382" lon="5.9068">
        <ele>625</ele>
        <time>2020-10-05T14:01:30.988Z</time>
      </trkpt>
      <trkpt lat="43.99381" lon="5.90681">
        <ele>625</ele>
        <time>2020-10-05T14:01:31.988Z</time>
      </trkpt>
      <trkpt lat="43.99381" lon="5.90681">
        <ele>625</ele>
        <time>2020-10-05T14:01:32.988Z</time>
      </trkpt>
      <trkpt lat="43.9938" lon="5.90682">
        <ele>625</ele>
        <time>2020-10-05T14:01:33.988Z</time>
      </trkpt>
      <trkpt lat="43.99379" lon="5.90682">
        <ele>625</ele>
        <time>2020-10-05T14:01:34.988Z</time>
      </trkpt>
      <trkpt lat="43.99379" lon="5.90682">
        <ele>625</ele>
        <time>2020-10-05T14:01:35.988Z</time>
      </trkpt>
      <trkpt lat="43.99378" lon="5.90682">
        <ele>625</ele>
        <time>2020-10-05T14:01:36.988Z</time>
      </trkpt>
      <trkpt lat="43.99378" lon="5.90682">
        <ele>625</ele>
        <time>2020-10-05T14:01:37.988Z</time>
      </trkpt>
      <trkpt lat="43.99377" lon="5.90682">
        <ele>625</ele>
        <time>2020-10-05T14:01:38.988Z</time>
      </trkpt>
      <trkpt lat="43.99376" lon="5.90682">
        <ele>625</ele>
        <time>2020-10-05T14:01:39.988Z</time>
      </trkpt>
      <trkpt lat="43.99375" lon="5.90682">
        <ele>625</ele>
        <time>2020-10-05T14:01:40.988Z</time>
      </trkpt>
      <trkpt lat="43.99374" lon="5.90681">
        <ele>625</ele>
        <time>2020-10-05T14:01:41.988Z</time>
      </trkpt>
      <trkpt lat="43.99373" lon="5.90681">
        <ele>624</ele>
        <time>2020-10-05T14:01:42.988Z</time>
      </trkpt>
      <trkpt lat="43.99372" lon="5.90681">
        <ele>624</ele>
        <time>2020-10-05T14:01:43.988Z</time>
      </trkpt>
      <trkpt lat="43.99372" lon="5.90681">
        <ele>624</ele>
        <time>2020-10-05T14:01:44.988Z</time>
      </trkpt>
      <trkpt lat="43.99372" lon="5.90681">
        <ele>624</ele>
        <time>2020-10-05T14:01:45.988Z</time>
      </trkpt>
      <trkpt lat="43.99372" lon="5.90682">
        <ele>624</ele>
        <time>2020-10-05T14:01:46.988Z</time>
      </trkpt>
      <trkpt lat="43.99371" lon="5.90683">
        <ele>624</ele>
        <time>2020-10-05T14:01:47.988Z</time>
      </trkpt>
      <trkpt lat="43.99371" lon="5.90683">
        <ele>624</ele>
        <time>2020-10-05T14:01:48.988Z</time>
      </trkpt>
      <trkpt lat="43.99371" lon="5.90684">
        <ele>623</ele>
        <time>2020-10-05T14:01:49.988Z</time>
      </trkpt>
      <trkpt lat="43.99371" lon="5.90685">
        <ele>623</ele>
        <time>2020-10-05T14:01:50.988Z</time>
      </trkpt>
      <trkpt lat="43.99371" lon="5.90685">
        <ele>623</ele>
        <time>2020-10-05T14:01:51.988Z</time>
      </trkpt>
      <trkpt lat="43.99371" lon="5.90686">
        <ele>622</ele>
        <time>2020-10-05T14:01:52.988Z</time>
      </trkpt>
      <trkpt lat="43.99371" lon="5.90687">
        <ele>622</ele>
        <time>2020-10-05T14:01:53.988Z</time>
      </trkpt>
      <trkpt lat="43.99371" lon="5.90688">
        <ele>622</ele>
        <time>2020-10-05T14:01:54.988Z</time>
      </trkpt>
      <trkpt lat="43.99371" lon="5.90689">
        <ele>622</ele>
        <time>2020-10-05T14:01:55.988Z</time>
      </trkpt>
      <trkpt lat="43.99371" lon="5.9069">
        <ele>621</ele>
        <time>2020-10-05T14:01:56.988Z</time>
      </trkpt>
      <trkpt lat="43.99371" lon="5.90691">
        <ele>621</ele>
        <time>2020-10-05T14:01:57.988Z</time>
      </trkpt>
      <trkpt lat="43.99371" lon="5.90692">
        <ele>621</ele>
        <time>2020-10-05T14:01:58.988Z</time>
      </trkpt>
      <trkpt lat="43.9937" lon="5.90693">
        <ele>621</ele>
        <time>2020-10-05T14:01:59.988Z</time>
      </trkpt>
      <trkpt lat="43.9937" lon="5.90694">
        <ele>621</ele>
        <time>2020-10-05T14:02:00.988Z</time>
      </trkpt>
      <trkpt lat="43.9937" lon="5.90696">
        <ele>620</ele>
        <time>2020-10-05T14:02:01.988Z</time>
      </trkpt>
      <trkpt lat="43.9937" lon="5.90697">
        <ele>620</ele>
        <time>2020-10-05T14:02:02.988Z</time>
      </trkpt>
      <trkpt lat="43.9937" lon="5.90698">
        <ele>620</ele>
        <time>2020-10-05T14:02:03.988Z</time>
      </trkpt>
      <trkpt lat="43.9937" lon="5.90699">
        <ele>620</ele>
        <time>2020-10-05T14:02:04.988Z</time>
      </trkpt>
      <trkpt lat="43.99369" lon="5.907">
        <ele>620</ele>
        <time>2020-10-05T14:02:05.988Z</time>
      </trkpt>
      <trkpt lat="43.99369" lon="5.90701">
        <ele>620</ele>
        <time>2020-10-05T14:02:06.988Z</time>
      </trkpt>
      <trkpt lat="43.99369" lon="5.90702">
        <ele>619</ele>
        <time>2020-10-05T14:02:07.988Z</time>
      </trkpt>
      <trkpt lat="43.99369" lon="5.90704">
        <ele>619</ele>
        <time>2020-10-05T14:02:08.988Z</time>
      </trkpt>
      <trkpt lat="43.99369" lon="5.90705">
        <ele>619</ele>
        <time>2020-10-05T14:02:09.988Z</time>
      </trkpt>
      <trkpt lat="43.99369" lon="5.90706">
        <ele>619</ele>
        <time>2020-10-05T14:02:10.988Z</time>
      </trkpt>
      <trkpt lat="43.99369" lon="5.90708">
        <ele>619</ele>
        <time>2020-10-05T14:02:11.988Z</time>
      </trkpt>
      <trkpt lat="43.99369" lon="5.90709">
        <ele>619</ele>
        <time>2020-10-05T14:02:12.988Z</time>
      </trkpt>
      <trkpt lat="43.99369" lon="5.9071">
        <ele>618</ele>
        <time>2020-10-05T14:02:13.988Z</time>
      </trkpt>
      <trkpt lat="43.99369" lon="5.90711">
        <ele>618</ele>
        <time>2020-10-05T14:02:14.988Z</time>
      </trkpt>
      <trkpt lat="43.9937" lon="5.90713">
        <ele>618</ele>
        <time>2020-10-05T14:02:15.988Z</time>
      </trkpt>
      <trkpt lat="43.9937" lon="5.90714">
        <ele>618</ele>
        <time>2020-10-05T14:02:16.988Z</time>
      </trkpt>
      <trkpt lat="43.9937" lon="5.90715">
        <ele>617</ele>
        <time>2020-10-05T14:02:17.988Z</time>
      </trkpt>
      <trkpt lat="43.9937" lon="5.90716">
        <ele>617</ele>
        <time>2020-10-05T14:02:18.988Z</time>
      </trkpt>
      <trkpt lat="43.99371" lon="5.90718">
        <ele>617</ele>
        <time>2020-10-05T14:02:19.988Z</time>
      </trkpt>
      <trkpt lat="43.99371" lon="5.90719">
        <ele>617</ele>
        <time>2020-10-05T14:02:20.988Z</time>
      </trkpt>
      <trkpt lat="43.99372" lon="5.9072">
        <ele>617</ele>
        <time>2020-10-05T14:02:21.988Z</time>
      </trkpt>
      <trkpt lat="43.99372" lon="5.90722">
        <ele>617</ele>
        <time>2020-10-05T14:02:22.988Z</time>
      </trkpt>
      <trkpt lat="43.99373" lon="5.90724">
        <ele>616</ele>
        <time>2020-10-05T14:02:23.988Z</time>
      </trkpt>
      <trkpt lat="43.99373" lon="5.90725">
        <ele>616</ele>
        <time>2020-10-05T14:02:24.988Z</time>
      </trkpt>
      <trkpt lat="43.99374" lon="5.90726">
        <ele>616</ele>
        <time>2020-10-05T14:02:25.988Z</time>
      </trkpt>
      <trkpt lat="43.99375" lon="5.90727">
        <ele>616</ele>
        <time>2020-10-05T14:02:26.988Z</time>
      </trkpt>
      <trkpt lat="43.99375" lon="5.90729">
        <ele>616</ele>
        <time>2020-10-05T14:02:27.988Z</time>
      </trkpt>
      <trkpt lat="43.99376" lon="5.9073">
        <ele>615</ele>
        <time>2020-10-05T14:02:28.988Z</time>
      </trkpt>
      <trkpt lat="43.99377" lon="5.90731">
        <ele>615</ele>
        <time>2020-10-05T14:02:29.988Z</time>
      </trkpt>
      <trkpt lat="43.99378" lon="5.90733">
        <ele>615</ele>
        <time>2020-10-05T14:02:30.988Z</time>
      </trkpt>
      <trkpt lat="43.99379" lon="5.90734">
        <ele>615</ele>
        <time>2020-10-05T14:02:31.988Z</time>
      </trkpt>
      <trkpt lat="43.9938" lon="5.90735">
        <ele>615</ele>
        <time>2020-10-05T14:02:32.988Z</time>
      </trkpt>
      <trkpt lat="43.9938" lon="5.90736">
        <ele>615</ele>
        <time>2020-10-05T14:02:33.988Z</time>
      </trkpt>
      <trkpt lat="43.99381" lon="5.90737">
        <ele>615</ele>
        <time>2020-10-05T14:02:34.988Z</time>
      </trkpt>
      <trkpt lat="43.99382" lon="5.90738">
        <ele>615</ele>
        <time>2020-10-05T14:02:35.988Z</time>
      </trkpt>
      <trkpt lat="43.99383" lon="5.9074">
        <ele>614</ele>
        <time>2020-10-05T14:02:36.988Z</time>
      </trkpt>
      <trkpt lat="43.99384" lon="5.90741">
        <ele>614</ele>
        <time>2020-10-05T14:02:37.988Z</time>
      </trkpt>
      <trkpt lat="43.99384" lon="5.90742">
        <ele>614</ele>
        <time>2020-10-05T14:02:38.988Z</time>
      </trkpt>
      <trkpt lat="43.99385" lon="5.90744">
        <ele>614</ele>
        <time>2020-10-05T14:02:39.988Z</time>
      </trkpt>
      <trkpt lat="43.99385" lon="5.90746">
        <ele>614</ele>
        <time>2020-10-05T14:02:40.988Z</time>
      </trkpt>
      <trkpt lat="43.99385" lon="5.90747">
        <ele>614</ele>
        <time>2020-10-05T14:02:41.988Z</time>
      </trkpt>
      <trkpt lat="43.99385" lon="5.90749">
        <ele>614</ele>
        <time>2020-10-05T14:02:42.988Z</time>
      </trkpt>
      <trkpt lat="43.99385" lon="5.9075">
        <ele>614</ele>
        <time>2020-10-05T14:02:43.988Z</time>
      </trkpt>
      <trkpt lat="43.99386" lon="5.90751">
        <ele>614</ele>
        <time>2020-10-05T14:02:44.988Z</time>
      </trkpt>
      <trkpt lat="43.99386" lon="5.90752">
        <ele>613</ele>
        <time>2020-10-05T14:02:45.988Z</time>
      </trkpt>
      <trkpt lat="43.99387" lon="5.90753">
        <ele>613</ele>
        <time>2020-10-05T14:02:46.988Z</time>
      </trkpt>
      <trkpt lat="43.99387" lon="5.90755">
        <ele>613</ele>
        <time>2020-10-05T14:02:47.988Z</time>
      </trkpt>
      <trkpt lat="43.99387" lon="5.90756">
        <ele>613</ele>
        <time>2020-10-05T14:02:48.988Z</time>
      </trkpt>
      <trkpt lat="43.99388" lon="5.90757">
        <ele>613</ele>
        <time>2020-10-05T14:02:49.988Z</time>
      </trkpt>
      <trkpt lat="43.99388" lon="5.90759">
        <ele>612</ele>
        <time>2020-10-05T14:02:50.988Z</time>
      </trkpt>
      <trkpt lat="43.99388" lon="5.9076">
        <ele>612</ele>
        <time>2020-10-05T14:02:51.988Z</time>
      </trkpt>
      <trkpt lat="43.99389" lon="5.90762">
        <ele>612</ele>
        <time>2020-10-05T14:02:52.988Z</time>
      </trkpt>
      <trkpt lat="43.99389" lon="5.90763">
        <ele>612</ele>
        <time>2020-10-05T14:02:53.988Z</time>
      </trkpt>
      <trkpt lat="43.9939" lon="5.90765">
        <ele>612</ele>
        <time>2020-10-05T14:02:54.988Z</time>
      </trkpt>
      <trkpt lat="43.9939" lon="5.90766">
        <ele>612</ele>
        <time>2020-10-05T14:02:55.988Z</time>
      </trkpt>
      <trkpt lat="43.9939" lon="5.90767">
        <ele>612</ele>
        <time>2020-10-05T14:02:56.988Z</time>
      </trkpt>
      <trkpt lat="43.99391" lon="5.90768">
        <ele>611</ele>
        <time>2020-10-05T14:02:57.988Z</time>
      </trkpt>
      <trkpt lat="43.99391" lon="5.9077">
        <ele>611</ele>
        <time>2020-10-05T14:02:58.988Z</time>
      </trkpt>
      <trkpt lat="43.99392" lon="5.90771">
        <ele>611</ele>
        <time>2020-10-05T14:02:59.988Z</time>
      </trkpt>
      <trkpt lat="43.99392" lon="5.90772">
        <ele>611</ele>
        <time>2020-10-05T14:03:00.988Z</time>
      </trkpt>
      <trkpt lat="43.99393" lon="5.90773">
        <ele>611</ele>
        <time>2020-10-05T14:03:01.988Z</time>
      </trkpt>
      <trkpt lat="43.99394" lon="5.90774">
        <ele>610</ele>
        <time>2020-10-05T14:03:02.988Z</time>
      </trkpt>
      <trkpt lat="43.99394" lon="5.90774">
        <ele>610</ele>
        <time>2020-10-05T14:03:03.988Z</time>
      </trkpt>
      <trkpt lat="43.99395" lon="5.90775">
        <ele>610</ele>
        <time>2020-10-05T14:03:04.988Z</time>
      </trkpt>
      <trkpt lat="43.99396" lon="5.90776">
        <ele>610</ele>
        <time>2020-10-05T14:03:05.988Z</time>
      </trkpt>
      <trkpt lat="43.99396" lon="5.90777">
        <ele>610</ele>
        <time>2020-10-05T14:03:06.988Z</time>
      </trkpt>
      <trkpt lat="43.99397" lon="5.90778">
        <ele>610</ele>
        <time>2020-10-05T14:03:07.988Z</time>
      </trkpt>
      <trkpt lat="43.99398" lon="5.90779">
        <ele>610</ele>
        <time>2020-10-05T14:03:08.988Z</time>
      </trkpt>
      <trkpt lat="43.99399" lon="5.9078">
        <ele>610</ele>
        <time>2020-10-05T14:03:09.988Z</time>
      </trkpt>
      <trkpt lat="43.99399" lon="5.90781">
        <ele>609</ele>
        <time>2020-10-05T14:03:10.988Z</time>
      </trkpt>
      <trkpt lat="43.994" lon="5.90782">
        <ele>609</ele>
        <time>2020-10-05T14:03:11.988Z</time>
      </trkpt>
      <trkpt lat="43.994" lon="5.90784">
        <ele>609</ele>
        <time>2020-10-05T14:03:12.988Z</time>
      </trkpt>
      <trkpt lat="43.994" lon="5.90785">
        <ele>609</ele>
        <time>2020-10-05T14:03:13.988Z</time>
      </trkpt>
      <trkpt lat="43.99399" lon="5.90786">
        <ele>609</ele>
        <time>2020-10-05T14:03:14.988Z</time>
      </trkpt>
      <trkpt lat="43.99398" lon="5.90787">
        <ele>609</ele>
        <time>2020-10-05T14:03:15.988Z</time>
      </trkpt>
      <trkpt lat="43.99397" lon="5.90787">
        <ele>608</ele>
        <time>2020-10-05T14:03:16.988Z</time>
      </trkpt>
      <trkpt lat="43.99397" lon="5.90787">
        <ele>608</ele>
        <time>2020-10-05T14:03:17.988Z</time>
      </trkpt>
      <trkpt lat="43.99396" lon="5.90788">
        <ele>608</ele>
        <time>2020-10-05T14:03:18.988Z</time>
      </trkpt>
      <trkpt lat="43.99395" lon="5.90787">
        <ele>608</ele>
        <time>2020-10-05T14:03:19.988Z</time>
      </trkpt>
      <trkpt lat="43.99394" lon="5.90787">
        <ele>608</ele>
        <time>2020-10-05T14:03:20.988Z</time>
      </trkpt>
      <trkpt lat="43.99393" lon="5.90787">
        <ele>608</ele>
        <time>2020-10-05T14:03:21.988Z</time>
      </trkpt>
      <trkpt lat="43.99392" lon="5.90787">
        <ele>607</ele>
        <time>2020-10-05T14:03:22.988Z</time>
      </trkpt>
      <trkpt lat="43.99391" lon="5.90787">
        <ele>607</ele>
        <time>2020-10-05T14:03:23.988Z</time>
      </trkpt>
      <trkpt lat="43.99391" lon="5.90787">
        <ele>607</ele>
        <time>2020-10-05T14:03:24.988Z</time>
      </trkpt>
      <trkpt lat="43.9939" lon="5.90787">
        <ele>607</ele>
        <time>2020-10-05T14:03:25.988Z</time>
      </trkpt>
      <trkpt lat="43.9939" lon="5.90787">
        <ele>606</ele>
        <time>2020-10-05T14:03:26.988Z</time>
      </trkpt>
      <trkpt lat="43.99389" lon="5.90787">
        <ele>606</ele>
        <time>2020-10-05T14:03:27.988Z</time>
      </trkpt>
      <trkpt lat="43.99389" lon="5.90787">
        <ele>606</ele>
        <time>2020-10-05T14:03:28.988Z</time>
      </trkpt>
      <trkpt lat="43.99388" lon="5.90787">
        <ele>606</ele>
        <time>2020-10-05T14:03:29.988Z</time>
      </trkpt>
      <trkpt lat="43.99387" lon="5.90787">
        <ele>605</ele>
        <time>2020-10-05T14:03:30.988Z</time>
      </trkpt>
      <trkpt lat="43.99386" lon="5.90787">
        <ele>605</ele>
        <time>2020-10-05T14:03:31.988Z</time>
      </trkpt>
      <trkpt lat="43.99385" lon="5.90787">
        <ele>605</ele>
        <time>2020-10-05T14:03:32.988Z</time>
      </trkpt>
      <trkpt lat="43.99384" lon="5.90787">
        <ele>605</ele>
        <time>2020-10-05T14:03:33.988Z</time>
      </trkpt>
      <trkpt lat="43.99383" lon="5.90786">
        <ele>605</ele>
        <time>2020-10-05T14:03:34.988Z</time>
      </trkpt>
      <trkpt lat="43.99382" lon="5.90786">
        <ele>605</ele>
        <time>2020-10-05T14:03:35.988Z</time>
      </trkpt>
      <trkpt lat="43.99381" lon="5.90786">
        <ele>605</ele>
        <time>2020-10-05T14:03:36.988Z</time>
      </trkpt>
      <trkpt lat="43.9938" lon="5.90785">
        <ele>605</ele>
        <time>2020-10-05T14:03:37.988Z</time>
      </trkpt>
      <trkpt lat="43.99379" lon="5.90785">
        <ele>605</ele>
        <time>2020-10-05T14:03:38.988Z</time>
      </trkpt>
      <trkpt lat="43.99378" lon="5.90784">
        <ele>604</ele>
        <time>2020-10-05T14:03:39.988Z</time>
      </trkpt>
      <trkpt lat="43.99377" lon="5.90784">
        <ele>604</ele>
        <time>2020-10-05T14:03:40.988Z</time>
      </trkpt>
      <trkpt lat="43.99376" lon="5.90783">
        <ele>604</ele>
        <time>2020-10-05T14:03:41.988Z</time>
      </trkpt>
      <trkpt lat="43.99375" lon="5.90783">
        <ele>604</ele>
        <time>2020-10-05T14:03:42.988Z</time>
      </trkpt>
      <trkpt lat="43.99374" lon="5.90782">
        <ele>604</ele>
        <time>2020-10-05T14:03:43.988Z</time>
      </trkpt>
      <trkpt lat="43.99373" lon="5.90782">
        <ele>604</ele>
        <time>2020-10-05T14:03:44.988Z</time>
      </trkpt>
      <trkpt lat="43.99372" lon="5.90781">
        <ele>604</ele>
        <time>2020-10-05T14:03:45.988Z</time>
      </trkpt>
      <trkpt lat="43.99371" lon="5.90781">
        <ele>604</ele>
        <time>2020-10-05T14:03:46.988Z</time>
      </trkpt>
      <trkpt lat="43.9937" lon="5.90781">
        <ele>604</ele>
        <time>2020-10-05T14:03:47.988Z</time>
      </trkpt>
      <trkpt lat="43.99369" lon="5.9078">
        <ele>604</ele>
        <time>2020-10-05T14:03:48.988Z</time>
      </trkpt>
      <trkpt lat="43.99368" lon="5.9078">
        <ele>604</ele>
        <time>2020-10-05T14:03:49.988Z</time>
      </trkpt>
      <trkpt lat="43.99368" lon="5.9078">
        <ele>604</ele>
        <time>2020-10-05T14:03:50.988Z</time>
      </trkpt>
      <trkpt lat="43.99367" lon="5.90779">
        <ele>604</ele>
        <time>2020-10-05T14:03:51.988Z</time>
      </trkpt>
      <trkpt lat="43.99366" lon="5.90778">
        <ele>604</ele>
        <time>2020-10-05T14:03:52.988Z</time>
      </trkpt>
      <trkpt lat="43.99365" lon="5.90778">
        <ele>604</ele>
        <time>2020-10-05T14:03:53.988Z</time>
      </trkpt>
      <trkpt lat="43.99364" lon="5.90777">
        <ele>604</ele>
        <time>2020-10-05T14:03:54.988Z</time>
      </trkpt>
      <trkpt lat="43.99364" lon="5.90777">
        <ele>604</ele>
        <time>2020-10-05T14:03:55.988Z</time>
      </trkpt>
      <trkpt lat="43.99363" lon="5.90776">
        <ele>604</ele>
        <time>2020-10-05T14:03:56.988Z</time>
      </trkpt>
      <trkpt lat="43.99362" lon="5.90776">
        <ele>603</ele>
        <time>2020-10-05T14:03:57.988Z</time>
      </trkpt>
      <trkpt lat="43.99361" lon="5.90776">
        <ele>603</ele>
        <time>2020-10-05T14:03:58.988Z</time>
      </trkpt>
      <trkpt lat="43.99361" lon="5.90776">
        <ele>603</ele>
        <time>2020-10-05T14:03:59.988Z</time>
      </trkpt>
      <trkpt lat="43.9936" lon="5.90776">
        <ele>603</ele>
        <time>2020-10-05T14:04:00.988Z</time>
      </trkpt>
      <trkpt lat="43.99359" lon="5.90776">
        <ele>603</ele>
        <time>2020-10-05T14:04:01.988Z</time>
      </trkpt>
      <trkpt lat="43.99358" lon="5.90776">
        <ele>603</ele>
        <time>2020-10-05T14:04:02.988Z</time>
      </trkpt>
      <trkpt lat="43.99357" lon="5.90776">
        <ele>603</ele>
        <time>2020-10-05T14:04:03.988Z</time>
      </trkpt>
      <trkpt lat="43.99357" lon="5.90775">
        <ele>602</ele>
        <time>2020-10-05T14:04:04.988Z</time>
      </trkpt>
      <trkpt lat="43.99356" lon="5.90775">
        <ele>602</ele>
        <time>2020-10-05T14:04:05.988Z</time>
      </trkpt>
      <trkpt lat="43.99355" lon="5.90775">
        <ele>602</ele>
        <time>2020-10-05T14:04:06.988Z</time>
      </trkpt>
      <trkpt lat="43.99354" lon="5.90775">
        <ele>602</ele>
        <time>2020-10-05T14:04:07.988Z</time>
      </trkpt>
      <trkpt lat="43.99353" lon="5.90775">
        <ele>602</ele>
        <time>2020-10-05T14:04:08.988Z</time>
      </trkpt>
      <trkpt lat="43.99352" lon="5.90774">
        <ele>602</ele>
        <time>2020-10-05T14:04:09.988Z</time>
      </trkpt>
      <trkpt lat="43.99351" lon="5.90774">
        <ele>602</ele>
        <time>2020-10-05T14:04:10.988Z</time>
      </trkpt>
      <trkpt lat="43.99351" lon="5.90775">
        <ele>601</ele>
        <time>2020-10-05T14:04:11.988Z</time>
      </trkpt>
      <trkpt lat="43.9935" lon="5.90774">
        <ele>601</ele>
        <time>2020-10-05T14:04:12.988Z</time>
      </trkpt>
      <trkpt lat="43.99349" lon="5.90774">
        <ele>601</ele>
        <time>2020-10-05T14:04:13.988Z</time>
      </trkpt>
      <trkpt lat="43.99348" lon="5.90774">
        <ele>601</ele>
        <time>2020-10-05T14:04:14.988Z</time>
      </trkpt>
      <trkpt lat="43.99347" lon="5.90774">
        <ele>601</ele>
        <time>2020-10-05T14:04:15.988Z</time>
      </trkpt>
      <trkpt lat="43.99346" lon="5.90773">
        <ele>601</ele>
        <time>2020-10-05T14:04:16.988Z</time>
      </trkpt>
      <trkpt lat="43.99345" lon="5.90773">
        <ele>600</ele>
        <time>2020-10-05T14:04:17.988Z</time>
      </trkpt>
      <trkpt lat="43.99344" lon="5.90772">
        <ele>600</ele>
        <time>2020-10-05T14:04:18.988Z</time>
      </trkpt>
      <trkpt lat="43.99344" lon="5.90772">
        <ele>600</ele>
        <time>2020-10-05T14:04:19.988Z</time>
      </trkpt>
      <trkpt lat="43.99343" lon="5.90772">
        <ele>600</ele>
        <time>2020-10-05T14:04:20.988Z</time>
      </trkpt>
      <trkpt lat="43.99342" lon="5.90772">
        <ele>600</ele>
        <time>2020-10-05T14:04:21.988Z</time>
      </trkpt>
      <trkpt lat="43.99341" lon="5.90771">
        <ele>599</ele>
        <time>2020-10-05T14:04:22.988Z</time>
      </trkpt>
      <trkpt lat="43.9934" lon="5.9077">
        <ele>599</ele>
        <time>2020-10-05T14:04:23.988Z</time>
      </trkpt>
      <trkpt lat="43.99339" lon="5.9077">
        <ele>599</ele>
        <time>2020-10-05T14:04:24.988Z</time>
      </trkpt>
      <trkpt lat="43.99339" lon="5.9077">
        <ele>599</ele>
        <time>2020-10-05T14:04:25.988Z</time>
      </trkpt>
      <trkpt lat="43.99338" lon="5.90769">
        <ele>599</ele>
        <time>2020-10-05T14:04:26.988Z</time>
      </trkpt>
      <trkpt lat="43.99337" lon="5.90769">
        <ele>599</ele>
        <time>2020-10-05T14:04:27.988Z</time>
      </trkpt>
      <trkpt lat="43.99337" lon="5.90769">
        <ele>599</ele>
        <time>2020-10-05T14:04:28.988Z</time>
      </trkpt>
      <trkpt lat="43.99336" lon="5.90769">
        <ele>599</ele>
        <time>2020-10-05T14:04:29.988Z</time>
      </trkpt>
      <trkpt lat="43.99336" lon="5.90769">
        <ele>599</ele>
        <time>2020-10-05T14:04:30.988Z</time>
      </trkpt>
      <trkpt lat="43.99335" lon="5.90768">
        <ele>599</ele>
        <time>2020-10-05T14:04:31.988Z</time>
      </trkpt>
      <trkpt lat="43.99334" lon="5.90768">
        <ele>599</ele>
        <time>2020-10-05T14:04:32.988Z</time>
      </trkpt>
      <trkpt lat="43.99333" lon="5.90768">
        <ele>599</ele>
        <time>2020-10-05T14:04:33.988Z</time>
      </trkpt>
      <trkpt lat="43.99333" lon="5.90768">
        <ele>599</ele>
        <time>2020-10-05T14:04:34.988Z</time>
      </trkpt>
      <trkpt lat="43.99332" lon="5.90767">
        <ele>599</ele>
        <time>2020-10-05T14:04:35.988Z</time>
      </trkpt>
      <trkpt lat="43.99332" lon="5.90767">
        <ele>599</ele>
        <time>2020-10-05T14:04:36.988Z</time>
      </trkpt>
      <trkpt lat="43.99331" lon="5.90767">
        <ele>599</ele>
        <time>2020-10-05T14:04:37.988Z</time>
      </trkpt>
      <trkpt lat="43.9933" lon="5.90767">
        <ele>599</ele>
        <time>2020-10-05T14:04:38.988Z</time>
      </trkpt>
      <trkpt lat="43.9933" lon="5.90766">
        <ele>599</ele>
        <time>2020-10-05T14:04:39.988Z</time>
      </trkpt>
      <trkpt lat="43.99329" lon="5.90766">
        <ele>599</ele>
        <time>2020-10-05T14:04:40.988Z</time>
      </trkpt>
      <trkpt lat="43.99329" lon="5.90765">
        <ele>599</ele>
        <time>2020-10-05T14:04:41.988Z</time>
      </trkpt>
      <trkpt lat="43.99328" lon="5.90765">
        <ele>599</ele>
        <time>2020-10-05T14:04:42.988Z</time>
      </trkpt>
      <trkpt lat="43.99328" lon="5.90763">
        <ele>598</ele>
        <time>2020-10-05T14:04:43.988Z</time>
      </trkpt>
      <trkpt lat="43.99327" lon="5.90762">
        <ele>598</ele>
        <time>2020-10-05T14:04:44.988Z</time>
      </trkpt>
      <trkpt lat="43.99327" lon="5.90762">
        <ele>598</ele>
        <time>2020-10-05T14:04:45.988Z</time>
      </trkpt>
      <trkpt lat="43.99326" lon="5.90762">
        <ele>598</ele>
        <time>2020-10-05T14:04:46.988Z</time>
      </trkpt>
      <trkpt lat="43.99325" lon="5.90761">
        <ele>597</ele>
        <time>2020-10-05T14:04:47.988Z</time>
      </trkpt>
      <trkpt lat="43.99324" lon="5.90761">
        <ele>597</ele>
        <time>2020-10-05T14:04:48.988Z</time>
      </trkpt>
      <trkpt lat="43.99324" lon="5.90761">
        <ele>597</ele>
        <time>2020-10-05T14:04:49.988Z</time>
      </trkpt>
      <trkpt lat="43.99323" lon="5.90761">
        <ele>597</ele>
        <time>2020-10-05T14:04:50.988Z</time>
      </trkpt>
      <trkpt lat="43.99322" lon="5.9076">
        <ele>597</ele>
        <time>2020-10-05T14:04:51.988Z</time>
      </trkpt>
      <trkpt lat="43.99322" lon="5.9076">
        <ele>596</ele>
        <time>2020-10-05T14:04:52.988Z</time>
      </trkpt>
      <trkpt lat="43.99322" lon="5.90759">
        <ele>596</ele>
        <time>2020-10-05T14:04:53.988Z</time>
      </trkpt>
      <trkpt lat="43.99321" lon="5.90759">
        <ele>596</ele>
        <time>2020-10-05T14:04:54.988Z</time>
      </trkpt>
      <trkpt lat="43.99321" lon="5.90759">
        <ele>595</ele>
        <time>2020-10-05T14:04:55.988Z</time>
      </trkpt>
      <trkpt lat="43.99321" lon="5.90759">
        <ele>595</ele>
        <time>2020-10-05T14:04:56.988Z</time>
      </trkpt>
      <trkpt lat="43.9932" lon="5.90759">
        <ele>595</ele>
        <time>2020-10-05T14:04:57.988Z</time>
      </trkpt>
      <trkpt lat="43.9932" lon="5.90759">
        <ele>594</ele>
        <time>2020-10-05T14:04:58.988Z</time>
      </trkpt>
      <trkpt lat="43.99319" lon="5.90759">
        <ele>594</ele>
        <time>2020-10-05T14:04:59.988Z</time>
      </trkpt>
      <trkpt lat="43.99319" lon="5.90759">
        <ele>594</ele>
        <time>2020-10-05T14:05:00.988Z</time>
      </trkpt>
      <trkpt lat="43.99319" lon="5.90759">
        <ele>594</ele>
        <time>2020-10-05T14:05:01.988Z</time>
      </trkpt>
      <trkpt lat="43.99318" lon="5.9076">
        <ele>594</ele>
        <time>2020-10-05T14:05:02.988Z</time>
      </trkpt>
      <trkpt lat="43.99318" lon="5.90759">
        <ele>593</ele>
        <time>2020-10-05T14:05:03.988Z</time>
      </trkpt>
      <trkpt lat="43.99317" lon="5.90759">
        <ele>593</ele>
        <time>2020-10-05T14:05:04.988Z</time>
      </trkpt>
      <trkpt lat="43.99317" lon="5.90759">
        <ele>593</ele>
        <time>2020-10-05T14:05:05.988Z</time>
      </trkpt>
      <trkpt lat="43.99317" lon="5.90759">
        <ele>593</ele>
        <time>2020-10-05T14:05:06.988Z</time>
      </trkpt>
      <trkpt lat="43.99316" lon="5.90759">
        <ele>592</ele>
        <time>2020-10-05T14:05:07.988Z</time>
      </trkpt>
      <trkpt lat="43.99316" lon="5.90759">
        <ele>592</ele>
        <time>2020-10-05T14:05:08.988Z</time>
      </trkpt>
      <trkpt lat="43.99315" lon="5.90758">
        <ele>592</ele>
        <time>2020-10-05T14:05:09.988Z</time>
      </trkpt>
      <trkpt lat="43.99315" lon="5.90758">
        <ele>592</ele>
        <time>2020-10-05T14:05:10.988Z</time>
      </trkpt>
      <trkpt lat="43.99315" lon="5.90758">
        <ele>591</ele>
        <time>2020-10-05T14:05:11.988Z</time>
      </trkpt>
      <trkpt lat="43.99314" lon="5.90757">
        <ele>591</ele>
        <time>2020-10-05T14:05:12.988Z</time>
      </trkpt>
      <trkpt lat="43.99313" lon="5.90757">
        <ele>591</ele>
        <time>2020-10-05T14:05:13.988Z</time>
      </trkpt>
      <trkpt lat="43.99313" lon="5.90757">
        <ele>590</ele>
        <time>2020-10-05T14:05:14.988Z</time>
      </trkpt>
      <trkpt lat="43.99312" lon="5.90756">
        <ele>590</ele>
        <time>2020-10-05T14:05:15.988Z</time>
      </trkpt>
      <trkpt lat="43.99311" lon="5.90756">
        <ele>590</ele>
        <time>2020-10-05T14:05:16.988Z</time>
      </trkpt>
      <trkpt lat="43.99311" lon="5.90755">
        <ele>589</ele>
        <time>2020-10-05T14:05:17.988Z</time>
      </trkpt>
      <trkpt lat="43.9931" lon="5.90756">
        <ele>589</ele>
        <time>2020-10-05T14:05:18.988Z</time>
      </trkpt>
      <trkpt lat="43.99309" lon="5.90756">
        <ele>589</ele>
        <time>2020-10-05T14:05:19.988Z</time>
      </trkpt>
      <trkpt lat="43.99308" lon="5.90755">
        <ele>588</ele>
        <time>2020-10-05T14:05:20.988Z</time>
      </trkpt>
      <trkpt lat="43.99308" lon="5.90755">
        <ele>588</ele>
        <time>2020-10-05T14:05:21.988Z</time>
      </trkpt>
      <trkpt lat="43.99307" lon="5.90755">
        <ele>587</ele>
        <time>2020-10-05T14:05:22.988Z</time>
      </trkpt>
      <trkpt lat="43.99307" lon="5.90755">
        <ele>587</ele>
        <time>2020-10-05T14:05:23.988Z</time>
      </trkpt>
      <trkpt lat="43.99307" lon="5.90755">
        <ele>587</ele>
        <time>2020-10-05T14:05:24.988Z</time>
      </trkpt>
      <trkpt lat="43.99307" lon="5.90756">
        <ele>587</ele>
        <time>2020-10-05T14:05:25.988Z</time>
      </trkpt>
      <trkpt lat="43.99307" lon="5.90757">
        <ele>586</ele>
        <time>2020-10-05T14:05:26.988Z</time>
      </trkpt>
      <trkpt lat="43.99306" lon="5.90757">
        <ele>586</ele>
        <time>2020-10-05T14:05:27.988Z</time>
      </trkpt>
      <trkpt lat="43.99306" lon="5.90757">
        <ele>585</ele>
        <time>2020-10-05T14:05:28.988Z</time>
      </trkpt>
      <trkpt lat="43.99306" lon="5.90757">
        <ele>585</ele>
        <time>2020-10-05T14:05:29.988Z</time>
      </trkpt>
      <trkpt lat="43.99306" lon="5.90758">
        <ele>585</ele>
        <time>2020-10-05T14:05:30.988Z</time>
      </trkpt>
      <trkpt lat="43.99307" lon="5.90759">
        <ele>584</ele>
        <time>2020-10-05T14:05:31.988Z</time>
      </trkpt>
      <trkpt lat="43.99307" lon="5.9076">
        <ele>584</ele>
        <time>2020-10-05T14:05:32.988Z</time>
      </trkpt>
      <trkpt lat="43.99307" lon="5.9076">
        <ele>583</ele>
        <time>2020-10-05T14:05:33.988Z</time>
      </trkpt>
      <trkpt lat="43.99307" lon="5.90761">
        <ele>583</ele>
        <time>2020-10-05T14:05:34.988Z</time>
      </trkpt>
      <trkpt lat="43.99307" lon="5.90762">
        <ele>582</ele>
        <time>2020-10-05T14:05:35.988Z</time>
      </trkpt>
      <trkpt lat="43.99307" lon="5.90763">
        <ele>582</ele>
        <time>2020-10-05T14:05:36.988Z</time>
      </trkpt>
      <trkpt lat="43.99307" lon="5.90763">
        <ele>582</ele>
        <time>2020-10-05T14:05:37.988Z</time>
      </trkpt>
      <trkpt lat="43.99307" lon="5.90764">
        <ele>581</ele>
        <time>2020-10-05T14:05:38.988Z</time>
      </trkpt>
      <trkpt lat="43.99307" lon="5.90765">
        <ele>581</ele>
        <time>2020-10-05T14:05:39.988Z</time>
      </trkpt>
      <trkpt lat="43.99306" lon="5.90766">
        <ele>580</ele>
        <time>2020-10-05T14:05:40.988Z</time>
      </trkpt>
      <trkpt lat="43.99305" lon="5.90766">
        <ele>580</ele>
        <time>2020-10-05T14:05:41.988Z</time>
      </trkpt>
      <trkpt lat="43.99305" lon="5.90766">
        <ele>580</ele>
        <time>2020-10-05T14:05:42.988Z</time>
      </trkpt>
      <trkpt lat="43.99304" lon="5.90766">
        <ele>579</ele>
        <time>2020-10-05T14:05:43.988Z</time>
      </trkpt>
      <trkpt lat="43.99303" lon="5.90766">
        <ele>579</ele>
        <time>2020-10-05T14:05:44.988Z</time>
      </trkpt>
      <trkpt lat="43.99303" lon="5.90767">
        <ele>579</ele>
        <time>2020-10-05T14:05:45.988Z</time>
      </trkpt>
      <trkpt lat="43.99303" lon="5.90767">
        <ele>578</ele>
        <time>2020-10-05T14:05:46.988Z</time>
      </trkpt>
      <trkpt lat="43.99303" lon="5.90768">
        <ele>578</ele>
        <time>2020-10-05T14:05:47.988Z</time>
      </trkpt>
      <trkpt lat="43.99303" lon="5.90769">
        <ele>578</ele>
        <time>2020-10-05T14:05:48.988Z</time>
      </trkpt>
      <trkpt lat="43.99304" lon="5.9077">
        <ele>578</ele>
        <time>2020-10-05T14:05:49.988Z</time>
      </trkpt>
      <trkpt lat="43.99303" lon="5.90771">
        <ele>577</ele>
        <time>2020-10-05T14:05:50.988Z</time>
      </trkpt>
      <trkpt lat="43.99303" lon="5.90772">
        <ele>577</ele>
        <time>2020-10-05T14:05:51.988Z</time>
      </trkpt>
      <trkpt lat="43.99303" lon="5.90773">
        <ele>577</ele>
        <time>2020-10-05T14:05:52.988Z</time>
      </trkpt>
      <trkpt lat="43.99303" lon="5.90773">
        <ele>577</ele>
        <time>2020-10-05T14:05:53.988Z</time>
      </trkpt>
      <trkpt lat="43.99303" lon="5.90774">
        <ele>577</ele>
        <time>2020-10-05T14:05:54.988Z</time>
      </trkpt>
      <trkpt lat="43.99303" lon="5.90775">
        <ele>576</ele>
        <time>2020-10-05T14:05:55.988Z</time>
      </trkpt>
      <trkpt lat="43.99304" lon="5.90775">
        <ele>576</ele>
        <time>2020-10-05T14:05:56.988Z</time>
      </trkpt>
      <trkpt lat="43.99304" lon="5.90776">
        <ele>576</ele>
        <time>2020-10-05T14:05:57.988Z</time>
      </trkpt>
      <trkpt lat="43.99304" lon="5.90777">
        <ele>576</ele>
        <time>2020-10-05T14:05:58.988Z</time>
      </trkpt>
      <trkpt lat="43.99304" lon="5.90778">
        <ele>575</ele>
        <time>2020-10-05T14:05:59.988Z</time>
      </trkpt>
      <trkpt lat="43.99304" lon="5.90779">
        <ele>575</ele>
        <time>2020-10-05T14:06:00.988Z</time>
      </trkpt>
      <trkpt lat="43.99303" lon="5.9078">
        <ele>575</ele>
        <time>2020-10-05T14:06:01.988Z</time>
      </trkpt>
      <trkpt lat="43.99303" lon="5.90781">
        <ele>575</ele>
        <time>2020-10-05T14:06:02.988Z</time>
      </trkpt>
      <trkpt lat="43.99302" lon="5.90782">
        <ele>575</ele>
        <time>2020-10-05T14:06:03.988Z</time>
      </trkpt>
      <trkpt lat="43.99302" lon="5.90783">
        <ele>575</ele>
        <time>2020-10-05T14:06:04.988Z</time>
      </trkpt>
      <trkpt lat="43.99302" lon="5.90784">
        <ele>575</ele>
        <time>2020-10-05T14:06:05.988Z</time>
      </trkpt>
      <trkpt lat="43.99302" lon="5.90785">
        <ele>574</ele>
        <time>2020-10-05T14:06:06.988Z</time>
      </trkpt>
      <trkpt lat="43.99303" lon="5.90786">
        <ele>574</ele>
        <time>2020-10-05T14:06:07.988Z</time>
      </trkpt>
      <trkpt lat="43.99302" lon="5.90787">
        <ele>574</ele>
        <time>2020-10-05T14:06:08.988Z</time>
      </trkpt>
      <trkpt lat="43.99302" lon="5.90789">
        <ele>574</ele>
        <time>2020-10-05T14:06:09.988Z</time>
      </trkpt>
      <trkpt lat="43.99302" lon="5.9079">
        <ele>574</ele>
        <time>2020-10-05T14:06:10.988Z</time>
      </trkpt>
      <trkpt lat="43.99302" lon="5.90791">
        <ele>574</ele>
        <time>2020-10-05T14:06:11.988Z</time>
      </trkpt>
      <trkpt lat="43.99302" lon="5.90792">
        <ele>573</ele>
        <time>2020-10-05T14:06:12.988Z</time>
      </trkpt>
      <trkpt lat="43.99302" lon="5.90793">
        <ele>573</ele>
        <time>2020-10-05T14:06:13.988Z</time>
      </trkpt>
      <trkpt lat="43.99302" lon="5.90794">
        <ele>573</ele>
        <time>2020-10-05T14:06:14.988Z</time>
      </trkpt>
      <trkpt lat="43.99302" lon="5.90796">
        <ele>573</ele>
        <time>2020-10-05T14:06:15.988Z</time>
      </trkpt>
      <trkpt lat="43.99302" lon="5.90797">
        <ele>573</ele>
        <time>2020-10-05T14:06:16.988Z</time>
      </trkpt>
      <trkpt lat="43.99303" lon="5.90798">
        <ele>573</ele>
        <time>2020-10-05T14:06:17.988Z</time>
      </trkpt>
      <trkpt lat="43.99303" lon="5.908">
        <ele>572</ele>
        <time>2020-10-05T14:06:18.988Z</time>
      </trkpt>
      <trkpt lat="43.99304" lon="5.90801">
        <ele>572</ele>
        <time>2020-10-05T14:06:19.988Z</time>
      </trkpt>
      <trkpt lat="43.99304" lon="5.90802">
        <ele>572</ele>
        <time>2020-10-05T14:06:20.988Z</time>
      </trkpt>
      <trkpt lat="43.99304" lon="5.90802">
        <ele>572</ele>
        <time>2020-10-05T14:06:21.988Z</time>
      </trkpt>
      <trkpt lat="43.99304" lon="5.90803">
        <ele>572</ele>
        <time>2020-10-05T14:06:22.988Z</time>
      </trkpt>
      <trkpt lat="43.99304" lon="5.90804">
        <ele>572</ele>
        <time>2020-10-05T14:06:23.988Z</time>
      </trkpt>
      <trkpt lat="43.99304" lon="5.90805">
        <ele>572</ele>
        <time>2020-10-05T14:06:24.988Z</time>
      </trkpt>
      <trkpt lat="43.99303" lon="5.90805">
        <ele>572</ele>
        <time>2020-10-05T14:06:25.988Z</time>
      </trkpt>
      <trkpt lat="43.99302" lon="5.90806">
        <ele>572</ele>
        <time>2020-10-05T14:06:26.988Z</time>
      </trkpt>
      <trkpt lat="43.99302" lon="5.90807">
        <ele>571</ele>
        <time>2020-10-05T14:06:27.988Z</time>
      </trkpt>
      <trkpt lat="43.99302" lon="5.90808">
        <ele>571</ele>
        <time>2020-10-05T14:06:28.988Z</time>
      </trkpt>
      <trkpt lat="43.99302" lon="5.90809">
        <ele>571</ele>
        <time>2020-10-05T14:06:29.988Z</time>
      </trkpt>
      <trkpt lat="43.99301" lon="5.9081">
        <ele>571</ele>
        <time>2020-10-05T14:06:30.988Z</time>
      </trkpt>
      <trkpt lat="43.99301" lon="5.90811">
        <ele>571</ele>
        <time>2020-10-05T14:06:31.988Z</time>
      </trkpt>
      <trkpt lat="43.993" lon="5.90812">
        <ele>570</ele>
        <time>2020-10-05T14:06:32.988Z</time>
      </trkpt>
      <trkpt lat="43.99299" lon="5.90813">
        <ele>570</ele>
        <time>2020-10-05T14:06:33.988Z</time>
      </trkpt>
      <trkpt lat="43.99298" lon="5.90813">
        <ele>570</ele>
        <time>2020-10-05T14:06:34.988Z</time>
      </trkpt>
      <trkpt lat="43.99297" lon="5.90813">
        <ele>570</ele>
        <time>2020-10-05T14:06:35.988Z</time>
      </trkpt>
      <trkpt lat="43.99296" lon="5.90814">
        <ele>570</ele>
        <time>2020-10-05T14:06:36.988Z</time>
      </trkpt>
      <trkpt lat="43.99295" lon="5.90814">
        <ele>569</ele>
        <time>2020-10-05T14:06:37.988Z</time>
      </trkpt>
      <trkpt lat="43.99294" lon="5.90814">
        <ele>569</ele>
        <time>2020-10-05T14:06:38.988Z</time>
      </trkpt>
      <trkpt lat="43.99293" lon="5.90814">
        <ele>569</ele>
        <time>2020-10-05T14:06:39.988Z</time>
      </trkpt>
      <trkpt lat="43.99292" lon="5.90814">
        <ele>569</ele>
        <time>2020-10-05T14:06:40.988Z</time>
      </trkpt>
      <trkpt lat="43.99291" lon="5.90814">
        <ele>569</ele>
        <time>2020-10-05T14:06:41.988Z</time>
      </trkpt>
      <trkpt lat="43.9929" lon="5.90814">
        <ele>569</ele>
        <time>2020-10-05T14:06:42.988Z</time>
      </trkpt>
      <trkpt lat="43.99289" lon="5.90813">
        <ele>569</ele>
        <time>2020-10-05T14:06:43.988Z</time>
      </trkpt>
      <trkpt lat="43.99288" lon="5.90813">
        <ele>569</ele>
        <time>2020-10-05T14:06:44.988Z</time>
      </trkpt>
      <trkpt lat="43.99287" lon="5.90813">
        <ele>568</ele>
        <time>2020-10-05T14:06:45.988Z</time>
      </trkpt>
      <trkpt lat="43.99287" lon="5.90813">
        <ele>568</ele>
        <time>2020-10-05T14:06:46.988Z</time>
      </trkpt>
      <trkpt lat="43.99286" lon="5.90812">
        <ele>568</ele>
        <time>2020-10-05T14:06:47.988Z</time>
      </trkpt>
      <trkpt lat="43.99285" lon="5.90812">
        <ele>568</ele>
        <time>2020-10-05T14:06:48.988Z</time>
      </trkpt>
      <trkpt lat="43.99285" lon="5.90811">
        <ele>568</ele>
        <time>2020-10-05T14:06:49.988Z</time>
      </trkpt>
      <trkpt lat="43.99284" lon="5.9081">
        <ele>568</ele>
        <time>2020-10-05T14:06:50.988Z</time>
      </trkpt>
      <trkpt lat="43.99283" lon="5.9081">
        <ele>568</ele>
        <time>2020-10-05T14:06:51.988Z</time>
      </trkpt>
      <trkpt lat="43.99282" lon="5.9081">
        <ele>568</ele>
        <time>2020-10-05T14:06:52.988Z</time>
      </trkpt>
      <trkpt lat="43.99281" lon="5.9081">
        <ele>568</ele>
        <time>2020-10-05T14:06:53.988Z</time>
      </trkpt>
      <trkpt lat="43.9928" lon="5.90809">
        <ele>568</ele>
        <time>2020-10-05T14:06:54.988Z</time>
      </trkpt>
      <trkpt lat="43.99279" lon="5.90808">
        <ele>567</ele>
        <time>2020-10-05T14:06:55.988Z</time>
      </trkpt>
      <trkpt lat="43.99279" lon="5.90807">
        <ele>567</ele>
        <time>2020-10-05T14:06:56.988Z</time>
      </trkpt>
      <trkpt lat="43.99278" lon="5.90806">
        <ele>567</ele>
        <time>2020-10-05T14:06:57.988Z</time>
      </trkpt>
      <trkpt lat="43.99278" lon="5.90805">
        <ele>567</ele>
        <time>2020-10-05T14:06:58.988Z</time>
      </trkpt>
      <trkpt lat="43.99277" lon="5.90804">
        <ele>566</ele>
        <time>2020-10-05T14:06:59.988Z</time>
      </trkpt>
      <trkpt lat="43.99277" lon="5.90803">
        <ele>566</ele>
        <time>2020-10-05T14:07:00.988Z</time>
      </trkpt>
      <trkpt lat="43.99276" lon="5.90802">
        <ele>566</ele>
        <time>2020-10-05T14:07:01.988Z</time>
      </trkpt>
      <trkpt lat="43.99275" lon="5.90801">
        <ele>566</ele>
        <time>2020-10-05T14:07:02.988Z</time>
      </trkpt>
      <trkpt lat="43.99274" lon="5.90801">
        <ele>566</ele>
        <time>2020-10-05T14:07:03.988Z</time>
      </trkpt>
      <trkpt lat="43.99273" lon="5.908">
        <ele>565</ele>
        <time>2020-10-05T14:07:04.988Z</time>
      </trkpt>
      <trkpt lat="43.99273" lon="5.908">
        <ele>565</ele>
        <time>2020-10-05T14:07:05.988Z</time>
      </trkpt>
      <trkpt lat="43.99272" lon="5.908">
        <ele>565</ele>
        <time>2020-10-05T14:07:06.988Z</time>
      </trkpt>
      <trkpt lat="43.99271" lon="5.90799">
        <ele>565</ele>
        <time>2020-10-05T14:07:07.988Z</time>
      </trkpt>
      <trkpt lat="43.9927" lon="5.90799">
        <ele>565</ele>
        <time>2020-10-05T14:07:08.988Z</time>
      </trkpt>
      <trkpt lat="43.99269" lon="5.90799">
        <ele>565</ele>
        <time>2020-10-05T14:07:09.988Z</time>
      </trkpt>
      <trkpt lat="43.99268" lon="5.90799">
        <ele>564</ele>
        <time>2020-10-05T14:07:10.988Z</time>
      </trkpt>
      <trkpt lat="43.99267" lon="5.908">
        <ele>564</ele>
        <time>2020-10-05T14:07:11.988Z</time>
      </trkpt>
      <trkpt lat="43.99266" lon="5.90801">
        <ele>564</ele>
        <time>2020-10-05T14:07:12.988Z</time>
      </trkpt>
      <trkpt lat="43.99265" lon="5.90801">
        <ele>564</ele>
        <time>2020-10-05T14:07:13.988Z</time>
      </trkpt>
      <trkpt lat="43.99265" lon="5.90802">
        <ele>564</ele>
        <time>2020-10-05T14:07:14.988Z</time>
      </trkpt>
      <trkpt lat="43.99264" lon="5.90804">
        <ele>563</ele>
        <time>2020-10-05T14:07:15.988Z</time>
      </trkpt>
      <trkpt lat="43.99263" lon="5.90805">
        <ele>563</ele>
        <time>2020-10-05T14:07:16.988Z</time>
      </trkpt>
      <trkpt lat="43.99263" lon="5.90805">
        <ele>563</ele>
        <time>2020-10-05T14:07:17.988Z</time>
      </trkpt>
      <trkpt lat="43.99262" lon="5.90806">
        <ele>563</ele>
        <time>2020-10-05T14:07:18.988Z</time>
      </trkpt>
      <trkpt lat="43.99262" lon="5.90807">
        <ele>562</ele>
        <time>2020-10-05T14:07:19.988Z</time>
      </trkpt>
      <trkpt lat="43.99261" lon="5.90808">
        <ele>562</ele>
        <time>2020-10-05T14:07:20.988Z</time>
      </trkpt>
      <trkpt lat="43.99261" lon="5.90809">
        <ele>562</ele>
        <time>2020-10-05T14:07:21.988Z</time>
      </trkpt>
      <trkpt lat="43.99261" lon="5.9081">
        <ele>562</ele>
        <time>2020-10-05T14:07:22.988Z</time>
      </trkpt>
      <trkpt lat="43.99261" lon="5.90811">
        <ele>561</ele>
        <time>2020-10-05T14:07:23.988Z</time>
      </trkpt>
      <trkpt lat="43.9926" lon="5.90812">
        <ele>561</ele>
        <time>2020-10-05T14:07:24.988Z</time>
      </trkpt>
      <trkpt lat="43.9926" lon="5.90814">
        <ele>561</ele>
        <time>2020-10-05T14:07:25.988Z</time>
      </trkpt>
      <trkpt lat="43.9926" lon="5.90816">
        <ele>561</ele>
        <time>2020-10-05T14:07:26.988Z</time>
      </trkpt>
      <trkpt lat="43.9926" lon="5.90817">
        <ele>561</ele>
        <time>2020-10-05T14:07:27.988Z</time>
      </trkpt>
      <trkpt lat="43.99259" lon="5.90819">
        <ele>560</ele>
        <time>2020-10-05T14:07:28.988Z</time>
      </trkpt>
      <trkpt lat="43.99258" lon="5.9082">
        <ele>560</ele>
        <time>2020-10-05T14:07:29.988Z</time>
      </trkpt>
      <trkpt lat="43.99258" lon="5.90821">
        <ele>560</ele>
        <time>2020-10-05T14:07:30.988Z</time>
      </trkpt>
      <trkpt lat="43.99257" lon="5.90822">
        <ele>560</ele>
        <time>2020-10-05T14:07:31.988Z</time>
      </trkpt>
      <trkpt lat="43.99256" lon="5.90823">
        <ele>559</ele>
        <time>2020-10-05T14:07:32.988Z</time>
      </trkpt>
      <trkpt lat="43.99256" lon="5.90824">
        <ele>559</ele>
        <time>2020-10-05T14:07:33.988Z</time>
      </trkpt>
      <trkpt lat="43.99255" lon="5.90825">
        <ele>559</ele>
        <time>2020-10-05T14:07:34.988Z</time>
      </trkpt>
      <trkpt lat="43.99255" lon="5.90827">
        <ele>559</ele>
        <time>2020-10-05T14:07:35.988Z</time>
      </trkpt>
      <trkpt lat="43.99255" lon="5.90828">
        <ele>558</ele>
        <time>2020-10-05T14:07:36.988Z</time>
      </trkpt>
      <trkpt lat="43.99255" lon="5.90829">
        <ele>558</ele>
        <time>2020-10-05T14:07:37.988Z</time>
      </trkpt>
      <trkpt lat="43.99254" lon="5.9083">
        <ele>558</ele>
        <time>2020-10-05T14:07:38.988Z</time>
      </trkpt>
      <trkpt lat="43.99253" lon="5.90831">
        <ele>558</ele>
        <time>2020-10-05T14:07:39.988Z</time>
      </trkpt>
      <trkpt lat="43.99253" lon="5.90832">
        <ele>558</ele>
        <time>2020-10-05T14:07:40.988Z</time>
      </trkpt>
      <trkpt lat="43.99252" lon="5.90833">
        <ele>557</ele>
        <time>2020-10-05T14:07:41.988Z</time>
      </trkpt>
      <trkpt lat="43.99252" lon="5.90834">
        <ele>557</ele>
        <time>2020-10-05T14:07:42.988Z</time>
      </trkpt>
      <trkpt lat="43.99252" lon="5.90836">
        <ele>557</ele>
        <time>2020-10-05T14:07:43.988Z</time>
      </trkpt>
      <trkpt lat="43.99252" lon="5.90837">
        <ele>557</ele>
        <time>2020-10-05T14:07:44.988Z</time>
      </trkpt>
      <trkpt lat="43.99252" lon="5.90838">
        <ele>557</ele>
        <time>2020-10-05T14:07:45.988Z</time>
      </trkpt>
      <trkpt lat="43.99251" lon="5.90839">
        <ele>556</ele>
        <time>2020-10-05T14:07:46.988Z</time>
      </trkpt>
      <trkpt lat="43.99251" lon="5.9084">
        <ele>556</ele>
        <time>2020-10-05T14:07:47.988Z</time>
      </trkpt>
      <trkpt lat="43.99251" lon="5.90841">
        <ele>556</ele>
        <time>2020-10-05T14:07:48.988Z</time>
      </trkpt>
      <trkpt lat="43.99251" lon="5.90842">
        <ele>556</ele>
        <time>2020-10-05T14:07:49.988Z</time>
      </trkpt>
      <trkpt lat="43.99252" lon="5.90843">
        <ele>555</ele>
        <time>2020-10-05T14:07:50.988Z</time>
      </trkpt>
      <trkpt lat="43.99252" lon="5.90844">
        <ele>555</ele>
        <time>2020-10-05T14:07:51.988Z</time>
      </trkpt>
      <trkpt lat="43.99252" lon="5.90846">
        <ele>555</ele>
        <time>2020-10-05T14:07:52.988Z</time>
      </trkpt>
      <trkpt lat="43.99252" lon="5.90847">
        <ele>554</ele>
        <time>2020-10-05T14:07:53.988Z</time>
      </trkpt>
      <trkpt lat="43.99252" lon="5.90848">
        <ele>554</ele>
        <time>2020-10-05T14:07:54.988Z</time>
      </trkpt>
      <trkpt lat="43.99253" lon="5.90849">
        <ele>554</ele>
        <time>2020-10-05T14:07:55.988Z</time>
      </trkpt>
      <trkpt lat="43.99253" lon="5.9085">
        <ele>554</ele>
        <time>2020-10-05T14:07:56.988Z</time>
      </trkpt>
      <trkpt lat="43.99254" lon="5.90851">
        <ele>553</ele>
        <time>2020-10-05T14:07:57.988Z</time>
      </trkpt>
      <trkpt lat="43.99255" lon="5.90852">
        <ele>553</ele>
        <time>2020-10-05T14:07:58.988Z</time>
      </trkpt>
      <trkpt lat="43.99256" lon="5.90853">
        <ele>553</ele>
        <time>2020-10-05T14:07:59.988Z</time>
      </trkpt>
      <trkpt lat="43.99256" lon="5.90854">
        <ele>553</ele>
        <time>2020-10-05T14:08:00.988Z</time>
      </trkpt>
      <trkpt lat="43.99257" lon="5.90855">
        <ele>552</ele>
        <time>2020-10-05T14:08:01.988Z</time>
      </trkpt>
      <trkpt lat="43.99257" lon="5.90857">
        <ele>552</ele>
        <time>2020-10-05T14:08:02.988Z</time>
      </trkpt>
      <trkpt lat="43.99257" lon="5.90858">
        <ele>552</ele>
        <time>2020-10-05T14:08:03.988Z</time>
      </trkpt>
      <trkpt lat="43.99258" lon="5.9086">
        <ele>551</ele>
        <time>2020-10-05T14:08:04.988Z</time>
      </trkpt>
      <trkpt lat="43.99258" lon="5.90861">
        <ele>551</ele>
        <time>2020-10-05T14:08:05.988Z</time>
      </trkpt>
      <trkpt lat="43.99258" lon="5.90862">
        <ele>551</ele>
        <time>2020-10-05T14:08:06.988Z</time>
      </trkpt>
      <trkpt lat="43.99257" lon="5.90863">
        <ele>551</ele>
        <time>2020-10-05T14:08:07.988Z</time>
      </trkpt>
      <trkpt lat="43.99257" lon="5.90865">
        <ele>550</ele>
        <time>2020-10-05T14:08:08.988Z</time>
      </trkpt>
      <trkpt lat="43.99256" lon="5.90866">
        <ele>550</ele>
        <time>2020-10-05T14:08:09.988Z</time>
      </trkpt>
      <trkpt lat="43.99255" lon="5.90866">
        <ele>550</ele>
        <time>2020-10-05T14:08:10.988Z</time>
      </trkpt>
      <trkpt lat="43.99255" lon="5.90867">
        <ele>550</ele>
        <time>2020-10-05T14:08:11.988Z</time>
      </trkpt>
      <trkpt lat="43.99254" lon="5.90868">
        <ele>549</ele>
        <time>2020-10-05T14:08:12.988Z</time>
      </trkpt>
      <trkpt lat="43.99253" lon="5.90868">
        <ele>549</ele>
        <time>2020-10-05T14:08:13.988Z</time>
      </trkpt>
      <trkpt lat="43.99253" lon="5.90869">
        <ele>549</ele>
        <time>2020-10-05T14:08:14.988Z</time>
      </trkpt>
      <trkpt lat="43.99252" lon="5.9087">
        <ele>549</ele>
        <time>2020-10-05T14:08:15.988Z</time>
      </trkpt>
      <trkpt lat="43.99252" lon="5.90871">
        <ele>549</ele>
        <time>2020-10-05T14:08:16.988Z</time>
      </trkpt>
      <trkpt lat="43.99251" lon="5.90871">
        <ele>549</ele>
        <time>2020-10-05T14:08:17.988Z</time>
      </trkpt>
      <trkpt lat="43.99249" lon="5.90871">
        <ele>548</ele>
        <time>2020-10-05T14:08:18.988Z</time>
      </trkpt>
      <trkpt lat="43.99248" lon="5.90872">
        <ele>548</ele>
        <time>2020-10-05T14:08:19.988Z</time>
      </trkpt>
      <trkpt lat="43.99246" lon="5.90872">
        <ele>548</ele>
        <time>2020-10-05T14:08:20.988Z</time>
      </trkpt>
      <trkpt lat="43.99245" lon="5.90872">
        <ele>548</ele>
        <time>2020-10-05T14:08:21.988Z</time>
      </trkpt>
      <trkpt lat="43.99243" lon="5.90872">
        <ele>548</ele>
        <time>2020-10-05T14:08:22.988Z</time>
      </trkpt>
      <trkpt lat="43.99243" lon="5.90872">
        <ele>548</ele>
        <time>2020-10-05T14:08:23.988Z</time>
      </trkpt>
      <trkpt lat="43.99242" lon="5.90872">
        <ele>547</ele>
        <time>2020-10-05T14:08:24.988Z</time>
      </trkpt>
      <trkpt lat="43.99241" lon="5.90872">
        <ele>547</ele>
        <time>2020-10-05T14:08:25.988Z</time>
      </trkpt>
      <trkpt lat="43.9924" lon="5.90873">
        <ele>547</ele>
        <time>2020-10-05T14:08:26.988Z</time>
      </trkpt>
      <trkpt lat="43.99239" lon="5.90872">
        <ele>547</ele>
        <time>2020-10-05T14:08:27.988Z</time>
      </trkpt>
      <trkpt lat="43.99239" lon="5.90872">
        <ele>547</ele>
        <time>2020-10-05T14:08:28.988Z</time>
      </trkpt>
      <trkpt lat="43.99238" lon="5.90872">
        <ele>547</ele>
        <time>2020-10-05T14:08:29.988Z</time>
      </trkpt>
      <trkpt lat="43.99237" lon="5.90872">
        <ele>547</ele>
        <time>2020-10-05T14:08:30.988Z</time>
      </trkpt>
      <trkpt lat="43.99236" lon="5.90872">
        <ele>546</ele>
        <time>2020-10-05T14:08:31.988Z</time>
      </trkpt>
      <trkpt lat="43.99234" lon="5.90872">
        <ele>546</ele>
        <time>2020-10-05T14:08:32.988Z</time>
      </trkpt>
      <trkpt lat="43.99233" lon="5.90872">
        <ele>546</ele>
        <time>2020-10-05T14:08:33.988Z</time>
      </trkpt>
      <trkpt lat="43.99232" lon="5.90872">
        <ele>546</ele>
        <time>2020-10-05T14:08:34.988Z</time>
      </trkpt>
      <trkpt lat="43.99231" lon="5.90871">
        <ele>546</ele>
        <time>2020-10-05T14:08:35.988Z</time>
      </trkpt>
      <trkpt lat="43.9923" lon="5.90871">
        <ele>546</ele>
        <time>2020-10-05T14:08:36.988Z</time>
      </trkpt>
      <trkpt lat="43.99229" lon="5.9087">
        <ele>546</ele>
        <time>2020-10-05T14:08:37.988Z</time>
      </trkpt>
      <trkpt lat="43.99229" lon="5.9087">
        <ele>545</ele>
        <time>2020-10-05T14:08:38.988Z</time>
      </trkpt>
      <trkpt lat="43.99228" lon="5.9087">
        <ele>545</ele>
        <time>2020-10-05T14:08:39.988Z</time>
      </trkpt>
      <trkpt lat="43.99227" lon="5.90869">
        <ele>545</ele>
        <time>2020-10-05T14:08:40.988Z</time>
      </trkpt>
      <trkpt lat="43.99226" lon="5.90869">
        <ele>545</ele>
        <time>2020-10-05T14:08:41.988Z</time>
      </trkpt>
      <trkpt lat="43.99225" lon="5.90868">
        <ele>545</ele>
        <time>2020-10-05T14:08:42.988Z</time>
      </trkpt>
      <trkpt lat="43.99224" lon="5.90866">
        <ele>545</ele>
        <time>2020-10-05T14:08:43.988Z</time>
      </trkpt>
      <trkpt lat="43.99223" lon="5.90865">
        <ele>545</ele>
        <time>2020-10-05T14:08:44.988Z</time>
      </trkpt>
      <trkpt lat="43.99222" lon="5.90864">
        <ele>545</ele>
        <time>2020-10-05T14:08:45.988Z</time>
      </trkpt>
      <trkpt lat="43.99222" lon="5.90864">
        <ele>545</ele>
        <time>2020-10-05T14:08:46.988Z</time>
      </trkpt>
      <trkpt lat="43.99221" lon="5.90862">
        <ele>545</ele>
        <time>2020-10-05T14:08:47.988Z</time>
      </trkpt>
      <trkpt lat="43.9922" lon="5.90862">
        <ele>544</ele>
        <time>2020-10-05T14:08:48.988Z</time>
      </trkpt>
      <trkpt lat="43.99219" lon="5.90861">
        <ele>544</ele>
        <time>2020-10-05T14:08:49.988Z</time>
      </trkpt>
      <trkpt lat="43.99219" lon="5.9086">
        <ele>544</ele>
        <time>2020-10-05T14:08:50.988Z</time>
      </trkpt>
      <trkpt lat="43.99218" lon="5.90858">
        <ele>544</ele>
        <time>2020-10-05T14:08:51.988Z</time>
      </trkpt>
      <trkpt lat="43.99217" lon="5.90857">
        <ele>544</ele>
        <time>2020-10-05T14:08:52.988Z</time>
      </trkpt>
      <trkpt lat="43.99217" lon="5.90856">
        <ele>544</ele>
        <time>2020-10-05T14:08:53.988Z</time>
      </trkpt>
      <trkpt lat="43.99216" lon="5.90855">
        <ele>543</ele>
        <time>2020-10-05T14:08:54.988Z</time>
      </trkpt>
      <trkpt lat="43.99216" lon="5.90855">
        <ele>543</ele>
        <time>2020-10-05T14:08:55.988Z</time>
      </trkpt>
      <trkpt lat="43.99215" lon="5.90854">
        <ele>543</ele>
        <time>2020-10-05T14:08:56.988Z</time>
      </trkpt>
      <trkpt lat="43.99215" lon="5.90853">
        <ele>543</ele>
        <time>2020-10-05T14:08:57.988Z</time>
      </trkpt>
      <trkpt lat="43.99214" lon="5.90852">
        <ele>543</ele>
        <time>2020-10-05T14:08:58.988Z</time>
      </trkpt>
      <trkpt lat="43.99213" lon="5.90851">
        <ele>543</ele>
        <time>2020-10-05T14:08:59.988Z</time>
      </trkpt>
      <trkpt lat="43.99212" lon="5.90851">
        <ele>543</ele>
        <time>2020-10-05T14:09:00.988Z</time>
      </trkpt>
      <trkpt lat="43.99212" lon="5.9085">
        <ele>543</ele>
        <time>2020-10-05T14:09:01.988Z</time>
      </trkpt>
      <trkpt lat="43.99211" lon="5.9085">
        <ele>542</ele>
        <time>2020-10-05T14:09:02.988Z</time>
      </trkpt>
      <trkpt lat="43.9921" lon="5.9085">
        <ele>542</ele>
        <time>2020-10-05T14:09:03.988Z</time>
      </trkpt>
      <trkpt lat="43.9921" lon="5.90851">
        <ele>542</ele>
        <time>2020-10-05T14:09:04.988Z</time>
      </trkpt>
      <trkpt lat="43.99209" lon="5.90851">
        <ele>542</ele>
        <time>2020-10-05T14:09:05.988Z</time>
      </trkpt>
      <trkpt lat="43.99208" lon="5.90852">
        <ele>542</ele>
        <time>2020-10-05T14:09:06.988Z</time>
      </trkpt>
      <trkpt lat="43.99207" lon="5.90853">
        <ele>542</ele>
        <time>2020-10-05T14:09:07.988Z</time>
      </trkpt>
      <trkpt lat="43.99206" lon="5.90853">
        <ele>541</ele>
        <time>2020-10-05T14:09:08.988Z</time>
      </trkpt>
      <trkpt lat="43.99205" lon="5.90854">
        <ele>541</ele>
        <time>2020-10-05T14:09:09.988Z</time>
      </trkpt>
      <trkpt lat="43.99204" lon="5.90855">
        <ele>541</ele>
        <time>2020-10-05T14:09:10.988Z</time>
      </trkpt>
      <trkpt lat="43.99203" lon="5.90855">
        <ele>541</ele>
        <time>2020-10-05T14:09:11.988Z</time>
      </trkpt>
      <trkpt lat="43.99202" lon="5.90856">
        <ele>541</ele>
        <time>2020-10-05T14:09:12.988Z</time>
      </trkpt>
      <trkpt lat="43.99202" lon="5.90856">
        <ele>540</ele>
        <time>2020-10-05T14:09:13.988Z</time>
      </trkpt>
      <trkpt lat="43.99201" lon="5.90857">
        <ele>540</ele>
        <time>2020-10-05T14:09:14.988Z</time>
      </trkpt>
      <trkpt lat="43.99201" lon="5.90858">
        <ele>540</ele>
        <time>2020-10-05T14:09:15.988Z</time>
      </trkpt>
      <trkpt lat="43.992" lon="5.90859">
        <ele>540</ele>
        <time>2020-10-05T14:09:16.988Z</time>
      </trkpt>
      <trkpt lat="43.992" lon="5.9086">
        <ele>540</ele>
        <time>2020-10-05T14:09:17.988Z</time>
      </trkpt>
      <trkpt lat="43.99199" lon="5.9086">
        <ele>539</ele>
        <time>2020-10-05T14:09:18.988Z</time>
      </trkpt>
      <trkpt lat="43.99199" lon="5.90861">
        <ele>539</ele>
        <time>2020-10-05T14:09:19.988Z</time>
      </trkpt>
      <trkpt lat="43.99198" lon="5.90862">
        <ele>539</ele>
        <time>2020-10-05T14:09:20.988Z</time>
      </trkpt>
      <trkpt lat="43.99198" lon="5.90862">
        <ele>539</ele>
        <time>2020-10-05T14:09:21.988Z</time>
      </trkpt>
      <trkpt lat="43.99197" lon="5.90863">
        <ele>538</ele>
        <time>2020-10-05T14:09:22.988Z</time>
      </trkpt>
      <trkpt lat="43.99196" lon="5.90864">
        <ele>538</ele>
        <time>2020-10-05T14:09:23.988Z</time>
      </trkpt>
      <trkpt lat="43.99196" lon="5.90864">
        <ele>538</ele>
        <time>2020-10-05T14:09:24.988Z</time>
      </trkpt>
      <trkpt lat="43.99196" lon="5.90865">
        <ele>538</ele>
        <time>2020-10-05T14:09:25.988Z</time>
      </trkpt>
      <trkpt lat="43.99196" lon="5.90866">
        <ele>538</ele>
        <time>2020-10-05T14:09:26.988Z</time>
      </trkpt>
      <trkpt lat="43.99195" lon="5.90867">
        <ele>537</ele>
        <time>2020-10-05T14:09:27.988Z</time>
      </trkpt>
      <trkpt lat="43.99195" lon="5.90868">
        <ele>537</ele>
        <time>2020-10-05T14:09:28.988Z</time>
      </trkpt>
      <trkpt lat="43.99194" lon="5.90869">
        <ele>537</ele>
        <time>2020-10-05T14:09:29.988Z</time>
      </trkpt>
      <trkpt lat="43.99194" lon="5.9087">
        <ele>537</ele>
        <time>2020-10-05T14:09:30.988Z</time>
      </trkpt>
      <trkpt lat="43.99193" lon="5.90871">
        <ele>537</ele>
        <time>2020-10-05T14:09:31.988Z</time>
      </trkpt>
      <trkpt lat="43.99193" lon="5.90871">
        <ele>537</ele>
        <time>2020-10-05T14:09:32.988Z</time>
      </trkpt>
      <trkpt lat="43.99192" lon="5.90871">
        <ele>536</ele>
        <time>2020-10-05T14:09:33.988Z</time>
      </trkpt>
      <trkpt lat="43.99192" lon="5.9087">
        <ele>536</ele>
        <time>2020-10-05T14:09:34.988Z</time>
      </trkpt>
      <trkpt lat="43.99192" lon="5.90869">
        <ele>536</ele>
        <time>2020-10-05T14:09:35.988Z</time>
      </trkpt>
      <trkpt lat="43.99192" lon="5.90868">
        <ele>536</ele>
        <time>2020-10-05T14:09:36.988Z</time>
      </trkpt>
      <trkpt lat="43.99191" lon="5.90868">
        <ele>536</ele>
        <time>2020-10-05T14:09:37.988Z</time>
      </trkpt>
      <trkpt lat="43.99191" lon="5.90867">
        <ele>535</ele>
        <time>2020-10-05T14:09:38.988Z</time>
      </trkpt>
      <trkpt lat="43.9919" lon="5.90866">
        <ele>535</ele>
        <time>2020-10-05T14:09:39.988Z</time>
      </trkpt>
      <trkpt lat="43.9919" lon="5.90866">
        <ele>535</ele>
        <time>2020-10-05T14:09:40.988Z</time>
      </trkpt>
      <trkpt lat="43.99189" lon="5.90866">
        <ele>535</ele>
        <time>2020-10-05T14:09:41.988Z</time>
      </trkpt>
      <trkpt lat="43.99188" lon="5.90866">
        <ele>535</ele>
        <time>2020-10-05T14:09:42.988Z</time>
      </trkpt>
      <trkpt lat="43.99187" lon="5.90866">
        <ele>534</ele>
        <time>2020-10-05T14:09:43.988Z</time>
      </trkpt>
      <trkpt lat="43.99186" lon="5.90867">
        <ele>534</ele>
        <time>2020-10-05T14:09:44.988Z</time>
      </trkpt>
      <trkpt lat="43.99185" lon="5.90869">
        <ele>534</ele>
        <time>2020-10-05T14:09:45.988Z</time>
      </trkpt>
      <trkpt lat="43.99185" lon="5.9087">
        <ele>534</ele>
        <time>2020-10-05T14:09:46.988Z</time>
      </trkpt>
      <trkpt lat="43.99185" lon="5.90871">
        <ele>533</ele>
        <time>2020-10-05T14:09:47.988Z</time>
      </trkpt>
      <trkpt lat="43.99184" lon="5.90872">
        <ele>533</ele>
        <time>2020-10-05T14:09:48.988Z</time>
      </trkpt>
      <trkpt lat="43.99183" lon="5.90872">
        <ele>533</ele>
        <time>2020-10-05T14:09:49.988Z</time>
      </trkpt>
      <trkpt lat="43.99182" lon="5.90872">
        <ele>533</ele>
        <time>2020-10-05T14:09:50.988Z</time>
      </trkpt>
      <trkpt lat="43.99181" lon="5.90872">
        <ele>532</ele>
        <time>2020-10-05T14:09:51.988Z</time>
      </trkpt>
      <trkpt lat="43.9918" lon="5.90872">
        <ele>532</ele>
        <time>2020-10-05T14:09:52.988Z</time>
      </trkpt>
      <trkpt lat="43.99179" lon="5.90872">
        <ele>532</ele>
        <time>2020-10-05T14:09:53.988Z</time>
      </trkpt>
      <trkpt lat="43.99178" lon="5.90872">
        <ele>532</ele>
        <time>2020-10-05T14:09:54.988Z</time>
      </trkpt>
      <trkpt lat="43.99178" lon="5.90871">
        <ele>532</ele>
        <time>2020-10-05T14:09:55.988Z</time>
      </trkpt>
      <trkpt lat="43.99177" lon="5.9087">
        <ele>532</ele>
        <time>2020-10-05T14:09:56.988Z</time>
      </trkpt>
      <trkpt lat="43.99177" lon="5.90869">
        <ele>531</ele>
        <time>2020-10-05T14:09:57.988Z</time>
      </trkpt>
      <trkpt lat="43.99176" lon="5.90868">
        <ele>531</ele>
        <time>2020-10-05T14:09:58.988Z</time>
      </trkpt>
      <trkpt lat="43.99176" lon="5.90868">
        <ele>531</ele>
        <time>2020-10-05T14:09:59.988Z</time>
      </trkpt>
      <trkpt lat="43.99175" lon="5.90867">
        <ele>531</ele>
        <time>2020-10-05T14:10:00.988Z</time>
      </trkpt>
      <trkpt lat="43.99175" lon="5.90865">
        <ele>531</ele>
        <time>2020-10-05T14:10:01.988Z</time>
      </trkpt>
      <trkpt lat="43.99174" lon="5.90864">
        <ele>530</ele>
        <time>2020-10-05T14:10:02.988Z</time>
      </trkpt>
      <trkpt lat="43.99173" lon="5.90863">
        <ele>530</ele>
        <time>2020-10-05T14:10:03.988Z</time>
      </trkpt>
      <trkpt lat="43.99173" lon="5.90862">
        <ele>530</ele>
        <time>2020-10-05T14:10:04.988Z</time>
      </trkpt>
      <trkpt lat="43.99172" lon="5.90861">
        <ele>530</ele>
        <time>2020-10-05T14:10:05.988Z</time>
      </trkpt>
      <trkpt lat="43.99171" lon="5.90861">
        <ele>530</ele>
        <time>2020-10-05T14:10:06.988Z</time>
      </trkpt>
      <trkpt lat="43.99171" lon="5.90859">
        <ele>530</ele>
        <time>2020-10-05T14:10:07.988Z</time>
      </trkpt>
      <trkpt lat="43.9917" lon="5.90858">
        <ele>529</ele>
        <time>2020-10-05T14:10:08.988Z</time>
      </trkpt>
      <trkpt lat="43.9917" lon="5.90856">
        <ele>529</ele>
        <time>2020-10-05T14:10:09.988Z</time>
      </trkpt>
      <trkpt lat="43.9917" lon="5.90854">
        <ele>529</ele>
        <time>2020-10-05T14:10:10.988Z</time>
      </trkpt>
      <trkpt lat="43.99169" lon="5.90853">
        <ele>529</ele>
        <time>2020-10-05T14:10:11.988Z</time>
      </trkpt>
      <trkpt lat="43.9917" lon="5.90852">
        <ele>528</ele>
        <time>2020-10-05T14:10:12.988Z</time>
      </trkpt>
      <trkpt lat="43.99169" lon="5.90851">
        <ele>528</ele>
        <time>2020-10-05T14:10:13.988Z</time>
      </trkpt>
      <trkpt lat="43.99169" lon="5.90851">
        <ele>528</ele>
        <time>2020-10-05T14:10:14.988Z</time>
      </trkpt>
      <trkpt lat="43.99169" lon="5.9085">
        <ele>528</ele>
        <time>2020-10-05T14:10:15.988Z</time>
      </trkpt>
      <trkpt lat="43.99169" lon="5.9085">
        <ele>527</ele>
        <time>2020-10-05T14:10:16.988Z</time>
      </trkpt>
      <trkpt lat="43.99168" lon="5.90849">
        <ele>527</ele>
        <time>2020-10-05T14:10:17.988Z</time>
      </trkpt>
      <trkpt lat="43.99167" lon="5.90849">
        <ele>527</ele>
        <time>2020-10-05T14:10:18.988Z</time>
      </trkpt>
      <trkpt lat="43.99167" lon="5.90848">
        <ele>527</ele>
        <time>2020-10-05T14:10:19.988Z</time>
      </trkpt>
      <trkpt lat="43.99166" lon="5.90848">
        <ele>527</ele>
        <time>2020-10-05T14:10:20.988Z</time>
      </trkpt>
      <trkpt lat="43.99166" lon="5.90847">
        <ele>526</ele>
        <time>2020-10-05T14:10:21.988Z</time>
      </trkpt>
      <trkpt lat="43.99166" lon="5.90847">
        <ele>526</ele>
        <time>2020-10-05T14:10:22.988Z</time>
      </trkpt>
      <trkpt lat="43.99165" lon="5.90847">
        <ele>526</ele>
        <time>2020-10-05T14:10:23.988Z</time>
      </trkpt>
      <trkpt lat="43.99165" lon="5.90847">
        <ele>526</ele>
        <time>2020-10-05T14:10:24.988Z</time>
      </trkpt>
      <trkpt lat="43.99164" lon="5.90847">
        <ele>526</ele>
        <time>2020-10-05T14:10:25.988Z</time>
      </trkpt>
      <trkpt lat="43.99163" lon="5.90848">
        <ele>526</ele>
        <time>2020-10-05T14:10:26.988Z</time>
      </trkpt>
      <trkpt lat="43.99162" lon="5.90848">
        <ele>526</ele>
        <time>2020-10-05T14:10:27.988Z</time>
      </trkpt>
      <trkpt lat="43.99161" lon="5.90847">
        <ele>526</ele>
        <time>2020-10-05T14:10:28.988Z</time>
      </trkpt>
      <trkpt lat="43.9916" lon="5.90847">
        <ele>526</ele>
        <time>2020-10-05T14:10:29.988Z</time>
      </trkpt>
      <trkpt lat="43.99159" lon="5.90846">
        <ele>526</ele>
        <time>2020-10-05T14:10:30.988Z</time>
      </trkpt>
      <trkpt lat="43.99157" lon="5.90845">
        <ele>525</ele>
        <time>2020-10-05T14:10:31.988Z</time>
      </trkpt>
      <trkpt lat="43.99156" lon="5.90844">
        <ele>525</ele>
        <time>2020-10-05T14:10:32.988Z</time>
      </trkpt>
      <trkpt lat="43.99155" lon="5.90843">
        <ele>525</ele>
        <time>2020-10-05T14:10:33.988Z</time>
      </trkpt>
      <trkpt lat="43.99154" lon="5.90842">
        <ele>525</ele>
        <time>2020-10-05T14:10:34.988Z</time>
      </trkpt>
      <trkpt lat="43.99152" lon="5.90841">
        <ele>525</ele>
        <time>2020-10-05T14:10:35.988Z</time>
      </trkpt>
      <trkpt lat="43.99151" lon="5.9084">
        <ele>525</ele>
        <time>2020-10-05T14:10:36.988Z</time>
      </trkpt>
      <trkpt lat="43.9915" lon="5.90839">
        <ele>525</ele>
        <time>2020-10-05T14:10:37.988Z</time>
      </trkpt>
      <trkpt lat="43.99149" lon="5.90839">
        <ele>525</ele>
        <time>2020-10-05T14:10:38.988Z</time>
      </trkpt>
      <trkpt lat="43.99148" lon="5.90838">
        <ele>525</ele>
        <time>2020-10-05T14:10:39.988Z</time>
      </trkpt>
      <trkpt lat="43.99147" lon="5.90838">
        <ele>525</ele>
        <time>2020-10-05T14:10:40.988Z</time>
      </trkpt>
      <trkpt lat="43.99145" lon="5.90837">
        <ele>525</ele>
        <time>2020-10-05T14:10:41.988Z</time>
      </trkpt>
      <trkpt lat="43.99144" lon="5.90836">
        <ele>525</ele>
        <time>2020-10-05T14:10:42.988Z</time>
      </trkpt>
      <trkpt lat="43.99143" lon="5.90835">
        <ele>525</ele>
        <time>2020-10-05T14:10:43.988Z</time>
      </trkpt>
      <trkpt lat="43.99142" lon="5.90834">
        <ele>525</ele>
        <time>2020-10-05T14:10:44.988Z</time>
      </trkpt>
      <trkpt lat="43.99141" lon="5.90833">
        <ele>525</ele>
        <time>2020-10-05T14:10:45.988Z</time>
      </trkpt>
      <trkpt lat="43.9914" lon="5.90833">
        <ele>525</ele>
        <time>2020-10-05T14:10:46.988Z</time>
      </trkpt>
      <trkpt lat="43.99139" lon="5.90832">
        <ele>524</ele>
        <time>2020-10-05T14:10:47.988Z</time>
      </trkpt>
      <trkpt lat="43.99138" lon="5.90831">
        <ele>524</ele>
        <time>2020-10-05T14:10:48.988Z</time>
      </trkpt>
      <trkpt lat="43.99136" lon="5.9083">
        <ele>524</ele>
        <time>2020-10-05T14:10:49.988Z</time>
      </trkpt>
      <trkpt lat="43.99135" lon="5.90829">
        <ele>524</ele>
        <time>2020-10-05T14:10:50.988Z</time>
      </trkpt>
      <trkpt lat="43.99134" lon="5.90828">
        <ele>524</ele>
        <time>2020-10-05T14:10:51.988Z</time>
      </trkpt>
      <trkpt lat="43.99132" lon="5.90827">
        <ele>524</ele>
        <time>2020-10-05T14:10:52.988Z</time>
      </trkpt>
      <trkpt lat="43.99131" lon="5.90826">
        <ele>524</ele>
        <time>2020-10-05T14:10:53.988Z</time>
      </trkpt>
      <trkpt lat="43.9913" lon="5.90826">
        <ele>524</ele>
        <time>2020-10-05T14:10:54.988Z</time>
      </trkpt>
      <trkpt lat="43.99129" lon="5.90825">
        <ele>524</ele>
        <time>2020-10-05T14:10:55.988Z</time>
      </trkpt>
      <trkpt lat="43.99128" lon="5.90824">
        <ele>524</ele>
        <time>2020-10-05T14:10:56.988Z</time>
      </trkpt>
      <trkpt lat="43.99126" lon="5.90823">
        <ele>523</ele>
        <time>2020-10-05T14:10:57.988Z</time>
      </trkpt>
      <trkpt lat="43.99125" lon="5.90822">
        <ele>523</ele>
        <time>2020-10-05T14:10:58.988Z</time>
      </trkpt>
      <trkpt lat="43.99124" lon="5.9082">
        <ele>523</ele>
        <time>2020-10-05T14:10:59.988Z</time>
      </trkpt>
      <trkpt lat="43.99124" lon="5.90818">
        <ele>523</ele>
        <time>2020-10-05T14:11:00.988Z</time>
      </trkpt>
      <trkpt lat="43.99123" lon="5.90816">
        <ele>523</ele>
        <time>2020-10-05T14:11:01.988Z</time>
      </trkpt>
      <trkpt lat="43.99122" lon="5.90814">
        <ele>522</ele>
        <time>2020-10-05T14:11:02.988Z</time>
      </trkpt>
      <trkpt lat="43.99122" lon="5.90812">
        <ele>522</ele>
        <time>2020-10-05T14:11:03.988Z</time>
      </trkpt>
      <trkpt lat="43.99121" lon="5.90811">
        <ele>522</ele>
        <time>2020-10-05T14:11:04.988Z</time>
      </trkpt>
      <trkpt lat="43.9912" lon="5.90809">
        <ele>522</ele>
        <time>2020-10-05T14:11:05.988Z</time>
      </trkpt>
      <trkpt lat="43.9912" lon="5.90807">
        <ele>522</ele>
        <time>2020-10-05T14:11:06.988Z</time>
      </trkpt>
      <trkpt lat="43.99119" lon="5.90805">
        <ele>522</ele>
        <time>2020-10-05T14:11:07.988Z</time>
      </trkpt>
      <trkpt lat="43.99119" lon="5.90803">
        <ele>522</ele>
        <time>2020-10-05T14:11:08.988Z</time>
      </trkpt>
      <trkpt lat="43.99118" lon="5.90802">
        <ele>522</ele>
        <time>2020-10-05T14:11:09.988Z</time>
      </trkpt>
      <trkpt lat="43.99118" lon="5.908">
        <ele>521</ele>
        <time>2020-10-05T14:11:10.988Z</time>
      </trkpt>
      <trkpt lat="43.99117" lon="5.90798">
        <ele>521</ele>
        <time>2020-10-05T14:11:11.988Z</time>
      </trkpt>
      <trkpt lat="43.99117" lon="5.90796">
        <ele>521</ele>
        <time>2020-10-05T14:11:12.988Z</time>
      </trkpt>
      <trkpt lat="43.99116" lon="5.90795">
        <ele>521</ele>
        <time>2020-10-05T14:11:13.988Z</time>
      </trkpt>
      <trkpt lat="43.99116" lon="5.90793">
        <ele>520</ele>
        <time>2020-10-05T14:11:14.988Z</time>
      </trkpt>
      <trkpt lat="43.99115" lon="5.90791">
        <ele>520</ele>
        <time>2020-10-05T14:11:15.988Z</time>
      </trkpt>
      <trkpt lat="43.99115" lon="5.9079">
        <ele>520</ele>
        <time>2020-10-05T14:11:16.988Z</time>
      </trkpt>
      <trkpt lat="43.99114" lon="5.90788">
        <ele>520</ele>
        <time>2020-10-05T14:11:17.988Z</time>
      </trkpt>
      <trkpt lat="43.99114" lon="5.90786">
        <ele>520</ele>
        <time>2020-10-05T14:11:18.988Z</time>
      </trkpt>
      <trkpt lat="43.99113" lon="5.90784">
        <ele>519</ele>
        <time>2020-10-05T14:11:19.988Z</time>
      </trkpt>
      <trkpt lat="43.99113" lon="5.90782">
        <ele>519</ele>
        <time>2020-10-05T14:11:20.988Z</time>
      </trkpt>
      <trkpt lat="43.99113" lon="5.90781">
        <ele>519</ele>
        <time>2020-10-05T14:11:21.988Z</time>
      </trkpt>
      <trkpt lat="43.99112" lon="5.90779">
        <ele>519</ele>
        <time>2020-10-05T14:11:22.988Z</time>
      </trkpt>
      <trkpt lat="43.99112" lon="5.90777">
        <ele>519</ele>
        <time>2020-10-05T14:11:23.988Z</time>
      </trkpt>
      <trkpt lat="43.99111" lon="5.90776">
        <ele>518</ele>
        <time>2020-10-05T14:11:24.988Z</time>
      </trkpt>
      <trkpt lat="43.9911" lon="5.90774">
        <ele>518</ele>
        <time>2020-10-05T14:11:25.988Z</time>
      </trkpt>
      <trkpt lat="43.9911" lon="5.90773">
        <ele>518</ele>
        <time>2020-10-05T14:11:26.988Z</time>
      </trkpt>
      <trkpt lat="43.99109" lon="5.90772">
        <ele>518</ele>
        <time>2020-10-05T14:11:27.988Z</time>
      </trkpt>
      <trkpt lat="43.99108" lon="5.9077">
        <ele>518</ele>
        <time>2020-10-05T14:11:28.988Z</time>
      </trkpt>
      <trkpt lat="43.99108" lon="5.90769">
        <ele>517</ele>
        <time>2020-10-05T14:11:29.988Z</time>
      </trkpt>
      <trkpt lat="43.99107" lon="5.90767">
        <ele>517</ele>
        <time>2020-10-05T14:11:30.988Z</time>
      </trkpt>
      <trkpt lat="43.99107" lon="5.90766">
        <ele>517</ele>
        <time>2020-10-05T14:11:31.988Z</time>
      </trkpt>
      <trkpt lat="43.99106" lon="5.90764">
        <ele>517</ele>
        <time>2020-10-05T14:11:32.988Z</time>
      </trkpt>
      <trkpt lat="43.99106" lon="5.90763">
        <ele>517</ele>
        <time>2020-10-05T14:11:33.988Z</time>
      </trkpt>
      <trkpt lat="43.99105" lon="5.90761">
        <ele>517</ele>
        <time>2020-10-05T14:11:34.988Z</time>
      </trkpt>
      <trkpt lat="43.99105" lon="5.9076">
        <ele>517</ele>
        <time>2020-10-05T14:11:35.988Z</time>
      </trkpt>
      <trkpt lat="43.99104" lon="5.90758">
        <ele>517</ele>
        <time>2020-10-05T14:11:36.988Z</time>
      </trkpt>
      <trkpt lat="43.99104" lon="5.90756">
        <ele>516</ele>
        <time>2020-10-05T14:11:37.988Z</time>
      </trkpt>
      <trkpt lat="43.99104" lon="5.90755">
        <ele>516</ele>
        <time>2020-10-05T14:11:38.988Z</time>
      </trkpt>
      <trkpt lat="43.99103" lon="5.90753">
        <ele>516</ele>
        <time>2020-10-05T14:11:39.988Z</time>
      </trkpt>
      <trkpt lat="43.99103" lon="5.90752">
        <ele>516</ele>
        <time>2020-10-05T14:11:40.988Z</time>
      </trkpt>
      <trkpt lat="43.99104" lon="5.90751">
        <ele>516</ele>
        <time>2020-10-05T14:11:41.988Z</time>
      </trkpt>
      <trkpt lat="43.99104" lon="5.9075">
        <ele>516</ele>
        <time>2020-10-05T14:11:42.988Z</time>
      </trkpt>
      <trkpt lat="43.99104" lon="5.9075">
        <ele>516</ele>
        <time>2020-10-05T14:11:43.988Z</time>
      </trkpt>
      <trkpt lat="43.99104" lon="5.9075">
        <ele>516</ele>
        <time>2020-10-05T14:11:44.988Z</time>
      </trkpt>
      <trkpt lat="43.99104" lon="5.90749">
        <ele>516</ele>
        <time>2020-10-05T14:11:45.988Z</time>
      </trkpt>
      <trkpt lat="43.99104" lon="5.90749">
        <ele>516</ele>
        <time>2020-10-05T14:11:46.988Z</time>
      </trkpt>
      <trkpt lat="43.99104" lon="5.90748">
        <ele>516</ele>
        <time>2020-10-05T14:11:47.988Z</time>
      </trkpt>
      <trkpt lat="43.99104" lon="5.90748">
        <ele>516</ele>
        <time>2020-10-05T14:11:48.988Z</time>
      </trkpt>
      <trkpt lat="43.99104" lon="5.90748">
        <ele>516</ele>
        <time>2020-10-05T14:11:49.988Z</time>
      </trkpt>
      <trkpt lat="43.99104" lon="5.90747">
        <ele>516</ele>
        <time>2020-10-05T14:11:50.988Z</time>
      </trkpt>
      <trkpt lat="43.99104" lon="5.90746">
        <ele>516</ele>
        <time>2020-10-05T14:11:51.988Z</time>
      </trkpt>
      <trkpt lat="43.99105" lon="5.90745">
        <ele>516</ele>
        <time>2020-10-05T14:11:52.988Z</time>
      </trkpt>
      <trkpt lat="43.99105" lon="5.90744">
        <ele>516</ele>
        <time>2020-10-05T14:11:53.988Z</time>
      </trkpt>
      <trkpt lat="43.99105" lon="5.90743">
        <ele>515</ele>
        <time>2020-10-05T14:11:54.988Z</time>
      </trkpt>
      <trkpt lat="43.99105" lon="5.90742">
        <ele>515</ele>
        <time>2020-10-05T14:11:55.988Z</time>
      </trkpt>
      <trkpt lat="43.99105" lon="5.90741">
        <ele>515</ele>
        <time>2020-10-05T14:11:56.988Z</time>
      </trkpt>
      <trkpt lat="43.99105" lon="5.9074">
        <ele>515</ele>
        <time>2020-10-05T14:11:57.988Z</time>
      </trkpt>
      <trkpt lat="43.99106" lon="5.9074">
        <ele>515</ele>
        <time>2020-10-05T14:11:58.988Z</time>
      </trkpt>
      <trkpt lat="43.99107" lon="5.90739">
        <ele>515</ele>
        <time>2020-10-05T14:11:59.988Z</time>
      </trkpt>
      <trkpt lat="43.99107" lon="5.90738">
        <ele>515</ele>
        <time>2020-10-05T14:12:00.988Z</time>
      </trkpt>
      <trkpt lat="43.99108" lon="5.90738">
        <ele>516</ele>
        <time>2020-10-05T14:12:01.988Z</time>
      </trkpt>
      <trkpt lat="43.99108" lon="5.90737">
        <ele>516</ele>
        <time>2020-10-05T14:12:02.988Z</time>
      </trkpt>
      <trkpt lat="43.99109" lon="5.90735">
        <ele>516</ele>
        <time>2020-10-05T14:12:03.988Z</time>
      </trkpt>
      <trkpt lat="43.99109" lon="5.90734">
        <ele>516</ele>
        <time>2020-10-05T14:12:04.988Z</time>
      </trkpt>
      <trkpt lat="43.99109" lon="5.90733">
        <ele>516</ele>
        <time>2020-10-05T14:12:05.988Z</time>
      </trkpt>
      <trkpt lat="43.99109" lon="5.90732">
        <ele>516</ele>
        <time>2020-10-05T14:12:06.988Z</time>
      </trkpt>
      <trkpt lat="43.9911" lon="5.9073">
        <ele>516</ele>
        <time>2020-10-05T14:12:07.988Z</time>
      </trkpt>
      <trkpt lat="43.9911" lon="5.90728">
        <ele>516</ele>
        <time>2020-10-05T14:12:08.988Z</time>
      </trkpt>
      <trkpt lat="43.99111" lon="5.90727">
        <ele>516</ele>
        <time>2020-10-05T14:12:09.988Z</time>
      </trkpt>
      <trkpt lat="43.99111" lon="5.90726">
        <ele>516</ele>
        <time>2020-10-05T14:12:10.988Z</time>
      </trkpt>
      <trkpt lat="43.99112" lon="5.90724">
        <ele>516</ele>
        <time>2020-10-05T14:12:11.988Z</time>
      </trkpt>
      <trkpt lat="43.99113" lon="5.90723">
        <ele>516</ele>
        <time>2020-10-05T14:12:12.988Z</time>
      </trkpt>
      <trkpt lat="43.99113" lon="5.90722">
        <ele>516</ele>
        <time>2020-10-05T14:12:13.988Z</time>
      </trkpt>
      <trkpt lat="43.99114" lon="5.9072">
        <ele>516</ele>
        <time>2020-10-05T14:12:14.988Z</time>
      </trkpt>
      <trkpt lat="43.99114" lon="5.90719">
        <ele>516</ele>
        <time>2020-10-05T14:12:15.988Z</time>
      </trkpt>
      <trkpt lat="43.99115" lon="5.90718">
        <ele>516</ele>
        <time>2020-10-05T14:12:16.988Z</time>
      </trkpt>
      <trkpt lat="43.99115" lon="5.90716">
        <ele>516</ele>
        <time>2020-10-05T14:12:17.988Z</time>
      </trkpt>
      <trkpt lat="43.99116" lon="5.90715">
        <ele>516</ele>
        <time>2020-10-05T14:12:18.988Z</time>
      </trkpt>
      <trkpt lat="43.99116" lon="5.90714">
        <ele>516</ele>
        <time>2020-10-05T14:12:19.988Z</time>
      </trkpt>
      <trkpt lat="43.99117" lon="5.90712">
        <ele>516</ele>
        <time>2020-10-05T14:12:20.988Z</time>
      </trkpt>
      <trkpt lat="43.99118" lon="5.90711">
        <ele>516</ele>
        <time>2020-10-05T14:12:21.988Z</time>
      </trkpt>
      <trkpt lat="43.99119" lon="5.9071">
        <ele>516</ele>
        <time>2020-10-05T14:12:22.988Z</time>
      </trkpt>
      <trkpt lat="43.9912" lon="5.90709">
        <ele>516</ele>
        <time>2020-10-05T14:12:23.988Z</time>
      </trkpt>
      <trkpt lat="43.99121" lon="5.90707">
        <ele>516</ele>
        <time>2020-10-05T14:12:24.988Z</time>
      </trkpt>
      <trkpt lat="43.99121" lon="5.90706">
        <ele>516</ele>
        <time>2020-10-05T14:12:25.988Z</time>
      </trkpt>
      <trkpt lat="43.99122" lon="5.90704">
        <ele>516</ele>
        <time>2020-10-05T14:12:26.988Z</time>
      </trkpt>
      <trkpt lat="43.99122" lon="5.90703">
        <ele>516</ele>
        <time>2020-10-05T14:12:27.988Z</time>
      </trkpt>
      <trkpt lat="43.99122" lon="5.90701">
        <ele>516</ele>
        <time>2020-10-05T14:12:28.988Z</time>
      </trkpt>
      <trkpt lat="43.99123" lon="5.90699">
        <ele>516</ele>
        <time>2020-10-05T14:12:29.988Z</time>
      </trkpt>
      <trkpt lat="43.99123" lon="5.90698">
        <ele>516</ele>
        <time>2020-10-05T14:12:30.988Z</time>
      </trkpt>
      <trkpt lat="43.99123" lon="5.90697">
        <ele>516</ele>
        <time>2020-10-05T14:12:31.988Z</time>
      </trkpt>
      <trkpt lat="43.99123" lon="5.90695">
        <ele>516</ele>
        <time>2020-10-05T14:12:32.988Z</time>
      </trkpt>
      <trkpt lat="43.99123" lon="5.90695">
        <ele>516</ele>
        <time>2020-10-05T14:12:33.988Z</time>
      </trkpt>
      <trkpt lat="43.99123" lon="5.90694">
        <ele>516</ele>
        <time>2020-10-05T14:12:34.988Z</time>
      </trkpt>
      <trkpt lat="43.99124" lon="5.90694">
        <ele>516</ele>
        <time>2020-10-05T14:12:35.988Z</time>
      </trkpt>
      <trkpt lat="43.99124" lon="5.90693">
        <ele>516</ele>
        <time>2020-10-05T14:12:36.988Z</time>
      </trkpt>
      <trkpt lat="43.99124" lon="5.90691">
        <ele>516</ele>
        <time>2020-10-05T14:12:37.988Z</time>
      </trkpt>
      <trkpt lat="43.99124" lon="5.9069">
        <ele>516</ele>
        <time>2020-10-05T14:12:38.988Z</time>
      </trkpt>
      <trkpt lat="43.99124" lon="5.9069">
        <ele>517</ele>
        <time>2020-10-05T14:12:39.988Z</time>
      </trkpt>
      <trkpt lat="43.99124" lon="5.90688">
        <ele>517</ele>
        <time>2020-10-05T14:12:40.988Z</time>
      </trkpt>
      <trkpt lat="43.99124" lon="5.90687">
        <ele>517</ele>
        <time>2020-10-05T14:12:41.988Z</time>
      </trkpt>
      <trkpt lat="43.99124" lon="5.90685">
        <ele>517</ele>
        <time>2020-10-05T14:12:42.988Z</time>
      </trkpt>
      <trkpt lat="43.99124" lon="5.90684">
        <ele>517</ele>
        <time>2020-10-05T14:12:43.988Z</time>
      </trkpt>
      <trkpt lat="43.99125" lon="5.90683">
        <ele>517</ele>
        <time>2020-10-05T14:12:44.988Z</time>
      </trkpt>
      <trkpt lat="43.99125" lon="5.90681">
        <ele>517</ele>
        <time>2020-10-05T14:12:45.988Z</time>
      </trkpt>
      <trkpt lat="43.99125" lon="5.9068">
        <ele>517</ele>
        <time>2020-10-05T14:12:46.988Z</time>
      </trkpt>
      <trkpt lat="43.99126" lon="5.90678">
        <ele>517</ele>
        <time>2020-10-05T14:12:47.988Z</time>
      </trkpt>
      <trkpt lat="43.99126" lon="5.90677">
        <ele>517</ele>
        <time>2020-10-05T14:12:48.988Z</time>
      </trkpt>
      <trkpt lat="43.99126" lon="5.90676">
        <ele>517</ele>
        <time>2020-10-05T14:12:49.988Z</time>
      </trkpt>
      <trkpt lat="43.99126" lon="5.90674">
        <ele>517</ele>
        <time>2020-10-05T14:12:50.988Z</time>
      </trkpt>
      <trkpt lat="43.99126" lon="5.90673">
        <ele>517</ele>
        <time>2020-10-05T14:12:51.988Z</time>
      </trkpt>
      <trkpt lat="43.99126" lon="5.90671">
        <ele>517</ele>
        <time>2020-10-05T14:12:52.988Z</time>
      </trkpt>
      <trkpt lat="43.99126" lon="5.9067">
        <ele>517</ele>
        <time>2020-10-05T14:12:53.988Z</time>
      </trkpt>
      <trkpt lat="43.99126" lon="5.90668">
        <ele>516</ele>
        <time>2020-10-05T14:12:54.988Z</time>
      </trkpt>
      <trkpt lat="43.99126" lon="5.90667">
        <ele>516</ele>
        <time>2020-10-05T14:12:55.988Z</time>
      </trkpt>
      <trkpt lat="43.99126" lon="5.90665">
        <ele>516</ele>
        <time>2020-10-05T14:12:56.988Z</time>
      </trkpt>
      <trkpt lat="43.99127" lon="5.90663">
        <ele>516</ele>
        <time>2020-10-05T14:12:57.988Z</time>
      </trkpt>
      <trkpt lat="43.99127" lon="5.90662">
        <ele>516</ele>
        <time>2020-10-05T14:12:58.988Z</time>
      </trkpt>
      <trkpt lat="43.99127" lon="5.9066">
        <ele>516</ele>
        <time>2020-10-05T14:12:59.988Z</time>
      </trkpt>
      <trkpt lat="43.99127" lon="5.90659">
        <ele>516</ele>
        <time>2020-10-05T14:13:00.988Z</time>
      </trkpt>
      <trkpt lat="43.99127" lon="5.90657">
        <ele>516</ele>
        <time>2020-10-05T14:13:01.988Z</time>
      </trkpt>
      <trkpt lat="43.99128" lon="5.90656">
        <ele>516</ele>
        <time>2020-10-05T14:13:02.988Z</time>
      </trkpt>
      <trkpt lat="43.99128" lon="5.90654">
        <ele>516</ele>
        <time>2020-10-05T14:13:03.988Z</time>
      </trkpt>
      <trkpt lat="43.99129" lon="5.90653">
        <ele>516</ele>
        <time>2020-10-05T14:13:04.988Z</time>
      </trkpt>
      <trkpt lat="43.99129" lon="5.90652">
        <ele>516</ele>
        <time>2020-10-05T14:13:05.988Z</time>
      </trkpt>
      <trkpt lat="43.9913" lon="5.9065">
        <ele>516</ele>
        <time>2020-10-05T14:13:06.988Z</time>
      </trkpt>
      <trkpt lat="43.9913" lon="5.90649">
        <ele>516</ele>
        <time>2020-10-05T14:13:07.988Z</time>
      </trkpt>
      <trkpt lat="43.99131" lon="5.90647">
        <ele>516</ele>
        <time>2020-10-05T14:13:08.988Z</time>
      </trkpt>
      <trkpt lat="43.99131" lon="5.90646">
        <ele>516</ele>
        <time>2020-10-05T14:13:09.988Z</time>
      </trkpt>
      <trkpt lat="43.99131" lon="5.90645">
        <ele>516</ele>
        <time>2020-10-05T14:13:10.988Z</time>
      </trkpt>
      <trkpt lat="43.99132" lon="5.90643">
        <ele>516</ele>
        <time>2020-10-05T14:13:11.988Z</time>
      </trkpt>
      <trkpt lat="43.99132" lon="5.90642">
        <ele>516</ele>
        <time>2020-10-05T14:13:12.988Z</time>
      </trkpt>
      <trkpt lat="43.99133" lon="5.90641">
        <ele>516</ele>
        <time>2020-10-05T14:13:13.988Z</time>
      </trkpt>
      <trkpt lat="43.99133" lon="5.90639">
        <ele>516</ele>
        <time>2020-10-05T14:13:14.988Z</time>
      </trkpt>
      <trkpt lat="43.99134" lon="5.90638">
        <ele>516</ele>
        <time>2020-10-05T14:13:15.988Z</time>
      </trkpt>
      <trkpt lat="43.99134" lon="5.90636">
        <ele>516</ele>
        <time>2020-10-05T14:13:16.988Z</time>
      </trkpt>
      <trkpt lat="43.99135" lon="5.90635">
        <ele>516</ele>
        <time>2020-10-05T14:13:17.988Z</time>
      </trkpt>
      <trkpt lat="43.99135" lon="5.90633">
        <ele>516</ele>
        <time>2020-10-05T14:13:18.988Z</time>
      </trkpt>
      <trkpt lat="43.99136" lon="5.90632">
        <ele>516</ele>
        <time>2020-10-05T14:13:19.988Z</time>
      </trkpt>
      <trkpt lat="43.99136" lon="5.90631">
        <ele>516</ele>
        <time>2020-10-05T14:13:20.988Z</time>
      </trkpt>
      <trkpt lat="43.99137" lon="5.9063">
        <ele>516</ele>
        <time>2020-10-05T14:13:21.988Z</time>
      </trkpt>
      <trkpt lat="43.99138" lon="5.90629">
        <ele>516</ele>
        <time>2020-10-05T14:13:22.988Z</time>
      </trkpt>
      <trkpt lat="43.99139" lon="5.90627">
        <ele>516</ele>
        <time>2020-10-05T14:13:23.988Z</time>
      </trkpt>
      <trkpt lat="43.9914" lon="5.90626">
        <ele>516</ele>
        <time>2020-10-05T14:13:24.988Z</time>
      </trkpt>
      <trkpt lat="43.9914" lon="5.90625">
        <ele>516</ele>
        <time>2020-10-05T14:13:25.988Z</time>
      </trkpt>
      <trkpt lat="43.99141" lon="5.90624">
        <ele>516</ele>
        <time>2020-10-05T14:13:26.988Z</time>
      </trkpt>
      <trkpt lat="43.99142" lon="5.90623">
        <ele>516</ele>
        <time>2020-10-05T14:13:27.988Z</time>
      </trkpt>
      <trkpt lat="43.99143" lon="5.90622">
        <ele>516</ele>
        <time>2020-10-05T14:13:28.988Z</time>
      </trkpt>
      <trkpt lat="43.99143" lon="5.90621">
        <ele>516</ele>
        <time>2020-10-05T14:13:29.988Z</time>
      </trkpt>
      <trkpt lat="43.99144" lon="5.90621">
        <ele>516</ele>
        <time>2020-10-05T14:13:30.988Z</time>
      </trkpt>
      <trkpt lat="43.99145" lon="5.9062">
        <ele>516</ele>
        <time>2020-10-05T14:13:31.988Z</time>
      </trkpt>
      <trkpt lat="43.99146" lon="5.90619">
        <ele>516</ele>
        <time>2020-10-05T14:13:32.988Z</time>
      </trkpt>
      <trkpt lat="43.99147" lon="5.90618">
        <ele>515</ele>
        <time>2020-10-05T14:13:33.988Z</time>
      </trkpt>
      <trkpt lat="43.99148" lon="5.90617">
        <ele>515</ele>
        <time>2020-10-05T14:13:34.988Z</time>
      </trkpt>
      <trkpt lat="43.9915" lon="5.90617">
        <ele>515</ele>
        <time>2020-10-05T14:13:35.988Z</time>
      </trkpt>
      <trkpt lat="43.9915" lon="5.90616">
        <ele>515</ele>
        <time>2020-10-05T14:13:36.988Z</time>
      </trkpt>
      <trkpt lat="43.99151" lon="5.90616">
        <ele>515</ele>
        <time>2020-10-05T14:13:37.988Z</time>
      </trkpt>
      <trkpt lat="43.99152" lon="5.90616">
        <ele>515</ele>
        <time>2020-10-05T14:13:38.988Z</time>
      </trkpt>
      <trkpt lat="43.99153" lon="5.90615">
        <ele>515</ele>
        <time>2020-10-05T14:13:39.988Z</time>
      </trkpt>
      <trkpt lat="43.99154" lon="5.90615">
        <ele>515</ele>
        <time>2020-10-05T14:13:40.988Z</time>
      </trkpt>
      <trkpt lat="43.99154" lon="5.90615">
        <ele>515</ele>
        <time>2020-10-05T14:13:41.988Z</time>
      </trkpt>
      <trkpt lat="43.99154" lon="5.90614">
        <ele>515</ele>
        <time>2020-10-05T14:13:42.988Z</time>
      </trkpt>
      <trkpt lat="43.99154" lon="5.90614">
        <ele>515</ele>
        <time>2020-10-05T14:13:43.988Z</time>
      </trkpt>
      <trkpt lat="43.99155" lon="5.90613">
        <ele>515</ele>
        <time>2020-10-05T14:13:44.988Z</time>
      </trkpt>
      <trkpt lat="43.99155" lon="5.90613">
        <ele>516</ele>
        <time>2020-10-05T14:13:45.988Z</time>
      </trkpt>
      <trkpt lat="43.99156" lon="5.90612">
        <ele>516</ele>
        <time>2020-10-05T14:13:46.988Z</time>
      </trkpt>
      <trkpt lat="43.99156" lon="5.90612">
        <ele>516</ele>
        <time>2020-10-05T14:13:47.988Z</time>
      </trkpt>
      <trkpt lat="43.99156" lon="5.90612">
        <ele>516</ele>
        <time>2020-10-05T14:13:48.988Z</time>
      </trkpt>
      <trkpt lat="43.99156" lon="5.90612">
        <ele>516</ele>
        <time>2020-10-05T14:13:49.988Z</time>
      </trkpt>
      <trkpt lat="43.99156" lon="5.90611">
        <ele>516</ele>
        <time>2020-10-05T14:13:50.988Z</time>
      </trkpt>
      <trkpt lat="43.99156" lon="5.90611">
        <ele>516</ele>
        <time>2020-10-05T14:13:51.988Z</time>
      </trkpt>
      <trkpt lat="43.99156" lon="5.9061">
        <ele>516</ele>
        <time>2020-10-05T14:13:52.988Z</time>
      </trkpt>
      <trkpt lat="43.99156" lon="5.9061">
        <ele>516</ele>
        <time>2020-10-05T14:13:53.988Z</time>
      </trkpt>
      <trkpt lat="43.99156" lon="5.9061">
        <ele>516</ele>
        <time>2020-10-05T14:13:54.988Z</time>
      </trkpt>
      <trkpt lat="43.99156" lon="5.9061">
        <ele>516</ele>
        <time>2020-10-05T14:13:55.988Z</time>
      </trkpt>
      <trkpt lat="43.99156" lon="5.9061">
        <ele>516</ele>
        <time>2020-10-05T14:13:56.988Z</time>
      </trkpt>
      <trkpt lat="43.99156" lon="5.9061">
        <ele>516</ele>
        <time>2020-10-05T14:13:57.988Z</time>
      </trkpt>
      <trkpt lat="43.99156" lon="5.9061">
        <ele>516</ele>
        <time>2020-10-05T14:13:58.988Z</time>
      </trkpt>
      <trkpt lat="43.99156" lon="5.9061">
        <ele>516</ele>
        <time>2020-10-05T14:13:59.988Z</time>
      </trkpt>
      <trkpt lat="43.99157" lon="5.9061">
        <ele>516</ele>
        <time>2020-10-05T14:14:00.988Z</time>
      </trkpt>
      <trkpt lat="43.99157" lon="5.9061">
        <ele>517</ele>
        <time>2020-10-05T14:14:01.988Z</time>
      </trkpt>
      <trkpt lat="43.99157" lon="5.9061">
        <ele>517</ele>
        <time>2020-10-05T14:14:02.988Z</time>
      </trkpt>
      <trkpt lat="43.99157" lon="5.9061">
        <ele>517</ele>
        <time>2020-10-05T14:14:03.988Z</time>
      </trkpt>
      <trkpt lat="43.99157" lon="5.9061">
        <ele>517</ele>
        <time>2020-10-05T14:14:04.988Z</time>
      </trkpt>
      <trkpt lat="43.99157" lon="5.9061">
        <ele>517</ele>
        <time>2020-10-05T14:14:05.988Z</time>
      </trkpt>
      <trkpt lat="43.99157" lon="5.9061">
        <ele>517</ele>
        <time>2020-10-05T14:14:06.988Z</time>
      </trkpt>
      <trkpt lat="43.99157" lon="5.9061">
        <ele>517</ele>
        <time>2020-10-05T14:14:07.988Z</time>
      </trkpt>
      <trkpt lat="43.99157" lon="5.9061">
        <ele>517</ele>
        <time>2020-10-05T14:14:08.988Z</time>
      </trkpt>
      <trkpt lat="43.99158" lon="5.9061">
        <ele>517</ele>
        <time>2020-10-05T14:14:09.988Z</time>
      </trkpt>
      <trkpt lat="43.99159" lon="5.9061">
        <ele>517</ele>
        <time>2020-10-05T14:14:10.988Z</time>
      </trkpt>
      <trkpt lat="43.9916" lon="5.90609">
        <ele>517</ele>
        <time>2020-10-05T14:14:11.988Z</time>
      </trkpt>
      <trkpt lat="43.99161" lon="5.90609">
        <ele>517</ele>
        <time>2020-10-05T14:14:12.988Z</time>
      </trkpt>
      <trkpt lat="43.99161" lon="5.90609">
        <ele>517</ele>
        <time>2020-10-05T14:14:13.988Z</time>
      </trkpt>
      <trkpt lat="43.99162" lon="5.90608">
        <ele>517</ele>
        <time>2020-10-05T14:14:14.988Z</time>
      </trkpt>
      <trkpt lat="43.99163" lon="5.90607">
        <ele>517</ele>
        <time>2020-10-05T14:14:15.988Z</time>
      </trkpt>
      <trkpt lat="43.99164" lon="5.90606">
        <ele>517</ele>
        <time>2020-10-05T14:14:16.988Z</time>
      </trkpt>
      <trkpt lat="43.99164" lon="5.90606">
        <ele>517</ele>
        <time>2020-10-05T14:14:17.988Z</time>
      </trkpt>
      <trkpt lat="43.99165" lon="5.90605">
        <ele>517</ele>
        <time>2020-10-05T14:14:18.988Z</time>
      </trkpt>
      <trkpt lat="43.99166" lon="5.90604">
        <ele>517</ele>
        <time>2020-10-05T14:14:19.988Z</time>
      </trkpt>
      <trkpt lat="43.99167" lon="5.90603">
        <ele>517</ele>
        <time>2020-10-05T14:14:20.988Z</time>
      </trkpt>
      <trkpt lat="43.99168" lon="5.90602">
        <ele>518</ele>
        <time>2020-10-05T14:14:21.988Z</time>
      </trkpt>
      <trkpt lat="43.99169" lon="5.90601">
        <ele>518</ele>
        <time>2020-10-05T14:14:22.988Z</time>
      </trkpt>
      <trkpt lat="43.9917" lon="5.906">
        <ele>518</ele>
        <time>2020-10-05T14:14:23.988Z</time>
      </trkpt>
      <trkpt lat="43.9917" lon="5.90599">
        <ele>518</ele>
        <time>2020-10-05T14:14:24.988Z</time>
      </trkpt>
      <trkpt lat="43.99171" lon="5.90597">
        <ele>518</ele>
        <time>2020-10-05T14:14:25.988Z</time>
      </trkpt>
      <trkpt lat="43.99172" lon="5.90596">
        <ele>518</ele>
        <time>2020-10-05T14:14:26.988Z</time>
      </trkpt>
      <trkpt lat="43.99173" lon="5.90595">
        <ele>518</ele>
        <time>2020-10-05T14:14:27.988Z</time>
      </trkpt>
      <trkpt lat="43.99173" lon="5.90593">
        <ele>518</ele>
        <time>2020-10-05T14:14:28.988Z</time>
      </trkpt>
      <trkpt lat="43.99174" lon="5.90592">
        <ele>518</ele>
        <time>2020-10-05T14:14:29.988Z</time>
      </trkpt>
      <trkpt lat="43.99174" lon="5.9059">
        <ele>518</ele>
        <time>2020-10-05T14:14:30.988Z</time>
      </trkpt>
      <trkpt lat="43.99174" lon="5.90589">
        <ele>518</ele>
        <time>2020-10-05T14:14:31.988Z</time>
      </trkpt>
      <trkpt lat="43.99174" lon="5.90587">
        <ele>518</ele>
        <time>2020-10-05T14:14:32.988Z</time>
      </trkpt>
      <trkpt lat="43.99175" lon="5.90586">
        <ele>518</ele>
        <time>2020-10-05T14:14:33.988Z</time>
      </trkpt>
      <trkpt lat="43.99175" lon="5.90586">
        <ele>518</ele>
        <time>2020-10-05T14:14:34.988Z</time>
      </trkpt>
      <trkpt lat="43.99175" lon="5.90586">
        <ele>518</ele>
        <time>2020-10-05T14:14:35.988Z</time>
      </trkpt>
      <trkpt lat="43.99175" lon="5.90586">
        <ele>518</ele>
        <time>2020-10-05T14:14:36.988Z</time>
      </trkpt>
      <trkpt lat="43.99176" lon="5.90587">
        <ele>518</ele>
        <time>2020-10-05T14:14:37.988Z</time>
      </trkpt>
      <trkpt lat="43.99176" lon="5.90588">
        <ele>518</ele>
        <time>2020-10-05T14:14:38.988Z</time>
      </trkpt>
      <trkpt lat="43.99176" lon="5.90589">
        <ele>518</ele>
        <time>2020-10-05T14:14:39.988Z</time>
      </trkpt>
      <trkpt lat="43.99176" lon="5.9059">
        <ele>518</ele>
        <time>2020-10-05T14:14:40.988Z</time>
      </trkpt>
      <trkpt lat="43.99176" lon="5.90591">
        <ele>518</ele>
        <time>2020-10-05T14:14:41.988Z</time>
      </trkpt>
      <trkpt lat="43.99176" lon="5.90593">
        <ele>518</ele>
        <time>2020-10-05T14:14:42.988Z</time>
      </trkpt>
      <trkpt lat="43.99176" lon="5.90594">
        <ele>518</ele>
        <time>2020-10-05T14:14:43.988Z</time>
      </trkpt>
      <trkpt lat="43.99175" lon="5.90596">
        <ele>518</ele>
        <time>2020-10-05T14:14:44.988Z</time>
      </trkpt>
      <trkpt lat="43.99175" lon="5.90597">
        <ele>518</ele>
        <time>2020-10-05T14:14:45.988Z</time>
      </trkpt>
      <trkpt lat="43.99174" lon="5.90598">
        <ele>518</ele>
        <time>2020-10-05T14:14:46.988Z</time>
      </trkpt>
      <trkpt lat="43.99173" lon="5.90599">
        <ele>518</ele>
        <time>2020-10-05T14:14:47.988Z</time>
      </trkpt>
      <trkpt lat="43.99172" lon="5.90599">
        <ele>518</ele>
        <time>2020-10-05T14:14:48.988Z</time>
      </trkpt>
      <trkpt lat="43.99171" lon="5.906">
        <ele>518</ele>
        <time>2020-10-05T14:14:49.988Z</time>
      </trkpt>
      <trkpt lat="43.99171" lon="5.90602">
        <ele>518</ele>
        <time>2020-10-05T14:14:50.988Z</time>
      </trkpt>
      <trkpt lat="43.9917" lon="5.90603">
        <ele>518</ele>
        <time>2020-10-05T14:14:51.988Z</time>
      </trkpt>
      <trkpt lat="43.99169" lon="5.90604">
        <ele>518</ele>
        <time>2020-10-05T14:14:52.988Z</time>
      </trkpt>
      <trkpt lat="43.99169" lon="5.90604">
        <ele>518</ele>
        <time>2020-10-05T14:14:53.988Z</time>
      </trkpt>
      <trkpt lat="43.99169" lon="5.90604">
        <ele>518</ele>
        <time>2020-10-05T14:14:54.988Z</time>
      </trkpt>
      <trkpt lat="43.99168" lon="5.90605">
        <ele>517</ele>
        <time>2020-10-05T14:14:55.988Z</time>
      </trkpt>
      <trkpt lat="43.99168" lon="5.90605">
        <ele>517</ele>
        <time>2020-10-05T14:14:56.988Z</time>
      </trkpt>
      <trkpt lat="43.99167" lon="5.90605">
        <ele>517</ele>
        <time>2020-10-05T14:14:57.988Z</time>
      </trkpt>
      <trkpt lat="43.99167" lon="5.90606">
        <ele>518</ele>
        <time>2020-10-05T14:14:58.988Z</time>
      </trkpt>
      <trkpt lat="43.99166" lon="5.90607">
        <ele>518</ele>
        <time>2020-10-05T14:14:59.988Z</time>
      </trkpt>
      <trkpt lat="43.99165" lon="5.90607">
        <ele>518</ele>
        <time>2020-10-05T14:15:00.988Z</time>
      </trkpt>
      <trkpt lat="43.99163" lon="5.90607">
        <ele>518</ele>
        <time>2020-10-05T14:15:01.988Z</time>
      </trkpt>
      <trkpt lat="43.99162" lon="5.90608">
        <ele>518</ele>
        <time>2020-10-05T14:15:02.988Z</time>
      </trkpt>
      <trkpt lat="43.99161" lon="5.90608">
        <ele>518</ele>
        <time>2020-10-05T14:15:03.988Z</time>
      </trkpt>
      <trkpt lat="43.9916" lon="5.90609">
        <ele>518</ele>
        <time>2020-10-05T14:15:04.988Z</time>
      </trkpt>
      <trkpt lat="43.99159" lon="5.9061">
        <ele>518</ele>
        <time>2020-10-05T14:15:05.988Z</time>
      </trkpt>
      <trkpt lat="43.99158" lon="5.9061">
        <ele>518</ele>
        <time>2020-10-05T14:15:06.988Z</time>
      </trkpt>
      <trkpt lat="43.99157" lon="5.90611">
        <ele>519</ele>
        <time>2020-10-05T14:15:07.988Z</time>
      </trkpt>
      <trkpt lat="43.99156" lon="5.90612">
        <ele>519</ele>
        <time>2020-10-05T14:15:08.988Z</time>
      </trkpt>
      <trkpt lat="43.99155" lon="5.90612">
        <ele>519</ele>
        <time>2020-10-05T14:15:09.988Z</time>
      </trkpt>
      <trkpt lat="43.99153" lon="5.90613">
        <ele>519</ele>
        <time>2020-10-05T14:15:10.988Z</time>
      </trkpt>
      <trkpt lat="43.99152" lon="5.90614">
        <ele>519</ele>
        <time>2020-10-05T14:15:11.988Z</time>
      </trkpt>
      <trkpt lat="43.99151" lon="5.90615">
        <ele>519</ele>
        <time>2020-10-05T14:15:12.988Z</time>
      </trkpt>
      <trkpt lat="43.9915" lon="5.90616">
        <ele>519</ele>
        <time>2020-10-05T14:15:13.988Z</time>
      </trkpt>
      <trkpt lat="43.99149" lon="5.90617">
        <ele>519</ele>
        <time>2020-10-05T14:15:14.988Z</time>
      </trkpt>
      <trkpt lat="43.99148" lon="5.90618">
        <ele>519</ele>
        <time>2020-10-05T14:15:15.988Z</time>
      </trkpt>
      <trkpt lat="43.99147" lon="5.90619">
        <ele>519</ele>
        <time>2020-10-05T14:15:16.988Z</time>
      </trkpt>
      <trkpt lat="43.99146" lon="5.9062">
        <ele>519</ele>
        <time>2020-10-05T14:15:17.988Z</time>
      </trkpt>
      <trkpt lat="43.99145" lon="5.90622">
        <ele>519</ele>
        <time>2020-10-05T14:15:18.988Z</time>
      </trkpt>
      <trkpt lat="43.99144" lon="5.90623">
        <ele>519</ele>
        <time>2020-10-05T14:15:19.988Z</time>
      </trkpt>
      <trkpt lat="43.99143" lon="5.90624">
        <ele>519</ele>
        <time>2020-10-05T14:15:20.988Z</time>
      </trkpt>
      <trkpt lat="43.99142" lon="5.90626">
        <ele>519</ele>
        <time>2020-10-05T14:15:21.988Z</time>
      </trkpt>
      <trkpt lat="43.99141" lon="5.90627">
        <ele>519</ele>
        <time>2020-10-05T14:15:22.988Z</time>
      </trkpt>
      <trkpt lat="43.9914" lon="5.90629">
        <ele>519</ele>
        <time>2020-10-05T14:15:23.988Z</time>
      </trkpt>
      <trkpt lat="43.99139" lon="5.9063">
        <ele>519</ele>
        <time>2020-10-05T14:15:24.988Z</time>
      </trkpt>
      <trkpt lat="43.99138" lon="5.90631">
        <ele>519</ele>
        <time>2020-10-05T14:15:25.988Z</time>
      </trkpt>
      <trkpt lat="43.99137" lon="5.90632">
        <ele>519</ele>
        <time>2020-10-05T14:15:26.988Z</time>
      </trkpt>
      <trkpt lat="43.99136" lon="5.90634">
        <ele>519</ele>
        <time>2020-10-05T14:15:27.988Z</time>
      </trkpt>
      <trkpt lat="43.99135" lon="5.90635">
        <ele>519</ele>
        <time>2020-10-05T14:15:28.988Z</time>
      </trkpt>
      <trkpt lat="43.99134" lon="5.90636">
        <ele>519</ele>
        <time>2020-10-05T14:15:29.988Z</time>
      </trkpt>
      <trkpt lat="43.99134" lon="5.90637">
        <ele>519</ele>
        <time>2020-10-05T14:15:30.988Z</time>
      </trkpt>
      <trkpt lat="43.99133" lon="5.90637">
        <ele>519</ele>
        <time>2020-10-05T14:15:31.988Z</time>
      </trkpt>
      <trkpt lat="43.99133" lon="5.90637">
        <ele>519</ele>
        <time>2020-10-05T14:15:32.988Z</time>
      </trkpt>
      <trkpt lat="43.99133" lon="5.90637">
        <ele>519</ele>
        <time>2020-10-05T14:15:33.988Z</time>
      </trkpt>
      <trkpt lat="43.99133" lon="5.90638">
        <ele>519</ele>
        <time>2020-10-05T14:15:34.988Z</time>
      </trkpt>
      <trkpt lat="43.99133" lon="5.90638">
        <ele>519</ele>
        <time>2020-10-05T14:15:35.988Z</time>
      </trkpt>
      <trkpt lat="43.99133" lon="5.90638">
        <ele>519</ele>
        <time>2020-10-05T14:15:36.988Z</time>
      </trkpt>
      <trkpt lat="43.99133" lon="5.90638">
        <ele>519</ele>
        <time>2020-10-05T14:15:37.988Z</time>
      </trkpt>
      <trkpt lat="43.99133" lon="5.90638">
        <ele>519</ele>
        <time>2020-10-05T14:15:38.988Z</time>
      </trkpt>
      <trkpt lat="43.99133" lon="5.90638">
        <ele>519</ele>
        <time>2020-10-05T14:15:39.988Z</time>
      </trkpt>
      <trkpt lat="43.99133" lon="5.90638">
        <ele>519</ele>
        <time>2020-10-05T14:15:40.988Z</time>
      </trkpt>
      <trkpt lat="43.99133" lon="5.90638">
        <ele>519</ele>
        <time>2020-10-05T14:15:41.988Z</time>
      </trkpt>
      <trkpt lat="43.99133" lon="5.90638">
        <ele>519</ele>
        <time>2020-10-05T14:15:42.988Z</time>
      </trkpt>
      <trkpt lat="43.99133" lon="5.90639">
        <ele>519</ele>
        <time>2020-10-05T14:15:43.988Z</time>
      </trkpt>
      <trkpt lat="43.99133" lon="5.90639">
        <ele>519</ele>
        <time>2020-10-05T14:15:44.988Z</time>
      </trkpt>
      <trkpt lat="43.99132" lon="5.90639">
        <ele>519</ele>
        <time>2020-10-05T14:15:45.988Z</time>
      </trkpt>
      <trkpt lat="43.99132" lon="5.90639">
        <ele>519</ele>
        <time>2020-10-05T14:15:46.988Z</time>
      </trkpt>
      <trkpt lat="43.99132" lon="5.90639">
        <ele>519</ele>
        <time>2020-10-05T14:15:47.988Z</time>
      </trkpt>
      <trkpt lat="43.99132" lon="5.90639">
        <ele>519</ele>
        <time>2020-10-05T14:15:48.988Z</time>
      </trkpt>
      <trkpt lat="43.99132" lon="5.90639">
        <ele>519</ele>
        <time>2020-10-05T14:15:49.988Z</time>
      </trkpt>
      <trkpt lat="43.99132" lon="5.90639">
        <ele>519</ele>
        <time>2020-10-05T14:15:50.988Z</time>
      </trkpt>
      <trkpt lat="43.99132" lon="5.90639">
        <ele>519</ele>
        <time>2020-10-05T14:15:51.988Z</time>
      </trkpt>
      <trkpt lat="43.99132" lon="5.90639">
        <ele>519</ele>
        <time>2020-10-05T14:15:52.988Z</time>
      </trkpt>
      <trkpt lat="43.99133" lon="5.90639">
        <ele>519</ele>
        <time>2020-10-05T14:15:53.988Z</time>
      </trkpt>
      <trkpt lat="43.99133" lon="5.90639">
        <ele>519</ele>
        <time>2020-10-05T14:15:54.988Z</time>
      </trkpt>
      <trkpt lat="43.99132" lon="5.9064">
        <ele>519</ele>
        <time>2020-10-05T14:15:55.988Z</time>
      </trkpt>
      <trkpt lat="43.99132" lon="5.9064">
        <ele>519</ele>
        <time>2020-10-05T14:15:56.988Z</time>
      </trkpt>
      <trkpt lat="43.99132" lon="5.90641">
        <ele>519</ele>
        <time>2020-10-05T14:15:57.988Z</time>
      </trkpt>
      <trkpt lat="43.99132" lon="5.90641">
        <ele>519</ele>
        <time>2020-10-05T14:15:58.988Z</time>
      </trkpt>
      <trkpt lat="43.99132" lon="5.90641">
        <ele>519</ele>
        <time>2020-10-05T14:15:59.988Z</time>
      </trkpt>
      <trkpt lat="43.99131" lon="5.90641">
        <ele>519</ele>
        <time>2020-10-05T14:16:00.988Z</time>
      </trkpt>
      <trkpt lat="43.99131" lon="5.9064">
        <ele>519</ele>
        <time>2020-10-05T14:16:01.988Z</time>
      </trkpt>
      <trkpt lat="43.99131" lon="5.9064">
        <ele>519</ele>
        <time>2020-10-05T14:16:02.988Z</time>
      </trkpt>
      <trkpt lat="43.99131" lon="5.9064">
        <ele>519</ele>
        <time>2020-10-05T14:16:03.988Z</time>
      </trkpt>
      <trkpt lat="43.99131" lon="5.9064">
        <ele>519</ele>
        <time>2020-10-05T14:16:04.988Z</time>
      </trkpt>
      <trkpt lat="43.9913" lon="5.90639">
        <ele>519</ele>
        <time>2020-10-05T14:16:05.988Z</time>
      </trkpt>
      <trkpt lat="43.9913" lon="5.90639">
        <ele>519</ele>
        <time>2020-10-05T14:16:06.988Z</time>
      </trkpt>
      <trkpt lat="43.9913" lon="5.90639">
        <ele>519</ele>
        <time>2020-10-05T14:16:07.988Z</time>
      </trkpt>
      <trkpt lat="43.9913" lon="5.90639">
        <ele>519</ele>
        <time>2020-10-05T14:16:08.988Z</time>
      </trkpt>
      <trkpt lat="43.9913" lon="5.90638">
        <ele>519</ele>
        <time>2020-10-05T14:16:09.988Z</time>
      </trkpt>
      <trkpt lat="43.9913" lon="5.90638">
        <ele>519</ele>
        <time>2020-10-05T14:16:10.988Z</time>
      </trkpt>
      <trkpt lat="43.9913" lon="5.90638">
        <ele>519</ele>
        <time>2020-10-05T14:16:11.988Z</time>
      </trkpt>
      <trkpt lat="43.9913" lon="5.90638">
        <ele>518</ele>
        <time>2020-10-05T14:16:12.988Z</time>
      </trkpt>
      <trkpt lat="43.9913" lon="5.90637">
        <ele>518</ele>
        <time>2020-10-05T14:16:13.988Z</time>
      </trkpt>
      <trkpt lat="43.9913" lon="5.90637">
        <ele>518</ele>
        <time>2020-10-05T14:16:14.988Z</time>
      </trkpt>
      <trkpt lat="43.99129" lon="5.90637">
        <ele>518</ele>
        <time>2020-10-05T14:16:15.988Z</time>
      </trkpt>
      <trkpt lat="43.99129" lon="5.90637">
        <ele>518</ele>
        <time>2020-10-05T14:16:16.988Z</time>
      </trkpt>
      <trkpt lat="43.99129" lon="5.90637">
        <ele>518</ele>
        <time>2020-10-05T14:16:17.988Z</time>
      </trkpt>
      <trkpt lat="43.99128" lon="5.90638">
        <ele>517</ele>
        <time>2020-10-05T14:16:18.988Z</time>
      </trkpt>
      <trkpt lat="43.99128" lon="5.90638">
        <ele>517</ele>
        <time>2020-10-05T14:16:19.988Z</time>
      </trkpt>
      <trkpt lat="43.99127" lon="5.90638">
        <ele>517</ele>
        <time>2020-10-05T14:16:20.988Z</time>
      </trkpt>
      <trkpt lat="43.99127" lon="5.90638">
        <ele>517</ele>
        <time>2020-10-05T14:16:21.988Z</time>
      </trkpt>
      <trkpt lat="43.99126" lon="5.90637">
        <ele>517</ele>
        <time>2020-10-05T14:16:22.988Z</time>
      </trkpt>
      <trkpt lat="43.99126" lon="5.90636">
        <ele>517</ele>
        <time>2020-10-05T14:16:23.988Z</time>
      </trkpt>
      <trkpt lat="43.99126" lon="5.90636">
        <ele>516</ele>
        <time>2020-10-05T14:16:24.988Z</time>
      </trkpt>
      <trkpt lat="43.99126" lon="5.90635">
        <ele>516</ele>
        <time>2020-10-05T14:16:25.988Z</time>
      </trkpt>
      <trkpt lat="43.99126" lon="5.90634">
        <ele>516</ele>
        <time>2020-10-05T14:16:26.988Z</time>
      </trkpt>
      <trkpt lat="43.99126" lon="5.90633">
        <ele>516</ele>
        <time>2020-10-05T14:16:27.988Z</time>
      </trkpt>
      <trkpt lat="43.99126" lon="5.90632">
        <ele>516</ele>
        <time>2020-10-05T14:16:28.988Z</time>
      </trkpt>
      <trkpt lat="43.99127" lon="5.9063">
        <ele>516</ele>
        <time>2020-10-05T14:16:29.988Z</time>
      </trkpt>
      <trkpt lat="43.99127" lon="5.90629">
        <ele>516</ele>
        <time>2020-10-05T14:16:30.988Z</time>
      </trkpt>
      <trkpt lat="43.99128" lon="5.90628">
        <ele>515</ele>
        <time>2020-10-05T14:16:31.988Z</time>
      </trkpt>
      <trkpt lat="43.99129" lon="5.90628">
        <ele>515</ele>
        <time>2020-10-05T14:16:32.988Z</time>
      </trkpt>
      <trkpt lat="43.99129" lon="5.90627">
        <ele>515</ele>
        <time>2020-10-05T14:16:33.988Z</time>
      </trkpt>
      <trkpt lat="43.99129" lon="5.90625">
        <ele>515</ele>
        <time>2020-10-05T14:16:34.988Z</time>
      </trkpt>
      <trkpt lat="43.9913" lon="5.90625">
        <ele>515</ele>
        <time>2020-10-05T14:16:35.988Z</time>
      </trkpt>
      <trkpt lat="43.9913" lon="5.90624">
        <ele>515</ele>
        <time>2020-10-05T14:16:36.988Z</time>
      </trkpt>
      <trkpt lat="43.9913" lon="5.90623">
        <ele>514</ele>
        <time>2020-10-05T14:16:37.988Z</time>
      </trkpt>
      <trkpt lat="43.9913" lon="5.90622">
        <ele>514</ele>
        <time>2020-10-05T14:16:38.988Z</time>
      </trkpt>
      <trkpt lat="43.9913" lon="5.90621">
        <ele>514</ele>
        <time>2020-10-05T14:16:39.988Z</time>
      </trkpt>
      <trkpt lat="43.9913" lon="5.9062">
        <ele>514</ele>
        <time>2020-10-05T14:16:40.988Z</time>
      </trkpt>
      <trkpt lat="43.9913" lon="5.90618">
        <ele>514</ele>
        <time>2020-10-05T14:16:41.988Z</time>
      </trkpt>
      <trkpt lat="43.99129" lon="5.90617">
        <ele>514</ele>
        <time>2020-10-05T14:16:42.988Z</time>
      </trkpt>
      <trkpt lat="43.99129" lon="5.90617">
        <ele>513</ele>
        <time>2020-10-05T14:16:43.988Z</time>
      </trkpt>
      <trkpt lat="43.99129" lon="5.90616">
        <ele>513</ele>
        <time>2020-10-05T14:16:44.988Z</time>
      </trkpt>
      <trkpt lat="43.9913" lon="5.90615">
        <ele>513</ele>
        <time>2020-10-05T14:16:45.988Z</time>
      </trkpt>
      <trkpt lat="43.9913" lon="5.90614">
        <ele>513</ele>
        <time>2020-10-05T14:16:46.988Z</time>
      </trkpt>
      <trkpt lat="43.9913" lon="5.90614">
        <ele>513</ele>
        <time>2020-10-05T14:16:47.988Z</time>
      </trkpt>
      <trkpt lat="43.9913" lon="5.90613">
        <ele>513</ele>
        <time>2020-10-05T14:16:48.988Z</time>
      </trkpt>
      <trkpt lat="43.99131" lon="5.90612">
        <ele>513</ele>
        <time>2020-10-05T14:16:49.988Z</time>
      </trkpt>
      <trkpt lat="43.99131" lon="5.90611">
        <ele>513</ele>
        <time>2020-10-05T14:16:50.988Z</time>
      </trkpt>
      <trkpt lat="43.99132" lon="5.90611">
        <ele>513</ele>
        <time>2020-10-05T14:16:51.988Z</time>
      </trkpt>
      <trkpt lat="43.99132" lon="5.9061">
        <ele>513</ele>
        <time>2020-10-05T14:16:52.988Z</time>
      </trkpt>
      <trkpt lat="43.99133" lon="5.90609">
        <ele>513</ele>
        <time>2020-10-05T14:16:53.988Z</time>
      </trkpt>
      <trkpt lat="43.99134" lon="5.90608">
        <ele>513</ele>
        <time>2020-10-05T14:16:54.988Z</time>
      </trkpt>
      <trkpt lat="43.99135" lon="5.90607">
        <ele>512</ele>
        <time>2020-10-05T14:16:55.988Z</time>
      </trkpt>
      <trkpt lat="43.99136" lon="5.90607">
        <ele>512</ele>
        <time>2020-10-05T14:16:56.988Z</time>
      </trkpt>
      <trkpt lat="43.99137" lon="5.90606">
        <ele>512</ele>
        <time>2020-10-05T14:16:57.988Z</time>
      </trkpt>
      <trkpt lat="43.99138" lon="5.90605">
        <ele>512</ele>
        <time>2020-10-05T14:16:58.988Z</time>
      </trkpt>
      <trkpt lat="43.99138" lon="5.90603">
        <ele>512</ele>
        <time>2020-10-05T14:16:59.988Z</time>
      </trkpt>
      <trkpt lat="43.99139" lon="5.90602">
        <ele>512</ele>
        <time>2020-10-05T14:17:00.988Z</time>
      </trkpt>
      <trkpt lat="43.9914" lon="5.90601">
        <ele>512</ele>
        <time>2020-10-05T14:17:01.988Z</time>
      </trkpt>
      <trkpt lat="43.9914" lon="5.906">
        <ele>512</ele>
        <time>2020-10-05T14:17:02.988Z</time>
      </trkpt>
      <trkpt lat="43.99141" lon="5.906">
        <ele>512</ele>
        <time>2020-10-05T14:17:03.988Z</time>
      </trkpt>
      <trkpt lat="43.99142" lon="5.90599">
        <ele>512</ele>
        <time>2020-10-05T14:17:04.988Z</time>
      </trkpt>
      <trkpt lat="43.99142" lon="5.90598">
        <ele>512</ele>
        <time>2020-10-05T14:17:05.988Z</time>
      </trkpt>
      <trkpt lat="43.99143" lon="5.90597">
        <ele>512</ele>
        <time>2020-10-05T14:17:06.988Z</time>
      </trkpt>
      <trkpt lat="43.99144" lon="5.90596">
        <ele>512</ele>
        <time>2020-10-05T14:17:07.988Z</time>
      </trkpt>
      <trkpt lat="43.99145" lon="5.90595">
        <ele>512</ele>
        <time>2020-10-05T14:17:08.988Z</time>
      </trkpt>
      <trkpt lat="43.99146" lon="5.90594">
        <ele>512</ele>
        <time>2020-10-05T14:17:09.988Z</time>
      </trkpt>
      <trkpt lat="43.99147" lon="5.90593">
        <ele>512</ele>
        <time>2020-10-05T14:17:10.988Z</time>
      </trkpt>
      <trkpt lat="43.99148" lon="5.90592">
        <ele>512</ele>
        <time>2020-10-05T14:17:11.988Z</time>
      </trkpt>
      <trkpt lat="43.99149" lon="5.90591">
        <ele>512</ele>
        <time>2020-10-05T14:17:12.988Z</time>
      </trkpt>
      <trkpt lat="43.99149" lon="5.9059">
        <ele>512</ele>
        <time>2020-10-05T14:17:13.988Z</time>
      </trkpt>
      <trkpt lat="43.9915" lon="5.90588">
        <ele>512</ele>
        <time>2020-10-05T14:17:14.988Z</time>
      </trkpt>
      <trkpt lat="43.9915" lon="5.90587">
        <ele>512</ele>
        <time>2020-10-05T14:17:15.988Z</time>
      </trkpt>
      <trkpt lat="43.99151" lon="5.90586">
        <ele>512</ele>
        <time>2020-10-05T14:17:16.988Z</time>
      </trkpt>
      <trkpt lat="43.99152" lon="5.90585">
        <ele>512</ele>
        <time>2020-10-05T14:17:17.988Z</time>
      </trkpt>
      <trkpt lat="43.99153" lon="5.90584">
        <ele>512</ele>
        <time>2020-10-05T14:17:18.988Z</time>
      </trkpt>
      <trkpt lat="43.99154" lon="5.90583">
        <ele>512</ele>
        <time>2020-10-05T14:17:19.988Z</time>
      </trkpt>
      <trkpt lat="43.99154" lon="5.90582">
        <ele>512</ele>
        <time>2020-10-05T14:17:20.988Z</time>
      </trkpt>
      <trkpt lat="43.99155" lon="5.90581">
        <ele>512</ele>
        <time>2020-10-05T14:17:21.988Z</time>
      </trkpt>
      <trkpt lat="43.99155" lon="5.90579">
        <ele>512</ele>
        <time>2020-10-05T14:17:22.988Z</time>
      </trkpt>
      <trkpt lat="43.99155" lon="5.90578">
        <ele>512</ele>
        <time>2020-10-05T14:17:23.988Z</time>
      </trkpt>
      <trkpt lat="43.99154" lon="5.90577">
        <ele>512</ele>
        <time>2020-10-05T14:17:24.988Z</time>
      </trkpt>
      <trkpt lat="43.99154" lon="5.90576">
        <ele>512</ele>
        <time>2020-10-05T14:17:25.988Z</time>
      </trkpt>
      <trkpt lat="43.99153" lon="5.90575">
        <ele>512</ele>
        <time>2020-10-05T14:17:26.988Z</time>
      </trkpt>
      <trkpt lat="43.99152" lon="5.90575">
        <ele>512</ele>
        <time>2020-10-05T14:17:27.988Z</time>
      </trkpt>
      <trkpt lat="43.99151" lon="5.90575">
        <ele>512</ele>
        <time>2020-10-05T14:17:28.988Z</time>
      </trkpt>
      <trkpt lat="43.9915" lon="5.90574">
        <ele>512</ele>
        <time>2020-10-05T14:17:29.988Z</time>
      </trkpt>
      <trkpt lat="43.99148" lon="5.90573">
        <ele>512</ele>
        <time>2020-10-05T14:17:30.988Z</time>
      </trkpt>
      <trkpt lat="43.99147" lon="5.90572">
        <ele>512</ele>
        <time>2020-10-05T14:17:31.988Z</time>
      </trkpt>
      <trkpt lat="43.99146" lon="5.90571">
        <ele>512</ele>
        <time>2020-10-05T14:17:32.988Z</time>
      </trkpt>
      <trkpt lat="43.99145" lon="5.9057">
        <ele>512</ele>
        <time>2020-10-05T14:17:33.988Z</time>
      </trkpt>
      <trkpt lat="43.99144" lon="5.9057">
        <ele>512</ele>
        <time>2020-10-05T14:17:34.988Z</time>
      </trkpt>
      <trkpt lat="43.99143" lon="5.90569">
        <ele>511</ele>
        <time>2020-10-05T14:17:35.988Z</time>
      </trkpt>
      <trkpt lat="43.99143" lon="5.90568">
        <ele>511</ele>
        <time>2020-10-05T14:17:36.988Z</time>
      </trkpt>
      <trkpt lat="43.99142" lon="5.90567">
        <ele>511</ele>
        <time>2020-10-05T14:17:37.988Z</time>
      </trkpt>
      <trkpt lat="43.99141" lon="5.90566">
        <ele>511</ele>
        <time>2020-10-05T14:17:38.988Z</time>
      </trkpt>
      <trkpt lat="43.99141" lon="5.90565">
        <ele>511</ele>
        <time>2020-10-05T14:17:39.988Z</time>
      </trkpt>
      <trkpt lat="43.9914" lon="5.90564">
        <ele>511</ele>
        <time>2020-10-05T14:17:40.988Z</time>
      </trkpt>
      <trkpt lat="43.99139" lon="5.90563">
        <ele>511</ele>
        <time>2020-10-05T14:17:41.988Z</time>
      </trkpt>
      <trkpt lat="43.99139" lon="5.90562">
        <ele>511</ele>
        <time>2020-10-05T14:17:42.988Z</time>
      </trkpt>
      <trkpt lat="43.99138" lon="5.9056">
        <ele>510</ele>
        <time>2020-10-05T14:17:43.988Z</time>
      </trkpt>
      <trkpt lat="43.99138" lon="5.90559">
        <ele>510</ele>
        <time>2020-10-05T14:17:44.988Z</time>
      </trkpt>
      <trkpt lat="43.99138" lon="5.90557">
        <ele>510</ele>
        <time>2020-10-05T14:17:45.988Z</time>
      </trkpt>
      <trkpt lat="43.99138" lon="5.90556">
        <ele>510</ele>
        <time>2020-10-05T14:17:46.988Z</time>
      </trkpt>
      <trkpt lat="43.99138" lon="5.90554">
        <ele>510</ele>
        <time>2020-10-05T14:17:47.988Z</time>
      </trkpt>
      <trkpt lat="43.99137" lon="5.90553">
        <ele>510</ele>
        <time>2020-10-05T14:17:48.988Z</time>
      </trkpt>
      <trkpt lat="43.99137" lon="5.90551">
        <ele>509</ele>
        <time>2020-10-05T14:17:49.988Z</time>
      </trkpt>
      <trkpt lat="43.99137" lon="5.9055">
        <ele>509</ele>
        <time>2020-10-05T14:17:50.988Z</time>
      </trkpt>
      <trkpt lat="43.99137" lon="5.90548">
        <ele>509</ele>
        <time>2020-10-05T14:17:51.988Z</time>
      </trkpt>
      <trkpt lat="43.99137" lon="5.90547">
        <ele>509</ele>
        <time>2020-10-05T14:17:52.988Z</time>
      </trkpt>
      <trkpt lat="43.99136" lon="5.90545">
        <ele>509</ele>
        <time>2020-10-05T14:17:53.988Z</time>
      </trkpt>
      <trkpt lat="43.99136" lon="5.90544">
        <ele>509</ele>
        <time>2020-10-05T14:17:54.988Z</time>
      </trkpt>
      <trkpt lat="43.99136" lon="5.90542">
        <ele>509</ele>
        <time>2020-10-05T14:17:55.988Z</time>
      </trkpt>
      <trkpt lat="43.99135" lon="5.90541">
        <ele>509</ele>
        <time>2020-10-05T14:17:56.988Z</time>
      </trkpt>
      <trkpt lat="43.99135" lon="5.9054">
        <ele>508</ele>
        <time>2020-10-05T14:17:57.988Z</time>
      </trkpt>
      <trkpt lat="43.99135" lon="5.90539">
        <ele>508</ele>
        <time>2020-10-05T14:17:58.988Z</time>
      </trkpt>
      <trkpt lat="43.99134" lon="5.90539">
        <ele>508</ele>
        <time>2020-10-05T14:17:59.988Z</time>
      </trkpt>
      <trkpt lat="43.99134" lon="5.90539">
        <ele>508</ele>
        <time>2020-10-05T14:18:00.988Z</time>
      </trkpt>
      <trkpt lat="43.99133" lon="5.90539">
        <ele>508</ele>
        <time>2020-10-05T14:18:01.988Z</time>
      </trkpt>
      <trkpt lat="43.99133" lon="5.9054">
        <ele>507</ele>
        <time>2020-10-05T14:18:02.988Z</time>
      </trkpt>
      <trkpt lat="43.99132" lon="5.9054">
        <ele>507</ele>
        <time>2020-10-05T14:18:03.988Z</time>
      </trkpt>
      <trkpt lat="43.99131" lon="5.9054">
        <ele>507</ele>
        <time>2020-10-05T14:18:04.988Z</time>
      </trkpt>
      <trkpt lat="43.99131" lon="5.9054">
        <ele>507</ele>
        <time>2020-10-05T14:18:05.988Z</time>
      </trkpt>
      <trkpt lat="43.9913" lon="5.9054">
        <ele>507</ele>
        <time>2020-10-05T14:18:06.988Z</time>
      </trkpt>
      <trkpt lat="43.99129" lon="5.90539">
        <ele>507</ele>
        <time>2020-10-05T14:18:07.988Z</time>
      </trkpt>
      <trkpt lat="43.99128" lon="5.90538">
        <ele>507</ele>
        <time>2020-10-05T14:18:08.988Z</time>
      </trkpt>
      <trkpt lat="43.99127" lon="5.90537">
        <ele>507</ele>
        <time>2020-10-05T14:18:09.988Z</time>
      </trkpt>
      <trkpt lat="43.99127" lon="5.90536">
        <ele>506</ele>
        <time>2020-10-05T14:18:10.988Z</time>
      </trkpt>
      <trkpt lat="43.99126" lon="5.90534">
        <ele>506</ele>
        <time>2020-10-05T14:18:11.988Z</time>
      </trkpt>
      <trkpt lat="43.99126" lon="5.90533">
        <ele>506</ele>
        <time>2020-10-05T14:18:12.988Z</time>
      </trkpt>
      <trkpt lat="43.99126" lon="5.90532">
        <ele>506</ele>
        <time>2020-10-05T14:18:13.988Z</time>
      </trkpt>
      <trkpt lat="43.99126" lon="5.9053">
        <ele>505</ele>
        <time>2020-10-05T14:18:14.988Z</time>
      </trkpt>
      <trkpt lat="43.99126" lon="5.90529">
        <ele>505</ele>
        <time>2020-10-05T14:18:15.988Z</time>
      </trkpt>
      <trkpt lat="43.99126" lon="5.90527">
        <ele>505</ele>
        <time>2020-10-05T14:18:16.988Z</time>
      </trkpt>
      <trkpt lat="43.99126" lon="5.90526">
        <ele>505</ele>
        <time>2020-10-05T14:18:17.988Z</time>
      </trkpt>
      <trkpt lat="43.99126" lon="5.90525">
        <ele>505</ele>
        <time>2020-10-05T14:18:18.988Z</time>
      </trkpt>
      <trkpt lat="43.99126" lon="5.90523">
        <ele>504</ele>
        <time>2020-10-05T14:18:19.988Z</time>
      </trkpt>
      <trkpt lat="43.99125" lon="5.90522">
        <ele>504</ele>
        <time>2020-10-05T14:18:20.988Z</time>
      </trkpt>
      <trkpt lat="43.99125" lon="5.9052">
        <ele>504</ele>
        <time>2020-10-05T14:18:21.988Z</time>
      </trkpt>
      <trkpt lat="43.99125" lon="5.90518">
        <ele>504</ele>
        <time>2020-10-05T14:18:22.988Z</time>
      </trkpt>
      <trkpt lat="43.99124" lon="5.90516">
        <ele>504</ele>
        <time>2020-10-05T14:18:23.988Z</time>
      </trkpt>
      <trkpt lat="43.99123" lon="5.90515">
        <ele>503</ele>
        <time>2020-10-05T14:18:24.988Z</time>
      </trkpt>
      <trkpt lat="43.99123" lon="5.90514">
        <ele>503</ele>
        <time>2020-10-05T14:18:25.988Z</time>
      </trkpt>
      <trkpt lat="43.99122" lon="5.90512">
        <ele>503</ele>
        <time>2020-10-05T14:18:26.988Z</time>
      </trkpt>
      <trkpt lat="43.99122" lon="5.90511">
        <ele>502</ele>
        <time>2020-10-05T14:18:27.988Z</time>
      </trkpt>
      <trkpt lat="43.99121" lon="5.90509">
        <ele>502</ele>
        <time>2020-10-05T14:18:28.988Z</time>
      </trkpt>
      <trkpt lat="43.99121" lon="5.90508">
        <ele>502</ele>
        <time>2020-10-05T14:18:29.988Z</time>
      </trkpt>
      <trkpt lat="43.99121" lon="5.90507">
        <ele>501</ele>
        <time>2020-10-05T14:18:30.988Z</time>
      </trkpt>
      <trkpt lat="43.9912" lon="5.90506">
        <ele>501</ele>
        <time>2020-10-05T14:18:31.988Z</time>
      </trkpt>
      <trkpt lat="43.9912" lon="5.90504">
        <ele>501</ele>
        <time>2020-10-05T14:18:32.988Z</time>
      </trkpt>
      <trkpt lat="43.9912" lon="5.90503">
        <ele>500</ele>
        <time>2020-10-05T14:18:33.988Z</time>
      </trkpt>
      <trkpt lat="43.99119" lon="5.90502">
        <ele>500</ele>
        <time>2020-10-05T14:18:34.988Z</time>
      </trkpt>
      <trkpt lat="43.99119" lon="5.90501">
        <ele>500</ele>
        <time>2020-10-05T14:18:35.988Z</time>
      </trkpt>
      <trkpt lat="43.99119" lon="5.905">
        <ele>499</ele>
        <time>2020-10-05T14:18:36.988Z</time>
      </trkpt>
      <trkpt lat="43.99118" lon="5.90498">
        <ele>499</ele>
        <time>2020-10-05T14:18:37.988Z</time>
      </trkpt>
      <trkpt lat="43.99118" lon="5.90496">
        <ele>499</ele>
        <time>2020-10-05T14:18:38.988Z</time>
      </trkpt>
      <trkpt lat="43.99118" lon="5.90495">
        <ele>499</ele>
        <time>2020-10-05T14:18:39.988Z</time>
      </trkpt>
      <trkpt lat="43.99117" lon="5.90494">
        <ele>499</ele>
        <time>2020-10-05T14:18:40.988Z</time>
      </trkpt>
      <trkpt lat="43.99117" lon="5.90492">
        <ele>499</ele>
        <time>2020-10-05T14:18:41.988Z</time>
      </trkpt>
      <trkpt lat="43.99117" lon="5.90491">
        <ele>499</ele>
        <time>2020-10-05T14:18:42.988Z</time>
      </trkpt>
      <trkpt lat="43.99116" lon="5.9049">
        <ele>498</ele>
        <time>2020-10-05T14:18:43.988Z</time>
      </trkpt>
      <trkpt lat="43.99116" lon="5.90489">
        <ele>498</ele>
        <time>2020-10-05T14:18:44.988Z</time>
      </trkpt>
      <trkpt lat="43.99116" lon="5.90487">
        <ele>498</ele>
        <time>2020-10-05T14:18:45.988Z</time>
      </trkpt>
      <trkpt lat="43.99116" lon="5.90486">
        <ele>498</ele>
        <time>2020-10-05T14:18:46.988Z</time>
      </trkpt>
      <trkpt lat="43.99115" lon="5.90484">
        <ele>498</ele>
        <time>2020-10-05T14:18:47.988Z</time>
      </trkpt>
      <trkpt lat="43.99115" lon="5.90483">
        <ele>497</ele>
        <time>2020-10-05T14:18:48.988Z</time>
      </trkpt>
      <trkpt lat="43.99115" lon="5.90482">
        <ele>497</ele>
        <time>2020-10-05T14:18:49.988Z</time>
      </trkpt>
      <trkpt lat="43.99114" lon="5.9048">
        <ele>497</ele>
        <time>2020-10-05T14:18:50.988Z</time>
      </trkpt>
      <trkpt lat="43.99114" lon="5.90478">
        <ele>497</ele>
        <time>2020-10-05T14:18:51.988Z</time>
      </trkpt>
      <trkpt lat="43.99113" lon="5.90477">
        <ele>496</ele>
        <time>2020-10-05T14:18:52.988Z</time>
      </trkpt>
      <trkpt lat="43.99113" lon="5.90476">
        <ele>496</ele>
        <time>2020-10-05T14:18:53.988Z</time>
      </trkpt>
      <trkpt lat="43.99113" lon="5.90475">
        <ele>496</ele>
        <time>2020-10-05T14:18:54.988Z</time>
      </trkpt>
      <trkpt lat="43.99113" lon="5.90475">
        <ele>496</ele>
        <time>2020-10-05T14:18:55.988Z</time>
      </trkpt>
      <trkpt lat="43.99113" lon="5.90474">
        <ele>496</ele>
        <time>2020-10-05T14:18:56.988Z</time>
      </trkpt>
      <trkpt lat="43.99113" lon="5.90473">
        <ele>495</ele>
        <time>2020-10-05T14:18:57.988Z</time>
      </trkpt>
      <trkpt lat="43.99113" lon="5.90472">
        <ele>495</ele>
        <time>2020-10-05T14:18:58.988Z</time>
      </trkpt>
      <trkpt lat="43.99113" lon="5.90471">
        <ele>495</ele>
        <time>2020-10-05T14:18:59.988Z</time>
      </trkpt>
      <trkpt lat="43.99114" lon="5.90469">
        <ele>495</ele>
        <time>2020-10-05T14:19:00.988Z</time>
      </trkpt>
      <trkpt lat="43.99115" lon="5.90468">
        <ele>495</ele>
        <time>2020-10-05T14:19:01.988Z</time>
      </trkpt>
      <trkpt lat="43.99115" lon="5.90466">
        <ele>495</ele>
        <time>2020-10-05T14:19:02.988Z</time>
      </trkpt>
      <trkpt lat="43.99115" lon="5.90465">
        <ele>495</ele>
        <time>2020-10-05T14:19:03.988Z</time>
      </trkpt>
      <trkpt lat="43.99116" lon="5.90464">
        <ele>495</ele>
        <time>2020-10-05T14:19:04.988Z</time>
      </trkpt>
      <trkpt lat="43.99116" lon="5.90463">
        <ele>494</ele>
        <time>2020-10-05T14:19:05.988Z</time>
      </trkpt>
      <trkpt lat="43.99117" lon="5.90463">
        <ele>494</ele>
        <time>2020-10-05T14:19:06.988Z</time>
      </trkpt>
      <trkpt lat="43.99117" lon="5.90462">
        <ele>494</ele>
        <time>2020-10-05T14:19:07.988Z</time>
      </trkpt>
      <trkpt lat="43.99117" lon="5.90461">
        <ele>494</ele>
        <time>2020-10-05T14:19:08.988Z</time>
      </trkpt>
      <trkpt lat="43.99117" lon="5.9046">
        <ele>494</ele>
        <time>2020-10-05T14:19:09.988Z</time>
      </trkpt>
      <trkpt lat="43.99117" lon="5.90459">
        <ele>494</ele>
        <time>2020-10-05T14:19:10.988Z</time>
      </trkpt>
      <trkpt lat="43.99118" lon="5.90458">
        <ele>494</ele>
        <time>2020-10-05T14:19:11.988Z</time>
      </trkpt>
      <trkpt lat="43.99118" lon="5.90458">
        <ele>494</ele>
        <time>2020-10-05T14:19:12.988Z</time>
      </trkpt>
      <trkpt lat="43.99118" lon="5.90457">
        <ele>493</ele>
        <time>2020-10-05T14:19:13.988Z</time>
      </trkpt>
      <trkpt lat="43.99118" lon="5.90456">
        <ele>493</ele>
        <time>2020-10-05T14:19:14.988Z</time>
      </trkpt>
      <trkpt lat="43.99119" lon="5.90455">
        <ele>493</ele>
        <time>2020-10-05T14:19:15.988Z</time>
      </trkpt>
      <trkpt lat="43.99119" lon="5.90454">
        <ele>493</ele>
        <time>2020-10-05T14:19:16.988Z</time>
      </trkpt>
      <trkpt lat="43.99119" lon="5.90453">
        <ele>493</ele>
        <time>2020-10-05T14:19:17.988Z</time>
      </trkpt>
      <trkpt lat="43.99119" lon="5.90452">
        <ele>493</ele>
        <time>2020-10-05T14:19:18.988Z</time>
      </trkpt>
      <trkpt lat="43.9912" lon="5.90452">
        <ele>493</ele>
        <time>2020-10-05T14:19:19.988Z</time>
      </trkpt>
      <trkpt lat="43.9912" lon="5.90452">
        <ele>493</ele>
        <time>2020-10-05T14:19:20.988Z</time>
      </trkpt>
      <trkpt lat="43.99121" lon="5.90452">
        <ele>493</ele>
        <time>2020-10-05T14:19:21.988Z</time>
      </trkpt>
      <trkpt lat="43.99121" lon="5.90452">
        <ele>493</ele>
        <time>2020-10-05T14:19:22.988Z</time>
      </trkpt>
      <trkpt lat="43.99122" lon="5.90451">
        <ele>493</ele>
        <time>2020-10-05T14:19:23.988Z</time>
      </trkpt>
      <trkpt lat="43.99123" lon="5.9045">
        <ele>493</ele>
        <time>2020-10-05T14:19:24.988Z</time>
      </trkpt>
      <trkpt lat="43.99123" lon="5.90449">
        <ele>493</ele>
        <time>2020-10-05T14:19:25.988Z</time>
      </trkpt>
      <trkpt lat="43.99124" lon="5.90448">
        <ele>493</ele>
        <time>2020-10-05T14:19:26.988Z</time>
      </trkpt>
      <trkpt lat="43.99125" lon="5.90447">
        <ele>494</ele>
        <time>2020-10-05T14:19:27.988Z</time>
      </trkpt>
      <trkpt lat="43.99125" lon="5.90447">
        <ele>494</ele>
        <time>2020-10-05T14:19:28.988Z</time>
      </trkpt>
      <trkpt lat="43.99126" lon="5.90446">
        <ele>494</ele>
        <time>2020-10-05T14:19:29.988Z</time>
      </trkpt>
      <trkpt lat="43.99127" lon="5.90445">
        <ele>494</ele>
        <time>2020-10-05T14:19:30.988Z</time>
      </trkpt>
      <trkpt lat="43.99128" lon="5.90444">
        <ele>494</ele>
        <time>2020-10-05T14:19:31.988Z</time>
      </trkpt>
      <trkpt lat="43.99129" lon="5.90443">
        <ele>494</ele>
        <time>2020-10-05T14:19:32.988Z</time>
      </trkpt>
      <trkpt lat="43.99129" lon="5.90442">
        <ele>494</ele>
        <time>2020-10-05T14:19:33.988Z</time>
      </trkpt>
      <trkpt lat="43.9913" lon="5.90442">
        <ele>494</ele>
        <time>2020-10-05T14:19:34.988Z</time>
      </trkpt>
      <trkpt lat="43.9913" lon="5.90442">
        <ele>494</ele>
        <time>2020-10-05T14:19:35.988Z</time>
      </trkpt>
      <trkpt lat="43.99131" lon="5.90441">
        <ele>494</ele>
        <time>2020-10-05T14:19:36.988Z</time>
      </trkpt>
      <trkpt lat="43.99131" lon="5.9044">
        <ele>494</ele>
        <time>2020-10-05T14:19:37.988Z</time>
      </trkpt>
      <trkpt lat="43.99132" lon="5.9044">
        <ele>494</ele>
        <time>2020-10-05T14:19:38.988Z</time>
      </trkpt>
      <trkpt lat="43.99132" lon="5.90439">
        <ele>494</ele>
        <time>2020-10-05T14:19:39.988Z</time>
      </trkpt>
      <trkpt lat="43.99133" lon="5.90439">
        <ele>494</ele>
        <time>2020-10-05T14:19:40.988Z</time>
      </trkpt>
      <trkpt lat="43.99133" lon="5.90438">
        <ele>494</ele>
        <time>2020-10-05T14:19:41.988Z</time>
      </trkpt>
      <trkpt lat="43.99134" lon="5.90438">
        <ele>495</ele>
        <time>2020-10-05T14:19:42.988Z</time>
      </trkpt>
      <trkpt lat="43.99135" lon="5.90437">
        <ele>495</ele>
        <time>2020-10-05T14:19:43.988Z</time>
      </trkpt>
      <trkpt lat="43.99135" lon="5.90437">
        <ele>495</ele>
        <time>2020-10-05T14:19:44.988Z</time>
      </trkpt>
      <trkpt lat="43.99136" lon="5.90437">
        <ele>495</ele>
        <time>2020-10-05T14:19:45.988Z</time>
      </trkpt>
      <trkpt lat="43.99136" lon="5.90437">
        <ele>495</ele>
        <time>2020-10-05T14:19:46.988Z</time>
      </trkpt>
      <trkpt lat="43.99137" lon="5.90437">
        <ele>495</ele>
        <time>2020-10-05T14:19:47.988Z</time>
      </trkpt>
      <trkpt lat="43.99137" lon="5.90437">
        <ele>495</ele>
        <time>2020-10-05T14:19:48.988Z</time>
      </trkpt>
      <trkpt lat="43.99137" lon="5.90437">
        <ele>495</ele>
        <time>2020-10-05T14:19:49.988Z</time>
      </trkpt>
      <trkpt lat="43.99138" lon="5.90437">
        <ele>495</ele>
        <time>2020-10-05T14:19:50.988Z</time>
      </trkpt>
      <trkpt lat="43.99138" lon="5.90436">
        <ele>495</ele>
        <time>2020-10-05T14:19:51.988Z</time>
      </trkpt>
      <trkpt lat="43.99139" lon="5.90436">
        <ele>495</ele>
        <time>2020-10-05T14:19:52.988Z</time>
      </trkpt>
      <trkpt lat="43.9914" lon="5.90436">
        <ele>495</ele>
        <time>2020-10-05T14:19:53.988Z</time>
      </trkpt>
      <trkpt lat="43.9914" lon="5.90435">
        <ele>495</ele>
        <time>2020-10-05T14:19:54.988Z</time>
      </trkpt>
      <trkpt lat="43.9914" lon="5.90435">
        <ele>495</ele>
        <time>2020-10-05T14:19:55.988Z</time>
      </trkpt>
      <trkpt lat="43.9914" lon="5.90435">
        <ele>495</ele>
        <time>2020-10-05T14:19:56.988Z</time>
      </trkpt>
      <trkpt lat="43.99141" lon="5.90435">
        <ele>495</ele>
        <time>2020-10-05T14:19:57.988Z</time>
      </trkpt>
      <trkpt lat="43.99141" lon="5.90435">
        <ele>495</ele>
        <time>2020-10-05T14:19:58.988Z</time>
      </trkpt>
      <trkpt lat="43.99141" lon="5.90435">
        <ele>495</ele>
        <time>2020-10-05T14:19:59.988Z</time>
      </trkpt>
      <trkpt lat="43.99141" lon="5.90435">
        <ele>494</ele>
        <time>2020-10-05T14:20:00.988Z</time>
      </trkpt>
      <trkpt lat="43.99141" lon="5.90434">
        <ele>494</ele>
        <time>2020-10-05T14:20:01.988Z</time>
      </trkpt>
      <trkpt lat="43.99142" lon="5.90433">
        <ele>494</ele>
        <time>2020-10-05T14:20:02.988Z</time>
      </trkpt>
      <trkpt lat="43.99142" lon="5.90433">
        <ele>494</ele>
        <time>2020-10-05T14:20:03.988Z</time>
      </trkpt>
      <trkpt lat="43.99142" lon="5.90432">
        <ele>494</ele>
        <time>2020-10-05T14:20:04.988Z</time>
      </trkpt>
      <trkpt lat="43.99143" lon="5.90432">
        <ele>494</ele>
        <time>2020-10-05T14:20:05.988Z</time>
      </trkpt>
      <trkpt lat="43.99144" lon="5.90431">
        <ele>494</ele>
        <time>2020-10-05T14:20:06.988Z</time>
      </trkpt>
      <trkpt lat="43.99144" lon="5.9043">
        <ele>494</ele>
        <time>2020-10-05T14:20:07.988Z</time>
      </trkpt>
      <trkpt lat="43.99145" lon="5.90429">
        <ele>494</ele>
        <time>2020-10-05T14:20:08.988Z</time>
      </trkpt>
      <trkpt lat="43.99146" lon="5.90429">
        <ele>494</ele>
        <time>2020-10-05T14:20:09.988Z</time>
      </trkpt>
      <trkpt lat="43.99147" lon="5.90428">
        <ele>494</ele>
        <time>2020-10-05T14:20:10.988Z</time>
      </trkpt>
      <trkpt lat="43.99147" lon="5.90428">
        <ele>494</ele>
        <time>2020-10-05T14:20:11.988Z</time>
      </trkpt>
      <trkpt lat="43.99148" lon="5.90427">
        <ele>494</ele>
        <time>2020-10-05T14:20:12.988Z</time>
      </trkpt>
      <trkpt lat="43.99149" lon="5.90427">
        <ele>494</ele>
        <time>2020-10-05T14:20:13.988Z</time>
      </trkpt>
      <trkpt lat="43.99149" lon="5.90427">
        <ele>494</ele>
        <time>2020-10-05T14:20:14.988Z</time>
      </trkpt>
      <trkpt lat="43.99149" lon="5.90427">
        <ele>494</ele>
        <time>2020-10-05T14:20:15.988Z</time>
      </trkpt>
      <trkpt lat="43.99149" lon="5.90427">
        <ele>494</ele>
        <time>2020-10-05T14:20:16.988Z</time>
      </trkpt>
      <trkpt lat="43.99148" lon="5.90427">
        <ele>494</ele>
        <time>2020-10-05T14:20:17.988Z</time>
      </trkpt>
      <trkpt lat="43.99149" lon="5.90427">
        <ele>494</ele>
        <time>2020-10-05T14:20:18.988Z</time>
      </trkpt>
      <trkpt lat="43.99149" lon="5.90426">
        <ele>494</ele>
        <time>2020-10-05T14:20:19.988Z</time>
      </trkpt>
      <trkpt lat="43.99149" lon="5.90426">
        <ele>494</ele>
        <time>2020-10-05T14:20:20.988Z</time>
      </trkpt>
      <trkpt lat="43.99149" lon="5.90426">
        <ele>494</ele>
        <time>2020-10-05T14:20:21.988Z</time>
      </trkpt>
      <trkpt lat="43.99149" lon="5.90426">
        <ele>494</ele>
        <time>2020-10-05T14:20:22.988Z</time>
      </trkpt>
      <trkpt lat="43.99149" lon="5.90426">
        <ele>494</ele>
        <time>2020-10-05T14:20:23.988Z</time>
      </trkpt>
      <trkpt lat="43.99149" lon="5.90426">
        <ele>494</ele>
        <time>2020-10-05T14:20:24.988Z</time>
      </trkpt>
      <trkpt lat="43.99149" lon="5.90426">
        <ele>494</ele>
        <time>2020-10-05T14:20:25.988Z</time>
      </trkpt>
      <trkpt lat="43.99149" lon="5.90426">
        <ele>494</ele>
        <time>2020-10-05T14:20:26.988Z</time>
      </trkpt>
      <trkpt lat="43.99149" lon="5.90426">
        <ele>494</ele>
        <time>2020-10-05T14:20:27.988Z</time>
      </trkpt>
      <trkpt lat="43.99149" lon="5.90426">
        <ele>495</ele>
        <time>2020-10-05T14:20:28.988Z</time>
      </trkpt>
      <trkpt lat="43.99149" lon="5.90426">
        <ele>495</ele>
        <time>2020-10-05T14:20:29.988Z</time>
      </trkpt>
      <trkpt lat="43.9915" lon="5.90426">
        <ele>495</ele>
        <time>2020-10-05T14:20:30.988Z</time>
      </trkpt>
      <trkpt lat="43.9915" lon="5.90426">
        <ele>495</ele>
        <time>2020-10-05T14:20:31.988Z</time>
      </trkpt>
      <trkpt lat="43.99151" lon="5.90426">
        <ele>495</ele>
        <time>2020-10-05T14:20:32.988Z</time>
      </trkpt>
      <trkpt lat="43.99151" lon="5.90426">
        <ele>495</ele>
        <time>2020-10-05T14:20:33.988Z</time>
      </trkpt>
      <trkpt lat="43.99151" lon="5.90426">
        <ele>495</ele>
        <time>2020-10-05T14:20:34.988Z</time>
      </trkpt>
      <trkpt lat="43.99151" lon="5.90425">
        <ele>495</ele>
        <time>2020-10-05T14:20:35.988Z</time>
      </trkpt>
      <trkpt lat="43.99151" lon="5.90425">
        <ele>495</ele>
        <time>2020-10-05T14:20:36.988Z</time>
      </trkpt>
      <trkpt lat="43.99151" lon="5.90425">
        <ele>495</ele>
        <time>2020-10-05T14:20:37.988Z</time>
      </trkpt>
      <trkpt lat="43.99151" lon="5.90425">
        <ele>495</ele>
        <time>2020-10-05T14:20:38.988Z</time>
      </trkpt>
      <trkpt lat="43.99151" lon="5.90425">
        <ele>495</ele>
        <time>2020-10-05T14:20:39.988Z</time>
      </trkpt>
      <trkpt lat="43.9915" lon="5.90425">
        <ele>496</ele>
        <time>2020-10-05T14:20:40.988Z</time>
      </trkpt>
      <trkpt lat="43.9915" lon="5.90425">
        <ele>496</ele>
        <time>2020-10-05T14:20:41.988Z</time>
      </trkpt>
      <trkpt lat="43.9915" lon="5.90425">
        <ele>496</ele>
        <time>2020-10-05T14:20:42.988Z</time>
      </trkpt>
      <trkpt lat="43.9915" lon="5.90425">
        <ele>496</ele>
        <time>2020-10-05T14:20:43.988Z</time>
      </trkpt>
      <trkpt lat="43.9915" lon="5.90425">
        <ele>496</ele>
        <time>2020-10-05T14:20:44.988Z</time>
      </trkpt>
      <trkpt lat="43.9915" lon="5.90425">
        <ele>496</ele>
        <time>2020-10-05T14:20:45.988Z</time>
      </trkpt>
      <trkpt lat="43.9915" lon="5.90425">
        <ele>496</ele>
        <time>2020-10-05T14:20:46.988Z</time>
      </trkpt>
      <trkpt lat="43.9915" lon="5.90425">
        <ele>496</ele>
        <time>2020-10-05T14:20:47.988Z</time>
      </trkpt>
      <trkpt lat="43.99151" lon="5.90426">
        <ele>496</ele>
        <time>2020-10-05T14:20:48.988Z</time>
      </trkpt>
      <trkpt lat="43.99151" lon="5.90427">
        <ele>496</ele>
        <time>2020-10-05T14:20:49.988Z</time>
      </trkpt>
      <trkpt lat="43.99152" lon="5.90428">
        <ele>496</ele>
        <time>2020-10-05T14:20:50.988Z</time>
      </trkpt>
      <trkpt lat="43.99152" lon="5.90429">
        <ele>496</ele>
        <time>2020-10-05T14:20:51.988Z</time>
      </trkpt>
      <trkpt lat="43.99153" lon="5.90429">
        <ele>496</ele>
        <time>2020-10-05T14:20:52.988Z</time>
      </trkpt>
      <trkpt lat="43.99153" lon="5.9043">
        <ele>496</ele>
        <time>2020-10-05T14:20:53.988Z</time>
      </trkpt>
      <trkpt lat="43.99153" lon="5.90431">
        <ele>496</ele>
        <time>2020-10-05T14:20:54.988Z</time>
      </trkpt>
      <trkpt lat="43.99154" lon="5.90431">
        <ele>496</ele>
        <time>2020-10-05T14:20:55.988Z</time>
      </trkpt>
      <trkpt lat="43.99154" lon="5.90431">
        <ele>497</ele>
        <time>2020-10-05T14:20:56.988Z</time>
      </trkpt>
      <trkpt lat="43.99155" lon="5.90431">
        <ele>497</ele>
        <time>2020-10-05T14:20:57.988Z</time>
      </trkpt>
      <trkpt lat="43.99155" lon="5.90431">
        <ele>497</ele>
        <time>2020-10-05T14:20:58.988Z</time>
      </trkpt>
      <trkpt lat="43.99155" lon="5.90431">
        <ele>497</ele>
        <time>2020-10-05T14:20:59.988Z</time>
      </trkpt>
      <trkpt lat="43.99156" lon="5.90432">
        <ele>497</ele>
        <time>2020-10-05T14:21:00.988Z</time>
      </trkpt>
      <trkpt lat="43.99156" lon="5.90432">
        <ele>497</ele>
        <time>2020-10-05T14:21:01.988Z</time>
      </trkpt>
      <trkpt lat="43.99156" lon="5.90432">
        <ele>497</ele>
        <time>2020-10-05T14:21:02.988Z</time>
      </trkpt>
      <trkpt lat="43.99157" lon="5.90433">
        <ele>497</ele>
        <time>2020-10-05T14:21:03.988Z</time>
      </trkpt>
      <trkpt lat="43.99157" lon="5.90433">
        <ele>497</ele>
        <time>2020-10-05T14:21:04.988Z</time>
      </trkpt>
      <trkpt lat="43.99157" lon="5.90433">
        <ele>497</ele>
        <time>2020-10-05T14:21:05.988Z</time>
      </trkpt>
      <trkpt lat="43.99157" lon="5.90433">
        <ele>498</ele>
        <time>2020-10-05T14:21:06.988Z</time>
      </trkpt>
      <trkpt lat="43.99157" lon="5.90433">
        <ele>498</ele>
        <time>2020-10-05T14:21:07.988Z</time>
      </trkpt>
      <trkpt lat="43.99157" lon="5.90433">
        <ele>498</ele>
        <time>2020-10-05T14:21:08.988Z</time>
      </trkpt>
      <trkpt lat="43.99157" lon="5.90434">
        <ele>498</ele>
        <time>2020-10-05T14:21:09.988Z</time>
      </trkpt>
      <trkpt lat="43.99158" lon="5.90433">
        <ele>497</ele>
        <time>2020-10-05T14:21:10.988Z</time>
      </trkpt>
      <trkpt lat="43.99158" lon="5.90433">
        <ele>497</ele>
        <time>2020-10-05T14:21:11.988Z</time>
      </trkpt>
      <trkpt lat="43.99159" lon="5.90433">
        <ele>497</ele>
        <time>2020-10-05T14:21:12.988Z</time>
      </trkpt>
      <trkpt lat="43.99159" lon="5.90433">
        <ele>497</ele>
        <time>2020-10-05T14:21:13.988Z</time>
      </trkpt>
      <trkpt lat="43.99159" lon="5.90433">
        <ele>497</ele>
        <time>2020-10-05T14:21:14.988Z</time>
      </trkpt>
      <trkpt lat="43.9916" lon="5.90433">
        <ele>498</ele>
        <time>2020-10-05T14:21:15.988Z</time>
      </trkpt>
      <trkpt lat="43.9916" lon="5.90433">
        <ele>498</ele>
        <time>2020-10-05T14:21:16.988Z</time>
      </trkpt>
      <trkpt lat="43.9916" lon="5.90433">
        <ele>498</ele>
        <time>2020-10-05T14:21:17.988Z</time>
      </trkpt>
      <trkpt lat="43.9916" lon="5.90433">
        <ele>498</ele>
        <time>2020-10-05T14:21:18.988Z</time>
      </trkpt>
      <trkpt lat="43.9916" lon="5.90433">
        <ele>498</ele>
        <time>2020-10-05T14:21:19.988Z</time>
      </trkpt>
      <trkpt lat="43.9916" lon="5.90433">
        <ele>498</ele>
        <time>2020-10-05T14:21:20.988Z</time>
      </trkpt>
      <trkpt lat="43.9916" lon="5.90433">
        <ele>498</ele>
        <time>2020-10-05T14:21:21.988Z</time>
      </trkpt>
      <trkpt lat="43.9916" lon="5.90433">
        <ele>498</ele>
        <time>2020-10-05T14:21:22.988Z</time>
      </trkpt>
      <trkpt lat="43.9916" lon="5.90433">
        <ele>498</ele>
        <time>2020-10-05T14:21:23.988Z</time>
      </trkpt>
      <trkpt lat="43.9916" lon="5.90433">
        <ele>498</ele>
        <time>2020-10-05T14:21:24.988Z</time>
      </trkpt>
      <trkpt lat="43.9916" lon="5.90433">
        <ele>498</ele>
        <time>2020-10-05T14:21:25.988Z</time>
      </trkpt>
      <trkpt lat="43.9916" lon="5.90433">
        <ele>498</ele>
        <time>2020-10-05T14:21:26.988Z</time>
      </trkpt>
      <trkpt lat="43.99161" lon="5.90432">
        <ele>498</ele>
        <time>2020-10-05T14:21:27.988Z</time>
      </trkpt>
      <trkpt lat="43.99161" lon="5.90432">
        <ele>498</ele>
        <time>2020-10-05T14:21:28.988Z</time>
      </trkpt>
      <trkpt lat="43.99162" lon="5.90432">
        <ele>498</ele>
        <time>2020-10-05T14:21:29.988Z</time>
      </trkpt>
      <trkpt lat="43.99162" lon="5.90432">
        <ele>498</ele>
        <time>2020-10-05T14:21:30.988Z</time>
      </trkpt>
      <trkpt lat="43.99163" lon="5.90431">
        <ele>498</ele>
        <time>2020-10-05T14:21:31.988Z</time>
      </trkpt>
      <trkpt lat="43.99163" lon="5.90431">
        <ele>498</ele>
        <time>2020-10-05T14:21:32.988Z</time>
      </trkpt>
      <trkpt lat="43.99164" lon="5.9043">
        <ele>499</ele>
        <time>2020-10-05T14:21:33.988Z</time>
      </trkpt>
      <trkpt lat="43.99165" lon="5.9043">
        <ele>499</ele>
        <time>2020-10-05T14:21:34.988Z</time>
      </trkpt>
      <trkpt lat="43.99165" lon="5.90429">
        <ele>499</ele>
        <time>2020-10-05T14:21:35.988Z</time>
      </trkpt>
      <trkpt lat="43.99166" lon="5.90429">
        <ele>499</ele>
        <time>2020-10-05T14:21:36.988Z</time>
      </trkpt>
      <trkpt lat="43.99166" lon="5.90428">
        <ele>499</ele>
        <time>2020-10-05T14:21:37.988Z</time>
      </trkpt>
      <trkpt lat="43.99166" lon="5.90428">
        <ele>499</ele>
        <time>2020-10-05T14:21:38.988Z</time>
      </trkpt>
      <trkpt lat="43.99167" lon="5.90428">
        <ele>499</ele>
        <time>2020-10-05T14:21:39.988Z</time>
      </trkpt>
      <trkpt lat="43.99167" lon="5.90427">
        <ele>499</ele>
        <time>2020-10-05T14:21:40.988Z</time>
      </trkpt>
      <trkpt lat="43.99168" lon="5.90427">
        <ele>499</ele>
        <time>2020-10-05T14:21:41.988Z</time>
      </trkpt>
      <trkpt lat="43.99169" lon="5.90426">
        <ele>499</ele>
        <time>2020-10-05T14:21:42.988Z</time>
      </trkpt>
      <trkpt lat="43.99169" lon="5.90426">
        <ele>499</ele>
        <time>2020-10-05T14:21:43.988Z</time>
      </trkpt>
      <trkpt lat="43.99169" lon="5.90425">
        <ele>499</ele>
        <time>2020-10-05T14:21:44.988Z</time>
      </trkpt>
      <trkpt lat="43.99169" lon="5.90425">
        <ele>499</ele>
        <time>2020-10-05T14:21:45.988Z</time>
      </trkpt>
      <trkpt lat="43.9917" lon="5.90424">
        <ele>499</ele>
        <time>2020-10-05T14:21:46.988Z</time>
      </trkpt>
      <trkpt lat="43.9917" lon="5.90424">
        <ele>499</ele>
        <time>2020-10-05T14:21:47.988Z</time>
      </trkpt>
      <trkpt lat="43.99171" lon="5.90423">
        <ele>499</ele>
        <time>2020-10-05T14:21:48.988Z</time>
      </trkpt>
      <trkpt lat="43.99171" lon="5.90423">
        <ele>499</ele>
        <time>2020-10-05T14:21:49.988Z</time>
      </trkpt>
      <trkpt lat="43.99171" lon="5.90422">
        <ele>499</ele>
        <time>2020-10-05T14:21:50.988Z</time>
      </trkpt>
      <trkpt lat="43.99172" lon="5.90422">
        <ele>499</ele>
        <time>2020-10-05T14:21:51.988Z</time>
      </trkpt>
      <trkpt lat="43.99173" lon="5.90421">
        <ele>499</ele>
        <time>2020-10-05T14:21:52.988Z</time>
      </trkpt>
      <trkpt lat="43.99174" lon="5.90421">
        <ele>499</ele>
        <time>2020-10-05T14:21:53.988Z</time>
      </trkpt>
      <trkpt lat="43.99174" lon="5.9042">
        <ele>499</ele>
        <time>2020-10-05T14:21:54.988Z</time>
      </trkpt>
      <trkpt lat="43.99175" lon="5.9042">
        <ele>499</ele>
        <time>2020-10-05T14:21:55.988Z</time>
      </trkpt>
      <trkpt lat="43.99176" lon="5.90419">
        <ele>498</ele>
        <time>2020-10-05T14:21:56.988Z</time>
      </trkpt>
      <trkpt lat="43.99176" lon="5.90418">
        <ele>498</ele>
        <time>2020-10-05T14:21:57.988Z</time>
      </trkpt>
      <trkpt lat="43.99177" lon="5.90418">
        <ele>498</ele>
        <time>2020-10-05T14:21:58.988Z</time>
      </trkpt>
      <trkpt lat="43.99178" lon="5.90417">
        <ele>498</ele>
        <time>2020-10-05T14:21:59.988Z</time>
      </trkpt>
      <trkpt lat="43.99179" lon="5.90416">
        <ele>498</ele>
        <time>2020-10-05T14:22:00.988Z</time>
      </trkpt>
      <trkpt lat="43.9918" lon="5.90415">
        <ele>498</ele>
        <time>2020-10-05T14:22:01.988Z</time>
      </trkpt>
      <trkpt lat="43.99181" lon="5.90414">
        <ele>498</ele>
        <time>2020-10-05T14:22:02.988Z</time>
      </trkpt>
      <trkpt lat="43.99182" lon="5.90414">
        <ele>498</ele>
        <time>2020-10-05T14:22:03.988Z</time>
      </trkpt>
      <trkpt lat="43.99183" lon="5.90413">
        <ele>498</ele>
        <time>2020-10-05T14:22:04.988Z</time>
      </trkpt>
      <trkpt lat="43.99184" lon="5.90412">
        <ele>498</ele>
        <time>2020-10-05T14:22:05.988Z</time>
      </trkpt>
      <trkpt lat="43.99184" lon="5.90411">
        <ele>498</ele>
        <time>2020-10-05T14:22:06.988Z</time>
      </trkpt>
      <trkpt lat="43.99185" lon="5.9041">
        <ele>498</ele>
        <time>2020-10-05T14:22:07.988Z</time>
      </trkpt>
      <trkpt lat="43.99185" lon="5.90409">
        <ele>498</ele>
        <time>2020-10-05T14:22:08.988Z</time>
      </trkpt>
      <trkpt lat="43.99186" lon="5.90408">
        <ele>498</ele>
        <time>2020-10-05T14:22:09.988Z</time>
      </trkpt>
      <trkpt lat="43.99186" lon="5.90407">
        <ele>498</ele>
        <time>2020-10-05T14:22:10.988Z</time>
      </trkpt>
      <trkpt lat="43.99187" lon="5.90407">
        <ele>498</ele>
        <time>2020-10-05T14:22:11.988Z</time>
      </trkpt>
      <trkpt lat="43.99187" lon="5.90406">
        <ele>498</ele>
        <time>2020-10-05T14:22:12.988Z</time>
      </trkpt>
      <trkpt lat="43.99187" lon="5.90405">
        <ele>498</ele>
        <time>2020-10-05T14:22:13.988Z</time>
      </trkpt>
      <trkpt lat="43.99188" lon="5.90404">
        <ele>498</ele>
        <time>2020-10-05T14:22:14.988Z</time>
      </trkpt>
      <trkpt lat="43.99188" lon="5.90403">
        <ele>498</ele>
        <time>2020-10-05T14:22:15.988Z</time>
      </trkpt>
      <trkpt lat="43.99188" lon="5.90402">
        <ele>498</ele>
        <time>2020-10-05T14:22:16.988Z</time>
      </trkpt>
      <trkpt lat="43.99188" lon="5.90401">
        <ele>498</ele>
        <time>2020-10-05T14:22:17.988Z</time>
      </trkpt>
      <trkpt lat="43.99189" lon="5.90399">
        <ele>498</ele>
        <time>2020-10-05T14:22:18.988Z</time>
      </trkpt>
      <trkpt lat="43.99189" lon="5.90399">
        <ele>498</ele>
        <time>2020-10-05T14:22:19.988Z</time>
      </trkpt>
      <trkpt lat="43.9919" lon="5.90398">
        <ele>498</ele>
        <time>2020-10-05T14:22:20.988Z</time>
      </trkpt>
      <trkpt lat="43.9919" lon="5.90397">
        <ele>498</ele>
        <time>2020-10-05T14:22:21.988Z</time>
      </trkpt>
      <trkpt lat="43.9919" lon="5.90396">
        <ele>498</ele>
        <time>2020-10-05T14:22:22.988Z</time>
      </trkpt>
      <trkpt lat="43.9919" lon="5.90395">
        <ele>498</ele>
        <time>2020-10-05T14:22:23.988Z</time>
      </trkpt>
      <trkpt lat="43.99191" lon="5.90395">
        <ele>498</ele>
        <time>2020-10-05T14:22:24.988Z</time>
      </trkpt>
      <trkpt lat="43.99191" lon="5.90394">
        <ele>498</ele>
        <time>2020-10-05T14:22:25.988Z</time>
      </trkpt>
      <trkpt lat="43.99191" lon="5.90393">
        <ele>498</ele>
        <time>2020-10-05T14:22:26.988Z</time>
      </trkpt>
      <trkpt lat="43.99192" lon="5.90393">
        <ele>498</ele>
        <time>2020-10-05T14:22:27.988Z</time>
      </trkpt>
      <trkpt lat="43.99192" lon="5.90392">
        <ele>498</ele>
        <time>2020-10-05T14:22:28.988Z</time>
      </trkpt>
      <trkpt lat="43.99192" lon="5.90391">
        <ele>498</ele>
        <time>2020-10-05T14:22:29.988Z</time>
      </trkpt>
      <trkpt lat="43.99193" lon="5.9039">
        <ele>498</ele>
        <time>2020-10-05T14:22:30.988Z</time>
      </trkpt>
      <trkpt lat="43.99193" lon="5.90389">
        <ele>497</ele>
        <time>2020-10-05T14:22:31.988Z</time>
      </trkpt>
      <trkpt lat="43.99193" lon="5.90389">
        <ele>497</ele>
        <time>2020-10-05T14:22:32.988Z</time>
      </trkpt>
      <trkpt lat="43.99194" lon="5.90388">
        <ele>497</ele>
        <time>2020-10-05T14:22:33.988Z</time>
      </trkpt>
      <trkpt lat="43.99194" lon="5.90387">
        <ele>497</ele>
        <time>2020-10-05T14:22:34.988Z</time>
      </trkpt>
      <trkpt lat="43.99194" lon="5.90386">
        <ele>497</ele>
        <time>2020-10-05T14:22:35.988Z</time>
      </trkpt>
      <trkpt lat="43.99195" lon="5.90385">
        <ele>497</ele>
        <time>2020-10-05T14:22:36.988Z</time>
      </trkpt>
      <trkpt lat="43.99195" lon="5.90384">
        <ele>497</ele>
        <time>2020-10-05T14:22:37.988Z</time>
      </trkpt>
      <trkpt lat="43.99195" lon="5.90383">
        <ele>497</ele>
        <time>2020-10-05T14:22:38.988Z</time>
      </trkpt>
      <trkpt lat="43.99196" lon="5.90382">
        <ele>497</ele>
        <time>2020-10-05T14:22:39.988Z</time>
      </trkpt>
      <trkpt lat="43.99196" lon="5.90381">
        <ele>497</ele>
        <time>2020-10-05T14:22:40.988Z</time>
      </trkpt>
      <trkpt lat="43.99197" lon="5.90381">
        <ele>497</ele>
        <time>2020-10-05T14:22:41.988Z</time>
      </trkpt>
      <trkpt lat="43.99197" lon="5.9038">
        <ele>497</ele>
        <time>2020-10-05T14:22:42.988Z</time>
      </trkpt>
      <trkpt lat="43.99197" lon="5.90379">
        <ele>496</ele>
        <time>2020-10-05T14:22:43.988Z</time>
      </trkpt>
      <trkpt lat="43.99198" lon="5.90379">
        <ele>496</ele>
        <time>2020-10-05T14:22:44.988Z</time>
      </trkpt>
      <trkpt lat="43.99198" lon="5.90379">
        <ele>496</ele>
        <time>2020-10-05T14:22:45.988Z</time>
      </trkpt>
      <trkpt lat="43.99197" lon="5.90379">
        <ele>496</ele>
        <time>2020-10-05T14:22:46.988Z</time>
      </trkpt>
      <trkpt lat="43.99197" lon="5.90378">
        <ele>496</ele>
        <time>2020-10-05T14:22:47.988Z</time>
      </trkpt>
      <trkpt lat="43.99197" lon="5.90378">
        <ele>496</ele>
        <time>2020-10-05T14:22:48.988Z</time>
      </trkpt>
      <trkpt lat="43.99197" lon="5.90378">
        <ele>496</ele>
        <time>2020-10-05T14:22:49.988Z</time>
      </trkpt>
      <trkpt lat="43.99197" lon="5.90378">
        <ele>496</ele>
        <time>2020-10-05T14:22:50.988Z</time>
      </trkpt>
      <trkpt lat="43.99198" lon="5.90378">
        <ele>496</ele>
        <time>2020-10-05T14:22:51.988Z</time>
      </trkpt>
      <trkpt lat="43.99198" lon="5.90377">
        <ele>496</ele>
        <time>2020-10-05T14:22:52.988Z</time>
      </trkpt>
      <trkpt lat="43.99198" lon="5.90377">
        <ele>496</ele>
        <time>2020-10-05T14:22:53.988Z</time>
      </trkpt>
      <trkpt lat="43.99198" lon="5.90376">
        <ele>496</ele>
        <time>2020-10-05T14:22:54.988Z</time>
      </trkpt>
      <trkpt lat="43.99198" lon="5.90376">
        <ele>497</ele>
        <time>2020-10-05T14:22:55.988Z</time>
      </trkpt>
      <trkpt lat="43.99198" lon="5.90376">
        <ele>497</ele>
        <time>2020-10-05T14:22:56.988Z</time>
      </trkpt>
      <trkpt lat="43.99198" lon="5.90376">
        <ele>497</ele>
        <time>2020-10-05T14:22:57.988Z</time>
      </trkpt>
      <trkpt lat="43.99199" lon="5.90375">
        <ele>497</ele>
        <time>2020-10-05T14:22:58.988Z</time>
      </trkpt>
      <trkpt lat="43.99199" lon="5.90375">
        <ele>497</ele>
        <time>2020-10-05T14:22:59.988Z</time>
      </trkpt>
      <trkpt lat="43.99199" lon="5.90374">
        <ele>497</ele>
        <time>2020-10-05T14:23:00.988Z</time>
      </trkpt>
      <trkpt lat="43.99199" lon="5.90374">
        <ele>497</ele>
        <time>2020-10-05T14:23:01.988Z</time>
      </trkpt>
      <trkpt lat="43.99199" lon="5.90374">
        <ele>497</ele>
        <time>2020-10-05T14:23:02.988Z</time>
      </trkpt>
      <trkpt lat="43.99199" lon="5.90374">
        <ele>497</ele>
        <time>2020-10-05T14:23:03.988Z</time>
      </trkpt>
      <trkpt lat="43.99199" lon="5.90374">
        <ele>497</ele>
        <time>2020-10-05T14:23:04.988Z</time>
      </trkpt>
      <trkpt lat="43.99199" lon="5.90374">
        <ele>497</ele>
        <time>2020-10-05T14:23:05.988Z</time>
      </trkpt>
      <trkpt lat="43.99199" lon="5.90374">
        <ele>497</ele>
        <time>2020-10-05T14:23:06.988Z</time>
      </trkpt>
      <trkpt lat="43.99199" lon="5.90373">
        <ele>497</ele>
        <time>2020-10-05T14:23:07.988Z</time>
      </trkpt>
      <trkpt lat="43.99199" lon="5.90373">
        <ele>497</ele>
        <time>2020-10-05T14:23:08.988Z</time>
      </trkpt>
      <trkpt lat="43.992" lon="5.90372">
        <ele>497</ele>
        <time>2020-10-05T14:23:09.988Z</time>
      </trkpt>
      <trkpt lat="43.992" lon="5.90371">
        <ele>497</ele>
        <time>2020-10-05T14:23:10.988Z</time>
      </trkpt>
      <trkpt lat="43.99201" lon="5.9037">
        <ele>497</ele>
        <time>2020-10-05T14:23:11.988Z</time>
      </trkpt>
      <trkpt lat="43.99201" lon="5.90369">
        <ele>497</ele>
        <time>2020-10-05T14:23:12.988Z</time>
      </trkpt>
      <trkpt lat="43.99201" lon="5.90368">
        <ele>497</ele>
        <time>2020-10-05T14:23:13.988Z</time>
      </trkpt>
      <trkpt lat="43.99202" lon="5.90368">
        <ele>497</ele>
        <time>2020-10-05T14:23:14.988Z</time>
      </trkpt>
      <trkpt lat="43.99202" lon="5.90367">
        <ele>497</ele>
        <time>2020-10-05T14:23:15.988Z</time>
      </trkpt>
      <trkpt lat="43.99203" lon="5.90366">
        <ele>497</ele>
        <time>2020-10-05T14:23:16.988Z</time>
      </trkpt>
      <trkpt lat="43.99203" lon="5.90365">
        <ele>497</ele>
        <time>2020-10-05T14:23:17.988Z</time>
      </trkpt>
      <trkpt lat="43.99203" lon="5.90364">
        <ele>497</ele>
        <time>2020-10-05T14:23:18.988Z</time>
      </trkpt>
      <trkpt lat="43.99204" lon="5.90363">
        <ele>497</ele>
        <time>2020-10-05T14:23:19.988Z</time>
      </trkpt>
      <trkpt lat="43.99204" lon="5.90362">
        <ele>497</ele>
        <time>2020-10-05T14:23:20.988Z</time>
      </trkpt>
      <trkpt lat="43.99204" lon="5.90361">
        <ele>497</ele>
        <time>2020-10-05T14:23:21.988Z</time>
      </trkpt>
      <trkpt lat="43.99205" lon="5.9036">
        <ele>497</ele>
        <time>2020-10-05T14:23:22.988Z</time>
      </trkpt>
      <trkpt lat="43.99205" lon="5.90359">
        <ele>497</ele>
        <time>2020-10-05T14:23:23.988Z</time>
      </trkpt>
      <trkpt lat="43.99206" lon="5.90358">
        <ele>497</ele>
        <time>2020-10-05T14:23:24.988Z</time>
      </trkpt>
      <trkpt lat="43.99206" lon="5.90357">
        <ele>497</ele>
        <time>2020-10-05T14:23:25.988Z</time>
      </trkpt>
      <trkpt lat="43.99206" lon="5.90356">
        <ele>497</ele>
        <time>2020-10-05T14:23:26.988Z</time>
      </trkpt>
      <trkpt lat="43.99207" lon="5.90356">
        <ele>498</ele>
        <time>2020-10-05T14:23:27.988Z</time>
      </trkpt>
      <trkpt lat="43.99207" lon="5.90356">
        <ele>498</ele>
        <time>2020-10-05T14:23:28.988Z</time>
      </trkpt>
      <trkpt lat="43.99207" lon="5.90355">
        <ele>498</ele>
        <time>2020-10-05T14:23:29.988Z</time>
      </trkpt>
      <trkpt lat="43.99207" lon="5.90355">
        <ele>498</ele>
        <time>2020-10-05T14:23:30.988Z</time>
      </trkpt>
      <trkpt lat="43.99208" lon="5.90354">
        <ele>498</ele>
        <time>2020-10-05T14:23:31.988Z</time>
      </trkpt>
      <trkpt lat="43.99208" lon="5.90354">
        <ele>498</ele>
        <time>2020-10-05T14:23:32.988Z</time>
      </trkpt>
      <trkpt lat="43.99208" lon="5.90353">
        <ele>498</ele>
        <time>2020-10-05T14:23:33.988Z</time>
      </trkpt>
      <trkpt lat="43.99208" lon="5.90353">
        <ele>498</ele>
        <time>2020-10-05T14:23:34.988Z</time>
      </trkpt>
      <trkpt lat="43.99208" lon="5.90352">
        <ele>498</ele>
        <time>2020-10-05T14:23:35.988Z</time>
      </trkpt>
      <trkpt lat="43.99208" lon="5.90352">
        <ele>498</ele>
        <time>2020-10-05T14:23:36.988Z</time>
      </trkpt>
      <trkpt lat="43.99208" lon="5.90351">
        <ele>498</ele>
        <time>2020-10-05T14:23:37.988Z</time>
      </trkpt>
      <trkpt lat="43.99208" lon="5.90351">
        <ele>498</ele>
        <time>2020-10-05T14:23:38.988Z</time>
      </trkpt>
      <trkpt lat="43.99208" lon="5.90351">
        <ele>498</ele>
        <time>2020-10-05T14:23:39.988Z</time>
      </trkpt>
      <trkpt lat="43.99208" lon="5.90351">
        <ele>498</ele>
        <time>2020-10-05T14:23:40.988Z</time>
      </trkpt>
      <trkpt lat="43.99208" lon="5.90351">
        <ele>498</ele>
        <time>2020-10-05T14:23:41.988Z</time>
      </trkpt>
      <trkpt lat="43.99208" lon="5.90351">
        <ele>498</ele>
        <time>2020-10-05T14:23:42.988Z</time>
      </trkpt>
      <trkpt lat="43.99208" lon="5.90351">
        <ele>498</ele>
        <time>2020-10-05T14:23:43.988Z</time>
      </trkpt>
      <trkpt lat="43.99208" lon="5.90351">
        <ele>498</ele>
        <time>2020-10-05T14:23:44.988Z</time>
      </trkpt>
      <trkpt lat="43.99208" lon="5.90351">
        <ele>498</ele>
        <time>2020-10-05T14:23:45.988Z</time>
      </trkpt>
      <trkpt lat="43.99208" lon="5.9035">
        <ele>498</ele>
        <time>2020-10-05T14:23:46.988Z</time>
      </trkpt>
      <trkpt lat="43.99208" lon="5.9035">
        <ele>498</ele>
        <time>2020-10-05T14:23:47.988Z</time>
      </trkpt>
      <trkpt lat="43.99208" lon="5.9035">
        <ele>498</ele>
        <time>2020-10-05T14:23:48.988Z</time>
      </trkpt>
      <trkpt lat="43.99208" lon="5.9035">
        <ele>498</ele>
        <time>2020-10-05T14:23:49.988Z</time>
      </trkpt>
      <trkpt lat="43.99208" lon="5.9035">
        <ele>498</ele>
        <time>2020-10-05T14:23:50.988Z</time>
      </trkpt>
      <trkpt lat="43.99208" lon="5.90349">
        <ele>498</ele>
        <time>2020-10-05T14:23:51.988Z</time>
      </trkpt>
      <trkpt lat="43.99209" lon="5.90349">
        <ele>498</ele>
        <time>2020-10-05T14:23:52.988Z</time>
      </trkpt>
      <trkpt lat="43.99209" lon="5.90348">
        <ele>498</ele>
        <time>2020-10-05T14:23:53.988Z</time>
      </trkpt>
      <trkpt lat="43.99209" lon="5.90347">
        <ele>499</ele>
        <time>2020-10-05T14:23:54.988Z</time>
      </trkpt>
      <trkpt lat="43.9921" lon="5.90347">
        <ele>499</ele>
        <time>2020-10-05T14:23:55.988Z</time>
      </trkpt>
      <trkpt lat="43.9921" lon="5.90347">
        <ele>499</ele>
        <time>2020-10-05T14:23:56.988Z</time>
      </trkpt>
      <trkpt lat="43.9921" lon="5.90346">
        <ele>499</ele>
        <time>2020-10-05T14:23:57.988Z</time>
      </trkpt>
      <trkpt lat="43.99209" lon="5.90346">
        <ele>499</ele>
        <time>2020-10-05T14:23:58.988Z</time>
      </trkpt>
      <trkpt lat="43.99209" lon="5.90346">
        <ele>499</ele>
        <time>2020-10-05T14:23:59.988Z</time>
      </trkpt>
      <trkpt lat="43.99209" lon="5.90346">
        <ele>499</ele>
        <time>2020-10-05T14:24:00.988Z</time>
      </trkpt>
      <trkpt lat="43.99209" lon="5.90345">
        <ele>499</ele>
        <time>2020-10-05T14:24:01.988Z</time>
      </trkpt>
      <trkpt lat="43.99209" lon="5.90345">
        <ele>499</ele>
        <time>2020-10-05T14:24:02.988Z</time>
      </trkpt>
      <trkpt lat="43.99209" lon="5.90344">
        <ele>499</ele>
        <time>2020-10-05T14:24:03.988Z</time>
      </trkpt>
      <trkpt lat="43.99209" lon="5.90344">
        <ele>499</ele>
        <time>2020-10-05T14:24:04.988Z</time>
      </trkpt>
      <trkpt lat="43.9921" lon="5.90343">
        <ele>499</ele>
        <time>2020-10-05T14:24:05.988Z</time>
      </trkpt>
      <trkpt lat="43.9921" lon="5.90343">
        <ele>499</ele>
        <time>2020-10-05T14:24:06.988Z</time>
      </trkpt>
      <trkpt lat="43.9921" lon="5.90342">
        <ele>499</ele>
        <time>2020-10-05T14:24:07.988Z</time>
      </trkpt>
      <trkpt lat="43.9921" lon="5.90341">
        <ele>499</ele>
        <time>2020-10-05T14:24:08.988Z</time>
      </trkpt>
      <trkpt lat="43.99211" lon="5.9034">
        <ele>499</ele>
        <time>2020-10-05T14:24:09.988Z</time>
      </trkpt>
      <trkpt lat="43.99211" lon="5.90339">
        <ele>499</ele>
        <time>2020-10-05T14:24:10.988Z</time>
      </trkpt>
      <trkpt lat="43.99212" lon="5.90338">
        <ele>499</ele>
        <time>2020-10-05T14:24:11.988Z</time>
      </trkpt>
      <trkpt lat="43.99212" lon="5.90337">
        <ele>499</ele>
        <time>2020-10-05T14:24:12.988Z</time>
      </trkpt>
      <trkpt lat="43.99213" lon="5.90336">
        <ele>499</ele>
        <time>2020-10-05T14:24:13.988Z</time>
      </trkpt>
      <trkpt lat="43.99213" lon="5.90335">
        <ele>499</ele>
        <time>2020-10-05T14:24:14.988Z</time>
      </trkpt>
      <trkpt lat="43.99214" lon="5.90334">
        <ele>498</ele>
        <time>2020-10-05T14:24:15.988Z</time>
      </trkpt>
      <trkpt lat="43.99214" lon="5.90334">
        <ele>498</ele>
        <time>2020-10-05T14:24:16.988Z</time>
      </trkpt>
      <trkpt lat="43.99214" lon="5.90333">
        <ele>498</ele>
        <time>2020-10-05T14:24:17.988Z</time>
      </trkpt>
      <trkpt lat="43.99214" lon="5.90332">
        <ele>498</ele>
        <time>2020-10-05T14:24:18.988Z</time>
      </trkpt>
      <trkpt lat="43.99215" lon="5.90332">
        <ele>498</ele>
        <time>2020-10-05T14:24:19.988Z</time>
      </trkpt>
      <trkpt lat="43.99215" lon="5.90331">
        <ele>498</ele>
        <time>2020-10-05T14:24:20.988Z</time>
      </trkpt>
      <trkpt lat="43.99215" lon="5.9033">
        <ele>498</ele>
        <time>2020-10-05T14:24:21.988Z</time>
      </trkpt>
      <trkpt lat="43.99216" lon="5.90329">
        <ele>498</ele>
        <time>2020-10-05T14:24:22.988Z</time>
      </trkpt>
      <trkpt lat="43.99216" lon="5.90329">
        <ele>498</ele>
        <time>2020-10-05T14:24:23.988Z</time>
      </trkpt>
      <trkpt lat="43.99216" lon="5.90328">
        <ele>497</ele>
        <time>2020-10-05T14:24:24.988Z</time>
      </trkpt>
      <trkpt lat="43.99216" lon="5.90327">
        <ele>497</ele>
        <time>2020-10-05T14:24:25.988Z</time>
      </trkpt>
      <trkpt lat="43.99216" lon="5.90327">
        <ele>497</ele>
        <time>2020-10-05T14:24:26.988Z</time>
      </trkpt>
      <trkpt lat="43.99217" lon="5.90326">
        <ele>497</ele>
        <time>2020-10-05T14:24:27.988Z</time>
      </trkpt>
      <trkpt lat="43.99217" lon="5.90326">
        <ele>497</ele>
        <time>2020-10-05T14:24:28.988Z</time>
      </trkpt>
      <trkpt lat="43.99217" lon="5.90326">
        <ele>497</ele>
        <time>2020-10-05T14:24:29.988Z</time>
      </trkpt>
      <trkpt lat="43.99217" lon="5.90325">
        <ele>497</ele>
        <time>2020-10-05T14:24:30.988Z</time>
      </trkpt>
      <trkpt lat="43.99217" lon="5.90324">
        <ele>497</ele>
        <time>2020-10-05T14:24:31.988Z</time>
      </trkpt>
      <trkpt lat="43.99217" lon="5.90323">
        <ele>498</ele>
        <time>2020-10-05T14:24:32.988Z</time>
      </trkpt>
      <trkpt lat="43.99217" lon="5.90322">
        <ele>498</ele>
        <time>2020-10-05T14:24:33.988Z</time>
      </trkpt>
      <trkpt lat="43.99217" lon="5.90321">
        <ele>498</ele>
        <time>2020-10-05T14:24:34.988Z</time>
      </trkpt>
      <trkpt lat="43.99217" lon="5.90321">
        <ele>498</ele>
        <time>2020-10-05T14:24:35.988Z</time>
      </trkpt>
      <trkpt lat="43.99217" lon="5.90321">
        <ele>498</ele>
        <time>2020-10-05T14:24:36.988Z</time>
      </trkpt>
      <trkpt lat="43.99217" lon="5.9032">
        <ele>498</ele>
        <time>2020-10-05T14:24:37.988Z</time>
      </trkpt>
      <trkpt lat="43.99217" lon="5.9032">
        <ele>498</ele>
        <time>2020-10-05T14:24:38.988Z</time>
      </trkpt>
      <trkpt lat="43.99217" lon="5.9032">
        <ele>498</ele>
        <time>2020-10-05T14:24:39.988Z</time>
      </trkpt>
      <trkpt lat="43.99217" lon="5.9032">
        <ele>498</ele>
        <time>2020-10-05T14:24:40.988Z</time>
      </trkpt>
      <trkpt lat="43.99217" lon="5.90319">
        <ele>498</ele>
        <time>2020-10-05T14:24:41.988Z</time>
      </trkpt>
      <trkpt lat="43.99217" lon="5.90319">
        <ele>499</ele>
        <time>2020-10-05T14:24:42.988Z</time>
      </trkpt>
      <trkpt lat="43.99217" lon="5.90319">
        <ele>499</ele>
        <time>2020-10-05T14:24:43.988Z</time>
      </trkpt>
      <trkpt lat="43.99217" lon="5.90318">
        <ele>499</ele>
        <time>2020-10-05T14:24:44.988Z</time>
      </trkpt>
      <trkpt lat="43.99217" lon="5.90318">
        <ele>499</ele>
        <time>2020-10-05T14:24:45.988Z</time>
      </trkpt>
      <trkpt lat="43.99217" lon="5.90317">
        <ele>499</ele>
        <time>2020-10-05T14:24:46.988Z</time>
      </trkpt>
      <trkpt lat="43.99218" lon="5.90317">
        <ele>499</ele>
        <time>2020-10-05T14:24:47.988Z</time>
      </trkpt>
      <trkpt lat="43.99218" lon="5.90316">
        <ele>499</ele>
        <time>2020-10-05T14:24:48.988Z</time>
      </trkpt>
      <trkpt lat="43.99218" lon="5.90316">
        <ele>499</ele>
        <time>2020-10-05T14:24:49.988Z</time>
      </trkpt>
      <trkpt lat="43.99219" lon="5.90315">
        <ele>499</ele>
        <time>2020-10-05T14:24:50.988Z</time>
      </trkpt>
      <trkpt lat="43.9922" lon="5.90315">
        <ele>499</ele>
        <time>2020-10-05T14:24:51.988Z</time>
      </trkpt>
      <trkpt lat="43.99221" lon="5.90314">
        <ele>499</ele>
        <time>2020-10-05T14:24:52.988Z</time>
      </trkpt>
      <trkpt lat="43.99221" lon="5.90314">
        <ele>499</ele>
        <time>2020-10-05T14:24:53.988Z</time>
      </trkpt>
      <trkpt lat="43.99221" lon="5.90313">
        <ele>499</ele>
        <time>2020-10-05T14:24:54.988Z</time>
      </trkpt>
      <trkpt lat="43.99221" lon="5.90313">
        <ele>499</ele>
        <time>2020-10-05T14:24:55.988Z</time>
      </trkpt>
      <trkpt lat="43.99221" lon="5.90313">
        <ele>499</ele>
        <time>2020-10-05T14:24:56.988Z</time>
      </trkpt>
      <trkpt lat="43.99221" lon="5.90313">
        <ele>499</ele>
        <time>2020-10-05T14:24:57.988Z</time>
      </trkpt>
      <trkpt lat="43.99222" lon="5.90313">
        <ele>499</ele>
        <time>2020-10-05T14:24:58.988Z</time>
      </trkpt>
      <trkpt lat="43.99221" lon="5.90312">
        <ele>499</ele>
        <time>2020-10-05T14:24:59.988Z</time>
      </trkpt>
      <trkpt lat="43.99221" lon="5.90312">
        <ele>499</ele>
        <time>2020-10-05T14:25:00.988Z</time>
      </trkpt>
      <trkpt lat="43.99222" lon="5.90312">
        <ele>499</ele>
        <time>2020-10-05T14:25:01.988Z</time>
      </trkpt>
      <trkpt lat="43.99222" lon="5.90311">
        <ele>499</ele>
        <time>2020-10-05T14:25:02.988Z</time>
      </trkpt>
      <trkpt lat="43.99222" lon="5.90311">
        <ele>499</ele>
        <time>2020-10-05T14:25:03.988Z</time>
      </trkpt>
      <trkpt lat="43.99222" lon="5.9031">
        <ele>499</ele>
        <time>2020-10-05T14:25:04.988Z</time>
      </trkpt>
      <trkpt lat="43.99222" lon="5.90309">
        <ele>499</ele>
        <time>2020-10-05T14:25:05.988Z</time>
      </trkpt>
      <trkpt lat="43.99223" lon="5.90308">
        <ele>499</ele>
        <time>2020-10-05T14:25:06.988Z</time>
      </trkpt>
      <trkpt lat="43.99223" lon="5.90308">
        <ele>500</ele>
        <time>2020-10-05T14:25:07.988Z</time>
      </trkpt>
      <trkpt lat="43.99223" lon="5.90307">
        <ele>500</ele>
        <time>2020-10-05T14:25:08.988Z</time>
      </trkpt>
      <trkpt lat="43.99223" lon="5.90306">
        <ele>500</ele>
        <time>2020-10-05T14:25:09.988Z</time>
      </trkpt>
      <trkpt lat="43.99223" lon="5.90306">
        <ele>500</ele>
        <time>2020-10-05T14:25:10.988Z</time>
      </trkpt>
      <trkpt lat="43.99223" lon="5.90305">
        <ele>499</ele>
        <time>2020-10-05T14:25:11.988Z</time>
      </trkpt>
      <trkpt lat="43.99223" lon="5.90304">
        <ele>499</ele>
        <time>2020-10-05T14:25:12.988Z</time>
      </trkpt>
      <trkpt lat="43.99224" lon="5.90303">
        <ele>499</ele>
        <time>2020-10-05T14:25:13.988Z</time>
      </trkpt>
      <trkpt lat="43.99224" lon="5.90302">
        <ele>499</ele>
        <time>2020-10-05T14:25:14.988Z</time>
      </trkpt>
      <trkpt lat="43.99224" lon="5.90301">
        <ele>499</ele>
        <time>2020-10-05T14:25:15.988Z</time>
      </trkpt>
      <trkpt lat="43.99225" lon="5.903">
        <ele>499</ele>
        <time>2020-10-05T14:25:16.988Z</time>
      </trkpt>
      <trkpt lat="43.99225" lon="5.90299">
        <ele>499</ele>
        <time>2020-10-05T14:25:17.988Z</time>
      </trkpt>
      <trkpt lat="43.99225" lon="5.90298">
        <ele>499</ele>
        <time>2020-10-05T14:25:18.988Z</time>
      </trkpt>
      <trkpt lat="43.99225" lon="5.90298">
        <ele>499</ele>
        <time>2020-10-05T14:25:19.988Z</time>
      </trkpt>
      <trkpt lat="43.99225" lon="5.90298">
        <ele>499</ele>
        <time>2020-10-05T14:25:20.988Z</time>
      </trkpt>
      <trkpt lat="43.99225" lon="5.90297">
        <ele>499</ele>
        <time>2020-10-05T14:25:21.988Z</time>
      </trkpt>
      <trkpt lat="43.99225" lon="5.90297">
        <ele>499</ele>
        <time>2020-10-05T14:25:22.988Z</time>
      </trkpt>
      <trkpt lat="43.99225" lon="5.90297">
        <ele>499</ele>
        <time>2020-10-05T14:25:23.988Z</time>
      </trkpt>
      <trkpt lat="43.99225" lon="5.90297">
        <ele>500</ele>
        <time>2020-10-05T14:25:24.988Z</time>
      </trkpt>
      <trkpt lat="43.99225" lon="5.90297">
        <ele>500</ele>
        <time>2020-10-05T14:25:25.988Z</time>
      </trkpt>
      <trkpt lat="43.99225" lon="5.90296">
        <ele>500</ele>
        <time>2020-10-05T14:25:26.988Z</time>
      </trkpt>
      <trkpt lat="43.99225" lon="5.90296">
        <ele>500</ele>
        <time>2020-10-05T14:25:27.988Z</time>
      </trkpt>
      <trkpt lat="43.99225" lon="5.90295">
        <ele>500</ele>
        <time>2020-10-05T14:25:28.988Z</time>
      </trkpt>
      <trkpt lat="43.99226" lon="5.90294">
        <ele>500</ele>
        <time>2020-10-05T14:25:29.988Z</time>
      </trkpt>
      <trkpt lat="43.99226" lon="5.90293">
        <ele>500</ele>
        <time>2020-10-05T14:25:30.988Z</time>
      </trkpt>
      <trkpt lat="43.99227" lon="5.90293">
        <ele>500</ele>
        <time>2020-10-05T14:25:31.988Z</time>
      </trkpt>
      <trkpt lat="43.99227" lon="5.90292">
        <ele>500</ele>
        <time>2020-10-05T14:25:32.988Z</time>
      </trkpt>
      <trkpt lat="43.99227" lon="5.90291">
        <ele>500</ele>
        <time>2020-10-05T14:25:33.988Z</time>
      </trkpt>
      <trkpt lat="43.99227" lon="5.90291">
        <ele>500</ele>
        <time>2020-10-05T14:25:34.988Z</time>
      </trkpt>
      <trkpt lat="43.99227" lon="5.90291">
        <ele>500</ele>
        <time>2020-10-05T14:25:35.988Z</time>
      </trkpt>
      <trkpt lat="43.99227" lon="5.9029">
        <ele>500</ele>
        <time>2020-10-05T14:25:36.988Z</time>
      </trkpt>
      <trkpt lat="43.99227" lon="5.9029">
        <ele>500</ele>
        <time>2020-10-05T14:25:37.988Z</time>
      </trkpt>
      <trkpt lat="43.99228" lon="5.9029">
        <ele>500</ele>
        <time>2020-10-05T14:25:38.988Z</time>
      </trkpt>
      <trkpt lat="43.99228" lon="5.90289">
        <ele>500</ele>
        <time>2020-10-05T14:25:39.988Z</time>
      </trkpt>
      <trkpt lat="43.99228" lon="5.90289">
        <ele>500</ele>
        <time>2020-10-05T14:25:40.988Z</time>
      </trkpt>
      <trkpt lat="43.99228" lon="5.90288">
        <ele>500</ele>
        <time>2020-10-05T14:25:41.988Z</time>
      </trkpt>
      <trkpt lat="43.99228" lon="5.90287">
        <ele>500</ele>
        <time>2020-10-05T14:25:42.988Z</time>
      </trkpt>
      <trkpt lat="43.99228" lon="5.90287">
        <ele>500</ele>
        <time>2020-10-05T14:25:43.988Z</time>
      </trkpt>
      <trkpt lat="43.99228" lon="5.90286">
        <ele>500</ele>
        <time>2020-10-05T14:25:44.988Z</time>
      </trkpt>
      <trkpt lat="43.99229" lon="5.90285">
        <ele>500</ele>
        <time>2020-10-05T14:25:45.988Z</time>
      </trkpt>
      <trkpt lat="43.99229" lon="5.90284">
        <ele>500</ele>
        <time>2020-10-05T14:25:46.988Z</time>
      </trkpt>
      <trkpt lat="43.99229" lon="5.90283">
        <ele>500</ele>
        <time>2020-10-05T14:25:47.988Z</time>
      </trkpt>
      <trkpt lat="43.99229" lon="5.90282">
        <ele>500</ele>
        <time>2020-10-05T14:25:48.988Z</time>
      </trkpt>
      <trkpt lat="43.99229" lon="5.90281">
        <ele>499</ele>
        <time>2020-10-05T14:25:49.988Z</time>
      </trkpt>
      <trkpt lat="43.99229" lon="5.9028">
        <ele>499</ele>
        <time>2020-10-05T14:25:50.988Z</time>
      </trkpt>
      <trkpt lat="43.99229" lon="5.90279">
        <ele>499</ele>
        <time>2020-10-05T14:25:51.988Z</time>
      </trkpt>
      <trkpt lat="43.99229" lon="5.90277">
        <ele>499</ele>
        <time>2020-10-05T14:25:52.988Z</time>
      </trkpt>
      <trkpt lat="43.99229" lon="5.90276">
        <ele>499</ele>
        <time>2020-10-05T14:25:53.988Z</time>
      </trkpt>
      <trkpt lat="43.9923" lon="5.90275">
        <ele>499</ele>
        <time>2020-10-05T14:25:54.988Z</time>
      </trkpt>
      <trkpt lat="43.9923" lon="5.90274">
        <ele>499</ele>
        <time>2020-10-05T14:25:55.988Z</time>
      </trkpt>
      <trkpt lat="43.9923" lon="5.90272">
        <ele>499</ele>
        <time>2020-10-05T14:25:56.988Z</time>
      </trkpt>
      <trkpt lat="43.9923" lon="5.90271">
        <ele>499</ele>
        <time>2020-10-05T14:25:57.988Z</time>
      </trkpt>
      <trkpt lat="43.9923" lon="5.9027">
        <ele>499</ele>
        <time>2020-10-05T14:25:58.988Z</time>
      </trkpt>
      <trkpt lat="43.9923" lon="5.90268">
        <ele>499</ele>
        <time>2020-10-05T14:25:59.988Z</time>
      </trkpt>
      <trkpt lat="43.99229" lon="5.90267">
        <ele>499</ele>
        <time>2020-10-05T14:26:00.988Z</time>
      </trkpt>
      <trkpt lat="43.99229" lon="5.90266">
        <ele>499</ele>
        <time>2020-10-05T14:26:01.988Z</time>
      </trkpt>
      <trkpt lat="43.99229" lon="5.90264">
        <ele>499</ele>
        <time>2020-10-05T14:26:02.988Z</time>
      </trkpt>
      <trkpt lat="43.99229" lon="5.90263">
        <ele>499</ele>
        <time>2020-10-05T14:26:03.988Z</time>
      </trkpt>
      <trkpt lat="43.99228" lon="5.90262">
        <ele>499</ele>
        <time>2020-10-05T14:26:04.988Z</time>
      </trkpt>
      <trkpt lat="43.99228" lon="5.90262">
        <ele>499</ele>
        <time>2020-10-05T14:26:05.988Z</time>
      </trkpt>
      <trkpt lat="43.99227" lon="5.90261">
        <ele>499</ele>
        <time>2020-10-05T14:26:06.988Z</time>
      </trkpt>
      <trkpt lat="43.99227" lon="5.9026">
        <ele>499</ele>
        <time>2020-10-05T14:26:07.988Z</time>
      </trkpt>
      <trkpt lat="43.99226" lon="5.9026">
        <ele>499</ele>
        <time>2020-10-05T14:26:08.988Z</time>
      </trkpt>
      <trkpt lat="43.99225" lon="5.90259">
        <ele>499</ele>
        <time>2020-10-05T14:26:09.988Z</time>
      </trkpt>
      <trkpt lat="43.99225" lon="5.90259">
        <ele>499</ele>
        <time>2020-10-05T14:26:10.988Z</time>
      </trkpt>
      <trkpt lat="43.99224" lon="5.90258">
        <ele>500</ele>
        <time>2020-10-05T14:26:11.988Z</time>
      </trkpt>
      <trkpt lat="43.99223" lon="5.90257">
        <ele>500</ele>
        <time>2020-10-05T14:26:12.988Z</time>
      </trkpt>
      <trkpt lat="43.99222" lon="5.90255">
        <ele>500</ele>
        <time>2020-10-05T14:26:13.988Z</time>
      </trkpt>
      <trkpt lat="43.99222" lon="5.90254">
        <ele>500</ele>
        <time>2020-10-05T14:26:14.988Z</time>
      </trkpt>
      <trkpt lat="43.99221" lon="5.90253">
        <ele>500</ele>
        <time>2020-10-05T14:26:15.988Z</time>
      </trkpt>
      <trkpt lat="43.99221" lon="5.90251">
        <ele>500</ele>
        <time>2020-10-05T14:26:16.988Z</time>
      </trkpt>
      <trkpt lat="43.99221" lon="5.9025">
        <ele>500</ele>
        <time>2020-10-05T14:26:17.988Z</time>
      </trkpt>
      <trkpt lat="43.99221" lon="5.90248">
        <ele>500</ele>
        <time>2020-10-05T14:26:18.988Z</time>
      </trkpt>
      <trkpt lat="43.99221" lon="5.90246">
        <ele>499</ele>
        <time>2020-10-05T14:26:19.988Z</time>
      </trkpt>
      <trkpt lat="43.99221" lon="5.90245">
        <ele>499</ele>
        <time>2020-10-05T14:26:20.988Z</time>
      </trkpt>
      <trkpt lat="43.99221" lon="5.90243">
        <ele>499</ele>
        <time>2020-10-05T14:26:21.988Z</time>
      </trkpt>
      <trkpt lat="43.99221" lon="5.90242">
        <ele>499</ele>
        <time>2020-10-05T14:26:22.988Z</time>
      </trkpt>
      <trkpt lat="43.99221" lon="5.9024">
        <ele>499</ele>
        <time>2020-10-05T14:26:23.988Z</time>
      </trkpt>
      <trkpt lat="43.99222" lon="5.90239">
        <ele>499</ele>
        <time>2020-10-05T14:26:24.988Z</time>
      </trkpt>
      <trkpt lat="43.99222" lon="5.90237">
        <ele>499</ele>
        <time>2020-10-05T14:26:25.988Z</time>
      </trkpt>
      <trkpt lat="43.99222" lon="5.90236">
        <ele>499</ele>
        <time>2020-10-05T14:26:26.988Z</time>
      </trkpt>
      <trkpt lat="43.99223" lon="5.90234">
        <ele>499</ele>
        <time>2020-10-05T14:26:27.988Z</time>
      </trkpt>
      <trkpt lat="43.99223" lon="5.90233">
        <ele>499</ele>
        <time>2020-10-05T14:26:28.988Z</time>
      </trkpt>
      <trkpt lat="43.99224" lon="5.90232">
        <ele>499</ele>
        <time>2020-10-05T14:26:29.988Z</time>
      </trkpt>
      <trkpt lat="43.99224" lon="5.9023">
        <ele>499</ele>
        <time>2020-10-05T14:26:30.988Z</time>
      </trkpt>
      <trkpt lat="43.99224" lon="5.90228">
        <ele>499</ele>
        <time>2020-10-05T14:26:31.988Z</time>
      </trkpt>
      <trkpt lat="43.99224" lon="5.90227">
        <ele>499</ele>
        <time>2020-10-05T14:26:32.988Z</time>
      </trkpt>
      <trkpt lat="43.99224" lon="5.90225">
        <ele>499</ele>
        <time>2020-10-05T14:26:33.988Z</time>
      </trkpt>
      <trkpt lat="43.99224" lon="5.90224">
        <ele>499</ele>
        <time>2020-10-05T14:26:34.988Z</time>
      </trkpt>
      <trkpt lat="43.99224" lon="5.90222">
        <ele>499</ele>
        <time>2020-10-05T14:26:35.988Z</time>
      </trkpt>
      <trkpt lat="43.99224" lon="5.90221">
        <ele>499</ele>
        <time>2020-10-05T14:26:36.988Z</time>
      </trkpt>
      <trkpt lat="43.99224" lon="5.90219">
        <ele>499</ele>
        <time>2020-10-05T14:26:37.988Z</time>
      </trkpt>
      <trkpt lat="43.99224" lon="5.90218">
        <ele>499</ele>
        <time>2020-10-05T14:26:38.988Z</time>
      </trkpt>
      <trkpt lat="43.99224" lon="5.90216">
        <ele>499</ele>
        <time>2020-10-05T14:26:39.988Z</time>
      </trkpt>
      <trkpt lat="43.99224" lon="5.90215">
        <ele>499</ele>
        <time>2020-10-05T14:26:40.988Z</time>
      </trkpt>
      <trkpt lat="43.99224" lon="5.90214">
        <ele>499</ele>
        <time>2020-10-05T14:26:41.988Z</time>
      </trkpt>
      <trkpt lat="43.99225" lon="5.90213">
        <ele>499</ele>
        <time>2020-10-05T14:26:42.988Z</time>
      </trkpt>
      <trkpt lat="43.99225" lon="5.90212">
        <ele>499</ele>
        <time>2020-10-05T14:26:43.988Z</time>
      </trkpt>
      <trkpt lat="43.99226" lon="5.90211">
        <ele>499</ele>
        <time>2020-10-05T14:26:44.988Z</time>
      </trkpt>
      <trkpt lat="43.99226" lon="5.90211">
        <ele>499</ele>
        <time>2020-10-05T14:26:45.988Z</time>
      </trkpt>
      <trkpt lat="43.99227" lon="5.90211">
        <ele>499</ele>
        <time>2020-10-05T14:26:46.988Z</time>
      </trkpt>
      <trkpt lat="43.99227" lon="5.90211">
        <ele>499</ele>
        <time>2020-10-05T14:26:47.988Z</time>
      </trkpt>
      <trkpt lat="43.99227" lon="5.9021">
        <ele>499</ele>
        <time>2020-10-05T14:26:48.988Z</time>
      </trkpt>
      <trkpt lat="43.99227" lon="5.9021">
        <ele>499</ele>
        <time>2020-10-05T14:26:49.988Z</time>
      </trkpt>
      <trkpt lat="43.99227" lon="5.9021">
        <ele>499</ele>
        <time>2020-10-05T14:26:50.988Z</time>
      </trkpt>
      <trkpt lat="43.99227" lon="5.9021">
        <ele>499</ele>
        <time>2020-10-05T14:26:51.988Z</time>
      </trkpt>
      <trkpt lat="43.99226" lon="5.9021">
        <ele>499</ele>
        <time>2020-10-05T14:26:52.988Z</time>
      </trkpt>
      <trkpt lat="43.99226" lon="5.9021">
        <ele>499</ele>
        <time>2020-10-05T14:26:53.988Z</time>
      </trkpt>
      <trkpt lat="43.99226" lon="5.9021">
        <ele>499</ele>
        <time>2020-10-05T14:26:54.988Z</time>
      </trkpt>
      <trkpt lat="43.99226" lon="5.90209">
        <ele>499</ele>
        <time>2020-10-05T14:26:55.988Z</time>
      </trkpt>
      <trkpt lat="43.99226" lon="5.90209">
        <ele>499</ele>
        <time>2020-10-05T14:26:56.988Z</time>
      </trkpt>
      <trkpt lat="43.99226" lon="5.90208">
        <ele>499</ele>
        <time>2020-10-05T14:26:57.988Z</time>
      </trkpt>
      <trkpt lat="43.99226" lon="5.90208">
        <ele>499</ele>
        <time>2020-10-05T14:26:58.988Z</time>
      </trkpt>
      <trkpt lat="43.99226" lon="5.90208">
        <ele>499</ele>
        <time>2020-10-05T14:26:59.988Z</time>
      </trkpt>
      <trkpt lat="43.99226" lon="5.90208">
        <ele>499</ele>
        <time>2020-10-05T14:27:00.988Z</time>
      </trkpt>
      <trkpt lat="43.99226" lon="5.90208">
        <ele>499</ele>
        <time>2020-10-05T14:27:01.988Z</time>
      </trkpt>
      <trkpt lat="43.99226" lon="5.90208">
        <ele>499</ele>
        <time>2020-10-05T14:27:02.988Z</time>
      </trkpt>
      <trkpt lat="43.99226" lon="5.90208">
        <ele>499</ele>
        <time>2020-10-05T14:27:03.988Z</time>
      </trkpt>
      <trkpt lat="43.99226" lon="5.90208">
        <ele>499</ele>
        <time>2020-10-05T14:27:04.988Z</time>
      </trkpt>
      <trkpt lat="43.99226" lon="5.90208">
        <ele>499</ele>
        <time>2020-10-05T14:27:05.988Z</time>
      </trkpt>
      <trkpt lat="43.99226" lon="5.90207">
        <ele>499</ele>
        <time>2020-10-05T14:27:06.988Z</time>
      </trkpt>
      <trkpt lat="43.99226" lon="5.90207">
        <ele>499</ele>
        <time>2020-10-05T14:27:07.988Z</time>
      </trkpt>
      <trkpt lat="43.99226" lon="5.90206">
        <ele>499</ele>
        <time>2020-10-05T14:27:08.988Z</time>
      </trkpt>
      <trkpt lat="43.99226" lon="5.90205">
        <ele>499</ele>
        <time>2020-10-05T14:27:09.988Z</time>
      </trkpt>
      <trkpt lat="43.99226" lon="5.90204">
        <ele>499</ele>
        <time>2020-10-05T14:27:10.988Z</time>
      </trkpt>
      <trkpt lat="43.99226" lon="5.90203">
        <ele>499</ele>
        <time>2020-10-05T14:27:11.988Z</time>
      </trkpt>
      <trkpt lat="43.99226" lon="5.90202">
        <ele>499</ele>
        <time>2020-10-05T14:27:12.988Z</time>
      </trkpt>
      <trkpt lat="43.99226" lon="5.90201">
        <ele>499</ele>
        <time>2020-10-05T14:27:13.988Z</time>
      </trkpt>
      <trkpt lat="43.99225" lon="5.902">
        <ele>499</ele>
        <time>2020-10-05T14:27:14.988Z</time>
      </trkpt>
      <trkpt lat="43.99225" lon="5.90199">
        <ele>499</ele>
        <time>2020-10-05T14:27:15.988Z</time>
      </trkpt>
      <trkpt lat="43.99225" lon="5.90197">
        <ele>499</ele>
        <time>2020-10-05T14:27:16.988Z</time>
      </trkpt>
      <trkpt lat="43.99225" lon="5.90196">
        <ele>499</ele>
        <time>2020-10-05T14:27:17.988Z</time>
      </trkpt>
      <trkpt lat="43.99225" lon="5.90195">
        <ele>499</ele>
        <time>2020-10-05T14:27:18.988Z</time>
      </trkpt>
      <trkpt lat="43.99225" lon="5.90194">
        <ele>499</ele>
        <time>2020-10-05T14:27:19.988Z</time>
      </trkpt>
      <trkpt lat="43.99225" lon="5.90193">
        <ele>499</ele>
        <time>2020-10-05T14:27:20.988Z</time>
      </trkpt>
      <trkpt lat="43.99225" lon="5.90192">
        <ele>499</ele>
        <time>2020-10-05T14:27:21.988Z</time>
      </trkpt>
      <trkpt lat="43.99225" lon="5.90191">
        <ele>499</ele>
        <time>2020-10-05T14:27:22.988Z</time>
      </trkpt>
      <trkpt lat="43.99225" lon="5.9019">
        <ele>498</ele>
        <time>2020-10-05T14:27:23.988Z</time>
      </trkpt>
      <trkpt lat="43.99225" lon="5.90189">
        <ele>498</ele>
        <time>2020-10-05T14:27:24.988Z</time>
      </trkpt>
      <trkpt lat="43.99225" lon="5.90188">
        <ele>498</ele>
        <time>2020-10-05T14:27:25.988Z</time>
      </trkpt>
      <trkpt lat="43.99225" lon="5.90187">
        <ele>498</ele>
        <time>2020-10-05T14:27:26.988Z</time>
      </trkpt>
      <trkpt lat="43.99225" lon="5.90186">
        <ele>498</ele>
        <time>2020-10-05T14:27:27.988Z</time>
      </trkpt>
      <trkpt lat="43.99224" lon="5.90185">
        <ele>498</ele>
        <time>2020-10-05T14:27:28.988Z</time>
      </trkpt>
      <trkpt lat="43.99224" lon="5.90184">
        <ele>498</ele>
        <time>2020-10-05T14:27:29.988Z</time>
      </trkpt>
      <trkpt lat="43.99223" lon="5.90183">
        <ele>498</ele>
        <time>2020-10-05T14:27:30.988Z</time>
      </trkpt>
      <trkpt lat="43.99223" lon="5.90182">
        <ele>498</ele>
        <time>2020-10-05T14:27:31.988Z</time>
      </trkpt>
      <trkpt lat="43.99222" lon="5.90182">
        <ele>498</ele>
        <time>2020-10-05T14:27:32.988Z</time>
      </trkpt>
      <trkpt lat="43.99221" lon="5.90181">
        <ele>498</ele>
        <time>2020-10-05T14:27:33.988Z</time>
      </trkpt>
      <trkpt lat="43.9922" lon="5.90181">
        <ele>498</ele>
        <time>2020-10-05T14:27:34.988Z</time>
      </trkpt>
      <trkpt lat="43.99219" lon="5.9018">
        <ele>498</ele>
        <time>2020-10-05T14:27:35.988Z</time>
      </trkpt>
      <trkpt lat="43.99219" lon="5.90179">
        <ele>498</ele>
        <time>2020-10-05T14:27:36.988Z</time>
      </trkpt>
      <trkpt lat="43.99218" lon="5.90179">
        <ele>498</ele>
        <time>2020-10-05T14:27:37.988Z</time>
      </trkpt>
      <trkpt lat="43.99217" lon="5.90178">
        <ele>498</ele>
        <time>2020-10-05T14:27:38.988Z</time>
      </trkpt>
      <trkpt lat="43.99216" lon="5.90177">
        <ele>498</ele>
        <time>2020-10-05T14:27:39.988Z</time>
      </trkpt>
      <trkpt lat="43.99216" lon="5.90177">
        <ele>499</ele>
        <time>2020-10-05T14:27:40.988Z</time>
      </trkpt>
      <trkpt lat="43.99215" lon="5.90176">
        <ele>499</ele>
        <time>2020-10-05T14:27:41.988Z</time>
      </trkpt>
      <trkpt lat="43.99214" lon="5.90175">
        <ele>499</ele>
        <time>2020-10-05T14:27:42.988Z</time>
      </trkpt>
      <trkpt lat="43.99213" lon="5.90174">
        <ele>499</ele>
        <time>2020-10-05T14:27:43.988Z</time>
      </trkpt>
      <trkpt lat="43.99212" lon="5.90173">
        <ele>499</ele>
        <time>2020-10-05T14:27:44.988Z</time>
      </trkpt>
      <trkpt lat="43.99212" lon="5.90172">
        <ele>499</ele>
        <time>2020-10-05T14:27:45.988Z</time>
      </trkpt>
      <trkpt lat="43.99211" lon="5.90171">
        <ele>499</ele>
        <time>2020-10-05T14:27:46.988Z</time>
      </trkpt>
      <trkpt lat="43.9921" lon="5.90171">
        <ele>499</ele>
        <time>2020-10-05T14:27:47.988Z</time>
      </trkpt>
      <trkpt lat="43.9921" lon="5.9017">
        <ele>499</ele>
        <time>2020-10-05T14:27:48.988Z</time>
      </trkpt>
      <trkpt lat="43.99209" lon="5.90169">
        <ele>499</ele>
        <time>2020-10-05T14:27:49.988Z</time>
      </trkpt>
      <trkpt lat="43.99208" lon="5.90168">
        <ele>499</ele>
        <time>2020-10-05T14:27:50.988Z</time>
      </trkpt>
      <trkpt lat="43.99208" lon="5.90168">
        <ele>499</ele>
        <time>2020-10-05T14:27:51.988Z</time>
      </trkpt>
      <trkpt lat="43.99207" lon="5.90167">
        <ele>499</ele>
        <time>2020-10-05T14:27:52.988Z</time>
      </trkpt>
      <trkpt lat="43.99207" lon="5.90166">
        <ele>499</ele>
        <time>2020-10-05T14:27:53.988Z</time>
      </trkpt>
      <trkpt lat="43.99206" lon="5.90165">
        <ele>499</ele>
        <time>2020-10-05T14:27:54.988Z</time>
      </trkpt>
      <trkpt lat="43.99206" lon="5.90164">
        <ele>499</ele>
        <time>2020-10-05T14:27:55.988Z</time>
      </trkpt>
      <trkpt lat="43.99205" lon="5.90163">
        <ele>499</ele>
        <time>2020-10-05T14:27:56.988Z</time>
      </trkpt>
      <trkpt lat="43.99205" lon="5.90161">
        <ele>499</ele>
        <time>2020-10-05T14:27:57.988Z</time>
      </trkpt>
      <trkpt lat="43.99204" lon="5.9016">
        <ele>499</ele>
        <time>2020-10-05T14:27:58.988Z</time>
      </trkpt>
      <trkpt lat="43.99204" lon="5.90159">
        <ele>499</ele>
        <time>2020-10-05T14:27:59.988Z</time>
      </trkpt>
      <trkpt lat="43.99203" lon="5.90158">
        <ele>499</ele>
        <time>2020-10-05T14:28:00.988Z</time>
      </trkpt>
      <trkpt lat="43.99203" lon="5.90157">
        <ele>498</ele>
        <time>2020-10-05T14:28:01.988Z</time>
      </trkpt>
      <trkpt lat="43.99202" lon="5.90156">
        <ele>498</ele>
        <time>2020-10-05T14:28:02.988Z</time>
      </trkpt>
      <trkpt lat="43.99202" lon="5.90155">
        <ele>498</ele>
        <time>2020-10-05T14:28:03.988Z</time>
      </trkpt>
      <trkpt lat="43.99201" lon="5.90154">
        <ele>498</ele>
        <time>2020-10-05T14:28:04.988Z</time>
      </trkpt>
      <trkpt lat="43.99201" lon="5.90152">
        <ele>498</ele>
        <time>2020-10-05T14:28:05.988Z</time>
      </trkpt>
      <trkpt lat="43.992" lon="5.90151">
        <ele>498</ele>
        <time>2020-10-05T14:28:06.988Z</time>
      </trkpt>
      <trkpt lat="43.99199" lon="5.9015">
        <ele>498</ele>
        <time>2020-10-05T14:28:07.988Z</time>
      </trkpt>
      <trkpt lat="43.99198" lon="5.90148">
        <ele>498</ele>
        <time>2020-10-05T14:28:08.988Z</time>
      </trkpt>
      <trkpt lat="43.99198" lon="5.90147">
        <ele>498</ele>
        <time>2020-10-05T14:28:09.988Z</time>
      </trkpt>
      <trkpt lat="43.99198" lon="5.90146">
        <ele>498</ele>
        <time>2020-10-05T14:28:10.988Z</time>
      </trkpt>
      <trkpt lat="43.99198" lon="5.90145">
        <ele>498</ele>
        <time>2020-10-05T14:28:11.988Z</time>
      </trkpt>
      <trkpt lat="43.99198" lon="5.90144">
        <ele>497</ele>
        <time>2020-10-05T14:28:12.988Z</time>
      </trkpt>
      <trkpt lat="43.99199" lon="5.90142">
        <ele>497</ele>
        <time>2020-10-05T14:28:13.988Z</time>
      </trkpt>
      <trkpt lat="43.99199" lon="5.90141">
        <ele>497</ele>
        <time>2020-10-05T14:28:14.988Z</time>
      </trkpt>
      <trkpt lat="43.992" lon="5.9014">
        <ele>497</ele>
        <time>2020-10-05T14:28:15.988Z</time>
      </trkpt>
      <trkpt lat="43.992" lon="5.90139">
        <ele>497</ele>
        <time>2020-10-05T14:28:16.988Z</time>
      </trkpt>
      <trkpt lat="43.99201" lon="5.90138">
        <ele>496</ele>
        <time>2020-10-05T14:28:17.988Z</time>
      </trkpt>
      <trkpt lat="43.99201" lon="5.90137">
        <ele>496</ele>
        <time>2020-10-05T14:28:18.988Z</time>
      </trkpt>
      <trkpt lat="43.99201" lon="5.90137">
        <ele>496</ele>
        <time>2020-10-05T14:28:19.988Z</time>
      </trkpt>
      <trkpt lat="43.99202" lon="5.90136">
        <ele>496</ele>
        <time>2020-10-05T14:28:20.988Z</time>
      </trkpt>
      <trkpt lat="43.99202" lon="5.90136">
        <ele>496</ele>
        <time>2020-10-05T14:28:21.988Z</time>
      </trkpt>
      <trkpt lat="43.99202" lon="5.90135">
        <ele>496</ele>
        <time>2020-10-05T14:28:22.988Z</time>
      </trkpt>
      <trkpt lat="43.99202" lon="5.90135">
        <ele>496</ele>
        <time>2020-10-05T14:28:23.988Z</time>
      </trkpt>
      <trkpt lat="43.99203" lon="5.90134">
        <ele>496</ele>
        <time>2020-10-05T14:28:24.988Z</time>
      </trkpt>
      <trkpt lat="43.99204" lon="5.90134">
        <ele>496</ele>
        <time>2020-10-05T14:28:25.988Z</time>
      </trkpt>
      <trkpt lat="43.99204" lon="5.90133">
        <ele>496</ele>
        <time>2020-10-05T14:28:26.988Z</time>
      </trkpt>
      <trkpt lat="43.99206" lon="5.90132">
        <ele>496</ele>
        <time>2020-10-05T14:28:27.988Z</time>
      </trkpt>
      <trkpt lat="43.99207" lon="5.90132">
        <ele>496</ele>
        <time>2020-10-05T14:28:28.988Z</time>
      </trkpt>
      <trkpt lat="43.99207" lon="5.90131">
        <ele>496</ele>
        <time>2020-10-05T14:28:29.988Z</time>
      </trkpt>
      <trkpt lat="43.99208" lon="5.9013">
        <ele>495</ele>
        <time>2020-10-05T14:28:30.988Z</time>
      </trkpt>
      <trkpt lat="43.99209" lon="5.90129">
        <ele>495</ele>
        <time>2020-10-05T14:28:31.988Z</time>
      </trkpt>
      <trkpt lat="43.9921" lon="5.90129">
        <ele>495</ele>
        <time>2020-10-05T14:28:32.988Z</time>
      </trkpt>
      <trkpt lat="43.99211" lon="5.90129">
        <ele>495</ele>
        <time>2020-10-05T14:28:33.988Z</time>
      </trkpt>
      <trkpt lat="43.99212" lon="5.90128">
        <ele>495</ele>
        <time>2020-10-05T14:28:34.988Z</time>
      </trkpt>
      <trkpt lat="43.99213" lon="5.90128">
        <ele>495</ele>
        <time>2020-10-05T14:28:35.988Z</time>
      </trkpt>
      <trkpt lat="43.99213" lon="5.90128">
        <ele>495</ele>
        <time>2020-10-05T14:28:36.988Z</time>
      </trkpt>
      <trkpt lat="43.99214" lon="5.90127">
        <ele>495</ele>
        <time>2020-10-05T14:28:37.988Z</time>
      </trkpt>
      <trkpt lat="43.99215" lon="5.90127">
        <ele>495</ele>
        <time>2020-10-05T14:28:38.988Z</time>
      </trkpt>
      <trkpt lat="43.99216" lon="5.90126">
        <ele>495</ele>
        <time>2020-10-05T14:28:39.988Z</time>
      </trkpt>
      <trkpt lat="43.99217" lon="5.90126">
        <ele>495</ele>
        <time>2020-10-05T14:28:40.988Z</time>
      </trkpt>
      <trkpt lat="43.99218" lon="5.90125">
        <ele>495</ele>
        <time>2020-10-05T14:28:41.988Z</time>
      </trkpt>
      <trkpt lat="43.99219" lon="5.90124">
        <ele>495</ele>
        <time>2020-10-05T14:28:42.988Z</time>
      </trkpt>
      <trkpt lat="43.9922" lon="5.90123">
        <ele>495</ele>
        <time>2020-10-05T14:28:43.988Z</time>
      </trkpt>
      <trkpt lat="43.99221" lon="5.90123">
        <ele>495</ele>
        <time>2020-10-05T14:28:44.988Z</time>
      </trkpt>
      <trkpt lat="43.99222" lon="5.90122">
        <ele>495</ele>
        <time>2020-10-05T14:28:45.988Z</time>
      </trkpt>
      <trkpt lat="43.99222" lon="5.90121">
        <ele>495</ele>
        <time>2020-10-05T14:28:46.988Z</time>
      </trkpt>
      <trkpt lat="43.99223" lon="5.9012">
        <ele>495</ele>
        <time>2020-10-05T14:28:47.988Z</time>
      </trkpt>
      <trkpt lat="43.99224" lon="5.9012">
        <ele>495</ele>
        <time>2020-10-05T14:28:48.988Z</time>
      </trkpt>
      <trkpt lat="43.99224" lon="5.90119">
        <ele>495</ele>
        <time>2020-10-05T14:28:49.988Z</time>
      </trkpt>
      <trkpt lat="43.99225" lon="5.90118">
        <ele>495</ele>
        <time>2020-10-05T14:28:50.988Z</time>
      </trkpt>
      <trkpt lat="43.99226" lon="5.90117">
        <ele>495</ele>
        <time>2020-10-05T14:28:51.988Z</time>
      </trkpt>
      <trkpt lat="43.99226" lon="5.90117">
        <ele>495</ele>
        <time>2020-10-05T14:28:52.988Z</time>
      </trkpt>
      <trkpt lat="43.99227" lon="5.90116">
        <ele>495</ele>
        <time>2020-10-05T14:28:53.988Z</time>
      </trkpt>
      <trkpt lat="43.99227" lon="5.90115">
        <ele>495</ele>
        <time>2020-10-05T14:28:54.988Z</time>
      </trkpt>
      <trkpt lat="43.99228" lon="5.90115">
        <ele>495</ele>
        <time>2020-10-05T14:28:55.988Z</time>
      </trkpt>
      <trkpt lat="43.99229" lon="5.90114">
        <ele>495</ele>
        <time>2020-10-05T14:28:56.988Z</time>
      </trkpt>
      <trkpt lat="43.99229" lon="5.90113">
        <ele>495</ele>
        <time>2020-10-05T14:28:57.988Z</time>
      </trkpt>
      <trkpt lat="43.9923" lon="5.90112">
        <ele>495</ele>
        <time>2020-10-05T14:28:58.988Z</time>
      </trkpt>
      <trkpt lat="43.99231" lon="5.90111">
        <ele>495</ele>
        <time>2020-10-05T14:28:59.988Z</time>
      </trkpt>
      <trkpt lat="43.99231" lon="5.90111">
        <ele>495</ele>
        <time>2020-10-05T14:29:00.988Z</time>
      </trkpt>
      <trkpt lat="43.99232" lon="5.9011">
        <ele>495</ele>
        <time>2020-10-05T14:29:01.988Z</time>
      </trkpt>
      <trkpt lat="43.99233" lon="5.90109">
        <ele>495</ele>
        <time>2020-10-05T14:29:02.988Z</time>
      </trkpt>
      <trkpt lat="43.99234" lon="5.90109">
        <ele>495</ele>
        <time>2020-10-05T14:29:03.988Z</time>
      </trkpt>
      <trkpt lat="43.99235" lon="5.90108">
        <ele>495</ele>
        <time>2020-10-05T14:29:04.988Z</time>
      </trkpt>
      <trkpt lat="43.99235" lon="5.90107">
        <ele>496</ele>
        <time>2020-10-05T14:29:05.988Z</time>
      </trkpt>
      <trkpt lat="43.99236" lon="5.90106">
        <ele>496</ele>
        <time>2020-10-05T14:29:06.988Z</time>
      </trkpt>
      <trkpt lat="43.99237" lon="5.90105">
        <ele>496</ele>
        <time>2020-10-05T14:29:07.988Z</time>
      </trkpt>
      <trkpt lat="43.99237" lon="5.90105">
        <ele>496</ele>
        <time>2020-10-05T14:29:08.988Z</time>
      </trkpt>
      <trkpt lat="43.99238" lon="5.90104">
        <ele>496</ele>
        <time>2020-10-05T14:29:09.988Z</time>
      </trkpt>
      <trkpt lat="43.99239" lon="5.90103">
        <ele>496</ele>
        <time>2020-10-05T14:29:10.988Z</time>
      </trkpt>
      <trkpt lat="43.9924" lon="5.90103">
        <ele>496</ele>
        <time>2020-10-05T14:29:11.988Z</time>
      </trkpt>
      <trkpt lat="43.9924" lon="5.90102">
        <ele>496</ele>
        <time>2020-10-05T14:29:12.988Z</time>
      </trkpt>
      <trkpt lat="43.9924" lon="5.90101">
        <ele>496</ele>
        <time>2020-10-05T14:29:13.988Z</time>
      </trkpt>
      <trkpt lat="43.99241" lon="5.90101">
        <ele>496</ele>
        <time>2020-10-05T14:29:14.988Z</time>
      </trkpt>
      <trkpt lat="43.99242" lon="5.90099">
        <ele>496</ele>
        <time>2020-10-05T14:29:15.988Z</time>
      </trkpt>
      <trkpt lat="43.99242" lon="5.90099">
        <ele>496</ele>
        <time>2020-10-05T14:29:16.988Z</time>
      </trkpt>
      <trkpt lat="43.99243" lon="5.90098">
        <ele>496</ele>
        <time>2020-10-05T14:29:17.988Z</time>
      </trkpt>
      <trkpt lat="43.99244" lon="5.90097">
        <ele>496</ele>
        <time>2020-10-05T14:29:18.988Z</time>
      </trkpt>
      <trkpt lat="43.99245" lon="5.90096">
        <ele>496</ele>
        <time>2020-10-05T14:29:19.988Z</time>
      </trkpt>
      <trkpt lat="43.99246" lon="5.90096">
        <ele>496</ele>
        <time>2020-10-05T14:29:20.988Z</time>
      </trkpt>
      <trkpt lat="43.99247" lon="5.90095">
        <ele>496</ele>
        <time>2020-10-05T14:29:21.988Z</time>
      </trkpt>
      <trkpt lat="43.99247" lon="5.90094">
        <ele>496</ele>
        <time>2020-10-05T14:29:22.988Z</time>
      </trkpt>
      <trkpt lat="43.99248" lon="5.90093">
        <ele>496</ele>
        <time>2020-10-05T14:29:23.988Z</time>
      </trkpt>
      <trkpt lat="43.99248" lon="5.90092">
        <ele>496</ele>
        <time>2020-10-05T14:29:24.988Z</time>
      </trkpt>
      <trkpt lat="43.99249" lon="5.90091">
        <ele>496</ele>
        <time>2020-10-05T14:29:25.988Z</time>
      </trkpt>
      <trkpt lat="43.9925" lon="5.9009">
        <ele>496</ele>
        <time>2020-10-05T14:29:26.988Z</time>
      </trkpt>
      <trkpt lat="43.99251" lon="5.90089">
        <ele>496</ele>
        <time>2020-10-05T14:29:27.988Z</time>
      </trkpt>
      <trkpt lat="43.99252" lon="5.90088">
        <ele>496</ele>
        <time>2020-10-05T14:29:28.988Z</time>
      </trkpt>
      <trkpt lat="43.99252" lon="5.90087">
        <ele>496</ele>
        <time>2020-10-05T14:29:29.988Z</time>
      </trkpt>
      <trkpt lat="43.99253" lon="5.90086">
        <ele>496</ele>
        <time>2020-10-05T14:29:30.988Z</time>
      </trkpt>
      <trkpt lat="43.99253" lon="5.90085">
        <ele>496</ele>
        <time>2020-10-05T14:29:31.988Z</time>
      </trkpt>
      <trkpt lat="43.99254" lon="5.90084">
        <ele>495</ele>
        <time>2020-10-05T14:29:32.988Z</time>
      </trkpt>
      <trkpt lat="43.99254" lon="5.90083">
        <ele>495</ele>
        <time>2020-10-05T14:29:33.988Z</time>
      </trkpt>
      <trkpt lat="43.99255" lon="5.90083">
        <ele>495</ele>
        <time>2020-10-05T14:29:34.988Z</time>
      </trkpt>
      <trkpt lat="43.99255" lon="5.90081">
        <ele>495</ele>
        <time>2020-10-05T14:29:35.988Z</time>
      </trkpt>
      <trkpt lat="43.99256" lon="5.9008">
        <ele>495</ele>
        <time>2020-10-05T14:29:36.988Z</time>
      </trkpt>
      <trkpt lat="43.99256" lon="5.90079">
        <ele>495</ele>
        <time>2020-10-05T14:29:37.988Z</time>
      </trkpt>
      <trkpt lat="43.99257" lon="5.90078">
        <ele>495</ele>
        <time>2020-10-05T14:29:38.988Z</time>
      </trkpt>
      <trkpt lat="43.99258" lon="5.90077">
        <ele>495</ele>
        <time>2020-10-05T14:29:39.988Z</time>
      </trkpt>
      <trkpt lat="43.99259" lon="5.90076">
        <ele>494</ele>
        <time>2020-10-05T14:29:40.988Z</time>
      </trkpt>
      <trkpt lat="43.99259" lon="5.90075">
        <ele>494</ele>
        <time>2020-10-05T14:29:41.988Z</time>
      </trkpt>
      <trkpt lat="43.9926" lon="5.90073">
        <ele>494</ele>
        <time>2020-10-05T14:29:42.988Z</time>
      </trkpt>
      <trkpt lat="43.9926" lon="5.90072">
        <ele>494</ele>
        <time>2020-10-05T14:29:43.988Z</time>
      </trkpt>
      <trkpt lat="43.9926" lon="5.90071">
        <ele>494</ele>
        <time>2020-10-05T14:29:44.988Z</time>
      </trkpt>
      <trkpt lat="43.99261" lon="5.9007">
        <ele>494</ele>
        <time>2020-10-05T14:29:45.988Z</time>
      </trkpt>
      <trkpt lat="43.99261" lon="5.90068">
        <ele>493</ele>
        <time>2020-10-05T14:29:46.988Z</time>
      </trkpt>
      <trkpt lat="43.99261" lon="5.90067">
        <ele>493</ele>
        <time>2020-10-05T14:29:47.988Z</time>
      </trkpt>
      <trkpt lat="43.99261" lon="5.90066">
        <ele>493</ele>
        <time>2020-10-05T14:29:48.988Z</time>
      </trkpt>
      <trkpt lat="43.99261" lon="5.90065">
        <ele>493</ele>
        <time>2020-10-05T14:29:49.988Z</time>
      </trkpt>
      <trkpt lat="43.99262" lon="5.90064">
        <ele>492</ele>
        <time>2020-10-05T14:29:50.988Z</time>
      </trkpt>
      <trkpt lat="43.99262" lon="5.90064">
        <ele>492</ele>
        <time>2020-10-05T14:29:51.988Z</time>
      </trkpt>
      <trkpt lat="43.99262" lon="5.90063">
        <ele>492</ele>
        <time>2020-10-05T14:29:52.988Z</time>
      </trkpt>
      <trkpt lat="43.99263" lon="5.90062">
        <ele>492</ele>
        <time>2020-10-05T14:29:53.988Z</time>
      </trkpt>
      <trkpt lat="43.99263" lon="5.90061">
        <ele>492</ele>
        <time>2020-10-05T14:29:54.988Z</time>
      </trkpt>
      <trkpt lat="43.99263" lon="5.90061">
        <ele>492</ele>
        <time>2020-10-05T14:29:55.988Z</time>
      </trkpt>
      <trkpt lat="43.99263" lon="5.90059">
        <ele>491</ele>
        <time>2020-10-05T14:29:56.988Z</time>
      </trkpt>
      <trkpt lat="43.99263" lon="5.90058">
        <ele>491</ele>
        <time>2020-10-05T14:29:57.988Z</time>
      </trkpt>
      <trkpt lat="43.99263" lon="5.90057">
        <ele>491</ele>
        <time>2020-10-05T14:29:58.988Z</time>
      </trkpt>
      <trkpt lat="43.99262" lon="5.90056">
        <ele>491</ele>
        <time>2020-10-05T14:29:59.988Z</time>
      </trkpt>
      <trkpt lat="43.99262" lon="5.90055">
        <ele>491</ele>
        <time>2020-10-05T14:30:00.988Z</time>
      </trkpt>
      <trkpt lat="43.99261" lon="5.90054">
        <ele>491</ele>
        <time>2020-10-05T14:30:01.988Z</time>
      </trkpt>
      <trkpt lat="43.99261" lon="5.90053">
        <ele>491</ele>
        <time>2020-10-05T14:30:02.988Z</time>
      </trkpt>
      <trkpt lat="43.9926" lon="5.90053">
        <ele>490</ele>
        <time>2020-10-05T14:30:03.988Z</time>
      </trkpt>
      <trkpt lat="43.99259" lon="5.90052">
        <ele>490</ele>
        <time>2020-10-05T14:30:04.988Z</time>
      </trkpt>
      <trkpt lat="43.99259" lon="5.90052">
        <ele>490</ele>
        <time>2020-10-05T14:30:05.988Z</time>
      </trkpt>
      <trkpt lat="43.99258" lon="5.90052">
        <ele>490</ele>
        <time>2020-10-05T14:30:06.988Z</time>
      </trkpt>
      <trkpt lat="43.99258" lon="5.90051">
        <ele>490</ele>
        <time>2020-10-05T14:30:07.988Z</time>
      </trkpt>
      <trkpt lat="43.99257" lon="5.90051">
        <ele>490</ele>
        <time>2020-10-05T14:30:08.988Z</time>
      </trkpt>
      <trkpt lat="43.99257" lon="5.90051">
        <ele>490</ele>
        <time>2020-10-05T14:30:09.988Z</time>
      </trkpt>
      <trkpt lat="43.99256" lon="5.90052">
        <ele>490</ele>
        <time>2020-10-05T14:30:10.988Z</time>
      </trkpt>
      <trkpt lat="43.99256" lon="5.90052">
        <ele>490</ele>
        <time>2020-10-05T14:30:11.988Z</time>
      </trkpt>
      <trkpt lat="43.99255" lon="5.90052">
        <ele>490</ele>
        <time>2020-10-05T14:30:12.988Z</time>
      </trkpt>
      <trkpt lat="43.99254" lon="5.90053">
        <ele>490</ele>
        <time>2020-10-05T14:30:13.988Z</time>
      </trkpt>
      <trkpt lat="43.99254" lon="5.90053">
        <ele>490</ele>
        <time>2020-10-05T14:30:14.988Z</time>
      </trkpt>
      <trkpt lat="43.99253" lon="5.90054">
        <ele>490</ele>
        <time>2020-10-05T14:30:15.988Z</time>
      </trkpt>
      <trkpt lat="43.99253" lon="5.90054">
        <ele>490</ele>
        <time>2020-10-05T14:30:16.988Z</time>
      </trkpt>
      <trkpt lat="43.99252" lon="5.90054">
        <ele>490</ele>
        <time>2020-10-05T14:30:17.988Z</time>
      </trkpt>
      <trkpt lat="43.99251" lon="5.90054">
        <ele>490</ele>
        <time>2020-10-05T14:30:18.988Z</time>
      </trkpt>
      <trkpt lat="43.9925" lon="5.90054">
        <ele>490</ele>
        <time>2020-10-05T14:30:19.988Z</time>
      </trkpt>
      <trkpt lat="43.99249" lon="5.90055">
        <ele>490</ele>
        <time>2020-10-05T14:30:20.988Z</time>
      </trkpt>
      <trkpt lat="43.99248" lon="5.90055">
        <ele>489</ele>
        <time>2020-10-05T14:30:21.988Z</time>
      </trkpt>
      <trkpt lat="43.99246" lon="5.90056">
        <ele>489</ele>
        <time>2020-10-05T14:30:22.988Z</time>
      </trkpt>
      <trkpt lat="43.99245" lon="5.90057">
        <ele>489</ele>
        <time>2020-10-05T14:30:23.988Z</time>
      </trkpt>
      <trkpt lat="43.99244" lon="5.90057">
        <ele>489</ele>
        <time>2020-10-05T14:30:24.988Z</time>
      </trkpt>
      <trkpt lat="43.99243" lon="5.90058">
        <ele>489</ele>
        <time>2020-10-05T14:30:25.988Z</time>
      </trkpt>
      <trkpt lat="43.99242" lon="5.90058">
        <ele>489</ele>
        <time>2020-10-05T14:30:26.988Z</time>
      </trkpt>
      <trkpt lat="43.9924" lon="5.90059">
        <ele>489</ele>
        <time>2020-10-05T14:30:27.988Z</time>
      </trkpt>
      <trkpt lat="43.99239" lon="5.9006">
        <ele>489</ele>
        <time>2020-10-05T14:30:28.988Z</time>
      </trkpt>
      <trkpt lat="43.99238" lon="5.9006">
        <ele>489</ele>
        <time>2020-10-05T14:30:29.988Z</time>
      </trkpt>
      <trkpt lat="43.99237" lon="5.90061">
        <ele>489</ele>
        <time>2020-10-05T14:30:30.988Z</time>
      </trkpt>
      <trkpt lat="43.99236" lon="5.90062">
        <ele>489</ele>
        <time>2020-10-05T14:30:31.988Z</time>
      </trkpt>
      <trkpt lat="43.99234" lon="5.90062">
        <ele>489</ele>
        <time>2020-10-05T14:30:32.988Z</time>
      </trkpt>
      <trkpt lat="43.99233" lon="5.90062">
        <ele>489</ele>
        <time>2020-10-05T14:30:33.988Z</time>
      </trkpt>
      <trkpt lat="43.99232" lon="5.90063">
        <ele>489</ele>
        <time>2020-10-05T14:30:34.988Z</time>
      </trkpt>
      <trkpt lat="43.99231" lon="5.90063">
        <ele>489</ele>
        <time>2020-10-05T14:30:35.988Z</time>
      </trkpt>
      <trkpt lat="43.9923" lon="5.90063">
        <ele>489</ele>
        <time>2020-10-05T14:30:36.988Z</time>
      </trkpt>
      <trkpt lat="43.99229" lon="5.90064">
        <ele>489</ele>
        <time>2020-10-05T14:30:37.988Z</time>
      </trkpt>
      <trkpt lat="43.99228" lon="5.90064">
        <ele>489</ele>
        <time>2020-10-05T14:30:38.988Z</time>
      </trkpt>
      <trkpt lat="43.99227" lon="5.90064">
        <ele>489</ele>
        <time>2020-10-05T14:30:39.988Z</time>
      </trkpt>
      <trkpt lat="43.99227" lon="5.90064">
        <ele>489</ele>
        <time>2020-10-05T14:30:40.988Z</time>
      </trkpt>
      <trkpt lat="43.99226" lon="5.90064">
        <ele>489</ele>
        <time>2020-10-05T14:30:41.988Z</time>
      </trkpt>
      <trkpt lat="43.99225" lon="5.90065">
        <ele>489</ele>
        <time>2020-10-05T14:30:42.988Z</time>
      </trkpt>
      <trkpt lat="43.99225" lon="5.90065">
        <ele>489</ele>
        <time>2020-10-05T14:30:43.988Z</time>
      </trkpt>
      <trkpt lat="43.99224" lon="5.90065">
        <ele>489</ele>
        <time>2020-10-05T14:30:44.988Z</time>
      </trkpt>
      <trkpt lat="43.99223" lon="5.90065">
        <ele>488</ele>
        <time>2020-10-05T14:30:45.988Z</time>
      </trkpt>
      <trkpt lat="43.99222" lon="5.90065">
        <ele>488</ele>
        <time>2020-10-05T14:30:46.988Z</time>
      </trkpt>
      <trkpt lat="43.99221" lon="5.90065">
        <ele>488</ele>
        <time>2020-10-05T14:30:47.988Z</time>
      </trkpt>
      <trkpt lat="43.9922" lon="5.90065">
        <ele>488</ele>
        <time>2020-10-05T14:30:48.988Z</time>
      </trkpt>
      <trkpt lat="43.99219" lon="5.90065">
        <ele>488</ele>
        <time>2020-10-05T14:30:49.988Z</time>
      </trkpt>
      <trkpt lat="43.99218" lon="5.90065">
        <ele>488</ele>
        <time>2020-10-05T14:30:50.988Z</time>
      </trkpt>
      <trkpt lat="43.99217" lon="5.90065">
        <ele>488</ele>
        <time>2020-10-05T14:30:51.988Z</time>
      </trkpt>
      <trkpt lat="43.99217" lon="5.90065">
        <ele>488</ele>
        <time>2020-10-05T14:30:52.988Z</time>
      </trkpt>
      <trkpt lat="43.99216" lon="5.90064">
        <ele>488</ele>
        <time>2020-10-05T14:30:53.988Z</time>
      </trkpt>
      <trkpt lat="43.99216" lon="5.90064">
        <ele>487</ele>
        <time>2020-10-05T14:30:54.988Z</time>
      </trkpt>
      <trkpt lat="43.99215" lon="5.90064">
        <ele>487</ele>
        <time>2020-10-05T14:30:55.988Z</time>
      </trkpt>
      <trkpt lat="43.99214" lon="5.90064">
        <ele>487</ele>
        <time>2020-10-05T14:30:56.988Z</time>
      </trkpt>
      <trkpt lat="43.99214" lon="5.90064">
        <ele>487</ele>
        <time>2020-10-05T14:30:57.988Z</time>
      </trkpt>
      <trkpt lat="43.99213" lon="5.90064">
        <ele>487</ele>
        <time>2020-10-05T14:30:58.988Z</time>
      </trkpt>
      <trkpt lat="43.99212" lon="5.90064">
        <ele>487</ele>
        <time>2020-10-05T14:30:59.988Z</time>
      </trkpt>
      <trkpt lat="43.99211" lon="5.90064">
        <ele>487</ele>
        <time>2020-10-05T14:31:00.988Z</time>
      </trkpt>
      <trkpt lat="43.9921" lon="5.90065">
        <ele>487</ele>
        <time>2020-10-05T14:31:01.988Z</time>
      </trkpt>
      <trkpt lat="43.99209" lon="5.90065">
        <ele>487</ele>
        <time>2020-10-05T14:31:02.988Z</time>
      </trkpt>
      <trkpt lat="43.99208" lon="5.90065">
        <ele>487</ele>
        <time>2020-10-05T14:31:03.988Z</time>
      </trkpt>
      <trkpt lat="43.99206" lon="5.90066">
        <ele>487</ele>
        <time>2020-10-05T14:31:04.988Z</time>
      </trkpt>
      <trkpt lat="43.99205" lon="5.90066">
        <ele>486</ele>
        <time>2020-10-05T14:31:05.988Z</time>
      </trkpt>
      <trkpt lat="43.99205" lon="5.90066">
        <ele>486</ele>
        <time>2020-10-05T14:31:06.988Z</time>
      </trkpt>
      <trkpt lat="43.99204" lon="5.90066">
        <ele>486</ele>
        <time>2020-10-05T14:31:07.988Z</time>
      </trkpt>
      <trkpt lat="43.99203" lon="5.90066">
        <ele>486</ele>
        <time>2020-10-05T14:31:08.988Z</time>
      </trkpt>
      <trkpt lat="43.99202" lon="5.90066">
        <ele>486</ele>
        <time>2020-10-05T14:31:09.988Z</time>
      </trkpt>
      <trkpt lat="43.99201" lon="5.90067">
        <ele>486</ele>
        <time>2020-10-05T14:31:10.988Z</time>
      </trkpt>
      <trkpt lat="43.992" lon="5.90067">
        <ele>486</ele>
        <time>2020-10-05T14:31:11.988Z</time>
      </trkpt>
      <trkpt lat="43.99199" lon="5.90067">
        <ele>485</ele>
        <time>2020-10-05T14:31:12.988Z</time>
      </trkpt>
      <trkpt lat="43.99197" lon="5.90066">
        <ele>485</ele>
        <time>2020-10-05T14:31:13.988Z</time>
      </trkpt>
      <trkpt lat="43.99196" lon="5.90066">
        <ele>485</ele>
        <time>2020-10-05T14:31:14.988Z</time>
      </trkpt>
      <trkpt lat="43.99195" lon="5.90065">
        <ele>485</ele>
        <time>2020-10-05T14:31:15.988Z</time>
      </trkpt>
      <trkpt lat="43.99194" lon="5.90065">
        <ele>485</ele>
        <time>2020-10-05T14:31:16.988Z</time>
      </trkpt>
      <trkpt lat="43.99193" lon="5.90064">
        <ele>485</ele>
        <time>2020-10-05T14:31:17.988Z</time>
      </trkpt>
      <trkpt lat="43.99193" lon="5.90064">
        <ele>484</ele>
        <time>2020-10-05T14:31:18.988Z</time>
      </trkpt>
      <trkpt lat="43.99192" lon="5.90063">
        <ele>484</ele>
        <time>2020-10-05T14:31:19.988Z</time>
      </trkpt>
      <trkpt lat="43.99191" lon="5.90062">
        <ele>484</ele>
        <time>2020-10-05T14:31:20.988Z</time>
      </trkpt>
      <trkpt lat="43.9919" lon="5.90061">
        <ele>484</ele>
        <time>2020-10-05T14:31:21.988Z</time>
      </trkpt>
      <trkpt lat="43.99189" lon="5.9006">
        <ele>483</ele>
        <time>2020-10-05T14:31:22.988Z</time>
      </trkpt>
      <trkpt lat="43.99189" lon="5.90059">
        <ele>483</ele>
        <time>2020-10-05T14:31:23.988Z</time>
      </trkpt>
      <trkpt lat="43.99188" lon="5.90059">
        <ele>483</ele>
        <time>2020-10-05T14:31:24.988Z</time>
      </trkpt>
      <trkpt lat="43.99187" lon="5.90058">
        <ele>483</ele>
        <time>2020-10-05T14:31:25.988Z</time>
      </trkpt>
      <trkpt lat="43.99186" lon="5.90058">
        <ele>483</ele>
        <time>2020-10-05T14:31:26.988Z</time>
      </trkpt>
      <trkpt lat="43.99186" lon="5.90057">
        <ele>482</ele>
        <time>2020-10-05T14:31:27.988Z</time>
      </trkpt>
      <trkpt lat="43.99185" lon="5.90056">
        <ele>482</ele>
        <time>2020-10-05T14:31:28.988Z</time>
      </trkpt>
      <trkpt lat="43.99184" lon="5.90055">
        <ele>482</ele>
        <time>2020-10-05T14:31:29.988Z</time>
      </trkpt>
      <trkpt lat="43.99183" lon="5.90054">
        <ele>482</ele>
        <time>2020-10-05T14:31:30.988Z</time>
      </trkpt>
      <trkpt lat="43.99182" lon="5.90053">
        <ele>482</ele>
        <time>2020-10-05T14:31:31.988Z</time>
      </trkpt>
      <trkpt lat="43.99181" lon="5.90052">
        <ele>482</ele>
        <time>2020-10-05T14:31:32.988Z</time>
      </trkpt>
      <trkpt lat="43.99181" lon="5.90052">
        <ele>481</ele>
        <time>2020-10-05T14:31:33.988Z</time>
      </trkpt>
      <trkpt lat="43.9918" lon="5.90051">
        <ele>481</ele>
        <time>2020-10-05T14:31:34.988Z</time>
      </trkpt>
      <trkpt lat="43.99179" lon="5.9005">
        <ele>481</ele>
        <time>2020-10-05T14:31:35.988Z</time>
      </trkpt>
      <trkpt lat="43.99179" lon="5.9005">
        <ele>481</ele>
        <time>2020-10-05T14:31:36.988Z</time>
      </trkpt>
      <trkpt lat="43.99178" lon="5.90049">
        <ele>481</ele>
        <time>2020-10-05T14:31:37.988Z</time>
      </trkpt>
      <trkpt lat="43.99177" lon="5.90048">
        <ele>480</ele>
        <time>2020-10-05T14:31:38.988Z</time>
      </trkpt>
      <trkpt lat="43.99176" lon="5.90048">
        <ele>480</ele>
        <time>2020-10-05T14:31:39.988Z</time>
      </trkpt>
      <trkpt lat="43.99175" lon="5.90047">
        <ele>480</ele>
        <time>2020-10-05T14:31:40.988Z</time>
      </trkpt>
      <trkpt lat="43.99175" lon="5.90046">
        <ele>480</ele>
        <time>2020-10-05T14:31:41.988Z</time>
      </trkpt>
      <trkpt lat="43.99173" lon="5.90045">
        <ele>480</ele>
        <time>2020-10-05T14:31:42.988Z</time>
      </trkpt>
      <trkpt lat="43.99172" lon="5.90044">
        <ele>480</ele>
        <time>2020-10-05T14:31:43.988Z</time>
      </trkpt>
      <trkpt lat="43.99171" lon="5.90044">
        <ele>480</ele>
        <time>2020-10-05T14:31:44.988Z</time>
      </trkpt>
      <trkpt lat="43.9917" lon="5.90044">
        <ele>479</ele>
        <time>2020-10-05T14:31:45.988Z</time>
      </trkpt>
      <trkpt lat="43.9917" lon="5.90044">
        <ele>479</ele>
        <time>2020-10-05T14:31:46.988Z</time>
      </trkpt>
      <trkpt lat="43.99169" lon="5.90044">
        <ele>479</ele>
        <time>2020-10-05T14:31:47.988Z</time>
      </trkpt>
      <trkpt lat="43.99169" lon="5.90044">
        <ele>479</ele>
        <time>2020-10-05T14:31:48.988Z</time>
      </trkpt>
      <trkpt lat="43.99169" lon="5.90044">
        <ele>479</ele>
        <time>2020-10-05T14:31:49.988Z</time>
      </trkpt>
      <trkpt lat="43.99168" lon="5.90044">
        <ele>478</ele>
        <time>2020-10-05T14:31:50.988Z</time>
      </trkpt>
      <trkpt lat="43.99168" lon="5.90044">
        <ele>478</ele>
        <time>2020-10-05T14:31:51.988Z</time>
      </trkpt>
      <trkpt lat="43.99168" lon="5.90044">
        <ele>478</ele>
        <time>2020-10-05T14:31:52.988Z</time>
      </trkpt>
      <trkpt lat="43.99167" lon="5.90044">
        <ele>478</ele>
        <time>2020-10-05T14:31:53.988Z</time>
      </trkpt>
      <trkpt lat="43.99166" lon="5.90044">
        <ele>477</ele>
        <time>2020-10-05T14:31:54.988Z</time>
      </trkpt>
      <trkpt lat="43.99165" lon="5.90043">
        <ele>477</ele>
        <time>2020-10-05T14:31:55.988Z</time>
      </trkpt>
      <trkpt lat="43.99165" lon="5.90043">
        <ele>477</ele>
        <time>2020-10-05T14:31:56.988Z</time>
      </trkpt>
      <trkpt lat="43.99164" lon="5.90042">
        <ele>477</ele>
        <time>2020-10-05T14:31:57.988Z</time>
      </trkpt>
      <trkpt lat="43.99163" lon="5.90041">
        <ele>477</ele>
        <time>2020-10-05T14:31:58.988Z</time>
      </trkpt>
      <trkpt lat="43.99163" lon="5.90041">
        <ele>477</ele>
        <time>2020-10-05T14:31:59.988Z</time>
      </trkpt>
      <trkpt lat="43.99162" lon="5.9004">
        <ele>476</ele>
        <time>2020-10-05T14:32:00.988Z</time>
      </trkpt>
      <trkpt lat="43.99162" lon="5.90039">
        <ele>476</ele>
        <time>2020-10-05T14:32:01.988Z</time>
      </trkpt>
      <trkpt lat="43.99161" lon="5.90038">
        <ele>476</ele>
        <time>2020-10-05T14:32:02.988Z</time>
      </trkpt>
      <trkpt lat="43.9916" lon="5.90037">
        <ele>476</ele>
        <time>2020-10-05T14:32:03.988Z</time>
      </trkpt>
      <trkpt lat="43.9916" lon="5.90037">
        <ele>475</ele>
        <time>2020-10-05T14:32:04.988Z</time>
      </trkpt>
      <trkpt lat="43.99159" lon="5.90036">
        <ele>475</ele>
        <time>2020-10-05T14:32:05.988Z</time>
      </trkpt>
      <trkpt lat="43.99158" lon="5.90036">
        <ele>475</ele>
        <time>2020-10-05T14:32:06.988Z</time>
      </trkpt>
      <trkpt lat="43.99157" lon="5.90035">
        <ele>475</ele>
        <time>2020-10-05T14:32:07.988Z</time>
      </trkpt>
      <trkpt lat="43.99156" lon="5.90034">
        <ele>475</ele>
        <time>2020-10-05T14:32:08.988Z</time>
      </trkpt>
      <trkpt lat="43.99155" lon="5.90033">
        <ele>475</ele>
        <time>2020-10-05T14:32:09.988Z</time>
      </trkpt>
      <trkpt lat="43.99154" lon="5.90032">
        <ele>474</ele>
        <time>2020-10-05T14:32:10.988Z</time>
      </trkpt>
      <trkpt lat="43.99153" lon="5.90031">
        <ele>474</ele>
        <time>2020-10-05T14:32:11.988Z</time>
      </trkpt>
      <trkpt lat="43.99152" lon="5.90031">
        <ele>474</ele>
        <time>2020-10-05T14:32:12.988Z</time>
      </trkpt>
      <trkpt lat="43.99151" lon="5.9003">
        <ele>474</ele>
        <time>2020-10-05T14:32:13.988Z</time>
      </trkpt>
      <trkpt lat="43.99151" lon="5.90029">
        <ele>474</ele>
        <time>2020-10-05T14:32:14.988Z</time>
      </trkpt>
      <trkpt lat="43.9915" lon="5.90028">
        <ele>474</ele>
        <time>2020-10-05T14:32:15.988Z</time>
      </trkpt>
      <trkpt lat="43.99149" lon="5.90026">
        <ele>473</ele>
        <time>2020-10-05T14:32:16.988Z</time>
      </trkpt>
      <trkpt lat="43.99149" lon="5.90025">
        <ele>473</ele>
        <time>2020-10-05T14:32:17.988Z</time>
      </trkpt>
      <trkpt lat="43.99148" lon="5.90024">
        <ele>473</ele>
        <time>2020-10-05T14:32:18.988Z</time>
      </trkpt>
      <trkpt lat="43.99147" lon="5.90023">
        <ele>472</ele>
        <time>2020-10-05T14:32:19.988Z</time>
      </trkpt>
      <trkpt lat="43.99146" lon="5.90022">
        <ele>472</ele>
        <time>2020-10-05T14:32:20.988Z</time>
      </trkpt>
      <trkpt lat="43.99146" lon="5.9002">
        <ele>472</ele>
        <time>2020-10-05T14:32:21.988Z</time>
      </trkpt>
      <trkpt lat="43.99145" lon="5.90019">
        <ele>472</ele>
        <time>2020-10-05T14:32:22.988Z</time>
      </trkpt>
      <trkpt lat="43.99144" lon="5.90018">
        <ele>472</ele>
        <time>2020-10-05T14:32:23.988Z</time>
      </trkpt>
      <trkpt lat="43.99144" lon="5.90018">
        <ele>471</ele>
        <time>2020-10-05T14:32:24.988Z</time>
      </trkpt>
      <trkpt lat="43.99143" lon="5.90017">
        <ele>471</ele>
        <time>2020-10-05T14:32:25.988Z</time>
      </trkpt>
      <trkpt lat="43.99142" lon="5.90016">
        <ele>471</ele>
        <time>2020-10-05T14:32:26.988Z</time>
      </trkpt>
      <trkpt lat="43.99142" lon="5.90015">
        <ele>471</ele>
        <time>2020-10-05T14:32:27.988Z</time>
      </trkpt>
      <trkpt lat="43.99141" lon="5.90015">
        <ele>471</ele>
        <time>2020-10-05T14:32:28.988Z</time>
      </trkpt>
      <trkpt lat="43.9914" lon="5.90014">
        <ele>470</ele>
        <time>2020-10-05T14:32:29.988Z</time>
      </trkpt>
      <trkpt lat="43.99139" lon="5.90014">
        <ele>470</ele>
        <time>2020-10-05T14:32:30.988Z</time>
      </trkpt>
      <trkpt lat="43.99138" lon="5.90013">
        <ele>470</ele>
        <time>2020-10-05T14:32:31.988Z</time>
      </trkpt>
      <trkpt lat="43.99137" lon="5.90013">
        <ele>470</ele>
        <time>2020-10-05T14:32:32.988Z</time>
      </trkpt>
      <trkpt lat="43.99136" lon="5.90013">
        <ele>470</ele>
        <time>2020-10-05T14:32:33.988Z</time>
      </trkpt>
      <trkpt lat="43.99135" lon="5.90013">
        <ele>470</ele>
        <time>2020-10-05T14:32:34.988Z</time>
      </trkpt>
      <trkpt lat="43.99134" lon="5.90012">
        <ele>470</ele>
        <time>2020-10-05T14:32:35.988Z</time>
      </trkpt>
      <trkpt lat="43.99133" lon="5.90012">
        <ele>470</ele>
        <time>2020-10-05T14:32:36.988Z</time>
      </trkpt>
      <trkpt lat="43.99132" lon="5.90011">
        <ele>470</ele>
        <time>2020-10-05T14:32:37.988Z</time>
      </trkpt>
      <trkpt lat="43.99131" lon="5.90011">
        <ele>469</ele>
        <time>2020-10-05T14:32:38.988Z</time>
      </trkpt>
      <trkpt lat="43.9913" lon="5.9001">
        <ele>469</ele>
        <time>2020-10-05T14:32:39.988Z</time>
      </trkpt>
      <trkpt lat="43.99129" lon="5.9001">
        <ele>469</ele>
        <time>2020-10-05T14:32:40.988Z</time>
      </trkpt>
      <trkpt lat="43.99128" lon="5.9001">
        <ele>469</ele>
        <time>2020-10-05T14:32:41.988Z</time>
      </trkpt>
      <trkpt lat="43.99128" lon="5.90009">
        <ele>469</ele>
        <time>2020-10-05T14:32:42.988Z</time>
      </trkpt>
      <trkpt lat="43.99127" lon="5.90009">
        <ele>469</ele>
        <time>2020-10-05T14:32:43.988Z</time>
      </trkpt>
      <trkpt lat="43.99126" lon="5.90008">
        <ele>469</ele>
        <time>2020-10-05T14:32:44.988Z</time>
      </trkpt>
      <trkpt lat="43.99125" lon="5.90008">
        <ele>469</ele>
        <time>2020-10-05T14:32:45.988Z</time>
      </trkpt>
      <trkpt lat="43.99124" lon="5.90007">
        <ele>468</ele>
        <time>2020-10-05T14:32:46.988Z</time>
      </trkpt>
      <trkpt lat="43.99123" lon="5.90007">
        <ele>468</ele>
        <time>2020-10-05T14:32:47.988Z</time>
      </trkpt>
      <trkpt lat="43.99122" lon="5.90007">
        <ele>468</ele>
        <time>2020-10-05T14:32:48.988Z</time>
      </trkpt>
      <trkpt lat="43.99121" lon="5.90007">
        <ele>468</ele>
        <time>2020-10-05T14:32:49.988Z</time>
      </trkpt>
      <trkpt lat="43.9912" lon="5.90007">
        <ele>468</ele>
        <time>2020-10-05T14:32:50.988Z</time>
      </trkpt>
      <trkpt lat="43.99119" lon="5.90006">
        <ele>468</ele>
        <time>2020-10-05T14:32:51.988Z</time>
      </trkpt>
      <trkpt lat="43.99118" lon="5.90006">
        <ele>467</ele>
        <time>2020-10-05T14:32:52.988Z</time>
      </trkpt>
      <trkpt lat="43.99117" lon="5.90006">
        <ele>467</ele>
        <time>2020-10-05T14:32:53.988Z</time>
      </trkpt>
      <trkpt lat="43.99116" lon="5.90006">
        <ele>467</ele>
        <time>2020-10-05T14:32:54.988Z</time>
      </trkpt>
      <trkpt lat="43.99114" lon="5.90005">
        <ele>467</ele>
        <time>2020-10-05T14:32:55.988Z</time>
      </trkpt>
      <trkpt lat="43.99113" lon="5.90005">
        <ele>467</ele>
        <time>2020-10-05T14:32:56.988Z</time>
      </trkpt>
      <trkpt lat="43.99112" lon="5.90005">
        <ele>466</ele>
        <time>2020-10-05T14:32:57.988Z</time>
      </trkpt>
      <trkpt lat="43.99111" lon="5.90004">
        <ele>466</ele>
        <time>2020-10-05T14:32:58.988Z</time>
      </trkpt>
      <trkpt lat="43.9911" lon="5.90004">
        <ele>466</ele>
        <time>2020-10-05T14:32:59.988Z</time>
      </trkpt>
      <trkpt lat="43.99109" lon="5.90003">
        <ele>466</ele>
        <time>2020-10-05T14:33:00.988Z</time>
      </trkpt>
      <trkpt lat="43.99108" lon="5.90003">
        <ele>466</ele>
        <time>2020-10-05T14:33:01.988Z</time>
      </trkpt>
      <trkpt lat="43.99107" lon="5.90003">
        <ele>466</ele>
        <time>2020-10-05T14:33:02.988Z</time>
      </trkpt>
      <trkpt lat="43.99106" lon="5.90003">
        <ele>466</ele>
        <time>2020-10-05T14:33:03.988Z</time>
      </trkpt>
      <trkpt lat="43.99105" lon="5.90003">
        <ele>466</ele>
        <time>2020-10-05T14:33:04.988Z</time>
      </trkpt>
      <trkpt lat="43.99104" lon="5.90003">
        <ele>465</ele>
        <time>2020-10-05T14:33:05.988Z</time>
      </trkpt>
      <trkpt lat="43.99102" lon="5.90003">
        <ele>465</ele>
        <time>2020-10-05T14:33:06.988Z</time>
      </trkpt>
      <trkpt lat="43.99101" lon="5.90003">
        <ele>465</ele>
        <time>2020-10-05T14:33:07.988Z</time>
      </trkpt>
      <trkpt lat="43.991" lon="5.90003">
        <ele>465</ele>
        <time>2020-10-05T14:33:08.988Z</time>
      </trkpt>
      <trkpt lat="43.99099" lon="5.90003">
        <ele>465</ele>
        <time>2020-10-05T14:33:09.988Z</time>
      </trkpt>
      <trkpt lat="43.99098" lon="5.90003">
        <ele>465</ele>
        <time>2020-10-05T14:33:10.988Z</time>
      </trkpt>
      <trkpt lat="43.99097" lon="5.90002">
        <ele>465</ele>
        <time>2020-10-05T14:33:11.988Z</time>
      </trkpt>
      <trkpt lat="43.99096" lon="5.90002">
        <ele>465</ele>
        <time>2020-10-05T14:33:12.988Z</time>
      </trkpt>
      <trkpt lat="43.99095" lon="5.90001">
        <ele>465</ele>
        <time>2020-10-05T14:33:13.988Z</time>
      </trkpt>
      <trkpt lat="43.99094" lon="5.90001">
        <ele>465</ele>
        <time>2020-10-05T14:33:14.988Z</time>
      </trkpt>
      <trkpt lat="43.99093" lon="5.90001">
        <ele>464</ele>
        <time>2020-10-05T14:33:15.988Z</time>
      </trkpt>
      <trkpt lat="43.99092" lon="5.90001">
        <ele>464</ele>
        <time>2020-10-05T14:33:16.988Z</time>
      </trkpt>
      <trkpt lat="43.99092" lon="5.9">
        <ele>464</ele>
        <time>2020-10-05T14:33:17.988Z</time>
      </trkpt>
      <trkpt lat="43.99091" lon="5.9">
        <ele>464</ele>
        <time>2020-10-05T14:33:18.988Z</time>
      </trkpt>
      <trkpt lat="43.9909" lon="5.89999">
        <ele>464</ele>
        <time>2020-10-05T14:33:19.988Z</time>
      </trkpt>
      <trkpt lat="43.99089" lon="5.89999">
        <ele>464</ele>
        <time>2020-10-05T14:33:20.988Z</time>
      </trkpt>
      <trkpt lat="43.99088" lon="5.89999">
        <ele>463</ele>
        <time>2020-10-05T14:33:21.988Z</time>
      </trkpt>
      <trkpt lat="43.99087" lon="5.89998">
        <ele>463</ele>
        <time>2020-10-05T14:33:22.988Z</time>
      </trkpt>
      <trkpt lat="43.99086" lon="5.89998">
        <ele>463</ele>
        <time>2020-10-05T14:33:23.988Z</time>
      </trkpt>
      <trkpt lat="43.99085" lon="5.89997">
        <ele>463</ele>
        <time>2020-10-05T14:33:24.988Z</time>
      </trkpt>
      <trkpt lat="43.99084" lon="5.89996">
        <ele>463</ele>
        <time>2020-10-05T14:33:25.988Z</time>
      </trkpt>
      <trkpt lat="43.99084" lon="5.89995">
        <ele>463</ele>
        <time>2020-10-05T14:33:26.988Z</time>
      </trkpt>
      <trkpt lat="43.99083" lon="5.89994">
        <ele>463</ele>
        <time>2020-10-05T14:33:27.988Z</time>
      </trkpt>
      <trkpt lat="43.99083" lon="5.89993">
        <ele>463</ele>
        <time>2020-10-05T14:33:28.988Z</time>
      </trkpt>
      <trkpt lat="43.99082" lon="5.89992">
        <ele>462</ele>
        <time>2020-10-05T14:33:29.988Z</time>
      </trkpt>
      <trkpt lat="43.99082" lon="5.89991">
        <ele>462</ele>
        <time>2020-10-05T14:33:30.988Z</time>
      </trkpt>
      <trkpt lat="43.99081" lon="5.8999">
        <ele>462</ele>
        <time>2020-10-05T14:33:31.988Z</time>
      </trkpt>
      <trkpt lat="43.99081" lon="5.89988">
        <ele>461</ele>
        <time>2020-10-05T14:33:32.988Z</time>
      </trkpt>
      <trkpt lat="43.9908" lon="5.89987">
        <ele>461</ele>
        <time>2020-10-05T14:33:33.988Z</time>
      </trkpt>
      <trkpt lat="43.9908" lon="5.89986">
        <ele>461</ele>
        <time>2020-10-05T14:33:34.988Z</time>
      </trkpt>
      <trkpt lat="43.99079" lon="5.89985">
        <ele>461</ele>
        <time>2020-10-05T14:33:35.988Z</time>
      </trkpt>
      <trkpt lat="43.99079" lon="5.89983">
        <ele>461</ele>
        <time>2020-10-05T14:33:36.988Z</time>
      </trkpt>
      <trkpt lat="43.99078" lon="5.89982">
        <ele>461</ele>
        <time>2020-10-05T14:33:37.988Z</time>
      </trkpt>
      <trkpt lat="43.99078" lon="5.89981">
        <ele>460</ele>
        <time>2020-10-05T14:33:38.988Z</time>
      </trkpt>
      <trkpt lat="43.99078" lon="5.8998">
        <ele>460</ele>
        <time>2020-10-05T14:33:39.988Z</time>
      </trkpt>
      <trkpt lat="43.99078" lon="5.89979">
        <ele>460</ele>
        <time>2020-10-05T14:33:40.988Z</time>
      </trkpt>
      <trkpt lat="43.99078" lon="5.89978">
        <ele>460</ele>
        <time>2020-10-05T14:33:41.988Z</time>
      </trkpt>
      <trkpt lat="43.99079" lon="5.89977">
        <ele>460</ele>
        <time>2020-10-05T14:33:42.988Z</time>
      </trkpt>
      <trkpt lat="43.99079" lon="5.89976">
        <ele>460</ele>
        <time>2020-10-05T14:33:43.988Z</time>
      </trkpt>
      <trkpt lat="43.99079" lon="5.89975">
        <ele>459</ele>
        <time>2020-10-05T14:33:44.988Z</time>
      </trkpt>
      <trkpt lat="43.99079" lon="5.89974">
        <ele>459</ele>
        <time>2020-10-05T14:33:45.988Z</time>
      </trkpt>
      <trkpt lat="43.99079" lon="5.89972">
        <ele>459</ele>
        <time>2020-10-05T14:33:46.988Z</time>
      </trkpt>
      <trkpt lat="43.99078" lon="5.89971">
        <ele>459</ele>
        <time>2020-10-05T14:33:47.988Z</time>
      </trkpt>
      <trkpt lat="43.99079" lon="5.89969">
        <ele>459</ele>
        <time>2020-10-05T14:33:48.988Z</time>
      </trkpt>
      <trkpt lat="43.99079" lon="5.89968">
        <ele>459</ele>
        <time>2020-10-05T14:33:49.988Z</time>
      </trkpt>
      <trkpt lat="43.99079" lon="5.89967">
        <ele>458</ele>
        <time>2020-10-05T14:33:50.988Z</time>
      </trkpt>
      <trkpt lat="43.99079" lon="5.89966">
        <ele>458</ele>
        <time>2020-10-05T14:33:51.988Z</time>
      </trkpt>
      <trkpt lat="43.99079" lon="5.89965">
        <ele>458</ele>
        <time>2020-10-05T14:33:52.988Z</time>
      </trkpt>
      <trkpt lat="43.99078" lon="5.89964">
        <ele>458</ele>
        <time>2020-10-05T14:33:53.988Z</time>
      </trkpt>
      <trkpt lat="43.99078" lon="5.89963">
        <ele>458</ele>
        <time>2020-10-05T14:33:54.988Z</time>
      </trkpt>
      <trkpt lat="43.99078" lon="5.89961">
        <ele>458</ele>
        <time>2020-10-05T14:33:55.988Z</time>
      </trkpt>
      <trkpt lat="43.99077" lon="5.8996">
        <ele>457</ele>
        <time>2020-10-05T14:33:56.988Z</time>
      </trkpt>
      <trkpt lat="43.99077" lon="5.89959">
        <ele>457</ele>
        <time>2020-10-05T14:33:57.988Z</time>
      </trkpt>
      <trkpt lat="43.99076" lon="5.89958">
        <ele>457</ele>
        <time>2020-10-05T14:33:58.988Z</time>
      </trkpt>
      <trkpt lat="43.99076" lon="5.89957">
        <ele>457</ele>
        <time>2020-10-05T14:33:59.988Z</time>
      </trkpt>
      <trkpt lat="43.99075" lon="5.89956">
        <ele>457</ele>
        <time>2020-10-05T14:34:00.988Z</time>
      </trkpt>
      <trkpt lat="43.99075" lon="5.89955">
        <ele>457</ele>
        <time>2020-10-05T14:34:01.988Z</time>
      </trkpt>
      <trkpt lat="43.99074" lon="5.89954">
        <ele>457</ele>
        <time>2020-10-05T14:34:02.988Z</time>
      </trkpt>
      <trkpt lat="43.99073" lon="5.89953">
        <ele>457</ele>
        <time>2020-10-05T14:34:03.988Z</time>
      </trkpt>
      <trkpt lat="43.99073" lon="5.89952">
        <ele>457</ele>
        <time>2020-10-05T14:34:04.988Z</time>
      </trkpt>
      <trkpt lat="43.99072" lon="5.89951">
        <ele>457</ele>
        <time>2020-10-05T14:34:05.988Z</time>
      </trkpt>
      <trkpt lat="43.99072" lon="5.8995">
        <ele>456</ele>
        <time>2020-10-05T14:34:06.988Z</time>
      </trkpt>
      <trkpt lat="43.99071" lon="5.89949">
        <ele>456</ele>
        <time>2020-10-05T14:34:07.988Z</time>
      </trkpt>
      <trkpt lat="43.9907" lon="5.89948">
        <ele>456</ele>
        <time>2020-10-05T14:34:08.988Z</time>
      </trkpt>
      <trkpt lat="43.9907" lon="5.89946">
        <ele>456</ele>
        <time>2020-10-05T14:34:09.988Z</time>
      </trkpt>
      <trkpt lat="43.99069" lon="5.89945">
        <ele>456</ele>
        <time>2020-10-05T14:34:10.988Z</time>
      </trkpt>
      <trkpt lat="43.99069" lon="5.89944">
        <ele>456</ele>
        <time>2020-10-05T14:34:11.988Z</time>
      </trkpt>
      <trkpt lat="43.99068" lon="5.89944">
        <ele>456</ele>
        <time>2020-10-05T14:34:12.988Z</time>
      </trkpt>
      <trkpt lat="43.99067" lon="5.89943">
        <ele>455</ele>
        <time>2020-10-05T14:34:13.988Z</time>
      </trkpt>
      <trkpt lat="43.99067" lon="5.89942">
        <ele>455</ele>
        <time>2020-10-05T14:34:14.988Z</time>
      </trkpt>
      <trkpt lat="43.99066" lon="5.89941">
        <ele>455</ele>
        <time>2020-10-05T14:34:15.988Z</time>
      </trkpt>
      <trkpt lat="43.99065" lon="5.8994">
        <ele>455</ele>
        <time>2020-10-05T14:34:16.988Z</time>
      </trkpt>
      <trkpt lat="43.99064" lon="5.89939">
        <ele>455</ele>
        <time>2020-10-05T14:34:17.988Z</time>
      </trkpt>
      <trkpt lat="43.99064" lon="5.89937">
        <ele>455</ele>
        <time>2020-10-05T14:34:18.988Z</time>
      </trkpt>
      <trkpt lat="43.99063" lon="5.89935">
        <ele>454</ele>
        <time>2020-10-05T14:34:19.988Z</time>
      </trkpt>
      <trkpt lat="43.99063" lon="5.89934">
        <ele>454</ele>
        <time>2020-10-05T14:34:20.988Z</time>
      </trkpt>
      <trkpt lat="43.99062" lon="5.89933">
        <ele>454</ele>
        <time>2020-10-05T14:34:21.988Z</time>
      </trkpt>
      <trkpt lat="43.99061" lon="5.89932">
        <ele>454</ele>
        <time>2020-10-05T14:34:22.988Z</time>
      </trkpt>
      <trkpt lat="43.99061" lon="5.89931">
        <ele>454</ele>
        <time>2020-10-05T14:34:23.988Z</time>
      </trkpt>
      <trkpt lat="43.9906" lon="5.8993">
        <ele>453</ele>
        <time>2020-10-05T14:34:24.988Z</time>
      </trkpt>
      <trkpt lat="43.99059" lon="5.8993">
        <ele>453</ele>
        <time>2020-10-05T14:34:25.988Z</time>
      </trkpt>
      <trkpt lat="43.99059" lon="5.8993">
        <ele>453</ele>
        <time>2020-10-05T14:34:26.988Z</time>
      </trkpt>
      <trkpt lat="43.99058" lon="5.89929">
        <ele>453</ele>
        <time>2020-10-05T14:34:27.988Z</time>
      </trkpt>
      <trkpt lat="43.99057" lon="5.89929">
        <ele>453</ele>
        <time>2020-10-05T14:34:28.988Z</time>
      </trkpt>
      <trkpt lat="43.99056" lon="5.89929">
        <ele>453</ele>
        <time>2020-10-05T14:34:29.988Z</time>
      </trkpt>
      <trkpt lat="43.99055" lon="5.89929">
        <ele>453</ele>
        <time>2020-10-05T14:34:30.988Z</time>
      </trkpt>
      <trkpt lat="43.99053" lon="5.89929">
        <ele>453</ele>
        <time>2020-10-05T14:34:31.988Z</time>
      </trkpt>
      <trkpt lat="43.99052" lon="5.89929">
        <ele>453</ele>
        <time>2020-10-05T14:34:32.988Z</time>
      </trkpt>
      <trkpt lat="43.99051" lon="5.89929">
        <ele>452</ele>
        <time>2020-10-05T14:34:33.988Z</time>
      </trkpt>
      <trkpt lat="43.9905" lon="5.89929">
        <ele>452</ele>
        <time>2020-10-05T14:34:34.988Z</time>
      </trkpt>
      <trkpt lat="43.99048" lon="5.89929">
        <ele>452</ele>
        <time>2020-10-05T14:34:35.988Z</time>
      </trkpt>
      <trkpt lat="43.99047" lon="5.89929">
        <ele>452</ele>
        <time>2020-10-05T14:34:36.988Z</time>
      </trkpt>
      <trkpt lat="43.99046" lon="5.89929">
        <ele>452</ele>
        <time>2020-10-05T14:34:37.988Z</time>
      </trkpt>
      <trkpt lat="43.99045" lon="5.89929">
        <ele>452</ele>
        <time>2020-10-05T14:34:38.988Z</time>
      </trkpt>
      <trkpt lat="43.99044" lon="5.89929">
        <ele>452</ele>
        <time>2020-10-05T14:34:39.988Z</time>
      </trkpt>
      <trkpt lat="43.99043" lon="5.89929">
        <ele>452</ele>
        <time>2020-10-05T14:34:40.988Z</time>
      </trkpt>
      <trkpt lat="43.99043" lon="5.89929">
        <ele>452</ele>
        <time>2020-10-05T14:34:41.988Z</time>
      </trkpt>
      <trkpt lat="43.99042" lon="5.89928">
        <ele>452</ele>
        <time>2020-10-05T14:34:42.988Z</time>
      </trkpt>
      <trkpt lat="43.99041" lon="5.89927">
        <ele>452</ele>
        <time>2020-10-05T14:34:43.988Z</time>
      </trkpt>
      <trkpt lat="43.9904" lon="5.89926">
        <ele>451</ele>
        <time>2020-10-05T14:34:44.988Z</time>
      </trkpt>
      <trkpt lat="43.99039" lon="5.89925">
        <ele>451</ele>
        <time>2020-10-05T14:34:45.988Z</time>
      </trkpt>
      <trkpt lat="43.99038" lon="5.89924">
        <ele>451</ele>
        <time>2020-10-05T14:34:46.988Z</time>
      </trkpt>
      <trkpt lat="43.99037" lon="5.89923">
        <ele>451</ele>
        <time>2020-10-05T14:34:47.988Z</time>
      </trkpt>
      <trkpt lat="43.99037" lon="5.89923">
        <ele>451</ele>
        <time>2020-10-05T14:34:48.988Z</time>
      </trkpt>
      <trkpt lat="43.99036" lon="5.89921">
        <ele>450</ele>
        <time>2020-10-05T14:34:49.988Z</time>
      </trkpt>
      <trkpt lat="43.99035" lon="5.8992">
        <ele>450</ele>
        <time>2020-10-05T14:34:50.988Z</time>
      </trkpt>
      <trkpt lat="43.99034" lon="5.89918">
        <ele>450</ele>
        <time>2020-10-05T14:34:51.988Z</time>
      </trkpt>
      <trkpt lat="43.99033" lon="5.89917">
        <ele>449</ele>
        <time>2020-10-05T14:34:52.988Z</time>
      </trkpt>
      <trkpt lat="43.99033" lon="5.89916">
        <ele>449</ele>
        <time>2020-10-05T14:34:53.988Z</time>
      </trkpt>
      <trkpt lat="43.99032" lon="5.89915">
        <ele>449</ele>
        <time>2020-10-05T14:34:54.988Z</time>
      </trkpt>
      <trkpt lat="43.99032" lon="5.89914">
        <ele>449</ele>
        <time>2020-10-05T14:34:55.988Z</time>
      </trkpt>
      <trkpt lat="43.99031" lon="5.89913">
        <ele>448</ele>
        <time>2020-10-05T14:34:56.988Z</time>
      </trkpt>
      <trkpt lat="43.9903" lon="5.89912">
        <ele>448</ele>
        <time>2020-10-05T14:34:57.988Z</time>
      </trkpt>
      <trkpt lat="43.99029" lon="5.89911">
        <ele>448</ele>
        <time>2020-10-05T14:34:58.988Z</time>
      </trkpt>
      <trkpt lat="43.99028" lon="5.8991">
        <ele>448</ele>
        <time>2020-10-05T14:34:59.988Z</time>
      </trkpt>
      <trkpt lat="43.99027" lon="5.89909">
        <ele>448</ele>
        <time>2020-10-05T14:35:00.988Z</time>
      </trkpt>
      <trkpt lat="43.99026" lon="5.89909">
        <ele>447</ele>
        <time>2020-10-05T14:35:01.988Z</time>
      </trkpt>
      <trkpt lat="43.99026" lon="5.89908">
        <ele>447</ele>
        <time>2020-10-05T14:35:02.988Z</time>
      </trkpt>
      <trkpt lat="43.99025" lon="5.89908">
        <ele>447</ele>
        <time>2020-10-05T14:35:03.988Z</time>
      </trkpt>
      <trkpt lat="43.99024" lon="5.89907">
        <ele>447</ele>
        <time>2020-10-05T14:35:04.988Z</time>
      </trkpt>
      <trkpt lat="43.99023" lon="5.89907">
        <ele>447</ele>
        <time>2020-10-05T14:35:05.988Z</time>
      </trkpt>
      <trkpt lat="43.99022" lon="5.89906">
        <ele>447</ele>
        <time>2020-10-05T14:35:06.988Z</time>
      </trkpt>
      <trkpt lat="43.99021" lon="5.89905">
        <ele>446</ele>
        <time>2020-10-05T14:35:07.988Z</time>
      </trkpt>
      <trkpt lat="43.9902" lon="5.89904">
        <ele>446</ele>
        <time>2020-10-05T14:35:08.988Z</time>
      </trkpt>
      <trkpt lat="43.99019" lon="5.89903">
        <ele>446</ele>
        <time>2020-10-05T14:35:09.988Z</time>
      </trkpt>
      <trkpt lat="43.99018" lon="5.89902">
        <ele>446</ele>
        <time>2020-10-05T14:35:10.988Z</time>
      </trkpt>
      <trkpt lat="43.99018" lon="5.89901">
        <ele>446</ele>
        <time>2020-10-05T14:35:11.988Z</time>
      </trkpt>
      <trkpt lat="43.99017" lon="5.899">
        <ele>446</ele>
        <time>2020-10-05T14:35:12.988Z</time>
      </trkpt>
      <trkpt lat="43.99016" lon="5.89899">
        <ele>446</ele>
        <time>2020-10-05T14:35:13.988Z</time>
      </trkpt>
      <trkpt lat="43.99015" lon="5.89898">
        <ele>445</ele>
        <time>2020-10-05T14:35:14.988Z</time>
      </trkpt>
      <trkpt lat="43.99014" lon="5.89897">
        <ele>445</ele>
        <time>2020-10-05T14:35:15.988Z</time>
      </trkpt>
      <trkpt lat="43.99013" lon="5.89896">
        <ele>445</ele>
        <time>2020-10-05T14:35:16.988Z</time>
      </trkpt>
      <trkpt lat="43.99012" lon="5.89895">
        <ele>445</ele>
        <time>2020-10-05T14:35:17.988Z</time>
      </trkpt>
      <trkpt lat="43.99011" lon="5.89894">
        <ele>445</ele>
        <time>2020-10-05T14:35:18.988Z</time>
      </trkpt>
      <trkpt lat="43.9901" lon="5.89893">
        <ele>444</ele>
        <time>2020-10-05T14:35:19.988Z</time>
      </trkpt>
      <trkpt lat="43.99008" lon="5.89892">
        <ele>444</ele>
        <time>2020-10-05T14:35:20.988Z</time>
      </trkpt>
      <trkpt lat="43.99007" lon="5.89891">
        <ele>444</ele>
        <time>2020-10-05T14:35:21.988Z</time>
      </trkpt>
      <trkpt lat="43.99006" lon="5.8989">
        <ele>444</ele>
        <time>2020-10-05T14:35:22.988Z</time>
      </trkpt>
      <trkpt lat="43.99005" lon="5.89889">
        <ele>443</ele>
        <time>2020-10-05T14:35:23.988Z</time>
      </trkpt>
      <trkpt lat="43.99004" lon="5.89888">
        <ele>443</ele>
        <time>2020-10-05T14:35:24.988Z</time>
      </trkpt>
      <trkpt lat="43.99003" lon="5.89887">
        <ele>443</ele>
        <time>2020-10-05T14:35:25.988Z</time>
      </trkpt>
      <trkpt lat="43.99002" lon="5.89886">
        <ele>443</ele>
        <time>2020-10-05T14:35:26.988Z</time>
      </trkpt>
      <trkpt lat="43.99001" lon="5.89885">
        <ele>442</ele>
        <time>2020-10-05T14:35:27.988Z</time>
      </trkpt>
      <trkpt lat="43.99" lon="5.89883">
        <ele>442</ele>
        <time>2020-10-05T14:35:28.988Z</time>
      </trkpt>
      <trkpt lat="43.99" lon="5.89883">
        <ele>442</ele>
        <time>2020-10-05T14:35:29.988Z</time>
      </trkpt>
      <trkpt lat="43.98999" lon="5.89882">
        <ele>442</ele>
        <time>2020-10-05T14:35:30.988Z</time>
      </trkpt>
      <trkpt lat="43.98998" lon="5.8988">
        <ele>441</ele>
        <time>2020-10-05T14:35:31.988Z</time>
      </trkpt>
      <trkpt lat="43.98997" lon="5.89879">
        <ele>441</ele>
        <time>2020-10-05T14:35:32.988Z</time>
      </trkpt>
      <trkpt lat="43.98996" lon="5.89878">
        <ele>441</ele>
        <time>2020-10-05T14:35:33.988Z</time>
      </trkpt>
      <trkpt lat="43.98995" lon="5.89877">
        <ele>441</ele>
        <time>2020-10-05T14:35:34.988Z</time>
      </trkpt>
      <trkpt lat="43.98994" lon="5.89876">
        <ele>441</ele>
        <time>2020-10-05T14:35:35.988Z</time>
      </trkpt>
      <trkpt lat="43.98993" lon="5.89875">
        <ele>441</ele>
        <time>2020-10-05T14:35:36.988Z</time>
      </trkpt>
      <trkpt lat="43.98992" lon="5.89874">
        <ele>440</ele>
        <time>2020-10-05T14:35:37.988Z</time>
      </trkpt>
      <trkpt lat="43.98991" lon="5.89873">
        <ele>440</ele>
        <time>2020-10-05T14:35:38.988Z</time>
      </trkpt>
      <trkpt lat="43.98989" lon="5.89872">
        <ele>440</ele>
        <time>2020-10-05T14:35:39.988Z</time>
      </trkpt>
      <trkpt lat="43.98989" lon="5.8987">
        <ele>440</ele>
        <time>2020-10-05T14:35:40.988Z</time>
      </trkpt>
      <trkpt lat="43.98988" lon="5.89869">
        <ele>440</ele>
        <time>2020-10-05T14:35:41.988Z</time>
      </trkpt>
      <trkpt lat="43.98987" lon="5.89867">
        <ele>439</ele>
        <time>2020-10-05T14:35:42.988Z</time>
      </trkpt>
      <trkpt lat="43.98986" lon="5.89866">
        <ele>439</ele>
        <time>2020-10-05T14:35:43.988Z</time>
      </trkpt>
      <trkpt lat="43.98986" lon="5.89864">
        <ele>439</ele>
        <time>2020-10-05T14:35:44.988Z</time>
      </trkpt>
      <trkpt lat="43.98985" lon="5.89863">
        <ele>439</ele>
        <time>2020-10-05T14:35:45.988Z</time>
      </trkpt>
      <trkpt lat="43.98984" lon="5.89862">
        <ele>439</ele>
        <time>2020-10-05T14:35:46.988Z</time>
      </trkpt>
      <trkpt lat="43.98984" lon="5.89861">
        <ele>439</ele>
        <time>2020-10-05T14:35:47.988Z</time>
      </trkpt>
      <trkpt lat="43.98983" lon="5.8986">
        <ele>438</ele>
        <time>2020-10-05T14:35:48.988Z</time>
      </trkpt>
      <trkpt lat="43.98982" lon="5.89859">
        <ele>438</ele>
        <time>2020-10-05T14:35:49.988Z</time>
      </trkpt>
      <trkpt lat="43.98982" lon="5.89858">
        <ele>438</ele>
        <time>2020-10-05T14:35:50.988Z</time>
      </trkpt>
      <trkpt lat="43.98981" lon="5.89857">
        <ele>438</ele>
        <time>2020-10-05T14:35:51.988Z</time>
      </trkpt>
      <trkpt lat="43.9898" lon="5.89856">
        <ele>438</ele>
        <time>2020-10-05T14:35:52.988Z</time>
      </trkpt>
      <trkpt lat="43.9898" lon="5.89854">
        <ele>438</ele>
        <time>2020-10-05T14:35:53.988Z</time>
      </trkpt>
      <trkpt lat="43.9898" lon="5.89852">
        <ele>438</ele>
        <time>2020-10-05T14:35:54.988Z</time>
      </trkpt>
      <trkpt lat="43.9898" lon="5.8985">
        <ele>438</ele>
        <time>2020-10-05T14:35:55.988Z</time>
      </trkpt>
      <trkpt lat="43.98979" lon="5.89849">
        <ele>437</ele>
        <time>2020-10-05T14:35:56.988Z</time>
      </trkpt>
      <trkpt lat="43.98979" lon="5.89847">
        <ele>437</ele>
        <time>2020-10-05T14:35:57.988Z</time>
      </trkpt>
      <trkpt lat="43.98979" lon="5.89846">
        <ele>437</ele>
        <time>2020-10-05T14:35:58.988Z</time>
      </trkpt>
      <trkpt lat="43.98978" lon="5.89844">
        <ele>437</ele>
        <time>2020-10-05T14:35:59.988Z</time>
      </trkpt>
      <trkpt lat="43.98978" lon="5.89843">
        <ele>437</ele>
        <time>2020-10-05T14:36:00.988Z</time>
      </trkpt>
      <trkpt lat="43.98978" lon="5.89842">
        <ele>437</ele>
        <time>2020-10-05T14:36:01.988Z</time>
      </trkpt>
      <trkpt lat="43.98977" lon="5.8984">
        <ele>436</ele>
        <time>2020-10-05T14:36:02.988Z</time>
      </trkpt>
      <trkpt lat="43.98977" lon="5.89839">
        <ele>436</ele>
        <time>2020-10-05T14:36:03.988Z</time>
      </trkpt>
      <trkpt lat="43.98976" lon="5.89838">
        <ele>436</ele>
        <time>2020-10-05T14:36:04.988Z</time>
      </trkpt>
      <trkpt lat="43.98975" lon="5.89836">
        <ele>436</ele>
        <time>2020-10-05T14:36:05.988Z</time>
      </trkpt>
      <trkpt lat="43.98975" lon="5.89835">
        <ele>436</ele>
        <time>2020-10-05T14:36:06.988Z</time>
      </trkpt>
      <trkpt lat="43.98973" lon="5.89834">
        <ele>436</ele>
        <time>2020-10-05T14:36:07.988Z</time>
      </trkpt>
      <trkpt lat="43.98973" lon="5.89833">
        <ele>435</ele>
        <time>2020-10-05T14:36:08.988Z</time>
      </trkpt>
      <trkpt lat="43.98972" lon="5.89832">
        <ele>435</ele>
        <time>2020-10-05T14:36:09.988Z</time>
      </trkpt>
      <trkpt lat="43.98971" lon="5.89831">
        <ele>435</ele>
        <time>2020-10-05T14:36:10.988Z</time>
      </trkpt>
      <trkpt lat="43.9897" lon="5.8983">
        <ele>435</ele>
        <time>2020-10-05T14:36:11.988Z</time>
      </trkpt>
      <trkpt lat="43.98969" lon="5.8983">
        <ele>435</ele>
        <time>2020-10-05T14:36:12.988Z</time>
      </trkpt>
      <trkpt lat="43.98968" lon="5.89829">
        <ele>435</ele>
        <time>2020-10-05T14:36:13.988Z</time>
      </trkpt>
      <trkpt lat="43.98967" lon="5.89828">
        <ele>435</ele>
        <time>2020-10-05T14:36:14.988Z</time>
      </trkpt>
      <trkpt lat="43.98966" lon="5.89827">
        <ele>434</ele>
        <time>2020-10-05T14:36:15.988Z</time>
      </trkpt>
      <trkpt lat="43.98965" lon="5.89826">
        <ele>434</ele>
        <time>2020-10-05T14:36:16.988Z</time>
      </trkpt>
      <trkpt lat="43.98964" lon="5.89825">
        <ele>434</ele>
        <time>2020-10-05T14:36:17.988Z</time>
      </trkpt>
      <trkpt lat="43.98963" lon="5.89824">
        <ele>434</ele>
        <time>2020-10-05T14:36:18.988Z</time>
      </trkpt>
      <trkpt lat="43.98962" lon="5.89822">
        <ele>434</ele>
        <time>2020-10-05T14:36:19.988Z</time>
      </trkpt>
      <trkpt lat="43.98961" lon="5.89821">
        <ele>434</ele>
        <time>2020-10-05T14:36:20.988Z</time>
      </trkpt>
      <trkpt lat="43.9896" lon="5.89819">
        <ele>434</ele>
        <time>2020-10-05T14:36:21.988Z</time>
      </trkpt>
      <trkpt lat="43.98959" lon="5.89818">
        <ele>434</ele>
        <time>2020-10-05T14:36:22.988Z</time>
      </trkpt>
      <trkpt lat="43.98959" lon="5.89816">
        <ele>433</ele>
        <time>2020-10-05T14:36:23.988Z</time>
      </trkpt>
      <trkpt lat="43.98959" lon="5.89814">
        <ele>433</ele>
        <time>2020-10-05T14:36:24.988Z</time>
      </trkpt>
      <trkpt lat="43.98959" lon="5.89812">
        <ele>433</ele>
        <time>2020-10-05T14:36:25.988Z</time>
      </trkpt>
      <trkpt lat="43.9896" lon="5.8981">
        <ele>433</ele>
        <time>2020-10-05T14:36:26.988Z</time>
      </trkpt>
      <trkpt lat="43.9896" lon="5.89808">
        <ele>433</ele>
        <time>2020-10-05T14:36:27.988Z</time>
      </trkpt>
      <trkpt lat="43.9896" lon="5.89806">
        <ele>433</ele>
        <time>2020-10-05T14:36:28.988Z</time>
      </trkpt>
      <trkpt lat="43.9896" lon="5.89805">
        <ele>433</ele>
        <time>2020-10-05T14:36:29.988Z</time>
      </trkpt>
      <trkpt lat="43.9896" lon="5.89803">
        <ele>433</ele>
        <time>2020-10-05T14:36:30.988Z</time>
      </trkpt>
      <trkpt lat="43.9896" lon="5.89802">
        <ele>432</ele>
        <time>2020-10-05T14:36:31.988Z</time>
      </trkpt>
      <trkpt lat="43.9896" lon="5.89801">
        <ele>432</ele>
        <time>2020-10-05T14:36:32.988Z</time>
      </trkpt>
      <trkpt lat="43.9896" lon="5.89801">
        <ele>432</ele>
        <time>2020-10-05T14:36:33.988Z</time>
      </trkpt>
      <trkpt lat="43.9896" lon="5.89801">
        <ele>432</ele>
        <time>2020-10-05T14:36:34.988Z</time>
      </trkpt>
      <trkpt lat="43.9896" lon="5.898">
        <ele>432</ele>
        <time>2020-10-05T14:36:35.988Z</time>
      </trkpt>
      <trkpt lat="43.9896" lon="5.898">
        <ele>432</ele>
        <time>2020-10-05T14:36:36.988Z</time>
      </trkpt>
      <trkpt lat="43.9896" lon="5.898">
        <ele>432</ele>
        <time>2020-10-05T14:36:37.988Z</time>
      </trkpt>
      <trkpt lat="43.9896" lon="5.89799">
        <ele>431</ele>
        <time>2020-10-05T14:36:38.988Z</time>
      </trkpt>
      <trkpt lat="43.9896" lon="5.89799">
        <ele>431</ele>
        <time>2020-10-05T14:36:39.988Z</time>
      </trkpt>
      <trkpt lat="43.9896" lon="5.89798">
        <ele>431</ele>
        <time>2020-10-05T14:36:40.988Z</time>
      </trkpt>
      <trkpt lat="43.9896" lon="5.89798">
        <ele>431</ele>
        <time>2020-10-05T14:36:41.988Z</time>
      </trkpt>
      <trkpt lat="43.9896" lon="5.89798">
        <ele>431</ele>
        <time>2020-10-05T14:36:42.988Z</time>
      </trkpt>
      <trkpt lat="43.9896" lon="5.89798">
        <ele>431</ele>
        <time>2020-10-05T14:36:43.988Z</time>
      </trkpt>
      <trkpt lat="43.9896" lon="5.89798">
        <ele>431</ele>
        <time>2020-10-05T14:36:44.988Z</time>
      </trkpt>
      <trkpt lat="43.9896" lon="5.89798">
        <ele>431</ele>
        <time>2020-10-05T14:36:45.988Z</time>
      </trkpt>
      <trkpt lat="43.9896" lon="5.89798">
        <ele>431</ele>
        <time>2020-10-05T14:36:46.988Z</time>
      </trkpt>
      <trkpt lat="43.9896" lon="5.89798">
        <ele>431</ele>
        <time>2020-10-05T14:36:47.988Z</time>
      </trkpt>
      <trkpt lat="43.9896" lon="5.89798">
        <ele>431</ele>
        <time>2020-10-05T14:36:48.988Z</time>
      </trkpt>
      <trkpt lat="43.9896" lon="5.89798">
        <ele>431</ele>
        <time>2020-10-05T14:36:49.988Z</time>
      </trkpt>
      <trkpt lat="43.9896" lon="5.89798">
        <ele>430</ele>
        <time>2020-10-05T14:36:50.988Z</time>
      </trkpt>
      <trkpt lat="43.9896" lon="5.89798">
        <ele>430</ele>
        <time>2020-10-05T14:36:51.988Z</time>
      </trkpt>
      <trkpt lat="43.9896" lon="5.89798">
        <ele>430</ele>
        <time>2020-10-05T14:36:52.988Z</time>
      </trkpt>
      <trkpt lat="43.9896" lon="5.89798">
        <ele>430</ele>
        <time>2020-10-05T14:36:53.988Z</time>
      </trkpt>
      <trkpt lat="43.98959" lon="5.89798">
        <ele>430</ele>
        <time>2020-10-05T14:36:54.988Z</time>
      </trkpt>
      <trkpt lat="43.9896" lon="5.89798">
        <ele>430</ele>
        <time>2020-10-05T14:36:55.988Z</time>
      </trkpt>
      <trkpt lat="43.9896" lon="5.89798">
        <ele>430</ele>
        <time>2020-10-05T14:36:56.988Z</time>
      </trkpt>
      <trkpt lat="43.9896" lon="5.89798">
        <ele>430</ele>
        <time>2020-10-05T14:36:57.988Z</time>
      </trkpt>
      <trkpt lat="43.9896" lon="5.89797">
        <ele>430</ele>
        <time>2020-10-05T14:36:58.988Z</time>
      </trkpt>
      <trkpt lat="43.9896" lon="5.89797">
        <ele>430</ele>
        <time>2020-10-05T14:36:59.988Z</time>
      </trkpt>
      <trkpt lat="43.9896" lon="5.89797">
        <ele>430</ele>
        <time>2020-10-05T14:37:00.988Z</time>
      </trkpt>
      <trkpt lat="43.9896" lon="5.89797">
        <ele>430</ele>
        <time>2020-10-05T14:37:01.988Z</time>
      </trkpt>
      <trkpt lat="43.9896" lon="5.89797">
        <ele>430</ele>
        <time>2020-10-05T14:37:02.988Z</time>
      </trkpt>
      <trkpt lat="43.9896" lon="5.89797">
        <ele>430</ele>
        <time>2020-10-05T14:37:03.988Z</time>
      </trkpt>
      <trkpt lat="43.9896" lon="5.89797">
        <ele>430</ele>
        <time>2020-10-05T14:37:04.988Z</time>
      </trkpt>
      <trkpt lat="43.9896" lon="5.89797">
        <ele>431</ele>
        <time>2020-10-05T14:37:05.988Z</time>
      </trkpt>
      <trkpt lat="43.9896" lon="5.89797">
        <ele>431</ele>
        <time>2020-10-05T14:37:06.988Z</time>
      </trkpt>
      <trkpt lat="43.9896" lon="5.89797">
        <ele>431</ele>
        <time>2020-10-05T14:37:07.988Z</time>
      </trkpt>
      <trkpt lat="43.9896" lon="5.89797">
        <ele>431</ele>
        <time>2020-10-05T14:37:08.988Z</time>
      </trkpt>
      <trkpt lat="43.9896" lon="5.89796">
        <ele>431</ele>
        <time>2020-10-05T14:37:09.988Z</time>
      </trkpt>
      <trkpt lat="43.9896" lon="5.89796">
        <ele>431</ele>
        <time>2020-10-05T14:37:10.988Z</time>
      </trkpt>
      <trkpt lat="43.9896" lon="5.89796">
        <ele>431</ele>
        <time>2020-10-05T14:37:11.988Z</time>
      </trkpt>
      <trkpt lat="43.98961" lon="5.89796">
        <ele>431</ele>
        <time>2020-10-05T14:37:12.988Z</time>
      </trkpt>
      <trkpt lat="43.98961" lon="5.89796">
        <ele>431</ele>
        <time>2020-10-05T14:37:13.988Z</time>
      </trkpt>
      <trkpt lat="43.98961" lon="5.89796">
        <ele>431</ele>
        <time>2020-10-05T14:37:14.988Z</time>
      </trkpt>
      <trkpt lat="43.98962" lon="5.89795">
        <ele>431</ele>
        <time>2020-10-05T14:37:15.988Z</time>
      </trkpt>
      <trkpt lat="43.98962" lon="5.89794">
        <ele>431</ele>
        <time>2020-10-05T14:37:16.988Z</time>
      </trkpt>
      <trkpt lat="43.98963" lon="5.89793">
        <ele>431</ele>
        <time>2020-10-05T14:37:17.988Z</time>
      </trkpt>
      <trkpt lat="43.98963" lon="5.89792">
        <ele>431</ele>
        <time>2020-10-05T14:37:18.988Z</time>
      </trkpt>
      <trkpt lat="43.98964" lon="5.89791">
        <ele>431</ele>
        <time>2020-10-05T14:37:19.988Z</time>
      </trkpt>
      <trkpt lat="43.98964" lon="5.8979">
        <ele>431</ele>
        <time>2020-10-05T14:37:20.988Z</time>
      </trkpt>
      <trkpt lat="43.98964" lon="5.89789">
        <ele>431</ele>
        <time>2020-10-05T14:37:21.988Z</time>
      </trkpt>
      <trkpt lat="43.98965" lon="5.89788">
        <ele>431</ele>
        <time>2020-10-05T14:37:22.988Z</time>
      </trkpt>
      <trkpt lat="43.98966" lon="5.89787">
        <ele>431</ele>
        <time>2020-10-05T14:37:23.988Z</time>
      </trkpt>
      <trkpt lat="43.98966" lon="5.89787">
        <ele>431</ele>
        <time>2020-10-05T14:37:24.988Z</time>
      </trkpt>
      <trkpt lat="43.98967" lon="5.89786">
        <ele>431</ele>
        <time>2020-10-05T14:37:25.988Z</time>
      </trkpt>
      <trkpt lat="43.98968" lon="5.89785">
        <ele>431</ele>
        <time>2020-10-05T14:37:26.988Z</time>
      </trkpt>
      <trkpt lat="43.98968" lon="5.89785">
        <ele>431</ele>
        <time>2020-10-05T14:37:27.988Z</time>
      </trkpt>
      <trkpt lat="43.98969" lon="5.89784">
        <ele>431</ele>
        <time>2020-10-05T14:37:28.988Z</time>
      </trkpt>
      <trkpt lat="43.98969" lon="5.89783">
        <ele>431</ele>
        <time>2020-10-05T14:37:29.988Z</time>
      </trkpt>
      <trkpt lat="43.9897" lon="5.89782">
        <ele>431</ele>
        <time>2020-10-05T14:37:30.988Z</time>
      </trkpt>
      <trkpt lat="43.9897" lon="5.8978">
        <ele>431</ele>
        <time>2020-10-05T14:37:31.988Z</time>
      </trkpt>
      <trkpt lat="43.98971" lon="5.89779">
        <ele>431</ele>
        <time>2020-10-05T14:37:32.988Z</time>
      </trkpt>
      <trkpt lat="43.98971" lon="5.89778">
        <ele>431</ele>
        <time>2020-10-05T14:37:33.988Z</time>
      </trkpt>
      <trkpt lat="43.98972" lon="5.89777">
        <ele>431</ele>
        <time>2020-10-05T14:37:34.988Z</time>
      </trkpt>
      <trkpt lat="43.98972" lon="5.89776">
        <ele>431</ele>
        <time>2020-10-05T14:37:35.988Z</time>
      </trkpt>
      <trkpt lat="43.98972" lon="5.89775">
        <ele>431</ele>
        <time>2020-10-05T14:37:36.988Z</time>
      </trkpt>
      <trkpt lat="43.98972" lon="5.89773">
        <ele>431</ele>
        <time>2020-10-05T14:37:37.988Z</time>
      </trkpt>
      <trkpt lat="43.98972" lon="5.89772">
        <ele>431</ele>
        <time>2020-10-05T14:37:38.988Z</time>
      </trkpt>
      <trkpt lat="43.98973" lon="5.89771">
        <ele>431</ele>
        <time>2020-10-05T14:37:39.988Z</time>
      </trkpt>
      <trkpt lat="43.98973" lon="5.8977">
        <ele>431</ele>
        <time>2020-10-05T14:37:40.988Z</time>
      </trkpt>
      <trkpt lat="43.98973" lon="5.8977">
        <ele>431</ele>
        <time>2020-10-05T14:37:41.988Z</time>
      </trkpt>
      <trkpt lat="43.98973" lon="5.89769">
        <ele>431</ele>
        <time>2020-10-05T14:37:42.988Z</time>
      </trkpt>
      <trkpt lat="43.98973" lon="5.89768">
        <ele>431</ele>
        <time>2020-10-05T14:37:43.988Z</time>
      </trkpt>
      <trkpt lat="43.98974" lon="5.89767">
        <ele>431</ele>
        <time>2020-10-05T14:37:44.988Z</time>
      </trkpt>
      <trkpt lat="43.98974" lon="5.89766">
        <ele>431</ele>
        <time>2020-10-05T14:37:45.988Z</time>
      </trkpt>
      <trkpt lat="43.98975" lon="5.89765">
        <ele>430</ele>
        <time>2020-10-05T14:37:46.988Z</time>
      </trkpt>
      <trkpt lat="43.98975" lon="5.89763">
        <ele>430</ele>
        <time>2020-10-05T14:37:47.988Z</time>
      </trkpt>
      <trkpt lat="43.98975" lon="5.89762">
        <ele>430</ele>
        <time>2020-10-05T14:37:48.988Z</time>
      </trkpt>
      <trkpt lat="43.98976" lon="5.89761">
        <ele>430</ele>
        <time>2020-10-05T14:37:49.988Z</time>
      </trkpt>
      <trkpt lat="43.98976" lon="5.8976">
        <ele>430</ele>
        <time>2020-10-05T14:37:50.988Z</time>
      </trkpt>
      <trkpt lat="43.98976" lon="5.89759">
        <ele>430</ele>
        <time>2020-10-05T14:37:51.988Z</time>
      </trkpt>
      <trkpt lat="43.98977" lon="5.89758">
        <ele>430</ele>
        <time>2020-10-05T14:37:52.988Z</time>
      </trkpt>
      <trkpt lat="43.98978" lon="5.89757">
        <ele>430</ele>
        <time>2020-10-05T14:37:53.988Z</time>
      </trkpt>
      <trkpt lat="43.98978" lon="5.89755">
        <ele>430</ele>
        <time>2020-10-05T14:37:54.988Z</time>
      </trkpt>
      <trkpt lat="43.98978" lon="5.89754">
        <ele>430</ele>
        <time>2020-10-05T14:37:55.988Z</time>
      </trkpt>
      <trkpt lat="43.98979" lon="5.89753">
        <ele>429</ele>
        <time>2020-10-05T14:37:56.988Z</time>
      </trkpt>
      <trkpt lat="43.98979" lon="5.89752">
        <ele>429</ele>
        <time>2020-10-05T14:37:57.988Z</time>
      </trkpt>
      <trkpt lat="43.9898" lon="5.8975">
        <ele>429</ele>
        <time>2020-10-05T14:37:58.988Z</time>
      </trkpt>
      <trkpt lat="43.98981" lon="5.89749">
        <ele>429</ele>
        <time>2020-10-05T14:37:59.988Z</time>
      </trkpt>
      <trkpt lat="43.98982" lon="5.89748">
        <ele>429</ele>
        <time>2020-10-05T14:38:00.988Z</time>
      </trkpt>
      <trkpt lat="43.98983" lon="5.89747">
        <ele>429</ele>
        <time>2020-10-05T14:38:01.988Z</time>
      </trkpt>
      <trkpt lat="43.98983" lon="5.89745">
        <ele>429</ele>
        <time>2020-10-05T14:38:02.988Z</time>
      </trkpt>
      <trkpt lat="43.98984" lon="5.89744">
        <ele>429</ele>
        <time>2020-10-05T14:38:03.988Z</time>
      </trkpt>
      <trkpt lat="43.98985" lon="5.89743">
        <ele>429</ele>
        <time>2020-10-05T14:38:04.988Z</time>
      </trkpt>
      <trkpt lat="43.98985" lon="5.89742">
        <ele>429</ele>
        <time>2020-10-05T14:38:05.988Z</time>
      </trkpt>
      <trkpt lat="43.98986" lon="5.89741">
        <ele>429</ele>
        <time>2020-10-05T14:38:06.988Z</time>
      </trkpt>
      <trkpt lat="43.98987" lon="5.8974">
        <ele>429</ele>
        <time>2020-10-05T14:38:07.988Z</time>
      </trkpt>
      <trkpt lat="43.98988" lon="5.89739">
        <ele>429</ele>
        <time>2020-10-05T14:38:08.988Z</time>
      </trkpt>
      <trkpt lat="43.98989" lon="5.89737">
        <ele>429</ele>
        <time>2020-10-05T14:38:09.988Z</time>
      </trkpt>
      <trkpt lat="43.98989" lon="5.89736">
        <ele>429</ele>
        <time>2020-10-05T14:38:10.988Z</time>
      </trkpt>
      <trkpt lat="43.9899" lon="5.89735">
        <ele>429</ele>
        <time>2020-10-05T14:38:11.988Z</time>
      </trkpt>
      <trkpt lat="43.98991" lon="5.89734">
        <ele>429</ele>
        <time>2020-10-05T14:38:12.988Z</time>
      </trkpt>
      <trkpt lat="43.98991" lon="5.89733">
        <ele>429</ele>
        <time>2020-10-05T14:38:13.988Z</time>
      </trkpt>
      <trkpt lat="43.98992" lon="5.89731">
        <ele>429</ele>
        <time>2020-10-05T14:38:14.988Z</time>
      </trkpt>
      <trkpt lat="43.98993" lon="5.8973">
        <ele>429</ele>
        <time>2020-10-05T14:38:15.988Z</time>
      </trkpt>
      <trkpt lat="43.98994" lon="5.89728">
        <ele>429</ele>
        <time>2020-10-05T14:38:16.988Z</time>
      </trkpt>
      <trkpt lat="43.98994" lon="5.89727">
        <ele>429</ele>
        <time>2020-10-05T14:38:17.988Z</time>
      </trkpt>
      <trkpt lat="43.98995" lon="5.89726">
        <ele>429</ele>
        <time>2020-10-05T14:38:18.988Z</time>
      </trkpt>
      <trkpt lat="43.98995" lon="5.89725">
        <ele>429</ele>
        <time>2020-10-05T14:38:19.988Z</time>
      </trkpt>
      <trkpt lat="43.98996" lon="5.89723">
        <ele>429</ele>
        <time>2020-10-05T14:38:20.988Z</time>
      </trkpt>
      <trkpt lat="43.98997" lon="5.89722">
        <ele>429</ele>
        <time>2020-10-05T14:38:21.988Z</time>
      </trkpt>
      <trkpt lat="43.98998" lon="5.8972">
        <ele>429</ele>
        <time>2020-10-05T14:38:22.988Z</time>
      </trkpt>
      <trkpt lat="43.98998" lon="5.89719">
        <ele>429</ele>
        <time>2020-10-05T14:38:23.988Z</time>
      </trkpt>
      <trkpt lat="43.98999" lon="5.89718">
        <ele>429</ele>
        <time>2020-10-05T14:38:24.988Z</time>
      </trkpt>
      <trkpt lat="43.99" lon="5.89716">
        <ele>429</ele>
        <time>2020-10-05T14:38:25.988Z</time>
      </trkpt>
      <trkpt lat="43.99001" lon="5.89715">
        <ele>429</ele>
        <time>2020-10-05T14:38:26.988Z</time>
      </trkpt>
      <trkpt lat="43.99002" lon="5.89713">
        <ele>429</ele>
        <time>2020-10-05T14:38:27.988Z</time>
      </trkpt>
      <trkpt lat="43.99002" lon="5.89712">
        <ele>429</ele>
        <time>2020-10-05T14:38:28.988Z</time>
      </trkpt>
      <trkpt lat="43.99003" lon="5.8971">
        <ele>429</ele>
        <time>2020-10-05T14:38:29.988Z</time>
      </trkpt>
      <trkpt lat="43.99004" lon="5.89709">
        <ele>429</ele>
        <time>2020-10-05T14:38:30.988Z</time>
      </trkpt>
      <trkpt lat="43.99005" lon="5.89707">
        <ele>429</ele>
        <time>2020-10-05T14:38:31.988Z</time>
      </trkpt>
      <trkpt lat="43.99006" lon="5.89706">
        <ele>429</ele>
        <time>2020-10-05T14:38:32.988Z</time>
      </trkpt>
      <trkpt lat="43.99007" lon="5.89705">
        <ele>429</ele>
        <time>2020-10-05T14:38:33.988Z</time>
      </trkpt>
      <trkpt lat="43.99008" lon="5.89704">
        <ele>429</ele>
        <time>2020-10-05T14:38:34.988Z</time>
      </trkpt>
      <trkpt lat="43.99009" lon="5.89703">
        <ele>429</ele>
        <time>2020-10-05T14:38:35.988Z</time>
      </trkpt>
      <trkpt lat="43.9901" lon="5.89701">
        <ele>429</ele>
        <time>2020-10-05T14:38:36.988Z</time>
      </trkpt>
      <trkpt lat="43.99011" lon="5.897">
        <ele>429</ele>
        <time>2020-10-05T14:38:37.988Z</time>
      </trkpt>
      <trkpt lat="43.99012" lon="5.89699">
        <ele>429</ele>
        <time>2020-10-05T14:38:38.988Z</time>
      </trkpt>
      <trkpt lat="43.99013" lon="5.89698">
        <ele>429</ele>
        <time>2020-10-05T14:38:39.988Z</time>
      </trkpt>
      <trkpt lat="43.99014" lon="5.89697">
        <ele>429</ele>
        <time>2020-10-05T14:38:40.988Z</time>
      </trkpt>
      <trkpt lat="43.99015" lon="5.89697">
        <ele>429</ele>
        <time>2020-10-05T14:38:41.988Z</time>
      </trkpt>
      <trkpt lat="43.99015" lon="5.89696">
        <ele>429</ele>
        <time>2020-10-05T14:38:42.988Z</time>
      </trkpt>
      <trkpt lat="43.99016" lon="5.89695">
        <ele>429</ele>
        <time>2020-10-05T14:38:43.988Z</time>
      </trkpt>
      <trkpt lat="43.99017" lon="5.89695">
        <ele>429</ele>
        <time>2020-10-05T14:38:44.988Z</time>
      </trkpt>
      <trkpt lat="43.99018" lon="5.89694">
        <ele>429</ele>
        <time>2020-10-05T14:38:45.988Z</time>
      </trkpt>
      <trkpt lat="43.99019" lon="5.89693">
        <ele>429</ele>
        <time>2020-10-05T14:38:46.988Z</time>
      </trkpt>
      <trkpt lat="43.9902" lon="5.89692">
        <ele>429</ele>
        <time>2020-10-05T14:38:47.988Z</time>
      </trkpt>
      <trkpt lat="43.99022" lon="5.89692">
        <ele>429</ele>
        <time>2020-10-05T14:38:48.988Z</time>
      </trkpt>
      <trkpt lat="43.99023" lon="5.89692">
        <ele>429</ele>
        <time>2020-10-05T14:38:49.988Z</time>
      </trkpt>
      <trkpt lat="43.99024" lon="5.89691">
        <ele>429</ele>
        <time>2020-10-05T14:38:50.988Z</time>
      </trkpt>
      <trkpt lat="43.99026" lon="5.89691">
        <ele>429</ele>
        <time>2020-10-05T14:38:51.988Z</time>
      </trkpt>
      <trkpt lat="43.99027" lon="5.8969">
        <ele>429</ele>
        <time>2020-10-05T14:38:52.988Z</time>
      </trkpt>
      <trkpt lat="43.99028" lon="5.89689">
        <ele>429</ele>
        <time>2020-10-05T14:38:53.988Z</time>
      </trkpt>
      <trkpt lat="43.99029" lon="5.89689">
        <ele>429</ele>
        <time>2020-10-05T14:38:54.988Z</time>
      </trkpt>
      <trkpt lat="43.99031" lon="5.89689">
        <ele>429</ele>
        <time>2020-10-05T14:38:55.988Z</time>
      </trkpt>
      <trkpt lat="43.99032" lon="5.89688">
        <ele>429</ele>
        <time>2020-10-05T14:38:56.988Z</time>
      </trkpt>
      <trkpt lat="43.99033" lon="5.89688">
        <ele>429</ele>
        <time>2020-10-05T14:38:57.988Z</time>
      </trkpt>
      <trkpt lat="43.99034" lon="5.89687">
        <ele>429</ele>
        <time>2020-10-05T14:38:58.988Z</time>
      </trkpt>
      <trkpt lat="43.99035" lon="5.89687">
        <ele>429</ele>
        <time>2020-10-05T14:38:59.988Z</time>
      </trkpt>
      <trkpt lat="43.99035" lon="5.89687">
        <ele>430</ele>
        <time>2020-10-05T14:39:00.988Z</time>
      </trkpt>
      <trkpt lat="43.99036" lon="5.89686">
        <ele>430</ele>
        <time>2020-10-05T14:39:01.988Z</time>
      </trkpt>
      <trkpt lat="43.99037" lon="5.89685">
        <ele>430</ele>
        <time>2020-10-05T14:39:02.988Z</time>
      </trkpt>
      <trkpt lat="43.99038" lon="5.89685">
        <ele>430</ele>
        <time>2020-10-05T14:39:03.988Z</time>
      </trkpt>
      <trkpt lat="43.99039" lon="5.89684">
        <ele>430</ele>
        <time>2020-10-05T14:39:04.988Z</time>
      </trkpt>
      <trkpt lat="43.9904" lon="5.89683">
        <ele>430</ele>
        <time>2020-10-05T14:39:05.988Z</time>
      </trkpt>
      <trkpt lat="43.99041" lon="5.89683">
        <ele>430</ele>
        <time>2020-10-05T14:39:06.988Z</time>
      </trkpt>
      <trkpt lat="43.99041" lon="5.89682">
        <ele>430</ele>
        <time>2020-10-05T14:39:07.988Z</time>
      </trkpt>
      <trkpt lat="43.99042" lon="5.89682">
        <ele>430</ele>
        <time>2020-10-05T14:39:08.988Z</time>
      </trkpt>
      <trkpt lat="43.99043" lon="5.89681">
        <ele>431</ele>
        <time>2020-10-05T14:39:09.988Z</time>
      </trkpt>
      <trkpt lat="43.99044" lon="5.8968">
        <ele>431</ele>
        <time>2020-10-05T14:39:10.988Z</time>
      </trkpt>
      <trkpt lat="43.99045" lon="5.8968">
        <ele>431</ele>
        <time>2020-10-05T14:39:11.988Z</time>
      </trkpt>
      <trkpt lat="43.99047" lon="5.89679">
        <ele>431</ele>
        <time>2020-10-05T14:39:12.988Z</time>
      </trkpt>
      <trkpt lat="43.99048" lon="5.89678">
        <ele>432</ele>
        <time>2020-10-05T14:39:13.988Z</time>
      </trkpt>
      <trkpt lat="43.99049" lon="5.89677">
        <ele>432</ele>
        <time>2020-10-05T14:39:14.988Z</time>
      </trkpt>
      <trkpt lat="43.9905" lon="5.89677">
        <ele>432</ele>
        <time>2020-10-05T14:39:15.988Z</time>
      </trkpt>
      <trkpt lat="43.99051" lon="5.89676">
        <ele>433</ele>
        <time>2020-10-05T14:39:16.988Z</time>
      </trkpt>
      <trkpt lat="43.99052" lon="5.89675">
        <ele>433</ele>
        <time>2020-10-05T14:39:17.988Z</time>
      </trkpt>
      <trkpt lat="43.99053" lon="5.89675">
        <ele>433</ele>
        <time>2020-10-05T14:39:18.988Z</time>
      </trkpt>
      <trkpt lat="43.99054" lon="5.89674">
        <ele>433</ele>
        <time>2020-10-05T14:39:19.988Z</time>
      </trkpt>
      <trkpt lat="43.99055" lon="5.89673">
        <ele>434</ele>
        <time>2020-10-05T14:39:20.988Z</time>
      </trkpt>
      <trkpt lat="43.99055" lon="5.89672">
        <ele>434</ele>
        <time>2020-10-05T14:39:21.988Z</time>
      </trkpt>
      <trkpt lat="43.99057" lon="5.89672">
        <ele>434</ele>
        <time>2020-10-05T14:39:22.988Z</time>
      </trkpt>
      <trkpt lat="43.99058" lon="5.89671">
        <ele>434</ele>
        <time>2020-10-05T14:39:23.988Z</time>
      </trkpt>
      <trkpt lat="43.99058" lon="5.8967">
        <ele>434</ele>
        <time>2020-10-05T14:39:24.988Z</time>
      </trkpt>
      <trkpt lat="43.99059" lon="5.8967">
        <ele>435</ele>
        <time>2020-10-05T14:39:25.988Z</time>
      </trkpt>
      <trkpt lat="43.9906" lon="5.8967">
        <ele>435</ele>
        <time>2020-10-05T14:39:26.988Z</time>
      </trkpt>
      <trkpt lat="43.99061" lon="5.89669">
        <ele>435</ele>
        <time>2020-10-05T14:39:27.988Z</time>
      </trkpt>
      <trkpt lat="43.99062" lon="5.89669">
        <ele>435</ele>
        <time>2020-10-05T14:39:28.988Z</time>
      </trkpt>
      <trkpt lat="43.99063" lon="5.89668">
        <ele>435</ele>
        <time>2020-10-05T14:39:29.988Z</time>
      </trkpt>
      <trkpt lat="43.99064" lon="5.89668">
        <ele>435</ele>
        <time>2020-10-05T14:39:30.988Z</time>
      </trkpt>
      <trkpt lat="43.99065" lon="5.89667">
        <ele>435</ele>
        <time>2020-10-05T14:39:31.988Z</time>
      </trkpt>
      <trkpt lat="43.99066" lon="5.89667">
        <ele>435</ele>
        <time>2020-10-05T14:39:32.988Z</time>
      </trkpt>
      <trkpt lat="43.99067" lon="5.89667">
        <ele>435</ele>
        <time>2020-10-05T14:39:33.988Z</time>
      </trkpt>
      <trkpt lat="43.99068" lon="5.89667">
        <ele>435</ele>
        <time>2020-10-05T14:39:34.988Z</time>
      </trkpt>
      <trkpt lat="43.99069" lon="5.89667">
        <ele>435</ele>
        <time>2020-10-05T14:39:35.988Z</time>
      </trkpt>
      <trkpt lat="43.9907" lon="5.89667">
        <ele>435</ele>
        <time>2020-10-05T14:39:36.988Z</time>
      </trkpt>
      <trkpt lat="43.99071" lon="5.89667">
        <ele>436</ele>
        <time>2020-10-05T14:39:37.988Z</time>
      </trkpt>
      <trkpt lat="43.99073" lon="5.89667">
        <ele>436</ele>
        <time>2020-10-05T14:39:38.988Z</time>
      </trkpt>
      <trkpt lat="43.99074" lon="5.89667">
        <ele>436</ele>
        <time>2020-10-05T14:39:39.988Z</time>
      </trkpt>
      <trkpt lat="43.99076" lon="5.89668">
        <ele>436</ele>
        <time>2020-10-05T14:39:40.988Z</time>
      </trkpt>
      <trkpt lat="43.99077" lon="5.89668">
        <ele>436</ele>
        <time>2020-10-05T14:39:41.988Z</time>
      </trkpt>
      <trkpt lat="43.99079" lon="5.89669">
        <ele>436</ele>
        <time>2020-10-05T14:39:42.988Z</time>
      </trkpt>
      <trkpt lat="43.99081" lon="5.8967">
        <ele>436</ele>
        <time>2020-10-05T14:39:43.988Z</time>
      </trkpt>
      <trkpt lat="43.99081" lon="5.8967">
        <ele>436</ele>
        <time>2020-10-05T14:39:44.988Z</time>
      </trkpt>
      <trkpt lat="43.99081" lon="5.8967">
        <ele>436</ele>
        <time>2020-10-05T14:39:45.988Z</time>
      </trkpt>
      <trkpt lat="43.99081" lon="5.8967">
        <ele>437</ele>
        <time>2020-10-05T14:39:46.988Z</time>
      </trkpt>
      <trkpt lat="43.99081" lon="5.89671">
        <ele>437</ele>
        <time>2020-10-05T14:39:47.988Z</time>
      </trkpt>
      <trkpt lat="43.99082" lon="5.89671">
        <ele>437</ele>
        <time>2020-10-05T14:39:48.988Z</time>
      </trkpt>
      <trkpt lat="43.99082" lon="5.89672">
        <ele>437</ele>
        <time>2020-10-05T14:39:49.988Z</time>
      </trkpt>
      <trkpt lat="43.99083" lon="5.89672">
        <ele>437</ele>
        <time>2020-10-05T14:39:50.988Z</time>
      </trkpt>
      <trkpt lat="43.99083" lon="5.89672">
        <ele>437</ele>
        <time>2020-10-05T14:39:51.988Z</time>
      </trkpt>
      <trkpt lat="43.99084" lon="5.89672">
        <ele>437</ele>
        <time>2020-10-05T14:39:52.988Z</time>
      </trkpt>
      <trkpt lat="43.99085" lon="5.89671">
        <ele>437</ele>
        <time>2020-10-05T14:39:53.988Z</time>
      </trkpt>
      <trkpt lat="43.99085" lon="5.89671">
        <ele>438</ele>
        <time>2020-10-05T14:39:54.988Z</time>
      </trkpt>
      <trkpt lat="43.99086" lon="5.8967">
        <ele>438</ele>
        <time>2020-10-05T14:39:55.988Z</time>
      </trkpt>
      <trkpt lat="43.99087" lon="5.8967">
        <ele>438</ele>
        <time>2020-10-05T14:39:56.988Z</time>
      </trkpt>
      <trkpt lat="43.99087" lon="5.89669">
        <ele>438</ele>
        <time>2020-10-05T14:39:57.988Z</time>
      </trkpt>
      <trkpt lat="43.99088" lon="5.89669">
        <ele>438</ele>
        <time>2020-10-05T14:39:58.988Z</time>
      </trkpt>
      <trkpt lat="43.99089" lon="5.89668">
        <ele>438</ele>
        <time>2020-10-05T14:39:59.988Z</time>
      </trkpt>
      <trkpt lat="43.99089" lon="5.89668">
        <ele>438</ele>
        <time>2020-10-05T14:40:00.988Z</time>
      </trkpt>
      <trkpt lat="43.9909" lon="5.89667">
        <ele>438</ele>
        <time>2020-10-05T14:40:01.988Z</time>
      </trkpt>
      <trkpt lat="43.99091" lon="5.89667">
        <ele>438</ele>
        <time>2020-10-05T14:40:02.988Z</time>
      </trkpt>
      <trkpt lat="43.99092" lon="5.89666">
        <ele>438</ele>
        <time>2020-10-05T14:40:03.988Z</time>
      </trkpt>
      <trkpt lat="43.99093" lon="5.89665">
        <ele>438</ele>
        <time>2020-10-05T14:40:04.988Z</time>
      </trkpt>
      <trkpt lat="43.99093" lon="5.89665">
        <ele>438</ele>
        <time>2020-10-05T14:40:05.988Z</time>
      </trkpt>
      <trkpt lat="43.99094" lon="5.89664">
        <ele>438</ele>
        <time>2020-10-05T14:40:06.988Z</time>
      </trkpt>
      <trkpt lat="43.99096" lon="5.89663">
        <ele>438</ele>
        <time>2020-10-05T14:40:07.988Z</time>
      </trkpt>
      <trkpt lat="43.99097" lon="5.89662">
        <ele>438</ele>
        <time>2020-10-05T14:40:08.988Z</time>
      </trkpt>
      <trkpt lat="43.99098" lon="5.89661">
        <ele>438</ele>
        <time>2020-10-05T14:40:09.988Z</time>
      </trkpt>
      <trkpt lat="43.99099" lon="5.89659">
        <ele>438</ele>
        <time>2020-10-05T14:40:10.988Z</time>
      </trkpt>
      <trkpt lat="43.991" lon="5.89658">
        <ele>438</ele>
        <time>2020-10-05T14:40:11.988Z</time>
      </trkpt>
      <trkpt lat="43.99101" lon="5.89657">
        <ele>438</ele>
        <time>2020-10-05T14:40:12.988Z</time>
      </trkpt>
      <trkpt lat="43.99102" lon="5.89655">
        <ele>438</ele>
        <time>2020-10-05T14:40:13.988Z</time>
      </trkpt>
      <trkpt lat="43.99102" lon="5.89654">
        <ele>438</ele>
        <time>2020-10-05T14:40:14.988Z</time>
      </trkpt>
      <trkpt lat="43.99103" lon="5.89653">
        <ele>438</ele>
        <time>2020-10-05T14:40:15.988Z</time>
      </trkpt>
      <trkpt lat="43.99104" lon="5.89651">
        <ele>437</ele>
        <time>2020-10-05T14:40:16.988Z</time>
      </trkpt>
      <trkpt lat="43.99104" lon="5.8965">
        <ele>437</ele>
        <time>2020-10-05T14:40:17.988Z</time>
      </trkpt>
      <trkpt lat="43.99105" lon="5.89648">
        <ele>437</ele>
        <time>2020-10-05T14:40:18.988Z</time>
      </trkpt>
      <trkpt lat="43.99105" lon="5.89647">
        <ele>437</ele>
        <time>2020-10-05T14:40:19.988Z</time>
      </trkpt>
      <trkpt lat="43.99105" lon="5.89645">
        <ele>437</ele>
        <time>2020-10-05T14:40:20.988Z</time>
      </trkpt>
      <trkpt lat="43.99105" lon="5.89643">
        <ele>437</ele>
        <time>2020-10-05T14:40:21.988Z</time>
      </trkpt>
      <trkpt lat="43.99105" lon="5.89642">
        <ele>437</ele>
        <time>2020-10-05T14:40:22.988Z</time>
      </trkpt>
      <trkpt lat="43.99105" lon="5.89641">
        <ele>436</ele>
        <time>2020-10-05T14:40:23.988Z</time>
      </trkpt>
      <trkpt lat="43.99105" lon="5.89639">
        <ele>436</ele>
        <time>2020-10-05T14:40:24.988Z</time>
      </trkpt>
      <trkpt lat="43.99105" lon="5.89638">
        <ele>436</ele>
        <time>2020-10-05T14:40:25.988Z</time>
      </trkpt>
      <trkpt lat="43.99104" lon="5.89636">
        <ele>436</ele>
        <time>2020-10-05T14:40:26.988Z</time>
      </trkpt>
      <trkpt lat="43.99104" lon="5.89635">
        <ele>436</ele>
        <time>2020-10-05T14:40:27.988Z</time>
      </trkpt>
      <trkpt lat="43.99103" lon="5.89634">
        <ele>436</ele>
        <time>2020-10-05T14:40:28.988Z</time>
      </trkpt>
      <trkpt lat="43.99103" lon="5.89633">
        <ele>436</ele>
        <time>2020-10-05T14:40:29.988Z</time>
      </trkpt>
      <trkpt lat="43.99102" lon="5.89632">
        <ele>436</ele>
        <time>2020-10-05T14:40:30.988Z</time>
      </trkpt>
      <trkpt lat="43.99102" lon="5.8963">
        <ele>435</ele>
        <time>2020-10-05T14:40:31.988Z</time>
      </trkpt>
      <trkpt lat="43.99101" lon="5.89629">
        <ele>435</ele>
        <time>2020-10-05T14:40:32.988Z</time>
      </trkpt>
      <trkpt lat="43.99101" lon="5.89628">
        <ele>435</ele>
        <time>2020-10-05T14:40:33.988Z</time>
      </trkpt>
      <trkpt lat="43.991" lon="5.89626">
        <ele>435</ele>
        <time>2020-10-05T14:40:34.988Z</time>
      </trkpt>
      <trkpt lat="43.99099" lon="5.89625">
        <ele>435</ele>
        <time>2020-10-05T14:40:35.988Z</time>
      </trkpt>
      <trkpt lat="43.99099" lon="5.89624">
        <ele>435</ele>
        <time>2020-10-05T14:40:36.988Z</time>
      </trkpt>
      <trkpt lat="43.99098" lon="5.89622">
        <ele>434</ele>
        <time>2020-10-05T14:40:37.988Z</time>
      </trkpt>
      <trkpt lat="43.99098" lon="5.89621">
        <ele>434</ele>
        <time>2020-10-05T14:40:38.988Z</time>
      </trkpt>
      <trkpt lat="43.99098" lon="5.8962">
        <ele>434</ele>
        <time>2020-10-05T14:40:39.988Z</time>
      </trkpt>
      <trkpt lat="43.99097" lon="5.89618">
        <ele>434</ele>
        <time>2020-10-05T14:40:40.988Z</time>
      </trkpt>
      <trkpt lat="43.99097" lon="5.89617">
        <ele>434</ele>
        <time>2020-10-05T14:40:41.988Z</time>
      </trkpt>
      <trkpt lat="43.99096" lon="5.89615">
        <ele>434</ele>
        <time>2020-10-05T14:40:42.988Z</time>
      </trkpt>
      <trkpt lat="43.99096" lon="5.89614">
        <ele>434</ele>
        <time>2020-10-05T14:40:43.988Z</time>
      </trkpt>
      <trkpt lat="43.99095" lon="5.89612">
        <ele>433</ele>
        <time>2020-10-05T14:40:44.988Z</time>
      </trkpt>
      <trkpt lat="43.99095" lon="5.89611">
        <ele>433</ele>
        <time>2020-10-05T14:40:45.988Z</time>
      </trkpt>
      <trkpt lat="43.99095" lon="5.8961">
        <ele>433</ele>
        <time>2020-10-05T14:40:46.988Z</time>
      </trkpt>
      <trkpt lat="43.99094" lon="5.89608">
        <ele>433</ele>
        <time>2020-10-05T14:40:47.988Z</time>
      </trkpt>
      <trkpt lat="43.99093" lon="5.89607">
        <ele>433</ele>
        <time>2020-10-05T14:40:48.988Z</time>
      </trkpt>
      <trkpt lat="43.99093" lon="5.89605">
        <ele>433</ele>
        <time>2020-10-05T14:40:49.988Z</time>
      </trkpt>
      <trkpt lat="43.99092" lon="5.89604">
        <ele>433</ele>
        <time>2020-10-05T14:40:50.988Z</time>
      </trkpt>
      <trkpt lat="43.99092" lon="5.89603">
        <ele>432</ele>
        <time>2020-10-05T14:40:51.988Z</time>
      </trkpt>
      <trkpt lat="43.99091" lon="5.89601">
        <ele>432</ele>
        <time>2020-10-05T14:40:52.988Z</time>
      </trkpt>
      <trkpt lat="43.9909" lon="5.896">
        <ele>432</ele>
        <time>2020-10-05T14:40:53.988Z</time>
      </trkpt>
      <trkpt lat="43.9909" lon="5.89599">
        <ele>432</ele>
        <time>2020-10-05T14:40:54.988Z</time>
      </trkpt>
      <trkpt lat="43.99089" lon="5.89598">
        <ele>432</ele>
        <time>2020-10-05T14:40:55.988Z</time>
      </trkpt>
      <trkpt lat="43.99088" lon="5.89597">
        <ele>432</ele>
        <time>2020-10-05T14:40:56.988Z</time>
      </trkpt>
      <trkpt lat="43.99088" lon="5.89595">
        <ele>432</ele>
        <time>2020-10-05T14:40:57.988Z</time>
      </trkpt>
      <trkpt lat="43.99088" lon="5.89594">
        <ele>432</ele>
        <time>2020-10-05T14:40:58.988Z</time>
      </trkpt>
      <trkpt lat="43.99087" lon="5.89592">
        <ele>431</ele>
        <time>2020-10-05T14:40:59.988Z</time>
      </trkpt>
      <trkpt lat="43.99087" lon="5.89591">
        <ele>431</ele>
        <time>2020-10-05T14:41:00.988Z</time>
      </trkpt>
      <trkpt lat="43.99086" lon="5.89589">
        <ele>431</ele>
        <time>2020-10-05T14:41:01.988Z</time>
      </trkpt>
      <trkpt lat="43.99086" lon="5.89588">
        <ele>431</ele>
        <time>2020-10-05T14:41:02.988Z</time>
      </trkpt>
      <trkpt lat="43.99085" lon="5.89586">
        <ele>431</ele>
        <time>2020-10-05T14:41:03.988Z</time>
      </trkpt>
      <trkpt lat="43.99085" lon="5.89584">
        <ele>431</ele>
        <time>2020-10-05T14:41:04.988Z</time>
      </trkpt>
      <trkpt lat="43.99085" lon="5.89583">
        <ele>431</ele>
        <time>2020-10-05T14:41:05.988Z</time>
      </trkpt>
      <trkpt lat="43.99085" lon="5.89581">
        <ele>431</ele>
        <time>2020-10-05T14:41:06.988Z</time>
      </trkpt>
      <trkpt lat="43.99085" lon="5.8958">
        <ele>431</ele>
        <time>2020-10-05T14:41:07.988Z</time>
      </trkpt>
      <trkpt lat="43.99085" lon="5.89578">
        <ele>431</ele>
        <time>2020-10-05T14:41:08.988Z</time>
      </trkpt>
      <trkpt lat="43.99086" lon="5.89576">
        <ele>430</ele>
        <time>2020-10-05T14:41:09.988Z</time>
      </trkpt>
      <trkpt lat="43.99086" lon="5.89575">
        <ele>430</ele>
        <time>2020-10-05T14:41:10.988Z</time>
      </trkpt>
      <trkpt lat="43.99086" lon="5.89573">
        <ele>430</ele>
        <time>2020-10-05T14:41:11.988Z</time>
      </trkpt>
      <trkpt lat="43.99086" lon="5.89571">
        <ele>430</ele>
        <time>2020-10-05T14:41:12.988Z</time>
      </trkpt>
      <trkpt lat="43.99086" lon="5.8957">
        <ele>430</ele>
        <time>2020-10-05T14:41:13.988Z</time>
      </trkpt>
      <trkpt lat="43.99086" lon="5.89568">
        <ele>430</ele>
        <time>2020-10-05T14:41:14.988Z</time>
      </trkpt>
      <trkpt lat="43.99086" lon="5.89567">
        <ele>429</ele>
        <time>2020-10-05T14:41:15.988Z</time>
      </trkpt>
      <trkpt lat="43.99086" lon="5.89565">
        <ele>429</ele>
        <time>2020-10-05T14:41:16.988Z</time>
      </trkpt>
      <trkpt lat="43.99086" lon="5.89563">
        <ele>429</ele>
        <time>2020-10-05T14:41:17.988Z</time>
      </trkpt>
      <trkpt lat="43.99087" lon="5.89562">
        <ele>429</ele>
        <time>2020-10-05T14:41:18.988Z</time>
      </trkpt>
      <trkpt lat="43.99086" lon="5.8956">
        <ele>429</ele>
        <time>2020-10-05T14:41:19.988Z</time>
      </trkpt>
      <trkpt lat="43.99086" lon="5.89558">
        <ele>429</ele>
        <time>2020-10-05T14:41:20.988Z</time>
      </trkpt>
      <trkpt lat="43.99085" lon="5.89557">
        <ele>429</ele>
        <time>2020-10-05T14:41:21.988Z</time>
      </trkpt>
      <trkpt lat="43.99085" lon="5.89555">
        <ele>429</ele>
        <time>2020-10-05T14:41:22.988Z</time>
      </trkpt>
      <trkpt lat="43.99085" lon="5.89553">
        <ele>429</ele>
        <time>2020-10-05T14:41:23.988Z</time>
      </trkpt>
      <trkpt lat="43.99085" lon="5.89552">
        <ele>429</ele>
        <time>2020-10-05T14:41:24.988Z</time>
      </trkpt>
      <trkpt lat="43.99084" lon="5.8955">
        <ele>428</ele>
        <time>2020-10-05T14:41:25.988Z</time>
      </trkpt>
      <trkpt lat="43.99084" lon="5.89548">
        <ele>428</ele>
        <time>2020-10-05T14:41:26.988Z</time>
      </trkpt>
      <trkpt lat="43.99084" lon="5.89546">
        <ele>428</ele>
        <time>2020-10-05T14:41:27.988Z</time>
      </trkpt>
      <trkpt lat="43.99084" lon="5.89545">
        <ele>428</ele>
        <time>2020-10-05T14:41:28.988Z</time>
      </trkpt>
      <trkpt lat="43.99084" lon="5.89543">
        <ele>428</ele>
        <time>2020-10-05T14:41:29.988Z</time>
      </trkpt>
      <trkpt lat="43.99083" lon="5.89542">
        <ele>428</ele>
        <time>2020-10-05T14:41:30.988Z</time>
      </trkpt>
      <trkpt lat="43.99083" lon="5.8954">
        <ele>428</ele>
        <time>2020-10-05T14:41:31.988Z</time>
      </trkpt>
      <trkpt lat="43.99083" lon="5.89538">
        <ele>428</ele>
        <time>2020-10-05T14:41:32.988Z</time>
      </trkpt>
      <trkpt lat="43.99083" lon="5.89537">
        <ele>428</ele>
        <time>2020-10-05T14:41:33.988Z</time>
      </trkpt>
      <trkpt lat="43.99083" lon="5.89535">
        <ele>428</ele>
        <time>2020-10-05T14:41:34.988Z</time>
      </trkpt>
      <trkpt lat="43.99084" lon="5.89534">
        <ele>427</ele>
        <time>2020-10-05T14:41:35.988Z</time>
      </trkpt>
      <trkpt lat="43.99084" lon="5.89532">
        <ele>427</ele>
        <time>2020-10-05T14:41:36.988Z</time>
      </trkpt>
      <trkpt lat="43.99084" lon="5.8953">
        <ele>427</ele>
        <time>2020-10-05T14:41:37.988Z</time>
      </trkpt>
      <trkpt lat="43.99084" lon="5.89529">
        <ele>427</ele>
        <time>2020-10-05T14:41:38.988Z</time>
      </trkpt>
      <trkpt lat="43.99085" lon="5.89527">
        <ele>427</ele>
        <time>2020-10-05T14:41:39.988Z</time>
      </trkpt>
      <trkpt lat="43.99085" lon="5.89524">
        <ele>426</ele>
        <time>2020-10-05T14:41:40.988Z</time>
      </trkpt>
      <trkpt lat="43.99085" lon="5.89523">
        <ele>426</ele>
        <time>2020-10-05T14:41:41.988Z</time>
      </trkpt>
      <trkpt lat="43.99086" lon="5.89521">
        <ele>426</ele>
        <time>2020-10-05T14:41:42.988Z</time>
      </trkpt>
      <trkpt lat="43.99086" lon="5.89519">
        <ele>426</ele>
        <time>2020-10-05T14:41:43.988Z</time>
      </trkpt>
      <trkpt lat="43.99086" lon="5.89517">
        <ele>426</ele>
        <time>2020-10-05T14:41:44.988Z</time>
      </trkpt>
      <trkpt lat="43.99086" lon="5.89516">
        <ele>426</ele>
        <time>2020-10-05T14:41:45.988Z</time>
      </trkpt>
      <trkpt lat="43.99086" lon="5.89514">
        <ele>425</ele>
        <time>2020-10-05T14:41:46.988Z</time>
      </trkpt>
      <trkpt lat="43.99086" lon="5.89512">
        <ele>425</ele>
        <time>2020-10-05T14:41:47.988Z</time>
      </trkpt>
      <trkpt lat="43.99086" lon="5.89511">
        <ele>425</ele>
        <time>2020-10-05T14:41:48.988Z</time>
      </trkpt>
      <trkpt lat="43.99086" lon="5.89509">
        <ele>425</ele>
        <time>2020-10-05T14:41:49.988Z</time>
      </trkpt>
      <trkpt lat="43.99086" lon="5.89508">
        <ele>425</ele>
        <time>2020-10-05T14:41:50.988Z</time>
      </trkpt>
      <trkpt lat="43.99086" lon="5.89506">
        <ele>425</ele>
        <time>2020-10-05T14:41:51.988Z</time>
      </trkpt>
      <trkpt lat="43.99086" lon="5.89504">
        <ele>424</ele>
        <time>2020-10-05T14:41:52.988Z</time>
      </trkpt>
      <trkpt lat="43.99085" lon="5.89503">
        <ele>424</ele>
        <time>2020-10-05T14:41:53.988Z</time>
      </trkpt>
      <trkpt lat="43.99085" lon="5.89501">
        <ele>424</ele>
        <time>2020-10-05T14:41:54.988Z</time>
      </trkpt>
      <trkpt lat="43.99085" lon="5.895">
        <ele>424</ele>
        <time>2020-10-05T14:41:55.988Z</time>
      </trkpt>
      <trkpt lat="43.99085" lon="5.89498">
        <ele>424</ele>
        <time>2020-10-05T14:41:56.988Z</time>
      </trkpt>
      <trkpt lat="43.99085" lon="5.89497">
        <ele>424</ele>
        <time>2020-10-05T14:41:57.988Z</time>
      </trkpt>
      <trkpt lat="43.99085" lon="5.89495">
        <ele>424</ele>
        <time>2020-10-05T14:41:58.988Z</time>
      </trkpt>
      <trkpt lat="43.99085" lon="5.89494">
        <ele>424</ele>
        <time>2020-10-05T14:41:59.988Z</time>
      </trkpt>
      <trkpt lat="43.99084" lon="5.89492">
        <ele>424</ele>
        <time>2020-10-05T14:42:00.988Z</time>
      </trkpt>
      <trkpt lat="43.99084" lon="5.89491">
        <ele>423</ele>
        <time>2020-10-05T14:42:01.988Z</time>
      </trkpt>
      <trkpt lat="43.99083" lon="5.8949">
        <ele>423</ele>
        <time>2020-10-05T14:42:02.988Z</time>
      </trkpt>
      <trkpt lat="43.99083" lon="5.89489">
        <ele>423</ele>
        <time>2020-10-05T14:42:03.988Z</time>
      </trkpt>
      <trkpt lat="43.99082" lon="5.89488">
        <ele>423</ele>
        <time>2020-10-05T14:42:04.988Z</time>
      </trkpt>
      <trkpt lat="43.99082" lon="5.89488">
        <ele>423</ele>
        <time>2020-10-05T14:42:05.988Z</time>
      </trkpt>
      <trkpt lat="43.99081" lon="5.89486">
        <ele>423</ele>
        <time>2020-10-05T14:42:06.988Z</time>
      </trkpt>
      <trkpt lat="43.9908" lon="5.89485">
        <ele>423</ele>
        <time>2020-10-05T14:42:07.988Z</time>
      </trkpt>
      <trkpt lat="43.9908" lon="5.89483">
        <ele>422</ele>
        <time>2020-10-05T14:42:08.988Z</time>
      </trkpt>
      <trkpt lat="43.9908" lon="5.89482">
        <ele>422</ele>
        <time>2020-10-05T14:42:09.988Z</time>
      </trkpt>
      <trkpt lat="43.9908" lon="5.8948">
        <ele>422</ele>
        <time>2020-10-05T14:42:10.988Z</time>
      </trkpt>
      <trkpt lat="43.99079" lon="5.89478">
        <ele>422</ele>
        <time>2020-10-05T14:42:11.988Z</time>
      </trkpt>
      <trkpt lat="43.99079" lon="5.89477">
        <ele>422</ele>
        <time>2020-10-05T14:42:12.988Z</time>
      </trkpt>
      <trkpt lat="43.99079" lon="5.89475">
        <ele>422</ele>
        <time>2020-10-05T14:42:13.988Z</time>
      </trkpt>
      <trkpt lat="43.9908" lon="5.89473">
        <ele>422</ele>
        <time>2020-10-05T14:42:14.988Z</time>
      </trkpt>
      <trkpt lat="43.9908" lon="5.89471">
        <ele>421</ele>
        <time>2020-10-05T14:42:15.988Z</time>
      </trkpt>
      <trkpt lat="43.9908" lon="5.89469">
        <ele>421</ele>
        <time>2020-10-05T14:42:16.988Z</time>
      </trkpt>
      <trkpt lat="43.99081" lon="5.89468">
        <ele>421</ele>
        <time>2020-10-05T14:42:17.988Z</time>
      </trkpt>
      <trkpt lat="43.99081" lon="5.89467">
        <ele>421</ele>
        <time>2020-10-05T14:42:18.988Z</time>
      </trkpt>
      <trkpt lat="43.99082" lon="5.89465">
        <ele>421</ele>
        <time>2020-10-05T14:42:19.988Z</time>
      </trkpt>
      <trkpt lat="43.99083" lon="5.89464">
        <ele>421</ele>
        <time>2020-10-05T14:42:20.988Z</time>
      </trkpt>
      <trkpt lat="43.99083" lon="5.89462">
        <ele>421</ele>
        <time>2020-10-05T14:42:21.988Z</time>
      </trkpt>
      <trkpt lat="43.99084" lon="5.89461">
        <ele>421</ele>
        <time>2020-10-05T14:42:22.988Z</time>
      </trkpt>
      <trkpt lat="43.99084" lon="5.8946">
        <ele>421</ele>
        <time>2020-10-05T14:42:23.988Z</time>
      </trkpt>
      <trkpt lat="43.99085" lon="5.89458">
        <ele>420</ele>
        <time>2020-10-05T14:42:24.988Z</time>
      </trkpt>
      <trkpt lat="43.99085" lon="5.89457">
        <ele>420</ele>
        <time>2020-10-05T14:42:25.988Z</time>
      </trkpt>
      <trkpt lat="43.99086" lon="5.89456">
        <ele>420</ele>
        <time>2020-10-05T14:42:26.988Z</time>
      </trkpt>
      <trkpt lat="43.99086" lon="5.89455">
        <ele>420</ele>
        <time>2020-10-05T14:42:27.988Z</time>
      </trkpt>
      <trkpt lat="43.99086" lon="5.89453">
        <ele>420</ele>
        <time>2020-10-05T14:42:28.988Z</time>
      </trkpt>
      <trkpt lat="43.99087" lon="5.89451">
        <ele>420</ele>
        <time>2020-10-05T14:42:29.988Z</time>
      </trkpt>
      <trkpt lat="43.99087" lon="5.8945">
        <ele>419</ele>
        <time>2020-10-05T14:42:30.988Z</time>
      </trkpt>
      <trkpt lat="43.99087" lon="5.89449">
        <ele>419</ele>
        <time>2020-10-05T14:42:31.988Z</time>
      </trkpt>
      <trkpt lat="43.99088" lon="5.89447">
        <ele>419</ele>
        <time>2020-10-05T14:42:32.988Z</time>
      </trkpt>
      <trkpt lat="43.99088" lon="5.89446">
        <ele>419</ele>
        <time>2020-10-05T14:42:33.988Z</time>
      </trkpt>
      <trkpt lat="43.99089" lon="5.89444">
        <ele>419</ele>
        <time>2020-10-05T14:42:34.988Z</time>
      </trkpt>
      <trkpt lat="43.99089" lon="5.89443">
        <ele>419</ele>
        <time>2020-10-05T14:42:35.988Z</time>
      </trkpt>
      <trkpt lat="43.99089" lon="5.89441">
        <ele>419</ele>
        <time>2020-10-05T14:42:36.988Z</time>
      </trkpt>
      <trkpt lat="43.99089" lon="5.8944">
        <ele>419</ele>
        <time>2020-10-05T14:42:37.988Z</time>
      </trkpt>
      <trkpt lat="43.9909" lon="5.89438">
        <ele>419</ele>
        <time>2020-10-05T14:42:38.988Z</time>
      </trkpt>
      <trkpt lat="43.9909" lon="5.89437">
        <ele>419</ele>
        <time>2020-10-05T14:42:39.988Z</time>
      </trkpt>
      <trkpt lat="43.9909" lon="5.89436">
        <ele>419</ele>
        <time>2020-10-05T14:42:40.988Z</time>
      </trkpt>
      <trkpt lat="43.99091" lon="5.89434">
        <ele>419</ele>
        <time>2020-10-05T14:42:41.988Z</time>
      </trkpt>
      <trkpt lat="43.99091" lon="5.89433">
        <ele>419</ele>
        <time>2020-10-05T14:42:42.988Z</time>
      </trkpt>
      <trkpt lat="43.99092" lon="5.89432">
        <ele>419</ele>
        <time>2020-10-05T14:42:43.988Z</time>
      </trkpt>
      <trkpt lat="43.99093" lon="5.89431">
        <ele>419</ele>
        <time>2020-10-05T14:42:44.988Z</time>
      </trkpt>
      <trkpt lat="43.99093" lon="5.8943">
        <ele>418</ele>
        <time>2020-10-05T14:42:45.988Z</time>
      </trkpt>
      <trkpt lat="43.99094" lon="5.89428">
        <ele>418</ele>
        <time>2020-10-05T14:42:46.988Z</time>
      </trkpt>
      <trkpt lat="43.99094" lon="5.89427">
        <ele>418</ele>
        <time>2020-10-05T14:42:47.988Z</time>
      </trkpt>
      <trkpt lat="43.99095" lon="5.89426">
        <ele>418</ele>
        <time>2020-10-05T14:42:48.988Z</time>
      </trkpt>
      <trkpt lat="43.99095" lon="5.89424">
        <ele>418</ele>
        <time>2020-10-05T14:42:49.988Z</time>
      </trkpt>
      <trkpt lat="43.99096" lon="5.89423">
        <ele>418</ele>
        <time>2020-10-05T14:42:50.988Z</time>
      </trkpt>
      <trkpt lat="43.99096" lon="5.89422">
        <ele>418</ele>
        <time>2020-10-05T14:42:51.988Z</time>
      </trkpt>
      <trkpt lat="43.99097" lon="5.89422">
        <ele>418</ele>
        <time>2020-10-05T14:42:52.988Z</time>
      </trkpt>
      <trkpt lat="43.99098" lon="5.89421">
        <ele>418</ele>
        <time>2020-10-05T14:42:53.988Z</time>
      </trkpt>
      <trkpt lat="43.99098" lon="5.89419">
        <ele>418</ele>
        <time>2020-10-05T14:42:54.988Z</time>
      </trkpt>
      <trkpt lat="43.99099" lon="5.89418">
        <ele>418</ele>
        <time>2020-10-05T14:42:55.988Z</time>
      </trkpt>
      <trkpt lat="43.991" lon="5.89417">
        <ele>418</ele>
        <time>2020-10-05T14:42:56.988Z</time>
      </trkpt>
      <trkpt lat="43.99101" lon="5.89417">
        <ele>418</ele>
        <time>2020-10-05T14:42:57.988Z</time>
      </trkpt>
      <trkpt lat="43.99102" lon="5.89416">
        <ele>418</ele>
        <time>2020-10-05T14:42:58.988Z</time>
      </trkpt>
      <trkpt lat="43.99102" lon="5.89415">
        <ele>418</ele>
        <time>2020-10-05T14:42:59.988Z</time>
      </trkpt>
      <trkpt lat="43.99103" lon="5.89414">
        <ele>418</ele>
        <time>2020-10-05T14:43:00.988Z</time>
      </trkpt>
      <trkpt lat="43.99104" lon="5.89413">
        <ele>418</ele>
        <time>2020-10-05T14:43:01.988Z</time>
      </trkpt>
      <trkpt lat="43.99104" lon="5.89413">
        <ele>418</ele>
        <time>2020-10-05T14:43:02.988Z</time>
      </trkpt>
      <trkpt lat="43.99105" lon="5.89412">
        <ele>418</ele>
        <time>2020-10-05T14:43:03.988Z</time>
      </trkpt>
      <trkpt lat="43.99106" lon="5.89412">
        <ele>418</ele>
        <time>2020-10-05T14:43:04.988Z</time>
      </trkpt>
      <trkpt lat="43.99107" lon="5.89411">
        <ele>418</ele>
        <time>2020-10-05T14:43:05.988Z</time>
      </trkpt>
      <trkpt lat="43.99107" lon="5.89411">
        <ele>418</ele>
        <time>2020-10-05T14:43:06.988Z</time>
      </trkpt>
      <trkpt lat="43.99108" lon="5.8941">
        <ele>418</ele>
        <time>2020-10-05T14:43:07.988Z</time>
      </trkpt>
      <trkpt lat="43.99108" lon="5.8941">
        <ele>418</ele>
        <time>2020-10-05T14:43:08.988Z</time>
      </trkpt>
      <trkpt lat="43.99108" lon="5.89409">
        <ele>418</ele>
        <time>2020-10-05T14:43:09.988Z</time>
      </trkpt>
      <trkpt lat="43.99108" lon="5.89409">
        <ele>418</ele>
        <time>2020-10-05T14:43:10.988Z</time>
      </trkpt>
      <trkpt lat="43.99109" lon="5.89408">
        <ele>418</ele>
        <time>2020-10-05T14:43:11.988Z</time>
      </trkpt>
      <trkpt lat="43.9911" lon="5.89407">
        <ele>418</ele>
        <time>2020-10-05T14:43:12.988Z</time>
      </trkpt>
      <trkpt lat="43.99111" lon="5.89406">
        <ele>418</ele>
        <time>2020-10-05T14:43:13.988Z</time>
      </trkpt>
      <trkpt lat="43.99111" lon="5.89405">
        <ele>418</ele>
        <time>2020-10-05T14:43:14.988Z</time>
      </trkpt>
      <trkpt lat="43.99113" lon="5.89404">
        <ele>418</ele>
        <time>2020-10-05T14:43:15.988Z</time>
      </trkpt>
      <trkpt lat="43.99114" lon="5.89404">
        <ele>418</ele>
        <time>2020-10-05T14:43:16.988Z</time>
      </trkpt>
      <trkpt lat="43.99115" lon="5.89403">
        <ele>418</ele>
        <time>2020-10-05T14:43:17.988Z</time>
      </trkpt>
      <trkpt lat="43.99116" lon="5.89403">
        <ele>418</ele>
        <time>2020-10-05T14:43:18.988Z</time>
      </trkpt>
      <trkpt lat="43.99117" lon="5.89402">
        <ele>418</ele>
        <time>2020-10-05T14:43:19.988Z</time>
      </trkpt>
      <trkpt lat="43.99118" lon="5.89402">
        <ele>418</ele>
        <time>2020-10-05T14:43:20.988Z</time>
      </trkpt>
      <trkpt lat="43.99119" lon="5.89402">
        <ele>417</ele>
        <time>2020-10-05T14:43:21.988Z</time>
      </trkpt>
      <trkpt lat="43.99119" lon="5.89401">
        <ele>417</ele>
        <time>2020-10-05T14:43:22.988Z</time>
      </trkpt>
      <trkpt lat="43.9912" lon="5.89401">
        <ele>417</ele>
        <time>2020-10-05T14:43:23.988Z</time>
      </trkpt>
      <trkpt lat="43.9912" lon="5.89401">
        <ele>417</ele>
        <time>2020-10-05T14:43:24.988Z</time>
      </trkpt>
      <trkpt lat="43.9912" lon="5.89401">
        <ele>417</ele>
        <time>2020-10-05T14:43:25.988Z</time>
      </trkpt>
      <trkpt lat="43.99121" lon="5.89401">
        <ele>417</ele>
        <time>2020-10-05T14:43:26.988Z</time>
      </trkpt>
      <trkpt lat="43.99121" lon="5.894">
        <ele>417</ele>
        <time>2020-10-05T14:43:27.988Z</time>
      </trkpt>
      <trkpt lat="43.99121" lon="5.894">
        <ele>417</ele>
        <time>2020-10-05T14:43:28.988Z</time>
      </trkpt>
      <trkpt lat="43.99121" lon="5.894">
        <ele>417</ele>
        <time>2020-10-05T14:43:29.988Z</time>
      </trkpt>
      <trkpt lat="43.99121" lon="5.894">
        <ele>417</ele>
        <time>2020-10-05T14:43:30.988Z</time>
      </trkpt>
      <trkpt lat="43.99121" lon="5.89399">
        <ele>418</ele>
        <time>2020-10-05T14:43:31.988Z</time>
      </trkpt>
      <trkpt lat="43.99121" lon="5.89399">
        <ele>418</ele>
        <time>2020-10-05T14:43:32.988Z</time>
      </trkpt>
      <trkpt lat="43.99121" lon="5.89398">
        <ele>418</ele>
        <time>2020-10-05T14:43:33.988Z</time>
      </trkpt>
      <trkpt lat="43.99122" lon="5.89398">
        <ele>418</ele>
        <time>2020-10-05T14:43:34.988Z</time>
      </trkpt>
      <trkpt lat="43.99122" lon="5.89397">
        <ele>418</ele>
        <time>2020-10-05T14:43:35.988Z</time>
      </trkpt>
      <trkpt lat="43.99122" lon="5.89396">
        <ele>418</ele>
        <time>2020-10-05T14:43:36.988Z</time>
      </trkpt>
      <trkpt lat="43.99123" lon="5.89395">
        <ele>418</ele>
        <time>2020-10-05T14:43:37.988Z</time>
      </trkpt>
      <trkpt lat="43.99123" lon="5.89394">
        <ele>418</ele>
        <time>2020-10-05T14:43:38.988Z</time>
      </trkpt>
      <trkpt lat="43.99123" lon="5.89393">
        <ele>418</ele>
        <time>2020-10-05T14:43:39.988Z</time>
      </trkpt>
      <trkpt lat="43.99123" lon="5.89392">
        <ele>418</ele>
        <time>2020-10-05T14:43:40.988Z</time>
      </trkpt>
      <trkpt lat="43.99123" lon="5.89391">
        <ele>418</ele>
        <time>2020-10-05T14:43:41.988Z</time>
      </trkpt>
      <trkpt lat="43.99122" lon="5.8939">
        <ele>418</ele>
        <time>2020-10-05T14:43:42.988Z</time>
      </trkpt>
      <trkpt lat="43.99122" lon="5.89389">
        <ele>418</ele>
        <time>2020-10-05T14:43:43.988Z</time>
      </trkpt>
      <trkpt lat="43.99122" lon="5.89388">
        <ele>418</ele>
        <time>2020-10-05T14:43:44.988Z</time>
      </trkpt>
      <trkpt lat="43.99122" lon="5.89388">
        <ele>418</ele>
        <time>2020-10-05T14:43:45.988Z</time>
      </trkpt>
      <trkpt lat="43.99122" lon="5.89388">
        <ele>418</ele>
        <time>2020-10-05T14:43:46.988Z</time>
      </trkpt>
      <trkpt lat="43.99122" lon="5.89388">
        <ele>418</ele>
        <time>2020-10-05T14:43:47.988Z</time>
      </trkpt>
      <trkpt lat="43.99122" lon="5.89388">
        <ele>418</ele>
        <time>2020-10-05T14:43:48.988Z</time>
      </trkpt>
      <trkpt lat="43.99122" lon="5.89388">
        <ele>418</ele>
        <time>2020-10-05T14:43:49.988Z</time>
      </trkpt>
      <trkpt lat="43.99121" lon="5.89388">
        <ele>418</ele>
        <time>2020-10-05T14:43:50.988Z</time>
      </trkpt>
      <trkpt lat="43.99121" lon="5.89388">
        <ele>417</ele>
        <time>2020-10-05T14:43:51.988Z</time>
      </trkpt>
      <trkpt lat="43.99121" lon="5.89387">
        <ele>417</ele>
        <time>2020-10-05T14:43:52.988Z</time>
      </trkpt>
      <trkpt lat="43.99121" lon="5.89386">
        <ele>417</ele>
        <time>2020-10-05T14:43:53.988Z</time>
      </trkpt>
      <trkpt lat="43.99121" lon="5.89386">
        <ele>417</ele>
        <time>2020-10-05T14:43:54.988Z</time>
      </trkpt>
      <trkpt lat="43.99121" lon="5.89385">
        <ele>417</ele>
        <time>2020-10-05T14:43:55.988Z</time>
      </trkpt>
      <trkpt lat="43.99121" lon="5.89384">
        <ele>417</ele>
        <time>2020-10-05T14:43:56.988Z</time>
      </trkpt>
      <trkpt lat="43.99121" lon="5.89383">
        <ele>417</ele>
        <time>2020-10-05T14:43:57.988Z</time>
      </trkpt>
      <trkpt lat="43.99121" lon="5.89382">
        <ele>416</ele>
        <time>2020-10-05T14:43:58.988Z</time>
      </trkpt>
      <trkpt lat="43.99121" lon="5.89382">
        <ele>416</ele>
        <time>2020-10-05T14:43:59.988Z</time>
      </trkpt>
      <trkpt lat="43.99122" lon="5.89381">
        <ele>416</ele>
        <time>2020-10-05T14:44:00.988Z</time>
      </trkpt>
      <trkpt lat="43.99122" lon="5.8938">
        <ele>416</ele>
        <time>2020-10-05T14:44:01.988Z</time>
      </trkpt>
      <trkpt lat="43.99123" lon="5.8938">
        <ele>416</ele>
        <time>2020-10-05T14:44:02.988Z</time>
      </trkpt>
      <trkpt lat="43.99123" lon="5.89379">
        <ele>416</ele>
        <time>2020-10-05T14:44:03.988Z</time>
      </trkpt>
      <trkpt lat="43.99123" lon="5.89379">
        <ele>416</ele>
        <time>2020-10-05T14:44:04.988Z</time>
      </trkpt>
      <trkpt lat="43.99123" lon="5.89378">
        <ele>416</ele>
        <time>2020-10-05T14:44:05.988Z</time>
      </trkpt>
      <trkpt lat="43.99123" lon="5.89378">
        <ele>416</ele>
        <time>2020-10-05T14:44:06.988Z</time>
      </trkpt>
      <trkpt lat="43.99123" lon="5.89378">
        <ele>415</ele>
        <time>2020-10-05T14:44:07.988Z</time>
      </trkpt>
      <trkpt lat="43.99124" lon="5.89378">
        <ele>415</ele>
        <time>2020-10-05T14:44:08.988Z</time>
      </trkpt>
      <trkpt lat="43.99124" lon="5.89378">
        <ele>415</ele>
        <time>2020-10-05T14:44:09.988Z</time>
      </trkpt>
      <trkpt lat="43.99124" lon="5.89378">
        <ele>415</ele>
        <time>2020-10-05T14:44:10.988Z</time>
      </trkpt>
      <trkpt lat="43.99124" lon="5.89378">
        <ele>415</ele>
        <time>2020-10-05T14:44:11.988Z</time>
      </trkpt>
      <trkpt lat="43.99124" lon="5.89377">
        <ele>415</ele>
        <time>2020-10-05T14:44:12.988Z</time>
      </trkpt>
      <trkpt lat="43.99124" lon="5.89377">
        <ele>415</ele>
        <time>2020-10-05T14:44:13.988Z</time>
      </trkpt>
      <trkpt lat="43.99124" lon="5.89377">
        <ele>415</ele>
        <time>2020-10-05T14:44:14.988Z</time>
      </trkpt>
      <trkpt lat="43.99124" lon="5.89377">
        <ele>415</ele>
        <time>2020-10-05T14:44:15.988Z</time>
      </trkpt>
      <trkpt lat="43.99124" lon="5.89377">
        <ele>415</ele>
        <time>2020-10-05T14:44:16.988Z</time>
      </trkpt>
      <trkpt lat="43.99124" lon="5.89377">
        <ele>415</ele>
        <time>2020-10-05T14:44:17.988Z</time>
      </trkpt>
      <trkpt lat="43.99124" lon="5.89377">
        <ele>415</ele>
        <time>2020-10-05T14:44:18.988Z</time>
      </trkpt>
      <trkpt lat="43.99124" lon="5.89377">
        <ele>415</ele>
        <time>2020-10-05T14:44:19.988Z</time>
      </trkpt>
      <trkpt lat="43.99124" lon="5.89377">
        <ele>415</ele>
        <time>2020-10-05T14:44:20.988Z</time>
      </trkpt>
      <trkpt lat="43.99124" lon="5.89377">
        <ele>415</ele>
        <time>2020-10-05T14:44:21.988Z</time>
      </trkpt>
      <trkpt lat="43.99125" lon="5.89377">
        <ele>415</ele>
        <time>2020-10-05T14:44:22.988Z</time>
      </trkpt>
      <trkpt lat="43.99125" lon="5.89378">
        <ele>415</ele>
        <time>2020-10-05T14:44:23.988Z</time>
      </trkpt>
      <trkpt lat="43.99125" lon="5.89378">
        <ele>415</ele>
        <time>2020-10-05T14:44:24.988Z</time>
      </trkpt>
      <trkpt lat="43.99124" lon="5.89378">
        <ele>415</ele>
        <time>2020-10-05T14:44:25.988Z</time>
      </trkpt>
      <trkpt lat="43.99124" lon="5.89379">
        <ele>415</ele>
        <time>2020-10-05T14:44:26.988Z</time>
      </trkpt>
      <trkpt lat="43.99124" lon="5.89379">
        <ele>415</ele>
        <time>2020-10-05T14:44:27.988Z</time>
      </trkpt>
      <trkpt lat="43.99123" lon="5.89379">
        <ele>415</ele>
        <time>2020-10-05T14:44:28.988Z</time>
      </trkpt>
      <trkpt lat="43.99123" lon="5.89379">
        <ele>415</ele>
        <time>2020-10-05T14:44:29.988Z</time>
      </trkpt>
      <trkpt lat="43.99123" lon="5.89379">
        <ele>415</ele>
        <time>2020-10-05T14:44:30.988Z</time>
      </trkpt>
      <trkpt lat="43.99123" lon="5.8938">
        <ele>415</ele>
        <time>2020-10-05T14:44:31.988Z</time>
      </trkpt>
      <trkpt lat="43.99123" lon="5.8938">
        <ele>415</ele>
        <time>2020-10-05T14:44:32.988Z</time>
      </trkpt>
      <trkpt lat="43.99123" lon="5.8938">
        <ele>415</ele>
        <time>2020-10-05T14:44:33.988Z</time>
      </trkpt>
      <trkpt lat="43.99123" lon="5.8938">
        <ele>415</ele>
        <time>2020-10-05T14:44:34.988Z</time>
      </trkpt>
      <trkpt lat="43.99123" lon="5.8938">
        <ele>415</ele>
        <time>2020-10-05T14:44:35.988Z</time>
      </trkpt>
      <trkpt lat="43.99123" lon="5.8938">
        <ele>415</ele>
        <time>2020-10-05T14:44:36.988Z</time>
      </trkpt>
      <trkpt lat="43.99123" lon="5.8938">
        <ele>415</ele>
        <time>2020-10-05T14:44:37.988Z</time>
      </trkpt>
      <trkpt lat="43.99123" lon="5.8938">
        <ele>415</ele>
        <time>2020-10-05T14:44:38.988Z</time>
      </trkpt>
      <trkpt lat="43.99123" lon="5.8938">
        <ele>415</ele>
        <time>2020-10-05T14:44:39.988Z</time>
      </trkpt>
      <trkpt lat="43.99123" lon="5.8938">
        <ele>415</ele>
        <time>2020-10-05T14:44:40.988Z</time>
      </trkpt>
      <trkpt lat="43.99123" lon="5.8938">
        <ele>415</ele>
        <time>2020-10-05T14:44:41.988Z</time>
      </trkpt>
      <trkpt lat="43.99123" lon="5.89381">
        <ele>415</ele>
        <time>2020-10-05T14:44:42.988Z</time>
      </trkpt>
      <trkpt lat="43.99123" lon="5.89381">
        <ele>415</ele>
        <time>2020-10-05T14:44:43.988Z</time>
      </trkpt>
      <trkpt lat="43.99123" lon="5.89381">
        <ele>415</ele>
        <time>2020-10-05T14:44:44.988Z</time>
      </trkpt>
      <trkpt lat="43.99123" lon="5.89381">
        <ele>415</ele>
        <time>2020-10-05T14:44:45.988Z</time>
      </trkpt>
      <trkpt lat="43.99123" lon="5.89381">
        <ele>415</ele>
        <time>2020-10-05T14:44:46.988Z</time>
      </trkpt>
      <trkpt lat="43.99123" lon="5.89381">
        <ele>415</ele>
        <time>2020-10-05T14:44:47.988Z</time>
      </trkpt>
      <trkpt lat="43.99123" lon="5.89381">
        <ele>415</ele>
        <time>2020-10-05T14:44:48.988Z</time>
      </trkpt>
      <trkpt lat="43.99123" lon="5.89381">
        <ele>415</ele>
        <time>2020-10-05T14:44:49.988Z</time>
      </trkpt>
      <trkpt lat="43.99123" lon="5.89381">
        <ele>415</ele>
        <time>2020-10-05T14:44:50.988Z</time>
      </trkpt>
      <trkpt lat="43.99123" lon="5.89381">
        <ele>415</ele>
        <time>2020-10-05T14:44:51.988Z</time>
      </trkpt>
      <trkpt lat="43.99123" lon="5.89381">
        <ele>415</ele>
        <time>2020-10-05T14:44:52.988Z</time>
      </trkpt>
      <trkpt lat="43.99123" lon="5.89382">
        <ele>415</ele>
        <time>2020-10-05T14:44:53.988Z</time>
      </trkpt>
      <trkpt lat="43.99123" lon="5.89382">
        <ele>415</ele>
        <time>2020-10-05T14:44:54.988Z</time>
      </trkpt>
      <trkpt lat="43.99123" lon="5.89382">
        <ele>415</ele>
        <time>2020-10-05T14:44:55.988Z</time>
      </trkpt>
      <trkpt lat="43.99123" lon="5.89382">
        <ele>415</ele>
        <time>2020-10-05T14:44:56.988Z</time>
      </trkpt>
      <trkpt lat="43.99123" lon="5.89382">
        <ele>415</ele>
        <time>2020-10-05T14:44:57.988Z</time>
      </trkpt>
      <trkpt lat="43.99123" lon="5.89382">
        <ele>415</ele>
        <time>2020-10-05T14:44:58.988Z</time>
      </trkpt>
      <trkpt lat="43.99123" lon="5.89382">
        <ele>415</ele>
        <time>2020-10-05T14:44:59.988Z</time>
      </trkpt>
      <trkpt lat="43.99123" lon="5.89382">
        <ele>416</ele>
        <time>2020-10-05T14:45:00.988Z</time>
      </trkpt>
      <trkpt lat="43.99123" lon="5.89382">
        <ele>416</ele>
        <time>2020-10-05T14:45:01.988Z</time>
      </trkpt>
      <trkpt lat="43.99123" lon="5.89382">
        <ele>416</ele>
        <time>2020-10-05T14:45:02.988Z</time>
      </trkpt>
      <trkpt lat="43.99123" lon="5.89382">
        <ele>416</ele>
        <time>2020-10-05T14:45:03.988Z</time>
      </trkpt>
      <trkpt lat="43.99123" lon="5.89382">
        <ele>416</ele>
        <time>2020-10-05T14:45:04.988Z</time>
      </trkpt>
      <trkpt lat="43.99123" lon="5.89382">
        <ele>416</ele>
        <time>2020-10-05T14:45:05.988Z</time>
      </trkpt>
      <trkpt lat="43.99123" lon="5.89382">
        <ele>416</ele>
        <time>2020-10-05T14:45:06.988Z</time>
      </trkpt>
      <trkpt lat="43.99123" lon="5.89383">
        <ele>416</ele>
        <time>2020-10-05T14:45:07.988Z</time>
      </trkpt>
      <trkpt lat="43.99123" lon="5.89383">
        <ele>416</ele>
        <time>2020-10-05T14:45:08.988Z</time>
      </trkpt>
      <trkpt lat="43.99123" lon="5.89383">
        <ele>416</ele>
        <time>2020-10-05T14:45:09.988Z</time>
      </trkpt>
      <trkpt lat="43.99122" lon="5.89383">
        <ele>416</ele>
        <time>2020-10-05T14:45:10.988Z</time>
      </trkpt>
      <trkpt lat="43.99122" lon="5.89383">
        <ele>416</ele>
        <time>2020-10-05T14:45:11.988Z</time>
      </trkpt>
      <trkpt lat="43.99123" lon="5.89383">
        <ele>416</ele>
        <time>2020-10-05T14:45:12.988Z</time>
      </trkpt>
      <trkpt lat="43.99123" lon="5.89383">
        <ele>416</ele>
        <time>2020-10-05T14:45:13.988Z</time>
      </trkpt>
      <trkpt lat="43.99123" lon="5.89382">
        <ele>416</ele>
        <time>2020-10-05T14:45:14.988Z</time>
      </trkpt>
      <trkpt lat="43.99123" lon="5.89382">
        <ele>416</ele>
        <time>2020-10-05T14:45:15.988Z</time>
      </trkpt>
      <trkpt lat="43.99123" lon="5.89382">
        <ele>416</ele>
        <time>2020-10-05T14:45:16.988Z</time>
      </trkpt>
      <trkpt lat="43.99123" lon="5.89382">
        <ele>416</ele>
        <time>2020-10-05T14:45:17.988Z</time>
      </trkpt>
      <trkpt lat="43.99123" lon="5.89382">
        <ele>416</ele>
        <time>2020-10-05T14:45:18.988Z</time>
      </trkpt>
      <trkpt lat="43.99123" lon="5.89382">
        <ele>416</ele>
        <time>2020-10-05T14:45:19.988Z</time>
      </trkpt>
      <trkpt lat="43.99123" lon="5.89382">
        <ele>416</ele>
        <time>2020-10-05T14:45:20.988Z</time>
      </trkpt>
      <trkpt lat="43.99123" lon="5.89382">
        <ele>416</ele>
        <time>2020-10-05T14:45:21.988Z</time>
      </trkpt>
      <trkpt lat="43.99122" lon="5.89382">
        <ele>416</ele>
        <time>2020-10-05T14:45:22.988Z</time>
      </trkpt>
      <trkpt lat="43.99122" lon="5.89382">
        <ele>416</ele>
        <time>2020-10-05T14:45:23.988Z</time>
      </trkpt>
      <trkpt lat="43.99122" lon="5.89383">
        <ele>416</ele>
        <time>2020-10-05T14:45:24.988Z</time>
      </trkpt>
      <trkpt lat="43.99123" lon="5.89382">
        <ele>416</ele>
        <time>2020-10-05T14:45:25.988Z</time>
      </trkpt>
      <trkpt lat="43.99123" lon="5.89382">
        <ele>416</ele>
        <time>2020-10-05T14:45:26.988Z</time>
      </trkpt>
      <trkpt lat="43.99123" lon="5.89382">
        <ele>416</ele>
        <time>2020-10-05T14:45:27.988Z</time>
      </trkpt>
      <trkpt lat="43.99123" lon="5.89382">
        <ele>416</ele>
        <time>2020-10-05T14:45:28.988Z</time>
      </trkpt>
      <trkpt lat="43.99124" lon="5.89381">
        <ele>416</ele>
        <time>2020-10-05T14:45:29.988Z</time>
      </trkpt>
      <trkpt lat="43.99124" lon="5.89381">
        <ele>416</ele>
        <time>2020-10-05T14:45:30.988Z</time>
      </trkpt>
      <trkpt lat="43.99124" lon="5.89381">
        <ele>416</ele>
        <time>2020-10-05T14:45:31.988Z</time>
      </trkpt>
      <trkpt lat="43.99124" lon="5.89382">
        <ele>416</ele>
        <time>2020-10-05T14:45:32.988Z</time>
      </trkpt>
      <trkpt lat="43.99123" lon="5.89382">
        <ele>416</ele>
        <time>2020-10-05T14:45:33.988Z</time>
      </trkpt>
      <trkpt lat="43.99123" lon="5.89382">
        <ele>416</ele>
        <time>2020-10-05T14:45:34.988Z</time>
      </trkpt>
      <trkpt lat="43.99123" lon="5.89382">
        <ele>416</ele>
        <time>2020-10-05T14:45:35.988Z</time>
      </trkpt>
      <trkpt lat="43.99123" lon="5.89382">
        <ele>416</ele>
        <time>2020-10-05T14:45:36.988Z</time>
      </trkpt>
      <trkpt lat="43.99123" lon="5.89382">
        <ele>416</ele>
        <time>2020-10-05T14:45:37.988Z</time>
      </trkpt>
      <trkpt lat="43.99123" lon="5.89382">
        <ele>416</ele>
        <time>2020-10-05T14:45:38.988Z</time>
      </trkpt>
      <trkpt lat="43.99123" lon="5.89382">
        <ele>416</ele>
        <time>2020-10-05T14:45:39.988Z</time>
      </trkpt>
      <trkpt lat="43.99123" lon="5.89382">
        <ele>416</ele>
        <time>2020-10-05T14:45:40.988Z</time>
      </trkpt>
      <trkpt lat="43.99123" lon="5.89382">
        <ele>416</ele>
        <time>2020-10-05T14:45:41.988Z</time>
      </trkpt>
      <trkpt lat="43.99123" lon="5.89382">
        <ele>416</ele>
        <time>2020-10-05T14:45:42.988Z</time>
      </trkpt>
      <trkpt lat="43.99124" lon="5.89382">
        <ele>416</ele>
        <time>2020-10-05T14:45:43.988Z</time>
      </trkpt>
      <trkpt lat="43.99124" lon="5.89382">
        <ele>417</ele>
        <time>2020-10-05T14:45:44.988Z</time>
      </trkpt>
      <trkpt lat="43.99124" lon="5.89382">
        <ele>417</ele>
        <time>2020-10-05T14:45:45.988Z</time>
      </trkpt>
      <trkpt lat="43.99124" lon="5.89383">
        <ele>417</ele>
        <time>2020-10-05T14:45:46.988Z</time>
      </trkpt>
      <trkpt lat="43.99124" lon="5.89383">
        <ele>417</ele>
        <time>2020-10-05T14:45:47.988Z</time>
      </trkpt>
      <trkpt lat="43.99124" lon="5.89383">
        <ele>417</ele>
        <time>2020-10-05T14:45:48.988Z</time>
      </trkpt>
      <trkpt lat="43.99124" lon="5.89383">
        <ele>417</ele>
        <time>2020-10-05T14:45:49.988Z</time>
      </trkpt>
      <trkpt lat="43.99124" lon="5.89383">
        <ele>417</ele>
        <time>2020-10-05T14:45:50.988Z</time>
      </trkpt>
      <trkpt lat="43.99124" lon="5.89383">
        <ele>417</ele>
        <time>2020-10-05T14:45:51.988Z</time>
      </trkpt>
      <trkpt lat="43.99124" lon="5.89383">
        <ele>417</ele>
        <time>2020-10-05T14:45:52.988Z</time>
      </trkpt>
      <trkpt lat="43.99124" lon="5.89383">
        <ele>417</ele>
        <time>2020-10-05T14:45:53.988Z</time>
      </trkpt>
      <trkpt lat="43.99124" lon="5.89383">
        <ele>417</ele>
        <time>2020-10-05T14:45:54.988Z</time>
      </trkpt>
      <trkpt lat="43.99125" lon="5.89383">
        <ele>417</ele>
        <time>2020-10-05T14:45:55.988Z</time>
      </trkpt>
      <trkpt lat="43.99125" lon="5.89383">
        <ele>417</ele>
        <time>2020-10-05T14:45:56.988Z</time>
      </trkpt>
      <trkpt lat="43.99125" lon="5.89383">
        <ele>417</ele>
        <time>2020-10-05T14:45:57.988Z</time>
      </trkpt>
      <trkpt lat="43.99125" lon="5.89382">
        <ele>418</ele>
        <time>2020-10-05T14:45:58.988Z</time>
      </trkpt>
      <trkpt lat="43.99126" lon="5.89382">
        <ele>418</ele>
        <time>2020-10-05T14:45:59.988Z</time>
      </trkpt>
      <trkpt lat="43.99126" lon="5.89382">
        <ele>418</ele>
        <time>2020-10-05T14:46:00.988Z</time>
      </trkpt>
      <trkpt lat="43.99126" lon="5.89381">
        <ele>418</ele>
        <time>2020-10-05T14:46:01.988Z</time>
      </trkpt>
      <trkpt lat="43.99126" lon="5.89381">
        <ele>418</ele>
        <time>2020-10-05T14:46:02.988Z</time>
      </trkpt>
      <trkpt lat="43.99126" lon="5.89381">
        <ele>418</ele>
        <time>2020-10-05T14:46:03.988Z</time>
      </trkpt>
      <trkpt lat="43.99126" lon="5.89381">
        <ele>418</ele>
        <time>2020-10-05T14:46:04.988Z</time>
      </trkpt>
      <trkpt lat="43.99126" lon="5.89381">
        <ele>417</ele>
        <time>2020-10-05T14:46:05.988Z</time>
      </trkpt>
      <trkpt lat="43.99127" lon="5.8938">
        <ele>417</ele>
        <time>2020-10-05T14:46:06.988Z</time>
      </trkpt>
      <trkpt lat="43.99127" lon="5.8938">
        <ele>417</ele>
        <time>2020-10-05T14:46:07.988Z</time>
      </trkpt>
      <trkpt lat="43.99127" lon="5.89379">
        <ele>417</ele>
        <time>2020-10-05T14:46:08.988Z</time>
      </trkpt>
      <trkpt lat="43.99127" lon="5.89379">
        <ele>417</ele>
        <time>2020-10-05T14:46:09.988Z</time>
      </trkpt>
      <trkpt lat="43.99127" lon="5.89379">
        <ele>417</ele>
        <time>2020-10-05T14:46:10.988Z</time>
      </trkpt>
      <trkpt lat="43.99127" lon="5.89378">
        <ele>417</ele>
        <time>2020-10-05T14:46:11.988Z</time>
      </trkpt>
      <trkpt lat="43.99127" lon="5.89378">
        <ele>417</ele>
        <time>2020-10-05T14:46:12.988Z</time>
      </trkpt>
      <trkpt lat="43.99127" lon="5.89378">
        <ele>417</ele>
        <time>2020-10-05T14:46:13.988Z</time>
      </trkpt>
      <trkpt lat="43.99127" lon="5.89378">
        <ele>417</ele>
        <time>2020-10-05T14:46:14.988Z</time>
      </trkpt>
      <trkpt lat="43.99127" lon="5.89378">
        <ele>417</ele>
        <time>2020-10-05T14:46:15.988Z</time>
      </trkpt>
      <trkpt lat="43.99127" lon="5.89377">
        <ele>417</ele>
        <time>2020-10-05T14:46:16.988Z</time>
      </trkpt>
      <trkpt lat="43.99127" lon="5.89377">
        <ele>417</ele>
        <time>2020-10-05T14:46:17.988Z</time>
      </trkpt>
      <trkpt lat="43.99127" lon="5.89377">
        <ele>417</ele>
        <time>2020-10-05T14:46:18.988Z</time>
      </trkpt>
      <trkpt lat="43.99128" lon="5.89377">
        <ele>416</ele>
        <time>2020-10-05T14:46:19.988Z</time>
      </trkpt>
      <trkpt lat="43.99128" lon="5.89376">
        <ele>416</ele>
        <time>2020-10-05T14:46:20.988Z</time>
      </trkpt>
      <trkpt lat="43.99128" lon="5.89375">
        <ele>416</ele>
        <time>2020-10-05T14:46:21.988Z</time>
      </trkpt>
      <trkpt lat="43.99128" lon="5.89374">
        <ele>416</ele>
        <time>2020-10-05T14:46:22.988Z</time>
      </trkpt>
      <trkpt lat="43.99128" lon="5.89373">
        <ele>416</ele>
        <time>2020-10-05T14:46:23.988Z</time>
      </trkpt>
      <trkpt lat="43.99129" lon="5.89372">
        <ele>416</ele>
        <time>2020-10-05T14:46:24.988Z</time>
      </trkpt>
      <trkpt lat="43.99129" lon="5.89371">
        <ele>416</ele>
        <time>2020-10-05T14:46:25.988Z</time>
      </trkpt>
      <trkpt lat="43.99129" lon="5.8937">
        <ele>416</ele>
        <time>2020-10-05T14:46:26.988Z</time>
      </trkpt>
      <trkpt lat="43.99129" lon="5.89369">
        <ele>416</ele>
        <time>2020-10-05T14:46:27.988Z</time>
      </trkpt>
      <trkpt lat="43.9913" lon="5.89369">
        <ele>416</ele>
        <time>2020-10-05T14:46:28.988Z</time>
      </trkpt>
      <trkpt lat="43.9913" lon="5.89369">
        <ele>416</ele>
        <time>2020-10-05T14:46:29.988Z</time>
      </trkpt>
      <trkpt lat="43.9913" lon="5.89368">
        <ele>416</ele>
        <time>2020-10-05T14:46:30.988Z</time>
      </trkpt>
      <trkpt lat="43.9913" lon="5.89368">
        <ele>416</ele>
        <time>2020-10-05T14:46:31.988Z</time>
      </trkpt>
      <trkpt lat="43.9913" lon="5.89367">
        <ele>416</ele>
        <time>2020-10-05T14:46:32.988Z</time>
      </trkpt>
      <trkpt lat="43.9913" lon="5.89367">
        <ele>416</ele>
        <time>2020-10-05T14:46:33.988Z</time>
      </trkpt>
      <trkpt lat="43.9913" lon="5.89367">
        <ele>416</ele>
        <time>2020-10-05T14:46:34.988Z</time>
      </trkpt>
      <trkpt lat="43.9913" lon="5.89367">
        <ele>416</ele>
        <time>2020-10-05T14:46:35.988Z</time>
      </trkpt>
      <trkpt lat="43.9913" lon="5.89367">
        <ele>416</ele>
        <time>2020-10-05T14:46:36.988Z</time>
      </trkpt>
      <trkpt lat="43.9913" lon="5.89367">
        <ele>416</ele>
        <time>2020-10-05T14:46:37.988Z</time>
      </trkpt>
      <trkpt lat="43.9913" lon="5.89366">
        <ele>416</ele>
        <time>2020-10-05T14:46:38.988Z</time>
      </trkpt>
      <trkpt lat="43.9913" lon="5.89366">
        <ele>416</ele>
        <time>2020-10-05T14:46:39.988Z</time>
      </trkpt>
      <trkpt lat="43.9913" lon="5.89366">
        <ele>416</ele>
        <time>2020-10-05T14:46:40.988Z</time>
      </trkpt>
      <trkpt lat="43.9913" lon="5.89366">
        <ele>416</ele>
        <time>2020-10-05T14:46:41.988Z</time>
      </trkpt>
      <trkpt lat="43.9913" lon="5.89365">
        <ele>416</ele>
        <time>2020-10-05T14:46:42.988Z</time>
      </trkpt>
      <trkpt lat="43.9913" lon="5.89365">
        <ele>416</ele>
        <time>2020-10-05T14:46:43.988Z</time>
      </trkpt>
      <trkpt lat="43.9913" lon="5.89365">
        <ele>416</ele>
        <time>2020-10-05T14:46:44.988Z</time>
      </trkpt>
      <trkpt lat="43.9913" lon="5.89365">
        <ele>416</ele>
        <time>2020-10-05T14:46:45.988Z</time>
      </trkpt>
      <trkpt lat="43.9913" lon="5.89365">
        <ele>416</ele>
        <time>2020-10-05T14:46:46.988Z</time>
      </trkpt>
      <trkpt lat="43.9913" lon="5.89364">
        <ele>416</ele>
        <time>2020-10-05T14:46:47.988Z</time>
      </trkpt>
      <trkpt lat="43.9913" lon="5.89364">
        <ele>416</ele>
        <time>2020-10-05T14:46:48.988Z</time>
      </trkpt>
      <trkpt lat="43.9913" lon="5.89364">
        <ele>416</ele>
        <time>2020-10-05T14:46:49.988Z</time>
      </trkpt>
      <trkpt lat="43.9913" lon="5.89364">
        <ele>417</ele>
        <time>2020-10-05T14:46:50.988Z</time>
      </trkpt>
      <trkpt lat="43.9913" lon="5.89364">
        <ele>417</ele>
        <time>2020-10-05T14:46:51.988Z</time>
      </trkpt>
      <trkpt lat="43.99129" lon="5.89364">
        <ele>417</ele>
        <time>2020-10-05T14:46:52.988Z</time>
      </trkpt>
      <trkpt lat="43.99129" lon="5.89363">
        <ele>417</ele>
        <time>2020-10-05T14:46:53.988Z</time>
      </trkpt>
      <trkpt lat="43.99129" lon="5.89363">
        <ele>417</ele>
        <time>2020-10-05T14:46:54.988Z</time>
      </trkpt>
      <trkpt lat="43.99129" lon="5.89363">
        <ele>417</ele>
        <time>2020-10-05T14:46:55.988Z</time>
      </trkpt>
      <trkpt lat="43.99129" lon="5.89363">
        <ele>417</ele>
        <time>2020-10-05T14:46:56.988Z</time>
      </trkpt>
      <trkpt lat="43.99129" lon="5.89363">
        <ele>417</ele>
        <time>2020-10-05T14:46:57.988Z</time>
      </trkpt>
      <trkpt lat="43.99129" lon="5.89363">
        <ele>417</ele>
        <time>2020-10-05T14:46:58.988Z</time>
      </trkpt>
      <trkpt lat="43.99129" lon="5.89363">
        <ele>417</ele>
        <time>2020-10-05T14:46:59.988Z</time>
      </trkpt>
      <trkpt lat="43.99129" lon="5.89363">
        <ele>417</ele>
        <time>2020-10-05T14:47:00.988Z</time>
      </trkpt>
      <trkpt lat="43.99129" lon="5.89363">
        <ele>417</ele>
        <time>2020-10-05T14:47:01.988Z</time>
      </trkpt>
      <trkpt lat="43.99129" lon="5.89362">
        <ele>417</ele>
        <time>2020-10-05T14:47:02.988Z</time>
      </trkpt>
      <trkpt lat="43.99129" lon="5.89362">
        <ele>417</ele>
        <time>2020-10-05T14:47:03.988Z</time>
      </trkpt>
      <trkpt lat="43.99129" lon="5.89362">
        <ele>417</ele>
        <time>2020-10-05T14:47:04.988Z</time>
      </trkpt>
      <trkpt lat="43.99129" lon="5.89362">
        <ele>417</ele>
        <time>2020-10-05T14:47:05.988Z</time>
      </trkpt>
      <trkpt lat="43.99129" lon="5.89362">
        <ele>417</ele>
        <time>2020-10-05T14:47:06.988Z</time>
      </trkpt>
      <trkpt lat="43.99129" lon="5.89362">
        <ele>417</ele>
        <time>2020-10-05T14:47:07.988Z</time>
      </trkpt>
      <trkpt lat="43.99129" lon="5.89362">
        <ele>417</ele>
        <time>2020-10-05T14:47:08.988Z</time>
      </trkpt>
      <trkpt lat="43.99129" lon="5.89361">
        <ele>417</ele>
        <time>2020-10-05T14:47:09.988Z</time>
      </trkpt>
      <trkpt lat="43.99129" lon="5.89361">
        <ele>417</ele>
        <time>2020-10-05T14:47:10.988Z</time>
      </trkpt>
      <trkpt lat="43.99129" lon="5.89361">
        <ele>417</ele>
        <time>2020-10-05T14:47:11.988Z</time>
      </trkpt>
      <trkpt lat="43.99129" lon="5.89361">
        <ele>417</ele>
        <time>2020-10-05T14:47:12.988Z</time>
      </trkpt>
      <trkpt lat="43.99129" lon="5.89361">
        <ele>417</ele>
        <time>2020-10-05T14:47:13.988Z</time>
      </trkpt>
      <trkpt lat="43.99129" lon="5.89361">
        <ele>417</ele>
        <time>2020-10-05T14:47:14.988Z</time>
      </trkpt>
      <trkpt lat="43.99129" lon="5.89361">
        <ele>417</ele>
        <time>2020-10-05T14:47:15.988Z</time>
      </trkpt>
      <trkpt lat="43.99129" lon="5.89361">
        <ele>417</ele>
        <time>2020-10-05T14:47:16.988Z</time>
      </trkpt>
      <trkpt lat="43.99129" lon="5.89361">
        <ele>417</ele>
        <time>2020-10-05T14:47:17.988Z</time>
      </trkpt>
      <trkpt lat="43.99129" lon="5.89361">
        <ele>417</ele>
        <time>2020-10-05T14:47:18.988Z</time>
      </trkpt>
      <trkpt lat="43.99129" lon="5.89361">
        <ele>417</ele>
        <time>2020-10-05T14:47:19.988Z</time>
      </trkpt>
      <trkpt lat="43.99129" lon="5.89361">
        <ele>417</ele>
        <time>2020-10-05T14:47:20.988Z</time>
      </trkpt>
      <trkpt lat="43.99129" lon="5.89361">
        <ele>417</ele>
        <time>2020-10-05T14:47:21.988Z</time>
      </trkpt>
      <trkpt lat="43.99129" lon="5.89361">
        <ele>417</ele>
        <time>2020-10-05T14:47:22.988Z</time>
      </trkpt>
      <trkpt lat="43.99129" lon="5.89361">
        <ele>417</ele>
        <time>2020-10-05T14:47:23.988Z</time>
      </trkpt>
      <trkpt lat="43.99129" lon="5.89361">
        <ele>417</ele>
        <time>2020-10-05T14:47:24.988Z</time>
      </trkpt>
      <trkpt lat="43.99129" lon="5.89361">
        <ele>417</ele>
        <time>2020-10-05T14:47:25.988Z</time>
      </trkpt>
      <trkpt lat="43.99129" lon="5.89361">
        <ele>417</ele>
        <time>2020-10-05T14:47:26.988Z</time>
      </trkpt>
      <trkpt lat="43.99129" lon="5.89361">
        <ele>418</ele>
        <time>2020-10-05T14:47:27.988Z</time>
      </trkpt>
      <trkpt lat="43.99128" lon="5.89361">
        <ele>418</ele>
        <time>2020-10-05T14:47:28.988Z</time>
      </trkpt>
      <trkpt lat="43.99128" lon="5.89361">
        <ele>418</ele>
        <time>2020-10-05T14:47:29.988Z</time>
      </trkpt>
      <trkpt lat="43.99129" lon="5.89361">
        <ele>418</ele>
        <time>2020-10-05T14:47:30.988Z</time>
      </trkpt>
      <trkpt lat="43.99129" lon="5.89361">
        <ele>418</ele>
        <time>2020-10-05T14:47:31.988Z</time>
      </trkpt>
      <trkpt lat="43.99129" lon="5.89361">
        <ele>418</ele>
        <time>2020-10-05T14:47:32.988Z</time>
      </trkpt>
      <trkpt lat="43.99129" lon="5.89361">
        <ele>418</ele>
        <time>2020-10-05T14:47:33.988Z</time>
      </trkpt>
      <trkpt lat="43.99129" lon="5.89361">
        <ele>418</ele>
        <time>2020-10-05T14:47:34.988Z</time>
      </trkpt>
      <trkpt lat="43.99129" lon="5.89361">
        <ele>418</ele>
        <time>2020-10-05T14:47:35.988Z</time>
      </trkpt>
      <trkpt lat="43.99129" lon="5.89361">
        <ele>418</ele>
        <time>2020-10-05T14:47:36.988Z</time>
      </trkpt>
      <trkpt lat="43.99128" lon="5.89361">
        <ele>418</ele>
        <time>2020-10-05T14:47:37.988Z</time>
      </trkpt>
      <trkpt lat="43.99128" lon="5.89361">
        <ele>418</ele>
        <time>2020-10-05T14:47:38.988Z</time>
      </trkpt>
      <trkpt lat="43.99128" lon="5.89361">
        <ele>418</ele>
        <time>2020-10-05T14:47:39.988Z</time>
      </trkpt>
      <trkpt lat="43.99128" lon="5.89361">
        <ele>418</ele>
        <time>2020-10-05T14:47:40.988Z</time>
      </trkpt>
      <trkpt lat="43.99128" lon="5.89361">
        <ele>418</ele>
        <time>2020-10-05T14:47:41.988Z</time>
      </trkpt>
      <trkpt lat="43.99128" lon="5.89361">
        <ele>418</ele>
        <time>2020-10-05T14:47:42.988Z</time>
      </trkpt>
      <trkpt lat="43.99128" lon="5.89361">
        <ele>418</ele>
        <time>2020-10-05T14:47:43.988Z</time>
      </trkpt>
      <trkpt lat="43.99129" lon="5.8936">
        <ele>418</ele>
        <time>2020-10-05T14:47:44.988Z</time>
      </trkpt>
      <trkpt lat="43.99129" lon="5.8936">
        <ele>418</ele>
        <time>2020-10-05T14:47:45.988Z</time>
      </trkpt>
      <trkpt lat="43.9913" lon="5.89359">
        <ele>418</ele>
        <time>2020-10-05T14:47:46.988Z</time>
      </trkpt>
      <trkpt lat="43.99131" lon="5.89358">
        <ele>418</ele>
        <time>2020-10-05T14:47:47.988Z</time>
      </trkpt>
      <trkpt lat="43.99131" lon="5.89357">
        <ele>418</ele>
        <time>2020-10-05T14:47:48.988Z</time>
      </trkpt>
      <trkpt lat="43.99132" lon="5.89356">
        <ele>418</ele>
        <time>2020-10-05T14:47:49.988Z</time>
      </trkpt>
      <trkpt lat="43.99132" lon="5.89355">
        <ele>418</ele>
        <time>2020-10-05T14:47:50.988Z</time>
      </trkpt>
      <trkpt lat="43.99133" lon="5.89355">
        <ele>418</ele>
        <time>2020-10-05T14:47:51.988Z</time>
      </trkpt>
      <trkpt lat="43.99133" lon="5.89354">
        <ele>418</ele>
        <time>2020-10-05T14:47:52.988Z</time>
      </trkpt>
      <trkpt lat="43.99134" lon="5.89353">
        <ele>418</ele>
        <time>2020-10-05T14:47:53.988Z</time>
      </trkpt>
      <trkpt lat="43.99134" lon="5.89353">
        <ele>418</ele>
        <time>2020-10-05T14:47:54.988Z</time>
      </trkpt>
      <trkpt lat="43.99135" lon="5.89352">
        <ele>418</ele>
        <time>2020-10-05T14:47:55.988Z</time>
      </trkpt>
      <trkpt lat="43.99136" lon="5.89351">
        <ele>418</ele>
        <time>2020-10-05T14:47:56.988Z</time>
      </trkpt>
      <trkpt lat="43.99136" lon="5.89351">
        <ele>418</ele>
        <time>2020-10-05T14:47:57.988Z</time>
      </trkpt>
      <trkpt lat="43.99137" lon="5.8935">
        <ele>418</ele>
        <time>2020-10-05T14:47:58.988Z</time>
      </trkpt>
      <trkpt lat="43.99138" lon="5.89349">
        <ele>418</ele>
        <time>2020-10-05T14:47:59.988Z</time>
      </trkpt>
      <trkpt lat="43.99139" lon="5.89349">
        <ele>418</ele>
        <time>2020-10-05T14:48:00.988Z</time>
      </trkpt>
      <trkpt lat="43.99139" lon="5.89348">
        <ele>418</ele>
        <time>2020-10-05T14:48:01.988Z</time>
      </trkpt>
      <trkpt lat="43.9914" lon="5.89347">
        <ele>419</ele>
        <time>2020-10-05T14:48:02.988Z</time>
      </trkpt>
      <trkpt lat="43.99141" lon="5.89346">
        <ele>419</ele>
        <time>2020-10-05T14:48:03.988Z</time>
      </trkpt>
      <trkpt lat="43.99141" lon="5.89345">
        <ele>419</ele>
        <time>2020-10-05T14:48:04.988Z</time>
      </trkpt>
      <trkpt lat="43.99142" lon="5.89345">
        <ele>419</ele>
        <time>2020-10-05T14:48:05.988Z</time>
      </trkpt>
      <trkpt lat="43.99143" lon="5.89344">
        <ele>419</ele>
        <time>2020-10-05T14:48:06.988Z</time>
      </trkpt>
      <trkpt lat="43.99143" lon="5.89343">
        <ele>419</ele>
        <time>2020-10-05T14:48:07.988Z</time>
      </trkpt>
      <trkpt lat="43.99144" lon="5.89343">
        <ele>419</ele>
        <time>2020-10-05T14:48:08.988Z</time>
      </trkpt>
      <trkpt lat="43.99145" lon="5.89342">
        <ele>419</ele>
        <time>2020-10-05T14:48:09.988Z</time>
      </trkpt>
      <trkpt lat="43.99145" lon="5.89341">
        <ele>419</ele>
        <time>2020-10-05T14:48:10.988Z</time>
      </trkpt>
      <trkpt lat="43.99146" lon="5.8934">
        <ele>419</ele>
        <time>2020-10-05T14:48:11.988Z</time>
      </trkpt>
      <trkpt lat="43.99147" lon="5.89339">
        <ele>419</ele>
        <time>2020-10-05T14:48:12.988Z</time>
      </trkpt>
      <trkpt lat="43.99148" lon="5.89338">
        <ele>419</ele>
        <time>2020-10-05T14:48:13.988Z</time>
      </trkpt>
      <trkpt lat="43.99148" lon="5.89337">
        <ele>419</ele>
        <time>2020-10-05T14:48:14.988Z</time>
      </trkpt>
      <trkpt lat="43.99149" lon="5.89336">
        <ele>419</ele>
        <time>2020-10-05T14:48:15.988Z</time>
      </trkpt>
      <trkpt lat="43.99149" lon="5.89336">
        <ele>419</ele>
        <time>2020-10-05T14:48:16.988Z</time>
      </trkpt>
      <trkpt lat="43.99149" lon="5.89335">
        <ele>419</ele>
        <time>2020-10-05T14:48:17.988Z</time>
      </trkpt>
      <trkpt lat="43.9915" lon="5.89334">
        <ele>419</ele>
        <time>2020-10-05T14:48:18.988Z</time>
      </trkpt>
      <trkpt lat="43.9915" lon="5.89333">
        <ele>419</ele>
        <time>2020-10-05T14:48:19.988Z</time>
      </trkpt>
      <trkpt lat="43.9915" lon="5.89332">
        <ele>419</ele>
        <time>2020-10-05T14:48:20.988Z</time>
      </trkpt>
      <trkpt lat="43.9915" lon="5.89331">
        <ele>419</ele>
        <time>2020-10-05T14:48:21.988Z</time>
      </trkpt>
      <trkpt lat="43.9915" lon="5.8933">
        <ele>419</ele>
        <time>2020-10-05T14:48:22.988Z</time>
      </trkpt>
      <trkpt lat="43.9915" lon="5.89329">
        <ele>420</ele>
        <time>2020-10-05T14:48:23.988Z</time>
      </trkpt>
      <trkpt lat="43.9915" lon="5.89328">
        <ele>420</ele>
        <time>2020-10-05T14:48:24.988Z</time>
      </trkpt>
      <trkpt lat="43.9915" lon="5.89327">
        <ele>420</ele>
        <time>2020-10-05T14:48:25.988Z</time>
      </trkpt>
      <trkpt lat="43.9915" lon="5.89326">
        <ele>420</ele>
        <time>2020-10-05T14:48:26.988Z</time>
      </trkpt>
      <trkpt lat="43.9915" lon="5.89325">
        <ele>420</ele>
        <time>2020-10-05T14:48:27.988Z</time>
      </trkpt>
      <trkpt lat="43.9915" lon="5.89324">
        <ele>420</ele>
        <time>2020-10-05T14:48:28.988Z</time>
      </trkpt>
      <trkpt lat="43.9915" lon="5.89323">
        <ele>420</ele>
        <time>2020-10-05T14:48:29.988Z</time>
      </trkpt>
      <trkpt lat="43.9915" lon="5.89322">
        <ele>420</ele>
        <time>2020-10-05T14:48:30.988Z</time>
      </trkpt>
      <trkpt lat="43.9915" lon="5.89321">
        <ele>420</ele>
        <time>2020-10-05T14:48:31.988Z</time>
      </trkpt>
      <trkpt lat="43.9915" lon="5.8932">
        <ele>420</ele>
        <time>2020-10-05T14:48:32.988Z</time>
      </trkpt>
      <trkpt lat="43.9915" lon="5.89319">
        <ele>420</ele>
        <time>2020-10-05T14:48:33.988Z</time>
      </trkpt>
      <trkpt lat="43.99151" lon="5.89318">
        <ele>421</ele>
        <time>2020-10-05T14:48:34.988Z</time>
      </trkpt>
      <trkpt lat="43.99151" lon="5.89317">
        <ele>421</ele>
        <time>2020-10-05T14:48:35.988Z</time>
      </trkpt>
      <trkpt lat="43.99152" lon="5.89316">
        <ele>421</ele>
        <time>2020-10-05T14:48:36.988Z</time>
      </trkpt>
      <trkpt lat="43.99153" lon="5.89315">
        <ele>421</ele>
        <time>2020-10-05T14:48:37.988Z</time>
      </trkpt>
      <trkpt lat="43.99154" lon="5.89314">
        <ele>421</ele>
        <time>2020-10-05T14:48:38.988Z</time>
      </trkpt>
      <trkpt lat="43.99155" lon="5.89313">
        <ele>421</ele>
        <time>2020-10-05T14:48:39.988Z</time>
      </trkpt>
      <trkpt lat="43.99155" lon="5.89312">
        <ele>421</ele>
        <time>2020-10-05T14:48:40.988Z</time>
      </trkpt>
      <trkpt lat="43.99156" lon="5.89311">
        <ele>421</ele>
        <time>2020-10-05T14:48:41.988Z</time>
      </trkpt>
      <trkpt lat="43.99157" lon="5.8931">
        <ele>421</ele>
        <time>2020-10-05T14:48:42.988Z</time>
      </trkpt>
      <trkpt lat="43.99158" lon="5.8931">
        <ele>421</ele>
        <time>2020-10-05T14:48:43.988Z</time>
      </trkpt>
      <trkpt lat="43.99159" lon="5.89309">
        <ele>421</ele>
        <time>2020-10-05T14:48:44.988Z</time>
      </trkpt>
      <trkpt lat="43.9916" lon="5.89308">
        <ele>421</ele>
        <time>2020-10-05T14:48:45.988Z</time>
      </trkpt>
      <trkpt lat="43.99161" lon="5.89308">
        <ele>421</ele>
        <time>2020-10-05T14:48:46.988Z</time>
      </trkpt>
      <trkpt lat="43.99162" lon="5.89307">
        <ele>421</ele>
        <time>2020-10-05T14:48:47.988Z</time>
      </trkpt>
      <trkpt lat="43.99163" lon="5.89307">
        <ele>421</ele>
        <time>2020-10-05T14:48:48.988Z</time>
      </trkpt>
      <trkpt lat="43.99163" lon="5.89306">
        <ele>421</ele>
        <time>2020-10-05T14:48:49.988Z</time>
      </trkpt>
      <trkpt lat="43.99164" lon="5.89306">
        <ele>421</ele>
        <time>2020-10-05T14:48:50.988Z</time>
      </trkpt>
      <trkpt lat="43.99165" lon="5.89305">
        <ele>421</ele>
        <time>2020-10-05T14:48:51.988Z</time>
      </trkpt>
      <trkpt lat="43.99166" lon="5.89305">
        <ele>421</ele>
        <time>2020-10-05T14:48:52.988Z</time>
      </trkpt>
      <trkpt lat="43.99167" lon="5.89305">
        <ele>421</ele>
        <time>2020-10-05T14:48:53.988Z</time>
      </trkpt>
      <trkpt lat="43.99167" lon="5.89304">
        <ele>421</ele>
        <time>2020-10-05T14:48:54.988Z</time>
      </trkpt>
      <trkpt lat="43.99168" lon="5.89304">
        <ele>421</ele>
        <time>2020-10-05T14:48:55.988Z</time>
      </trkpt>
      <trkpt lat="43.99169" lon="5.89303">
        <ele>421</ele>
        <time>2020-10-05T14:48:56.988Z</time>
      </trkpt>
      <trkpt lat="43.9917" lon="5.89303">
        <ele>421</ele>
        <time>2020-10-05T14:48:57.988Z</time>
      </trkpt>
      <trkpt lat="43.99171" lon="5.89303">
        <ele>421</ele>
        <time>2020-10-05T14:48:58.988Z</time>
      </trkpt>
      <trkpt lat="43.99172" lon="5.89303">
        <ele>421</ele>
        <time>2020-10-05T14:48:59.988Z</time>
      </trkpt>
      <trkpt lat="43.99173" lon="5.89303">
        <ele>422</ele>
        <time>2020-10-05T14:49:00.988Z</time>
      </trkpt>
      <trkpt lat="43.99173" lon="5.89303">
        <ele>422</ele>
        <time>2020-10-05T14:49:01.988Z</time>
      </trkpt>
      <trkpt lat="43.99174" lon="5.89303">
        <ele>422</ele>
        <time>2020-10-05T14:49:02.988Z</time>
      </trkpt>
      <trkpt lat="43.99175" lon="5.89303">
        <ele>422</ele>
        <time>2020-10-05T14:49:03.988Z</time>
      </trkpt>
      <trkpt lat="43.99176" lon="5.89303">
        <ele>422</ele>
        <time>2020-10-05T14:49:04.988Z</time>
      </trkpt>
      <trkpt lat="43.99177" lon="5.89303">
        <ele>422</ele>
        <time>2020-10-05T14:49:05.988Z</time>
      </trkpt>
      <trkpt lat="43.99178" lon="5.89303">
        <ele>423</ele>
        <time>2020-10-05T14:49:06.988Z</time>
      </trkpt>
      <trkpt lat="43.99178" lon="5.89303">
        <ele>423</ele>
        <time>2020-10-05T14:49:07.988Z</time>
      </trkpt>
      <trkpt lat="43.99179" lon="5.89302">
        <ele>423</ele>
        <time>2020-10-05T14:49:08.988Z</time>
      </trkpt>
      <trkpt lat="43.9918" lon="5.89302">
        <ele>423</ele>
        <time>2020-10-05T14:49:09.988Z</time>
      </trkpt>
      <trkpt lat="43.99181" lon="5.89301">
        <ele>423</ele>
        <time>2020-10-05T14:49:10.988Z</time>
      </trkpt>
      <trkpt lat="43.99182" lon="5.89301">
        <ele>423</ele>
        <time>2020-10-05T14:49:11.988Z</time>
      </trkpt>
      <trkpt lat="43.99183" lon="5.89301">
        <ele>424</ele>
        <time>2020-10-05T14:49:12.988Z</time>
      </trkpt>
      <trkpt lat="43.99183" lon="5.893">
        <ele>424</ele>
        <time>2020-10-05T14:49:13.988Z</time>
      </trkpt>
      <trkpt lat="43.99184" lon="5.893">
        <ele>424</ele>
        <time>2020-10-05T14:49:14.988Z</time>
      </trkpt>
      <trkpt lat="43.99185" lon="5.89299">
        <ele>424</ele>
        <time>2020-10-05T14:49:15.988Z</time>
      </trkpt>
      <trkpt lat="43.99186" lon="5.89299">
        <ele>424</ele>
        <time>2020-10-05T14:49:16.988Z</time>
      </trkpt>
      <trkpt lat="43.99186" lon="5.89298">
        <ele>424</ele>
        <time>2020-10-05T14:49:17.988Z</time>
      </trkpt>
      <trkpt lat="43.99187" lon="5.89298">
        <ele>424</ele>
        <time>2020-10-05T14:49:18.988Z</time>
      </trkpt>
      <trkpt lat="43.99188" lon="5.89297">
        <ele>425</ele>
        <time>2020-10-05T14:49:19.988Z</time>
      </trkpt>
      <trkpt lat="43.99188" lon="5.89296">
        <ele>425</ele>
        <time>2020-10-05T14:49:20.988Z</time>
      </trkpt>
      <trkpt lat="43.99189" lon="5.89295">
        <ele>425</ele>
        <time>2020-10-05T14:49:21.988Z</time>
      </trkpt>
      <trkpt lat="43.99189" lon="5.89294">
        <ele>425</ele>
        <time>2020-10-05T14:49:22.988Z</time>
      </trkpt>
      <trkpt lat="43.9919" lon="5.89293">
        <ele>425</ele>
        <time>2020-10-05T14:49:23.988Z</time>
      </trkpt>
      <trkpt lat="43.9919" lon="5.89292">
        <ele>426</ele>
        <time>2020-10-05T14:49:24.988Z</time>
      </trkpt>
      <trkpt lat="43.99191" lon="5.89291">
        <ele>426</ele>
        <time>2020-10-05T14:49:25.988Z</time>
      </trkpt>
      <trkpt lat="43.99191" lon="5.89289">
        <ele>426</ele>
        <time>2020-10-05T14:49:26.988Z</time>
      </trkpt>
      <trkpt lat="43.99191" lon="5.89288">
        <ele>426</ele>
        <time>2020-10-05T14:49:27.988Z</time>
      </trkpt>
      <trkpt lat="43.99192" lon="5.89288">
        <ele>426</ele>
        <time>2020-10-05T14:49:28.988Z</time>
      </trkpt>
      <trkpt lat="43.99192" lon="5.89287">
        <ele>426</ele>
        <time>2020-10-05T14:49:29.988Z</time>
      </trkpt>
      <trkpt lat="43.99193" lon="5.89286">
        <ele>426</ele>
        <time>2020-10-05T14:49:30.988Z</time>
      </trkpt>
      <trkpt lat="43.99193" lon="5.89286">
        <ele>426</ele>
        <time>2020-10-05T14:49:31.988Z</time>
      </trkpt>
      <trkpt lat="43.99194" lon="5.89285">
        <ele>426</ele>
        <time>2020-10-05T14:49:32.988Z</time>
      </trkpt>
      <trkpt lat="43.99194" lon="5.89284">
        <ele>426</ele>
        <time>2020-10-05T14:49:33.988Z</time>
      </trkpt>
      <trkpt lat="43.99194" lon="5.89283">
        <ele>426</ele>
        <time>2020-10-05T14:49:34.988Z</time>
      </trkpt>
      <trkpt lat="43.99195" lon="5.89282">
        <ele>426</ele>
        <time>2020-10-05T14:49:35.988Z</time>
      </trkpt>
      <trkpt lat="43.99195" lon="5.89281">
        <ele>426</ele>
        <time>2020-10-05T14:49:36.988Z</time>
      </trkpt>
      <trkpt lat="43.99195" lon="5.8928">
        <ele>427</ele>
        <time>2020-10-05T14:49:37.988Z</time>
      </trkpt>
      <trkpt lat="43.99195" lon="5.89279">
        <ele>427</ele>
        <time>2020-10-05T14:49:38.988Z</time>
      </trkpt>
      <trkpt lat="43.99196" lon="5.89278">
        <ele>427</ele>
        <time>2020-10-05T14:49:39.988Z</time>
      </trkpt>
      <trkpt lat="43.99196" lon="5.89277">
        <ele>427</ele>
        <time>2020-10-05T14:49:40.988Z</time>
      </trkpt>
      <trkpt lat="43.99196" lon="5.89276">
        <ele>427</ele>
        <time>2020-10-05T14:49:41.988Z</time>
      </trkpt>
      <trkpt lat="43.99196" lon="5.89274">
        <ele>427</ele>
        <time>2020-10-05T14:49:42.988Z</time>
      </trkpt>
      <trkpt lat="43.99197" lon="5.89273">
        <ele>427</ele>
        <time>2020-10-05T14:49:43.988Z</time>
      </trkpt>
      <trkpt lat="43.99197" lon="5.89272">
        <ele>427</ele>
        <time>2020-10-05T14:49:44.988Z</time>
      </trkpt>
      <trkpt lat="43.99198" lon="5.89271">
        <ele>427</ele>
        <time>2020-10-05T14:49:45.988Z</time>
      </trkpt>
      <trkpt lat="43.99198" lon="5.89271">
        <ele>427</ele>
        <time>2020-10-05T14:49:46.988Z</time>
      </trkpt>
      <trkpt lat="43.99198" lon="5.8927">
        <ele>427</ele>
        <time>2020-10-05T14:49:47.988Z</time>
      </trkpt>
      <trkpt lat="43.99198" lon="5.8927">
        <ele>427</ele>
        <time>2020-10-05T14:49:48.988Z</time>
      </trkpt>
      <trkpt lat="43.99198" lon="5.8927">
        <ele>428</ele>
        <time>2020-10-05T14:49:49.988Z</time>
      </trkpt>
      <trkpt lat="43.99198" lon="5.8927">
        <ele>428</ele>
        <time>2020-10-05T14:49:50.988Z</time>
      </trkpt>
      <trkpt lat="43.99198" lon="5.8927">
        <ele>428</ele>
        <time>2020-10-05T14:49:51.988Z</time>
      </trkpt>
      <trkpt lat="43.99198" lon="5.8927">
        <ele>428</ele>
        <time>2020-10-05T14:49:52.988Z</time>
      </trkpt>
      <trkpt lat="43.99198" lon="5.8927">
        <ele>428</ele>
        <time>2020-10-05T14:49:53.988Z</time>
      </trkpt>
      <trkpt lat="43.99198" lon="5.8927">
        <ele>428</ele>
        <time>2020-10-05T14:49:54.988Z</time>
      </trkpt>
      <trkpt lat="43.99198" lon="5.8927">
        <ele>428</ele>
        <time>2020-10-05T14:49:55.988Z</time>
      </trkpt>
      <trkpt lat="43.99198" lon="5.8927">
        <ele>428</ele>
        <time>2020-10-05T14:49:56.988Z</time>
      </trkpt>
      <trkpt lat="43.99198" lon="5.89269">
        <ele>428</ele>
        <time>2020-10-05T14:49:57.988Z</time>
      </trkpt>
      <trkpt lat="43.99198" lon="5.89268">
        <ele>428</ele>
        <time>2020-10-05T14:49:58.988Z</time>
      </trkpt>
      <trkpt lat="43.99199" lon="5.89266">
        <ele>428</ele>
        <time>2020-10-05T14:49:59.988Z</time>
      </trkpt>
      <trkpt lat="43.99199" lon="5.89265">
        <ele>428</ele>
        <time>2020-10-05T14:50:00.988Z</time>
      </trkpt>
      <trkpt lat="43.99199" lon="5.89264">
        <ele>428</ele>
        <time>2020-10-05T14:50:01.988Z</time>
      </trkpt>
      <trkpt lat="43.992" lon="5.89262">
        <ele>428</ele>
        <time>2020-10-05T14:50:02.988Z</time>
      </trkpt>
      <trkpt lat="43.992" lon="5.89261">
        <ele>428</ele>
        <time>2020-10-05T14:50:03.988Z</time>
      </trkpt>
      <trkpt lat="43.992" lon="5.8926">
        <ele>428</ele>
        <time>2020-10-05T14:50:04.988Z</time>
      </trkpt>
      <trkpt lat="43.99201" lon="5.89258">
        <ele>428</ele>
        <time>2020-10-05T14:50:05.988Z</time>
      </trkpt>
      <trkpt lat="43.99201" lon="5.89256">
        <ele>429</ele>
        <time>2020-10-05T14:50:06.988Z</time>
      </trkpt>
      <trkpt lat="43.99202" lon="5.89255">
        <ele>429</ele>
        <time>2020-10-05T14:50:07.988Z</time>
      </trkpt>
      <trkpt lat="43.99202" lon="5.89254">
        <ele>429</ele>
        <time>2020-10-05T14:50:08.988Z</time>
      </trkpt>
      <trkpt lat="43.99202" lon="5.89252">
        <ele>429</ele>
        <time>2020-10-05T14:50:09.988Z</time>
      </trkpt>
      <trkpt lat="43.99202" lon="5.89251">
        <ele>429</ele>
        <time>2020-10-05T14:50:10.988Z</time>
      </trkpt>
      <trkpt lat="43.99203" lon="5.89249">
        <ele>429</ele>
        <time>2020-10-05T14:50:11.988Z</time>
      </trkpt>
      <trkpt lat="43.99203" lon="5.89248">
        <ele>429</ele>
        <time>2020-10-05T14:50:12.988Z</time>
      </trkpt>
      <trkpt lat="43.99203" lon="5.89247">
        <ele>429</ele>
        <time>2020-10-05T14:50:13.988Z</time>
      </trkpt>
      <trkpt lat="43.99204" lon="5.89245">
        <ele>429</ele>
        <time>2020-10-05T14:50:14.988Z</time>
      </trkpt>
      <trkpt lat="43.99204" lon="5.89244">
        <ele>429</ele>
        <time>2020-10-05T14:50:15.988Z</time>
      </trkpt>
      <trkpt lat="43.99204" lon="5.89243">
        <ele>429</ele>
        <time>2020-10-05T14:50:16.988Z</time>
      </trkpt>
      <trkpt lat="43.99204" lon="5.89241">
        <ele>429</ele>
        <time>2020-10-05T14:50:17.988Z</time>
      </trkpt>
      <trkpt lat="43.99204" lon="5.8924">
        <ele>429</ele>
        <time>2020-10-05T14:50:18.988Z</time>
      </trkpt>
      <trkpt lat="43.99205" lon="5.89238">
        <ele>429</ele>
        <time>2020-10-05T14:50:19.988Z</time>
      </trkpt>
      <trkpt lat="43.99205" lon="5.89237">
        <ele>429</ele>
        <time>2020-10-05T14:50:20.988Z</time>
      </trkpt>
      <trkpt lat="43.99205" lon="5.89236">
        <ele>429</ele>
        <time>2020-10-05T14:50:21.988Z</time>
      </trkpt>
      <trkpt lat="43.99206" lon="5.89234">
        <ele>429</ele>
        <time>2020-10-05T14:50:22.988Z</time>
      </trkpt>
      <trkpt lat="43.99206" lon="5.89233">
        <ele>429</ele>
        <time>2020-10-05T14:50:23.988Z</time>
      </trkpt>
      <trkpt lat="43.99207" lon="5.89232">
        <ele>429</ele>
        <time>2020-10-05T14:50:24.988Z</time>
      </trkpt>
      <trkpt lat="43.99207" lon="5.89231">
        <ele>429</ele>
        <time>2020-10-05T14:50:25.988Z</time>
      </trkpt>
      <trkpt lat="43.99208" lon="5.8923">
        <ele>429</ele>
        <time>2020-10-05T14:50:26.988Z</time>
      </trkpt>
      <trkpt lat="43.99208" lon="5.89229">
        <ele>429</ele>
        <time>2020-10-05T14:50:27.988Z</time>
      </trkpt>
      <trkpt lat="43.99209" lon="5.89227">
        <ele>429</ele>
        <time>2020-10-05T14:50:28.988Z</time>
      </trkpt>
      <trkpt lat="43.99209" lon="5.89227">
        <ele>429</ele>
        <time>2020-10-05T14:50:29.988Z</time>
      </trkpt>
      <trkpt lat="43.99209" lon="5.89226">
        <ele>429</ele>
        <time>2020-10-05T14:50:30.988Z</time>
      </trkpt>
      <trkpt lat="43.99209" lon="5.89226">
        <ele>429</ele>
        <time>2020-10-05T14:50:31.988Z</time>
      </trkpt>
      <trkpt lat="43.99209" lon="5.89226">
        <ele>429</ele>
        <time>2020-10-05T14:50:32.988Z</time>
      </trkpt>
      <trkpt lat="43.99209" lon="5.89226">
        <ele>429</ele>
        <time>2020-10-05T14:50:33.988Z</time>
      </trkpt>
      <trkpt lat="43.99209" lon="5.89226">
        <ele>429</ele>
        <time>2020-10-05T14:50:34.988Z</time>
      </trkpt>
      <trkpt lat="43.99209" lon="5.89226">
        <ele>429</ele>
        <time>2020-10-05T14:50:35.988Z</time>
      </trkpt>
      <trkpt lat="43.99209" lon="5.89226">
        <ele>429</ele>
        <time>2020-10-05T14:50:36.988Z</time>
      </trkpt>
      <trkpt lat="43.99209" lon="5.89226">
        <ele>429</ele>
        <time>2020-10-05T14:50:37.988Z</time>
      </trkpt>
      <trkpt lat="43.99209" lon="5.89226">
        <ele>429</ele>
        <time>2020-10-05T14:50:38.988Z</time>
      </trkpt>
      <trkpt lat="43.99209" lon="5.89226">
        <ele>429</ele>
        <time>2020-10-05T14:50:39.988Z</time>
      </trkpt>
      <trkpt lat="43.99209" lon="5.89226">
        <ele>429</ele>
        <time>2020-10-05T14:50:40.988Z</time>
      </trkpt>
      <trkpt lat="43.99209" lon="5.89225">
        <ele>429</ele>
        <time>2020-10-05T14:50:41.988Z</time>
      </trkpt>
      <trkpt lat="43.9921" lon="5.89225">
        <ele>429</ele>
        <time>2020-10-05T14:50:42.988Z</time>
      </trkpt>
      <trkpt lat="43.9921" lon="5.89225">
        <ele>429</ele>
        <time>2020-10-05T14:50:43.988Z</time>
      </trkpt>
      <trkpt lat="43.9921" lon="5.89225">
        <ele>429</ele>
        <time>2020-10-05T14:50:44.988Z</time>
      </trkpt>
      <trkpt lat="43.9921" lon="5.89225">
        <ele>429</ele>
        <time>2020-10-05T14:50:45.988Z</time>
      </trkpt>
      <trkpt lat="43.9921" lon="5.89225">
        <ele>429</ele>
        <time>2020-10-05T14:50:46.988Z</time>
      </trkpt>
      <trkpt lat="43.9921" lon="5.89225">
        <ele>429</ele>
        <time>2020-10-05T14:50:47.988Z</time>
      </trkpt>
      <trkpt lat="43.9921" lon="5.89225">
        <ele>429</ele>
        <time>2020-10-05T14:50:48.988Z</time>
      </trkpt>
      <trkpt lat="43.9921" lon="5.89225">
        <ele>429</ele>
        <time>2020-10-05T14:50:49.988Z</time>
      </trkpt>
      <trkpt lat="43.9921" lon="5.89225">
        <ele>429</ele>
        <time>2020-10-05T14:50:50.988Z</time>
      </trkpt>
      <trkpt lat="43.9921" lon="5.89225">
        <ele>429</ele>
        <time>2020-10-05T14:50:51.988Z</time>
      </trkpt>
      <trkpt lat="43.9921" lon="5.89225">
        <ele>429</ele>
        <time>2020-10-05T14:50:52.988Z</time>
      </trkpt>
      <trkpt lat="43.99209" lon="5.89224">
        <ele>429</ele>
        <time>2020-10-05T14:50:53.988Z</time>
      </trkpt>
      <trkpt lat="43.99209" lon="5.89222">
        <ele>429</ele>
        <time>2020-10-05T14:50:54.988Z</time>
      </trkpt>
      <trkpt lat="43.99209" lon="5.89221">
        <ele>429</ele>
        <time>2020-10-05T14:50:55.988Z</time>
      </trkpt>
      <trkpt lat="43.99209" lon="5.8922">
        <ele>429</ele>
        <time>2020-10-05T14:50:56.988Z</time>
      </trkpt>
      <trkpt lat="43.99209" lon="5.89219">
        <ele>429</ele>
        <time>2020-10-05T14:50:57.988Z</time>
      </trkpt>
      <trkpt lat="43.99209" lon="5.89219">
        <ele>429</ele>
        <time>2020-10-05T14:50:58.988Z</time>
      </trkpt>
      <trkpt lat="43.9921" lon="5.89218">
        <ele>429</ele>
        <time>2020-10-05T14:50:59.988Z</time>
      </trkpt>
      <trkpt lat="43.99211" lon="5.89217">
        <ele>429</ele>
        <time>2020-10-05T14:51:00.988Z</time>
      </trkpt>
      <trkpt lat="43.99212" lon="5.89216">
        <ele>429</ele>
        <time>2020-10-05T14:51:01.988Z</time>
      </trkpt>
      <trkpt lat="43.99213" lon="5.89215">
        <ele>429</ele>
        <time>2020-10-05T14:51:02.988Z</time>
      </trkpt>
      <trkpt lat="43.99213" lon="5.89215">
        <ele>429</ele>
        <time>2020-10-05T14:51:03.988Z</time>
      </trkpt>
      <trkpt lat="43.99214" lon="5.89214">
        <ele>429</ele>
        <time>2020-10-05T14:51:04.988Z</time>
      </trkpt>
      <trkpt lat="43.99214" lon="5.89213">
        <ele>429</ele>
        <time>2020-10-05T14:51:05.988Z</time>
      </trkpt>
      <trkpt lat="43.99215" lon="5.89212">
        <ele>430</ele>
        <time>2020-10-05T14:51:06.988Z</time>
      </trkpt>
      <trkpt lat="43.99216" lon="5.89212">
        <ele>430</ele>
        <time>2020-10-05T14:51:07.988Z</time>
      </trkpt>
      <trkpt lat="43.99216" lon="5.89211">
        <ele>430</ele>
        <time>2020-10-05T14:51:08.988Z</time>
      </trkpt>
      <trkpt lat="43.99217" lon="5.8921">
        <ele>430</ele>
        <time>2020-10-05T14:51:09.988Z</time>
      </trkpt>
      <trkpt lat="43.99218" lon="5.89209">
        <ele>430</ele>
        <time>2020-10-05T14:51:10.988Z</time>
      </trkpt>
      <trkpt lat="43.99219" lon="5.89209">
        <ele>430</ele>
        <time>2020-10-05T14:51:11.988Z</time>
      </trkpt>
      <trkpt lat="43.9922" lon="5.89208">
        <ele>430</ele>
        <time>2020-10-05T14:51:12.988Z</time>
      </trkpt>
      <trkpt lat="43.99221" lon="5.89207">
        <ele>430</ele>
        <time>2020-10-05T14:51:13.988Z</time>
      </trkpt>
      <trkpt lat="43.99222" lon="5.89207">
        <ele>430</ele>
        <time>2020-10-05T14:51:14.988Z</time>
      </trkpt>
      <trkpt lat="43.99222" lon="5.89206">
        <ele>430</ele>
        <time>2020-10-05T14:51:15.988Z</time>
      </trkpt>
      <trkpt lat="43.99224" lon="5.89206">
        <ele>430</ele>
        <time>2020-10-05T14:51:16.988Z</time>
      </trkpt>
      <trkpt lat="43.99225" lon="5.89205">
        <ele>430</ele>
        <time>2020-10-05T14:51:17.988Z</time>
      </trkpt>
      <trkpt lat="43.99226" lon="5.89205">
        <ele>430</ele>
        <time>2020-10-05T14:51:18.988Z</time>
      </trkpt>
      <trkpt lat="43.99227" lon="5.89206">
        <ele>430</ele>
        <time>2020-10-05T14:51:19.988Z</time>
      </trkpt>
      <trkpt lat="43.99228" lon="5.89206">
        <ele>430</ele>
        <time>2020-10-05T14:51:20.988Z</time>
      </trkpt>
      <trkpt lat="43.99228" lon="5.89206">
        <ele>430</ele>
        <time>2020-10-05T14:51:21.988Z</time>
      </trkpt>
      <trkpt lat="43.99229" lon="5.89206">
        <ele>430</ele>
        <time>2020-10-05T14:51:22.988Z</time>
      </trkpt>
      <trkpt lat="43.9923" lon="5.89206">
        <ele>431</ele>
        <time>2020-10-05T14:51:23.988Z</time>
      </trkpt>
      <trkpt lat="43.9923" lon="5.89206">
        <ele>431</ele>
        <time>2020-10-05T14:51:24.988Z</time>
      </trkpt>
      <trkpt lat="43.99231" lon="5.89206">
        <ele>431</ele>
        <time>2020-10-05T14:51:25.988Z</time>
      </trkpt>
      <trkpt lat="43.99232" lon="5.89206">
        <ele>431</ele>
        <time>2020-10-05T14:51:26.988Z</time>
      </trkpt>
      <trkpt lat="43.99233" lon="5.89205">
        <ele>431</ele>
        <time>2020-10-05T14:51:27.988Z</time>
      </trkpt>
      <trkpt lat="43.99235" lon="5.89205">
        <ele>431</ele>
        <time>2020-10-05T14:51:28.988Z</time>
      </trkpt>
      <trkpt lat="43.99236" lon="5.89205">
        <ele>431</ele>
        <time>2020-10-05T14:51:29.988Z</time>
      </trkpt>
      <trkpt lat="43.99237" lon="5.89204">
        <ele>432</ele>
        <time>2020-10-05T14:51:30.988Z</time>
      </trkpt>
      <trkpt lat="43.99238" lon="5.89204">
        <ele>432</ele>
        <time>2020-10-05T14:51:31.988Z</time>
      </trkpt>
      <trkpt lat="43.9924" lon="5.89203">
        <ele>432</ele>
        <time>2020-10-05T14:51:32.988Z</time>
      </trkpt>
      <trkpt lat="43.99241" lon="5.89202">
        <ele>432</ele>
        <time>2020-10-05T14:51:33.988Z</time>
      </trkpt>
      <trkpt lat="43.99242" lon="5.89202">
        <ele>432</ele>
        <time>2020-10-05T14:51:34.988Z</time>
      </trkpt>
      <trkpt lat="43.99243" lon="5.89201">
        <ele>432</ele>
        <time>2020-10-05T14:51:35.988Z</time>
      </trkpt>
      <trkpt lat="43.99243" lon="5.892">
        <ele>432</ele>
        <time>2020-10-05T14:51:36.988Z</time>
      </trkpt>
      <trkpt lat="43.99244" lon="5.89199">
        <ele>432</ele>
        <time>2020-10-05T14:51:37.988Z</time>
      </trkpt>
      <trkpt lat="43.99245" lon="5.89198">
        <ele>433</ele>
        <time>2020-10-05T14:51:38.988Z</time>
      </trkpt>
      <trkpt lat="43.99245" lon="5.89197">
        <ele>433</ele>
        <time>2020-10-05T14:51:39.988Z</time>
      </trkpt>
      <trkpt lat="43.99245" lon="5.89195">
        <ele>433</ele>
        <time>2020-10-05T14:51:40.988Z</time>
      </trkpt>
      <trkpt lat="43.99246" lon="5.89194">
        <ele>433</ele>
        <time>2020-10-05T14:51:41.988Z</time>
      </trkpt>
      <trkpt lat="43.99246" lon="5.89193">
        <ele>433</ele>
        <time>2020-10-05T14:51:42.988Z</time>
      </trkpt>
      <trkpt lat="43.99245" lon="5.89191">
        <ele>433</ele>
        <time>2020-10-05T14:51:43.988Z</time>
      </trkpt>
      <trkpt lat="43.99245" lon="5.89191">
        <ele>433</ele>
        <time>2020-10-05T14:51:44.988Z</time>
      </trkpt>
      <trkpt lat="43.99244" lon="5.8919">
        <ele>433</ele>
        <time>2020-10-05T14:51:45.988Z</time>
      </trkpt>
      <trkpt lat="43.99244" lon="5.89189">
        <ele>433</ele>
        <time>2020-10-05T14:51:46.988Z</time>
      </trkpt>
      <trkpt lat="43.99243" lon="5.89189">
        <ele>433</ele>
        <time>2020-10-05T14:51:47.988Z</time>
      </trkpt>
      <trkpt lat="43.99243" lon="5.89188">
        <ele>434</ele>
        <time>2020-10-05T14:51:48.988Z</time>
      </trkpt>
      <trkpt lat="43.99242" lon="5.89187">
        <ele>434</ele>
        <time>2020-10-05T14:51:49.988Z</time>
      </trkpt>
      <trkpt lat="43.99242" lon="5.89186">
        <ele>434</ele>
        <time>2020-10-05T14:51:50.988Z</time>
      </trkpt>
      <trkpt lat="43.99241" lon="5.89186">
        <ele>434</ele>
        <time>2020-10-05T14:51:51.988Z</time>
      </trkpt>
      <trkpt lat="43.9924" lon="5.89185">
        <ele>434</ele>
        <time>2020-10-05T14:51:52.988Z</time>
      </trkpt>
      <trkpt lat="43.9924" lon="5.89184">
        <ele>434</ele>
        <time>2020-10-05T14:51:53.988Z</time>
      </trkpt>
      <trkpt lat="43.99239" lon="5.89184">
        <ele>435</ele>
        <time>2020-10-05T14:51:54.988Z</time>
      </trkpt>
      <trkpt lat="43.99239" lon="5.89183">
        <ele>435</ele>
        <time>2020-10-05T14:51:55.988Z</time>
      </trkpt>
      <trkpt lat="43.99238" lon="5.89183">
        <ele>435</ele>
        <time>2020-10-05T14:51:56.988Z</time>
      </trkpt>
      <trkpt lat="43.99238" lon="5.89182">
        <ele>435</ele>
        <time>2020-10-05T14:51:57.988Z</time>
      </trkpt>
      <trkpt lat="43.99237" lon="5.89181">
        <ele>435</ele>
        <time>2020-10-05T14:51:58.988Z</time>
      </trkpt>
      <trkpt lat="43.99236" lon="5.89181">
        <ele>436</ele>
        <time>2020-10-05T14:51:59.988Z</time>
      </trkpt>
      <trkpt lat="43.99236" lon="5.8918">
        <ele>436</ele>
        <time>2020-10-05T14:52:00.988Z</time>
      </trkpt>
      <trkpt lat="43.99235" lon="5.89179">
        <ele>436</ele>
        <time>2020-10-05T14:52:01.988Z</time>
      </trkpt>
      <trkpt lat="43.99234" lon="5.89178">
        <ele>436</ele>
        <time>2020-10-05T14:52:02.988Z</time>
      </trkpt>
      <trkpt lat="43.99234" lon="5.89177">
        <ele>436</ele>
        <time>2020-10-05T14:52:03.988Z</time>
      </trkpt>
      <trkpt lat="43.99233" lon="5.89176">
        <ele>436</ele>
        <time>2020-10-05T14:52:04.988Z</time>
      </trkpt>
      <trkpt lat="43.99233" lon="5.89175">
        <ele>436</ele>
        <time>2020-10-05T14:52:05.988Z</time>
      </trkpt>
      <trkpt lat="43.99232" lon="5.89174">
        <ele>436</ele>
        <time>2020-10-05T14:52:06.988Z</time>
      </trkpt>
      <trkpt lat="43.99231" lon="5.89173">
        <ele>437</ele>
        <time>2020-10-05T14:52:07.988Z</time>
      </trkpt>
      <trkpt lat="43.99231" lon="5.89173">
        <ele>437</ele>
        <time>2020-10-05T14:52:08.988Z</time>
      </trkpt>
      <trkpt lat="43.99231" lon="5.89173">
        <ele>437</ele>
        <time>2020-10-05T14:52:09.988Z</time>
      </trkpt>
      <trkpt lat="43.9923" lon="5.89173">
        <ele>437</ele>
        <time>2020-10-05T14:52:10.988Z</time>
      </trkpt>
      <trkpt lat="43.9923" lon="5.89173">
        <ele>437</ele>
        <time>2020-10-05T14:52:11.988Z</time>
      </trkpt>
      <trkpt lat="43.9923" lon="5.89173">
        <ele>437</ele>
        <time>2020-10-05T14:52:12.988Z</time>
      </trkpt>
      <trkpt lat="43.9923" lon="5.89173">
        <ele>437</ele>
        <time>2020-10-05T14:52:13.988Z</time>
      </trkpt>
      <trkpt lat="43.9923" lon="5.89173">
        <ele>437</ele>
        <time>2020-10-05T14:52:14.988Z</time>
      </trkpt>
      <trkpt lat="43.9923" lon="5.89173">
        <ele>437</ele>
        <time>2020-10-05T14:52:15.988Z</time>
      </trkpt>
      <trkpt lat="43.9923" lon="5.89173">
        <ele>437</ele>
        <time>2020-10-05T14:52:16.988Z</time>
      </trkpt>
      <trkpt lat="43.9923" lon="5.89173">
        <ele>437</ele>
        <time>2020-10-05T14:52:17.988Z</time>
      </trkpt>
      <trkpt lat="43.9923" lon="5.89173">
        <ele>438</ele>
        <time>2020-10-05T14:52:18.988Z</time>
      </trkpt>
      <trkpt lat="43.99229" lon="5.89173">
        <ele>438</ele>
        <time>2020-10-05T14:52:19.988Z</time>
      </trkpt>
      <trkpt lat="43.99229" lon="5.89172">
        <ele>438</ele>
        <time>2020-10-05T14:52:20.988Z</time>
      </trkpt>
      <trkpt lat="43.99228" lon="5.89171">
        <ele>438</ele>
        <time>2020-10-05T14:52:21.988Z</time>
      </trkpt>
      <trkpt lat="43.99228" lon="5.89171">
        <ele>438</ele>
        <time>2020-10-05T14:52:22.988Z</time>
      </trkpt>
      <trkpt lat="43.99229" lon="5.89171">
        <ele>438</ele>
        <time>2020-10-05T14:52:23.988Z</time>
      </trkpt>
      <trkpt lat="43.99229" lon="5.89171">
        <ele>438</ele>
        <time>2020-10-05T14:52:24.988Z</time>
      </trkpt>
      <trkpt lat="43.99229" lon="5.89171">
        <ele>438</ele>
        <time>2020-10-05T14:52:25.988Z</time>
      </trkpt>
      <trkpt lat="43.99229" lon="5.89171">
        <ele>438</ele>
        <time>2020-10-05T14:52:26.988Z</time>
      </trkpt>
      <trkpt lat="43.99229" lon="5.89171">
        <ele>438</ele>
        <time>2020-10-05T14:52:27.988Z</time>
      </trkpt>
      <trkpt lat="43.99229" lon="5.89171">
        <ele>438</ele>
        <time>2020-10-05T14:52:28.988Z</time>
      </trkpt>
      <trkpt lat="43.99229" lon="5.89171">
        <ele>438</ele>
        <time>2020-10-05T14:52:29.988Z</time>
      </trkpt>
      <trkpt lat="43.99229" lon="5.89171">
        <ele>438</ele>
        <time>2020-10-05T14:52:30.988Z</time>
      </trkpt>
      <trkpt lat="43.99229" lon="5.89171">
        <ele>438</ele>
        <time>2020-10-05T14:52:31.988Z</time>
      </trkpt>
      <trkpt lat="43.99229" lon="5.89171">
        <ele>438</ele>
        <time>2020-10-05T14:52:32.988Z</time>
      </trkpt>
      <trkpt lat="43.99229" lon="5.89171">
        <ele>438</ele>
        <time>2020-10-05T14:52:33.988Z</time>
      </trkpt>
      <trkpt lat="43.99228" lon="5.89171">
        <ele>438</ele>
        <time>2020-10-05T14:52:34.988Z</time>
      </trkpt>
      <trkpt lat="43.99228" lon="5.89171">
        <ele>438</ele>
        <time>2020-10-05T14:52:35.988Z</time>
      </trkpt>
      <trkpt lat="43.99228" lon="5.89171">
        <ele>438</ele>
        <time>2020-10-05T14:52:36.988Z</time>
      </trkpt>
      <trkpt lat="43.99229" lon="5.89171">
        <ele>438</ele>
        <time>2020-10-05T14:52:37.988Z</time>
      </trkpt>
      <trkpt lat="43.99228" lon="5.89171">
        <ele>438</ele>
        <time>2020-10-05T14:52:38.988Z</time>
      </trkpt>
      <trkpt lat="43.99228" lon="5.89171">
        <ele>438</ele>
        <time>2020-10-05T14:52:39.988Z</time>
      </trkpt>
      <trkpt lat="43.99228" lon="5.89171">
        <ele>438</ele>
        <time>2020-10-05T14:52:40.988Z</time>
      </trkpt>
      <trkpt lat="43.99228" lon="5.89171">
        <ele>438</ele>
        <time>2020-10-05T14:52:41.988Z</time>
      </trkpt>
      <trkpt lat="43.99228" lon="5.89171">
        <ele>438</ele>
        <time>2020-10-05T14:52:42.988Z</time>
      </trkpt>
      <trkpt lat="43.99228" lon="5.89171">
        <ele>438</ele>
        <time>2020-10-05T14:52:43.988Z</time>
      </trkpt>
      <trkpt lat="43.99228" lon="5.8917">
        <ele>438</ele>
        <time>2020-10-05T14:52:44.988Z</time>
      </trkpt>
      <trkpt lat="43.99228" lon="5.8917">
        <ele>438</ele>
        <time>2020-10-05T14:52:45.988Z</time>
      </trkpt>
      <trkpt lat="43.99228" lon="5.8917">
        <ele>438</ele>
        <time>2020-10-05T14:52:46.988Z</time>
      </trkpt>
      <trkpt lat="43.99228" lon="5.89169">
        <ele>438</ele>
        <time>2020-10-05T14:52:47.988Z</time>
      </trkpt>
      <trkpt lat="43.99228" lon="5.89169">
        <ele>438</ele>
        <time>2020-10-05T14:52:48.988Z</time>
      </trkpt>
      <trkpt lat="43.99228" lon="5.89169">
        <ele>438</ele>
        <time>2020-10-05T14:52:49.988Z</time>
      </trkpt>
      <trkpt lat="43.99228" lon="5.89169">
        <ele>438</ele>
        <time>2020-10-05T14:52:50.988Z</time>
      </trkpt>
      <trkpt lat="43.99228" lon="5.89168">
        <ele>438</ele>
        <time>2020-10-05T14:52:51.988Z</time>
      </trkpt>
      <trkpt lat="43.99228" lon="5.89168">
        <ele>438</ele>
        <time>2020-10-05T14:52:52.988Z</time>
      </trkpt>
      <trkpt lat="43.99228" lon="5.89168">
        <ele>438</ele>
        <time>2020-10-05T14:52:53.988Z</time>
      </trkpt>
      <trkpt lat="43.99228" lon="5.89168">
        <ele>438</ele>
        <time>2020-10-05T14:52:54.988Z</time>
      </trkpt>
      <trkpt lat="43.99228" lon="5.89168">
        <ele>438</ele>
        <time>2020-10-05T14:52:55.988Z</time>
      </trkpt>
      <trkpt lat="43.99228" lon="5.89168">
        <ele>438</ele>
        <time>2020-10-05T14:52:56.988Z</time>
      </trkpt>
      <trkpt lat="43.99227" lon="5.89168">
        <ele>438</ele>
        <time>2020-10-05T14:52:57.988Z</time>
      </trkpt>
      <trkpt lat="43.99227" lon="5.89167">
        <ele>438</ele>
        <time>2020-10-05T14:52:58.988Z</time>
      </trkpt>
      <trkpt lat="43.99226" lon="5.89167">
        <ele>438</ele>
        <time>2020-10-05T14:52:59.988Z</time>
      </trkpt>
      <trkpt lat="43.99226" lon="5.89167">
        <ele>438</ele>
        <time>2020-10-05T14:53:00.988Z</time>
      </trkpt>
      <trkpt lat="43.99226" lon="5.89167">
        <ele>438</ele>
        <time>2020-10-05T14:53:01.988Z</time>
      </trkpt>
      <trkpt lat="43.99226" lon="5.89167">
        <ele>439</ele>
        <time>2020-10-05T14:53:02.988Z</time>
      </trkpt>
      <trkpt lat="43.99226" lon="5.89167">
        <ele>439</ele>
        <time>2020-10-05T14:53:03.988Z</time>
      </trkpt>
      <trkpt lat="43.99226" lon="5.89167">
        <ele>439</ele>
        <time>2020-10-05T14:53:04.988Z</time>
      </trkpt>
      <trkpt lat="43.99226" lon="5.89168">
        <ele>439</ele>
        <time>2020-10-05T14:53:05.988Z</time>
      </trkpt>
      <trkpt lat="43.99225" lon="5.89168">
        <ele>439</ele>
        <time>2020-10-05T14:53:06.988Z</time>
      </trkpt>
      <trkpt lat="43.99225" lon="5.89168">
        <ele>439</ele>
        <time>2020-10-05T14:53:07.988Z</time>
      </trkpt>
      <trkpt lat="43.99225" lon="5.89168">
        <ele>439</ele>
        <time>2020-10-05T14:53:08.988Z</time>
      </trkpt>
      <trkpt lat="43.99225" lon="5.89168">
        <ele>439</ele>
        <time>2020-10-05T14:53:09.988Z</time>
      </trkpt>
      <trkpt lat="43.99225" lon="5.89168">
        <ele>439</ele>
        <time>2020-10-05T14:53:10.988Z</time>
      </trkpt>
      <trkpt lat="43.99225" lon="5.89168">
        <ele>439</ele>
        <time>2020-10-05T14:53:11.988Z</time>
      </trkpt>
      <trkpt lat="43.99225" lon="5.89168">
        <ele>439</ele>
        <time>2020-10-05T14:53:12.988Z</time>
      </trkpt>
      <trkpt lat="43.99225" lon="5.89168">
        <ele>439</ele>
        <time>2020-10-05T14:53:13.988Z</time>
      </trkpt>
      <trkpt lat="43.99225" lon="5.89168">
        <ele>439</ele>
        <time>2020-10-05T14:53:14.988Z</time>
      </trkpt>
      <trkpt lat="43.99225" lon="5.89168">
        <ele>439</ele>
        <time>2020-10-05T14:53:15.988Z</time>
      </trkpt>
      <trkpt lat="43.99225" lon="5.89168">
        <ele>439</ele>
        <time>2020-10-05T14:53:16.988Z</time>
      </trkpt>
      <trkpt lat="43.99225" lon="5.89168">
        <ele>439</ele>
        <time>2020-10-05T14:53:17.988Z</time>
      </trkpt>
      <trkpt lat="43.99225" lon="5.89168">
        <ele>439</ele>
        <time>2020-10-05T14:53:18.988Z</time>
      </trkpt>
      <trkpt lat="43.99224" lon="5.89169">
        <ele>439</ele>
        <time>2020-10-05T14:53:19.988Z</time>
      </trkpt>
      <trkpt lat="43.99224" lon="5.89169">
        <ele>439</ele>
        <time>2020-10-05T14:53:20.988Z</time>
      </trkpt>
      <trkpt lat="43.99224" lon="5.89169">
        <ele>439</ele>
        <time>2020-10-05T14:53:21.988Z</time>
      </trkpt>
      <trkpt lat="43.99224" lon="5.89169">
        <ele>439</ele>
        <time>2020-10-05T14:53:22.988Z</time>
      </trkpt>
      <trkpt lat="43.99224" lon="5.89168">
        <ele>439</ele>
        <time>2020-10-05T14:53:23.988Z</time>
      </trkpt>
      <trkpt lat="43.99224" lon="5.89168">
        <ele>439</ele>
        <time>2020-10-05T14:53:24.988Z</time>
      </trkpt>
      <trkpt lat="43.99224" lon="5.89169">
        <ele>439</ele>
        <time>2020-10-05T14:53:25.988Z</time>
      </trkpt>
      <trkpt lat="43.99224" lon="5.89168">
        <ele>439</ele>
        <time>2020-10-05T14:53:26.988Z</time>
      </trkpt>
      <trkpt lat="43.99224" lon="5.89168">
        <ele>439</ele>
        <time>2020-10-05T14:53:27.988Z</time>
      </trkpt>
      <trkpt lat="43.99224" lon="5.89167">
        <ele>439</ele>
        <time>2020-10-05T14:53:28.988Z</time>
      </trkpt>
      <trkpt lat="43.99223" lon="5.89166">
        <ele>439</ele>
        <time>2020-10-05T14:53:29.988Z</time>
      </trkpt>
      <trkpt lat="43.99223" lon="5.89165">
        <ele>439</ele>
        <time>2020-10-05T14:53:30.988Z</time>
      </trkpt>
      <trkpt lat="43.99223" lon="5.89164">
        <ele>439</ele>
        <time>2020-10-05T14:53:31.988Z</time>
      </trkpt>
      <trkpt lat="43.99222" lon="5.89163">
        <ele>439</ele>
        <time>2020-10-05T14:53:32.988Z</time>
      </trkpt>
      <trkpt lat="43.99221" lon="5.89162">
        <ele>439</ele>
        <time>2020-10-05T14:53:33.988Z</time>
      </trkpt>
      <trkpt lat="43.99221" lon="5.89161">
        <ele>439</ele>
        <time>2020-10-05T14:53:34.988Z</time>
      </trkpt>
      <trkpt lat="43.9922" lon="5.8916">
        <ele>439</ele>
        <time>2020-10-05T14:53:35.988Z</time>
      </trkpt>
      <trkpt lat="43.9922" lon="5.89159">
        <ele>440</ele>
        <time>2020-10-05T14:53:36.988Z</time>
      </trkpt>
      <trkpt lat="43.99219" lon="5.89159">
        <ele>440</ele>
        <time>2020-10-05T14:53:37.988Z</time>
      </trkpt>
      <trkpt lat="43.99218" lon="5.89158">
        <ele>440</ele>
        <time>2020-10-05T14:53:38.988Z</time>
      </trkpt>
      <trkpt lat="43.99218" lon="5.89157">
        <ele>440</ele>
        <time>2020-10-05T14:53:39.988Z</time>
      </trkpt>
      <trkpt lat="43.99217" lon="5.89156">
        <ele>440</ele>
        <time>2020-10-05T14:53:40.988Z</time>
      </trkpt>
      <trkpt lat="43.99217" lon="5.89156">
        <ele>440</ele>
        <time>2020-10-05T14:53:41.988Z</time>
      </trkpt>
      <trkpt lat="43.99216" lon="5.89155">
        <ele>440</ele>
        <time>2020-10-05T14:53:42.988Z</time>
      </trkpt>
      <trkpt lat="43.99216" lon="5.89154">
        <ele>440</ele>
        <time>2020-10-05T14:53:43.988Z</time>
      </trkpt>
      <trkpt lat="43.99215" lon="5.89153">
        <ele>440</ele>
        <time>2020-10-05T14:53:44.988Z</time>
      </trkpt>
      <trkpt lat="43.99215" lon="5.89152">
        <ele>440</ele>
        <time>2020-10-05T14:53:45.988Z</time>
      </trkpt>
      <trkpt lat="43.99214" lon="5.89151">
        <ele>440</ele>
        <time>2020-10-05T14:53:46.988Z</time>
      </trkpt>
      <trkpt lat="43.99214" lon="5.8915">
        <ele>440</ele>
        <time>2020-10-05T14:53:47.988Z</time>
      </trkpt>
      <trkpt lat="43.99214" lon="5.89149">
        <ele>440</ele>
        <time>2020-10-05T14:53:48.988Z</time>
      </trkpt>
      <trkpt lat="43.99214" lon="5.89148">
        <ele>440</ele>
        <time>2020-10-05T14:53:49.988Z</time>
      </trkpt>
      <trkpt lat="43.99213" lon="5.89147">
        <ele>440</ele>
        <time>2020-10-05T14:53:50.988Z</time>
      </trkpt>
      <trkpt lat="43.99213" lon="5.89146">
        <ele>440</ele>
        <time>2020-10-05T14:53:51.988Z</time>
      </trkpt>
      <trkpt lat="43.99213" lon="5.89145">
        <ele>440</ele>
        <time>2020-10-05T14:53:52.988Z</time>
      </trkpt>
      <trkpt lat="43.99212" lon="5.89144">
        <ele>440</ele>
        <time>2020-10-05T14:53:53.988Z</time>
      </trkpt>
      <trkpt lat="43.99212" lon="5.89143">
        <ele>440</ele>
        <time>2020-10-05T14:53:54.988Z</time>
      </trkpt>
      <trkpt lat="43.99212" lon="5.89142">
        <ele>440</ele>
        <time>2020-10-05T14:53:55.988Z</time>
      </trkpt>
      <trkpt lat="43.99211" lon="5.89141">
        <ele>440</ele>
        <time>2020-10-05T14:53:56.988Z</time>
      </trkpt>
      <trkpt lat="43.99211" lon="5.89141">
        <ele>440</ele>
        <time>2020-10-05T14:53:57.988Z</time>
      </trkpt>
      <trkpt lat="43.99211" lon="5.8914">
        <ele>440</ele>
        <time>2020-10-05T14:53:58.988Z</time>
      </trkpt>
      <trkpt lat="43.9921" lon="5.89139">
        <ele>440</ele>
        <time>2020-10-05T14:53:59.988Z</time>
      </trkpt>
      <trkpt lat="43.9921" lon="5.89138">
        <ele>440</ele>
        <time>2020-10-05T14:54:00.988Z</time>
      </trkpt>
      <trkpt lat="43.9921" lon="5.89137">
        <ele>440</ele>
        <time>2020-10-05T14:54:01.988Z</time>
      </trkpt>
      <trkpt lat="43.99209" lon="5.89136">
        <ele>440</ele>
        <time>2020-10-05T14:54:02.988Z</time>
      </trkpt>
      <trkpt lat="43.99209" lon="5.89136">
        <ele>440</ele>
        <time>2020-10-05T14:54:03.988Z</time>
      </trkpt>
      <trkpt lat="43.99208" lon="5.89135">
        <ele>440</ele>
        <time>2020-10-05T14:54:04.988Z</time>
      </trkpt>
      <trkpt lat="43.99208" lon="5.89134">
        <ele>440</ele>
        <time>2020-10-05T14:54:05.988Z</time>
      </trkpt>
      <trkpt lat="43.99207" lon="5.89133">
        <ele>440</ele>
        <time>2020-10-05T14:54:06.988Z</time>
      </trkpt>
      <trkpt lat="43.99207" lon="5.89132">
        <ele>440</ele>
        <time>2020-10-05T14:54:07.988Z</time>
      </trkpt>
      <trkpt lat="43.99206" lon="5.89132">
        <ele>440</ele>
        <time>2020-10-05T14:54:08.988Z</time>
      </trkpt>
      <trkpt lat="43.99206" lon="5.89131">
        <ele>440</ele>
        <time>2020-10-05T14:54:09.988Z</time>
      </trkpt>
      <trkpt lat="43.99205" lon="5.8913">
        <ele>440</ele>
        <time>2020-10-05T14:54:10.988Z</time>
      </trkpt>
      <trkpt lat="43.99204" lon="5.89129">
        <ele>440</ele>
        <time>2020-10-05T14:54:11.988Z</time>
      </trkpt>
      <trkpt lat="43.99203" lon="5.89128">
        <ele>440</ele>
        <time>2020-10-05T14:54:12.988Z</time>
      </trkpt>
      <trkpt lat="43.99202" lon="5.89128">
        <ele>440</ele>
        <time>2020-10-05T14:54:13.988Z</time>
      </trkpt>
      <trkpt lat="43.99201" lon="5.89127">
        <ele>441</ele>
        <time>2020-10-05T14:54:14.988Z</time>
      </trkpt>
      <trkpt lat="43.992" lon="5.89126">
        <ele>441</ele>
        <time>2020-10-05T14:54:15.988Z</time>
      </trkpt>
      <trkpt lat="43.99199" lon="5.89125">
        <ele>441</ele>
        <time>2020-10-05T14:54:16.988Z</time>
      </trkpt>
      <trkpt lat="43.99198" lon="5.89124">
        <ele>441</ele>
        <time>2020-10-05T14:54:17.988Z</time>
      </trkpt>
      <trkpt lat="43.99197" lon="5.89123">
        <ele>441</ele>
        <time>2020-10-05T14:54:18.988Z</time>
      </trkpt>
      <trkpt lat="43.99196" lon="5.89122">
        <ele>442</ele>
        <time>2020-10-05T14:54:19.988Z</time>
      </trkpt>
      <trkpt lat="43.99195" lon="5.89121">
        <ele>442</ele>
        <time>2020-10-05T14:54:20.988Z</time>
      </trkpt>
      <trkpt lat="43.99194" lon="5.8912">
        <ele>442</ele>
        <time>2020-10-05T14:54:21.988Z</time>
      </trkpt>
      <trkpt lat="43.99194" lon="5.89119">
        <ele>442</ele>
        <time>2020-10-05T14:54:22.988Z</time>
      </trkpt>
      <trkpt lat="43.99193" lon="5.89118">
        <ele>442</ele>
        <time>2020-10-05T14:54:23.988Z</time>
      </trkpt>
      <trkpt lat="43.99192" lon="5.89117">
        <ele>442</ele>
        <time>2020-10-05T14:54:24.988Z</time>
      </trkpt>
      <trkpt lat="43.99191" lon="5.89116">
        <ele>442</ele>
        <time>2020-10-05T14:54:25.988Z</time>
      </trkpt>
      <trkpt lat="43.9919" lon="5.89115">
        <ele>442</ele>
        <time>2020-10-05T14:54:26.988Z</time>
      </trkpt>
      <trkpt lat="43.9919" lon="5.89114">
        <ele>442</ele>
        <time>2020-10-05T14:54:27.988Z</time>
      </trkpt>
      <trkpt lat="43.99189" lon="5.89113">
        <ele>442</ele>
        <time>2020-10-05T14:54:28.988Z</time>
      </trkpt>
      <trkpt lat="43.99188" lon="5.89113">
        <ele>443</ele>
        <time>2020-10-05T14:54:29.988Z</time>
      </trkpt>
      <trkpt lat="43.99187" lon="5.89112">
        <ele>443</ele>
        <time>2020-10-05T14:54:30.988Z</time>
      </trkpt>
      <trkpt lat="43.99186" lon="5.89111">
        <ele>443</ele>
        <time>2020-10-05T14:54:31.988Z</time>
      </trkpt>
      <trkpt lat="43.99186" lon="5.8911">
        <ele>443</ele>
        <time>2020-10-05T14:54:32.988Z</time>
      </trkpt>
      <trkpt lat="43.99185" lon="5.89109">
        <ele>443</ele>
        <time>2020-10-05T14:54:33.988Z</time>
      </trkpt>
      <trkpt lat="43.99185" lon="5.89109">
        <ele>443</ele>
        <time>2020-10-05T14:54:34.988Z</time>
      </trkpt>
      <trkpt lat="43.99184" lon="5.89108">
        <ele>443</ele>
        <time>2020-10-05T14:54:35.988Z</time>
      </trkpt>
      <trkpt lat="43.99183" lon="5.89107">
        <ele>443</ele>
        <time>2020-10-05T14:54:36.988Z</time>
      </trkpt>
      <trkpt lat="43.99183" lon="5.89106">
        <ele>443</ele>
        <time>2020-10-05T14:54:37.988Z</time>
      </trkpt>
      <trkpt lat="43.99182" lon="5.89105">
        <ele>443</ele>
        <time>2020-10-05T14:54:38.988Z</time>
      </trkpt>
      <trkpt lat="43.99182" lon="5.89104">
        <ele>443</ele>
        <time>2020-10-05T14:54:39.988Z</time>
      </trkpt>
      <trkpt lat="43.99181" lon="5.89103">
        <ele>443</ele>
        <time>2020-10-05T14:54:40.988Z</time>
      </trkpt>
      <trkpt lat="43.9918" lon="5.89103">
        <ele>443</ele>
        <time>2020-10-05T14:54:41.988Z</time>
      </trkpt>
      <trkpt lat="43.9918" lon="5.89102">
        <ele>443</ele>
        <time>2020-10-05T14:54:42.988Z</time>
      </trkpt>
      <trkpt lat="43.99179" lon="5.89101">
        <ele>443</ele>
        <time>2020-10-05T14:54:43.988Z</time>
      </trkpt>
      <trkpt lat="43.99178" lon="5.89101">
        <ele>443</ele>
        <time>2020-10-05T14:54:44.988Z</time>
      </trkpt>
      <trkpt lat="43.99177" lon="5.891">
        <ele>443</ele>
        <time>2020-10-05T14:54:45.988Z</time>
      </trkpt>
      <trkpt lat="43.99176" lon="5.89099">
        <ele>443</ele>
        <time>2020-10-05T14:54:46.988Z</time>
      </trkpt>
      <trkpt lat="43.99175" lon="5.89099">
        <ele>443</ele>
        <time>2020-10-05T14:54:47.988Z</time>
      </trkpt>
      <trkpt lat="43.99174" lon="5.89098">
        <ele>443</ele>
        <time>2020-10-05T14:54:48.988Z</time>
      </trkpt>
      <trkpt lat="43.99173" lon="5.89098">
        <ele>443</ele>
        <time>2020-10-05T14:54:49.988Z</time>
      </trkpt>
      <trkpt lat="43.99173" lon="5.89098">
        <ele>443</ele>
        <time>2020-10-05T14:54:50.988Z</time>
      </trkpt>
      <trkpt lat="43.99172" lon="5.89098">
        <ele>443</ele>
        <time>2020-10-05T14:54:51.988Z</time>
      </trkpt>
      <trkpt lat="43.99171" lon="5.89098">
        <ele>443</ele>
        <time>2020-10-05T14:54:52.988Z</time>
      </trkpt>
      <trkpt lat="43.9917" lon="5.89099">
        <ele>443</ele>
        <time>2020-10-05T14:54:53.988Z</time>
      </trkpt>
      <trkpt lat="43.99169" lon="5.89099">
        <ele>443</ele>
        <time>2020-10-05T14:54:54.988Z</time>
      </trkpt>
      <trkpt lat="43.99168" lon="5.89099">
        <ele>444</ele>
        <time>2020-10-05T14:54:55.988Z</time>
      </trkpt>
      <trkpt lat="43.99167" lon="5.89099">
        <ele>444</ele>
        <time>2020-10-05T14:54:56.988Z</time>
      </trkpt>
      <trkpt lat="43.99166" lon="5.89098">
        <ele>444</ele>
        <time>2020-10-05T14:54:57.988Z</time>
      </trkpt>
      <trkpt lat="43.99165" lon="5.89098">
        <ele>444</ele>
        <time>2020-10-05T14:54:58.988Z</time>
      </trkpt>
      <trkpt lat="43.99164" lon="5.89098">
        <ele>444</ele>
        <time>2020-10-05T14:54:59.988Z</time>
      </trkpt>
      <trkpt lat="43.99163" lon="5.89097">
        <ele>444</ele>
        <time>2020-10-05T14:55:00.988Z</time>
      </trkpt>
      <trkpt lat="43.99162" lon="5.89097">
        <ele>444</ele>
        <time>2020-10-05T14:55:01.988Z</time>
      </trkpt>
      <trkpt lat="43.99161" lon="5.89097">
        <ele>444</ele>
        <time>2020-10-05T14:55:02.988Z</time>
      </trkpt>
      <trkpt lat="43.9916" lon="5.89096">
        <ele>444</ele>
        <time>2020-10-05T14:55:03.988Z</time>
      </trkpt>
      <trkpt lat="43.99159" lon="5.89096">
        <ele>444</ele>
        <time>2020-10-05T14:55:04.988Z</time>
      </trkpt>
      <trkpt lat="43.99158" lon="5.89095">
        <ele>444</ele>
        <time>2020-10-05T14:55:05.988Z</time>
      </trkpt>
      <trkpt lat="43.99157" lon="5.89094">
        <ele>444</ele>
        <time>2020-10-05T14:55:06.988Z</time>
      </trkpt>
      <trkpt lat="43.99156" lon="5.89094">
        <ele>444</ele>
        <time>2020-10-05T14:55:07.988Z</time>
      </trkpt>
      <trkpt lat="43.99155" lon="5.89093">
        <ele>444</ele>
        <time>2020-10-05T14:55:08.988Z</time>
      </trkpt>
      <trkpt lat="43.99154" lon="5.89092">
        <ele>445</ele>
        <time>2020-10-05T14:55:09.988Z</time>
      </trkpt>
      <trkpt lat="43.99153" lon="5.89091">
        <ele>445</ele>
        <time>2020-10-05T14:55:10.988Z</time>
      </trkpt>
      <trkpt lat="43.99152" lon="5.8909">
        <ele>445</ele>
        <time>2020-10-05T14:55:11.988Z</time>
      </trkpt>
      <trkpt lat="43.99151" lon="5.8909">
        <ele>445</ele>
        <time>2020-10-05T14:55:12.988Z</time>
      </trkpt>
      <trkpt lat="43.9915" lon="5.89089">
        <ele>445</ele>
        <time>2020-10-05T14:55:13.988Z</time>
      </trkpt>
      <trkpt lat="43.99149" lon="5.89088">
        <ele>445</ele>
        <time>2020-10-05T14:55:14.988Z</time>
      </trkpt>
      <trkpt lat="43.99148" lon="5.89087">
        <ele>445</ele>
        <time>2020-10-05T14:55:15.988Z</time>
      </trkpt>
      <trkpt lat="43.99147" lon="5.89086">
        <ele>446</ele>
        <time>2020-10-05T14:55:16.988Z</time>
      </trkpt>
      <trkpt lat="43.99147" lon="5.89085">
        <ele>446</ele>
        <time>2020-10-05T14:55:17.988Z</time>
      </trkpt>
      <trkpt lat="43.99146" lon="5.89085">
        <ele>446</ele>
        <time>2020-10-05T14:55:18.988Z</time>
      </trkpt>
      <trkpt lat="43.99146" lon="5.89084">
        <ele>446</ele>
        <time>2020-10-05T14:55:19.988Z</time>
      </trkpt>
      <trkpt lat="43.99146" lon="5.89084">
        <ele>446</ele>
        <time>2020-10-05T14:55:20.988Z</time>
      </trkpt>
      <trkpt lat="43.99146" lon="5.89084">
        <ele>446</ele>
        <time>2020-10-05T14:55:21.988Z</time>
      </trkpt>
      <trkpt lat="43.99146" lon="5.89084">
        <ele>446</ele>
        <time>2020-10-05T14:55:22.988Z</time>
      </trkpt>
      <trkpt lat="43.99146" lon="5.89083">
        <ele>447</ele>
        <time>2020-10-05T14:55:23.988Z</time>
      </trkpt>
      <trkpt lat="43.99146" lon="5.89083">
        <ele>447</ele>
        <time>2020-10-05T14:55:24.988Z</time>
      </trkpt>
      <trkpt lat="43.99146" lon="5.89083">
        <ele>447</ele>
        <time>2020-10-05T14:55:25.988Z</time>
      </trkpt>
      <trkpt lat="43.99145" lon="5.89083">
        <ele>447</ele>
        <time>2020-10-05T14:55:26.988Z</time>
      </trkpt>
      <trkpt lat="43.99145" lon="5.89083">
        <ele>447</ele>
        <time>2020-10-05T14:55:27.988Z</time>
      </trkpt>
      <trkpt lat="43.99145" lon="5.89083">
        <ele>447</ele>
        <time>2020-10-05T14:55:28.988Z</time>
      </trkpt>
      <trkpt lat="43.99145" lon="5.89082">
        <ele>447</ele>
        <time>2020-10-05T14:55:29.988Z</time>
      </trkpt>
      <trkpt lat="43.99145" lon="5.89082">
        <ele>447</ele>
        <time>2020-10-05T14:55:30.988Z</time>
      </trkpt>
      <trkpt lat="43.99145" lon="5.89082">
        <ele>447</ele>
        <time>2020-10-05T14:55:31.988Z</time>
      </trkpt>
      <trkpt lat="43.99145" lon="5.89082">
        <ele>447</ele>
        <time>2020-10-05T14:55:32.988Z</time>
      </trkpt>
      <trkpt lat="43.99145" lon="5.89082">
        <ele>447</ele>
        <time>2020-10-05T14:55:33.988Z</time>
      </trkpt>
      <trkpt lat="43.99145" lon="5.89082">
        <ele>447</ele>
        <time>2020-10-05T14:55:34.988Z</time>
      </trkpt>
      <trkpt lat="43.99144" lon="5.89082">
        <ele>447</ele>
        <time>2020-10-05T14:55:35.988Z</time>
      </trkpt>
      <trkpt lat="43.99145" lon="5.89082">
        <ele>447</ele>
        <time>2020-10-05T14:55:36.988Z</time>
      </trkpt>
      <trkpt lat="43.99145" lon="5.89082">
        <ele>447</ele>
        <time>2020-10-05T14:55:37.988Z</time>
      </trkpt>
      <trkpt lat="43.99145" lon="5.89081">
        <ele>447</ele>
        <time>2020-10-05T14:55:38.988Z</time>
      </trkpt>
      <trkpt lat="43.99145" lon="5.8908">
        <ele>447</ele>
        <time>2020-10-05T14:55:39.988Z</time>
      </trkpt>
      <trkpt lat="43.99144" lon="5.89079">
        <ele>447</ele>
        <time>2020-10-05T14:55:40.988Z</time>
      </trkpt>
      <trkpt lat="43.99144" lon="5.89078">
        <ele>447</ele>
        <time>2020-10-05T14:55:41.988Z</time>
      </trkpt>
      <trkpt lat="43.99143" lon="5.89077">
        <ele>447</ele>
        <time>2020-10-05T14:55:42.988Z</time>
      </trkpt>
      <trkpt lat="43.99143" lon="5.89076">
        <ele>447</ele>
        <time>2020-10-05T14:55:43.988Z</time>
      </trkpt>
      <trkpt lat="43.99142" lon="5.89074">
        <ele>447</ele>
        <time>2020-10-05T14:55:44.988Z</time>
      </trkpt>
      <trkpt lat="43.99142" lon="5.89073">
        <ele>447</ele>
        <time>2020-10-05T14:55:45.988Z</time>
      </trkpt>
      <trkpt lat="43.99142" lon="5.89072">
        <ele>447</ele>
        <time>2020-10-05T14:55:46.988Z</time>
      </trkpt>
      <trkpt lat="43.99141" lon="5.89071">
        <ele>447</ele>
        <time>2020-10-05T14:55:47.988Z</time>
      </trkpt>
      <trkpt lat="43.9914" lon="5.89069">
        <ele>447</ele>
        <time>2020-10-05T14:55:48.988Z</time>
      </trkpt>
      <trkpt lat="43.99139" lon="5.89068">
        <ele>447</ele>
        <time>2020-10-05T14:55:49.988Z</time>
      </trkpt>
      <trkpt lat="43.99139" lon="5.89067">
        <ele>447</ele>
        <time>2020-10-05T14:55:50.988Z</time>
      </trkpt>
      <trkpt lat="43.99138" lon="5.89066">
        <ele>447</ele>
        <time>2020-10-05T14:55:51.988Z</time>
      </trkpt>
      <trkpt lat="43.99137" lon="5.89065">
        <ele>447</ele>
        <time>2020-10-05T14:55:52.988Z</time>
      </trkpt>
      <trkpt lat="43.99136" lon="5.89064">
        <ele>447</ele>
        <time>2020-10-05T14:55:53.988Z</time>
      </trkpt>
      <trkpt lat="43.99136" lon="5.89063">
        <ele>447</ele>
        <time>2020-10-05T14:55:54.988Z</time>
      </trkpt>
      <trkpt lat="43.99135" lon="5.89062">
        <ele>447</ele>
        <time>2020-10-05T14:55:55.988Z</time>
      </trkpt>
      <trkpt lat="43.99134" lon="5.8906">
        <ele>447</ele>
        <time>2020-10-05T14:55:56.988Z</time>
      </trkpt>
      <trkpt lat="43.99133" lon="5.89059">
        <ele>447</ele>
        <time>2020-10-05T14:55:57.988Z</time>
      </trkpt>
      <trkpt lat="43.99132" lon="5.89058">
        <ele>447</ele>
        <time>2020-10-05T14:55:58.988Z</time>
      </trkpt>
      <trkpt lat="43.99132" lon="5.89057">
        <ele>447</ele>
        <time>2020-10-05T14:55:59.988Z</time>
      </trkpt>
      <trkpt lat="43.99131" lon="5.89056">
        <ele>447</ele>
        <time>2020-10-05T14:56:00.988Z</time>
      </trkpt>
      <trkpt lat="43.9913" lon="5.89054">
        <ele>447</ele>
        <time>2020-10-05T14:56:01.988Z</time>
      </trkpt>
      <trkpt lat="43.99129" lon="5.89053">
        <ele>447</ele>
        <time>2020-10-05T14:56:02.988Z</time>
      </trkpt>
      <trkpt lat="43.99128" lon="5.89053">
        <ele>447</ele>
        <time>2020-10-05T14:56:03.988Z</time>
      </trkpt>
      <trkpt lat="43.99127" lon="5.89052">
        <ele>448</ele>
        <time>2020-10-05T14:56:04.988Z</time>
      </trkpt>
      <trkpt lat="43.99126" lon="5.89051">
        <ele>448</ele>
        <time>2020-10-05T14:56:05.988Z</time>
      </trkpt>
      <trkpt lat="43.99126" lon="5.8905">
        <ele>448</ele>
        <time>2020-10-05T14:56:06.988Z</time>
      </trkpt>
      <trkpt lat="43.99125" lon="5.89049">
        <ele>448</ele>
        <time>2020-10-05T14:56:07.988Z</time>
      </trkpt>
      <trkpt lat="43.99125" lon="5.89048">
        <ele>448</ele>
        <time>2020-10-05T14:56:08.988Z</time>
      </trkpt>
      <trkpt lat="43.99124" lon="5.89047">
        <ele>448</ele>
        <time>2020-10-05T14:56:09.988Z</time>
      </trkpt>
      <trkpt lat="43.99124" lon="5.89046">
        <ele>448</ele>
        <time>2020-10-05T14:56:10.988Z</time>
      </trkpt>
      <trkpt lat="43.99123" lon="5.89045">
        <ele>448</ele>
        <time>2020-10-05T14:56:11.988Z</time>
      </trkpt>
      <trkpt lat="43.99122" lon="5.89045">
        <ele>448</ele>
        <time>2020-10-05T14:56:12.988Z</time>
      </trkpt>
      <trkpt lat="43.99122" lon="5.89044">
        <ele>448</ele>
        <time>2020-10-05T14:56:13.988Z</time>
      </trkpt>
      <trkpt lat="43.99121" lon="5.89043">
        <ele>448</ele>
        <time>2020-10-05T14:56:14.988Z</time>
      </trkpt>
      <trkpt lat="43.9912" lon="5.89042">
        <ele>448</ele>
        <time>2020-10-05T14:56:15.988Z</time>
      </trkpt>
      <trkpt lat="43.9912" lon="5.89041">
        <ele>448</ele>
        <time>2020-10-05T14:56:16.988Z</time>
      </trkpt>
      <trkpt lat="43.99119" lon="5.8904">
        <ele>448</ele>
        <time>2020-10-05T14:56:17.988Z</time>
      </trkpt>
      <trkpt lat="43.99119" lon="5.8904">
        <ele>448</ele>
        <time>2020-10-05T14:56:18.988Z</time>
      </trkpt>
      <trkpt lat="43.99118" lon="5.89039">
        <ele>448</ele>
        <time>2020-10-05T14:56:19.988Z</time>
      </trkpt>
      <trkpt lat="43.99118" lon="5.89039">
        <ele>448</ele>
        <time>2020-10-05T14:56:20.988Z</time>
      </trkpt>
      <trkpt lat="43.99117" lon="5.89038">
        <ele>449</ele>
        <time>2020-10-05T14:56:21.988Z</time>
      </trkpt>
      <trkpt lat="43.99117" lon="5.89038">
        <ele>449</ele>
        <time>2020-10-05T14:56:22.988Z</time>
      </trkpt>
      <trkpt lat="43.99116" lon="5.89037">
        <ele>449</ele>
        <time>2020-10-05T14:56:23.988Z</time>
      </trkpt>
      <trkpt lat="43.99115" lon="5.89037">
        <ele>449</ele>
        <time>2020-10-05T14:56:24.988Z</time>
      </trkpt>
      <trkpt lat="43.99114" lon="5.89036">
        <ele>449</ele>
        <time>2020-10-05T14:56:25.988Z</time>
      </trkpt>
      <trkpt lat="43.99113" lon="5.89035">
        <ele>449</ele>
        <time>2020-10-05T14:56:26.988Z</time>
      </trkpt>
      <trkpt lat="43.99113" lon="5.89035">
        <ele>449</ele>
        <time>2020-10-05T14:56:27.988Z</time>
      </trkpt>
      <trkpt lat="43.99112" lon="5.89034">
        <ele>449</ele>
        <time>2020-10-05T14:56:28.988Z</time>
      </trkpt>
      <trkpt lat="43.99111" lon="5.89034">
        <ele>449</ele>
        <time>2020-10-05T14:56:29.988Z</time>
      </trkpt>
      <trkpt lat="43.9911" lon="5.89034">
        <ele>449</ele>
        <time>2020-10-05T14:56:30.988Z</time>
      </trkpt>
      <trkpt lat="43.99109" lon="5.89033">
        <ele>449</ele>
        <time>2020-10-05T14:56:31.988Z</time>
      </trkpt>
      <trkpt lat="43.99108" lon="5.89033">
        <ele>449</ele>
        <time>2020-10-05T14:56:32.988Z</time>
      </trkpt>
      <trkpt lat="43.99108" lon="5.89033">
        <ele>449</ele>
        <time>2020-10-05T14:56:33.988Z</time>
      </trkpt>
      <trkpt lat="43.99107" lon="5.89032">
        <ele>450</ele>
        <time>2020-10-05T14:56:34.988Z</time>
      </trkpt>
      <trkpt lat="43.99106" lon="5.89032">
        <ele>450</ele>
        <time>2020-10-05T14:56:35.988Z</time>
      </trkpt>
      <trkpt lat="43.99105" lon="5.89032">
        <ele>450</ele>
        <time>2020-10-05T14:56:36.988Z</time>
      </trkpt>
      <trkpt lat="43.99104" lon="5.89032">
        <ele>450</ele>
        <time>2020-10-05T14:56:37.988Z</time>
      </trkpt>
      <trkpt lat="43.99104" lon="5.89032">
        <ele>450</ele>
        <time>2020-10-05T14:56:38.988Z</time>
      </trkpt>
      <trkpt lat="43.99103" lon="5.89032">
        <ele>450</ele>
        <time>2020-10-05T14:56:39.988Z</time>
      </trkpt>
      <trkpt lat="43.99102" lon="5.89032">
        <ele>450</ele>
        <time>2020-10-05T14:56:40.988Z</time>
      </trkpt>
      <trkpt lat="43.99101" lon="5.89032">
        <ele>450</ele>
        <time>2020-10-05T14:56:41.988Z</time>
      </trkpt>
      <trkpt lat="43.99101" lon="5.89032">
        <ele>450</ele>
        <time>2020-10-05T14:56:42.988Z</time>
      </trkpt>
      <trkpt lat="43.991" lon="5.89032">
        <ele>450</ele>
        <time>2020-10-05T14:56:43.988Z</time>
      </trkpt>
      <trkpt lat="43.991" lon="5.89032">
        <ele>450</ele>
        <time>2020-10-05T14:56:44.988Z</time>
      </trkpt>
      <trkpt lat="43.99099" lon="5.89032">
        <ele>450</ele>
        <time>2020-10-05T14:56:45.988Z</time>
      </trkpt>
      <trkpt lat="43.99099" lon="5.89032">
        <ele>451</ele>
        <time>2020-10-05T14:56:46.988Z</time>
      </trkpt>
      <trkpt lat="43.99099" lon="5.89032">
        <ele>451</ele>
        <time>2020-10-05T14:56:47.988Z</time>
      </trkpt>
      <trkpt lat="43.991" lon="5.89032">
        <ele>451</ele>
        <time>2020-10-05T14:56:48.988Z</time>
      </trkpt>
      <trkpt lat="43.991" lon="5.89032">
        <ele>451</ele>
        <time>2020-10-05T14:56:49.988Z</time>
      </trkpt>
      <trkpt lat="43.991" lon="5.89032">
        <ele>451</ele>
        <time>2020-10-05T14:56:50.988Z</time>
      </trkpt>
      <trkpt lat="43.991" lon="5.89032">
        <ele>451</ele>
        <time>2020-10-05T14:56:51.988Z</time>
      </trkpt>
      <trkpt lat="43.991" lon="5.89032">
        <ele>451</ele>
        <time>2020-10-05T14:56:52.988Z</time>
      </trkpt>
      <trkpt lat="43.991" lon="5.89032">
        <ele>451</ele>
        <time>2020-10-05T14:56:53.988Z</time>
      </trkpt>
      <trkpt lat="43.991" lon="5.89032">
        <ele>451</ele>
        <time>2020-10-05T14:56:54.988Z</time>
      </trkpt>
      <trkpt lat="43.991" lon="5.89033">
        <ele>451</ele>
        <time>2020-10-05T14:56:55.988Z</time>
      </trkpt>
      <trkpt lat="43.991" lon="5.89033">
        <ele>451</ele>
        <time>2020-10-05T14:56:56.988Z</time>
      </trkpt>
      <trkpt lat="43.991" lon="5.89033">
        <ele>451</ele>
        <time>2020-10-05T14:56:57.988Z</time>
      </trkpt>
      <trkpt lat="43.991" lon="5.89032">
        <ele>452</ele>
        <time>2020-10-05T14:56:58.988Z</time>
      </trkpt>
      <trkpt lat="43.991" lon="5.89032">
        <ele>452</ele>
        <time>2020-10-05T14:56:59.988Z</time>
      </trkpt>
      <trkpt lat="43.991" lon="5.89033">
        <ele>452</ele>
        <time>2020-10-05T14:57:00.988Z</time>
      </trkpt>
      <trkpt lat="43.991" lon="5.89033">
        <ele>452</ele>
        <time>2020-10-05T14:57:01.988Z</time>
      </trkpt>
      <trkpt lat="43.991" lon="5.89033">
        <ele>452</ele>
        <time>2020-10-05T14:57:02.988Z</time>
      </trkpt>
      <trkpt lat="43.991" lon="5.89033">
        <ele>452</ele>
        <time>2020-10-05T14:57:03.988Z</time>
      </trkpt>
      <trkpt lat="43.991" lon="5.89032">
        <ele>452</ele>
        <time>2020-10-05T14:57:04.988Z</time>
      </trkpt>
      <trkpt lat="43.991" lon="5.89033">
        <ele>452</ele>
        <time>2020-10-05T14:57:05.988Z</time>
      </trkpt>
      <trkpt lat="43.99099" lon="5.89033">
        <ele>452</ele>
        <time>2020-10-05T14:57:06.988Z</time>
      </trkpt>
      <trkpt lat="43.99099" lon="5.89033">
        <ele>452</ele>
        <time>2020-10-05T14:57:07.988Z</time>
      </trkpt>
      <trkpt lat="43.99099" lon="5.89033">
        <ele>452</ele>
        <time>2020-10-05T14:57:08.988Z</time>
      </trkpt>
      <trkpt lat="43.99099" lon="5.89033">
        <ele>452</ele>
        <time>2020-10-05T14:57:09.988Z</time>
      </trkpt>
      <trkpt lat="43.99099" lon="5.89033">
        <ele>452</ele>
        <time>2020-10-05T14:57:10.988Z</time>
      </trkpt>
      <trkpt lat="43.99099" lon="5.89033">
        <ele>452</ele>
        <time>2020-10-05T14:57:11.988Z</time>
      </trkpt>
      <trkpt lat="43.99098" lon="5.89033">
        <ele>453</ele>
        <time>2020-10-05T14:57:12.988Z</time>
      </trkpt>
      <trkpt lat="43.99098" lon="5.89033">
        <ele>453</ele>
        <time>2020-10-05T14:57:13.988Z</time>
      </trkpt>
      <trkpt lat="43.99098" lon="5.89034">
        <ele>453</ele>
        <time>2020-10-05T14:57:14.988Z</time>
      </trkpt>
      <trkpt lat="43.99098" lon="5.89034">
        <ele>453</ele>
        <time>2020-10-05T14:57:15.988Z</time>
      </trkpt>
      <trkpt lat="43.99098" lon="5.89033">
        <ele>453</ele>
        <time>2020-10-05T14:57:16.988Z</time>
      </trkpt>
      <trkpt lat="43.99098" lon="5.89033">
        <ele>453</ele>
        <time>2020-10-05T14:57:17.988Z</time>
      </trkpt>
      <trkpt lat="43.99097" lon="5.89033">
        <ele>453</ele>
        <time>2020-10-05T14:57:18.988Z</time>
      </trkpt>
      <trkpt lat="43.99097" lon="5.89033">
        <ele>453</ele>
        <time>2020-10-05T14:57:19.988Z</time>
      </trkpt>
      <trkpt lat="43.99097" lon="5.89033">
        <ele>453</ele>
        <time>2020-10-05T14:57:20.988Z</time>
      </trkpt>
      <trkpt lat="43.99097" lon="5.89032">
        <ele>453</ele>
        <time>2020-10-05T14:57:21.988Z</time>
      </trkpt>
      <trkpt lat="43.99097" lon="5.89032">
        <ele>453</ele>
        <time>2020-10-05T14:57:22.988Z</time>
      </trkpt>
      <trkpt lat="43.99097" lon="5.89032">
        <ele>453</ele>
        <time>2020-10-05T14:57:23.988Z</time>
      </trkpt>
      <trkpt lat="43.99097" lon="5.89032">
        <ele>453</ele>
        <time>2020-10-05T14:57:24.988Z</time>
      </trkpt>
      <trkpt lat="43.99098" lon="5.89031">
        <ele>453</ele>
        <time>2020-10-05T14:57:25.988Z</time>
      </trkpt>
      <trkpt lat="43.99098" lon="5.89031">
        <ele>452</ele>
        <time>2020-10-05T14:57:26.988Z</time>
      </trkpt>
      <trkpt lat="43.99098" lon="5.89031">
        <ele>452</ele>
        <time>2020-10-05T14:57:27.988Z</time>
      </trkpt>
      <trkpt lat="43.99098" lon="5.89031">
        <ele>452</ele>
        <time>2020-10-05T14:57:28.988Z</time>
      </trkpt>
      <trkpt lat="43.99098" lon="5.89031">
        <ele>452</ele>
        <time>2020-10-05T14:57:29.988Z</time>
      </trkpt>
      <trkpt lat="43.99098" lon="5.89031">
        <ele>452</ele>
        <time>2020-10-05T14:57:30.988Z</time>
      </trkpt>
      <trkpt lat="43.99098" lon="5.89031">
        <ele>452</ele>
        <time>2020-10-05T14:57:31.988Z</time>
      </trkpt>
      <trkpt lat="43.99099" lon="5.89031">
        <ele>452</ele>
        <time>2020-10-05T14:57:32.988Z</time>
      </trkpt>
      <trkpt lat="43.99099" lon="5.8903">
        <ele>452</ele>
        <time>2020-10-05T14:57:33.988Z</time>
      </trkpt>
      <trkpt lat="43.991" lon="5.8903">
        <ele>452</ele>
        <time>2020-10-05T14:57:34.988Z</time>
      </trkpt>
      <trkpt lat="43.991" lon="5.8903">
        <ele>452</ele>
        <time>2020-10-05T14:57:35.988Z</time>
      </trkpt>
      <trkpt lat="43.99101" lon="5.8903">
        <ele>452</ele>
        <time>2020-10-05T14:57:36.988Z</time>
      </trkpt>
      <trkpt lat="43.99101" lon="5.8903">
        <ele>452</ele>
        <time>2020-10-05T14:57:37.988Z</time>
      </trkpt>
      <trkpt lat="43.99102" lon="5.8903">
        <ele>452</ele>
        <time>2020-10-05T14:57:38.988Z</time>
      </trkpt>
      <trkpt lat="43.99103" lon="5.8903">
        <ele>452</ele>
        <time>2020-10-05T14:57:39.988Z</time>
      </trkpt>
      <trkpt lat="43.99103" lon="5.89031">
        <ele>452</ele>
        <time>2020-10-05T14:57:40.988Z</time>
      </trkpt>
      <trkpt lat="43.99104" lon="5.89031">
        <ele>452</ele>
        <time>2020-10-05T14:57:41.988Z</time>
      </trkpt>
      <trkpt lat="43.99105" lon="5.89031">
        <ele>452</ele>
        <time>2020-10-05T14:57:42.988Z</time>
      </trkpt>
      <trkpt lat="43.99106" lon="5.89031">
        <ele>452</ele>
        <time>2020-10-05T14:57:43.988Z</time>
      </trkpt>
      <trkpt lat="43.99107" lon="5.89031">
        <ele>452</ele>
        <time>2020-10-05T14:57:44.988Z</time>
      </trkpt>
      <trkpt lat="43.99108" lon="5.89031">
        <ele>452</ele>
        <time>2020-10-05T14:57:45.988Z</time>
      </trkpt>
      <trkpt lat="43.99109" lon="5.89031">
        <ele>452</ele>
        <time>2020-10-05T14:57:46.988Z</time>
      </trkpt>
      <trkpt lat="43.99109" lon="5.89032">
        <ele>452</ele>
        <time>2020-10-05T14:57:47.988Z</time>
      </trkpt>
      <trkpt lat="43.9911" lon="5.89032">
        <ele>452</ele>
        <time>2020-10-05T14:57:48.988Z</time>
      </trkpt>
      <trkpt lat="43.99112" lon="5.89032">
        <ele>452</ele>
        <time>2020-10-05T14:57:49.988Z</time>
      </trkpt>
      <trkpt lat="43.99113" lon="5.89032">
        <ele>453</ele>
        <time>2020-10-05T14:57:50.988Z</time>
      </trkpt>
      <trkpt lat="43.99114" lon="5.89032">
        <ele>453</ele>
        <time>2020-10-05T14:57:51.988Z</time>
      </trkpt>
      <trkpt lat="43.99115" lon="5.89032">
        <ele>453</ele>
        <time>2020-10-05T14:57:52.988Z</time>
      </trkpt>
      <trkpt lat="43.99116" lon="5.89033">
        <ele>453</ele>
        <time>2020-10-05T14:57:53.988Z</time>
      </trkpt>
      <trkpt lat="43.99117" lon="5.89033">
        <ele>453</ele>
        <time>2020-10-05T14:57:54.988Z</time>
      </trkpt>
      <trkpt lat="43.99117" lon="5.89033">
        <ele>453</ele>
        <time>2020-10-05T14:57:55.988Z</time>
      </trkpt>
      <trkpt lat="43.99118" lon="5.89034">
        <ele>453</ele>
        <time>2020-10-05T14:57:56.988Z</time>
      </trkpt>
      <trkpt lat="43.99119" lon="5.89034">
        <ele>453</ele>
        <time>2020-10-05T14:57:57.988Z</time>
      </trkpt>
      <trkpt lat="43.99119" lon="5.89034">
        <ele>453</ele>
        <time>2020-10-05T14:57:58.988Z</time>
      </trkpt>
      <trkpt lat="43.9912" lon="5.89035">
        <ele>453</ele>
        <time>2020-10-05T14:57:59.988Z</time>
      </trkpt>
      <trkpt lat="43.99121" lon="5.89035">
        <ele>453</ele>
        <time>2020-10-05T14:58:00.988Z</time>
      </trkpt>
      <trkpt lat="43.99122" lon="5.89035">
        <ele>453</ele>
        <time>2020-10-05T14:58:01.988Z</time>
      </trkpt>
      <trkpt lat="43.99123" lon="5.89035">
        <ele>453</ele>
        <time>2020-10-05T14:58:02.988Z</time>
      </trkpt>
      <trkpt lat="43.99123" lon="5.89036">
        <ele>453</ele>
        <time>2020-10-05T14:58:03.988Z</time>
      </trkpt>
      <trkpt lat="43.99124" lon="5.89036">
        <ele>453</ele>
        <time>2020-10-05T14:58:04.988Z</time>
      </trkpt>
      <trkpt lat="43.99125" lon="5.89036">
        <ele>453</ele>
        <time>2020-10-05T14:58:05.988Z</time>
      </trkpt>
      <trkpt lat="43.99126" lon="5.89036">
        <ele>453</ele>
        <time>2020-10-05T14:58:06.988Z</time>
      </trkpt>
      <trkpt lat="43.99127" lon="5.89036">
        <ele>453</ele>
        <time>2020-10-05T14:58:07.988Z</time>
      </trkpt>
      <trkpt lat="43.99128" lon="5.89036">
        <ele>453</ele>
        <time>2020-10-05T14:58:08.988Z</time>
      </trkpt>
      <trkpt lat="43.99128" lon="5.89036">
        <ele>454</ele>
        <time>2020-10-05T14:58:09.988Z</time>
      </trkpt>
      <trkpt lat="43.99129" lon="5.89037">
        <ele>454</ele>
        <time>2020-10-05T14:58:10.988Z</time>
      </trkpt>
      <trkpt lat="43.99129" lon="5.89037">
        <ele>454</ele>
        <time>2020-10-05T14:58:11.988Z</time>
      </trkpt>
      <trkpt lat="43.99129" lon="5.89037">
        <ele>454</ele>
        <time>2020-10-05T14:58:12.988Z</time>
      </trkpt>
      <trkpt lat="43.9913" lon="5.89037">
        <ele>454</ele>
        <time>2020-10-05T14:58:13.988Z</time>
      </trkpt>
      <trkpt lat="43.9913" lon="5.89038">
        <ele>454</ele>
        <time>2020-10-05T14:58:14.988Z</time>
      </trkpt>
      <trkpt lat="43.99129" lon="5.89038">
        <ele>454</ele>
        <time>2020-10-05T14:58:15.988Z</time>
      </trkpt>
      <trkpt lat="43.99129" lon="5.89038">
        <ele>454</ele>
        <time>2020-10-05T14:58:16.988Z</time>
      </trkpt>
      <trkpt lat="43.99129" lon="5.89038">
        <ele>454</ele>
        <time>2020-10-05T14:58:17.988Z</time>
      </trkpt>
      <trkpt lat="43.99129" lon="5.89038">
        <ele>454</ele>
        <time>2020-10-05T14:58:18.988Z</time>
      </trkpt>
      <trkpt lat="43.99129" lon="5.89038">
        <ele>455</ele>
        <time>2020-10-05T14:58:19.988Z</time>
      </trkpt>
      <trkpt lat="43.99129" lon="5.89038">
        <ele>455</ele>
        <time>2020-10-05T14:58:20.988Z</time>
      </trkpt>
      <trkpt lat="43.99129" lon="5.89039">
        <ele>455</ele>
        <time>2020-10-05T14:58:21.988Z</time>
      </trkpt>
      <trkpt lat="43.9913" lon="5.89039">
        <ele>455</ele>
        <time>2020-10-05T14:58:22.988Z</time>
      </trkpt>
      <trkpt lat="43.9913" lon="5.8904">
        <ele>455</ele>
        <time>2020-10-05T14:58:23.988Z</time>
      </trkpt>
      <trkpt lat="43.99131" lon="5.8904">
        <ele>455</ele>
        <time>2020-10-05T14:58:24.988Z</time>
      </trkpt>
      <trkpt lat="43.99132" lon="5.8904">
        <ele>456</ele>
        <time>2020-10-05T14:58:25.988Z</time>
      </trkpt>
      <trkpt lat="43.99132" lon="5.89041">
        <ele>456</ele>
        <time>2020-10-05T14:58:26.988Z</time>
      </trkpt>
      <trkpt lat="43.99133" lon="5.89041">
        <ele>456</ele>
        <time>2020-10-05T14:58:27.988Z</time>
      </trkpt>
      <trkpt lat="43.99133" lon="5.89042">
        <ele>456</ele>
        <time>2020-10-05T14:58:28.988Z</time>
      </trkpt>
      <trkpt lat="43.99134" lon="5.89042">
        <ele>456</ele>
        <time>2020-10-05T14:58:29.988Z</time>
      </trkpt>
      <trkpt lat="43.99134" lon="5.89042">
        <ele>456</ele>
        <time>2020-10-05T14:58:30.988Z</time>
      </trkpt>
      <trkpt lat="43.99135" lon="5.89043">
        <ele>457</ele>
        <time>2020-10-05T14:58:31.988Z</time>
      </trkpt>
      <trkpt lat="43.99135" lon="5.89043">
        <ele>457</ele>
        <time>2020-10-05T14:58:32.988Z</time>
      </trkpt>
      <trkpt lat="43.99135" lon="5.89043">
        <ele>457</ele>
        <time>2020-10-05T14:58:33.988Z</time>
      </trkpt>
      <trkpt lat="43.99135" lon="5.89043">
        <ele>457</ele>
        <time>2020-10-05T14:58:34.988Z</time>
      </trkpt>
      <trkpt lat="43.99135" lon="5.89043">
        <ele>458</ele>
        <time>2020-10-05T14:58:35.988Z</time>
      </trkpt>
      <trkpt lat="43.99135" lon="5.89043">
        <ele>458</ele>
        <time>2020-10-05T14:58:36.988Z</time>
      </trkpt>
      <trkpt lat="43.99134" lon="5.89043">
        <ele>458</ele>
        <time>2020-10-05T14:58:37.988Z</time>
      </trkpt>
      <trkpt lat="43.99134" lon="5.89043">
        <ele>459</ele>
        <time>2020-10-05T14:58:38.988Z</time>
      </trkpt>
      <trkpt lat="43.99134" lon="5.89043">
        <ele>459</ele>
        <time>2020-10-05T14:58:39.988Z</time>
      </trkpt>
      <trkpt lat="43.99134" lon="5.89043">
        <ele>459</ele>
        <time>2020-10-05T14:58:40.988Z</time>
      </trkpt>
      <trkpt lat="43.99134" lon="5.89043">
        <ele>460</ele>
        <time>2020-10-05T14:58:41.988Z</time>
      </trkpt>
      <trkpt lat="43.99134" lon="5.89043">
        <ele>460</ele>
        <time>2020-10-05T14:58:42.988Z</time>
      </trkpt>
      <trkpt lat="43.99135" lon="5.89044">
        <ele>460</ele>
        <time>2020-10-05T14:58:43.988Z</time>
      </trkpt>
      <trkpt lat="43.99135" lon="5.89044">
        <ele>460</ele>
        <time>2020-10-05T14:58:44.988Z</time>
      </trkpt>
      <trkpt lat="43.99135" lon="5.89044">
        <ele>461</ele>
        <time>2020-10-05T14:58:45.988Z</time>
      </trkpt>
      <trkpt lat="43.99136" lon="5.89044">
        <ele>461</ele>
        <time>2020-10-05T14:58:46.988Z</time>
      </trkpt>
      <trkpt lat="43.99137" lon="5.89045">
        <ele>461</ele>
        <time>2020-10-05T14:58:47.988Z</time>
      </trkpt>
      <trkpt lat="43.99137" lon="5.89045">
        <ele>461</ele>
        <time>2020-10-05T14:58:48.988Z</time>
      </trkpt>
      <trkpt lat="43.99138" lon="5.89046">
        <ele>461</ele>
        <time>2020-10-05T14:58:49.988Z</time>
      </trkpt>
      <trkpt lat="43.99138" lon="5.89046">
        <ele>461</ele>
        <time>2020-10-05T14:58:50.988Z</time>
      </trkpt>
      <trkpt lat="43.99138" lon="5.89046">
        <ele>461</ele>
        <time>2020-10-05T14:58:51.988Z</time>
      </trkpt>
      <trkpt lat="43.99138" lon="5.89046">
        <ele>462</ele>
        <time>2020-10-05T14:58:52.988Z</time>
      </trkpt>
      <trkpt lat="43.99138" lon="5.89046">
        <ele>462</ele>
        <time>2020-10-05T14:58:53.988Z</time>
      </trkpt>
      <trkpt lat="43.99138" lon="5.89047">
        <ele>462</ele>
        <time>2020-10-05T14:58:54.988Z</time>
      </trkpt>
      <trkpt lat="43.99138" lon="5.89047">
        <ele>462</ele>
        <time>2020-10-05T14:58:55.988Z</time>
      </trkpt>
      <trkpt lat="43.99138" lon="5.89047">
        <ele>462</ele>
        <time>2020-10-05T14:58:56.988Z</time>
      </trkpt>
      <trkpt lat="43.99138" lon="5.89047">
        <ele>462</ele>
        <time>2020-10-05T14:58:57.988Z</time>
      </trkpt>
      <trkpt lat="43.99139" lon="5.89047">
        <ele>462</ele>
        <time>2020-10-05T14:58:58.988Z</time>
      </trkpt>
      <trkpt lat="43.99139" lon="5.89048">
        <ele>462</ele>
        <time>2020-10-05T14:58:59.988Z</time>
      </trkpt>
      <trkpt lat="43.9914" lon="5.89049">
        <ele>462</ele>
        <time>2020-10-05T14:59:00.988Z</time>
      </trkpt>
      <trkpt lat="43.99141" lon="5.89049">
        <ele>462</ele>
        <time>2020-10-05T14:59:01.988Z</time>
      </trkpt>
      <trkpt lat="43.99142" lon="5.8905">
        <ele>462</ele>
        <time>2020-10-05T14:59:02.988Z</time>
      </trkpt>
      <trkpt lat="43.99143" lon="5.89051">
        <ele>462</ele>
        <time>2020-10-05T14:59:03.988Z</time>
      </trkpt>
      <trkpt lat="43.99144" lon="5.89052">
        <ele>462</ele>
        <time>2020-10-05T14:59:04.988Z</time>
      </trkpt>
      <trkpt lat="43.99145" lon="5.89052">
        <ele>463</ele>
        <time>2020-10-05T14:59:05.988Z</time>
      </trkpt>
      <trkpt lat="43.99146" lon="5.89053">
        <ele>463</ele>
        <time>2020-10-05T14:59:06.988Z</time>
      </trkpt>
      <trkpt lat="43.99147" lon="5.89054">
        <ele>463</ele>
        <time>2020-10-05T14:59:07.988Z</time>
      </trkpt>
      <trkpt lat="43.99148" lon="5.89054">
        <ele>463</ele>
        <time>2020-10-05T14:59:08.988Z</time>
      </trkpt>
      <trkpt lat="43.99149" lon="5.89055">
        <ele>463</ele>
        <time>2020-10-05T14:59:09.988Z</time>
      </trkpt>
      <trkpt lat="43.9915" lon="5.89056">
        <ele>463</ele>
        <time>2020-10-05T14:59:10.988Z</time>
      </trkpt>
      <trkpt lat="43.99151" lon="5.89056">
        <ele>463</ele>
        <time>2020-10-05T14:59:11.988Z</time>
      </trkpt>
      <trkpt lat="43.99152" lon="5.89057">
        <ele>463</ele>
        <time>2020-10-05T14:59:12.988Z</time>
      </trkpt>
      <trkpt lat="43.99153" lon="5.89057">
        <ele>463</ele>
        <time>2020-10-05T14:59:13.988Z</time>
      </trkpt>
      <trkpt lat="43.99154" lon="5.89058">
        <ele>463</ele>
        <time>2020-10-05T14:59:14.988Z</time>
      </trkpt>
      <trkpt lat="43.99155" lon="5.89059">
        <ele>463</ele>
        <time>2020-10-05T14:59:15.988Z</time>
      </trkpt>
      <trkpt lat="43.99156" lon="5.89059">
        <ele>463</ele>
        <time>2020-10-05T14:59:16.988Z</time>
      </trkpt>
      <trkpt lat="43.99157" lon="5.89059">
        <ele>463</ele>
        <time>2020-10-05T14:59:17.988Z</time>
      </trkpt>
      <trkpt lat="43.99158" lon="5.8906">
        <ele>463</ele>
        <time>2020-10-05T14:59:18.988Z</time>
      </trkpt>
      <trkpt lat="43.99159" lon="5.8906">
        <ele>463</ele>
        <time>2020-10-05T14:59:19.988Z</time>
      </trkpt>
      <trkpt lat="43.9916" lon="5.8906">
        <ele>463</ele>
        <time>2020-10-05T14:59:20.988Z</time>
      </trkpt>
      <trkpt lat="43.99161" lon="5.8906">
        <ele>463</ele>
        <time>2020-10-05T14:59:21.988Z</time>
      </trkpt>
      <trkpt lat="43.99162" lon="5.8906">
        <ele>464</ele>
        <time>2020-10-05T14:59:22.988Z</time>
      </trkpt>
      <trkpt lat="43.99163" lon="5.8906">
        <ele>464</ele>
        <time>2020-10-05T14:59:23.988Z</time>
      </trkpt>
      <trkpt lat="43.99164" lon="5.89059">
        <ele>464</ele>
        <time>2020-10-05T14:59:24.988Z</time>
      </trkpt>
      <trkpt lat="43.99165" lon="5.89059">
        <ele>464</ele>
        <time>2020-10-05T14:59:25.988Z</time>
      </trkpt>
      <trkpt lat="43.99166" lon="5.89059">
        <ele>464</ele>
        <time>2020-10-05T14:59:26.988Z</time>
      </trkpt>
      <trkpt lat="43.99167" lon="5.89059">
        <ele>464</ele>
        <time>2020-10-05T14:59:27.988Z</time>
      </trkpt>
      <trkpt lat="43.99168" lon="5.89059">
        <ele>465</ele>
        <time>2020-10-05T14:59:28.988Z</time>
      </trkpt>
      <trkpt lat="43.99169" lon="5.89059">
        <ele>465</ele>
        <time>2020-10-05T14:59:29.988Z</time>
      </trkpt>
      <trkpt lat="43.9917" lon="5.89059">
        <ele>465</ele>
        <time>2020-10-05T14:59:30.988Z</time>
      </trkpt>
      <trkpt lat="43.99171" lon="5.89058">
        <ele>465</ele>
        <time>2020-10-05T14:59:31.988Z</time>
      </trkpt>
      <trkpt lat="43.99172" lon="5.89058">
        <ele>465</ele>
        <time>2020-10-05T14:59:32.988Z</time>
      </trkpt>
      <trkpt lat="43.99173" lon="5.89058">
        <ele>465</ele>
        <time>2020-10-05T14:59:33.988Z</time>
      </trkpt>
      <trkpt lat="43.99174" lon="5.89058">
        <ele>466</ele>
        <time>2020-10-05T14:59:34.988Z</time>
      </trkpt>
      <trkpt lat="43.99175" lon="5.89057">
        <ele>466</ele>
        <time>2020-10-05T14:59:35.988Z</time>
      </trkpt>
      <trkpt lat="43.99176" lon="5.89057">
        <ele>466</ele>
        <time>2020-10-05T14:59:36.988Z</time>
      </trkpt>
      <trkpt lat="43.99177" lon="5.89056">
        <ele>466</ele>
        <time>2020-10-05T14:59:37.988Z</time>
      </trkpt>
      <trkpt lat="43.99177" lon="5.89056">
        <ele>466</ele>
        <time>2020-10-05T14:59:38.988Z</time>
      </trkpt>
      <trkpt lat="43.99178" lon="5.89055">
        <ele>467</ele>
        <time>2020-10-05T14:59:39.988Z</time>
      </trkpt>
      <trkpt lat="43.99179" lon="5.89054">
        <ele>467</ele>
        <time>2020-10-05T14:59:40.988Z</time>
      </trkpt>
      <trkpt lat="43.9918" lon="5.89053">
        <ele>467</ele>
        <time>2020-10-05T14:59:41.988Z</time>
      </trkpt>
      <trkpt lat="43.99181" lon="5.89053">
        <ele>468</ele>
        <time>2020-10-05T14:59:42.988Z</time>
      </trkpt>
      <trkpt lat="43.99181" lon="5.89052">
        <ele>468</ele>
        <time>2020-10-05T14:59:43.988Z</time>
      </trkpt>
      <trkpt lat="43.99182" lon="5.89052">
        <ele>468</ele>
        <time>2020-10-05T14:59:44.988Z</time>
      </trkpt>
      <trkpt lat="43.99182" lon="5.89051">
        <ele>468</ele>
        <time>2020-10-05T14:59:45.988Z</time>
      </trkpt>
      <trkpt lat="43.99183" lon="5.8905">
        <ele>468</ele>
        <time>2020-10-05T14:59:46.988Z</time>
      </trkpt>
      <trkpt lat="43.99183" lon="5.89049">
        <ele>469</ele>
        <time>2020-10-05T14:59:47.988Z</time>
      </trkpt>
      <trkpt lat="43.99184" lon="5.89048">
        <ele>469</ele>
        <time>2020-10-05T14:59:48.988Z</time>
      </trkpt>
      <trkpt lat="43.99184" lon="5.89048">
        <ele>469</ele>
        <time>2020-10-05T14:59:49.988Z</time>
      </trkpt>
      <trkpt lat="43.99185" lon="5.89047">
        <ele>469</ele>
        <time>2020-10-05T14:59:50.988Z</time>
      </trkpt>
      <trkpt lat="43.99185" lon="5.89046">
        <ele>469</ele>
        <time>2020-10-05T14:59:51.988Z</time>
      </trkpt>
      <trkpt lat="43.99186" lon="5.89045">
        <ele>469</ele>
        <time>2020-10-05T14:59:52.988Z</time>
      </trkpt>
      <trkpt lat="43.99187" lon="5.89044">
        <ele>469</ele>
        <time>2020-10-05T14:59:53.988Z</time>
      </trkpt>
      <trkpt lat="43.99187" lon="5.89043">
        <ele>469</ele>
        <time>2020-10-05T14:59:54.988Z</time>
      </trkpt>
      <trkpt lat="43.99188" lon="5.89042">
        <ele>470</ele>
        <time>2020-10-05T14:59:55.988Z</time>
      </trkpt>
      <trkpt lat="43.99188" lon="5.89041">
        <ele>470</ele>
        <time>2020-10-05T14:59:56.988Z</time>
      </trkpt>
      <trkpt lat="43.99189" lon="5.8904">
        <ele>470</ele>
        <time>2020-10-05T14:59:57.988Z</time>
      </trkpt>
      <trkpt lat="43.99189" lon="5.89039">
        <ele>470</ele>
        <time>2020-10-05T14:59:58.988Z</time>
      </trkpt>
      <trkpt lat="43.9919" lon="5.89039">
        <ele>470</ele>
        <time>2020-10-05T14:59:59.988Z</time>
      </trkpt>
      <trkpt lat="43.9919" lon="5.89038">
        <ele>470</ele>
        <time>2020-10-05T15:00:00.988Z</time>
      </trkpt>
      <trkpt lat="43.99191" lon="5.89036">
        <ele>470</ele>
        <time>2020-10-05T15:00:01.988Z</time>
      </trkpt>
      <trkpt lat="43.99192" lon="5.89035">
        <ele>470</ele>
        <time>2020-10-05T15:00:02.988Z</time>
      </trkpt>
      <trkpt lat="43.99193" lon="5.89034">
        <ele>470</ele>
        <time>2020-10-05T15:00:03.988Z</time>
      </trkpt>
      <trkpt lat="43.99193" lon="5.89033">
        <ele>470</ele>
        <time>2020-10-05T15:00:04.988Z</time>
      </trkpt>
      <trkpt lat="43.99194" lon="5.89032">
        <ele>470</ele>
        <time>2020-10-05T15:00:05.988Z</time>
      </trkpt>
      <trkpt lat="43.99195" lon="5.89031">
        <ele>470</ele>
        <time>2020-10-05T15:00:06.988Z</time>
      </trkpt>
      <trkpt lat="43.99195" lon="5.8903">
        <ele>470</ele>
        <time>2020-10-05T15:00:07.988Z</time>
      </trkpt>
      <trkpt lat="43.99196" lon="5.89029">
        <ele>470</ele>
        <time>2020-10-05T15:00:08.988Z</time>
      </trkpt>
      <trkpt lat="43.99196" lon="5.89027">
        <ele>470</ele>
        <time>2020-10-05T15:00:09.988Z</time>
      </trkpt>
      <trkpt lat="43.99197" lon="5.89026">
        <ele>470</ele>
        <time>2020-10-05T15:00:10.988Z</time>
      </trkpt>
      <trkpt lat="43.99197" lon="5.89025">
        <ele>470</ele>
        <time>2020-10-05T15:00:11.988Z</time>
      </trkpt>
      <trkpt lat="43.99198" lon="5.89023">
        <ele>470</ele>
        <time>2020-10-05T15:00:12.988Z</time>
      </trkpt>
      <trkpt lat="43.99198" lon="5.89022">
        <ele>469</ele>
        <time>2020-10-05T15:00:13.988Z</time>
      </trkpt>
      <trkpt lat="43.99199" lon="5.89021">
        <ele>469</ele>
        <time>2020-10-05T15:00:14.988Z</time>
      </trkpt>
      <trkpt lat="43.99199" lon="5.8902">
        <ele>469</ele>
        <time>2020-10-05T15:00:15.988Z</time>
      </trkpt>
      <trkpt lat="43.992" lon="5.89019">
        <ele>469</ele>
        <time>2020-10-05T15:00:16.988Z</time>
      </trkpt>
      <trkpt lat="43.99201" lon="5.89018">
        <ele>469</ele>
        <time>2020-10-05T15:00:17.988Z</time>
      </trkpt>
      <trkpt lat="43.99201" lon="5.89017">
        <ele>469</ele>
        <time>2020-10-05T15:00:18.988Z</time>
      </trkpt>
      <trkpt lat="43.99202" lon="5.89015">
        <ele>469</ele>
        <time>2020-10-05T15:00:19.988Z</time>
      </trkpt>
      <trkpt lat="43.99202" lon="5.89014">
        <ele>469</ele>
        <time>2020-10-05T15:00:20.988Z</time>
      </trkpt>
      <trkpt lat="43.99203" lon="5.89013">
        <ele>469</ele>
        <time>2020-10-05T15:00:21.988Z</time>
      </trkpt>
      <trkpt lat="43.99203" lon="5.89012">
        <ele>469</ele>
        <time>2020-10-05T15:00:22.988Z</time>
      </trkpt>
      <trkpt lat="43.99203" lon="5.8901">
        <ele>469</ele>
        <time>2020-10-05T15:00:23.988Z</time>
      </trkpt>
      <trkpt lat="43.99203" lon="5.89009">
        <ele>469</ele>
        <time>2020-10-05T15:00:24.988Z</time>
      </trkpt>
      <trkpt lat="43.99204" lon="5.89007">
        <ele>469</ele>
        <time>2020-10-05T15:00:25.988Z</time>
      </trkpt>
      <trkpt lat="43.99204" lon="5.89006">
        <ele>469</ele>
        <time>2020-10-05T15:00:26.988Z</time>
      </trkpt>
      <trkpt lat="43.99204" lon="5.89004">
        <ele>469</ele>
        <time>2020-10-05T15:00:27.988Z</time>
      </trkpt>
      <trkpt lat="43.99205" lon="5.89003">
        <ele>468</ele>
        <time>2020-10-05T15:00:28.988Z</time>
      </trkpt>
      <trkpt lat="43.99205" lon="5.89002">
        <ele>468</ele>
        <time>2020-10-05T15:00:29.988Z</time>
      </trkpt>
      <trkpt lat="43.99205" lon="5.89">
        <ele>468</ele>
        <time>2020-10-05T15:00:30.988Z</time>
      </trkpt>
      <trkpt lat="43.99206" lon="5.88999">
        <ele>468</ele>
        <time>2020-10-05T15:00:31.988Z</time>
      </trkpt>
      <trkpt lat="43.99206" lon="5.88997">
        <ele>468</ele>
        <time>2020-10-05T15:00:32.988Z</time>
      </trkpt>
      <trkpt lat="43.99206" lon="5.88996">
        <ele>468</ele>
        <time>2020-10-05T15:00:33.988Z</time>
      </trkpt>
      <trkpt lat="43.99207" lon="5.88994">
        <ele>467</ele>
        <time>2020-10-05T15:00:34.988Z</time>
      </trkpt>
      <trkpt lat="43.99207" lon="5.88993">
        <ele>467</ele>
        <time>2020-10-05T15:00:35.988Z</time>
      </trkpt>
      <trkpt lat="43.99207" lon="5.88991">
        <ele>467</ele>
        <time>2020-10-05T15:00:36.988Z</time>
      </trkpt>
      <trkpt lat="43.99207" lon="5.8899">
        <ele>467</ele>
        <time>2020-10-05T15:00:37.988Z</time>
      </trkpt>
      <trkpt lat="43.99208" lon="5.88988">
        <ele>467</ele>
        <time>2020-10-05T15:00:38.988Z</time>
      </trkpt>
      <trkpt lat="43.99208" lon="5.88987">
        <ele>467</ele>
        <time>2020-10-05T15:00:39.988Z</time>
      </trkpt>
      <trkpt lat="43.99208" lon="5.88985">
        <ele>467</ele>
        <time>2020-10-05T15:00:40.988Z</time>
      </trkpt>
      <trkpt lat="43.99208" lon="5.88984">
        <ele>466</ele>
        <time>2020-10-05T15:00:41.988Z</time>
      </trkpt>
      <trkpt lat="43.99208" lon="5.88983">
        <ele>466</ele>
        <time>2020-10-05T15:00:42.988Z</time>
      </trkpt>
      <trkpt lat="43.99208" lon="5.88981">
        <ele>466</ele>
        <time>2020-10-05T15:00:43.988Z</time>
      </trkpt>
      <trkpt lat="43.99209" lon="5.8898">
        <ele>466</ele>
        <time>2020-10-05T15:00:44.988Z</time>
      </trkpt>
      <trkpt lat="43.99209" lon="5.88978">
        <ele>466</ele>
        <time>2020-10-05T15:00:45.988Z</time>
      </trkpt>
      <trkpt lat="43.99209" lon="5.88977">
        <ele>466</ele>
        <time>2020-10-05T15:00:46.988Z</time>
      </trkpt>
      <trkpt lat="43.99209" lon="5.88976">
        <ele>466</ele>
        <time>2020-10-05T15:00:47.988Z</time>
      </trkpt>
      <trkpt lat="43.9921" lon="5.88975">
        <ele>466</ele>
        <time>2020-10-05T15:00:48.988Z</time>
      </trkpt>
      <trkpt lat="43.9921" lon="5.88973">
        <ele>466</ele>
        <time>2020-10-05T15:00:49.988Z</time>
      </trkpt>
      <trkpt lat="43.9921" lon="5.88972">
        <ele>466</ele>
        <time>2020-10-05T15:00:50.988Z</time>
      </trkpt>
      <trkpt lat="43.9921" lon="5.8897">
        <ele>466</ele>
        <time>2020-10-05T15:00:51.988Z</time>
      </trkpt>
      <trkpt lat="43.9921" lon="5.88969">
        <ele>466</ele>
        <time>2020-10-05T15:00:52.988Z</time>
      </trkpt>
      <trkpt lat="43.9921" lon="5.88968">
        <ele>466</ele>
        <time>2020-10-05T15:00:53.988Z</time>
      </trkpt>
      <trkpt lat="43.99211" lon="5.88968">
        <ele>465</ele>
        <time>2020-10-05T15:00:54.988Z</time>
      </trkpt>
      <trkpt lat="43.99211" lon="5.88968">
        <ele>465</ele>
        <time>2020-10-05T15:00:55.988Z</time>
      </trkpt>
      <trkpt lat="43.99211" lon="5.88968">
        <ele>465</ele>
        <time>2020-10-05T15:00:56.988Z</time>
      </trkpt>
      <trkpt lat="43.99211" lon="5.88968">
        <ele>465</ele>
        <time>2020-10-05T15:00:57.988Z</time>
      </trkpt>
      <trkpt lat="43.99211" lon="5.88968">
        <ele>465</ele>
        <time>2020-10-05T15:00:58.988Z</time>
      </trkpt>
      <trkpt lat="43.99211" lon="5.88968">
        <ele>465</ele>
        <time>2020-10-05T15:00:59.988Z</time>
      </trkpt>
      <trkpt lat="43.99211" lon="5.88968">
        <ele>465</ele>
        <time>2020-10-05T15:01:00.988Z</time>
      </trkpt>
      <trkpt lat="43.99211" lon="5.88968">
        <ele>465</ele>
        <time>2020-10-05T15:01:01.988Z</time>
      </trkpt>
      <trkpt lat="43.99212" lon="5.88968">
        <ele>465</ele>
        <time>2020-10-05T15:01:02.988Z</time>
      </trkpt>
      <trkpt lat="43.99212" lon="5.88968">
        <ele>465</ele>
        <time>2020-10-05T15:01:03.988Z</time>
      </trkpt>
      <trkpt lat="43.99212" lon="5.88967">
        <ele>465</ele>
        <time>2020-10-05T15:01:04.988Z</time>
      </trkpt>
      <trkpt lat="43.99212" lon="5.88967">
        <ele>464</ele>
        <time>2020-10-05T15:01:05.988Z</time>
      </trkpt>
      <trkpt lat="43.99212" lon="5.88966">
        <ele>464</ele>
        <time>2020-10-05T15:01:06.988Z</time>
      </trkpt>
      <trkpt lat="43.99211" lon="5.88965">
        <ele>464</ele>
        <time>2020-10-05T15:01:07.988Z</time>
      </trkpt>
      <trkpt lat="43.99211" lon="5.88964">
        <ele>464</ele>
        <time>2020-10-05T15:01:08.988Z</time>
      </trkpt>
      <trkpt lat="43.99211" lon="5.88963">
        <ele>464</ele>
        <time>2020-10-05T15:01:09.988Z</time>
      </trkpt>
      <trkpt lat="43.99211" lon="5.88962">
        <ele>464</ele>
        <time>2020-10-05T15:01:10.988Z</time>
      </trkpt>
      <trkpt lat="43.99211" lon="5.88961">
        <ele>464</ele>
        <time>2020-10-05T15:01:11.988Z</time>
      </trkpt>
      <trkpt lat="43.99211" lon="5.88959">
        <ele>463</ele>
        <time>2020-10-05T15:01:12.988Z</time>
      </trkpt>
      <trkpt lat="43.99212" lon="5.88958">
        <ele>463</ele>
        <time>2020-10-05T15:01:13.988Z</time>
      </trkpt>
      <trkpt lat="43.99212" lon="5.88957">
        <ele>463</ele>
        <time>2020-10-05T15:01:14.988Z</time>
      </trkpt>
      <trkpt lat="43.99212" lon="5.88956">
        <ele>463</ele>
        <time>2020-10-05T15:01:15.988Z</time>
      </trkpt>
      <trkpt lat="43.99212" lon="5.88955">
        <ele>463</ele>
        <time>2020-10-05T15:01:16.988Z</time>
      </trkpt>
      <trkpt lat="43.99213" lon="5.88954">
        <ele>463</ele>
        <time>2020-10-05T15:01:17.988Z</time>
      </trkpt>
      <trkpt lat="43.99213" lon="5.88953">
        <ele>463</ele>
        <time>2020-10-05T15:01:18.988Z</time>
      </trkpt>
      <trkpt lat="43.99213" lon="5.88951">
        <ele>463</ele>
        <time>2020-10-05T15:01:19.988Z</time>
      </trkpt>
      <trkpt lat="43.99213" lon="5.8895">
        <ele>463</ele>
        <time>2020-10-05T15:01:20.988Z</time>
      </trkpt>
      <trkpt lat="43.99213" lon="5.88948">
        <ele>463</ele>
        <time>2020-10-05T15:01:21.988Z</time>
      </trkpt>
      <trkpt lat="43.99213" lon="5.88947">
        <ele>462</ele>
        <time>2020-10-05T15:01:22.988Z</time>
      </trkpt>
      <trkpt lat="43.99214" lon="5.88946">
        <ele>462</ele>
        <time>2020-10-05T15:01:23.988Z</time>
      </trkpt>
      <trkpt lat="43.99214" lon="5.88944">
        <ele>462</ele>
        <time>2020-10-05T15:01:24.988Z</time>
      </trkpt>
      <trkpt lat="43.99213" lon="5.88943">
        <ele>462</ele>
        <time>2020-10-05T15:01:25.988Z</time>
      </trkpt>
      <trkpt lat="43.99213" lon="5.88941">
        <ele>462</ele>
        <time>2020-10-05T15:01:26.988Z</time>
      </trkpt>
      <trkpt lat="43.99213" lon="5.8894">
        <ele>462</ele>
        <time>2020-10-05T15:01:27.988Z</time>
      </trkpt>
      <trkpt lat="43.99213" lon="5.88939">
        <ele>462</ele>
        <time>2020-10-05T15:01:28.988Z</time>
      </trkpt>
      <trkpt lat="43.99213" lon="5.88938">
        <ele>462</ele>
        <time>2020-10-05T15:01:29.988Z</time>
      </trkpt>
      <trkpt lat="43.99212" lon="5.88937">
        <ele>462</ele>
        <time>2020-10-05T15:01:30.988Z</time>
      </trkpt>
      <trkpt lat="43.99212" lon="5.88936">
        <ele>462</ele>
        <time>2020-10-05T15:01:31.988Z</time>
      </trkpt>
      <trkpt lat="43.99212" lon="5.88935">
        <ele>462</ele>
        <time>2020-10-05T15:01:32.988Z</time>
      </trkpt>
      <trkpt lat="43.99212" lon="5.88933">
        <ele>462</ele>
        <time>2020-10-05T15:01:33.988Z</time>
      </trkpt>
      <trkpt lat="43.99211" lon="5.88932">
        <ele>462</ele>
        <time>2020-10-05T15:01:34.988Z</time>
      </trkpt>
      <trkpt lat="43.99211" lon="5.88932">
        <ele>462</ele>
        <time>2020-10-05T15:01:35.988Z</time>
      </trkpt>
      <trkpt lat="43.9921" lon="5.88931">
        <ele>462</ele>
        <time>2020-10-05T15:01:36.988Z</time>
      </trkpt>
      <trkpt lat="43.9921" lon="5.8893">
        <ele>462</ele>
        <time>2020-10-05T15:01:37.988Z</time>
      </trkpt>
      <trkpt lat="43.99209" lon="5.88929">
        <ele>462</ele>
        <time>2020-10-05T15:01:38.988Z</time>
      </trkpt>
      <trkpt lat="43.99209" lon="5.88928">
        <ele>462</ele>
        <time>2020-10-05T15:01:39.988Z</time>
      </trkpt>
      <trkpt lat="43.99209" lon="5.88927">
        <ele>462</ele>
        <time>2020-10-05T15:01:40.988Z</time>
      </trkpt>
      <trkpt lat="43.99209" lon="5.88927">
        <ele>462</ele>
        <time>2020-10-05T15:01:41.988Z</time>
      </trkpt>
      <trkpt lat="43.99208" lon="5.88926">
        <ele>462</ele>
        <time>2020-10-05T15:01:42.988Z</time>
      </trkpt>
      <trkpt lat="43.99208" lon="5.88925">
        <ele>462</ele>
        <time>2020-10-05T15:01:43.988Z</time>
      </trkpt>
      <trkpt lat="43.99207" lon="5.88925">
        <ele>462</ele>
        <time>2020-10-05T15:01:44.988Z</time>
      </trkpt>
      <trkpt lat="43.99207" lon="5.88925">
        <ele>462</ele>
        <time>2020-10-05T15:01:45.988Z</time>
      </trkpt>
      <trkpt lat="43.99207" lon="5.88924">
        <ele>462</ele>
        <time>2020-10-05T15:01:46.988Z</time>
      </trkpt>
      <trkpt lat="43.99207" lon="5.88924">
        <ele>462</ele>
        <time>2020-10-05T15:01:47.988Z</time>
      </trkpt>
      <trkpt lat="43.99207" lon="5.88923">
        <ele>462</ele>
        <time>2020-10-05T15:01:48.988Z</time>
      </trkpt>
      <trkpt lat="43.99206" lon="5.88923">
        <ele>462</ele>
        <time>2020-10-05T15:01:49.988Z</time>
      </trkpt>
      <trkpt lat="43.99206" lon="5.88922">
        <ele>462</ele>
        <time>2020-10-05T15:01:50.988Z</time>
      </trkpt>
      <trkpt lat="43.99206" lon="5.88921">
        <ele>463</ele>
        <time>2020-10-05T15:01:51.988Z</time>
      </trkpt>
      <trkpt lat="43.99206" lon="5.8892">
        <ele>463</ele>
        <time>2020-10-05T15:01:52.988Z</time>
      </trkpt>
      <trkpt lat="43.99205" lon="5.88919">
        <ele>463</ele>
        <time>2020-10-05T15:01:53.988Z</time>
      </trkpt>
      <trkpt lat="43.99205" lon="5.88919">
        <ele>463</ele>
        <time>2020-10-05T15:01:54.988Z</time>
      </trkpt>
      <trkpt lat="43.99204" lon="5.88918">
        <ele>463</ele>
        <time>2020-10-05T15:01:55.988Z</time>
      </trkpt>
      <trkpt lat="43.99204" lon="5.88917">
        <ele>463</ele>
        <time>2020-10-05T15:01:56.988Z</time>
      </trkpt>
      <trkpt lat="43.99204" lon="5.88916">
        <ele>463</ele>
        <time>2020-10-05T15:01:57.988Z</time>
      </trkpt>
      <trkpt lat="43.99203" lon="5.88915">
        <ele>463</ele>
        <time>2020-10-05T15:01:58.988Z</time>
      </trkpt>
      <trkpt lat="43.99203" lon="5.88914">
        <ele>463</ele>
        <time>2020-10-05T15:01:59.988Z</time>
      </trkpt>
      <trkpt lat="43.99202" lon="5.88913">
        <ele>463</ele>
        <time>2020-10-05T15:02:00.988Z</time>
      </trkpt>
      <trkpt lat="43.99202" lon="5.88912">
        <ele>463</ele>
        <time>2020-10-05T15:02:01.988Z</time>
      </trkpt>
      <trkpt lat="43.99201" lon="5.88911">
        <ele>463</ele>
        <time>2020-10-05T15:02:02.988Z</time>
      </trkpt>
      <trkpt lat="43.99201" lon="5.8891">
        <ele>463</ele>
        <time>2020-10-05T15:02:03.988Z</time>
      </trkpt>
      <trkpt lat="43.992" lon="5.88909">
        <ele>463</ele>
        <time>2020-10-05T15:02:04.988Z</time>
      </trkpt>
      <trkpt lat="43.992" lon="5.88908">
        <ele>463</ele>
        <time>2020-10-05T15:02:05.988Z</time>
      </trkpt>
      <trkpt lat="43.99199" lon="5.88907">
        <ele>463</ele>
        <time>2020-10-05T15:02:06.988Z</time>
      </trkpt>
      <trkpt lat="43.99199" lon="5.88906">
        <ele>463</ele>
        <time>2020-10-05T15:02:07.988Z</time>
      </trkpt>
      <trkpt lat="43.99198" lon="5.88905">
        <ele>463</ele>
        <time>2020-10-05T15:02:08.988Z</time>
      </trkpt>
      <trkpt lat="43.99198" lon="5.88903">
        <ele>463</ele>
        <time>2020-10-05T15:02:09.988Z</time>
      </trkpt>
      <trkpt lat="43.99198" lon="5.88902">
        <ele>463</ele>
        <time>2020-10-05T15:02:10.988Z</time>
      </trkpt>
      <trkpt lat="43.99197" lon="5.88901">
        <ele>463</ele>
        <time>2020-10-05T15:02:11.988Z</time>
      </trkpt>
      <trkpt lat="43.99197" lon="5.88901">
        <ele>463</ele>
        <time>2020-10-05T15:02:12.988Z</time>
      </trkpt>
      <trkpt lat="43.99196" lon="5.889">
        <ele>463</ele>
        <time>2020-10-05T15:02:13.988Z</time>
      </trkpt>
      <trkpt lat="43.99195" lon="5.88899">
        <ele>463</ele>
        <time>2020-10-05T15:02:14.988Z</time>
      </trkpt>
      <trkpt lat="43.99195" lon="5.88898">
        <ele>463</ele>
        <time>2020-10-05T15:02:15.988Z</time>
      </trkpt>
      <trkpt lat="43.99194" lon="5.88897">
        <ele>463</ele>
        <time>2020-10-05T15:02:16.988Z</time>
      </trkpt>
      <trkpt lat="43.99193" lon="5.88896">
        <ele>463</ele>
        <time>2020-10-05T15:02:17.988Z</time>
      </trkpt>
      <trkpt lat="43.99193" lon="5.88896">
        <ele>463</ele>
        <time>2020-10-05T15:02:18.988Z</time>
      </trkpt>
      <trkpt lat="43.99192" lon="5.88895">
        <ele>464</ele>
        <time>2020-10-05T15:02:19.988Z</time>
      </trkpt>
      <trkpt lat="43.99191" lon="5.88893">
        <ele>464</ele>
        <time>2020-10-05T15:02:20.988Z</time>
      </trkpt>
      <trkpt lat="43.99191" lon="5.88892">
        <ele>464</ele>
        <time>2020-10-05T15:02:21.988Z</time>
      </trkpt>
      <trkpt lat="43.9919" lon="5.88891">
        <ele>464</ele>
        <time>2020-10-05T15:02:22.988Z</time>
      </trkpt>
      <trkpt lat="43.9919" lon="5.8889">
        <ele>464</ele>
        <time>2020-10-05T15:02:23.988Z</time>
      </trkpt>
      <trkpt lat="43.99189" lon="5.88889">
        <ele>464</ele>
        <time>2020-10-05T15:02:24.988Z</time>
      </trkpt>
      <trkpt lat="43.99189" lon="5.88888">
        <ele>464</ele>
        <time>2020-10-05T15:02:25.988Z</time>
      </trkpt>
      <trkpt lat="43.99189" lon="5.88887">
        <ele>464</ele>
        <time>2020-10-05T15:02:26.988Z</time>
      </trkpt>
      <trkpt lat="43.99188" lon="5.88886">
        <ele>465</ele>
        <time>2020-10-05T15:02:27.988Z</time>
      </trkpt>
      <trkpt lat="43.99187" lon="5.88885">
        <ele>465</ele>
        <time>2020-10-05T15:02:28.988Z</time>
      </trkpt>
      <trkpt lat="43.99187" lon="5.88885">
        <ele>465</ele>
        <time>2020-10-05T15:02:29.988Z</time>
      </trkpt>
      <trkpt lat="43.99186" lon="5.88884">
        <ele>465</ele>
        <time>2020-10-05T15:02:30.988Z</time>
      </trkpt>
      <trkpt lat="43.99186" lon="5.88883">
        <ele>465</ele>
        <time>2020-10-05T15:02:31.988Z</time>
      </trkpt>
      <trkpt lat="43.99185" lon="5.88882">
        <ele>465</ele>
        <time>2020-10-05T15:02:32.988Z</time>
      </trkpt>
      <trkpt lat="43.99185" lon="5.88881">
        <ele>465</ele>
        <time>2020-10-05T15:02:33.988Z</time>
      </trkpt>
      <trkpt lat="43.99185" lon="5.8888">
        <ele>465</ele>
        <time>2020-10-05T15:02:34.988Z</time>
      </trkpt>
      <trkpt lat="43.99185" lon="5.88878">
        <ele>465</ele>
        <time>2020-10-05T15:02:35.988Z</time>
      </trkpt>
      <trkpt lat="43.99184" lon="5.88878">
        <ele>465</ele>
        <time>2020-10-05T15:02:36.988Z</time>
      </trkpt>
      <trkpt lat="43.99184" lon="5.88876">
        <ele>466</ele>
        <time>2020-10-05T15:02:37.988Z</time>
      </trkpt>
      <trkpt lat="43.99184" lon="5.88875">
        <ele>466</ele>
        <time>2020-10-05T15:02:38.988Z</time>
      </trkpt>
      <trkpt lat="43.99184" lon="5.88874">
        <ele>466</ele>
        <time>2020-10-05T15:02:39.988Z</time>
      </trkpt>
      <trkpt lat="43.99183" lon="5.88873">
        <ele>466</ele>
        <time>2020-10-05T15:02:40.988Z</time>
      </trkpt>
      <trkpt lat="43.99183" lon="5.88872">
        <ele>466</ele>
        <time>2020-10-05T15:02:41.988Z</time>
      </trkpt>
      <trkpt lat="43.99183" lon="5.88871">
        <ele>466</ele>
        <time>2020-10-05T15:02:42.988Z</time>
      </trkpt>
      <trkpt lat="43.99182" lon="5.88869">
        <ele>466</ele>
        <time>2020-10-05T15:02:43.988Z</time>
      </trkpt>
      <trkpt lat="43.99182" lon="5.88868">
        <ele>466</ele>
        <time>2020-10-05T15:02:44.988Z</time>
      </trkpt>
      <trkpt lat="43.99182" lon="5.88867">
        <ele>466</ele>
        <time>2020-10-05T15:02:45.988Z</time>
      </trkpt>
      <trkpt lat="43.99181" lon="5.88865">
        <ele>466</ele>
        <time>2020-10-05T15:02:46.988Z</time>
      </trkpt>
      <trkpt lat="43.99182" lon="5.88864">
        <ele>466</ele>
        <time>2020-10-05T15:02:47.988Z</time>
      </trkpt>
      <trkpt lat="43.99182" lon="5.88863">
        <ele>466</ele>
        <time>2020-10-05T15:02:48.988Z</time>
      </trkpt>
      <trkpt lat="43.99182" lon="5.88863">
        <ele>466</ele>
        <time>2020-10-05T15:02:49.988Z</time>
      </trkpt>
      <trkpt lat="43.99182" lon="5.88863">
        <ele>466</ele>
        <time>2020-10-05T15:02:50.988Z</time>
      </trkpt>
      <trkpt lat="43.99182" lon="5.88863">
        <ele>466</ele>
        <time>2020-10-05T15:02:51.988Z</time>
      </trkpt>
      <trkpt lat="43.99181" lon="5.88863">
        <ele>466</ele>
        <time>2020-10-05T15:02:52.988Z</time>
      </trkpt>
      <trkpt lat="43.99181" lon="5.88863">
        <ele>467</ele>
        <time>2020-10-05T15:02:53.988Z</time>
      </trkpt>
      <trkpt lat="43.99181" lon="5.88863">
        <ele>467</ele>
        <time>2020-10-05T15:02:54.988Z</time>
      </trkpt>
      <trkpt lat="43.99181" lon="5.88863">
        <ele>467</ele>
        <time>2020-10-05T15:02:55.988Z</time>
      </trkpt>
      <trkpt lat="43.99181" lon="5.88862">
        <ele>467</ele>
        <time>2020-10-05T15:02:56.988Z</time>
      </trkpt>
      <trkpt lat="43.99182" lon="5.88862">
        <ele>467</ele>
        <time>2020-10-05T15:02:57.988Z</time>
      </trkpt>
      <trkpt lat="43.99182" lon="5.88862">
        <ele>467</ele>
        <time>2020-10-05T15:02:58.988Z</time>
      </trkpt>
      <trkpt lat="43.99182" lon="5.88862">
        <ele>467</ele>
        <time>2020-10-05T15:02:59.988Z</time>
      </trkpt>
      <trkpt lat="43.99182" lon="5.88862">
        <ele>467</ele>
        <time>2020-10-05T15:03:00.988Z</time>
      </trkpt>
      <trkpt lat="43.99182" lon="5.88862">
        <ele>467</ele>
        <time>2020-10-05T15:03:01.988Z</time>
      </trkpt>
      <trkpt lat="43.99182" lon="5.88862">
        <ele>467</ele>
        <time>2020-10-05T15:03:02.988Z</time>
      </trkpt>
      <trkpt lat="43.99182" lon="5.88861">
        <ele>467</ele>
        <time>2020-10-05T15:03:03.988Z</time>
      </trkpt>
      <trkpt lat="43.99182" lon="5.88861">
        <ele>467</ele>
        <time>2020-10-05T15:03:04.988Z</time>
      </trkpt>
      <trkpt lat="43.99182" lon="5.88861">
        <ele>467</ele>
        <time>2020-10-05T15:03:05.988Z</time>
      </trkpt>
      <trkpt lat="43.99182" lon="5.8886">
        <ele>467</ele>
        <time>2020-10-05T15:03:06.988Z</time>
      </trkpt>
      <trkpt lat="43.99181" lon="5.88859">
        <ele>467</ele>
        <time>2020-10-05T15:03:07.988Z</time>
      </trkpt>
      <trkpt lat="43.99181" lon="5.88858">
        <ele>467</ele>
        <time>2020-10-05T15:03:08.988Z</time>
      </trkpt>
      <trkpt lat="43.99181" lon="5.88857">
        <ele>467</ele>
        <time>2020-10-05T15:03:09.988Z</time>
      </trkpt>
      <trkpt lat="43.99181" lon="5.88855">
        <ele>467</ele>
        <time>2020-10-05T15:03:10.988Z</time>
      </trkpt>
      <trkpt lat="43.99181" lon="5.88854">
        <ele>467</ele>
        <time>2020-10-05T15:03:11.988Z</time>
      </trkpt>
      <trkpt lat="43.99181" lon="5.88853">
        <ele>467</ele>
        <time>2020-10-05T15:03:12.988Z</time>
      </trkpt>
      <trkpt lat="43.99181" lon="5.88852">
        <ele>467</ele>
        <time>2020-10-05T15:03:13.988Z</time>
      </trkpt>
      <trkpt lat="43.99182" lon="5.88851">
        <ele>467</ele>
        <time>2020-10-05T15:03:14.988Z</time>
      </trkpt>
      <trkpt lat="43.99182" lon="5.8885">
        <ele>467</ele>
        <time>2020-10-05T15:03:15.988Z</time>
      </trkpt>
      <trkpt lat="43.99182" lon="5.88849">
        <ele>467</ele>
        <time>2020-10-05T15:03:16.988Z</time>
      </trkpt>
      <trkpt lat="43.99182" lon="5.88848">
        <ele>467</ele>
        <time>2020-10-05T15:03:17.988Z</time>
      </trkpt>
      <trkpt lat="43.99182" lon="5.88847">
        <ele>467</ele>
        <time>2020-10-05T15:03:18.988Z</time>
      </trkpt>
      <trkpt lat="43.99182" lon="5.88846">
        <ele>467</ele>
        <time>2020-10-05T15:03:19.988Z</time>
      </trkpt>
      <trkpt lat="43.99182" lon="5.88845">
        <ele>467</ele>
        <time>2020-10-05T15:03:20.988Z</time>
      </trkpt>
      <trkpt lat="43.99181" lon="5.88844">
        <ele>468</ele>
        <time>2020-10-05T15:03:21.988Z</time>
      </trkpt>
      <trkpt lat="43.99181" lon="5.88843">
        <ele>468</ele>
        <time>2020-10-05T15:03:22.988Z</time>
      </trkpt>
      <trkpt lat="43.99181" lon="5.88843">
        <ele>468</ele>
        <time>2020-10-05T15:03:23.988Z</time>
      </trkpt>
      <trkpt lat="43.99181" lon="5.88842">
        <ele>468</ele>
        <time>2020-10-05T15:03:24.988Z</time>
      </trkpt>
      <trkpt lat="43.99181" lon="5.88841">
        <ele>468</ele>
        <time>2020-10-05T15:03:25.988Z</time>
      </trkpt>
      <trkpt lat="43.9918" lon="5.8884">
        <ele>468</ele>
        <time>2020-10-05T15:03:26.988Z</time>
      </trkpt>
      <trkpt lat="43.9918" lon="5.88839">
        <ele>468</ele>
        <time>2020-10-05T15:03:27.988Z</time>
      </trkpt>
      <trkpt lat="43.9918" lon="5.88838">
        <ele>468</ele>
        <time>2020-10-05T15:03:28.988Z</time>
      </trkpt>
      <trkpt lat="43.9918" lon="5.88838">
        <ele>468</ele>
        <time>2020-10-05T15:03:29.988Z</time>
      </trkpt>
      <trkpt lat="43.9918" lon="5.88837">
        <ele>468</ele>
        <time>2020-10-05T15:03:30.988Z</time>
      </trkpt>
      <trkpt lat="43.9918" lon="5.88836">
        <ele>468</ele>
        <time>2020-10-05T15:03:31.988Z</time>
      </trkpt>
      <trkpt lat="43.9918" lon="5.88834">
        <ele>468</ele>
        <time>2020-10-05T15:03:32.988Z</time>
      </trkpt>
      <trkpt lat="43.9918" lon="5.88833">
        <ele>468</ele>
        <time>2020-10-05T15:03:33.988Z</time>
      </trkpt>
      <trkpt lat="43.9918" lon="5.88832">
        <ele>468</ele>
        <time>2020-10-05T15:03:34.988Z</time>
      </trkpt>
      <trkpt lat="43.9918" lon="5.88831">
        <ele>468</ele>
        <time>2020-10-05T15:03:35.988Z</time>
      </trkpt>
      <trkpt lat="43.9918" lon="5.8883">
        <ele>468</ele>
        <time>2020-10-05T15:03:36.988Z</time>
      </trkpt>
      <trkpt lat="43.99179" lon="5.88829">
        <ele>468</ele>
        <time>2020-10-05T15:03:37.988Z</time>
      </trkpt>
      <trkpt lat="43.99179" lon="5.88828">
        <ele>468</ele>
        <time>2020-10-05T15:03:38.988Z</time>
      </trkpt>
      <trkpt lat="43.99179" lon="5.88827">
        <ele>468</ele>
        <time>2020-10-05T15:03:39.988Z</time>
      </trkpt>
      <trkpt lat="43.99179" lon="5.88826">
        <ele>468</ele>
        <time>2020-10-05T15:03:40.988Z</time>
      </trkpt>
      <trkpt lat="43.99178" lon="5.88826">
        <ele>468</ele>
        <time>2020-10-05T15:03:41.988Z</time>
      </trkpt>
      <trkpt lat="43.99178" lon="5.88825">
        <ele>469</ele>
        <time>2020-10-05T15:03:42.988Z</time>
      </trkpt>
      <trkpt lat="43.99178" lon="5.88823">
        <ele>469</ele>
        <time>2020-10-05T15:03:43.988Z</time>
      </trkpt>
      <trkpt lat="43.99178" lon="5.88822">
        <ele>469</ele>
        <time>2020-10-05T15:03:44.988Z</time>
      </trkpt>
      <trkpt lat="43.99177" lon="5.88821">
        <ele>469</ele>
        <time>2020-10-05T15:03:45.988Z</time>
      </trkpt>
      <trkpt lat="43.99177" lon="5.88821">
        <ele>469</ele>
        <time>2020-10-05T15:03:46.988Z</time>
      </trkpt>
      <trkpt lat="43.99177" lon="5.8882">
        <ele>469</ele>
        <time>2020-10-05T15:03:47.988Z</time>
      </trkpt>
      <trkpt lat="43.99177" lon="5.88819">
        <ele>469</ele>
        <time>2020-10-05T15:03:48.988Z</time>
      </trkpt>
      <trkpt lat="43.99177" lon="5.88818">
        <ele>469</ele>
        <time>2020-10-05T15:03:49.988Z</time>
      </trkpt>
      <trkpt lat="43.99177" lon="5.88817">
        <ele>469</ele>
        <time>2020-10-05T15:03:50.988Z</time>
      </trkpt>
      <trkpt lat="43.99177" lon="5.88815">
        <ele>469</ele>
        <time>2020-10-05T15:03:51.988Z</time>
      </trkpt>
      <trkpt lat="43.99177" lon="5.88814">
        <ele>469</ele>
        <time>2020-10-05T15:03:52.988Z</time>
      </trkpt>
      <trkpt lat="43.99177" lon="5.88813">
        <ele>470</ele>
        <time>2020-10-05T15:03:53.988Z</time>
      </trkpt>
      <trkpt lat="43.99177" lon="5.88812">
        <ele>470</ele>
        <time>2020-10-05T15:03:54.988Z</time>
      </trkpt>
      <trkpt lat="43.99176" lon="5.88811">
        <ele>470</ele>
        <time>2020-10-05T15:03:55.988Z</time>
      </trkpt>
      <trkpt lat="43.99176" lon="5.8881">
        <ele>470</ele>
        <time>2020-10-05T15:03:56.988Z</time>
      </trkpt>
      <trkpt lat="43.99175" lon="5.88809">
        <ele>470</ele>
        <time>2020-10-05T15:03:57.988Z</time>
      </trkpt>
      <trkpt lat="43.99174" lon="5.88808">
        <ele>471</ele>
        <time>2020-10-05T15:03:58.988Z</time>
      </trkpt>
      <trkpt lat="43.99174" lon="5.88807">
        <ele>471</ele>
        <time>2020-10-05T15:03:59.988Z</time>
      </trkpt>
      <trkpt lat="43.99173" lon="5.88806">
        <ele>471</ele>
        <time>2020-10-05T15:04:00.988Z</time>
      </trkpt>
      <trkpt lat="43.99173" lon="5.88805">
        <ele>471</ele>
        <time>2020-10-05T15:04:01.988Z</time>
      </trkpt>
      <trkpt lat="43.99172" lon="5.88804">
        <ele>471</ele>
        <time>2020-10-05T15:04:02.988Z</time>
      </trkpt>
      <trkpt lat="43.99172" lon="5.88803">
        <ele>472</ele>
        <time>2020-10-05T15:04:03.988Z</time>
      </trkpt>
      <trkpt lat="43.99172" lon="5.88801">
        <ele>472</ele>
        <time>2020-10-05T15:04:04.988Z</time>
      </trkpt>
      <trkpt lat="43.99171" lon="5.888">
        <ele>472</ele>
        <time>2020-10-05T15:04:05.988Z</time>
      </trkpt>
      <trkpt lat="43.99171" lon="5.88799">
        <ele>472</ele>
        <time>2020-10-05T15:04:06.988Z</time>
      </trkpt>
      <trkpt lat="43.99171" lon="5.88798">
        <ele>472</ele>
        <time>2020-10-05T15:04:07.988Z</time>
      </trkpt>
      <trkpt lat="43.99171" lon="5.88797">
        <ele>472</ele>
        <time>2020-10-05T15:04:08.988Z</time>
      </trkpt>
      <trkpt lat="43.99171" lon="5.88796">
        <ele>473</ele>
        <time>2020-10-05T15:04:09.988Z</time>
      </trkpt>
      <trkpt lat="43.9917" lon="5.88795">
        <ele>473</ele>
        <time>2020-10-05T15:04:10.988Z</time>
      </trkpt>
      <trkpt lat="43.9917" lon="5.88794">
        <ele>473</ele>
        <time>2020-10-05T15:04:11.988Z</time>
      </trkpt>
      <trkpt lat="43.9917" lon="5.88793">
        <ele>473</ele>
        <time>2020-10-05T15:04:12.988Z</time>
      </trkpt>
      <trkpt lat="43.99169" lon="5.88792">
        <ele>473</ele>
        <time>2020-10-05T15:04:13.988Z</time>
      </trkpt>
      <trkpt lat="43.99169" lon="5.88791">
        <ele>474</ele>
        <time>2020-10-05T15:04:14.988Z</time>
      </trkpt>
      <trkpt lat="43.99168" lon="5.8879">
        <ele>474</ele>
        <time>2020-10-05T15:04:15.988Z</time>
      </trkpt>
      <trkpt lat="43.99168" lon="5.8879">
        <ele>474</ele>
        <time>2020-10-05T15:04:16.988Z</time>
      </trkpt>
      <trkpt lat="43.99167" lon="5.8879">
        <ele>474</ele>
        <time>2020-10-05T15:04:17.988Z</time>
      </trkpt>
      <trkpt lat="43.99167" lon="5.8879">
        <ele>474</ele>
        <time>2020-10-05T15:04:18.988Z</time>
      </trkpt>
      <trkpt lat="43.99167" lon="5.8879">
        <ele>475</ele>
        <time>2020-10-05T15:04:19.988Z</time>
      </trkpt>
      <trkpt lat="43.99167" lon="5.88789">
        <ele>475</ele>
        <time>2020-10-05T15:04:20.988Z</time>
      </trkpt>
      <trkpt lat="43.99167" lon="5.88789">
        <ele>475</ele>
        <time>2020-10-05T15:04:21.988Z</time>
      </trkpt>
      <trkpt lat="43.99167" lon="5.88789">
        <ele>475</ele>
        <time>2020-10-05T15:04:22.988Z</time>
      </trkpt>
      <trkpt lat="43.99167" lon="5.88789">
        <ele>475</ele>
        <time>2020-10-05T15:04:23.988Z</time>
      </trkpt>
      <trkpt lat="43.99166" lon="5.88789">
        <ele>475</ele>
        <time>2020-10-05T15:04:24.988Z</time>
      </trkpt>
      <trkpt lat="43.99166" lon="5.88789">
        <ele>475</ele>
        <time>2020-10-05T15:04:25.988Z</time>
      </trkpt>
      <trkpt lat="43.99166" lon="5.88789">
        <ele>476</ele>
        <time>2020-10-05T15:04:26.988Z</time>
      </trkpt>
      <trkpt lat="43.99166" lon="5.88789">
        <ele>476</ele>
        <time>2020-10-05T15:04:27.988Z</time>
      </trkpt>
      <trkpt lat="43.99166" lon="5.88789">
        <ele>476</ele>
        <time>2020-10-05T15:04:28.988Z</time>
      </trkpt>
      <trkpt lat="43.99166" lon="5.88789">
        <ele>476</ele>
        <time>2020-10-05T15:04:29.988Z</time>
      </trkpt>
      <trkpt lat="43.99166" lon="5.88789">
        <ele>476</ele>
        <time>2020-10-05T15:04:30.988Z</time>
      </trkpt>
      <trkpt lat="43.99166" lon="5.88789">
        <ele>476</ele>
        <time>2020-10-05T15:04:31.988Z</time>
      </trkpt>
      <trkpt lat="43.99166" lon="5.88789">
        <ele>476</ele>
        <time>2020-10-05T15:04:32.988Z</time>
      </trkpt>
      <trkpt lat="43.99166" lon="5.88789">
        <ele>476</ele>
        <time>2020-10-05T15:04:33.988Z</time>
      </trkpt>
      <trkpt lat="43.99166" lon="5.88789">
        <ele>476</ele>
        <time>2020-10-05T15:04:34.988Z</time>
      </trkpt>
      <trkpt lat="43.99166" lon="5.88789">
        <ele>477</ele>
        <time>2020-10-05T15:04:35.988Z</time>
      </trkpt>
      <trkpt lat="43.99166" lon="5.88789">
        <ele>477</ele>
        <time>2020-10-05T15:04:36.988Z</time>
      </trkpt>
      <trkpt lat="43.99166" lon="5.88788">
        <ele>477</ele>
        <time>2020-10-05T15:04:37.988Z</time>
      </trkpt>
      <trkpt lat="43.99165" lon="5.88788">
        <ele>477</ele>
        <time>2020-10-05T15:04:38.988Z</time>
      </trkpt>
      <trkpt lat="43.99165" lon="5.88787">
        <ele>477</ele>
        <time>2020-10-05T15:04:39.988Z</time>
      </trkpt>
      <trkpt lat="43.99165" lon="5.88786">
        <ele>477</ele>
        <time>2020-10-05T15:04:40.988Z</time>
      </trkpt>
      <trkpt lat="43.99164" lon="5.88786">
        <ele>477</ele>
        <time>2020-10-05T15:04:41.988Z</time>
      </trkpt>
      <trkpt lat="43.99163" lon="5.88785">
        <ele>477</ele>
        <time>2020-10-05T15:04:42.988Z</time>
      </trkpt>
      <trkpt lat="43.99163" lon="5.88784">
        <ele>477</ele>
        <time>2020-10-05T15:04:43.988Z</time>
      </trkpt>
      <trkpt lat="43.99162" lon="5.88783">
        <ele>477</ele>
        <time>2020-10-05T15:04:44.988Z</time>
      </trkpt>
      <trkpt lat="43.99162" lon="5.88783">
        <ele>477</ele>
        <time>2020-10-05T15:04:45.988Z</time>
      </trkpt>
      <trkpt lat="43.99161" lon="5.88782">
        <ele>477</ele>
        <time>2020-10-05T15:04:46.988Z</time>
      </trkpt>
      <trkpt lat="43.99161" lon="5.88781">
        <ele>477</ele>
        <time>2020-10-05T15:04:47.988Z</time>
      </trkpt>
      <trkpt lat="43.99161" lon="5.8878">
        <ele>478</ele>
        <time>2020-10-05T15:04:48.988Z</time>
      </trkpt>
      <trkpt lat="43.9916" lon="5.88779">
        <ele>478</ele>
        <time>2020-10-05T15:04:49.988Z</time>
      </trkpt>
      <trkpt lat="43.9916" lon="5.88779">
        <ele>478</ele>
        <time>2020-10-05T15:04:50.988Z</time>
      </trkpt>
      <trkpt lat="43.99159" lon="5.88778">
        <ele>478</ele>
        <time>2020-10-05T15:04:51.988Z</time>
      </trkpt>
      <trkpt lat="43.99159" lon="5.88777">
        <ele>478</ele>
        <time>2020-10-05T15:04:52.988Z</time>
      </trkpt>
      <trkpt lat="43.99158" lon="5.88777">
        <ele>478</ele>
        <time>2020-10-05T15:04:53.988Z</time>
      </trkpt>
      <trkpt lat="43.99158" lon="5.88776">
        <ele>478</ele>
        <time>2020-10-05T15:04:54.988Z</time>
      </trkpt>
      <trkpt lat="43.99157" lon="5.88776">
        <ele>478</ele>
        <time>2020-10-05T15:04:55.988Z</time>
      </trkpt>
      <trkpt lat="43.99157" lon="5.88775">
        <ele>478</ele>
        <time>2020-10-05T15:04:56.988Z</time>
      </trkpt>
      <trkpt lat="43.99156" lon="5.88774">
        <ele>478</ele>
        <time>2020-10-05T15:04:57.988Z</time>
      </trkpt>
      <trkpt lat="43.99156" lon="5.88773">
        <ele>478</ele>
        <time>2020-10-05T15:04:58.988Z</time>
      </trkpt>
      <trkpt lat="43.99155" lon="5.88773">
        <ele>479</ele>
        <time>2020-10-05T15:04:59.988Z</time>
      </trkpt>
      <trkpt lat="43.99155" lon="5.88772">
        <ele>479</ele>
        <time>2020-10-05T15:05:00.988Z</time>
      </trkpt>
      <trkpt lat="43.99154" lon="5.88772">
        <ele>479</ele>
        <time>2020-10-05T15:05:01.988Z</time>
      </trkpt>
      <trkpt lat="43.99154" lon="5.88771">
        <ele>479</ele>
        <time>2020-10-05T15:05:02.988Z</time>
      </trkpt>
      <trkpt lat="43.99154" lon="5.8877">
        <ele>479</ele>
        <time>2020-10-05T15:05:03.988Z</time>
      </trkpt>
      <trkpt lat="43.99153" lon="5.8877">
        <ele>479</ele>
        <time>2020-10-05T15:05:04.988Z</time>
      </trkpt>
      <trkpt lat="43.99153" lon="5.88769">
        <ele>479</ele>
        <time>2020-10-05T15:05:05.988Z</time>
      </trkpt>
      <trkpt lat="43.99152" lon="5.88768">
        <ele>479</ele>
        <time>2020-10-05T15:05:06.988Z</time>
      </trkpt>
      <trkpt lat="43.99152" lon="5.88767">
        <ele>479</ele>
        <time>2020-10-05T15:05:07.988Z</time>
      </trkpt>
      <trkpt lat="43.99151" lon="5.88766">
        <ele>480</ele>
        <time>2020-10-05T15:05:08.988Z</time>
      </trkpt>
      <trkpt lat="43.99151" lon="5.88766">
        <ele>480</ele>
        <time>2020-10-05T15:05:09.988Z</time>
      </trkpt>
      <trkpt lat="43.9915" lon="5.88765">
        <ele>480</ele>
        <time>2020-10-05T15:05:10.988Z</time>
      </trkpt>
      <trkpt lat="43.99149" lon="5.88764">
        <ele>480</ele>
        <time>2020-10-05T15:05:11.988Z</time>
      </trkpt>
      <trkpt lat="43.99149" lon="5.88763">
        <ele>480</ele>
        <time>2020-10-05T15:05:12.988Z</time>
      </trkpt>
      <trkpt lat="43.99148" lon="5.88762">
        <ele>480</ele>
        <time>2020-10-05T15:05:13.988Z</time>
      </trkpt>
      <trkpt lat="43.99147" lon="5.88762">
        <ele>480</ele>
        <time>2020-10-05T15:05:14.988Z</time>
      </trkpt>
      <trkpt lat="43.99147" lon="5.88761">
        <ele>481</ele>
        <time>2020-10-05T15:05:15.988Z</time>
      </trkpt>
      <trkpt lat="43.99146" lon="5.88761">
        <ele>481</ele>
        <time>2020-10-05T15:05:16.988Z</time>
      </trkpt>
      <trkpt lat="43.99145" lon="5.8876">
        <ele>481</ele>
        <time>2020-10-05T15:05:17.988Z</time>
      </trkpt>
      <trkpt lat="43.99145" lon="5.88759">
        <ele>481</ele>
        <time>2020-10-05T15:05:18.988Z</time>
      </trkpt>
      <trkpt lat="43.99144" lon="5.88758">
        <ele>481</ele>
        <time>2020-10-05T15:05:19.988Z</time>
      </trkpt>
      <trkpt lat="43.99144" lon="5.88757">
        <ele>482</ele>
        <time>2020-10-05T15:05:20.988Z</time>
      </trkpt>
      <trkpt lat="43.99143" lon="5.88757">
        <ele>482</ele>
        <time>2020-10-05T15:05:21.988Z</time>
      </trkpt>
      <trkpt lat="43.99143" lon="5.88756">
        <ele>482</ele>
        <time>2020-10-05T15:05:22.988Z</time>
      </trkpt>
      <trkpt lat="43.99143" lon="5.88756">
        <ele>482</ele>
        <time>2020-10-05T15:05:23.988Z</time>
      </trkpt>
      <trkpt lat="43.99142" lon="5.88755">
        <ele>482</ele>
        <time>2020-10-05T15:05:24.988Z</time>
      </trkpt>
      <trkpt lat="43.99141" lon="5.88755">
        <ele>482</ele>
        <time>2020-10-05T15:05:25.988Z</time>
      </trkpt>
      <trkpt lat="43.99141" lon="5.88754">
        <ele>482</ele>
        <time>2020-10-05T15:05:26.988Z</time>
      </trkpt>
      <trkpt lat="43.9914" lon="5.88754">
        <ele>482</ele>
        <time>2020-10-05T15:05:27.988Z</time>
      </trkpt>
      <trkpt lat="43.9914" lon="5.88754">
        <ele>483</ele>
        <time>2020-10-05T15:05:28.988Z</time>
      </trkpt>
      <trkpt lat="43.99139" lon="5.88753">
        <ele>483</ele>
        <time>2020-10-05T15:05:29.988Z</time>
      </trkpt>
      <trkpt lat="43.99139" lon="5.88753">
        <ele>483</ele>
        <time>2020-10-05T15:05:30.988Z</time>
      </trkpt>
      <trkpt lat="43.99138" lon="5.88752">
        <ele>483</ele>
        <time>2020-10-05T15:05:31.988Z</time>
      </trkpt>
      <trkpt lat="43.99137" lon="5.88752">
        <ele>483</ele>
        <time>2020-10-05T15:05:32.988Z</time>
      </trkpt>
      <trkpt lat="43.99137" lon="5.88752">
        <ele>483</ele>
        <time>2020-10-05T15:05:33.988Z</time>
      </trkpt>
      <trkpt lat="43.99136" lon="5.88752">
        <ele>484</ele>
        <time>2020-10-05T15:05:34.988Z</time>
      </trkpt>
      <trkpt lat="43.99135" lon="5.88751">
        <ele>484</ele>
        <time>2020-10-05T15:05:35.988Z</time>
      </trkpt>
      <trkpt lat="43.99134" lon="5.88751">
        <ele>484</ele>
        <time>2020-10-05T15:05:36.988Z</time>
      </trkpt>
      <trkpt lat="43.99133" lon="5.8875">
        <ele>484</ele>
        <time>2020-10-05T15:05:37.988Z</time>
      </trkpt>
      <trkpt lat="43.99132" lon="5.8875">
        <ele>484</ele>
        <time>2020-10-05T15:05:38.988Z</time>
      </trkpt>
      <trkpt lat="43.99131" lon="5.88749">
        <ele>485</ele>
        <time>2020-10-05T15:05:39.988Z</time>
      </trkpt>
      <trkpt lat="43.9913" lon="5.88748">
        <ele>485</ele>
        <time>2020-10-05T15:05:40.988Z</time>
      </trkpt>
      <trkpt lat="43.99129" lon="5.88748">
        <ele>485</ele>
        <time>2020-10-05T15:05:41.988Z</time>
      </trkpt>
      <trkpt lat="43.99128" lon="5.88747">
        <ele>485</ele>
        <time>2020-10-05T15:05:42.988Z</time>
      </trkpt>
      <trkpt lat="43.99128" lon="5.88746">
        <ele>486</ele>
        <time>2020-10-05T15:05:43.988Z</time>
      </trkpt>
      <trkpt lat="43.99127" lon="5.88746">
        <ele>486</ele>
        <time>2020-10-05T15:05:44.988Z</time>
      </trkpt>
      <trkpt lat="43.99126" lon="5.88745">
        <ele>486</ele>
        <time>2020-10-05T15:05:45.988Z</time>
      </trkpt>
      <trkpt lat="43.99125" lon="5.88745">
        <ele>487</ele>
        <time>2020-10-05T15:05:46.988Z</time>
      </trkpt>
      <trkpt lat="43.99124" lon="5.88744">
        <ele>487</ele>
        <time>2020-10-05T15:05:47.988Z</time>
      </trkpt>
      <trkpt lat="43.99122" lon="5.88744">
        <ele>487</ele>
        <time>2020-10-05T15:05:48.988Z</time>
      </trkpt>
      <trkpt lat="43.99121" lon="5.88743">
        <ele>488</ele>
        <time>2020-10-05T15:05:49.988Z</time>
      </trkpt>
      <trkpt lat="43.9912" lon="5.88743">
        <ele>488</ele>
        <time>2020-10-05T15:05:50.988Z</time>
      </trkpt>
      <trkpt lat="43.99118" lon="5.88743">
        <ele>489</ele>
        <time>2020-10-05T15:05:51.988Z</time>
      </trkpt>
      <trkpt lat="43.99117" lon="5.88743">
        <ele>489</ele>
        <time>2020-10-05T15:05:52.988Z</time>
      </trkpt>
      <trkpt lat="43.99116" lon="5.88742">
        <ele>490</ele>
        <time>2020-10-05T15:05:53.988Z</time>
      </trkpt>
      <trkpt lat="43.99115" lon="5.88742">
        <ele>490</ele>
        <time>2020-10-05T15:05:54.988Z</time>
      </trkpt>
      <trkpt lat="43.99113" lon="5.88741">
        <ele>491</ele>
        <time>2020-10-05T15:05:55.988Z</time>
      </trkpt>
      <trkpt lat="43.99112" lon="5.88741">
        <ele>491</ele>
        <time>2020-10-05T15:05:56.988Z</time>
      </trkpt>
      <trkpt lat="43.99111" lon="5.8874">
        <ele>492</ele>
        <time>2020-10-05T15:05:57.988Z</time>
      </trkpt>
      <trkpt lat="43.9911" lon="5.8874">
        <ele>492</ele>
        <time>2020-10-05T15:05:58.988Z</time>
      </trkpt>
      <trkpt lat="43.99109" lon="5.88739">
        <ele>493</ele>
        <time>2020-10-05T15:05:59.988Z</time>
      </trkpt>
      <trkpt lat="43.99108" lon="5.88738">
        <ele>493</ele>
        <time>2020-10-05T15:06:00.988Z</time>
      </trkpt>
      <trkpt lat="43.99107" lon="5.88738">
        <ele>494</ele>
        <time>2020-10-05T15:06:01.988Z</time>
      </trkpt>
      <trkpt lat="43.99106" lon="5.88737">
        <ele>494</ele>
        <time>2020-10-05T15:06:02.988Z</time>
      </trkpt>
      <trkpt lat="43.99106" lon="5.88737">
        <ele>494</ele>
        <time>2020-10-05T15:06:03.988Z</time>
      </trkpt>
      <trkpt lat="43.99106" lon="5.88737">
        <ele>495</ele>
        <time>2020-10-05T15:06:04.988Z</time>
      </trkpt>
      <trkpt lat="43.99105" lon="5.88737">
        <ele>495</ele>
        <time>2020-10-05T15:06:05.988Z</time>
      </trkpt>
      <trkpt lat="43.99105" lon="5.88737">
        <ele>495</ele>
        <time>2020-10-05T15:06:06.988Z</time>
      </trkpt>
      <trkpt lat="43.99105" lon="5.88737">
        <ele>496</ele>
        <time>2020-10-05T15:06:07.988Z</time>
      </trkpt>
      <trkpt lat="43.99104" lon="5.88737">
        <ele>496</ele>
        <time>2020-10-05T15:06:08.988Z</time>
      </trkpt>
      <trkpt lat="43.99104" lon="5.88737">
        <ele>496</ele>
        <time>2020-10-05T15:06:09.988Z</time>
      </trkpt>
      <trkpt lat="43.99104" lon="5.88737">
        <ele>496</ele>
        <time>2020-10-05T15:06:10.988Z</time>
      </trkpt>
      <trkpt lat="43.99104" lon="5.88737">
        <ele>497</ele>
        <time>2020-10-05T15:06:11.988Z</time>
      </trkpt>
      <trkpt lat="43.99103" lon="5.88736">
        <ele>497</ele>
        <time>2020-10-05T15:06:12.988Z</time>
      </trkpt>
      <trkpt lat="43.99103" lon="5.88736">
        <ele>497</ele>
        <time>2020-10-05T15:06:13.988Z</time>
      </trkpt>
      <trkpt lat="43.99103" lon="5.88736">
        <ele>497</ele>
        <time>2020-10-05T15:06:14.988Z</time>
      </trkpt>
      <trkpt lat="43.99103" lon="5.88736">
        <ele>497</ele>
        <time>2020-10-05T15:06:15.988Z</time>
      </trkpt>
      <trkpt lat="43.99103" lon="5.88736">
        <ele>497</ele>
        <time>2020-10-05T15:06:16.988Z</time>
      </trkpt>
      <trkpt lat="43.99103" lon="5.88736">
        <ele>497</ele>
        <time>2020-10-05T15:06:17.988Z</time>
      </trkpt>
      <trkpt lat="43.99103" lon="5.88736">
        <ele>498</ele>
        <time>2020-10-05T15:06:18.988Z</time>
      </trkpt>
      <trkpt lat="43.99103" lon="5.88737">
        <ele>498</ele>
        <time>2020-10-05T15:06:19.988Z</time>
      </trkpt>
      <trkpt lat="43.99103" lon="5.88737">
        <ele>498</ele>
        <time>2020-10-05T15:06:20.988Z</time>
      </trkpt>
      <trkpt lat="43.99103" lon="5.88737">
        <ele>498</ele>
        <time>2020-10-05T15:06:21.988Z</time>
      </trkpt>
      <trkpt lat="43.99102" lon="5.88736">
        <ele>498</ele>
        <time>2020-10-05T15:06:22.988Z</time>
      </trkpt>
      <trkpt lat="43.99102" lon="5.88736">
        <ele>498</ele>
        <time>2020-10-05T15:06:23.988Z</time>
      </trkpt>
      <trkpt lat="43.99102" lon="5.88736">
        <ele>498</ele>
        <time>2020-10-05T15:06:24.988Z</time>
      </trkpt>
      <trkpt lat="43.99102" lon="5.88736">
        <ele>499</ele>
        <time>2020-10-05T15:06:25.988Z</time>
      </trkpt>
      <trkpt lat="43.99102" lon="5.88736">
        <ele>499</ele>
        <time>2020-10-05T15:06:26.988Z</time>
      </trkpt>
      <trkpt lat="43.99102" lon="5.88736">
        <ele>499</ele>
        <time>2020-10-05T15:06:27.988Z</time>
      </trkpt>
      <trkpt lat="43.99102" lon="5.88736">
        <ele>499</ele>
        <time>2020-10-05T15:06:28.988Z</time>
      </trkpt>
      <trkpt lat="43.99102" lon="5.88736">
        <ele>499</ele>
        <time>2020-10-05T15:06:29.988Z</time>
      </trkpt>
      <trkpt lat="43.99101" lon="5.88736">
        <ele>499</ele>
        <time>2020-10-05T15:06:30.988Z</time>
      </trkpt>
      <trkpt lat="43.99101" lon="5.88736">
        <ele>499</ele>
        <time>2020-10-05T15:06:31.988Z</time>
      </trkpt>
      <trkpt lat="43.99101" lon="5.88736">
        <ele>499</ele>
        <time>2020-10-05T15:06:32.988Z</time>
      </trkpt>
      <trkpt lat="43.99101" lon="5.88736">
        <ele>499</ele>
        <time>2020-10-05T15:06:33.988Z</time>
      </trkpt>
      <trkpt lat="43.99101" lon="5.88736">
        <ele>499</ele>
        <time>2020-10-05T15:06:34.988Z</time>
      </trkpt>
      <trkpt lat="43.99101" lon="5.88735">
        <ele>499</ele>
        <time>2020-10-05T15:06:35.988Z</time>
      </trkpt>
      <trkpt lat="43.99101" lon="5.88735">
        <ele>499</ele>
        <time>2020-10-05T15:06:36.988Z</time>
      </trkpt>
      <trkpt lat="43.99101" lon="5.88735">
        <ele>499</ele>
        <time>2020-10-05T15:06:37.988Z</time>
      </trkpt>
      <trkpt lat="43.99101" lon="5.88735">
        <ele>499</ele>
        <time>2020-10-05T15:06:38.988Z</time>
      </trkpt>
      <trkpt lat="43.99101" lon="5.88735">
        <ele>499</ele>
        <time>2020-10-05T15:06:39.988Z</time>
      </trkpt>
      <trkpt lat="43.99101" lon="5.88734">
        <ele>499</ele>
        <time>2020-10-05T15:06:40.988Z</time>
      </trkpt>
      <trkpt lat="43.99101" lon="5.88734">
        <ele>499</ele>
        <time>2020-10-05T15:06:41.988Z</time>
      </trkpt>
      <trkpt lat="43.99101" lon="5.88734">
        <ele>499</ele>
        <time>2020-10-05T15:06:42.988Z</time>
      </trkpt>
      <trkpt lat="43.99101" lon="5.88734">
        <ele>499</ele>
        <time>2020-10-05T15:06:43.988Z</time>
      </trkpt>
      <trkpt lat="43.99101" lon="5.88734">
        <ele>499</ele>
        <time>2020-10-05T15:06:44.988Z</time>
      </trkpt>
      <trkpt lat="43.99101" lon="5.88734">
        <ele>499</ele>
        <time>2020-10-05T15:06:45.988Z</time>
      </trkpt>
      <trkpt lat="43.99101" lon="5.88734">
        <ele>499</ele>
        <time>2020-10-05T15:06:46.988Z</time>
      </trkpt>
      <trkpt lat="43.99101" lon="5.88733">
        <ele>499</ele>
        <time>2020-10-05T15:06:47.988Z</time>
      </trkpt>
      <trkpt lat="43.99102" lon="5.88733">
        <ele>499</ele>
        <time>2020-10-05T15:06:48.988Z</time>
      </trkpt>
      <trkpt lat="43.99102" lon="5.88733">
        <ele>499</ele>
        <time>2020-10-05T15:06:49.988Z</time>
      </trkpt>
      <trkpt lat="43.99102" lon="5.88733">
        <ele>499</ele>
        <time>2020-10-05T15:06:50.988Z</time>
      </trkpt>
      <trkpt lat="43.99102" lon="5.88733">
        <ele>499</ele>
        <time>2020-10-05T15:06:51.988Z</time>
      </trkpt>
      <trkpt lat="43.99102" lon="5.88733">
        <ele>498</ele>
        <time>2020-10-05T15:06:52.988Z</time>
      </trkpt>
      <trkpt lat="43.99102" lon="5.88733">
        <ele>498</ele>
        <time>2020-10-05T15:06:53.988Z</time>
      </trkpt>
      <trkpt lat="43.99103" lon="5.88733">
        <ele>498</ele>
        <time>2020-10-05T15:06:54.988Z</time>
      </trkpt>
      <trkpt lat="43.99103" lon="5.88733">
        <ele>498</ele>
        <time>2020-10-05T15:06:55.988Z</time>
      </trkpt>
      <trkpt lat="43.99103" lon="5.88732">
        <ele>498</ele>
        <time>2020-10-05T15:06:56.988Z</time>
      </trkpt>
      <trkpt lat="43.99103" lon="5.88732">
        <ele>498</ele>
        <time>2020-10-05T15:06:57.988Z</time>
      </trkpt>
      <trkpt lat="43.99103" lon="5.88732">
        <ele>498</ele>
        <time>2020-10-05T15:06:58.988Z</time>
      </trkpt>
      <trkpt lat="43.99103" lon="5.88732">
        <ele>498</ele>
        <time>2020-10-05T15:06:59.988Z</time>
      </trkpt>
      <trkpt lat="43.99103" lon="5.88732">
        <ele>498</ele>
        <time>2020-10-05T15:07:00.988Z</time>
      </trkpt>
      <trkpt lat="43.99104" lon="5.88732">
        <ele>497</ele>
        <time>2020-10-05T15:07:01.988Z</time>
      </trkpt>
      <trkpt lat="43.99103" lon="5.88732">
        <ele>497</ele>
        <time>2020-10-05T15:07:02.988Z</time>
      </trkpt>
      <trkpt lat="43.99103" lon="5.88732">
        <ele>497</ele>
        <time>2020-10-05T15:07:03.988Z</time>
      </trkpt>
      <trkpt lat="43.99103" lon="5.88733">
        <ele>497</ele>
        <time>2020-10-05T15:07:04.988Z</time>
      </trkpt>
      <trkpt lat="43.99103" lon="5.88733">
        <ele>497</ele>
        <time>2020-10-05T15:07:05.988Z</time>
      </trkpt>
      <trkpt lat="43.99103" lon="5.88733">
        <ele>497</ele>
        <time>2020-10-05T15:07:06.988Z</time>
      </trkpt>
      <trkpt lat="43.99104" lon="5.88733">
        <ele>497</ele>
        <time>2020-10-05T15:07:07.988Z</time>
      </trkpt>
      <trkpt lat="43.99104" lon="5.88732">
        <ele>497</ele>
        <time>2020-10-05T15:07:08.988Z</time>
      </trkpt>
      <trkpt lat="43.99104" lon="5.88732">
        <ele>497</ele>
        <time>2020-10-05T15:07:09.988Z</time>
      </trkpt>
      <trkpt lat="43.99104" lon="5.88732">
        <ele>497</ele>
        <time>2020-10-05T15:07:10.988Z</time>
      </trkpt>
      <trkpt lat="43.99104" lon="5.88732">
        <ele>497</ele>
        <time>2020-10-05T15:07:11.988Z</time>
      </trkpt>
      <trkpt lat="43.99104" lon="5.88732">
        <ele>497</ele>
        <time>2020-10-05T15:07:12.988Z</time>
      </trkpt>
      <trkpt lat="43.99104" lon="5.88732">
        <ele>496</ele>
        <time>2020-10-05T15:07:13.988Z</time>
      </trkpt>
      <trkpt lat="43.99104" lon="5.88732">
        <ele>496</ele>
        <time>2020-10-05T15:07:14.988Z</time>
      </trkpt>
      <trkpt lat="43.99104" lon="5.88731">
        <ele>496</ele>
        <time>2020-10-05T15:07:15.988Z</time>
      </trkpt>
      <trkpt lat="43.99104" lon="5.88731">
        <ele>496</ele>
        <time>2020-10-05T15:07:16.988Z</time>
      </trkpt>
      <trkpt lat="43.99104" lon="5.88731">
        <ele>496</ele>
        <time>2020-10-05T15:07:17.988Z</time>
      </trkpt>
      <trkpt lat="43.99104" lon="5.88731">
        <ele>496</ele>
        <time>2020-10-05T15:07:18.988Z</time>
      </trkpt>
      <trkpt lat="43.99104" lon="5.88731">
        <ele>496</ele>
        <time>2020-10-05T15:07:19.988Z</time>
      </trkpt>
      <trkpt lat="43.99104" lon="5.88731">
        <ele>496</ele>
        <time>2020-10-05T15:07:20.988Z</time>
      </trkpt>
      <trkpt lat="43.99104" lon="5.88731">
        <ele>496</ele>
        <time>2020-10-05T15:07:21.988Z</time>
      </trkpt>
      <trkpt lat="43.99104" lon="5.88731">
        <ele>496</ele>
        <time>2020-10-05T15:07:22.988Z</time>
      </trkpt>
      <trkpt lat="43.99105" lon="5.88731">
        <ele>496</ele>
        <time>2020-10-05T15:07:23.988Z</time>
      </trkpt>
      <trkpt lat="43.99105" lon="5.88731">
        <ele>496</ele>
        <time>2020-10-05T15:07:24.988Z</time>
      </trkpt>
      <trkpt lat="43.99105" lon="5.88731">
        <ele>496</ele>
        <time>2020-10-05T15:07:25.988Z</time>
      </trkpt>
      <trkpt lat="43.99105" lon="5.88731">
        <ele>496</ele>
        <time>2020-10-05T15:07:26.988Z</time>
      </trkpt>
      <trkpt lat="43.99105" lon="5.88731">
        <ele>496</ele>
        <time>2020-10-05T15:07:27.988Z</time>
      </trkpt>
      <trkpt lat="43.99105" lon="5.8873">
        <ele>496</ele>
        <time>2020-10-05T15:07:28.988Z</time>
      </trkpt>
      <trkpt lat="43.99105" lon="5.8873">
        <ele>496</ele>
        <time>2020-10-05T15:07:29.988Z</time>
      </trkpt>
      <trkpt lat="43.99105" lon="5.8873">
        <ele>496</ele>
        <time>2020-10-05T15:07:30.988Z</time>
      </trkpt>
      <trkpt lat="43.99105" lon="5.8873">
        <ele>496</ele>
        <time>2020-10-05T15:07:31.988Z</time>
      </trkpt>
      <trkpt lat="43.99105" lon="5.8873">
        <ele>497</ele>
        <time>2020-10-05T15:07:32.988Z</time>
      </trkpt>
      <trkpt lat="43.99105" lon="5.8873">
        <ele>497</ele>
        <time>2020-10-05T15:07:33.988Z</time>
      </trkpt>
      <trkpt lat="43.99105" lon="5.8873">
        <ele>497</ele>
        <time>2020-10-05T15:07:34.988Z</time>
      </trkpt>
      <trkpt lat="43.99105" lon="5.8873">
        <ele>497</ele>
        <time>2020-10-05T15:07:35.988Z</time>
      </trkpt>
      <trkpt lat="43.99105" lon="5.8873">
        <ele>497</ele>
        <time>2020-10-05T15:07:36.988Z</time>
      </trkpt>
      <trkpt lat="43.99105" lon="5.8873">
        <ele>497</ele>
        <time>2020-10-05T15:07:37.988Z</time>
      </trkpt>
      <trkpt lat="43.99105" lon="5.8873">
        <ele>497</ele>
        <time>2020-10-05T15:07:38.988Z</time>
      </trkpt>
      <trkpt lat="43.99105" lon="5.88729">
        <ele>497</ele>
        <time>2020-10-05T15:07:39.988Z</time>
      </trkpt>
      <trkpt lat="43.99105" lon="5.88729">
        <ele>497</ele>
        <time>2020-10-05T15:07:40.988Z</time>
      </trkpt>
      <trkpt lat="43.99105" lon="5.88729">
        <ele>497</ele>
        <time>2020-10-05T15:07:41.988Z</time>
      </trkpt>
      <trkpt lat="43.99105" lon="5.88729">
        <ele>497</ele>
        <time>2020-10-05T15:07:42.988Z</time>
      </trkpt>
      <trkpt lat="43.99105" lon="5.88729">
        <ele>497</ele>
        <time>2020-10-05T15:07:43.988Z</time>
      </trkpt>
      <trkpt lat="43.99105" lon="5.88729">
        <ele>498</ele>
        <time>2020-10-05T15:07:44.988Z</time>
      </trkpt>
      <trkpt lat="43.99105" lon="5.88729">
        <ele>498</ele>
        <time>2020-10-05T15:07:45.988Z</time>
      </trkpt>
      <trkpt lat="43.99105" lon="5.88728">
        <ele>498</ele>
        <time>2020-10-05T15:07:46.988Z</time>
      </trkpt>
      <trkpt lat="43.99105" lon="5.88728">
        <ele>498</ele>
        <time>2020-10-05T15:07:47.988Z</time>
      </trkpt>
      <trkpt lat="43.99105" lon="5.88728">
        <ele>498</ele>
        <time>2020-10-05T15:07:48.988Z</time>
      </trkpt>
      <trkpt lat="43.99105" lon="5.88728">
        <ele>498</ele>
        <time>2020-10-05T15:07:49.988Z</time>
      </trkpt>
      <trkpt lat="43.99105" lon="5.88728">
        <ele>498</ele>
        <time>2020-10-05T15:07:50.988Z</time>
      </trkpt>
      <trkpt lat="43.99105" lon="5.88728">
        <ele>498</ele>
        <time>2020-10-05T15:07:51.988Z</time>
      </trkpt>
      <trkpt lat="43.99105" lon="5.88728">
        <ele>498</ele>
        <time>2020-10-05T15:07:52.988Z</time>
      </trkpt>
      <trkpt lat="43.99105" lon="5.88728">
        <ele>498</ele>
        <time>2020-10-05T15:07:53.988Z</time>
      </trkpt>
      <trkpt lat="43.99105" lon="5.88728">
        <ele>499</ele>
        <time>2020-10-05T15:07:54.988Z</time>
      </trkpt>
      <trkpt lat="43.99105" lon="5.88728">
        <ele>499</ele>
        <time>2020-10-05T15:07:55.988Z</time>
      </trkpt>
      <trkpt lat="43.99105" lon="5.88728">
        <ele>499</ele>
        <time>2020-10-05T15:07:56.988Z</time>
      </trkpt>
      <trkpt lat="43.99105" lon="5.88727">
        <ele>499</ele>
        <time>2020-10-05T15:07:57.988Z</time>
      </trkpt>
      <trkpt lat="43.99106" lon="5.88727">
        <ele>499</ele>
        <time>2020-10-05T15:07:58.988Z</time>
      </trkpt>
      <trkpt lat="43.99106" lon="5.88727">
        <ele>499</ele>
        <time>2020-10-05T15:07:59.988Z</time>
      </trkpt>
      <trkpt lat="43.99106" lon="5.88727">
        <ele>499</ele>
        <time>2020-10-05T15:08:00.988Z</time>
      </trkpt>
      <trkpt lat="43.99106" lon="5.88727">
        <ele>499</ele>
        <time>2020-10-05T15:08:01.988Z</time>
      </trkpt>
      <trkpt lat="43.99107" lon="5.88726">
        <ele>499</ele>
        <time>2020-10-05T15:08:02.988Z</time>
      </trkpt>
      <trkpt lat="43.99107" lon="5.88726">
        <ele>499</ele>
        <time>2020-10-05T15:08:03.988Z</time>
      </trkpt>
      <trkpt lat="43.99107" lon="5.88726">
        <ele>499</ele>
        <time>2020-10-05T15:08:04.988Z</time>
      </trkpt>
      <trkpt lat="43.99107" lon="5.88726">
        <ele>500</ele>
        <time>2020-10-05T15:08:05.988Z</time>
      </trkpt>
      <trkpt lat="43.99107" lon="5.88726">
        <ele>500</ele>
        <time>2020-10-05T15:08:06.988Z</time>
      </trkpt>
      <trkpt lat="43.99107" lon="5.88726">
        <ele>500</ele>
        <time>2020-10-05T15:08:07.988Z</time>
      </trkpt>
      <trkpt lat="43.99107" lon="5.88726">
        <ele>500</ele>
        <time>2020-10-05T15:08:08.988Z</time>
      </trkpt>
      <trkpt lat="43.99107" lon="5.88726">
        <ele>500</ele>
        <time>2020-10-05T15:08:09.988Z</time>
      </trkpt>
      <trkpt lat="43.99107" lon="5.88726">
        <ele>501</ele>
        <time>2020-10-05T15:08:10.988Z</time>
      </trkpt>
      <trkpt lat="43.99106" lon="5.88726">
        <ele>501</ele>
        <time>2020-10-05T15:08:11.988Z</time>
      </trkpt>
      <trkpt lat="43.99106" lon="5.88726">
        <ele>501</ele>
        <time>2020-10-05T15:08:12.988Z</time>
      </trkpt>
      <trkpt lat="43.99106" lon="5.88726">
        <ele>501</ele>
        <time>2020-10-05T15:08:13.988Z</time>
      </trkpt>
      <trkpt lat="43.99106" lon="5.88726">
        <ele>501</ele>
        <time>2020-10-05T15:08:14.988Z</time>
      </trkpt>
      <trkpt lat="43.99106" lon="5.88726">
        <ele>501</ele>
        <time>2020-10-05T15:08:15.988Z</time>
      </trkpt>
      <trkpt lat="43.99106" lon="5.88726">
        <ele>501</ele>
        <time>2020-10-05T15:08:16.988Z</time>
      </trkpt>
      <trkpt lat="43.99106" lon="5.88726">
        <ele>501</ele>
        <time>2020-10-05T15:08:17.988Z</time>
      </trkpt>
      <trkpt lat="43.99106" lon="5.88726">
        <ele>501</ele>
        <time>2020-10-05T15:08:18.988Z</time>
      </trkpt>
      <trkpt lat="43.99106" lon="5.88726">
        <ele>501</ele>
        <time>2020-10-05T15:08:19.988Z</time>
      </trkpt>
      <trkpt lat="43.99105" lon="5.88726">
        <ele>501</ele>
        <time>2020-10-05T15:08:20.988Z</time>
      </trkpt>
      <trkpt lat="43.99105" lon="5.88727">
        <ele>501</ele>
        <time>2020-10-05T15:08:21.988Z</time>
      </trkpt>
      <trkpt lat="43.99105" lon="5.88727">
        <ele>501</ele>
        <time>2020-10-05T15:08:22.988Z</time>
      </trkpt>
      <trkpt lat="43.99105" lon="5.88726">
        <ele>501</ele>
        <time>2020-10-05T15:08:23.988Z</time>
      </trkpt>
      <trkpt lat="43.99105" lon="5.88726">
        <ele>501</ele>
        <time>2020-10-05T15:08:24.988Z</time>
      </trkpt>
      <trkpt lat="43.99105" lon="5.88726">
        <ele>501</ele>
        <time>2020-10-05T15:08:25.988Z</time>
      </trkpt>
      <trkpt lat="43.99105" lon="5.88726">
        <ele>501</ele>
        <time>2020-10-05T15:08:26.988Z</time>
      </trkpt>
      <trkpt lat="43.99105" lon="5.88726">
        <ele>501</ele>
        <time>2020-10-05T15:08:27.988Z</time>
      </trkpt>
      <trkpt lat="43.99105" lon="5.88726">
        <ele>501</ele>
        <time>2020-10-05T15:08:28.988Z</time>
      </trkpt>
      <trkpt lat="43.99105" lon="5.88726">
        <ele>501</ele>
        <time>2020-10-05T15:08:29.988Z</time>
      </trkpt>
      <trkpt lat="43.99105" lon="5.88726">
        <ele>501</ele>
        <time>2020-10-05T15:08:30.988Z</time>
      </trkpt>
      <trkpt lat="43.99105" lon="5.88726">
        <ele>501</ele>
        <time>2020-10-05T15:08:31.988Z</time>
      </trkpt>
      <trkpt lat="43.99105" lon="5.88726">
        <ele>501</ele>
        <time>2020-10-05T15:08:32.988Z</time>
      </trkpt>
      <trkpt lat="43.99105" lon="5.88726">
        <ele>502</ele>
        <time>2020-10-05T15:08:33.988Z</time>
      </trkpt>
      <trkpt lat="43.99105" lon="5.88726">
        <ele>502</ele>
        <time>2020-10-05T15:08:34.988Z</time>
      </trkpt>
      <trkpt lat="43.99105" lon="5.88726">
        <ele>502</ele>
        <time>2020-10-05T15:08:35.988Z</time>
      </trkpt>
      <trkpt lat="43.99105" lon="5.88726">
        <ele>502</ele>
        <time>2020-10-05T15:08:36.988Z</time>
      </trkpt>
      <trkpt lat="43.99105" lon="5.88725">
        <ele>502</ele>
        <time>2020-10-05T15:08:37.988Z</time>
      </trkpt>
      <trkpt lat="43.99104" lon="5.88725">
        <ele>502</ele>
        <time>2020-10-05T15:08:38.988Z</time>
      </trkpt>
      <trkpt lat="43.99104" lon="5.88725">
        <ele>502</ele>
        <time>2020-10-05T15:08:39.988Z</time>
      </trkpt>
      <trkpt lat="43.99104" lon="5.88725">
        <ele>502</ele>
        <time>2020-10-05T15:08:40.988Z</time>
      </trkpt>
      <trkpt lat="43.99104" lon="5.88725">
        <ele>502</ele>
        <time>2020-10-05T15:08:41.988Z</time>
      </trkpt>
      <trkpt lat="43.99104" lon="5.88725">
        <ele>502</ele>
        <time>2020-10-05T15:08:42.988Z</time>
      </trkpt>
      <trkpt lat="43.99104" lon="5.88725">
        <ele>502</ele>
        <time>2020-10-05T15:08:43.988Z</time>
      </trkpt>
      <trkpt lat="43.99104" lon="5.88725">
        <ele>502</ele>
        <time>2020-10-05T15:08:44.988Z</time>
      </trkpt>
      <trkpt lat="43.99104" lon="5.88725">
        <ele>502</ele>
        <time>2020-10-05T15:08:45.988Z</time>
      </trkpt>
      <trkpt lat="43.99104" lon="5.88724">
        <ele>503</ele>
        <time>2020-10-05T15:08:46.988Z</time>
      </trkpt>
      <trkpt lat="43.99104" lon="5.88724">
        <ele>503</ele>
        <time>2020-10-05T15:08:47.988Z</time>
      </trkpt>
      <trkpt lat="43.99104" lon="5.88724">
        <ele>502</ele>
        <time>2020-10-05T15:08:48.988Z</time>
      </trkpt>
      <trkpt lat="43.99104" lon="5.88724">
        <ele>502</ele>
        <time>2020-10-05T15:08:49.988Z</time>
      </trkpt>
      <trkpt lat="43.99104" lon="5.88724">
        <ele>502</ele>
        <time>2020-10-05T15:08:50.988Z</time>
      </trkpt>
      <trkpt lat="43.99104" lon="5.88724">
        <ele>502</ele>
        <time>2020-10-05T15:08:51.988Z</time>
      </trkpt>
      <trkpt lat="43.99104" lon="5.88724">
        <ele>503</ele>
        <time>2020-10-05T15:08:52.988Z</time>
      </trkpt>
      <trkpt lat="43.99104" lon="5.88724">
        <ele>503</ele>
        <time>2020-10-05T15:08:53.988Z</time>
      </trkpt>
      <trkpt lat="43.99104" lon="5.88724">
        <ele>503</ele>
        <time>2020-10-05T15:08:54.988Z</time>
      </trkpt>
      <trkpt lat="43.99104" lon="5.88724">
        <ele>503</ele>
        <time>2020-10-05T15:08:55.988Z</time>
      </trkpt>
      <trkpt lat="43.99104" lon="5.88724">
        <ele>503</ele>
        <time>2020-10-05T15:08:56.988Z</time>
      </trkpt>
      <trkpt lat="43.99104" lon="5.88724">
        <ele>503</ele>
        <time>2020-10-05T15:08:57.988Z</time>
      </trkpt>
      <trkpt lat="43.99104" lon="5.88724">
        <ele>503</ele>
        <time>2020-10-05T15:08:58.988Z</time>
      </trkpt>
      <trkpt lat="43.99104" lon="5.88724">
        <ele>503</ele>
        <time>2020-10-05T15:08:59.988Z</time>
      </trkpt>
      <trkpt lat="43.99104" lon="5.88725">
        <ele>503</ele>
        <time>2020-10-05T15:09:00.988Z</time>
      </trkpt>
      <trkpt lat="43.99104" lon="5.88725">
        <ele>503</ele>
        <time>2020-10-05T15:09:01.988Z</time>
      </trkpt>
      <trkpt lat="43.99104" lon="5.88725">
        <ele>503</ele>
        <time>2020-10-05T15:09:02.988Z</time>
      </trkpt>
      <trkpt lat="43.99104" lon="5.88725">
        <ele>503</ele>
        <time>2020-10-05T15:09:03.988Z</time>
      </trkpt>
      <trkpt lat="43.99104" lon="5.88725">
        <ele>503</ele>
        <time>2020-10-05T15:09:04.988Z</time>
      </trkpt>
      <trkpt lat="43.99104" lon="5.88724">
        <ele>503</ele>
        <time>2020-10-05T15:09:05.988Z</time>
      </trkpt>
      <trkpt lat="43.99104" lon="5.88725">
        <ele>503</ele>
        <time>2020-10-05T15:09:06.988Z</time>
      </trkpt>
      <trkpt lat="43.99104" lon="5.88725">
        <ele>503</ele>
        <time>2020-10-05T15:09:07.988Z</time>
      </trkpt>
      <trkpt lat="43.99104" lon="5.88725">
        <ele>503</ele>
        <time>2020-10-05T15:09:08.988Z</time>
      </trkpt>
      <trkpt lat="43.99104" lon="5.88725">
        <ele>503</ele>
        <time>2020-10-05T15:09:09.988Z</time>
      </trkpt>
      <trkpt lat="43.99104" lon="5.88724">
        <ele>503</ele>
        <time>2020-10-05T15:09:10.988Z</time>
      </trkpt>
      <trkpt lat="43.99104" lon="5.88724">
        <ele>503</ele>
        <time>2020-10-05T15:09:11.988Z</time>
      </trkpt>
      <trkpt lat="43.99103" lon="5.88724">
        <ele>503</ele>
        <time>2020-10-05T15:09:12.988Z</time>
      </trkpt>
      <trkpt lat="43.99103" lon="5.88724">
        <ele>504</ele>
        <time>2020-10-05T15:09:13.988Z</time>
      </trkpt>
      <trkpt lat="43.99103" lon="5.88725">
        <ele>504</ele>
        <time>2020-10-05T15:09:14.988Z</time>
      </trkpt>
      <trkpt lat="43.99103" lon="5.88725">
        <ele>504</ele>
        <time>2020-10-05T15:09:15.988Z</time>
      </trkpt>
      <trkpt lat="43.99103" lon="5.88725">
        <ele>504</ele>
        <time>2020-10-05T15:09:16.988Z</time>
      </trkpt>
      <trkpt lat="43.99103" lon="5.88725">
        <ele>504</ele>
        <time>2020-10-05T15:09:17.988Z</time>
      </trkpt>
      <trkpt lat="43.99103" lon="5.88725">
        <ele>504</ele>
        <time>2020-10-05T15:09:18.988Z</time>
      </trkpt>
      <trkpt lat="43.99103" lon="5.88725">
        <ele>504</ele>
        <time>2020-10-05T15:09:19.988Z</time>
      </trkpt>
      <trkpt lat="43.99103" lon="5.88725">
        <ele>504</ele>
        <time>2020-10-05T15:09:20.988Z</time>
      </trkpt>
      <trkpt lat="43.99103" lon="5.88725">
        <ele>504</ele>
        <time>2020-10-05T15:09:21.988Z</time>
      </trkpt>
      <trkpt lat="43.99103" lon="5.88725">
        <ele>504</ele>
        <time>2020-10-05T15:09:22.988Z</time>
      </trkpt>
      <trkpt lat="43.99103" lon="5.88725">
        <ele>504</ele>
        <time>2020-10-05T15:09:23.988Z</time>
      </trkpt>
      <trkpt lat="43.99103" lon="5.88725">
        <ele>504</ele>
        <time>2020-10-05T15:09:24.988Z</time>
      </trkpt>
      <trkpt lat="43.99102" lon="5.88725">
        <ele>504</ele>
        <time>2020-10-05T15:09:25.988Z</time>
      </trkpt>
      <trkpt lat="43.99102" lon="5.88725">
        <ele>505</ele>
        <time>2020-10-05T15:09:26.988Z</time>
      </trkpt>
      <trkpt lat="43.99102" lon="5.88725">
        <ele>505</ele>
        <time>2020-10-05T15:09:27.988Z</time>
      </trkpt>
      <trkpt lat="43.99102" lon="5.88725">
        <ele>505</ele>
        <time>2020-10-05T15:09:28.988Z</time>
      </trkpt>
      <trkpt lat="43.99102" lon="5.88725">
        <ele>505</ele>
        <time>2020-10-05T15:09:29.988Z</time>
      </trkpt>
      <trkpt lat="43.99102" lon="5.88725">
        <ele>505</ele>
        <time>2020-10-05T15:09:30.988Z</time>
      </trkpt>
      <trkpt lat="43.99102" lon="5.88725">
        <ele>505</ele>
        <time>2020-10-05T15:09:31.988Z</time>
      </trkpt>
      <trkpt lat="43.99102" lon="5.88725">
        <ele>505</ele>
        <time>2020-10-05T15:09:32.988Z</time>
      </trkpt>
      <trkpt lat="43.99102" lon="5.88725">
        <ele>505</ele>
        <time>2020-10-05T15:09:33.988Z</time>
      </trkpt>
      <trkpt lat="43.99102" lon="5.88725">
        <ele>505</ele>
        <time>2020-10-05T15:09:34.988Z</time>
      </trkpt>
      <trkpt lat="43.99102" lon="5.88725">
        <ele>505</ele>
        <time>2020-10-05T15:09:35.988Z</time>
      </trkpt>
      <trkpt lat="43.99102" lon="5.88725">
        <ele>505</ele>
        <time>2020-10-05T15:09:36.988Z</time>
      </trkpt>
      <trkpt lat="43.99102" lon="5.88725">
        <ele>505</ele>
        <time>2020-10-05T15:09:37.988Z</time>
      </trkpt>
      <trkpt lat="43.99102" lon="5.88725">
        <ele>505</ele>
        <time>2020-10-05T15:09:38.988Z</time>
      </trkpt>
      <trkpt lat="43.99101" lon="5.88725">
        <ele>505</ele>
        <time>2020-10-05T15:09:39.988Z</time>
      </trkpt>
      <trkpt lat="43.99101" lon="5.88725">
        <ele>505</ele>
        <time>2020-10-05T15:09:40.988Z</time>
      </trkpt>
      <trkpt lat="43.99101" lon="5.88725">
        <ele>505</ele>
        <time>2020-10-05T15:09:41.988Z</time>
      </trkpt>
      <trkpt lat="43.99101" lon="5.88725">
        <ele>505</ele>
        <time>2020-10-05T15:09:42.988Z</time>
      </trkpt>
      <trkpt lat="43.99101" lon="5.88725">
        <ele>505</ele>
        <time>2020-10-05T15:09:43.988Z</time>
      </trkpt>
      <trkpt lat="43.99101" lon="5.88725">
        <ele>505</ele>
        <time>2020-10-05T15:09:44.988Z</time>
      </trkpt>
      <trkpt lat="43.99101" lon="5.88725">
        <ele>505</ele>
        <time>2020-10-05T15:09:45.988Z</time>
      </trkpt>
      <trkpt lat="43.99101" lon="5.88725">
        <ele>505</ele>
        <time>2020-10-05T15:09:46.988Z</time>
      </trkpt>
      <trkpt lat="43.99101" lon="5.88725">
        <ele>505</ele>
        <time>2020-10-05T15:09:47.988Z</time>
      </trkpt>
      <trkpt lat="43.99101" lon="5.88726">
        <ele>505</ele>
        <time>2020-10-05T15:09:48.988Z</time>
      </trkpt>
      <trkpt lat="43.99101" lon="5.88726">
        <ele>505</ele>
        <time>2020-10-05T15:09:49.988Z</time>
      </trkpt>
      <trkpt lat="43.99101" lon="5.88726">
        <ele>505</ele>
        <time>2020-10-05T15:09:50.988Z</time>
      </trkpt>
      <trkpt lat="43.99101" lon="5.88726">
        <ele>505</ele>
        <time>2020-10-05T15:09:51.988Z</time>
      </trkpt>
      <trkpt lat="43.99101" lon="5.88726">
        <ele>505</ele>
        <time>2020-10-05T15:09:52.988Z</time>
      </trkpt>
      <trkpt lat="43.99101" lon="5.88726">
        <ele>506</ele>
        <time>2020-10-05T15:09:53.988Z</time>
      </trkpt>
      <trkpt lat="43.99101" lon="5.88726">
        <ele>506</ele>
        <time>2020-10-05T15:09:54.988Z</time>
      </trkpt>
      <trkpt lat="43.99101" lon="5.88726">
        <ele>506</ele>
        <time>2020-10-05T15:09:55.988Z</time>
      </trkpt>
      <trkpt lat="43.99101" lon="5.88726">
        <ele>506</ele>
        <time>2020-10-05T15:09:56.988Z</time>
      </trkpt>
      <trkpt lat="43.99101" lon="5.88726">
        <ele>506</ele>
        <time>2020-10-05T15:09:57.988Z</time>
      </trkpt>
      <trkpt lat="43.99102" lon="5.88726">
        <ele>506</ele>
        <time>2020-10-05T15:09:58.988Z</time>
      </trkpt>
      <trkpt lat="43.99102" lon="5.88726">
        <ele>506</ele>
        <time>2020-10-05T15:09:59.988Z</time>
      </trkpt>
      <trkpt lat="43.99102" lon="5.88726">
        <ele>506</ele>
        <time>2020-10-05T15:10:00.988Z</time>
      </trkpt>
      <trkpt lat="43.99102" lon="5.88726">
        <ele>506</ele>
        <time>2020-10-05T15:10:01.988Z</time>
      </trkpt>
      <trkpt lat="43.99102" lon="5.88726">
        <ele>506</ele>
        <time>2020-10-05T15:10:02.988Z</time>
      </trkpt>
      <trkpt lat="43.99102" lon="5.88726">
        <ele>507</ele>
        <time>2020-10-05T15:10:03.988Z</time>
      </trkpt>
      <trkpt lat="43.99102" lon="5.88726">
        <ele>507</ele>
        <time>2020-10-05T15:10:04.988Z</time>
      </trkpt>
      <trkpt lat="43.99102" lon="5.88725">
        <ele>507</ele>
        <time>2020-10-05T15:10:05.988Z</time>
      </trkpt>
      <trkpt lat="43.99103" lon="5.88725">
        <ele>507</ele>
        <time>2020-10-05T15:10:06.988Z</time>
      </trkpt>
      <trkpt lat="43.99103" lon="5.88725">
        <ele>507</ele>
        <time>2020-10-05T15:10:07.988Z</time>
      </trkpt>
      <trkpt lat="43.99103" lon="5.88725">
        <ele>507</ele>
        <time>2020-10-05T15:10:08.988Z</time>
      </trkpt>
      <trkpt lat="43.99103" lon="5.88725">
        <ele>507</ele>
        <time>2020-10-05T15:10:09.988Z</time>
      </trkpt>
      <trkpt lat="43.99103" lon="5.88726">
        <ele>507</ele>
        <time>2020-10-05T15:10:10.988Z</time>
      </trkpt>
      <trkpt lat="43.99103" lon="5.88725">
        <ele>507</ele>
        <time>2020-10-05T15:10:11.988Z</time>
      </trkpt>
      <trkpt lat="43.99103" lon="5.88725">
        <ele>507</ele>
        <time>2020-10-05T15:10:12.988Z</time>
      </trkpt>
      <trkpt lat="43.99103" lon="5.88725">
        <ele>507</ele>
        <time>2020-10-05T15:10:13.988Z</time>
      </trkpt>
      <trkpt lat="43.99103" lon="5.88725">
        <ele>507</ele>
        <time>2020-10-05T15:10:14.988Z</time>
      </trkpt>
      <trkpt lat="43.99103" lon="5.88725">
        <ele>507</ele>
        <time>2020-10-05T15:10:15.988Z</time>
      </trkpt>
      <trkpt lat="43.99103" lon="5.88725">
        <ele>507</ele>
        <time>2020-10-05T15:10:16.988Z</time>
      </trkpt>
      <trkpt lat="43.99103" lon="5.88725">
        <ele>507</ele>
        <time>2020-10-05T15:10:17.988Z</time>
      </trkpt>
      <trkpt lat="43.99103" lon="5.88725">
        <ele>507</ele>
        <time>2020-10-05T15:10:18.988Z</time>
      </trkpt>
      <trkpt lat="43.99103" lon="5.88725">
        <ele>507</ele>
        <time>2020-10-05T15:10:19.988Z</time>
      </trkpt>
      <trkpt lat="43.99103" lon="5.88725">
        <ele>507</ele>
        <time>2020-10-05T15:10:20.988Z</time>
      </trkpt>
      <trkpt lat="43.99103" lon="5.88725">
        <ele>507</ele>
        <time>2020-10-05T15:10:21.988Z</time>
      </trkpt>
      <trkpt lat="43.99103" lon="5.88725">
        <ele>507</ele>
        <time>2020-10-05T15:10:22.988Z</time>
      </trkpt>
      <trkpt lat="43.99103" lon="5.88725">
        <ele>507</ele>
        <time>2020-10-05T15:10:23.988Z</time>
      </trkpt>
      <trkpt lat="43.99103" lon="5.88725">
        <ele>507</ele>
        <time>2020-10-05T15:10:24.988Z</time>
      </trkpt>
      <trkpt lat="43.99103" lon="5.88725">
        <ele>507</ele>
        <time>2020-10-05T15:10:25.988Z</time>
      </trkpt>
      <trkpt lat="43.99103" lon="5.88725">
        <ele>507</ele>
        <time>2020-10-05T15:10:26.988Z</time>
      </trkpt>
      <trkpt lat="43.99103" lon="5.88725">
        <ele>507</ele>
        <time>2020-10-05T15:10:27.988Z</time>
      </trkpt>
      <trkpt lat="43.99103" lon="5.88725">
        <ele>507</ele>
        <time>2020-10-05T15:10:28.988Z</time>
      </trkpt>
      <trkpt lat="43.99103" lon="5.88725">
        <ele>508</ele>
        <time>2020-10-05T15:10:29.988Z</time>
      </trkpt>
      <trkpt lat="43.99102" lon="5.88725">
        <ele>508</ele>
        <time>2020-10-05T15:10:30.988Z</time>
      </trkpt>
      <trkpt lat="43.99102" lon="5.88725">
        <ele>508</ele>
        <time>2020-10-05T15:10:31.988Z</time>
      </trkpt>
      <trkpt lat="43.99102" lon="5.88726">
        <ele>508</ele>
        <time>2020-10-05T15:10:32.988Z</time>
      </trkpt>
      <trkpt lat="43.99102" lon="5.88726">
        <ele>508</ele>
        <time>2020-10-05T15:10:33.988Z</time>
      </trkpt>
      <trkpt lat="43.99102" lon="5.88725">
        <ele>508</ele>
        <time>2020-10-05T15:10:34.988Z</time>
      </trkpt>
      <trkpt lat="43.99101" lon="5.88725">
        <ele>508</ele>
        <time>2020-10-05T15:10:35.988Z</time>
      </trkpt>
      <trkpt lat="43.99101" lon="5.88726">
        <ele>507</ele>
        <time>2020-10-05T15:10:36.988Z</time>
      </trkpt>
      <trkpt lat="43.99101" lon="5.88726">
        <ele>507</ele>
        <time>2020-10-05T15:10:37.988Z</time>
      </trkpt>
      <trkpt lat="43.991" lon="5.88726">
        <ele>507</ele>
        <time>2020-10-05T15:10:38.988Z</time>
      </trkpt>
      <trkpt lat="43.991" lon="5.88726">
        <ele>507</ele>
        <time>2020-10-05T15:10:39.988Z</time>
      </trkpt>
      <trkpt lat="43.991" lon="5.88726">
        <ele>506</ele>
        <time>2020-10-05T15:10:40.988Z</time>
      </trkpt>
      <trkpt lat="43.991" lon="5.88726">
        <ele>506</ele>
        <time>2020-10-05T15:10:41.988Z</time>
      </trkpt>
      <trkpt lat="43.99099" lon="5.88725">
        <ele>506</ele>
        <time>2020-10-05T15:10:42.988Z</time>
      </trkpt>
      <trkpt lat="43.99099" lon="5.88725">
        <ele>506</ele>
        <time>2020-10-05T15:10:43.988Z</time>
      </trkpt>
      <trkpt lat="43.99099" lon="5.88725">
        <ele>505</ele>
        <time>2020-10-05T15:10:44.988Z</time>
      </trkpt>
      <trkpt lat="43.99098" lon="5.88724">
        <ele>505</ele>
        <time>2020-10-05T15:10:45.988Z</time>
      </trkpt>
      <trkpt lat="43.99098" lon="5.88724">
        <ele>505</ele>
        <time>2020-10-05T15:10:46.988Z</time>
      </trkpt>
      <trkpt lat="43.99097" lon="5.88724">
        <ele>505</ele>
        <time>2020-10-05T15:10:47.988Z</time>
      </trkpt>
      <trkpt lat="43.99097" lon="5.88724">
        <ele>504</ele>
        <time>2020-10-05T15:10:48.988Z</time>
      </trkpt>
      <trkpt lat="43.99096" lon="5.88723">
        <ele>504</ele>
        <time>2020-10-05T15:10:49.988Z</time>
      </trkpt>
      <trkpt lat="43.99096" lon="5.88723">
        <ele>504</ele>
        <time>2020-10-05T15:10:50.988Z</time>
      </trkpt>
      <trkpt lat="43.99096" lon="5.88723">
        <ele>504</ele>
        <time>2020-10-05T15:10:51.988Z</time>
      </trkpt>
      <trkpt lat="43.99096" lon="5.88723">
        <ele>503</ele>
        <time>2020-10-05T15:10:52.988Z</time>
      </trkpt>
      <trkpt lat="43.99096" lon="5.88723">
        <ele>503</ele>
        <time>2020-10-05T15:10:53.988Z</time>
      </trkpt>
      <trkpt lat="43.99096" lon="5.88723">
        <ele>503</ele>
        <time>2020-10-05T15:10:54.988Z</time>
      </trkpt>
      <trkpt lat="43.99096" lon="5.88723">
        <ele>503</ele>
        <time>2020-10-05T15:10:55.988Z</time>
      </trkpt>
      <trkpt lat="43.99096" lon="5.88722">
        <ele>502</ele>
        <time>2020-10-05T15:10:56.988Z</time>
      </trkpt>
      <trkpt lat="43.99096" lon="5.88721">
        <ele>502</ele>
        <time>2020-10-05T15:10:57.988Z</time>
      </trkpt>
      <trkpt lat="43.99095" lon="5.88721">
        <ele>502</ele>
        <time>2020-10-05T15:10:58.988Z</time>
      </trkpt>
      <trkpt lat="43.99094" lon="5.8872">
        <ele>502</ele>
        <time>2020-10-05T15:10:59.988Z</time>
      </trkpt>
      <trkpt lat="43.99094" lon="5.8872">
        <ele>501</ele>
        <time>2020-10-05T15:11:00.988Z</time>
      </trkpt>
      <trkpt lat="43.99093" lon="5.8872">
        <ele>501</ele>
        <time>2020-10-05T15:11:01.988Z</time>
      </trkpt>
      <trkpt lat="43.99092" lon="5.8872">
        <ele>501</ele>
        <time>2020-10-05T15:11:02.988Z</time>
      </trkpt>
      <trkpt lat="43.99092" lon="5.8872">
        <ele>501</ele>
        <time>2020-10-05T15:11:03.988Z</time>
      </trkpt>
      <trkpt lat="43.99091" lon="5.8872">
        <ele>501</ele>
        <time>2020-10-05T15:11:04.988Z</time>
      </trkpt>
      <trkpt lat="43.9909" lon="5.8872">
        <ele>501</ele>
        <time>2020-10-05T15:11:05.988Z</time>
      </trkpt>
      <trkpt lat="43.9909" lon="5.88721">
        <ele>501</ele>
        <time>2020-10-05T15:11:06.988Z</time>
      </trkpt>
      <trkpt lat="43.99089" lon="5.88722">
        <ele>501</ele>
        <time>2020-10-05T15:11:07.988Z</time>
      </trkpt>
      <trkpt lat="43.99088" lon="5.88722">
        <ele>500</ele>
        <time>2020-10-05T15:11:08.988Z</time>
      </trkpt>
      <trkpt lat="43.99088" lon="5.88723">
        <ele>500</ele>
        <time>2020-10-05T15:11:09.988Z</time>
      </trkpt>
      <trkpt lat="43.99087" lon="5.88723">
        <ele>500</ele>
        <time>2020-10-05T15:11:10.988Z</time>
      </trkpt>
      <trkpt lat="43.99086" lon="5.88724">
        <ele>500</ele>
        <time>2020-10-05T15:11:11.988Z</time>
      </trkpt>
      <trkpt lat="43.99085" lon="5.88725">
        <ele>500</ele>
        <time>2020-10-05T15:11:12.988Z</time>
      </trkpt>
      <trkpt lat="43.99085" lon="5.88726">
        <ele>500</ele>
        <time>2020-10-05T15:11:13.988Z</time>
      </trkpt>
      <trkpt lat="43.99084" lon="5.88727">
        <ele>499</ele>
        <time>2020-10-05T15:11:14.988Z</time>
      </trkpt>
      <trkpt lat="43.99083" lon="5.88727">
        <ele>499</ele>
        <time>2020-10-05T15:11:15.988Z</time>
      </trkpt>
      <trkpt lat="43.99083" lon="5.88728">
        <ele>499</ele>
        <time>2020-10-05T15:11:16.988Z</time>
      </trkpt>
      <trkpt lat="43.99082" lon="5.88728">
        <ele>499</ele>
        <time>2020-10-05T15:11:17.988Z</time>
      </trkpt>
      <trkpt lat="43.99082" lon="5.88729">
        <ele>499</ele>
        <time>2020-10-05T15:11:18.988Z</time>
      </trkpt>
      <trkpt lat="43.99082" lon="5.88729">
        <ele>499</ele>
        <time>2020-10-05T15:11:19.988Z</time>
      </trkpt>
      <trkpt lat="43.99082" lon="5.88729">
        <ele>499</ele>
        <time>2020-10-05T15:11:20.988Z</time>
      </trkpt>
      <trkpt lat="43.99082" lon="5.88729">
        <ele>499</ele>
        <time>2020-10-05T15:11:21.988Z</time>
      </trkpt>
      <trkpt lat="43.99082" lon="5.8873">
        <ele>499</ele>
        <time>2020-10-05T15:11:22.988Z</time>
      </trkpt>
      <trkpt lat="43.99082" lon="5.8873">
        <ele>499</ele>
        <time>2020-10-05T15:11:23.988Z</time>
      </trkpt>
      <trkpt lat="43.99082" lon="5.8873">
        <ele>499</ele>
        <time>2020-10-05T15:11:24.988Z</time>
      </trkpt>
      <trkpt lat="43.99082" lon="5.8873">
        <ele>499</ele>
        <time>2020-10-05T15:11:25.988Z</time>
      </trkpt>
      <trkpt lat="43.99082" lon="5.8873">
        <ele>499</ele>
        <time>2020-10-05T15:11:26.988Z</time>
      </trkpt>
      <trkpt lat="43.99082" lon="5.8873">
        <ele>500</ele>
        <time>2020-10-05T15:11:27.988Z</time>
      </trkpt>
      <trkpt lat="43.99082" lon="5.8873">
        <ele>500</ele>
        <time>2020-10-05T15:11:28.988Z</time>
      </trkpt>
      <trkpt lat="43.99082" lon="5.8873">
        <ele>500</ele>
        <time>2020-10-05T15:11:29.988Z</time>
      </trkpt>
      <trkpt lat="43.99082" lon="5.88731">
        <ele>500</ele>
        <time>2020-10-05T15:11:30.988Z</time>
      </trkpt>
      <trkpt lat="43.99082" lon="5.88731">
        <ele>500</ele>
        <time>2020-10-05T15:11:31.988Z</time>
      </trkpt>
      <trkpt lat="43.99082" lon="5.88731">
        <ele>500</ele>
        <time>2020-10-05T15:11:32.988Z</time>
      </trkpt>
      <trkpt lat="43.99083" lon="5.88731">
        <ele>500</ele>
        <time>2020-10-05T15:11:33.988Z</time>
      </trkpt>
      <trkpt lat="43.99083" lon="5.88731">
        <ele>500</ele>
        <time>2020-10-05T15:11:34.988Z</time>
      </trkpt>
      <trkpt lat="43.99082" lon="5.88731">
        <ele>500</ele>
        <time>2020-10-05T15:11:35.988Z</time>
      </trkpt>
      <trkpt lat="43.99083" lon="5.88731">
        <ele>500</ele>
        <time>2020-10-05T15:11:36.988Z</time>
      </trkpt>
      <trkpt lat="43.99083" lon="5.88731">
        <ele>500</ele>
        <time>2020-10-05T15:11:37.988Z</time>
      </trkpt>
      <trkpt lat="43.99083" lon="5.88731">
        <ele>500</ele>
        <time>2020-10-05T15:11:38.988Z</time>
      </trkpt>
      <trkpt lat="43.99083" lon="5.88731">
        <ele>500</ele>
        <time>2020-10-05T15:11:39.988Z</time>
      </trkpt>
      <trkpt lat="43.99083" lon="5.88731">
        <ele>500</ele>
        <time>2020-10-05T15:11:40.988Z</time>
      </trkpt>
      <trkpt lat="43.99083" lon="5.88731">
        <ele>500</ele>
        <time>2020-10-05T15:11:41.988Z</time>
      </trkpt>
      <trkpt lat="43.99083" lon="5.88731">
        <ele>500</ele>
        <time>2020-10-05T15:11:42.988Z</time>
      </trkpt>
      <trkpt lat="43.99083" lon="5.88731">
        <ele>500</ele>
        <time>2020-10-05T15:11:43.988Z</time>
      </trkpt>
      <trkpt lat="43.99083" lon="5.8873">
        <ele>500</ele>
        <time>2020-10-05T15:11:44.988Z</time>
      </trkpt>
      <trkpt lat="43.99083" lon="5.8873">
        <ele>499</ele>
        <time>2020-10-05T15:11:45.988Z</time>
      </trkpt>
      <trkpt lat="43.99084" lon="5.8873">
        <ele>499</ele>
        <time>2020-10-05T15:11:46.988Z</time>
      </trkpt>
      <trkpt lat="43.99084" lon="5.88729">
        <ele>499</ele>
        <time>2020-10-05T15:11:47.988Z</time>
      </trkpt>
      <trkpt lat="43.99085" lon="5.88729">
        <ele>499</ele>
        <time>2020-10-05T15:11:48.988Z</time>
      </trkpt>
      <trkpt lat="43.99085" lon="5.88728">
        <ele>499</ele>
        <time>2020-10-05T15:11:49.988Z</time>
      </trkpt>
      <trkpt lat="43.99086" lon="5.88727">
        <ele>499</ele>
        <time>2020-10-05T15:11:50.988Z</time>
      </trkpt>
      <trkpt lat="43.99087" lon="5.88727">
        <ele>499</ele>
        <time>2020-10-05T15:11:51.988Z</time>
      </trkpt>
      <trkpt lat="43.99087" lon="5.88726">
        <ele>499</ele>
        <time>2020-10-05T15:11:52.988Z</time>
      </trkpt>
      <trkpt lat="43.99087" lon="5.88726">
        <ele>499</ele>
        <time>2020-10-05T15:11:53.988Z</time>
      </trkpt>
      <trkpt lat="43.99087" lon="5.88726">
        <ele>499</ele>
        <time>2020-10-05T15:11:54.988Z</time>
      </trkpt>
      <trkpt lat="43.99087" lon="5.88726">
        <ele>499</ele>
        <time>2020-10-05T15:11:55.988Z</time>
      </trkpt>
      <trkpt lat="43.99087" lon="5.88725">
        <ele>499</ele>
        <time>2020-10-05T15:11:56.988Z</time>
      </trkpt>
      <trkpt lat="43.99088" lon="5.88725">
        <ele>499</ele>
        <time>2020-10-05T15:11:57.988Z</time>
      </trkpt>
      <trkpt lat="43.99088" lon="5.88725">
        <ele>499</ele>
        <time>2020-10-05T15:11:58.988Z</time>
      </trkpt>
      <trkpt lat="43.99088" lon="5.88725">
        <ele>499</ele>
        <time>2020-10-05T15:11:59.988Z</time>
      </trkpt>
      <trkpt lat="43.99088" lon="5.88724">
        <ele>499</ele>
        <time>2020-10-05T15:12:00.988Z</time>
      </trkpt>
      <trkpt lat="43.99088" lon="5.88724">
        <ele>499</ele>
        <time>2020-10-05T15:12:01.988Z</time>
      </trkpt>
      <trkpt lat="43.99088" lon="5.88724">
        <ele>499</ele>
        <time>2020-10-05T15:12:02.988Z</time>
      </trkpt>
      <trkpt lat="43.99088" lon="5.88724">
        <ele>499</ele>
        <time>2020-10-05T15:12:03.988Z</time>
      </trkpt>
      <trkpt lat="43.99089" lon="5.88724">
        <ele>499</ele>
        <time>2020-10-05T15:12:04.988Z</time>
      </trkpt>
      <trkpt lat="43.99089" lon="5.88723">
        <ele>499</ele>
        <time>2020-10-05T15:12:05.988Z</time>
      </trkpt>
      <trkpt lat="43.9909" lon="5.88722">
        <ele>499</ele>
        <time>2020-10-05T15:12:06.988Z</time>
      </trkpt>
      <trkpt lat="43.9909" lon="5.88721">
        <ele>499</ele>
        <time>2020-10-05T15:12:07.988Z</time>
      </trkpt>
      <trkpt lat="43.9909" lon="5.8872">
        <ele>499</ele>
        <time>2020-10-05T15:12:08.988Z</time>
      </trkpt>
      <trkpt lat="43.99089" lon="5.88719">
        <ele>499</ele>
        <time>2020-10-05T15:12:09.988Z</time>
      </trkpt>
      <trkpt lat="43.99089" lon="5.88717">
        <ele>499</ele>
        <time>2020-10-05T15:12:10.988Z</time>
      </trkpt>
      <trkpt lat="43.99089" lon="5.88716">
        <ele>499</ele>
        <time>2020-10-05T15:12:11.988Z</time>
      </trkpt>
      <trkpt lat="43.99089" lon="5.88715">
        <ele>499</ele>
        <time>2020-10-05T15:12:12.988Z</time>
      </trkpt>
      <trkpt lat="43.99089" lon="5.88714">
        <ele>499</ele>
        <time>2020-10-05T15:12:13.988Z</time>
      </trkpt>
      <trkpt lat="43.99089" lon="5.88713">
        <ele>499</ele>
        <time>2020-10-05T15:12:14.988Z</time>
      </trkpt>
      <trkpt lat="43.99089" lon="5.88713">
        <ele>499</ele>
        <time>2020-10-05T15:12:15.988Z</time>
      </trkpt>
      <trkpt lat="43.9909" lon="5.88712">
        <ele>498</ele>
        <time>2020-10-05T15:12:16.988Z</time>
      </trkpt>
      <trkpt lat="43.99089" lon="5.88712">
        <ele>498</ele>
        <time>2020-10-05T15:12:17.988Z</time>
      </trkpt>
      <trkpt lat="43.99089" lon="5.88712">
        <ele>498</ele>
        <time>2020-10-05T15:12:18.988Z</time>
      </trkpt>
      <trkpt lat="43.99089" lon="5.88712">
        <ele>498</ele>
        <time>2020-10-05T15:12:19.988Z</time>
      </trkpt>
      <trkpt lat="43.9909" lon="5.88712">
        <ele>498</ele>
        <time>2020-10-05T15:12:20.988Z</time>
      </trkpt>
      <trkpt lat="43.9909" lon="5.88712">
        <ele>498</ele>
        <time>2020-10-05T15:12:21.988Z</time>
      </trkpt>
      <trkpt lat="43.9909" lon="5.88712">
        <ele>498</ele>
        <time>2020-10-05T15:12:22.988Z</time>
      </trkpt>
      <trkpt lat="43.9909" lon="5.88713">
        <ele>498</ele>
        <time>2020-10-05T15:12:23.988Z</time>
      </trkpt>
      <trkpt lat="43.99091" lon="5.88713">
        <ele>498</ele>
        <time>2020-10-05T15:12:24.988Z</time>
      </trkpt>
      <trkpt lat="43.99091" lon="5.88713">
        <ele>498</ele>
        <time>2020-10-05T15:12:25.988Z</time>
      </trkpt>
      <trkpt lat="43.99091" lon="5.88713">
        <ele>498</ele>
        <time>2020-10-05T15:12:26.988Z</time>
      </trkpt>
      <trkpt lat="43.99091" lon="5.88713">
        <ele>498</ele>
        <time>2020-10-05T15:12:27.988Z</time>
      </trkpt>
      <trkpt lat="43.99091" lon="5.88713">
        <ele>498</ele>
        <time>2020-10-05T15:12:28.988Z</time>
      </trkpt>
      <trkpt lat="43.99091" lon="5.88714">
        <ele>498</ele>
        <time>2020-10-05T15:12:29.988Z</time>
      </trkpt>
      <trkpt lat="43.99092" lon="5.88714">
        <ele>498</ele>
        <time>2020-10-05T15:12:30.988Z</time>
      </trkpt>
      <trkpt lat="43.99092" lon="5.88716">
        <ele>498</ele>
        <time>2020-10-05T15:12:31.988Z</time>
      </trkpt>
      <trkpt lat="43.99092" lon="5.88717">
        <ele>498</ele>
        <time>2020-10-05T15:12:32.988Z</time>
      </trkpt>
      <trkpt lat="43.99092" lon="5.88718">
        <ele>498</ele>
        <time>2020-10-05T15:12:33.988Z</time>
      </trkpt>
      <trkpt lat="43.99093" lon="5.88718">
        <ele>498</ele>
        <time>2020-10-05T15:12:34.988Z</time>
      </trkpt>
      <trkpt lat="43.99093" lon="5.88719">
        <ele>498</ele>
        <time>2020-10-05T15:12:35.988Z</time>
      </trkpt>
      <trkpt lat="43.99093" lon="5.88719">
        <ele>498</ele>
        <time>2020-10-05T15:12:36.988Z</time>
      </trkpt>
      <trkpt lat="43.99093" lon="5.88719">
        <ele>498</ele>
        <time>2020-10-05T15:12:37.988Z</time>
      </trkpt>
      <trkpt lat="43.99093" lon="5.88719">
        <ele>498</ele>
        <time>2020-10-05T15:12:38.988Z</time>
      </trkpt>
      <trkpt lat="43.99092" lon="5.8872">
        <ele>497</ele>
        <time>2020-10-05T15:12:39.988Z</time>
      </trkpt>
      <trkpt lat="43.99092" lon="5.8872">
        <ele>497</ele>
        <time>2020-10-05T15:12:40.988Z</time>
      </trkpt>
      <trkpt lat="43.99091" lon="5.88721">
        <ele>497</ele>
        <time>2020-10-05T15:12:41.988Z</time>
      </trkpt>
      <trkpt lat="43.99091" lon="5.88722">
        <ele>497</ele>
        <time>2020-10-05T15:12:42.988Z</time>
      </trkpt>
      <trkpt lat="43.9909" lon="5.88722">
        <ele>497</ele>
        <time>2020-10-05T15:12:43.988Z</time>
      </trkpt>
      <trkpt lat="43.99089" lon="5.88723">
        <ele>497</ele>
        <time>2020-10-05T15:12:44.988Z</time>
      </trkpt>
      <trkpt lat="43.99088" lon="5.88724">
        <ele>497</ele>
        <time>2020-10-05T15:12:45.988Z</time>
      </trkpt>
      <trkpt lat="43.99088" lon="5.88725">
        <ele>498</ele>
        <time>2020-10-05T15:12:46.988Z</time>
      </trkpt>
      <trkpt lat="43.99087" lon="5.88725">
        <ele>497</ele>
        <time>2020-10-05T15:12:47.988Z</time>
      </trkpt>
      <trkpt lat="43.99086" lon="5.88726">
        <ele>497</ele>
        <time>2020-10-05T15:12:48.988Z</time>
      </trkpt>
      <trkpt lat="43.99085" lon="5.88727">
        <ele>497</ele>
        <time>2020-10-05T15:12:49.988Z</time>
      </trkpt>
      <trkpt lat="43.99084" lon="5.88728">
        <ele>497</ele>
        <time>2020-10-05T15:12:50.988Z</time>
      </trkpt>
      <trkpt lat="43.99083" lon="5.88729">
        <ele>497</ele>
        <time>2020-10-05T15:12:51.988Z</time>
      </trkpt>
      <trkpt lat="43.99082" lon="5.8873">
        <ele>497</ele>
        <time>2020-10-05T15:12:52.988Z</time>
      </trkpt>
      <trkpt lat="43.99081" lon="5.88731">
        <ele>497</ele>
        <time>2020-10-05T15:12:53.988Z</time>
      </trkpt>
      <trkpt lat="43.9908" lon="5.88732">
        <ele>497</ele>
        <time>2020-10-05T15:12:54.988Z</time>
      </trkpt>
      <trkpt lat="43.99079" lon="5.88733">
        <ele>497</ele>
        <time>2020-10-05T15:12:55.988Z</time>
      </trkpt>
      <trkpt lat="43.99079" lon="5.88734">
        <ele>497</ele>
        <time>2020-10-05T15:12:56.988Z</time>
      </trkpt>
      <trkpt lat="43.99078" lon="5.88735">
        <ele>498</ele>
        <time>2020-10-05T15:12:57.988Z</time>
      </trkpt>
      <trkpt lat="43.99077" lon="5.88736">
        <ele>498</ele>
        <time>2020-10-05T15:12:58.988Z</time>
      </trkpt>
      <trkpt lat="43.99075" lon="5.88737">
        <ele>498</ele>
        <time>2020-10-05T15:12:59.988Z</time>
      </trkpt>
      <trkpt lat="43.99074" lon="5.88739">
        <ele>498</ele>
        <time>2020-10-05T15:13:00.988Z</time>
      </trkpt>
      <trkpt lat="43.99073" lon="5.8874">
        <ele>498</ele>
        <time>2020-10-05T15:13:01.988Z</time>
      </trkpt>
      <trkpt lat="43.99072" lon="5.88741">
        <ele>498</ele>
        <time>2020-10-05T15:13:02.988Z</time>
      </trkpt>
      <trkpt lat="43.99071" lon="5.88742">
        <ele>498</ele>
        <time>2020-10-05T15:13:03.988Z</time>
      </trkpt>
      <trkpt lat="43.9907" lon="5.88743">
        <ele>498</ele>
        <time>2020-10-05T15:13:04.988Z</time>
      </trkpt>
      <trkpt lat="43.99069" lon="5.88744">
        <ele>498</ele>
        <time>2020-10-05T15:13:05.988Z</time>
      </trkpt>
      <trkpt lat="43.99068" lon="5.88745">
        <ele>498</ele>
        <time>2020-10-05T15:13:06.988Z</time>
      </trkpt>
      <trkpt lat="43.99067" lon="5.88746">
        <ele>498</ele>
        <time>2020-10-05T15:13:07.988Z</time>
      </trkpt>
      <trkpt lat="43.99066" lon="5.88747">
        <ele>498</ele>
        <time>2020-10-05T15:13:08.988Z</time>
      </trkpt>
      <trkpt lat="43.99065" lon="5.88748">
        <ele>498</ele>
        <time>2020-10-05T15:13:09.988Z</time>
      </trkpt>
      <trkpt lat="43.99064" lon="5.88749">
        <ele>498</ele>
        <time>2020-10-05T15:13:10.988Z</time>
      </trkpt>
      <trkpt lat="43.99063" lon="5.88749">
        <ele>499</ele>
        <time>2020-10-05T15:13:11.988Z</time>
      </trkpt>
      <trkpt lat="43.99062" lon="5.8875">
        <ele>499</ele>
        <time>2020-10-05T15:13:12.988Z</time>
      </trkpt>
      <trkpt lat="43.99061" lon="5.88751">
        <ele>499</ele>
        <time>2020-10-05T15:13:13.988Z</time>
      </trkpt>
      <trkpt lat="43.9906" lon="5.88752">
        <ele>499</ele>
        <time>2020-10-05T15:13:14.988Z</time>
      </trkpt>
      <trkpt lat="43.99059" lon="5.88753">
        <ele>499</ele>
        <time>2020-10-05T15:13:15.988Z</time>
      </trkpt>
      <trkpt lat="43.99058" lon="5.88754">
        <ele>499</ele>
        <time>2020-10-05T15:13:16.988Z</time>
      </trkpt>
      <trkpt lat="43.99057" lon="5.88755">
        <ele>500</ele>
        <time>2020-10-05T15:13:17.988Z</time>
      </trkpt>
      <trkpt lat="43.99055" lon="5.88756">
        <ele>500</ele>
        <time>2020-10-05T15:13:18.988Z</time>
      </trkpt>
      <trkpt lat="43.99054" lon="5.88757">
        <ele>500</ele>
        <time>2020-10-05T15:13:19.988Z</time>
      </trkpt>
      <trkpt lat="43.99054" lon="5.88757">
        <ele>500</ele>
        <time>2020-10-05T15:13:20.988Z</time>
      </trkpt>
      <trkpt lat="43.99053" lon="5.88758">
        <ele>500</ele>
        <time>2020-10-05T15:13:21.988Z</time>
      </trkpt>
      <trkpt lat="43.99051" lon="5.88759">
        <ele>501</ele>
        <time>2020-10-05T15:13:22.988Z</time>
      </trkpt>
      <trkpt lat="43.9905" lon="5.88759">
        <ele>501</ele>
        <time>2020-10-05T15:13:23.988Z</time>
      </trkpt>
      <trkpt lat="43.9905" lon="5.8876">
        <ele>501</ele>
        <time>2020-10-05T15:13:24.988Z</time>
      </trkpt>
      <trkpt lat="43.99049" lon="5.8876">
        <ele>501</ele>
        <time>2020-10-05T15:13:25.988Z</time>
      </trkpt>
      <trkpt lat="43.99048" lon="5.88761">
        <ele>501</ele>
        <time>2020-10-05T15:13:26.988Z</time>
      </trkpt>
      <trkpt lat="43.99047" lon="5.88761">
        <ele>502</ele>
        <time>2020-10-05T15:13:27.988Z</time>
      </trkpt>
      <trkpt lat="43.99046" lon="5.88762">
        <ele>502</ele>
        <time>2020-10-05T15:13:28.988Z</time>
      </trkpt>
      <trkpt lat="43.99045" lon="5.88762">
        <ele>502</ele>
        <time>2020-10-05T15:13:29.988Z</time>
      </trkpt>
      <trkpt lat="43.99044" lon="5.88762">
        <ele>502</ele>
        <time>2020-10-05T15:13:30.988Z</time>
      </trkpt>
      <trkpt lat="43.99043" lon="5.88762">
        <ele>502</ele>
        <time>2020-10-05T15:13:31.988Z</time>
      </trkpt>
      <trkpt lat="43.99042" lon="5.88762">
        <ele>503</ele>
        <time>2020-10-05T15:13:32.988Z</time>
      </trkpt>
      <trkpt lat="43.99041" lon="5.88762">
        <ele>503</ele>
        <time>2020-10-05T15:13:33.988Z</time>
      </trkpt>
      <trkpt lat="43.9904" lon="5.88762">
        <ele>503</ele>
        <time>2020-10-05T15:13:34.988Z</time>
      </trkpt>
      <trkpt lat="43.99038" lon="5.88762">
        <ele>503</ele>
        <time>2020-10-05T15:13:35.988Z</time>
      </trkpt>
      <trkpt lat="43.99037" lon="5.88762">
        <ele>503</ele>
        <time>2020-10-05T15:13:36.988Z</time>
      </trkpt>
      <trkpt lat="43.99036" lon="5.88762">
        <ele>503</ele>
        <time>2020-10-05T15:13:37.988Z</time>
      </trkpt>
      <trkpt lat="43.99035" lon="5.88762">
        <ele>503</ele>
        <time>2020-10-05T15:13:38.988Z</time>
      </trkpt>
      <trkpt lat="43.99034" lon="5.88762">
        <ele>503</ele>
        <time>2020-10-05T15:13:39.988Z</time>
      </trkpt>
      <trkpt lat="43.99033" lon="5.88762">
        <ele>503</ele>
        <time>2020-10-05T15:13:40.988Z</time>
      </trkpt>
      <trkpt lat="43.99032" lon="5.88763">
        <ele>503</ele>
        <time>2020-10-05T15:13:41.988Z</time>
      </trkpt>
      <trkpt lat="43.99031" lon="5.88763">
        <ele>503</ele>
        <time>2020-10-05T15:13:42.988Z</time>
      </trkpt>
      <trkpt lat="43.9903" lon="5.88763">
        <ele>503</ele>
        <time>2020-10-05T15:13:43.988Z</time>
      </trkpt>
      <trkpt lat="43.99029" lon="5.88763">
        <ele>503</ele>
        <time>2020-10-05T15:13:44.988Z</time>
      </trkpt>
      <trkpt lat="43.99028" lon="5.88763">
        <ele>503</ele>
        <time>2020-10-05T15:13:45.988Z</time>
      </trkpt>
      <trkpt lat="43.99027" lon="5.88764">
        <ele>503</ele>
        <time>2020-10-05T15:13:46.988Z</time>
      </trkpt>
      <trkpt lat="43.99026" lon="5.88763">
        <ele>504</ele>
        <time>2020-10-05T15:13:47.988Z</time>
      </trkpt>
      <trkpt lat="43.99025" lon="5.88763">
        <ele>504</ele>
        <time>2020-10-05T15:13:48.988Z</time>
      </trkpt>
      <trkpt lat="43.99024" lon="5.88762">
        <ele>504</ele>
        <time>2020-10-05T15:13:49.988Z</time>
      </trkpt>
      <trkpt lat="43.99023" lon="5.88762">
        <ele>504</ele>
        <time>2020-10-05T15:13:50.988Z</time>
      </trkpt>
      <trkpt lat="43.99022" lon="5.88761">
        <ele>503</ele>
        <time>2020-10-05T15:13:51.988Z</time>
      </trkpt>
      <trkpt lat="43.99021" lon="5.88761">
        <ele>503</ele>
        <time>2020-10-05T15:13:52.988Z</time>
      </trkpt>
      <trkpt lat="43.9902" lon="5.8876">
        <ele>503</ele>
        <time>2020-10-05T15:13:53.988Z</time>
      </trkpt>
      <trkpt lat="43.99019" lon="5.8876">
        <ele>503</ele>
        <time>2020-10-05T15:13:54.988Z</time>
      </trkpt>
      <trkpt lat="43.99018" lon="5.8876">
        <ele>503</ele>
        <time>2020-10-05T15:13:55.988Z</time>
      </trkpt>
      <trkpt lat="43.99017" lon="5.88759">
        <ele>503</ele>
        <time>2020-10-05T15:13:56.988Z</time>
      </trkpt>
      <trkpt lat="43.99016" lon="5.88759">
        <ele>503</ele>
        <time>2020-10-05T15:13:57.988Z</time>
      </trkpt>
      <trkpt lat="43.99015" lon="5.88758">
        <ele>503</ele>
        <time>2020-10-05T15:13:58.988Z</time>
      </trkpt>
      <trkpt lat="43.99014" lon="5.88758">
        <ele>503</ele>
        <time>2020-10-05T15:13:59.988Z</time>
      </trkpt>
      <trkpt lat="43.99013" lon="5.88758">
        <ele>503</ele>
        <time>2020-10-05T15:14:00.988Z</time>
      </trkpt>
      <trkpt lat="43.99011" lon="5.88758">
        <ele>503</ele>
        <time>2020-10-05T15:14:01.988Z</time>
      </trkpt>
      <trkpt lat="43.9901" lon="5.88757">
        <ele>503</ele>
        <time>2020-10-05T15:14:02.988Z</time>
      </trkpt>
      <trkpt lat="43.99009" lon="5.88757">
        <ele>504</ele>
        <time>2020-10-05T15:14:03.988Z</time>
      </trkpt>
      <trkpt lat="43.99008" lon="5.88757">
        <ele>504</ele>
        <time>2020-10-05T15:14:04.988Z</time>
      </trkpt>
      <trkpt lat="43.99006" lon="5.88757">
        <ele>504</ele>
        <time>2020-10-05T15:14:05.988Z</time>
      </trkpt>
      <trkpt lat="43.99005" lon="5.88757">
        <ele>504</ele>
        <time>2020-10-05T15:14:06.988Z</time>
      </trkpt>
      <trkpt lat="43.99004" lon="5.88757">
        <ele>504</ele>
        <time>2020-10-05T15:14:07.988Z</time>
      </trkpt>
      <trkpt lat="43.99003" lon="5.88757">
        <ele>504</ele>
        <time>2020-10-05T15:14:08.988Z</time>
      </trkpt>
      <trkpt lat="43.99002" lon="5.88757">
        <ele>504</ele>
        <time>2020-10-05T15:14:09.988Z</time>
      </trkpt>
      <trkpt lat="43.99" lon="5.88757">
        <ele>504</ele>
        <time>2020-10-05T15:14:10.988Z</time>
      </trkpt>
      <trkpt lat="43.98999" lon="5.88757">
        <ele>504</ele>
        <time>2020-10-05T15:14:11.988Z</time>
      </trkpt>
      <trkpt lat="43.98998" lon="5.88757">
        <ele>504</ele>
        <time>2020-10-05T15:14:12.988Z</time>
      </trkpt>
      <trkpt lat="43.98997" lon="5.88757">
        <ele>505</ele>
        <time>2020-10-05T15:14:13.988Z</time>
      </trkpt>
      <trkpt lat="43.98996" lon="5.88756">
        <ele>505</ele>
        <time>2020-10-05T15:14:14.988Z</time>
      </trkpt>
      <trkpt lat="43.98995" lon="5.88756">
        <ele>505</ele>
        <time>2020-10-05T15:14:15.988Z</time>
      </trkpt>
      <trkpt lat="43.98994" lon="5.88756">
        <ele>505</ele>
        <time>2020-10-05T15:14:16.988Z</time>
      </trkpt>
      <trkpt lat="43.98992" lon="5.88756">
        <ele>505</ele>
        <time>2020-10-05T15:14:17.988Z</time>
      </trkpt>
      <trkpt lat="43.98991" lon="5.88756">
        <ele>505</ele>
        <time>2020-10-05T15:14:18.988Z</time>
      </trkpt>
      <trkpt lat="43.9899" lon="5.88756">
        <ele>505</ele>
        <time>2020-10-05T15:14:19.988Z</time>
      </trkpt>
      <trkpt lat="43.98989" lon="5.88756">
        <ele>505</ele>
        <time>2020-10-05T15:14:20.988Z</time>
      </trkpt>
      <trkpt lat="43.98987" lon="5.88756">
        <ele>505</ele>
        <time>2020-10-05T15:14:21.988Z</time>
      </trkpt>
      <trkpt lat="43.98986" lon="5.88756">
        <ele>506</ele>
        <time>2020-10-05T15:14:22.988Z</time>
      </trkpt>
      <trkpt lat="43.98985" lon="5.88756">
        <ele>506</ele>
        <time>2020-10-05T15:14:23.988Z</time>
      </trkpt>
      <trkpt lat="43.98984" lon="5.88756">
        <ele>506</ele>
        <time>2020-10-05T15:14:24.988Z</time>
      </trkpt>
      <trkpt lat="43.98983" lon="5.88757">
        <ele>506</ele>
        <time>2020-10-05T15:14:25.988Z</time>
      </trkpt>
      <trkpt lat="43.98982" lon="5.88757">
        <ele>506</ele>
        <time>2020-10-05T15:14:26.988Z</time>
      </trkpt>
      <trkpt lat="43.98981" lon="5.88757">
        <ele>506</ele>
        <time>2020-10-05T15:14:27.988Z</time>
      </trkpt>
      <trkpt lat="43.9898" lon="5.88758">
        <ele>507</ele>
        <time>2020-10-05T15:14:28.988Z</time>
      </trkpt>
      <trkpt lat="43.98979" lon="5.88758">
        <ele>507</ele>
        <time>2020-10-05T15:14:29.988Z</time>
      </trkpt>
      <trkpt lat="43.98978" lon="5.88759">
        <ele>507</ele>
        <time>2020-10-05T15:14:30.988Z</time>
      </trkpt>
      <trkpt lat="43.98977" lon="5.88759">
        <ele>507</ele>
        <time>2020-10-05T15:14:31.988Z</time>
      </trkpt>
      <trkpt lat="43.98976" lon="5.88759">
        <ele>507</ele>
        <time>2020-10-05T15:14:32.988Z</time>
      </trkpt>
      <trkpt lat="43.98976" lon="5.88759">
        <ele>507</ele>
        <time>2020-10-05T15:14:33.988Z</time>
      </trkpt>
      <trkpt lat="43.98975" lon="5.8876">
        <ele>507</ele>
        <time>2020-10-05T15:14:34.988Z</time>
      </trkpt>
      <trkpt lat="43.98974" lon="5.8876">
        <ele>507</ele>
        <time>2020-10-05T15:14:35.988Z</time>
      </trkpt>
      <trkpt lat="43.98973" lon="5.8876">
        <ele>507</ele>
        <time>2020-10-05T15:14:36.988Z</time>
      </trkpt>
      <trkpt lat="43.98972" lon="5.8876">
        <ele>508</ele>
        <time>2020-10-05T15:14:37.988Z</time>
      </trkpt>
      <trkpt lat="43.98971" lon="5.8876">
        <ele>508</ele>
        <time>2020-10-05T15:14:38.988Z</time>
      </trkpt>
      <trkpt lat="43.9897" lon="5.8876">
        <ele>508</ele>
        <time>2020-10-05T15:14:39.988Z</time>
      </trkpt>
      <trkpt lat="43.98969" lon="5.8876">
        <ele>508</ele>
        <time>2020-10-05T15:14:40.988Z</time>
      </trkpt>
      <trkpt lat="43.98968" lon="5.8876">
        <ele>508</ele>
        <time>2020-10-05T15:14:41.988Z</time>
      </trkpt>
      <trkpt lat="43.98968" lon="5.88761">
        <ele>508</ele>
        <time>2020-10-05T15:14:42.988Z</time>
      </trkpt>
      <trkpt lat="43.98967" lon="5.88761">
        <ele>508</ele>
        <time>2020-10-05T15:14:43.988Z</time>
      </trkpt>
      <trkpt lat="43.98966" lon="5.88761">
        <ele>508</ele>
        <time>2020-10-05T15:14:44.988Z</time>
      </trkpt>
      <trkpt lat="43.98965" lon="5.88761">
        <ele>508</ele>
        <time>2020-10-05T15:14:45.988Z</time>
      </trkpt>
      <trkpt lat="43.98964" lon="5.88761">
        <ele>508</ele>
        <time>2020-10-05T15:14:46.988Z</time>
      </trkpt>
      <trkpt lat="43.98963" lon="5.88762">
        <ele>509</ele>
        <time>2020-10-05T15:14:47.988Z</time>
      </trkpt>
      <trkpt lat="43.98962" lon="5.88762">
        <ele>509</ele>
        <time>2020-10-05T15:14:48.988Z</time>
      </trkpt>
      <trkpt lat="43.98961" lon="5.88762">
        <ele>509</ele>
        <time>2020-10-05T15:14:49.988Z</time>
      </trkpt>
      <trkpt lat="43.98961" lon="5.88762">
        <ele>509</ele>
        <time>2020-10-05T15:14:50.988Z</time>
      </trkpt>
      <trkpt lat="43.98959" lon="5.88762">
        <ele>509</ele>
        <time>2020-10-05T15:14:51.988Z</time>
      </trkpt>
      <trkpt lat="43.98958" lon="5.88762">
        <ele>509</ele>
        <time>2020-10-05T15:14:52.988Z</time>
      </trkpt>
      <trkpt lat="43.98957" lon="5.88763">
        <ele>509</ele>
        <time>2020-10-05T15:14:53.988Z</time>
      </trkpt>
      <trkpt lat="43.98956" lon="5.88763">
        <ele>509</ele>
        <time>2020-10-05T15:14:54.988Z</time>
      </trkpt>
      <trkpt lat="43.98955" lon="5.88763">
        <ele>510</ele>
        <time>2020-10-05T15:14:55.988Z</time>
      </trkpt>
      <trkpt lat="43.98954" lon="5.88763">
        <ele>510</ele>
        <time>2020-10-05T15:14:56.988Z</time>
      </trkpt>
      <trkpt lat="43.98953" lon="5.88763">
        <ele>510</ele>
        <time>2020-10-05T15:14:57.988Z</time>
      </trkpt>
      <trkpt lat="43.98952" lon="5.88763">
        <ele>510</ele>
        <time>2020-10-05T15:14:58.988Z</time>
      </trkpt>
      <trkpt lat="43.98952" lon="5.88764">
        <ele>510</ele>
        <time>2020-10-05T15:14:59.988Z</time>
      </trkpt>
      <trkpt lat="43.98951" lon="5.88764">
        <ele>510</ele>
        <time>2020-10-05T15:15:00.988Z</time>
      </trkpt>
      <trkpt lat="43.9895" lon="5.88764">
        <ele>510</ele>
        <time>2020-10-05T15:15:01.988Z</time>
      </trkpt>
      <trkpt lat="43.98949" lon="5.88763">
        <ele>510</ele>
        <time>2020-10-05T15:15:02.988Z</time>
      </trkpt>
      <trkpt lat="43.98948" lon="5.88763">
        <ele>511</ele>
        <time>2020-10-05T15:15:03.988Z</time>
      </trkpt>
      <trkpt lat="43.98948" lon="5.88763">
        <ele>511</ele>
        <time>2020-10-05T15:15:04.988Z</time>
      </trkpt>
      <trkpt lat="43.98947" lon="5.88763">
        <ele>511</ele>
        <time>2020-10-05T15:15:05.988Z</time>
      </trkpt>
      <trkpt lat="43.98946" lon="5.88763">
        <ele>511</ele>
        <time>2020-10-05T15:15:06.988Z</time>
      </trkpt>
      <trkpt lat="43.98945" lon="5.88763">
        <ele>510</ele>
        <time>2020-10-05T15:15:07.988Z</time>
      </trkpt>
      <trkpt lat="43.98945" lon="5.88763">
        <ele>510</ele>
        <time>2020-10-05T15:15:08.988Z</time>
      </trkpt>
      <trkpt lat="43.98944" lon="5.88763">
        <ele>510</ele>
        <time>2020-10-05T15:15:09.988Z</time>
      </trkpt>
      <trkpt lat="43.98943" lon="5.88763">
        <ele>510</ele>
        <time>2020-10-05T15:15:10.988Z</time>
      </trkpt>
      <trkpt lat="43.98943" lon="5.88764">
        <ele>510</ele>
        <time>2020-10-05T15:15:11.988Z</time>
      </trkpt>
      <trkpt lat="43.98943" lon="5.88764">
        <ele>510</ele>
        <time>2020-10-05T15:15:12.988Z</time>
      </trkpt>
      <trkpt lat="43.98942" lon="5.88765">
        <ele>510</ele>
        <time>2020-10-05T15:15:13.988Z</time>
      </trkpt>
      <trkpt lat="43.98942" lon="5.88765">
        <ele>510</ele>
        <time>2020-10-05T15:15:14.988Z</time>
      </trkpt>
      <trkpt lat="43.98941" lon="5.88765">
        <ele>510</ele>
        <time>2020-10-05T15:15:15.988Z</time>
      </trkpt>
      <trkpt lat="43.9894" lon="5.88766">
        <ele>510</ele>
        <time>2020-10-05T15:15:16.988Z</time>
      </trkpt>
      <trkpt lat="43.9894" lon="5.88766">
        <ele>510</ele>
        <time>2020-10-05T15:15:17.988Z</time>
      </trkpt>
      <trkpt lat="43.98939" lon="5.88767">
        <ele>510</ele>
        <time>2020-10-05T15:15:18.988Z</time>
      </trkpt>
      <trkpt lat="43.98939" lon="5.88767">
        <ele>510</ele>
        <time>2020-10-05T15:15:19.988Z</time>
      </trkpt>
      <trkpt lat="43.98939" lon="5.88768">
        <ele>510</ele>
        <time>2020-10-05T15:15:20.988Z</time>
      </trkpt>
      <trkpt lat="43.98939" lon="5.88769">
        <ele>510</ele>
        <time>2020-10-05T15:15:21.988Z</time>
      </trkpt>
      <trkpt lat="43.98939" lon="5.8877">
        <ele>510</ele>
        <time>2020-10-05T15:15:22.988Z</time>
      </trkpt>
      <trkpt lat="43.98938" lon="5.88771">
        <ele>510</ele>
        <time>2020-10-05T15:15:23.988Z</time>
      </trkpt>
      <trkpt lat="43.98938" lon="5.88772">
        <ele>510</ele>
        <time>2020-10-05T15:15:24.988Z</time>
      </trkpt>
      <trkpt lat="43.98937" lon="5.88773">
        <ele>510</ele>
        <time>2020-10-05T15:15:25.988Z</time>
      </trkpt>
      <trkpt lat="43.98937" lon="5.88773">
        <ele>510</ele>
        <time>2020-10-05T15:15:26.988Z</time>
      </trkpt>
      <trkpt lat="43.98937" lon="5.88774">
        <ele>510</ele>
        <time>2020-10-05T15:15:27.988Z</time>
      </trkpt>
      <trkpt lat="43.98936" lon="5.88775">
        <ele>510</ele>
        <time>2020-10-05T15:15:28.988Z</time>
      </trkpt>
      <trkpt lat="43.98936" lon="5.88775">
        <ele>510</ele>
        <time>2020-10-05T15:15:29.988Z</time>
      </trkpt>
      <trkpt lat="43.98936" lon="5.88776">
        <ele>510</ele>
        <time>2020-10-05T15:15:30.988Z</time>
      </trkpt>
      <trkpt lat="43.98935" lon="5.88777">
        <ele>510</ele>
        <time>2020-10-05T15:15:31.988Z</time>
      </trkpt>
      <trkpt lat="43.98934" lon="5.88777">
        <ele>510</ele>
        <time>2020-10-05T15:15:32.988Z</time>
      </trkpt>
      <trkpt lat="43.98934" lon="5.88778">
        <ele>510</ele>
        <time>2020-10-05T15:15:33.988Z</time>
      </trkpt>
      <trkpt lat="43.98933" lon="5.88779">
        <ele>510</ele>
        <time>2020-10-05T15:15:34.988Z</time>
      </trkpt>
      <trkpt lat="43.98933" lon="5.8878">
        <ele>510</ele>
        <time>2020-10-05T15:15:35.988Z</time>
      </trkpt>
      <trkpt lat="43.98932" lon="5.8878">
        <ele>510</ele>
        <time>2020-10-05T15:15:36.988Z</time>
      </trkpt>
      <trkpt lat="43.98931" lon="5.88781">
        <ele>511</ele>
        <time>2020-10-05T15:15:37.988Z</time>
      </trkpt>
      <trkpt lat="43.9893" lon="5.88782">
        <ele>511</ele>
        <time>2020-10-05T15:15:38.988Z</time>
      </trkpt>
      <trkpt lat="43.9893" lon="5.88782">
        <ele>511</ele>
        <time>2020-10-05T15:15:39.988Z</time>
      </trkpt>
      <trkpt lat="43.98929" lon="5.88783">
        <ele>511</ele>
        <time>2020-10-05T15:15:40.988Z</time>
      </trkpt>
      <trkpt lat="43.98928" lon="5.88783">
        <ele>511</ele>
        <time>2020-10-05T15:15:41.988Z</time>
      </trkpt>
      <trkpt lat="43.98928" lon="5.88784">
        <ele>511</ele>
        <time>2020-10-05T15:15:42.988Z</time>
      </trkpt>
      <trkpt lat="43.98927" lon="5.88785">
        <ele>511</ele>
        <time>2020-10-05T15:15:43.988Z</time>
      </trkpt>
      <trkpt lat="43.98927" lon="5.88786">
        <ele>511</ele>
        <time>2020-10-05T15:15:44.988Z</time>
      </trkpt>
      <trkpt lat="43.98926" lon="5.88786">
        <ele>511</ele>
        <time>2020-10-05T15:15:45.988Z</time>
      </trkpt>
      <trkpt lat="43.98925" lon="5.88787">
        <ele>511</ele>
        <time>2020-10-05T15:15:46.988Z</time>
      </trkpt>
      <trkpt lat="43.98925" lon="5.88787">
        <ele>511</ele>
        <time>2020-10-05T15:15:47.988Z</time>
      </trkpt>
      <trkpt lat="43.98924" lon="5.88788">
        <ele>511</ele>
        <time>2020-10-05T15:15:48.988Z</time>
      </trkpt>
      <trkpt lat="43.98924" lon="5.88788">
        <ele>511</ele>
        <time>2020-10-05T15:15:49.988Z</time>
      </trkpt>
      <trkpt lat="43.98923" lon="5.88789">
        <ele>511</ele>
        <time>2020-10-05T15:15:50.988Z</time>
      </trkpt>
      <trkpt lat="43.98923" lon="5.88789">
        <ele>511</ele>
        <time>2020-10-05T15:15:51.988Z</time>
      </trkpt>
      <trkpt lat="43.98922" lon="5.88789">
        <ele>511</ele>
        <time>2020-10-05T15:15:52.988Z</time>
      </trkpt>
      <trkpt lat="43.98921" lon="5.8879">
        <ele>511</ele>
        <time>2020-10-05T15:15:53.988Z</time>
      </trkpt>
      <trkpt lat="43.9892" lon="5.8879">
        <ele>512</ele>
        <time>2020-10-05T15:15:54.988Z</time>
      </trkpt>
      <trkpt lat="43.98919" lon="5.8879">
        <ele>512</ele>
        <time>2020-10-05T15:15:55.988Z</time>
      </trkpt>
      <trkpt lat="43.98918" lon="5.88791">
        <ele>512</ele>
        <time>2020-10-05T15:15:56.988Z</time>
      </trkpt>
      <trkpt lat="43.98917" lon="5.88791">
        <ele>512</ele>
        <time>2020-10-05T15:15:57.988Z</time>
      </trkpt>
      <trkpt lat="43.98916" lon="5.88792">
        <ele>512</ele>
        <time>2020-10-05T15:15:58.988Z</time>
      </trkpt>
      <trkpt lat="43.98915" lon="5.88792">
        <ele>513</ele>
        <time>2020-10-05T15:15:59.988Z</time>
      </trkpt>
      <trkpt lat="43.98914" lon="5.88793">
        <ele>513</ele>
        <time>2020-10-05T15:16:00.988Z</time>
      </trkpt>
      <trkpt lat="43.98913" lon="5.88793">
        <ele>513</ele>
        <time>2020-10-05T15:16:01.988Z</time>
      </trkpt>
      <trkpt lat="43.98912" lon="5.88793">
        <ele>513</ele>
        <time>2020-10-05T15:16:02.988Z</time>
      </trkpt>
      <trkpt lat="43.98911" lon="5.88793">
        <ele>513</ele>
        <time>2020-10-05T15:16:03.988Z</time>
      </trkpt>
      <trkpt lat="43.9891" lon="5.88793">
        <ele>514</ele>
        <time>2020-10-05T15:16:04.988Z</time>
      </trkpt>
      <trkpt lat="43.98909" lon="5.88794">
        <ele>514</ele>
        <time>2020-10-05T15:16:05.988Z</time>
      </trkpt>
      <trkpt lat="43.98908" lon="5.88794">
        <ele>514</ele>
        <time>2020-10-05T15:16:06.988Z</time>
      </trkpt>
      <trkpt lat="43.98907" lon="5.88794">
        <ele>514</ele>
        <time>2020-10-05T15:16:07.988Z</time>
      </trkpt>
      <trkpt lat="43.98906" lon="5.88794">
        <ele>514</ele>
        <time>2020-10-05T15:16:08.988Z</time>
      </trkpt>
      <trkpt lat="43.98905" lon="5.88795">
        <ele>515</ele>
        <time>2020-10-05T15:16:09.988Z</time>
      </trkpt>
      <trkpt lat="43.98904" lon="5.88795">
        <ele>515</ele>
        <time>2020-10-05T15:16:10.988Z</time>
      </trkpt>
      <trkpt lat="43.98903" lon="5.88795">
        <ele>515</ele>
        <time>2020-10-05T15:16:11.988Z</time>
      </trkpt>
      <trkpt lat="43.98902" lon="5.88795">
        <ele>515</ele>
        <time>2020-10-05T15:16:12.988Z</time>
      </trkpt>
      <trkpt lat="43.98901" lon="5.88795">
        <ele>516</ele>
        <time>2020-10-05T15:16:13.988Z</time>
      </trkpt>
      <trkpt lat="43.989" lon="5.88796">
        <ele>516</ele>
        <time>2020-10-05T15:16:14.988Z</time>
      </trkpt>
      <trkpt lat="43.98899" lon="5.88796">
        <ele>516</ele>
        <time>2020-10-05T15:16:15.988Z</time>
      </trkpt>
      <trkpt lat="43.98899" lon="5.88796">
        <ele>517</ele>
        <time>2020-10-05T15:16:16.988Z</time>
      </trkpt>
      <trkpt lat="43.98898" lon="5.88797">
        <ele>517</ele>
        <time>2020-10-05T15:16:17.988Z</time>
      </trkpt>
      <trkpt lat="43.98897" lon="5.88797">
        <ele>517</ele>
        <time>2020-10-05T15:16:18.988Z</time>
      </trkpt>
      <trkpt lat="43.98896" lon="5.88797">
        <ele>517</ele>
        <time>2020-10-05T15:16:19.988Z</time>
      </trkpt>
      <trkpt lat="43.98895" lon="5.88797">
        <ele>518</ele>
        <time>2020-10-05T15:16:20.988Z</time>
      </trkpt>
      <trkpt lat="43.98894" lon="5.88797">
        <ele>518</ele>
        <time>2020-10-05T15:16:21.988Z</time>
      </trkpt>
      <trkpt lat="43.98893" lon="5.88797">
        <ele>518</ele>
        <time>2020-10-05T15:16:22.988Z</time>
      </trkpt>
      <trkpt lat="43.98892" lon="5.88797">
        <ele>518</ele>
        <time>2020-10-05T15:16:23.988Z</time>
      </trkpt>
      <trkpt lat="43.98891" lon="5.88797">
        <ele>518</ele>
        <time>2020-10-05T15:16:24.988Z</time>
      </trkpt>
      <trkpt lat="43.9889" lon="5.88798">
        <ele>519</ele>
        <time>2020-10-05T15:16:25.988Z</time>
      </trkpt>
      <trkpt lat="43.98889" lon="5.88798">
        <ele>519</ele>
        <time>2020-10-05T15:16:26.988Z</time>
      </trkpt>
      <trkpt lat="43.98889" lon="5.88798">
        <ele>519</ele>
        <time>2020-10-05T15:16:27.988Z</time>
      </trkpt>
      <trkpt lat="43.98888" lon="5.88798">
        <ele>519</ele>
        <time>2020-10-05T15:16:28.988Z</time>
      </trkpt>
      <trkpt lat="43.98887" lon="5.88798">
        <ele>519</ele>
        <time>2020-10-05T15:16:29.988Z</time>
      </trkpt>
      <trkpt lat="43.98886" lon="5.88798">
        <ele>520</ele>
        <time>2020-10-05T15:16:30.988Z</time>
      </trkpt>
      <trkpt lat="43.98885" lon="5.88798">
        <ele>520</ele>
        <time>2020-10-05T15:16:31.988Z</time>
      </trkpt>
      <trkpt lat="43.98885" lon="5.88799">
        <ele>520</ele>
        <time>2020-10-05T15:16:32.988Z</time>
      </trkpt>
      <trkpt lat="43.98884" lon="5.88798">
        <ele>520</ele>
        <time>2020-10-05T15:16:33.988Z</time>
      </trkpt>
      <trkpt lat="43.98884" lon="5.88798">
        <ele>521</ele>
        <time>2020-10-05T15:16:34.988Z</time>
      </trkpt>
      <trkpt lat="43.98884" lon="5.88798">
        <ele>521</ele>
        <time>2020-10-05T15:16:35.988Z</time>
      </trkpt>
      <trkpt lat="43.98884" lon="5.88798">
        <ele>521</ele>
        <time>2020-10-05T15:16:36.988Z</time>
      </trkpt>
      <trkpt lat="43.98884" lon="5.88798">
        <ele>521</ele>
        <time>2020-10-05T15:16:37.988Z</time>
      </trkpt>
      <trkpt lat="43.98884" lon="5.88799">
        <ele>521</ele>
        <time>2020-10-05T15:16:38.988Z</time>
      </trkpt>
      <trkpt lat="43.98884" lon="5.88799">
        <ele>521</ele>
        <time>2020-10-05T15:16:39.988Z</time>
      </trkpt>
      <trkpt lat="43.98884" lon="5.88798">
        <ele>521</ele>
        <time>2020-10-05T15:16:40.988Z</time>
      </trkpt>
      <trkpt lat="43.98883" lon="5.88798">
        <ele>521</ele>
        <time>2020-10-05T15:16:41.988Z</time>
      </trkpt>
      <trkpt lat="43.98883" lon="5.88798">
        <ele>521</ele>
        <time>2020-10-05T15:16:42.988Z</time>
      </trkpt>
      <trkpt lat="43.98883" lon="5.88798">
        <ele>521</ele>
        <time>2020-10-05T15:16:43.988Z</time>
      </trkpt>
      <trkpt lat="43.98883" lon="5.88799">
        <ele>521</ele>
        <time>2020-10-05T15:16:44.988Z</time>
      </trkpt>
      <trkpt lat="43.98883" lon="5.88799">
        <ele>521</ele>
        <time>2020-10-05T15:16:45.988Z</time>
      </trkpt>
      <trkpt lat="43.98883" lon="5.88799">
        <ele>521</ele>
        <time>2020-10-05T15:16:46.988Z</time>
      </trkpt>
      <trkpt lat="43.98883" lon="5.88799">
        <ele>521</ele>
        <time>2020-10-05T15:16:47.988Z</time>
      </trkpt>
      <trkpt lat="43.98883" lon="5.88799">
        <ele>521</ele>
        <time>2020-10-05T15:16:48.988Z</time>
      </trkpt>
      <trkpt lat="43.98883" lon="5.88799">
        <ele>521</ele>
        <time>2020-10-05T15:16:49.988Z</time>
      </trkpt>
      <trkpt lat="43.98883" lon="5.88799">
        <ele>521</ele>
        <time>2020-10-05T15:16:50.988Z</time>
      </trkpt>
      <trkpt lat="43.98883" lon="5.88799">
        <ele>521</ele>
        <time>2020-10-05T15:16:51.988Z</time>
      </trkpt>
      <trkpt lat="43.98883" lon="5.88799">
        <ele>521</ele>
        <time>2020-10-05T15:16:52.988Z</time>
      </trkpt>
      <trkpt lat="43.98884" lon="5.88799">
        <ele>521</ele>
        <time>2020-10-05T15:16:53.988Z</time>
      </trkpt>
      <trkpt lat="43.98884" lon="5.88799">
        <ele>521</ele>
        <time>2020-10-05T15:16:54.988Z</time>
      </trkpt>
      <trkpt lat="43.98884" lon="5.88798">
        <ele>521</ele>
        <time>2020-10-05T15:16:55.988Z</time>
      </trkpt>
      <trkpt lat="43.98884" lon="5.88798">
        <ele>521</ele>
        <time>2020-10-05T15:16:56.988Z</time>
      </trkpt>
      <trkpt lat="43.98884" lon="5.88798">
        <ele>521</ele>
        <time>2020-10-05T15:16:57.988Z</time>
      </trkpt>
      <trkpt lat="43.98884" lon="5.88798">
        <ele>521</ele>
        <time>2020-10-05T15:16:58.988Z</time>
      </trkpt>
      <trkpt lat="43.98884" lon="5.88798">
        <ele>521</ele>
        <time>2020-10-05T15:16:59.988Z</time>
      </trkpt>
      <trkpt lat="43.98884" lon="5.88798">
        <ele>521</ele>
        <time>2020-10-05T15:17:00.988Z</time>
      </trkpt>
      <trkpt lat="43.98884" lon="5.88798">
        <ele>521</ele>
        <time>2020-10-05T15:17:01.988Z</time>
      </trkpt>
      <trkpt lat="43.98884" lon="5.88798">
        <ele>521</ele>
        <time>2020-10-05T15:17:02.988Z</time>
      </trkpt>
      <trkpt lat="43.98884" lon="5.88798">
        <ele>521</ele>
        <time>2020-10-05T15:17:03.988Z</time>
      </trkpt>
      <trkpt lat="43.98884" lon="5.88798">
        <ele>521</ele>
        <time>2020-10-05T15:17:04.988Z</time>
      </trkpt>
      <trkpt lat="43.98884" lon="5.88798">
        <ele>521</ele>
        <time>2020-10-05T15:17:05.988Z</time>
      </trkpt>
      <trkpt lat="43.98884" lon="5.88798">
        <ele>521</ele>
        <time>2020-10-05T15:17:06.988Z</time>
      </trkpt>
      <trkpt lat="43.98884" lon="5.88798">
        <ele>521</ele>
        <time>2020-10-05T15:17:07.988Z</time>
      </trkpt>
      <trkpt lat="43.98884" lon="5.88798">
        <ele>521</ele>
        <time>2020-10-05T15:17:08.988Z</time>
      </trkpt>
      <trkpt lat="43.98884" lon="5.88798">
        <ele>521</ele>
        <time>2020-10-05T15:17:09.988Z</time>
      </trkpt>
      <trkpt lat="43.98884" lon="5.88798">
        <ele>521</ele>
        <time>2020-10-05T15:17:10.988Z</time>
      </trkpt>
      <trkpt lat="43.98884" lon="5.88798">
        <ele>521</ele>
        <time>2020-10-05T15:17:11.988Z</time>
      </trkpt>
      <trkpt lat="43.98884" lon="5.88798">
        <ele>521</ele>
        <time>2020-10-05T15:17:12.988Z</time>
      </trkpt>
      <trkpt lat="43.98884" lon="5.88798">
        <ele>521</ele>
        <time>2020-10-05T15:17:13.988Z</time>
      </trkpt>
      <trkpt lat="43.98884" lon="5.88798">
        <ele>521</ele>
        <time>2020-10-05T15:17:14.988Z</time>
      </trkpt>
      <trkpt lat="43.98884" lon="5.88798">
        <ele>521</ele>
        <time>2020-10-05T15:17:15.988Z</time>
      </trkpt>
      <trkpt lat="43.98884" lon="5.88798">
        <ele>521</ele>
        <time>2020-10-05T15:17:16.988Z</time>
      </trkpt>
      <trkpt lat="43.98884" lon="5.88798">
        <ele>521</ele>
        <time>2020-10-05T15:17:17.988Z</time>
      </trkpt>
      <trkpt lat="43.98884" lon="5.88798">
        <ele>521</ele>
        <time>2020-10-05T15:17:18.988Z</time>
      </trkpt>
      <trkpt lat="43.98884" lon="5.88798">
        <ele>521</ele>
        <time>2020-10-05T15:17:19.988Z</time>
      </trkpt>
      <trkpt lat="43.98884" lon="5.88798">
        <ele>521</ele>
        <time>2020-10-05T15:17:20.988Z</time>
      </trkpt>
      <trkpt lat="43.98884" lon="5.88797">
        <ele>521</ele>
        <time>2020-10-05T15:17:21.988Z</time>
      </trkpt>
      <trkpt lat="43.98884" lon="5.88797">
        <ele>521</ele>
        <time>2020-10-05T15:17:22.988Z</time>
      </trkpt>
      <trkpt lat="43.98884" lon="5.88797">
        <ele>521</ele>
        <time>2020-10-05T15:17:23.988Z</time>
      </trkpt>
      <trkpt lat="43.98884" lon="5.88797">
        <ele>520</ele>
        <time>2020-10-05T15:17:24.988Z</time>
      </trkpt>
      <trkpt lat="43.98884" lon="5.88797">
        <ele>520</ele>
        <time>2020-10-05T15:17:25.988Z</time>
      </trkpt>
      <trkpt lat="43.98884" lon="5.88797">
        <ele>520</ele>
        <time>2020-10-05T15:17:26.988Z</time>
      </trkpt>
      <trkpt lat="43.98884" lon="5.88797">
        <ele>520</ele>
        <time>2020-10-05T15:17:27.988Z</time>
      </trkpt>
      <trkpt lat="43.98884" lon="5.88797">
        <ele>520</ele>
        <time>2020-10-05T15:17:28.988Z</time>
      </trkpt>
      <trkpt lat="43.98884" lon="5.88797">
        <ele>520</ele>
        <time>2020-10-05T15:17:29.988Z</time>
      </trkpt>
      <trkpt lat="43.98884" lon="5.88797">
        <ele>520</ele>
        <time>2020-10-05T15:17:30.988Z</time>
      </trkpt>
      <trkpt lat="43.98883" lon="5.88797">
        <ele>520</ele>
        <time>2020-10-05T15:17:31.988Z</time>
      </trkpt>
      <trkpt lat="43.98883" lon="5.88797">
        <ele>520</ele>
        <time>2020-10-05T15:17:32.988Z</time>
      </trkpt>
      <trkpt lat="43.98881" lon="5.88797">
        <ele>520</ele>
        <time>2020-10-05T15:17:33.988Z</time>
      </trkpt>
      <trkpt lat="43.9888" lon="5.88797">
        <ele>520</ele>
        <time>2020-10-05T15:17:34.988Z</time>
      </trkpt>
      <trkpt lat="43.98879" lon="5.88797">
        <ele>520</ele>
        <time>2020-10-05T15:17:35.988Z</time>
      </trkpt>
      <trkpt lat="43.98878" lon="5.88797">
        <ele>520</ele>
        <time>2020-10-05T15:17:36.988Z</time>
      </trkpt>
      <trkpt lat="43.98877" lon="5.88798">
        <ele>520</ele>
        <time>2020-10-05T15:17:37.988Z</time>
      </trkpt>
      <trkpt lat="43.98876" lon="5.88798">
        <ele>520</ele>
        <time>2020-10-05T15:17:38.988Z</time>
      </trkpt>
      <trkpt lat="43.98875" lon="5.88798">
        <ele>520</ele>
        <time>2020-10-05T15:17:39.988Z</time>
      </trkpt>
      <trkpt lat="43.98874" lon="5.88798">
        <ele>520</ele>
        <time>2020-10-05T15:17:40.988Z</time>
      </trkpt>
      <trkpt lat="43.98873" lon="5.88798">
        <ele>520</ele>
        <time>2020-10-05T15:17:41.988Z</time>
      </trkpt>
      <trkpt lat="43.98872" lon="5.88799">
        <ele>521</ele>
        <time>2020-10-05T15:17:42.988Z</time>
      </trkpt>
      <trkpt lat="43.98871" lon="5.88799">
        <ele>521</ele>
        <time>2020-10-05T15:17:43.988Z</time>
      </trkpt>
      <trkpt lat="43.98871" lon="5.88799">
        <ele>521</ele>
        <time>2020-10-05T15:17:44.988Z</time>
      </trkpt>
      <trkpt lat="43.9887" lon="5.888">
        <ele>521</ele>
        <time>2020-10-05T15:17:45.988Z</time>
      </trkpt>
      <trkpt lat="43.98869" lon="5.88801">
        <ele>521</ele>
        <time>2020-10-05T15:17:46.988Z</time>
      </trkpt>
      <trkpt lat="43.98868" lon="5.88802">
        <ele>521</ele>
        <time>2020-10-05T15:17:47.988Z</time>
      </trkpt>
      <trkpt lat="43.98867" lon="5.88802">
        <ele>521</ele>
        <time>2020-10-05T15:17:48.988Z</time>
      </trkpt>
      <trkpt lat="43.98867" lon="5.88803">
        <ele>521</ele>
        <time>2020-10-05T15:17:49.988Z</time>
      </trkpt>
      <trkpt lat="43.98866" lon="5.88803">
        <ele>521</ele>
        <time>2020-10-05T15:17:50.988Z</time>
      </trkpt>
      <trkpt lat="43.98865" lon="5.88804">
        <ele>521</ele>
        <time>2020-10-05T15:17:51.988Z</time>
      </trkpt>
      <trkpt lat="43.98865" lon="5.88804">
        <ele>521</ele>
        <time>2020-10-05T15:17:52.988Z</time>
      </trkpt>
      <trkpt lat="43.98864" lon="5.88805">
        <ele>521</ele>
        <time>2020-10-05T15:17:53.988Z</time>
      </trkpt>
      <trkpt lat="43.98863" lon="5.88806">
        <ele>521</ele>
        <time>2020-10-05T15:17:54.988Z</time>
      </trkpt>
      <trkpt lat="43.98863" lon="5.88807">
        <ele>521</ele>
        <time>2020-10-05T15:17:55.988Z</time>
      </trkpt>
      <trkpt lat="43.98862" lon="5.88807">
        <ele>521</ele>
        <time>2020-10-05T15:17:56.988Z</time>
      </trkpt>
      <trkpt lat="43.9886" lon="5.88808">
        <ele>521</ele>
        <time>2020-10-05T15:17:57.988Z</time>
      </trkpt>
      <trkpt lat="43.98859" lon="5.88809">
        <ele>521</ele>
        <time>2020-10-05T15:17:58.988Z</time>
      </trkpt>
      <trkpt lat="43.98859" lon="5.88809">
        <ele>521</ele>
        <time>2020-10-05T15:17:59.988Z</time>
      </trkpt>
      <trkpt lat="43.98858" lon="5.8881">
        <ele>522</ele>
        <time>2020-10-05T15:18:00.988Z</time>
      </trkpt>
      <trkpt lat="43.98856" lon="5.88811">
        <ele>522</ele>
        <time>2020-10-05T15:18:01.988Z</time>
      </trkpt>
      <trkpt lat="43.98855" lon="5.88812">
        <ele>522</ele>
        <time>2020-10-05T15:18:02.988Z</time>
      </trkpt>
      <trkpt lat="43.98854" lon="5.88813">
        <ele>522</ele>
        <time>2020-10-05T15:18:03.988Z</time>
      </trkpt>
      <trkpt lat="43.98853" lon="5.88813">
        <ele>522</ele>
        <time>2020-10-05T15:18:04.988Z</time>
      </trkpt>
      <trkpt lat="43.98852" lon="5.88814">
        <ele>523</ele>
        <time>2020-10-05T15:18:05.988Z</time>
      </trkpt>
      <trkpt lat="43.98851" lon="5.88815">
        <ele>523</ele>
        <time>2020-10-05T15:18:06.988Z</time>
      </trkpt>
      <trkpt lat="43.98851" lon="5.88815">
        <ele>523</ele>
        <time>2020-10-05T15:18:07.988Z</time>
      </trkpt>
      <trkpt lat="43.9885" lon="5.88816">
        <ele>523</ele>
        <time>2020-10-05T15:18:08.988Z</time>
      </trkpt>
      <trkpt lat="43.98849" lon="5.88817">
        <ele>523</ele>
        <time>2020-10-05T15:18:09.988Z</time>
      </trkpt>
      <trkpt lat="43.98848" lon="5.88818">
        <ele>524</ele>
        <time>2020-10-05T15:18:10.988Z</time>
      </trkpt>
      <trkpt lat="43.98847" lon="5.88819">
        <ele>524</ele>
        <time>2020-10-05T15:18:11.988Z</time>
      </trkpt>
      <trkpt lat="43.98846" lon="5.88819">
        <ele>524</ele>
        <time>2020-10-05T15:18:12.988Z</time>
      </trkpt>
      <trkpt lat="43.98845" lon="5.8882">
        <ele>524</ele>
        <time>2020-10-05T15:18:13.988Z</time>
      </trkpt>
      <trkpt lat="43.98844" lon="5.88821">
        <ele>524</ele>
        <time>2020-10-05T15:18:14.988Z</time>
      </trkpt>
      <trkpt lat="43.98843" lon="5.88822">
        <ele>524</ele>
        <time>2020-10-05T15:18:15.988Z</time>
      </trkpt>
      <trkpt lat="43.98842" lon="5.88823">
        <ele>524</ele>
        <time>2020-10-05T15:18:16.988Z</time>
      </trkpt>
      <trkpt lat="43.98841" lon="5.88824">
        <ele>524</ele>
        <time>2020-10-05T15:18:17.988Z</time>
      </trkpt>
      <trkpt lat="43.98839" lon="5.88824">
        <ele>525</ele>
        <time>2020-10-05T15:18:18.988Z</time>
      </trkpt>
      <trkpt lat="43.98838" lon="5.88824">
        <ele>525</ele>
        <time>2020-10-05T15:18:19.988Z</time>
      </trkpt>
      <trkpt lat="43.98837" lon="5.88824">
        <ele>525</ele>
        <time>2020-10-05T15:18:20.988Z</time>
      </trkpt>
      <trkpt lat="43.98836" lon="5.88825">
        <ele>525</ele>
        <time>2020-10-05T15:18:21.988Z</time>
      </trkpt>
      <trkpt lat="43.98835" lon="5.88825">
        <ele>525</ele>
        <time>2020-10-05T15:18:22.988Z</time>
      </trkpt>
      <trkpt lat="43.98834" lon="5.88825">
        <ele>526</ele>
        <time>2020-10-05T15:18:23.988Z</time>
      </trkpt>
      <trkpt lat="43.98833" lon="5.88826">
        <ele>526</ele>
        <time>2020-10-05T15:18:24.988Z</time>
      </trkpt>
      <trkpt lat="43.98832" lon="5.88826">
        <ele>526</ele>
        <time>2020-10-05T15:18:25.988Z</time>
      </trkpt>
      <trkpt lat="43.98832" lon="5.88826">
        <ele>526</ele>
        <time>2020-10-05T15:18:26.988Z</time>
      </trkpt>
      <trkpt lat="43.98831" lon="5.88826">
        <ele>526</ele>
        <time>2020-10-05T15:18:27.988Z</time>
      </trkpt>
      <trkpt lat="43.9883" lon="5.88827">
        <ele>526</ele>
        <time>2020-10-05T15:18:28.988Z</time>
      </trkpt>
      <trkpt lat="43.98829" lon="5.88827">
        <ele>526</ele>
        <time>2020-10-05T15:18:29.988Z</time>
      </trkpt>
      <trkpt lat="43.98828" lon="5.88828">
        <ele>526</ele>
        <time>2020-10-05T15:18:30.988Z</time>
      </trkpt>
      <trkpt lat="43.98827" lon="5.88829">
        <ele>527</ele>
        <time>2020-10-05T15:18:31.988Z</time>
      </trkpt>
      <trkpt lat="43.98826" lon="5.88829">
        <ele>527</ele>
        <time>2020-10-05T15:18:32.988Z</time>
      </trkpt>
      <trkpt lat="43.98826" lon="5.8883">
        <ele>527</ele>
        <time>2020-10-05T15:18:33.988Z</time>
      </trkpt>
      <trkpt lat="43.98825" lon="5.88831">
        <ele>527</ele>
        <time>2020-10-05T15:18:34.988Z</time>
      </trkpt>
      <trkpt lat="43.98824" lon="5.88832">
        <ele>527</ele>
        <time>2020-10-05T15:18:35.988Z</time>
      </trkpt>
      <trkpt lat="43.98823" lon="5.88833">
        <ele>527</ele>
        <time>2020-10-05T15:18:36.988Z</time>
      </trkpt>
      <trkpt lat="43.98823" lon="5.88833">
        <ele>527</ele>
        <time>2020-10-05T15:18:37.988Z</time>
      </trkpt>
      <trkpt lat="43.98822" lon="5.88834">
        <ele>528</ele>
        <time>2020-10-05T15:18:38.988Z</time>
      </trkpt>
      <trkpt lat="43.98821" lon="5.88834">
        <ele>528</ele>
        <time>2020-10-05T15:18:39.988Z</time>
      </trkpt>
      <trkpt lat="43.9882" lon="5.88835">
        <ele>528</ele>
        <time>2020-10-05T15:18:40.988Z</time>
      </trkpt>
      <trkpt lat="43.98819" lon="5.88835">
        <ele>528</ele>
        <time>2020-10-05T15:18:41.988Z</time>
      </trkpt>
      <trkpt lat="43.98818" lon="5.88835">
        <ele>528</ele>
        <time>2020-10-05T15:18:42.988Z</time>
      </trkpt>
      <trkpt lat="43.98817" lon="5.88835">
        <ele>528</ele>
        <time>2020-10-05T15:18:43.988Z</time>
      </trkpt>
      <trkpt lat="43.98816" lon="5.88835">
        <ele>528</ele>
        <time>2020-10-05T15:18:44.988Z</time>
      </trkpt>
      <trkpt lat="43.98815" lon="5.88835">
        <ele>528</ele>
        <time>2020-10-05T15:18:45.988Z</time>
      </trkpt>
      <trkpt lat="43.98814" lon="5.88835">
        <ele>528</ele>
        <time>2020-10-05T15:18:46.988Z</time>
      </trkpt>
      <trkpt lat="43.98813" lon="5.88835">
        <ele>528</ele>
        <time>2020-10-05T15:18:47.988Z</time>
      </trkpt>
      <trkpt lat="43.98813" lon="5.88836">
        <ele>528</ele>
        <time>2020-10-05T15:18:48.988Z</time>
      </trkpt>
      <trkpt lat="43.98812" lon="5.88836">
        <ele>528</ele>
        <time>2020-10-05T15:18:49.988Z</time>
      </trkpt>
      <trkpt lat="43.98811" lon="5.88836">
        <ele>528</ele>
        <time>2020-10-05T15:18:50.988Z</time>
      </trkpt>
      <trkpt lat="43.9881" lon="5.88836">
        <ele>528</ele>
        <time>2020-10-05T15:18:51.988Z</time>
      </trkpt>
      <trkpt lat="43.98809" lon="5.88837">
        <ele>528</ele>
        <time>2020-10-05T15:18:52.988Z</time>
      </trkpt>
      <trkpt lat="43.98808" lon="5.88837">
        <ele>528</ele>
        <time>2020-10-05T15:18:53.988Z</time>
      </trkpt>
      <trkpt lat="43.98807" lon="5.88837">
        <ele>528</ele>
        <time>2020-10-05T15:18:54.988Z</time>
      </trkpt>
      <trkpt lat="43.98806" lon="5.88837">
        <ele>528</ele>
        <time>2020-10-05T15:18:55.988Z</time>
      </trkpt>
      <trkpt lat="43.98805" lon="5.88837">
        <ele>528</ele>
        <time>2020-10-05T15:18:56.988Z</time>
      </trkpt>
      <trkpt lat="43.98804" lon="5.88837">
        <ele>528</ele>
        <time>2020-10-05T15:18:57.988Z</time>
      </trkpt>
      <trkpt lat="43.98804" lon="5.88837">
        <ele>528</ele>
        <time>2020-10-05T15:18:58.988Z</time>
      </trkpt>
      <trkpt lat="43.98803" lon="5.88837">
        <ele>528</ele>
        <time>2020-10-05T15:18:59.988Z</time>
      </trkpt>
      <trkpt lat="43.98802" lon="5.88837">
        <ele>528</ele>
        <time>2020-10-05T15:19:00.988Z</time>
      </trkpt>
      <trkpt lat="43.98801" lon="5.88837">
        <ele>528</ele>
        <time>2020-10-05T15:19:01.988Z</time>
      </trkpt>
      <trkpt lat="43.988" lon="5.88837">
        <ele>528</ele>
        <time>2020-10-05T15:19:02.988Z</time>
      </trkpt>
      <trkpt lat="43.98799" lon="5.88837">
        <ele>528</ele>
        <time>2020-10-05T15:19:03.988Z</time>
      </trkpt>
      <trkpt lat="43.98798" lon="5.88837">
        <ele>528</ele>
        <time>2020-10-05T15:19:04.988Z</time>
      </trkpt>
      <trkpt lat="43.98798" lon="5.88837">
        <ele>528</ele>
        <time>2020-10-05T15:19:05.988Z</time>
      </trkpt>
      <trkpt lat="43.98797" lon="5.88838">
        <ele>528</ele>
        <time>2020-10-05T15:19:06.988Z</time>
      </trkpt>
      <trkpt lat="43.98796" lon="5.88837">
        <ele>528</ele>
        <time>2020-10-05T15:19:07.988Z</time>
      </trkpt>
      <trkpt lat="43.98796" lon="5.88837">
        <ele>528</ele>
        <time>2020-10-05T15:19:08.988Z</time>
      </trkpt>
      <trkpt lat="43.98796" lon="5.88837">
        <ele>528</ele>
        <time>2020-10-05T15:19:09.988Z</time>
      </trkpt>
      <trkpt lat="43.98796" lon="5.88837">
        <ele>528</ele>
        <time>2020-10-05T15:19:10.988Z</time>
      </trkpt>
      <trkpt lat="43.98795" lon="5.88837">
        <ele>528</ele>
        <time>2020-10-05T15:19:11.988Z</time>
      </trkpt>
      <trkpt lat="43.98795" lon="5.88837">
        <ele>528</ele>
        <time>2020-10-05T15:19:12.988Z</time>
      </trkpt>
      <trkpt lat="43.98795" lon="5.88837">
        <ele>528</ele>
        <time>2020-10-05T15:19:13.988Z</time>
      </trkpt>
      <trkpt lat="43.98795" lon="5.88837">
        <ele>528</ele>
        <time>2020-10-05T15:19:14.988Z</time>
      </trkpt>
      <trkpt lat="43.98795" lon="5.88837">
        <ele>528</ele>
        <time>2020-10-05T15:19:15.988Z</time>
      </trkpt>
      <trkpt lat="43.98795" lon="5.88837">
        <ele>528</ele>
        <time>2020-10-05T15:19:16.988Z</time>
      </trkpt>
      <trkpt lat="43.98795" lon="5.88838">
        <ele>528</ele>
        <time>2020-10-05T15:19:17.988Z</time>
      </trkpt>
      <trkpt lat="43.98795" lon="5.88838">
        <ele>528</ele>
        <time>2020-10-05T15:19:18.988Z</time>
      </trkpt>
      <trkpt lat="43.98795" lon="5.88838">
        <ele>528</ele>
        <time>2020-10-05T15:19:19.988Z</time>
      </trkpt>
      <trkpt lat="43.98795" lon="5.88838">
        <ele>528</ele>
        <time>2020-10-05T15:19:20.988Z</time>
      </trkpt>
      <trkpt lat="43.98795" lon="5.88838">
        <ele>528</ele>
        <time>2020-10-05T15:19:21.988Z</time>
      </trkpt>
      <trkpt lat="43.98795" lon="5.88839">
        <ele>528</ele>
        <time>2020-10-05T15:19:22.988Z</time>
      </trkpt>
      <trkpt lat="43.98795" lon="5.88839">
        <ele>528</ele>
        <time>2020-10-05T15:19:23.988Z</time>
      </trkpt>
      <trkpt lat="43.98795" lon="5.88839">
        <ele>528</ele>
        <time>2020-10-05T15:19:24.988Z</time>
      </trkpt>
      <trkpt lat="43.98795" lon="5.88839">
        <ele>528</ele>
        <time>2020-10-05T15:19:25.988Z</time>
      </trkpt>
      <trkpt lat="43.98795" lon="5.88839">
        <ele>528</ele>
        <time>2020-10-05T15:19:26.988Z</time>
      </trkpt>
      <trkpt lat="43.98795" lon="5.88839">
        <ele>529</ele>
        <time>2020-10-05T15:19:27.988Z</time>
      </trkpt>
      <trkpt lat="43.98795" lon="5.8884">
        <ele>529</ele>
        <time>2020-10-05T15:19:28.988Z</time>
      </trkpt>
      <trkpt lat="43.98796" lon="5.8884">
        <ele>529</ele>
        <time>2020-10-05T15:19:29.988Z</time>
      </trkpt>
      <trkpt lat="43.98796" lon="5.8884">
        <ele>529</ele>
        <time>2020-10-05T15:19:30.988Z</time>
      </trkpt>
      <trkpt lat="43.98796" lon="5.8884">
        <ele>529</ele>
        <time>2020-10-05T15:19:31.988Z</time>
      </trkpt>
      <trkpt lat="43.98796" lon="5.8884">
        <ele>529</ele>
        <time>2020-10-05T15:19:32.988Z</time>
      </trkpt>
      <trkpt lat="43.98796" lon="5.8884">
        <ele>529</ele>
        <time>2020-10-05T15:19:33.988Z</time>
      </trkpt>
      <trkpt lat="43.98796" lon="5.8884">
        <ele>529</ele>
        <time>2020-10-05T15:19:34.988Z</time>
      </trkpt>
      <trkpt lat="43.98796" lon="5.88841">
        <ele>529</ele>
        <time>2020-10-05T15:19:35.988Z</time>
      </trkpt>
      <trkpt lat="43.98796" lon="5.88841">
        <ele>529</ele>
        <time>2020-10-05T15:19:36.988Z</time>
      </trkpt>
      <trkpt lat="43.98796" lon="5.88841">
        <ele>529</ele>
        <time>2020-10-05T15:19:37.988Z</time>
      </trkpt>
      <trkpt lat="43.98795" lon="5.88842">
        <ele>529</ele>
        <time>2020-10-05T15:19:38.988Z</time>
      </trkpt>
      <trkpt lat="43.98796" lon="5.88842">
        <ele>529</ele>
        <time>2020-10-05T15:19:39.988Z</time>
      </trkpt>
      <trkpt lat="43.98796" lon="5.88842">
        <ele>529</ele>
        <time>2020-10-05T15:19:40.988Z</time>
      </trkpt>
      <trkpt lat="43.98796" lon="5.88842">
        <ele>529</ele>
        <time>2020-10-05T15:19:41.988Z</time>
      </trkpt>
      <trkpt lat="43.98796" lon="5.88842">
        <ele>529</ele>
        <time>2020-10-05T15:19:42.988Z</time>
      </trkpt>
      <trkpt lat="43.98796" lon="5.88842">
        <ele>530</ele>
        <time>2020-10-05T15:19:43.988Z</time>
      </trkpt>
      <trkpt lat="43.98796" lon="5.88842">
        <ele>530</ele>
        <time>2020-10-05T15:19:44.988Z</time>
      </trkpt>
      <trkpt lat="43.98796" lon="5.88842">
        <ele>530</ele>
        <time>2020-10-05T15:19:45.988Z</time>
      </trkpt>
      <trkpt lat="43.98795" lon="5.88842">
        <ele>530</ele>
        <time>2020-10-05T15:19:46.988Z</time>
      </trkpt>
      <trkpt lat="43.98795" lon="5.88842">
        <ele>530</ele>
        <time>2020-10-05T15:19:47.988Z</time>
      </trkpt>
      <trkpt lat="43.98795" lon="5.88842">
        <ele>530</ele>
        <time>2020-10-05T15:19:48.988Z</time>
      </trkpt>
      <trkpt lat="43.98795" lon="5.88843">
        <ele>530</ele>
        <time>2020-10-05T15:19:49.988Z</time>
      </trkpt>
      <trkpt lat="43.98795" lon="5.88843">
        <ele>530</ele>
        <time>2020-10-05T15:19:50.988Z</time>
      </trkpt>
      <trkpt lat="43.98795" lon="5.88843">
        <ele>530</ele>
        <time>2020-10-05T15:19:51.988Z</time>
      </trkpt>
      <trkpt lat="43.98795" lon="5.88843">
        <ele>530</ele>
        <time>2020-10-05T15:19:52.988Z</time>
      </trkpt>
      <trkpt lat="43.98795" lon="5.88843">
        <ele>530</ele>
        <time>2020-10-05T15:19:53.988Z</time>
      </trkpt>
      <trkpt lat="43.98795" lon="5.88843">
        <ele>530</ele>
        <time>2020-10-05T15:19:54.988Z</time>
      </trkpt>
      <trkpt lat="43.98795" lon="5.88843">
        <ele>530</ele>
        <time>2020-10-05T15:19:55.988Z</time>
      </trkpt>
      <trkpt lat="43.98795" lon="5.88843">
        <ele>530</ele>
        <time>2020-10-05T15:19:56.988Z</time>
      </trkpt>
      <trkpt lat="43.98795" lon="5.88843">
        <ele>530</ele>
        <time>2020-10-05T15:19:57.988Z</time>
      </trkpt>
      <trkpt lat="43.98795" lon="5.88843">
        <ele>530</ele>
        <time>2020-10-05T15:19:58.988Z</time>
      </trkpt>
      <trkpt lat="43.98795" lon="5.88843">
        <ele>530</ele>
        <time>2020-10-05T15:19:59.988Z</time>
      </trkpt>
      <trkpt lat="43.98795" lon="5.88843">
        <ele>530</ele>
        <time>2020-10-05T15:20:00.988Z</time>
      </trkpt>
      <trkpt lat="43.98795" lon="5.88843">
        <ele>530</ele>
        <time>2020-10-05T15:20:01.988Z</time>
      </trkpt>
      <trkpt lat="43.98795" lon="5.88843">
        <ele>531</ele>
        <time>2020-10-05T15:20:02.988Z</time>
      </trkpt>
      <trkpt lat="43.98795" lon="5.88843">
        <ele>531</ele>
        <time>2020-10-05T15:20:03.988Z</time>
      </trkpt>
      <trkpt lat="43.98795" lon="5.88843">
        <ele>531</ele>
        <time>2020-10-05T15:20:04.988Z</time>
      </trkpt>
      <trkpt lat="43.98795" lon="5.88843">
        <ele>531</ele>
        <time>2020-10-05T15:20:05.988Z</time>
      </trkpt>
      <trkpt lat="43.98794" lon="5.88843">
        <ele>531</ele>
        <time>2020-10-05T15:20:06.988Z</time>
      </trkpt>
      <trkpt lat="43.98794" lon="5.88843">
        <ele>531</ele>
        <time>2020-10-05T15:20:07.988Z</time>
      </trkpt>
      <trkpt lat="43.98794" lon="5.88843">
        <ele>531</ele>
        <time>2020-10-05T15:20:08.988Z</time>
      </trkpt>
      <trkpt lat="43.98794" lon="5.88843">
        <ele>531</ele>
        <time>2020-10-05T15:20:09.988Z</time>
      </trkpt>
      <trkpt lat="43.98794" lon="5.88843">
        <ele>531</ele>
        <time>2020-10-05T15:20:10.988Z</time>
      </trkpt>
      <trkpt lat="43.98794" lon="5.88843">
        <ele>531</ele>
        <time>2020-10-05T15:20:11.988Z</time>
      </trkpt>
      <trkpt lat="43.98794" lon="5.88843">
        <ele>531</ele>
        <time>2020-10-05T15:20:12.988Z</time>
      </trkpt>
      <trkpt lat="43.98794" lon="5.88843">
        <ele>531</ele>
        <time>2020-10-05T15:20:13.988Z</time>
      </trkpt>
      <trkpt lat="43.98794" lon="5.88843">
        <ele>531</ele>
        <time>2020-10-05T15:20:14.988Z</time>
      </trkpt>
      <trkpt lat="43.98794" lon="5.88842">
        <ele>531</ele>
        <time>2020-10-05T15:20:15.988Z</time>
      </trkpt>
      <trkpt lat="43.98794" lon="5.88842">
        <ele>531</ele>
        <time>2020-10-05T15:20:16.988Z</time>
      </trkpt>
      <trkpt lat="43.98794" lon="5.88842">
        <ele>531</ele>
        <time>2020-10-05T15:20:17.988Z</time>
      </trkpt>
      <trkpt lat="43.98794" lon="5.88842">
        <ele>531</ele>
        <time>2020-10-05T15:20:18.988Z</time>
      </trkpt>
      <trkpt lat="43.98794" lon="5.88842">
        <ele>531</ele>
        <time>2020-10-05T15:20:19.988Z</time>
      </trkpt>
      <trkpt lat="43.98794" lon="5.88842">
        <ele>531</ele>
        <time>2020-10-05T15:20:20.988Z</time>
      </trkpt>
      <trkpt lat="43.98794" lon="5.88842">
        <ele>531</ele>
        <time>2020-10-05T15:20:21.988Z</time>
      </trkpt>
      <trkpt lat="43.98794" lon="5.88842">
        <ele>531</ele>
        <time>2020-10-05T15:20:22.988Z</time>
      </trkpt>
      <trkpt lat="43.98794" lon="5.88842">
        <ele>531</ele>
        <time>2020-10-05T15:20:23.988Z</time>
      </trkpt>
      <trkpt lat="43.98794" lon="5.88842">
        <ele>531</ele>
        <time>2020-10-05T15:20:24.988Z</time>
      </trkpt>
      <trkpt lat="43.98794" lon="5.88842">
        <ele>531</ele>
        <time>2020-10-05T15:20:25.988Z</time>
      </trkpt>
      <trkpt lat="43.98794" lon="5.88842">
        <ele>531</ele>
        <time>2020-10-05T15:20:26.988Z</time>
      </trkpt>
      <trkpt lat="43.98794" lon="5.88841">
        <ele>531</ele>
        <time>2020-10-05T15:20:27.988Z</time>
      </trkpt>
      <trkpt lat="43.98794" lon="5.88841">
        <ele>531</ele>
        <time>2020-10-05T15:20:28.988Z</time>
      </trkpt>
      <trkpt lat="43.98794" lon="5.88841">
        <ele>531</ele>
        <time>2020-10-05T15:20:29.988Z</time>
      </trkpt>
      <trkpt lat="43.98794" lon="5.88841">
        <ele>531</ele>
        <time>2020-10-05T15:20:30.988Z</time>
      </trkpt>
      <trkpt lat="43.98794" lon="5.8884">
        <ele>531</ele>
        <time>2020-10-05T15:20:31.988Z</time>
      </trkpt>
      <trkpt lat="43.98794" lon="5.8884">
        <ele>531</ele>
        <time>2020-10-05T15:20:32.988Z</time>
      </trkpt>
      <trkpt lat="43.98794" lon="5.8884">
        <ele>530</ele>
        <time>2020-10-05T15:20:33.988Z</time>
      </trkpt>
      <trkpt lat="43.98794" lon="5.8884">
        <ele>530</ele>
        <time>2020-10-05T15:20:34.988Z</time>
      </trkpt>
      <trkpt lat="43.98794" lon="5.8884">
        <ele>530</ele>
        <time>2020-10-05T15:20:35.988Z</time>
      </trkpt>
      <trkpt lat="43.98794" lon="5.88839">
        <ele>530</ele>
        <time>2020-10-05T15:20:36.988Z</time>
      </trkpt>
      <trkpt lat="43.98794" lon="5.88839">
        <ele>530</ele>
        <time>2020-10-05T15:20:37.988Z</time>
      </trkpt>
      <trkpt lat="43.98794" lon="5.88839">
        <ele>530</ele>
        <time>2020-10-05T15:20:38.988Z</time>
      </trkpt>
      <trkpt lat="43.98794" lon="5.88839">
        <ele>530</ele>
        <time>2020-10-05T15:20:39.988Z</time>
      </trkpt>
      <trkpt lat="43.98794" lon="5.88839">
        <ele>530</ele>
        <time>2020-10-05T15:20:40.988Z</time>
      </trkpt>
      <trkpt lat="43.98794" lon="5.88838">
        <ele>530</ele>
        <time>2020-10-05T15:20:41.988Z</time>
      </trkpt>
      <trkpt lat="43.98794" lon="5.88838">
        <ele>529</ele>
        <time>2020-10-05T15:20:42.988Z</time>
      </trkpt>
      <trkpt lat="43.98794" lon="5.88838">
        <ele>529</ele>
        <time>2020-10-05T15:20:43.988Z</time>
      </trkpt>
      <trkpt lat="43.98794" lon="5.88838">
        <ele>529</ele>
        <time>2020-10-05T15:20:44.988Z</time>
      </trkpt>
      <trkpt lat="43.98794" lon="5.88838">
        <ele>529</ele>
        <time>2020-10-05T15:20:45.988Z</time>
      </trkpt>
      <trkpt lat="43.98794" lon="5.88838">
        <ele>529</ele>
        <time>2020-10-05T15:20:46.988Z</time>
      </trkpt>
      <trkpt lat="43.98794" lon="5.88838">
        <ele>529</ele>
        <time>2020-10-05T15:20:47.988Z</time>
      </trkpt>
      <trkpt lat="43.98794" lon="5.88838">
        <ele>529</ele>
        <time>2020-10-05T15:20:48.988Z</time>
      </trkpt>
      <trkpt lat="43.98794" lon="5.88838">
        <ele>529</ele>
        <time>2020-10-05T15:20:49.988Z</time>
      </trkpt>
      <trkpt lat="43.98794" lon="5.88838">
        <ele>529</ele>
        <time>2020-10-05T15:20:50.988Z</time>
      </trkpt>
      <trkpt lat="43.98794" lon="5.88838">
        <ele>529</ele>
        <time>2020-10-05T15:20:51.988Z</time>
      </trkpt>
      <trkpt lat="43.98794" lon="5.88837">
        <ele>529</ele>
        <time>2020-10-05T15:20:52.988Z</time>
      </trkpt>
      <trkpt lat="43.98794" lon="5.88837">
        <ele>529</ele>
        <time>2020-10-05T15:20:53.988Z</time>
      </trkpt>
      <trkpt lat="43.98794" lon="5.88837">
        <ele>529</ele>
        <time>2020-10-05T15:20:54.988Z</time>
      </trkpt>
      <trkpt lat="43.98794" lon="5.88837">
        <ele>528</ele>
        <time>2020-10-05T15:20:55.988Z</time>
      </trkpt>
      <trkpt lat="43.98794" lon="5.88837">
        <ele>528</ele>
        <time>2020-10-05T15:20:56.988Z</time>
      </trkpt>
      <trkpt lat="43.98793" lon="5.88837">
        <ele>528</ele>
        <time>2020-10-05T15:20:57.988Z</time>
      </trkpt>
      <trkpt lat="43.98793" lon="5.88837">
        <ele>528</ele>
        <time>2020-10-05T15:20:58.988Z</time>
      </trkpt>
      <trkpt lat="43.98793" lon="5.88837">
        <ele>528</ele>
        <time>2020-10-05T15:20:59.988Z</time>
      </trkpt>
      <trkpt lat="43.98793" lon="5.88837">
        <ele>528</ele>
        <time>2020-10-05T15:21:00.988Z</time>
      </trkpt>
      <trkpt lat="43.98793" lon="5.88837">
        <ele>528</ele>
        <time>2020-10-05T15:21:01.988Z</time>
      </trkpt>
      <trkpt lat="43.98793" lon="5.88838">
        <ele>528</ele>
        <time>2020-10-05T15:21:02.988Z</time>
      </trkpt>
      <trkpt lat="43.98792" lon="5.88839">
        <ele>528</ele>
        <time>2020-10-05T15:21:03.988Z</time>
      </trkpt>
      <trkpt lat="43.98792" lon="5.88839">
        <ele>528</ele>
        <time>2020-10-05T15:21:04.988Z</time>
      </trkpt>
      <trkpt lat="43.98791" lon="5.8884">
        <ele>528</ele>
        <time>2020-10-05T15:21:05.988Z</time>
      </trkpt>
      <trkpt lat="43.98791" lon="5.88841">
        <ele>528</ele>
        <time>2020-10-05T15:21:06.988Z</time>
      </trkpt>
      <trkpt lat="43.9879" lon="5.88842">
        <ele>528</ele>
        <time>2020-10-05T15:21:07.988Z</time>
      </trkpt>
      <trkpt lat="43.9879" lon="5.88844">
        <ele>528</ele>
        <time>2020-10-05T15:21:08.988Z</time>
      </trkpt>
      <trkpt lat="43.98789" lon="5.88845">
        <ele>528</ele>
        <time>2020-10-05T15:21:09.988Z</time>
      </trkpt>
      <trkpt lat="43.98789" lon="5.88847">
        <ele>528</ele>
        <time>2020-10-05T15:21:10.988Z</time>
      </trkpt>
      <trkpt lat="43.98788" lon="5.88848">
        <ele>528</ele>
        <time>2020-10-05T15:21:11.988Z</time>
      </trkpt>
      <trkpt lat="43.98787" lon="5.88849">
        <ele>527</ele>
        <time>2020-10-05T15:21:12.988Z</time>
      </trkpt>
      <trkpt lat="43.98787" lon="5.88851">
        <ele>527</ele>
        <time>2020-10-05T15:21:13.988Z</time>
      </trkpt>
      <trkpt lat="43.98786" lon="5.88852">
        <ele>527</ele>
        <time>2020-10-05T15:21:14.988Z</time>
      </trkpt>
      <trkpt lat="43.98785" lon="5.88853">
        <ele>528</ele>
        <time>2020-10-05T15:21:15.988Z</time>
      </trkpt>
      <trkpt lat="43.98784" lon="5.88854">
        <ele>528</ele>
        <time>2020-10-05T15:21:16.988Z</time>
      </trkpt>
      <trkpt lat="43.98783" lon="5.88855">
        <ele>528</ele>
        <time>2020-10-05T15:21:17.988Z</time>
      </trkpt>
      <trkpt lat="43.98782" lon="5.88856">
        <ele>528</ele>
        <time>2020-10-05T15:21:18.988Z</time>
      </trkpt>
      <trkpt lat="43.98781" lon="5.88856">
        <ele>528</ele>
        <time>2020-10-05T15:21:19.988Z</time>
      </trkpt>
      <trkpt lat="43.9878" lon="5.88857">
        <ele>528</ele>
        <time>2020-10-05T15:21:20.988Z</time>
      </trkpt>
      <trkpt lat="43.98779" lon="5.88857">
        <ele>528</ele>
        <time>2020-10-05T15:21:21.988Z</time>
      </trkpt>
      <trkpt lat="43.98777" lon="5.88858">
        <ele>528</ele>
        <time>2020-10-05T15:21:22.988Z</time>
      </trkpt>
      <trkpt lat="43.98777" lon="5.88858">
        <ele>528</ele>
        <time>2020-10-05T15:21:23.988Z</time>
      </trkpt>
      <trkpt lat="43.98776" lon="5.88859">
        <ele>528</ele>
        <time>2020-10-05T15:21:24.988Z</time>
      </trkpt>
      <trkpt lat="43.98775" lon="5.88859">
        <ele>528</ele>
        <time>2020-10-05T15:21:25.988Z</time>
      </trkpt>
      <trkpt lat="43.98774" lon="5.8886">
        <ele>528</ele>
        <time>2020-10-05T15:21:26.988Z</time>
      </trkpt>
      <trkpt lat="43.98773" lon="5.8886">
        <ele>528</ele>
        <time>2020-10-05T15:21:27.988Z</time>
      </trkpt>
      <trkpt lat="43.98772" lon="5.88861">
        <ele>528</ele>
        <time>2020-10-05T15:21:28.988Z</time>
      </trkpt>
      <trkpt lat="43.98771" lon="5.88861">
        <ele>528</ele>
        <time>2020-10-05T15:21:29.988Z</time>
      </trkpt>
      <trkpt lat="43.9877" lon="5.88862">
        <ele>528</ele>
        <time>2020-10-05T15:21:30.988Z</time>
      </trkpt>
      <trkpt lat="43.98768" lon="5.88863">
        <ele>528</ele>
        <time>2020-10-05T15:21:31.988Z</time>
      </trkpt>
      <trkpt lat="43.98767" lon="5.88863">
        <ele>528</ele>
        <time>2020-10-05T15:21:32.988Z</time>
      </trkpt>
      <trkpt lat="43.98766" lon="5.88864">
        <ele>528</ele>
        <time>2020-10-05T15:21:33.988Z</time>
      </trkpt>
      <trkpt lat="43.98765" lon="5.88864">
        <ele>528</ele>
        <time>2020-10-05T15:21:34.988Z</time>
      </trkpt>
      <trkpt lat="43.98764" lon="5.88865">
        <ele>528</ele>
        <time>2020-10-05T15:21:35.988Z</time>
      </trkpt>
      <trkpt lat="43.98763" lon="5.88866">
        <ele>528</ele>
        <time>2020-10-05T15:21:36.988Z</time>
      </trkpt>
      <trkpt lat="43.98762" lon="5.88866">
        <ele>528</ele>
        <time>2020-10-05T15:21:37.988Z</time>
      </trkpt>
      <trkpt lat="43.9876" lon="5.88867">
        <ele>528</ele>
        <time>2020-10-05T15:21:38.988Z</time>
      </trkpt>
      <trkpt lat="43.98759" lon="5.88867">
        <ele>528</ele>
        <time>2020-10-05T15:21:39.988Z</time>
      </trkpt>
      <trkpt lat="43.98758" lon="5.88867">
        <ele>528</ele>
        <time>2020-10-05T15:21:40.988Z</time>
      </trkpt>
      <trkpt lat="43.98757" lon="5.88868">
        <ele>528</ele>
        <time>2020-10-05T15:21:41.988Z</time>
      </trkpt>
      <trkpt lat="43.98756" lon="5.88869">
        <ele>528</ele>
        <time>2020-10-05T15:21:42.988Z</time>
      </trkpt>
      <trkpt lat="43.98755" lon="5.8887">
        <ele>528</ele>
        <time>2020-10-05T15:21:43.988Z</time>
      </trkpt>
      <trkpt lat="43.98754" lon="5.88871">
        <ele>528</ele>
        <time>2020-10-05T15:21:44.988Z</time>
      </trkpt>
      <trkpt lat="43.98753" lon="5.88872">
        <ele>528</ele>
        <time>2020-10-05T15:21:45.988Z</time>
      </trkpt>
      <trkpt lat="43.98752" lon="5.88873">
        <ele>528</ele>
        <time>2020-10-05T15:21:46.988Z</time>
      </trkpt>
      <trkpt lat="43.98752" lon="5.88873">
        <ele>528</ele>
        <time>2020-10-05T15:21:47.988Z</time>
      </trkpt>
      <trkpt lat="43.98752" lon="5.88873">
        <ele>528</ele>
        <time>2020-10-05T15:21:48.988Z</time>
      </trkpt>
      <trkpt lat="43.98751" lon="5.88873">
        <ele>528</ele>
        <time>2020-10-05T15:21:49.988Z</time>
      </trkpt>
      <trkpt lat="43.98751" lon="5.88873">
        <ele>528</ele>
        <time>2020-10-05T15:21:50.988Z</time>
      </trkpt>
      <trkpt lat="43.9875" lon="5.88873">
        <ele>528</ele>
        <time>2020-10-05T15:21:51.988Z</time>
      </trkpt>
      <trkpt lat="43.98749" lon="5.88874">
        <ele>528</ele>
        <time>2020-10-05T15:21:52.988Z</time>
      </trkpt>
      <trkpt lat="43.98748" lon="5.88874">
        <ele>528</ele>
        <time>2020-10-05T15:21:53.988Z</time>
      </trkpt>
      <trkpt lat="43.98747" lon="5.88875">
        <ele>528</ele>
        <time>2020-10-05T15:21:54.988Z</time>
      </trkpt>
      <trkpt lat="43.98747" lon="5.88876">
        <ele>529</ele>
        <time>2020-10-05T15:21:55.988Z</time>
      </trkpt>
      <trkpt lat="43.98745" lon="5.88877">
        <ele>529</ele>
        <time>2020-10-05T15:21:56.988Z</time>
      </trkpt>
      <trkpt lat="43.98744" lon="5.88877">
        <ele>529</ele>
        <time>2020-10-05T15:21:57.988Z</time>
      </trkpt>
      <trkpt lat="43.98743" lon="5.88878">
        <ele>529</ele>
        <time>2020-10-05T15:21:58.988Z</time>
      </trkpt>
      <trkpt lat="43.98742" lon="5.88878">
        <ele>529</ele>
        <time>2020-10-05T15:21:59.988Z</time>
      </trkpt>
      <trkpt lat="43.9874" lon="5.88878">
        <ele>529</ele>
        <time>2020-10-05T15:22:00.988Z</time>
      </trkpt>
      <trkpt lat="43.98739" lon="5.88878">
        <ele>529</ele>
        <time>2020-10-05T15:22:01.988Z</time>
      </trkpt>
      <trkpt lat="43.98737" lon="5.88878">
        <ele>529</ele>
        <time>2020-10-05T15:22:02.988Z</time>
      </trkpt>
      <trkpt lat="43.98736" lon="5.88879">
        <ele>530</ele>
        <time>2020-10-05T15:22:03.988Z</time>
      </trkpt>
      <trkpt lat="43.98734" lon="5.88879">
        <ele>530</ele>
        <time>2020-10-05T15:22:04.988Z</time>
      </trkpt>
      <trkpt lat="43.98733" lon="5.88879">
        <ele>530</ele>
        <time>2020-10-05T15:22:05.988Z</time>
      </trkpt>
      <trkpt lat="43.98731" lon="5.88879">
        <ele>530</ele>
        <time>2020-10-05T15:22:06.988Z</time>
      </trkpt>
      <trkpt lat="43.9873" lon="5.88879">
        <ele>530</ele>
        <time>2020-10-05T15:22:07.988Z</time>
      </trkpt>
      <trkpt lat="43.98729" lon="5.88879">
        <ele>530</ele>
        <time>2020-10-05T15:22:08.988Z</time>
      </trkpt>
      <trkpt lat="43.98727" lon="5.8888">
        <ele>530</ele>
        <time>2020-10-05T15:22:09.988Z</time>
      </trkpt>
      <trkpt lat="43.98727" lon="5.8888">
        <ele>530</ele>
        <time>2020-10-05T15:22:10.988Z</time>
      </trkpt>
      <trkpt lat="43.98726" lon="5.8888">
        <ele>530</ele>
        <time>2020-10-05T15:22:11.988Z</time>
      </trkpt>
      <trkpt lat="43.98725" lon="5.8888">
        <ele>531</ele>
        <time>2020-10-05T15:22:12.988Z</time>
      </trkpt>
      <trkpt lat="43.98724" lon="5.88881">
        <ele>531</ele>
        <time>2020-10-05T15:22:13.988Z</time>
      </trkpt>
      <trkpt lat="43.98723" lon="5.88881">
        <ele>531</ele>
        <time>2020-10-05T15:22:14.988Z</time>
      </trkpt>
      <trkpt lat="43.98722" lon="5.88882">
        <ele>531</ele>
        <time>2020-10-05T15:22:15.988Z</time>
      </trkpt>
      <trkpt lat="43.98722" lon="5.88882">
        <ele>531</ele>
        <time>2020-10-05T15:22:16.988Z</time>
      </trkpt>
      <trkpt lat="43.98721" lon="5.88882">
        <ele>531</ele>
        <time>2020-10-05T15:22:17.988Z</time>
      </trkpt>
      <trkpt lat="43.9872" lon="5.88883">
        <ele>531</ele>
        <time>2020-10-05T15:22:18.988Z</time>
      </trkpt>
      <trkpt lat="43.98719" lon="5.88883">
        <ele>531</ele>
        <time>2020-10-05T15:22:19.988Z</time>
      </trkpt>
      <trkpt lat="43.98719" lon="5.88884">
        <ele>531</ele>
        <time>2020-10-05T15:22:20.988Z</time>
      </trkpt>
      <trkpt lat="43.98718" lon="5.88884">
        <ele>531</ele>
        <time>2020-10-05T15:22:21.988Z</time>
      </trkpt>
      <trkpt lat="43.98717" lon="5.88884">
        <ele>532</ele>
        <time>2020-10-05T15:22:22.988Z</time>
      </trkpt>
      <trkpt lat="43.98717" lon="5.88884">
        <ele>532</ele>
        <time>2020-10-05T15:22:23.988Z</time>
      </trkpt>
      <trkpt lat="43.98716" lon="5.88884">
        <ele>532</ele>
        <time>2020-10-05T15:22:24.988Z</time>
      </trkpt>
      <trkpt lat="43.98715" lon="5.88884">
        <ele>532</ele>
        <time>2020-10-05T15:22:25.988Z</time>
      </trkpt>
      <trkpt lat="43.98714" lon="5.88885">
        <ele>532</ele>
        <time>2020-10-05T15:22:26.988Z</time>
      </trkpt>
      <trkpt lat="43.98714" lon="5.88885">
        <ele>532</ele>
        <time>2020-10-05T15:22:27.988Z</time>
      </trkpt>
      <trkpt lat="43.98713" lon="5.88885">
        <ele>532</ele>
        <time>2020-10-05T15:22:28.988Z</time>
      </trkpt>
      <trkpt lat="43.98712" lon="5.88885">
        <ele>532</ele>
        <time>2020-10-05T15:22:29.988Z</time>
      </trkpt>
      <trkpt lat="43.98711" lon="5.88885">
        <ele>532</ele>
        <time>2020-10-05T15:22:30.988Z</time>
      </trkpt>
      <trkpt lat="43.98711" lon="5.88886">
        <ele>532</ele>
        <time>2020-10-05T15:22:31.988Z</time>
      </trkpt>
      <trkpt lat="43.9871" lon="5.88886">
        <ele>532</ele>
        <time>2020-10-05T15:22:32.988Z</time>
      </trkpt>
      <trkpt lat="43.98709" lon="5.88887">
        <ele>532</ele>
        <time>2020-10-05T15:22:33.988Z</time>
      </trkpt>
      <trkpt lat="43.98709" lon="5.88888">
        <ele>532</ele>
        <time>2020-10-05T15:22:34.988Z</time>
      </trkpt>
      <trkpt lat="43.98709" lon="5.88889">
        <ele>532</ele>
        <time>2020-10-05T15:22:35.988Z</time>
      </trkpt>
      <trkpt lat="43.98708" lon="5.8889">
        <ele>533</ele>
        <time>2020-10-05T15:22:36.988Z</time>
      </trkpt>
      <trkpt lat="43.98708" lon="5.88891">
        <ele>533</ele>
        <time>2020-10-05T15:22:37.988Z</time>
      </trkpt>
      <trkpt lat="43.98708" lon="5.88892">
        <ele>533</ele>
        <time>2020-10-05T15:22:38.988Z</time>
      </trkpt>
      <trkpt lat="43.98708" lon="5.88892">
        <ele>533</ele>
        <time>2020-10-05T15:22:39.988Z</time>
      </trkpt>
      <trkpt lat="43.98708" lon="5.88893">
        <ele>533</ele>
        <time>2020-10-05T15:22:40.988Z</time>
      </trkpt>
      <trkpt lat="43.98708" lon="5.88893">
        <ele>533</ele>
        <time>2020-10-05T15:22:41.988Z</time>
      </trkpt>
      <trkpt lat="43.98708" lon="5.88894">
        <ele>533</ele>
        <time>2020-10-05T15:22:42.988Z</time>
      </trkpt>
      <trkpt lat="43.98707" lon="5.88895">
        <ele>533</ele>
        <time>2020-10-05T15:22:43.988Z</time>
      </trkpt>
      <trkpt lat="43.98707" lon="5.88896">
        <ele>533</ele>
        <time>2020-10-05T15:22:44.988Z</time>
      </trkpt>
      <trkpt lat="43.98707" lon="5.88897">
        <ele>533</ele>
        <time>2020-10-05T15:22:45.988Z</time>
      </trkpt>
      <trkpt lat="43.98707" lon="5.88898">
        <ele>533</ele>
        <time>2020-10-05T15:22:46.988Z</time>
      </trkpt>
      <trkpt lat="43.98707" lon="5.88898">
        <ele>533</ele>
        <time>2020-10-05T15:22:47.988Z</time>
      </trkpt>
      <trkpt lat="43.98707" lon="5.88899">
        <ele>533</ele>
        <time>2020-10-05T15:22:48.988Z</time>
      </trkpt>
      <trkpt lat="43.98707" lon="5.88899">
        <ele>533</ele>
        <time>2020-10-05T15:22:49.988Z</time>
      </trkpt>
      <trkpt lat="43.98707" lon="5.889">
        <ele>533</ele>
        <time>2020-10-05T15:22:50.988Z</time>
      </trkpt>
      <trkpt lat="43.98707" lon="5.88901">
        <ele>533</ele>
        <time>2020-10-05T15:22:51.988Z</time>
      </trkpt>
      <trkpt lat="43.98707" lon="5.88902">
        <ele>533</ele>
        <time>2020-10-05T15:22:52.988Z</time>
      </trkpt>
      <trkpt lat="43.98706" lon="5.88902">
        <ele>533</ele>
        <time>2020-10-05T15:22:53.988Z</time>
      </trkpt>
      <trkpt lat="43.98706" lon="5.88903">
        <ele>533</ele>
        <time>2020-10-05T15:22:54.988Z</time>
      </trkpt>
      <trkpt lat="43.98706" lon="5.88904">
        <ele>534</ele>
        <time>2020-10-05T15:22:55.988Z</time>
      </trkpt>
      <trkpt lat="43.98706" lon="5.88905">
        <ele>534</ele>
        <time>2020-10-05T15:22:56.988Z</time>
      </trkpt>
      <trkpt lat="43.98705" lon="5.88906">
        <ele>534</ele>
        <time>2020-10-05T15:22:57.988Z</time>
      </trkpt>
      <trkpt lat="43.98704" lon="5.88907">
        <ele>534</ele>
        <time>2020-10-05T15:22:58.988Z</time>
      </trkpt>
      <trkpt lat="43.98704" lon="5.88908">
        <ele>534</ele>
        <time>2020-10-05T15:22:59.988Z</time>
      </trkpt>
      <trkpt lat="43.98704" lon="5.88909">
        <ele>534</ele>
        <time>2020-10-05T15:23:00.988Z</time>
      </trkpt>
      <trkpt lat="43.98703" lon="5.88911">
        <ele>534</ele>
        <time>2020-10-05T15:23:01.988Z</time>
      </trkpt>
      <trkpt lat="43.98703" lon="5.88912">
        <ele>534</ele>
        <time>2020-10-05T15:23:02.988Z</time>
      </trkpt>
      <trkpt lat="43.98703" lon="5.88913">
        <ele>534</ele>
        <time>2020-10-05T15:23:03.988Z</time>
      </trkpt>
      <trkpt lat="43.98702" lon="5.88914">
        <ele>534</ele>
        <time>2020-10-05T15:23:04.988Z</time>
      </trkpt>
      <trkpt lat="43.98702" lon="5.88914">
        <ele>535</ele>
        <time>2020-10-05T15:23:05.988Z</time>
      </trkpt>
      <trkpt lat="43.98702" lon="5.88915">
        <ele>535</ele>
        <time>2020-10-05T15:23:06.988Z</time>
      </trkpt>
      <trkpt lat="43.98702" lon="5.88916">
        <ele>535</ele>
        <time>2020-10-05T15:23:07.988Z</time>
      </trkpt>
      <trkpt lat="43.98702" lon="5.88917">
        <ele>535</ele>
        <time>2020-10-05T15:23:08.988Z</time>
      </trkpt>
      <trkpt lat="43.98702" lon="5.88917">
        <ele>535</ele>
        <time>2020-10-05T15:23:09.988Z</time>
      </trkpt>
      <trkpt lat="43.98702" lon="5.88917">
        <ele>535</ele>
        <time>2020-10-05T15:23:10.988Z</time>
      </trkpt>
      <trkpt lat="43.98702" lon="5.88918">
        <ele>535</ele>
        <time>2020-10-05T15:23:11.988Z</time>
      </trkpt>
      <trkpt lat="43.98702" lon="5.88918">
        <ele>535</ele>
        <time>2020-10-05T15:23:12.988Z</time>
      </trkpt>
      <trkpt lat="43.98702" lon="5.88919">
        <ele>535</ele>
        <time>2020-10-05T15:23:13.988Z</time>
      </trkpt>
      <trkpt lat="43.98702" lon="5.88919">
        <ele>536</ele>
        <time>2020-10-05T15:23:14.988Z</time>
      </trkpt>
      <trkpt lat="43.98702" lon="5.88919">
        <ele>536</ele>
        <time>2020-10-05T15:23:15.988Z</time>
      </trkpt>
      <trkpt lat="43.98701" lon="5.8892">
        <ele>536</ele>
        <time>2020-10-05T15:23:16.988Z</time>
      </trkpt>
      <trkpt lat="43.98701" lon="5.8892">
        <ele>536</ele>
        <time>2020-10-05T15:23:17.988Z</time>
      </trkpt>
      <trkpt lat="43.98701" lon="5.88921">
        <ele>536</ele>
        <time>2020-10-05T15:23:18.988Z</time>
      </trkpt>
      <trkpt lat="43.987" lon="5.88922">
        <ele>536</ele>
        <time>2020-10-05T15:23:19.988Z</time>
      </trkpt>
      <trkpt lat="43.987" lon="5.88922">
        <ele>536</ele>
        <time>2020-10-05T15:23:20.988Z</time>
      </trkpt>
      <trkpt lat="43.98699" lon="5.88923">
        <ele>536</ele>
        <time>2020-10-05T15:23:21.988Z</time>
      </trkpt>
      <trkpt lat="43.98699" lon="5.88924">
        <ele>537</ele>
        <time>2020-10-05T15:23:22.988Z</time>
      </trkpt>
      <trkpt lat="43.98698" lon="5.88924">
        <ele>537</ele>
        <time>2020-10-05T15:23:23.988Z</time>
      </trkpt>
      <trkpt lat="43.98697" lon="5.88924">
        <ele>537</ele>
        <time>2020-10-05T15:23:24.988Z</time>
      </trkpt>
      <trkpt lat="43.98696" lon="5.88925">
        <ele>537</ele>
        <time>2020-10-05T15:23:25.988Z</time>
      </trkpt>
      <trkpt lat="43.98695" lon="5.88925">
        <ele>537</ele>
        <time>2020-10-05T15:23:26.988Z</time>
      </trkpt>
      <trkpt lat="43.98694" lon="5.88926">
        <ele>538</ele>
        <time>2020-10-05T15:23:27.988Z</time>
      </trkpt>
      <trkpt lat="43.98693" lon="5.88927">
        <ele>538</ele>
        <time>2020-10-05T15:23:28.988Z</time>
      </trkpt>
      <trkpt lat="43.98692" lon="5.88927">
        <ele>538</ele>
        <time>2020-10-05T15:23:29.988Z</time>
      </trkpt>
      <trkpt lat="43.98692" lon="5.88928">
        <ele>539</ele>
        <time>2020-10-05T15:23:30.988Z</time>
      </trkpt>
      <trkpt lat="43.98691" lon="5.88928">
        <ele>539</ele>
        <time>2020-10-05T15:23:31.988Z</time>
      </trkpt>
      <trkpt lat="43.9869" lon="5.88928">
        <ele>540</ele>
        <time>2020-10-05T15:23:32.988Z</time>
      </trkpt>
      <trkpt lat="43.98688" lon="5.88928">
        <ele>540</ele>
        <time>2020-10-05T15:23:33.988Z</time>
      </trkpt>
      <trkpt lat="43.98687" lon="5.88929">
        <ele>540</ele>
        <time>2020-10-05T15:23:34.988Z</time>
      </trkpt>
      <trkpt lat="43.98686" lon="5.88929">
        <ele>541</ele>
        <time>2020-10-05T15:23:35.988Z</time>
      </trkpt>
      <trkpt lat="43.98685" lon="5.88929">
        <ele>541</ele>
        <time>2020-10-05T15:23:36.988Z</time>
      </trkpt>
      <trkpt lat="43.98684" lon="5.88929">
        <ele>541</ele>
        <time>2020-10-05T15:23:37.988Z</time>
      </trkpt>
      <trkpt lat="43.98683" lon="5.8893">
        <ele>542</ele>
        <time>2020-10-05T15:23:38.988Z</time>
      </trkpt>
      <trkpt lat="43.98682" lon="5.8893">
        <ele>542</ele>
        <time>2020-10-05T15:23:39.988Z</time>
      </trkpt>
      <trkpt lat="43.98681" lon="5.8893">
        <ele>542</ele>
        <time>2020-10-05T15:23:40.988Z</time>
      </trkpt>
      <trkpt lat="43.9868" lon="5.88931">
        <ele>542</ele>
        <time>2020-10-05T15:23:41.988Z</time>
      </trkpt>
      <trkpt lat="43.9868" lon="5.88932">
        <ele>543</ele>
        <time>2020-10-05T15:23:42.988Z</time>
      </trkpt>
      <trkpt lat="43.98679" lon="5.88932">
        <ele>543</ele>
        <time>2020-10-05T15:23:43.988Z</time>
      </trkpt>
      <trkpt lat="43.98678" lon="5.88933">
        <ele>543</ele>
        <time>2020-10-05T15:23:44.988Z</time>
      </trkpt>
      <trkpt lat="43.98678" lon="5.88933">
        <ele>543</ele>
        <time>2020-10-05T15:23:45.988Z</time>
      </trkpt>
      <trkpt lat="43.98677" lon="5.88934">
        <ele>544</ele>
        <time>2020-10-05T15:23:46.988Z</time>
      </trkpt>
      <trkpt lat="43.98677" lon="5.88934">
        <ele>544</ele>
        <time>2020-10-05T15:23:47.988Z</time>
      </trkpt>
      <trkpt lat="43.98676" lon="5.88935">
        <ele>544</ele>
        <time>2020-10-05T15:23:48.988Z</time>
      </trkpt>
      <trkpt lat="43.98676" lon="5.88935">
        <ele>544</ele>
        <time>2020-10-05T15:23:49.988Z</time>
      </trkpt>
      <trkpt lat="43.98675" lon="5.88936">
        <ele>545</ele>
        <time>2020-10-05T15:23:50.988Z</time>
      </trkpt>
      <trkpt lat="43.98675" lon="5.88937">
        <ele>545</ele>
        <time>2020-10-05T15:23:51.988Z</time>
      </trkpt>
      <trkpt lat="43.98674" lon="5.88937">
        <ele>545</ele>
        <time>2020-10-05T15:23:52.988Z</time>
      </trkpt>
      <trkpt lat="43.98674" lon="5.88938">
        <ele>545</ele>
        <time>2020-10-05T15:23:53.988Z</time>
      </trkpt>
      <trkpt lat="43.98673" lon="5.88938">
        <ele>545</ele>
        <time>2020-10-05T15:23:54.988Z</time>
      </trkpt>
      <trkpt lat="43.98672" lon="5.88939">
        <ele>546</ele>
        <time>2020-10-05T15:23:55.988Z</time>
      </trkpt>
      <trkpt lat="43.98672" lon="5.88939">
        <ele>546</ele>
        <time>2020-10-05T15:23:56.988Z</time>
      </trkpt>
      <trkpt lat="43.98671" lon="5.88939">
        <ele>546</ele>
        <time>2020-10-05T15:23:57.988Z</time>
      </trkpt>
      <trkpt lat="43.98671" lon="5.88939">
        <ele>546</ele>
        <time>2020-10-05T15:23:58.988Z</time>
      </trkpt>
      <trkpt lat="43.98671" lon="5.8894">
        <ele>546</ele>
        <time>2020-10-05T15:23:59.988Z</time>
      </trkpt>
      <trkpt lat="43.98671" lon="5.8894">
        <ele>547</ele>
        <time>2020-10-05T15:24:00.988Z</time>
      </trkpt>
      <trkpt lat="43.9867" lon="5.8894">
        <ele>547</ele>
        <time>2020-10-05T15:24:01.988Z</time>
      </trkpt>
      <trkpt lat="43.9867" lon="5.8894">
        <ele>547</ele>
        <time>2020-10-05T15:24:02.988Z</time>
      </trkpt>
      <trkpt lat="43.98669" lon="5.88941">
        <ele>547</ele>
        <time>2020-10-05T15:24:03.988Z</time>
      </trkpt>
      <trkpt lat="43.98669" lon="5.88941">
        <ele>547</ele>
        <time>2020-10-05T15:24:04.988Z</time>
      </trkpt>
      <trkpt lat="43.98669" lon="5.88941">
        <ele>547</ele>
        <time>2020-10-05T15:24:05.988Z</time>
      </trkpt>
      <trkpt lat="43.98669" lon="5.88942">
        <ele>548</ele>
        <time>2020-10-05T15:24:06.988Z</time>
      </trkpt>
      <trkpt lat="43.98669" lon="5.88942">
        <ele>548</ele>
        <time>2020-10-05T15:24:07.988Z</time>
      </trkpt>
      <trkpt lat="43.98668" lon="5.88943">
        <ele>548</ele>
        <time>2020-10-05T15:24:08.988Z</time>
      </trkpt>
      <trkpt lat="43.98668" lon="5.88944">
        <ele>548</ele>
        <time>2020-10-05T15:24:09.988Z</time>
      </trkpt>
      <trkpt lat="43.98667" lon="5.88944">
        <ele>548</ele>
        <time>2020-10-05T15:24:10.988Z</time>
      </trkpt>
      <trkpt lat="43.98667" lon="5.88945">
        <ele>548</ele>
        <time>2020-10-05T15:24:11.988Z</time>
      </trkpt>
      <trkpt lat="43.98667" lon="5.88946">
        <ele>549</ele>
        <time>2020-10-05T15:24:12.988Z</time>
      </trkpt>
      <trkpt lat="43.98666" lon="5.88946">
        <ele>549</ele>
        <time>2020-10-05T15:24:13.988Z</time>
      </trkpt>
      <trkpt lat="43.98666" lon="5.88947">
        <ele>549</ele>
        <time>2020-10-05T15:24:14.988Z</time>
      </trkpt>
      <trkpt lat="43.98666" lon="5.88947">
        <ele>549</ele>
        <time>2020-10-05T15:24:15.988Z</time>
      </trkpt>
      <trkpt lat="43.98666" lon="5.88947">
        <ele>549</ele>
        <time>2020-10-05T15:24:16.988Z</time>
      </trkpt>
      <trkpt lat="43.98666" lon="5.88947">
        <ele>549</ele>
        <time>2020-10-05T15:24:17.988Z</time>
      </trkpt>
      <trkpt lat="43.98666" lon="5.88947">
        <ele>549</ele>
        <time>2020-10-05T15:24:18.988Z</time>
      </trkpt>
      <trkpt lat="43.98666" lon="5.88947">
        <ele>549</ele>
        <time>2020-10-05T15:24:19.988Z</time>
      </trkpt>
      <trkpt lat="43.98666" lon="5.88947">
        <ele>549</ele>
        <time>2020-10-05T15:24:20.988Z</time>
      </trkpt>
      <trkpt lat="43.98666" lon="5.88947">
        <ele>549</ele>
        <time>2020-10-05T15:24:21.988Z</time>
      </trkpt>
      <trkpt lat="43.98666" lon="5.88947">
        <ele>549</ele>
        <time>2020-10-05T15:24:22.988Z</time>
      </trkpt>
      <trkpt lat="43.98666" lon="5.88947">
        <ele>549</ele>
        <time>2020-10-05T15:24:23.988Z</time>
      </trkpt>
      <trkpt lat="43.98666" lon="5.88947">
        <ele>549</ele>
        <time>2020-10-05T15:24:24.988Z</time>
      </trkpt>
      <trkpt lat="43.98666" lon="5.88948">
        <ele>549</ele>
        <time>2020-10-05T15:24:25.988Z</time>
      </trkpt>
      <trkpt lat="43.98666" lon="5.88948">
        <ele>550</ele>
        <time>2020-10-05T15:24:26.988Z</time>
      </trkpt>
      <trkpt lat="43.98665" lon="5.88948">
        <ele>550</ele>
        <time>2020-10-05T15:24:27.988Z</time>
      </trkpt>
      <trkpt lat="43.98665" lon="5.88948">
        <ele>550</ele>
        <time>2020-10-05T15:24:28.988Z</time>
      </trkpt>
      <trkpt lat="43.98665" lon="5.88948">
        <ele>550</ele>
        <time>2020-10-05T15:24:29.988Z</time>
      </trkpt>
      <trkpt lat="43.98665" lon="5.88948">
        <ele>550</ele>
        <time>2020-10-05T15:24:30.988Z</time>
      </trkpt>
      <trkpt lat="43.98665" lon="5.88948">
        <ele>550</ele>
        <time>2020-10-05T15:24:31.988Z</time>
      </trkpt>
      <trkpt lat="43.98664" lon="5.88949">
        <ele>550</ele>
        <time>2020-10-05T15:24:32.988Z</time>
      </trkpt>
      <trkpt lat="43.98664" lon="5.8895">
        <ele>550</ele>
        <time>2020-10-05T15:24:33.988Z</time>
      </trkpt>
      <trkpt lat="43.98664" lon="5.88951">
        <ele>550</ele>
        <time>2020-10-05T15:24:34.988Z</time>
      </trkpt>
      <trkpt lat="43.98664" lon="5.88952">
        <ele>550</ele>
        <time>2020-10-05T15:24:35.988Z</time>
      </trkpt>
      <trkpt lat="43.98664" lon="5.88954">
        <ele>550</ele>
        <time>2020-10-05T15:24:36.988Z</time>
      </trkpt>
      <trkpt lat="43.98663" lon="5.88955">
        <ele>550</ele>
        <time>2020-10-05T15:24:37.988Z</time>
      </trkpt>
      <trkpt lat="43.98663" lon="5.88956">
        <ele>550</ele>
        <time>2020-10-05T15:24:38.988Z</time>
      </trkpt>
      <trkpt lat="43.98663" lon="5.88957">
        <ele>550</ele>
        <time>2020-10-05T15:24:39.988Z</time>
      </trkpt>
      <trkpt lat="43.98662" lon="5.88958">
        <ele>550</ele>
        <time>2020-10-05T15:24:40.988Z</time>
      </trkpt>
      <trkpt lat="43.98662" lon="5.88959">
        <ele>550</ele>
        <time>2020-10-05T15:24:41.988Z</time>
      </trkpt>
      <trkpt lat="43.98662" lon="5.8896">
        <ele>550</ele>
        <time>2020-10-05T15:24:42.988Z</time>
      </trkpt>
      <trkpt lat="43.98662" lon="5.8896">
        <ele>550</ele>
        <time>2020-10-05T15:24:43.988Z</time>
      </trkpt>
      <trkpt lat="43.98662" lon="5.88961">
        <ele>550</ele>
        <time>2020-10-05T15:24:44.988Z</time>
      </trkpt>
      <trkpt lat="43.98662" lon="5.88962">
        <ele>550</ele>
        <time>2020-10-05T15:24:45.988Z</time>
      </trkpt>
      <trkpt lat="43.98662" lon="5.88963">
        <ele>550</ele>
        <time>2020-10-05T15:24:46.988Z</time>
      </trkpt>
      <trkpt lat="43.98662" lon="5.88964">
        <ele>550</ele>
        <time>2020-10-05T15:24:47.988Z</time>
      </trkpt>
      <trkpt lat="43.98662" lon="5.88965">
        <ele>550</ele>
        <time>2020-10-05T15:24:48.988Z</time>
      </trkpt>
      <trkpt lat="43.98663" lon="5.88967">
        <ele>550</ele>
        <time>2020-10-05T15:24:49.988Z</time>
      </trkpt>
      <trkpt lat="43.98663" lon="5.88968">
        <ele>550</ele>
        <time>2020-10-05T15:24:50.988Z</time>
      </trkpt>
      <trkpt lat="43.98663" lon="5.8897">
        <ele>550</ele>
        <time>2020-10-05T15:24:51.988Z</time>
      </trkpt>
      <trkpt lat="43.98663" lon="5.88971">
        <ele>550</ele>
        <time>2020-10-05T15:24:52.988Z</time>
      </trkpt>
      <trkpt lat="43.98664" lon="5.88972">
        <ele>550</ele>
        <time>2020-10-05T15:24:53.988Z</time>
      </trkpt>
      <trkpt lat="43.98664" lon="5.88974">
        <ele>550</ele>
        <time>2020-10-05T15:24:54.988Z</time>
      </trkpt>
      <trkpt lat="43.98664" lon="5.88975">
        <ele>550</ele>
        <time>2020-10-05T15:24:55.988Z</time>
      </trkpt>
      <trkpt lat="43.98665" lon="5.88976">
        <ele>550</ele>
        <time>2020-10-05T15:24:56.988Z</time>
      </trkpt>
      <trkpt lat="43.98665" lon="5.88977">
        <ele>550</ele>
        <time>2020-10-05T15:24:57.988Z</time>
      </trkpt>
      <trkpt lat="43.98666" lon="5.88977">
        <ele>550</ele>
        <time>2020-10-05T15:24:58.988Z</time>
      </trkpt>
      <trkpt lat="43.98667" lon="5.88978">
        <ele>550</ele>
        <time>2020-10-05T15:24:59.988Z</time>
      </trkpt>
      <trkpt lat="43.98668" lon="5.88978">
        <ele>550</ele>
        <time>2020-10-05T15:25:00.988Z</time>
      </trkpt>
      <trkpt lat="43.98669" lon="5.88979">
        <ele>550</ele>
        <time>2020-10-05T15:25:01.988Z</time>
      </trkpt>
      <trkpt lat="43.9867" lon="5.88979">
        <ele>550</ele>
        <time>2020-10-05T15:25:02.988Z</time>
      </trkpt>
      <trkpt lat="43.98671" lon="5.8898">
        <ele>550</ele>
        <time>2020-10-05T15:25:03.988Z</time>
      </trkpt>
      <trkpt lat="43.98672" lon="5.8898">
        <ele>550</ele>
        <time>2020-10-05T15:25:04.988Z</time>
      </trkpt>
      <trkpt lat="43.98673" lon="5.8898">
        <ele>550</ele>
        <time>2020-10-05T15:25:05.988Z</time>
      </trkpt>
      <trkpt lat="43.98673" lon="5.88981">
        <ele>550</ele>
        <time>2020-10-05T15:25:06.988Z</time>
      </trkpt>
      <trkpt lat="43.98674" lon="5.88981">
        <ele>550</ele>
        <time>2020-10-05T15:25:07.988Z</time>
      </trkpt>
      <trkpt lat="43.98675" lon="5.88981">
        <ele>550</ele>
        <time>2020-10-05T15:25:08.988Z</time>
      </trkpt>
      <trkpt lat="43.98676" lon="5.88981">
        <ele>550</ele>
        <time>2020-10-05T15:25:09.988Z</time>
      </trkpt>
      <trkpt lat="43.98677" lon="5.88981">
        <ele>550</ele>
        <time>2020-10-05T15:25:10.988Z</time>
      </trkpt>
      <trkpt lat="43.98678" lon="5.88981">
        <ele>550</ele>
        <time>2020-10-05T15:25:11.988Z</time>
      </trkpt>
      <trkpt lat="43.98679" lon="5.8898">
        <ele>550</ele>
        <time>2020-10-05T15:25:12.988Z</time>
      </trkpt>
      <trkpt lat="43.98681" lon="5.8898">
        <ele>550</ele>
        <time>2020-10-05T15:25:13.988Z</time>
      </trkpt>
      <trkpt lat="43.98682" lon="5.8898">
        <ele>550</ele>
        <time>2020-10-05T15:25:14.988Z</time>
      </trkpt>
      <trkpt lat="43.98683" lon="5.8898">
        <ele>550</ele>
        <time>2020-10-05T15:25:15.988Z</time>
      </trkpt>
      <trkpt lat="43.98684" lon="5.8898">
        <ele>550</ele>
        <time>2020-10-05T15:25:16.988Z</time>
      </trkpt>
      <trkpt lat="43.98685" lon="5.88981">
        <ele>550</ele>
        <time>2020-10-05T15:25:17.988Z</time>
      </trkpt>
      <trkpt lat="43.98687" lon="5.88981">
        <ele>550</ele>
        <time>2020-10-05T15:25:18.988Z</time>
      </trkpt>
      <trkpt lat="43.98687" lon="5.88982">
        <ele>550</ele>
        <time>2020-10-05T15:25:19.988Z</time>
      </trkpt>
      <trkpt lat="43.98688" lon="5.88983">
        <ele>550</ele>
        <time>2020-10-05T15:25:20.988Z</time>
      </trkpt>
      <trkpt lat="43.98689" lon="5.88984">
        <ele>550</ele>
        <time>2020-10-05T15:25:21.988Z</time>
      </trkpt>
      <trkpt lat="43.9869" lon="5.88985">
        <ele>550</ele>
        <time>2020-10-05T15:25:22.988Z</time>
      </trkpt>
      <trkpt lat="43.9869" lon="5.88986">
        <ele>550</ele>
        <time>2020-10-05T15:25:23.988Z</time>
      </trkpt>
      <trkpt lat="43.9869" lon="5.88988">
        <ele>550</ele>
        <time>2020-10-05T15:25:24.988Z</time>
      </trkpt>
      <trkpt lat="43.98691" lon="5.88989">
        <ele>550</ele>
        <time>2020-10-05T15:25:25.988Z</time>
      </trkpt>
      <trkpt lat="43.98691" lon="5.8899">
        <ele>550</ele>
        <time>2020-10-05T15:25:26.988Z</time>
      </trkpt>
      <trkpt lat="43.98692" lon="5.88991">
        <ele>550</ele>
        <time>2020-10-05T15:25:27.988Z</time>
      </trkpt>
      <trkpt lat="43.98693" lon="5.88992">
        <ele>550</ele>
        <time>2020-10-05T15:25:28.988Z</time>
      </trkpt>
      <trkpt lat="43.98693" lon="5.88994">
        <ele>550</ele>
        <time>2020-10-05T15:25:29.988Z</time>
      </trkpt>
      <trkpt lat="43.98694" lon="5.88995">
        <ele>550</ele>
        <time>2020-10-05T15:25:30.988Z</time>
      </trkpt>
      <trkpt lat="43.98694" lon="5.88996">
        <ele>550</ele>
        <time>2020-10-05T15:25:31.988Z</time>
      </trkpt>
      <trkpt lat="43.98695" lon="5.88998">
        <ele>550</ele>
        <time>2020-10-05T15:25:32.988Z</time>
      </trkpt>
      <trkpt lat="43.98696" lon="5.88999">
        <ele>550</ele>
        <time>2020-10-05T15:25:33.988Z</time>
      </trkpt>
      <trkpt lat="43.98696" lon="5.89">
        <ele>550</ele>
        <time>2020-10-05T15:25:34.988Z</time>
      </trkpt>
      <trkpt lat="43.98697" lon="5.89001">
        <ele>550</ele>
        <time>2020-10-05T15:25:35.988Z</time>
      </trkpt>
      <trkpt lat="43.98698" lon="5.89003">
        <ele>550</ele>
        <time>2020-10-05T15:25:36.988Z</time>
      </trkpt>
      <trkpt lat="43.98698" lon="5.89004">
        <ele>550</ele>
        <time>2020-10-05T15:25:37.988Z</time>
      </trkpt>
      <trkpt lat="43.98699" lon="5.89005">
        <ele>550</ele>
        <time>2020-10-05T15:25:38.988Z</time>
      </trkpt>
      <trkpt lat="43.98699" lon="5.89006">
        <ele>550</ele>
        <time>2020-10-05T15:25:39.988Z</time>
      </trkpt>
      <trkpt lat="43.98699" lon="5.89008">
        <ele>550</ele>
        <time>2020-10-05T15:25:40.988Z</time>
      </trkpt>
      <trkpt lat="43.987" lon="5.89009">
        <ele>550</ele>
        <time>2020-10-05T15:25:41.988Z</time>
      </trkpt>
      <trkpt lat="43.987" lon="5.8901">
        <ele>550</ele>
        <time>2020-10-05T15:25:42.988Z</time>
      </trkpt>
      <trkpt lat="43.98701" lon="5.89011">
        <ele>550</ele>
        <time>2020-10-05T15:25:43.988Z</time>
      </trkpt>
      <trkpt lat="43.98701" lon="5.89012">
        <ele>550</ele>
        <time>2020-10-05T15:25:44.988Z</time>
      </trkpt>
      <trkpt lat="43.98702" lon="5.89014">
        <ele>550</ele>
        <time>2020-10-05T15:25:45.988Z</time>
      </trkpt>
      <trkpt lat="43.98702" lon="5.89015">
        <ele>550</ele>
        <time>2020-10-05T15:25:46.988Z</time>
      </trkpt>
      <trkpt lat="43.98703" lon="5.89016">
        <ele>550</ele>
        <time>2020-10-05T15:25:47.988Z</time>
      </trkpt>
      <trkpt lat="43.98703" lon="5.89017">
        <ele>550</ele>
        <time>2020-10-05T15:25:48.988Z</time>
      </trkpt>
      <trkpt lat="43.98704" lon="5.89018">
        <ele>550</ele>
        <time>2020-10-05T15:25:49.988Z</time>
      </trkpt>
      <trkpt lat="43.98704" lon="5.89019">
        <ele>550</ele>
        <time>2020-10-05T15:25:50.988Z</time>
      </trkpt>
      <trkpt lat="43.98705" lon="5.8902">
        <ele>550</ele>
        <time>2020-10-05T15:25:51.988Z</time>
      </trkpt>
      <trkpt lat="43.98705" lon="5.89021">
        <ele>550</ele>
        <time>2020-10-05T15:25:52.988Z</time>
      </trkpt>
      <trkpt lat="43.98706" lon="5.89022">
        <ele>550</ele>
        <time>2020-10-05T15:25:53.988Z</time>
      </trkpt>
      <trkpt lat="43.98706" lon="5.89023">
        <ele>550</ele>
        <time>2020-10-05T15:25:54.988Z</time>
      </trkpt>
      <trkpt lat="43.98707" lon="5.89024">
        <ele>550</ele>
        <time>2020-10-05T15:25:55.988Z</time>
      </trkpt>
      <trkpt lat="43.98707" lon="5.89025">
        <ele>550</ele>
        <time>2020-10-05T15:25:56.988Z</time>
      </trkpt>
      <trkpt lat="43.98708" lon="5.89026">
        <ele>550</ele>
        <time>2020-10-05T15:25:57.988Z</time>
      </trkpt>
      <trkpt lat="43.98708" lon="5.89027">
        <ele>550</ele>
        <time>2020-10-05T15:25:58.988Z</time>
      </trkpt>
      <trkpt lat="43.98709" lon="5.89028">
        <ele>550</ele>
        <time>2020-10-05T15:25:59.988Z</time>
      </trkpt>
      <trkpt lat="43.98709" lon="5.89029">
        <ele>550</ele>
        <time>2020-10-05T15:26:00.988Z</time>
      </trkpt>
      <trkpt lat="43.9871" lon="5.8903">
        <ele>550</ele>
        <time>2020-10-05T15:26:01.988Z</time>
      </trkpt>
      <trkpt lat="43.9871" lon="5.89031">
        <ele>550</ele>
        <time>2020-10-05T15:26:02.988Z</time>
      </trkpt>
      <trkpt lat="43.9871" lon="5.89032">
        <ele>550</ele>
        <time>2020-10-05T15:26:03.988Z</time>
      </trkpt>
      <trkpt lat="43.98711" lon="5.89034">
        <ele>550</ele>
        <time>2020-10-05T15:26:04.988Z</time>
      </trkpt>
      <trkpt lat="43.98711" lon="5.89035">
        <ele>550</ele>
        <time>2020-10-05T15:26:05.988Z</time>
      </trkpt>
      <trkpt lat="43.98712" lon="5.89036">
        <ele>550</ele>
        <time>2020-10-05T15:26:06.988Z</time>
      </trkpt>
      <trkpt lat="43.98712" lon="5.89037">
        <ele>550</ele>
        <time>2020-10-05T15:26:07.988Z</time>
      </trkpt>
      <trkpt lat="43.98713" lon="5.89038">
        <ele>550</ele>
        <time>2020-10-05T15:26:08.988Z</time>
      </trkpt>
      <trkpt lat="43.98713" lon="5.89039">
        <ele>550</ele>
        <time>2020-10-05T15:26:09.988Z</time>
      </trkpt>
      <trkpt lat="43.98713" lon="5.8904">
        <ele>550</ele>
        <time>2020-10-05T15:26:10.988Z</time>
      </trkpt>
      <trkpt lat="43.98713" lon="5.89042">
        <ele>550</ele>
        <time>2020-10-05T15:26:11.988Z</time>
      </trkpt>
      <trkpt lat="43.98713" lon="5.89043">
        <ele>549</ele>
        <time>2020-10-05T15:26:12.988Z</time>
      </trkpt>
      <trkpt lat="43.98713" lon="5.89044">
        <ele>549</ele>
        <time>2020-10-05T15:26:13.988Z</time>
      </trkpt>
      <trkpt lat="43.98713" lon="5.89044">
        <ele>549</ele>
        <time>2020-10-05T15:26:14.988Z</time>
      </trkpt>
      <trkpt lat="43.98713" lon="5.89044">
        <ele>549</ele>
        <time>2020-10-05T15:26:15.988Z</time>
      </trkpt>
      <trkpt lat="43.98713" lon="5.89044">
        <ele>549</ele>
        <time>2020-10-05T15:26:16.988Z</time>
      </trkpt>
      <trkpt lat="43.98713" lon="5.89045">
        <ele>549</ele>
        <time>2020-10-05T15:26:17.988Z</time>
      </trkpt>
      <trkpt lat="43.98713" lon="5.89045">
        <ele>549</ele>
        <time>2020-10-05T15:26:18.988Z</time>
      </trkpt>
      <trkpt lat="43.98713" lon="5.89045">
        <ele>549</ele>
        <time>2020-10-05T15:26:19.988Z</time>
      </trkpt>
      <trkpt lat="43.98713" lon="5.89044">
        <ele>550</ele>
        <time>2020-10-05T15:26:20.988Z</time>
      </trkpt>
      <trkpt lat="43.98714" lon="5.89044">
        <ele>550</ele>
        <time>2020-10-05T15:26:21.988Z</time>
      </trkpt>
      <trkpt lat="43.98714" lon="5.89044">
        <ele>550</ele>
        <time>2020-10-05T15:26:22.988Z</time>
      </trkpt>
      <trkpt lat="43.98714" lon="5.89044">
        <ele>550</ele>
        <time>2020-10-05T15:26:23.988Z</time>
      </trkpt>
      <trkpt lat="43.98714" lon="5.89044">
        <ele>550</ele>
        <time>2020-10-05T15:26:24.988Z</time>
      </trkpt>
      <trkpt lat="43.98715" lon="5.89044">
        <ele>550</ele>
        <time>2020-10-05T15:26:25.988Z</time>
      </trkpt>
      <trkpt lat="43.98715" lon="5.89044">
        <ele>550</ele>
        <time>2020-10-05T15:26:26.988Z</time>
      </trkpt>
      <trkpt lat="43.98715" lon="5.89044">
        <ele>550</ele>
        <time>2020-10-05T15:26:27.988Z</time>
      </trkpt>
      <trkpt lat="43.98715" lon="5.89044">
        <ele>550</ele>
        <time>2020-10-05T15:26:28.988Z</time>
      </trkpt>
      <trkpt lat="43.98715" lon="5.89044">
        <ele>550</ele>
        <time>2020-10-05T15:26:29.988Z</time>
      </trkpt>
      <trkpt lat="43.98715" lon="5.89044">
        <ele>550</ele>
        <time>2020-10-05T15:26:30.988Z</time>
      </trkpt>
      <trkpt lat="43.98715" lon="5.89045">
        <ele>550</ele>
        <time>2020-10-05T15:26:31.988Z</time>
      </trkpt>
      <trkpt lat="43.98716" lon="5.89045">
        <ele>550</ele>
        <time>2020-10-05T15:26:32.988Z</time>
      </trkpt>
      <trkpt lat="43.98716" lon="5.89045">
        <ele>550</ele>
        <time>2020-10-05T15:26:33.988Z</time>
      </trkpt>
      <trkpt lat="43.98716" lon="5.89045">
        <ele>550</ele>
        <time>2020-10-05T15:26:34.988Z</time>
      </trkpt>
      <trkpt lat="43.98716" lon="5.89045">
        <ele>550</ele>
        <time>2020-10-05T15:26:35.988Z</time>
      </trkpt>
      <trkpt lat="43.98716" lon="5.89044">
        <ele>550</ele>
        <time>2020-10-05T15:26:36.988Z</time>
      </trkpt>
      <trkpt lat="43.98717" lon="5.89045">
        <ele>550</ele>
        <time>2020-10-05T15:26:37.988Z</time>
      </trkpt>
      <trkpt lat="43.98717" lon="5.89045">
        <ele>550</ele>
        <time>2020-10-05T15:26:38.988Z</time>
      </trkpt>
      <trkpt lat="43.98717" lon="5.89046">
        <ele>550</ele>
        <time>2020-10-05T15:26:39.988Z</time>
      </trkpt>
      <trkpt lat="43.98718" lon="5.89047">
        <ele>550</ele>
        <time>2020-10-05T15:26:40.988Z</time>
      </trkpt>
      <trkpt lat="43.98718" lon="5.89048">
        <ele>550</ele>
        <time>2020-10-05T15:26:41.988Z</time>
      </trkpt>
      <trkpt lat="43.98718" lon="5.8905">
        <ele>550</ele>
        <time>2020-10-05T15:26:42.988Z</time>
      </trkpt>
      <trkpt lat="43.98718" lon="5.89051">
        <ele>550</ele>
        <time>2020-10-05T15:26:43.988Z</time>
      </trkpt>
      <trkpt lat="43.98718" lon="5.89052">
        <ele>550</ele>
        <time>2020-10-05T15:26:44.988Z</time>
      </trkpt>
      <trkpt lat="43.98719" lon="5.89054">
        <ele>550</ele>
        <time>2020-10-05T15:26:45.988Z</time>
      </trkpt>
      <trkpt lat="43.98719" lon="5.89055">
        <ele>550</ele>
        <time>2020-10-05T15:26:46.988Z</time>
      </trkpt>
      <trkpt lat="43.98719" lon="5.89056">
        <ele>550</ele>
        <time>2020-10-05T15:26:47.988Z</time>
      </trkpt>
      <trkpt lat="43.9872" lon="5.89058">
        <ele>550</ele>
        <time>2020-10-05T15:26:48.988Z</time>
      </trkpt>
      <trkpt lat="43.9872" lon="5.89059">
        <ele>550</ele>
        <time>2020-10-05T15:26:49.988Z</time>
      </trkpt>
      <trkpt lat="43.9872" lon="5.8906">
        <ele>550</ele>
        <time>2020-10-05T15:26:50.988Z</time>
      </trkpt>
      <trkpt lat="43.98721" lon="5.89061">
        <ele>550</ele>
        <time>2020-10-05T15:26:51.988Z</time>
      </trkpt>
      <trkpt lat="43.98721" lon="5.89063">
        <ele>550</ele>
        <time>2020-10-05T15:26:52.988Z</time>
      </trkpt>
      <trkpt lat="43.98721" lon="5.89064">
        <ele>550</ele>
        <time>2020-10-05T15:26:53.988Z</time>
      </trkpt>
      <trkpt lat="43.98721" lon="5.89065">
        <ele>550</ele>
        <time>2020-10-05T15:26:54.988Z</time>
      </trkpt>
      <trkpt lat="43.98722" lon="5.89066">
        <ele>550</ele>
        <time>2020-10-05T15:26:55.988Z</time>
      </trkpt>
      <trkpt lat="43.98722" lon="5.89067">
        <ele>550</ele>
        <time>2020-10-05T15:26:56.988Z</time>
      </trkpt>
      <trkpt lat="43.98722" lon="5.89069">
        <ele>550</ele>
        <time>2020-10-05T15:26:57.988Z</time>
      </trkpt>
      <trkpt lat="43.98722" lon="5.8907">
        <ele>550</ele>
        <time>2020-10-05T15:26:58.988Z</time>
      </trkpt>
      <trkpt lat="43.98722" lon="5.89071">
        <ele>550</ele>
        <time>2020-10-05T15:26:59.988Z</time>
      </trkpt>
      <trkpt lat="43.98722" lon="5.89073">
        <ele>550</ele>
        <time>2020-10-05T15:27:00.988Z</time>
      </trkpt>
      <trkpt lat="43.98722" lon="5.89074">
        <ele>550</ele>
        <time>2020-10-05T15:27:01.988Z</time>
      </trkpt>
      <trkpt lat="43.98723" lon="5.89075">
        <ele>550</ele>
        <time>2020-10-05T15:27:02.988Z</time>
      </trkpt>
      <trkpt lat="43.98723" lon="5.89076">
        <ele>550</ele>
        <time>2020-10-05T15:27:03.988Z</time>
      </trkpt>
      <trkpt lat="43.98723" lon="5.89078">
        <ele>550</ele>
        <time>2020-10-05T15:27:04.988Z</time>
      </trkpt>
      <trkpt lat="43.98723" lon="5.89079">
        <ele>550</ele>
        <time>2020-10-05T15:27:05.988Z</time>
      </trkpt>
      <trkpt lat="43.98723" lon="5.8908">
        <ele>550</ele>
        <time>2020-10-05T15:27:06.988Z</time>
      </trkpt>
      <trkpt lat="43.98722" lon="5.89082">
        <ele>550</ele>
        <time>2020-10-05T15:27:07.988Z</time>
      </trkpt>
      <trkpt lat="43.98722" lon="5.89083">
        <ele>549</ele>
        <time>2020-10-05T15:27:08.988Z</time>
      </trkpt>
      <trkpt lat="43.98722" lon="5.89085">
        <ele>549</ele>
        <time>2020-10-05T15:27:09.988Z</time>
      </trkpt>
      <trkpt lat="43.98722" lon="5.89086">
        <ele>549</ele>
        <time>2020-10-05T15:27:10.988Z</time>
      </trkpt>
      <trkpt lat="43.98723" lon="5.89087">
        <ele>549</ele>
        <time>2020-10-05T15:27:11.988Z</time>
      </trkpt>
      <trkpt lat="43.98723" lon="5.89088">
        <ele>549</ele>
        <time>2020-10-05T15:27:12.988Z</time>
      </trkpt>
      <trkpt lat="43.98723" lon="5.89089">
        <ele>549</ele>
        <time>2020-10-05T15:27:13.988Z</time>
      </trkpt>
      <trkpt lat="43.98722" lon="5.89091">
        <ele>549</ele>
        <time>2020-10-05T15:27:14.988Z</time>
      </trkpt>
      <trkpt lat="43.98722" lon="5.89092">
        <ele>549</ele>
        <time>2020-10-05T15:27:15.988Z</time>
      </trkpt>
      <trkpt lat="43.98722" lon="5.89093">
        <ele>549</ele>
        <time>2020-10-05T15:27:16.988Z</time>
      </trkpt>
      <trkpt lat="43.98722" lon="5.89095">
        <ele>550</ele>
        <time>2020-10-05T15:27:17.988Z</time>
      </trkpt>
      <trkpt lat="43.98722" lon="5.89096">
        <ele>550</ele>
        <time>2020-10-05T15:27:18.988Z</time>
      </trkpt>
      <trkpt lat="43.98722" lon="5.89097">
        <ele>550</ele>
        <time>2020-10-05T15:27:19.988Z</time>
      </trkpt>
      <trkpt lat="43.98722" lon="5.89098">
        <ele>550</ele>
        <time>2020-10-05T15:27:20.988Z</time>
      </trkpt>
      <trkpt lat="43.98722" lon="5.891">
        <ele>550</ele>
        <time>2020-10-05T15:27:21.988Z</time>
      </trkpt>
      <trkpt lat="43.98722" lon="5.89101">
        <ele>550</ele>
        <time>2020-10-05T15:27:22.988Z</time>
      </trkpt>
      <trkpt lat="43.98722" lon="5.89103">
        <ele>550</ele>
        <time>2020-10-05T15:27:23.988Z</time>
      </trkpt>
      <trkpt lat="43.98721" lon="5.89104">
        <ele>551</ele>
        <time>2020-10-05T15:27:24.988Z</time>
      </trkpt>
      <trkpt lat="43.98721" lon="5.89105">
        <ele>551</ele>
        <time>2020-10-05T15:27:25.988Z</time>
      </trkpt>
      <trkpt lat="43.98721" lon="5.89107">
        <ele>551</ele>
        <time>2020-10-05T15:27:26.988Z</time>
      </trkpt>
      <trkpt lat="43.9872" lon="5.89108">
        <ele>551</ele>
        <time>2020-10-05T15:27:27.988Z</time>
      </trkpt>
      <trkpt lat="43.9872" lon="5.8911">
        <ele>551</ele>
        <time>2020-10-05T15:27:28.988Z</time>
      </trkpt>
      <trkpt lat="43.9872" lon="5.89111">
        <ele>552</ele>
        <time>2020-10-05T15:27:29.988Z</time>
      </trkpt>
      <trkpt lat="43.9872" lon="5.89112">
        <ele>552</ele>
        <time>2020-10-05T15:27:30.988Z</time>
      </trkpt>
      <trkpt lat="43.98719" lon="5.89114">
        <ele>552</ele>
        <time>2020-10-05T15:27:31.988Z</time>
      </trkpt>
      <trkpt lat="43.98719" lon="5.89115">
        <ele>552</ele>
        <time>2020-10-05T15:27:32.988Z</time>
      </trkpt>
      <trkpt lat="43.98718" lon="5.89116">
        <ele>552</ele>
        <time>2020-10-05T15:27:33.988Z</time>
      </trkpt>
      <trkpt lat="43.98718" lon="5.89117">
        <ele>553</ele>
        <time>2020-10-05T15:27:34.988Z</time>
      </trkpt>
      <trkpt lat="43.98718" lon="5.89118">
        <ele>553</ele>
        <time>2020-10-05T15:27:35.988Z</time>
      </trkpt>
      <trkpt lat="43.98718" lon="5.89119">
        <ele>553</ele>
        <time>2020-10-05T15:27:36.988Z</time>
      </trkpt>
      <trkpt lat="43.98718" lon="5.8912">
        <ele>554</ele>
        <time>2020-10-05T15:27:37.988Z</time>
      </trkpt>
      <trkpt lat="43.98718" lon="5.89122">
        <ele>554</ele>
        <time>2020-10-05T15:27:38.988Z</time>
      </trkpt>
      <trkpt lat="43.98717" lon="5.89123">
        <ele>554</ele>
        <time>2020-10-05T15:27:39.988Z</time>
      </trkpt>
      <trkpt lat="43.98717" lon="5.89124">
        <ele>554</ele>
        <time>2020-10-05T15:27:40.988Z</time>
      </trkpt>
      <trkpt lat="43.98716" lon="5.89125">
        <ele>555</ele>
        <time>2020-10-05T15:27:41.988Z</time>
      </trkpt>
      <trkpt lat="43.98716" lon="5.89126">
        <ele>555</ele>
        <time>2020-10-05T15:27:42.988Z</time>
      </trkpt>
      <trkpt lat="43.98715" lon="5.89127">
        <ele>555</ele>
        <time>2020-10-05T15:27:43.988Z</time>
      </trkpt>
      <trkpt lat="43.98714" lon="5.89128">
        <ele>556</ele>
        <time>2020-10-05T15:27:44.988Z</time>
      </trkpt>
      <trkpt lat="43.98714" lon="5.89129">
        <ele>556</ele>
        <time>2020-10-05T15:27:45.988Z</time>
      </trkpt>
      <trkpt lat="43.98714" lon="5.89129">
        <ele>557</ele>
        <time>2020-10-05T15:27:46.988Z</time>
      </trkpt>
      <trkpt lat="43.98713" lon="5.89129">
        <ele>557</ele>
        <time>2020-10-05T15:27:47.988Z</time>
      </trkpt>
      <trkpt lat="43.98713" lon="5.89129">
        <ele>558</ele>
        <time>2020-10-05T15:27:48.988Z</time>
      </trkpt>
      <trkpt lat="43.98713" lon="5.8913">
        <ele>558</ele>
        <time>2020-10-05T15:27:49.988Z</time>
      </trkpt>
      <trkpt lat="43.98712" lon="5.8913">
        <ele>559</ele>
        <time>2020-10-05T15:27:50.988Z</time>
      </trkpt>
      <trkpt lat="43.98712" lon="5.8913">
        <ele>559</ele>
        <time>2020-10-05T15:27:51.988Z</time>
      </trkpt>
      <trkpt lat="43.98712" lon="5.8913">
        <ele>559</ele>
        <time>2020-10-05T15:27:52.988Z</time>
      </trkpt>
      <trkpt lat="43.98711" lon="5.8913">
        <ele>560</ele>
        <time>2020-10-05T15:27:53.988Z</time>
      </trkpt>
      <trkpt lat="43.98711" lon="5.8913">
        <ele>560</ele>
        <time>2020-10-05T15:27:54.988Z</time>
      </trkpt>
      <trkpt lat="43.98711" lon="5.8913">
        <ele>560</ele>
        <time>2020-10-05T15:27:55.988Z</time>
      </trkpt>
      <trkpt lat="43.98711" lon="5.8913">
        <ele>561</ele>
        <time>2020-10-05T15:27:56.988Z</time>
      </trkpt>
      <trkpt lat="43.9871" lon="5.8913">
        <ele>561</ele>
        <time>2020-10-05T15:27:57.988Z</time>
      </trkpt>
      <trkpt lat="43.9871" lon="5.8913">
        <ele>561</ele>
        <time>2020-10-05T15:27:58.988Z</time>
      </trkpt>
      <trkpt lat="43.9871" lon="5.89131">
        <ele>561</ele>
        <time>2020-10-05T15:27:59.988Z</time>
      </trkpt>
      <trkpt lat="43.9871" lon="5.89131">
        <ele>561</ele>
        <time>2020-10-05T15:28:00.988Z</time>
      </trkpt>
      <trkpt lat="43.9871" lon="5.89131">
        <ele>562</ele>
        <time>2020-10-05T15:28:01.988Z</time>
      </trkpt>
      <trkpt lat="43.9871" lon="5.89131">
        <ele>562</ele>
        <time>2020-10-05T15:28:02.988Z</time>
      </trkpt>
      <trkpt lat="43.9871" lon="5.89131">
        <ele>562</ele>
        <time>2020-10-05T15:28:03.988Z</time>
      </trkpt>
      <trkpt lat="43.98709" lon="5.89131">
        <ele>562</ele>
        <time>2020-10-05T15:28:04.988Z</time>
      </trkpt>
      <trkpt lat="43.98709" lon="5.89131">
        <ele>562</ele>
        <time>2020-10-05T15:28:05.988Z</time>
      </trkpt>
      <trkpt lat="43.98709" lon="5.89132">
        <ele>562</ele>
        <time>2020-10-05T15:28:06.988Z</time>
      </trkpt>
      <trkpt lat="43.98708" lon="5.89133">
        <ele>563</ele>
        <time>2020-10-05T15:28:07.988Z</time>
      </trkpt>
      <trkpt lat="43.98708" lon="5.89133">
        <ele>563</ele>
        <time>2020-10-05T15:28:08.988Z</time>
      </trkpt>
      <trkpt lat="43.98707" lon="5.89134">
        <ele>563</ele>
        <time>2020-10-05T15:28:09.988Z</time>
      </trkpt>
      <trkpt lat="43.98707" lon="5.89135">
        <ele>563</ele>
        <time>2020-10-05T15:28:10.988Z</time>
      </trkpt>
      <trkpt lat="43.98706" lon="5.89136">
        <ele>563</ele>
        <time>2020-10-05T15:28:11.988Z</time>
      </trkpt>
      <trkpt lat="43.98706" lon="5.89137">
        <ele>563</ele>
        <time>2020-10-05T15:28:12.988Z</time>
      </trkpt>
      <trkpt lat="43.98705" lon="5.89138">
        <ele>563</ele>
        <time>2020-10-05T15:28:13.988Z</time>
      </trkpt>
      <trkpt lat="43.98705" lon="5.89139">
        <ele>563</ele>
        <time>2020-10-05T15:28:14.988Z</time>
      </trkpt>
      <trkpt lat="43.98704" lon="5.8914">
        <ele>563</ele>
        <time>2020-10-05T15:28:15.988Z</time>
      </trkpt>
      <trkpt lat="43.98703" lon="5.89141">
        <ele>563</ele>
        <time>2020-10-05T15:28:16.988Z</time>
      </trkpt>
      <trkpt lat="43.98703" lon="5.89142">
        <ele>564</ele>
        <time>2020-10-05T15:28:17.988Z</time>
      </trkpt>
      <trkpt lat="43.98702" lon="5.89143">
        <ele>564</ele>
        <time>2020-10-05T15:28:18.988Z</time>
      </trkpt>
      <trkpt lat="43.98702" lon="5.89144">
        <ele>564</ele>
        <time>2020-10-05T15:28:19.988Z</time>
      </trkpt>
      <trkpt lat="43.98702" lon="5.89145">
        <ele>564</ele>
        <time>2020-10-05T15:28:20.988Z</time>
      </trkpt>
      <trkpt lat="43.98701" lon="5.89146">
        <ele>564</ele>
        <time>2020-10-05T15:28:21.988Z</time>
      </trkpt>
      <trkpt lat="43.98701" lon="5.89147">
        <ele>564</ele>
        <time>2020-10-05T15:28:22.988Z</time>
      </trkpt>
      <trkpt lat="43.987" lon="5.89148">
        <ele>564</ele>
        <time>2020-10-05T15:28:23.988Z</time>
      </trkpt>
      <trkpt lat="43.987" lon="5.89149">
        <ele>564</ele>
        <time>2020-10-05T15:28:24.988Z</time>
      </trkpt>
      <trkpt lat="43.98699" lon="5.8915">
        <ele>564</ele>
        <time>2020-10-05T15:28:25.988Z</time>
      </trkpt>
      <trkpt lat="43.98699" lon="5.89151">
        <ele>564</ele>
        <time>2020-10-05T15:28:26.988Z</time>
      </trkpt>
      <trkpt lat="43.98698" lon="5.89152">
        <ele>565</ele>
        <time>2020-10-05T15:28:27.988Z</time>
      </trkpt>
      <trkpt lat="43.98698" lon="5.89153">
        <ele>565</ele>
        <time>2020-10-05T15:28:28.988Z</time>
      </trkpt>
      <trkpt lat="43.98697" lon="5.89154">
        <ele>565</ele>
        <time>2020-10-05T15:28:29.988Z</time>
      </trkpt>
      <trkpt lat="43.98696" lon="5.89155">
        <ele>565</ele>
        <time>2020-10-05T15:28:30.988Z</time>
      </trkpt>
      <trkpt lat="43.98696" lon="5.89155">
        <ele>565</ele>
        <time>2020-10-05T15:28:31.988Z</time>
      </trkpt>
      <trkpt lat="43.98695" lon="5.89155">
        <ele>565</ele>
        <time>2020-10-05T15:28:32.988Z</time>
      </trkpt>
      <trkpt lat="43.98694" lon="5.89156">
        <ele>565</ele>
        <time>2020-10-05T15:28:33.988Z</time>
      </trkpt>
      <trkpt lat="43.98694" lon="5.89156">
        <ele>565</ele>
        <time>2020-10-05T15:28:34.988Z</time>
      </trkpt>
      <trkpt lat="43.98694" lon="5.89156">
        <ele>566</ele>
        <time>2020-10-05T15:28:35.988Z</time>
      </trkpt>
      <trkpt lat="43.98694" lon="5.89156">
        <ele>566</ele>
        <time>2020-10-05T15:28:36.988Z</time>
      </trkpt>
      <trkpt lat="43.98693" lon="5.89156">
        <ele>566</ele>
        <time>2020-10-05T15:28:37.988Z</time>
      </trkpt>
      <trkpt lat="43.98693" lon="5.89156">
        <ele>566</ele>
        <time>2020-10-05T15:28:38.988Z</time>
      </trkpt>
      <trkpt lat="43.98693" lon="5.89156">
        <ele>566</ele>
        <time>2020-10-05T15:28:39.988Z</time>
      </trkpt>
      <trkpt lat="43.98693" lon="5.89156">
        <ele>566</ele>
        <time>2020-10-05T15:28:40.988Z</time>
      </trkpt>
      <trkpt lat="43.98693" lon="5.89156">
        <ele>566</ele>
        <time>2020-10-05T15:28:41.988Z</time>
      </trkpt>
      <trkpt lat="43.98693" lon="5.89156">
        <ele>566</ele>
        <time>2020-10-05T15:28:42.988Z</time>
      </trkpt>
      <trkpt lat="43.98693" lon="5.89156">
        <ele>567</ele>
        <time>2020-10-05T15:28:43.988Z</time>
      </trkpt>
      <trkpt lat="43.98693" lon="5.89156">
        <ele>567</ele>
        <time>2020-10-05T15:28:44.988Z</time>
      </trkpt>
      <trkpt lat="43.98693" lon="5.89156">
        <ele>567</ele>
        <time>2020-10-05T15:28:45.988Z</time>
      </trkpt>
      <trkpt lat="43.98693" lon="5.89157">
        <ele>567</ele>
        <time>2020-10-05T15:28:46.988Z</time>
      </trkpt>
      <trkpt lat="43.98693" lon="5.89157">
        <ele>567</ele>
        <time>2020-10-05T15:28:47.988Z</time>
      </trkpt>
      <trkpt lat="43.98693" lon="5.89157">
        <ele>567</ele>
        <time>2020-10-05T15:28:48.988Z</time>
      </trkpt>
      <trkpt lat="43.98693" lon="5.89157">
        <ele>567</ele>
        <time>2020-10-05T15:28:49.988Z</time>
      </trkpt>
      <trkpt lat="43.98693" lon="5.89157">
        <ele>567</ele>
        <time>2020-10-05T15:28:50.988Z</time>
      </trkpt>
      <trkpt lat="43.98693" lon="5.89157">
        <ele>567</ele>
        <time>2020-10-05T15:28:51.988Z</time>
      </trkpt>
      <trkpt lat="43.98693" lon="5.89157">
        <ele>568</ele>
        <time>2020-10-05T15:28:52.988Z</time>
      </trkpt>
      <trkpt lat="43.98693" lon="5.89157">
        <ele>568</ele>
        <time>2020-10-05T15:28:53.988Z</time>
      </trkpt>
      <trkpt lat="43.98693" lon="5.89157">
        <ele>568</ele>
        <time>2020-10-05T15:28:54.988Z</time>
      </trkpt>
      <trkpt lat="43.98693" lon="5.89157">
        <ele>568</ele>
        <time>2020-10-05T15:28:55.988Z</time>
      </trkpt>
      <trkpt lat="43.98693" lon="5.89157">
        <ele>568</ele>
        <time>2020-10-05T15:28:56.988Z</time>
      </trkpt>
      <trkpt lat="43.98693" lon="5.89157">
        <ele>568</ele>
        <time>2020-10-05T15:28:57.988Z</time>
      </trkpt>
      <trkpt lat="43.98693" lon="5.89157">
        <ele>568</ele>
        <time>2020-10-05T15:28:58.988Z</time>
      </trkpt>
      <trkpt lat="43.98693" lon="5.89157">
        <ele>568</ele>
        <time>2020-10-05T15:28:59.988Z</time>
      </trkpt>
      <trkpt lat="43.98692" lon="5.89157">
        <ele>568</ele>
        <time>2020-10-05T15:29:00.988Z</time>
      </trkpt>
      <trkpt lat="43.98692" lon="5.89157">
        <ele>569</ele>
        <time>2020-10-05T15:29:01.988Z</time>
      </trkpt>
      <trkpt lat="43.98692" lon="5.89157">
        <ele>569</ele>
        <time>2020-10-05T15:29:02.988Z</time>
      </trkpt>
      <trkpt lat="43.98692" lon="5.89157">
        <ele>569</ele>
        <time>2020-10-05T15:29:03.988Z</time>
      </trkpt>
      <trkpt lat="43.98692" lon="5.89158">
        <ele>569</ele>
        <time>2020-10-05T15:29:04.988Z</time>
      </trkpt>
      <trkpt lat="43.98693" lon="5.89158">
        <ele>569</ele>
        <time>2020-10-05T15:29:05.988Z</time>
      </trkpt>
      <trkpt lat="43.98693" lon="5.89158">
        <ele>569</ele>
        <time>2020-10-05T15:29:06.988Z</time>
      </trkpt>
      <trkpt lat="43.98693" lon="5.89158">
        <ele>569</ele>
        <time>2020-10-05T15:29:07.988Z</time>
      </trkpt>
      <trkpt lat="43.98693" lon="5.89158">
        <ele>569</ele>
        <time>2020-10-05T15:29:08.988Z</time>
      </trkpt>
      <trkpt lat="43.98693" lon="5.89158">
        <ele>570</ele>
        <time>2020-10-05T15:29:09.988Z</time>
      </trkpt>
      <trkpt lat="43.98692" lon="5.89158">
        <ele>570</ele>
        <time>2020-10-05T15:29:10.988Z</time>
      </trkpt>
      <trkpt lat="43.98692" lon="5.89158">
        <ele>570</ele>
        <time>2020-10-05T15:29:11.988Z</time>
      </trkpt>
      <trkpt lat="43.98692" lon="5.89158">
        <ele>570</ele>
        <time>2020-10-05T15:29:12.988Z</time>
      </trkpt>
      <trkpt lat="43.98692" lon="5.89158">
        <ele>570</ele>
        <time>2020-10-05T15:29:13.988Z</time>
      </trkpt>
      <trkpt lat="43.98692" lon="5.89158">
        <ele>570</ele>
        <time>2020-10-05T15:29:14.988Z</time>
      </trkpt>
      <trkpt lat="43.98692" lon="5.89158">
        <ele>570</ele>
        <time>2020-10-05T15:29:15.988Z</time>
      </trkpt>
      <trkpt lat="43.98692" lon="5.89158">
        <ele>570</ele>
        <time>2020-10-05T15:29:16.988Z</time>
      </trkpt>
      <trkpt lat="43.98692" lon="5.89158">
        <ele>570</ele>
        <time>2020-10-05T15:29:17.988Z</time>
      </trkpt>
      <trkpt lat="43.98692" lon="5.89158">
        <ele>570</ele>
        <time>2020-10-05T15:29:18.988Z</time>
      </trkpt>
      <trkpt lat="43.98692" lon="5.89157">
        <ele>570</ele>
        <time>2020-10-05T15:29:19.988Z</time>
      </trkpt>
      <trkpt lat="43.98692" lon="5.89157">
        <ele>570</ele>
        <time>2020-10-05T15:29:20.988Z</time>
      </trkpt>
      <trkpt lat="43.98692" lon="5.89157">
        <ele>570</ele>
        <time>2020-10-05T15:29:21.988Z</time>
      </trkpt>
      <trkpt lat="43.98692" lon="5.89157">
        <ele>571</ele>
        <time>2020-10-05T15:29:22.988Z</time>
      </trkpt>
      <trkpt lat="43.98692" lon="5.89157">
        <ele>571</ele>
        <time>2020-10-05T15:29:23.988Z</time>
      </trkpt>
      <trkpt lat="43.98692" lon="5.89157">
        <ele>571</ele>
        <time>2020-10-05T15:29:24.988Z</time>
      </trkpt>
      <trkpt lat="43.98692" lon="5.89157">
        <ele>571</ele>
        <time>2020-10-05T15:29:25.988Z</time>
      </trkpt>
      <trkpt lat="43.98692" lon="5.89157">
        <ele>571</ele>
        <time>2020-10-05T15:29:26.988Z</time>
      </trkpt>
      <trkpt lat="43.98692" lon="5.89157">
        <ele>571</ele>
        <time>2020-10-05T15:29:27.988Z</time>
      </trkpt>
      <trkpt lat="43.98692" lon="5.89157">
        <ele>571</ele>
        <time>2020-10-05T15:29:28.988Z</time>
      </trkpt>
      <trkpt lat="43.98692" lon="5.89157">
        <ele>571</ele>
        <time>2020-10-05T15:29:29.988Z</time>
      </trkpt>
      <trkpt lat="43.98692" lon="5.89157">
        <ele>571</ele>
        <time>2020-10-05T15:29:30.988Z</time>
      </trkpt>
      <trkpt lat="43.98692" lon="5.89157">
        <ele>571</ele>
        <time>2020-10-05T15:29:31.988Z</time>
      </trkpt>
      <trkpt lat="43.98692" lon="5.89157">
        <ele>571</ele>
        <time>2020-10-05T15:29:32.988Z</time>
      </trkpt>
      <trkpt lat="43.98692" lon="5.89157">
        <ele>571</ele>
        <time>2020-10-05T15:29:33.988Z</time>
      </trkpt>
      <trkpt lat="43.98692" lon="5.89157">
        <ele>571</ele>
        <time>2020-10-05T15:29:34.988Z</time>
      </trkpt>
      <trkpt lat="43.98691" lon="5.89157">
        <ele>571</ele>
        <time>2020-10-05T15:29:35.988Z</time>
      </trkpt>
      <trkpt lat="43.98692" lon="5.89157">
        <ele>571</ele>
        <time>2020-10-05T15:29:36.988Z</time>
      </trkpt>
      <trkpt lat="43.98692" lon="5.89157">
        <ele>571</ele>
        <time>2020-10-05T15:29:37.988Z</time>
      </trkpt>
      <trkpt lat="43.98692" lon="5.89157">
        <ele>571</ele>
        <time>2020-10-05T15:29:38.988Z</time>
      </trkpt>
      <trkpt lat="43.98691" lon="5.89157">
        <ele>571</ele>
        <time>2020-10-05T15:29:39.988Z</time>
      </trkpt>
      <trkpt lat="43.98691" lon="5.89157">
        <ele>571</ele>
        <time>2020-10-05T15:29:40.988Z</time>
      </trkpt>
      <trkpt lat="43.98691" lon="5.89157">
        <ele>571</ele>
        <time>2020-10-05T15:29:41.988Z</time>
      </trkpt>
      <trkpt lat="43.98691" lon="5.89157">
        <ele>572</ele>
        <time>2020-10-05T15:29:42.988Z</time>
      </trkpt>
      <trkpt lat="43.98691" lon="5.89157">
        <ele>572</ele>
        <time>2020-10-05T15:29:43.988Z</time>
      </trkpt>
      <trkpt lat="43.98691" lon="5.89157">
        <ele>572</ele>
        <time>2020-10-05T15:29:44.988Z</time>
      </trkpt>
      <trkpt lat="43.98691" lon="5.89157">
        <ele>572</ele>
        <time>2020-10-05T15:29:45.988Z</time>
      </trkpt>
      <trkpt lat="43.98691" lon="5.89158">
        <ele>572</ele>
        <time>2020-10-05T15:29:46.988Z</time>
      </trkpt>
      <trkpt lat="43.98691" lon="5.89158">
        <ele>572</ele>
        <time>2020-10-05T15:29:47.988Z</time>
      </trkpt>
      <trkpt lat="43.98691" lon="5.89158">
        <ele>572</ele>
        <time>2020-10-05T15:29:48.988Z</time>
      </trkpt>
      <trkpt lat="43.98691" lon="5.89158">
        <ele>572</ele>
        <time>2020-10-05T15:29:49.988Z</time>
      </trkpt>
      <trkpt lat="43.98691" lon="5.89158">
        <ele>572</ele>
        <time>2020-10-05T15:29:50.988Z</time>
      </trkpt>
      <trkpt lat="43.98691" lon="5.89158">
        <ele>572</ele>
        <time>2020-10-05T15:29:51.988Z</time>
      </trkpt>
      <trkpt lat="43.98691" lon="5.89158">
        <ele>572</ele>
        <time>2020-10-05T15:29:52.988Z</time>
      </trkpt>
      <trkpt lat="43.98691" lon="5.89158">
        <ele>572</ele>
        <time>2020-10-05T15:29:53.988Z</time>
      </trkpt>
      <trkpt lat="43.98691" lon="5.89158">
        <ele>572</ele>
        <time>2020-10-05T15:29:54.988Z</time>
      </trkpt>
      <trkpt lat="43.98691" lon="5.89158">
        <ele>572</ele>
        <time>2020-10-05T15:29:55.988Z</time>
      </trkpt>
      <trkpt lat="43.98691" lon="5.89158">
        <ele>572</ele>
        <time>2020-10-05T15:29:56.988Z</time>
      </trkpt>
      <trkpt lat="43.98691" lon="5.89158">
        <ele>572</ele>
        <time>2020-10-05T15:29:57.988Z</time>
      </trkpt>
      <trkpt lat="43.98691" lon="5.89158">
        <ele>572</ele>
        <time>2020-10-05T15:29:58.988Z</time>
      </trkpt>
      <trkpt lat="43.98691" lon="5.89158">
        <ele>572</ele>
        <time>2020-10-05T15:29:59.988Z</time>
      </trkpt>
      <trkpt lat="43.98691" lon="5.89158">
        <ele>572</ele>
        <time>2020-10-05T15:30:00.988Z</time>
      </trkpt>
      <trkpt lat="43.98691" lon="5.89158">
        <ele>572</ele>
        <time>2020-10-05T15:30:01.988Z</time>
      </trkpt>
      <trkpt lat="43.98691" lon="5.89158">
        <ele>572</ele>
        <time>2020-10-05T15:30:02.988Z</time>
      </trkpt>
      <trkpt lat="43.98692" lon="5.89158">
        <ele>572</ele>
        <time>2020-10-05T15:30:03.988Z</time>
      </trkpt>
      <trkpt lat="43.98691" lon="5.89158">
        <ele>572</ele>
        <time>2020-10-05T15:30:04.988Z</time>
      </trkpt>
      <trkpt lat="43.98691" lon="5.89158">
        <ele>572</ele>
        <time>2020-10-05T15:30:05.988Z</time>
      </trkpt>
      <trkpt lat="43.9869" lon="5.89159">
        <ele>572</ele>
        <time>2020-10-05T15:30:06.988Z</time>
      </trkpt>
      <trkpt lat="43.98689" lon="5.8916">
        <ele>572</ele>
        <time>2020-10-05T15:30:07.988Z</time>
      </trkpt>
      <trkpt lat="43.98688" lon="5.89161">
        <ele>572</ele>
        <time>2020-10-05T15:30:08.988Z</time>
      </trkpt>
      <trkpt lat="43.98688" lon="5.89162">
        <ele>572</ele>
        <time>2020-10-05T15:30:09.988Z</time>
      </trkpt>
      <trkpt lat="43.98687" lon="5.89162">
        <ele>572</ele>
        <time>2020-10-05T15:30:10.988Z</time>
      </trkpt>
      <trkpt lat="43.98687" lon="5.89163">
        <ele>572</ele>
        <time>2020-10-05T15:30:11.988Z</time>
      </trkpt>
      <trkpt lat="43.98686" lon="5.89163">
        <ele>572</ele>
        <time>2020-10-05T15:30:12.988Z</time>
      </trkpt>
      <trkpt lat="43.98685" lon="5.89164">
        <ele>572</ele>
        <time>2020-10-05T15:30:13.988Z</time>
      </trkpt>
      <trkpt lat="43.98684" lon="5.89164">
        <ele>573</ele>
        <time>2020-10-05T15:30:14.988Z</time>
      </trkpt>
      <trkpt lat="43.98684" lon="5.89165">
        <ele>573</ele>
        <time>2020-10-05T15:30:15.988Z</time>
      </trkpt>
      <trkpt lat="43.98683" lon="5.89166">
        <ele>573</ele>
        <time>2020-10-05T15:30:16.988Z</time>
      </trkpt>
      <trkpt lat="43.98682" lon="5.89166">
        <ele>573</ele>
        <time>2020-10-05T15:30:17.988Z</time>
      </trkpt>
      <trkpt lat="43.98682" lon="5.89167">
        <ele>573</ele>
        <time>2020-10-05T15:30:18.988Z</time>
      </trkpt>
      <trkpt lat="43.98681" lon="5.89168">
        <ele>573</ele>
        <time>2020-10-05T15:30:19.988Z</time>
      </trkpt>
      <trkpt lat="43.9868" lon="5.89169">
        <ele>573</ele>
        <time>2020-10-05T15:30:20.988Z</time>
      </trkpt>
      <trkpt lat="43.9868" lon="5.8917">
        <ele>572</ele>
        <time>2020-10-05T15:30:21.988Z</time>
      </trkpt>
      <trkpt lat="43.98679" lon="5.89171">
        <ele>572</ele>
        <time>2020-10-05T15:30:22.988Z</time>
      </trkpt>
      <trkpt lat="43.98678" lon="5.89172">
        <ele>572</ele>
        <time>2020-10-05T15:30:23.988Z</time>
      </trkpt>
      <trkpt lat="43.98678" lon="5.89173">
        <ele>572</ele>
        <time>2020-10-05T15:30:24.988Z</time>
      </trkpt>
      <trkpt lat="43.98677" lon="5.89173">
        <ele>572</ele>
        <time>2020-10-05T15:30:25.988Z</time>
      </trkpt>
      <trkpt lat="43.98676" lon="5.89174">
        <ele>573</ele>
        <time>2020-10-05T15:30:26.988Z</time>
      </trkpt>
      <trkpt lat="43.98676" lon="5.89175">
        <ele>573</ele>
        <time>2020-10-05T15:30:27.988Z</time>
      </trkpt>
      <trkpt lat="43.98675" lon="5.89176">
        <ele>573</ele>
        <time>2020-10-05T15:30:28.988Z</time>
      </trkpt>
      <trkpt lat="43.98675" lon="5.89177">
        <ele>573</ele>
        <time>2020-10-05T15:30:29.988Z</time>
      </trkpt>
      <trkpt lat="43.98674" lon="5.89178">
        <ele>573</ele>
        <time>2020-10-05T15:30:30.988Z</time>
      </trkpt>
      <trkpt lat="43.98673" lon="5.89179">
        <ele>573</ele>
        <time>2020-10-05T15:30:31.988Z</time>
      </trkpt>
      <trkpt lat="43.98672" lon="5.8918">
        <ele>573</ele>
        <time>2020-10-05T15:30:32.988Z</time>
      </trkpt>
      <trkpt lat="43.98671" lon="5.89181">
        <ele>573</ele>
        <time>2020-10-05T15:30:33.988Z</time>
      </trkpt>
      <trkpt lat="43.9867" lon="5.89181">
        <ele>573</ele>
        <time>2020-10-05T15:30:34.988Z</time>
      </trkpt>
      <trkpt lat="43.98669" lon="5.89182">
        <ele>573</ele>
        <time>2020-10-05T15:30:35.988Z</time>
      </trkpt>
      <trkpt lat="43.98668" lon="5.89183">
        <ele>573</ele>
        <time>2020-10-05T15:30:36.988Z</time>
      </trkpt>
      <trkpt lat="43.98667" lon="5.89184">
        <ele>573</ele>
        <time>2020-10-05T15:30:37.988Z</time>
      </trkpt>
      <trkpt lat="43.98666" lon="5.89184">
        <ele>573</ele>
        <time>2020-10-05T15:30:38.988Z</time>
      </trkpt>
      <trkpt lat="43.98665" lon="5.89185">
        <ele>573</ele>
        <time>2020-10-05T15:30:39.988Z</time>
      </trkpt>
      <trkpt lat="43.98664" lon="5.89185">
        <ele>573</ele>
        <time>2020-10-05T15:30:40.988Z</time>
      </trkpt>
      <trkpt lat="43.98663" lon="5.89185">
        <ele>574</ele>
        <time>2020-10-05T15:30:41.988Z</time>
      </trkpt>
      <trkpt lat="43.98662" lon="5.89185">
        <ele>574</ele>
        <time>2020-10-05T15:30:42.988Z</time>
      </trkpt>
      <trkpt lat="43.98661" lon="5.89186">
        <ele>574</ele>
        <time>2020-10-05T15:30:43.988Z</time>
      </trkpt>
      <trkpt lat="43.9866" lon="5.89186">
        <ele>574</ele>
        <time>2020-10-05T15:30:44.988Z</time>
      </trkpt>
      <trkpt lat="43.98659" lon="5.89186">
        <ele>574</ele>
        <time>2020-10-05T15:30:45.988Z</time>
      </trkpt>
      <trkpt lat="43.98658" lon="5.89186">
        <ele>574</ele>
        <time>2020-10-05T15:30:46.988Z</time>
      </trkpt>
      <trkpt lat="43.98657" lon="5.89187">
        <ele>574</ele>
        <time>2020-10-05T15:30:47.988Z</time>
      </trkpt>
      <trkpt lat="43.98656" lon="5.89187">
        <ele>574</ele>
        <time>2020-10-05T15:30:48.988Z</time>
      </trkpt>
      <trkpt lat="43.98655" lon="5.89187">
        <ele>574</ele>
        <time>2020-10-05T15:30:49.988Z</time>
      </trkpt>
      <trkpt lat="43.98654" lon="5.89187">
        <ele>574</ele>
        <time>2020-10-05T15:30:50.988Z</time>
      </trkpt>
      <trkpt lat="43.98653" lon="5.89187">
        <ele>574</ele>
        <time>2020-10-05T15:30:51.988Z</time>
      </trkpt>
      <trkpt lat="43.98652" lon="5.89187">
        <ele>574</ele>
        <time>2020-10-05T15:30:52.988Z</time>
      </trkpt>
      <trkpt lat="43.98651" lon="5.89187">
        <ele>574</ele>
        <time>2020-10-05T15:30:53.988Z</time>
      </trkpt>
      <trkpt lat="43.9865" lon="5.89186">
        <ele>574</ele>
        <time>2020-10-05T15:30:54.988Z</time>
      </trkpt>
      <trkpt lat="43.9865" lon="5.89186">
        <ele>574</ele>
        <time>2020-10-05T15:30:55.988Z</time>
      </trkpt>
      <trkpt lat="43.9865" lon="5.89186">
        <ele>574</ele>
        <time>2020-10-05T15:30:56.988Z</time>
      </trkpt>
      <trkpt lat="43.9865" lon="5.89186">
        <ele>574</ele>
        <time>2020-10-05T15:30:57.988Z</time>
      </trkpt>
      <trkpt lat="43.9865" lon="5.89186">
        <ele>574</ele>
        <time>2020-10-05T15:30:58.988Z</time>
      </trkpt>
      <trkpt lat="43.9865" lon="5.89186">
        <ele>574</ele>
        <time>2020-10-05T15:30:59.988Z</time>
      </trkpt>
      <trkpt lat="43.9865" lon="5.89186">
        <ele>575</ele>
        <time>2020-10-05T15:31:00.988Z</time>
      </trkpt>
      <trkpt lat="43.9865" lon="5.89185">
        <ele>575</ele>
        <time>2020-10-05T15:31:01.988Z</time>
      </trkpt>
      <trkpt lat="43.98651" lon="5.89185">
        <ele>575</ele>
        <time>2020-10-05T15:31:02.988Z</time>
      </trkpt>
      <trkpt lat="43.98651" lon="5.89185">
        <ele>575</ele>
        <time>2020-10-05T15:31:03.988Z</time>
      </trkpt>
      <trkpt lat="43.98651" lon="5.89185">
        <ele>575</ele>
        <time>2020-10-05T15:31:04.988Z</time>
      </trkpt>
      <trkpt lat="43.98652" lon="5.89186">
        <ele>575</ele>
        <time>2020-10-05T15:31:05.988Z</time>
      </trkpt>
      <trkpt lat="43.98652" lon="5.89186">
        <ele>575</ele>
        <time>2020-10-05T15:31:06.988Z</time>
      </trkpt>
      <trkpt lat="43.98653" lon="5.89186">
        <ele>575</ele>
        <time>2020-10-05T15:31:07.988Z</time>
      </trkpt>
      <trkpt lat="43.98654" lon="5.89186">
        <ele>575</ele>
        <time>2020-10-05T15:31:08.988Z</time>
      </trkpt>
      <trkpt lat="43.98654" lon="5.89186">
        <ele>575</ele>
        <time>2020-10-05T15:31:09.988Z</time>
      </trkpt>
      <trkpt lat="43.98655" lon="5.89185">
        <ele>575</ele>
        <time>2020-10-05T15:31:10.988Z</time>
      </trkpt>
      <trkpt lat="43.98656" lon="5.89185">
        <ele>575</ele>
        <time>2020-10-05T15:31:11.988Z</time>
      </trkpt>
      <trkpt lat="43.98657" lon="5.89185">
        <ele>575</ele>
        <time>2020-10-05T15:31:12.988Z</time>
      </trkpt>
      <trkpt lat="43.98658" lon="5.89186">
        <ele>575</ele>
        <time>2020-10-05T15:31:13.988Z</time>
      </trkpt>
      <trkpt lat="43.98659" lon="5.89186">
        <ele>575</ele>
        <time>2020-10-05T15:31:14.988Z</time>
      </trkpt>
      <trkpt lat="43.9866" lon="5.89187">
        <ele>575</ele>
        <time>2020-10-05T15:31:15.988Z</time>
      </trkpt>
      <trkpt lat="43.98661" lon="5.89188">
        <ele>575</ele>
        <time>2020-10-05T15:31:16.988Z</time>
      </trkpt>
      <trkpt lat="43.98661" lon="5.89189">
        <ele>575</ele>
        <time>2020-10-05T15:31:17.988Z</time>
      </trkpt>
      <trkpt lat="43.98662" lon="5.8919">
        <ele>575</ele>
        <time>2020-10-05T15:31:18.988Z</time>
      </trkpt>
      <trkpt lat="43.98662" lon="5.89191">
        <ele>575</ele>
        <time>2020-10-05T15:31:19.988Z</time>
      </trkpt>
      <trkpt lat="43.98662" lon="5.89192">
        <ele>575</ele>
        <time>2020-10-05T15:31:20.988Z</time>
      </trkpt>
      <trkpt lat="43.98662" lon="5.89193">
        <ele>575</ele>
        <time>2020-10-05T15:31:21.988Z</time>
      </trkpt>
      <trkpt lat="43.98661" lon="5.89194">
        <ele>575</ele>
        <time>2020-10-05T15:31:22.988Z</time>
      </trkpt>
      <trkpt lat="43.98661" lon="5.89195">
        <ele>575</ele>
        <time>2020-10-05T15:31:23.988Z</time>
      </trkpt>
      <trkpt lat="43.98661" lon="5.89195">
        <ele>575</ele>
        <time>2020-10-05T15:31:24.988Z</time>
      </trkpt>
      <trkpt lat="43.98661" lon="5.89196">
        <ele>575</ele>
        <time>2020-10-05T15:31:25.988Z</time>
      </trkpt>
      <trkpt lat="43.9866" lon="5.89197">
        <ele>575</ele>
        <time>2020-10-05T15:31:26.988Z</time>
      </trkpt>
      <trkpt lat="43.9866" lon="5.89197">
        <ele>575</ele>
        <time>2020-10-05T15:31:27.988Z</time>
      </trkpt>
      <trkpt lat="43.9866" lon="5.89198">
        <ele>575</ele>
        <time>2020-10-05T15:31:28.988Z</time>
      </trkpt>
      <trkpt lat="43.9866" lon="5.89199">
        <ele>575</ele>
        <time>2020-10-05T15:31:29.988Z</time>
      </trkpt>
      <trkpt lat="43.9866" lon="5.89199">
        <ele>575</ele>
        <time>2020-10-05T15:31:30.988Z</time>
      </trkpt>
      <trkpt lat="43.9866" lon="5.892">
        <ele>575</ele>
        <time>2020-10-05T15:31:31.988Z</time>
      </trkpt>
      <trkpt lat="43.9866" lon="5.89201">
        <ele>575</ele>
        <time>2020-10-05T15:31:32.988Z</time>
      </trkpt>
      <trkpt lat="43.98659" lon="5.89202">
        <ele>575</ele>
        <time>2020-10-05T15:31:33.988Z</time>
      </trkpt>
      <trkpt lat="43.98659" lon="5.89203">
        <ele>575</ele>
        <time>2020-10-05T15:31:34.988Z</time>
      </trkpt>
      <trkpt lat="43.98659" lon="5.89204">
        <ele>576</ele>
        <time>2020-10-05T15:31:35.988Z</time>
      </trkpt>
      <trkpt lat="43.98659" lon="5.89205">
        <ele>576</ele>
        <time>2020-10-05T15:31:36.988Z</time>
      </trkpt>
      <trkpt lat="43.98659" lon="5.89206">
        <ele>576</ele>
        <time>2020-10-05T15:31:37.988Z</time>
      </trkpt>
      <trkpt lat="43.98659" lon="5.89206">
        <ele>576</ele>
        <time>2020-10-05T15:31:38.988Z</time>
      </trkpt>
      <trkpt lat="43.98659" lon="5.89207">
        <ele>576</ele>
        <time>2020-10-05T15:31:39.988Z</time>
      </trkpt>
      <trkpt lat="43.98659" lon="5.89208">
        <ele>576</ele>
        <time>2020-10-05T15:31:40.988Z</time>
      </trkpt>
      <trkpt lat="43.98658" lon="5.89209">
        <ele>576</ele>
        <time>2020-10-05T15:31:41.988Z</time>
      </trkpt>
      <trkpt lat="43.98658" lon="5.8921">
        <ele>576</ele>
        <time>2020-10-05T15:31:42.988Z</time>
      </trkpt>
      <trkpt lat="43.98658" lon="5.89211">
        <ele>576</ele>
        <time>2020-10-05T15:31:43.988Z</time>
      </trkpt>
      <trkpt lat="43.98658" lon="5.89212">
        <ele>576</ele>
        <time>2020-10-05T15:31:44.988Z</time>
      </trkpt>
      <trkpt lat="43.98657" lon="5.89213">
        <ele>576</ele>
        <time>2020-10-05T15:31:45.988Z</time>
      </trkpt>
      <trkpt lat="43.98657" lon="5.89214">
        <ele>576</ele>
        <time>2020-10-05T15:31:46.988Z</time>
      </trkpt>
      <trkpt lat="43.98657" lon="5.89215">
        <ele>576</ele>
        <time>2020-10-05T15:31:47.988Z</time>
      </trkpt>
      <trkpt lat="43.98656" lon="5.89216">
        <ele>576</ele>
        <time>2020-10-05T15:31:48.988Z</time>
      </trkpt>
      <trkpt lat="43.98656" lon="5.89217">
        <ele>576</ele>
        <time>2020-10-05T15:31:49.988Z</time>
      </trkpt>
      <trkpt lat="43.98654" lon="5.89218">
        <ele>576</ele>
        <time>2020-10-05T15:31:50.988Z</time>
      </trkpt>
      <trkpt lat="43.98653" lon="5.89219">
        <ele>576</ele>
        <time>2020-10-05T15:31:51.988Z</time>
      </trkpt>
      <trkpt lat="43.98653" lon="5.8922">
        <ele>576</ele>
        <time>2020-10-05T15:31:52.988Z</time>
      </trkpt>
      <trkpt lat="43.98651" lon="5.89221">
        <ele>577</ele>
        <time>2020-10-05T15:31:53.988Z</time>
      </trkpt>
      <trkpt lat="43.98651" lon="5.89221">
        <ele>577</ele>
        <time>2020-10-05T15:31:54.988Z</time>
      </trkpt>
      <trkpt lat="43.9865" lon="5.89222">
        <ele>577</ele>
        <time>2020-10-05T15:31:55.988Z</time>
      </trkpt>
      <trkpt lat="43.98649" lon="5.89223">
        <ele>577</ele>
        <time>2020-10-05T15:31:56.988Z</time>
      </trkpt>
      <trkpt lat="43.98648" lon="5.89223">
        <ele>577</ele>
        <time>2020-10-05T15:31:57.988Z</time>
      </trkpt>
      <trkpt lat="43.98647" lon="5.89224">
        <ele>577</ele>
        <time>2020-10-05T15:31:58.988Z</time>
      </trkpt>
      <trkpt lat="43.98646" lon="5.89225">
        <ele>577</ele>
        <time>2020-10-05T15:31:59.988Z</time>
      </trkpt>
      <trkpt lat="43.98645" lon="5.89226">
        <ele>578</ele>
        <time>2020-10-05T15:32:00.988Z</time>
      </trkpt>
      <trkpt lat="43.98644" lon="5.89227">
        <ele>578</ele>
        <time>2020-10-05T15:32:01.988Z</time>
      </trkpt>
      <trkpt lat="43.98643" lon="5.89227">
        <ele>578</ele>
        <time>2020-10-05T15:32:02.988Z</time>
      </trkpt>
      <trkpt lat="43.98642" lon="5.89228">
        <ele>578</ele>
        <time>2020-10-05T15:32:03.988Z</time>
      </trkpt>
      <trkpt lat="43.98641" lon="5.89228">
        <ele>578</ele>
        <time>2020-10-05T15:32:04.988Z</time>
      </trkpt>
      <trkpt lat="43.98639" lon="5.89228">
        <ele>578</ele>
        <time>2020-10-05T15:32:05.988Z</time>
      </trkpt>
      <trkpt lat="43.98639" lon="5.89229">
        <ele>578</ele>
        <time>2020-10-05T15:32:06.988Z</time>
      </trkpt>
      <trkpt lat="43.98638" lon="5.8923">
        <ele>578</ele>
        <time>2020-10-05T15:32:07.988Z</time>
      </trkpt>
      <trkpt lat="43.98637" lon="5.8923">
        <ele>578</ele>
        <time>2020-10-05T15:32:08.988Z</time>
      </trkpt>
      <trkpt lat="43.98636" lon="5.89231">
        <ele>579</ele>
        <time>2020-10-05T15:32:09.988Z</time>
      </trkpt>
      <trkpt lat="43.98635" lon="5.89231">
        <ele>579</ele>
        <time>2020-10-05T15:32:10.988Z</time>
      </trkpt>
      <trkpt lat="43.98634" lon="5.89231">
        <ele>579</ele>
        <time>2020-10-05T15:32:11.988Z</time>
      </trkpt>
      <trkpt lat="43.98633" lon="5.89232">
        <ele>579</ele>
        <time>2020-10-05T15:32:12.988Z</time>
      </trkpt>
      <trkpt lat="43.98632" lon="5.89232">
        <ele>579</ele>
        <time>2020-10-05T15:32:13.988Z</time>
      </trkpt>
      <trkpt lat="43.98631" lon="5.89232">
        <ele>579</ele>
        <time>2020-10-05T15:32:14.988Z</time>
      </trkpt>
      <trkpt lat="43.9863" lon="5.89232">
        <ele>579</ele>
        <time>2020-10-05T15:32:15.988Z</time>
      </trkpt>
      <trkpt lat="43.98629" lon="5.89232">
        <ele>579</ele>
        <time>2020-10-05T15:32:16.988Z</time>
      </trkpt>
      <trkpt lat="43.98628" lon="5.89232">
        <ele>579</ele>
        <time>2020-10-05T15:32:17.988Z</time>
      </trkpt>
      <trkpt lat="43.98627" lon="5.89231">
        <ele>579</ele>
        <time>2020-10-05T15:32:18.988Z</time>
      </trkpt>
      <trkpt lat="43.98625" lon="5.89231">
        <ele>579</ele>
        <time>2020-10-05T15:32:19.988Z</time>
      </trkpt>
      <trkpt lat="43.98624" lon="5.89231">
        <ele>579</ele>
        <time>2020-10-05T15:32:20.988Z</time>
      </trkpt>
      <trkpt lat="43.98623" lon="5.89231">
        <ele>579</ele>
        <time>2020-10-05T15:32:21.988Z</time>
      </trkpt>
      <trkpt lat="43.98622" lon="5.89231">
        <ele>579</ele>
        <time>2020-10-05T15:32:22.988Z</time>
      </trkpt>
      <trkpt lat="43.98621" lon="5.89231">
        <ele>579</ele>
        <time>2020-10-05T15:32:23.988Z</time>
      </trkpt>
      <trkpt lat="43.9862" lon="5.89231">
        <ele>579</ele>
        <time>2020-10-05T15:32:24.988Z</time>
      </trkpt>
      <trkpt lat="43.98619" lon="5.89231">
        <ele>579</ele>
        <time>2020-10-05T15:32:25.988Z</time>
      </trkpt>
      <trkpt lat="43.98618" lon="5.89231">
        <ele>579</ele>
        <time>2020-10-05T15:32:26.988Z</time>
      </trkpt>
      <trkpt lat="43.98617" lon="5.8923">
        <ele>580</ele>
        <time>2020-10-05T15:32:27.988Z</time>
      </trkpt>
      <trkpt lat="43.98616" lon="5.8923">
        <ele>580</ele>
        <time>2020-10-05T15:32:28.988Z</time>
      </trkpt>
      <trkpt lat="43.98615" lon="5.8923">
        <ele>580</ele>
        <time>2020-10-05T15:32:29.988Z</time>
      </trkpt>
      <trkpt lat="43.98614" lon="5.8923">
        <ele>580</ele>
        <time>2020-10-05T15:32:30.988Z</time>
      </trkpt>
      <trkpt lat="43.98614" lon="5.8923">
        <ele>580</ele>
        <time>2020-10-05T15:32:31.988Z</time>
      </trkpt>
      <trkpt lat="43.98613" lon="5.89229">
        <ele>580</ele>
        <time>2020-10-05T15:32:32.988Z</time>
      </trkpt>
      <trkpt lat="43.98613" lon="5.89229">
        <ele>580</ele>
        <time>2020-10-05T15:32:33.988Z</time>
      </trkpt>
      <trkpt lat="43.98613" lon="5.89229">
        <ele>580</ele>
        <time>2020-10-05T15:32:34.988Z</time>
      </trkpt>
      <trkpt lat="43.98613" lon="5.89229">
        <ele>580</ele>
        <time>2020-10-05T15:32:35.988Z</time>
      </trkpt>
      <trkpt lat="43.98613" lon="5.8923">
        <ele>580</ele>
        <time>2020-10-05T15:32:36.988Z</time>
      </trkpt>
      <trkpt lat="43.98612" lon="5.8923">
        <ele>580</ele>
        <time>2020-10-05T15:32:37.988Z</time>
      </trkpt>
      <trkpt lat="43.98612" lon="5.8923">
        <ele>580</ele>
        <time>2020-10-05T15:32:38.988Z</time>
      </trkpt>
      <trkpt lat="43.98612" lon="5.8923">
        <ele>580</ele>
        <time>2020-10-05T15:32:39.988Z</time>
      </trkpt>
      <trkpt lat="43.98612" lon="5.8923">
        <ele>580</ele>
        <time>2020-10-05T15:32:40.988Z</time>
      </trkpt>
      <trkpt lat="43.98612" lon="5.89229">
        <ele>580</ele>
        <time>2020-10-05T15:32:41.988Z</time>
      </trkpt>
      <trkpt lat="43.98612" lon="5.8923">
        <ele>580</ele>
        <time>2020-10-05T15:32:42.988Z</time>
      </trkpt>
      <trkpt lat="43.98612" lon="5.8923">
        <ele>581</ele>
        <time>2020-10-05T15:32:43.988Z</time>
      </trkpt>
      <trkpt lat="43.98612" lon="5.8923">
        <ele>581</ele>
        <time>2020-10-05T15:32:44.988Z</time>
      </trkpt>
      <trkpt lat="43.98612" lon="5.8923">
        <ele>581</ele>
        <time>2020-10-05T15:32:45.988Z</time>
      </trkpt>
      <trkpt lat="43.98612" lon="5.8923">
        <ele>581</ele>
        <time>2020-10-05T15:32:46.988Z</time>
      </trkpt>
      <trkpt lat="43.98612" lon="5.8923">
        <ele>581</ele>
        <time>2020-10-05T15:32:47.988Z</time>
      </trkpt>
      <trkpt lat="43.98612" lon="5.89229">
        <ele>581</ele>
        <time>2020-10-05T15:32:48.988Z</time>
      </trkpt>
      <trkpt lat="43.98611" lon="5.89229">
        <ele>581</ele>
        <time>2020-10-05T15:32:49.988Z</time>
      </trkpt>
      <trkpt lat="43.9861" lon="5.89228">
        <ele>581</ele>
        <time>2020-10-05T15:32:50.988Z</time>
      </trkpt>
      <trkpt lat="43.9861" lon="5.89228">
        <ele>581</ele>
        <time>2020-10-05T15:32:51.988Z</time>
      </trkpt>
      <trkpt lat="43.98609" lon="5.89228">
        <ele>581</ele>
        <time>2020-10-05T15:32:52.988Z</time>
      </trkpt>
      <trkpt lat="43.98608" lon="5.89228">
        <ele>581</ele>
        <time>2020-10-05T15:32:53.988Z</time>
      </trkpt>
      <trkpt lat="43.98607" lon="5.89229">
        <ele>581</ele>
        <time>2020-10-05T15:32:54.988Z</time>
      </trkpt>
      <trkpt lat="43.98606" lon="5.89228">
        <ele>581</ele>
        <time>2020-10-05T15:32:55.988Z</time>
      </trkpt>
      <trkpt lat="43.98605" lon="5.89228">
        <ele>581</ele>
        <time>2020-10-05T15:32:56.988Z</time>
      </trkpt>
      <trkpt lat="43.98604" lon="5.89228">
        <ele>581</ele>
        <time>2020-10-05T15:32:57.988Z</time>
      </trkpt>
      <trkpt lat="43.98603" lon="5.89228">
        <ele>581</ele>
        <time>2020-10-05T15:32:58.988Z</time>
      </trkpt>
      <trkpt lat="43.98601" lon="5.89227">
        <ele>582</ele>
        <time>2020-10-05T15:32:59.988Z</time>
      </trkpt>
      <trkpt lat="43.98601" lon="5.89227">
        <ele>582</ele>
        <time>2020-10-05T15:33:00.988Z</time>
      </trkpt>
      <trkpt lat="43.986" lon="5.89226">
        <ele>582</ele>
        <time>2020-10-05T15:33:01.988Z</time>
      </trkpt>
      <trkpt lat="43.98599" lon="5.89225">
        <ele>582</ele>
        <time>2020-10-05T15:33:02.988Z</time>
      </trkpt>
      <trkpt lat="43.98598" lon="5.89224">
        <ele>582</ele>
        <time>2020-10-05T15:33:03.988Z</time>
      </trkpt>
      <trkpt lat="43.98597" lon="5.89223">
        <ele>582</ele>
        <time>2020-10-05T15:33:04.988Z</time>
      </trkpt>
      <trkpt lat="43.98597" lon="5.89222">
        <ele>582</ele>
        <time>2020-10-05T15:33:05.988Z</time>
      </trkpt>
      <trkpt lat="43.98596" lon="5.89222">
        <ele>582</ele>
        <time>2020-10-05T15:33:06.988Z</time>
      </trkpt>
      <trkpt lat="43.98595" lon="5.89221">
        <ele>582</ele>
        <time>2020-10-05T15:33:07.988Z</time>
      </trkpt>
      <trkpt lat="43.98594" lon="5.89221">
        <ele>582</ele>
        <time>2020-10-05T15:33:08.988Z</time>
      </trkpt>
      <trkpt lat="43.98593" lon="5.89221">
        <ele>582</ele>
        <time>2020-10-05T15:33:09.988Z</time>
      </trkpt>
      <trkpt lat="43.98592" lon="5.89221">
        <ele>582</ele>
        <time>2020-10-05T15:33:10.988Z</time>
      </trkpt>
      <trkpt lat="43.98591" lon="5.8922">
        <ele>582</ele>
        <time>2020-10-05T15:33:11.988Z</time>
      </trkpt>
      <trkpt lat="43.9859" lon="5.8922">
        <ele>582</ele>
        <time>2020-10-05T15:33:12.988Z</time>
      </trkpt>
      <trkpt lat="43.98589" lon="5.89219">
        <ele>582</ele>
        <time>2020-10-05T15:33:13.988Z</time>
      </trkpt>
      <trkpt lat="43.98588" lon="5.89218">
        <ele>582</ele>
        <time>2020-10-05T15:33:14.988Z</time>
      </trkpt>
      <trkpt lat="43.98588" lon="5.89218">
        <ele>582</ele>
        <time>2020-10-05T15:33:15.988Z</time>
      </trkpt>
      <trkpt lat="43.98587" lon="5.89217">
        <ele>583</ele>
        <time>2020-10-05T15:33:16.988Z</time>
      </trkpt>
      <trkpt lat="43.98586" lon="5.89216">
        <ele>583</ele>
        <time>2020-10-05T15:33:17.988Z</time>
      </trkpt>
      <trkpt lat="43.98585" lon="5.89216">
        <ele>583</ele>
        <time>2020-10-05T15:33:18.988Z</time>
      </trkpt>
      <trkpt lat="43.98584" lon="5.89214">
        <ele>583</ele>
        <time>2020-10-05T15:33:19.988Z</time>
      </trkpt>
      <trkpt lat="43.98584" lon="5.89213">
        <ele>583</ele>
        <time>2020-10-05T15:33:20.988Z</time>
      </trkpt>
      <trkpt lat="43.98583" lon="5.89212">
        <ele>583</ele>
        <time>2020-10-05T15:33:21.988Z</time>
      </trkpt>
      <trkpt lat="43.98582" lon="5.89211">
        <ele>583</ele>
        <time>2020-10-05T15:33:22.988Z</time>
      </trkpt>
      <trkpt lat="43.98582" lon="5.8921">
        <ele>583</ele>
        <time>2020-10-05T15:33:23.988Z</time>
      </trkpt>
      <trkpt lat="43.98581" lon="5.8921">
        <ele>583</ele>
        <time>2020-10-05T15:33:24.988Z</time>
      </trkpt>
      <trkpt lat="43.9858" lon="5.89209">
        <ele>583</ele>
        <time>2020-10-05T15:33:25.988Z</time>
      </trkpt>
      <trkpt lat="43.98579" lon="5.89208">
        <ele>583</ele>
        <time>2020-10-05T15:33:26.988Z</time>
      </trkpt>
      <trkpt lat="43.98578" lon="5.89208">
        <ele>583</ele>
        <time>2020-10-05T15:33:27.988Z</time>
      </trkpt>
      <trkpt lat="43.98577" lon="5.89208">
        <ele>583</ele>
        <time>2020-10-05T15:33:28.988Z</time>
      </trkpt>
      <trkpt lat="43.98577" lon="5.89208">
        <ele>583</ele>
        <time>2020-10-05T15:33:29.988Z</time>
      </trkpt>
      <trkpt lat="43.98576" lon="5.89209">
        <ele>583</ele>
        <time>2020-10-05T15:33:30.988Z</time>
      </trkpt>
      <trkpt lat="43.98576" lon="5.89209">
        <ele>583</ele>
        <time>2020-10-05T15:33:31.988Z</time>
      </trkpt>
      <trkpt lat="43.98575" lon="5.89209">
        <ele>583</ele>
        <time>2020-10-05T15:33:32.988Z</time>
      </trkpt>
      <trkpt lat="43.98575" lon="5.89209">
        <ele>583</ele>
        <time>2020-10-05T15:33:33.988Z</time>
      </trkpt>
      <trkpt lat="43.98574" lon="5.89208">
        <ele>583</ele>
        <time>2020-10-05T15:33:34.988Z</time>
      </trkpt>
      <trkpt lat="43.98573" lon="5.89208">
        <ele>583</ele>
        <time>2020-10-05T15:33:35.988Z</time>
      </trkpt>
      <trkpt lat="43.98572" lon="5.89208">
        <ele>583</ele>
        <time>2020-10-05T15:33:36.988Z</time>
      </trkpt>
      <trkpt lat="43.98571" lon="5.89207">
        <ele>583</ele>
        <time>2020-10-05T15:33:37.988Z</time>
      </trkpt>
      <trkpt lat="43.9857" lon="5.89207">
        <ele>583</ele>
        <time>2020-10-05T15:33:38.988Z</time>
      </trkpt>
      <trkpt lat="43.98569" lon="5.89207">
        <ele>583</ele>
        <time>2020-10-05T15:33:39.988Z</time>
      </trkpt>
      <trkpt lat="43.98568" lon="5.89206">
        <ele>583</ele>
        <time>2020-10-05T15:33:40.988Z</time>
      </trkpt>
      <trkpt lat="43.98567" lon="5.89206">
        <ele>583</ele>
        <time>2020-10-05T15:33:41.988Z</time>
      </trkpt>
      <trkpt lat="43.98566" lon="5.89206">
        <ele>583</ele>
        <time>2020-10-05T15:33:42.988Z</time>
      </trkpt>
      <trkpt lat="43.98565" lon="5.89206">
        <ele>583</ele>
        <time>2020-10-05T15:33:43.988Z</time>
      </trkpt>
      <trkpt lat="43.98564" lon="5.89206">
        <ele>583</ele>
        <time>2020-10-05T15:33:44.988Z</time>
      </trkpt>
      <trkpt lat="43.98563" lon="5.89206">
        <ele>583</ele>
        <time>2020-10-05T15:33:45.988Z</time>
      </trkpt>
      <trkpt lat="43.98562" lon="5.89205">
        <ele>583</ele>
        <time>2020-10-05T15:33:46.988Z</time>
      </trkpt>
      <trkpt lat="43.98561" lon="5.89205">
        <ele>583</ele>
        <time>2020-10-05T15:33:47.988Z</time>
      </trkpt>
      <trkpt lat="43.9856" lon="5.89204">
        <ele>583</ele>
        <time>2020-10-05T15:33:48.988Z</time>
      </trkpt>
      <trkpt lat="43.98559" lon="5.89203">
        <ele>583</ele>
        <time>2020-10-05T15:33:49.988Z</time>
      </trkpt>
      <trkpt lat="43.98559" lon="5.89203">
        <ele>583</ele>
        <time>2020-10-05T15:33:50.988Z</time>
      </trkpt>
      <trkpt lat="43.98558" lon="5.89203">
        <ele>583</ele>
        <time>2020-10-05T15:33:51.988Z</time>
      </trkpt>
      <trkpt lat="43.98557" lon="5.89202">
        <ele>583</ele>
        <time>2020-10-05T15:33:52.988Z</time>
      </trkpt>
      <trkpt lat="43.98556" lon="5.89202">
        <ele>583</ele>
        <time>2020-10-05T15:33:53.988Z</time>
      </trkpt>
      <trkpt lat="43.98555" lon="5.89202">
        <ele>583</ele>
        <time>2020-10-05T15:33:54.988Z</time>
      </trkpt>
      <trkpt lat="43.98554" lon="5.89201">
        <ele>583</ele>
        <time>2020-10-05T15:33:55.988Z</time>
      </trkpt>
      <trkpt lat="43.98554" lon="5.89201">
        <ele>583</ele>
        <time>2020-10-05T15:33:56.988Z</time>
      </trkpt>
      <trkpt lat="43.98553" lon="5.89201">
        <ele>584</ele>
        <time>2020-10-05T15:33:57.988Z</time>
      </trkpt>
      <trkpt lat="43.98552" lon="5.892">
        <ele>584</ele>
        <time>2020-10-05T15:33:58.988Z</time>
      </trkpt>
      <trkpt lat="43.98551" lon="5.892">
        <ele>584</ele>
        <time>2020-10-05T15:33:59.988Z</time>
      </trkpt>
      <trkpt lat="43.9855" lon="5.892">
        <ele>584</ele>
        <time>2020-10-05T15:34:00.988Z</time>
      </trkpt>
      <trkpt lat="43.98549" lon="5.892">
        <ele>584</ele>
        <time>2020-10-05T15:34:01.988Z</time>
      </trkpt>
      <trkpt lat="43.98548" lon="5.89199">
        <ele>584</ele>
        <time>2020-10-05T15:34:02.988Z</time>
      </trkpt>
      <trkpt lat="43.98547" lon="5.89199">
        <ele>584</ele>
        <time>2020-10-05T15:34:03.988Z</time>
      </trkpt>
      <trkpt lat="43.98546" lon="5.89199">
        <ele>584</ele>
        <time>2020-10-05T15:34:04.988Z</time>
      </trkpt>
      <trkpt lat="43.98545" lon="5.89198">
        <ele>584</ele>
        <time>2020-10-05T15:34:05.988Z</time>
      </trkpt>
      <trkpt lat="43.98544" lon="5.89198">
        <ele>584</ele>
        <time>2020-10-05T15:34:06.988Z</time>
      </trkpt>
      <trkpt lat="43.98543" lon="5.89198">
        <ele>584</ele>
        <time>2020-10-05T15:34:07.988Z</time>
      </trkpt>
      <trkpt lat="43.98541" lon="5.89198">
        <ele>584</ele>
        <time>2020-10-05T15:34:08.988Z</time>
      </trkpt>
      <trkpt lat="43.9854" lon="5.89198">
        <ele>584</ele>
        <time>2020-10-05T15:34:09.988Z</time>
      </trkpt>
      <trkpt lat="43.98539" lon="5.89197">
        <ele>584</ele>
        <time>2020-10-05T15:34:10.988Z</time>
      </trkpt>
      <trkpt lat="43.98538" lon="5.89197">
        <ele>584</ele>
        <time>2020-10-05T15:34:11.988Z</time>
      </trkpt>
      <trkpt lat="43.98537" lon="5.89196">
        <ele>584</ele>
        <time>2020-10-05T15:34:12.988Z</time>
      </trkpt>
      <trkpt lat="43.98536" lon="5.89196">
        <ele>584</ele>
        <time>2020-10-05T15:34:13.988Z</time>
      </trkpt>
      <trkpt lat="43.98535" lon="5.89195">
        <ele>585</ele>
        <time>2020-10-05T15:34:14.988Z</time>
      </trkpt>
      <trkpt lat="43.98534" lon="5.89195">
        <ele>585</ele>
        <time>2020-10-05T15:34:15.988Z</time>
      </trkpt>
      <trkpt lat="43.98533" lon="5.89195">
        <ele>585</ele>
        <time>2020-10-05T15:34:16.988Z</time>
      </trkpt>
      <trkpt lat="43.98532" lon="5.89195">
        <ele>585</ele>
        <time>2020-10-05T15:34:17.988Z</time>
      </trkpt>
      <trkpt lat="43.98531" lon="5.89194">
        <ele>585</ele>
        <time>2020-10-05T15:34:18.988Z</time>
      </trkpt>
      <trkpt lat="43.9853" lon="5.89194">
        <ele>585</ele>
        <time>2020-10-05T15:34:19.988Z</time>
      </trkpt>
      <trkpt lat="43.98529" lon="5.89194">
        <ele>585</ele>
        <time>2020-10-05T15:34:20.988Z</time>
      </trkpt>
      <trkpt lat="43.98529" lon="5.89194">
        <ele>585</ele>
        <time>2020-10-05T15:34:21.988Z</time>
      </trkpt>
      <trkpt lat="43.98528" lon="5.89194">
        <ele>585</ele>
        <time>2020-10-05T15:34:22.988Z</time>
      </trkpt>
      <trkpt lat="43.98527" lon="5.89194">
        <ele>585</ele>
        <time>2020-10-05T15:34:23.988Z</time>
      </trkpt>
      <trkpt lat="43.98526" lon="5.89194">
        <ele>585</ele>
        <time>2020-10-05T15:34:24.988Z</time>
      </trkpt>
      <trkpt lat="43.98525" lon="5.89195">
        <ele>585</ele>
        <time>2020-10-05T15:34:25.988Z</time>
      </trkpt>
      <trkpt lat="43.98524" lon="5.89195">
        <ele>585</ele>
        <time>2020-10-05T15:34:26.988Z</time>
      </trkpt>
      <trkpt lat="43.98523" lon="5.89195">
        <ele>585</ele>
        <time>2020-10-05T15:34:27.988Z</time>
      </trkpt>
      <trkpt lat="43.98523" lon="5.89195">
        <ele>585</ele>
        <time>2020-10-05T15:34:28.988Z</time>
      </trkpt>
      <trkpt lat="43.98521" lon="5.89196">
        <ele>585</ele>
        <time>2020-10-05T15:34:29.988Z</time>
      </trkpt>
      <trkpt lat="43.9852" lon="5.89196">
        <ele>585</ele>
        <time>2020-10-05T15:34:30.988Z</time>
      </trkpt>
      <trkpt lat="43.98519" lon="5.89197">
        <ele>585</ele>
        <time>2020-10-05T15:34:31.988Z</time>
      </trkpt>
      <trkpt lat="43.98518" lon="5.89196">
        <ele>585</ele>
        <time>2020-10-05T15:34:32.988Z</time>
      </trkpt>
      <trkpt lat="43.98517" lon="5.89196">
        <ele>585</ele>
        <time>2020-10-05T15:34:33.988Z</time>
      </trkpt>
      <trkpt lat="43.98516" lon="5.89195">
        <ele>585</ele>
        <time>2020-10-05T15:34:34.988Z</time>
      </trkpt>
      <trkpt lat="43.98515" lon="5.89195">
        <ele>585</ele>
        <time>2020-10-05T15:34:35.988Z</time>
      </trkpt>
      <trkpt lat="43.98514" lon="5.89194">
        <ele>585</ele>
        <time>2020-10-05T15:34:36.988Z</time>
      </trkpt>
      <trkpt lat="43.98514" lon="5.89194">
        <ele>585</ele>
        <time>2020-10-05T15:34:37.988Z</time>
      </trkpt>
      <trkpt lat="43.98513" lon="5.89193">
        <ele>586</ele>
        <time>2020-10-05T15:34:38.988Z</time>
      </trkpt>
      <trkpt lat="43.98512" lon="5.89193">
        <ele>586</ele>
        <time>2020-10-05T15:34:39.988Z</time>
      </trkpt>
      <trkpt lat="43.98511" lon="5.89193">
        <ele>585</ele>
        <time>2020-10-05T15:34:40.988Z</time>
      </trkpt>
      <trkpt lat="43.9851" lon="5.89193">
        <ele>585</ele>
        <time>2020-10-05T15:34:41.988Z</time>
      </trkpt>
      <trkpt lat="43.98509" lon="5.89192">
        <ele>585</ele>
        <time>2020-10-05T15:34:42.988Z</time>
      </trkpt>
      <trkpt lat="43.98508" lon="5.89192">
        <ele>585</ele>
        <time>2020-10-05T15:34:43.988Z</time>
      </trkpt>
      <trkpt lat="43.98507" lon="5.89191">
        <ele>585</ele>
        <time>2020-10-05T15:34:44.988Z</time>
      </trkpt>
      <trkpt lat="43.98506" lon="5.89191">
        <ele>585</ele>
        <time>2020-10-05T15:34:45.988Z</time>
      </trkpt>
      <trkpt lat="43.98505" lon="5.89192">
        <ele>585</ele>
        <time>2020-10-05T15:34:46.988Z</time>
      </trkpt>
      <trkpt lat="43.98504" lon="5.89192">
        <ele>585</ele>
        <time>2020-10-05T15:34:47.988Z</time>
      </trkpt>
      <trkpt lat="43.98502" lon="5.89193">
        <ele>585</ele>
        <time>2020-10-05T15:34:48.988Z</time>
      </trkpt>
      <trkpt lat="43.98501" lon="5.89193">
        <ele>585</ele>
        <time>2020-10-05T15:34:49.988Z</time>
      </trkpt>
      <trkpt lat="43.985" lon="5.89193">
        <ele>586</ele>
        <time>2020-10-05T15:34:50.988Z</time>
      </trkpt>
      <trkpt lat="43.98499" lon="5.89193">
        <ele>586</ele>
        <time>2020-10-05T15:34:51.988Z</time>
      </trkpt>
      <trkpt lat="43.98498" lon="5.89193">
        <ele>586</ele>
        <time>2020-10-05T15:34:52.988Z</time>
      </trkpt>
      <trkpt lat="43.98498" lon="5.89193">
        <ele>586</ele>
        <time>2020-10-05T15:34:53.988Z</time>
      </trkpt>
      <trkpt lat="43.98497" lon="5.89192">
        <ele>586</ele>
        <time>2020-10-05T15:34:54.988Z</time>
      </trkpt>
      <trkpt lat="43.98496" lon="5.89192">
        <ele>586</ele>
        <time>2020-10-05T15:34:55.988Z</time>
      </trkpt>
      <trkpt lat="43.98495" lon="5.89192">
        <ele>586</ele>
        <time>2020-10-05T15:34:56.988Z</time>
      </trkpt>
      <trkpt lat="43.98494" lon="5.89192">
        <ele>586</ele>
        <time>2020-10-05T15:34:57.988Z</time>
      </trkpt>
      <trkpt lat="43.98493" lon="5.89192">
        <ele>586</ele>
        <time>2020-10-05T15:34:58.988Z</time>
      </trkpt>
      <trkpt lat="43.98492" lon="5.89191">
        <ele>586</ele>
        <time>2020-10-05T15:34:59.988Z</time>
      </trkpt>
      <trkpt lat="43.98491" lon="5.89191">
        <ele>586</ele>
        <time>2020-10-05T15:35:00.988Z</time>
      </trkpt>
      <trkpt lat="43.9849" lon="5.89191">
        <ele>586</ele>
        <time>2020-10-05T15:35:01.988Z</time>
      </trkpt>
      <trkpt lat="43.98489" lon="5.89191">
        <ele>586</ele>
        <time>2020-10-05T15:35:02.988Z</time>
      </trkpt>
      <trkpt lat="43.98488" lon="5.89191">
        <ele>586</ele>
        <time>2020-10-05T15:35:03.988Z</time>
      </trkpt>
      <trkpt lat="43.98487" lon="5.8919">
        <ele>586</ele>
        <time>2020-10-05T15:35:04.988Z</time>
      </trkpt>
      <trkpt lat="43.98486" lon="5.8919">
        <ele>586</ele>
        <time>2020-10-05T15:35:05.988Z</time>
      </trkpt>
      <trkpt lat="43.98485" lon="5.89189">
        <ele>586</ele>
        <time>2020-10-05T15:35:06.988Z</time>
      </trkpt>
      <trkpt lat="43.98484" lon="5.89189">
        <ele>586</ele>
        <time>2020-10-05T15:35:07.988Z</time>
      </trkpt>
      <trkpt lat="43.98483" lon="5.89188">
        <ele>586</ele>
        <time>2020-10-05T15:35:08.988Z</time>
      </trkpt>
      <trkpt lat="43.98482" lon="5.89187">
        <ele>586</ele>
        <time>2020-10-05T15:35:09.988Z</time>
      </trkpt>
      <trkpt lat="43.98481" lon="5.89187">
        <ele>586</ele>
        <time>2020-10-05T15:35:10.988Z</time>
      </trkpt>
      <trkpt lat="43.98481" lon="5.89187">
        <ele>586</ele>
        <time>2020-10-05T15:35:11.988Z</time>
      </trkpt>
      <trkpt lat="43.98479" lon="5.89186">
        <ele>586</ele>
        <time>2020-10-05T15:35:12.988Z</time>
      </trkpt>
      <trkpt lat="43.98478" lon="5.89185">
        <ele>586</ele>
        <time>2020-10-05T15:35:13.988Z</time>
      </trkpt>
      <trkpt lat="43.98477" lon="5.89184">
        <ele>586</ele>
        <time>2020-10-05T15:35:14.988Z</time>
      </trkpt>
      <trkpt lat="43.98477" lon="5.89184">
        <ele>586</ele>
        <time>2020-10-05T15:35:15.988Z</time>
      </trkpt>
      <trkpt lat="43.98476" lon="5.89183">
        <ele>586</ele>
        <time>2020-10-05T15:35:16.988Z</time>
      </trkpt>
      <trkpt lat="43.98475" lon="5.89183">
        <ele>586</ele>
        <time>2020-10-05T15:35:17.988Z</time>
      </trkpt>
      <trkpt lat="43.98474" lon="5.89182">
        <ele>586</ele>
        <time>2020-10-05T15:35:18.988Z</time>
      </trkpt>
      <trkpt lat="43.98473" lon="5.89182">
        <ele>586</ele>
        <time>2020-10-05T15:35:19.988Z</time>
      </trkpt>
      <trkpt lat="43.98472" lon="5.89182">
        <ele>586</ele>
        <time>2020-10-05T15:35:20.988Z</time>
      </trkpt>
      <trkpt lat="43.98471" lon="5.89182">
        <ele>586</ele>
        <time>2020-10-05T15:35:21.988Z</time>
      </trkpt>
      <trkpt lat="43.9847" lon="5.89182">
        <ele>586</ele>
        <time>2020-10-05T15:35:22.988Z</time>
      </trkpt>
      <trkpt lat="43.98469" lon="5.89182">
        <ele>586</ele>
        <time>2020-10-05T15:35:23.988Z</time>
      </trkpt>
      <trkpt lat="43.98468" lon="5.89182">
        <ele>587</ele>
        <time>2020-10-05T15:35:24.988Z</time>
      </trkpt>
      <trkpt lat="43.98467" lon="5.89182">
        <ele>587</ele>
        <time>2020-10-05T15:35:25.988Z</time>
      </trkpt>
      <trkpt lat="43.98466" lon="5.89182">
        <ele>587</ele>
        <time>2020-10-05T15:35:26.988Z</time>
      </trkpt>
      <trkpt lat="43.98465" lon="5.89182">
        <ele>587</ele>
        <time>2020-10-05T15:35:27.988Z</time>
      </trkpt>
      <trkpt lat="43.98464" lon="5.89183">
        <ele>587</ele>
        <time>2020-10-05T15:35:28.988Z</time>
      </trkpt>
      <trkpt lat="43.98463" lon="5.89183">
        <ele>587</ele>
        <time>2020-10-05T15:35:29.988Z</time>
      </trkpt>
      <trkpt lat="43.98462" lon="5.89183">
        <ele>587</ele>
        <time>2020-10-05T15:35:30.988Z</time>
      </trkpt>
      <trkpt lat="43.98461" lon="5.89183">
        <ele>587</ele>
        <time>2020-10-05T15:35:31.988Z</time>
      </trkpt>
      <trkpt lat="43.9846" lon="5.89183">
        <ele>587</ele>
        <time>2020-10-05T15:35:32.988Z</time>
      </trkpt>
      <trkpt lat="43.9846" lon="5.89183">
        <ele>587</ele>
        <time>2020-10-05T15:35:33.988Z</time>
      </trkpt>
      <trkpt lat="43.98458" lon="5.89183">
        <ele>587</ele>
        <time>2020-10-05T15:35:34.988Z</time>
      </trkpt>
      <trkpt lat="43.98457" lon="5.89183">
        <ele>587</ele>
        <time>2020-10-05T15:35:35.988Z</time>
      </trkpt>
      <trkpt lat="43.98457" lon="5.89183">
        <ele>587</ele>
        <time>2020-10-05T15:35:36.988Z</time>
      </trkpt>
      <trkpt lat="43.98456" lon="5.89183">
        <ele>587</ele>
        <time>2020-10-05T15:35:37.988Z</time>
      </trkpt>
      <trkpt lat="43.98456" lon="5.89183">
        <ele>587</ele>
        <time>2020-10-05T15:35:38.988Z</time>
      </trkpt>
      <trkpt lat="43.98456" lon="5.89183">
        <ele>587</ele>
        <time>2020-10-05T15:35:39.988Z</time>
      </trkpt>
      <trkpt lat="43.98456" lon="5.89183">
        <ele>587</ele>
        <time>2020-10-05T15:35:40.988Z</time>
      </trkpt>
      <trkpt lat="43.98456" lon="5.89183">
        <ele>587</ele>
        <time>2020-10-05T15:35:41.988Z</time>
      </trkpt>
      <trkpt lat="43.98456" lon="5.89183">
        <ele>587</ele>
        <time>2020-10-05T15:35:42.988Z</time>
      </trkpt>
      <trkpt lat="43.98456" lon="5.89183">
        <ele>587</ele>
        <time>2020-10-05T15:35:43.988Z</time>
      </trkpt>
      <trkpt lat="43.98456" lon="5.89183">
        <ele>587</ele>
        <time>2020-10-05T15:35:44.988Z</time>
      </trkpt>
      <trkpt lat="43.98456" lon="5.89183">
        <ele>587</ele>
        <time>2020-10-05T15:35:45.988Z</time>
      </trkpt>
      <trkpt lat="43.98455" lon="5.89183">
        <ele>587</ele>
        <time>2020-10-05T15:35:46.988Z</time>
      </trkpt>
      <trkpt lat="43.98455" lon="5.89183">
        <ele>587</ele>
        <time>2020-10-05T15:35:47.988Z</time>
      </trkpt>
      <trkpt lat="43.98455" lon="5.89183">
        <ele>587</ele>
        <time>2020-10-05T15:35:48.988Z</time>
      </trkpt>
      <trkpt lat="43.98455" lon="5.89183">
        <ele>587</ele>
        <time>2020-10-05T15:35:49.988Z</time>
      </trkpt>
      <trkpt lat="43.98455" lon="5.89183">
        <ele>587</ele>
        <time>2020-10-05T15:35:50.988Z</time>
      </trkpt>
      <trkpt lat="43.98455" lon="5.89183">
        <ele>587</ele>
        <time>2020-10-05T15:35:51.988Z</time>
      </trkpt>
      <trkpt lat="43.98455" lon="5.89183">
        <ele>587</ele>
        <time>2020-10-05T15:35:52.988Z</time>
      </trkpt>
      <trkpt lat="43.98454" lon="5.89182">
        <ele>587</ele>
        <time>2020-10-05T15:35:53.988Z</time>
      </trkpt>
      <trkpt lat="43.98453" lon="5.89182">
        <ele>587</ele>
        <time>2020-10-05T15:35:54.988Z</time>
      </trkpt>
      <trkpt lat="43.98453" lon="5.89181">
        <ele>587</ele>
        <time>2020-10-05T15:35:55.988Z</time>
      </trkpt>
      <trkpt lat="43.98452" lon="5.89181">
        <ele>587</ele>
        <time>2020-10-05T15:35:56.988Z</time>
      </trkpt>
      <trkpt lat="43.98452" lon="5.8918">
        <ele>587</ele>
        <time>2020-10-05T15:35:57.988Z</time>
      </trkpt>
      <trkpt lat="43.98451" lon="5.8918">
        <ele>587</ele>
        <time>2020-10-05T15:35:58.988Z</time>
      </trkpt>
      <trkpt lat="43.9845" lon="5.8918">
        <ele>587</ele>
        <time>2020-10-05T15:35:59.988Z</time>
      </trkpt>
      <trkpt lat="43.98449" lon="5.89179">
        <ele>587</ele>
        <time>2020-10-05T15:36:00.988Z</time>
      </trkpt>
      <trkpt lat="43.98449" lon="5.89179">
        <ele>587</ele>
        <time>2020-10-05T15:36:01.988Z</time>
      </trkpt>
      <trkpt lat="43.98448" lon="5.89179">
        <ele>587</ele>
        <time>2020-10-05T15:36:02.988Z</time>
      </trkpt>
      <trkpt lat="43.98447" lon="5.89179">
        <ele>587</ele>
        <time>2020-10-05T15:36:03.988Z</time>
      </trkpt>
      <trkpt lat="43.98447" lon="5.89179">
        <ele>587</ele>
        <time>2020-10-05T15:36:04.988Z</time>
      </trkpt>
      <trkpt lat="43.98446" lon="5.89179">
        <ele>588</ele>
        <time>2020-10-05T15:36:05.988Z</time>
      </trkpt>
      <trkpt lat="43.98445" lon="5.8918">
        <ele>588</ele>
        <time>2020-10-05T15:36:06.988Z</time>
      </trkpt>
      <trkpt lat="43.98444" lon="5.8918">
        <ele>588</ele>
        <time>2020-10-05T15:36:07.988Z</time>
      </trkpt>
      <trkpt lat="43.98443" lon="5.8918">
        <ele>588</ele>
        <time>2020-10-05T15:36:08.988Z</time>
      </trkpt>
      <trkpt lat="43.98442" lon="5.8918">
        <ele>588</ele>
        <time>2020-10-05T15:36:09.988Z</time>
      </trkpt>
      <trkpt lat="43.98441" lon="5.8918">
        <ele>588</ele>
        <time>2020-10-05T15:36:10.988Z</time>
      </trkpt>
      <trkpt lat="43.9844" lon="5.8918">
        <ele>588</ele>
        <time>2020-10-05T15:36:11.988Z</time>
      </trkpt>
      <trkpt lat="43.9844" lon="5.8918">
        <ele>588</ele>
        <time>2020-10-05T15:36:12.988Z</time>
      </trkpt>
      <trkpt lat="43.98439" lon="5.8918">
        <ele>589</ele>
        <time>2020-10-05T15:36:13.988Z</time>
      </trkpt>
      <trkpt lat="43.98437" lon="5.8918">
        <ele>589</ele>
        <time>2020-10-05T15:36:14.988Z</time>
      </trkpt>
      <trkpt lat="43.98436" lon="5.8918">
        <ele>589</ele>
        <time>2020-10-05T15:36:15.988Z</time>
      </trkpt>
      <trkpt lat="43.98435" lon="5.8918">
        <ele>589</ele>
        <time>2020-10-05T15:36:16.988Z</time>
      </trkpt>
      <trkpt lat="43.98434" lon="5.8918">
        <ele>589</ele>
        <time>2020-10-05T15:36:17.988Z</time>
      </trkpt>
      <trkpt lat="43.98434" lon="5.89179">
        <ele>589</ele>
        <time>2020-10-05T15:36:18.988Z</time>
      </trkpt>
      <trkpt lat="43.98433" lon="5.89179">
        <ele>589</ele>
        <time>2020-10-05T15:36:19.988Z</time>
      </trkpt>
      <trkpt lat="43.98432" lon="5.89179">
        <ele>589</ele>
        <time>2020-10-05T15:36:20.988Z</time>
      </trkpt>
      <trkpt lat="43.98431" lon="5.89179">
        <ele>589</ele>
        <time>2020-10-05T15:36:21.988Z</time>
      </trkpt>
      <trkpt lat="43.9843" lon="5.89179">
        <ele>589</ele>
        <time>2020-10-05T15:36:22.988Z</time>
      </trkpt>
      <trkpt lat="43.98429" lon="5.89179">
        <ele>589</ele>
        <time>2020-10-05T15:36:23.988Z</time>
      </trkpt>
      <trkpt lat="43.98428" lon="5.8918">
        <ele>590</ele>
        <time>2020-10-05T15:36:24.988Z</time>
      </trkpt>
      <trkpt lat="43.98427" lon="5.8918">
        <ele>590</ele>
        <time>2020-10-05T15:36:25.988Z</time>
      </trkpt>
      <trkpt lat="43.98426" lon="5.89181">
        <ele>590</ele>
        <time>2020-10-05T15:36:26.988Z</time>
      </trkpt>
      <trkpt lat="43.98425" lon="5.89181">
        <ele>590</ele>
        <time>2020-10-05T15:36:27.988Z</time>
      </trkpt>
      <trkpt lat="43.98424" lon="5.89181">
        <ele>590</ele>
        <time>2020-10-05T15:36:28.988Z</time>
      </trkpt>
      <trkpt lat="43.98424" lon="5.89182">
        <ele>590</ele>
        <time>2020-10-05T15:36:29.988Z</time>
      </trkpt>
      <trkpt lat="43.98423" lon="5.89182">
        <ele>590</ele>
        <time>2020-10-05T15:36:30.988Z</time>
      </trkpt>
      <trkpt lat="43.98423" lon="5.89182">
        <ele>590</ele>
        <time>2020-10-05T15:36:31.988Z</time>
      </trkpt>
      <trkpt lat="43.98422" lon="5.89182">
        <ele>590</ele>
        <time>2020-10-05T15:36:32.988Z</time>
      </trkpt>
      <trkpt lat="43.98422" lon="5.89182">
        <ele>590</ele>
        <time>2020-10-05T15:36:33.988Z</time>
      </trkpt>
      <trkpt lat="43.98422" lon="5.89182">
        <ele>590</ele>
        <time>2020-10-05T15:36:34.988Z</time>
      </trkpt>
      <trkpt lat="43.98421" lon="5.89182">
        <ele>590</ele>
        <time>2020-10-05T15:36:35.988Z</time>
      </trkpt>
      <trkpt lat="43.98421" lon="5.89182">
        <ele>590</ele>
        <time>2020-10-05T15:36:36.988Z</time>
      </trkpt>
      <trkpt lat="43.9842" lon="5.89183">
        <ele>590</ele>
        <time>2020-10-05T15:36:37.988Z</time>
      </trkpt>
      <trkpt lat="43.9842" lon="5.89183">
        <ele>590</ele>
        <time>2020-10-05T15:36:38.988Z</time>
      </trkpt>
      <trkpt lat="43.98419" lon="5.89183">
        <ele>590</ele>
        <time>2020-10-05T15:36:39.988Z</time>
      </trkpt>
      <trkpt lat="43.98418" lon="5.89183">
        <ele>590</ele>
        <time>2020-10-05T15:36:40.988Z</time>
      </trkpt>
      <trkpt lat="43.98417" lon="5.89183">
        <ele>591</ele>
        <time>2020-10-05T15:36:41.988Z</time>
      </trkpt>
      <trkpt lat="43.98416" lon="5.89184">
        <ele>591</ele>
        <time>2020-10-05T15:36:42.988Z</time>
      </trkpt>
      <trkpt lat="43.98415" lon="5.89183">
        <ele>591</ele>
        <time>2020-10-05T15:36:43.988Z</time>
      </trkpt>
      <trkpt lat="43.98414" lon="5.89183">
        <ele>591</ele>
        <time>2020-10-05T15:36:44.988Z</time>
      </trkpt>
      <trkpt lat="43.98414" lon="5.89182">
        <ele>591</ele>
        <time>2020-10-05T15:36:45.988Z</time>
      </trkpt>
      <trkpt lat="43.98413" lon="5.89181">
        <ele>591</ele>
        <time>2020-10-05T15:36:46.988Z</time>
      </trkpt>
      <trkpt lat="43.98412" lon="5.8918">
        <ele>591</ele>
        <time>2020-10-05T15:36:47.988Z</time>
      </trkpt>
      <trkpt lat="43.98412" lon="5.89179">
        <ele>591</ele>
        <time>2020-10-05T15:36:48.988Z</time>
      </trkpt>
      <trkpt lat="43.98411" lon="5.89178">
        <ele>591</ele>
        <time>2020-10-05T15:36:49.988Z</time>
      </trkpt>
      <trkpt lat="43.9841" lon="5.89177">
        <ele>591</ele>
        <time>2020-10-05T15:36:50.988Z</time>
      </trkpt>
      <trkpt lat="43.98409" lon="5.89177">
        <ele>591</ele>
        <time>2020-10-05T15:36:51.988Z</time>
      </trkpt>
      <trkpt lat="43.98408" lon="5.89176">
        <ele>591</ele>
        <time>2020-10-05T15:36:52.988Z</time>
      </trkpt>
      <trkpt lat="43.98408" lon="5.89176">
        <ele>591</ele>
        <time>2020-10-05T15:36:53.988Z</time>
      </trkpt>
      <trkpt lat="43.98407" lon="5.89176">
        <ele>591</ele>
        <time>2020-10-05T15:36:54.988Z</time>
      </trkpt>
      <trkpt lat="43.98406" lon="5.89177">
        <ele>591</ele>
        <time>2020-10-05T15:36:55.988Z</time>
      </trkpt>
      <trkpt lat="43.98404" lon="5.89177">
        <ele>591</ele>
        <time>2020-10-05T15:36:56.988Z</time>
      </trkpt>
      <trkpt lat="43.98403" lon="5.89177">
        <ele>591</ele>
        <time>2020-10-05T15:36:57.988Z</time>
      </trkpt>
      <trkpt lat="43.98402" lon="5.89177">
        <ele>591</ele>
        <time>2020-10-05T15:36:58.988Z</time>
      </trkpt>
      <trkpt lat="43.98401" lon="5.89177">
        <ele>591</ele>
        <time>2020-10-05T15:36:59.988Z</time>
      </trkpt>
      <trkpt lat="43.98401" lon="5.89178">
        <ele>591</ele>
        <time>2020-10-05T15:37:00.988Z</time>
      </trkpt>
      <trkpt lat="43.984" lon="5.89178">
        <ele>592</ele>
        <time>2020-10-05T15:37:01.988Z</time>
      </trkpt>
      <trkpt lat="43.98399" lon="5.89178">
        <ele>592</ele>
        <time>2020-10-05T15:37:02.988Z</time>
      </trkpt>
      <trkpt lat="43.98398" lon="5.89178">
        <ele>592</ele>
        <time>2020-10-05T15:37:03.988Z</time>
      </trkpt>
      <trkpt lat="43.98397" lon="5.89178">
        <ele>592</ele>
        <time>2020-10-05T15:37:04.988Z</time>
      </trkpt>
      <trkpt lat="43.98396" lon="5.89179">
        <ele>592</ele>
        <time>2020-10-05T15:37:05.988Z</time>
      </trkpt>
      <trkpt lat="43.98395" lon="5.89179">
        <ele>592</ele>
        <time>2020-10-05T15:37:06.988Z</time>
      </trkpt>
      <trkpt lat="43.98394" lon="5.89179">
        <ele>592</ele>
        <time>2020-10-05T15:37:07.988Z</time>
      </trkpt>
      <trkpt lat="43.98393" lon="5.89179">
        <ele>592</ele>
        <time>2020-10-05T15:37:08.988Z</time>
      </trkpt>
      <trkpt lat="43.98392" lon="5.89179">
        <ele>592</ele>
        <time>2020-10-05T15:37:09.988Z</time>
      </trkpt>
      <trkpt lat="43.98391" lon="5.89179">
        <ele>593</ele>
        <time>2020-10-05T15:37:10.988Z</time>
      </trkpt>
      <trkpt lat="43.9839" lon="5.89178">
        <ele>592</ele>
        <time>2020-10-05T15:37:11.988Z</time>
      </trkpt>
      <trkpt lat="43.98389" lon="5.89178">
        <ele>592</ele>
        <time>2020-10-05T15:37:12.988Z</time>
      </trkpt>
      <trkpt lat="43.98388" lon="5.89177">
        <ele>592</ele>
        <time>2020-10-05T15:37:13.988Z</time>
      </trkpt>
      <trkpt lat="43.98386" lon="5.89177">
        <ele>592</ele>
        <time>2020-10-05T15:37:14.988Z</time>
      </trkpt>
      <trkpt lat="43.98385" lon="5.89176">
        <ele>592</ele>
        <time>2020-10-05T15:37:15.988Z</time>
      </trkpt>
      <trkpt lat="43.98384" lon="5.89176">
        <ele>592</ele>
        <time>2020-10-05T15:37:16.988Z</time>
      </trkpt>
      <trkpt lat="43.98383" lon="5.89175">
        <ele>592</ele>
        <time>2020-10-05T15:37:17.988Z</time>
      </trkpt>
      <trkpt lat="43.98383" lon="5.89175">
        <ele>592</ele>
        <time>2020-10-05T15:37:18.988Z</time>
      </trkpt>
      <trkpt lat="43.98382" lon="5.89174">
        <ele>592</ele>
        <time>2020-10-05T15:37:19.988Z</time>
      </trkpt>
      <trkpt lat="43.9838" lon="5.89174">
        <ele>592</ele>
        <time>2020-10-05T15:37:20.988Z</time>
      </trkpt>
      <trkpt lat="43.98379" lon="5.89174">
        <ele>592</ele>
        <time>2020-10-05T15:37:21.988Z</time>
      </trkpt>
      <trkpt lat="43.98379" lon="5.89175">
        <ele>593</ele>
        <time>2020-10-05T15:37:22.988Z</time>
      </trkpt>
      <trkpt lat="43.98378" lon="5.89175">
        <ele>593</ele>
        <time>2020-10-05T15:37:23.988Z</time>
      </trkpt>
      <trkpt lat="43.98377" lon="5.89176">
        <ele>593</ele>
        <time>2020-10-05T15:37:24.988Z</time>
      </trkpt>
      <trkpt lat="43.98376" lon="5.89176">
        <ele>593</ele>
        <time>2020-10-05T15:37:25.988Z</time>
      </trkpt>
      <trkpt lat="43.98375" lon="5.89176">
        <ele>593</ele>
        <time>2020-10-05T15:37:26.988Z</time>
      </trkpt>
      <trkpt lat="43.98375" lon="5.89177">
        <ele>593</ele>
        <time>2020-10-05T15:37:27.988Z</time>
      </trkpt>
      <trkpt lat="43.98374" lon="5.89178">
        <ele>593</ele>
        <time>2020-10-05T15:37:28.988Z</time>
      </trkpt>
      <trkpt lat="43.98373" lon="5.89178">
        <ele>593</ele>
        <time>2020-10-05T15:37:29.988Z</time>
      </trkpt>
      <trkpt lat="43.98373" lon="5.89179">
        <ele>593</ele>
        <time>2020-10-05T15:37:30.988Z</time>
      </trkpt>
      <trkpt lat="43.98373" lon="5.89179">
        <ele>593</ele>
        <time>2020-10-05T15:37:31.988Z</time>
      </trkpt>
      <trkpt lat="43.98372" lon="5.89179">
        <ele>594</ele>
        <time>2020-10-05T15:37:32.988Z</time>
      </trkpt>
      <trkpt lat="43.98372" lon="5.89179">
        <ele>594</ele>
        <time>2020-10-05T15:37:33.988Z</time>
      </trkpt>
      <trkpt lat="43.98372" lon="5.89179">
        <ele>594</ele>
        <time>2020-10-05T15:37:34.988Z</time>
      </trkpt>
      <trkpt lat="43.98372" lon="5.89179">
        <ele>594</ele>
        <time>2020-10-05T15:37:35.988Z</time>
      </trkpt>
      <trkpt lat="43.98372" lon="5.89179">
        <ele>594</ele>
        <time>2020-10-05T15:37:36.988Z</time>
      </trkpt>
      <trkpt lat="43.98372" lon="5.89179">
        <ele>594</ele>
        <time>2020-10-05T15:37:37.988Z</time>
      </trkpt>
      <trkpt lat="43.98372" lon="5.89179">
        <ele>594</ele>
        <time>2020-10-05T15:37:38.988Z</time>
      </trkpt>
      <trkpt lat="43.98371" lon="5.89179">
        <ele>594</ele>
        <time>2020-10-05T15:37:39.988Z</time>
      </trkpt>
      <trkpt lat="43.98371" lon="5.89179">
        <ele>594</ele>
        <time>2020-10-05T15:37:40.988Z</time>
      </trkpt>
      <trkpt lat="43.98371" lon="5.89179">
        <ele>594</ele>
        <time>2020-10-05T15:37:41.988Z</time>
      </trkpt>
      <trkpt lat="43.98371" lon="5.89179">
        <ele>594</ele>
        <time>2020-10-05T15:37:42.988Z</time>
      </trkpt>
      <trkpt lat="43.98371" lon="5.89179">
        <ele>594</ele>
        <time>2020-10-05T15:37:43.988Z</time>
      </trkpt>
      <trkpt lat="43.98371" lon="5.89179">
        <ele>595</ele>
        <time>2020-10-05T15:37:44.988Z</time>
      </trkpt>
      <trkpt lat="43.9837" lon="5.89179">
        <ele>595</ele>
        <time>2020-10-05T15:37:45.988Z</time>
      </trkpt>
      <trkpt lat="43.9837" lon="5.89179">
        <ele>595</ele>
        <time>2020-10-05T15:37:46.988Z</time>
      </trkpt>
      <trkpt lat="43.98371" lon="5.89179">
        <ele>595</ele>
        <time>2020-10-05T15:37:47.988Z</time>
      </trkpt>
      <trkpt lat="43.98371" lon="5.89179">
        <ele>595</ele>
        <time>2020-10-05T15:37:48.988Z</time>
      </trkpt>
      <trkpt lat="43.9837" lon="5.89179">
        <ele>595</ele>
        <time>2020-10-05T15:37:49.988Z</time>
      </trkpt>
      <trkpt lat="43.9837" lon="5.89179">
        <ele>595</ele>
        <time>2020-10-05T15:37:50.988Z</time>
      </trkpt>
      <trkpt lat="43.98369" lon="5.89179">
        <ele>595</ele>
        <time>2020-10-05T15:37:51.988Z</time>
      </trkpt>
      <trkpt lat="43.98369" lon="5.89178">
        <ele>595</ele>
        <time>2020-10-05T15:37:52.988Z</time>
      </trkpt>
      <trkpt lat="43.98369" lon="5.89178">
        <ele>595</ele>
        <time>2020-10-05T15:37:53.988Z</time>
      </trkpt>
      <trkpt lat="43.98369" lon="5.89178">
        <ele>595</ele>
        <time>2020-10-05T15:37:54.988Z</time>
      </trkpt>
      <trkpt lat="43.98369" lon="5.89178">
        <ele>595</ele>
        <time>2020-10-05T15:37:55.988Z</time>
      </trkpt>
      <trkpt lat="43.98369" lon="5.89178">
        <ele>595</ele>
        <time>2020-10-05T15:37:56.988Z</time>
      </trkpt>
      <trkpt lat="43.98369" lon="5.89178">
        <ele>595</ele>
        <time>2020-10-05T15:37:57.988Z</time>
      </trkpt>
      <trkpt lat="43.98369" lon="5.89178">
        <ele>595</ele>
        <time>2020-10-05T15:37:58.988Z</time>
      </trkpt>
      <trkpt lat="43.98369" lon="5.89178">
        <ele>595</ele>
        <time>2020-10-05T15:37:59.988Z</time>
      </trkpt>
      <trkpt lat="43.98369" lon="5.89178">
        <ele>595</ele>
        <time>2020-10-05T15:38:00.988Z</time>
      </trkpt>
      <trkpt lat="43.98369" lon="5.89178">
        <ele>595</ele>
        <time>2020-10-05T15:38:01.988Z</time>
      </trkpt>
      <trkpt lat="43.98368" lon="5.89178">
        <ele>595</ele>
        <time>2020-10-05T15:38:02.988Z</time>
      </trkpt>
      <trkpt lat="43.98368" lon="5.89177">
        <ele>595</ele>
        <time>2020-10-05T15:38:03.988Z</time>
      </trkpt>
      <trkpt lat="43.98367" lon="5.89177">
        <ele>595</ele>
        <time>2020-10-05T15:38:04.988Z</time>
      </trkpt>
      <trkpt lat="43.98367" lon="5.89176">
        <ele>596</ele>
        <time>2020-10-05T15:38:05.988Z</time>
      </trkpt>
      <trkpt lat="43.98366" lon="5.89176">
        <ele>596</ele>
        <time>2020-10-05T15:38:06.988Z</time>
      </trkpt>
      <trkpt lat="43.98366" lon="5.89175">
        <ele>595</ele>
        <time>2020-10-05T15:38:07.988Z</time>
      </trkpt>
      <trkpt lat="43.98365" lon="5.89175">
        <ele>595</ele>
        <time>2020-10-05T15:38:08.988Z</time>
      </trkpt>
      <trkpt lat="43.98364" lon="5.89174">
        <ele>595</ele>
        <time>2020-10-05T15:38:09.988Z</time>
      </trkpt>
      <trkpt lat="43.98363" lon="5.89173">
        <ele>595</ele>
        <time>2020-10-05T15:38:10.988Z</time>
      </trkpt>
      <trkpt lat="43.98362" lon="5.89172">
        <ele>595</ele>
        <time>2020-10-05T15:38:11.988Z</time>
      </trkpt>
      <trkpt lat="43.98362" lon="5.89171">
        <ele>595</ele>
        <time>2020-10-05T15:38:12.988Z</time>
      </trkpt>
      <trkpt lat="43.98361" lon="5.89171">
        <ele>595</ele>
        <time>2020-10-05T15:38:13.988Z</time>
      </trkpt>
      <trkpt lat="43.9836" lon="5.8917">
        <ele>595</ele>
        <time>2020-10-05T15:38:14.988Z</time>
      </trkpt>
      <trkpt lat="43.98359" lon="5.8917">
        <ele>595</ele>
        <time>2020-10-05T15:38:15.988Z</time>
      </trkpt>
      <trkpt lat="43.98358" lon="5.89169">
        <ele>595</ele>
        <time>2020-10-05T15:38:16.988Z</time>
      </trkpt>
      <trkpt lat="43.98357" lon="5.89169">
        <ele>595</ele>
        <time>2020-10-05T15:38:17.988Z</time>
      </trkpt>
      <trkpt lat="43.98356" lon="5.89168">
        <ele>595</ele>
        <time>2020-10-05T15:38:18.988Z</time>
      </trkpt>
      <trkpt lat="43.98355" lon="5.89168">
        <ele>595</ele>
        <time>2020-10-05T15:38:19.988Z</time>
      </trkpt>
      <trkpt lat="43.98354" lon="5.89167">
        <ele>595</ele>
        <time>2020-10-05T15:38:20.988Z</time>
      </trkpt>
      <trkpt lat="43.98353" lon="5.89167">
        <ele>595</ele>
        <time>2020-10-05T15:38:21.988Z</time>
      </trkpt>
      <trkpt lat="43.98352" lon="5.89166">
        <ele>595</ele>
        <time>2020-10-05T15:38:22.988Z</time>
      </trkpt>
      <trkpt lat="43.98352" lon="5.89166">
        <ele>595</ele>
        <time>2020-10-05T15:38:23.988Z</time>
      </trkpt>
      <trkpt lat="43.98351" lon="5.89165">
        <ele>595</ele>
        <time>2020-10-05T15:38:24.988Z</time>
      </trkpt>
      <trkpt lat="43.9835" lon="5.89165">
        <ele>595</ele>
        <time>2020-10-05T15:38:25.988Z</time>
      </trkpt>
      <trkpt lat="43.98349" lon="5.89165">
        <ele>595</ele>
        <time>2020-10-05T15:38:26.988Z</time>
      </trkpt>
      <trkpt lat="43.98348" lon="5.89164">
        <ele>594</ele>
        <time>2020-10-05T15:38:27.988Z</time>
      </trkpt>
      <trkpt lat="43.98347" lon="5.89164">
        <ele>594</ele>
        <time>2020-10-05T15:38:28.988Z</time>
      </trkpt>
      <trkpt lat="43.98346" lon="5.89164">
        <ele>594</ele>
        <time>2020-10-05T15:38:29.988Z</time>
      </trkpt>
      <trkpt lat="43.98345" lon="5.89163">
        <ele>594</ele>
        <time>2020-10-05T15:38:30.988Z</time>
      </trkpt>
      <trkpt lat="43.98343" lon="5.89163">
        <ele>594</ele>
        <time>2020-10-05T15:38:31.988Z</time>
      </trkpt>
      <trkpt lat="43.98342" lon="5.89163">
        <ele>594</ele>
        <time>2020-10-05T15:38:32.988Z</time>
      </trkpt>
      <trkpt lat="43.98341" lon="5.89163">
        <ele>594</ele>
        <time>2020-10-05T15:38:33.988Z</time>
      </trkpt>
      <trkpt lat="43.9834" lon="5.89163">
        <ele>594</ele>
        <time>2020-10-05T15:38:34.988Z</time>
      </trkpt>
      <trkpt lat="43.98339" lon="5.89163">
        <ele>595</ele>
        <time>2020-10-05T15:38:35.988Z</time>
      </trkpt>
      <trkpt lat="43.98338" lon="5.89163">
        <ele>595</ele>
        <time>2020-10-05T15:38:36.988Z</time>
      </trkpt>
      <trkpt lat="43.98336" lon="5.89163">
        <ele>595</ele>
        <time>2020-10-05T15:38:37.988Z</time>
      </trkpt>
      <trkpt lat="43.98336" lon="5.89163">
        <ele>595</ele>
        <time>2020-10-05T15:38:38.988Z</time>
      </trkpt>
      <trkpt lat="43.98335" lon="5.89163">
        <ele>595</ele>
        <time>2020-10-05T15:38:39.988Z</time>
      </trkpt>
      <trkpt lat="43.98334" lon="5.89163">
        <ele>595</ele>
        <time>2020-10-05T15:38:40.988Z</time>
      </trkpt>
      <trkpt lat="43.98333" lon="5.89162">
        <ele>595</ele>
        <time>2020-10-05T15:38:41.988Z</time>
      </trkpt>
      <trkpt lat="43.98332" lon="5.89162">
        <ele>595</ele>
        <time>2020-10-05T15:38:42.988Z</time>
      </trkpt>
      <trkpt lat="43.98331" lon="5.89162">
        <ele>595</ele>
        <time>2020-10-05T15:38:43.988Z</time>
      </trkpt>
      <trkpt lat="43.9833" lon="5.89161">
        <ele>595</ele>
        <time>2020-10-05T15:38:44.988Z</time>
      </trkpt>
      <trkpt lat="43.98329" lon="5.89161">
        <ele>595</ele>
        <time>2020-10-05T15:38:45.988Z</time>
      </trkpt>
      <trkpt lat="43.98328" lon="5.89161">
        <ele>595</ele>
        <time>2020-10-05T15:38:46.988Z</time>
      </trkpt>
      <trkpt lat="43.98327" lon="5.8916">
        <ele>595</ele>
        <time>2020-10-05T15:38:47.988Z</time>
      </trkpt>
      <trkpt lat="43.98326" lon="5.8916">
        <ele>596</ele>
        <time>2020-10-05T15:38:48.988Z</time>
      </trkpt>
      <trkpt lat="43.98324" lon="5.8916">
        <ele>596</ele>
        <time>2020-10-05T15:38:49.988Z</time>
      </trkpt>
      <trkpt lat="43.98323" lon="5.8916">
        <ele>596</ele>
        <time>2020-10-05T15:38:50.988Z</time>
      </trkpt>
      <trkpt lat="43.98322" lon="5.8916">
        <ele>596</ele>
        <time>2020-10-05T15:38:51.988Z</time>
      </trkpt>
      <trkpt lat="43.98321" lon="5.89161">
        <ele>596</ele>
        <time>2020-10-05T15:38:52.988Z</time>
      </trkpt>
      <trkpt lat="43.9832" lon="5.89161">
        <ele>596</ele>
        <time>2020-10-05T15:38:53.988Z</time>
      </trkpt>
      <trkpt lat="43.98319" lon="5.89161">
        <ele>596</ele>
        <time>2020-10-05T15:38:54.988Z</time>
      </trkpt>
      <trkpt lat="43.98318" lon="5.89162">
        <ele>596</ele>
        <time>2020-10-05T15:38:55.988Z</time>
      </trkpt>
      <trkpt lat="43.98317" lon="5.89162">
        <ele>596</ele>
        <time>2020-10-05T15:38:56.988Z</time>
      </trkpt>
      <trkpt lat="43.98316" lon="5.89162">
        <ele>596</ele>
        <time>2020-10-05T15:38:57.988Z</time>
      </trkpt>
      <trkpt lat="43.98315" lon="5.89162">
        <ele>596</ele>
        <time>2020-10-05T15:38:58.988Z</time>
      </trkpt>
      <trkpt lat="43.98314" lon="5.89163">
        <ele>596</ele>
        <time>2020-10-05T15:38:59.988Z</time>
      </trkpt>
      <trkpt lat="43.98313" lon="5.89163">
        <ele>596</ele>
        <time>2020-10-05T15:39:00.988Z</time>
      </trkpt>
      <trkpt lat="43.98312" lon="5.89164">
        <ele>596</ele>
        <time>2020-10-05T15:39:01.988Z</time>
      </trkpt>
      <trkpt lat="43.98311" lon="5.89164">
        <ele>596</ele>
        <time>2020-10-05T15:39:02.988Z</time>
      </trkpt>
      <trkpt lat="43.9831" lon="5.89165">
        <ele>596</ele>
        <time>2020-10-05T15:39:03.988Z</time>
      </trkpt>
      <trkpt lat="43.98309" lon="5.89166">
        <ele>596</ele>
        <time>2020-10-05T15:39:04.988Z</time>
      </trkpt>
      <trkpt lat="43.98309" lon="5.89166">
        <ele>596</ele>
        <time>2020-10-05T15:39:05.988Z</time>
      </trkpt>
      <trkpt lat="43.98308" lon="5.89167">
        <ele>596</ele>
        <time>2020-10-05T15:39:06.988Z</time>
      </trkpt>
      <trkpt lat="43.98306" lon="5.89167">
        <ele>596</ele>
        <time>2020-10-05T15:39:07.988Z</time>
      </trkpt>
      <trkpt lat="43.98305" lon="5.89167">
        <ele>596</ele>
        <time>2020-10-05T15:39:08.988Z</time>
      </trkpt>
      <trkpt lat="43.98305" lon="5.89166">
        <ele>596</ele>
        <time>2020-10-05T15:39:09.988Z</time>
      </trkpt>
      <trkpt lat="43.98304" lon="5.89166">
        <ele>596</ele>
        <time>2020-10-05T15:39:10.988Z</time>
      </trkpt>
      <trkpt lat="43.98304" lon="5.89165">
        <ele>596</ele>
        <time>2020-10-05T15:39:11.988Z</time>
      </trkpt>
      <trkpt lat="43.98303" lon="5.89165">
        <ele>596</ele>
        <time>2020-10-05T15:39:12.988Z</time>
      </trkpt>
      <trkpt lat="43.98302" lon="5.89165">
        <ele>596</ele>
        <time>2020-10-05T15:39:13.988Z</time>
      </trkpt>
      <trkpt lat="43.98301" lon="5.89165">
        <ele>596</ele>
        <time>2020-10-05T15:39:14.988Z</time>
      </trkpt>
      <trkpt lat="43.98301" lon="5.89164">
        <ele>596</ele>
        <time>2020-10-05T15:39:15.988Z</time>
      </trkpt>
      <trkpt lat="43.983" lon="5.89164">
        <ele>596</ele>
        <time>2020-10-05T15:39:16.988Z</time>
      </trkpt>
      <trkpt lat="43.98299" lon="5.89163">
        <ele>596</ele>
        <time>2020-10-05T15:39:17.988Z</time>
      </trkpt>
      <trkpt lat="43.98298" lon="5.89163">
        <ele>595</ele>
        <time>2020-10-05T15:39:18.988Z</time>
      </trkpt>
      <trkpt lat="43.98297" lon="5.89162">
        <ele>595</ele>
        <time>2020-10-05T15:39:19.988Z</time>
      </trkpt>
      <trkpt lat="43.98296" lon="5.89161">
        <ele>595</ele>
        <time>2020-10-05T15:39:20.988Z</time>
      </trkpt>
      <trkpt lat="43.98295" lon="5.89161">
        <ele>595</ele>
        <time>2020-10-05T15:39:21.988Z</time>
      </trkpt>
      <trkpt lat="43.98294" lon="5.8916">
        <ele>595</ele>
        <time>2020-10-05T15:39:22.988Z</time>
      </trkpt>
      <trkpt lat="43.98294" lon="5.89159">
        <ele>595</ele>
        <time>2020-10-05T15:39:23.988Z</time>
      </trkpt>
      <trkpt lat="43.98293" lon="5.89159">
        <ele>595</ele>
        <time>2020-10-05T15:39:24.988Z</time>
      </trkpt>
      <trkpt lat="43.98292" lon="5.89158">
        <ele>595</ele>
        <time>2020-10-05T15:39:25.988Z</time>
      </trkpt>
      <trkpt lat="43.98291" lon="5.89158">
        <ele>595</ele>
        <time>2020-10-05T15:39:26.988Z</time>
      </trkpt>
      <trkpt lat="43.9829" lon="5.89157">
        <ele>595</ele>
        <time>2020-10-05T15:39:27.988Z</time>
      </trkpt>
      <trkpt lat="43.98289" lon="5.89157">
        <ele>595</ele>
        <time>2020-10-05T15:39:28.988Z</time>
      </trkpt>
      <trkpt lat="43.98288" lon="5.89156">
        <ele>595</ele>
        <time>2020-10-05T15:39:29.988Z</time>
      </trkpt>
      <trkpt lat="43.98287" lon="5.89156">
        <ele>595</ele>
        <time>2020-10-05T15:39:30.988Z</time>
      </trkpt>
      <trkpt lat="43.98286" lon="5.89156">
        <ele>595</ele>
        <time>2020-10-05T15:39:31.988Z</time>
      </trkpt>
      <trkpt lat="43.98285" lon="5.89155">
        <ele>595</ele>
        <time>2020-10-05T15:39:32.988Z</time>
      </trkpt>
      <trkpt lat="43.98284" lon="5.89155">
        <ele>595</ele>
        <time>2020-10-05T15:39:33.988Z</time>
      </trkpt>
      <trkpt lat="43.98283" lon="5.89155">
        <ele>595</ele>
        <time>2020-10-05T15:39:34.988Z</time>
      </trkpt>
      <trkpt lat="43.98281" lon="5.89154">
        <ele>595</ele>
        <time>2020-10-05T15:39:35.988Z</time>
      </trkpt>
      <trkpt lat="43.98281" lon="5.89154">
        <ele>594</ele>
        <time>2020-10-05T15:39:36.988Z</time>
      </trkpt>
      <trkpt lat="43.9828" lon="5.89154">
        <ele>594</ele>
        <time>2020-10-05T15:39:37.988Z</time>
      </trkpt>
      <trkpt lat="43.98279" lon="5.89154">
        <ele>594</ele>
        <time>2020-10-05T15:39:38.988Z</time>
      </trkpt>
      <trkpt lat="43.98278" lon="5.89153">
        <ele>594</ele>
        <time>2020-10-05T15:39:39.988Z</time>
      </trkpt>
      <trkpt lat="43.98277" lon="5.89153">
        <ele>594</ele>
        <time>2020-10-05T15:39:40.988Z</time>
      </trkpt>
      <trkpt lat="43.98276" lon="5.89153">
        <ele>594</ele>
        <time>2020-10-05T15:39:41.988Z</time>
      </trkpt>
      <trkpt lat="43.98275" lon="5.89153">
        <ele>594</ele>
        <time>2020-10-05T15:39:42.988Z</time>
      </trkpt>
      <trkpt lat="43.98274" lon="5.89153">
        <ele>594</ele>
        <time>2020-10-05T15:39:43.988Z</time>
      </trkpt>
      <trkpt lat="43.98273" lon="5.89153">
        <ele>594</ele>
        <time>2020-10-05T15:39:44.988Z</time>
      </trkpt>
      <trkpt lat="43.98272" lon="5.89153">
        <ele>594</ele>
        <time>2020-10-05T15:39:45.988Z</time>
      </trkpt>
      <trkpt lat="43.9827" lon="5.89153">
        <ele>594</ele>
        <time>2020-10-05T15:39:46.988Z</time>
      </trkpt>
      <trkpt lat="43.98269" lon="5.89154">
        <ele>594</ele>
        <time>2020-10-05T15:39:47.988Z</time>
      </trkpt>
      <trkpt lat="43.98268" lon="5.89154">
        <ele>594</ele>
        <time>2020-10-05T15:39:48.988Z</time>
      </trkpt>
      <trkpt lat="43.98267" lon="5.89154">
        <ele>594</ele>
        <time>2020-10-05T15:39:49.988Z</time>
      </trkpt>
      <trkpt lat="43.98266" lon="5.89154">
        <ele>594</ele>
        <time>2020-10-05T15:39:50.988Z</time>
      </trkpt>
      <trkpt lat="43.98265" lon="5.89153">
        <ele>594</ele>
        <time>2020-10-05T15:39:51.988Z</time>
      </trkpt>
      <trkpt lat="43.98264" lon="5.89153">
        <ele>594</ele>
        <time>2020-10-05T15:39:52.988Z</time>
      </trkpt>
      <trkpt lat="43.98263" lon="5.89152">
        <ele>594</ele>
        <time>2020-10-05T15:39:53.988Z</time>
      </trkpt>
      <trkpt lat="43.98262" lon="5.89152">
        <ele>593</ele>
        <time>2020-10-05T15:39:54.988Z</time>
      </trkpt>
      <trkpt lat="43.98262" lon="5.89152">
        <ele>593</ele>
        <time>2020-10-05T15:39:55.988Z</time>
      </trkpt>
      <trkpt lat="43.98261" lon="5.89153">
        <ele>593</ele>
        <time>2020-10-05T15:39:56.988Z</time>
      </trkpt>
      <trkpt lat="43.9826" lon="5.89153">
        <ele>593</ele>
        <time>2020-10-05T15:39:57.988Z</time>
      </trkpt>
      <trkpt lat="43.98259" lon="5.89153">
        <ele>593</ele>
        <time>2020-10-05T15:39:58.988Z</time>
      </trkpt>
      <trkpt lat="43.98258" lon="5.89153">
        <ele>593</ele>
        <time>2020-10-05T15:39:59.988Z</time>
      </trkpt>
      <trkpt lat="43.98256" lon="5.89153">
        <ele>593</ele>
        <time>2020-10-05T15:40:00.988Z</time>
      </trkpt>
      <trkpt lat="43.98255" lon="5.89152">
        <ele>593</ele>
        <time>2020-10-05T15:40:01.988Z</time>
      </trkpt>
      <trkpt lat="43.98254" lon="5.89152">
        <ele>593</ele>
        <time>2020-10-05T15:40:02.988Z</time>
      </trkpt>
      <trkpt lat="43.98252" lon="5.89151">
        <ele>593</ele>
        <time>2020-10-05T15:40:03.988Z</time>
      </trkpt>
      <trkpt lat="43.98251" lon="5.8915">
        <ele>593</ele>
        <time>2020-10-05T15:40:04.988Z</time>
      </trkpt>
      <trkpt lat="43.9825" lon="5.89149">
        <ele>593</ele>
        <time>2020-10-05T15:40:05.988Z</time>
      </trkpt>
      <trkpt lat="43.98249" lon="5.89149">
        <ele>593</ele>
        <time>2020-10-05T15:40:06.988Z</time>
      </trkpt>
      <trkpt lat="43.98249" lon="5.89149">
        <ele>593</ele>
        <time>2020-10-05T15:40:07.988Z</time>
      </trkpt>
      <trkpt lat="43.98247" lon="5.89148">
        <ele>593</ele>
        <time>2020-10-05T15:40:08.988Z</time>
      </trkpt>
      <trkpt lat="43.98246" lon="5.89148">
        <ele>592</ele>
        <time>2020-10-05T15:40:09.988Z</time>
      </trkpt>
      <trkpt lat="43.98245" lon="5.89148">
        <ele>592</ele>
        <time>2020-10-05T15:40:10.988Z</time>
      </trkpt>
      <trkpt lat="43.98244" lon="5.89147">
        <ele>592</ele>
        <time>2020-10-05T15:40:11.988Z</time>
      </trkpt>
      <trkpt lat="43.98243" lon="5.89147">
        <ele>592</ele>
        <time>2020-10-05T15:40:12.988Z</time>
      </trkpt>
      <trkpt lat="43.98242" lon="5.89148">
        <ele>592</ele>
        <time>2020-10-05T15:40:13.988Z</time>
      </trkpt>
      <trkpt lat="43.98241" lon="5.89148">
        <ele>592</ele>
        <time>2020-10-05T15:40:14.988Z</time>
      </trkpt>
      <trkpt lat="43.9824" lon="5.89149">
        <ele>593</ele>
        <time>2020-10-05T15:40:15.988Z</time>
      </trkpt>
      <trkpt lat="43.98238" lon="5.89149">
        <ele>593</ele>
        <time>2020-10-05T15:40:16.988Z</time>
      </trkpt>
      <trkpt lat="43.98237" lon="5.8915">
        <ele>593</ele>
        <time>2020-10-05T15:40:17.988Z</time>
      </trkpt>
      <trkpt lat="43.98236" lon="5.8915">
        <ele>593</ele>
        <time>2020-10-05T15:40:18.988Z</time>
      </trkpt>
      <trkpt lat="43.98235" lon="5.89151">
        <ele>593</ele>
        <time>2020-10-05T15:40:19.988Z</time>
      </trkpt>
      <trkpt lat="43.98234" lon="5.89151">
        <ele>593</ele>
        <time>2020-10-05T15:40:20.988Z</time>
      </trkpt>
      <trkpt lat="43.98233" lon="5.89151">
        <ele>593</ele>
        <time>2020-10-05T15:40:21.988Z</time>
      </trkpt>
      <trkpt lat="43.98231" lon="5.89151">
        <ele>593</ele>
        <time>2020-10-05T15:40:22.988Z</time>
      </trkpt>
      <trkpt lat="43.9823" lon="5.89151">
        <ele>593</ele>
        <time>2020-10-05T15:40:23.988Z</time>
      </trkpt>
      <trkpt lat="43.98229" lon="5.8915">
        <ele>593</ele>
        <time>2020-10-05T15:40:24.988Z</time>
      </trkpt>
      <trkpt lat="43.98228" lon="5.8915">
        <ele>593</ele>
        <time>2020-10-05T15:40:25.988Z</time>
      </trkpt>
      <trkpt lat="43.98227" lon="5.8915">
        <ele>593</ele>
        <time>2020-10-05T15:40:26.988Z</time>
      </trkpt>
      <trkpt lat="43.98226" lon="5.8915">
        <ele>593</ele>
        <time>2020-10-05T15:40:27.988Z</time>
      </trkpt>
      <trkpt lat="43.98225" lon="5.8915">
        <ele>593</ele>
        <time>2020-10-05T15:40:28.988Z</time>
      </trkpt>
      <trkpt lat="43.98224" lon="5.8915">
        <ele>593</ele>
        <time>2020-10-05T15:40:29.988Z</time>
      </trkpt>
      <trkpt lat="43.98223" lon="5.8915">
        <ele>593</ele>
        <time>2020-10-05T15:40:30.988Z</time>
      </trkpt>
      <trkpt lat="43.98223" lon="5.89151">
        <ele>593</ele>
        <time>2020-10-05T15:40:31.988Z</time>
      </trkpt>
      <trkpt lat="43.98222" lon="5.89151">
        <ele>593</ele>
        <time>2020-10-05T15:40:32.988Z</time>
      </trkpt>
      <trkpt lat="43.98221" lon="5.89152">
        <ele>593</ele>
        <time>2020-10-05T15:40:33.988Z</time>
      </trkpt>
      <trkpt lat="43.98219" lon="5.89152">
        <ele>593</ele>
        <time>2020-10-05T15:40:34.988Z</time>
      </trkpt>
      <trkpt lat="43.98218" lon="5.89152">
        <ele>593</ele>
        <time>2020-10-05T15:40:35.988Z</time>
      </trkpt>
      <trkpt lat="43.98217" lon="5.89152">
        <ele>593</ele>
        <time>2020-10-05T15:40:36.988Z</time>
      </trkpt>
      <trkpt lat="43.98216" lon="5.89152">
        <ele>593</ele>
        <time>2020-10-05T15:40:37.988Z</time>
      </trkpt>
      <trkpt lat="43.98215" lon="5.89152">
        <ele>593</ele>
        <time>2020-10-05T15:40:38.988Z</time>
      </trkpt>
      <trkpt lat="43.98214" lon="5.89152">
        <ele>593</ele>
        <time>2020-10-05T15:40:39.988Z</time>
      </trkpt>
      <trkpt lat="43.98213" lon="5.89151">
        <ele>593</ele>
        <time>2020-10-05T15:40:40.988Z</time>
      </trkpt>
      <trkpt lat="43.98212" lon="5.89152">
        <ele>593</ele>
        <time>2020-10-05T15:40:41.988Z</time>
      </trkpt>
      <trkpt lat="43.98211" lon="5.89151">
        <ele>593</ele>
        <time>2020-10-05T15:40:42.988Z</time>
      </trkpt>
      <trkpt lat="43.9821" lon="5.89151">
        <ele>593</ele>
        <time>2020-10-05T15:40:43.988Z</time>
      </trkpt>
      <trkpt lat="43.98209" lon="5.89151">
        <ele>593</ele>
        <time>2020-10-05T15:40:44.988Z</time>
      </trkpt>
      <trkpt lat="43.98209" lon="5.8915">
        <ele>593</ele>
        <time>2020-10-05T15:40:45.988Z</time>
      </trkpt>
      <trkpt lat="43.98208" lon="5.8915">
        <ele>593</ele>
        <time>2020-10-05T15:40:46.988Z</time>
      </trkpt>
      <trkpt lat="43.98206" lon="5.8915">
        <ele>592</ele>
        <time>2020-10-05T15:40:47.988Z</time>
      </trkpt>
      <trkpt lat="43.98206" lon="5.8915">
        <ele>592</ele>
        <time>2020-10-05T15:40:48.988Z</time>
      </trkpt>
      <trkpt lat="43.98205" lon="5.8915">
        <ele>592</ele>
        <time>2020-10-05T15:40:49.988Z</time>
      </trkpt>
      <trkpt lat="43.98204" lon="5.8915">
        <ele>592</ele>
        <time>2020-10-05T15:40:50.988Z</time>
      </trkpt>
      <trkpt lat="43.98203" lon="5.8915">
        <ele>592</ele>
        <time>2020-10-05T15:40:51.988Z</time>
      </trkpt>
      <trkpt lat="43.98202" lon="5.8915">
        <ele>592</ele>
        <time>2020-10-05T15:40:52.988Z</time>
      </trkpt>
      <trkpt lat="43.98201" lon="5.8915">
        <ele>592</ele>
        <time>2020-10-05T15:40:53.988Z</time>
      </trkpt>
      <trkpt lat="43.982" lon="5.8915">
        <ele>592</ele>
        <time>2020-10-05T15:40:54.988Z</time>
      </trkpt>
      <trkpt lat="43.98199" lon="5.8915">
        <ele>592</ele>
        <time>2020-10-05T15:40:55.988Z</time>
      </trkpt>
      <trkpt lat="43.98197" lon="5.8915">
        <ele>592</ele>
        <time>2020-10-05T15:40:56.988Z</time>
      </trkpt>
      <trkpt lat="43.98196" lon="5.8915">
        <ele>592</ele>
        <time>2020-10-05T15:40:57.988Z</time>
      </trkpt>
      <trkpt lat="43.98195" lon="5.8915">
        <ele>592</ele>
        <time>2020-10-05T15:40:58.988Z</time>
      </trkpt>
      <trkpt lat="43.98193" lon="5.89149">
        <ele>592</ele>
        <time>2020-10-05T15:40:59.988Z</time>
      </trkpt>
      <trkpt lat="43.98192" lon="5.8915">
        <ele>592</ele>
        <time>2020-10-05T15:41:00.988Z</time>
      </trkpt>
      <trkpt lat="43.98191" lon="5.8915">
        <ele>592</ele>
        <time>2020-10-05T15:41:01.988Z</time>
      </trkpt>
      <trkpt lat="43.9819" lon="5.8915">
        <ele>592</ele>
        <time>2020-10-05T15:41:02.988Z</time>
      </trkpt>
      <trkpt lat="43.98189" lon="5.8915">
        <ele>592</ele>
        <time>2020-10-05T15:41:03.988Z</time>
      </trkpt>
      <trkpt lat="43.98188" lon="5.8915">
        <ele>592</ele>
        <time>2020-10-05T15:41:04.988Z</time>
      </trkpt>
      <trkpt lat="43.98187" lon="5.8915">
        <ele>592</ele>
        <time>2020-10-05T15:41:05.988Z</time>
      </trkpt>
      <trkpt lat="43.98186" lon="5.89151">
        <ele>592</ele>
        <time>2020-10-05T15:41:06.988Z</time>
      </trkpt>
      <trkpt lat="43.98185" lon="5.89151">
        <ele>592</ele>
        <time>2020-10-05T15:41:07.988Z</time>
      </trkpt>
      <trkpt lat="43.98184" lon="5.89151">
        <ele>593</ele>
        <time>2020-10-05T15:41:08.988Z</time>
      </trkpt>
      <trkpt lat="43.98183" lon="5.89151">
        <ele>593</ele>
        <time>2020-10-05T15:41:09.988Z</time>
      </trkpt>
      <trkpt lat="43.98182" lon="5.89151">
        <ele>593</ele>
        <time>2020-10-05T15:41:10.988Z</time>
      </trkpt>
      <trkpt lat="43.98181" lon="5.89151">
        <ele>593</ele>
        <time>2020-10-05T15:41:11.988Z</time>
      </trkpt>
      <trkpt lat="43.98179" lon="5.89151">
        <ele>593</ele>
        <time>2020-10-05T15:41:12.988Z</time>
      </trkpt>
      <trkpt lat="43.98178" lon="5.89151">
        <ele>593</ele>
        <time>2020-10-05T15:41:13.988Z</time>
      </trkpt>
      <trkpt lat="43.98177" lon="5.89151">
        <ele>593</ele>
        <time>2020-10-05T15:41:14.988Z</time>
      </trkpt>
      <trkpt lat="43.98176" lon="5.89151">
        <ele>593</ele>
        <time>2020-10-05T15:41:15.988Z</time>
      </trkpt>
      <trkpt lat="43.98175" lon="5.89151">
        <ele>593</ele>
        <time>2020-10-05T15:41:16.988Z</time>
      </trkpt>
      <trkpt lat="43.98175" lon="5.8915">
        <ele>594</ele>
        <time>2020-10-05T15:41:17.988Z</time>
      </trkpt>
      <trkpt lat="43.98174" lon="5.8915">
        <ele>594</ele>
        <time>2020-10-05T15:41:18.988Z</time>
      </trkpt>
      <trkpt lat="43.98173" lon="5.89151">
        <ele>594</ele>
        <time>2020-10-05T15:41:19.988Z</time>
      </trkpt>
      <trkpt lat="43.98172" lon="5.89151">
        <ele>594</ele>
        <time>2020-10-05T15:41:20.988Z</time>
      </trkpt>
      <trkpt lat="43.98172" lon="5.89151">
        <ele>594</ele>
        <time>2020-10-05T15:41:21.988Z</time>
      </trkpt>
      <trkpt lat="43.98171" lon="5.89152">
        <ele>594</ele>
        <time>2020-10-05T15:41:22.988Z</time>
      </trkpt>
      <trkpt lat="43.98171" lon="5.89152">
        <ele>594</ele>
        <time>2020-10-05T15:41:23.988Z</time>
      </trkpt>
      <trkpt lat="43.9817" lon="5.89152">
        <ele>594</ele>
        <time>2020-10-05T15:41:24.988Z</time>
      </trkpt>
      <trkpt lat="43.9817" lon="5.89152">
        <ele>594</ele>
        <time>2020-10-05T15:41:25.988Z</time>
      </trkpt>
      <trkpt lat="43.9817" lon="5.89153">
        <ele>594</ele>
        <time>2020-10-05T15:41:26.988Z</time>
      </trkpt>
      <trkpt lat="43.9817" lon="5.89153">
        <ele>594</ele>
        <time>2020-10-05T15:41:27.988Z</time>
      </trkpt>
      <trkpt lat="43.98169" lon="5.89154">
        <ele>594</ele>
        <time>2020-10-05T15:41:28.988Z</time>
      </trkpt>
      <trkpt lat="43.98169" lon="5.89155">
        <ele>594</ele>
        <time>2020-10-05T15:41:29.988Z</time>
      </trkpt>
      <trkpt lat="43.98168" lon="5.89156">
        <ele>594</ele>
        <time>2020-10-05T15:41:30.988Z</time>
      </trkpt>
      <trkpt lat="43.98167" lon="5.89156">
        <ele>594</ele>
        <time>2020-10-05T15:41:31.988Z</time>
      </trkpt>
      <trkpt lat="43.98167" lon="5.89157">
        <ele>594</ele>
        <time>2020-10-05T15:41:32.988Z</time>
      </trkpt>
      <trkpt lat="43.98166" lon="5.89157">
        <ele>594</ele>
        <time>2020-10-05T15:41:33.988Z</time>
      </trkpt>
      <trkpt lat="43.98165" lon="5.89157">
        <ele>594</ele>
        <time>2020-10-05T15:41:34.988Z</time>
      </trkpt>
      <trkpt lat="43.98164" lon="5.89157">
        <ele>594</ele>
        <time>2020-10-05T15:41:35.988Z</time>
      </trkpt>
      <trkpt lat="43.98164" lon="5.89157">
        <ele>595</ele>
        <time>2020-10-05T15:41:36.988Z</time>
      </trkpt>
      <trkpt lat="43.98162" lon="5.89157">
        <ele>595</ele>
        <time>2020-10-05T15:41:37.988Z</time>
      </trkpt>
      <trkpt lat="43.98161" lon="5.89156">
        <ele>595</ele>
        <time>2020-10-05T15:41:38.988Z</time>
      </trkpt>
      <trkpt lat="43.98161" lon="5.89156">
        <ele>595</ele>
        <time>2020-10-05T15:41:39.988Z</time>
      </trkpt>
      <trkpt lat="43.9816" lon="5.89157">
        <ele>595</ele>
        <time>2020-10-05T15:41:40.988Z</time>
      </trkpt>
      <trkpt lat="43.98159" lon="5.89157">
        <ele>595</ele>
        <time>2020-10-05T15:41:41.988Z</time>
      </trkpt>
      <trkpt lat="43.98158" lon="5.89157">
        <ele>595</ele>
        <time>2020-10-05T15:41:42.988Z</time>
      </trkpt>
      <trkpt lat="43.98157" lon="5.89158">
        <ele>595</ele>
        <time>2020-10-05T15:41:43.988Z</time>
      </trkpt>
      <trkpt lat="43.98156" lon="5.89158">
        <ele>595</ele>
        <time>2020-10-05T15:41:44.988Z</time>
      </trkpt>
      <trkpt lat="43.98155" lon="5.89158">
        <ele>595</ele>
        <time>2020-10-05T15:41:45.988Z</time>
      </trkpt>
      <trkpt lat="43.98154" lon="5.89159">
        <ele>595</ele>
        <time>2020-10-05T15:41:46.988Z</time>
      </trkpt>
      <trkpt lat="43.98153" lon="5.89159">
        <ele>595</ele>
        <time>2020-10-05T15:41:47.988Z</time>
      </trkpt>
      <trkpt lat="43.98152" lon="5.89158">
        <ele>596</ele>
        <time>2020-10-05T15:41:48.988Z</time>
      </trkpt>
      <trkpt lat="43.98151" lon="5.89158">
        <ele>596</ele>
        <time>2020-10-05T15:41:49.988Z</time>
      </trkpt>
      <trkpt lat="43.9815" lon="5.89157">
        <ele>596</ele>
        <time>2020-10-05T15:41:50.988Z</time>
      </trkpt>
      <trkpt lat="43.98149" lon="5.89156">
        <ele>596</ele>
        <time>2020-10-05T15:41:51.988Z</time>
      </trkpt>
      <trkpt lat="43.98148" lon="5.89156">
        <ele>596</ele>
        <time>2020-10-05T15:41:52.988Z</time>
      </trkpt>
      <trkpt lat="43.98148" lon="5.89156">
        <ele>596</ele>
        <time>2020-10-05T15:41:53.988Z</time>
      </trkpt>
      <trkpt lat="43.98147" lon="5.89156">
        <ele>597</ele>
        <time>2020-10-05T15:41:54.988Z</time>
      </trkpt>
      <trkpt lat="43.98146" lon="5.89157">
        <ele>597</ele>
        <time>2020-10-05T15:41:55.988Z</time>
      </trkpt>
      <trkpt lat="43.98145" lon="5.89157">
        <ele>597</ele>
        <time>2020-10-05T15:41:56.988Z</time>
      </trkpt>
      <trkpt lat="43.98144" lon="5.89158">
        <ele>597</ele>
        <time>2020-10-05T15:41:57.988Z</time>
      </trkpt>
      <trkpt lat="43.98143" lon="5.89158">
        <ele>597</ele>
        <time>2020-10-05T15:41:58.988Z</time>
      </trkpt>
      <trkpt lat="43.98141" lon="5.89159">
        <ele>598</ele>
        <time>2020-10-05T15:41:59.988Z</time>
      </trkpt>
      <trkpt lat="43.9814" lon="5.89159">
        <ele>598</ele>
        <time>2020-10-05T15:42:00.988Z</time>
      </trkpt>
      <trkpt lat="43.98139" lon="5.8916">
        <ele>598</ele>
        <time>2020-10-05T15:42:01.988Z</time>
      </trkpt>
      <trkpt lat="43.98138" lon="5.8916">
        <ele>598</ele>
        <time>2020-10-05T15:42:02.988Z</time>
      </trkpt>
      <trkpt lat="43.98137" lon="5.8916">
        <ele>598</ele>
        <time>2020-10-05T15:42:03.988Z</time>
      </trkpt>
      <trkpt lat="43.98136" lon="5.89161">
        <ele>598</ele>
        <time>2020-10-05T15:42:04.988Z</time>
      </trkpt>
      <trkpt lat="43.98135" lon="5.89161">
        <ele>598</ele>
        <time>2020-10-05T15:42:05.988Z</time>
      </trkpt>
      <trkpt lat="43.98134" lon="5.89161">
        <ele>598</ele>
        <time>2020-10-05T15:42:06.988Z</time>
      </trkpt>
      <trkpt lat="43.98133" lon="5.89161">
        <ele>598</ele>
        <time>2020-10-05T15:42:07.988Z</time>
      </trkpt>
      <trkpt lat="43.98132" lon="5.89161">
        <ele>598</ele>
        <time>2020-10-05T15:42:08.988Z</time>
      </trkpt>
      <trkpt lat="43.98131" lon="5.89161">
        <ele>598</ele>
        <time>2020-10-05T15:42:09.988Z</time>
      </trkpt>
      <trkpt lat="43.9813" lon="5.89161">
        <ele>598</ele>
        <time>2020-10-05T15:42:10.988Z</time>
      </trkpt>
      <trkpt lat="43.98129" lon="5.89161">
        <ele>598</ele>
        <time>2020-10-05T15:42:11.988Z</time>
      </trkpt>
      <trkpt lat="43.98128" lon="5.89161">
        <ele>598</ele>
        <time>2020-10-05T15:42:12.988Z</time>
      </trkpt>
      <trkpt lat="43.98127" lon="5.8916">
        <ele>598</ele>
        <time>2020-10-05T15:42:13.988Z</time>
      </trkpt>
      <trkpt lat="43.98126" lon="5.8916">
        <ele>598</ele>
        <time>2020-10-05T15:42:14.988Z</time>
      </trkpt>
      <trkpt lat="43.98126" lon="5.89159">
        <ele>598</ele>
        <time>2020-10-05T15:42:15.988Z</time>
      </trkpt>
      <trkpt lat="43.98125" lon="5.89158">
        <ele>598</ele>
        <time>2020-10-05T15:42:16.988Z</time>
      </trkpt>
      <trkpt lat="43.98124" lon="5.89158">
        <ele>598</ele>
        <time>2020-10-05T15:42:17.988Z</time>
      </trkpt>
      <trkpt lat="43.98123" lon="5.89158">
        <ele>598</ele>
        <time>2020-10-05T15:42:18.988Z</time>
      </trkpt>
      <trkpt lat="43.98123" lon="5.89158">
        <ele>598</ele>
        <time>2020-10-05T15:42:19.988Z</time>
      </trkpt>
      <trkpt lat="43.98122" lon="5.89158">
        <ele>598</ele>
        <time>2020-10-05T15:42:20.988Z</time>
      </trkpt>
      <trkpt lat="43.98121" lon="5.89158">
        <ele>598</ele>
        <time>2020-10-05T15:42:21.988Z</time>
      </trkpt>
      <trkpt lat="43.9812" lon="5.89159">
        <ele>598</ele>
        <time>2020-10-05T15:42:22.988Z</time>
      </trkpt>
      <trkpt lat="43.98119" lon="5.8916">
        <ele>598</ele>
        <time>2020-10-05T15:42:23.988Z</time>
      </trkpt>
      <trkpt lat="43.98118" lon="5.8916">
        <ele>598</ele>
        <time>2020-10-05T15:42:24.988Z</time>
      </trkpt>
      <trkpt lat="43.98117" lon="5.8916">
        <ele>598</ele>
        <time>2020-10-05T15:42:25.988Z</time>
      </trkpt>
      <trkpt lat="43.98116" lon="5.89161">
        <ele>598</ele>
        <time>2020-10-05T15:42:26.988Z</time>
      </trkpt>
      <trkpt lat="43.98115" lon="5.89162">
        <ele>598</ele>
        <time>2020-10-05T15:42:27.988Z</time>
      </trkpt>
      <trkpt lat="43.98114" lon="5.89163">
        <ele>598</ele>
        <time>2020-10-05T15:42:28.988Z</time>
      </trkpt>
      <trkpt lat="43.98113" lon="5.89163">
        <ele>598</ele>
        <time>2020-10-05T15:42:29.988Z</time>
      </trkpt>
      <trkpt lat="43.98112" lon="5.89163">
        <ele>598</ele>
        <time>2020-10-05T15:42:30.988Z</time>
      </trkpt>
      <trkpt lat="43.98111" lon="5.89163">
        <ele>598</ele>
        <time>2020-10-05T15:42:31.988Z</time>
      </trkpt>
      <trkpt lat="43.9811" lon="5.89163">
        <ele>598</ele>
        <time>2020-10-05T15:42:32.988Z</time>
      </trkpt>
      <trkpt lat="43.98108" lon="5.89163">
        <ele>598</ele>
        <time>2020-10-05T15:42:33.988Z</time>
      </trkpt>
      <trkpt lat="43.98107" lon="5.89164">
        <ele>599</ele>
        <time>2020-10-05T15:42:34.988Z</time>
      </trkpt>
      <trkpt lat="43.98106" lon="5.89164">
        <ele>599</ele>
        <time>2020-10-05T15:42:35.988Z</time>
      </trkpt>
      <trkpt lat="43.98105" lon="5.89163">
        <ele>599</ele>
        <time>2020-10-05T15:42:36.988Z</time>
      </trkpt>
      <trkpt lat="43.98103" lon="5.89163">
        <ele>599</ele>
        <time>2020-10-05T15:42:37.988Z</time>
      </trkpt>
      <trkpt lat="43.98102" lon="5.89162">
        <ele>599</ele>
        <time>2020-10-05T15:42:38.988Z</time>
      </trkpt>
      <trkpt lat="43.98101" lon="5.89162">
        <ele>599</ele>
        <time>2020-10-05T15:42:39.988Z</time>
      </trkpt>
      <trkpt lat="43.981" lon="5.89162">
        <ele>599</ele>
        <time>2020-10-05T15:42:40.988Z</time>
      </trkpt>
      <trkpt lat="43.98099" lon="5.89162">
        <ele>599</ele>
        <time>2020-10-05T15:42:41.988Z</time>
      </trkpt>
      <trkpt lat="43.98098" lon="5.89162">
        <ele>599</ele>
        <time>2020-10-05T15:42:42.988Z</time>
      </trkpt>
      <trkpt lat="43.98097" lon="5.89162">
        <ele>599</ele>
        <time>2020-10-05T15:42:43.988Z</time>
      </trkpt>
      <trkpt lat="43.98096" lon="5.89162">
        <ele>599</ele>
        <time>2020-10-05T15:42:44.988Z</time>
      </trkpt>
      <trkpt lat="43.98095" lon="5.89163">
        <ele>599</ele>
        <time>2020-10-05T15:42:45.988Z</time>
      </trkpt>
      <trkpt lat="43.98094" lon="5.89163">
        <ele>599</ele>
        <time>2020-10-05T15:42:46.988Z</time>
      </trkpt>
      <trkpt lat="43.98093" lon="5.89163">
        <ele>599</ele>
        <time>2020-10-05T15:42:47.988Z</time>
      </trkpt>
      <trkpt lat="43.98092" lon="5.89163">
        <ele>599</ele>
        <time>2020-10-05T15:42:48.988Z</time>
      </trkpt>
      <trkpt lat="43.98091" lon="5.89163">
        <ele>600</ele>
        <time>2020-10-05T15:42:49.988Z</time>
      </trkpt>
      <trkpt lat="43.9809" lon="5.89163">
        <ele>600</ele>
        <time>2020-10-05T15:42:50.988Z</time>
      </trkpt>
      <trkpt lat="43.98089" lon="5.89163">
        <ele>600</ele>
        <time>2020-10-05T15:42:51.988Z</time>
      </trkpt>
      <trkpt lat="43.98087" lon="5.89163">
        <ele>600</ele>
        <time>2020-10-05T15:42:52.988Z</time>
      </trkpt>
      <trkpt lat="43.98086" lon="5.89163">
        <ele>600</ele>
        <time>2020-10-05T15:42:53.988Z</time>
      </trkpt>
      <trkpt lat="43.98085" lon="5.89163">
        <ele>600</ele>
        <time>2020-10-05T15:42:54.988Z</time>
      </trkpt>
      <trkpt lat="43.98084" lon="5.89163">
        <ele>600</ele>
        <time>2020-10-05T15:42:55.988Z</time>
      </trkpt>
      <trkpt lat="43.98083" lon="5.89163">
        <ele>600</ele>
        <time>2020-10-05T15:42:56.988Z</time>
      </trkpt>
      <trkpt lat="43.98081" lon="5.89162">
        <ele>600</ele>
        <time>2020-10-05T15:42:57.988Z</time>
      </trkpt>
      <trkpt lat="43.9808" lon="5.89162">
        <ele>600</ele>
        <time>2020-10-05T15:42:58.988Z</time>
      </trkpt>
      <trkpt lat="43.98079" lon="5.89162">
        <ele>600</ele>
        <time>2020-10-05T15:42:59.988Z</time>
      </trkpt>
      <trkpt lat="43.98078" lon="5.89163">
        <ele>600</ele>
        <time>2020-10-05T15:43:00.988Z</time>
      </trkpt>
      <trkpt lat="43.98077" lon="5.89163">
        <ele>600</ele>
        <time>2020-10-05T15:43:01.988Z</time>
      </trkpt>
      <trkpt lat="43.98076" lon="5.89163">
        <ele>600</ele>
        <time>2020-10-05T15:43:02.988Z</time>
      </trkpt>
      <trkpt lat="43.98075" lon="5.89164">
        <ele>601</ele>
        <time>2020-10-05T15:43:03.988Z</time>
      </trkpt>
      <trkpt lat="43.98074" lon="5.89164">
        <ele>601</ele>
        <time>2020-10-05T15:43:04.988Z</time>
      </trkpt>
      <trkpt lat="43.98074" lon="5.89165">
        <ele>601</ele>
        <time>2020-10-05T15:43:05.988Z</time>
      </trkpt>
      <trkpt lat="43.98073" lon="5.89166">
        <ele>601</ele>
        <time>2020-10-05T15:43:06.988Z</time>
      </trkpt>
      <trkpt lat="43.98073" lon="5.89167">
        <ele>601</ele>
        <time>2020-10-05T15:43:07.988Z</time>
      </trkpt>
      <trkpt lat="43.98072" lon="5.89168">
        <ele>600</ele>
        <time>2020-10-05T15:43:08.988Z</time>
      </trkpt>
      <trkpt lat="43.98071" lon="5.89169">
        <ele>600</ele>
        <time>2020-10-05T15:43:09.988Z</time>
      </trkpt>
      <trkpt lat="43.9807" lon="5.8917">
        <ele>600</ele>
        <time>2020-10-05T15:43:10.988Z</time>
      </trkpt>
      <trkpt lat="43.9807" lon="5.8917">
        <ele>601</ele>
        <time>2020-10-05T15:43:11.988Z</time>
      </trkpt>
      <trkpt lat="43.98069" lon="5.8917">
        <ele>601</ele>
        <time>2020-10-05T15:43:12.988Z</time>
      </trkpt>
      <trkpt lat="43.98068" lon="5.8917">
        <ele>601</ele>
        <time>2020-10-05T15:43:13.988Z</time>
      </trkpt>
      <trkpt lat="43.98067" lon="5.8917">
        <ele>601</ele>
        <time>2020-10-05T15:43:14.988Z</time>
      </trkpt>
      <trkpt lat="43.98066" lon="5.8917">
        <ele>601</ele>
        <time>2020-10-05T15:43:15.988Z</time>
      </trkpt>
      <trkpt lat="43.98065" lon="5.89169">
        <ele>601</ele>
        <time>2020-10-05T15:43:16.988Z</time>
      </trkpt>
      <trkpt lat="43.98064" lon="5.89169">
        <ele>601</ele>
        <time>2020-10-05T15:43:17.988Z</time>
      </trkpt>
      <trkpt lat="43.98063" lon="5.89169">
        <ele>601</ele>
        <time>2020-10-05T15:43:18.988Z</time>
      </trkpt>
      <trkpt lat="43.98062" lon="5.89169">
        <ele>601</ele>
        <time>2020-10-05T15:43:19.988Z</time>
      </trkpt>
      <trkpt lat="43.98061" lon="5.8917">
        <ele>601</ele>
        <time>2020-10-05T15:43:20.988Z</time>
      </trkpt>
      <trkpt lat="43.9806" lon="5.8917">
        <ele>601</ele>
        <time>2020-10-05T15:43:21.988Z</time>
      </trkpt>
      <trkpt lat="43.98058" lon="5.8917">
        <ele>601</ele>
        <time>2020-10-05T15:43:22.988Z</time>
      </trkpt>
      <trkpt lat="43.98057" lon="5.8917">
        <ele>601</ele>
        <time>2020-10-05T15:43:23.988Z</time>
      </trkpt>
      <trkpt lat="43.98057" lon="5.8917">
        <ele>601</ele>
        <time>2020-10-05T15:43:24.988Z</time>
      </trkpt>
      <trkpt lat="43.98056" lon="5.8917">
        <ele>601</ele>
        <time>2020-10-05T15:43:25.988Z</time>
      </trkpt>
      <trkpt lat="43.98055" lon="5.89171">
        <ele>601</ele>
        <time>2020-10-05T15:43:26.988Z</time>
      </trkpt>
      <trkpt lat="43.98054" lon="5.89172">
        <ele>601</ele>
        <time>2020-10-05T15:43:27.988Z</time>
      </trkpt>
      <trkpt lat="43.98054" lon="5.89172">
        <ele>601</ele>
        <time>2020-10-05T15:43:28.988Z</time>
      </trkpt>
      <trkpt lat="43.98053" lon="5.89173">
        <ele>601</ele>
        <time>2020-10-05T15:43:29.988Z</time>
      </trkpt>
      <trkpt lat="43.98053" lon="5.89173">
        <ele>601</ele>
        <time>2020-10-05T15:43:30.988Z</time>
      </trkpt>
      <trkpt lat="43.98052" lon="5.89173">
        <ele>601</ele>
        <time>2020-10-05T15:43:31.988Z</time>
      </trkpt>
      <trkpt lat="43.98051" lon="5.89173">
        <ele>601</ele>
        <time>2020-10-05T15:43:32.988Z</time>
      </trkpt>
      <trkpt lat="43.9805" lon="5.89173">
        <ele>601</ele>
        <time>2020-10-05T15:43:33.988Z</time>
      </trkpt>
      <trkpt lat="43.98049" lon="5.89174">
        <ele>601</ele>
        <time>2020-10-05T15:43:34.988Z</time>
      </trkpt>
      <trkpt lat="43.98047" lon="5.89174">
        <ele>601</ele>
        <time>2020-10-05T15:43:35.988Z</time>
      </trkpt>
      <trkpt lat="43.98046" lon="5.89174">
        <ele>601</ele>
        <time>2020-10-05T15:43:36.988Z</time>
      </trkpt>
      <trkpt lat="43.98045" lon="5.89174">
        <ele>601</ele>
        <time>2020-10-05T15:43:37.988Z</time>
      </trkpt>
      <trkpt lat="43.98044" lon="5.89175">
        <ele>602</ele>
        <time>2020-10-05T15:43:38.988Z</time>
      </trkpt>
      <trkpt lat="43.98042" lon="5.89175">
        <ele>602</ele>
        <time>2020-10-05T15:43:39.988Z</time>
      </trkpt>
      <trkpt lat="43.98041" lon="5.89175">
        <ele>602</ele>
        <time>2020-10-05T15:43:40.988Z</time>
      </trkpt>
      <trkpt lat="43.9804" lon="5.89175">
        <ele>602</ele>
        <time>2020-10-05T15:43:41.988Z</time>
      </trkpt>
      <trkpt lat="43.98039" lon="5.89176">
        <ele>602</ele>
        <time>2020-10-05T15:43:42.988Z</time>
      </trkpt>
      <trkpt lat="43.98038" lon="5.89176">
        <ele>602</ele>
        <time>2020-10-05T15:43:43.988Z</time>
      </trkpt>
      <trkpt lat="43.98037" lon="5.89177">
        <ele>602</ele>
        <time>2020-10-05T15:43:44.988Z</time>
      </trkpt>
      <trkpt lat="43.98035" lon="5.89177">
        <ele>603</ele>
        <time>2020-10-05T15:43:45.988Z</time>
      </trkpt>
      <trkpt lat="43.98034" lon="5.89178">
        <ele>603</ele>
        <time>2020-10-05T15:43:46.988Z</time>
      </trkpt>
      <trkpt lat="43.98033" lon="5.89178">
        <ele>603</ele>
        <time>2020-10-05T15:43:47.988Z</time>
      </trkpt>
      <trkpt lat="43.98031" lon="5.89178">
        <ele>603</ele>
        <time>2020-10-05T15:43:48.988Z</time>
      </trkpt>
      <trkpt lat="43.9803" lon="5.89178">
        <ele>603</ele>
        <time>2020-10-05T15:43:49.988Z</time>
      </trkpt>
      <trkpt lat="43.98029" lon="5.89177">
        <ele>603</ele>
        <time>2020-10-05T15:43:50.988Z</time>
      </trkpt>
      <trkpt lat="43.98028" lon="5.89177">
        <ele>604</ele>
        <time>2020-10-05T15:43:51.988Z</time>
      </trkpt>
      <trkpt lat="43.98027" lon="5.89176">
        <ele>604</ele>
        <time>2020-10-05T15:43:52.988Z</time>
      </trkpt>
      <trkpt lat="43.98025" lon="5.89176">
        <ele>604</ele>
        <time>2020-10-05T15:43:53.988Z</time>
      </trkpt>
      <trkpt lat="43.98025" lon="5.89175">
        <ele>604</ele>
        <time>2020-10-05T15:43:54.988Z</time>
      </trkpt>
      <trkpt lat="43.98024" lon="5.89175">
        <ele>604</ele>
        <time>2020-10-05T15:43:55.988Z</time>
      </trkpt>
      <trkpt lat="43.98023" lon="5.89174">
        <ele>604</ele>
        <time>2020-10-05T15:43:56.988Z</time>
      </trkpt>
      <trkpt lat="43.98022" lon="5.89174">
        <ele>604</ele>
        <time>2020-10-05T15:43:57.988Z</time>
      </trkpt>
      <trkpt lat="43.98021" lon="5.89173">
        <ele>604</ele>
        <time>2020-10-05T15:43:58.988Z</time>
      </trkpt>
      <trkpt lat="43.98019" lon="5.89173">
        <ele>604</ele>
        <time>2020-10-05T15:43:59.988Z</time>
      </trkpt>
      <trkpt lat="43.98018" lon="5.89173">
        <ele>604</ele>
        <time>2020-10-05T15:44:00.988Z</time>
      </trkpt>
      <trkpt lat="43.98017" lon="5.89172">
        <ele>604</ele>
        <time>2020-10-05T15:44:01.988Z</time>
      </trkpt>
      <trkpt lat="43.98016" lon="5.89172">
        <ele>604</ele>
        <time>2020-10-05T15:44:02.988Z</time>
      </trkpt>
      <trkpt lat="43.98015" lon="5.89172">
        <ele>604</ele>
        <time>2020-10-05T15:44:03.988Z</time>
      </trkpt>
      <trkpt lat="43.98014" lon="5.89171">
        <ele>604</ele>
        <time>2020-10-05T15:44:04.988Z</time>
      </trkpt>
      <trkpt lat="43.98013" lon="5.89171">
        <ele>604</ele>
        <time>2020-10-05T15:44:05.988Z</time>
      </trkpt>
      <trkpt lat="43.98012" lon="5.8917">
        <ele>604</ele>
        <time>2020-10-05T15:44:06.988Z</time>
      </trkpt>
      <trkpt lat="43.98011" lon="5.8917">
        <ele>604</ele>
        <time>2020-10-05T15:44:07.988Z</time>
      </trkpt>
      <trkpt lat="43.9801" lon="5.8917">
        <ele>604</ele>
        <time>2020-10-05T15:44:08.988Z</time>
      </trkpt>
      <trkpt lat="43.98009" lon="5.8917">
        <ele>604</ele>
        <time>2020-10-05T15:44:09.988Z</time>
      </trkpt>
      <trkpt lat="43.98008" lon="5.8917">
        <ele>604</ele>
        <time>2020-10-05T15:44:10.988Z</time>
      </trkpt>
      <trkpt lat="43.98007" lon="5.8917">
        <ele>604</ele>
        <time>2020-10-05T15:44:11.988Z</time>
      </trkpt>
      <trkpt lat="43.98006" lon="5.8917">
        <ele>604</ele>
        <time>2020-10-05T15:44:12.988Z</time>
      </trkpt>
      <trkpt lat="43.98005" lon="5.8917">
        <ele>604</ele>
        <time>2020-10-05T15:44:13.988Z</time>
      </trkpt>
      <trkpt lat="43.98004" lon="5.8917">
        <ele>604</ele>
        <time>2020-10-05T15:44:14.988Z</time>
      </trkpt>
      <trkpt lat="43.98003" lon="5.8917">
        <ele>604</ele>
        <time>2020-10-05T15:44:15.988Z</time>
      </trkpt>
      <trkpt lat="43.98002" lon="5.8917">
        <ele>604</ele>
        <time>2020-10-05T15:44:16.988Z</time>
      </trkpt>
      <trkpt lat="43.98001" lon="5.8917">
        <ele>604</ele>
        <time>2020-10-05T15:44:17.988Z</time>
      </trkpt>
      <trkpt lat="43.98" lon="5.8917">
        <ele>604</ele>
        <time>2020-10-05T15:44:18.988Z</time>
      </trkpt>
      <trkpt lat="43.97998" lon="5.8917">
        <ele>604</ele>
        <time>2020-10-05T15:44:19.988Z</time>
      </trkpt>
      <trkpt lat="43.97997" lon="5.89171">
        <ele>604</ele>
        <time>2020-10-05T15:44:20.988Z</time>
      </trkpt>
      <trkpt lat="43.97996" lon="5.8917">
        <ele>604</ele>
        <time>2020-10-05T15:44:21.988Z</time>
      </trkpt>
      <trkpt lat="43.97995" lon="5.8917">
        <ele>604</ele>
        <time>2020-10-05T15:44:22.988Z</time>
      </trkpt>
      <trkpt lat="43.97994" lon="5.8917">
        <ele>604</ele>
        <time>2020-10-05T15:44:23.988Z</time>
      </trkpt>
      <trkpt lat="43.97992" lon="5.8917">
        <ele>604</ele>
        <time>2020-10-05T15:44:24.988Z</time>
      </trkpt>
      <trkpt lat="43.97991" lon="5.8917">
        <ele>604</ele>
        <time>2020-10-05T15:44:25.988Z</time>
      </trkpt>
      <trkpt lat="43.9799" lon="5.8917">
        <ele>604</ele>
        <time>2020-10-05T15:44:26.988Z</time>
      </trkpt>
      <trkpt lat="43.97989" lon="5.8917">
        <ele>604</ele>
        <time>2020-10-05T15:44:27.988Z</time>
      </trkpt>
      <trkpt lat="43.97988" lon="5.8917">
        <ele>604</ele>
        <time>2020-10-05T15:44:28.988Z</time>
      </trkpt>
      <trkpt lat="43.97987" lon="5.8917">
        <ele>604</ele>
        <time>2020-10-05T15:44:29.988Z</time>
      </trkpt>
      <trkpt lat="43.97986" lon="5.89171">
        <ele>604</ele>
        <time>2020-10-05T15:44:30.988Z</time>
      </trkpt>
      <trkpt lat="43.97984" lon="5.89171">
        <ele>604</ele>
        <time>2020-10-05T15:44:31.988Z</time>
      </trkpt>
      <trkpt lat="43.97984" lon="5.89171">
        <ele>605</ele>
        <time>2020-10-05T15:44:32.988Z</time>
      </trkpt>
      <trkpt lat="43.97983" lon="5.8917">
        <ele>605</ele>
        <time>2020-10-05T15:44:33.988Z</time>
      </trkpt>
      <trkpt lat="43.97982" lon="5.8917">
        <ele>605</ele>
        <time>2020-10-05T15:44:34.988Z</time>
      </trkpt>
      <trkpt lat="43.97981" lon="5.8917">
        <ele>605</ele>
        <time>2020-10-05T15:44:35.988Z</time>
      </trkpt>
      <trkpt lat="43.9798" lon="5.89171">
        <ele>605</ele>
        <time>2020-10-05T15:44:36.988Z</time>
      </trkpt>
      <trkpt lat="43.97979" lon="5.89171">
        <ele>605</ele>
        <time>2020-10-05T15:44:37.988Z</time>
      </trkpt>
      <trkpt lat="43.97978" lon="5.89171">
        <ele>605</ele>
        <time>2020-10-05T15:44:38.988Z</time>
      </trkpt>
      <trkpt lat="43.97977" lon="5.89171">
        <ele>605</ele>
        <time>2020-10-05T15:44:39.988Z</time>
      </trkpt>
      <trkpt lat="43.97976" lon="5.89171">
        <ele>605</ele>
        <time>2020-10-05T15:44:40.988Z</time>
      </trkpt>
      <trkpt lat="43.97975" lon="5.89171">
        <ele>605</ele>
        <time>2020-10-05T15:44:41.988Z</time>
      </trkpt>
      <trkpt lat="43.97975" lon="5.8917">
        <ele>605</ele>
        <time>2020-10-05T15:44:42.988Z</time>
      </trkpt>
      <trkpt lat="43.97974" lon="5.8917">
        <ele>605</ele>
        <time>2020-10-05T15:44:43.988Z</time>
      </trkpt>
      <trkpt lat="43.97973" lon="5.8917">
        <ele>606</ele>
        <time>2020-10-05T15:44:44.988Z</time>
      </trkpt>
      <trkpt lat="43.97972" lon="5.89169">
        <ele>606</ele>
        <time>2020-10-05T15:44:45.988Z</time>
      </trkpt>
      <trkpt lat="43.97971" lon="5.89169">
        <ele>606</ele>
        <time>2020-10-05T15:44:46.988Z</time>
      </trkpt>
      <trkpt lat="43.97969" lon="5.89169">
        <ele>606</ele>
        <time>2020-10-05T15:44:47.988Z</time>
      </trkpt>
      <trkpt lat="43.97969" lon="5.89168">
        <ele>606</ele>
        <time>2020-10-05T15:44:48.988Z</time>
      </trkpt>
      <trkpt lat="43.97967" lon="5.89168">
        <ele>606</ele>
        <time>2020-10-05T15:44:49.988Z</time>
      </trkpt>
      <trkpt lat="43.97966" lon="5.89168">
        <ele>606</ele>
        <time>2020-10-05T15:44:50.988Z</time>
      </trkpt>
      <trkpt lat="43.97966" lon="5.89167">
        <ele>606</ele>
        <time>2020-10-05T15:44:51.988Z</time>
      </trkpt>
      <trkpt lat="43.97964" lon="5.89167">
        <ele>606</ele>
        <time>2020-10-05T15:44:52.988Z</time>
      </trkpt>
      <trkpt lat="43.97963" lon="5.89167">
        <ele>606</ele>
        <time>2020-10-05T15:44:53.988Z</time>
      </trkpt>
      <trkpt lat="43.97962" lon="5.89167">
        <ele>605</ele>
        <time>2020-10-05T15:44:54.988Z</time>
      </trkpt>
      <trkpt lat="43.97961" lon="5.89167">
        <ele>605</ele>
        <time>2020-10-05T15:44:55.988Z</time>
      </trkpt>
      <trkpt lat="43.9796" lon="5.89167">
        <ele>605</ele>
        <time>2020-10-05T15:44:56.988Z</time>
      </trkpt>
      <trkpt lat="43.97959" lon="5.89166">
        <ele>605</ele>
        <time>2020-10-05T15:44:57.988Z</time>
      </trkpt>
      <trkpt lat="43.97958" lon="5.89167">
        <ele>605</ele>
        <time>2020-10-05T15:44:58.988Z</time>
      </trkpt>
      <trkpt lat="43.97956" lon="5.89167">
        <ele>605</ele>
        <time>2020-10-05T15:44:59.988Z</time>
      </trkpt>
      <trkpt lat="43.97955" lon="5.89166">
        <ele>605</ele>
        <time>2020-10-05T15:45:00.988Z</time>
      </trkpt>
      <trkpt lat="43.97954" lon="5.89166">
        <ele>605</ele>
        <time>2020-10-05T15:45:01.988Z</time>
      </trkpt>
      <trkpt lat="43.97952" lon="5.89166">
        <ele>606</ele>
        <time>2020-10-05T15:45:02.988Z</time>
      </trkpt>
      <trkpt lat="43.97951" lon="5.89166">
        <ele>606</ele>
        <time>2020-10-05T15:45:03.988Z</time>
      </trkpt>
      <trkpt lat="43.9795" lon="5.89166">
        <ele>606</ele>
        <time>2020-10-05T15:45:04.988Z</time>
      </trkpt>
      <trkpt lat="43.97949" lon="5.89166">
        <ele>606</ele>
        <time>2020-10-05T15:45:05.988Z</time>
      </trkpt>
      <trkpt lat="43.97948" lon="5.89166">
        <ele>606</ele>
        <time>2020-10-05T15:45:06.988Z</time>
      </trkpt>
      <trkpt lat="43.97947" lon="5.89166">
        <ele>606</ele>
        <time>2020-10-05T15:45:07.988Z</time>
      </trkpt>
      <trkpt lat="43.97946" lon="5.89167">
        <ele>606</ele>
        <time>2020-10-05T15:45:08.988Z</time>
      </trkpt>
      <trkpt lat="43.97944" lon="5.89167">
        <ele>606</ele>
        <time>2020-10-05T15:45:09.988Z</time>
      </trkpt>
      <trkpt lat="43.97943" lon="5.89167">
        <ele>606</ele>
        <time>2020-10-05T15:45:10.988Z</time>
      </trkpt>
      <trkpt lat="43.97942" lon="5.89167">
        <ele>606</ele>
        <time>2020-10-05T15:45:11.988Z</time>
      </trkpt>
      <trkpt lat="43.9794" lon="5.89168">
        <ele>606</ele>
        <time>2020-10-05T15:45:12.988Z</time>
      </trkpt>
      <trkpt lat="43.97939" lon="5.89168">
        <ele>606</ele>
        <time>2020-10-05T15:45:13.988Z</time>
      </trkpt>
      <trkpt lat="43.97938" lon="5.89168">
        <ele>607</ele>
        <time>2020-10-05T15:45:14.988Z</time>
      </trkpt>
      <trkpt lat="43.97937" lon="5.89167">
        <ele>607</ele>
        <time>2020-10-05T15:45:15.988Z</time>
      </trkpt>
      <trkpt lat="43.97935" lon="5.89167">
        <ele>607</ele>
        <time>2020-10-05T15:45:16.988Z</time>
      </trkpt>
      <trkpt lat="43.97934" lon="5.89167">
        <ele>607</ele>
        <time>2020-10-05T15:45:17.988Z</time>
      </trkpt>
      <trkpt lat="43.97933" lon="5.89166">
        <ele>607</ele>
        <time>2020-10-05T15:45:18.988Z</time>
      </trkpt>
      <trkpt lat="43.97932" lon="5.89166">
        <ele>607</ele>
        <time>2020-10-05T15:45:19.988Z</time>
      </trkpt>
      <trkpt lat="43.97931" lon="5.89165">
        <ele>607</ele>
        <time>2020-10-05T15:45:20.988Z</time>
      </trkpt>
      <trkpt lat="43.9793" lon="5.89164">
        <ele>606</ele>
        <time>2020-10-05T15:45:21.988Z</time>
      </trkpt>
      <trkpt lat="43.97929" lon="5.89164">
        <ele>606</ele>
        <time>2020-10-05T15:45:22.988Z</time>
      </trkpt>
      <trkpt lat="43.97928" lon="5.89164">
        <ele>606</ele>
        <time>2020-10-05T15:45:23.988Z</time>
      </trkpt>
      <trkpt lat="43.97927" lon="5.89163">
        <ele>606</ele>
        <time>2020-10-05T15:45:24.988Z</time>
      </trkpt>
      <trkpt lat="43.97926" lon="5.89163">
        <ele>606</ele>
        <time>2020-10-05T15:45:25.988Z</time>
      </trkpt>
      <trkpt lat="43.97925" lon="5.89162">
        <ele>606</ele>
        <time>2020-10-05T15:45:26.988Z</time>
      </trkpt>
      <trkpt lat="43.97924" lon="5.89162">
        <ele>606</ele>
        <time>2020-10-05T15:45:27.988Z</time>
      </trkpt>
      <trkpt lat="43.97924" lon="5.89162">
        <ele>606</ele>
        <time>2020-10-05T15:45:28.988Z</time>
      </trkpt>
      <trkpt lat="43.97923" lon="5.89162">
        <ele>606</ele>
        <time>2020-10-05T15:45:29.988Z</time>
      </trkpt>
      <trkpt lat="43.97922" lon="5.89162">
        <ele>606</ele>
        <time>2020-10-05T15:45:30.988Z</time>
      </trkpt>
      <trkpt lat="43.97921" lon="5.89161">
        <ele>606</ele>
        <time>2020-10-05T15:45:31.988Z</time>
      </trkpt>
      <trkpt lat="43.9792" lon="5.89161">
        <ele>606</ele>
        <time>2020-10-05T15:45:32.988Z</time>
      </trkpt>
      <trkpt lat="43.97919" lon="5.8916">
        <ele>606</ele>
        <time>2020-10-05T15:45:33.988Z</time>
      </trkpt>
      <trkpt lat="43.97918" lon="5.8916">
        <ele>606</ele>
        <time>2020-10-05T15:45:34.988Z</time>
      </trkpt>
      <trkpt lat="43.97917" lon="5.8916">
        <ele>606</ele>
        <time>2020-10-05T15:45:35.988Z</time>
      </trkpt>
      <trkpt lat="43.97916" lon="5.8916">
        <ele>605</ele>
        <time>2020-10-05T15:45:36.988Z</time>
      </trkpt>
      <trkpt lat="43.97915" lon="5.8916">
        <ele>605</ele>
        <time>2020-10-05T15:45:37.988Z</time>
      </trkpt>
      <trkpt lat="43.97913" lon="5.8916">
        <ele>605</ele>
        <time>2020-10-05T15:45:38.988Z</time>
      </trkpt>
      <trkpt lat="43.97912" lon="5.8916">
        <ele>605</ele>
        <time>2020-10-05T15:45:39.988Z</time>
      </trkpt>
      <trkpt lat="43.97911" lon="5.8916">
        <ele>605</ele>
        <time>2020-10-05T15:45:40.988Z</time>
      </trkpt>
      <trkpt lat="43.9791" lon="5.8916">
        <ele>604</ele>
        <time>2020-10-05T15:45:41.988Z</time>
      </trkpt>
      <trkpt lat="43.97909" lon="5.8916">
        <ele>604</ele>
        <time>2020-10-05T15:45:42.988Z</time>
      </trkpt>
      <trkpt lat="43.97908" lon="5.8916">
        <ele>604</ele>
        <time>2020-10-05T15:45:43.988Z</time>
      </trkpt>
      <trkpt lat="43.97906" lon="5.8916">
        <ele>604</ele>
        <time>2020-10-05T15:45:44.988Z</time>
      </trkpt>
      <trkpt lat="43.97905" lon="5.8916">
        <ele>604</ele>
        <time>2020-10-05T15:45:45.988Z</time>
      </trkpt>
      <trkpt lat="43.97904" lon="5.8916">
        <ele>604</ele>
        <time>2020-10-05T15:45:46.988Z</time>
      </trkpt>
      <trkpt lat="43.97903" lon="5.8916">
        <ele>604</ele>
        <time>2020-10-05T15:45:47.988Z</time>
      </trkpt>
      <trkpt lat="43.97902" lon="5.8916">
        <ele>604</ele>
        <time>2020-10-05T15:45:48.988Z</time>
      </trkpt>
      <trkpt lat="43.97901" lon="5.89159">
        <ele>604</ele>
        <time>2020-10-05T15:45:49.988Z</time>
      </trkpt>
      <trkpt lat="43.979" lon="5.8916">
        <ele>604</ele>
        <time>2020-10-05T15:45:50.988Z</time>
      </trkpt>
      <trkpt lat="43.97898" lon="5.89159">
        <ele>604</ele>
        <time>2020-10-05T15:45:51.988Z</time>
      </trkpt>
      <trkpt lat="43.97897" lon="5.89159">
        <ele>604</ele>
        <time>2020-10-05T15:45:52.988Z</time>
      </trkpt>
      <trkpt lat="43.97896" lon="5.8916">
        <ele>604</ele>
        <time>2020-10-05T15:45:53.988Z</time>
      </trkpt>
      <trkpt lat="43.97894" lon="5.89159">
        <ele>604</ele>
        <time>2020-10-05T15:45:54.988Z</time>
      </trkpt>
      <trkpt lat="43.97893" lon="5.89159">
        <ele>604</ele>
        <time>2020-10-05T15:45:55.988Z</time>
      </trkpt>
      <trkpt lat="43.97892" lon="5.89159">
        <ele>604</ele>
        <time>2020-10-05T15:45:56.988Z</time>
      </trkpt>
      <trkpt lat="43.97892" lon="5.89159">
        <ele>604</ele>
        <time>2020-10-05T15:45:57.988Z</time>
      </trkpt>
      <trkpt lat="43.97891" lon="5.89159">
        <ele>604</ele>
        <time>2020-10-05T15:45:58.988Z</time>
      </trkpt>
      <trkpt lat="43.97889" lon="5.89159">
        <ele>604</ele>
        <time>2020-10-05T15:45:59.988Z</time>
      </trkpt>
      <trkpt lat="43.97888" lon="5.8916">
        <ele>603</ele>
        <time>2020-10-05T15:46:00.988Z</time>
      </trkpt>
      <trkpt lat="43.97887" lon="5.8916">
        <ele>603</ele>
        <time>2020-10-05T15:46:01.988Z</time>
      </trkpt>
      <trkpt lat="43.97886" lon="5.89161">
        <ele>603</ele>
        <time>2020-10-05T15:46:02.988Z</time>
      </trkpt>
      <trkpt lat="43.97885" lon="5.89161">
        <ele>603</ele>
        <time>2020-10-05T15:46:03.988Z</time>
      </trkpt>
      <trkpt lat="43.97884" lon="5.89161">
        <ele>603</ele>
        <time>2020-10-05T15:46:04.988Z</time>
      </trkpt>
      <trkpt lat="43.97883" lon="5.89162">
        <ele>603</ele>
        <time>2020-10-05T15:46:05.988Z</time>
      </trkpt>
      <trkpt lat="43.97882" lon="5.89162">
        <ele>603</ele>
        <time>2020-10-05T15:46:06.988Z</time>
      </trkpt>
      <trkpt lat="43.97881" lon="5.89163">
        <ele>603</ele>
        <time>2020-10-05T15:46:07.988Z</time>
      </trkpt>
      <trkpt lat="43.9788" lon="5.89163">
        <ele>603</ele>
        <time>2020-10-05T15:46:08.988Z</time>
      </trkpt>
      <trkpt lat="43.97879" lon="5.89164">
        <ele>603</ele>
        <time>2020-10-05T15:46:09.988Z</time>
      </trkpt>
      <trkpt lat="43.97877" lon="5.89164">
        <ele>603</ele>
        <time>2020-10-05T15:46:10.988Z</time>
      </trkpt>
      <trkpt lat="43.97876" lon="5.89165">
        <ele>603</ele>
        <time>2020-10-05T15:46:11.988Z</time>
      </trkpt>
      <trkpt lat="43.97875" lon="5.89165">
        <ele>603</ele>
        <time>2020-10-05T15:46:12.988Z</time>
      </trkpt>
      <trkpt lat="43.97874" lon="5.89166">
        <ele>603</ele>
        <time>2020-10-05T15:46:13.988Z</time>
      </trkpt>
      <trkpt lat="43.97872" lon="5.89167">
        <ele>603</ele>
        <time>2020-10-05T15:46:14.988Z</time>
      </trkpt>
      <trkpt lat="43.97871" lon="5.89167">
        <ele>603</ele>
        <time>2020-10-05T15:46:15.988Z</time>
      </trkpt>
      <trkpt lat="43.9787" lon="5.89167">
        <ele>603</ele>
        <time>2020-10-05T15:46:16.988Z</time>
      </trkpt>
      <trkpt lat="43.97869" lon="5.89166">
        <ele>603</ele>
        <time>2020-10-05T15:46:17.988Z</time>
      </trkpt>
      <trkpt lat="43.97867" lon="5.89166">
        <ele>603</ele>
        <time>2020-10-05T15:46:18.988Z</time>
      </trkpt>
      <trkpt lat="43.97866" lon="5.89166">
        <ele>603</ele>
        <time>2020-10-05T15:46:19.988Z</time>
      </trkpt>
      <trkpt lat="43.97865" lon="5.89165">
        <ele>603</ele>
        <time>2020-10-05T15:46:20.988Z</time>
      </trkpt>
      <trkpt lat="43.97864" lon="5.89165">
        <ele>603</ele>
        <time>2020-10-05T15:46:21.988Z</time>
      </trkpt>
      <trkpt lat="43.97863" lon="5.89165">
        <ele>603</ele>
        <time>2020-10-05T15:46:22.988Z</time>
      </trkpt>
      <trkpt lat="43.97862" lon="5.89165">
        <ele>603</ele>
        <time>2020-10-05T15:46:23.988Z</time>
      </trkpt>
      <trkpt lat="43.97861" lon="5.89165">
        <ele>603</ele>
        <time>2020-10-05T15:46:24.988Z</time>
      </trkpt>
      <trkpt lat="43.9786" lon="5.89164">
        <ele>603</ele>
        <time>2020-10-05T15:46:25.988Z</time>
      </trkpt>
      <trkpt lat="43.97859" lon="5.89164">
        <ele>603</ele>
        <time>2020-10-05T15:46:26.988Z</time>
      </trkpt>
      <trkpt lat="43.97857" lon="5.89164">
        <ele>603</ele>
        <time>2020-10-05T15:46:27.988Z</time>
      </trkpt>
      <trkpt lat="43.97856" lon="5.89163">
        <ele>603</ele>
        <time>2020-10-05T15:46:28.988Z</time>
      </trkpt>
      <trkpt lat="43.97855" lon="5.89163">
        <ele>603</ele>
        <time>2020-10-05T15:46:29.988Z</time>
      </trkpt>
      <trkpt lat="43.97854" lon="5.89162">
        <ele>603</ele>
        <time>2020-10-05T15:46:30.988Z</time>
      </trkpt>
      <trkpt lat="43.97853" lon="5.89162">
        <ele>603</ele>
        <time>2020-10-05T15:46:31.988Z</time>
      </trkpt>
      <trkpt lat="43.97852" lon="5.89162">
        <ele>603</ele>
        <time>2020-10-05T15:46:32.988Z</time>
      </trkpt>
      <trkpt lat="43.97851" lon="5.89161">
        <ele>603</ele>
        <time>2020-10-05T15:46:33.988Z</time>
      </trkpt>
      <trkpt lat="43.9785" lon="5.89161">
        <ele>603</ele>
        <time>2020-10-05T15:46:34.988Z</time>
      </trkpt>
      <trkpt lat="43.97849" lon="5.8916">
        <ele>603</ele>
        <time>2020-10-05T15:46:35.988Z</time>
      </trkpt>
      <trkpt lat="43.97847" lon="5.8916">
        <ele>603</ele>
        <time>2020-10-05T15:46:36.988Z</time>
      </trkpt>
      <trkpt lat="43.97847" lon="5.89159">
        <ele>603</ele>
        <time>2020-10-05T15:46:37.988Z</time>
      </trkpt>
      <trkpt lat="43.97846" lon="5.89158">
        <ele>603</ele>
        <time>2020-10-05T15:46:38.988Z</time>
      </trkpt>
      <trkpt lat="43.97845" lon="5.89157">
        <ele>603</ele>
        <time>2020-10-05T15:46:39.988Z</time>
      </trkpt>
      <trkpt lat="43.97843" lon="5.89156">
        <ele>602</ele>
        <time>2020-10-05T15:46:40.988Z</time>
      </trkpt>
      <trkpt lat="43.97842" lon="5.89155">
        <ele>602</ele>
        <time>2020-10-05T15:46:41.988Z</time>
      </trkpt>
      <trkpt lat="43.97841" lon="5.89155">
        <ele>602</ele>
        <time>2020-10-05T15:46:42.988Z</time>
      </trkpt>
      <trkpt lat="43.97839" lon="5.89155">
        <ele>602</ele>
        <time>2020-10-05T15:46:43.988Z</time>
      </trkpt>
      <trkpt lat="43.97838" lon="5.89156">
        <ele>602</ele>
        <time>2020-10-05T15:46:44.988Z</time>
      </trkpt>
      <trkpt lat="43.97837" lon="5.89156">
        <ele>602</ele>
        <time>2020-10-05T15:46:45.988Z</time>
      </trkpt>
      <trkpt lat="43.97836" lon="5.89156">
        <ele>602</ele>
        <time>2020-10-05T15:46:46.988Z</time>
      </trkpt>
      <trkpt lat="43.97835" lon="5.89156">
        <ele>602</ele>
        <time>2020-10-05T15:46:47.988Z</time>
      </trkpt>
      <trkpt lat="43.97834" lon="5.89156">
        <ele>602</ele>
        <time>2020-10-05T15:46:48.988Z</time>
      </trkpt>
      <trkpt lat="43.97832" lon="5.89157">
        <ele>602</ele>
        <time>2020-10-05T15:46:49.988Z</time>
      </trkpt>
      <trkpt lat="43.97831" lon="5.89156">
        <ele>602</ele>
        <time>2020-10-05T15:46:50.988Z</time>
      </trkpt>
      <trkpt lat="43.9783" lon="5.89156">
        <ele>602</ele>
        <time>2020-10-05T15:46:51.988Z</time>
      </trkpt>
      <trkpt lat="43.97829" lon="5.89157">
        <ele>602</ele>
        <time>2020-10-05T15:46:52.988Z</time>
      </trkpt>
      <trkpt lat="43.97827" lon="5.89157">
        <ele>602</ele>
        <time>2020-10-05T15:46:53.988Z</time>
      </trkpt>
      <trkpt lat="43.97826" lon="5.89158">
        <ele>602</ele>
        <time>2020-10-05T15:46:54.988Z</time>
      </trkpt>
      <trkpt lat="43.97825" lon="5.89158">
        <ele>602</ele>
        <time>2020-10-05T15:46:55.988Z</time>
      </trkpt>
      <trkpt lat="43.97824" lon="5.89157">
        <ele>602</ele>
        <time>2020-10-05T15:46:56.988Z</time>
      </trkpt>
      <trkpt lat="43.97823" lon="5.89157">
        <ele>602</ele>
        <time>2020-10-05T15:46:57.988Z</time>
      </trkpt>
      <trkpt lat="43.97822" lon="5.89157">
        <ele>602</ele>
        <time>2020-10-05T15:46:58.988Z</time>
      </trkpt>
      <trkpt lat="43.97821" lon="5.89157">
        <ele>602</ele>
        <time>2020-10-05T15:46:59.988Z</time>
      </trkpt>
      <trkpt lat="43.9782" lon="5.89157">
        <ele>602</ele>
        <time>2020-10-05T15:47:00.988Z</time>
      </trkpt>
      <trkpt lat="43.97819" lon="5.89157">
        <ele>602</ele>
        <time>2020-10-05T15:47:01.988Z</time>
      </trkpt>
      <trkpt lat="43.97818" lon="5.89157">
        <ele>602</ele>
        <time>2020-10-05T15:47:02.988Z</time>
      </trkpt>
      <trkpt lat="43.97817" lon="5.89157">
        <ele>602</ele>
        <time>2020-10-05T15:47:03.988Z</time>
      </trkpt>
      <trkpt lat="43.97816" lon="5.89156">
        <ele>602</ele>
        <time>2020-10-05T15:47:04.988Z</time>
      </trkpt>
      <trkpt lat="43.97815" lon="5.89156">
        <ele>602</ele>
        <time>2020-10-05T15:47:05.988Z</time>
      </trkpt>
      <trkpt lat="43.97814" lon="5.89156">
        <ele>602</ele>
        <time>2020-10-05T15:47:06.988Z</time>
      </trkpt>
      <trkpt lat="43.97812" lon="5.89155">
        <ele>602</ele>
        <time>2020-10-05T15:47:07.988Z</time>
      </trkpt>
      <trkpt lat="43.97811" lon="5.89155">
        <ele>602</ele>
        <time>2020-10-05T15:47:08.988Z</time>
      </trkpt>
      <trkpt lat="43.9781" lon="5.89155">
        <ele>602</ele>
        <time>2020-10-05T15:47:09.988Z</time>
      </trkpt>
      <trkpt lat="43.97809" lon="5.89154">
        <ele>602</ele>
        <time>2020-10-05T15:47:10.988Z</time>
      </trkpt>
      <trkpt lat="43.97807" lon="5.89154">
        <ele>602</ele>
        <time>2020-10-05T15:47:11.988Z</time>
      </trkpt>
      <trkpt lat="43.97806" lon="5.89154">
        <ele>602</ele>
        <time>2020-10-05T15:47:12.988Z</time>
      </trkpt>
      <trkpt lat="43.97805" lon="5.89153">
        <ele>602</ele>
        <time>2020-10-05T15:47:13.988Z</time>
      </trkpt>
      <trkpt lat="43.97804" lon="5.89153">
        <ele>602</ele>
        <time>2020-10-05T15:47:14.988Z</time>
      </trkpt>
      <trkpt lat="43.97803" lon="5.89152">
        <ele>602</ele>
        <time>2020-10-05T15:47:15.988Z</time>
      </trkpt>
      <trkpt lat="43.97802" lon="5.89151">
        <ele>601</ele>
        <time>2020-10-05T15:47:16.988Z</time>
      </trkpt>
      <trkpt lat="43.97801" lon="5.89151">
        <ele>601</ele>
        <time>2020-10-05T15:47:17.988Z</time>
      </trkpt>
      <trkpt lat="43.978" lon="5.8915">
        <ele>601</ele>
        <time>2020-10-05T15:47:18.988Z</time>
      </trkpt>
      <trkpt lat="43.97799" lon="5.8915">
        <ele>601</ele>
        <time>2020-10-05T15:47:19.988Z</time>
      </trkpt>
      <trkpt lat="43.97798" lon="5.89149">
        <ele>601</ele>
        <time>2020-10-05T15:47:20.988Z</time>
      </trkpt>
      <trkpt lat="43.97798" lon="5.89148">
        <ele>601</ele>
        <time>2020-10-05T15:47:21.988Z</time>
      </trkpt>
      <trkpt lat="43.97797" lon="5.89147">
        <ele>601</ele>
        <time>2020-10-05T15:47:22.988Z</time>
      </trkpt>
      <trkpt lat="43.97796" lon="5.89146">
        <ele>601</ele>
        <time>2020-10-05T15:47:23.988Z</time>
      </trkpt>
      <trkpt lat="43.97795" lon="5.89145">
        <ele>601</ele>
        <time>2020-10-05T15:47:24.988Z</time>
      </trkpt>
      <trkpt lat="43.97794" lon="5.89145">
        <ele>601</ele>
        <time>2020-10-05T15:47:25.988Z</time>
      </trkpt>
      <trkpt lat="43.97793" lon="5.89145">
        <ele>600</ele>
        <time>2020-10-05T15:47:26.988Z</time>
      </trkpt>
      <trkpt lat="43.97792" lon="5.89144">
        <ele>600</ele>
        <time>2020-10-05T15:47:27.988Z</time>
      </trkpt>
      <trkpt lat="43.97791" lon="5.89144">
        <ele>600</ele>
        <time>2020-10-05T15:47:28.988Z</time>
      </trkpt>
      <trkpt lat="43.97789" lon="5.89145">
        <ele>600</ele>
        <time>2020-10-05T15:47:29.988Z</time>
      </trkpt>
      <trkpt lat="43.97788" lon="5.89145">
        <ele>600</ele>
        <time>2020-10-05T15:47:30.988Z</time>
      </trkpt>
      <trkpt lat="43.97787" lon="5.89146">
        <ele>600</ele>
        <time>2020-10-05T15:47:31.988Z</time>
      </trkpt>
      <trkpt lat="43.97786" lon="5.89146">
        <ele>600</ele>
        <time>2020-10-05T15:47:32.988Z</time>
      </trkpt>
      <trkpt lat="43.97785" lon="5.89146">
        <ele>600</ele>
        <time>2020-10-05T15:47:33.988Z</time>
      </trkpt>
      <trkpt lat="43.97783" lon="5.89147">
        <ele>600</ele>
        <time>2020-10-05T15:47:34.988Z</time>
      </trkpt>
      <trkpt lat="43.97782" lon="5.89147">
        <ele>601</ele>
        <time>2020-10-05T15:47:35.988Z</time>
      </trkpt>
      <trkpt lat="43.9778" lon="5.89147">
        <ele>601</ele>
        <time>2020-10-05T15:47:36.988Z</time>
      </trkpt>
      <trkpt lat="43.97779" lon="5.89147">
        <ele>601</ele>
        <time>2020-10-05T15:47:37.988Z</time>
      </trkpt>
      <trkpt lat="43.97778" lon="5.89147">
        <ele>601</ele>
        <time>2020-10-05T15:47:38.988Z</time>
      </trkpt>
      <trkpt lat="43.97777" lon="5.89147">
        <ele>601</ele>
        <time>2020-10-05T15:47:39.988Z</time>
      </trkpt>
      <trkpt lat="43.97776" lon="5.89147">
        <ele>601</ele>
        <time>2020-10-05T15:47:40.988Z</time>
      </trkpt>
      <trkpt lat="43.97775" lon="5.89147">
        <ele>601</ele>
        <time>2020-10-05T15:47:41.988Z</time>
      </trkpt>
      <trkpt lat="43.97774" lon="5.89146">
        <ele>601</ele>
        <time>2020-10-05T15:47:42.988Z</time>
      </trkpt>
      <trkpt lat="43.97773" lon="5.89146">
        <ele>601</ele>
        <time>2020-10-05T15:47:43.988Z</time>
      </trkpt>
      <trkpt lat="43.97772" lon="5.89145">
        <ele>601</ele>
        <time>2020-10-05T15:47:44.988Z</time>
      </trkpt>
      <trkpt lat="43.97771" lon="5.89145">
        <ele>601</ele>
        <time>2020-10-05T15:47:45.988Z</time>
      </trkpt>
      <trkpt lat="43.9777" lon="5.89144">
        <ele>601</ele>
        <time>2020-10-05T15:47:46.988Z</time>
      </trkpt>
      <trkpt lat="43.97769" lon="5.89143">
        <ele>601</ele>
        <time>2020-10-05T15:47:47.988Z</time>
      </trkpt>
      <trkpt lat="43.97768" lon="5.89143">
        <ele>601</ele>
        <time>2020-10-05T15:47:48.988Z</time>
      </trkpt>
      <trkpt lat="43.97767" lon="5.89142">
        <ele>601</ele>
        <time>2020-10-05T15:47:49.988Z</time>
      </trkpt>
      <trkpt lat="43.97766" lon="5.89142">
        <ele>601</ele>
        <time>2020-10-05T15:47:50.988Z</time>
      </trkpt>
      <trkpt lat="43.97765" lon="5.89142">
        <ele>601</ele>
        <time>2020-10-05T15:47:51.988Z</time>
      </trkpt>
      <trkpt lat="43.97764" lon="5.89141">
        <ele>601</ele>
        <time>2020-10-05T15:47:52.988Z</time>
      </trkpt>
      <trkpt lat="43.97764" lon="5.89141">
        <ele>601</ele>
        <time>2020-10-05T15:47:53.988Z</time>
      </trkpt>
      <trkpt lat="43.97763" lon="5.8914">
        <ele>600</ele>
        <time>2020-10-05T15:47:54.988Z</time>
      </trkpt>
      <trkpt lat="43.97762" lon="5.8914">
        <ele>600</ele>
        <time>2020-10-05T15:47:55.988Z</time>
      </trkpt>
      <trkpt lat="43.97762" lon="5.89139">
        <ele>600</ele>
        <time>2020-10-05T15:47:56.988Z</time>
      </trkpt>
      <trkpt lat="43.97761" lon="5.89139">
        <ele>600</ele>
        <time>2020-10-05T15:47:57.988Z</time>
      </trkpt>
      <trkpt lat="43.9776" lon="5.89138">
        <ele>600</ele>
        <time>2020-10-05T15:47:58.988Z</time>
      </trkpt>
      <trkpt lat="43.97759" lon="5.89138">
        <ele>600</ele>
        <time>2020-10-05T15:47:59.988Z</time>
      </trkpt>
      <trkpt lat="43.97758" lon="5.89137">
        <ele>599</ele>
        <time>2020-10-05T15:48:00.988Z</time>
      </trkpt>
      <trkpt lat="43.97758" lon="5.89137">
        <ele>599</ele>
        <time>2020-10-05T15:48:01.988Z</time>
      </trkpt>
      <trkpt lat="43.97757" lon="5.89137">
        <ele>599</ele>
        <time>2020-10-05T15:48:02.988Z</time>
      </trkpt>
      <trkpt lat="43.97757" lon="5.89136">
        <ele>599</ele>
        <time>2020-10-05T15:48:03.988Z</time>
      </trkpt>
      <trkpt lat="43.97756" lon="5.89136">
        <ele>599</ele>
        <time>2020-10-05T15:48:04.988Z</time>
      </trkpt>
      <trkpt lat="43.97756" lon="5.89136">
        <ele>599</ele>
        <time>2020-10-05T15:48:05.988Z</time>
      </trkpt>
      <trkpt lat="43.97755" lon="5.89136">
        <ele>599</ele>
        <time>2020-10-05T15:48:06.988Z</time>
      </trkpt>
      <trkpt lat="43.97754" lon="5.89136">
        <ele>599</ele>
        <time>2020-10-05T15:48:07.988Z</time>
      </trkpt>
      <trkpt lat="43.97752" lon="5.89136">
        <ele>599</ele>
        <time>2020-10-05T15:48:08.988Z</time>
      </trkpt>
      <trkpt lat="43.97751" lon="5.89136">
        <ele>599</ele>
        <time>2020-10-05T15:48:09.988Z</time>
      </trkpt>
      <trkpt lat="43.9775" lon="5.89137">
        <ele>599</ele>
        <time>2020-10-05T15:48:10.988Z</time>
      </trkpt>
      <trkpt lat="43.97749" lon="5.89137">
        <ele>599</ele>
        <time>2020-10-05T15:48:11.988Z</time>
      </trkpt>
      <trkpt lat="43.97748" lon="5.89137">
        <ele>599</ele>
        <time>2020-10-05T15:48:12.988Z</time>
      </trkpt>
      <trkpt lat="43.97747" lon="5.89137">
        <ele>599</ele>
        <time>2020-10-05T15:48:13.988Z</time>
      </trkpt>
      <trkpt lat="43.97746" lon="5.89137">
        <ele>599</ele>
        <time>2020-10-05T15:48:14.988Z</time>
      </trkpt>
      <trkpt lat="43.97745" lon="5.89136">
        <ele>598</ele>
        <time>2020-10-05T15:48:15.988Z</time>
      </trkpt>
      <trkpt lat="43.97745" lon="5.89136">
        <ele>598</ele>
        <time>2020-10-05T15:48:16.988Z</time>
      </trkpt>
      <trkpt lat="43.97744" lon="5.89136">
        <ele>598</ele>
        <time>2020-10-05T15:48:17.988Z</time>
      </trkpt>
      <trkpt lat="43.97743" lon="5.89135">
        <ele>598</ele>
        <time>2020-10-05T15:48:18.988Z</time>
      </trkpt>
      <trkpt lat="43.97741" lon="5.89135">
        <ele>598</ele>
        <time>2020-10-05T15:48:19.988Z</time>
      </trkpt>
      <trkpt lat="43.9774" lon="5.89135">
        <ele>598</ele>
        <time>2020-10-05T15:48:20.988Z</time>
      </trkpt>
      <trkpt lat="43.97738" lon="5.89136">
        <ele>598</ele>
        <time>2020-10-05T15:48:21.988Z</time>
      </trkpt>
      <trkpt lat="43.97736" lon="5.89136">
        <ele>598</ele>
        <time>2020-10-05T15:48:22.988Z</time>
      </trkpt>
      <trkpt lat="43.97735" lon="5.89136">
        <ele>598</ele>
        <time>2020-10-05T15:48:23.988Z</time>
      </trkpt>
      <trkpt lat="43.97734" lon="5.89136">
        <ele>598</ele>
        <time>2020-10-05T15:48:24.988Z</time>
      </trkpt>
      <trkpt lat="43.97733" lon="5.89135">
        <ele>598</ele>
        <time>2020-10-05T15:48:25.988Z</time>
      </trkpt>
      <trkpt lat="43.97731" lon="5.89135">
        <ele>598</ele>
        <time>2020-10-05T15:48:26.988Z</time>
      </trkpt>
      <trkpt lat="43.9773" lon="5.89135">
        <ele>598</ele>
        <time>2020-10-05T15:48:27.988Z</time>
      </trkpt>
      <trkpt lat="43.97729" lon="5.89134">
        <ele>598</ele>
        <time>2020-10-05T15:48:28.988Z</time>
      </trkpt>
      <trkpt lat="43.97727" lon="5.89134">
        <ele>598</ele>
        <time>2020-10-05T15:48:29.988Z</time>
      </trkpt>
      <trkpt lat="43.97726" lon="5.89134">
        <ele>598</ele>
        <time>2020-10-05T15:48:30.988Z</time>
      </trkpt>
      <trkpt lat="43.97725" lon="5.89133">
        <ele>598</ele>
        <time>2020-10-05T15:48:31.988Z</time>
      </trkpt>
      <trkpt lat="43.97724" lon="5.89133">
        <ele>598</ele>
        <time>2020-10-05T15:48:32.988Z</time>
      </trkpt>
      <trkpt lat="43.97723" lon="5.89132">
        <ele>598</ele>
        <time>2020-10-05T15:48:33.988Z</time>
      </trkpt>
      <trkpt lat="43.97722" lon="5.89131">
        <ele>598</ele>
        <time>2020-10-05T15:48:34.988Z</time>
      </trkpt>
      <trkpt lat="43.97721" lon="5.8913">
        <ele>597</ele>
        <time>2020-10-05T15:48:35.988Z</time>
      </trkpt>
      <trkpt lat="43.9772" lon="5.8913">
        <ele>597</ele>
        <time>2020-10-05T15:48:36.988Z</time>
      </trkpt>
      <trkpt lat="43.97719" lon="5.89129">
        <ele>597</ele>
        <time>2020-10-05T15:48:37.988Z</time>
      </trkpt>
      <trkpt lat="43.97717" lon="5.89129">
        <ele>597</ele>
        <time>2020-10-05T15:48:38.988Z</time>
      </trkpt>
      <trkpt lat="43.97717" lon="5.89129">
        <ele>597</ele>
        <time>2020-10-05T15:48:39.988Z</time>
      </trkpt>
      <trkpt lat="43.97716" lon="5.89128">
        <ele>597</ele>
        <time>2020-10-05T15:48:40.988Z</time>
      </trkpt>
      <trkpt lat="43.97715" lon="5.89127">
        <ele>596</ele>
        <time>2020-10-05T15:48:41.988Z</time>
      </trkpt>
      <trkpt lat="43.97713" lon="5.89127">
        <ele>596</ele>
        <time>2020-10-05T15:48:42.988Z</time>
      </trkpt>
      <trkpt lat="43.97712" lon="5.89126">
        <ele>596</ele>
        <time>2020-10-05T15:48:43.988Z</time>
      </trkpt>
      <trkpt lat="43.97711" lon="5.89125">
        <ele>596</ele>
        <time>2020-10-05T15:48:44.988Z</time>
      </trkpt>
      <trkpt lat="43.9771" lon="5.89124">
        <ele>596</ele>
        <time>2020-10-05T15:48:45.988Z</time>
      </trkpt>
      <trkpt lat="43.97709" lon="5.89123">
        <ele>595</ele>
        <time>2020-10-05T15:48:46.988Z</time>
      </trkpt>
      <trkpt lat="43.97708" lon="5.89122">
        <ele>595</ele>
        <time>2020-10-05T15:48:47.988Z</time>
      </trkpt>
      <trkpt lat="43.97707" lon="5.89121">
        <ele>595</ele>
        <time>2020-10-05T15:48:48.988Z</time>
      </trkpt>
      <trkpt lat="43.97706" lon="5.89121">
        <ele>595</ele>
        <time>2020-10-05T15:48:49.988Z</time>
      </trkpt>
      <trkpt lat="43.97705" lon="5.89121">
        <ele>595</ele>
        <time>2020-10-05T15:48:50.988Z</time>
      </trkpt>
      <trkpt lat="43.97703" lon="5.8912">
        <ele>595</ele>
        <time>2020-10-05T15:48:51.988Z</time>
      </trkpt>
      <trkpt lat="43.97702" lon="5.8912">
        <ele>595</ele>
        <time>2020-10-05T15:48:52.988Z</time>
      </trkpt>
      <trkpt lat="43.97701" lon="5.8912">
        <ele>595</ele>
        <time>2020-10-05T15:48:53.988Z</time>
      </trkpt>
      <trkpt lat="43.977" lon="5.89119">
        <ele>594</ele>
        <time>2020-10-05T15:48:54.988Z</time>
      </trkpt>
      <trkpt lat="43.97699" lon="5.89119">
        <ele>594</ele>
        <time>2020-10-05T15:48:55.988Z</time>
      </trkpt>
      <trkpt lat="43.97698" lon="5.89119">
        <ele>594</ele>
        <time>2020-10-05T15:48:56.988Z</time>
      </trkpt>
      <trkpt lat="43.97697" lon="5.89119">
        <ele>594</ele>
        <time>2020-10-05T15:48:57.988Z</time>
      </trkpt>
      <trkpt lat="43.97696" lon="5.89118">
        <ele>594</ele>
        <time>2020-10-05T15:48:58.988Z</time>
      </trkpt>
      <trkpt lat="43.97695" lon="5.89118">
        <ele>594</ele>
        <time>2020-10-05T15:48:59.988Z</time>
      </trkpt>
      <trkpt lat="43.97694" lon="5.89117">
        <ele>594</ele>
        <time>2020-10-05T15:49:00.988Z</time>
      </trkpt>
      <trkpt lat="43.97693" lon="5.89117">
        <ele>594</ele>
        <time>2020-10-05T15:49:01.988Z</time>
      </trkpt>
      <trkpt lat="43.97692" lon="5.89117">
        <ele>594</ele>
        <time>2020-10-05T15:49:02.988Z</time>
      </trkpt>
      <trkpt lat="43.9769" lon="5.89117">
        <ele>594</ele>
        <time>2020-10-05T15:49:03.988Z</time>
      </trkpt>
      <trkpt lat="43.97689" lon="5.89117">
        <ele>594</ele>
        <time>2020-10-05T15:49:04.988Z</time>
      </trkpt>
      <trkpt lat="43.97688" lon="5.89117">
        <ele>594</ele>
        <time>2020-10-05T15:49:05.988Z</time>
      </trkpt>
      <trkpt lat="43.97686" lon="5.89117">
        <ele>594</ele>
        <time>2020-10-05T15:49:06.988Z</time>
      </trkpt>
      <trkpt lat="43.97685" lon="5.89117">
        <ele>594</ele>
        <time>2020-10-05T15:49:07.988Z</time>
      </trkpt>
      <trkpt lat="43.97684" lon="5.89116">
        <ele>594</ele>
        <time>2020-10-05T15:49:08.988Z</time>
      </trkpt>
      <trkpt lat="43.97683" lon="5.89116">
        <ele>594</ele>
        <time>2020-10-05T15:49:09.988Z</time>
      </trkpt>
      <trkpt lat="43.97682" lon="5.89116">
        <ele>594</ele>
        <time>2020-10-05T15:49:10.988Z</time>
      </trkpt>
      <trkpt lat="43.97681" lon="5.89115">
        <ele>594</ele>
        <time>2020-10-05T15:49:11.988Z</time>
      </trkpt>
      <trkpt lat="43.9768" lon="5.89114">
        <ele>594</ele>
        <time>2020-10-05T15:49:12.988Z</time>
      </trkpt>
      <trkpt lat="43.97679" lon="5.89113">
        <ele>594</ele>
        <time>2020-10-05T15:49:13.988Z</time>
      </trkpt>
      <trkpt lat="43.97678" lon="5.89113">
        <ele>594</ele>
        <time>2020-10-05T15:49:14.988Z</time>
      </trkpt>
      <trkpt lat="43.97677" lon="5.89113">
        <ele>594</ele>
        <time>2020-10-05T15:49:15.988Z</time>
      </trkpt>
      <trkpt lat="43.97676" lon="5.89113">
        <ele>594</ele>
        <time>2020-10-05T15:49:16.988Z</time>
      </trkpt>
      <trkpt lat="43.97675" lon="5.89112">
        <ele>593</ele>
        <time>2020-10-05T15:49:17.988Z</time>
      </trkpt>
      <trkpt lat="43.97674" lon="5.89112">
        <ele>593</ele>
        <time>2020-10-05T15:49:18.988Z</time>
      </trkpt>
      <trkpt lat="43.97673" lon="5.89111">
        <ele>593</ele>
        <time>2020-10-05T15:49:19.988Z</time>
      </trkpt>
      <trkpt lat="43.97672" lon="5.89111">
        <ele>593</ele>
        <time>2020-10-05T15:49:20.988Z</time>
      </trkpt>
      <trkpt lat="43.97671" lon="5.89111">
        <ele>593</ele>
        <time>2020-10-05T15:49:21.988Z</time>
      </trkpt>
      <trkpt lat="43.9767" lon="5.8911">
        <ele>593</ele>
        <time>2020-10-05T15:49:22.988Z</time>
      </trkpt>
      <trkpt lat="43.97668" lon="5.8911">
        <ele>593</ele>
        <time>2020-10-05T15:49:23.988Z</time>
      </trkpt>
      <trkpt lat="43.97667" lon="5.89109">
        <ele>593</ele>
        <time>2020-10-05T15:49:24.988Z</time>
      </trkpt>
      <trkpt lat="43.97666" lon="5.89109">
        <ele>592</ele>
        <time>2020-10-05T15:49:25.988Z</time>
      </trkpt>
      <trkpt lat="43.97665" lon="5.89108">
        <ele>592</ele>
        <time>2020-10-05T15:49:26.988Z</time>
      </trkpt>
      <trkpt lat="43.97664" lon="5.89108">
        <ele>592</ele>
        <time>2020-10-05T15:49:27.988Z</time>
      </trkpt>
      <trkpt lat="43.97663" lon="5.89107">
        <ele>592</ele>
        <time>2020-10-05T15:49:28.988Z</time>
      </trkpt>
      <trkpt lat="43.97662" lon="5.89106">
        <ele>592</ele>
        <time>2020-10-05T15:49:29.988Z</time>
      </trkpt>
      <trkpt lat="43.97661" lon="5.89106">
        <ele>592</ele>
        <time>2020-10-05T15:49:30.988Z</time>
      </trkpt>
      <trkpt lat="43.9766" lon="5.89105">
        <ele>592</ele>
        <time>2020-10-05T15:49:31.988Z</time>
      </trkpt>
      <trkpt lat="43.97659" lon="5.89105">
        <ele>592</ele>
        <time>2020-10-05T15:49:32.988Z</time>
      </trkpt>
      <trkpt lat="43.97658" lon="5.89104">
        <ele>592</ele>
        <time>2020-10-05T15:49:33.988Z</time>
      </trkpt>
      <trkpt lat="43.97658" lon="5.89103">
        <ele>591</ele>
        <time>2020-10-05T15:49:34.988Z</time>
      </trkpt>
      <trkpt lat="43.97657" lon="5.89102">
        <ele>591</ele>
        <time>2020-10-05T15:49:35.988Z</time>
      </trkpt>
      <trkpt lat="43.97656" lon="5.89102">
        <ele>591</ele>
        <time>2020-10-05T15:49:36.988Z</time>
      </trkpt>
      <trkpt lat="43.97655" lon="5.89101">
        <ele>591</ele>
        <time>2020-10-05T15:49:37.988Z</time>
      </trkpt>
      <trkpt lat="43.97654" lon="5.89101">
        <ele>591</ele>
        <time>2020-10-05T15:49:38.988Z</time>
      </trkpt>
      <trkpt lat="43.97653" lon="5.891">
        <ele>591</ele>
        <time>2020-10-05T15:49:39.988Z</time>
      </trkpt>
      <trkpt lat="43.97651" lon="5.891">
        <ele>591</ele>
        <time>2020-10-05T15:49:40.988Z</time>
      </trkpt>
      <trkpt lat="43.9765" lon="5.891">
        <ele>591</ele>
        <time>2020-10-05T15:49:41.988Z</time>
      </trkpt>
      <trkpt lat="43.97649" lon="5.891">
        <ele>591</ele>
        <time>2020-10-05T15:49:42.988Z</time>
      </trkpt>
      <trkpt lat="43.97648" lon="5.89099">
        <ele>591</ele>
        <time>2020-10-05T15:49:43.988Z</time>
      </trkpt>
      <trkpt lat="43.97647" lon="5.89099">
        <ele>591</ele>
        <time>2020-10-05T15:49:44.988Z</time>
      </trkpt>
      <trkpt lat="43.97645" lon="5.89099">
        <ele>591</ele>
        <time>2020-10-05T15:49:45.988Z</time>
      </trkpt>
      <trkpt lat="43.97644" lon="5.89099">
        <ele>591</ele>
        <time>2020-10-05T15:49:46.988Z</time>
      </trkpt>
      <trkpt lat="43.97643" lon="5.89099">
        <ele>591</ele>
        <time>2020-10-05T15:49:47.988Z</time>
      </trkpt>
      <trkpt lat="43.97642" lon="5.89098">
        <ele>591</ele>
        <time>2020-10-05T15:49:48.988Z</time>
      </trkpt>
      <trkpt lat="43.97641" lon="5.89098">
        <ele>590</ele>
        <time>2020-10-05T15:49:49.988Z</time>
      </trkpt>
      <trkpt lat="43.97639" lon="5.89097">
        <ele>590</ele>
        <time>2020-10-05T15:49:50.988Z</time>
      </trkpt>
      <trkpt lat="43.97638" lon="5.89096">
        <ele>590</ele>
        <time>2020-10-05T15:49:51.988Z</time>
      </trkpt>
      <trkpt lat="43.97638" lon="5.89095">
        <ele>590</ele>
        <time>2020-10-05T15:49:52.988Z</time>
      </trkpt>
      <trkpt lat="43.97637" lon="5.89094">
        <ele>590</ele>
        <time>2020-10-05T15:49:53.988Z</time>
      </trkpt>
      <trkpt lat="43.97636" lon="5.89094">
        <ele>590</ele>
        <time>2020-10-05T15:49:54.988Z</time>
      </trkpt>
      <trkpt lat="43.97635" lon="5.89093">
        <ele>590</ele>
        <time>2020-10-05T15:49:55.988Z</time>
      </trkpt>
      <trkpt lat="43.97635" lon="5.89093">
        <ele>590</ele>
        <time>2020-10-05T15:49:56.988Z</time>
      </trkpt>
      <trkpt lat="43.97635" lon="5.89093">
        <ele>590</ele>
        <time>2020-10-05T15:49:57.988Z</time>
      </trkpt>
      <trkpt lat="43.97634" lon="5.89093">
        <ele>590</ele>
        <time>2020-10-05T15:49:58.988Z</time>
      </trkpt>
      <trkpt lat="43.97634" lon="5.89093">
        <ele>590</ele>
        <time>2020-10-05T15:49:59.988Z</time>
      </trkpt>
      <trkpt lat="43.97634" lon="5.89093">
        <ele>590</ele>
        <time>2020-10-05T15:50:00.988Z</time>
      </trkpt>
      <trkpt lat="43.97634" lon="5.89093">
        <ele>590</ele>
        <time>2020-10-05T15:50:01.988Z</time>
      </trkpt>
      <trkpt lat="43.97634" lon="5.89093">
        <ele>590</ele>
        <time>2020-10-05T15:50:02.988Z</time>
      </trkpt>
      <trkpt lat="43.97633" lon="5.89092">
        <ele>590</ele>
        <time>2020-10-05T15:50:03.988Z</time>
      </trkpt>
      <trkpt lat="43.97633" lon="5.89092">
        <ele>590</ele>
        <time>2020-10-05T15:50:04.988Z</time>
      </trkpt>
      <trkpt lat="43.97633" lon="5.89092">
        <ele>590</ele>
        <time>2020-10-05T15:50:05.988Z</time>
      </trkpt>
      <trkpt lat="43.97633" lon="5.89092">
        <ele>589</ele>
        <time>2020-10-05T15:50:06.988Z</time>
      </trkpt>
      <trkpt lat="43.97632" lon="5.89092">
        <ele>589</ele>
        <time>2020-10-05T15:50:07.988Z</time>
      </trkpt>
      <trkpt lat="43.97631" lon="5.89091">
        <ele>589</ele>
        <time>2020-10-05T15:50:08.988Z</time>
      </trkpt>
      <trkpt lat="43.9763" lon="5.89091">
        <ele>589</ele>
        <time>2020-10-05T15:50:09.988Z</time>
      </trkpt>
      <trkpt lat="43.97629" lon="5.89091">
        <ele>589</ele>
        <time>2020-10-05T15:50:10.988Z</time>
      </trkpt>
      <trkpt lat="43.97628" lon="5.8909">
        <ele>589</ele>
        <time>2020-10-05T15:50:11.988Z</time>
      </trkpt>
      <trkpt lat="43.97628" lon="5.8909">
        <ele>589</ele>
        <time>2020-10-05T15:50:12.988Z</time>
      </trkpt>
      <trkpt lat="43.97627" lon="5.89089">
        <ele>589</ele>
        <time>2020-10-05T15:50:13.988Z</time>
      </trkpt>
      <trkpt lat="43.97627" lon="5.89089">
        <ele>589</ele>
        <time>2020-10-05T15:50:14.988Z</time>
      </trkpt>
      <trkpt lat="43.97627" lon="5.89089">
        <ele>589</ele>
        <time>2020-10-05T15:50:15.988Z</time>
      </trkpt>
      <trkpt lat="43.97627" lon="5.89089">
        <ele>589</ele>
        <time>2020-10-05T15:50:16.988Z</time>
      </trkpt>
      <trkpt lat="43.97627" lon="5.89089">
        <ele>589</ele>
        <time>2020-10-05T15:50:17.988Z</time>
      </trkpt>
      <trkpt lat="43.97627" lon="5.89089">
        <ele>589</ele>
        <time>2020-10-05T15:50:18.988Z</time>
      </trkpt>
      <trkpt lat="43.97626" lon="5.89089">
        <ele>589</ele>
        <time>2020-10-05T15:50:19.988Z</time>
      </trkpt>
      <trkpt lat="43.97626" lon="5.89089">
        <ele>589</ele>
        <time>2020-10-05T15:50:20.988Z</time>
      </trkpt>
      <trkpt lat="43.97626" lon="5.89089">
        <ele>589</ele>
        <time>2020-10-05T15:50:21.988Z</time>
      </trkpt>
      <trkpt lat="43.97626" lon="5.89089">
        <ele>589</ele>
        <time>2020-10-05T15:50:22.988Z</time>
      </trkpt>
      <trkpt lat="43.97626" lon="5.89089">
        <ele>589</ele>
        <time>2020-10-05T15:50:23.988Z</time>
      </trkpt>
      <trkpt lat="43.97626" lon="5.89089">
        <ele>589</ele>
        <time>2020-10-05T15:50:24.988Z</time>
      </trkpt>
      <trkpt lat="43.97626" lon="5.89089">
        <ele>589</ele>
        <time>2020-10-05T15:50:25.988Z</time>
      </trkpt>
      <trkpt lat="43.97626" lon="5.89089">
        <ele>589</ele>
        <time>2020-10-05T15:50:26.988Z</time>
      </trkpt>
      <trkpt lat="43.97626" lon="5.89089">
        <ele>589</ele>
        <time>2020-10-05T15:50:27.988Z</time>
      </trkpt>
      <trkpt lat="43.97626" lon="5.89089">
        <ele>589</ele>
        <time>2020-10-05T15:50:28.988Z</time>
      </trkpt>
      <trkpt lat="43.97626" lon="5.89089">
        <ele>589</ele>
        <time>2020-10-05T15:50:29.988Z</time>
      </trkpt>
      <trkpt lat="43.97625" lon="5.89089">
        <ele>589</ele>
        <time>2020-10-05T15:50:30.988Z</time>
      </trkpt>
      <trkpt lat="43.97625" lon="5.89089">
        <ele>589</ele>
        <time>2020-10-05T15:50:31.988Z</time>
      </trkpt>
      <trkpt lat="43.97625" lon="5.89089">
        <ele>589</ele>
        <time>2020-10-05T15:50:32.988Z</time>
      </trkpt>
      <trkpt lat="43.97625" lon="5.89089">
        <ele>589</ele>
        <time>2020-10-05T15:50:33.988Z</time>
      </trkpt>
      <trkpt lat="43.97625" lon="5.89089">
        <ele>589</ele>
        <time>2020-10-05T15:50:34.988Z</time>
      </trkpt>
      <trkpt lat="43.97625" lon="5.89089">
        <ele>589</ele>
        <time>2020-10-05T15:50:35.988Z</time>
      </trkpt>
      <trkpt lat="43.97625" lon="5.89089">
        <ele>589</ele>
        <time>2020-10-05T15:50:36.988Z</time>
      </trkpt>
      <trkpt lat="43.97625" lon="5.89089">
        <ele>589</ele>
        <time>2020-10-05T15:50:37.988Z</time>
      </trkpt>
      <trkpt lat="43.97625" lon="5.89089">
        <ele>589</ele>
        <time>2020-10-05T15:50:38.988Z</time>
      </trkpt>
      <trkpt lat="43.97625" lon="5.89089">
        <ele>589</ele>
        <time>2020-10-05T15:50:39.988Z</time>
      </trkpt>
      <trkpt lat="43.97625" lon="5.89089">
        <ele>589</ele>
        <time>2020-10-05T15:50:40.988Z</time>
      </trkpt>
      <trkpt lat="43.97625" lon="5.89089">
        <ele>589</ele>
        <time>2020-10-05T15:50:41.988Z</time>
      </trkpt>
      <trkpt lat="43.97625" lon="5.89089">
        <ele>589</ele>
        <time>2020-10-05T15:50:42.988Z</time>
      </trkpt>
      <trkpt lat="43.97625" lon="5.89089">
        <ele>589</ele>
        <time>2020-10-05T15:50:43.988Z</time>
      </trkpt>
      <trkpt lat="43.97625" lon="5.89089">
        <ele>589</ele>
        <time>2020-10-05T15:50:44.988Z</time>
      </trkpt>
      <trkpt lat="43.97625" lon="5.89089">
        <ele>589</ele>
        <time>2020-10-05T15:50:45.988Z</time>
      </trkpt>
      <trkpt lat="43.97625" lon="5.89089">
        <ele>589</ele>
        <time>2020-10-05T15:50:46.988Z</time>
      </trkpt>
      <trkpt lat="43.97625" lon="5.89089">
        <ele>589</ele>
        <time>2020-10-05T15:50:47.988Z</time>
      </trkpt>
      <trkpt lat="43.97625" lon="5.89089">
        <ele>589</ele>
        <time>2020-10-05T15:50:48.988Z</time>
      </trkpt>
      <trkpt lat="43.97625" lon="5.89089">
        <ele>589</ele>
        <time>2020-10-05T15:50:49.988Z</time>
      </trkpt>
      <trkpt lat="43.97625" lon="5.89089">
        <ele>589</ele>
        <time>2020-10-05T15:50:50.988Z</time>
      </trkpt>
      <trkpt lat="43.97625" lon="5.89089">
        <ele>589</ele>
        <time>2020-10-05T15:50:51.988Z</time>
      </trkpt>
      <trkpt lat="43.97625" lon="5.89089">
        <ele>589</ele>
        <time>2020-10-05T15:50:52.988Z</time>
      </trkpt>
      <trkpt lat="43.97624" lon="5.89089">
        <ele>589</ele>
        <time>2020-10-05T15:50:53.988Z</time>
      </trkpt>
      <trkpt lat="43.97625" lon="5.89089">
        <ele>589</ele>
        <time>2020-10-05T15:50:54.988Z</time>
      </trkpt>
      <trkpt lat="43.97625" lon="5.89089">
        <ele>589</ele>
        <time>2020-10-05T15:50:55.988Z</time>
      </trkpt>
      <trkpt lat="43.97625" lon="5.89089">
        <ele>589</ele>
        <time>2020-10-05T15:50:56.988Z</time>
      </trkpt>
      <trkpt lat="43.97625" lon="5.89089">
        <ele>589</ele>
        <time>2020-10-05T15:50:57.988Z</time>
      </trkpt>
      <trkpt lat="43.97625" lon="5.89089">
        <ele>589</ele>
        <time>2020-10-05T15:50:58.988Z</time>
      </trkpt>
      <trkpt lat="43.97625" lon="5.89089">
        <ele>588</ele>
        <time>2020-10-05T15:50:59.988Z</time>
      </trkpt>
      <trkpt lat="43.97625" lon="5.89089">
        <ele>588</ele>
        <time>2020-10-05T15:51:00.988Z</time>
      </trkpt>
      <trkpt lat="43.97625" lon="5.89089">
        <ele>588</ele>
        <time>2020-10-05T15:51:01.988Z</time>
      </trkpt>
      <trkpt lat="43.97625" lon="5.89089">
        <ele>588</ele>
        <time>2020-10-05T15:51:02.988Z</time>
      </trkpt>
      <trkpt lat="43.97625" lon="5.89089">
        <ele>588</ele>
        <time>2020-10-05T15:51:03.988Z</time>
      </trkpt>
      <trkpt lat="43.97625" lon="5.89089">
        <ele>588</ele>
        <time>2020-10-05T15:51:04.988Z</time>
      </trkpt>
      <trkpt lat="43.97625" lon="5.89089">
        <ele>588</ele>
        <time>2020-10-05T15:51:05.988Z</time>
      </trkpt>
      <trkpt lat="43.97625" lon="5.89089">
        <ele>588</ele>
        <time>2020-10-05T15:51:06.988Z</time>
      </trkpt>
      <trkpt lat="43.97625" lon="5.89089">
        <ele>588</ele>
        <time>2020-10-05T15:51:07.988Z</time>
      </trkpt>
      <trkpt lat="43.97625" lon="5.89089">
        <ele>588</ele>
        <time>2020-10-05T15:51:08.988Z</time>
      </trkpt>
      <trkpt lat="43.97625" lon="5.89089">
        <ele>588</ele>
        <time>2020-10-05T15:51:09.988Z</time>
      </trkpt>
      <trkpt lat="43.97625" lon="5.89089">
        <ele>588</ele>
        <time>2020-10-05T15:51:10.988Z</time>
      </trkpt>
      <trkpt lat="43.97626" lon="5.89088">
        <ele>588</ele>
        <time>2020-10-05T15:51:11.988Z</time>
      </trkpt>
      <trkpt lat="43.97625" lon="5.89088">
        <ele>588</ele>
        <time>2020-10-05T15:51:12.988Z</time>
      </trkpt>
      <trkpt lat="43.97625" lon="5.89089">
        <ele>588</ele>
        <time>2020-10-05T15:51:13.988Z</time>
      </trkpt>
      <trkpt lat="43.97625" lon="5.89089">
        <ele>588</ele>
        <time>2020-10-05T15:51:14.988Z</time>
      </trkpt>
      <trkpt lat="43.97625" lon="5.89089">
        <ele>588</ele>
        <time>2020-10-05T15:51:15.988Z</time>
      </trkpt>
      <trkpt lat="43.97625" lon="5.89089">
        <ele>588</ele>
        <time>2020-10-05T15:51:16.988Z</time>
      </trkpt>
      <trkpt lat="43.97625" lon="5.89089">
        <ele>588</ele>
        <time>2020-10-05T15:51:17.988Z</time>
      </trkpt>
      <trkpt lat="43.97625" lon="5.89089">
        <ele>587</ele>
        <time>2020-10-05T15:51:18.988Z</time>
      </trkpt>
      <trkpt lat="43.97625" lon="5.89089">
        <ele>587</ele>
        <time>2020-10-05T15:51:19.988Z</time>
      </trkpt>
      <trkpt lat="43.97625" lon="5.89089">
        <ele>587</ele>
        <time>2020-10-05T15:51:20.988Z</time>
      </trkpt>
      <trkpt lat="43.97625" lon="5.89089">
        <ele>587</ele>
        <time>2020-10-05T15:51:21.988Z</time>
      </trkpt>
      <trkpt lat="43.97625" lon="5.89088">
        <ele>587</ele>
        <time>2020-10-05T15:51:22.988Z</time>
      </trkpt>
      <trkpt lat="43.97625" lon="5.89088">
        <ele>587</ele>
        <time>2020-10-05T15:51:23.988Z</time>
      </trkpt>
      <trkpt lat="43.97625" lon="5.89088">
        <ele>587</ele>
        <time>2020-10-05T15:51:24.988Z</time>
      </trkpt>
      <trkpt lat="43.97625" lon="5.89088">
        <ele>587</ele>
        <time>2020-10-05T15:51:25.988Z</time>
      </trkpt>
      <trkpt lat="43.97625" lon="5.89088">
        <ele>587</ele>
        <time>2020-10-05T15:51:26.988Z</time>
      </trkpt>
      <trkpt lat="43.97625" lon="5.89088">
        <ele>587</ele>
        <time>2020-10-05T15:51:27.988Z</time>
      </trkpt>
      <trkpt lat="43.97625" lon="5.89088">
        <ele>587</ele>
        <time>2020-10-05T15:51:28.988Z</time>
      </trkpt>
      <trkpt lat="43.97625" lon="5.89088">
        <ele>587</ele>
        <time>2020-10-05T15:51:29.988Z</time>
      </trkpt>
      <trkpt lat="43.97625" lon="5.89088">
        <ele>587</ele>
        <time>2020-10-05T15:51:30.988Z</time>
      </trkpt>
      <trkpt lat="43.97625" lon="5.89088">
        <ele>587</ele>
        <time>2020-10-05T15:51:31.988Z</time>
      </trkpt>
      <trkpt lat="43.97625" lon="5.89089">
        <ele>587</ele>
        <time>2020-10-05T15:51:32.988Z</time>
      </trkpt>
      <trkpt lat="43.97625" lon="5.89089">
        <ele>587</ele>
        <time>2020-10-05T15:51:33.988Z</time>
      </trkpt>
      <trkpt lat="43.97625" lon="5.89088">
        <ele>587</ele>
        <time>2020-10-05T15:51:34.988Z</time>
      </trkpt>
      <trkpt lat="43.97624" lon="5.89088">
        <ele>587</ele>
        <time>2020-10-05T15:51:35.988Z</time>
      </trkpt>
      <trkpt lat="43.97624" lon="5.89088">
        <ele>587</ele>
        <time>2020-10-05T15:51:36.988Z</time>
      </trkpt>
      <trkpt lat="43.97624" lon="5.89088">
        <ele>587</ele>
        <time>2020-10-05T15:51:37.988Z</time>
      </trkpt>
      <trkpt lat="43.97623" lon="5.89087">
        <ele>587</ele>
        <time>2020-10-05T15:51:38.988Z</time>
      </trkpt>
      <trkpt lat="43.97623" lon="5.89087">
        <ele>587</ele>
        <time>2020-10-05T15:51:39.988Z</time>
      </trkpt>
      <trkpt lat="43.97623" lon="5.89087">
        <ele>587</ele>
        <time>2020-10-05T15:51:40.988Z</time>
      </trkpt>
      <trkpt lat="43.97622" lon="5.89086">
        <ele>587</ele>
        <time>2020-10-05T15:51:41.988Z</time>
      </trkpt>
      <trkpt lat="43.97622" lon="5.89087">
        <ele>587</ele>
        <time>2020-10-05T15:51:42.988Z</time>
      </trkpt>
      <trkpt lat="43.97622" lon="5.89087">
        <ele>587</ele>
        <time>2020-10-05T15:51:43.988Z</time>
      </trkpt>
      <trkpt lat="43.97622" lon="5.89087">
        <ele>587</ele>
        <time>2020-10-05T15:51:44.988Z</time>
      </trkpt>
      <trkpt lat="43.97622" lon="5.89086">
        <ele>587</ele>
        <time>2020-10-05T15:51:45.988Z</time>
      </trkpt>
      <trkpt lat="43.97622" lon="5.89086">
        <ele>587</ele>
        <time>2020-10-05T15:51:46.988Z</time>
      </trkpt>
      <trkpt lat="43.97622" lon="5.89086">
        <ele>587</ele>
        <time>2020-10-05T15:51:47.988Z</time>
      </trkpt>
      <trkpt lat="43.97622" lon="5.89086">
        <ele>587</ele>
        <time>2020-10-05T15:51:48.988Z</time>
      </trkpt>
      <trkpt lat="43.97622" lon="5.89086">
        <ele>587</ele>
        <time>2020-10-05T15:51:49.988Z</time>
      </trkpt>
      <trkpt lat="43.97622" lon="5.89086">
        <ele>587</ele>
        <time>2020-10-05T15:51:50.988Z</time>
      </trkpt>
      <trkpt lat="43.97622" lon="5.89086">
        <ele>587</ele>
        <time>2020-10-05T15:51:51.988Z</time>
      </trkpt>
      <trkpt lat="43.97622" lon="5.89086">
        <ele>587</ele>
        <time>2020-10-05T15:51:52.988Z</time>
      </trkpt>
      <trkpt lat="43.97622" lon="5.89086">
        <ele>587</ele>
        <time>2020-10-05T15:51:53.988Z</time>
      </trkpt>
      <trkpt lat="43.97622" lon="5.89086">
        <ele>587</ele>
        <time>2020-10-05T15:51:54.988Z</time>
      </trkpt>
      <trkpt lat="43.97622" lon="5.89086">
        <ele>587</ele>
        <time>2020-10-05T15:51:55.988Z</time>
      </trkpt>
      <trkpt lat="43.97622" lon="5.89086">
        <ele>587</ele>
        <time>2020-10-05T15:51:56.988Z</time>
      </trkpt>
      <trkpt lat="43.97623" lon="5.89085">
        <ele>587</ele>
        <time>2020-10-05T15:51:57.988Z</time>
      </trkpt>
      <trkpt lat="43.97623" lon="5.89085">
        <ele>587</ele>
        <time>2020-10-05T15:51:58.988Z</time>
      </trkpt>
      <trkpt lat="43.97623" lon="5.89085">
        <ele>588</ele>
        <time>2020-10-05T15:51:59.988Z</time>
      </trkpt>
      <trkpt lat="43.97623" lon="5.89085">
        <ele>588</ele>
        <time>2020-10-05T15:52:00.988Z</time>
      </trkpt>
      <trkpt lat="43.97623" lon="5.89085">
        <ele>588</ele>
        <time>2020-10-05T15:52:01.988Z</time>
      </trkpt>
      <trkpt lat="43.97623" lon="5.89084">
        <ele>588</ele>
        <time>2020-10-05T15:52:02.988Z</time>
      </trkpt>
      <trkpt lat="43.97623" lon="5.89084">
        <ele>588</ele>
        <time>2020-10-05T15:52:03.988Z</time>
      </trkpt>
      <trkpt lat="43.97623" lon="5.89084">
        <ele>588</ele>
        <time>2020-10-05T15:52:04.988Z</time>
      </trkpt>
      <trkpt lat="43.97623" lon="5.89083">
        <ele>588</ele>
        <time>2020-10-05T15:52:05.988Z</time>
      </trkpt>
      <trkpt lat="43.97623" lon="5.89083">
        <ele>588</ele>
        <time>2020-10-05T15:52:06.988Z</time>
      </trkpt>
      <trkpt lat="43.97623" lon="5.89083">
        <ele>588</ele>
        <time>2020-10-05T15:52:07.988Z</time>
      </trkpt>
      <trkpt lat="43.97623" lon="5.89083">
        <ele>588</ele>
        <time>2020-10-05T15:52:08.988Z</time>
      </trkpt>
      <trkpt lat="43.97623" lon="5.89083">
        <ele>588</ele>
        <time>2020-10-05T15:52:09.988Z</time>
      </trkpt>
      <trkpt lat="43.97623" lon="5.89083">
        <ele>588</ele>
        <time>2020-10-05T15:52:10.988Z</time>
      </trkpt>
      <trkpt lat="43.97623" lon="5.89083">
        <ele>588</ele>
        <time>2020-10-05T15:52:11.988Z</time>
      </trkpt>
      <trkpt lat="43.97623" lon="5.89083">
        <ele>588</ele>
        <time>2020-10-05T15:52:12.988Z</time>
      </trkpt>
      <trkpt lat="43.97623" lon="5.89083">
        <ele>588</ele>
        <time>2020-10-05T15:52:13.988Z</time>
      </trkpt>
      <trkpt lat="43.97623" lon="5.89083">
        <ele>588</ele>
        <time>2020-10-05T15:52:14.988Z</time>
      </trkpt>
      <trkpt lat="43.97623" lon="5.89083">
        <ele>588</ele>
        <time>2020-10-05T15:52:15.988Z</time>
      </trkpt>
      <trkpt lat="43.97622" lon="5.89083">
        <ele>588</ele>
        <time>2020-10-05T15:52:16.988Z</time>
      </trkpt>
      <trkpt lat="43.97622" lon="5.89083">
        <ele>588</ele>
        <time>2020-10-05T15:52:17.988Z</time>
      </trkpt>
      <trkpt lat="43.97622" lon="5.89083">
        <ele>588</ele>
        <time>2020-10-05T15:52:18.988Z</time>
      </trkpt>
      <trkpt lat="43.97622" lon="5.89083">
        <ele>588</ele>
        <time>2020-10-05T15:52:19.988Z</time>
      </trkpt>
      <trkpt lat="43.97622" lon="5.89084">
        <ele>588</ele>
        <time>2020-10-05T15:52:20.988Z</time>
      </trkpt>
      <trkpt lat="43.97622" lon="5.89084">
        <ele>588</ele>
        <time>2020-10-05T15:52:21.988Z</time>
      </trkpt>
      <trkpt lat="43.97622" lon="5.89084">
        <ele>588</ele>
        <time>2020-10-05T15:52:22.988Z</time>
      </trkpt>
      <trkpt lat="43.97622" lon="5.89084">
        <ele>588</ele>
        <time>2020-10-05T15:52:23.988Z</time>
      </trkpt>
      <trkpt lat="43.97622" lon="5.89084">
        <ele>588</ele>
        <time>2020-10-05T15:52:24.988Z</time>
      </trkpt>
      <trkpt lat="43.97622" lon="5.89084">
        <ele>588</ele>
        <time>2020-10-05T15:52:25.988Z</time>
      </trkpt>
      <trkpt lat="43.97622" lon="5.89084">
        <ele>588</ele>
        <time>2020-10-05T15:52:26.988Z</time>
      </trkpt>
      <trkpt lat="43.97622" lon="5.89084">
        <ele>588</ele>
        <time>2020-10-05T15:52:27.988Z</time>
      </trkpt>
      <trkpt lat="43.97622" lon="5.89084">
        <ele>588</ele>
        <time>2020-10-05T15:52:28.988Z</time>
      </trkpt>
      <trkpt lat="43.97621" lon="5.89084">
        <ele>588</ele>
        <time>2020-10-05T15:52:29.988Z</time>
      </trkpt>
      <trkpt lat="43.97622" lon="5.89083">
        <ele>588</ele>
        <time>2020-10-05T15:52:30.988Z</time>
      </trkpt>
      <trkpt lat="43.97622" lon="5.89083">
        <ele>588</ele>
        <time>2020-10-05T15:52:31.988Z</time>
      </trkpt>
      <trkpt lat="43.97622" lon="5.89083">
        <ele>588</ele>
        <time>2020-10-05T15:52:32.988Z</time>
      </trkpt>
      <trkpt lat="43.97622" lon="5.89083">
        <ele>588</ele>
        <time>2020-10-05T15:52:33.988Z</time>
      </trkpt>
      <trkpt lat="43.97622" lon="5.89083">
        <ele>588</ele>
        <time>2020-10-05T15:52:34.988Z</time>
      </trkpt>
      <trkpt lat="43.97622" lon="5.89083">
        <ele>588</ele>
        <time>2020-10-05T15:52:35.988Z</time>
      </trkpt>
      <trkpt lat="43.97621" lon="5.89082">
        <ele>588</ele>
        <time>2020-10-05T15:52:36.988Z</time>
      </trkpt>
      <trkpt lat="43.97621" lon="5.89082">
        <ele>588</ele>
        <time>2020-10-05T15:52:37.988Z</time>
      </trkpt>
      <trkpt lat="43.97621" lon="5.89082">
        <ele>588</ele>
        <time>2020-10-05T15:52:38.988Z</time>
      </trkpt>
      <trkpt lat="43.9762" lon="5.89082">
        <ele>588</ele>
        <time>2020-10-05T15:52:39.988Z</time>
      </trkpt>
      <trkpt lat="43.9762" lon="5.89082">
        <ele>588</ele>
        <time>2020-10-05T15:52:40.988Z</time>
      </trkpt>
      <trkpt lat="43.97619" lon="5.89082">
        <ele>588</ele>
        <time>2020-10-05T15:52:41.988Z</time>
      </trkpt>
      <trkpt lat="43.97618" lon="5.89082">
        <ele>588</ele>
        <time>2020-10-05T15:52:42.988Z</time>
      </trkpt>
      <trkpt lat="43.97618" lon="5.89082">
        <ele>588</ele>
        <time>2020-10-05T15:52:43.988Z</time>
      </trkpt>
      <trkpt lat="43.97617" lon="5.89082">
        <ele>588</ele>
        <time>2020-10-05T15:52:44.988Z</time>
      </trkpt>
      <trkpt lat="43.97616" lon="5.89082">
        <ele>588</ele>
        <time>2020-10-05T15:52:45.988Z</time>
      </trkpt>
      <trkpt lat="43.97616" lon="5.89082">
        <ele>588</ele>
        <time>2020-10-05T15:52:48.988Z</time>
      </trkpt>
      <trkpt lat="43.97616" lon="5.89082">
        <ele>588</ele>
        <time>2020-10-05T15:52:49.988Z</time>
      </trkpt>
      <trkpt lat="43.97612" lon="5.8908">
        <ele>588</ele>
        <time>2020-10-05T15:52:50.988Z</time>
      </trkpt>
      <trkpt lat="43.9761" lon="5.8908">
        <ele>588</ele>
        <time>2020-10-05T15:52:51.988Z</time>
      </trkpt>
      <trkpt lat="43.97609" lon="5.89079">
        <ele>588</ele>
        <time>2020-10-05T15:52:52.988Z</time>
      </trkpt>
      <trkpt lat="43.97608" lon="5.89079">
        <ele>588</ele>
        <time>2020-10-05T15:52:53.988Z</time>
      </trkpt>
      <trkpt lat="43.97607" lon="5.89078">
        <ele>589</ele>
        <time>2020-10-05T15:52:54.988Z</time>
      </trkpt>
      <trkpt lat="43.97606" lon="5.89078">
        <ele>589</ele>
        <time>2020-10-05T15:52:55.988Z</time>
      </trkpt>
      <trkpt lat="43.97605" lon="5.89078">
        <ele>589</ele>
        <time>2020-10-05T15:52:56.988Z</time>
      </trkpt>
      <trkpt lat="43.97605" lon="5.89078">
        <ele>589</ele>
        <time>2020-10-05T15:52:57.988Z</time>
      </trkpt>
      <trkpt lat="43.97605" lon="5.89078">
        <ele>589</ele>
        <time>2020-10-05T15:52:58.988Z</time>
      </trkpt>
      <trkpt lat="43.97605" lon="5.89078">
        <ele>589</ele>
        <time>2020-10-05T15:52:59.988Z</time>
      </trkpt>
      <trkpt lat="43.97605" lon="5.89078">
        <ele>589</ele>
        <time>2020-10-05T15:53:00.988Z</time>
      </trkpt>
      <trkpt lat="43.97604" lon="5.89078">
        <ele>589</ele>
        <time>2020-10-05T15:53:01.988Z</time>
      </trkpt>
      <trkpt lat="43.97604" lon="5.89077">
        <ele>589</ele>
        <time>2020-10-05T15:53:02.988Z</time>
      </trkpt>
      <trkpt lat="43.97604" lon="5.89077">
        <ele>589</ele>
        <time>2020-10-05T15:53:03.988Z</time>
      </trkpt>
      <trkpt lat="43.97603" lon="5.89077">
        <ele>589</ele>
        <time>2020-10-05T15:53:04.988Z</time>
      </trkpt>
      <trkpt lat="43.97603" lon="5.89077">
        <ele>589</ele>
        <time>2020-10-05T15:53:05.988Z</time>
      </trkpt>
      <trkpt lat="43.97603" lon="5.89076">
        <ele>589</ele>
        <time>2020-10-05T15:53:06.988Z</time>
      </trkpt>
      <trkpt lat="43.97602" lon="5.89076">
        <ele>589</ele>
        <time>2020-10-05T15:53:07.988Z</time>
      </trkpt>
      <trkpt lat="43.97602" lon="5.89076">
        <ele>589</ele>
        <time>2020-10-05T15:53:08.988Z</time>
      </trkpt>
      <trkpt lat="43.97601" lon="5.89075">
        <ele>589</ele>
        <time>2020-10-05T15:53:09.988Z</time>
      </trkpt>
      <trkpt lat="43.976" lon="5.89075">
        <ele>589</ele>
        <time>2020-10-05T15:53:10.988Z</time>
      </trkpt>
      <trkpt lat="43.976" lon="5.89075">
        <ele>589</ele>
        <time>2020-10-05T15:53:11.988Z</time>
      </trkpt>
      <trkpt lat="43.97599" lon="5.89075">
        <ele>589</ele>
        <time>2020-10-05T15:53:12.988Z</time>
      </trkpt>
      <trkpt lat="43.97598" lon="5.89074">
        <ele>589</ele>
        <time>2020-10-05T15:53:13.988Z</time>
      </trkpt>
      <trkpt lat="43.97598" lon="5.89074">
        <ele>588</ele>
        <time>2020-10-05T15:53:14.988Z</time>
      </trkpt>
      <trkpt lat="43.97597" lon="5.89074">
        <ele>588</ele>
        <time>2020-10-05T15:53:15.988Z</time>
      </trkpt>
      <trkpt lat="43.97596" lon="5.89073">
        <ele>588</ele>
        <time>2020-10-05T15:53:16.988Z</time>
      </trkpt>
      <trkpt lat="43.97596" lon="5.89073">
        <ele>588</ele>
        <time>2020-10-05T15:53:17.988Z</time>
      </trkpt>
      <trkpt lat="43.97595" lon="5.89073">
        <ele>588</ele>
        <time>2020-10-05T15:53:18.988Z</time>
      </trkpt>
      <trkpt lat="43.97595" lon="5.89072">
        <ele>587</ele>
        <time>2020-10-05T15:53:19.988Z</time>
      </trkpt>
      <trkpt lat="43.97594" lon="5.89072">
        <ele>587</ele>
        <time>2020-10-05T15:53:20.988Z</time>
      </trkpt>
      <trkpt lat="43.97593" lon="5.89072">
        <ele>587</ele>
        <time>2020-10-05T15:53:21.988Z</time>
      </trkpt>
      <trkpt lat="43.97592" lon="5.89072">
        <ele>587</ele>
        <time>2020-10-05T15:53:22.988Z</time>
      </trkpt>
      <trkpt lat="43.97591" lon="5.89072">
        <ele>587</ele>
        <time>2020-10-05T15:53:23.988Z</time>
      </trkpt>
      <trkpt lat="43.9759" lon="5.89072">
        <ele>588</ele>
        <time>2020-10-05T15:53:24.988Z</time>
      </trkpt>
      <trkpt lat="43.97588" lon="5.89071">
        <ele>588</ele>
        <time>2020-10-05T15:53:25.988Z</time>
      </trkpt>
      <trkpt lat="43.97587" lon="5.89071">
        <ele>588</ele>
        <time>2020-10-05T15:53:26.988Z</time>
      </trkpt>
      <trkpt lat="43.97586" lon="5.8907">
        <ele>588</ele>
        <time>2020-10-05T15:53:27.988Z</time>
      </trkpt>
      <trkpt lat="43.97585" lon="5.8907">
        <ele>588</ele>
        <time>2020-10-05T15:53:28.988Z</time>
      </trkpt>
      <trkpt lat="43.97584" lon="5.89069">
        <ele>588</ele>
        <time>2020-10-05T15:53:29.988Z</time>
      </trkpt>
      <trkpt lat="43.97583" lon="5.89069">
        <ele>588</ele>
        <time>2020-10-05T15:53:30.988Z</time>
      </trkpt>
      <trkpt lat="43.97583" lon="5.89068">
        <ele>588</ele>
        <time>2020-10-05T15:53:31.988Z</time>
      </trkpt>
      <trkpt lat="43.97582" lon="5.89068">
        <ele>588</ele>
        <time>2020-10-05T15:53:32.988Z</time>
      </trkpt>
      <trkpt lat="43.97581" lon="5.89068">
        <ele>588</ele>
        <time>2020-10-05T15:53:33.988Z</time>
      </trkpt>
      <trkpt lat="43.9758" lon="5.89067">
        <ele>588</ele>
        <time>2020-10-05T15:53:34.988Z</time>
      </trkpt>
      <trkpt lat="43.97579" lon="5.89067">
        <ele>588</ele>
        <time>2020-10-05T15:53:35.988Z</time>
      </trkpt>
      <trkpt lat="43.97578" lon="5.89067">
        <ele>588</ele>
        <time>2020-10-05T15:53:36.988Z</time>
      </trkpt>
      <trkpt lat="43.97576" lon="5.89066">
        <ele>588</ele>
        <time>2020-10-05T15:53:37.988Z</time>
      </trkpt>
      <trkpt lat="43.97575" lon="5.89066">
        <ele>588</ele>
        <time>2020-10-05T15:53:38.988Z</time>
      </trkpt>
      <trkpt lat="43.97573" lon="5.89066">
        <ele>588</ele>
        <time>2020-10-05T15:53:39.988Z</time>
      </trkpt>
      <trkpt lat="43.97572" lon="5.89066">
        <ele>588</ele>
        <time>2020-10-05T15:53:40.988Z</time>
      </trkpt>
      <trkpt lat="43.97571" lon="5.89066">
        <ele>588</ele>
        <time>2020-10-05T15:53:41.988Z</time>
      </trkpt>
      <trkpt lat="43.9757" lon="5.89065">
        <ele>588</ele>
        <time>2020-10-05T15:53:42.988Z</time>
      </trkpt>
      <trkpt lat="43.97568" lon="5.89065">
        <ele>588</ele>
        <time>2020-10-05T15:53:43.988Z</time>
      </trkpt>
      <trkpt lat="43.97567" lon="5.89064">
        <ele>588</ele>
        <time>2020-10-05T15:53:44.988Z</time>
      </trkpt>
      <trkpt lat="43.97566" lon="5.89063">
        <ele>588</ele>
        <time>2020-10-05T15:53:45.988Z</time>
      </trkpt>
      <trkpt lat="43.97565" lon="5.89063">
        <ele>588</ele>
        <time>2020-10-05T15:53:46.988Z</time>
      </trkpt>
      <trkpt lat="43.97564" lon="5.89062">
        <ele>588</ele>
        <time>2020-10-05T15:53:47.988Z</time>
      </trkpt>
      <trkpt lat="43.97563" lon="5.89062">
        <ele>588</ele>
        <time>2020-10-05T15:53:48.988Z</time>
      </trkpt>
      <trkpt lat="43.97562" lon="5.89061">
        <ele>588</ele>
        <time>2020-10-05T15:53:49.988Z</time>
      </trkpt>
      <trkpt lat="43.97561" lon="5.89061">
        <ele>588</ele>
        <time>2020-10-05T15:53:50.988Z</time>
      </trkpt>
      <trkpt lat="43.97561" lon="5.89061">
        <ele>588</ele>
        <time>2020-10-05T15:53:51.988Z</time>
      </trkpt>
      <trkpt lat="43.9756" lon="5.89061">
        <ele>588</ele>
        <time>2020-10-05T15:53:52.988Z</time>
      </trkpt>
      <trkpt lat="43.9756" lon="5.89061">
        <ele>588</ele>
        <time>2020-10-05T15:53:53.988Z</time>
      </trkpt>
      <trkpt lat="43.9756" lon="5.89061">
        <ele>588</ele>
        <time>2020-10-05T15:53:54.988Z</time>
      </trkpt>
      <trkpt lat="43.9756" lon="5.89061">
        <ele>588</ele>
        <time>2020-10-05T15:53:55.988Z</time>
      </trkpt>
      <trkpt lat="43.9756" lon="5.89061">
        <ele>588</ele>
        <time>2020-10-05T15:53:56.988Z</time>
      </trkpt>
      <trkpt lat="43.9756" lon="5.89061">
        <ele>588</ele>
        <time>2020-10-05T15:53:57.988Z</time>
      </trkpt>
      <trkpt lat="43.9756" lon="5.89061">
        <ele>589</ele>
        <time>2020-10-05T15:53:58.988Z</time>
      </trkpt>
      <trkpt lat="43.97559" lon="5.89061">
        <ele>589</ele>
        <time>2020-10-05T15:53:59.988Z</time>
      </trkpt>
      <trkpt lat="43.97559" lon="5.89061">
        <ele>589</ele>
        <time>2020-10-05T15:54:00.988Z</time>
      </trkpt>
      <trkpt lat="43.97559" lon="5.89061">
        <ele>589</ele>
        <time>2020-10-05T15:54:01.988Z</time>
      </trkpt>
      <trkpt lat="43.97559" lon="5.89061">
        <ele>589</ele>
        <time>2020-10-05T15:54:02.988Z</time>
      </trkpt>
      <trkpt lat="43.97559" lon="5.89061">
        <ele>589</ele>
        <time>2020-10-05T15:54:03.988Z</time>
      </trkpt>
      <trkpt lat="43.97559" lon="5.89061">
        <ele>589</ele>
        <time>2020-10-05T15:54:04.988Z</time>
      </trkpt>
      <trkpt lat="43.97558" lon="5.89061">
        <ele>589</ele>
        <time>2020-10-05T15:54:05.988Z</time>
      </trkpt>
      <trkpt lat="43.97558" lon="5.89061">
        <ele>589</ele>
        <time>2020-10-05T15:54:06.988Z</time>
      </trkpt>
      <trkpt lat="43.97559" lon="5.89061">
        <ele>589</ele>
        <time>2020-10-05T15:54:07.988Z</time>
      </trkpt>
      <trkpt lat="43.97558" lon="5.89061">
        <ele>589</ele>
        <time>2020-10-05T15:54:08.988Z</time>
      </trkpt>
      <trkpt lat="43.97558" lon="5.89061">
        <ele>589</ele>
        <time>2020-10-05T15:54:09.988Z</time>
      </trkpt>
      <trkpt lat="43.97558" lon="5.89061">
        <ele>589</ele>
        <time>2020-10-05T15:54:10.988Z</time>
      </trkpt>
      <trkpt lat="43.97558" lon="5.89061">
        <ele>589</ele>
        <time>2020-10-05T15:54:11.988Z</time>
      </trkpt>
      <trkpt lat="43.97558" lon="5.89061">
        <ele>589</ele>
        <time>2020-10-05T15:54:12.988Z</time>
      </trkpt>
      <trkpt lat="43.97558" lon="5.89061">
        <ele>589</ele>
        <time>2020-10-05T15:54:13.988Z</time>
      </trkpt>
      <trkpt lat="43.97558" lon="5.89061">
        <ele>589</ele>
        <time>2020-10-05T15:54:14.988Z</time>
      </trkpt>
      <trkpt lat="43.97558" lon="5.89061">
        <ele>589</ele>
        <time>2020-10-05T15:54:15.988Z</time>
      </trkpt>
      <trkpt lat="43.97558" lon="5.89061">
        <ele>589</ele>
        <time>2020-10-05T15:54:16.988Z</time>
      </trkpt>
      <trkpt lat="43.97558" lon="5.89061">
        <ele>589</ele>
        <time>2020-10-05T15:54:17.988Z</time>
      </trkpt>
      <trkpt lat="43.97558" lon="5.89061">
        <ele>589</ele>
        <time>2020-10-05T15:54:18.988Z</time>
      </trkpt>
      <trkpt lat="43.97558" lon="5.89061">
        <ele>589</ele>
        <time>2020-10-05T15:54:19.988Z</time>
      </trkpt>
      <trkpt lat="43.97558" lon="5.89061">
        <ele>589</ele>
        <time>2020-10-05T15:54:20.988Z</time>
      </trkpt>
      <trkpt lat="43.97557" lon="5.89061">
        <ele>589</ele>
        <time>2020-10-05T15:54:21.988Z</time>
      </trkpt>
      <trkpt lat="43.97557" lon="5.89061">
        <ele>589</ele>
        <time>2020-10-05T15:54:22.988Z</time>
      </trkpt>
      <trkpt lat="43.97557" lon="5.89061">
        <ele>589</ele>
        <time>2020-10-05T15:54:23.988Z</time>
      </trkpt>
      <trkpt lat="43.97557" lon="5.89061">
        <ele>589</ele>
        <time>2020-10-05T15:54:24.988Z</time>
      </trkpt>
      <trkpt lat="43.97557" lon="5.89061">
        <ele>589</ele>
        <time>2020-10-05T15:54:25.988Z</time>
      </trkpt>
      <trkpt lat="43.97557" lon="5.89061">
        <ele>589</ele>
        <time>2020-10-05T15:54:26.988Z</time>
      </trkpt>
      <trkpt lat="43.97557" lon="5.89061">
        <ele>589</ele>
        <time>2020-10-05T15:54:27.988Z</time>
      </trkpt>
      <trkpt lat="43.97557" lon="5.89061">
        <ele>589</ele>
        <time>2020-10-05T15:54:28.988Z</time>
      </trkpt>
      <trkpt lat="43.97557" lon="5.89061">
        <ele>589</ele>
        <time>2020-10-05T15:54:29.988Z</time>
      </trkpt>
      <trkpt lat="43.97557" lon="5.89061">
        <ele>589</ele>
        <time>2020-10-05T15:54:30.988Z</time>
      </trkpt>
      <trkpt lat="43.97557" lon="5.89061">
        <ele>589</ele>
        <time>2020-10-05T15:54:31.988Z</time>
      </trkpt>
      <trkpt lat="43.97557" lon="5.89061">
        <ele>589</ele>
        <time>2020-10-05T15:54:32.988Z</time>
      </trkpt>
      <trkpt lat="43.97557" lon="5.89061">
        <ele>589</ele>
        <time>2020-10-05T15:54:33.988Z</time>
      </trkpt>
      <trkpt lat="43.97557" lon="5.89061">
        <ele>589</ele>
        <time>2020-10-05T15:54:34.988Z</time>
      </trkpt>
      <trkpt lat="43.97557" lon="5.89061">
        <ele>589</ele>
        <time>2020-10-05T15:54:35.988Z</time>
      </trkpt>
      <trkpt lat="43.97557" lon="5.89061">
        <ele>589</ele>
        <time>2020-10-05T15:54:36.988Z</time>
      </trkpt>
      <trkpt lat="43.97557" lon="5.89061">
        <ele>589</ele>
        <time>2020-10-05T15:54:37.988Z</time>
      </trkpt>
      <trkpt lat="43.97557" lon="5.89061">
        <ele>589</ele>
        <time>2020-10-05T15:54:38.988Z</time>
      </trkpt>
      <trkpt lat="43.97557" lon="5.89061">
        <ele>589</ele>
        <time>2020-10-05T15:54:39.988Z</time>
      </trkpt>
      <trkpt lat="43.97557" lon="5.89061">
        <ele>589</ele>
        <time>2020-10-05T15:54:40.988Z</time>
      </trkpt>
      <trkpt lat="43.97557" lon="5.89061">
        <ele>589</ele>
        <time>2020-10-05T15:54:41.988Z</time>
      </trkpt>
      <trkpt lat="43.97557" lon="5.89061">
        <ele>589</ele>
        <time>2020-10-05T15:54:42.988Z</time>
      </trkpt>
      <trkpt lat="43.97557" lon="5.89061">
        <ele>589</ele>
        <time>2020-10-05T15:54:43.988Z</time>
      </trkpt>
      <trkpt lat="43.97556" lon="5.89061">
        <ele>589</ele>
        <time>2020-10-05T15:54:44.988Z</time>
      </trkpt>
      <trkpt lat="43.97556" lon="5.89061">
        <ele>589</ele>
        <time>2020-10-05T15:54:45.988Z</time>
      </trkpt>
      <trkpt lat="43.97557" lon="5.89062">
        <ele>589</ele>
        <time>2020-10-05T15:54:46.988Z</time>
      </trkpt>
      <trkpt lat="43.97557" lon="5.89062">
        <ele>589</ele>
        <time>2020-10-05T15:54:47.988Z</time>
      </trkpt>
      <trkpt lat="43.97557" lon="5.89062">
        <ele>589</ele>
        <time>2020-10-05T15:54:48.988Z</time>
      </trkpt>
      <trkpt lat="43.97557" lon="5.89062">
        <ele>589</ele>
        <time>2020-10-05T15:54:49.988Z</time>
      </trkpt>
      <trkpt lat="43.97557" lon="5.89062">
        <ele>589</ele>
        <time>2020-10-05T15:54:50.988Z</time>
      </trkpt>
      <trkpt lat="43.97557" lon="5.89062">
        <ele>589</ele>
        <time>2020-10-05T15:54:51.988Z</time>
      </trkpt>
      <trkpt lat="43.97557" lon="5.89062">
        <ele>589</ele>
        <time>2020-10-05T15:54:52.988Z</time>
      </trkpt>
      <trkpt lat="43.97557" lon="5.89062">
        <ele>589</ele>
        <time>2020-10-05T15:54:53.988Z</time>
      </trkpt>
      <trkpt lat="43.97557" lon="5.89062">
        <ele>589</ele>
        <time>2020-10-05T15:54:54.988Z</time>
      </trkpt>
      <trkpt lat="43.97556" lon="5.89062">
        <ele>589</ele>
        <time>2020-10-05T15:54:55.988Z</time>
      </trkpt>
      <trkpt lat="43.97556" lon="5.89061">
        <ele>590</ele>
        <time>2020-10-05T15:54:56.988Z</time>
      </trkpt>
      <trkpt lat="43.97557" lon="5.89061">
        <ele>590</ele>
        <time>2020-10-05T15:54:57.988Z</time>
      </trkpt>
      <trkpt lat="43.97557" lon="5.89061">
        <ele>590</ele>
        <time>2020-10-05T15:54:58.988Z</time>
      </trkpt>
      <trkpt lat="43.97557" lon="5.89061">
        <ele>590</ele>
        <time>2020-10-05T15:54:59.988Z</time>
      </trkpt>
      <trkpt lat="43.97557" lon="5.89061">
        <ele>590</ele>
        <time>2020-10-05T15:55:00.988Z</time>
      </trkpt>
      <trkpt lat="43.97557" lon="5.89061">
        <ele>590</ele>
        <time>2020-10-05T15:55:01.988Z</time>
      </trkpt>
      <trkpt lat="43.97557" lon="5.89061">
        <ele>590</ele>
        <time>2020-10-05T15:55:02.988Z</time>
      </trkpt>
      <trkpt lat="43.97557" lon="5.89061">
        <ele>590</ele>
        <time>2020-10-05T15:55:03.988Z</time>
      </trkpt>
      <trkpt lat="43.97557" lon="5.89061">
        <ele>590</ele>
        <time>2020-10-05T15:55:04.988Z</time>
      </trkpt>
      <trkpt lat="43.97557" lon="5.89061">
        <ele>590</ele>
        <time>2020-10-05T15:55:05.988Z</time>
      </trkpt>
      <trkpt lat="43.97557" lon="5.89061">
        <ele>590</ele>
        <time>2020-10-05T15:55:06.988Z</time>
      </trkpt>
      <trkpt lat="43.97557" lon="5.89061">
        <ele>590</ele>
        <time>2020-10-05T15:55:07.988Z</time>
      </trkpt>
      <trkpt lat="43.97557" lon="5.89061">
        <ele>590</ele>
        <time>2020-10-05T15:55:08.988Z</time>
      </trkpt>
      <trkpt lat="43.97557" lon="5.89061">
        <ele>590</ele>
        <time>2020-10-05T15:55:09.988Z</time>
      </trkpt>
      <trkpt lat="43.97557" lon="5.89061">
        <ele>590</ele>
        <time>2020-10-05T15:55:10.988Z</time>
      </trkpt>
      <trkpt lat="43.97556" lon="5.89061">
        <ele>590</ele>
        <time>2020-10-05T15:55:11.988Z</time>
      </trkpt>
      <trkpt lat="43.97556" lon="5.89061">
        <ele>590</ele>
        <time>2020-10-05T15:55:12.988Z</time>
      </trkpt>
      <trkpt lat="43.97556" lon="5.89061">
        <ele>590</ele>
        <time>2020-10-05T15:55:13.988Z</time>
      </trkpt>
      <trkpt lat="43.97556" lon="5.89061">
        <ele>590</ele>
        <time>2020-10-05T15:55:14.988Z</time>
      </trkpt>
      <trkpt lat="43.97556" lon="5.89062">
        <ele>590</ele>
        <time>2020-10-05T15:55:15.988Z</time>
      </trkpt>
      <trkpt lat="43.97556" lon="5.89062">
        <ele>590</ele>
        <time>2020-10-05T15:55:16.988Z</time>
      </trkpt>
      <trkpt lat="43.97556" lon="5.89062">
        <ele>590</ele>
        <time>2020-10-05T15:55:17.988Z</time>
      </trkpt>
      <trkpt lat="43.97556" lon="5.89062">
        <ele>590</ele>
        <time>2020-10-05T15:55:18.988Z</time>
      </trkpt>
      <trkpt lat="43.97556" lon="5.89062">
        <ele>590</ele>
        <time>2020-10-05T15:55:19.988Z</time>
      </trkpt>
      <trkpt lat="43.97556" lon="5.89062">
        <ele>590</ele>
        <time>2020-10-05T15:55:20.988Z</time>
      </trkpt>
      <trkpt lat="43.97556" lon="5.89062">
        <ele>590</ele>
        <time>2020-10-05T15:55:21.988Z</time>
      </trkpt>
      <trkpt lat="43.97556" lon="5.89062">
        <ele>590</ele>
        <time>2020-10-05T15:55:22.988Z</time>
      </trkpt>
      <trkpt lat="43.97556" lon="5.89062">
        <ele>590</ele>
        <time>2020-10-05T15:55:23.988Z</time>
      </trkpt>
      <trkpt lat="43.97556" lon="5.89062">
        <ele>590</ele>
        <time>2020-10-05T15:55:24.988Z</time>
      </trkpt>
      <trkpt lat="43.97556" lon="5.89062">
        <ele>590</ele>
        <time>2020-10-05T15:55:25.988Z</time>
      </trkpt>
      <trkpt lat="43.97556" lon="5.89062">
        <ele>590</ele>
        <time>2020-10-05T15:55:26.988Z</time>
      </trkpt>
      <trkpt lat="43.97556" lon="5.89062">
        <ele>590</ele>
        <time>2020-10-05T15:55:27.988Z</time>
      </trkpt>
      <trkpt lat="43.97556" lon="5.89062">
        <ele>590</ele>
        <time>2020-10-05T15:55:28.988Z</time>
      </trkpt>
      <trkpt lat="43.97556" lon="5.89062">
        <ele>590</ele>
        <time>2020-10-05T15:55:29.988Z</time>
      </trkpt>
      <trkpt lat="43.97556" lon="5.89062">
        <ele>590</ele>
        <time>2020-10-05T15:55:30.988Z</time>
      </trkpt>
      <trkpt lat="43.97556" lon="5.89062">
        <ele>590</ele>
        <time>2020-10-05T15:55:31.988Z</time>
      </trkpt>
      <trkpt lat="43.97556" lon="5.89062">
        <ele>590</ele>
        <time>2020-10-05T15:55:32.988Z</time>
      </trkpt>
      <trkpt lat="43.97556" lon="5.89061">
        <ele>590</ele>
        <time>2020-10-05T15:55:33.988Z</time>
      </trkpt>
      <trkpt lat="43.97556" lon="5.89061">
        <ele>590</ele>
        <time>2020-10-05T15:55:34.988Z</time>
      </trkpt>
      <trkpt lat="43.97556" lon="5.89061">
        <ele>590</ele>
        <time>2020-10-05T15:55:35.988Z</time>
      </trkpt>
      <trkpt lat="43.97556" lon="5.89061">
        <ele>590</ele>
        <time>2020-10-05T15:55:36.988Z</time>
      </trkpt>
      <trkpt lat="43.97556" lon="5.89061">
        <ele>590</ele>
        <time>2020-10-05T15:55:37.988Z</time>
      </trkpt>
      <trkpt lat="43.97556" lon="5.89061">
        <ele>590</ele>
        <time>2020-10-05T15:55:38.988Z</time>
      </trkpt>
      <trkpt lat="43.97556" lon="5.89061">
        <ele>590</ele>
        <time>2020-10-05T15:55:39.988Z</time>
      </trkpt>
      <trkpt lat="43.97556" lon="5.89061">
        <ele>590</ele>
        <time>2020-10-05T15:55:40.988Z</time>
      </trkpt>
      <trkpt lat="43.97556" lon="5.89061">
        <ele>590</ele>
        <time>2020-10-05T15:55:41.988Z</time>
      </trkpt>
      <trkpt lat="43.97556" lon="5.89062">
        <ele>590</ele>
        <time>2020-10-05T15:55:42.988Z</time>
      </trkpt>
      <trkpt lat="43.97556" lon="5.89062">
        <ele>590</ele>
        <time>2020-10-05T15:55:43.988Z</time>
      </trkpt>
      <trkpt lat="43.97556" lon="5.89062">
        <ele>590</ele>
        <time>2020-10-05T15:55:44.988Z</time>
      </trkpt>
      <trkpt lat="43.97556" lon="5.89062">
        <ele>590</ele>
        <time>2020-10-05T15:55:45.988Z</time>
      </trkpt>
      <trkpt lat="43.97556" lon="5.89061">
        <ele>590</ele>
        <time>2020-10-05T15:55:46.988Z</time>
      </trkpt>
      <trkpt lat="43.97556" lon="5.89061">
        <ele>590</ele>
        <time>2020-10-05T15:55:47.988Z</time>
      </trkpt>
      <trkpt lat="43.97556" lon="5.89061">
        <ele>590</ele>
        <time>2020-10-05T15:55:48.988Z</time>
      </trkpt>
      <trkpt lat="43.97556" lon="5.89061">
        <ele>590</ele>
        <time>2020-10-05T15:55:49.988Z</time>
      </trkpt>
      <trkpt lat="43.97556" lon="5.89061">
        <ele>590</ele>
        <time>2020-10-05T15:55:50.988Z</time>
      </trkpt>
      <trkpt lat="43.97556" lon="5.89061">
        <ele>590</ele>
        <time>2020-10-05T15:55:51.988Z</time>
      </trkpt>
      <trkpt lat="43.97556" lon="5.89061">
        <ele>590</ele>
        <time>2020-10-05T15:55:52.988Z</time>
      </trkpt>
      <trkpt lat="43.97556" lon="5.89061">
        <ele>590</ele>
        <time>2020-10-05T15:55:53.988Z</time>
      </trkpt>
      <trkpt lat="43.97556" lon="5.89061">
        <ele>590</ele>
        <time>2020-10-05T15:55:54.988Z</time>
      </trkpt>
      <trkpt lat="43.97556" lon="5.89061">
        <ele>590</ele>
        <time>2020-10-05T15:55:55.988Z</time>
      </trkpt>
      <trkpt lat="43.97556" lon="5.89061">
        <ele>590</ele>
        <time>2020-10-05T15:55:56.988Z</time>
      </trkpt>
      <trkpt lat="43.97556" lon="5.89061">
        <ele>590</ele>
        <time>2020-10-05T15:55:57.988Z</time>
      </trkpt>
      <trkpt lat="43.97556" lon="5.89061">
        <ele>590</ele>
        <time>2020-10-05T15:55:58.988Z</time>
      </trkpt>
      <trkpt lat="43.97556" lon="5.89061">
        <ele>590</ele>
        <time>2020-10-05T15:55:59.988Z</time>
      </trkpt>
      <trkpt lat="43.97556" lon="5.89061">
        <ele>590</ele>
        <time>2020-10-05T15:56:00.988Z</time>
      </trkpt>
      <trkpt lat="43.97556" lon="5.89061">
        <ele>590</ele>
        <time>2020-10-05T15:56:01.988Z</time>
      </trkpt>
      <trkpt lat="43.97557" lon="5.89061">
        <ele>590</ele>
        <time>2020-10-05T15:56:02.988Z</time>
      </trkpt>
      <trkpt lat="43.97557" lon="5.89061">
        <ele>590</ele>
        <time>2020-10-05T15:56:03.988Z</time>
      </trkpt>
      <trkpt lat="43.97557" lon="5.89061">
        <ele>590</ele>
        <time>2020-10-05T15:56:04.988Z</time>
      </trkpt>
      <trkpt lat="43.97557" lon="5.89061">
        <ele>590</ele>
        <time>2020-10-05T15:56:05.988Z</time>
      </trkpt>
      <trkpt lat="43.97557" lon="5.89061">
        <ele>590</ele>
        <time>2020-10-05T15:56:06.988Z</time>
      </trkpt>
      <trkpt lat="43.97557" lon="5.89061">
        <ele>590</ele>
        <time>2020-10-05T15:56:07.988Z</time>
      </trkpt>
      <trkpt lat="43.97557" lon="5.89061">
        <ele>590</ele>
        <time>2020-10-05T15:56:08.988Z</time>
      </trkpt>
      <trkpt lat="43.97557" lon="5.89061">
        <ele>590</ele>
        <time>2020-10-05T15:56:09.988Z</time>
      </trkpt>
      <trkpt lat="43.97557" lon="5.89061">
        <ele>590</ele>
        <time>2020-10-05T15:56:10.988Z</time>
      </trkpt>
      <trkpt lat="43.97557" lon="5.89061">
        <ele>590</ele>
        <time>2020-10-05T15:56:11.988Z</time>
      </trkpt>
      <trkpt lat="43.97557" lon="5.89061">
        <ele>590</ele>
        <time>2020-10-05T15:56:12.988Z</time>
      </trkpt>
      <trkpt lat="43.97557" lon="5.89061">
        <ele>590</ele>
        <time>2020-10-05T15:56:13.988Z</time>
      </trkpt>
      <trkpt lat="43.97557" lon="5.89061">
        <ele>590</ele>
        <time>2020-10-05T15:56:14.988Z</time>
      </trkpt>
      <trkpt lat="43.97557" lon="5.89061">
        <ele>590</ele>
        <time>2020-10-05T15:56:15.988Z</time>
      </trkpt>
      <trkpt lat="43.97557" lon="5.89061">
        <ele>590</ele>
        <time>2020-10-05T15:56:16.988Z</time>
      </trkpt>
      <trkpt lat="43.97557" lon="5.8906">
        <ele>590</ele>
        <time>2020-10-05T15:56:17.988Z</time>
      </trkpt>
      <trkpt lat="43.97557" lon="5.8906">
        <ele>590</ele>
        <time>2020-10-05T15:56:18.988Z</time>
      </trkpt>
      <trkpt lat="43.97557" lon="5.8906">
        <ele>590</ele>
        <time>2020-10-05T15:56:19.988Z</time>
      </trkpt>
      <trkpt lat="43.97557" lon="5.8906">
        <ele>590</ele>
        <time>2020-10-05T15:56:20.988Z</time>
      </trkpt>
      <trkpt lat="43.97557" lon="5.8906">
        <ele>590</ele>
        <time>2020-10-05T15:56:21.988Z</time>
      </trkpt>
      <trkpt lat="43.97557" lon="5.8906">
        <ele>590</ele>
        <time>2020-10-05T15:56:22.988Z</time>
      </trkpt>
      <trkpt lat="43.97557" lon="5.8906">
        <ele>590</ele>
        <time>2020-10-05T15:56:23.988Z</time>
      </trkpt>
      <trkpt lat="43.97557" lon="5.8906">
        <ele>590</ele>
        <time>2020-10-05T15:56:24.988Z</time>
      </trkpt>
      <trkpt lat="43.97557" lon="5.8906">
        <ele>590</ele>
        <time>2020-10-05T15:56:25.988Z</time>
      </trkpt>
      <trkpt lat="43.97557" lon="5.89061">
        <ele>590</ele>
        <time>2020-10-05T15:56:26.988Z</time>
      </trkpt>
      <trkpt lat="43.97557" lon="5.89061">
        <ele>590</ele>
        <time>2020-10-05T15:56:27.988Z</time>
      </trkpt>
      <trkpt lat="43.97557" lon="5.89061">
        <ele>590</ele>
        <time>2020-10-05T15:56:28.988Z</time>
      </trkpt>
      <trkpt lat="43.97557" lon="5.8906">
        <ele>590</ele>
        <time>2020-10-05T15:56:29.988Z</time>
      </trkpt>
      <trkpt lat="43.97557" lon="5.8906">
        <ele>590</ele>
        <time>2020-10-05T15:56:30.988Z</time>
      </trkpt>
      <trkpt lat="43.97557" lon="5.8906">
        <ele>590</ele>
        <time>2020-10-05T15:56:31.988Z</time>
      </trkpt>
      <trkpt lat="43.97557" lon="5.8906">
        <ele>590</ele>
        <time>2020-10-05T15:56:32.988Z</time>
      </trkpt>
      <trkpt lat="43.97557" lon="5.8906">
        <ele>590</ele>
        <time>2020-10-05T15:56:33.988Z</time>
      </trkpt>
      <trkpt lat="43.97557" lon="5.8906">
        <ele>590</ele>
        <time>2020-10-05T15:56:34.988Z</time>
      </trkpt>
      <trkpt lat="43.97557" lon="5.8906">
        <ele>590</ele>
        <time>2020-10-05T15:56:35.988Z</time>
      </trkpt>
      <trkpt lat="43.97557" lon="5.8906">
        <ele>590</ele>
        <time>2020-10-05T15:56:36.988Z</time>
      </trkpt>
      <trkpt lat="43.97557" lon="5.8906">
        <ele>590</ele>
        <time>2020-10-05T15:56:37.988Z</time>
      </trkpt>
      <trkpt lat="43.97557" lon="5.8906">
        <ele>590</ele>
        <time>2020-10-05T15:56:38.988Z</time>
      </trkpt>
      <trkpt lat="43.97557" lon="5.8906">
        <ele>590</ele>
        <time>2020-10-05T15:56:39.988Z</time>
      </trkpt>
      <trkpt lat="43.97557" lon="5.89059">
        <ele>590</ele>
        <time>2020-10-05T15:56:40.988Z</time>
      </trkpt>
      <trkpt lat="43.97558" lon="5.89059">
        <ele>590</ele>
        <time>2020-10-05T15:56:41.988Z</time>
      </trkpt>
      <trkpt lat="43.97558" lon="5.89059">
        <ele>590</ele>
        <time>2020-10-05T15:56:42.988Z</time>
      </trkpt>
      <trkpt lat="43.97558" lon="5.89059">
        <ele>590</ele>
        <time>2020-10-05T15:56:43.988Z</time>
      </trkpt>
      <trkpt lat="43.97558" lon="5.89059">
        <ele>590</ele>
        <time>2020-10-05T15:56:44.988Z</time>
      </trkpt>
      <trkpt lat="43.97558" lon="5.89059">
        <ele>590</ele>
        <time>2020-10-05T15:56:45.988Z</time>
      </trkpt>
      <trkpt lat="43.97558" lon="5.89059">
        <ele>590</ele>
        <time>2020-10-05T15:56:46.988Z</time>
      </trkpt>
      <trkpt lat="43.97558" lon="5.89059">
        <ele>590</ele>
        <time>2020-10-05T15:56:47.988Z</time>
      </trkpt>
      <trkpt lat="43.97558" lon="5.89059">
        <ele>590</ele>
        <time>2020-10-05T15:56:48.988Z</time>
      </trkpt>
      <trkpt lat="43.97558" lon="5.89059">
        <ele>590</ele>
        <time>2020-10-05T15:56:49.988Z</time>
      </trkpt>
      <trkpt lat="43.97558" lon="5.89059">
        <ele>590</ele>
        <time>2020-10-05T15:56:50.988Z</time>
      </trkpt>
      <trkpt lat="43.97558" lon="5.89059">
        <ele>590</ele>
        <time>2020-10-05T15:56:51.988Z</time>
      </trkpt>
      <trkpt lat="43.97558" lon="5.89059">
        <ele>590</ele>
        <time>2020-10-05T15:56:52.988Z</time>
      </trkpt>
      <trkpt lat="43.97558" lon="5.89059">
        <ele>590</ele>
        <time>2020-10-05T15:56:53.988Z</time>
      </trkpt>
      <trkpt lat="43.97558" lon="5.89059">
        <ele>590</ele>
        <time>2020-10-05T15:56:54.988Z</time>
      </trkpt>
      <trkpt lat="43.97558" lon="5.89059">
        <ele>590</ele>
        <time>2020-10-05T15:56:55.988Z</time>
      </trkpt>
      <trkpt lat="43.97558" lon="5.89059">
        <ele>590</ele>
        <time>2020-10-05T15:56:56.988Z</time>
      </trkpt>
      <trkpt lat="43.97558" lon="5.89059">
        <ele>590</ele>
        <time>2020-10-05T15:56:57.988Z</time>
      </trkpt>
      <trkpt lat="43.97558" lon="5.89059">
        <ele>590</ele>
        <time>2020-10-05T15:56:58.988Z</time>
      </trkpt>
      <trkpt lat="43.97558" lon="5.89059">
        <ele>590</ele>
        <time>2020-10-05T15:56:59.988Z</time>
      </trkpt>
      <trkpt lat="43.97558" lon="5.89059">
        <ele>590</ele>
        <time>2020-10-05T15:57:00.988Z</time>
      </trkpt>
      <trkpt lat="43.97558" lon="5.89059">
        <ele>590</ele>
        <time>2020-10-05T15:57:01.988Z</time>
      </trkpt>
      <trkpt lat="43.97558" lon="5.89059">
        <ele>590</ele>
        <time>2020-10-05T15:57:02.988Z</time>
      </trkpt>
      <trkpt lat="43.97558" lon="5.89059">
        <ele>590</ele>
        <time>2020-10-05T15:57:03.988Z</time>
      </trkpt>
      <trkpt lat="43.97558" lon="5.89059">
        <ele>590</ele>
        <time>2020-10-05T15:57:04.988Z</time>
      </trkpt>
      <trkpt lat="43.97558" lon="5.89059">
        <ele>590</ele>
        <time>2020-10-05T15:57:05.988Z</time>
      </trkpt>
      <trkpt lat="43.97558" lon="5.89059">
        <ele>590</ele>
        <time>2020-10-05T15:57:06.988Z</time>
      </trkpt>
      <trkpt lat="43.97558" lon="5.89059">
        <ele>590</ele>
        <time>2020-10-05T15:57:07.988Z</time>
      </trkpt>
      <trkpt lat="43.97558" lon="5.89059">
        <ele>590</ele>
        <time>2020-10-05T15:57:08.988Z</time>
      </trkpt>
      <trkpt lat="43.97558" lon="5.89059">
        <ele>590</ele>
        <time>2020-10-05T15:57:09.988Z</time>
      </trkpt>
      <trkpt lat="43.97558" lon="5.89059">
        <ele>590</ele>
        <time>2020-10-05T15:57:10.988Z</time>
      </trkpt>
      <trkpt lat="43.97558" lon="5.89059">
        <ele>590</ele>
        <time>2020-10-05T15:57:11.988Z</time>
      </trkpt>
      <trkpt lat="43.97558" lon="5.89059">
        <ele>590</ele>
        <time>2020-10-05T15:57:12.988Z</time>
      </trkpt>
      <trkpt lat="43.97558" lon="5.89059">
        <ele>590</ele>
        <time>2020-10-05T15:57:13.988Z</time>
      </trkpt>
      <trkpt lat="43.97558" lon="5.89059">
        <ele>590</ele>
        <time>2020-10-05T15:57:14.988Z</time>
      </trkpt>
      <trkpt lat="43.97558" lon="5.89059">
        <ele>590</ele>
        <time>2020-10-05T15:57:15.988Z</time>
      </trkpt>
      <trkpt lat="43.97558" lon="5.89059">
        <ele>590</ele>
        <time>2020-10-05T15:57:16.988Z</time>
      </trkpt>
      <trkpt lat="43.97558" lon="5.89059">
        <ele>590</ele>
        <time>2020-10-05T15:57:17.988Z</time>
      </trkpt>
      <trkpt lat="43.97558" lon="5.89059">
        <ele>590</ele>
        <time>2020-10-05T15:57:18.988Z</time>
      </trkpt>
      <trkpt lat="43.97558" lon="5.89059">
        <ele>590</ele>
        <time>2020-10-05T15:57:19.988Z</time>
      </trkpt>
      <trkpt lat="43.97558" lon="5.89059">
        <ele>590</ele>
        <time>2020-10-05T15:57:20.988Z</time>
      </trkpt>
      <trkpt lat="43.97558" lon="5.89059">
        <ele>590</ele>
        <time>2020-10-05T15:57:21.988Z</time>
      </trkpt>
      <trkpt lat="43.97558" lon="5.89059">
        <ele>590</ele>
        <time>2020-10-05T15:57:22.988Z</time>
      </trkpt>
      <trkpt lat="43.97557" lon="5.89059">
        <ele>590</ele>
        <time>2020-10-05T15:57:23.988Z</time>
      </trkpt>
      <trkpt lat="43.97557" lon="5.89059">
        <ele>590</ele>
        <time>2020-10-05T15:57:24.988Z</time>
      </trkpt>
      <trkpt lat="43.97556" lon="5.89058">
        <ele>590</ele>
        <time>2020-10-05T15:57:25.988Z</time>
      </trkpt>
      <trkpt lat="43.97555" lon="5.89058">
        <ele>589</ele>
        <time>2020-10-05T15:57:26.988Z</time>
      </trkpt>
      <trkpt lat="43.97554" lon="5.89058">
        <ele>589</ele>
        <time>2020-10-05T15:57:27.988Z</time>
      </trkpt>
      <trkpt lat="43.97553" lon="5.89058">
        <ele>589</ele>
        <time>2020-10-05T15:57:28.988Z</time>
      </trkpt>
      <trkpt lat="43.97552" lon="5.89058">
        <ele>589</ele>
        <time>2020-10-05T15:57:29.988Z</time>
      </trkpt>
      <trkpt lat="43.97551" lon="5.89058">
        <ele>589</ele>
        <time>2020-10-05T15:57:30.988Z</time>
      </trkpt>
      <trkpt lat="43.9755" lon="5.89058">
        <ele>589</ele>
        <time>2020-10-05T15:57:31.988Z</time>
      </trkpt>
      <trkpt lat="43.97549" lon="5.89057">
        <ele>589</ele>
        <time>2020-10-05T15:57:32.988Z</time>
      </trkpt>
      <trkpt lat="43.97548" lon="5.89057">
        <ele>589</ele>
        <time>2020-10-05T15:57:33.988Z</time>
      </trkpt>
      <trkpt lat="43.97547" lon="5.89056">
        <ele>589</ele>
        <time>2020-10-05T15:57:34.988Z</time>
      </trkpt>
      <trkpt lat="43.97546" lon="5.89056">
        <ele>589</ele>
        <time>2020-10-05T15:57:35.988Z</time>
      </trkpt>
      <trkpt lat="43.97545" lon="5.89055">
        <ele>589</ele>
        <time>2020-10-05T15:57:36.988Z</time>
      </trkpt>
      <trkpt lat="43.97544" lon="5.89055">
        <ele>589</ele>
        <time>2020-10-05T15:57:37.988Z</time>
      </trkpt>
      <trkpt lat="43.97543" lon="5.89055">
        <ele>589</ele>
        <time>2020-10-05T15:57:38.988Z</time>
      </trkpt>
      <trkpt lat="43.97541" lon="5.89054">
        <ele>589</ele>
        <time>2020-10-05T15:57:39.988Z</time>
      </trkpt>
      <trkpt lat="43.9754" lon="5.89054">
        <ele>589</ele>
        <time>2020-10-05T15:57:40.988Z</time>
      </trkpt>
      <trkpt lat="43.97539" lon="5.89054">
        <ele>589</ele>
        <time>2020-10-05T15:57:41.988Z</time>
      </trkpt>
      <trkpt lat="43.97538" lon="5.89054">
        <ele>589</ele>
        <time>2020-10-05T15:57:42.988Z</time>
      </trkpt>
      <trkpt lat="43.97537" lon="5.89054">
        <ele>589</ele>
        <time>2020-10-05T15:57:43.988Z</time>
      </trkpt>
      <trkpt lat="43.97536" lon="5.89054">
        <ele>589</ele>
        <time>2020-10-05T15:57:44.988Z</time>
      </trkpt>
      <trkpt lat="43.97535" lon="5.89053">
        <ele>589</ele>
        <time>2020-10-05T15:57:45.988Z</time>
      </trkpt>
      <trkpt lat="43.97534" lon="5.89053">
        <ele>589</ele>
        <time>2020-10-05T15:57:46.988Z</time>
      </trkpt>
      <trkpt lat="43.97533" lon="5.89052">
        <ele>589</ele>
        <time>2020-10-05T15:57:47.988Z</time>
      </trkpt>
      <trkpt lat="43.97532" lon="5.89052">
        <ele>589</ele>
        <time>2020-10-05T15:57:48.988Z</time>
      </trkpt>
      <trkpt lat="43.97531" lon="5.89052">
        <ele>589</ele>
        <time>2020-10-05T15:57:49.988Z</time>
      </trkpt>
      <trkpt lat="43.9753" lon="5.89052">
        <ele>589</ele>
        <time>2020-10-05T15:57:50.988Z</time>
      </trkpt>
      <trkpt lat="43.97529" lon="5.89052">
        <ele>589</ele>
        <time>2020-10-05T15:57:51.988Z</time>
      </trkpt>
      <trkpt lat="43.97528" lon="5.89052">
        <ele>589</ele>
        <time>2020-10-05T15:57:52.988Z</time>
      </trkpt>
      <trkpt lat="43.97527" lon="5.89051">
        <ele>589</ele>
        <time>2020-10-05T15:57:53.988Z</time>
      </trkpt>
      <trkpt lat="43.97527" lon="5.89051">
        <ele>589</ele>
        <time>2020-10-05T15:57:54.988Z</time>
      </trkpt>
      <trkpt lat="43.97526" lon="5.89051">
        <ele>589</ele>
        <time>2020-10-05T15:57:55.988Z</time>
      </trkpt>
      <trkpt lat="43.97525" lon="5.8905">
        <ele>589</ele>
        <time>2020-10-05T15:57:56.988Z</time>
      </trkpt>
      <trkpt lat="43.97524" lon="5.8905">
        <ele>589</ele>
        <time>2020-10-05T15:57:57.988Z</time>
      </trkpt>
      <trkpt lat="43.97523" lon="5.8905">
        <ele>589</ele>
        <time>2020-10-05T15:57:58.988Z</time>
      </trkpt>
      <trkpt lat="43.97522" lon="5.8905">
        <ele>589</ele>
        <time>2020-10-05T15:57:59.988Z</time>
      </trkpt>
      <trkpt lat="43.97521" lon="5.8905">
        <ele>589</ele>
        <time>2020-10-05T15:58:00.988Z</time>
      </trkpt>
      <trkpt lat="43.9752" lon="5.89049">
        <ele>589</ele>
        <time>2020-10-05T15:58:01.988Z</time>
      </trkpt>
      <trkpt lat="43.97519" lon="5.89049">
        <ele>589</ele>
        <time>2020-10-05T15:58:02.988Z</time>
      </trkpt>
      <trkpt lat="43.97518" lon="5.89049">
        <ele>589</ele>
        <time>2020-10-05T15:58:03.988Z</time>
      </trkpt>
      <trkpt lat="43.97517" lon="5.89048">
        <ele>589</ele>
        <time>2020-10-05T15:58:04.988Z</time>
      </trkpt>
      <trkpt lat="43.97516" lon="5.89048">
        <ele>590</ele>
        <time>2020-10-05T15:58:05.988Z</time>
      </trkpt>
      <trkpt lat="43.97515" lon="5.89047">
        <ele>590</ele>
        <time>2020-10-05T15:58:06.988Z</time>
      </trkpt>
      <trkpt lat="43.97513" lon="5.89047">
        <ele>590</ele>
        <time>2020-10-05T15:58:07.988Z</time>
      </trkpt>
      <trkpt lat="43.97512" lon="5.89046">
        <ele>590</ele>
        <time>2020-10-05T15:58:08.988Z</time>
      </trkpt>
      <trkpt lat="43.97511" lon="5.89046">
        <ele>590</ele>
        <time>2020-10-05T15:58:09.988Z</time>
      </trkpt>
      <trkpt lat="43.9751" lon="5.89045">
        <ele>590</ele>
        <time>2020-10-05T15:58:10.988Z</time>
      </trkpt>
      <trkpt lat="43.97509" lon="5.89044">
        <ele>590</ele>
        <time>2020-10-05T15:58:11.988Z</time>
      </trkpt>
      <trkpt lat="43.97508" lon="5.89044">
        <ele>590</ele>
        <time>2020-10-05T15:58:12.988Z</time>
      </trkpt>
      <trkpt lat="43.97507" lon="5.89043">
        <ele>590</ele>
        <time>2020-10-05T15:58:13.988Z</time>
      </trkpt>
      <trkpt lat="43.97506" lon="5.89043">
        <ele>590</ele>
        <time>2020-10-05T15:58:14.988Z</time>
      </trkpt>
      <trkpt lat="43.97505" lon="5.89042">
        <ele>590</ele>
        <time>2020-10-05T15:58:15.988Z</time>
      </trkpt>
      <trkpt lat="43.97503" lon="5.89042">
        <ele>590</ele>
        <time>2020-10-05T15:58:16.988Z</time>
      </trkpt>
      <trkpt lat="43.97502" lon="5.89041">
        <ele>590</ele>
        <time>2020-10-05T15:58:17.988Z</time>
      </trkpt>
      <trkpt lat="43.97501" lon="5.89041">
        <ele>590</ele>
        <time>2020-10-05T15:58:18.988Z</time>
      </trkpt>
      <trkpt lat="43.97499" lon="5.89041">
        <ele>590</ele>
        <time>2020-10-05T15:58:19.988Z</time>
      </trkpt>
      <trkpt lat="43.97498" lon="5.89041">
        <ele>590</ele>
        <time>2020-10-05T15:58:20.988Z</time>
      </trkpt>
      <trkpt lat="43.97497" lon="5.8904">
        <ele>590</ele>
        <time>2020-10-05T15:58:21.988Z</time>
      </trkpt>
      <trkpt lat="43.97496" lon="5.8904">
        <ele>590</ele>
        <time>2020-10-05T15:58:22.988Z</time>
      </trkpt>
      <trkpt lat="43.97495" lon="5.89039">
        <ele>590</ele>
        <time>2020-10-05T15:58:23.988Z</time>
      </trkpt>
      <trkpt lat="43.97493" lon="5.89039">
        <ele>590</ele>
        <time>2020-10-05T15:58:24.988Z</time>
      </trkpt>
      <trkpt lat="43.97492" lon="5.89038">
        <ele>590</ele>
        <time>2020-10-05T15:58:25.988Z</time>
      </trkpt>
      <trkpt lat="43.97491" lon="5.89037">
        <ele>590</ele>
        <time>2020-10-05T15:58:26.988Z</time>
      </trkpt>
      <trkpt lat="43.9749" lon="5.89036">
        <ele>590</ele>
        <time>2020-10-05T15:58:27.988Z</time>
      </trkpt>
      <trkpt lat="43.97489" lon="5.89036">
        <ele>590</ele>
        <time>2020-10-05T15:58:28.988Z</time>
      </trkpt>
      <trkpt lat="43.97488" lon="5.89036">
        <ele>590</ele>
        <time>2020-10-05T15:58:29.988Z</time>
      </trkpt>
      <trkpt lat="43.97486" lon="5.89035">
        <ele>590</ele>
        <time>2020-10-05T15:58:30.988Z</time>
      </trkpt>
      <trkpt lat="43.97485" lon="5.89035">
        <ele>590</ele>
        <time>2020-10-05T15:58:31.988Z</time>
      </trkpt>
      <trkpt lat="43.97484" lon="5.89034">
        <ele>590</ele>
        <time>2020-10-05T15:58:32.988Z</time>
      </trkpt>
      <trkpt lat="43.97483" lon="5.89034">
        <ele>590</ele>
        <time>2020-10-05T15:58:33.988Z</time>
      </trkpt>
      <trkpt lat="43.97482" lon="5.89033">
        <ele>590</ele>
        <time>2020-10-05T15:58:34.988Z</time>
      </trkpt>
      <trkpt lat="43.97481" lon="5.89033">
        <ele>590</ele>
        <time>2020-10-05T15:58:35.988Z</time>
      </trkpt>
      <trkpt lat="43.9748" lon="5.89032">
        <ele>590</ele>
        <time>2020-10-05T15:58:36.988Z</time>
      </trkpt>
      <trkpt lat="43.97479" lon="5.89031">
        <ele>590</ele>
        <time>2020-10-05T15:58:37.988Z</time>
      </trkpt>
      <trkpt lat="43.97478" lon="5.89031">
        <ele>590</ele>
        <time>2020-10-05T15:58:38.988Z</time>
      </trkpt>
      <trkpt lat="43.97476" lon="5.8903">
        <ele>590</ele>
        <time>2020-10-05T15:58:39.988Z</time>
      </trkpt>
      <trkpt lat="43.97475" lon="5.8903">
        <ele>589</ele>
        <time>2020-10-05T15:58:40.988Z</time>
      </trkpt>
      <trkpt lat="43.97474" lon="5.8903">
        <ele>589</ele>
        <time>2020-10-05T15:58:41.988Z</time>
      </trkpt>
      <trkpt lat="43.97473" lon="5.89029">
        <ele>589</ele>
        <time>2020-10-05T15:58:42.988Z</time>
      </trkpt>
      <trkpt lat="43.97473" lon="5.89029">
        <ele>589</ele>
        <time>2020-10-05T15:58:43.988Z</time>
      </trkpt>
      <trkpt lat="43.97471" lon="5.89029">
        <ele>589</ele>
        <time>2020-10-05T15:58:44.988Z</time>
      </trkpt>
      <trkpt lat="43.9747" lon="5.89028">
        <ele>589</ele>
        <time>2020-10-05T15:58:45.988Z</time>
      </trkpt>
      <trkpt lat="43.97469" lon="5.89028">
        <ele>589</ele>
        <time>2020-10-05T15:58:46.988Z</time>
      </trkpt>
      <trkpt lat="43.97468" lon="5.89027">
        <ele>589</ele>
        <time>2020-10-05T15:58:47.988Z</time>
      </trkpt>
      <trkpt lat="43.97467" lon="5.89027">
        <ele>589</ele>
        <time>2020-10-05T15:58:48.988Z</time>
      </trkpt>
      <trkpt lat="43.97466" lon="5.89026">
        <ele>589</ele>
        <time>2020-10-05T15:58:49.988Z</time>
      </trkpt>
      <trkpt lat="43.97465" lon="5.89025">
        <ele>589</ele>
        <time>2020-10-05T15:58:50.988Z</time>
      </trkpt>
      <trkpt lat="43.97464" lon="5.89024">
        <ele>589</ele>
        <time>2020-10-05T15:58:51.988Z</time>
      </trkpt>
      <trkpt lat="43.97463" lon="5.89024">
        <ele>589</ele>
        <time>2020-10-05T15:58:52.988Z</time>
      </trkpt>
      <trkpt lat="43.97462" lon="5.89023">
        <ele>589</ele>
        <time>2020-10-05T15:58:53.988Z</time>
      </trkpt>
      <trkpt lat="43.97461" lon="5.89022">
        <ele>589</ele>
        <time>2020-10-05T15:58:54.988Z</time>
      </trkpt>
      <trkpt lat="43.9746" lon="5.89022">
        <ele>589</ele>
        <time>2020-10-05T15:58:55.988Z</time>
      </trkpt>
      <trkpt lat="43.97459" lon="5.89021">
        <ele>589</ele>
        <time>2020-10-05T15:58:56.988Z</time>
      </trkpt>
      <trkpt lat="43.97458" lon="5.89021">
        <ele>589</ele>
        <time>2020-10-05T15:58:57.988Z</time>
      </trkpt>
      <trkpt lat="43.97457" lon="5.8902">
        <ele>589</ele>
        <time>2020-10-05T15:58:58.988Z</time>
      </trkpt>
      <trkpt lat="43.97456" lon="5.8902">
        <ele>589</ele>
        <time>2020-10-05T15:58:59.988Z</time>
      </trkpt>
      <trkpt lat="43.97455" lon="5.89019">
        <ele>589</ele>
        <time>2020-10-05T15:59:00.988Z</time>
      </trkpt>
      <trkpt lat="43.97454" lon="5.89019">
        <ele>589</ele>
        <time>2020-10-05T15:59:01.988Z</time>
      </trkpt>
      <trkpt lat="43.97453" lon="5.89019">
        <ele>589</ele>
        <time>2020-10-05T15:59:02.988Z</time>
      </trkpt>
      <trkpt lat="43.97452" lon="5.89019">
        <ele>589</ele>
        <time>2020-10-05T15:59:03.988Z</time>
      </trkpt>
      <trkpt lat="43.97451" lon="5.89018">
        <ele>589</ele>
        <time>2020-10-05T15:59:04.988Z</time>
      </trkpt>
      <trkpt lat="43.9745" lon="5.89018">
        <ele>589</ele>
        <time>2020-10-05T15:59:05.988Z</time>
      </trkpt>
      <trkpt lat="43.97449" lon="5.89017">
        <ele>589</ele>
        <time>2020-10-05T15:59:06.988Z</time>
      </trkpt>
      <trkpt lat="43.97448" lon="5.89017">
        <ele>589</ele>
        <time>2020-10-05T15:59:07.988Z</time>
      </trkpt>
      <trkpt lat="43.97447" lon="5.89016">
        <ele>589</ele>
        <time>2020-10-05T15:59:08.988Z</time>
      </trkpt>
      <trkpt lat="43.97446" lon="5.89016">
        <ele>589</ele>
        <time>2020-10-05T15:59:09.988Z</time>
      </trkpt>
      <trkpt lat="43.97445" lon="5.89016">
        <ele>589</ele>
        <time>2020-10-05T15:59:10.988Z</time>
      </trkpt>
      <trkpt lat="43.97444" lon="5.89015">
        <ele>589</ele>
        <time>2020-10-05T15:59:11.988Z</time>
      </trkpt>
      <trkpt lat="43.97444" lon="5.89015">
        <ele>589</ele>
        <time>2020-10-05T15:59:12.988Z</time>
      </trkpt>
      <trkpt lat="43.97443" lon="5.89015">
        <ele>589</ele>
        <time>2020-10-05T15:59:13.988Z</time>
      </trkpt>
      <trkpt lat="43.97442" lon="5.89015">
        <ele>589</ele>
        <time>2020-10-05T15:59:14.988Z</time>
      </trkpt>
      <trkpt lat="43.97441" lon="5.89015">
        <ele>589</ele>
        <time>2020-10-05T15:59:15.988Z</time>
      </trkpt>
      <trkpt lat="43.9744" lon="5.89014">
        <ele>589</ele>
        <time>2020-10-05T15:59:16.988Z</time>
      </trkpt>
      <trkpt lat="43.97439" lon="5.89014">
        <ele>589</ele>
        <time>2020-10-05T15:59:17.988Z</time>
      </trkpt>
      <trkpt lat="43.97438" lon="5.89014">
        <ele>589</ele>
        <time>2020-10-05T15:59:18.988Z</time>
      </trkpt>
      <trkpt lat="43.97437" lon="5.89014">
        <ele>589</ele>
        <time>2020-10-05T15:59:19.988Z</time>
      </trkpt>
      <trkpt lat="43.97436" lon="5.89014">
        <ele>589</ele>
        <time>2020-10-05T15:59:20.988Z</time>
      </trkpt>
      <trkpt lat="43.97435" lon="5.89014">
        <ele>589</ele>
        <time>2020-10-05T15:59:21.988Z</time>
      </trkpt>
      <trkpt lat="43.97434" lon="5.89013">
        <ele>589</ele>
        <time>2020-10-05T15:59:22.988Z</time>
      </trkpt>
      <trkpt lat="43.97433" lon="5.89013">
        <ele>589</ele>
        <time>2020-10-05T15:59:23.988Z</time>
      </trkpt>
      <trkpt lat="43.97432" lon="5.89013">
        <ele>589</ele>
        <time>2020-10-05T15:59:24.988Z</time>
      </trkpt>
      <trkpt lat="43.97431" lon="5.89013">
        <ele>589</ele>
        <time>2020-10-05T15:59:25.988Z</time>
      </trkpt>
      <trkpt lat="43.9743" lon="5.89013">
        <ele>589</ele>
        <time>2020-10-05T15:59:26.988Z</time>
      </trkpt>
      <trkpt lat="43.97429" lon="5.89013">
        <ele>589</ele>
        <time>2020-10-05T15:59:27.988Z</time>
      </trkpt>
      <trkpt lat="43.97428" lon="5.89013">
        <ele>589</ele>
        <time>2020-10-05T15:59:28.988Z</time>
      </trkpt>
      <trkpt lat="43.97427" lon="5.89013">
        <ele>589</ele>
        <time>2020-10-05T15:59:29.988Z</time>
      </trkpt>
      <trkpt lat="43.97426" lon="5.89013">
        <ele>589</ele>
        <time>2020-10-05T15:59:30.988Z</time>
      </trkpt>
      <trkpt lat="43.97425" lon="5.89013">
        <ele>589</ele>
        <time>2020-10-05T15:59:31.988Z</time>
      </trkpt>
      <trkpt lat="43.97424" lon="5.89014">
        <ele>589</ele>
        <time>2020-10-05T15:59:32.988Z</time>
      </trkpt>
      <trkpt lat="43.97423" lon="5.89013">
        <ele>589</ele>
        <time>2020-10-05T15:59:33.988Z</time>
      </trkpt>
      <trkpt lat="43.97422" lon="5.89013">
        <ele>589</ele>
        <time>2020-10-05T15:59:34.988Z</time>
      </trkpt>
      <trkpt lat="43.97421" lon="5.89013">
        <ele>589</ele>
        <time>2020-10-05T15:59:35.988Z</time>
      </trkpt>
      <trkpt lat="43.9742" lon="5.89013">
        <ele>589</ele>
        <time>2020-10-05T15:59:36.988Z</time>
      </trkpt>
      <trkpt lat="43.97419" lon="5.89013">
        <ele>589</ele>
        <time>2020-10-05T15:59:37.988Z</time>
      </trkpt>
      <trkpt lat="43.97418" lon="5.89013">
        <ele>589</ele>
        <time>2020-10-05T15:59:38.988Z</time>
      </trkpt>
      <trkpt lat="43.97417" lon="5.89013">
        <ele>589</ele>
        <time>2020-10-05T15:59:39.988Z</time>
      </trkpt>
      <trkpt lat="43.97415" lon="5.89012">
        <ele>589</ele>
        <time>2020-10-05T15:59:40.988Z</time>
      </trkpt>
      <trkpt lat="43.97414" lon="5.89012">
        <ele>589</ele>
        <time>2020-10-05T15:59:41.988Z</time>
      </trkpt>
      <trkpt lat="43.97413" lon="5.89012">
        <ele>589</ele>
        <time>2020-10-05T15:59:42.988Z</time>
      </trkpt>
      <trkpt lat="43.97412" lon="5.89012">
        <ele>589</ele>
        <time>2020-10-05T15:59:43.988Z</time>
      </trkpt>
      <trkpt lat="43.97411" lon="5.89012">
        <ele>589</ele>
        <time>2020-10-05T15:59:44.988Z</time>
      </trkpt>
      <trkpt lat="43.9741" lon="5.89011">
        <ele>589</ele>
        <time>2020-10-05T15:59:45.988Z</time>
      </trkpt>
      <trkpt lat="43.97409" lon="5.89011">
        <ele>589</ele>
        <time>2020-10-05T15:59:46.988Z</time>
      </trkpt>
      <trkpt lat="43.97408" lon="5.89011">
        <ele>589</ele>
        <time>2020-10-05T15:59:47.988Z</time>
      </trkpt>
      <trkpt lat="43.97407" lon="5.8901">
        <ele>589</ele>
        <time>2020-10-05T15:59:48.988Z</time>
      </trkpt>
      <trkpt lat="43.97405" lon="5.8901">
        <ele>589</ele>
        <time>2020-10-05T15:59:49.988Z</time>
      </trkpt>
      <trkpt lat="43.97405" lon="5.8901">
        <ele>589</ele>
        <time>2020-10-05T15:59:50.988Z</time>
      </trkpt>
      <trkpt lat="43.97404" lon="5.89009">
        <ele>589</ele>
        <time>2020-10-05T15:59:51.988Z</time>
      </trkpt>
      <trkpt lat="43.97403" lon="5.89009">
        <ele>589</ele>
        <time>2020-10-05T15:59:52.988Z</time>
      </trkpt>
      <trkpt lat="43.97402" lon="5.89008">
        <ele>590</ele>
        <time>2020-10-05T15:59:53.988Z</time>
      </trkpt>
      <trkpt lat="43.97401" lon="5.89008">
        <ele>590</ele>
        <time>2020-10-05T15:59:54.988Z</time>
      </trkpt>
      <trkpt lat="43.974" lon="5.89007">
        <ele>590</ele>
        <time>2020-10-05T15:59:55.988Z</time>
      </trkpt>
      <trkpt lat="43.97399" lon="5.89007">
        <ele>590</ele>
        <time>2020-10-05T15:59:56.988Z</time>
      </trkpt>
      <trkpt lat="43.97398" lon="5.89006">
        <ele>590</ele>
        <time>2020-10-05T15:59:57.988Z</time>
      </trkpt>
      <trkpt lat="43.97397" lon="5.89005">
        <ele>590</ele>
        <time>2020-10-05T15:59:58.988Z</time>
      </trkpt>
      <trkpt lat="43.97396" lon="5.89005">
        <ele>590</ele>
        <time>2020-10-05T15:59:59.988Z</time>
      </trkpt>
      <trkpt lat="43.97395" lon="5.89004">
        <ele>590</ele>
        <time>2020-10-05T16:00:00.988Z</time>
      </trkpt>
      <trkpt lat="43.97394" lon="5.89004">
        <ele>590</ele>
        <time>2020-10-05T16:00:01.988Z</time>
      </trkpt>
      <trkpt lat="43.97393" lon="5.89003">
        <ele>590</ele>
        <time>2020-10-05T16:00:02.988Z</time>
      </trkpt>
      <trkpt lat="43.97392" lon="5.89002">
        <ele>589</ele>
        <time>2020-10-05T16:00:03.988Z</time>
      </trkpt>
      <trkpt lat="43.97391" lon="5.89001">
        <ele>589</ele>
        <time>2020-10-05T16:00:04.988Z</time>
      </trkpt>
      <trkpt lat="43.9739" lon="5.89">
        <ele>589</ele>
        <time>2020-10-05T16:00:05.988Z</time>
      </trkpt>
      <trkpt lat="43.97389" lon="5.88999">
        <ele>589</ele>
        <time>2020-10-05T16:00:06.988Z</time>
      </trkpt>
      <trkpt lat="43.97388" lon="5.88998">
        <ele>590</ele>
        <time>2020-10-05T16:00:07.988Z</time>
      </trkpt>
      <trkpt lat="43.97386" lon="5.88998">
        <ele>590</ele>
        <time>2020-10-05T16:00:08.988Z</time>
      </trkpt>
      <trkpt lat="43.97385" lon="5.88997">
        <ele>589</ele>
        <time>2020-10-05T16:00:09.988Z</time>
      </trkpt>
      <trkpt lat="43.97384" lon="5.88996">
        <ele>589</ele>
        <time>2020-10-05T16:00:10.988Z</time>
      </trkpt>
      <trkpt lat="43.97383" lon="5.88995">
        <ele>589</ele>
        <time>2020-10-05T16:00:11.988Z</time>
      </trkpt>
      <trkpt lat="43.97382" lon="5.88995">
        <ele>589</ele>
        <time>2020-10-05T16:00:12.988Z</time>
      </trkpt>
      <trkpt lat="43.97382" lon="5.88994">
        <ele>590</ele>
        <time>2020-10-05T16:00:13.988Z</time>
      </trkpt>
      <trkpt lat="43.97381" lon="5.88994">
        <ele>590</ele>
        <time>2020-10-05T16:00:14.988Z</time>
      </trkpt>
      <trkpt lat="43.9738" lon="5.88993">
        <ele>590</ele>
        <time>2020-10-05T16:00:15.988Z</time>
      </trkpt>
      <trkpt lat="43.97379" lon="5.88992">
        <ele>590</ele>
        <time>2020-10-05T16:00:16.988Z</time>
      </trkpt>
      <trkpt lat="43.97378" lon="5.88992">
        <ele>590</ele>
        <time>2020-10-05T16:00:17.988Z</time>
      </trkpt>
      <trkpt lat="43.97377" lon="5.88991">
        <ele>590</ele>
        <time>2020-10-05T16:00:18.988Z</time>
      </trkpt>
      <trkpt lat="43.97377" lon="5.88991">
        <ele>590</ele>
        <time>2020-10-05T16:00:19.988Z</time>
      </trkpt>
      <trkpt lat="43.97376" lon="5.8899">
        <ele>590</ele>
        <time>2020-10-05T16:00:20.988Z</time>
      </trkpt>
      <trkpt lat="43.97375" lon="5.88989">
        <ele>590</ele>
        <time>2020-10-05T16:00:21.988Z</time>
      </trkpt>
      <trkpt lat="43.97374" lon="5.88989">
        <ele>590</ele>
        <time>2020-10-05T16:00:22.988Z</time>
      </trkpt>
      <trkpt lat="43.97373" lon="5.88989">
        <ele>590</ele>
        <time>2020-10-05T16:00:23.988Z</time>
      </trkpt>
      <trkpt lat="43.97372" lon="5.88988">
        <ele>590</ele>
        <time>2020-10-05T16:00:24.988Z</time>
      </trkpt>
      <trkpt lat="43.97371" lon="5.88988">
        <ele>590</ele>
        <time>2020-10-05T16:00:25.988Z</time>
      </trkpt>
      <trkpt lat="43.9737" lon="5.88987">
        <ele>590</ele>
        <time>2020-10-05T16:00:26.988Z</time>
      </trkpt>
      <trkpt lat="43.97369" lon="5.88987">
        <ele>590</ele>
        <time>2020-10-05T16:00:27.988Z</time>
      </trkpt>
      <trkpt lat="43.97368" lon="5.88987">
        <ele>590</ele>
        <time>2020-10-05T16:00:28.988Z</time>
      </trkpt>
      <trkpt lat="43.97367" lon="5.88987">
        <ele>590</ele>
        <time>2020-10-05T16:00:29.988Z</time>
      </trkpt>
      <trkpt lat="43.97366" lon="5.88986">
        <ele>590</ele>
        <time>2020-10-05T16:00:30.988Z</time>
      </trkpt>
      <trkpt lat="43.97365" lon="5.88986">
        <ele>590</ele>
        <time>2020-10-05T16:00:31.988Z</time>
      </trkpt>
      <trkpt lat="43.97364" lon="5.88986">
        <ele>590</ele>
        <time>2020-10-05T16:00:32.988Z</time>
      </trkpt>
      <trkpt lat="43.97363" lon="5.88986">
        <ele>590</ele>
        <time>2020-10-05T16:00:33.988Z</time>
      </trkpt>
      <trkpt lat="43.97362" lon="5.88985">
        <ele>590</ele>
        <time>2020-10-05T16:00:34.988Z</time>
      </trkpt>
      <trkpt lat="43.97361" lon="5.88985">
        <ele>590</ele>
        <time>2020-10-05T16:00:35.988Z</time>
      </trkpt>
      <trkpt lat="43.9736" lon="5.88985">
        <ele>590</ele>
        <time>2020-10-05T16:00:36.988Z</time>
      </trkpt>
      <trkpt lat="43.97359" lon="5.88985">
        <ele>590</ele>
        <time>2020-10-05T16:00:37.988Z</time>
      </trkpt>
      <trkpt lat="43.97358" lon="5.88985">
        <ele>590</ele>
        <time>2020-10-05T16:00:38.988Z</time>
      </trkpt>
      <trkpt lat="43.97357" lon="5.88985">
        <ele>590</ele>
        <time>2020-10-05T16:00:39.988Z</time>
      </trkpt>
      <trkpt lat="43.97356" lon="5.88984">
        <ele>590</ele>
        <time>2020-10-05T16:00:40.988Z</time>
      </trkpt>
      <trkpt lat="43.97355" lon="5.88984">
        <ele>590</ele>
        <time>2020-10-05T16:00:41.988Z</time>
      </trkpt>
      <trkpt lat="43.97354" lon="5.88983">
        <ele>590</ele>
        <time>2020-10-05T16:00:42.988Z</time>
      </trkpt>
      <trkpt lat="43.97353" lon="5.88983">
        <ele>590</ele>
        <time>2020-10-05T16:00:43.988Z</time>
      </trkpt>
      <trkpt lat="43.97351" lon="5.88982">
        <ele>590</ele>
        <time>2020-10-05T16:00:44.988Z</time>
      </trkpt>
      <trkpt lat="43.97351" lon="5.88982">
        <ele>590</ele>
        <time>2020-10-05T16:00:45.988Z</time>
      </trkpt>
      <trkpt lat="43.9735" lon="5.88982">
        <ele>590</ele>
        <time>2020-10-05T16:00:46.988Z</time>
      </trkpt>
      <trkpt lat="43.97348" lon="5.88982">
        <ele>591</ele>
        <time>2020-10-05T16:00:47.988Z</time>
      </trkpt>
      <trkpt lat="43.97347" lon="5.88982">
        <ele>591</ele>
        <time>2020-10-05T16:00:48.988Z</time>
      </trkpt>
      <trkpt lat="43.97346" lon="5.88983">
        <ele>591</ele>
        <time>2020-10-05T16:00:49.988Z</time>
      </trkpt>
      <trkpt lat="43.97345" lon="5.88982">
        <ele>591</ele>
        <time>2020-10-05T16:00:50.988Z</time>
      </trkpt>
      <trkpt lat="43.97344" lon="5.88982">
        <ele>591</ele>
        <time>2020-10-05T16:00:51.988Z</time>
      </trkpt>
      <trkpt lat="43.97342" lon="5.88981">
        <ele>591</ele>
        <time>2020-10-05T16:00:52.988Z</time>
      </trkpt>
      <trkpt lat="43.97341" lon="5.88981">
        <ele>591</ele>
        <time>2020-10-05T16:00:53.988Z</time>
      </trkpt>
      <trkpt lat="43.9734" lon="5.88981">
        <ele>591</ele>
        <time>2020-10-05T16:00:54.988Z</time>
      </trkpt>
      <trkpt lat="43.97339" lon="5.8898">
        <ele>591</ele>
        <time>2020-10-05T16:00:55.988Z</time>
      </trkpt>
      <trkpt lat="43.97338" lon="5.8898">
        <ele>591</ele>
        <time>2020-10-05T16:00:56.988Z</time>
      </trkpt>
      <trkpt lat="43.97337" lon="5.8898">
        <ele>591</ele>
        <time>2020-10-05T16:00:57.988Z</time>
      </trkpt>
      <trkpt lat="43.97336" lon="5.88979">
        <ele>591</ele>
        <time>2020-10-05T16:00:58.988Z</time>
      </trkpt>
      <trkpt lat="43.97335" lon="5.88979">
        <ele>591</ele>
        <time>2020-10-05T16:00:59.988Z</time>
      </trkpt>
      <trkpt lat="43.97334" lon="5.88978">
        <ele>591</ele>
        <time>2020-10-05T16:01:00.988Z</time>
      </trkpt>
      <trkpt lat="43.97333" lon="5.88978">
        <ele>591</ele>
        <time>2020-10-05T16:01:01.988Z</time>
      </trkpt>
      <trkpt lat="43.97333" lon="5.88978">
        <ele>591</ele>
        <time>2020-10-05T16:01:02.988Z</time>
      </trkpt>
      <trkpt lat="43.97332" lon="5.88977">
        <ele>591</ele>
        <time>2020-10-05T16:01:03.988Z</time>
      </trkpt>
      <trkpt lat="43.97331" lon="5.88978">
        <ele>591</ele>
        <time>2020-10-05T16:01:04.988Z</time>
      </trkpt>
      <trkpt lat="43.9733" lon="5.88978">
        <ele>591</ele>
        <time>2020-10-05T16:01:05.988Z</time>
      </trkpt>
      <trkpt lat="43.9733" lon="5.88978">
        <ele>591</ele>
        <time>2020-10-05T16:01:06.988Z</time>
      </trkpt>
      <trkpt lat="43.97329" lon="5.88979">
        <ele>591</ele>
        <time>2020-10-05T16:01:07.988Z</time>
      </trkpt>
      <trkpt lat="43.97329" lon="5.88979">
        <ele>591</ele>
        <time>2020-10-05T16:01:08.988Z</time>
      </trkpt>
      <trkpt lat="43.97329" lon="5.8898">
        <ele>591</ele>
        <time>2020-10-05T16:01:09.988Z</time>
      </trkpt>
      <trkpt lat="43.97328" lon="5.8898">
        <ele>591</ele>
        <time>2020-10-05T16:01:10.988Z</time>
      </trkpt>
      <trkpt lat="43.97328" lon="5.88981">
        <ele>591</ele>
        <time>2020-10-05T16:01:11.988Z</time>
      </trkpt>
      <trkpt lat="43.97327" lon="5.88982">
        <ele>591</ele>
        <time>2020-10-05T16:01:12.988Z</time>
      </trkpt>
      <trkpt lat="43.97327" lon="5.88982">
        <ele>591</ele>
        <time>2020-10-05T16:01:13.988Z</time>
      </trkpt>
      <trkpt lat="43.97327" lon="5.88983">
        <ele>591</ele>
        <time>2020-10-05T16:01:14.988Z</time>
      </trkpt>
      <trkpt lat="43.97327" lon="5.88984">
        <ele>591</ele>
        <time>2020-10-05T16:01:15.988Z</time>
      </trkpt>
      <trkpt lat="43.97326" lon="5.88984">
        <ele>591</ele>
        <time>2020-10-05T16:01:16.988Z</time>
      </trkpt>
      <trkpt lat="43.97326" lon="5.88985">
        <ele>591</ele>
        <time>2020-10-05T16:01:17.988Z</time>
      </trkpt>
      <trkpt lat="43.97326" lon="5.88985">
        <ele>591</ele>
        <time>2020-10-05T16:01:18.988Z</time>
      </trkpt>
      <trkpt lat="43.97326" lon="5.88985">
        <ele>591</ele>
        <time>2020-10-05T16:01:19.988Z</time>
      </trkpt>
      <trkpt lat="43.97326" lon="5.88985">
        <ele>592</ele>
        <time>2020-10-05T16:01:20.988Z</time>
      </trkpt>
      <trkpt lat="43.97326" lon="5.88985">
        <ele>592</ele>
        <time>2020-10-05T16:01:21.988Z</time>
      </trkpt>
      <trkpt lat="43.97326" lon="5.88985">
        <ele>592</ele>
        <time>2020-10-05T16:01:22.988Z</time>
      </trkpt>
      <trkpt lat="43.97326" lon="5.88986">
        <ele>591</ele>
        <time>2020-10-05T16:01:23.988Z</time>
      </trkpt>
      <trkpt lat="43.97326" lon="5.88986">
        <ele>591</ele>
        <time>2020-10-05T16:01:24.988Z</time>
      </trkpt>
      <trkpt lat="43.97326" lon="5.88986">
        <ele>591</ele>
        <time>2020-10-05T16:01:25.988Z</time>
      </trkpt>
      <trkpt lat="43.97326" lon="5.88987">
        <ele>591</ele>
        <time>2020-10-05T16:01:26.988Z</time>
      </trkpt>
      <trkpt lat="43.97326" lon="5.88987">
        <ele>591</ele>
        <time>2020-10-05T16:01:27.988Z</time>
      </trkpt>
      <trkpt lat="43.97327" lon="5.88988">
        <ele>591</ele>
        <time>2020-10-05T16:01:28.988Z</time>
      </trkpt>
      <trkpt lat="43.97327" lon="5.88988">
        <ele>591</ele>
        <time>2020-10-05T16:01:29.988Z</time>
      </trkpt>
      <trkpt lat="43.97328" lon="5.88989">
        <ele>591</ele>
        <time>2020-10-05T16:01:30.988Z</time>
      </trkpt>
      <trkpt lat="43.97328" lon="5.88989">
        <ele>591</ele>
        <time>2020-10-05T16:01:31.988Z</time>
      </trkpt>
      <trkpt lat="43.97328" lon="5.8899">
        <ele>591</ele>
        <time>2020-10-05T16:01:32.988Z</time>
      </trkpt>
      <trkpt lat="43.97329" lon="5.8899">
        <ele>591</ele>
        <time>2020-10-05T16:01:33.988Z</time>
      </trkpt>
      <trkpt lat="43.9733" lon="5.88991">
        <ele>591</ele>
        <time>2020-10-05T16:01:34.988Z</time>
      </trkpt>
      <trkpt lat="43.9733" lon="5.88991">
        <ele>591</ele>
        <time>2020-10-05T16:01:35.988Z</time>
      </trkpt>
      <trkpt lat="43.97331" lon="5.88992">
        <ele>591</ele>
        <time>2020-10-05T16:01:36.988Z</time>
      </trkpt>
      <trkpt lat="43.97331" lon="5.88992">
        <ele>591</ele>
        <time>2020-10-05T16:01:37.988Z</time>
      </trkpt>
      <trkpt lat="43.97331" lon="5.88993">
        <ele>591</ele>
        <time>2020-10-05T16:01:38.988Z</time>
      </trkpt>
      <trkpt lat="43.97332" lon="5.88993">
        <ele>591</ele>
        <time>2020-10-05T16:01:39.988Z</time>
      </trkpt>
      <trkpt lat="43.97332" lon="5.88993">
        <ele>591</ele>
        <time>2020-10-05T16:01:40.988Z</time>
      </trkpt>
      <trkpt lat="43.97333" lon="5.88994">
        <ele>591</ele>
        <time>2020-10-05T16:01:41.988Z</time>
      </trkpt>
      <trkpt lat="43.97333" lon="5.88995">
        <ele>591</ele>
        <time>2020-10-05T16:01:42.988Z</time>
      </trkpt>
      <trkpt lat="43.97333" lon="5.88995">
        <ele>591</ele>
        <time>2020-10-05T16:01:43.988Z</time>
      </trkpt>
      <trkpt lat="43.97332" lon="5.88995">
        <ele>591</ele>
        <time>2020-10-05T16:01:44.988Z</time>
      </trkpt>
      <trkpt lat="43.97332" lon="5.88995">
        <ele>591</ele>
        <time>2020-10-05T16:01:45.988Z</time>
      </trkpt>
      <trkpt lat="43.97332" lon="5.88995">
        <ele>591</ele>
        <time>2020-10-05T16:01:46.988Z</time>
      </trkpt>
      <trkpt lat="43.97332" lon="5.88995">
        <ele>591</ele>
        <time>2020-10-05T16:01:47.988Z</time>
      </trkpt>
      <trkpt lat="43.97332" lon="5.88994">
        <ele>591</ele>
        <time>2020-10-05T16:01:48.988Z</time>
      </trkpt>
      <trkpt lat="43.97332" lon="5.88994">
        <ele>591</ele>
        <time>2020-10-05T16:01:49.988Z</time>
      </trkpt>
      <trkpt lat="43.97332" lon="5.88995">
        <ele>591</ele>
        <time>2020-10-05T16:01:50.988Z</time>
      </trkpt>
      <trkpt lat="43.97332" lon="5.88995">
        <ele>592</ele>
        <time>2020-10-05T16:01:51.988Z</time>
      </trkpt>
      <trkpt lat="43.97332" lon="5.88995">
        <ele>592</ele>
        <time>2020-10-05T16:01:52.988Z</time>
      </trkpt>
      <trkpt lat="43.97332" lon="5.88995">
        <ele>592</ele>
        <time>2020-10-05T16:01:53.988Z</time>
      </trkpt>
      <trkpt lat="43.97332" lon="5.88995">
        <ele>592</ele>
        <time>2020-10-05T16:01:54.988Z</time>
      </trkpt>
      <trkpt lat="43.97332" lon="5.88995">
        <ele>592</ele>
        <time>2020-10-05T16:01:55.988Z</time>
      </trkpt>
      <trkpt lat="43.97331" lon="5.88996">
        <ele>592</ele>
        <time>2020-10-05T16:01:56.988Z</time>
      </trkpt>
      <trkpt lat="43.97331" lon="5.88996">
        <ele>592</ele>
        <time>2020-10-05T16:01:57.988Z</time>
      </trkpt>
      <trkpt lat="43.97331" lon="5.88995">
        <ele>593</ele>
        <time>2020-10-05T16:01:58.988Z</time>
      </trkpt>
      <trkpt lat="43.97331" lon="5.88995">
        <ele>593</ele>
        <time>2020-10-05T16:01:59.988Z</time>
      </trkpt>
      <trkpt lat="43.97331" lon="5.88995">
        <ele>593</ele>
        <time>2020-10-05T16:02:00.988Z</time>
      </trkpt>
      <trkpt lat="43.97331" lon="5.88996">
        <ele>593</ele>
        <time>2020-10-05T16:02:01.988Z</time>
      </trkpt>
      <trkpt lat="43.97331" lon="5.88996">
        <ele>593</ele>
        <time>2020-10-05T16:02:02.988Z</time>
      </trkpt>
      <trkpt lat="43.97331" lon="5.88996">
        <ele>593</ele>
        <time>2020-10-05T16:02:03.988Z</time>
      </trkpt>
      <trkpt lat="43.97331" lon="5.88996">
        <ele>593</ele>
        <time>2020-10-05T16:02:04.988Z</time>
      </trkpt>
      <trkpt lat="43.97331" lon="5.88996">
        <ele>594</ele>
        <time>2020-10-05T16:02:05.988Z</time>
      </trkpt>
      <trkpt lat="43.97331" lon="5.88996">
        <ele>594</ele>
        <time>2020-10-05T16:02:06.988Z</time>
      </trkpt>
      <trkpt lat="43.97331" lon="5.88996">
        <ele>594</ele>
        <time>2020-10-05T16:02:07.988Z</time>
      </trkpt>
      <trkpt lat="43.97331" lon="5.88996">
        <ele>594</ele>
        <time>2020-10-05T16:02:08.988Z</time>
      </trkpt>
      <trkpt lat="43.97331" lon="5.88996">
        <ele>594</ele>
        <time>2020-10-05T16:02:09.988Z</time>
      </trkpt>
      <trkpt lat="43.97331" lon="5.88996">
        <ele>594</ele>
        <time>2020-10-05T16:02:10.988Z</time>
      </trkpt>
      <trkpt lat="43.97331" lon="5.88996">
        <ele>594</ele>
        <time>2020-10-05T16:02:11.988Z</time>
      </trkpt>
      <trkpt lat="43.97331" lon="5.88996">
        <ele>594</ele>
        <time>2020-10-05T16:02:12.988Z</time>
      </trkpt>
      <trkpt lat="43.97331" lon="5.88996">
        <ele>594</ele>
        <time>2020-10-05T16:02:13.988Z</time>
      </trkpt>
      <trkpt lat="43.97331" lon="5.88996">
        <ele>594</ele>
        <time>2020-10-05T16:02:14.988Z</time>
      </trkpt>
      <trkpt lat="43.97331" lon="5.88995">
        <ele>594</ele>
        <time>2020-10-05T16:02:15.988Z</time>
      </trkpt>
      <trkpt lat="43.97331" lon="5.88995">
        <ele>594</ele>
        <time>2020-10-05T16:02:16.988Z</time>
      </trkpt>
      <trkpt lat="43.97331" lon="5.88995">
        <ele>594</ele>
        <time>2020-10-05T16:02:17.988Z</time>
      </trkpt>
      <trkpt lat="43.97331" lon="5.88996">
        <ele>594</ele>
        <time>2020-10-05T16:02:18.988Z</time>
      </trkpt>
      <trkpt lat="43.9733" lon="5.88996">
        <ele>594</ele>
        <time>2020-10-05T16:02:19.988Z</time>
      </trkpt>
      <trkpt lat="43.9733" lon="5.88996">
        <ele>594</ele>
        <time>2020-10-05T16:02:20.988Z</time>
      </trkpt>
      <trkpt lat="43.9733" lon="5.88996">
        <ele>594</ele>
        <time>2020-10-05T16:02:21.988Z</time>
      </trkpt>
      <trkpt lat="43.9733" lon="5.88996">
        <ele>594</ele>
        <time>2020-10-05T16:02:22.988Z</time>
      </trkpt>
      <trkpt lat="43.9733" lon="5.88996">
        <ele>594</ele>
        <time>2020-10-05T16:02:23.988Z</time>
      </trkpt>
      <trkpt lat="43.9733" lon="5.88996">
        <ele>594</ele>
        <time>2020-10-05T16:02:24.988Z</time>
      </trkpt>
      <trkpt lat="43.9733" lon="5.88996">
        <ele>595</ele>
        <time>2020-10-05T16:02:25.988Z</time>
      </trkpt>
      <trkpt lat="43.9733" lon="5.88996">
        <ele>595</ele>
        <time>2020-10-05T16:02:26.988Z</time>
      </trkpt>
      <trkpt lat="43.9733" lon="5.88996">
        <ele>595</ele>
        <time>2020-10-05T16:02:27.988Z</time>
      </trkpt>
      <trkpt lat="43.9733" lon="5.88996">
        <ele>595</ele>
        <time>2020-10-05T16:02:28.988Z</time>
      </trkpt>
      <trkpt lat="43.9733" lon="5.88996">
        <ele>595</ele>
        <time>2020-10-05T16:02:29.988Z</time>
      </trkpt>
      <trkpt lat="43.97331" lon="5.88996">
        <ele>595</ele>
        <time>2020-10-05T16:02:30.988Z</time>
      </trkpt>
      <trkpt lat="43.97331" lon="5.88996">
        <ele>595</ele>
        <time>2020-10-05T16:02:31.988Z</time>
      </trkpt>
      <trkpt lat="43.97331" lon="5.88996">
        <ele>595</ele>
        <time>2020-10-05T16:02:32.988Z</time>
      </trkpt>
      <trkpt lat="43.97331" lon="5.88996">
        <ele>595</ele>
        <time>2020-10-05T16:02:33.988Z</time>
      </trkpt>
      <trkpt lat="43.97331" lon="5.88996">
        <ele>595</ele>
        <time>2020-10-05T16:02:34.988Z</time>
      </trkpt>
      <trkpt lat="43.97331" lon="5.88996">
        <ele>595</ele>
        <time>2020-10-05T16:02:35.988Z</time>
      </trkpt>
      <trkpt lat="43.97331" lon="5.88996">
        <ele>595</ele>
        <time>2020-10-05T16:02:36.988Z</time>
      </trkpt>
      <trkpt lat="43.97331" lon="5.88996">
        <ele>595</ele>
        <time>2020-10-05T16:02:37.988Z</time>
      </trkpt>
      <trkpt lat="43.97331" lon="5.88996">
        <ele>595</ele>
        <time>2020-10-05T16:02:38.988Z</time>
      </trkpt>
      <trkpt lat="43.97331" lon="5.88995">
        <ele>595</ele>
        <time>2020-10-05T16:02:39.988Z</time>
      </trkpt>
      <trkpt lat="43.9733" lon="5.88996">
        <ele>595</ele>
        <time>2020-10-05T16:02:40.988Z</time>
      </trkpt>
      <trkpt lat="43.9733" lon="5.88996">
        <ele>595</ele>
        <time>2020-10-05T16:02:41.988Z</time>
      </trkpt>
      <trkpt lat="43.9733" lon="5.88996">
        <ele>595</ele>
        <time>2020-10-05T16:02:42.988Z</time>
      </trkpt>
      <trkpt lat="43.9733" lon="5.88996">
        <ele>595</ele>
        <time>2020-10-05T16:02:43.988Z</time>
      </trkpt>
      <trkpt lat="43.9733" lon="5.88996">
        <ele>595</ele>
        <time>2020-10-05T16:02:44.988Z</time>
      </trkpt>
      <trkpt lat="43.9733" lon="5.88996">
        <ele>595</ele>
        <time>2020-10-05T16:02:45.988Z</time>
      </trkpt>
      <trkpt lat="43.9733" lon="5.88996">
        <ele>595</ele>
        <time>2020-10-05T16:02:46.988Z</time>
      </trkpt>
      <trkpt lat="43.97331" lon="5.88996">
        <ele>595</ele>
        <time>2020-10-05T16:02:47.988Z</time>
      </trkpt>
      <trkpt lat="43.97331" lon="5.88996">
        <ele>595</ele>
        <time>2020-10-05T16:02:48.988Z</time>
      </trkpt>
      <trkpt lat="43.9733" lon="5.88996">
        <ele>595</ele>
        <time>2020-10-05T16:02:49.988Z</time>
      </trkpt>
      <trkpt lat="43.9733" lon="5.88996">
        <ele>595</ele>
        <time>2020-10-05T16:02:50.988Z</time>
      </trkpt>
      <trkpt lat="43.9733" lon="5.88996">
        <ele>595</ele>
        <time>2020-10-05T16:02:51.988Z</time>
      </trkpt>
      <trkpt lat="43.9733" lon="5.88996">
        <ele>595</ele>
        <time>2020-10-05T16:02:52.988Z</time>
      </trkpt>
      <trkpt lat="43.9733" lon="5.88996">
        <ele>595</ele>
        <time>2020-10-05T16:02:53.988Z</time>
      </trkpt>
      <trkpt lat="43.9733" lon="5.88996">
        <ele>595</ele>
        <time>2020-10-05T16:02:54.988Z</time>
      </trkpt>
      <trkpt lat="43.9733" lon="5.88996">
        <ele>595</ele>
        <time>2020-10-05T16:02:55.988Z</time>
      </trkpt>
      <trkpt lat="43.9733" lon="5.88996">
        <ele>595</ele>
        <time>2020-10-05T16:02:56.988Z</time>
      </trkpt>
      <trkpt lat="43.9733" lon="5.88996">
        <ele>595</ele>
        <time>2020-10-05T16:02:57.988Z</time>
      </trkpt>
      <trkpt lat="43.9733" lon="5.88996">
        <ele>595</ele>
        <time>2020-10-05T16:02:58.988Z</time>
      </trkpt>
      <trkpt lat="43.9733" lon="5.88996">
        <ele>595</ele>
        <time>2020-10-05T16:02:59.988Z</time>
      </trkpt>
      <trkpt lat="43.9733" lon="5.88996">
        <ele>595</ele>
        <time>2020-10-05T16:03:00.988Z</time>
      </trkpt>
      <trkpt lat="43.9733" lon="5.88996">
        <ele>595</ele>
        <time>2020-10-05T16:03:01.988Z</time>
      </trkpt>
      <trkpt lat="43.9733" lon="5.88996">
        <ele>595</ele>
        <time>2020-10-05T16:03:02.988Z</time>
      </trkpt>
      <trkpt lat="43.9733" lon="5.88996">
        <ele>595</ele>
        <time>2020-10-05T16:03:03.988Z</time>
      </trkpt>
      <trkpt lat="43.9733" lon="5.88996">
        <ele>595</ele>
        <time>2020-10-05T16:03:04.988Z</time>
      </trkpt>
      <trkpt lat="43.9733" lon="5.88996">
        <ele>595</ele>
        <time>2020-10-05T16:03:05.988Z</time>
      </trkpt>
      <trkpt lat="43.9733" lon="5.88996">
        <ele>595</ele>
        <time>2020-10-05T16:03:06.988Z</time>
      </trkpt>
      <trkpt lat="43.9733" lon="5.88996">
        <ele>595</ele>
        <time>2020-10-05T16:03:07.988Z</time>
      </trkpt>
      <trkpt lat="43.9733" lon="5.88996">
        <ele>595</ele>
        <time>2020-10-05T16:03:08.988Z</time>
      </trkpt>
      <trkpt lat="43.9733" lon="5.88996">
        <ele>595</ele>
        <time>2020-10-05T16:03:09.988Z</time>
      </trkpt>
      <trkpt lat="43.9733" lon="5.88996">
        <ele>595</ele>
        <time>2020-10-05T16:03:10.988Z</time>
      </trkpt>
      <trkpt lat="43.9733" lon="5.88996">
        <ele>595</ele>
        <time>2020-10-05T16:03:11.988Z</time>
      </trkpt>
      <trkpt lat="43.9733" lon="5.88996">
        <ele>596</ele>
        <time>2020-10-05T16:03:12.988Z</time>
      </trkpt>
      <trkpt lat="43.9733" lon="5.88996">
        <ele>596</ele>
        <time>2020-10-05T16:03:13.988Z</time>
      </trkpt>
      <trkpt lat="43.9733" lon="5.88996">
        <ele>596</ele>
        <time>2020-10-05T16:03:14.988Z</time>
      </trkpt>
      <trkpt lat="43.9733" lon="5.88996">
        <ele>596</ele>
        <time>2020-10-05T16:03:15.988Z</time>
      </trkpt>
      <trkpt lat="43.9733" lon="5.88996">
        <ele>596</ele>
        <time>2020-10-05T16:03:16.988Z</time>
      </trkpt>
      <trkpt lat="43.9733" lon="5.88996">
        <ele>596</ele>
        <time>2020-10-05T16:03:17.988Z</time>
      </trkpt>
      <trkpt lat="43.9733" lon="5.88996">
        <ele>596</ele>
        <time>2020-10-05T16:03:18.988Z</time>
      </trkpt>
      <trkpt lat="43.9733" lon="5.88996">
        <ele>596</ele>
        <time>2020-10-05T16:03:19.988Z</time>
      </trkpt>
      <trkpt lat="43.9733" lon="5.88996">
        <ele>596</ele>
        <time>2020-10-05T16:03:20.988Z</time>
      </trkpt>
      <trkpt lat="43.9733" lon="5.88996">
        <ele>596</ele>
        <time>2020-10-05T16:03:21.988Z</time>
      </trkpt>
      <trkpt lat="43.9733" lon="5.88996">
        <ele>596</ele>
        <time>2020-10-05T16:03:22.988Z</time>
      </trkpt>
      <trkpt lat="43.9733" lon="5.88996">
        <ele>596</ele>
        <time>2020-10-05T16:03:23.988Z</time>
      </trkpt>
      <trkpt lat="43.9733" lon="5.88996">
        <ele>596</ele>
        <time>2020-10-05T16:03:24.988Z</time>
      </trkpt>
      <trkpt lat="43.9733" lon="5.88996">
        <ele>596</ele>
        <time>2020-10-05T16:03:25.988Z</time>
      </trkpt>
      <trkpt lat="43.9733" lon="5.88996">
        <ele>596</ele>
        <time>2020-10-05T16:03:26.988Z</time>
      </trkpt>
      <trkpt lat="43.9733" lon="5.88996">
        <ele>596</ele>
        <time>2020-10-05T16:03:27.988Z</time>
      </trkpt>
      <trkpt lat="43.9733" lon="5.88996">
        <ele>596</ele>
        <time>2020-10-05T16:03:28.988Z</time>
      </trkpt>
      <trkpt lat="43.9733" lon="5.88996">
        <ele>596</ele>
        <time>2020-10-05T16:03:29.988Z</time>
      </trkpt>
      <trkpt lat="43.9733" lon="5.88996">
        <ele>596</ele>
        <time>2020-10-05T16:03:30.988Z</time>
      </trkpt>
      <trkpt lat="43.9733" lon="5.88996">
        <ele>596</ele>
        <time>2020-10-05T16:03:31.988Z</time>
      </trkpt>
      <trkpt lat="43.9733" lon="5.88997">
        <ele>596</ele>
        <time>2020-10-05T16:03:32.988Z</time>
      </trkpt>
      <trkpt lat="43.9733" lon="5.88997">
        <ele>596</ele>
        <time>2020-10-05T16:03:33.988Z</time>
      </trkpt>
      <trkpt lat="43.9733" lon="5.88997">
        <ele>596</ele>
        <time>2020-10-05T16:03:34.988Z</time>
      </trkpt>
      <trkpt lat="43.9733" lon="5.88997">
        <ele>596</ele>
        <time>2020-10-05T16:03:35.988Z</time>
      </trkpt>
      <trkpt lat="43.9733" lon="5.88997">
        <ele>596</ele>
        <time>2020-10-05T16:03:36.988Z</time>
      </trkpt>
      <trkpt lat="43.9733" lon="5.88997">
        <ele>596</ele>
        <time>2020-10-05T16:03:37.988Z</time>
      </trkpt>
      <trkpt lat="43.9733" lon="5.88997">
        <ele>596</ele>
        <time>2020-10-05T16:03:38.988Z</time>
      </trkpt>
      <trkpt lat="43.9733" lon="5.88997">
        <ele>596</ele>
        <time>2020-10-05T16:03:39.988Z</time>
      </trkpt>
      <trkpt lat="43.9733" lon="5.88997">
        <ele>596</ele>
        <time>2020-10-05T16:03:40.988Z</time>
      </trkpt>
      <trkpt lat="43.9733" lon="5.88997">
        <ele>596</ele>
        <time>2020-10-05T16:03:41.988Z</time>
      </trkpt>
      <trkpt lat="43.9733" lon="5.88996">
        <ele>596</ele>
        <time>2020-10-05T16:03:42.988Z</time>
      </trkpt>
      <trkpt lat="43.9733" lon="5.88996">
        <ele>596</ele>
        <time>2020-10-05T16:03:43.988Z</time>
      </trkpt>
      <trkpt lat="43.9733" lon="5.88996">
        <ele>596</ele>
        <time>2020-10-05T16:03:44.988Z</time>
      </trkpt>
      <trkpt lat="43.9733" lon="5.88997">
        <ele>596</ele>
        <time>2020-10-05T16:03:45.988Z</time>
      </trkpt>
      <trkpt lat="43.9733" lon="5.88996">
        <ele>596</ele>
        <time>2020-10-05T16:03:46.988Z</time>
      </trkpt>
      <trkpt lat="43.9733" lon="5.88996">
        <ele>596</ele>
        <time>2020-10-05T16:03:47.988Z</time>
      </trkpt>
      <trkpt lat="43.9733" lon="5.88997">
        <ele>596</ele>
        <time>2020-10-05T16:03:48.988Z</time>
      </trkpt>
      <trkpt lat="43.9733" lon="5.88997">
        <ele>596</ele>
        <time>2020-10-05T16:03:49.988Z</time>
      </trkpt>
      <trkpt lat="43.9733" lon="5.88997">
        <ele>596</ele>
        <time>2020-10-05T16:03:50.988Z</time>
      </trkpt>
      <trkpt lat="43.9733" lon="5.88997">
        <ele>596</ele>
        <time>2020-10-05T16:03:51.988Z</time>
      </trkpt>
      <trkpt lat="43.9733" lon="5.88997">
        <ele>596</ele>
        <time>2020-10-05T16:03:52.988Z</time>
      </trkpt>
      <trkpt lat="43.9733" lon="5.88997">
        <ele>596</ele>
        <time>2020-10-05T16:03:53.988Z</time>
      </trkpt>
      <trkpt lat="43.9733" lon="5.88997">
        <ele>596</ele>
        <time>2020-10-05T16:03:54.988Z</time>
      </trkpt>
      <trkpt lat="43.9733" lon="5.88997">
        <ele>596</ele>
        <time>2020-10-05T16:03:55.988Z</time>
      </trkpt>
      <trkpt lat="43.9733" lon="5.88997">
        <ele>596</ele>
        <time>2020-10-05T16:03:56.988Z</time>
      </trkpt>
      <trkpt lat="43.9733" lon="5.88998">
        <ele>596</ele>
        <time>2020-10-05T16:03:57.988Z</time>
      </trkpt>
      <trkpt lat="43.9733" lon="5.88998">
        <ele>596</ele>
        <time>2020-10-05T16:03:58.988Z</time>
      </trkpt>
      <trkpt lat="43.9733" lon="5.88998">
        <ele>596</ele>
        <time>2020-10-05T16:03:59.988Z</time>
      </trkpt>
      <trkpt lat="43.97329" lon="5.88998">
        <ele>596</ele>
        <time>2020-10-05T16:04:00.988Z</time>
      </trkpt>
      <trkpt lat="43.97329" lon="5.88998">
        <ele>596</ele>
        <time>2020-10-05T16:04:01.988Z</time>
      </trkpt>
      <trkpt lat="43.97329" lon="5.88998">
        <ele>596</ele>
        <time>2020-10-05T16:04:02.988Z</time>
      </trkpt>
      <trkpt lat="43.97329" lon="5.88998">
        <ele>596</ele>
        <time>2020-10-05T16:04:03.988Z</time>
      </trkpt>
      <trkpt lat="43.97329" lon="5.88998">
        <ele>596</ele>
        <time>2020-10-05T16:04:04.988Z</time>
      </trkpt>
      <trkpt lat="43.97329" lon="5.88998">
        <ele>596</ele>
        <time>2020-10-05T16:04:05.988Z</time>
      </trkpt>
      <trkpt lat="43.97329" lon="5.88998">
        <ele>596</ele>
        <time>2020-10-05T16:04:06.988Z</time>
      </trkpt>
      <trkpt lat="43.97329" lon="5.88998">
        <ele>596</ele>
        <time>2020-10-05T16:04:07.988Z</time>
      </trkpt>
      <trkpt lat="43.97329" lon="5.88998">
        <ele>596</ele>
        <time>2020-10-05T16:04:08.988Z</time>
      </trkpt>
      <trkpt lat="43.97329" lon="5.88998">
        <ele>596</ele>
        <time>2020-10-05T16:04:09.988Z</time>
      </trkpt>
      <trkpt lat="43.97329" lon="5.88998">
        <ele>596</ele>
        <time>2020-10-05T16:04:10.988Z</time>
      </trkpt>
      <trkpt lat="43.97329" lon="5.88997">
        <ele>596</ele>
        <time>2020-10-05T16:04:11.988Z</time>
      </trkpt>
      <trkpt lat="43.97329" lon="5.88997">
        <ele>596</ele>
        <time>2020-10-05T16:04:12.988Z</time>
      </trkpt>
      <trkpt lat="43.97329" lon="5.88997">
        <ele>596</ele>
        <time>2020-10-05T16:04:13.988Z</time>
      </trkpt>
      <trkpt lat="43.97328" lon="5.88996">
        <ele>596</ele>
        <time>2020-10-05T16:04:14.988Z</time>
      </trkpt>
      <trkpt lat="43.97327" lon="5.88996">
        <ele>596</ele>
        <time>2020-10-05T16:04:15.988Z</time>
      </trkpt>
      <trkpt lat="43.97327" lon="5.88995">
        <ele>596</ele>
        <time>2020-10-05T16:04:16.988Z</time>
      </trkpt>
      <trkpt lat="43.97326" lon="5.88994">
        <ele>595</ele>
        <time>2020-10-05T16:04:17.988Z</time>
      </trkpt>
      <trkpt lat="43.97326" lon="5.88993">
        <ele>595</ele>
        <time>2020-10-05T16:04:18.988Z</time>
      </trkpt>
      <trkpt lat="43.97325" lon="5.88992">
        <ele>595</ele>
        <time>2020-10-05T16:04:19.988Z</time>
      </trkpt>
      <trkpt lat="43.97324" lon="5.88991">
        <ele>595</ele>
        <time>2020-10-05T16:04:20.988Z</time>
      </trkpt>
      <trkpt lat="43.97324" lon="5.8899">
        <ele>595</ele>
        <time>2020-10-05T16:04:21.988Z</time>
      </trkpt>
      <trkpt lat="43.97323" lon="5.8899">
        <ele>595</ele>
        <time>2020-10-05T16:04:22.988Z</time>
      </trkpt>
      <trkpt lat="43.97322" lon="5.88989">
        <ele>595</ele>
        <time>2020-10-05T16:04:23.988Z</time>
      </trkpt>
      <trkpt lat="43.97321" lon="5.88988">
        <ele>594</ele>
        <time>2020-10-05T16:04:24.988Z</time>
      </trkpt>
      <trkpt lat="43.9732" lon="5.88988">
        <ele>594</ele>
        <time>2020-10-05T16:04:25.988Z</time>
      </trkpt>
      <trkpt lat="43.9732" lon="5.88987">
        <ele>594</ele>
        <time>2020-10-05T16:04:26.988Z</time>
      </trkpt>
      <trkpt lat="43.97319" lon="5.88986">
        <ele>594</ele>
        <time>2020-10-05T16:04:27.988Z</time>
      </trkpt>
      <trkpt lat="43.97318" lon="5.88985">
        <ele>594</ele>
        <time>2020-10-05T16:04:28.988Z</time>
      </trkpt>
      <trkpt lat="43.97317" lon="5.88985">
        <ele>594</ele>
        <time>2020-10-05T16:04:29.988Z</time>
      </trkpt>
      <trkpt lat="43.97316" lon="5.88984">
        <ele>594</ele>
        <time>2020-10-05T16:04:30.988Z</time>
      </trkpt>
      <trkpt lat="43.97315" lon="5.88983">
        <ele>594</ele>
        <time>2020-10-05T16:04:31.988Z</time>
      </trkpt>
      <trkpt lat="43.97314" lon="5.88983">
        <ele>593</ele>
        <time>2020-10-05T16:04:32.988Z</time>
      </trkpt>
      <trkpt lat="43.97314" lon="5.88982">
        <ele>593</ele>
        <time>2020-10-05T16:04:33.988Z</time>
      </trkpt>
      <trkpt lat="43.97313" lon="5.88981">
        <ele>593</ele>
        <time>2020-10-05T16:04:34.988Z</time>
      </trkpt>
      <trkpt lat="43.97312" lon="5.8898">
        <ele>593</ele>
        <time>2020-10-05T16:04:35.988Z</time>
      </trkpt>
      <trkpt lat="43.9731" lon="5.8898">
        <ele>593</ele>
        <time>2020-10-05T16:04:36.988Z</time>
      </trkpt>
      <trkpt lat="43.97309" lon="5.88979">
        <ele>593</ele>
        <time>2020-10-05T16:04:37.988Z</time>
      </trkpt>
      <trkpt lat="43.97309" lon="5.88978">
        <ele>593</ele>
        <time>2020-10-05T16:04:38.988Z</time>
      </trkpt>
      <trkpt lat="43.97308" lon="5.88978">
        <ele>593</ele>
        <time>2020-10-05T16:04:39.988Z</time>
      </trkpt>
      <trkpt lat="43.97307" lon="5.88977">
        <ele>593</ele>
        <time>2020-10-05T16:04:40.988Z</time>
      </trkpt>
      <trkpt lat="43.97306" lon="5.88977">
        <ele>593</ele>
        <time>2020-10-05T16:04:41.988Z</time>
      </trkpt>
      <trkpt lat="43.97305" lon="5.88976">
        <ele>593</ele>
        <time>2020-10-05T16:04:42.988Z</time>
      </trkpt>
      <trkpt lat="43.97304" lon="5.88976">
        <ele>593</ele>
        <time>2020-10-05T16:04:43.988Z</time>
      </trkpt>
      <trkpt lat="43.97303" lon="5.88975">
        <ele>593</ele>
        <time>2020-10-05T16:04:44.988Z</time>
      </trkpt>
      <trkpt lat="43.97302" lon="5.88975">
        <ele>593</ele>
        <time>2020-10-05T16:04:45.988Z</time>
      </trkpt>
      <trkpt lat="43.97302" lon="5.88974">
        <ele>593</ele>
        <time>2020-10-05T16:04:46.988Z</time>
      </trkpt>
      <trkpt lat="43.97301" lon="5.88974">
        <ele>593</ele>
        <time>2020-10-05T16:04:47.988Z</time>
      </trkpt>
      <trkpt lat="43.973" lon="5.88973">
        <ele>593</ele>
        <time>2020-10-05T16:04:48.988Z</time>
      </trkpt>
      <trkpt lat="43.97299" lon="5.88972">
        <ele>593</ele>
        <time>2020-10-05T16:04:49.988Z</time>
      </trkpt>
      <trkpt lat="43.97298" lon="5.88971">
        <ele>593</ele>
        <time>2020-10-05T16:04:50.988Z</time>
      </trkpt>
      <trkpt lat="43.97298" lon="5.8897">
        <ele>593</ele>
        <time>2020-10-05T16:04:51.988Z</time>
      </trkpt>
      <trkpt lat="43.97297" lon="5.8897">
        <ele>593</ele>
        <time>2020-10-05T16:04:52.988Z</time>
      </trkpt>
      <trkpt lat="43.97296" lon="5.88969">
        <ele>593</ele>
        <time>2020-10-05T16:04:53.988Z</time>
      </trkpt>
      <trkpt lat="43.97296" lon="5.88968">
        <ele>593</ele>
        <time>2020-10-05T16:04:54.988Z</time>
      </trkpt>
      <trkpt lat="43.97295" lon="5.88967">
        <ele>593</ele>
        <time>2020-10-05T16:04:55.988Z</time>
      </trkpt>
      <trkpt lat="43.97294" lon="5.88967">
        <ele>593</ele>
        <time>2020-10-05T16:04:56.988Z</time>
      </trkpt>
      <trkpt lat="43.97293" lon="5.88966">
        <ele>593</ele>
        <time>2020-10-05T16:04:57.988Z</time>
      </trkpt>
      <trkpt lat="43.97292" lon="5.88965">
        <ele>593</ele>
        <time>2020-10-05T16:04:58.988Z</time>
      </trkpt>
      <trkpt lat="43.97291" lon="5.88965">
        <ele>593</ele>
        <time>2020-10-05T16:04:59.988Z</time>
      </trkpt>
      <trkpt lat="43.9729" lon="5.88964">
        <ele>593</ele>
        <time>2020-10-05T16:05:00.988Z</time>
      </trkpt>
      <trkpt lat="43.97289" lon="5.88964">
        <ele>593</ele>
        <time>2020-10-05T16:05:01.988Z</time>
      </trkpt>
      <trkpt lat="43.97288" lon="5.88963">
        <ele>593</ele>
        <time>2020-10-05T16:05:02.988Z</time>
      </trkpt>
      <trkpt lat="43.97287" lon="5.88962">
        <ele>593</ele>
        <time>2020-10-05T16:05:03.988Z</time>
      </trkpt>
      <trkpt lat="43.97286" lon="5.88961">
        <ele>593</ele>
        <time>2020-10-05T16:05:04.988Z</time>
      </trkpt>
      <trkpt lat="43.97285" lon="5.8896">
        <ele>592</ele>
        <time>2020-10-05T16:05:05.988Z</time>
      </trkpt>
      <trkpt lat="43.97284" lon="5.8896">
        <ele>592</ele>
        <time>2020-10-05T16:05:06.988Z</time>
      </trkpt>
      <trkpt lat="43.97283" lon="5.88959">
        <ele>592</ele>
        <time>2020-10-05T16:05:07.988Z</time>
      </trkpt>
      <trkpt lat="43.97282" lon="5.88958">
        <ele>592</ele>
        <time>2020-10-05T16:05:08.988Z</time>
      </trkpt>
      <trkpt lat="43.97281" lon="5.88958">
        <ele>592</ele>
        <time>2020-10-05T16:05:09.988Z</time>
      </trkpt>
      <trkpt lat="43.9728" lon="5.88958">
        <ele>592</ele>
        <time>2020-10-05T16:05:10.988Z</time>
      </trkpt>
      <trkpt lat="43.97279" lon="5.88957">
        <ele>592</ele>
        <time>2020-10-05T16:05:11.988Z</time>
      </trkpt>
      <trkpt lat="43.97278" lon="5.88957">
        <ele>592</ele>
        <time>2020-10-05T16:05:12.988Z</time>
      </trkpt>
      <trkpt lat="43.97277" lon="5.88956">
        <ele>592</ele>
        <time>2020-10-05T16:05:13.988Z</time>
      </trkpt>
      <trkpt lat="43.97276" lon="5.88956">
        <ele>592</ele>
        <time>2020-10-05T16:05:14.988Z</time>
      </trkpt>
      <trkpt lat="43.97274" lon="5.88956">
        <ele>592</ele>
        <time>2020-10-05T16:05:15.988Z</time>
      </trkpt>
      <trkpt lat="43.97273" lon="5.88956">
        <ele>592</ele>
        <time>2020-10-05T16:05:16.988Z</time>
      </trkpt>
      <trkpt lat="43.97273" lon="5.88956">
        <ele>592</ele>
        <time>2020-10-05T16:05:17.988Z</time>
      </trkpt>
      <trkpt lat="43.97272" lon="5.88955">
        <ele>592</ele>
        <time>2020-10-05T16:05:18.988Z</time>
      </trkpt>
      <trkpt lat="43.9727" lon="5.88955">
        <ele>592</ele>
        <time>2020-10-05T16:05:19.988Z</time>
      </trkpt>
      <trkpt lat="43.97269" lon="5.88954">
        <ele>592</ele>
        <time>2020-10-05T16:05:20.988Z</time>
      </trkpt>
      <trkpt lat="43.97268" lon="5.88954">
        <ele>592</ele>
        <time>2020-10-05T16:05:21.988Z</time>
      </trkpt>
      <trkpt lat="43.97268" lon="5.88954">
        <ele>592</ele>
        <time>2020-10-05T16:05:22.988Z</time>
      </trkpt>
      <trkpt lat="43.97267" lon="5.88954">
        <ele>592</ele>
        <time>2020-10-05T16:05:23.988Z</time>
      </trkpt>
      <trkpt lat="43.97265" lon="5.88954">
        <ele>592</ele>
        <time>2020-10-05T16:05:24.988Z</time>
      </trkpt>
      <trkpt lat="43.97264" lon="5.88954">
        <ele>592</ele>
        <time>2020-10-05T16:05:25.988Z</time>
      </trkpt>
      <trkpt lat="43.97263" lon="5.88953">
        <ele>592</ele>
        <time>2020-10-05T16:05:26.988Z</time>
      </trkpt>
      <trkpt lat="43.97262" lon="5.88953">
        <ele>592</ele>
        <time>2020-10-05T16:05:27.988Z</time>
      </trkpt>
      <trkpt lat="43.97261" lon="5.88953">
        <ele>592</ele>
        <time>2020-10-05T16:05:28.988Z</time>
      </trkpt>
      <trkpt lat="43.9726" lon="5.88952">
        <ele>592</ele>
        <time>2020-10-05T16:05:29.988Z</time>
      </trkpt>
      <trkpt lat="43.97259" lon="5.88952">
        <ele>592</ele>
        <time>2020-10-05T16:05:30.988Z</time>
      </trkpt>
      <trkpt lat="43.97258" lon="5.88952">
        <ele>592</ele>
        <time>2020-10-05T16:05:31.988Z</time>
      </trkpt>
      <trkpt lat="43.97257" lon="5.88952">
        <ele>592</ele>
        <time>2020-10-05T16:05:32.988Z</time>
      </trkpt>
      <trkpt lat="43.97256" lon="5.88952">
        <ele>592</ele>
        <time>2020-10-05T16:05:33.988Z</time>
      </trkpt>
      <trkpt lat="43.97254" lon="5.88952">
        <ele>592</ele>
        <time>2020-10-05T16:05:34.988Z</time>
      </trkpt>
      <trkpt lat="43.97253" lon="5.88951">
        <ele>592</ele>
        <time>2020-10-05T16:05:35.988Z</time>
      </trkpt>
      <trkpt lat="43.97252" lon="5.88951">
        <ele>591</ele>
        <time>2020-10-05T16:05:36.988Z</time>
      </trkpt>
      <trkpt lat="43.97251" lon="5.8895">
        <ele>591</ele>
        <time>2020-10-05T16:05:37.988Z</time>
      </trkpt>
      <trkpt lat="43.9725" lon="5.8895">
        <ele>591</ele>
        <time>2020-10-05T16:05:38.988Z</time>
      </trkpt>
      <trkpt lat="43.97249" lon="5.8895">
        <ele>591</ele>
        <time>2020-10-05T16:05:39.988Z</time>
      </trkpt>
      <trkpt lat="43.97248" lon="5.8895">
        <ele>591</ele>
        <time>2020-10-05T16:05:40.988Z</time>
      </trkpt>
      <trkpt lat="43.97247" lon="5.8895">
        <ele>591</ele>
        <time>2020-10-05T16:05:41.988Z</time>
      </trkpt>
      <trkpt lat="43.97246" lon="5.88949">
        <ele>591</ele>
        <time>2020-10-05T16:05:42.988Z</time>
      </trkpt>
      <trkpt lat="43.97245" lon="5.88948">
        <ele>591</ele>
        <time>2020-10-05T16:05:43.988Z</time>
      </trkpt>
      <trkpt lat="43.97245" lon="5.88947">
        <ele>591</ele>
        <time>2020-10-05T16:05:44.988Z</time>
      </trkpt>
      <trkpt lat="43.97245" lon="5.88947">
        <ele>591</ele>
        <time>2020-10-05T16:05:45.988Z</time>
      </trkpt>
      <trkpt lat="43.97245" lon="5.88947">
        <ele>591</ele>
        <time>2020-10-05T16:05:46.988Z</time>
      </trkpt>
      <trkpt lat="43.97245" lon="5.88947">
        <ele>591</ele>
        <time>2020-10-05T16:05:47.988Z</time>
      </trkpt>
      <trkpt lat="43.97245" lon="5.88947">
        <ele>591</ele>
        <time>2020-10-05T16:05:48.988Z</time>
      </trkpt>
      <trkpt lat="43.97245" lon="5.88948">
        <ele>591</ele>
        <time>2020-10-05T16:05:49.988Z</time>
      </trkpt>
      <trkpt lat="43.97244" lon="5.88948">
        <ele>591</ele>
        <time>2020-10-05T16:05:50.988Z</time>
      </trkpt>
      <trkpt lat="43.97243" lon="5.88948">
        <ele>591</ele>
        <time>2020-10-05T16:05:51.988Z</time>
      </trkpt>
      <trkpt lat="43.97242" lon="5.88948">
        <ele>591</ele>
        <time>2020-10-05T16:05:52.988Z</time>
      </trkpt>
      <trkpt lat="43.97241" lon="5.88948">
        <ele>591</ele>
        <time>2020-10-05T16:05:53.988Z</time>
      </trkpt>
      <trkpt lat="43.9724" lon="5.88949">
        <ele>591</ele>
        <time>2020-10-05T16:05:54.988Z</time>
      </trkpt>
      <trkpt lat="43.97238" lon="5.88949">
        <ele>591</ele>
        <time>2020-10-05T16:05:55.988Z</time>
      </trkpt>
      <trkpt lat="43.97237" lon="5.88949">
        <ele>591</ele>
        <time>2020-10-05T16:05:56.988Z</time>
      </trkpt>
      <trkpt lat="43.97236" lon="5.88949">
        <ele>591</ele>
        <time>2020-10-05T16:05:57.988Z</time>
      </trkpt>
      <trkpt lat="43.97235" lon="5.88949">
        <ele>591</ele>
        <time>2020-10-05T16:05:58.988Z</time>
      </trkpt>
      <trkpt lat="43.97234" lon="5.88949">
        <ele>591</ele>
        <time>2020-10-05T16:05:59.988Z</time>
      </trkpt>
      <trkpt lat="43.97233" lon="5.88949">
        <ele>591</ele>
        <time>2020-10-05T16:06:00.988Z</time>
      </trkpt>
      <trkpt lat="43.97231" lon="5.88949">
        <ele>591</ele>
        <time>2020-10-05T16:06:01.988Z</time>
      </trkpt>
      <trkpt lat="43.97231" lon="5.88949">
        <ele>591</ele>
        <time>2020-10-05T16:06:02.988Z</time>
      </trkpt>
      <trkpt lat="43.9723" lon="5.88949">
        <ele>591</ele>
        <time>2020-10-05T16:06:03.988Z</time>
      </trkpt>
      <trkpt lat="43.97228" lon="5.88949">
        <ele>591</ele>
        <time>2020-10-05T16:06:04.988Z</time>
      </trkpt>
      <trkpt lat="43.97228" lon="5.88949">
        <ele>591</ele>
        <time>2020-10-05T16:06:05.988Z</time>
      </trkpt>
      <trkpt lat="43.97227" lon="5.88949">
        <ele>591</ele>
        <time>2020-10-05T16:06:06.988Z</time>
      </trkpt>
      <trkpt lat="43.97226" lon="5.88949">
        <ele>590</ele>
        <time>2020-10-05T16:06:07.988Z</time>
      </trkpt>
      <trkpt lat="43.97224" lon="5.88949">
        <ele>590</ele>
        <time>2020-10-05T16:06:08.988Z</time>
      </trkpt>
      <trkpt lat="43.97224" lon="5.88949">
        <ele>590</ele>
        <time>2020-10-05T16:06:09.988Z</time>
      </trkpt>
      <trkpt lat="43.97223" lon="5.88949">
        <ele>590</ele>
        <time>2020-10-05T16:06:10.988Z</time>
      </trkpt>
      <trkpt lat="43.97222" lon="5.88949">
        <ele>590</ele>
        <time>2020-10-05T16:06:11.988Z</time>
      </trkpt>
      <trkpt lat="43.97221" lon="5.8895">
        <ele>590</ele>
        <time>2020-10-05T16:06:12.988Z</time>
      </trkpt>
      <trkpt lat="43.97219" lon="5.8895">
        <ele>590</ele>
        <time>2020-10-05T16:06:13.988Z</time>
      </trkpt>
      <trkpt lat="43.97219" lon="5.8895">
        <ele>590</ele>
        <time>2020-10-05T16:06:14.988Z</time>
      </trkpt>
      <trkpt lat="43.97218" lon="5.8895">
        <ele>590</ele>
        <time>2020-10-05T16:06:15.988Z</time>
      </trkpt>
      <trkpt lat="43.97217" lon="5.8895">
        <ele>590</ele>
        <time>2020-10-05T16:06:16.988Z</time>
      </trkpt>
      <trkpt lat="43.97216" lon="5.8895">
        <ele>590</ele>
        <time>2020-10-05T16:06:17.988Z</time>
      </trkpt>
      <trkpt lat="43.97215" lon="5.8895">
        <ele>590</ele>
        <time>2020-10-05T16:06:18.988Z</time>
      </trkpt>
      <trkpt lat="43.97214" lon="5.8895">
        <ele>590</ele>
        <time>2020-10-05T16:06:19.988Z</time>
      </trkpt>
      <trkpt lat="43.97213" lon="5.8895">
        <ele>590</ele>
        <time>2020-10-05T16:06:20.988Z</time>
      </trkpt>
      <trkpt lat="43.97212" lon="5.8895">
        <ele>590</ele>
        <time>2020-10-05T16:06:21.988Z</time>
      </trkpt>
      <trkpt lat="43.97211" lon="5.8895">
        <ele>591</ele>
        <time>2020-10-05T16:06:22.988Z</time>
      </trkpt>
      <trkpt lat="43.9721" lon="5.8895">
        <ele>591</ele>
        <time>2020-10-05T16:06:23.988Z</time>
      </trkpt>
      <trkpt lat="43.97209" lon="5.88951">
        <ele>591</ele>
        <time>2020-10-05T16:06:24.988Z</time>
      </trkpt>
      <trkpt lat="43.97208" lon="5.88951">
        <ele>591</ele>
        <time>2020-10-05T16:06:25.988Z</time>
      </trkpt>
      <trkpt lat="43.97206" lon="5.88952">
        <ele>591</ele>
        <time>2020-10-05T16:06:26.988Z</time>
      </trkpt>
      <trkpt lat="43.97205" lon="5.88952">
        <ele>591</ele>
        <time>2020-10-05T16:06:27.988Z</time>
      </trkpt>
      <trkpt lat="43.97204" lon="5.88952">
        <ele>591</ele>
        <time>2020-10-05T16:06:28.988Z</time>
      </trkpt>
      <trkpt lat="43.97203" lon="5.88952">
        <ele>591</ele>
        <time>2020-10-05T16:06:29.988Z</time>
      </trkpt>
      <trkpt lat="43.97202" lon="5.88952">
        <ele>591</ele>
        <time>2020-10-05T16:06:30.988Z</time>
      </trkpt>
      <trkpt lat="43.97201" lon="5.88952">
        <ele>591</ele>
        <time>2020-10-05T16:06:31.988Z</time>
      </trkpt>
      <trkpt lat="43.972" lon="5.88952">
        <ele>591</ele>
        <time>2020-10-05T16:06:32.988Z</time>
      </trkpt>
      <trkpt lat="43.97199" lon="5.88952">
        <ele>591</ele>
        <time>2020-10-05T16:06:33.988Z</time>
      </trkpt>
      <trkpt lat="43.97198" lon="5.88952">
        <ele>591</ele>
        <time>2020-10-05T16:06:34.988Z</time>
      </trkpt>
      <trkpt lat="43.97197" lon="5.88952">
        <ele>591</ele>
        <time>2020-10-05T16:06:35.988Z</time>
      </trkpt>
      <trkpt lat="43.97196" lon="5.88952">
        <ele>591</ele>
        <time>2020-10-05T16:06:36.988Z</time>
      </trkpt>
      <trkpt lat="43.97194" lon="5.88952">
        <ele>591</ele>
        <time>2020-10-05T16:06:37.988Z</time>
      </trkpt>
      <trkpt lat="43.97193" lon="5.88952">
        <ele>591</ele>
        <time>2020-10-05T16:06:38.988Z</time>
      </trkpt>
      <trkpt lat="43.97192" lon="5.88952">
        <ele>591</ele>
        <time>2020-10-05T16:06:39.988Z</time>
      </trkpt>
      <trkpt lat="43.97191" lon="5.88952">
        <ele>591</ele>
        <time>2020-10-05T16:06:40.988Z</time>
      </trkpt>
      <trkpt lat="43.9719" lon="5.88951">
        <ele>591</ele>
        <time>2020-10-05T16:06:41.988Z</time>
      </trkpt>
      <trkpt lat="43.97189" lon="5.88951">
        <ele>591</ele>
        <time>2020-10-05T16:06:42.988Z</time>
      </trkpt>
      <trkpt lat="43.97188" lon="5.88951">
        <ele>591</ele>
        <time>2020-10-05T16:06:43.988Z</time>
      </trkpt>
      <trkpt lat="43.97187" lon="5.88951">
        <ele>591</ele>
        <time>2020-10-05T16:06:44.988Z</time>
      </trkpt>
      <trkpt lat="43.97186" lon="5.88951">
        <ele>591</ele>
        <time>2020-10-05T16:06:45.988Z</time>
      </trkpt>
      <trkpt lat="43.97185" lon="5.88951">
        <ele>591</ele>
        <time>2020-10-05T16:06:46.988Z</time>
      </trkpt>
      <trkpt lat="43.97184" lon="5.88952">
        <ele>591</ele>
        <time>2020-10-05T16:06:47.988Z</time>
      </trkpt>
      <trkpt lat="43.97183" lon="5.88952">
        <ele>591</ele>
        <time>2020-10-05T16:06:48.988Z</time>
      </trkpt>
      <trkpt lat="43.97182" lon="5.88952">
        <ele>591</ele>
        <time>2020-10-05T16:06:49.988Z</time>
      </trkpt>
      <trkpt lat="43.9718" lon="5.88952">
        <ele>591</ele>
        <time>2020-10-05T16:06:50.988Z</time>
      </trkpt>
      <trkpt lat="43.97179" lon="5.88952">
        <ele>591</ele>
        <time>2020-10-05T16:06:51.988Z</time>
      </trkpt>
      <trkpt lat="43.97178" lon="5.88952">
        <ele>591</ele>
        <time>2020-10-05T16:06:52.988Z</time>
      </trkpt>
      <trkpt lat="43.97177" lon="5.88952">
        <ele>591</ele>
        <time>2020-10-05T16:06:53.988Z</time>
      </trkpt>
      <trkpt lat="43.97176" lon="5.88952">
        <ele>591</ele>
        <time>2020-10-05T16:06:54.988Z</time>
      </trkpt>
      <trkpt lat="43.97175" lon="5.88952">
        <ele>591</ele>
        <time>2020-10-05T16:06:55.988Z</time>
      </trkpt>
      <trkpt lat="43.97174" lon="5.88952">
        <ele>591</ele>
        <time>2020-10-05T16:06:56.988Z</time>
      </trkpt>
      <trkpt lat="43.97173" lon="5.88953">
        <ele>591</ele>
        <time>2020-10-05T16:06:57.988Z</time>
      </trkpt>
      <trkpt lat="43.97172" lon="5.88953">
        <ele>591</ele>
        <time>2020-10-05T16:06:58.988Z</time>
      </trkpt>
      <trkpt lat="43.97171" lon="5.88953">
        <ele>591</ele>
        <time>2020-10-05T16:06:59.988Z</time>
      </trkpt>
      <trkpt lat="43.9717" lon="5.88953">
        <ele>591</ele>
        <time>2020-10-05T16:07:00.988Z</time>
      </trkpt>
      <trkpt lat="43.97169" lon="5.88953">
        <ele>591</ele>
        <time>2020-10-05T16:07:01.988Z</time>
      </trkpt>
      <trkpt lat="43.97168" lon="5.88953">
        <ele>590</ele>
        <time>2020-10-05T16:07:02.988Z</time>
      </trkpt>
      <trkpt lat="43.97166" lon="5.88953">
        <ele>590</ele>
        <time>2020-10-05T16:07:03.988Z</time>
      </trkpt>
      <trkpt lat="43.97165" lon="5.88953">
        <ele>590</ele>
        <time>2020-10-05T16:07:04.988Z</time>
      </trkpt>
      <trkpt lat="43.97164" lon="5.88953">
        <ele>590</ele>
        <time>2020-10-05T16:07:05.988Z</time>
      </trkpt>
      <trkpt lat="43.97163" lon="5.88954">
        <ele>590</ele>
        <time>2020-10-05T16:07:06.988Z</time>
      </trkpt>
      <trkpt lat="43.97162" lon="5.88954">
        <ele>590</ele>
        <time>2020-10-05T16:07:07.988Z</time>
      </trkpt>
      <trkpt lat="43.97161" lon="5.88954">
        <ele>590</ele>
        <time>2020-10-05T16:07:08.988Z</time>
      </trkpt>
      <trkpt lat="43.9716" lon="5.88954">
        <ele>590</ele>
        <time>2020-10-05T16:07:09.988Z</time>
      </trkpt>
      <trkpt lat="43.97159" lon="5.88954">
        <ele>590</ele>
        <time>2020-10-05T16:07:10.988Z</time>
      </trkpt>
      <trkpt lat="43.97158" lon="5.88954">
        <ele>590</ele>
        <time>2020-10-05T16:07:11.988Z</time>
      </trkpt>
      <trkpt lat="43.97156" lon="5.88954">
        <ele>590</ele>
        <time>2020-10-05T16:07:12.988Z</time>
      </trkpt>
      <trkpt lat="43.97155" lon="5.88954">
        <ele>590</ele>
        <time>2020-10-05T16:07:13.988Z</time>
      </trkpt>
      <trkpt lat="43.97154" lon="5.88954">
        <ele>590</ele>
        <time>2020-10-05T16:07:14.988Z</time>
      </trkpt>
      <trkpt lat="43.97153" lon="5.88954">
        <ele>590</ele>
        <time>2020-10-05T16:07:15.988Z</time>
      </trkpt>
      <trkpt lat="43.97152" lon="5.88954">
        <ele>590</ele>
        <time>2020-10-05T16:07:16.988Z</time>
      </trkpt>
      <trkpt lat="43.97151" lon="5.88954">
        <ele>590</ele>
        <time>2020-10-05T16:07:17.988Z</time>
      </trkpt>
      <trkpt lat="43.97149" lon="5.88954">
        <ele>590</ele>
        <time>2020-10-05T16:07:18.988Z</time>
      </trkpt>
      <trkpt lat="43.97148" lon="5.88953">
        <ele>590</ele>
        <time>2020-10-05T16:07:19.988Z</time>
      </trkpt>
      <trkpt lat="43.97147" lon="5.88953">
        <ele>590</ele>
        <time>2020-10-05T16:07:20.988Z</time>
      </trkpt>
      <trkpt lat="43.97146" lon="5.88953">
        <ele>590</ele>
        <time>2020-10-05T16:07:21.988Z</time>
      </trkpt>
      <trkpt lat="43.97145" lon="5.88953">
        <ele>590</ele>
        <time>2020-10-05T16:07:22.988Z</time>
      </trkpt>
      <trkpt lat="43.97144" lon="5.88953">
        <ele>590</ele>
        <time>2020-10-05T16:07:23.988Z</time>
      </trkpt>
      <trkpt lat="43.97143" lon="5.88953">
        <ele>590</ele>
        <time>2020-10-05T16:07:24.988Z</time>
      </trkpt>
      <trkpt lat="43.97142" lon="5.88953">
        <ele>590</ele>
        <time>2020-10-05T16:07:25.988Z</time>
      </trkpt>
      <trkpt lat="43.97141" lon="5.88952">
        <ele>590</ele>
        <time>2020-10-05T16:07:26.988Z</time>
      </trkpt>
      <trkpt lat="43.9714" lon="5.88952">
        <ele>590</ele>
        <time>2020-10-05T16:07:27.988Z</time>
      </trkpt>
      <trkpt lat="43.97139" lon="5.88952">
        <ele>590</ele>
        <time>2020-10-05T16:07:28.988Z</time>
      </trkpt>
      <trkpt lat="43.97138" lon="5.88952">
        <ele>590</ele>
        <time>2020-10-05T16:07:29.988Z</time>
      </trkpt>
      <trkpt lat="43.97137" lon="5.88952">
        <ele>590</ele>
        <time>2020-10-05T16:07:30.988Z</time>
      </trkpt>
      <trkpt lat="43.97136" lon="5.88952">
        <ele>590</ele>
        <time>2020-10-05T16:07:31.988Z</time>
      </trkpt>
      <trkpt lat="43.97135" lon="5.88952">
        <ele>590</ele>
        <time>2020-10-05T16:07:32.988Z</time>
      </trkpt>
      <trkpt lat="43.97134" lon="5.88952">
        <ele>590</ele>
        <time>2020-10-05T16:07:33.988Z</time>
      </trkpt>
      <trkpt lat="43.97133" lon="5.88952">
        <ele>590</ele>
        <time>2020-10-05T16:07:34.988Z</time>
      </trkpt>
      <trkpt lat="43.97132" lon="5.88951">
        <ele>591</ele>
        <time>2020-10-05T16:07:35.988Z</time>
      </trkpt>
      <trkpt lat="43.97131" lon="5.88951">
        <ele>591</ele>
        <time>2020-10-05T16:07:36.988Z</time>
      </trkpt>
      <trkpt lat="43.9713" lon="5.88951">
        <ele>591</ele>
        <time>2020-10-05T16:07:37.988Z</time>
      </trkpt>
      <trkpt lat="43.97129" lon="5.8895">
        <ele>591</ele>
        <time>2020-10-05T16:07:38.988Z</time>
      </trkpt>
      <trkpt lat="43.97127" lon="5.8895">
        <ele>591</ele>
        <time>2020-10-05T16:07:39.988Z</time>
      </trkpt>
      <trkpt lat="43.97126" lon="5.8895">
        <ele>591</ele>
        <time>2020-10-05T16:07:40.988Z</time>
      </trkpt>
      <trkpt lat="43.97125" lon="5.8895">
        <ele>591</ele>
        <time>2020-10-05T16:07:41.988Z</time>
      </trkpt>
      <trkpt lat="43.97124" lon="5.8895">
        <ele>591</ele>
        <time>2020-10-05T16:07:42.988Z</time>
      </trkpt>
      <trkpt lat="43.97123" lon="5.88949">
        <ele>591</ele>
        <time>2020-10-05T16:07:43.988Z</time>
      </trkpt>
      <trkpt lat="43.97122" lon="5.88949">
        <ele>591</ele>
        <time>2020-10-05T16:07:44.988Z</time>
      </trkpt>
      <trkpt lat="43.97121" lon="5.88949">
        <ele>591</ele>
        <time>2020-10-05T16:07:45.988Z</time>
      </trkpt>
      <trkpt lat="43.97121" lon="5.88948">
        <ele>591</ele>
        <time>2020-10-05T16:07:46.988Z</time>
      </trkpt>
      <trkpt lat="43.9712" lon="5.88947">
        <ele>591</ele>
        <time>2020-10-05T16:07:47.988Z</time>
      </trkpt>
      <trkpt lat="43.9712" lon="5.88947">
        <ele>591</ele>
        <time>2020-10-05T16:07:48.988Z</time>
      </trkpt>
      <trkpt lat="43.9712" lon="5.88947">
        <ele>591</ele>
        <time>2020-10-05T16:07:49.988Z</time>
      </trkpt>
      <trkpt lat="43.97119" lon="5.88946">
        <ele>591</ele>
        <time>2020-10-05T16:07:50.988Z</time>
      </trkpt>
      <trkpt lat="43.97119" lon="5.88946">
        <ele>591</ele>
        <time>2020-10-05T16:07:51.988Z</time>
      </trkpt>
      <trkpt lat="43.97119" lon="5.88946">
        <ele>591</ele>
        <time>2020-10-05T16:07:52.988Z</time>
      </trkpt>
      <trkpt lat="43.97119" lon="5.88946">
        <ele>591</ele>
        <time>2020-10-05T16:07:53.988Z</time>
      </trkpt>
      <trkpt lat="43.97119" lon="5.88946">
        <ele>591</ele>
        <time>2020-10-05T16:07:54.988Z</time>
      </trkpt>
      <trkpt lat="43.97119" lon="5.88946">
        <ele>591</ele>
        <time>2020-10-05T16:07:55.988Z</time>
      </trkpt>
      <trkpt lat="43.97119" lon="5.88946">
        <ele>591</ele>
        <time>2020-10-05T16:07:56.988Z</time>
      </trkpt>
      <trkpt lat="43.97119" lon="5.88946">
        <ele>591</ele>
        <time>2020-10-05T16:07:57.988Z</time>
      </trkpt>
      <trkpt lat="43.97119" lon="5.88946">
        <ele>591</ele>
        <time>2020-10-05T16:07:58.988Z</time>
      </trkpt>
      <trkpt lat="43.97119" lon="5.88946">
        <ele>591</ele>
        <time>2020-10-05T16:07:59.988Z</time>
      </trkpt>
      <trkpt lat="43.97119" lon="5.88946">
        <ele>591</ele>
        <time>2020-10-05T16:08:00.988Z</time>
      </trkpt>
      <trkpt lat="43.97119" lon="5.88946">
        <ele>591</ele>
        <time>2020-10-05T16:08:01.988Z</time>
      </trkpt>
      <trkpt lat="43.97119" lon="5.88946">
        <ele>591</ele>
        <time>2020-10-05T16:08:02.988Z</time>
      </trkpt>
      <trkpt lat="43.97119" lon="5.88946">
        <ele>591</ele>
        <time>2020-10-05T16:08:03.988Z</time>
      </trkpt>
      <trkpt lat="43.97118" lon="5.88946">
        <ele>591</ele>
        <time>2020-10-05T16:08:04.988Z</time>
      </trkpt>
      <trkpt lat="43.97118" lon="5.88946">
        <ele>591</ele>
        <time>2020-10-05T16:08:05.988Z</time>
      </trkpt>
      <trkpt lat="43.97118" lon="5.88946">
        <ele>591</ele>
        <time>2020-10-05T16:08:06.988Z</time>
      </trkpt>
      <trkpt lat="43.97118" lon="5.88946">
        <ele>591</ele>
        <time>2020-10-05T16:08:07.988Z</time>
      </trkpt>
      <trkpt lat="43.97118" lon="5.88946">
        <ele>591</ele>
        <time>2020-10-05T16:08:08.988Z</time>
      </trkpt>
      <trkpt lat="43.97118" lon="5.88946">
        <ele>591</ele>
        <time>2020-10-05T16:08:09.988Z</time>
      </trkpt>
      <trkpt lat="43.97118" lon="5.88946">
        <ele>591</ele>
        <time>2020-10-05T16:08:10.988Z</time>
      </trkpt>
      <trkpt lat="43.97118" lon="5.88946">
        <ele>591</ele>
        <time>2020-10-05T16:08:11.988Z</time>
      </trkpt>
      <trkpt lat="43.97117" lon="5.88946">
        <ele>591</ele>
        <time>2020-10-05T16:08:12.988Z</time>
      </trkpt>
      <trkpt lat="43.97116" lon="5.88945">
        <ele>591</ele>
        <time>2020-10-05T16:08:13.988Z</time>
      </trkpt>
      <trkpt lat="43.97116" lon="5.88945">
        <ele>591</ele>
        <time>2020-10-05T16:08:14.988Z</time>
      </trkpt>
      <trkpt lat="43.97115" lon="5.88944">
        <ele>591</ele>
        <time>2020-10-05T16:08:15.988Z</time>
      </trkpt>
      <trkpt lat="43.97114" lon="5.88944">
        <ele>591</ele>
        <time>2020-10-05T16:08:16.988Z</time>
      </trkpt>
      <trkpt lat="43.97113" lon="5.88944">
        <ele>591</ele>
        <time>2020-10-05T16:08:17.988Z</time>
      </trkpt>
      <trkpt lat="43.97112" lon="5.88943">
        <ele>591</ele>
        <time>2020-10-05T16:08:18.988Z</time>
      </trkpt>
      <trkpt lat="43.97111" lon="5.88943">
        <ele>591</ele>
        <time>2020-10-05T16:08:19.988Z</time>
      </trkpt>
      <trkpt lat="43.9711" lon="5.88943">
        <ele>591</ele>
        <time>2020-10-05T16:08:20.988Z</time>
      </trkpt>
      <trkpt lat="43.97109" lon="5.88942">
        <ele>591</ele>
        <time>2020-10-05T16:08:21.988Z</time>
      </trkpt>
      <trkpt lat="43.97108" lon="5.88942">
        <ele>591</ele>
        <time>2020-10-05T16:08:22.988Z</time>
      </trkpt>
      <trkpt lat="43.97107" lon="5.88941">
        <ele>591</ele>
        <time>2020-10-05T16:08:23.988Z</time>
      </trkpt>
      <trkpt lat="43.97106" lon="5.88941">
        <ele>591</ele>
        <time>2020-10-05T16:08:24.988Z</time>
      </trkpt>
      <trkpt lat="43.97105" lon="5.88941">
        <ele>591</ele>
        <time>2020-10-05T16:08:25.988Z</time>
      </trkpt>
      <trkpt lat="43.97104" lon="5.8894">
        <ele>591</ele>
        <time>2020-10-05T16:08:26.988Z</time>
      </trkpt>
      <trkpt lat="43.97103" lon="5.8894">
        <ele>591</ele>
        <time>2020-10-05T16:08:27.988Z</time>
      </trkpt>
      <trkpt lat="43.97101" lon="5.8894">
        <ele>591</ele>
        <time>2020-10-05T16:08:28.988Z</time>
      </trkpt>
      <trkpt lat="43.971" lon="5.88939">
        <ele>591</ele>
        <time>2020-10-05T16:08:29.988Z</time>
      </trkpt>
      <trkpt lat="43.97099" lon="5.88939">
        <ele>591</ele>
        <time>2020-10-05T16:08:30.988Z</time>
      </trkpt>
      <trkpt lat="43.97098" lon="5.88938">
        <ele>591</ele>
        <time>2020-10-05T16:08:31.988Z</time>
      </trkpt>
      <trkpt lat="43.97097" lon="5.88937">
        <ele>591</ele>
        <time>2020-10-05T16:08:32.988Z</time>
      </trkpt>
      <trkpt lat="43.97096" lon="5.88936">
        <ele>591</ele>
        <time>2020-10-05T16:08:33.988Z</time>
      </trkpt>
      <trkpt lat="43.97095" lon="5.88936">
        <ele>591</ele>
        <time>2020-10-05T16:08:34.988Z</time>
      </trkpt>
      <trkpt lat="43.97095" lon="5.88936">
        <ele>591</ele>
        <time>2020-10-05T16:08:35.988Z</time>
      </trkpt>
      <trkpt lat="43.97094" lon="5.88936">
        <ele>591</ele>
        <time>2020-10-05T16:08:36.988Z</time>
      </trkpt>
      <trkpt lat="43.97093" lon="5.88936">
        <ele>591</ele>
        <time>2020-10-05T16:08:37.988Z</time>
      </trkpt>
      <trkpt lat="43.97092" lon="5.88935">
        <ele>591</ele>
        <time>2020-10-05T16:08:38.988Z</time>
      </trkpt>
      <trkpt lat="43.97091" lon="5.88935">
        <ele>591</ele>
        <time>2020-10-05T16:08:39.988Z</time>
      </trkpt>
      <trkpt lat="43.9709" lon="5.88934">
        <ele>591</ele>
        <time>2020-10-05T16:08:40.988Z</time>
      </trkpt>
      <trkpt lat="43.97089" lon="5.88934">
        <ele>591</ele>
        <time>2020-10-05T16:08:41.988Z</time>
      </trkpt>
      <trkpt lat="43.97088" lon="5.88934">
        <ele>591</ele>
        <time>2020-10-05T16:08:42.988Z</time>
      </trkpt>
      <trkpt lat="43.97087" lon="5.88933">
        <ele>591</ele>
        <time>2020-10-05T16:08:43.988Z</time>
      </trkpt>
      <trkpt lat="43.97086" lon="5.88932">
        <ele>591</ele>
        <time>2020-10-05T16:08:44.988Z</time>
      </trkpt>
      <trkpt lat="43.97084" lon="5.88931">
        <ele>591</ele>
        <time>2020-10-05T16:08:45.988Z</time>
      </trkpt>
      <trkpt lat="43.97083" lon="5.88931">
        <ele>591</ele>
        <time>2020-10-05T16:08:46.988Z</time>
      </trkpt>
      <trkpt lat="43.97083" lon="5.8893">
        <ele>591</ele>
        <time>2020-10-05T16:08:47.988Z</time>
      </trkpt>
      <trkpt lat="43.97082" lon="5.88929">
        <ele>591</ele>
        <time>2020-10-05T16:08:48.988Z</time>
      </trkpt>
      <trkpt lat="43.97081" lon="5.88929">
        <ele>591</ele>
        <time>2020-10-05T16:08:49.988Z</time>
      </trkpt>
      <trkpt lat="43.9708" lon="5.88928">
        <ele>590</ele>
        <time>2020-10-05T16:08:50.988Z</time>
      </trkpt>
      <trkpt lat="43.97079" lon="5.88927">
        <ele>590</ele>
        <time>2020-10-05T16:08:51.988Z</time>
      </trkpt>
      <trkpt lat="43.97079" lon="5.88926">
        <ele>590</ele>
        <time>2020-10-05T16:08:52.988Z</time>
      </trkpt>
      <trkpt lat="43.97078" lon="5.88925">
        <ele>590</ele>
        <time>2020-10-05T16:08:53.988Z</time>
      </trkpt>
      <trkpt lat="43.97077" lon="5.88925">
        <ele>590</ele>
        <time>2020-10-05T16:08:54.988Z</time>
      </trkpt>
      <trkpt lat="43.97077" lon="5.88924">
        <ele>590</ele>
        <time>2020-10-05T16:08:55.988Z</time>
      </trkpt>
      <trkpt lat="43.97077" lon="5.88924">
        <ele>590</ele>
        <time>2020-10-05T16:08:56.988Z</time>
      </trkpt>
      <trkpt lat="43.97077" lon="5.88924">
        <ele>590</ele>
        <time>2020-10-05T16:08:57.988Z</time>
      </trkpt>
      <trkpt lat="43.97077" lon="5.88924">
        <ele>590</ele>
        <time>2020-10-05T16:08:58.988Z</time>
      </trkpt>
      <trkpt lat="43.97077" lon="5.88924">
        <ele>590</ele>
        <time>2020-10-05T16:08:59.988Z</time>
      </trkpt>
      <trkpt lat="43.97077" lon="5.88924">
        <ele>590</ele>
        <time>2020-10-05T16:09:00.988Z</time>
      </trkpt>
      <trkpt lat="43.97076" lon="5.88924">
        <ele>590</ele>
        <time>2020-10-05T16:09:01.988Z</time>
      </trkpt>
      <trkpt lat="43.97075" lon="5.88923">
        <ele>590</ele>
        <time>2020-10-05T16:09:02.988Z</time>
      </trkpt>
      <trkpt lat="43.97074" lon="5.88923">
        <ele>590</ele>
        <time>2020-10-05T16:09:03.988Z</time>
      </trkpt>
      <trkpt lat="43.97074" lon="5.88923">
        <ele>590</ele>
        <time>2020-10-05T16:09:04.988Z</time>
      </trkpt>
      <trkpt lat="43.97073" lon="5.88923">
        <ele>590</ele>
        <time>2020-10-05T16:09:05.988Z</time>
      </trkpt>
      <trkpt lat="43.97072" lon="5.88923">
        <ele>590</ele>
        <time>2020-10-05T16:09:06.988Z</time>
      </trkpt>
      <trkpt lat="43.97071" lon="5.88923">
        <ele>590</ele>
        <time>2020-10-05T16:09:07.988Z</time>
      </trkpt>
      <trkpt lat="43.97069" lon="5.88923">
        <ele>590</ele>
        <time>2020-10-05T16:09:08.988Z</time>
      </trkpt>
      <trkpt lat="43.97068" lon="5.88924">
        <ele>590</ele>
        <time>2020-10-05T16:09:09.988Z</time>
      </trkpt>
      <trkpt lat="43.97067" lon="5.88924">
        <ele>590</ele>
        <time>2020-10-05T16:09:10.988Z</time>
      </trkpt>
      <trkpt lat="43.97066" lon="5.88925">
        <ele>590</ele>
        <time>2020-10-05T16:09:11.988Z</time>
      </trkpt>
      <trkpt lat="43.97065" lon="5.88925">
        <ele>590</ele>
        <time>2020-10-05T16:09:12.988Z</time>
      </trkpt>
      <trkpt lat="43.97063" lon="5.88925">
        <ele>590</ele>
        <time>2020-10-05T16:09:13.988Z</time>
      </trkpt>
      <trkpt lat="43.97062" lon="5.88925">
        <ele>590</ele>
        <time>2020-10-05T16:09:14.988Z</time>
      </trkpt>
      <trkpt lat="43.97061" lon="5.88925">
        <ele>590</ele>
        <time>2020-10-05T16:09:15.988Z</time>
      </trkpt>
      <trkpt lat="43.9706" lon="5.88925">
        <ele>590</ele>
        <time>2020-10-05T16:09:16.988Z</time>
      </trkpt>
      <trkpt lat="43.97059" lon="5.88925">
        <ele>590</ele>
        <time>2020-10-05T16:09:17.988Z</time>
      </trkpt>
      <trkpt lat="43.97057" lon="5.88925">
        <ele>590</ele>
        <time>2020-10-05T16:09:18.988Z</time>
      </trkpt>
      <trkpt lat="43.97056" lon="5.88925">
        <ele>590</ele>
        <time>2020-10-05T16:09:19.988Z</time>
      </trkpt>
      <trkpt lat="43.97055" lon="5.88925">
        <ele>590</ele>
        <time>2020-10-05T16:09:20.988Z</time>
      </trkpt>
      <trkpt lat="43.97054" lon="5.88925">
        <ele>590</ele>
        <time>2020-10-05T16:09:21.988Z</time>
      </trkpt>
      <trkpt lat="43.97053" lon="5.88926">
        <ele>590</ele>
        <time>2020-10-05T16:09:22.988Z</time>
      </trkpt>
      <trkpt lat="43.97051" lon="5.88926">
        <ele>590</ele>
        <time>2020-10-05T16:09:23.988Z</time>
      </trkpt>
      <trkpt lat="43.9705" lon="5.88926">
        <ele>590</ele>
        <time>2020-10-05T16:09:24.988Z</time>
      </trkpt>
      <trkpt lat="43.97049" lon="5.88926">
        <ele>590</ele>
        <time>2020-10-05T16:09:25.988Z</time>
      </trkpt>
      <trkpt lat="43.97048" lon="5.88926">
        <ele>590</ele>
        <time>2020-10-05T16:09:26.988Z</time>
      </trkpt>
      <trkpt lat="43.97047" lon="5.88926">
        <ele>590</ele>
        <time>2020-10-05T16:09:27.988Z</time>
      </trkpt>
      <trkpt lat="43.97045" lon="5.88926">
        <ele>590</ele>
        <time>2020-10-05T16:09:28.988Z</time>
      </trkpt>
      <trkpt lat="43.97044" lon="5.88926">
        <ele>590</ele>
        <time>2020-10-05T16:09:29.988Z</time>
      </trkpt>
      <trkpt lat="43.97043" lon="5.88926">
        <ele>590</ele>
        <time>2020-10-05T16:09:30.988Z</time>
      </trkpt>
      <trkpt lat="43.97042" lon="5.88926">
        <ele>590</ele>
        <time>2020-10-05T16:09:31.988Z</time>
      </trkpt>
      <trkpt lat="43.97042" lon="5.88926">
        <ele>590</ele>
        <time>2020-10-05T16:09:32.988Z</time>
      </trkpt>
      <trkpt lat="43.9704" lon="5.88926">
        <ele>591</ele>
        <time>2020-10-05T16:09:33.988Z</time>
      </trkpt>
      <trkpt lat="43.97039" lon="5.88927">
        <ele>591</ele>
        <time>2020-10-05T16:09:34.988Z</time>
      </trkpt>
      <trkpt lat="43.97038" lon="5.88927">
        <ele>591</ele>
        <time>2020-10-05T16:09:35.988Z</time>
      </trkpt>
      <trkpt lat="43.97037" lon="5.88927">
        <ele>591</ele>
        <time>2020-10-05T16:09:36.988Z</time>
      </trkpt>
      <trkpt lat="43.97036" lon="5.88928">
        <ele>591</ele>
        <time>2020-10-05T16:09:37.988Z</time>
      </trkpt>
      <trkpt lat="43.97035" lon="5.88927">
        <ele>591</ele>
        <time>2020-10-05T16:09:38.988Z</time>
      </trkpt>
      <trkpt lat="43.97033" lon="5.88927">
        <ele>591</ele>
        <time>2020-10-05T16:09:39.988Z</time>
      </trkpt>
      <trkpt lat="43.97032" lon="5.88927">
        <ele>591</ele>
        <time>2020-10-05T16:09:40.988Z</time>
      </trkpt>
      <trkpt lat="43.97031" lon="5.88927">
        <ele>591</ele>
        <time>2020-10-05T16:09:41.988Z</time>
      </trkpt>
      <trkpt lat="43.9703" lon="5.88927">
        <ele>591</ele>
        <time>2020-10-05T16:09:42.988Z</time>
      </trkpt>
      <trkpt lat="43.97029" lon="5.88927">
        <ele>591</ele>
        <time>2020-10-05T16:09:43.988Z</time>
      </trkpt>
      <trkpt lat="43.97028" lon="5.88927">
        <ele>591</ele>
        <time>2020-10-05T16:09:44.988Z</time>
      </trkpt>
      <trkpt lat="43.97027" lon="5.88927">
        <ele>591</ele>
        <time>2020-10-05T16:09:45.988Z</time>
      </trkpt>
      <trkpt lat="43.97026" lon="5.88927">
        <ele>591</ele>
        <time>2020-10-05T16:09:46.988Z</time>
      </trkpt>
      <trkpt lat="43.97025" lon="5.88927">
        <ele>591</ele>
        <time>2020-10-05T16:09:47.988Z</time>
      </trkpt>
      <trkpt lat="43.97023" lon="5.88928">
        <ele>591</ele>
        <time>2020-10-05T16:09:48.988Z</time>
      </trkpt>
      <trkpt lat="43.97022" lon="5.88928">
        <ele>591</ele>
        <time>2020-10-05T16:09:49.988Z</time>
      </trkpt>
      <trkpt lat="43.97021" lon="5.88928">
        <ele>592</ele>
        <time>2020-10-05T16:09:50.988Z</time>
      </trkpt>
      <trkpt lat="43.9702" lon="5.88929">
        <ele>592</ele>
        <time>2020-10-05T16:09:51.988Z</time>
      </trkpt>
      <trkpt lat="43.97019" lon="5.88929">
        <ele>592</ele>
        <time>2020-10-05T16:09:52.988Z</time>
      </trkpt>
      <trkpt lat="43.97018" lon="5.88929">
        <ele>592</ele>
        <time>2020-10-05T16:09:53.988Z</time>
      </trkpt>
      <trkpt lat="43.97017" lon="5.88929">
        <ele>592</ele>
        <time>2020-10-05T16:09:54.988Z</time>
      </trkpt>
      <trkpt lat="43.97016" lon="5.8893">
        <ele>592</ele>
        <time>2020-10-05T16:09:55.988Z</time>
      </trkpt>
      <trkpt lat="43.97015" lon="5.8893">
        <ele>592</ele>
        <time>2020-10-05T16:09:56.988Z</time>
      </trkpt>
      <trkpt lat="43.97014" lon="5.8893">
        <ele>592</ele>
        <time>2020-10-05T16:09:57.988Z</time>
      </trkpt>
      <trkpt lat="43.97013" lon="5.88931">
        <ele>592</ele>
        <time>2020-10-05T16:09:58.988Z</time>
      </trkpt>
      <trkpt lat="43.97013" lon="5.88931">
        <ele>592</ele>
        <time>2020-10-05T16:09:59.988Z</time>
      </trkpt>
      <trkpt lat="43.97012" lon="5.88932">
        <ele>592</ele>
        <time>2020-10-05T16:10:00.988Z</time>
      </trkpt>
      <trkpt lat="43.97012" lon="5.88932">
        <ele>592</ele>
        <time>2020-10-05T16:10:01.988Z</time>
      </trkpt>
      <trkpt lat="43.97012" lon="5.88933">
        <ele>592</ele>
        <time>2020-10-05T16:10:02.988Z</time>
      </trkpt>
      <trkpt lat="43.97011" lon="5.88933">
        <ele>592</ele>
        <time>2020-10-05T16:10:03.988Z</time>
      </trkpt>
      <trkpt lat="43.97011" lon="5.88934">
        <ele>592</ele>
        <time>2020-10-05T16:10:04.988Z</time>
      </trkpt>
      <trkpt lat="43.97011" lon="5.88935">
        <ele>592</ele>
        <time>2020-10-05T16:10:05.988Z</time>
      </trkpt>
      <trkpt lat="43.9701" lon="5.88935">
        <ele>592</ele>
        <time>2020-10-05T16:10:06.988Z</time>
      </trkpt>
      <trkpt lat="43.9701" lon="5.88935">
        <ele>592</ele>
        <time>2020-10-05T16:10:07.988Z</time>
      </trkpt>
      <trkpt lat="43.9701" lon="5.88935">
        <ele>592</ele>
        <time>2020-10-05T16:10:08.988Z</time>
      </trkpt>
      <trkpt lat="43.9701" lon="5.88935">
        <ele>592</ele>
        <time>2020-10-05T16:10:09.988Z</time>
      </trkpt>
      <trkpt lat="43.9701" lon="5.88935">
        <ele>592</ele>
        <time>2020-10-05T16:10:10.988Z</time>
      </trkpt>
      <trkpt lat="43.9701" lon="5.88935">
        <ele>592</ele>
        <time>2020-10-05T16:10:11.988Z</time>
      </trkpt>
      <trkpt lat="43.9701" lon="5.88935">
        <ele>592</ele>
        <time>2020-10-05T16:10:12.988Z</time>
      </trkpt>
      <trkpt lat="43.9701" lon="5.88936">
        <ele>592</ele>
        <time>2020-10-05T16:10:13.988Z</time>
      </trkpt>
      <trkpt lat="43.9701" lon="5.88936">
        <ele>592</ele>
        <time>2020-10-05T16:10:14.988Z</time>
      </trkpt>
      <trkpt lat="43.9701" lon="5.88936">
        <ele>592</ele>
        <time>2020-10-05T16:10:15.988Z</time>
      </trkpt>
      <trkpt lat="43.9701" lon="5.88936">
        <ele>592</ele>
        <time>2020-10-05T16:10:16.988Z</time>
      </trkpt>
      <trkpt lat="43.9701" lon="5.88936">
        <ele>592</ele>
        <time>2020-10-05T16:10:17.988Z</time>
      </trkpt>
      <trkpt lat="43.9701" lon="5.88937">
        <ele>592</ele>
        <time>2020-10-05T16:10:18.988Z</time>
      </trkpt>
      <trkpt lat="43.9701" lon="5.88937">
        <ele>592</ele>
        <time>2020-10-05T16:10:19.988Z</time>
      </trkpt>
      <trkpt lat="43.9701" lon="5.88938">
        <ele>592</ele>
        <time>2020-10-05T16:10:20.988Z</time>
      </trkpt>
      <trkpt lat="43.9701" lon="5.88938">
        <ele>592</ele>
        <time>2020-10-05T16:10:21.988Z</time>
      </trkpt>
      <trkpt lat="43.9701" lon="5.88938">
        <ele>592</ele>
        <time>2020-10-05T16:10:22.988Z</time>
      </trkpt>
      <trkpt lat="43.9701" lon="5.88939">
        <ele>592</ele>
        <time>2020-10-05T16:10:23.988Z</time>
      </trkpt>
      <trkpt lat="43.9701" lon="5.88939">
        <ele>592</ele>
        <time>2020-10-05T16:10:24.988Z</time>
      </trkpt>
      <trkpt lat="43.97011" lon="5.8894">
        <ele>592</ele>
        <time>2020-10-05T16:10:25.988Z</time>
      </trkpt>
      <trkpt lat="43.97011" lon="5.88941">
        <ele>592</ele>
        <time>2020-10-05T16:10:26.988Z</time>
      </trkpt>
      <trkpt lat="43.97012" lon="5.88941">
        <ele>592</ele>
        <time>2020-10-05T16:10:27.988Z</time>
      </trkpt>
      <trkpt lat="43.97012" lon="5.88942">
        <ele>592</ele>
        <time>2020-10-05T16:10:28.988Z</time>
      </trkpt>
      <trkpt lat="43.97012" lon="5.88943">
        <ele>591</ele>
        <time>2020-10-05T16:10:29.988Z</time>
      </trkpt>
      <trkpt lat="43.97013" lon="5.88943">
        <ele>591</ele>
        <time>2020-10-05T16:10:30.988Z</time>
      </trkpt>
      <trkpt lat="43.97013" lon="5.88944">
        <ele>591</ele>
        <time>2020-10-05T16:10:31.988Z</time>
      </trkpt>
      <trkpt lat="43.97014" lon="5.88945">
        <ele>591</ele>
        <time>2020-10-05T16:10:32.988Z</time>
      </trkpt>
      <trkpt lat="43.97014" lon="5.88945">
        <ele>591</ele>
        <time>2020-10-05T16:10:33.988Z</time>
      </trkpt>
      <trkpt lat="43.97014" lon="5.88946">
        <ele>591</ele>
        <time>2020-10-05T16:10:34.988Z</time>
      </trkpt>
      <trkpt lat="43.97015" lon="5.88947">
        <ele>591</ele>
        <time>2020-10-05T16:10:35.988Z</time>
      </trkpt>
      <trkpt lat="43.97015" lon="5.88948">
        <ele>591</ele>
        <time>2020-10-05T16:10:36.988Z</time>
      </trkpt>
      <trkpt lat="43.97015" lon="5.88948">
        <ele>591</ele>
        <time>2020-10-05T16:10:37.988Z</time>
      </trkpt>
      <trkpt lat="43.97016" lon="5.88949">
        <ele>591</ele>
        <time>2020-10-05T16:10:38.988Z</time>
      </trkpt>
      <trkpt lat="43.97016" lon="5.88949">
        <ele>591</ele>
        <time>2020-10-05T16:10:39.988Z</time>
      </trkpt>
      <trkpt lat="43.97017" lon="5.88949">
        <ele>591</ele>
        <time>2020-10-05T16:10:40.988Z</time>
      </trkpt>
      <trkpt lat="43.97017" lon="5.88949">
        <ele>591</ele>
        <time>2020-10-05T16:10:41.988Z</time>
      </trkpt>
      <trkpt lat="43.97018" lon="5.88949">
        <ele>592</ele>
        <time>2020-10-05T16:10:42.988Z</time>
      </trkpt>
      <trkpt lat="43.97018" lon="5.88949">
        <ele>592</ele>
        <time>2020-10-05T16:10:43.988Z</time>
      </trkpt>
      <trkpt lat="43.97019" lon="5.88948">
        <ele>592</ele>
        <time>2020-10-05T16:10:44.988Z</time>
      </trkpt>
      <trkpt lat="43.9702" lon="5.88948">
        <ele>592</ele>
        <time>2020-10-05T16:10:45.988Z</time>
      </trkpt>
      <trkpt lat="43.9702" lon="5.88948">
        <ele>592</ele>
        <time>2020-10-05T16:10:46.988Z</time>
      </trkpt>
      <trkpt lat="43.97021" lon="5.88948">
        <ele>592</ele>
        <time>2020-10-05T16:10:47.988Z</time>
      </trkpt>
      <trkpt lat="43.97021" lon="5.88949">
        <ele>592</ele>
        <time>2020-10-05T16:10:48.988Z</time>
      </trkpt>
      <trkpt lat="43.97021" lon="5.88949">
        <ele>592</ele>
        <time>2020-10-05T16:10:49.988Z</time>
      </trkpt>
      <trkpt lat="43.97021" lon="5.88949">
        <ele>592</ele>
        <time>2020-10-05T16:10:50.988Z</time>
      </trkpt>
      <trkpt lat="43.97022" lon="5.88949">
        <ele>592</ele>
        <time>2020-10-05T16:10:51.988Z</time>
      </trkpt>
      <trkpt lat="43.97022" lon="5.8895">
        <ele>592</ele>
        <time>2020-10-05T16:10:52.988Z</time>
      </trkpt>
      <trkpt lat="43.97022" lon="5.8895">
        <ele>592</ele>
        <time>2020-10-05T16:10:53.988Z</time>
      </trkpt>
      <trkpt lat="43.97022" lon="5.88951">
        <ele>592</ele>
        <time>2020-10-05T16:10:54.988Z</time>
      </trkpt>
      <trkpt lat="43.97022" lon="5.88951">
        <ele>592</ele>
        <time>2020-10-05T16:10:55.988Z</time>
      </trkpt>
      <trkpt lat="43.97022" lon="5.88951">
        <ele>592</ele>
        <time>2020-10-05T16:10:56.988Z</time>
      </trkpt>
      <trkpt lat="43.97022" lon="5.88951">
        <ele>592</ele>
        <time>2020-10-05T16:10:57.988Z</time>
      </trkpt>
      <trkpt lat="43.97022" lon="5.88952">
        <ele>593</ele>
        <time>2020-10-05T16:10:58.988Z</time>
      </trkpt>
      <trkpt lat="43.97022" lon="5.88952">
        <ele>593</ele>
        <time>2020-10-05T16:10:59.988Z</time>
      </trkpt>
      <trkpt lat="43.97022" lon="5.88952">
        <ele>593</ele>
        <time>2020-10-05T16:11:00.988Z</time>
      </trkpt>
      <trkpt lat="43.97022" lon="5.88953">
        <ele>593</ele>
        <time>2020-10-05T16:11:01.988Z</time>
      </trkpt>
      <trkpt lat="43.97021" lon="5.88953">
        <ele>593</ele>
        <time>2020-10-05T16:11:02.988Z</time>
      </trkpt>
      <trkpt lat="43.97021" lon="5.88953">
        <ele>593</ele>
        <time>2020-10-05T16:11:03.988Z</time>
      </trkpt>
      <trkpt lat="43.97021" lon="5.88953">
        <ele>593</ele>
        <time>2020-10-05T16:11:04.988Z</time>
      </trkpt>
      <trkpt lat="43.97021" lon="5.88953">
        <ele>593</ele>
        <time>2020-10-05T16:11:05.988Z</time>
      </trkpt>
      <trkpt lat="43.97021" lon="5.88953">
        <ele>593</ele>
        <time>2020-10-05T16:11:06.988Z</time>
      </trkpt>
      <trkpt lat="43.97021" lon="5.88953">
        <ele>593</ele>
        <time>2020-10-05T16:11:07.988Z</time>
      </trkpt>
      <trkpt lat="43.97021" lon="5.88953">
        <ele>593</ele>
        <time>2020-10-05T16:11:08.988Z</time>
      </trkpt>
      <trkpt lat="43.97021" lon="5.88953">
        <ele>593</ele>
        <time>2020-10-05T16:11:09.988Z</time>
      </trkpt>
      <trkpt lat="43.97021" lon="5.88953">
        <ele>594</ele>
        <time>2020-10-05T16:11:10.988Z</time>
      </trkpt>
      <trkpt lat="43.97021" lon="5.88953">
        <ele>594</ele>
        <time>2020-10-05T16:11:11.988Z</time>
      </trkpt>
      <trkpt lat="43.97021" lon="5.88953">
        <ele>594</ele>
        <time>2020-10-05T16:11:12.988Z</time>
      </trkpt>
      <trkpt lat="43.97021" lon="5.88953">
        <ele>594</ele>
        <time>2020-10-05T16:11:13.988Z</time>
      </trkpt>
      <trkpt lat="43.97021" lon="5.88953">
        <ele>594</ele>
        <time>2020-10-05T16:11:14.988Z</time>
      </trkpt>
      <trkpt lat="43.97022" lon="5.88953">
        <ele>594</ele>
        <time>2020-10-05T16:11:15.988Z</time>
      </trkpt>
      <trkpt lat="43.97022" lon="5.88953">
        <ele>594</ele>
        <time>2020-10-05T16:11:16.988Z</time>
      </trkpt>
      <trkpt lat="43.97022" lon="5.88954">
        <ele>594</ele>
        <time>2020-10-05T16:11:17.988Z</time>
      </trkpt>
      <trkpt lat="43.97022" lon="5.88954">
        <ele>594</ele>
        <time>2020-10-05T16:11:18.988Z</time>
      </trkpt>
      <trkpt lat="43.97023" lon="5.88955">
        <ele>594</ele>
        <time>2020-10-05T16:11:19.988Z</time>
      </trkpt>
      <trkpt lat="43.97023" lon="5.88956">
        <ele>594</ele>
        <time>2020-10-05T16:11:20.988Z</time>
      </trkpt>
      <trkpt lat="43.97024" lon="5.88956">
        <ele>594</ele>
        <time>2020-10-05T16:11:21.988Z</time>
      </trkpt>
      <trkpt lat="43.97024" lon="5.88956">
        <ele>594</ele>
        <time>2020-10-05T16:11:22.988Z</time>
      </trkpt>
      <trkpt lat="43.97024" lon="5.88955">
        <ele>594</ele>
        <time>2020-10-05T16:11:23.988Z</time>
      </trkpt>
      <trkpt lat="43.97025" lon="5.88954">
        <ele>594</ele>
        <time>2020-10-05T16:11:24.988Z</time>
      </trkpt>
      <trkpt lat="43.97025" lon="5.88954">
        <ele>594</ele>
        <time>2020-10-05T16:11:25.988Z</time>
      </trkpt>
      <trkpt lat="43.97025" lon="5.88954">
        <ele>594</ele>
        <time>2020-10-05T16:11:26.988Z</time>
      </trkpt>
      <trkpt lat="43.97025" lon="5.88953">
        <ele>594</ele>
        <time>2020-10-05T16:11:27.988Z</time>
      </trkpt>
      <trkpt lat="43.97025" lon="5.88953">
        <ele>594</ele>
        <time>2020-10-05T16:11:28.988Z</time>
      </trkpt>
      <trkpt lat="43.97025" lon="5.88952">
        <ele>594</ele>
        <time>2020-10-05T16:11:29.988Z</time>
      </trkpt>
      <trkpt lat="43.97024" lon="5.88952">
        <ele>594</ele>
        <time>2020-10-05T16:11:30.988Z</time>
      </trkpt>
      <trkpt lat="43.97024" lon="5.88951">
        <ele>594</ele>
        <time>2020-10-05T16:11:31.988Z</time>
      </trkpt>
      <trkpt lat="43.97025" lon="5.8895">
        <ele>594</ele>
        <time>2020-10-05T16:11:32.988Z</time>
      </trkpt>
      <trkpt lat="43.97025" lon="5.88949">
        <ele>594</ele>
        <time>2020-10-05T16:11:33.988Z</time>
      </trkpt>
      <trkpt lat="43.97025" lon="5.88948">
        <ele>594</ele>
        <time>2020-10-05T16:11:34.988Z</time>
      </trkpt>
      <trkpt lat="43.97025" lon="5.88948">
        <ele>594</ele>
        <time>2020-10-05T16:11:35.988Z</time>
      </trkpt>
      <trkpt lat="43.97026" lon="5.88947">
        <ele>594</ele>
        <time>2020-10-05T16:11:36.988Z</time>
      </trkpt>
      <trkpt lat="43.97026" lon="5.88946">
        <ele>594</ele>
        <time>2020-10-05T16:11:37.988Z</time>
      </trkpt>
      <trkpt lat="43.97027" lon="5.88946">
        <ele>594</ele>
        <time>2020-10-05T16:11:38.988Z</time>
      </trkpt>
      <trkpt lat="43.97027" lon="5.88945">
        <ele>594</ele>
        <time>2020-10-05T16:11:39.988Z</time>
      </trkpt>
      <trkpt lat="43.97027" lon="5.88945">
        <ele>594</ele>
        <time>2020-10-05T16:11:40.988Z</time>
      </trkpt>
      <trkpt lat="43.97027" lon="5.88945">
        <ele>594</ele>
        <time>2020-10-05T16:11:41.988Z</time>
      </trkpt>
      <trkpt lat="43.97027" lon="5.88946">
        <ele>594</ele>
        <time>2020-10-05T16:11:42.988Z</time>
      </trkpt>
      <trkpt lat="43.97026" lon="5.88946">
        <ele>594</ele>
        <time>2020-10-05T16:11:43.988Z</time>
      </trkpt>
      <trkpt lat="43.97026" lon="5.88946">
        <ele>594</ele>
        <time>2020-10-05T16:11:44.988Z</time>
      </trkpt>
      <trkpt lat="43.97026" lon="5.88946">
        <ele>594</ele>
        <time>2020-10-05T16:11:45.988Z</time>
      </trkpt>
      <trkpt lat="43.97026" lon="5.88946">
        <ele>594</ele>
        <time>2020-10-05T16:11:46.988Z</time>
      </trkpt>
      <trkpt lat="43.97027" lon="5.88946">
        <ele>594</ele>
        <time>2020-10-05T16:11:47.988Z</time>
      </trkpt>
      <trkpt lat="43.97027" lon="5.88946">
        <ele>594</ele>
        <time>2020-10-05T16:11:48.988Z</time>
      </trkpt>
      <trkpt lat="43.97027" lon="5.88946">
        <ele>594</ele>
        <time>2020-10-05T16:11:49.988Z</time>
      </trkpt>
      <trkpt lat="43.97027" lon="5.88946">
        <ele>594</ele>
        <time>2020-10-05T16:11:50.988Z</time>
      </trkpt>
      <trkpt lat="43.97027" lon="5.88946">
        <ele>594</ele>
        <time>2020-10-05T16:11:51.988Z</time>
      </trkpt>
      <trkpt lat="43.97026" lon="5.88946">
        <ele>594</ele>
        <time>2020-10-05T16:11:52.988Z</time>
      </trkpt>
      <trkpt lat="43.97025" lon="5.88947">
        <ele>594</ele>
        <time>2020-10-05T16:11:53.988Z</time>
      </trkpt>
      <trkpt lat="43.97025" lon="5.88947">
        <ele>594</ele>
        <time>2020-10-05T16:11:54.988Z</time>
      </trkpt>
      <trkpt lat="43.97024" lon="5.88947">
        <ele>594</ele>
        <time>2020-10-05T16:11:55.988Z</time>
      </trkpt>
      <trkpt lat="43.97023" lon="5.88947">
        <ele>594</ele>
        <time>2020-10-05T16:11:56.988Z</time>
      </trkpt>
      <trkpt lat="43.97023" lon="5.88947">
        <ele>594</ele>
        <time>2020-10-05T16:11:57.988Z</time>
      </trkpt>
      <trkpt lat="43.97022" lon="5.88946">
        <ele>594</ele>
        <time>2020-10-05T16:11:58.988Z</time>
      </trkpt>
      <trkpt lat="43.97021" lon="5.88946">
        <ele>594</ele>
        <time>2020-10-05T16:11:59.988Z</time>
      </trkpt>
      <trkpt lat="43.97021" lon="5.88946">
        <ele>594</ele>
        <time>2020-10-05T16:12:00.988Z</time>
      </trkpt>
      <trkpt lat="43.9702" lon="5.88946">
        <ele>594</ele>
        <time>2020-10-05T16:12:01.988Z</time>
      </trkpt>
      <trkpt lat="43.9702" lon="5.88945">
        <ele>594</ele>
        <time>2020-10-05T16:12:02.988Z</time>
      </trkpt>
      <trkpt lat="43.97021" lon="5.88945">
        <ele>594</ele>
        <time>2020-10-05T16:12:03.988Z</time>
      </trkpt>
      <trkpt lat="43.97021" lon="5.88945">
        <ele>594</ele>
        <time>2020-10-05T16:12:04.988Z</time>
      </trkpt>
      <trkpt lat="43.97021" lon="5.88945">
        <ele>594</ele>
        <time>2020-10-05T16:12:05.988Z</time>
      </trkpt>
      <trkpt lat="43.97021" lon="5.88945">
        <ele>594</ele>
        <time>2020-10-05T16:12:06.988Z</time>
      </trkpt>
      <trkpt lat="43.9702" lon="5.88946">
        <ele>594</ele>
        <time>2020-10-05T16:12:07.988Z</time>
      </trkpt>
      <trkpt lat="43.9702" lon="5.88946">
        <ele>594</ele>
        <time>2020-10-05T16:12:08.988Z</time>
      </trkpt>
      <trkpt lat="43.97019" lon="5.88946">
        <ele>594</ele>
        <time>2020-10-05T16:12:09.988Z</time>
      </trkpt>
      <trkpt lat="43.97019" lon="5.88946">
        <ele>594</ele>
        <time>2020-10-05T16:12:10.988Z</time>
      </trkpt>
      <trkpt lat="43.97018" lon="5.88946">
        <ele>594</ele>
        <time>2020-10-05T16:12:11.988Z</time>
      </trkpt>
      <trkpt lat="43.97017" lon="5.88947">
        <ele>594</ele>
        <time>2020-10-05T16:12:12.988Z</time>
      </trkpt>
      <trkpt lat="43.97016" lon="5.88948">
        <ele>594</ele>
        <time>2020-10-05T16:12:13.988Z</time>
      </trkpt>
      <trkpt lat="43.97015" lon="5.88948">
        <ele>594</ele>
        <time>2020-10-05T16:12:14.988Z</time>
      </trkpt>
      <trkpt lat="43.97014" lon="5.88949">
        <ele>594</ele>
        <time>2020-10-05T16:12:15.988Z</time>
      </trkpt>
      <trkpt lat="43.97013" lon="5.8895">
        <ele>594</ele>
        <time>2020-10-05T16:12:16.988Z</time>
      </trkpt>
      <trkpt lat="43.97012" lon="5.8895">
        <ele>594</ele>
        <time>2020-10-05T16:12:17.988Z</time>
      </trkpt>
      <trkpt lat="43.97011" lon="5.88951">
        <ele>594</ele>
        <time>2020-10-05T16:12:18.988Z</time>
      </trkpt>
      <trkpt lat="43.97011" lon="5.88952">
        <ele>594</ele>
        <time>2020-10-05T16:12:19.988Z</time>
      </trkpt>
      <trkpt lat="43.9701" lon="5.88953">
        <ele>594</ele>
        <time>2020-10-05T16:12:20.988Z</time>
      </trkpt>
      <trkpt lat="43.97009" lon="5.88953">
        <ele>594</ele>
        <time>2020-10-05T16:12:21.988Z</time>
      </trkpt>
      <trkpt lat="43.97008" lon="5.88954">
        <ele>594</ele>
        <time>2020-10-05T16:12:22.988Z</time>
      </trkpt>
      <trkpt lat="43.97007" lon="5.88954">
        <ele>594</ele>
        <time>2020-10-05T16:12:23.988Z</time>
      </trkpt>
      <trkpt lat="43.97006" lon="5.88954">
        <ele>594</ele>
        <time>2020-10-05T16:12:24.988Z</time>
      </trkpt>
      <trkpt lat="43.97006" lon="5.88955">
        <ele>594</ele>
        <time>2020-10-05T16:12:25.988Z</time>
      </trkpt>
      <trkpt lat="43.97005" lon="5.88955">
        <ele>594</ele>
        <time>2020-10-05T16:12:26.988Z</time>
      </trkpt>
      <trkpt lat="43.97005" lon="5.88954">
        <ele>594</ele>
        <time>2020-10-05T16:12:27.988Z</time>
      </trkpt>
      <trkpt lat="43.97004" lon="5.88954">
        <ele>594</ele>
        <time>2020-10-05T16:12:28.988Z</time>
      </trkpt>
      <trkpt lat="43.97004" lon="5.88954">
        <ele>594</ele>
        <time>2020-10-05T16:12:29.988Z</time>
      </trkpt>
      <trkpt lat="43.97004" lon="5.88954">
        <ele>594</ele>
        <time>2020-10-05T16:12:30.988Z</time>
      </trkpt>
      <trkpt lat="43.97004" lon="5.88954">
        <ele>595</ele>
        <time>2020-10-05T16:12:31.988Z</time>
      </trkpt>
      <trkpt lat="43.97004" lon="5.88955">
        <ele>595</ele>
        <time>2020-10-05T16:12:32.988Z</time>
      </trkpt>
      <trkpt lat="43.97004" lon="5.88955">
        <ele>595</ele>
        <time>2020-10-05T16:12:33.988Z</time>
      </trkpt>
      <trkpt lat="43.97004" lon="5.88955">
        <ele>595</ele>
        <time>2020-10-05T16:12:34.988Z</time>
      </trkpt>
      <trkpt lat="43.97004" lon="5.88955">
        <ele>595</ele>
        <time>2020-10-05T16:12:35.988Z</time>
      </trkpt>
      <trkpt lat="43.97004" lon="5.88955">
        <ele>595</ele>
        <time>2020-10-05T16:12:36.988Z</time>
      </trkpt>
      <trkpt lat="43.97003" lon="5.88955">
        <ele>595</ele>
        <time>2020-10-05T16:12:37.988Z</time>
      </trkpt>
      <trkpt lat="43.97003" lon="5.88955">
        <ele>595</ele>
        <time>2020-10-05T16:12:38.988Z</time>
      </trkpt>
      <trkpt lat="43.97002" lon="5.88955">
        <ele>595</ele>
        <time>2020-10-05T16:12:39.988Z</time>
      </trkpt>
      <trkpt lat="43.97001" lon="5.88955">
        <ele>595</ele>
        <time>2020-10-05T16:12:40.988Z</time>
      </trkpt>
      <trkpt lat="43.97" lon="5.88956">
        <ele>595</ele>
        <time>2020-10-05T16:12:41.988Z</time>
      </trkpt>
      <trkpt lat="43.96999" lon="5.88956">
        <ele>595</ele>
        <time>2020-10-05T16:12:42.988Z</time>
      </trkpt>
      <trkpt lat="43.96998" lon="5.88956">
        <ele>595</ele>
        <time>2020-10-05T16:12:43.988Z</time>
      </trkpt>
      <trkpt lat="43.96996" lon="5.88957">
        <ele>595</ele>
        <time>2020-10-05T16:12:44.988Z</time>
      </trkpt>
      <trkpt lat="43.96995" lon="5.88957">
        <ele>595</ele>
        <time>2020-10-05T16:12:45.988Z</time>
      </trkpt>
      <trkpt lat="43.96994" lon="5.88957">
        <ele>595</ele>
        <time>2020-10-05T16:12:46.988Z</time>
      </trkpt>
      <trkpt lat="43.96993" lon="5.88958">
        <ele>595</ele>
        <time>2020-10-05T16:12:47.988Z</time>
      </trkpt>
      <trkpt lat="43.96993" lon="5.88958">
        <ele>595</ele>
        <time>2020-10-05T16:12:48.988Z</time>
      </trkpt>
      <trkpt lat="43.96992" lon="5.88959">
        <ele>595</ele>
        <time>2020-10-05T16:12:49.988Z</time>
      </trkpt>
      <trkpt lat="43.96992" lon="5.88959">
        <ele>595</ele>
        <time>2020-10-05T16:12:50.988Z</time>
      </trkpt>
      <trkpt lat="43.96992" lon="5.88959">
        <ele>595</ele>
        <time>2020-10-05T16:12:51.988Z</time>
      </trkpt>
      <trkpt lat="43.96991" lon="5.88959">
        <ele>596</ele>
        <time>2020-10-05T16:12:52.988Z</time>
      </trkpt>
      <trkpt lat="43.9699" lon="5.88959">
        <ele>596</ele>
        <time>2020-10-05T16:12:53.988Z</time>
      </trkpt>
      <trkpt lat="43.9699" lon="5.88959">
        <ele>596</ele>
        <time>2020-10-05T16:12:54.988Z</time>
      </trkpt>
      <trkpt lat="43.96989" lon="5.8896">
        <ele>596</ele>
        <time>2020-10-05T16:12:55.988Z</time>
      </trkpt>
      <trkpt lat="43.96988" lon="5.8896">
        <ele>596</ele>
        <time>2020-10-05T16:12:56.988Z</time>
      </trkpt>
      <trkpt lat="43.96987" lon="5.88961">
        <ele>596</ele>
        <time>2020-10-05T16:12:57.988Z</time>
      </trkpt>
      <trkpt lat="43.96986" lon="5.88961">
        <ele>596</ele>
        <time>2020-10-05T16:12:58.988Z</time>
      </trkpt>
      <trkpt lat="43.96985" lon="5.88961">
        <ele>596</ele>
        <time>2020-10-05T16:12:59.988Z</time>
      </trkpt>
      <trkpt lat="43.96984" lon="5.88961">
        <ele>596</ele>
        <time>2020-10-05T16:13:00.988Z</time>
      </trkpt>
      <trkpt lat="43.96983" lon="5.88961">
        <ele>596</ele>
        <time>2020-10-05T16:13:01.988Z</time>
      </trkpt>
      <trkpt lat="43.96982" lon="5.88962">
        <ele>596</ele>
        <time>2020-10-05T16:13:02.988Z</time>
      </trkpt>
      <trkpt lat="43.96981" lon="5.88962">
        <ele>596</ele>
        <time>2020-10-05T16:13:03.988Z</time>
      </trkpt>
      <trkpt lat="43.9698" lon="5.88962">
        <ele>596</ele>
        <time>2020-10-05T16:13:04.988Z</time>
      </trkpt>
      <trkpt lat="43.96979" lon="5.88962">
        <ele>596</ele>
        <time>2020-10-05T16:13:05.988Z</time>
      </trkpt>
      <trkpt lat="43.96978" lon="5.88963">
        <ele>596</ele>
        <time>2020-10-05T16:13:06.988Z</time>
      </trkpt>
      <trkpt lat="43.96977" lon="5.88963">
        <ele>596</ele>
        <time>2020-10-05T16:13:07.988Z</time>
      </trkpt>
      <trkpt lat="43.96976" lon="5.88963">
        <ele>596</ele>
        <time>2020-10-05T16:13:08.988Z</time>
      </trkpt>
      <trkpt lat="43.96975" lon="5.88963">
        <ele>596</ele>
        <time>2020-10-05T16:13:09.988Z</time>
      </trkpt>
      <trkpt lat="43.96975" lon="5.88964">
        <ele>597</ele>
        <time>2020-10-05T16:13:10.988Z</time>
      </trkpt>
      <trkpt lat="43.96973" lon="5.88964">
        <ele>597</ele>
        <time>2020-10-05T16:13:11.988Z</time>
      </trkpt>
      <trkpt lat="43.96972" lon="5.88964">
        <ele>597</ele>
        <time>2020-10-05T16:13:12.988Z</time>
      </trkpt>
      <trkpt lat="43.96971" lon="5.88965">
        <ele>597</ele>
        <time>2020-10-05T16:13:13.988Z</time>
      </trkpt>
      <trkpt lat="43.9697" lon="5.88965">
        <ele>597</ele>
        <time>2020-10-05T16:13:14.988Z</time>
      </trkpt>
      <trkpt lat="43.96969" lon="5.88965">
        <ele>597</ele>
        <time>2020-10-05T16:13:15.988Z</time>
      </trkpt>
      <trkpt lat="43.96968" lon="5.88966">
        <ele>597</ele>
        <time>2020-10-05T16:13:16.988Z</time>
      </trkpt>
      <trkpt lat="43.96967" lon="5.88966">
        <ele>597</ele>
        <time>2020-10-05T16:13:17.988Z</time>
      </trkpt>
      <trkpt lat="43.96966" lon="5.88966">
        <ele>597</ele>
        <time>2020-10-05T16:13:18.988Z</time>
      </trkpt>
      <trkpt lat="43.96965" lon="5.88967">
        <ele>597</ele>
        <time>2020-10-05T16:13:19.988Z</time>
      </trkpt>
      <trkpt lat="43.96964" lon="5.88967">
        <ele>597</ele>
        <time>2020-10-05T16:13:20.988Z</time>
      </trkpt>
      <trkpt lat="43.96963" lon="5.88967">
        <ele>597</ele>
        <time>2020-10-05T16:13:21.988Z</time>
      </trkpt>
      <trkpt lat="43.96962" lon="5.88967">
        <ele>597</ele>
        <time>2020-10-05T16:13:22.988Z</time>
      </trkpt>
      <trkpt lat="43.96961" lon="5.88968">
        <ele>597</ele>
        <time>2020-10-05T16:13:23.988Z</time>
      </trkpt>
      <trkpt lat="43.9696" lon="5.88968">
        <ele>597</ele>
        <time>2020-10-05T16:13:24.988Z</time>
      </trkpt>
      <trkpt lat="43.96959" lon="5.88969">
        <ele>597</ele>
        <time>2020-10-05T16:13:25.988Z</time>
      </trkpt>
      <trkpt lat="43.96958" lon="5.8897">
        <ele>597</ele>
        <time>2020-10-05T16:13:26.988Z</time>
      </trkpt>
      <trkpt lat="43.96957" lon="5.8897">
        <ele>597</ele>
        <time>2020-10-05T16:13:27.988Z</time>
      </trkpt>
      <trkpt lat="43.96956" lon="5.88971">
        <ele>597</ele>
        <time>2020-10-05T16:13:28.988Z</time>
      </trkpt>
      <trkpt lat="43.96955" lon="5.88971">
        <ele>598</ele>
        <time>2020-10-05T16:13:29.988Z</time>
      </trkpt>
      <trkpt lat="43.96954" lon="5.88971">
        <ele>598</ele>
        <time>2020-10-05T16:13:30.988Z</time>
      </trkpt>
      <trkpt lat="43.96953" lon="5.88972">
        <ele>598</ele>
        <time>2020-10-05T16:13:31.988Z</time>
      </trkpt>
      <trkpt lat="43.96952" lon="5.88972">
        <ele>598</ele>
        <time>2020-10-05T16:13:32.988Z</time>
      </trkpt>
      <trkpt lat="43.96951" lon="5.88972">
        <ele>598</ele>
        <time>2020-10-05T16:13:33.988Z</time>
      </trkpt>
      <trkpt lat="43.9695" lon="5.88972">
        <ele>598</ele>
        <time>2020-10-05T16:13:34.988Z</time>
      </trkpt>
      <trkpt lat="43.96949" lon="5.88973">
        <ele>598</ele>
        <time>2020-10-05T16:13:35.988Z</time>
      </trkpt>
      <trkpt lat="43.96948" lon="5.88973">
        <ele>598</ele>
        <time>2020-10-05T16:13:36.988Z</time>
      </trkpt>
      <trkpt lat="43.96946" lon="5.88973">
        <ele>598</ele>
        <time>2020-10-05T16:13:37.988Z</time>
      </trkpt>
      <trkpt lat="43.96946" lon="5.88974">
        <ele>598</ele>
        <time>2020-10-05T16:13:38.988Z</time>
      </trkpt>
      <trkpt lat="43.96944" lon="5.88974">
        <ele>598</ele>
        <time>2020-10-05T16:13:39.988Z</time>
      </trkpt>
      <trkpt lat="43.96944" lon="5.88975">
        <ele>598</ele>
        <time>2020-10-05T16:13:40.988Z</time>
      </trkpt>
      <trkpt lat="43.96943" lon="5.88975">
        <ele>598</ele>
        <time>2020-10-05T16:13:41.988Z</time>
      </trkpt>
      <trkpt lat="43.96942" lon="5.88975">
        <ele>598</ele>
        <time>2020-10-05T16:13:42.988Z</time>
      </trkpt>
      <trkpt lat="43.96941" lon="5.88975">
        <ele>598</ele>
        <time>2020-10-05T16:13:43.988Z</time>
      </trkpt>
      <trkpt lat="43.9694" lon="5.88976">
        <ele>598</ele>
        <time>2020-10-05T16:13:44.988Z</time>
      </trkpt>
      <trkpt lat="43.96939" lon="5.88976">
        <ele>598</ele>
        <time>2020-10-05T16:13:45.988Z</time>
      </trkpt>
      <trkpt lat="43.96938" lon="5.88976">
        <ele>598</ele>
        <time>2020-10-05T16:13:46.988Z</time>
      </trkpt>
      <trkpt lat="43.96937" lon="5.88977">
        <ele>598</ele>
        <time>2020-10-05T16:13:47.988Z</time>
      </trkpt>
      <trkpt lat="43.96936" lon="5.88977">
        <ele>598</ele>
        <time>2020-10-05T16:13:48.988Z</time>
      </trkpt>
      <trkpt lat="43.96935" lon="5.88978">
        <ele>598</ele>
        <time>2020-10-05T16:13:49.988Z</time>
      </trkpt>
      <trkpt lat="43.96934" lon="5.88978">
        <ele>598</ele>
        <time>2020-10-05T16:13:50.988Z</time>
      </trkpt>
      <trkpt lat="43.96933" lon="5.88978">
        <ele>598</ele>
        <time>2020-10-05T16:13:51.988Z</time>
      </trkpt>
      <trkpt lat="43.96932" lon="5.88979">
        <ele>598</ele>
        <time>2020-10-05T16:13:52.988Z</time>
      </trkpt>
      <trkpt lat="43.96931" lon="5.88979">
        <ele>598</ele>
        <time>2020-10-05T16:13:53.988Z</time>
      </trkpt>
      <trkpt lat="43.96931" lon="5.8898">
        <ele>598</ele>
        <time>2020-10-05T16:13:54.988Z</time>
      </trkpt>
      <trkpt lat="43.9693" lon="5.8898">
        <ele>598</ele>
        <time>2020-10-05T16:13:55.988Z</time>
      </trkpt>
      <trkpt lat="43.9693" lon="5.88981">
        <ele>598</ele>
        <time>2020-10-05T16:13:56.988Z</time>
      </trkpt>
      <trkpt lat="43.9693" lon="5.88981">
        <ele>598</ele>
        <time>2020-10-05T16:13:57.988Z</time>
      </trkpt>
      <trkpt lat="43.96929" lon="5.88981">
        <ele>598</ele>
        <time>2020-10-05T16:13:58.988Z</time>
      </trkpt>
      <trkpt lat="43.96929" lon="5.88981">
        <ele>598</ele>
        <time>2020-10-05T16:13:59.988Z</time>
      </trkpt>
      <trkpt lat="43.96929" lon="5.88982">
        <ele>598</ele>
        <time>2020-10-05T16:14:00.988Z</time>
      </trkpt>
      <trkpt lat="43.96928" lon="5.88983">
        <ele>598</ele>
        <time>2020-10-05T16:14:01.988Z</time>
      </trkpt>
      <trkpt lat="43.96928" lon="5.88983">
        <ele>598</ele>
        <time>2020-10-05T16:14:02.988Z</time>
      </trkpt>
      <trkpt lat="43.96928" lon="5.88983">
        <ele>598</ele>
        <time>2020-10-05T16:14:03.988Z</time>
      </trkpt>
      <trkpt lat="43.96929" lon="5.88984">
        <ele>598</ele>
        <time>2020-10-05T16:14:04.988Z</time>
      </trkpt>
      <trkpt lat="43.96928" lon="5.88984">
        <ele>598</ele>
        <time>2020-10-05T16:14:05.988Z</time>
      </trkpt>
      <trkpt lat="43.96928" lon="5.88985">
        <ele>598</ele>
        <time>2020-10-05T16:14:06.988Z</time>
      </trkpt>
      <trkpt lat="43.96928" lon="5.88986">
        <ele>598</ele>
        <time>2020-10-05T16:14:07.988Z</time>
      </trkpt>
      <trkpt lat="43.96928" lon="5.88987">
        <ele>598</ele>
        <time>2020-10-05T16:14:08.988Z</time>
      </trkpt>
      <trkpt lat="43.96928" lon="5.88988">
        <ele>598</ele>
        <time>2020-10-05T16:14:09.988Z</time>
      </trkpt>
      <trkpt lat="43.96928" lon="5.8899">
        <ele>598</ele>
        <time>2020-10-05T16:14:10.988Z</time>
      </trkpt>
      <trkpt lat="43.96928" lon="5.88991">
        <ele>598</ele>
        <time>2020-10-05T16:14:11.988Z</time>
      </trkpt>
      <trkpt lat="43.96928" lon="5.88992">
        <ele>598</ele>
        <time>2020-10-05T16:14:12.988Z</time>
      </trkpt>
      <trkpt lat="43.96928" lon="5.88993">
        <ele>598</ele>
        <time>2020-10-05T16:14:13.988Z</time>
      </trkpt>
      <trkpt lat="43.96929" lon="5.88994">
        <ele>597</ele>
        <time>2020-10-05T16:14:14.988Z</time>
      </trkpt>
      <trkpt lat="43.96929" lon="5.88994">
        <ele>597</ele>
        <time>2020-10-05T16:14:15.988Z</time>
      </trkpt>
      <trkpt lat="43.96929" lon="5.88994">
        <ele>597</ele>
        <time>2020-10-05T16:14:16.988Z</time>
      </trkpt>
      <trkpt lat="43.96929" lon="5.88994">
        <ele>597</ele>
        <time>2020-10-05T16:14:17.988Z</time>
      </trkpt>
      <trkpt lat="43.96929" lon="5.88994">
        <ele>597</ele>
        <time>2020-10-05T16:14:18.988Z</time>
      </trkpt>
      <trkpt lat="43.96928" lon="5.88994">
        <ele>597</ele>
        <time>2020-10-05T16:14:19.988Z</time>
      </trkpt>
      <trkpt lat="43.96928" lon="5.88994">
        <ele>597</ele>
        <time>2020-10-05T16:14:20.988Z</time>
      </trkpt>
      <trkpt lat="43.96928" lon="5.88994">
        <ele>597</ele>
        <time>2020-10-05T16:14:21.988Z</time>
      </trkpt>
      <trkpt lat="43.96927" lon="5.88994">
        <ele>596</ele>
        <time>2020-10-05T16:14:22.988Z</time>
      </trkpt>
      <trkpt lat="43.96927" lon="5.88994">
        <ele>596</ele>
        <time>2020-10-05T16:14:23.988Z</time>
      </trkpt>
      <trkpt lat="43.96926" lon="5.88994">
        <ele>596</ele>
        <time>2020-10-05T16:14:24.988Z</time>
      </trkpt>
      <trkpt lat="43.96926" lon="5.88993">
        <ele>596</ele>
        <time>2020-10-05T16:14:25.988Z</time>
      </trkpt>
      <trkpt lat="43.96926" lon="5.88992">
        <ele>596</ele>
        <time>2020-10-05T16:14:26.988Z</time>
      </trkpt>
      <trkpt lat="43.96926" lon="5.88991">
        <ele>596</ele>
        <time>2020-10-05T16:14:27.988Z</time>
      </trkpt>
      <trkpt lat="43.96925" lon="5.8899">
        <ele>596</ele>
        <time>2020-10-05T16:14:28.988Z</time>
      </trkpt>
      <trkpt lat="43.96925" lon="5.88988">
        <ele>596</ele>
        <time>2020-10-05T16:14:29.988Z</time>
      </trkpt>
      <trkpt lat="43.96924" lon="5.88987">
        <ele>596</ele>
        <time>2020-10-05T16:14:30.988Z</time>
      </trkpt>
      <trkpt lat="43.96924" lon="5.88986">
        <ele>596</ele>
        <time>2020-10-05T16:14:31.988Z</time>
      </trkpt>
      <trkpt lat="43.96924" lon="5.88985">
        <ele>596</ele>
        <time>2020-10-05T16:14:32.988Z</time>
      </trkpt>
      <trkpt lat="43.96923" lon="5.88984">
        <ele>596</ele>
        <time>2020-10-05T16:14:33.988Z</time>
      </trkpt>
      <trkpt lat="43.96922" lon="5.88983">
        <ele>595</ele>
        <time>2020-10-05T16:14:34.988Z</time>
      </trkpt>
      <trkpt lat="43.96922" lon="5.88982">
        <ele>595</ele>
        <time>2020-10-05T16:14:35.988Z</time>
      </trkpt>
      <trkpt lat="43.96921" lon="5.88981">
        <ele>595</ele>
        <time>2020-10-05T16:14:36.988Z</time>
      </trkpt>
      <trkpt lat="43.9692" lon="5.8898">
        <ele>595</ele>
        <time>2020-10-05T16:14:37.988Z</time>
      </trkpt>
      <trkpt lat="43.96919" lon="5.8898">
        <ele>595</ele>
        <time>2020-10-05T16:14:38.988Z</time>
      </trkpt>
      <trkpt lat="43.96919" lon="5.88979">
        <ele>594</ele>
        <time>2020-10-05T16:14:39.988Z</time>
      </trkpt>
      <trkpt lat="43.96918" lon="5.88979">
        <ele>594</ele>
        <time>2020-10-05T16:14:40.988Z</time>
      </trkpt>
      <trkpt lat="43.96917" lon="5.88978">
        <ele>594</ele>
        <time>2020-10-05T16:14:41.988Z</time>
      </trkpt>
      <trkpt lat="43.96917" lon="5.88978">
        <ele>594</ele>
        <time>2020-10-05T16:14:42.988Z</time>
      </trkpt>
      <trkpt lat="43.96916" lon="5.88977">
        <ele>594</ele>
        <time>2020-10-05T16:14:43.988Z</time>
      </trkpt>
      <trkpt lat="43.96915" lon="5.88977">
        <ele>594</ele>
        <time>2020-10-05T16:14:44.988Z</time>
      </trkpt>
      <trkpt lat="43.96915" lon="5.88976">
        <ele>594</ele>
        <time>2020-10-05T16:14:45.988Z</time>
      </trkpt>
      <trkpt lat="43.96914" lon="5.88975">
        <ele>593</ele>
        <time>2020-10-05T16:14:46.988Z</time>
      </trkpt>
      <trkpt lat="43.96914" lon="5.88975">
        <ele>593</ele>
        <time>2020-10-05T16:14:47.988Z</time>
      </trkpt>
      <trkpt lat="43.96913" lon="5.88974">
        <ele>593</ele>
        <time>2020-10-05T16:14:48.988Z</time>
      </trkpt>
      <trkpt lat="43.96913" lon="5.88973">
        <ele>593</ele>
        <time>2020-10-05T16:14:49.988Z</time>
      </trkpt>
      <trkpt lat="43.96913" lon="5.88972">
        <ele>593</ele>
        <time>2020-10-05T16:14:50.988Z</time>
      </trkpt>
      <trkpt lat="43.96913" lon="5.88971">
        <ele>593</ele>
        <time>2020-10-05T16:14:51.988Z</time>
      </trkpt>
      <trkpt lat="43.96912" lon="5.88971">
        <ele>593</ele>
        <time>2020-10-05T16:14:52.988Z</time>
      </trkpt>
      <trkpt lat="43.96912" lon="5.8897">
        <ele>593</ele>
        <time>2020-10-05T16:14:53.988Z</time>
      </trkpt>
      <trkpt lat="43.96912" lon="5.88969">
        <ele>593</ele>
        <time>2020-10-05T16:14:54.988Z</time>
      </trkpt>
      <trkpt lat="43.96911" lon="5.88969">
        <ele>593</ele>
        <time>2020-10-05T16:14:55.988Z</time>
      </trkpt>
      <trkpt lat="43.9691" lon="5.88969">
        <ele>593</ele>
        <time>2020-10-05T16:14:56.988Z</time>
      </trkpt>
      <trkpt lat="43.9691" lon="5.88969">
        <ele>593</ele>
        <time>2020-10-05T16:14:57.988Z</time>
      </trkpt>
      <trkpt lat="43.9691" lon="5.88969">
        <ele>593</ele>
        <time>2020-10-05T16:14:58.988Z</time>
      </trkpt>
      <trkpt lat="43.9691" lon="5.88969">
        <ele>593</ele>
        <time>2020-10-05T16:14:59.988Z</time>
      </trkpt>
      <trkpt lat="43.9691" lon="5.8897">
        <ele>593</ele>
        <time>2020-10-05T16:15:00.988Z</time>
      </trkpt>
      <trkpt lat="43.9691" lon="5.8897">
        <ele>593</ele>
        <time>2020-10-05T16:15:01.988Z</time>
      </trkpt>
      <trkpt lat="43.96909" lon="5.8897">
        <ele>593</ele>
        <time>2020-10-05T16:15:02.988Z</time>
      </trkpt>
      <trkpt lat="43.96908" lon="5.8897">
        <ele>593</ele>
        <time>2020-10-05T16:15:03.988Z</time>
      </trkpt>
      <trkpt lat="43.96907" lon="5.88971">
        <ele>593</ele>
        <time>2020-10-05T16:15:04.988Z</time>
      </trkpt>
      <trkpt lat="43.96906" lon="5.88971">
        <ele>594</ele>
        <time>2020-10-05T16:15:05.988Z</time>
      </trkpt>
      <trkpt lat="43.96905" lon="5.88971">
        <ele>594</ele>
        <time>2020-10-05T16:15:06.988Z</time>
      </trkpt>
      <trkpt lat="43.96904" lon="5.88972">
        <ele>594</ele>
        <time>2020-10-05T16:15:07.988Z</time>
      </trkpt>
      <trkpt lat="43.96903" lon="5.88972">
        <ele>594</ele>
        <time>2020-10-05T16:15:08.988Z</time>
      </trkpt>
      <trkpt lat="43.96901" lon="5.88973">
        <ele>594</ele>
        <time>2020-10-05T16:15:09.988Z</time>
      </trkpt>
      <trkpt lat="43.969" lon="5.88973">
        <ele>594</ele>
        <time>2020-10-05T16:15:10.988Z</time>
      </trkpt>
      <trkpt lat="43.96899" lon="5.88973">
        <ele>594</ele>
        <time>2020-10-05T16:15:11.988Z</time>
      </trkpt>
      <trkpt lat="43.96898" lon="5.88973">
        <ele>594</ele>
        <time>2020-10-05T16:15:12.988Z</time>
      </trkpt>
      <trkpt lat="43.96897" lon="5.88973">
        <ele>594</ele>
        <time>2020-10-05T16:15:13.988Z</time>
      </trkpt>
      <trkpt lat="43.96896" lon="5.88973">
        <ele>594</ele>
        <time>2020-10-05T16:15:14.988Z</time>
      </trkpt>
      <trkpt lat="43.96895" lon="5.88974">
        <ele>594</ele>
        <time>2020-10-05T16:15:15.988Z</time>
      </trkpt>
      <trkpt lat="43.96894" lon="5.88975">
        <ele>594</ele>
        <time>2020-10-05T16:15:16.988Z</time>
      </trkpt>
      <trkpt lat="43.96893" lon="5.88975">
        <ele>594</ele>
        <time>2020-10-05T16:15:17.988Z</time>
      </trkpt>
      <trkpt lat="43.96892" lon="5.88976">
        <ele>594</ele>
        <time>2020-10-05T16:15:18.988Z</time>
      </trkpt>
      <trkpt lat="43.96891" lon="5.88976">
        <ele>594</ele>
        <time>2020-10-05T16:15:19.988Z</time>
      </trkpt>
      <trkpt lat="43.9689" lon="5.88976">
        <ele>594</ele>
        <time>2020-10-05T16:15:20.988Z</time>
      </trkpt>
      <trkpt lat="43.96889" lon="5.88976">
        <ele>594</ele>
        <time>2020-10-05T16:15:21.988Z</time>
      </trkpt>
      <trkpt lat="43.96888" lon="5.88975">
        <ele>594</ele>
        <time>2020-10-05T16:15:22.988Z</time>
      </trkpt>
      <trkpt lat="43.96887" lon="5.88975">
        <ele>594</ele>
        <time>2020-10-05T16:15:23.988Z</time>
      </trkpt>
      <trkpt lat="43.96886" lon="5.88974">
        <ele>594</ele>
        <time>2020-10-05T16:15:24.988Z</time>
      </trkpt>
      <trkpt lat="43.96884" lon="5.88974">
        <ele>595</ele>
        <time>2020-10-05T16:15:25.988Z</time>
      </trkpt>
      <trkpt lat="43.96883" lon="5.88974">
        <ele>595</ele>
        <time>2020-10-05T16:15:26.988Z</time>
      </trkpt>
      <trkpt lat="43.96883" lon="5.88974">
        <ele>595</ele>
        <time>2020-10-05T16:15:27.988Z</time>
      </trkpt>
      <trkpt lat="43.96882" lon="5.88974">
        <ele>595</ele>
        <time>2020-10-05T16:15:28.988Z</time>
      </trkpt>
      <trkpt lat="43.96881" lon="5.88974">
        <ele>595</ele>
        <time>2020-10-05T16:15:29.988Z</time>
      </trkpt>
      <trkpt lat="43.9688" lon="5.88973">
        <ele>595</ele>
        <time>2020-10-05T16:15:30.988Z</time>
      </trkpt>
      <trkpt lat="43.96879" lon="5.88973">
        <ele>595</ele>
        <time>2020-10-05T16:15:31.988Z</time>
      </trkpt>
      <trkpt lat="43.96878" lon="5.88972">
        <ele>595</ele>
        <time>2020-10-05T16:15:32.988Z</time>
      </trkpt>
      <trkpt lat="43.96878" lon="5.88972">
        <ele>595</ele>
        <time>2020-10-05T16:15:33.988Z</time>
      </trkpt>
      <trkpt lat="43.96877" lon="5.88972">
        <ele>595</ele>
        <time>2020-10-05T16:15:34.988Z</time>
      </trkpt>
      <trkpt lat="43.96877" lon="5.88972">
        <ele>594</ele>
        <time>2020-10-05T16:15:35.988Z</time>
      </trkpt>
      <trkpt lat="43.96876" lon="5.88971">
        <ele>594</ele>
        <time>2020-10-05T16:15:36.988Z</time>
      </trkpt>
      <trkpt lat="43.96875" lon="5.8897">
        <ele>593</ele>
        <time>2020-10-05T16:15:37.988Z</time>
      </trkpt>
      <trkpt lat="43.96875" lon="5.8897">
        <ele>593</ele>
        <time>2020-10-05T16:15:38.988Z</time>
      </trkpt>
      <trkpt lat="43.96875" lon="5.88969">
        <ele>593</ele>
        <time>2020-10-05T16:15:39.988Z</time>
      </trkpt>
      <trkpt lat="43.96875" lon="5.88969">
        <ele>592</ele>
        <time>2020-10-05T16:15:40.988Z</time>
      </trkpt>
      <trkpt lat="43.96876" lon="5.88968">
        <ele>592</ele>
        <time>2020-10-05T16:15:41.988Z</time>
      </trkpt>
      <trkpt lat="43.96876" lon="5.88967">
        <ele>591</ele>
        <time>2020-10-05T16:15:42.988Z</time>
      </trkpt>
      <trkpt lat="43.96876" lon="5.88967">
        <ele>591</ele>
        <time>2020-10-05T16:15:43.988Z</time>
      </trkpt>
      <trkpt lat="43.96876" lon="5.88967">
        <ele>590</ele>
        <time>2020-10-05T16:15:44.988Z</time>
      </trkpt>
      <trkpt lat="43.96876" lon="5.88967">
        <ele>590</ele>
        <time>2020-10-05T16:15:45.988Z</time>
      </trkpt>
      <trkpt lat="43.96876" lon="5.88966">
        <ele>590</ele>
        <time>2020-10-05T16:15:46.988Z</time>
      </trkpt>
      <trkpt lat="43.96876" lon="5.88966">
        <ele>589</ele>
        <time>2020-10-05T16:15:47.988Z</time>
      </trkpt>
      <trkpt lat="43.96876" lon="5.88966">
        <ele>589</ele>
        <time>2020-10-05T16:15:48.988Z</time>
      </trkpt>
      <trkpt lat="43.96876" lon="5.88967">
        <ele>588</ele>
        <time>2020-10-05T16:15:49.988Z</time>
      </trkpt>
      <trkpt lat="43.96877" lon="5.88968">
        <ele>588</ele>
        <time>2020-10-05T16:15:50.988Z</time>
      </trkpt>
      <trkpt lat="43.96877" lon="5.88969">
        <ele>588</ele>
        <time>2020-10-05T16:15:51.988Z</time>
      </trkpt>
      <trkpt lat="43.96877" lon="5.8897">
        <ele>587</ele>
        <time>2020-10-05T16:15:52.988Z</time>
      </trkpt>
      <trkpt lat="43.96877" lon="5.88971">
        <ele>587</ele>
        <time>2020-10-05T16:15:53.988Z</time>
      </trkpt>
      <trkpt lat="43.96878" lon="5.88972">
        <ele>587</ele>
        <time>2020-10-05T16:15:54.988Z</time>
      </trkpt>
      <trkpt lat="43.96878" lon="5.88972">
        <ele>586</ele>
        <time>2020-10-05T16:15:55.988Z</time>
      </trkpt>
      <trkpt lat="43.96878" lon="5.88973">
        <ele>586</ele>
        <time>2020-10-05T16:15:56.988Z</time>
      </trkpt>
      <trkpt lat="43.96878" lon="5.88975">
        <ele>586</ele>
        <time>2020-10-05T16:15:57.988Z</time>
      </trkpt>
      <trkpt lat="43.96878" lon="5.88976">
        <ele>585</ele>
        <time>2020-10-05T16:15:58.988Z</time>
      </trkpt>
      <trkpt lat="43.96878" lon="5.88977">
        <ele>585</ele>
        <time>2020-10-05T16:15:59.988Z</time>
      </trkpt>
      <trkpt lat="43.96878" lon="5.88978">
        <ele>585</ele>
        <time>2020-10-05T16:16:00.988Z</time>
      </trkpt>
      <trkpt lat="43.96879" lon="5.88979">
        <ele>584</ele>
        <time>2020-10-05T16:16:01.988Z</time>
      </trkpt>
      <trkpt lat="43.96879" lon="5.8898">
        <ele>584</ele>
        <time>2020-10-05T16:16:02.988Z</time>
      </trkpt>
      <trkpt lat="43.96879" lon="5.88982">
        <ele>584</ele>
        <time>2020-10-05T16:16:03.988Z</time>
      </trkpt>
      <trkpt lat="43.96879" lon="5.88984">
        <ele>584</ele>
        <time>2020-10-05T16:16:04.988Z</time>
      </trkpt>
      <trkpt lat="43.9688" lon="5.88985">
        <ele>583</ele>
        <time>2020-10-05T16:16:05.988Z</time>
      </trkpt>
      <trkpt lat="43.9688" lon="5.88986">
        <ele>583</ele>
        <time>2020-10-05T16:16:06.988Z</time>
      </trkpt>
      <trkpt lat="43.9688" lon="5.88987">
        <ele>583</ele>
        <time>2020-10-05T16:16:07.988Z</time>
      </trkpt>
      <trkpt lat="43.9688" lon="5.88989">
        <ele>582</ele>
        <time>2020-10-05T16:16:08.988Z</time>
      </trkpt>
      <trkpt lat="43.9688" lon="5.8899">
        <ele>582</ele>
        <time>2020-10-05T16:16:09.988Z</time>
      </trkpt>
      <trkpt lat="43.96881" lon="5.88992">
        <ele>582</ele>
        <time>2020-10-05T16:16:10.988Z</time>
      </trkpt>
      <trkpt lat="43.96881" lon="5.88993">
        <ele>582</ele>
        <time>2020-10-05T16:16:11.988Z</time>
      </trkpt>
      <trkpt lat="43.96881" lon="5.88994">
        <ele>582</ele>
        <time>2020-10-05T16:16:12.988Z</time>
      </trkpt>
      <trkpt lat="43.96882" lon="5.88995">
        <ele>582</ele>
        <time>2020-10-05T16:16:13.988Z</time>
      </trkpt>
      <trkpt lat="43.96882" lon="5.88996">
        <ele>581</ele>
        <time>2020-10-05T16:16:14.988Z</time>
      </trkpt>
      <trkpt lat="43.96882" lon="5.88997">
        <ele>581</ele>
        <time>2020-10-05T16:16:15.988Z</time>
      </trkpt>
      <trkpt lat="43.96882" lon="5.88997">
        <ele>581</ele>
        <time>2020-10-05T16:16:16.988Z</time>
      </trkpt>
      <trkpt lat="43.96882" lon="5.88998">
        <ele>581</ele>
        <time>2020-10-05T16:16:17.988Z</time>
      </trkpt>
      <trkpt lat="43.96881" lon="5.88999">
        <ele>581</ele>
        <time>2020-10-05T16:16:18.988Z</time>
      </trkpt>
      <trkpt lat="43.96881" lon="5.88999">
        <ele>580</ele>
        <time>2020-10-05T16:16:19.988Z</time>
      </trkpt>
      <trkpt lat="43.96881" lon="5.88999">
        <ele>580</ele>
        <time>2020-10-05T16:16:20.988Z</time>
      </trkpt>
      <trkpt lat="43.96881" lon="5.88999">
        <ele>580</ele>
        <time>2020-10-05T16:16:21.988Z</time>
      </trkpt>
      <trkpt lat="43.96881" lon="5.88999">
        <ele>580</ele>
        <time>2020-10-05T16:16:22.988Z</time>
      </trkpt>
      <trkpt lat="43.96881" lon="5.88999">
        <ele>580</ele>
        <time>2020-10-05T16:16:23.988Z</time>
      </trkpt>
      <trkpt lat="43.96881" lon="5.88999">
        <ele>580</ele>
        <time>2020-10-05T16:16:24.988Z</time>
      </trkpt>
      <trkpt lat="43.96881" lon="5.88999">
        <ele>580</ele>
        <time>2020-10-05T16:16:25.988Z</time>
      </trkpt>
      <trkpt lat="43.96881" lon="5.88999">
        <ele>580</ele>
        <time>2020-10-05T16:16:26.988Z</time>
      </trkpt>
      <trkpt lat="43.96881" lon="5.88999">
        <ele>579</ele>
        <time>2020-10-05T16:16:27.988Z</time>
      </trkpt>
      <trkpt lat="43.96881" lon="5.88999">
        <ele>579</ele>
        <time>2020-10-05T16:16:28.988Z</time>
      </trkpt>
      <trkpt lat="43.96881" lon="5.88999">
        <ele>579</ele>
        <time>2020-10-05T16:16:29.988Z</time>
      </trkpt>
      <trkpt lat="43.96881" lon="5.88999">
        <ele>579</ele>
        <time>2020-10-05T16:16:30.988Z</time>
      </trkpt>
      <trkpt lat="43.96881" lon="5.88999">
        <ele>579</ele>
        <time>2020-10-05T16:16:31.988Z</time>
      </trkpt>
      <trkpt lat="43.96881" lon="5.88999">
        <ele>579</ele>
        <time>2020-10-05T16:16:32.988Z</time>
      </trkpt>
      <trkpt lat="43.96881" lon="5.88999">
        <ele>579</ele>
        <time>2020-10-05T16:16:33.988Z</time>
      </trkpt>
      <trkpt lat="43.96881" lon="5.88999">
        <ele>579</ele>
        <time>2020-10-05T16:16:34.988Z</time>
      </trkpt>
      <trkpt lat="43.96881" lon="5.89">
        <ele>579</ele>
        <time>2020-10-05T16:16:35.988Z</time>
      </trkpt>
      <trkpt lat="43.96881" lon="5.89">
        <ele>579</ele>
        <time>2020-10-05T16:16:36.988Z</time>
      </trkpt>
      <trkpt lat="43.96881" lon="5.88999">
        <ele>579</ele>
        <time>2020-10-05T16:16:37.988Z</time>
      </trkpt>
      <trkpt lat="43.96881" lon="5.88999">
        <ele>579</ele>
        <time>2020-10-05T16:16:38.988Z</time>
      </trkpt>
      <trkpt lat="43.96881" lon="5.89">
        <ele>579</ele>
        <time>2020-10-05T16:16:39.988Z</time>
      </trkpt>
      <trkpt lat="43.96881" lon="5.89">
        <ele>579</ele>
        <time>2020-10-05T16:16:40.988Z</time>
      </trkpt>
      <trkpt lat="43.96881" lon="5.89">
        <ele>579</ele>
        <time>2020-10-05T16:16:41.988Z</time>
      </trkpt>
      <trkpt lat="43.96881" lon="5.89">
        <ele>579</ele>
        <time>2020-10-05T16:16:42.988Z</time>
      </trkpt>
      <trkpt lat="43.96881" lon="5.89">
        <ele>579</ele>
        <time>2020-10-05T16:16:43.988Z</time>
      </trkpt>
      <trkpt lat="43.96881" lon="5.89">
        <ele>579</ele>
        <time>2020-10-05T16:16:44.988Z</time>
      </trkpt>
      <trkpt lat="43.96881" lon="5.89">
        <ele>579</ele>
        <time>2020-10-05T16:16:45.988Z</time>
      </trkpt>
      <trkpt lat="43.96881" lon="5.89">
        <ele>579</ele>
        <time>2020-10-05T16:16:46.988Z</time>
      </trkpt>
      <trkpt lat="43.96881" lon="5.89">
        <ele>579</ele>
        <time>2020-10-05T16:16:47.988Z</time>
      </trkpt>
      <trkpt lat="43.96881" lon="5.89">
        <ele>579</ele>
        <time>2020-10-05T16:16:48.988Z</time>
      </trkpt>
      <trkpt lat="43.96881" lon="5.89">
        <ele>579</ele>
        <time>2020-10-05T16:16:49.988Z</time>
      </trkpt>
      <trkpt lat="43.96881" lon="5.89">
        <ele>579</ele>
        <time>2020-10-05T16:16:50.988Z</time>
      </trkpt>
      <trkpt lat="43.96881" lon="5.89">
        <ele>579</ele>
        <time>2020-10-05T16:16:51.988Z</time>
      </trkpt>
      <trkpt lat="43.96881" lon="5.88999">
        <ele>579</ele>
        <time>2020-10-05T16:16:52.988Z</time>
      </trkpt>
      <trkpt lat="43.96881" lon="5.88998">
        <ele>580</ele>
        <time>2020-10-05T16:16:53.988Z</time>
      </trkpt>
      <trkpt lat="43.9688" lon="5.88997">
        <ele>580</ele>
        <time>2020-10-05T16:16:54.988Z</time>
      </trkpt>
      <trkpt lat="43.9688" lon="5.88996">
        <ele>580</ele>
        <time>2020-10-05T16:16:55.988Z</time>
      </trkpt>
      <trkpt lat="43.9688" lon="5.88995">
        <ele>580</ele>
        <time>2020-10-05T16:16:56.988Z</time>
      </trkpt>
      <trkpt lat="43.96879" lon="5.88994">
        <ele>580</ele>
        <time>2020-10-05T16:16:57.988Z</time>
      </trkpt>
      <trkpt lat="43.96879" lon="5.88992">
        <ele>580</ele>
        <time>2020-10-05T16:16:58.988Z</time>
      </trkpt>
      <trkpt lat="43.96879" lon="5.88991">
        <ele>579</ele>
        <time>2020-10-05T16:16:59.988Z</time>
      </trkpt>
      <trkpt lat="43.96879" lon="5.8899">
        <ele>579</ele>
        <time>2020-10-05T16:17:00.988Z</time>
      </trkpt>
      <trkpt lat="43.96878" lon="5.88989">
        <ele>579</ele>
        <time>2020-10-05T16:17:01.988Z</time>
      </trkpt>
      <trkpt lat="43.96878" lon="5.88988">
        <ele>579</ele>
        <time>2020-10-05T16:17:02.988Z</time>
      </trkpt>
      <trkpt lat="43.96878" lon="5.88988">
        <ele>580</ele>
        <time>2020-10-05T16:17:03.988Z</time>
      </trkpt>
      <trkpt lat="43.96878" lon="5.88987">
        <ele>580</ele>
        <time>2020-10-05T16:17:04.988Z</time>
      </trkpt>
      <trkpt lat="43.96878" lon="5.88987">
        <ele>580</ele>
        <time>2020-10-05T16:17:05.988Z</time>
      </trkpt>
      <trkpt lat="43.96878" lon="5.88987">
        <ele>580</ele>
        <time>2020-10-05T16:17:06.988Z</time>
      </trkpt>
      <trkpt lat="43.96878" lon="5.88987">
        <ele>580</ele>
        <time>2020-10-05T16:17:07.988Z</time>
      </trkpt>
      <trkpt lat="43.96878" lon="5.88987">
        <ele>580</ele>
        <time>2020-10-05T16:17:08.988Z</time>
      </trkpt>
      <trkpt lat="43.96878" lon="5.88987">
        <ele>580</ele>
        <time>2020-10-05T16:17:09.988Z</time>
      </trkpt>
      <trkpt lat="43.96878" lon="5.88987">
        <ele>580</ele>
        <time>2020-10-05T16:17:10.988Z</time>
      </trkpt>
      <trkpt lat="43.96877" lon="5.88987">
        <ele>580</ele>
        <time>2020-10-05T16:17:11.988Z</time>
      </trkpt>
      <trkpt lat="43.96876" lon="5.88986">
        <ele>580</ele>
        <time>2020-10-05T16:17:12.988Z</time>
      </trkpt>
      <trkpt lat="43.96876" lon="5.88985">
        <ele>580</ele>
        <time>2020-10-05T16:17:13.988Z</time>
      </trkpt>
      <trkpt lat="43.96875" lon="5.88984">
        <ele>580</ele>
        <time>2020-10-05T16:17:14.988Z</time>
      </trkpt>
      <trkpt lat="43.96875" lon="5.88983">
        <ele>580</ele>
        <time>2020-10-05T16:17:15.988Z</time>
      </trkpt>
      <trkpt lat="43.96874" lon="5.88982">
        <ele>580</ele>
        <time>2020-10-05T16:17:16.988Z</time>
      </trkpt>
      <trkpt lat="43.96874" lon="5.88981">
        <ele>580</ele>
        <time>2020-10-05T16:17:17.988Z</time>
      </trkpt>
      <trkpt lat="43.96873" lon="5.88981">
        <ele>580</ele>
        <time>2020-10-05T16:17:18.988Z</time>
      </trkpt>
      <trkpt lat="43.96873" lon="5.88979">
        <ele>580</ele>
        <time>2020-10-05T16:17:19.988Z</time>
      </trkpt>
      <trkpt lat="43.96873" lon="5.88978">
        <ele>580</ele>
        <time>2020-10-05T16:17:20.988Z</time>
      </trkpt>
      <trkpt lat="43.96873" lon="5.88977">
        <ele>580</ele>
        <time>2020-10-05T16:17:21.988Z</time>
      </trkpt>
      <trkpt lat="43.96873" lon="5.88976">
        <ele>580</ele>
        <time>2020-10-05T16:17:22.988Z</time>
      </trkpt>
      <trkpt lat="43.96873" lon="5.88976">
        <ele>580</ele>
        <time>2020-10-05T16:17:23.988Z</time>
      </trkpt>
      <trkpt lat="43.96873" lon="5.88975">
        <ele>580</ele>
        <time>2020-10-05T16:17:24.988Z</time>
      </trkpt>
      <trkpt lat="43.96873" lon="5.88974">
        <ele>580</ele>
        <time>2020-10-05T16:17:25.988Z</time>
      </trkpt>
      <trkpt lat="43.96873" lon="5.88973">
        <ele>580</ele>
        <time>2020-10-05T16:17:26.988Z</time>
      </trkpt>
      <trkpt lat="43.96873" lon="5.88972">
        <ele>580</ele>
        <time>2020-10-05T16:17:27.988Z</time>
      </trkpt>
      <trkpt lat="43.96873" lon="5.88972">
        <ele>580</ele>
        <time>2020-10-05T16:17:28.988Z</time>
      </trkpt>
      <trkpt lat="43.96872" lon="5.88971">
        <ele>580</ele>
        <time>2020-10-05T16:17:29.988Z</time>
      </trkpt>
      <trkpt lat="43.96872" lon="5.8897">
        <ele>580</ele>
        <time>2020-10-05T16:17:30.988Z</time>
      </trkpt>
      <trkpt lat="43.96871" lon="5.88969">
        <ele>580</ele>
        <time>2020-10-05T16:17:31.988Z</time>
      </trkpt>
      <trkpt lat="43.96871" lon="5.88968">
        <ele>580</ele>
        <time>2020-10-05T16:17:32.988Z</time>
      </trkpt>
      <trkpt lat="43.9687" lon="5.88967">
        <ele>580</ele>
        <time>2020-10-05T16:17:33.988Z</time>
      </trkpt>
      <trkpt lat="43.96869" lon="5.88966">
        <ele>580</ele>
        <time>2020-10-05T16:17:34.988Z</time>
      </trkpt>
      <trkpt lat="43.96869" lon="5.88966">
        <ele>579</ele>
        <time>2020-10-05T16:17:35.988Z</time>
      </trkpt>
      <trkpt lat="43.96868" lon="5.88965">
        <ele>579</ele>
        <time>2020-10-05T16:17:36.988Z</time>
      </trkpt>
      <trkpt lat="43.96868" lon="5.88965">
        <ele>579</ele>
        <time>2020-10-05T16:17:37.988Z</time>
      </trkpt>
      <trkpt lat="43.96867" lon="5.88965">
        <ele>579</ele>
        <time>2020-10-05T16:17:38.988Z</time>
      </trkpt>
      <trkpt lat="43.96866" lon="5.88965">
        <ele>579</ele>
        <time>2020-10-05T16:17:39.988Z</time>
      </trkpt>
      <trkpt lat="43.96866" lon="5.88964">
        <ele>579</ele>
        <time>2020-10-05T16:17:40.988Z</time>
      </trkpt>
      <trkpt lat="43.96866" lon="5.88964">
        <ele>579</ele>
        <time>2020-10-05T16:17:41.988Z</time>
      </trkpt>
      <trkpt lat="43.96866" lon="5.88964">
        <ele>579</ele>
        <time>2020-10-05T16:17:42.988Z</time>
      </trkpt>
      <trkpt lat="43.96866" lon="5.88964">
        <ele>579</ele>
        <time>2020-10-05T16:17:43.988Z</time>
      </trkpt>
      <trkpt lat="43.96866" lon="5.88964">
        <ele>579</ele>
        <time>2020-10-05T16:17:44.988Z</time>
      </trkpt>
      <trkpt lat="43.96866" lon="5.88963">
        <ele>579</ele>
        <time>2020-10-05T16:17:45.988Z</time>
      </trkpt>
      <trkpt lat="43.96866" lon="5.88963">
        <ele>579</ele>
        <time>2020-10-05T16:17:46.988Z</time>
      </trkpt>
      <trkpt lat="43.96866" lon="5.88963">
        <ele>579</ele>
        <time>2020-10-05T16:17:47.988Z</time>
      </trkpt>
      <trkpt lat="43.96865" lon="5.88963">
        <ele>579</ele>
        <time>2020-10-05T16:17:48.988Z</time>
      </trkpt>
      <trkpt lat="43.96865" lon="5.88963">
        <ele>579</ele>
        <time>2020-10-05T16:17:49.988Z</time>
      </trkpt>
      <trkpt lat="43.96865" lon="5.88963">
        <ele>579</ele>
        <time>2020-10-05T16:17:50.988Z</time>
      </trkpt>
      <trkpt lat="43.96865" lon="5.88963">
        <ele>579</ele>
        <time>2020-10-05T16:17:51.988Z</time>
      </trkpt>
      <trkpt lat="43.96865" lon="5.88963">
        <ele>579</ele>
        <time>2020-10-05T16:17:52.988Z</time>
      </trkpt>
      <trkpt lat="43.96865" lon="5.88963">
        <ele>579</ele>
        <time>2020-10-05T16:17:53.988Z</time>
      </trkpt>
      <trkpt lat="43.96865" lon="5.88963">
        <ele>579</ele>
        <time>2020-10-05T16:17:54.988Z</time>
      </trkpt>
      <trkpt lat="43.96865" lon="5.88963">
        <ele>579</ele>
        <time>2020-10-05T16:17:55.988Z</time>
      </trkpt>
      <trkpt lat="43.96865" lon="5.88963">
        <ele>579</ele>
        <time>2020-10-05T16:17:56.988Z</time>
      </trkpt>
      <trkpt lat="43.96865" lon="5.88963">
        <ele>579</ele>
        <time>2020-10-05T16:17:57.988Z</time>
      </trkpt>
      <trkpt lat="43.96865" lon="5.88962">
        <ele>579</ele>
        <time>2020-10-05T16:17:58.988Z</time>
      </trkpt>
      <trkpt lat="43.96865" lon="5.88962">
        <ele>579</ele>
        <time>2020-10-05T16:17:59.988Z</time>
      </trkpt>
      <trkpt lat="43.96865" lon="5.88962">
        <ele>579</ele>
        <time>2020-10-05T16:18:00.988Z</time>
      </trkpt>
      <trkpt lat="43.96865" lon="5.88962">
        <ele>579</ele>
        <time>2020-10-05T16:18:01.988Z</time>
      </trkpt>
      <trkpt lat="43.96865" lon="5.88962">
        <ele>579</ele>
        <time>2020-10-05T16:18:02.988Z</time>
      </trkpt>
      <trkpt lat="43.96865" lon="5.88962">
        <ele>579</ele>
        <time>2020-10-05T16:18:03.988Z</time>
      </trkpt>
      <trkpt lat="43.96865" lon="5.88962">
        <ele>579</ele>
        <time>2020-10-05T16:18:04.988Z</time>
      </trkpt>
      <trkpt lat="43.96865" lon="5.88962">
        <ele>579</ele>
        <time>2020-10-05T16:18:05.988Z</time>
      </trkpt>
      <trkpt lat="43.96866" lon="5.88963">
        <ele>579</ele>
        <time>2020-10-05T16:18:06.988Z</time>
      </trkpt>
      <trkpt lat="43.96866" lon="5.88964">
        <ele>579</ele>
        <time>2020-10-05T16:18:07.988Z</time>
      </trkpt>
      <trkpt lat="43.96866" lon="5.88964">
        <ele>579</ele>
        <time>2020-10-05T16:18:08.988Z</time>
      </trkpt>
      <trkpt lat="43.96866" lon="5.88964">
        <ele>579</ele>
        <time>2020-10-05T16:18:09.988Z</time>
      </trkpt>
      <trkpt lat="43.96866" lon="5.88965">
        <ele>579</ele>
        <time>2020-10-05T16:18:10.988Z</time>
      </trkpt>
      <trkpt lat="43.96866" lon="5.88966">
        <ele>579</ele>
        <time>2020-10-05T16:18:11.988Z</time>
      </trkpt>
      <trkpt lat="43.96866" lon="5.88966">
        <ele>579</ele>
        <time>2020-10-05T16:18:12.988Z</time>
      </trkpt>
      <trkpt lat="43.96866" lon="5.88967">
        <ele>579</ele>
        <time>2020-10-05T16:18:13.988Z</time>
      </trkpt>
      <trkpt lat="43.96866" lon="5.88968">
        <ele>579</ele>
        <time>2020-10-05T16:18:14.988Z</time>
      </trkpt>
      <trkpt lat="43.96866" lon="5.88969">
        <ele>578</ele>
        <time>2020-10-05T16:18:15.988Z</time>
      </trkpt>
      <trkpt lat="43.96866" lon="5.8897">
        <ele>578</ele>
        <time>2020-10-05T16:18:16.988Z</time>
      </trkpt>
      <trkpt lat="43.96865" lon="5.88971">
        <ele>578</ele>
        <time>2020-10-05T16:18:17.988Z</time>
      </trkpt>
      <trkpt lat="43.96865" lon="5.88971">
        <ele>578</ele>
        <time>2020-10-05T16:18:18.988Z</time>
      </trkpt>
      <trkpt lat="43.96865" lon="5.88972">
        <ele>578</ele>
        <time>2020-10-05T16:18:19.988Z</time>
      </trkpt>
      <trkpt lat="43.96864" lon="5.88972">
        <ele>578</ele>
        <time>2020-10-05T16:18:20.988Z</time>
      </trkpt>
      <trkpt lat="43.96864" lon="5.88972">
        <ele>578</ele>
        <time>2020-10-05T16:18:21.988Z</time>
      </trkpt>
      <trkpt lat="43.96864" lon="5.88973">
        <ele>578</ele>
        <time>2020-10-05T16:18:22.988Z</time>
      </trkpt>
      <trkpt lat="43.96863" lon="5.88974">
        <ele>578</ele>
        <time>2020-10-05T16:18:23.988Z</time>
      </trkpt>
      <trkpt lat="43.96862" lon="5.88974">
        <ele>578</ele>
        <time>2020-10-05T16:18:24.988Z</time>
      </trkpt>
      <trkpt lat="43.96862" lon="5.88975">
        <ele>578</ele>
        <time>2020-10-05T16:18:25.988Z</time>
      </trkpt>
      <trkpt lat="43.96862" lon="5.88975">
        <ele>578</ele>
        <time>2020-10-05T16:18:26.988Z</time>
      </trkpt>
      <trkpt lat="43.96861" lon="5.88976">
        <ele>578</ele>
        <time>2020-10-05T16:18:27.988Z</time>
      </trkpt>
      <trkpt lat="43.96861" lon="5.88976">
        <ele>578</ele>
        <time>2020-10-05T16:18:28.988Z</time>
      </trkpt>
      <trkpt lat="43.9686" lon="5.88977">
        <ele>578</ele>
        <time>2020-10-05T16:18:29.988Z</time>
      </trkpt>
      <trkpt lat="43.9686" lon="5.88978">
        <ele>578</ele>
        <time>2020-10-05T16:18:30.988Z</time>
      </trkpt>
      <trkpt lat="43.9686" lon="5.88978">
        <ele>578</ele>
        <time>2020-10-05T16:18:31.988Z</time>
      </trkpt>
      <trkpt lat="43.96859" lon="5.88979">
        <ele>578</ele>
        <time>2020-10-05T16:18:32.988Z</time>
      </trkpt>
      <trkpt lat="43.96859" lon="5.8898">
        <ele>578</ele>
        <time>2020-10-05T16:18:33.988Z</time>
      </trkpt>
      <trkpt lat="43.9686" lon="5.88981">
        <ele>578</ele>
        <time>2020-10-05T16:18:34.988Z</time>
      </trkpt>
      <trkpt lat="43.9686" lon="5.88982">
        <ele>578</ele>
        <time>2020-10-05T16:18:35.988Z</time>
      </trkpt>
      <trkpt lat="43.9686" lon="5.88983">
        <ele>578</ele>
        <time>2020-10-05T16:18:36.988Z</time>
      </trkpt>
      <trkpt lat="43.9686" lon="5.88983">
        <ele>578</ele>
        <time>2020-10-05T16:18:37.988Z</time>
      </trkpt>
      <trkpt lat="43.9686" lon="5.88983">
        <ele>578</ele>
        <time>2020-10-05T16:18:38.988Z</time>
      </trkpt>
      <trkpt lat="43.9686" lon="5.88983">
        <ele>578</ele>
        <time>2020-10-05T16:18:39.988Z</time>
      </trkpt>
      <trkpt lat="43.96861" lon="5.88983">
        <ele>578</ele>
        <time>2020-10-05T16:18:40.988Z</time>
      </trkpt>
      <trkpt lat="43.96861" lon="5.88983">
        <ele>578</ele>
        <time>2020-10-05T16:18:41.988Z</time>
      </trkpt>
      <trkpt lat="43.96861" lon="5.88984">
        <ele>578</ele>
        <time>2020-10-05T16:18:42.988Z</time>
      </trkpt>
      <trkpt lat="43.96861" lon="5.88984">
        <ele>578</ele>
        <time>2020-10-05T16:18:43.988Z</time>
      </trkpt>
      <trkpt lat="43.9686" lon="5.88984">
        <ele>578</ele>
        <time>2020-10-05T16:18:44.988Z</time>
      </trkpt>
      <trkpt lat="43.9686" lon="5.88984">
        <ele>578</ele>
        <time>2020-10-05T16:18:45.988Z</time>
      </trkpt>
      <trkpt lat="43.9686" lon="5.88984">
        <ele>578</ele>
        <time>2020-10-05T16:18:46.988Z</time>
      </trkpt>
      <trkpt lat="43.9686" lon="5.88984">
        <ele>579</ele>
        <time>2020-10-05T16:18:47.988Z</time>
      </trkpt>
      <trkpt lat="43.9686" lon="5.88984">
        <ele>579</ele>
        <time>2020-10-05T16:18:48.988Z</time>
      </trkpt>
      <trkpt lat="43.9686" lon="5.88984">
        <ele>579</ele>
        <time>2020-10-05T16:18:49.988Z</time>
      </trkpt>
      <trkpt lat="43.96859" lon="5.88984">
        <ele>579</ele>
        <time>2020-10-05T16:18:50.988Z</time>
      </trkpt>
      <trkpt lat="43.96859" lon="5.88984">
        <ele>579</ele>
        <time>2020-10-05T16:18:51.988Z</time>
      </trkpt>
      <trkpt lat="43.96859" lon="5.88984">
        <ele>579</ele>
        <time>2020-10-05T16:18:52.988Z</time>
      </trkpt>
      <trkpt lat="43.9686" lon="5.88984">
        <ele>579</ele>
        <time>2020-10-05T16:18:53.988Z</time>
      </trkpt>
      <trkpt lat="43.9686" lon="5.88984">
        <ele>579</ele>
        <time>2020-10-05T16:18:54.988Z</time>
      </trkpt>
      <trkpt lat="43.9686" lon="5.88983">
        <ele>579</ele>
        <time>2020-10-05T16:18:55.988Z</time>
      </trkpt>
      <trkpt lat="43.9686" lon="5.88983">
        <ele>579</ele>
        <time>2020-10-05T16:18:56.988Z</time>
      </trkpt>
      <trkpt lat="43.9686" lon="5.88983">
        <ele>579</ele>
        <time>2020-10-05T16:18:57.988Z</time>
      </trkpt>
      <trkpt lat="43.96861" lon="5.88983">
        <ele>579</ele>
        <time>2020-10-05T16:18:58.988Z</time>
      </trkpt>
      <trkpt lat="43.96861" lon="5.88983">
        <ele>579</ele>
        <time>2020-10-05T16:18:59.988Z</time>
      </trkpt>
      <trkpt lat="43.96861" lon="5.88983">
        <ele>579</ele>
        <time>2020-10-05T16:19:00.988Z</time>
      </trkpt>
      <trkpt lat="43.96862" lon="5.88982">
        <ele>579</ele>
        <time>2020-10-05T16:19:01.988Z</time>
      </trkpt>
      <trkpt lat="43.96862" lon="5.88982">
        <ele>579</ele>
        <time>2020-10-05T16:19:02.988Z</time>
      </trkpt>
      <trkpt lat="43.96863" lon="5.88982">
        <ele>579</ele>
        <time>2020-10-05T16:19:03.988Z</time>
      </trkpt>
      <trkpt lat="43.96863" lon="5.88982">
        <ele>579</ele>
        <time>2020-10-05T16:19:04.988Z</time>
      </trkpt>
      <trkpt lat="43.96863" lon="5.88982">
        <ele>579</ele>
        <time>2020-10-05T16:19:05.988Z</time>
      </trkpt>
      <trkpt lat="43.96863" lon="5.88982">
        <ele>579</ele>
        <time>2020-10-05T16:19:06.988Z</time>
      </trkpt>
      <trkpt lat="43.96863" lon="5.88982">
        <ele>579</ele>
        <time>2020-10-05T16:19:07.988Z</time>
      </trkpt>
      <trkpt lat="43.96863" lon="5.88982">
        <ele>579</ele>
        <time>2020-10-05T16:19:08.988Z</time>
      </trkpt>
      <trkpt lat="43.96863" lon="5.88982">
        <ele>579</ele>
        <time>2020-10-05T16:19:09.988Z</time>
      </trkpt>
      <trkpt lat="43.96863" lon="5.88982">
        <ele>579</ele>
        <time>2020-10-05T16:19:10.988Z</time>
      </trkpt>
      <trkpt lat="43.96864" lon="5.88981">
        <ele>579</ele>
        <time>2020-10-05T16:19:11.988Z</time>
      </trkpt>
      <trkpt lat="43.96864" lon="5.88981">
        <ele>579</ele>
        <time>2020-10-05T16:19:12.988Z</time>
      </trkpt>
      <trkpt lat="43.96864" lon="5.8898">
        <ele>579</ele>
        <time>2020-10-05T16:19:13.988Z</time>
      </trkpt>
      <trkpt lat="43.96865" lon="5.8898">
        <ele>579</ele>
        <time>2020-10-05T16:19:14.988Z</time>
      </trkpt>
      <trkpt lat="43.96865" lon="5.8898">
        <ele>579</ele>
        <time>2020-10-05T16:19:15.988Z</time>
      </trkpt>
      <trkpt lat="43.96865" lon="5.8898">
        <ele>579</ele>
        <time>2020-10-05T16:19:16.988Z</time>
      </trkpt>
      <trkpt lat="43.96865" lon="5.8898">
        <ele>579</ele>
        <time>2020-10-05T16:19:17.988Z</time>
      </trkpt>
      <trkpt lat="43.96865" lon="5.88979">
        <ele>579</ele>
        <time>2020-10-05T16:19:18.988Z</time>
      </trkpt>
      <trkpt lat="43.96866" lon="5.88979">
        <ele>579</ele>
        <time>2020-10-05T16:19:19.988Z</time>
      </trkpt>
      <trkpt lat="43.96866" lon="5.8898">
        <ele>579</ele>
        <time>2020-10-05T16:19:20.988Z</time>
      </trkpt>
      <trkpt lat="43.96866" lon="5.8898">
        <ele>579</ele>
        <time>2020-10-05T16:19:21.988Z</time>
      </trkpt>
      <trkpt lat="43.96867" lon="5.8898">
        <ele>579</ele>
        <time>2020-10-05T16:19:22.988Z</time>
      </trkpt>
      <trkpt lat="43.96868" lon="5.8898">
        <ele>579</ele>
        <time>2020-10-05T16:19:23.988Z</time>
      </trkpt>
      <trkpt lat="43.96868" lon="5.8898">
        <ele>579</ele>
        <time>2020-10-05T16:19:24.988Z</time>
      </trkpt>
      <trkpt lat="43.96869" lon="5.88981">
        <ele>579</ele>
        <time>2020-10-05T16:19:25.988Z</time>
      </trkpt>
      <trkpt lat="43.96869" lon="5.8898">
        <ele>579</ele>
        <time>2020-10-05T16:19:26.988Z</time>
      </trkpt>
      <trkpt lat="43.9687" lon="5.8898">
        <ele>579</ele>
        <time>2020-10-05T16:19:27.988Z</time>
      </trkpt>
      <trkpt lat="43.9687" lon="5.88981">
        <ele>579</ele>
        <time>2020-10-05T16:19:28.988Z</time>
      </trkpt>
      <trkpt lat="43.9687" lon="5.88981">
        <ele>579</ele>
        <time>2020-10-05T16:19:29.988Z</time>
      </trkpt>
      <trkpt lat="43.96871" lon="5.88981">
        <ele>579</ele>
        <time>2020-10-05T16:19:30.988Z</time>
      </trkpt>
      <trkpt lat="43.96871" lon="5.88981">
        <ele>579</ele>
        <time>2020-10-05T16:19:31.988Z</time>
      </trkpt>
      <trkpt lat="43.96872" lon="5.88981">
        <ele>579</ele>
        <time>2020-10-05T16:19:32.988Z</time>
      </trkpt>
      <trkpt lat="43.96872" lon="5.8898">
        <ele>579</ele>
        <time>2020-10-05T16:19:33.988Z</time>
      </trkpt>
      <trkpt lat="43.96872" lon="5.8898">
        <ele>579</ele>
        <time>2020-10-05T16:19:34.988Z</time>
      </trkpt>
      <trkpt lat="43.96871" lon="5.8898">
        <ele>579</ele>
        <time>2020-10-05T16:19:35.988Z</time>
      </trkpt>
      <trkpt lat="43.96871" lon="5.8898">
        <ele>579</ele>
        <time>2020-10-05T16:19:36.988Z</time>
      </trkpt>
      <trkpt lat="43.96871" lon="5.8898">
        <ele>579</ele>
        <time>2020-10-05T16:19:37.988Z</time>
      </trkpt>
      <trkpt lat="43.96871" lon="5.8898">
        <ele>579</ele>
        <time>2020-10-05T16:19:38.988Z</time>
      </trkpt>
      <trkpt lat="43.96871" lon="5.8898">
        <ele>579</ele>
        <time>2020-10-05T16:19:39.988Z</time>
      </trkpt>
      <trkpt lat="43.96871" lon="5.88981">
        <ele>579</ele>
        <time>2020-10-05T16:19:40.988Z</time>
      </trkpt>
      <trkpt lat="43.96871" lon="5.88981">
        <ele>579</ele>
        <time>2020-10-05T16:19:41.988Z</time>
      </trkpt>
      <trkpt lat="43.96871" lon="5.88981">
        <ele>579</ele>
        <time>2020-10-05T16:19:42.988Z</time>
      </trkpt>
      <trkpt lat="43.96871" lon="5.88981">
        <ele>579</ele>
        <time>2020-10-05T16:19:43.988Z</time>
      </trkpt>
      <trkpt lat="43.96871" lon="5.88981">
        <ele>579</ele>
        <time>2020-10-05T16:19:44.988Z</time>
      </trkpt>
      <trkpt lat="43.96871" lon="5.88981">
        <ele>579</ele>
        <time>2020-10-05T16:19:45.988Z</time>
      </trkpt>
      <trkpt lat="43.9687" lon="5.88982">
        <ele>578</ele>
        <time>2020-10-05T16:19:46.988Z</time>
      </trkpt>
      <trkpt lat="43.9687" lon="5.88982">
        <ele>578</ele>
        <time>2020-10-05T16:19:47.988Z</time>
      </trkpt>
      <trkpt lat="43.9687" lon="5.88982">
        <ele>578</ele>
        <time>2020-10-05T16:19:48.988Z</time>
      </trkpt>
      <trkpt lat="43.9687" lon="5.88982">
        <ele>578</ele>
        <time>2020-10-05T16:19:49.988Z</time>
      </trkpt>
      <trkpt lat="43.9687" lon="5.88982">
        <ele>578</ele>
        <time>2020-10-05T16:19:50.988Z</time>
      </trkpt>
      <trkpt lat="43.9687" lon="5.88982">
        <ele>578</ele>
        <time>2020-10-05T16:19:51.988Z</time>
      </trkpt>
      <trkpt lat="43.96869" lon="5.88982">
        <ele>578</ele>
        <time>2020-10-05T16:19:52.988Z</time>
      </trkpt>
      <trkpt lat="43.96869" lon="5.88983">
        <ele>578</ele>
        <time>2020-10-05T16:19:53.988Z</time>
      </trkpt>
      <trkpt lat="43.96869" lon="5.88983">
        <ele>578</ele>
        <time>2020-10-05T16:19:54.988Z</time>
      </trkpt>
      <trkpt lat="43.96869" lon="5.88983">
        <ele>578</ele>
        <time>2020-10-05T16:19:55.988Z</time>
      </trkpt>
      <trkpt lat="43.96868" lon="5.88983">
        <ele>578</ele>
        <time>2020-10-05T16:19:56.988Z</time>
      </trkpt>
      <trkpt lat="43.96868" lon="5.88983">
        <ele>578</ele>
        <time>2020-10-05T16:19:57.988Z</time>
      </trkpt>
      <trkpt lat="43.96867" lon="5.88983">
        <ele>578</ele>
        <time>2020-10-05T16:19:58.988Z</time>
      </trkpt>
      <trkpt lat="43.96867" lon="5.88984">
        <ele>578</ele>
        <time>2020-10-05T16:19:59.988Z</time>
      </trkpt>
      <trkpt lat="43.96866" lon="5.88984">
        <ele>578</ele>
        <time>2020-10-05T16:20:00.988Z</time>
      </trkpt>
      <trkpt lat="43.96866" lon="5.88984">
        <ele>578</ele>
        <time>2020-10-05T16:20:01.988Z</time>
      </trkpt>
      <trkpt lat="43.96866" lon="5.88983">
        <ele>578</ele>
        <time>2020-10-05T16:20:02.988Z</time>
      </trkpt>
      <trkpt lat="43.96867" lon="5.88983">
        <ele>578</ele>
        <time>2020-10-05T16:20:03.988Z</time>
      </trkpt>
      <trkpt lat="43.96867" lon="5.88983">
        <ele>578</ele>
        <time>2020-10-05T16:20:04.988Z</time>
      </trkpt>
      <trkpt lat="43.96866" lon="5.88984">
        <ele>578</ele>
        <time>2020-10-05T16:20:05.988Z</time>
      </trkpt>
      <trkpt lat="43.96866" lon="5.88984">
        <ele>578</ele>
        <time>2020-10-05T16:20:06.988Z</time>
      </trkpt>
      <trkpt lat="43.96866" lon="5.88984">
        <ele>578</ele>
        <time>2020-10-05T16:20:07.988Z</time>
      </trkpt>
      <trkpt lat="43.96866" lon="5.88984">
        <ele>578</ele>
        <time>2020-10-05T16:20:08.988Z</time>
      </trkpt>
      <trkpt lat="43.96866" lon="5.88984">
        <ele>578</ele>
        <time>2020-10-05T16:20:09.988Z</time>
      </trkpt>
      <trkpt lat="43.96866" lon="5.88984">
        <ele>578</ele>
        <time>2020-10-05T16:20:10.988Z</time>
      </trkpt>
      <trkpt lat="43.96866" lon="5.88984">
        <ele>578</ele>
        <time>2020-10-05T16:20:11.988Z</time>
      </trkpt>
      <trkpt lat="43.96866" lon="5.88984">
        <ele>578</ele>
        <time>2020-10-05T16:20:12.988Z</time>
      </trkpt>
      <trkpt lat="43.96866" lon="5.88984">
        <ele>578</ele>
        <time>2020-10-05T16:20:13.988Z</time>
      </trkpt>
      <trkpt lat="43.96866" lon="5.88984">
        <ele>578</ele>
        <time>2020-10-05T16:20:14.988Z</time>
      </trkpt>
      <trkpt lat="43.96866" lon="5.88984">
        <ele>578</ele>
        <time>2020-10-05T16:20:15.988Z</time>
      </trkpt>
      <trkpt lat="43.96866" lon="5.88984">
        <ele>578</ele>
        <time>2020-10-05T16:20:16.988Z</time>
      </trkpt>
      <trkpt lat="43.96866" lon="5.88984">
        <ele>578</ele>
        <time>2020-10-05T16:20:17.988Z</time>
      </trkpt>
      <trkpt lat="43.96866" lon="5.88984">
        <ele>578</ele>
        <time>2020-10-05T16:20:18.988Z</time>
      </trkpt>
      <trkpt lat="43.96866" lon="5.88984">
        <ele>578</ele>
        <time>2020-10-05T16:20:19.988Z</time>
      </trkpt>
      <trkpt lat="43.96866" lon="5.88984">
        <ele>578</ele>
        <time>2020-10-05T16:20:20.988Z</time>
      </trkpt>
      <trkpt lat="43.96866" lon="5.88984">
        <ele>578</ele>
        <time>2020-10-05T16:20:21.988Z</time>
      </trkpt>
      <trkpt lat="43.96866" lon="5.88984">
        <ele>578</ele>
        <time>2020-10-05T16:20:22.988Z</time>
      </trkpt>
      <trkpt lat="43.96866" lon="5.88984">
        <ele>578</ele>
        <time>2020-10-05T16:20:23.988Z</time>
      </trkpt>
      <trkpt lat="43.96866" lon="5.88984">
        <ele>578</ele>
        <time>2020-10-05T16:20:24.988Z</time>
      </trkpt>
      <trkpt lat="43.96866" lon="5.88984">
        <ele>578</ele>
        <time>2020-10-05T16:20:25.988Z</time>
      </trkpt>
      <trkpt lat="43.96866" lon="5.88984">
        <ele>578</ele>
        <time>2020-10-05T16:20:26.988Z</time>
      </trkpt>
      <trkpt lat="43.96866" lon="5.88984">
        <ele>578</ele>
        <time>2020-10-05T16:20:27.988Z</time>
      </trkpt>
      <trkpt lat="43.96866" lon="5.88984">
        <ele>578</ele>
        <time>2020-10-05T16:20:28.988Z</time>
      </trkpt>
      <trkpt lat="43.96866" lon="5.88984">
        <ele>578</ele>
        <time>2020-10-05T16:20:29.988Z</time>
      </trkpt>
      <trkpt lat="43.96866" lon="5.88984">
        <ele>578</ele>
        <time>2020-10-05T16:20:30.988Z</time>
      </trkpt>
      <trkpt lat="43.96871" lon="5.89007">
        <ele>578</ele>
        <time>2020-10-05T16:45:44.395Z</time>
      </trkpt>
      <trkpt lat="43.96871" lon="5.89007">
        <ele>578</ele>
        <time>2020-10-05T16:45:45.395Z</time>
      </trkpt>
      <trkpt lat="43.96872" lon="5.89007">
        <ele>577</ele>
        <time>2020-10-05T16:45:46.395Z</time>
      </trkpt>
      <trkpt lat="43.96872" lon="5.89007">
        <ele>577</ele>
        <time>2020-10-05T16:45:47.395Z</time>
      </trkpt>
      <trkpt lat="43.96873" lon="5.89006">
        <ele>577</ele>
        <time>2020-10-05T16:45:48.395Z</time>
      </trkpt>
      <trkpt lat="43.96873" lon="5.89006">
        <ele>577</ele>
        <time>2020-10-05T16:45:49.395Z</time>
      </trkpt>
      <trkpt lat="43.96873" lon="5.89007">
        <ele>577</ele>
        <time>2020-10-05T16:45:50.395Z</time>
      </trkpt>
      <trkpt lat="43.96873" lon="5.89007">
        <ele>577</ele>
        <time>2020-10-05T16:45:51.395Z</time>
      </trkpt>
      <trkpt lat="43.96874" lon="5.89007">
        <ele>577</ele>
        <time>2020-10-05T16:45:52.395Z</time>
      </trkpt>
      <trkpt lat="43.96874" lon="5.89006">
        <ele>577</ele>
        <time>2020-10-05T16:45:53.395Z</time>
      </trkpt>
      <trkpt lat="43.96875" lon="5.89006">
        <ele>576</ele>
        <time>2020-10-05T16:45:54.395Z</time>
      </trkpt>
      <trkpt lat="43.96875" lon="5.89006">
        <ele>576</ele>
        <time>2020-10-05T16:45:55.395Z</time>
      </trkpt>
      <trkpt lat="43.96875" lon="5.89005">
        <ele>576</ele>
        <time>2020-10-05T16:45:56.395Z</time>
      </trkpt>
      <trkpt lat="43.96875" lon="5.89005">
        <ele>576</ele>
        <time>2020-10-05T16:45:57.395Z</time>
      </trkpt>
      <trkpt lat="43.96875" lon="5.89005">
        <ele>576</ele>
        <time>2020-10-05T16:45:58.395Z</time>
      </trkpt>
      <trkpt lat="43.96875" lon="5.89004">
        <ele>576</ele>
        <time>2020-10-05T16:45:59.395Z</time>
      </trkpt>
      <trkpt lat="43.96875" lon="5.89004">
        <ele>576</ele>
        <time>2020-10-05T16:46:00.395Z</time>
      </trkpt>
      <trkpt lat="43.96875" lon="5.89004">
        <ele>576</ele>
        <time>2020-10-05T16:46:01.395Z</time>
      </trkpt>
      <trkpt lat="43.96875" lon="5.89004">
        <ele>576</ele>
        <time>2020-10-05T16:46:02.395Z</time>
      </trkpt>
      <trkpt lat="43.96875" lon="5.89003">
        <ele>576</ele>
        <time>2020-10-05T16:46:03.395Z</time>
      </trkpt>
      <trkpt lat="43.96875" lon="5.89003">
        <ele>575</ele>
        <time>2020-10-05T16:46:04.395Z</time>
      </trkpt>
      <trkpt lat="43.96875" lon="5.89003">
        <ele>575</ele>
        <time>2020-10-05T16:46:05.395Z</time>
      </trkpt>
      <trkpt lat="43.96875" lon="5.89003">
        <ele>575</ele>
        <time>2020-10-05T16:46:06.395Z</time>
      </trkpt>
      <trkpt lat="43.96875" lon="5.89003">
        <ele>575</ele>
        <time>2020-10-05T16:46:07.395Z</time>
      </trkpt>
      <trkpt lat="43.96875" lon="5.89003">
        <ele>575</ele>
        <time>2020-10-05T16:46:08.395Z</time>
      </trkpt>
      <trkpt lat="43.96875" lon="5.89003">
        <ele>575</ele>
        <time>2020-10-05T16:46:09.395Z</time>
      </trkpt>
      <trkpt lat="43.96875" lon="5.89003">
        <ele>575</ele>
        <time>2020-10-05T16:46:10.395Z</time>
      </trkpt>
      <trkpt lat="43.96875" lon="5.89003">
        <ele>575</ele>
        <time>2020-10-05T16:46:11.395Z</time>
      </trkpt>
      <trkpt lat="43.96875" lon="5.89003">
        <ele>575</ele>
        <time>2020-10-05T16:46:12.395Z</time>
      </trkpt>
      <trkpt lat="43.96875" lon="5.89003">
        <ele>575</ele>
        <time>2020-10-05T16:46:13.395Z</time>
      </trkpt>
      <trkpt lat="43.96875" lon="5.89002">
        <ele>575</ele>
        <time>2020-10-05T16:46:14.395Z</time>
      </trkpt>
      <trkpt lat="43.96875" lon="5.89002">
        <ele>575</ele>
        <time>2020-10-05T16:46:15.395Z</time>
      </trkpt>
      <trkpt lat="43.96874" lon="5.89001">
        <ele>575</ele>
        <time>2020-10-05T16:46:16.395Z</time>
      </trkpt>
      <trkpt lat="43.96873" lon="5.89">
        <ele>575</ele>
        <time>2020-10-05T16:46:17.395Z</time>
      </trkpt>
      <trkpt lat="43.96872" lon="5.89">
        <ele>575</ele>
        <time>2020-10-05T16:46:18.395Z</time>
      </trkpt>
      <trkpt lat="43.96871" lon="5.88999">
        <ele>575</ele>
        <time>2020-10-05T16:46:19.395Z</time>
      </trkpt>
      <trkpt lat="43.9687" lon="5.88998">
        <ele>575</ele>
        <time>2020-10-05T16:46:20.395Z</time>
      </trkpt>
      <trkpt lat="43.9687" lon="5.88997">
        <ele>575</ele>
        <time>2020-10-05T16:46:21.395Z</time>
      </trkpt>
      <trkpt lat="43.96869" lon="5.88996">
        <ele>574</ele>
        <time>2020-10-05T16:46:22.395Z</time>
      </trkpt>
      <trkpt lat="43.96869" lon="5.88996">
        <ele>574</ele>
        <time>2020-10-05T16:46:23.395Z</time>
      </trkpt>
      <trkpt lat="43.96869" lon="5.88995">
        <ele>574</ele>
        <time>2020-10-05T16:46:24.395Z</time>
      </trkpt>
      <trkpt lat="43.96869" lon="5.88994">
        <ele>574</ele>
        <time>2020-10-05T16:46:25.395Z</time>
      </trkpt>
      <trkpt lat="43.96868" lon="5.88993">
        <ele>574</ele>
        <time>2020-10-05T16:46:26.395Z</time>
      </trkpt>
      <trkpt lat="43.96868" lon="5.88992">
        <ele>574</ele>
        <time>2020-10-05T16:46:27.395Z</time>
      </trkpt>
      <trkpt lat="43.96867" lon="5.88991">
        <ele>574</ele>
        <time>2020-10-05T16:46:28.395Z</time>
      </trkpt>
      <trkpt lat="43.96866" lon="5.8899">
        <ele>574</ele>
        <time>2020-10-05T16:46:29.395Z</time>
      </trkpt>
      <trkpt lat="43.96866" lon="5.88988">
        <ele>574</ele>
        <time>2020-10-05T16:46:30.395Z</time>
      </trkpt>
      <trkpt lat="43.96865" lon="5.88987">
        <ele>574</ele>
        <time>2020-10-05T16:46:31.395Z</time>
      </trkpt>
      <trkpt lat="43.96865" lon="5.88986">
        <ele>574</ele>
        <time>2020-10-05T16:46:32.395Z</time>
      </trkpt>
      <trkpt lat="43.96865" lon="5.88985">
        <ele>574</ele>
        <time>2020-10-05T16:46:33.395Z</time>
      </trkpt>
      <trkpt lat="43.96865" lon="5.88984">
        <ele>574</ele>
        <time>2020-10-05T16:46:34.395Z</time>
      </trkpt>
      <trkpt lat="43.96865" lon="5.88984">
        <ele>573</ele>
        <time>2020-10-05T16:46:35.395Z</time>
      </trkpt>
      <trkpt lat="43.96864" lon="5.88983">
        <ele>573</ele>
        <time>2020-10-05T16:46:36.395Z</time>
      </trkpt>
      <trkpt lat="43.96864" lon="5.88982">
        <ele>573</ele>
        <time>2020-10-05T16:46:37.395Z</time>
      </trkpt>
      <trkpt lat="43.96863" lon="5.88981">
        <ele>573</ele>
        <time>2020-10-05T16:46:38.395Z</time>
      </trkpt>
      <trkpt lat="43.96862" lon="5.88981">
        <ele>573</ele>
        <time>2020-10-05T16:46:39.395Z</time>
      </trkpt>
      <trkpt lat="43.96861" lon="5.8898">
        <ele>573</ele>
        <time>2020-10-05T16:46:40.395Z</time>
      </trkpt>
      <trkpt lat="43.9686" lon="5.88979">
        <ele>573</ele>
        <time>2020-10-05T16:46:41.395Z</time>
      </trkpt>
      <trkpt lat="43.9686" lon="5.88978">
        <ele>573</ele>
        <time>2020-10-05T16:46:42.395Z</time>
      </trkpt>
      <trkpt lat="43.96859" lon="5.88978">
        <ele>573</ele>
        <time>2020-10-05T16:46:43.395Z</time>
      </trkpt>
      <trkpt lat="43.96857" lon="5.88977">
        <ele>573</ele>
        <time>2020-10-05T16:46:44.395Z</time>
      </trkpt>
      <trkpt lat="43.96856" lon="5.88977">
        <ele>573</ele>
        <time>2020-10-05T16:46:45.395Z</time>
      </trkpt>
      <trkpt lat="43.96855" lon="5.88977">
        <ele>573</ele>
        <time>2020-10-05T16:46:46.395Z</time>
      </trkpt>
      <trkpt lat="43.96854" lon="5.88977">
        <ele>573</ele>
        <time>2020-10-05T16:46:47.395Z</time>
      </trkpt>
      <trkpt lat="43.96853" lon="5.88977">
        <ele>573</ele>
        <time>2020-10-05T16:46:48.395Z</time>
      </trkpt>
      <trkpt lat="43.96851" lon="5.88977">
        <ele>573</ele>
        <time>2020-10-05T16:46:49.395Z</time>
      </trkpt>
      <trkpt lat="43.96849" lon="5.88978">
        <ele>573</ele>
        <time>2020-10-05T16:46:50.395Z</time>
      </trkpt>
      <trkpt lat="43.96848" lon="5.88978">
        <ele>573</ele>
        <time>2020-10-05T16:46:51.395Z</time>
      </trkpt>
      <trkpt lat="43.96847" lon="5.88978">
        <ele>573</ele>
        <time>2020-10-05T16:46:52.395Z</time>
      </trkpt>
      <trkpt lat="43.96845" lon="5.88978">
        <ele>573</ele>
        <time>2020-10-05T16:46:53.395Z</time>
      </trkpt>
      <trkpt lat="43.96844" lon="5.88978">
        <ele>573</ele>
        <time>2020-10-05T16:46:54.395Z</time>
      </trkpt>
      <trkpt lat="43.96843" lon="5.88977">
        <ele>573</ele>
        <time>2020-10-05T16:46:55.395Z</time>
      </trkpt>
      <trkpt lat="43.96841" lon="5.88977">
        <ele>573</ele>
        <time>2020-10-05T16:46:56.395Z</time>
      </trkpt>
      <trkpt lat="43.9684" lon="5.88976">
        <ele>573</ele>
        <time>2020-10-05T16:46:57.395Z</time>
      </trkpt>
      <trkpt lat="43.96839" lon="5.88975">
        <ele>573</ele>
        <time>2020-10-05T16:46:58.395Z</time>
      </trkpt>
      <trkpt lat="43.96838" lon="5.88975">
        <ele>573</ele>
        <time>2020-10-05T16:46:59.395Z</time>
      </trkpt>
      <trkpt lat="43.96837" lon="5.88974">
        <ele>573</ele>
        <time>2020-10-05T16:47:00.395Z</time>
      </trkpt>
      <trkpt lat="43.96836" lon="5.88973">
        <ele>573</ele>
        <time>2020-10-05T16:47:01.395Z</time>
      </trkpt>
      <trkpt lat="43.96835" lon="5.88972">
        <ele>573</ele>
        <time>2020-10-05T16:47:02.395Z</time>
      </trkpt>
      <trkpt lat="43.96834" lon="5.88972">
        <ele>573</ele>
        <time>2020-10-05T16:47:03.395Z</time>
      </trkpt>
      <trkpt lat="43.96833" lon="5.88971">
        <ele>573</ele>
        <time>2020-10-05T16:47:04.395Z</time>
      </trkpt>
      <trkpt lat="43.96832" lon="5.8897">
        <ele>573</ele>
        <time>2020-10-05T16:47:05.395Z</time>
      </trkpt>
      <trkpt lat="43.96831" lon="5.88969">
        <ele>573</ele>
        <time>2020-10-05T16:47:06.395Z</time>
      </trkpt>
      <trkpt lat="43.9683" lon="5.88968">
        <ele>573</ele>
        <time>2020-10-05T16:47:07.395Z</time>
      </trkpt>
      <trkpt lat="43.96829" lon="5.88968">
        <ele>573</ele>
        <time>2020-10-05T16:47:08.395Z</time>
      </trkpt>
      <trkpt lat="43.96828" lon="5.88967">
        <ele>573</ele>
        <time>2020-10-05T16:47:09.395Z</time>
      </trkpt>
      <trkpt lat="43.96827" lon="5.88966">
        <ele>573</ele>
        <time>2020-10-05T16:47:10.395Z</time>
      </trkpt>
      <trkpt lat="43.96826" lon="5.88966">
        <ele>573</ele>
        <time>2020-10-05T16:47:11.395Z</time>
      </trkpt>
      <trkpt lat="43.96825" lon="5.88965">
        <ele>573</ele>
        <time>2020-10-05T16:47:12.395Z</time>
      </trkpt>
      <trkpt lat="43.96824" lon="5.88964">
        <ele>573</ele>
        <time>2020-10-05T16:47:13.395Z</time>
      </trkpt>
      <trkpt lat="43.96823" lon="5.88963">
        <ele>573</ele>
        <time>2020-10-05T16:47:14.395Z</time>
      </trkpt>
      <trkpt lat="43.96823" lon="5.88962">
        <ele>573</ele>
        <time>2020-10-05T16:47:15.395Z</time>
      </trkpt>
      <trkpt lat="43.96822" lon="5.88961">
        <ele>573</ele>
        <time>2020-10-05T16:47:16.395Z</time>
      </trkpt>
      <trkpt lat="43.96821" lon="5.8896">
        <ele>573</ele>
        <time>2020-10-05T16:47:17.395Z</time>
      </trkpt>
      <trkpt lat="43.9682" lon="5.88959">
        <ele>573</ele>
        <time>2020-10-05T16:47:18.395Z</time>
      </trkpt>
      <trkpt lat="43.9682" lon="5.88958">
        <ele>573</ele>
        <time>2020-10-05T16:47:19.395Z</time>
      </trkpt>
      <trkpt lat="43.96819" lon="5.88957">
        <ele>573</ele>
        <time>2020-10-05T16:47:20.395Z</time>
      </trkpt>
      <trkpt lat="43.96818" lon="5.88957">
        <ele>573</ele>
        <time>2020-10-05T16:47:21.395Z</time>
      </trkpt>
      <trkpt lat="43.96817" lon="5.88956">
        <ele>573</ele>
        <time>2020-10-05T16:47:22.395Z</time>
      </trkpt>
      <trkpt lat="43.96817" lon="5.88955">
        <ele>573</ele>
        <time>2020-10-05T16:47:23.395Z</time>
      </trkpt>
      <trkpt lat="43.96816" lon="5.88955">
        <ele>573</ele>
        <time>2020-10-05T16:47:24.395Z</time>
      </trkpt>
      <trkpt lat="43.96815" lon="5.88953">
        <ele>573</ele>
        <time>2020-10-05T16:47:25.395Z</time>
      </trkpt>
      <trkpt lat="43.96814" lon="5.88952">
        <ele>573</ele>
        <time>2020-10-05T16:47:26.395Z</time>
      </trkpt>
      <trkpt lat="43.96814" lon="5.88951">
        <ele>573</ele>
        <time>2020-10-05T16:47:27.395Z</time>
      </trkpt>
      <trkpt lat="43.96813" lon="5.8895">
        <ele>573</ele>
        <time>2020-10-05T16:47:28.395Z</time>
      </trkpt>
      <trkpt lat="43.96812" lon="5.88949">
        <ele>573</ele>
        <time>2020-10-05T16:47:29.395Z</time>
      </trkpt>
      <trkpt lat="43.96812" lon="5.88947">
        <ele>573</ele>
        <time>2020-10-05T16:47:30.395Z</time>
      </trkpt>
      <trkpt lat="43.96811" lon="5.88946">
        <ele>573</ele>
        <time>2020-10-05T16:47:31.395Z</time>
      </trkpt>
      <trkpt lat="43.9681" lon="5.88945">
        <ele>574</ele>
        <time>2020-10-05T16:47:32.395Z</time>
      </trkpt>
      <trkpt lat="43.9681" lon="5.88943">
        <ele>574</ele>
        <time>2020-10-05T16:47:33.395Z</time>
      </trkpt>
      <trkpt lat="43.96809" lon="5.88942">
        <ele>574</ele>
        <time>2020-10-05T16:47:34.395Z</time>
      </trkpt>
      <trkpt lat="43.96808" lon="5.88941">
        <ele>574</ele>
        <time>2020-10-05T16:47:35.395Z</time>
      </trkpt>
      <trkpt lat="43.96807" lon="5.8894">
        <ele>574</ele>
        <time>2020-10-05T16:47:36.395Z</time>
      </trkpt>
      <trkpt lat="43.96806" lon="5.88939">
        <ele>574</ele>
        <time>2020-10-05T16:47:37.395Z</time>
      </trkpt>
      <trkpt lat="43.96806" lon="5.88938">
        <ele>574</ele>
        <time>2020-10-05T16:47:38.395Z</time>
      </trkpt>
      <trkpt lat="43.96805" lon="5.88937">
        <ele>574</ele>
        <time>2020-10-05T16:47:39.395Z</time>
      </trkpt>
      <trkpt lat="43.96804" lon="5.88936">
        <ele>574</ele>
        <time>2020-10-05T16:47:40.395Z</time>
      </trkpt>
      <trkpt lat="43.96803" lon="5.88935">
        <ele>574</ele>
        <time>2020-10-05T16:47:41.395Z</time>
      </trkpt>
      <trkpt lat="43.96802" lon="5.88934">
        <ele>574</ele>
        <time>2020-10-05T16:47:42.395Z</time>
      </trkpt>
      <trkpt lat="43.96801" lon="5.88933">
        <ele>574</ele>
        <time>2020-10-05T16:47:43.395Z</time>
      </trkpt>
      <trkpt lat="43.968" lon="5.88932">
        <ele>574</ele>
        <time>2020-10-05T16:47:44.395Z</time>
      </trkpt>
      <trkpt lat="43.96799" lon="5.88931">
        <ele>574</ele>
        <time>2020-10-05T16:47:45.395Z</time>
      </trkpt>
      <trkpt lat="43.96798" lon="5.88931">
        <ele>574</ele>
        <time>2020-10-05T16:47:46.395Z</time>
      </trkpt>
      <trkpt lat="43.96797" lon="5.8893">
        <ele>574</ele>
        <time>2020-10-05T16:47:47.395Z</time>
      </trkpt>
      <trkpt lat="43.96796" lon="5.88929">
        <ele>574</ele>
        <time>2020-10-05T16:47:48.395Z</time>
      </trkpt>
      <trkpt lat="43.96795" lon="5.88928">
        <ele>574</ele>
        <time>2020-10-05T16:47:49.395Z</time>
      </trkpt>
      <trkpt lat="43.96794" lon="5.88927">
        <ele>574</ele>
        <time>2020-10-05T16:47:50.395Z</time>
      </trkpt>
      <trkpt lat="43.96793" lon="5.88927">
        <ele>574</ele>
        <time>2020-10-05T16:47:51.395Z</time>
      </trkpt>
      <trkpt lat="43.96792" lon="5.88926">
        <ele>574</ele>
        <time>2020-10-05T16:47:52.395Z</time>
      </trkpt>
      <trkpt lat="43.96791" lon="5.88925">
        <ele>574</ele>
        <time>2020-10-05T16:47:53.395Z</time>
      </trkpt>
      <trkpt lat="43.9679" lon="5.88924">
        <ele>574</ele>
        <time>2020-10-05T16:47:54.395Z</time>
      </trkpt>
      <trkpt lat="43.96789" lon="5.88923">
        <ele>574</ele>
        <time>2020-10-05T16:47:55.395Z</time>
      </trkpt>
      <trkpt lat="43.96788" lon="5.88922">
        <ele>574</ele>
        <time>2020-10-05T16:47:56.395Z</time>
      </trkpt>
      <trkpt lat="43.96787" lon="5.88922">
        <ele>574</ele>
        <time>2020-10-05T16:47:57.395Z</time>
      </trkpt>
      <trkpt lat="43.96786" lon="5.88921">
        <ele>575</ele>
        <time>2020-10-05T16:47:58.395Z</time>
      </trkpt>
      <trkpt lat="43.96785" lon="5.88921">
        <ele>575</ele>
        <time>2020-10-05T16:47:59.395Z</time>
      </trkpt>
      <trkpt lat="43.96784" lon="5.8892">
        <ele>575</ele>
        <time>2020-10-05T16:48:00.395Z</time>
      </trkpt>
      <trkpt lat="43.96784" lon="5.88919">
        <ele>575</ele>
        <time>2020-10-05T16:48:01.395Z</time>
      </trkpt>
      <trkpt lat="43.96783" lon="5.88919">
        <ele>575</ele>
        <time>2020-10-05T16:48:02.395Z</time>
      </trkpt>
      <trkpt lat="43.96782" lon="5.88918">
        <ele>575</ele>
        <time>2020-10-05T16:48:03.395Z</time>
      </trkpt>
      <trkpt lat="43.96781" lon="5.88917">
        <ele>575</ele>
        <time>2020-10-05T16:48:04.395Z</time>
      </trkpt>
      <trkpt lat="43.9678" lon="5.88916">
        <ele>575</ele>
        <time>2020-10-05T16:48:05.395Z</time>
      </trkpt>
      <trkpt lat="43.9678" lon="5.88915">
        <ele>575</ele>
        <time>2020-10-05T16:48:06.395Z</time>
      </trkpt>
      <trkpt lat="43.96779" lon="5.88914">
        <ele>575</ele>
        <time>2020-10-05T16:48:07.395Z</time>
      </trkpt>
      <trkpt lat="43.96779" lon="5.88913">
        <ele>575</ele>
        <time>2020-10-05T16:48:08.395Z</time>
      </trkpt>
      <trkpt lat="43.96778" lon="5.88912">
        <ele>575</ele>
        <time>2020-10-05T16:48:09.395Z</time>
      </trkpt>
      <trkpt lat="43.96777" lon="5.88911">
        <ele>575</ele>
        <time>2020-10-05T16:48:10.395Z</time>
      </trkpt>
      <trkpt lat="43.96776" lon="5.8891">
        <ele>574</ele>
        <time>2020-10-05T16:48:11.395Z</time>
      </trkpt>
      <trkpt lat="43.96776" lon="5.88909">
        <ele>574</ele>
        <time>2020-10-05T16:48:12.395Z</time>
      </trkpt>
      <trkpt lat="43.96775" lon="5.88908">
        <ele>574</ele>
        <time>2020-10-05T16:48:13.395Z</time>
      </trkpt>
      <trkpt lat="43.96774" lon="5.88908">
        <ele>574</ele>
        <time>2020-10-05T16:48:14.395Z</time>
      </trkpt>
      <trkpt lat="43.96773" lon="5.88907">
        <ele>574</ele>
        <time>2020-10-05T16:48:15.395Z</time>
      </trkpt>
      <trkpt lat="43.96772" lon="5.88906">
        <ele>574</ele>
        <time>2020-10-05T16:48:16.395Z</time>
      </trkpt>
      <trkpt lat="43.96771" lon="5.88905">
        <ele>574</ele>
        <time>2020-10-05T16:48:17.395Z</time>
      </trkpt>
      <trkpt lat="43.9677" lon="5.88904">
        <ele>574</ele>
        <time>2020-10-05T16:48:18.395Z</time>
      </trkpt>
      <trkpt lat="43.96769" lon="5.88903">
        <ele>574</ele>
        <time>2020-10-05T16:48:19.395Z</time>
      </trkpt>
      <trkpt lat="43.96768" lon="5.88902">
        <ele>574</ele>
        <time>2020-10-05T16:48:20.395Z</time>
      </trkpt>
      <trkpt lat="43.96767" lon="5.88902">
        <ele>574</ele>
        <time>2020-10-05T16:48:21.395Z</time>
      </trkpt>
      <trkpt lat="43.96766" lon="5.88901">
        <ele>574</ele>
        <time>2020-10-05T16:48:22.395Z</time>
      </trkpt>
      <trkpt lat="43.96765" lon="5.88901">
        <ele>574</ele>
        <time>2020-10-05T16:48:23.395Z</time>
      </trkpt>
      <trkpt lat="43.96764" lon="5.889">
        <ele>574</ele>
        <time>2020-10-05T16:48:24.395Z</time>
      </trkpt>
      <trkpt lat="43.96763" lon="5.88899">
        <ele>574</ele>
        <time>2020-10-05T16:48:25.395Z</time>
      </trkpt>
      <trkpt lat="43.96762" lon="5.88898">
        <ele>574</ele>
        <time>2020-10-05T16:48:26.395Z</time>
      </trkpt>
      <trkpt lat="43.96761" lon="5.88897">
        <ele>574</ele>
        <time>2020-10-05T16:48:27.395Z</time>
      </trkpt>
      <trkpt lat="43.96761" lon="5.88897">
        <ele>574</ele>
        <time>2020-10-05T16:48:28.395Z</time>
      </trkpt>
      <trkpt lat="43.9676" lon="5.88896">
        <ele>574</ele>
        <time>2020-10-05T16:48:29.395Z</time>
      </trkpt>
      <trkpt lat="43.9676" lon="5.88896">
        <ele>574</ele>
        <time>2020-10-05T16:48:30.395Z</time>
      </trkpt>
      <trkpt lat="43.9676" lon="5.88896">
        <ele>574</ele>
        <time>2020-10-05T16:48:31.395Z</time>
      </trkpt>
      <trkpt lat="43.9676" lon="5.88896">
        <ele>574</ele>
        <time>2020-10-05T16:48:32.395Z</time>
      </trkpt>
      <trkpt lat="43.9676" lon="5.88896">
        <ele>574</ele>
        <time>2020-10-05T16:48:33.395Z</time>
      </trkpt>
      <trkpt lat="43.9676" lon="5.88896">
        <ele>574</ele>
        <time>2020-10-05T16:48:34.395Z</time>
      </trkpt>
      <trkpt lat="43.96759" lon="5.88896">
        <ele>574</ele>
        <time>2020-10-05T16:48:35.395Z</time>
      </trkpt>
      <trkpt lat="43.96759" lon="5.88896">
        <ele>574</ele>
        <time>2020-10-05T16:48:36.395Z</time>
      </trkpt>
      <trkpt lat="43.96759" lon="5.88896">
        <ele>574</ele>
        <time>2020-10-05T16:48:37.395Z</time>
      </trkpt>
      <trkpt lat="43.96759" lon="5.88896">
        <ele>574</ele>
        <time>2020-10-05T16:48:38.395Z</time>
      </trkpt>
      <trkpt lat="43.96759" lon="5.88896">
        <ele>574</ele>
        <time>2020-10-05T16:48:39.395Z</time>
      </trkpt>
      <trkpt lat="43.96759" lon="5.88895">
        <ele>574</ele>
        <time>2020-10-05T16:48:40.395Z</time>
      </trkpt>
      <trkpt lat="43.96759" lon="5.88895">
        <ele>574</ele>
        <time>2020-10-05T16:48:41.395Z</time>
      </trkpt>
      <trkpt lat="43.96758" lon="5.88895">
        <ele>574</ele>
        <time>2020-10-05T16:48:42.395Z</time>
      </trkpt>
      <trkpt lat="43.96758" lon="5.88895">
        <ele>574</ele>
        <time>2020-10-05T16:48:43.395Z</time>
      </trkpt>
      <trkpt lat="43.96758" lon="5.88895">
        <ele>574</ele>
        <time>2020-10-05T16:48:44.395Z</time>
      </trkpt>
      <trkpt lat="43.96758" lon="5.88896">
        <ele>574</ele>
        <time>2020-10-05T16:48:45.395Z</time>
      </trkpt>
      <trkpt lat="43.96758" lon="5.88896">
        <ele>574</ele>
        <time>2020-10-05T16:48:46.395Z</time>
      </trkpt>
      <trkpt lat="43.96758" lon="5.88896">
        <ele>574</ele>
        <time>2020-10-05T16:48:47.395Z</time>
      </trkpt>
      <trkpt lat="43.96758" lon="5.88896">
        <ele>574</ele>
        <time>2020-10-05T16:48:48.395Z</time>
      </trkpt>
      <trkpt lat="43.96758" lon="5.88896">
        <ele>574</ele>
        <time>2020-10-05T16:48:49.395Z</time>
      </trkpt>
      <trkpt lat="43.96758" lon="5.88896">
        <ele>574</ele>
        <time>2020-10-05T16:48:50.395Z</time>
      </trkpt>
      <trkpt lat="43.96757" lon="5.88896">
        <ele>574</ele>
        <time>2020-10-05T16:48:51.395Z</time>
      </trkpt>
      <trkpt lat="43.96757" lon="5.88896">
        <ele>575</ele>
        <time>2020-10-05T16:48:52.395Z</time>
      </trkpt>
      <trkpt lat="43.96757" lon="5.88896">
        <ele>575</ele>
        <time>2020-10-05T16:48:53.395Z</time>
      </trkpt>
      <trkpt lat="43.96758" lon="5.88896">
        <ele>575</ele>
        <time>2020-10-05T16:48:54.395Z</time>
      </trkpt>
      <trkpt lat="43.96758" lon="5.88895">
        <ele>575</ele>
        <time>2020-10-05T16:48:55.395Z</time>
      </trkpt>
      <trkpt lat="43.96758" lon="5.88895">
        <ele>575</ele>
        <time>2020-10-05T16:48:56.395Z</time>
      </trkpt>
      <trkpt lat="43.96758" lon="5.88895">
        <ele>575</ele>
        <time>2020-10-05T16:48:57.395Z</time>
      </trkpt>
      <trkpt lat="43.96758" lon="5.88895">
        <ele>575</ele>
        <time>2020-10-05T16:48:58.395Z</time>
      </trkpt>
      <trkpt lat="43.96758" lon="5.88895">
        <ele>575</ele>
        <time>2020-10-05T16:48:59.395Z</time>
      </trkpt>
      <trkpt lat="43.96758" lon="5.88895">
        <ele>575</ele>
        <time>2020-10-05T16:49:00.395Z</time>
      </trkpt>
      <trkpt lat="43.96758" lon="5.88895">
        <ele>576</ele>
        <time>2020-10-05T16:49:01.395Z</time>
      </trkpt>
      <trkpt lat="43.96758" lon="5.88895">
        <ele>576</ele>
        <time>2020-10-05T16:49:02.395Z</time>
      </trkpt>
      <trkpt lat="43.96758" lon="5.88895">
        <ele>576</ele>
        <time>2020-10-05T16:49:03.395Z</time>
      </trkpt>
      <trkpt lat="43.96758" lon="5.88895">
        <ele>576</ele>
        <time>2020-10-05T16:49:04.395Z</time>
      </trkpt>
      <trkpt lat="43.96758" lon="5.88895">
        <ele>576</ele>
        <time>2020-10-05T16:49:05.395Z</time>
      </trkpt>
      <trkpt lat="43.96757" lon="5.88895">
        <ele>576</ele>
        <time>2020-10-05T16:49:06.395Z</time>
      </trkpt>
      <trkpt lat="43.96757" lon="5.88896">
        <ele>576</ele>
        <time>2020-10-05T16:49:07.395Z</time>
      </trkpt>
      <trkpt lat="43.96757" lon="5.88895">
        <ele>576</ele>
        <time>2020-10-05T16:49:08.395Z</time>
      </trkpt>
      <trkpt lat="43.96757" lon="5.88895">
        <ele>577</ele>
        <time>2020-10-05T16:49:09.395Z</time>
      </trkpt>
      <trkpt lat="43.96758" lon="5.88895">
        <ele>577</ele>
        <time>2020-10-05T16:49:10.395Z</time>
      </trkpt>
      <trkpt lat="43.96758" lon="5.88895">
        <ele>577</ele>
        <time>2020-10-05T16:49:11.395Z</time>
      </trkpt>
      <trkpt lat="43.96757" lon="5.88895">
        <ele>577</ele>
        <time>2020-10-05T16:49:12.395Z</time>
      </trkpt>
      <trkpt lat="43.96757" lon="5.88895">
        <ele>577</ele>
        <time>2020-10-05T16:49:13.395Z</time>
      </trkpt>
      <trkpt lat="43.96758" lon="5.88895">
        <ele>577</ele>
        <time>2020-10-05T16:49:14.395Z</time>
      </trkpt>
      <trkpt lat="43.96758" lon="5.88894">
        <ele>577</ele>
        <time>2020-10-05T16:49:15.395Z</time>
      </trkpt>
      <trkpt lat="43.96758" lon="5.88894">
        <ele>577</ele>
        <time>2020-10-05T16:49:16.395Z</time>
      </trkpt>
      <trkpt lat="43.96758" lon="5.88894">
        <ele>577</ele>
        <time>2020-10-05T16:49:17.395Z</time>
      </trkpt>
      <trkpt lat="43.96758" lon="5.88894">
        <ele>577</ele>
        <time>2020-10-05T16:49:18.395Z</time>
      </trkpt>
      <trkpt lat="43.96758" lon="5.88894">
        <ele>577</ele>
        <time>2020-10-05T16:49:19.395Z</time>
      </trkpt>
      <trkpt lat="43.96758" lon="5.88894">
        <ele>577</ele>
        <time>2020-10-05T16:49:20.395Z</time>
      </trkpt>
      <trkpt lat="43.96758" lon="5.88894">
        <ele>577</ele>
        <time>2020-10-05T16:49:21.395Z</time>
      </trkpt>
      <trkpt lat="43.96758" lon="5.88894">
        <ele>577</ele>
        <time>2020-10-05T16:49:22.395Z</time>
      </trkpt>
      <trkpt lat="43.96758" lon="5.88894">
        <ele>577</ele>
        <time>2020-10-05T16:49:23.395Z</time>
      </trkpt>
      <trkpt lat="43.96758" lon="5.88895">
        <ele>577</ele>
        <time>2020-10-05T16:49:24.395Z</time>
      </trkpt>
      <trkpt lat="43.96758" lon="5.88894">
        <ele>577</ele>
        <time>2020-10-05T16:49:25.395Z</time>
      </trkpt>
      <trkpt lat="43.96758" lon="5.88895">
        <ele>577</ele>
        <time>2020-10-05T16:49:26.395Z</time>
      </trkpt>
      <trkpt lat="43.96758" lon="5.88895">
        <ele>577</ele>
        <time>2020-10-05T16:49:27.395Z</time>
      </trkpt>
      <trkpt lat="43.96759" lon="5.88895">
        <ele>577</ele>
        <time>2020-10-05T16:49:28.395Z</time>
      </trkpt>
      <trkpt lat="43.96759" lon="5.88895">
        <ele>577</ele>
        <time>2020-10-05T16:49:29.395Z</time>
      </trkpt>
      <trkpt lat="43.96759" lon="5.88895">
        <ele>577</ele>
        <time>2020-10-05T16:49:30.395Z</time>
      </trkpt>
      <trkpt lat="43.96759" lon="5.88894">
        <ele>577</ele>
        <time>2020-10-05T16:49:31.395Z</time>
      </trkpt>
      <trkpt lat="43.9676" lon="5.88893">
        <ele>577</ele>
        <time>2020-10-05T16:49:32.395Z</time>
      </trkpt>
      <trkpt lat="43.96761" lon="5.88892">
        <ele>577</ele>
        <time>2020-10-05T16:49:33.395Z</time>
      </trkpt>
      <trkpt lat="43.96761" lon="5.88891">
        <ele>577</ele>
        <time>2020-10-05T16:49:34.395Z</time>
      </trkpt>
      <trkpt lat="43.96761" lon="5.88891">
        <ele>577</ele>
        <time>2020-10-05T16:49:35.395Z</time>
      </trkpt>
      <trkpt lat="43.96761" lon="5.8889">
        <ele>577</ele>
        <time>2020-10-05T16:49:36.395Z</time>
      </trkpt>
      <trkpt lat="43.96762" lon="5.8889">
        <ele>577</ele>
        <time>2020-10-05T16:49:37.395Z</time>
      </trkpt>
      <trkpt lat="43.96762" lon="5.8889">
        <ele>577</ele>
        <time>2020-10-05T16:49:38.395Z</time>
      </trkpt>
      <trkpt lat="43.96762" lon="5.8889">
        <ele>577</ele>
        <time>2020-10-05T16:49:39.395Z</time>
      </trkpt>
      <trkpt lat="43.96762" lon="5.8889">
        <ele>577</ele>
        <time>2020-10-05T16:49:40.395Z</time>
      </trkpt>
      <trkpt lat="43.96762" lon="5.8889">
        <ele>577</ele>
        <time>2020-10-05T16:49:41.395Z</time>
      </trkpt>
      <trkpt lat="43.96762" lon="5.8889">
        <ele>577</ele>
        <time>2020-10-05T16:49:42.395Z</time>
      </trkpt>
      <trkpt lat="43.96762" lon="5.8889">
        <ele>577</ele>
        <time>2020-10-05T16:49:43.395Z</time>
      </trkpt>
      <trkpt lat="43.96762" lon="5.8889">
        <ele>577</ele>
        <time>2020-10-05T16:49:44.395Z</time>
      </trkpt>
      <trkpt lat="43.96762" lon="5.8889">
        <ele>577</ele>
        <time>2020-10-05T16:49:45.395Z</time>
      </trkpt>
      <trkpt lat="43.96762" lon="5.8889">
        <ele>577</ele>
        <time>2020-10-05T16:49:46.395Z</time>
      </trkpt>
      <trkpt lat="43.96761" lon="5.8889">
        <ele>577</ele>
        <time>2020-10-05T16:49:47.395Z</time>
      </trkpt>
      <trkpt lat="43.96762" lon="5.8889">
        <ele>577</ele>
        <time>2020-10-05T16:49:48.395Z</time>
      </trkpt>
      <trkpt lat="43.96762" lon="5.8889">
        <ele>577</ele>
        <time>2020-10-05T16:49:49.395Z</time>
      </trkpt>
      <trkpt lat="43.96762" lon="5.8889">
        <ele>577</ele>
        <time>2020-10-05T16:49:50.395Z</time>
      </trkpt>
      <trkpt lat="43.96762" lon="5.8889">
        <ele>577</ele>
        <time>2020-10-05T16:49:51.395Z</time>
      </trkpt>
      <trkpt lat="43.96762" lon="5.8889">
        <ele>577</ele>
        <time>2020-10-05T16:49:52.395Z</time>
      </trkpt>
      <trkpt lat="43.96762" lon="5.8889">
        <ele>577</ele>
        <time>2020-10-05T16:49:53.395Z</time>
      </trkpt>
      <trkpt lat="43.96762" lon="5.8889">
        <ele>577</ele>
        <time>2020-10-05T16:49:54.395Z</time>
      </trkpt>
      <trkpt lat="43.96762" lon="5.8889">
        <ele>577</ele>
        <time>2020-10-05T16:49:55.395Z</time>
      </trkpt>
      <trkpt lat="43.96762" lon="5.8889">
        <ele>577</ele>
        <time>2020-10-05T16:49:56.395Z</time>
      </trkpt>
      <trkpt lat="43.96762" lon="5.88889">
        <ele>577</ele>
        <time>2020-10-05T16:49:57.395Z</time>
      </trkpt>
      <trkpt lat="43.96762" lon="5.88889">
        <ele>577</ele>
        <time>2020-10-05T16:49:58.395Z</time>
      </trkpt>
      <trkpt lat="43.96762" lon="5.88889">
        <ele>577</ele>
        <time>2020-10-05T16:49:59.395Z</time>
      </trkpt>
      <trkpt lat="43.96762" lon="5.88889">
        <ele>577</ele>
        <time>2020-10-05T16:50:00.395Z</time>
      </trkpt>
      <trkpt lat="43.96762" lon="5.88889">
        <ele>577</ele>
        <time>2020-10-05T16:50:01.395Z</time>
      </trkpt>
      <trkpt lat="43.96762" lon="5.88889">
        <ele>577</ele>
        <time>2020-10-05T16:50:02.395Z</time>
      </trkpt>
      <trkpt lat="43.96762" lon="5.88889">
        <ele>577</ele>
        <time>2020-10-05T16:50:03.395Z</time>
      </trkpt>
      <trkpt lat="43.96762" lon="5.88889">
        <ele>577</ele>
        <time>2020-10-05T16:50:04.395Z</time>
      </trkpt>
      <trkpt lat="43.96762" lon="5.88889">
        <ele>577</ele>
        <time>2020-10-05T16:50:05.395Z</time>
      </trkpt>
      <trkpt lat="43.96762" lon="5.88888">
        <ele>577</ele>
        <time>2020-10-05T16:50:06.395Z</time>
      </trkpt>
      <trkpt lat="43.96762" lon="5.88888">
        <ele>577</ele>
        <time>2020-10-05T16:50:07.395Z</time>
      </trkpt>
      <trkpt lat="43.96762" lon="5.88888">
        <ele>577</ele>
        <time>2020-10-05T16:50:08.395Z</time>
      </trkpt>
      <trkpt lat="43.96762" lon="5.88888">
        <ele>577</ele>
        <time>2020-10-05T16:50:09.395Z</time>
      </trkpt>
      <trkpt lat="43.96762" lon="5.88889">
        <ele>577</ele>
        <time>2020-10-05T16:50:10.395Z</time>
      </trkpt>
      <trkpt lat="43.96762" lon="5.88889">
        <ele>577</ele>
        <time>2020-10-05T16:50:11.395Z</time>
      </trkpt>
      <trkpt lat="43.96762" lon="5.88889">
        <ele>577</ele>
        <time>2020-10-05T16:50:12.395Z</time>
      </trkpt>
      <trkpt lat="43.96762" lon="5.88889">
        <ele>577</ele>
        <time>2020-10-05T16:50:13.395Z</time>
      </trkpt>
      <trkpt lat="43.96762" lon="5.88889">
        <ele>577</ele>
        <time>2020-10-05T16:50:14.395Z</time>
      </trkpt>
      <trkpt lat="43.96762" lon="5.88889">
        <ele>577</ele>
        <time>2020-10-05T16:50:15.395Z</time>
      </trkpt>
      <trkpt lat="43.96762" lon="5.88888">
        <ele>577</ele>
        <time>2020-10-05T16:50:16.395Z</time>
      </trkpt>
      <trkpt lat="43.96762" lon="5.88888">
        <ele>577</ele>
        <time>2020-10-05T16:50:17.395Z</time>
      </trkpt>
      <trkpt lat="43.96762" lon="5.88888">
        <ele>577</ele>
        <time>2020-10-05T16:50:18.395Z</time>
      </trkpt>
      <trkpt lat="43.96762" lon="5.88888">
        <ele>577</ele>
        <time>2020-10-05T16:50:19.395Z</time>
      </trkpt>
      <trkpt lat="43.96762" lon="5.88888">
        <ele>577</ele>
        <time>2020-10-05T16:50:20.395Z</time>
      </trkpt>
      <trkpt lat="43.96762" lon="5.88888">
        <ele>577</ele>
        <time>2020-10-05T16:50:21.395Z</time>
      </trkpt>
      <trkpt lat="43.96762" lon="5.88888">
        <ele>577</ele>
        <time>2020-10-05T16:50:22.395Z</time>
      </trkpt>
      <trkpt lat="43.96763" lon="5.88887">
        <ele>577</ele>
        <time>2020-10-05T16:50:23.395Z</time>
      </trkpt>
      <trkpt lat="43.96763" lon="5.88887">
        <ele>577</ele>
        <time>2020-10-05T16:50:24.395Z</time>
      </trkpt>
      <trkpt lat="43.96763" lon="5.88887">
        <ele>577</ele>
        <time>2020-10-05T16:50:25.395Z</time>
      </trkpt>
      <trkpt lat="43.96762" lon="5.88888">
        <ele>577</ele>
        <time>2020-10-05T16:50:26.395Z</time>
      </trkpt>
      <trkpt lat="43.96762" lon="5.88887">
        <ele>577</ele>
        <time>2020-10-05T16:50:27.395Z</time>
      </trkpt>
      <trkpt lat="43.96762" lon="5.88887">
        <ele>577</ele>
        <time>2020-10-05T16:50:28.395Z</time>
      </trkpt>
      <trkpt lat="43.96762" lon="5.88887">
        <ele>577</ele>
        <time>2020-10-05T16:50:29.395Z</time>
      </trkpt>
      <trkpt lat="43.96763" lon="5.88887">
        <ele>577</ele>
        <time>2020-10-05T16:50:30.395Z</time>
      </trkpt>
      <trkpt lat="43.96763" lon="5.88887">
        <ele>577</ele>
        <time>2020-10-05T16:50:31.395Z</time>
      </trkpt>
      <trkpt lat="43.96763" lon="5.88886">
        <ele>577</ele>
        <time>2020-10-05T16:50:32.395Z</time>
      </trkpt>
      <trkpt lat="43.96763" lon="5.88886">
        <ele>577</ele>
        <time>2020-10-05T16:50:33.395Z</time>
      </trkpt>
      <trkpt lat="43.96763" lon="5.88886">
        <ele>577</ele>
        <time>2020-10-05T16:50:34.395Z</time>
      </trkpt>
      <trkpt lat="43.96763" lon="5.88886">
        <ele>577</ele>
        <time>2020-10-05T16:50:35.395Z</time>
      </trkpt>
      <trkpt lat="43.96763" lon="5.88886">
        <ele>577</ele>
        <time>2020-10-05T16:50:36.395Z</time>
      </trkpt>
      <trkpt lat="43.96763" lon="5.88886">
        <ele>577</ele>
        <time>2020-10-05T16:50:37.395Z</time>
      </trkpt>
      <trkpt lat="43.96763" lon="5.88886">
        <ele>577</ele>
        <time>2020-10-05T16:50:38.395Z</time>
      </trkpt>
      <trkpt lat="43.96763" lon="5.88886">
        <ele>577</ele>
        <time>2020-10-05T16:50:39.395Z</time>
      </trkpt>
      <trkpt lat="43.96763" lon="5.88886">
        <ele>577</ele>
        <time>2020-10-05T16:50:40.395Z</time>
      </trkpt>
      <trkpt lat="43.96763" lon="5.88886">
        <ele>577</ele>
        <time>2020-10-05T16:50:41.395Z</time>
      </trkpt>
      <trkpt lat="43.96763" lon="5.88886">
        <ele>577</ele>
        <time>2020-10-05T16:50:42.395Z</time>
      </trkpt>
      <trkpt lat="43.96763" lon="5.88886">
        <ele>577</ele>
        <time>2020-10-05T16:50:43.395Z</time>
      </trkpt>
      <trkpt lat="43.96763" lon="5.88887">
        <ele>577</ele>
        <time>2020-10-05T16:50:44.395Z</time>
      </trkpt>
      <trkpt lat="43.96763" lon="5.88887">
        <ele>576</ele>
        <time>2020-10-05T16:50:45.395Z</time>
      </trkpt>
      <trkpt lat="43.96763" lon="5.88888">
        <ele>576</ele>
        <time>2020-10-05T16:50:46.395Z</time>
      </trkpt>
      <trkpt lat="43.96763" lon="5.88889">
        <ele>576</ele>
        <time>2020-10-05T16:50:47.395Z</time>
      </trkpt>
      <trkpt lat="43.96762" lon="5.8889">
        <ele>576</ele>
        <time>2020-10-05T16:50:48.395Z</time>
      </trkpt>
      <trkpt lat="43.96762" lon="5.88891">
        <ele>576</ele>
        <time>2020-10-05T16:50:49.395Z</time>
      </trkpt>
      <trkpt lat="43.96761" lon="5.88891">
        <ele>576</ele>
        <time>2020-10-05T16:50:50.395Z</time>
      </trkpt>
      <trkpt lat="43.96761" lon="5.88891">
        <ele>576</ele>
        <time>2020-10-05T16:50:51.395Z</time>
      </trkpt>
      <trkpt lat="43.96761" lon="5.88891">
        <ele>576</ele>
        <time>2020-10-05T16:50:52.395Z</time>
      </trkpt>
      <trkpt lat="43.9676" lon="5.88891">
        <ele>576</ele>
        <time>2020-10-05T16:50:53.395Z</time>
      </trkpt>
      <trkpt lat="43.9676" lon="5.88891">
        <ele>576</ele>
        <time>2020-10-05T16:50:54.395Z</time>
      </trkpt>
      <trkpt lat="43.9676" lon="5.88891">
        <ele>576</ele>
        <time>2020-10-05T16:50:55.395Z</time>
      </trkpt>
      <trkpt lat="43.9676" lon="5.88891">
        <ele>576</ele>
        <time>2020-10-05T16:50:56.395Z</time>
      </trkpt>
      <trkpt lat="43.96759" lon="5.88891">
        <ele>576</ele>
        <time>2020-10-05T16:50:57.395Z</time>
      </trkpt>
      <trkpt lat="43.96759" lon="5.88892">
        <ele>576</ele>
        <time>2020-10-05T16:50:58.395Z</time>
      </trkpt>
      <trkpt lat="43.96759" lon="5.88892">
        <ele>576</ele>
        <time>2020-10-05T16:50:59.395Z</time>
      </trkpt>
      <trkpt lat="43.96758" lon="5.88892">
        <ele>576</ele>
        <time>2020-10-05T16:51:00.395Z</time>
      </trkpt>
      <trkpt lat="43.96758" lon="5.88893">
        <ele>576</ele>
        <time>2020-10-05T16:51:01.395Z</time>
      </trkpt>
      <trkpt lat="43.96758" lon="5.88893">
        <ele>576</ele>
        <time>2020-10-05T16:51:02.395Z</time>
      </trkpt>
      <trkpt lat="43.96759" lon="5.88893">
        <ele>576</ele>
        <time>2020-10-05T16:51:03.395Z</time>
      </trkpt>
      <trkpt lat="43.96759" lon="5.88894">
        <ele>577</ele>
        <time>2020-10-05T16:51:04.395Z</time>
      </trkpt>
      <trkpt lat="43.96759" lon="5.88894">
        <ele>577</ele>
        <time>2020-10-05T16:51:05.395Z</time>
      </trkpt>
      <trkpt lat="43.96759" lon="5.88894">
        <ele>576</ele>
        <time>2020-10-05T16:51:06.395Z</time>
      </trkpt>
      <trkpt lat="43.96759" lon="5.88894">
        <ele>576</ele>
        <time>2020-10-05T16:51:07.395Z</time>
      </trkpt>
      <trkpt lat="43.96759" lon="5.88894">
        <ele>576</ele>
        <time>2020-10-05T16:51:08.395Z</time>
      </trkpt>
      <trkpt lat="43.96759" lon="5.88894">
        <ele>576</ele>
        <time>2020-10-05T16:51:09.395Z</time>
      </trkpt>
      <trkpt lat="43.96758" lon="5.88894">
        <ele>576</ele>
        <time>2020-10-05T16:51:10.395Z</time>
      </trkpt>
      <trkpt lat="43.96758" lon="5.88895">
        <ele>576</ele>
        <time>2020-10-05T16:51:11.395Z</time>
      </trkpt>
      <trkpt lat="43.96758" lon="5.88895">
        <ele>576</ele>
        <time>2020-10-05T16:51:12.395Z</time>
      </trkpt>
      <trkpt lat="43.96758" lon="5.88896">
        <ele>576</ele>
        <time>2020-10-05T16:51:13.395Z</time>
      </trkpt>
      <trkpt lat="43.96758" lon="5.88896">
        <ele>576</ele>
        <time>2020-10-05T16:51:14.395Z</time>
      </trkpt>
      <trkpt lat="43.96758" lon="5.88896">
        <ele>576</ele>
        <time>2020-10-05T16:51:15.395Z</time>
      </trkpt>
      <trkpt lat="43.96758" lon="5.88896">
        <ele>576</ele>
        <time>2020-10-05T16:51:16.395Z</time>
      </trkpt>
      <trkpt lat="43.96758" lon="5.88896">
        <ele>576</ele>
        <time>2020-10-05T16:51:17.395Z</time>
      </trkpt>
      <trkpt lat="43.96758" lon="5.88896">
        <ele>576</ele>
        <time>2020-10-05T16:51:18.395Z</time>
      </trkpt>
      <trkpt lat="43.96758" lon="5.88896">
        <ele>576</ele>
        <time>2020-10-05T16:51:19.395Z</time>
      </trkpt>
      <trkpt lat="43.96758" lon="5.88896">
        <ele>576</ele>
        <time>2020-10-05T16:51:20.395Z</time>
      </trkpt>
      <trkpt lat="43.96758" lon="5.88896">
        <ele>576</ele>
        <time>2020-10-05T16:51:21.395Z</time>
      </trkpt>
      <trkpt lat="43.96759" lon="5.88895">
        <ele>576</ele>
        <time>2020-10-05T16:51:22.395Z</time>
      </trkpt>
      <trkpt lat="43.96759" lon="5.88894">
        <ele>576</ele>
        <time>2020-10-05T16:51:23.395Z</time>
      </trkpt>
      <trkpt lat="43.9676" lon="5.88894">
        <ele>576</ele>
        <time>2020-10-05T16:51:24.395Z</time>
      </trkpt>
      <trkpt lat="43.9676" lon="5.88894">
        <ele>576</ele>
        <time>2020-10-05T16:51:25.395Z</time>
      </trkpt>
      <trkpt lat="43.9676" lon="5.88894">
        <ele>576</ele>
        <time>2020-10-05T16:51:26.395Z</time>
      </trkpt>
      <trkpt lat="43.9676" lon="5.88894">
        <ele>576</ele>
        <time>2020-10-05T16:51:27.395Z</time>
      </trkpt>
      <trkpt lat="43.9676" lon="5.88894">
        <ele>576</ele>
        <time>2020-10-05T16:51:28.395Z</time>
      </trkpt>
      <trkpt lat="43.9676" lon="5.88894">
        <ele>576</ele>
        <time>2020-10-05T16:51:29.395Z</time>
      </trkpt>
      <trkpt lat="43.9676" lon="5.88894">
        <ele>576</ele>
        <time>2020-10-05T16:51:30.395Z</time>
      </trkpt>
      <trkpt lat="43.9676" lon="5.88894">
        <ele>576</ele>
        <time>2020-10-05T16:51:31.395Z</time>
      </trkpt>
      <trkpt lat="43.9676" lon="5.88894">
        <ele>576</ele>
        <time>2020-10-05T16:51:32.395Z</time>
      </trkpt>
      <trkpt lat="43.9676" lon="5.88894">
        <ele>576</ele>
        <time>2020-10-05T16:51:33.395Z</time>
      </trkpt>
      <trkpt lat="43.9676" lon="5.88894">
        <ele>576</ele>
        <time>2020-10-05T16:51:34.395Z</time>
      </trkpt>
      <trkpt lat="43.96759" lon="5.88895">
        <ele>576</ele>
        <time>2020-10-05T16:51:35.395Z</time>
      </trkpt>
      <trkpt lat="43.96759" lon="5.88895">
        <ele>576</ele>
        <time>2020-10-05T16:51:36.395Z</time>
      </trkpt>
      <trkpt lat="43.96759" lon="5.88895">
        <ele>576</ele>
        <time>2020-10-05T16:51:37.395Z</time>
      </trkpt>
      <trkpt lat="43.96759" lon="5.88895">
        <ele>576</ele>
        <time>2020-10-05T16:51:38.395Z</time>
      </trkpt>
      <trkpt lat="43.96759" lon="5.88895">
        <ele>576</ele>
        <time>2020-10-05T16:51:39.395Z</time>
      </trkpt>
      <trkpt lat="43.96759" lon="5.88895">
        <ele>576</ele>
        <time>2020-10-05T16:51:40.395Z</time>
      </trkpt>
      <trkpt lat="43.96759" lon="5.88895">
        <ele>576</ele>
        <time>2020-10-05T16:51:41.395Z</time>
      </trkpt>
      <trkpt lat="43.96759" lon="5.88895">
        <ele>576</ele>
        <time>2020-10-05T16:51:42.395Z</time>
      </trkpt>
      <trkpt lat="43.96759" lon="5.88895">
        <ele>576</ele>
        <time>2020-10-05T16:51:43.395Z</time>
      </trkpt>
      <trkpt lat="43.96759" lon="5.88895">
        <ele>576</ele>
        <time>2020-10-05T16:51:44.395Z</time>
      </trkpt>
      <trkpt lat="43.96759" lon="5.88895">
        <ele>576</ele>
        <time>2020-10-05T16:51:45.395Z</time>
      </trkpt>
      <trkpt lat="43.96759" lon="5.88895">
        <ele>576</ele>
        <time>2020-10-05T16:51:46.395Z</time>
      </trkpt>
      <trkpt lat="43.96759" lon="5.88895">
        <ele>576</ele>
        <time>2020-10-05T16:51:47.395Z</time>
      </trkpt>
      <trkpt lat="43.96759" lon="5.88895">
        <ele>576</ele>
        <time>2020-10-05T16:51:48.395Z</time>
      </trkpt>
      <trkpt lat="43.96759" lon="5.88895">
        <ele>576</ele>
        <time>2020-10-05T16:51:49.395Z</time>
      </trkpt>
      <trkpt lat="43.96759" lon="5.88895">
        <ele>576</ele>
        <time>2020-10-05T16:51:50.395Z</time>
      </trkpt>
      <trkpt lat="43.96759" lon="5.88895">
        <ele>576</ele>
        <time>2020-10-05T16:51:51.395Z</time>
      </trkpt>
      <trkpt lat="43.96759" lon="5.88896">
        <ele>576</ele>
        <time>2020-10-05T16:51:52.395Z</time>
      </trkpt>
      <trkpt lat="43.96759" lon="5.88896">
        <ele>576</ele>
        <time>2020-10-05T16:51:53.395Z</time>
      </trkpt>
      <trkpt lat="43.9676" lon="5.88896">
        <ele>576</ele>
        <time>2020-10-05T16:51:54.395Z</time>
      </trkpt>
      <trkpt lat="43.9676" lon="5.88895">
        <ele>576</ele>
        <time>2020-10-05T16:51:55.395Z</time>
      </trkpt>
      <trkpt lat="43.9676" lon="5.88895">
        <ele>576</ele>
        <time>2020-10-05T16:51:56.395Z</time>
      </trkpt>
      <trkpt lat="43.96761" lon="5.88894">
        <ele>576</ele>
        <time>2020-10-05T16:51:57.395Z</time>
      </trkpt>
      <trkpt lat="43.96761" lon="5.88894">
        <ele>576</ele>
        <time>2020-10-05T16:51:58.395Z</time>
      </trkpt>
      <trkpt lat="43.96761" lon="5.88894">
        <ele>576</ele>
        <time>2020-10-05T16:51:59.395Z</time>
      </trkpt>
      <trkpt lat="43.96761" lon="5.88894">
        <ele>576</ele>
        <time>2020-10-05T16:52:00.395Z</time>
      </trkpt>
      <trkpt lat="43.96761" lon="5.88894">
        <ele>576</ele>
        <time>2020-10-05T16:52:01.395Z</time>
      </trkpt>
      <trkpt lat="43.96761" lon="5.88893">
        <ele>576</ele>
        <time>2020-10-05T16:52:02.395Z</time>
      </trkpt>
      <trkpt lat="43.96761" lon="5.88893">
        <ele>576</ele>
        <time>2020-10-05T16:52:03.395Z</time>
      </trkpt>
      <trkpt lat="43.96761" lon="5.88893">
        <ele>576</ele>
        <time>2020-10-05T16:52:04.395Z</time>
      </trkpt>
      <trkpt lat="43.96761" lon="5.88893">
        <ele>576</ele>
        <time>2020-10-05T16:52:05.395Z</time>
      </trkpt>
      <trkpt lat="43.96761" lon="5.88893">
        <ele>576</ele>
        <time>2020-10-05T16:52:06.395Z</time>
      </trkpt>
      <trkpt lat="43.96761" lon="5.88893">
        <ele>576</ele>
        <time>2020-10-05T16:52:07.395Z</time>
      </trkpt>
      <trkpt lat="43.96761" lon="5.88893">
        <ele>576</ele>
        <time>2020-10-05T16:52:08.395Z</time>
      </trkpt>
      <trkpt lat="43.96761" lon="5.88893">
        <ele>576</ele>
        <time>2020-10-05T16:52:09.395Z</time>
      </trkpt>
      <trkpt lat="43.96761" lon="5.88893">
        <ele>575</ele>
        <time>2020-10-05T16:52:10.395Z</time>
      </trkpt>
      <trkpt lat="43.96761" lon="5.88893">
        <ele>575</ele>
        <time>2020-10-05T16:52:11.395Z</time>
      </trkpt>
      <trkpt lat="43.96761" lon="5.88893">
        <ele>575</ele>
        <time>2020-10-05T16:52:12.395Z</time>
      </trkpt>
      <trkpt lat="43.96761" lon="5.88893">
        <ele>575</ele>
        <time>2020-10-05T16:52:13.395Z</time>
      </trkpt>
      <trkpt lat="43.96761" lon="5.88893">
        <ele>575</ele>
        <time>2020-10-05T16:52:14.395Z</time>
      </trkpt>
      <trkpt lat="43.96761" lon="5.88893">
        <ele>575</ele>
        <time>2020-10-05T16:52:15.395Z</time>
      </trkpt>
      <trkpt lat="43.96761" lon="5.88893">
        <ele>575</ele>
        <time>2020-10-05T16:52:16.395Z</time>
      </trkpt>
      <trkpt lat="43.96761" lon="5.88893">
        <ele>575</ele>
        <time>2020-10-05T16:52:17.395Z</time>
      </trkpt>
      <trkpt lat="43.96761" lon="5.88893">
        <ele>575</ele>
        <time>2020-10-05T16:52:18.395Z</time>
      </trkpt>
      <trkpt lat="43.96761" lon="5.88893">
        <ele>575</ele>
        <time>2020-10-05T16:52:19.395Z</time>
      </trkpt>
      <trkpt lat="43.96761" lon="5.88893">
        <ele>575</ele>
        <time>2020-10-05T16:52:20.395Z</time>
      </trkpt>
      <trkpt lat="43.96761" lon="5.88893">
        <ele>575</ele>
        <time>2020-10-05T16:52:21.395Z</time>
      </trkpt>
      <trkpt lat="43.96761" lon="5.88893">
        <ele>575</ele>
        <time>2020-10-05T16:52:22.395Z</time>
      </trkpt>
      <trkpt lat="43.96761" lon="5.88893">
        <ele>575</ele>
        <time>2020-10-05T16:52:23.395Z</time>
      </trkpt>
      <trkpt lat="43.96761" lon="5.88893">
        <ele>575</ele>
        <time>2020-10-05T16:52:24.395Z</time>
      </trkpt>
      <trkpt lat="43.96761" lon="5.88893">
        <ele>575</ele>
        <time>2020-10-05T16:52:25.395Z</time>
      </trkpt>
      <trkpt lat="43.96761" lon="5.88893">
        <ele>575</ele>
        <time>2020-10-05T16:52:26.395Z</time>
      </trkpt>
      <trkpt lat="43.96761" lon="5.88893">
        <ele>575</ele>
        <time>2020-10-05T16:52:27.395Z</time>
      </trkpt>
      <trkpt lat="43.96761" lon="5.88893">
        <ele>575</ele>
        <time>2020-10-05T16:52:28.395Z</time>
      </trkpt>
      <trkpt lat="43.96761" lon="5.88894">
        <ele>575</ele>
        <time>2020-10-05T16:52:29.395Z</time>
      </trkpt>
      <trkpt lat="43.96761" lon="5.88894">
        <ele>575</ele>
        <time>2020-10-05T16:52:30.395Z</time>
      </trkpt>
      <trkpt lat="43.96762" lon="5.88894">
        <ele>575</ele>
        <time>2020-10-05T16:52:31.395Z</time>
      </trkpt>
      <trkpt lat="43.96762" lon="5.88893">
        <ele>575</ele>
        <time>2020-10-05T16:52:32.395Z</time>
      </trkpt>
      <trkpt lat="43.96762" lon="5.88894">
        <ele>575</ele>
        <time>2020-10-05T16:52:33.395Z</time>
      </trkpt>
      <trkpt lat="43.96762" lon="5.88894">
        <ele>575</ele>
        <time>2020-10-05T16:52:34.395Z</time>
      </trkpt>
      <trkpt lat="43.96762" lon="5.88893">
        <ele>575</ele>
        <time>2020-10-05T16:52:35.395Z</time>
      </trkpt>
      <trkpt lat="43.96762" lon="5.88893">
        <ele>575</ele>
        <time>2020-10-05T16:52:36.395Z</time>
      </trkpt>
      <trkpt lat="43.96762" lon="5.88894">
        <ele>575</ele>
        <time>2020-10-05T16:52:37.395Z</time>
      </trkpt>
      <trkpt lat="43.96762" lon="5.88894">
        <ele>575</ele>
        <time>2020-10-05T16:52:38.395Z</time>
      </trkpt>
      <trkpt lat="43.96763" lon="5.88894">
        <ele>575</ele>
        <time>2020-10-05T16:52:39.395Z</time>
      </trkpt>
      <trkpt lat="43.96763" lon="5.88894">
        <ele>575</ele>
        <time>2020-10-05T16:52:40.395Z</time>
      </trkpt>
      <trkpt lat="43.96763" lon="5.88894">
        <ele>575</ele>
        <time>2020-10-05T16:52:41.395Z</time>
      </trkpt>
      <trkpt lat="43.96763" lon="5.88893">
        <ele>575</ele>
        <time>2020-10-05T16:52:42.395Z</time>
      </trkpt>
      <trkpt lat="43.96763" lon="5.88893">
        <ele>575</ele>
        <time>2020-10-05T16:52:43.395Z</time>
      </trkpt>
      <trkpt lat="43.96763" lon="5.88893">
        <ele>575</ele>
        <time>2020-10-05T16:52:44.395Z</time>
      </trkpt>
      <trkpt lat="43.96763" lon="5.88894">
        <ele>575</ele>
        <time>2020-10-05T16:52:45.395Z</time>
      </trkpt>
      <trkpt lat="43.96763" lon="5.88894">
        <ele>575</ele>
        <time>2020-10-05T16:52:46.395Z</time>
      </trkpt>
    </trkseg>
  </trk>
</gpx>